<?xml version="1.0" encoding="UTF-8" standalone="no" ?>
<gpx xmlns="http://www.topografix.com/GPX/1/1" xmlns:xsi="http://www.w3.org/2001/XMLSchema-instance" xsi:schemaLocation="http://www.topografix.com/GPX/1/1 http://www.topografix.com/GPX/1/1/gpx.xsd" version="1.1" creator="VisuGPX - https://www.visugpx.com">
  <metadata>
    <name>Périple VTT Leguillac salviac 10 au 13 août 2022</name>
  </metadata>
  <trk>
    <name><![CDATA[Périple VTT Leguillac salviac 10 au 13 août 2022_1]]></name>
    <trkseg>
      <trkpt lat="45.16613" lon="0.52053">
        <ele>204.7</ele>
        <time>2022-08-10T09:01:13Z</time>
      </trkpt>
      <trkpt lat="45.16618" lon="0.52054">
        <ele>205.3</ele>
        <time>2022-08-10T09:01:15Z</time>
      </trkpt>
      <trkpt lat="45.16614" lon="0.5205">
        <ele>182.6</ele>
        <time>2022-08-10T09:02:26Z</time>
      </trkpt>
      <trkpt lat="45.16613" lon="0.52044">
        <ele>178.6</ele>
        <time>2022-08-10T09:02:43Z</time>
      </trkpt>
      <trkpt lat="45.16607" lon="0.52042">
        <ele>178.6</ele>
        <time>2022-08-10T09:02:45Z</time>
      </trkpt>
      <trkpt lat="45.16599" lon="0.52039">
        <ele>176.6</ele>
        <time>2022-08-10T09:02:47Z</time>
      </trkpt>
      <trkpt lat="45.16589" lon="0.52035">
        <ele>175.6</ele>
        <time>2022-08-10T09:02:49Z</time>
      </trkpt>
      <trkpt lat="45.16584" lon="0.52031">
        <ele>175.6</ele>
        <time>2022-08-10T09:02:50Z</time>
      </trkpt>
      <trkpt lat="45.16578" lon="0.52026">
        <ele>175.6</ele>
        <time>2022-08-10T09:02:51Z</time>
      </trkpt>
      <trkpt lat="45.16573" lon="0.52022">
        <ele>174.6</ele>
        <time>2022-08-10T09:02:52Z</time>
      </trkpt>
      <trkpt lat="45.16567" lon="0.52017">
        <ele>173.6</ele>
        <time>2022-08-10T09:02:53Z</time>
      </trkpt>
      <trkpt lat="45.16561" lon="0.52013">
        <ele>172.6</ele>
        <time>2022-08-10T09:02:54Z</time>
      </trkpt>
      <trkpt lat="45.16556" lon="0.52008">
        <ele>172.6</ele>
        <time>2022-08-10T09:02:55Z</time>
      </trkpt>
      <trkpt lat="45.1655" lon="0.52005">
        <ele>172.6</ele>
        <time>2022-08-10T09:02:56Z</time>
      </trkpt>
      <trkpt lat="45.16544" lon="0.52004">
        <ele>171.6</ele>
        <time>2022-08-10T09:02:57Z</time>
      </trkpt>
      <trkpt lat="45.16538" lon="0.52004">
        <ele>171.6</ele>
        <time>2022-08-10T09:02:58Z</time>
      </trkpt>
      <trkpt lat="45.16532" lon="0.52005">
        <ele>171.6</ele>
        <time>2022-08-10T09:02:59Z</time>
      </trkpt>
      <trkpt lat="45.16526" lon="0.52005">
        <ele>171.6</ele>
        <time>2022-08-10T09:03:00Z</time>
      </trkpt>
      <trkpt lat="45.1652" lon="0.52007">
        <ele>171.6</ele>
        <time>2022-08-10T09:03:01Z</time>
      </trkpt>
      <trkpt lat="45.16514" lon="0.52008">
        <ele>171.6</ele>
        <time>2022-08-10T09:03:02Z</time>
      </trkpt>
      <trkpt lat="45.16508" lon="0.52011">
        <ele>170.6</ele>
        <time>2022-08-10T09:03:03Z</time>
      </trkpt>
      <trkpt lat="45.16502" lon="0.52015">
        <ele>169.6</ele>
        <time>2022-08-10T09:03:05Z</time>
      </trkpt>
      <trkpt lat="45.16495" lon="0.52018">
        <ele>170.6</ele>
        <time>2022-08-10T09:03:07Z</time>
      </trkpt>
      <trkpt lat="45.16489" lon="0.52022">
        <ele>170.6</ele>
        <time>2022-08-10T09:03:09Z</time>
      </trkpt>
      <trkpt lat="45.16484" lon="0.52024">
        <ele>170.6</ele>
        <time>2022-08-10T09:03:11Z</time>
      </trkpt>
      <trkpt lat="45.16479" lon="0.52027">
        <ele>170.6</ele>
        <time>2022-08-10T09:03:13Z</time>
      </trkpt>
      <trkpt lat="45.16474" lon="0.52029">
        <ele>170.6</ele>
        <time>2022-08-10T09:03:15Z</time>
      </trkpt>
      <trkpt lat="45.1647" lon="0.52031">
        <ele>170.6</ele>
        <time>2022-08-10T09:03:17Z</time>
      </trkpt>
      <trkpt lat="45.16465" lon="0.52034">
        <ele>171.6</ele>
        <time>2022-08-10T09:03:19Z</time>
      </trkpt>
      <trkpt lat="45.1646" lon="0.52037">
        <ele>171.6</ele>
        <time>2022-08-10T09:03:21Z</time>
      </trkpt>
      <trkpt lat="45.16454" lon="0.52039">
        <ele>171.6</ele>
        <time>2022-08-10T09:03:23Z</time>
      </trkpt>
      <trkpt lat="45.1645" lon="0.52044">
        <ele>171.6</ele>
        <time>2022-08-10T09:03:25Z</time>
      </trkpt>
      <trkpt lat="45.16445" lon="0.5205">
        <ele>171.6</ele>
        <time>2022-08-10T09:03:27Z</time>
      </trkpt>
      <trkpt lat="45.16441" lon="0.52055">
        <ele>171.6</ele>
        <time>2022-08-10T09:03:29Z</time>
      </trkpt>
      <trkpt lat="45.16436" lon="0.5206">
        <ele>171.6</ele>
        <time>2022-08-10T09:03:31Z</time>
      </trkpt>
      <trkpt lat="45.16432" lon="0.52065">
        <ele>170.6</ele>
        <time>2022-08-10T09:03:33Z</time>
      </trkpt>
      <trkpt lat="45.16428" lon="0.52072">
        <ele>170.6</ele>
        <time>2022-08-10T09:03:35Z</time>
      </trkpt>
      <trkpt lat="45.16423" lon="0.52079">
        <ele>170.6</ele>
        <time>2022-08-10T09:03:37Z</time>
      </trkpt>
      <trkpt lat="45.16418" lon="0.52086">
        <ele>170.6</ele>
        <time>2022-08-10T09:03:39Z</time>
      </trkpt>
      <trkpt lat="45.16413" lon="0.52092">
        <ele>170.6</ele>
        <time>2022-08-10T09:03:41Z</time>
      </trkpt>
      <trkpt lat="45.16408" lon="0.52098">
        <ele>170.6</ele>
        <time>2022-08-10T09:03:43Z</time>
      </trkpt>
      <trkpt lat="45.16403" lon="0.52103">
        <ele>171.6</ele>
        <time>2022-08-10T09:03:45Z</time>
      </trkpt>
      <trkpt lat="45.16398" lon="0.52108">
        <ele>171.6</ele>
        <time>2022-08-10T09:03:47Z</time>
      </trkpt>
      <trkpt lat="45.16394" lon="0.52112">
        <ele>171.6</ele>
        <time>2022-08-10T09:03:49Z</time>
      </trkpt>
      <trkpt lat="45.1639" lon="0.52117">
        <ele>172.6</ele>
        <time>2022-08-10T09:03:51Z</time>
      </trkpt>
      <trkpt lat="45.16386" lon="0.52122">
        <ele>171.6</ele>
        <time>2022-08-10T09:03:53Z</time>
      </trkpt>
      <trkpt lat="45.16381" lon="0.52126">
        <ele>171.6</ele>
        <time>2022-08-10T09:03:55Z</time>
      </trkpt>
      <trkpt lat="45.16377" lon="0.52133">
        <ele>172.6</ele>
        <time>2022-08-10T09:03:57Z</time>
      </trkpt>
      <trkpt lat="45.16373" lon="0.52138">
        <ele>172.6</ele>
        <time>2022-08-10T09:03:59Z</time>
      </trkpt>
      <trkpt lat="45.16367" lon="0.52144">
        <ele>172.6</ele>
        <time>2022-08-10T09:04:01Z</time>
      </trkpt>
      <trkpt lat="45.16361" lon="0.5215">
        <ele>172.6</ele>
        <time>2022-08-10T09:04:03Z</time>
      </trkpt>
      <trkpt lat="45.16355" lon="0.52154">
        <ele>172.6</ele>
        <time>2022-08-10T09:04:05Z</time>
      </trkpt>
      <trkpt lat="45.16349" lon="0.52159">
        <ele>172.6</ele>
        <time>2022-08-10T09:04:07Z</time>
      </trkpt>
      <trkpt lat="45.16343" lon="0.52166">
        <ele>172.6</ele>
        <time>2022-08-10T09:04:09Z</time>
      </trkpt>
      <trkpt lat="45.16337" lon="0.52173">
        <ele>172.6</ele>
        <time>2022-08-10T09:04:11Z</time>
      </trkpt>
      <trkpt lat="45.16332" lon="0.52178">
        <ele>172.6</ele>
        <time>2022-08-10T09:04:12Z</time>
      </trkpt>
      <trkpt lat="45.16328" lon="0.52183">
        <ele>171.6</ele>
        <time>2022-08-10T09:04:13Z</time>
      </trkpt>
      <trkpt lat="45.16325" lon="0.52188">
        <ele>172.6</ele>
        <time>2022-08-10T09:04:14Z</time>
      </trkpt>
      <trkpt lat="45.16321" lon="0.52192">
        <ele>171.6</ele>
        <time>2022-08-10T09:04:15Z</time>
      </trkpt>
      <trkpt lat="45.16317" lon="0.52197">
        <ele>172.6</ele>
        <time>2022-08-10T09:04:16Z</time>
      </trkpt>
      <trkpt lat="45.16314" lon="0.52202">
        <ele>172.6</ele>
        <time>2022-08-10T09:04:17Z</time>
      </trkpt>
      <trkpt lat="45.16309" lon="0.52207">
        <ele>172.6</ele>
        <time>2022-08-10T09:04:18Z</time>
      </trkpt>
      <trkpt lat="45.16305" lon="0.52211">
        <ele>172.6</ele>
        <time>2022-08-10T09:04:19Z</time>
      </trkpt>
      <trkpt lat="45.16301" lon="0.52216">
        <ele>172.6</ele>
        <time>2022-08-10T09:04:20Z</time>
      </trkpt>
      <trkpt lat="45.16298" lon="0.52221">
        <ele>172.6</ele>
        <time>2022-08-10T09:04:21Z</time>
      </trkpt>
      <trkpt lat="45.16294" lon="0.52226">
        <ele>172.6</ele>
        <time>2022-08-10T09:04:22Z</time>
      </trkpt>
      <trkpt lat="45.16289" lon="0.52232">
        <ele>171.6</ele>
        <time>2022-08-10T09:04:24Z</time>
      </trkpt>
      <trkpt lat="45.16285" lon="0.52236">
        <ele>172.6</ele>
        <time>2022-08-10T09:04:29Z</time>
      </trkpt>
      <trkpt lat="45.16289" lon="0.52236">
        <ele>164.6</ele>
        <time>2022-08-10T09:06:53Z</time>
      </trkpt>
      <trkpt lat="45.16284" lon="0.52237">
        <ele>166.6</ele>
        <time>2022-08-10T09:07:01Z</time>
      </trkpt>
      <trkpt lat="45.16278" lon="0.52243">
        <ele>166.6</ele>
        <time>2022-08-10T09:07:04Z</time>
      </trkpt>
      <trkpt lat="45.16272" lon="0.52247">
        <ele>167.6</ele>
        <time>2022-08-10T09:07:06Z</time>
      </trkpt>
      <trkpt lat="45.16267" lon="0.52251">
        <ele>167.6</ele>
        <time>2022-08-10T09:07:08Z</time>
      </trkpt>
      <trkpt lat="45.16261" lon="0.52256">
        <ele>168.6</ele>
        <time>2022-08-10T09:07:10Z</time>
      </trkpt>
      <trkpt lat="45.16255" lon="0.5226">
        <ele>167.6</ele>
        <time>2022-08-10T09:07:12Z</time>
      </trkpt>
      <trkpt lat="45.16248" lon="0.52266">
        <ele>166.6</ele>
        <time>2022-08-10T09:07:14Z</time>
      </trkpt>
      <trkpt lat="45.16241" lon="0.52273">
        <ele>167.6</ele>
        <time>2022-08-10T09:07:16Z</time>
      </trkpt>
      <trkpt lat="45.16236" lon="0.52277">
        <ele>167.6</ele>
        <time>2022-08-10T09:07:17Z</time>
      </trkpt>
      <trkpt lat="45.1623" lon="0.52281">
        <ele>168.6</ele>
        <time>2022-08-10T09:07:18Z</time>
      </trkpt>
      <trkpt lat="45.16225" lon="0.52285">
        <ele>168.6</ele>
        <time>2022-08-10T09:07:19Z</time>
      </trkpt>
      <trkpt lat="45.16221" lon="0.52288">
        <ele>168.6</ele>
        <time>2022-08-10T09:07:20Z</time>
      </trkpt>
      <trkpt lat="45.16216" lon="0.52291">
        <ele>167.6</ele>
        <time>2022-08-10T09:07:21Z</time>
      </trkpt>
      <trkpt lat="45.16212" lon="0.52294">
        <ele>166.6</ele>
        <time>2022-08-10T09:07:22Z</time>
      </trkpt>
      <trkpt lat="45.16208" lon="0.52297">
        <ele>167.6</ele>
        <time>2022-08-10T09:07:23Z</time>
      </trkpt>
      <trkpt lat="45.16201" lon="0.52302">
        <ele>166.6</ele>
        <time>2022-08-10T09:07:25Z</time>
      </trkpt>
      <trkpt lat="45.16196" lon="0.52304">
        <ele>166.6</ele>
        <time>2022-08-10T09:07:28Z</time>
      </trkpt>
      <trkpt lat="45.1619" lon="0.52304">
        <ele>166.6</ele>
        <time>2022-08-10T09:08:07Z</time>
      </trkpt>
      <trkpt lat="45.16184" lon="0.52306">
        <ele>166.6</ele>
        <time>2022-08-10T09:08:09Z</time>
      </trkpt>
      <trkpt lat="45.16176" lon="0.52309">
        <ele>166.6</ele>
        <time>2022-08-10T09:08:11Z</time>
      </trkpt>
      <trkpt lat="45.16172" lon="0.52312">
        <ele>166.6</ele>
        <time>2022-08-10T09:08:12Z</time>
      </trkpt>
      <trkpt lat="45.16166" lon="0.52315">
        <ele>166.6</ele>
        <time>2022-08-10T09:08:14Z</time>
      </trkpt>
      <trkpt lat="45.16161" lon="0.52318">
        <ele>165.6</ele>
        <time>2022-08-10T09:08:19Z</time>
      </trkpt>
      <trkpt lat="45.16154" lon="0.5232">
        <ele>164.6</ele>
        <time>2022-08-10T09:08:22Z</time>
      </trkpt>
      <trkpt lat="45.16147" lon="0.52323">
        <ele>164.6</ele>
        <time>2022-08-10T09:08:24Z</time>
      </trkpt>
      <trkpt lat="45.16137" lon="0.52327">
        <ele>163.6</ele>
        <time>2022-08-10T09:08:26Z</time>
      </trkpt>
      <trkpt lat="45.16132" lon="0.5233">
        <ele>163.6</ele>
        <time>2022-08-10T09:08:27Z</time>
      </trkpt>
      <trkpt lat="45.16127" lon="0.52332">
        <ele>162.6</ele>
        <time>2022-08-10T09:08:28Z</time>
      </trkpt>
      <trkpt lat="45.16121" lon="0.52334">
        <ele>162.6</ele>
        <time>2022-08-10T09:08:29Z</time>
      </trkpt>
      <trkpt lat="45.16116" lon="0.52337">
        <ele>161.6</ele>
        <time>2022-08-10T09:08:30Z</time>
      </trkpt>
      <trkpt lat="45.16111" lon="0.52339">
        <ele>161.6</ele>
        <time>2022-08-10T09:08:31Z</time>
      </trkpt>
      <trkpt lat="45.16106" lon="0.52342">
        <ele>160.6</ele>
        <time>2022-08-10T09:08:32Z</time>
      </trkpt>
      <trkpt lat="45.16101" lon="0.52345">
        <ele>160.6</ele>
        <time>2022-08-10T09:08:33Z</time>
      </trkpt>
      <trkpt lat="45.16096" lon="0.52348">
        <ele>159.6</ele>
        <time>2022-08-10T09:08:34Z</time>
      </trkpt>
      <trkpt lat="45.16091" lon="0.52349">
        <ele>158.6</ele>
        <time>2022-08-10T09:08:35Z</time>
      </trkpt>
      <trkpt lat="45.16085" lon="0.52351">
        <ele>158.6</ele>
        <time>2022-08-10T09:08:36Z</time>
      </trkpt>
      <trkpt lat="45.16079" lon="0.52354">
        <ele>158.6</ele>
        <time>2022-08-10T09:08:37Z</time>
      </trkpt>
      <trkpt lat="45.16073" lon="0.52358">
        <ele>158.6</ele>
        <time>2022-08-10T09:08:38Z</time>
      </trkpt>
      <trkpt lat="45.16067" lon="0.52362">
        <ele>158.6</ele>
        <time>2022-08-10T09:08:39Z</time>
      </trkpt>
      <trkpt lat="45.16061" lon="0.52367">
        <ele>157.6</ele>
        <time>2022-08-10T09:08:40Z</time>
      </trkpt>
      <trkpt lat="45.16055" lon="0.52371">
        <ele>156.6</ele>
        <time>2022-08-10T09:08:41Z</time>
      </trkpt>
      <trkpt lat="45.16049" lon="0.52375">
        <ele>156.6</ele>
        <time>2022-08-10T09:08:42Z</time>
      </trkpt>
      <trkpt lat="45.16043" lon="0.5238">
        <ele>156.6</ele>
        <time>2022-08-10T09:08:43Z</time>
      </trkpt>
      <trkpt lat="45.16037" lon="0.52384">
        <ele>156.6</ele>
        <time>2022-08-10T09:08:44Z</time>
      </trkpt>
      <trkpt lat="45.16032" lon="0.52389">
        <ele>155.6</ele>
        <time>2022-08-10T09:08:45Z</time>
      </trkpt>
      <trkpt lat="45.16026" lon="0.52393">
        <ele>155.6</ele>
        <time>2022-08-10T09:08:46Z</time>
      </trkpt>
      <trkpt lat="45.16019" lon="0.52398">
        <ele>155.6</ele>
        <time>2022-08-10T09:08:47Z</time>
      </trkpt>
      <trkpt lat="45.16014" lon="0.52402">
        <ele>155.6</ele>
        <time>2022-08-10T09:08:48Z</time>
      </trkpt>
      <trkpt lat="45.16009" lon="0.52406">
        <ele>154.6</ele>
        <time>2022-08-10T09:08:49Z</time>
      </trkpt>
      <trkpt lat="45.16003" lon="0.5241">
        <ele>154.6</ele>
        <time>2022-08-10T09:08:50Z</time>
      </trkpt>
      <trkpt lat="45.15996" lon="0.52414">
        <ele>154.6</ele>
        <time>2022-08-10T09:08:51Z</time>
      </trkpt>
      <trkpt lat="45.15989" lon="0.52417">
        <ele>154.6</ele>
        <time>2022-08-10T09:08:52Z</time>
      </trkpt>
      <trkpt lat="45.15982" lon="0.52421">
        <ele>153.6</ele>
        <time>2022-08-10T09:08:53Z</time>
      </trkpt>
      <trkpt lat="45.15976" lon="0.52425">
        <ele>153.6</ele>
        <time>2022-08-10T09:08:54Z</time>
      </trkpt>
      <trkpt lat="45.15969" lon="0.52429">
        <ele>153.6</ele>
        <time>2022-08-10T09:08:55Z</time>
      </trkpt>
      <trkpt lat="45.15963" lon="0.52432">
        <ele>152.6</ele>
        <time>2022-08-10T09:08:56Z</time>
      </trkpt>
      <trkpt lat="45.15956" lon="0.52435">
        <ele>152.6</ele>
        <time>2022-08-10T09:08:57Z</time>
      </trkpt>
      <trkpt lat="45.15948" lon="0.52438">
        <ele>152.6</ele>
        <time>2022-08-10T09:08:58Z</time>
      </trkpt>
      <trkpt lat="45.15941" lon="0.52443">
        <ele>152.6</ele>
        <time>2022-08-10T09:08:59Z</time>
      </trkpt>
      <trkpt lat="45.15935" lon="0.52446">
        <ele>152.6</ele>
        <time>2022-08-10T09:09:00Z</time>
      </trkpt>
      <trkpt lat="45.15928" lon="0.5245">
        <ele>152.6</ele>
        <time>2022-08-10T09:09:01Z</time>
      </trkpt>
      <trkpt lat="45.15922" lon="0.52453">
        <ele>152.6</ele>
        <time>2022-08-10T09:09:02Z</time>
      </trkpt>
      <trkpt lat="45.15916" lon="0.52456">
        <ele>151.6</ele>
        <time>2022-08-10T09:09:03Z</time>
      </trkpt>
      <trkpt lat="45.15909" lon="0.52458">
        <ele>151.6</ele>
        <time>2022-08-10T09:09:04Z</time>
      </trkpt>
      <trkpt lat="45.15894" lon="0.52462">
        <ele>150.6</ele>
        <time>2022-08-10T09:09:06Z</time>
      </trkpt>
      <trkpt lat="45.15887" lon="0.52464">
        <ele>150.6</ele>
        <time>2022-08-10T09:09:07Z</time>
      </trkpt>
      <trkpt lat="45.15879" lon="0.52466">
        <ele>150.6</ele>
        <time>2022-08-10T09:09:08Z</time>
      </trkpt>
      <trkpt lat="45.15871" lon="0.52468">
        <ele>150.6</ele>
        <time>2022-08-10T09:09:09Z</time>
      </trkpt>
      <trkpt lat="45.15863" lon="0.52469">
        <ele>150.6</ele>
        <time>2022-08-10T09:09:10Z</time>
      </trkpt>
      <trkpt lat="45.15855" lon="0.5247">
        <ele>150.6</ele>
        <time>2022-08-10T09:09:11Z</time>
      </trkpt>
      <trkpt lat="45.15847" lon="0.5247">
        <ele>149.6</ele>
        <time>2022-08-10T09:09:12Z</time>
      </trkpt>
      <trkpt lat="45.15838" lon="0.52471">
        <ele>149.6</ele>
        <time>2022-08-10T09:09:13Z</time>
      </trkpt>
      <trkpt lat="45.15829" lon="0.5247">
        <ele>148.6</ele>
        <time>2022-08-10T09:09:14Z</time>
      </trkpt>
      <trkpt lat="45.15821" lon="0.52468">
        <ele>148.6</ele>
        <time>2022-08-10T09:09:15Z</time>
      </trkpt>
      <trkpt lat="45.15812" lon="0.52467">
        <ele>148.6</ele>
        <time>2022-08-10T09:09:16Z</time>
      </trkpt>
      <trkpt lat="45.15802" lon="0.52466">
        <ele>148.6</ele>
        <time>2022-08-10T09:09:17Z</time>
      </trkpt>
      <trkpt lat="45.15793" lon="0.52467">
        <ele>148.6</ele>
        <time>2022-08-10T09:09:18Z</time>
      </trkpt>
      <trkpt lat="45.15783" lon="0.52467">
        <ele>148.6</ele>
        <time>2022-08-10T09:09:19Z</time>
      </trkpt>
      <trkpt lat="45.15774" lon="0.52467">
        <ele>148.6</ele>
        <time>2022-08-10T09:09:20Z</time>
      </trkpt>
      <trkpt lat="45.15766" lon="0.52467">
        <ele>148.6</ele>
        <time>2022-08-10T09:09:21Z</time>
      </trkpt>
      <trkpt lat="45.15757" lon="0.52467">
        <ele>148.6</ele>
        <time>2022-08-10T09:09:22Z</time>
      </trkpt>
      <trkpt lat="45.15749" lon="0.52467">
        <ele>148.6</ele>
        <time>2022-08-10T09:09:23Z</time>
      </trkpt>
      <trkpt lat="45.15742" lon="0.52468">
        <ele>148.6</ele>
        <time>2022-08-10T09:09:24Z</time>
      </trkpt>
      <trkpt lat="45.15734" lon="0.5247">
        <ele>147.6</ele>
        <time>2022-08-10T09:09:25Z</time>
      </trkpt>
      <trkpt lat="45.15728" lon="0.52473">
        <ele>147.6</ele>
        <time>2022-08-10T09:09:26Z</time>
      </trkpt>
      <trkpt lat="45.1572" lon="0.52476">
        <ele>146.6</ele>
        <time>2022-08-10T09:09:27Z</time>
      </trkpt>
      <trkpt lat="45.15712" lon="0.5248">
        <ele>146.6</ele>
        <time>2022-08-10T09:09:28Z</time>
      </trkpt>
      <trkpt lat="45.15704" lon="0.52483">
        <ele>146.6</ele>
        <time>2022-08-10T09:09:29Z</time>
      </trkpt>
      <trkpt lat="45.1569" lon="0.5249">
        <ele>145.6</ele>
        <time>2022-08-10T09:09:31Z</time>
      </trkpt>
      <trkpt lat="45.15683" lon="0.52494">
        <ele>144.6</ele>
        <time>2022-08-10T09:09:32Z</time>
      </trkpt>
      <trkpt lat="45.15676" lon="0.52499">
        <ele>144.6</ele>
        <time>2022-08-10T09:09:33Z</time>
      </trkpt>
      <trkpt lat="45.15668" lon="0.52503">
        <ele>144.6</ele>
        <time>2022-08-10T09:09:34Z</time>
      </trkpt>
      <trkpt lat="45.15661" lon="0.52507">
        <ele>143.6</ele>
        <time>2022-08-10T09:09:35Z</time>
      </trkpt>
      <trkpt lat="45.15654" lon="0.52513">
        <ele>143.6</ele>
        <time>2022-08-10T09:09:36Z</time>
      </trkpt>
      <trkpt lat="45.15648" lon="0.52517">
        <ele>142.6</ele>
        <time>2022-08-10T09:09:37Z</time>
      </trkpt>
      <trkpt lat="45.15643" lon="0.52522">
        <ele>142.6</ele>
        <time>2022-08-10T09:09:38Z</time>
      </trkpt>
      <trkpt lat="45.15638" lon="0.52526">
        <ele>141.6</ele>
        <time>2022-08-10T09:09:39Z</time>
      </trkpt>
      <trkpt lat="45.15631" lon="0.52532">
        <ele>138.6</ele>
        <time>2022-08-10T09:09:41Z</time>
      </trkpt>
      <trkpt lat="45.15625" lon="0.52533">
        <ele>138.6</ele>
        <time>2022-08-10T09:09:43Z</time>
      </trkpt>
      <trkpt lat="45.15619" lon="0.52534">
        <ele>137.6</ele>
        <time>2022-08-10T09:09:45Z</time>
      </trkpt>
      <trkpt lat="45.15609" lon="0.52537">
        <ele>135.6</ele>
        <time>2022-08-10T09:09:47Z</time>
      </trkpt>
      <trkpt lat="45.15603" lon="0.52539">
        <ele>134.6</ele>
        <time>2022-08-10T09:09:48Z</time>
      </trkpt>
      <trkpt lat="45.15596" lon="0.5254">
        <ele>133.6</ele>
        <time>2022-08-10T09:09:49Z</time>
      </trkpt>
      <trkpt lat="45.1559" lon="0.52542">
        <ele>132.6</ele>
        <time>2022-08-10T09:09:50Z</time>
      </trkpt>
      <trkpt lat="45.15585" lon="0.52545">
        <ele>131.6</ele>
        <time>2022-08-10T09:09:51Z</time>
      </trkpt>
      <trkpt lat="45.15579" lon="0.52547">
        <ele>130.6</ele>
        <time>2022-08-10T09:09:52Z</time>
      </trkpt>
      <trkpt lat="45.15573" lon="0.5255">
        <ele>129.6</ele>
        <time>2022-08-10T09:09:53Z</time>
      </trkpt>
      <trkpt lat="45.15567" lon="0.52553">
        <ele>127.6</ele>
        <time>2022-08-10T09:09:54Z</time>
      </trkpt>
      <trkpt lat="45.1556" lon="0.52555">
        <ele>126.6</ele>
        <time>2022-08-10T09:09:55Z</time>
      </trkpt>
      <trkpt lat="45.15554" lon="0.52557">
        <ele>125.6</ele>
        <time>2022-08-10T09:09:56Z</time>
      </trkpt>
      <trkpt lat="45.15548" lon="0.52559">
        <ele>124.6</ele>
        <time>2022-08-10T09:09:57Z</time>
      </trkpt>
      <trkpt lat="45.15542" lon="0.5256">
        <ele>124.6</ele>
        <time>2022-08-10T09:09:58Z</time>
      </trkpt>
      <trkpt lat="45.15536" lon="0.52562">
        <ele>124.6</ele>
        <time>2022-08-10T09:09:59Z</time>
      </trkpt>
      <trkpt lat="45.1553" lon="0.52565">
        <ele>123.6</ele>
        <time>2022-08-10T09:10:00Z</time>
      </trkpt>
      <trkpt lat="45.15522" lon="0.52568">
        <ele>121.6</ele>
        <time>2022-08-10T09:10:01Z</time>
      </trkpt>
      <trkpt lat="45.15516" lon="0.52569">
        <ele>120.6</ele>
        <time>2022-08-10T09:10:02Z</time>
      </trkpt>
      <trkpt lat="45.1551" lon="0.52571">
        <ele>118.6</ele>
        <time>2022-08-10T09:10:04Z</time>
      </trkpt>
      <trkpt lat="45.15515" lon="0.52573">
        <ele>114.6</ele>
        <time>2022-08-10T09:10:23Z</time>
      </trkpt>
      <trkpt lat="45.15509" lon="0.52577">
        <ele>115.6</ele>
        <time>2022-08-10T09:10:59Z</time>
      </trkpt>
      <trkpt lat="45.15502" lon="0.52579">
        <ele>115.6</ele>
        <time>2022-08-10T09:11:01Z</time>
      </trkpt>
      <trkpt lat="45.15497" lon="0.52579">
        <ele>115.6</ele>
        <time>2022-08-10T09:11:02Z</time>
      </trkpt>
      <trkpt lat="45.15492" lon="0.5258">
        <ele>115.6</ele>
        <time>2022-08-10T09:11:03Z</time>
      </trkpt>
      <trkpt lat="45.15487" lon="0.5258">
        <ele>115.6</ele>
        <time>2022-08-10T09:11:04Z</time>
      </trkpt>
      <trkpt lat="45.15479" lon="0.52578">
        <ele>114.6</ele>
        <time>2022-08-10T09:11:06Z</time>
      </trkpt>
      <trkpt lat="45.15474" lon="0.52578">
        <ele>114.6</ele>
        <time>2022-08-10T09:11:07Z</time>
      </trkpt>
      <trkpt lat="45.15469" lon="0.52578">
        <ele>114.6</ele>
        <time>2022-08-10T09:11:08Z</time>
      </trkpt>
      <trkpt lat="45.15464" lon="0.52579">
        <ele>113.6</ele>
        <time>2022-08-10T09:11:09Z</time>
      </trkpt>
      <trkpt lat="45.1546" lon="0.52579">
        <ele>113.6</ele>
        <time>2022-08-10T09:11:10Z</time>
      </trkpt>
      <trkpt lat="45.15451" lon="0.5258">
        <ele>111.6</ele>
        <time>2022-08-10T09:11:12Z</time>
      </trkpt>
      <trkpt lat="45.15442" lon="0.5258">
        <ele>110.6</ele>
        <time>2022-08-10T09:11:14Z</time>
      </trkpt>
      <trkpt lat="45.15435" lon="0.52582">
        <ele>109.6</ele>
        <time>2022-08-10T09:11:16Z</time>
      </trkpt>
      <trkpt lat="45.15429" lon="0.52581">
        <ele>109.6</ele>
        <time>2022-08-10T09:11:19Z</time>
      </trkpt>
      <trkpt lat="45.15425" lon="0.52579">
        <ele>108.6</ele>
        <time>2022-08-10T09:11:21Z</time>
      </trkpt>
      <trkpt lat="45.15419" lon="0.52581">
        <ele>107.6</ele>
        <time>2022-08-10T09:11:23Z</time>
      </trkpt>
      <trkpt lat="45.15411" lon="0.52586">
        <ele>105.6</ele>
        <time>2022-08-10T09:11:25Z</time>
      </trkpt>
      <trkpt lat="45.15406" lon="0.5259">
        <ele>105.6</ele>
        <time>2022-08-10T09:11:26Z</time>
      </trkpt>
      <trkpt lat="45.15399" lon="0.52594">
        <ele>104.6</ele>
        <time>2022-08-10T09:11:27Z</time>
      </trkpt>
      <trkpt lat="45.15393" lon="0.52599">
        <ele>103.6</ele>
        <time>2022-08-10T09:11:28Z</time>
      </trkpt>
      <trkpt lat="45.15385" lon="0.52603">
        <ele>102.6</ele>
        <time>2022-08-10T09:11:29Z</time>
      </trkpt>
      <trkpt lat="45.15378" lon="0.52608">
        <ele>100.6</ele>
        <time>2022-08-10T09:11:30Z</time>
      </trkpt>
      <trkpt lat="45.15371" lon="0.52612">
        <ele>98.6</ele>
        <time>2022-08-10T09:11:31Z</time>
      </trkpt>
      <trkpt lat="45.15364" lon="0.52617">
        <ele>96.6</ele>
        <time>2022-08-10T09:11:32Z</time>
      </trkpt>
      <trkpt lat="45.15356" lon="0.52621">
        <ele>95.6</ele>
        <time>2022-08-10T09:11:33Z</time>
      </trkpt>
      <trkpt lat="45.15349" lon="0.52626">
        <ele>94.6</ele>
        <time>2022-08-10T09:11:34Z</time>
      </trkpt>
      <trkpt lat="45.15342" lon="0.5263">
        <ele>92.6</ele>
        <time>2022-08-10T09:11:35Z</time>
      </trkpt>
      <trkpt lat="45.15334" lon="0.52635">
        <ele>91.6</ele>
        <time>2022-08-10T09:11:36Z</time>
      </trkpt>
      <trkpt lat="45.15327" lon="0.52639">
        <ele>90.6</ele>
        <time>2022-08-10T09:11:37Z</time>
      </trkpt>
      <trkpt lat="45.15319" lon="0.52643">
        <ele>89.6</ele>
        <time>2022-08-10T09:11:38Z</time>
      </trkpt>
      <trkpt lat="45.15312" lon="0.52648">
        <ele>87.6</ele>
        <time>2022-08-10T09:11:39Z</time>
      </trkpt>
      <trkpt lat="45.15304" lon="0.52652">
        <ele>87.6</ele>
        <time>2022-08-10T09:11:40Z</time>
      </trkpt>
      <trkpt lat="45.15296" lon="0.52657">
        <ele>87.6</ele>
        <time>2022-08-10T09:11:41Z</time>
      </trkpt>
      <trkpt lat="45.15289" lon="0.52662">
        <ele>86.6</ele>
        <time>2022-08-10T09:11:42Z</time>
      </trkpt>
      <trkpt lat="45.15281" lon="0.52667">
        <ele>85.6</ele>
        <time>2022-08-10T09:11:43Z</time>
      </trkpt>
      <trkpt lat="45.15273" lon="0.52672">
        <ele>84.6</ele>
        <time>2022-08-10T09:11:44Z</time>
      </trkpt>
      <trkpt lat="45.15264" lon="0.52677">
        <ele>84.6</ele>
        <time>2022-08-10T09:11:45Z</time>
      </trkpt>
      <trkpt lat="45.15256" lon="0.52683">
        <ele>83.6</ele>
        <time>2022-08-10T09:11:46Z</time>
      </trkpt>
      <trkpt lat="45.15247" lon="0.52689">
        <ele>82.6</ele>
        <time>2022-08-10T09:11:47Z</time>
      </trkpt>
      <trkpt lat="45.15239" lon="0.52695">
        <ele>81.6</ele>
        <time>2022-08-10T09:11:48Z</time>
      </trkpt>
      <trkpt lat="45.1523" lon="0.52702">
        <ele>80.6</ele>
        <time>2022-08-10T09:11:49Z</time>
      </trkpt>
      <trkpt lat="45.15222" lon="0.52709">
        <ele>80.6</ele>
        <time>2022-08-10T09:11:50Z</time>
      </trkpt>
      <trkpt lat="45.15213" lon="0.52716">
        <ele>79.6</ele>
        <time>2022-08-10T09:11:51Z</time>
      </trkpt>
      <trkpt lat="45.15205" lon="0.52725">
        <ele>78.6</ele>
        <time>2022-08-10T09:11:52Z</time>
      </trkpt>
      <trkpt lat="45.15197" lon="0.52735">
        <ele>76.6</ele>
        <time>2022-08-10T09:11:53Z</time>
      </trkpt>
      <trkpt lat="45.15189" lon="0.52745">
        <ele>75.6</ele>
        <time>2022-08-10T09:11:54Z</time>
      </trkpt>
      <trkpt lat="45.15174" lon="0.52764">
        <ele>72.6</ele>
        <time>2022-08-10T09:11:56Z</time>
      </trkpt>
      <trkpt lat="45.15167" lon="0.52775">
        <ele>71.6</ele>
        <time>2022-08-10T09:11:57Z</time>
      </trkpt>
      <trkpt lat="45.15159" lon="0.52785">
        <ele>70.6</ele>
        <time>2022-08-10T09:11:58Z</time>
      </trkpt>
      <trkpt lat="45.15144" lon="0.52805">
        <ele>70.6</ele>
        <time>2022-08-10T09:12:00Z</time>
      </trkpt>
      <trkpt lat="45.15137" lon="0.52815">
        <ele>69.6</ele>
        <time>2022-08-10T09:12:01Z</time>
      </trkpt>
      <trkpt lat="45.1513" lon="0.52824">
        <ele>68.6</ele>
        <time>2022-08-10T09:12:02Z</time>
      </trkpt>
      <trkpt lat="45.15123" lon="0.52834">
        <ele>67.6</ele>
        <time>2022-08-10T09:12:03Z</time>
      </trkpt>
      <trkpt lat="45.15117" lon="0.52844">
        <ele>66.6</ele>
        <time>2022-08-10T09:12:04Z</time>
      </trkpt>
      <trkpt lat="45.15111" lon="0.52854">
        <ele>66.6</ele>
        <time>2022-08-10T09:12:05Z</time>
      </trkpt>
      <trkpt lat="45.15105" lon="0.52865">
        <ele>66.6</ele>
        <time>2022-08-10T09:12:06Z</time>
      </trkpt>
      <trkpt lat="45.151" lon="0.52875">
        <ele>66.6</ele>
        <time>2022-08-10T09:12:07Z</time>
      </trkpt>
      <trkpt lat="45.15095" lon="0.52883">
        <ele>65.6</ele>
        <time>2022-08-10T09:12:08Z</time>
      </trkpt>
      <trkpt lat="45.15091" lon="0.52892">
        <ele>65.6</ele>
        <time>2022-08-10T09:12:09Z</time>
      </trkpt>
      <trkpt lat="45.15087" lon="0.52898">
        <ele>66.6</ele>
        <time>2022-08-10T09:12:10Z</time>
      </trkpt>
      <trkpt lat="45.15083" lon="0.52904">
        <ele>65.6</ele>
        <time>2022-08-10T09:12:11Z</time>
      </trkpt>
      <trkpt lat="45.15078" lon="0.52907">
        <ele>65.6</ele>
        <time>2022-08-10T09:12:12Z</time>
      </trkpt>
      <trkpt lat="45.15073" lon="0.52907">
        <ele>65.6</ele>
        <time>2022-08-10T09:12:13Z</time>
      </trkpt>
      <trkpt lat="45.15068" lon="0.52906">
        <ele>64.6</ele>
        <time>2022-08-10T09:12:14Z</time>
      </trkpt>
      <trkpt lat="45.15063" lon="0.52903">
        <ele>64.6</ele>
        <time>2022-08-10T09:12:15Z</time>
      </trkpt>
      <trkpt lat="45.15059" lon="0.52898">
        <ele>64.6</ele>
        <time>2022-08-10T09:12:16Z</time>
      </trkpt>
      <trkpt lat="45.15054" lon="0.52889">
        <ele>65.6</ele>
        <time>2022-08-10T09:12:18Z</time>
      </trkpt>
      <trkpt lat="45.15049" lon="0.5288">
        <ele>66.6</ele>
        <time>2022-08-10T09:12:20Z</time>
      </trkpt>
      <trkpt lat="45.15045" lon="0.52871">
        <ele>66.6</ele>
        <time>2022-08-10T09:12:22Z</time>
      </trkpt>
      <trkpt lat="45.1504" lon="0.52863">
        <ele>67.6</ele>
        <time>2022-08-10T09:12:24Z</time>
      </trkpt>
      <trkpt lat="45.15036" lon="0.52856">
        <ele>67.6</ele>
        <time>2022-08-10T09:12:26Z</time>
      </trkpt>
      <trkpt lat="45.15032" lon="0.5285">
        <ele>67.6</ele>
        <time>2022-08-10T09:12:28Z</time>
      </trkpt>
      <trkpt lat="45.15027" lon="0.52843">
        <ele>68.6</ele>
        <time>2022-08-10T09:12:30Z</time>
      </trkpt>
      <trkpt lat="45.15022" lon="0.52836">
        <ele>68.6</ele>
        <time>2022-08-10T09:12:32Z</time>
      </trkpt>
      <trkpt lat="45.15018" lon="0.5283">
        <ele>68.6</ele>
        <time>2022-08-10T09:12:34Z</time>
      </trkpt>
      <trkpt lat="45.15012" lon="0.52824">
        <ele>69.6</ele>
        <time>2022-08-10T09:12:36Z</time>
      </trkpt>
      <trkpt lat="45.15007" lon="0.52818">
        <ele>69.6</ele>
        <time>2022-08-10T09:12:38Z</time>
      </trkpt>
      <trkpt lat="45.15001" lon="0.52811">
        <ele>69.6</ele>
        <time>2022-08-10T09:12:40Z</time>
      </trkpt>
      <trkpt lat="45.14995" lon="0.52806">
        <ele>69.6</ele>
        <time>2022-08-10T09:12:42Z</time>
      </trkpt>
      <trkpt lat="45.14989" lon="0.528">
        <ele>69.6</ele>
        <time>2022-08-10T09:12:44Z</time>
      </trkpt>
      <trkpt lat="45.14984" lon="0.52795">
        <ele>68.6</ele>
        <time>2022-08-10T09:12:46Z</time>
      </trkpt>
      <trkpt lat="45.14979" lon="0.52789">
        <ele>68.6</ele>
        <time>2022-08-10T09:12:49Z</time>
      </trkpt>
      <trkpt lat="45.14974" lon="0.52786">
        <ele>69.6</ele>
        <time>2022-08-10T09:12:50Z</time>
      </trkpt>
      <trkpt lat="45.14969" lon="0.52782">
        <ele>69.6</ele>
        <time>2022-08-10T09:12:51Z</time>
      </trkpt>
      <trkpt lat="45.14964" lon="0.52779">
        <ele>69.6</ele>
        <time>2022-08-10T09:12:52Z</time>
      </trkpt>
      <trkpt lat="45.1496" lon="0.52774">
        <ele>69.6</ele>
        <time>2022-08-10T09:12:53Z</time>
      </trkpt>
      <trkpt lat="45.14956" lon="0.52771">
        <ele>69.6</ele>
        <time>2022-08-10T09:12:54Z</time>
      </trkpt>
      <trkpt lat="45.14952" lon="0.52767">
        <ele>69.6</ele>
        <time>2022-08-10T09:12:55Z</time>
      </trkpt>
      <trkpt lat="45.14948" lon="0.52764">
        <ele>69.6</ele>
        <time>2022-08-10T09:12:56Z</time>
      </trkpt>
      <trkpt lat="45.14943" lon="0.5276">
        <ele>69.6</ele>
        <time>2022-08-10T09:12:57Z</time>
      </trkpt>
      <trkpt lat="45.14938" lon="0.52757">
        <ele>68.6</ele>
        <time>2022-08-10T09:12:58Z</time>
      </trkpt>
      <trkpt lat="45.14933" lon="0.52753">
        <ele>68.6</ele>
        <time>2022-08-10T09:12:59Z</time>
      </trkpt>
      <trkpt lat="45.14929" lon="0.5275">
        <ele>68.6</ele>
        <time>2022-08-10T09:13:00Z</time>
      </trkpt>
      <trkpt lat="45.14924" lon="0.52746">
        <ele>68.6</ele>
        <time>2022-08-10T09:13:01Z</time>
      </trkpt>
      <trkpt lat="45.14919" lon="0.52743">
        <ele>68.6</ele>
        <time>2022-08-10T09:13:02Z</time>
      </trkpt>
      <trkpt lat="45.14915" lon="0.52741">
        <ele>68.6</ele>
        <time>2022-08-10T09:13:03Z</time>
      </trkpt>
      <trkpt lat="45.1491" lon="0.52741">
        <ele>68.6</ele>
        <time>2022-08-10T09:13:04Z</time>
      </trkpt>
      <trkpt lat="45.14905" lon="0.52743">
        <ele>69.6</ele>
        <time>2022-08-10T09:13:05Z</time>
      </trkpt>
      <trkpt lat="45.14901" lon="0.52746">
        <ele>69.6</ele>
        <time>2022-08-10T09:13:06Z</time>
      </trkpt>
      <trkpt lat="45.14897" lon="0.52751">
        <ele>68.6</ele>
        <time>2022-08-10T09:13:07Z</time>
      </trkpt>
      <trkpt lat="45.14892" lon="0.52756">
        <ele>69.6</ele>
        <time>2022-08-10T09:13:08Z</time>
      </trkpt>
      <trkpt lat="45.14888" lon="0.52761">
        <ele>69.6</ele>
        <time>2022-08-10T09:13:09Z</time>
      </trkpt>
      <trkpt lat="45.14885" lon="0.52767">
        <ele>69.6</ele>
        <time>2022-08-10T09:13:10Z</time>
      </trkpt>
      <trkpt lat="45.14881" lon="0.52772">
        <ele>69.6</ele>
        <time>2022-08-10T09:13:11Z</time>
      </trkpt>
      <trkpt lat="45.14877" lon="0.52777">
        <ele>69.6</ele>
        <time>2022-08-10T09:13:12Z</time>
      </trkpt>
      <trkpt lat="45.14873" lon="0.52782">
        <ele>69.6</ele>
        <time>2022-08-10T09:13:13Z</time>
      </trkpt>
      <trkpt lat="45.14869" lon="0.52788">
        <ele>68.6</ele>
        <time>2022-08-10T09:13:14Z</time>
      </trkpt>
      <trkpt lat="45.14865" lon="0.52793">
        <ele>68.6</ele>
        <time>2022-08-10T09:13:15Z</time>
      </trkpt>
      <trkpt lat="45.14862" lon="0.52798">
        <ele>67.6</ele>
        <time>2022-08-10T09:13:16Z</time>
      </trkpt>
      <trkpt lat="45.14858" lon="0.52803">
        <ele>67.6</ele>
        <time>2022-08-10T09:13:17Z</time>
      </trkpt>
      <trkpt lat="45.14855" lon="0.52808">
        <ele>66.6</ele>
        <time>2022-08-10T09:13:18Z</time>
      </trkpt>
      <trkpt lat="45.14851" lon="0.52813">
        <ele>66.6</ele>
        <time>2022-08-10T09:13:19Z</time>
      </trkpt>
      <trkpt lat="45.14847" lon="0.52818">
        <ele>65.6</ele>
        <time>2022-08-10T09:13:20Z</time>
      </trkpt>
      <trkpt lat="45.14843" lon="0.52823">
        <ele>65.6</ele>
        <time>2022-08-10T09:13:21Z</time>
      </trkpt>
      <trkpt lat="45.14839" lon="0.52828">
        <ele>65.6</ele>
        <time>2022-08-10T09:13:22Z</time>
      </trkpt>
      <trkpt lat="45.14835" lon="0.52833">
        <ele>64.6</ele>
        <time>2022-08-10T09:13:23Z</time>
      </trkpt>
      <trkpt lat="45.1483" lon="0.52838">
        <ele>64.6</ele>
        <time>2022-08-10T09:13:24Z</time>
      </trkpt>
      <trkpt lat="45.14826" lon="0.52842">
        <ele>64.6</ele>
        <time>2022-08-10T09:13:25Z</time>
      </trkpt>
      <trkpt lat="45.14822" lon="0.52846">
        <ele>64.6</ele>
        <time>2022-08-10T09:13:26Z</time>
      </trkpt>
      <trkpt lat="45.14818" lon="0.52851">
        <ele>64.6</ele>
        <time>2022-08-10T09:13:27Z</time>
      </trkpt>
      <trkpt lat="45.14814" lon="0.52856">
        <ele>64.6</ele>
        <time>2022-08-10T09:13:28Z</time>
      </trkpt>
      <trkpt lat="45.1481" lon="0.52861">
        <ele>64.6</ele>
        <time>2022-08-10T09:13:29Z</time>
      </trkpt>
      <trkpt lat="45.14806" lon="0.52866">
        <ele>63.6</ele>
        <time>2022-08-10T09:13:30Z</time>
      </trkpt>
      <trkpt lat="45.14802" lon="0.52872">
        <ele>63.6</ele>
        <time>2022-08-10T09:13:31Z</time>
      </trkpt>
      <trkpt lat="45.14798" lon="0.52878">
        <ele>63.6</ele>
        <time>2022-08-10T09:13:32Z</time>
      </trkpt>
      <trkpt lat="45.14795" lon="0.52884">
        <ele>63.6</ele>
        <time>2022-08-10T09:13:33Z</time>
      </trkpt>
      <trkpt lat="45.14792" lon="0.52889">
        <ele>63.6</ele>
        <time>2022-08-10T09:13:34Z</time>
      </trkpt>
      <trkpt lat="45.14788" lon="0.52895">
        <ele>63.6</ele>
        <time>2022-08-10T09:13:36Z</time>
      </trkpt>
      <trkpt lat="45.14783" lon="0.52897">
        <ele>64.6</ele>
        <time>2022-08-10T09:13:38Z</time>
      </trkpt>
      <trkpt lat="45.14776" lon="0.52895">
        <ele>64.6</ele>
        <time>2022-08-10T09:13:40Z</time>
      </trkpt>
      <trkpt lat="45.14769" lon="0.52895">
        <ele>64.6</ele>
        <time>2022-08-10T09:13:42Z</time>
      </trkpt>
      <trkpt lat="45.14762" lon="0.52895">
        <ele>64.6</ele>
        <time>2022-08-10T09:13:44Z</time>
      </trkpt>
      <trkpt lat="45.14753" lon="0.52896">
        <ele>65.6</ele>
        <time>2022-08-10T09:13:46Z</time>
      </trkpt>
      <trkpt lat="45.14746" lon="0.52897">
        <ele>64.6</ele>
        <time>2022-08-10T09:13:48Z</time>
      </trkpt>
      <trkpt lat="45.14739" lon="0.52895">
        <ele>64.6</ele>
        <time>2022-08-10T09:13:50Z</time>
      </trkpt>
      <trkpt lat="45.1473" lon="0.52894">
        <ele>65.6</ele>
        <time>2022-08-10T09:13:52Z</time>
      </trkpt>
      <trkpt lat="45.14726" lon="0.52896">
        <ele>65.6</ele>
        <time>2022-08-10T09:13:53Z</time>
      </trkpt>
      <trkpt lat="45.14713" lon="0.52895">
        <ele>65.6</ele>
        <time>2022-08-10T09:13:56Z</time>
      </trkpt>
      <trkpt lat="45.14705" lon="0.52893">
        <ele>66.6</ele>
        <time>2022-08-10T09:13:58Z</time>
      </trkpt>
      <trkpt lat="45.14699" lon="0.52894">
        <ele>66.6</ele>
        <time>2022-08-10T09:14:00Z</time>
      </trkpt>
      <trkpt lat="45.14693" lon="0.52894">
        <ele>66.6</ele>
        <time>2022-08-10T09:14:02Z</time>
      </trkpt>
      <trkpt lat="45.14688" lon="0.52893">
        <ele>66.6</ele>
        <time>2022-08-10T09:14:04Z</time>
      </trkpt>
      <trkpt lat="45.14682" lon="0.52891">
        <ele>66.6</ele>
        <time>2022-08-10T09:14:06Z</time>
      </trkpt>
      <trkpt lat="45.14675" lon="0.52888">
        <ele>65.6</ele>
        <time>2022-08-10T09:14:08Z</time>
      </trkpt>
      <trkpt lat="45.14668" lon="0.52885">
        <ele>65.6</ele>
        <time>2022-08-10T09:14:10Z</time>
      </trkpt>
      <trkpt lat="45.14662" lon="0.52883">
        <ele>65.6</ele>
        <time>2022-08-10T09:14:12Z</time>
      </trkpt>
      <trkpt lat="45.14656" lon="0.52883">
        <ele>66.6</ele>
        <time>2022-08-10T09:14:14Z</time>
      </trkpt>
      <trkpt lat="45.1465" lon="0.52889">
        <ele>66.6</ele>
        <time>2022-08-10T09:14:16Z</time>
      </trkpt>
      <trkpt lat="45.14645" lon="0.52897">
        <ele>66.6</ele>
        <time>2022-08-10T09:14:18Z</time>
      </trkpt>
      <trkpt lat="45.1464" lon="0.52903">
        <ele>66.6</ele>
        <time>2022-08-10T09:14:21Z</time>
      </trkpt>
      <trkpt lat="45.14637" lon="0.52908">
        <ele>66.6</ele>
        <time>2022-08-10T09:14:23Z</time>
      </trkpt>
      <trkpt lat="45.14632" lon="0.52912">
        <ele>65.6</ele>
        <time>2022-08-10T09:14:26Z</time>
      </trkpt>
      <trkpt lat="45.14625" lon="0.52914">
        <ele>65.6</ele>
        <time>2022-08-10T09:14:29Z</time>
      </trkpt>
      <trkpt lat="45.14619" lon="0.52914">
        <ele>65.6</ele>
        <time>2022-08-10T09:14:31Z</time>
      </trkpt>
      <trkpt lat="45.14612" lon="0.52914">
        <ele>65.6</ele>
        <time>2022-08-10T09:14:33Z</time>
      </trkpt>
      <trkpt lat="45.14605" lon="0.52918">
        <ele>65.6</ele>
        <time>2022-08-10T09:14:36Z</time>
      </trkpt>
      <trkpt lat="45.14602" lon="0.52925">
        <ele>66.6</ele>
        <time>2022-08-10T09:14:38Z</time>
      </trkpt>
      <trkpt lat="45.14597" lon="0.5293">
        <ele>65.6</ele>
        <time>2022-08-10T09:14:41Z</time>
      </trkpt>
      <trkpt lat="45.14589" lon="0.52926">
        <ele>66.6</ele>
        <time>2022-08-10T09:14:43Z</time>
      </trkpt>
      <trkpt lat="45.14581" lon="0.52922">
        <ele>65.6</ele>
        <time>2022-08-10T09:14:45Z</time>
      </trkpt>
      <trkpt lat="45.14574" lon="0.52919">
        <ele>65.6</ele>
        <time>2022-08-10T09:14:47Z</time>
      </trkpt>
      <trkpt lat="45.14568" lon="0.52916">
        <ele>65.6</ele>
        <time>2022-08-10T09:14:49Z</time>
      </trkpt>
      <trkpt lat="45.14562" lon="0.52914">
        <ele>65.6</ele>
        <time>2022-08-10T09:14:51Z</time>
      </trkpt>
      <trkpt lat="45.14556" lon="0.52913">
        <ele>65.6</ele>
        <time>2022-08-10T09:14:53Z</time>
      </trkpt>
      <trkpt lat="45.1455" lon="0.52911">
        <ele>65.6</ele>
        <time>2022-08-10T09:14:55Z</time>
      </trkpt>
      <trkpt lat="45.14544" lon="0.52908">
        <ele>65.6</ele>
        <time>2022-08-10T09:14:57Z</time>
      </trkpt>
      <trkpt lat="45.14538" lon="0.52904">
        <ele>64.6</ele>
        <time>2022-08-10T09:14:59Z</time>
      </trkpt>
      <trkpt lat="45.1453" lon="0.52897">
        <ele>63.6</ele>
        <time>2022-08-10T09:15:01Z</time>
      </trkpt>
      <trkpt lat="45.14527" lon="0.52892">
        <ele>63.6</ele>
        <time>2022-08-10T09:15:02Z</time>
      </trkpt>
      <trkpt lat="45.14518" lon="0.52887">
        <ele>64.6</ele>
        <time>2022-08-10T09:15:04Z</time>
      </trkpt>
      <trkpt lat="45.14509" lon="0.52884">
        <ele>64.6</ele>
        <time>2022-08-10T09:15:06Z</time>
      </trkpt>
      <trkpt lat="45.14504" lon="0.5288">
        <ele>64.6</ele>
        <time>2022-08-10T09:15:08Z</time>
      </trkpt>
      <trkpt lat="45.14498" lon="0.52877">
        <ele>65.6</ele>
        <time>2022-08-10T09:15:14Z</time>
      </trkpt>
      <trkpt lat="45.14491" lon="0.52873">
        <ele>64.6</ele>
        <time>2022-08-10T09:15:16Z</time>
      </trkpt>
      <trkpt lat="45.14484" lon="0.52866">
        <ele>63.6</ele>
        <time>2022-08-10T09:15:18Z</time>
      </trkpt>
      <trkpt lat="45.14481" lon="0.52863">
        <ele>63.6</ele>
        <time>2022-08-10T09:15:19Z</time>
      </trkpt>
      <trkpt lat="45.14473" lon="0.52856">
        <ele>63.6</ele>
        <time>2022-08-10T09:15:21Z</time>
      </trkpt>
      <trkpt lat="45.14469" lon="0.52852">
        <ele>63.6</ele>
        <time>2022-08-10T09:15:22Z</time>
      </trkpt>
      <trkpt lat="45.14465" lon="0.52848">
        <ele>62.6</ele>
        <time>2022-08-10T09:15:23Z</time>
      </trkpt>
      <trkpt lat="45.14458" lon="0.52846">
        <ele>63.6</ele>
        <time>2022-08-10T09:15:25Z</time>
      </trkpt>
      <trkpt lat="45.14453" lon="0.52855">
        <ele>61.6</ele>
        <time>2022-08-10T09:15:27Z</time>
      </trkpt>
      <trkpt lat="45.14451" lon="0.52862">
        <ele>61.6</ele>
        <time>2022-08-10T09:15:28Z</time>
      </trkpt>
      <trkpt lat="45.14448" lon="0.52869">
        <ele>61.6</ele>
        <time>2022-08-10T09:15:29Z</time>
      </trkpt>
      <trkpt lat="45.14446" lon="0.52875">
        <ele>61.6</ele>
        <time>2022-08-10T09:15:30Z</time>
      </trkpt>
      <trkpt lat="45.14443" lon="0.52881">
        <ele>60.6</ele>
        <time>2022-08-10T09:15:31Z</time>
      </trkpt>
      <trkpt lat="45.1444" lon="0.52887">
        <ele>60.6</ele>
        <time>2022-08-10T09:15:32Z</time>
      </trkpt>
      <trkpt lat="45.14437" lon="0.52893">
        <ele>60.6</ele>
        <time>2022-08-10T09:15:33Z</time>
      </trkpt>
      <trkpt lat="45.14434" lon="0.529">
        <ele>59.6</ele>
        <time>2022-08-10T09:15:34Z</time>
      </trkpt>
      <trkpt lat="45.14431" lon="0.52906">
        <ele>59.6</ele>
        <time>2022-08-10T09:15:35Z</time>
      </trkpt>
      <trkpt lat="45.14428" lon="0.52913">
        <ele>58.6</ele>
        <time>2022-08-10T09:15:36Z</time>
      </trkpt>
      <trkpt lat="45.14425" lon="0.5292">
        <ele>57.6</ele>
        <time>2022-08-10T09:15:37Z</time>
      </trkpt>
      <trkpt lat="45.14422" lon="0.52927">
        <ele>57.6</ele>
        <time>2022-08-10T09:15:38Z</time>
      </trkpt>
      <trkpt lat="45.14419" lon="0.52934">
        <ele>57.6</ele>
        <time>2022-08-10T09:15:39Z</time>
      </trkpt>
      <trkpt lat="45.14416" lon="0.52941">
        <ele>57.6</ele>
        <time>2022-08-10T09:15:40Z</time>
      </trkpt>
      <trkpt lat="45.14413" lon="0.52949">
        <ele>57.6</ele>
        <time>2022-08-10T09:15:41Z</time>
      </trkpt>
      <trkpt lat="45.1441" lon="0.52957">
        <ele>56.6</ele>
        <time>2022-08-10T09:15:42Z</time>
      </trkpt>
      <trkpt lat="45.14408" lon="0.52967">
        <ele>56.6</ele>
        <time>2022-08-10T09:15:43Z</time>
      </trkpt>
      <trkpt lat="45.14405" lon="0.52976">
        <ele>55.6</ele>
        <time>2022-08-10T09:15:44Z</time>
      </trkpt>
      <trkpt lat="45.14404" lon="0.52984">
        <ele>55.6</ele>
        <time>2022-08-10T09:15:45Z</time>
      </trkpt>
      <trkpt lat="45.14402" lon="0.52991">
        <ele>54.6</ele>
        <time>2022-08-10T09:15:46Z</time>
      </trkpt>
      <trkpt lat="45.14396" lon="0.52999">
        <ele>55.6</ele>
        <time>2022-08-10T09:15:48Z</time>
      </trkpt>
      <trkpt lat="45.14391" lon="0.53">
        <ele>56.6</ele>
        <time>2022-08-10T09:15:49Z</time>
      </trkpt>
      <trkpt lat="45.14387" lon="0.52999">
        <ele>56.6</ele>
        <time>2022-08-10T09:15:50Z</time>
      </trkpt>
      <trkpt lat="45.14382" lon="0.53">
        <ele>56.6</ele>
        <time>2022-08-10T09:15:51Z</time>
      </trkpt>
      <trkpt lat="45.14377" lon="0.53">
        <ele>56.6</ele>
        <time>2022-08-10T09:15:52Z</time>
      </trkpt>
      <trkpt lat="45.14372" lon="0.53">
        <ele>56.6</ele>
        <time>2022-08-10T09:15:53Z</time>
      </trkpt>
      <trkpt lat="45.14364" lon="0.53003">
        <ele>56.6</ele>
        <time>2022-08-10T09:15:55Z</time>
      </trkpt>
      <trkpt lat="45.1436" lon="0.53008">
        <ele>56.6</ele>
        <time>2022-08-10T09:15:56Z</time>
      </trkpt>
      <trkpt lat="45.14357" lon="0.53015">
        <ele>56.6</ele>
        <time>2022-08-10T09:15:57Z</time>
      </trkpt>
      <trkpt lat="45.14355" lon="0.53024">
        <ele>57.6</ele>
        <time>2022-08-10T09:15:58Z</time>
      </trkpt>
      <trkpt lat="45.14352" lon="0.53034">
        <ele>57.6</ele>
        <time>2022-08-10T09:15:59Z</time>
      </trkpt>
      <trkpt lat="45.14349" lon="0.53044">
        <ele>56.6</ele>
        <time>2022-08-10T09:16:00Z</time>
      </trkpt>
      <trkpt lat="45.14346" lon="0.53055">
        <ele>55.6</ele>
        <time>2022-08-10T09:16:01Z</time>
      </trkpt>
      <trkpt lat="45.14343" lon="0.53065">
        <ele>54.6</ele>
        <time>2022-08-10T09:16:02Z</time>
      </trkpt>
      <trkpt lat="45.1434" lon="0.53075">
        <ele>54.6</ele>
        <time>2022-08-10T09:16:03Z</time>
      </trkpt>
      <trkpt lat="45.14337" lon="0.53085">
        <ele>53.6</ele>
        <time>2022-08-10T09:16:04Z</time>
      </trkpt>
      <trkpt lat="45.14334" lon="0.53094">
        <ele>53.6</ele>
        <time>2022-08-10T09:16:05Z</time>
      </trkpt>
      <trkpt lat="45.1433" lon="0.53104">
        <ele>53.6</ele>
        <time>2022-08-10T09:16:06Z</time>
      </trkpt>
      <trkpt lat="45.14328" lon="0.53112">
        <ele>53.6</ele>
        <time>2022-08-10T09:16:07Z</time>
      </trkpt>
      <trkpt lat="45.14325" lon="0.53121">
        <ele>52.6</ele>
        <time>2022-08-10T09:16:08Z</time>
      </trkpt>
      <trkpt lat="45.14324" lon="0.53129">
        <ele>52.6</ele>
        <time>2022-08-10T09:16:09Z</time>
      </trkpt>
      <trkpt lat="45.14324" lon="0.53137">
        <ele>52.6</ele>
        <time>2022-08-10T09:16:10Z</time>
      </trkpt>
      <trkpt lat="45.14325" lon="0.53145">
        <ele>52.6</ele>
        <time>2022-08-10T09:16:11Z</time>
      </trkpt>
      <trkpt lat="45.14326" lon="0.53153">
        <ele>52.6</ele>
        <time>2022-08-10T09:16:12Z</time>
      </trkpt>
      <trkpt lat="45.14328" lon="0.5316">
        <ele>51.6</ele>
        <time>2022-08-10T09:16:13Z</time>
      </trkpt>
      <trkpt lat="45.14329" lon="0.53166">
        <ele>51.6</ele>
        <time>2022-08-10T09:16:14Z</time>
      </trkpt>
      <trkpt lat="45.14333" lon="0.53174">
        <ele>50.6</ele>
        <time>2022-08-10T09:16:16Z</time>
      </trkpt>
      <trkpt lat="45.14339" lon="0.53177">
        <ele>50.6</ele>
        <time>2022-08-10T09:16:18Z</time>
      </trkpt>
      <trkpt lat="45.14344" lon="0.53182">
        <ele>49.6</ele>
        <time>2022-08-10T09:16:20Z</time>
      </trkpt>
      <trkpt lat="45.14345" lon="0.53188">
        <ele>51.6</ele>
        <time>2022-08-10T09:16:59Z</time>
      </trkpt>
      <trkpt lat="45.14345" lon="0.53196">
        <ele>51.6</ele>
        <time>2022-08-10T09:17:02Z</time>
      </trkpt>
      <trkpt lat="45.14348" lon="0.53204">
        <ele>51.6</ele>
        <time>2022-08-10T09:17:05Z</time>
      </trkpt>
      <trkpt lat="45.14354" lon="0.53211">
        <ele>50.6</ele>
        <time>2022-08-10T09:17:07Z</time>
      </trkpt>
      <trkpt lat="45.14359" lon="0.53219">
        <ele>49.6</ele>
        <time>2022-08-10T09:17:09Z</time>
      </trkpt>
      <trkpt lat="45.14364" lon="0.53228">
        <ele>48.6</ele>
        <time>2022-08-10T09:17:11Z</time>
      </trkpt>
      <trkpt lat="45.14367" lon="0.53239">
        <ele>47.6</ele>
        <time>2022-08-10T09:17:13Z</time>
      </trkpt>
      <trkpt lat="45.14373" lon="0.53247">
        <ele>46.6</ele>
        <time>2022-08-10T09:17:15Z</time>
      </trkpt>
      <trkpt lat="45.14375" lon="0.53256">
        <ele>46.6</ele>
        <time>2022-08-10T09:17:17Z</time>
      </trkpt>
      <trkpt lat="45.14377" lon="0.53265">
        <ele>46.6</ele>
        <time>2022-08-10T09:17:19Z</time>
      </trkpt>
      <trkpt lat="45.1438" lon="0.53272">
        <ele>46.6</ele>
        <time>2022-08-10T09:17:22Z</time>
      </trkpt>
      <trkpt lat="45.14379" lon="0.53279">
        <ele>47.6</ele>
        <time>2022-08-10T09:17:25Z</time>
      </trkpt>
      <trkpt lat="45.14376" lon="0.53285">
        <ele>47.6</ele>
        <time>2022-08-10T09:17:27Z</time>
      </trkpt>
      <trkpt lat="45.1437" lon="0.53293">
        <ele>48.6</ele>
        <time>2022-08-10T09:17:31Z</time>
      </trkpt>
      <trkpt lat="45.14365" lon="0.53298">
        <ele>48.6</ele>
        <time>2022-08-10T09:17:34Z</time>
      </trkpt>
      <trkpt lat="45.14361" lon="0.53301">
        <ele>49.6</ele>
        <time>2022-08-10T09:17:36Z</time>
      </trkpt>
      <trkpt lat="45.14355" lon="0.53306">
        <ele>49.6</ele>
        <time>2022-08-10T09:17:39Z</time>
      </trkpt>
      <trkpt lat="45.14351" lon="0.53309">
        <ele>49.6</ele>
        <time>2022-08-10T09:17:41Z</time>
      </trkpt>
      <trkpt lat="45.14347" lon="0.53313">
        <ele>49.6</ele>
        <time>2022-08-10T09:17:43Z</time>
      </trkpt>
      <trkpt lat="45.14343" lon="0.53318">
        <ele>50.6</ele>
        <time>2022-08-10T09:17:45Z</time>
      </trkpt>
      <trkpt lat="45.14345" lon="0.53326">
        <ele>50.6</ele>
        <time>2022-08-10T09:17:48Z</time>
      </trkpt>
      <trkpt lat="45.14348" lon="0.53333">
        <ele>51.6</ele>
        <time>2022-08-10T09:17:50Z</time>
      </trkpt>
      <trkpt lat="45.14352" lon="0.53341">
        <ele>50.6</ele>
        <time>2022-08-10T09:17:52Z</time>
      </trkpt>
      <trkpt lat="45.14355" lon="0.5335">
        <ele>50.6</ele>
        <time>2022-08-10T09:17:54Z</time>
      </trkpt>
      <trkpt lat="45.14359" lon="0.53358">
        <ele>50.6</ele>
        <time>2022-08-10T09:17:56Z</time>
      </trkpt>
      <trkpt lat="45.14362" lon="0.53367">
        <ele>49.6</ele>
        <time>2022-08-10T09:17:58Z</time>
      </trkpt>
      <trkpt lat="45.14364" lon="0.53373">
        <ele>50.6</ele>
        <time>2022-08-10T09:17:59Z</time>
      </trkpt>
      <trkpt lat="45.14367" lon="0.53383">
        <ele>51.6</ele>
        <time>2022-08-10T09:18:01Z</time>
      </trkpt>
      <trkpt lat="45.1437" lon="0.53394">
        <ele>52.6</ele>
        <time>2022-08-10T09:18:03Z</time>
      </trkpt>
      <trkpt lat="45.14373" lon="0.53404">
        <ele>53.6</ele>
        <time>2022-08-10T09:18:05Z</time>
      </trkpt>
      <trkpt lat="45.14377" lon="0.53411">
        <ele>53.6</ele>
        <time>2022-08-10T09:18:07Z</time>
      </trkpt>
      <trkpt lat="45.1438" lon="0.53416">
        <ele>54.6</ele>
        <time>2022-08-10T09:18:09Z</time>
      </trkpt>
      <trkpt lat="45.14375" lon="0.53423">
        <ele>55.6</ele>
        <time>2022-08-10T09:18:12Z</time>
      </trkpt>
      <trkpt lat="45.14368" lon="0.53428">
        <ele>55.6</ele>
        <time>2022-08-10T09:18:14Z</time>
      </trkpt>
      <trkpt lat="45.14363" lon="0.53431">
        <ele>56.6</ele>
        <time>2022-08-10T09:18:15Z</time>
      </trkpt>
      <trkpt lat="45.14357" lon="0.53437">
        <ele>56.6</ele>
        <time>2022-08-10T09:18:17Z</time>
      </trkpt>
      <trkpt lat="45.14353" lon="0.53441">
        <ele>55.6</ele>
        <time>2022-08-10T09:18:18Z</time>
      </trkpt>
      <trkpt lat="45.14345" lon="0.53449">
        <ele>54.6</ele>
        <time>2022-08-10T09:18:20Z</time>
      </trkpt>
      <trkpt lat="45.14339" lon="0.53457">
        <ele>53.6</ele>
        <time>2022-08-10T09:18:22Z</time>
      </trkpt>
      <trkpt lat="45.14335" lon="0.53461">
        <ele>53.6</ele>
        <time>2022-08-10T09:18:23Z</time>
      </trkpt>
      <trkpt lat="45.14328" lon="0.53467">
        <ele>52.6</ele>
        <time>2022-08-10T09:18:25Z</time>
      </trkpt>
      <trkpt lat="45.14324" lon="0.53471">
        <ele>52.6</ele>
        <time>2022-08-10T09:18:26Z</time>
      </trkpt>
      <trkpt lat="45.1432" lon="0.53474">
        <ele>53.6</ele>
        <time>2022-08-10T09:18:27Z</time>
      </trkpt>
      <trkpt lat="45.14316" lon="0.53477">
        <ele>53.6</ele>
        <time>2022-08-10T09:18:28Z</time>
      </trkpt>
      <trkpt lat="45.14311" lon="0.5348">
        <ele>53.6</ele>
        <time>2022-08-10T09:18:29Z</time>
      </trkpt>
      <trkpt lat="45.14307" lon="0.53483">
        <ele>52.6</ele>
        <time>2022-08-10T09:18:30Z</time>
      </trkpt>
      <trkpt lat="45.14302" lon="0.53486">
        <ele>52.6</ele>
        <time>2022-08-10T09:18:31Z</time>
      </trkpt>
      <trkpt lat="45.14297" lon="0.53488">
        <ele>52.6</ele>
        <time>2022-08-10T09:18:32Z</time>
      </trkpt>
      <trkpt lat="45.14293" lon="0.53491">
        <ele>52.6</ele>
        <time>2022-08-10T09:18:33Z</time>
      </trkpt>
      <trkpt lat="45.14285" lon="0.53496">
        <ele>52.6</ele>
        <time>2022-08-10T09:18:35Z</time>
      </trkpt>
      <trkpt lat="45.14281" lon="0.53497">
        <ele>52.6</ele>
        <time>2022-08-10T09:18:36Z</time>
      </trkpt>
      <trkpt lat="45.14275" lon="0.53498">
        <ele>53.6</ele>
        <time>2022-08-10T09:18:37Z</time>
      </trkpt>
      <trkpt lat="45.14269" lon="0.53499">
        <ele>52.6</ele>
        <time>2022-08-10T09:18:38Z</time>
      </trkpt>
      <trkpt lat="45.14263" lon="0.535">
        <ele>52.6</ele>
        <time>2022-08-10T09:18:39Z</time>
      </trkpt>
      <trkpt lat="45.14258" lon="0.53501">
        <ele>52.6</ele>
        <time>2022-08-10T09:18:40Z</time>
      </trkpt>
      <trkpt lat="45.14252" lon="0.53501">
        <ele>52.6</ele>
        <time>2022-08-10T09:18:41Z</time>
      </trkpt>
      <trkpt lat="45.14246" lon="0.53502">
        <ele>52.6</ele>
        <time>2022-08-10T09:18:42Z</time>
      </trkpt>
      <trkpt lat="45.1424" lon="0.53503">
        <ele>52.6</ele>
        <time>2022-08-10T09:18:43Z</time>
      </trkpt>
      <trkpt lat="45.14235" lon="0.53504">
        <ele>52.6</ele>
        <time>2022-08-10T09:18:44Z</time>
      </trkpt>
      <trkpt lat="45.1423" lon="0.53505">
        <ele>52.6</ele>
        <time>2022-08-10T09:18:45Z</time>
      </trkpt>
      <trkpt lat="45.14225" lon="0.53506">
        <ele>52.6</ele>
        <time>2022-08-10T09:18:46Z</time>
      </trkpt>
      <trkpt lat="45.14219" lon="0.53506">
        <ele>52.6</ele>
        <time>2022-08-10T09:18:47Z</time>
      </trkpt>
      <trkpt lat="45.14214" lon="0.53506">
        <ele>52.6</ele>
        <time>2022-08-10T09:18:48Z</time>
      </trkpt>
      <trkpt lat="45.14208" lon="0.53506">
        <ele>52.6</ele>
        <time>2022-08-10T09:18:49Z</time>
      </trkpt>
      <trkpt lat="45.14203" lon="0.53506">
        <ele>52.6</ele>
        <time>2022-08-10T09:18:50Z</time>
      </trkpt>
      <trkpt lat="45.14198" lon="0.53505">
        <ele>52.6</ele>
        <time>2022-08-10T09:18:51Z</time>
      </trkpt>
      <trkpt lat="45.14193" lon="0.53505">
        <ele>52.6</ele>
        <time>2022-08-10T09:18:52Z</time>
      </trkpt>
      <trkpt lat="45.14188" lon="0.53504">
        <ele>52.6</ele>
        <time>2022-08-10T09:18:53Z</time>
      </trkpt>
      <trkpt lat="45.14183" lon="0.53504">
        <ele>52.6</ele>
        <time>2022-08-10T09:18:54Z</time>
      </trkpt>
      <trkpt lat="45.14178" lon="0.53503">
        <ele>52.6</ele>
        <time>2022-08-10T09:18:55Z</time>
      </trkpt>
      <trkpt lat="45.14173" lon="0.53503">
        <ele>52.6</ele>
        <time>2022-08-10T09:18:56Z</time>
      </trkpt>
      <trkpt lat="45.14168" lon="0.53502">
        <ele>53.6</ele>
        <time>2022-08-10T09:18:57Z</time>
      </trkpt>
      <trkpt lat="45.14163" lon="0.53502">
        <ele>53.6</ele>
        <time>2022-08-10T09:18:58Z</time>
      </trkpt>
      <trkpt lat="45.14157" lon="0.53501">
        <ele>53.6</ele>
        <time>2022-08-10T09:18:59Z</time>
      </trkpt>
      <trkpt lat="45.14152" lon="0.535">
        <ele>53.6</ele>
        <time>2022-08-10T09:19:00Z</time>
      </trkpt>
      <trkpt lat="45.14146" lon="0.53499">
        <ele>54.6</ele>
        <time>2022-08-10T09:19:01Z</time>
      </trkpt>
      <trkpt lat="45.1414" lon="0.53498">
        <ele>54.6</ele>
        <time>2022-08-10T09:19:02Z</time>
      </trkpt>
      <trkpt lat="45.14135" lon="0.53498">
        <ele>54.6</ele>
        <time>2022-08-10T09:19:03Z</time>
      </trkpt>
      <trkpt lat="45.14129" lon="0.53497">
        <ele>54.6</ele>
        <time>2022-08-10T09:19:04Z</time>
      </trkpt>
      <trkpt lat="45.14123" lon="0.53496">
        <ele>54.6</ele>
        <time>2022-08-10T09:19:05Z</time>
      </trkpt>
      <trkpt lat="45.14117" lon="0.53495">
        <ele>54.6</ele>
        <time>2022-08-10T09:19:06Z</time>
      </trkpt>
      <trkpt lat="45.14111" lon="0.53494">
        <ele>53.6</ele>
        <time>2022-08-10T09:19:07Z</time>
      </trkpt>
      <trkpt lat="45.14105" lon="0.53493">
        <ele>54.6</ele>
        <time>2022-08-10T09:19:08Z</time>
      </trkpt>
      <trkpt lat="45.14099" lon="0.53492">
        <ele>54.6</ele>
        <time>2022-08-10T09:19:09Z</time>
      </trkpt>
      <trkpt lat="45.14094" lon="0.53491">
        <ele>54.6</ele>
        <time>2022-08-10T09:19:10Z</time>
      </trkpt>
      <trkpt lat="45.14088" lon="0.53491">
        <ele>54.6</ele>
        <time>2022-08-10T09:19:11Z</time>
      </trkpt>
      <trkpt lat="45.14082" lon="0.5349">
        <ele>54.6</ele>
        <time>2022-08-10T09:19:12Z</time>
      </trkpt>
      <trkpt lat="45.14076" lon="0.53489">
        <ele>54.6</ele>
        <time>2022-08-10T09:19:13Z</time>
      </trkpt>
      <trkpt lat="45.1407" lon="0.53488">
        <ele>54.6</ele>
        <time>2022-08-10T09:19:14Z</time>
      </trkpt>
      <trkpt lat="45.14065" lon="0.53487">
        <ele>54.6</ele>
        <time>2022-08-10T09:19:15Z</time>
      </trkpt>
      <trkpt lat="45.14059" lon="0.53486">
        <ele>53.6</ele>
        <time>2022-08-10T09:19:16Z</time>
      </trkpt>
      <trkpt lat="45.14053" lon="0.53485">
        <ele>53.6</ele>
        <time>2022-08-10T09:19:17Z</time>
      </trkpt>
      <trkpt lat="45.14047" lon="0.53484">
        <ele>52.6</ele>
        <time>2022-08-10T09:19:18Z</time>
      </trkpt>
      <trkpt lat="45.14041" lon="0.53483">
        <ele>51.6</ele>
        <time>2022-08-10T09:19:19Z</time>
      </trkpt>
      <trkpt lat="45.14035" lon="0.53482">
        <ele>51.6</ele>
        <time>2022-08-10T09:19:20Z</time>
      </trkpt>
      <trkpt lat="45.14029" lon="0.53481">
        <ele>51.6</ele>
        <time>2022-08-10T09:19:21Z</time>
      </trkpt>
      <trkpt lat="45.14023" lon="0.53481">
        <ele>51.6</ele>
        <time>2022-08-10T09:19:22Z</time>
      </trkpt>
      <trkpt lat="45.14016" lon="0.53481">
        <ele>50.6</ele>
        <time>2022-08-10T09:19:23Z</time>
      </trkpt>
      <trkpt lat="45.1401" lon="0.53481">
        <ele>51.6</ele>
        <time>2022-08-10T09:19:24Z</time>
      </trkpt>
      <trkpt lat="45.14005" lon="0.53481">
        <ele>51.6</ele>
        <time>2022-08-10T09:19:25Z</time>
      </trkpt>
      <trkpt lat="45.13999" lon="0.53481">
        <ele>51.6</ele>
        <time>2022-08-10T09:19:26Z</time>
      </trkpt>
      <trkpt lat="45.13993" lon="0.53481">
        <ele>51.6</ele>
        <time>2022-08-10T09:19:27Z</time>
      </trkpt>
      <trkpt lat="45.13988" lon="0.53482">
        <ele>50.6</ele>
        <time>2022-08-10T09:19:28Z</time>
      </trkpt>
      <trkpt lat="45.13983" lon="0.53484">
        <ele>50.6</ele>
        <time>2022-08-10T09:19:29Z</time>
      </trkpt>
      <trkpt lat="45.13977" lon="0.53486">
        <ele>51.6</ele>
        <time>2022-08-10T09:19:30Z</time>
      </trkpt>
      <trkpt lat="45.13971" lon="0.53488">
        <ele>51.6</ele>
        <time>2022-08-10T09:19:31Z</time>
      </trkpt>
      <trkpt lat="45.13966" lon="0.53491">
        <ele>51.6</ele>
        <time>2022-08-10T09:19:32Z</time>
      </trkpt>
      <trkpt lat="45.1396" lon="0.53494">
        <ele>51.6</ele>
        <time>2022-08-10T09:19:33Z</time>
      </trkpt>
      <trkpt lat="45.13955" lon="0.53496">
        <ele>51.6</ele>
        <time>2022-08-10T09:19:34Z</time>
      </trkpt>
      <trkpt lat="45.13949" lon="0.53499">
        <ele>51.6</ele>
        <time>2022-08-10T09:19:35Z</time>
      </trkpt>
      <trkpt lat="45.13944" lon="0.53502">
        <ele>51.6</ele>
        <time>2022-08-10T09:19:36Z</time>
      </trkpt>
      <trkpt lat="45.13938" lon="0.53504">
        <ele>50.6</ele>
        <time>2022-08-10T09:19:37Z</time>
      </trkpt>
      <trkpt lat="45.13933" lon="0.53508">
        <ele>50.6</ele>
        <time>2022-08-10T09:19:38Z</time>
      </trkpt>
      <trkpt lat="45.13929" lon="0.53512">
        <ele>49.6</ele>
        <time>2022-08-10T09:19:39Z</time>
      </trkpt>
      <trkpt lat="45.13924" lon="0.53515">
        <ele>49.6</ele>
        <time>2022-08-10T09:19:40Z</time>
      </trkpt>
      <trkpt lat="45.13919" lon="0.53519">
        <ele>49.6</ele>
        <time>2022-08-10T09:19:41Z</time>
      </trkpt>
      <trkpt lat="45.13915" lon="0.53523">
        <ele>49.6</ele>
        <time>2022-08-10T09:19:42Z</time>
      </trkpt>
      <trkpt lat="45.1391" lon="0.53527">
        <ele>49.6</ele>
        <time>2022-08-10T09:19:43Z</time>
      </trkpt>
      <trkpt lat="45.13905" lon="0.53531">
        <ele>49.6</ele>
        <time>2022-08-10T09:19:44Z</time>
      </trkpt>
      <trkpt lat="45.139" lon="0.53536">
        <ele>50.6</ele>
        <time>2022-08-10T09:19:45Z</time>
      </trkpt>
      <trkpt lat="45.13895" lon="0.5354">
        <ele>50.6</ele>
        <time>2022-08-10T09:19:46Z</time>
      </trkpt>
      <trkpt lat="45.1389" lon="0.53545">
        <ele>50.6</ele>
        <time>2022-08-10T09:19:47Z</time>
      </trkpt>
      <trkpt lat="45.13885" lon="0.53549">
        <ele>50.6</ele>
        <time>2022-08-10T09:19:48Z</time>
      </trkpt>
      <trkpt lat="45.1388" lon="0.53554">
        <ele>50.6</ele>
        <time>2022-08-10T09:19:49Z</time>
      </trkpt>
      <trkpt lat="45.13871" lon="0.53564">
        <ele>49.6</ele>
        <time>2022-08-10T09:19:51Z</time>
      </trkpt>
      <trkpt lat="45.13868" lon="0.5357">
        <ele>49.6</ele>
        <time>2022-08-10T09:19:52Z</time>
      </trkpt>
      <trkpt lat="45.13864" lon="0.53576">
        <ele>48.6</ele>
        <time>2022-08-10T09:19:53Z</time>
      </trkpt>
      <trkpt lat="45.13861" lon="0.53583">
        <ele>48.6</ele>
        <time>2022-08-10T09:19:54Z</time>
      </trkpt>
      <trkpt lat="45.13857" lon="0.5359">
        <ele>48.6</ele>
        <time>2022-08-10T09:19:55Z</time>
      </trkpt>
      <trkpt lat="45.13853" lon="0.53598">
        <ele>48.6</ele>
        <time>2022-08-10T09:19:56Z</time>
      </trkpt>
      <trkpt lat="45.1385" lon="0.53605">
        <ele>48.6</ele>
        <time>2022-08-10T09:19:57Z</time>
      </trkpt>
      <trkpt lat="45.13846" lon="0.53612">
        <ele>48.6</ele>
        <time>2022-08-10T09:19:58Z</time>
      </trkpt>
      <trkpt lat="45.13843" lon="0.53619">
        <ele>49.6</ele>
        <time>2022-08-10T09:19:59Z</time>
      </trkpt>
      <trkpt lat="45.13837" lon="0.53633">
        <ele>49.6</ele>
        <time>2022-08-10T09:20:01Z</time>
      </trkpt>
      <trkpt lat="45.13834" lon="0.5364">
        <ele>49.6</ele>
        <time>2022-08-10T09:20:02Z</time>
      </trkpt>
      <trkpt lat="45.1383" lon="0.53647">
        <ele>50.6</ele>
        <time>2022-08-10T09:20:03Z</time>
      </trkpt>
      <trkpt lat="45.13827" lon="0.53653">
        <ele>50.6</ele>
        <time>2022-08-10T09:20:04Z</time>
      </trkpt>
      <trkpt lat="45.13823" lon="0.5366">
        <ele>50.6</ele>
        <time>2022-08-10T09:20:05Z</time>
      </trkpt>
      <trkpt lat="45.1382" lon="0.53666">
        <ele>50.6</ele>
        <time>2022-08-10T09:20:06Z</time>
      </trkpt>
      <trkpt lat="45.13816" lon="0.53673">
        <ele>50.6</ele>
        <time>2022-08-10T09:20:07Z</time>
      </trkpt>
      <trkpt lat="45.13813" lon="0.5368">
        <ele>50.6</ele>
        <time>2022-08-10T09:20:08Z</time>
      </trkpt>
      <trkpt lat="45.13809" lon="0.53686">
        <ele>50.6</ele>
        <time>2022-08-10T09:20:09Z</time>
      </trkpt>
      <trkpt lat="45.13806" lon="0.53692">
        <ele>50.6</ele>
        <time>2022-08-10T09:20:10Z</time>
      </trkpt>
      <trkpt lat="45.13802" lon="0.53699">
        <ele>50.6</ele>
        <time>2022-08-10T09:20:11Z</time>
      </trkpt>
      <trkpt lat="45.13799" lon="0.53705">
        <ele>50.6</ele>
        <time>2022-08-10T09:20:12Z</time>
      </trkpt>
      <trkpt lat="45.13795" lon="0.53711">
        <ele>51.6</ele>
        <time>2022-08-10T09:20:13Z</time>
      </trkpt>
      <trkpt lat="45.13791" lon="0.53717">
        <ele>51.6</ele>
        <time>2022-08-10T09:20:14Z</time>
      </trkpt>
      <trkpt lat="45.13787" lon="0.53724">
        <ele>51.6</ele>
        <time>2022-08-10T09:20:15Z</time>
      </trkpt>
      <trkpt lat="45.13783" lon="0.5373">
        <ele>52.6</ele>
        <time>2022-08-10T09:20:16Z</time>
      </trkpt>
      <trkpt lat="45.13778" lon="0.53735">
        <ele>52.6</ele>
        <time>2022-08-10T09:20:17Z</time>
      </trkpt>
      <trkpt lat="45.13774" lon="0.5374">
        <ele>53.6</ele>
        <time>2022-08-10T09:20:18Z</time>
      </trkpt>
      <trkpt lat="45.1377" lon="0.53745">
        <ele>53.6</ele>
        <time>2022-08-10T09:20:19Z</time>
      </trkpt>
      <trkpt lat="45.13766" lon="0.5375">
        <ele>53.6</ele>
        <time>2022-08-10T09:20:20Z</time>
      </trkpt>
      <trkpt lat="45.13762" lon="0.53755">
        <ele>53.6</ele>
        <time>2022-08-10T09:20:21Z</time>
      </trkpt>
      <trkpt lat="45.13757" lon="0.5376">
        <ele>53.6</ele>
        <time>2022-08-10T09:20:22Z</time>
      </trkpt>
      <trkpt lat="45.13751" lon="0.53764">
        <ele>53.6</ele>
        <time>2022-08-10T09:20:23Z</time>
      </trkpt>
      <trkpt lat="45.13746" lon="0.53768">
        <ele>54.6</ele>
        <time>2022-08-10T09:20:24Z</time>
      </trkpt>
      <trkpt lat="45.13741" lon="0.53771">
        <ele>54.6</ele>
        <time>2022-08-10T09:20:25Z</time>
      </trkpt>
      <trkpt lat="45.13735" lon="0.53775">
        <ele>54.6</ele>
        <time>2022-08-10T09:20:26Z</time>
      </trkpt>
      <trkpt lat="45.13729" lon="0.53777">
        <ele>54.6</ele>
        <time>2022-08-10T09:20:27Z</time>
      </trkpt>
      <trkpt lat="45.13722" lon="0.53779">
        <ele>54.6</ele>
        <time>2022-08-10T09:20:28Z</time>
      </trkpt>
      <trkpt lat="45.13716" lon="0.53779">
        <ele>54.6</ele>
        <time>2022-08-10T09:20:29Z</time>
      </trkpt>
      <trkpt lat="45.1371" lon="0.5378">
        <ele>54.6</ele>
        <time>2022-08-10T09:20:30Z</time>
      </trkpt>
      <trkpt lat="45.13703" lon="0.5378">
        <ele>54.6</ele>
        <time>2022-08-10T09:20:31Z</time>
      </trkpt>
      <trkpt lat="45.13697" lon="0.53779">
        <ele>54.6</ele>
        <time>2022-08-10T09:20:32Z</time>
      </trkpt>
      <trkpt lat="45.1369" lon="0.53778">
        <ele>54.6</ele>
        <time>2022-08-10T09:20:33Z</time>
      </trkpt>
      <trkpt lat="45.13685" lon="0.53777">
        <ele>54.6</ele>
        <time>2022-08-10T09:20:34Z</time>
      </trkpt>
      <trkpt lat="45.13679" lon="0.53776">
        <ele>54.6</ele>
        <time>2022-08-10T09:20:35Z</time>
      </trkpt>
      <trkpt lat="45.13673" lon="0.53774">
        <ele>55.6</ele>
        <time>2022-08-10T09:20:36Z</time>
      </trkpt>
      <trkpt lat="45.13668" lon="0.53773">
        <ele>55.6</ele>
        <time>2022-08-10T09:20:37Z</time>
      </trkpt>
      <trkpt lat="45.13662" lon="0.53771">
        <ele>55.6</ele>
        <time>2022-08-10T09:20:38Z</time>
      </trkpt>
      <trkpt lat="45.13656" lon="0.5377">
        <ele>55.6</ele>
        <time>2022-08-10T09:20:39Z</time>
      </trkpt>
      <trkpt lat="45.1365" lon="0.53769">
        <ele>55.6</ele>
        <time>2022-08-10T09:20:40Z</time>
      </trkpt>
      <trkpt lat="45.13645" lon="0.53767">
        <ele>55.6</ele>
        <time>2022-08-10T09:20:41Z</time>
      </trkpt>
      <trkpt lat="45.13639" lon="0.53766">
        <ele>55.6</ele>
        <time>2022-08-10T09:20:42Z</time>
      </trkpt>
      <trkpt lat="45.13633" lon="0.53764">
        <ele>56.6</ele>
        <time>2022-08-10T09:20:43Z</time>
      </trkpt>
      <trkpt lat="45.13627" lon="0.53764">
        <ele>56.6</ele>
        <time>2022-08-10T09:20:44Z</time>
      </trkpt>
      <trkpt lat="45.13621" lon="0.53763">
        <ele>56.6</ele>
        <time>2022-08-10T09:20:45Z</time>
      </trkpt>
      <trkpt lat="45.13615" lon="0.53762">
        <ele>56.6</ele>
        <time>2022-08-10T09:20:46Z</time>
      </trkpt>
      <trkpt lat="45.13609" lon="0.53762">
        <ele>56.6</ele>
        <time>2022-08-10T09:20:47Z</time>
      </trkpt>
      <trkpt lat="45.13603" lon="0.53761">
        <ele>55.6</ele>
        <time>2022-08-10T09:20:48Z</time>
      </trkpt>
      <trkpt lat="45.13598" lon="0.53761">
        <ele>55.6</ele>
        <time>2022-08-10T09:20:49Z</time>
      </trkpt>
      <trkpt lat="45.13592" lon="0.5376">
        <ele>55.6</ele>
        <time>2022-08-10T09:20:50Z</time>
      </trkpt>
      <trkpt lat="45.13587" lon="0.5376">
        <ele>54.6</ele>
        <time>2022-08-10T09:20:51Z</time>
      </trkpt>
      <trkpt lat="45.13581" lon="0.5376">
        <ele>54.6</ele>
        <time>2022-08-10T09:20:52Z</time>
      </trkpt>
      <trkpt lat="45.13576" lon="0.53761">
        <ele>54.6</ele>
        <time>2022-08-10T09:20:53Z</time>
      </trkpt>
      <trkpt lat="45.13571" lon="0.53761">
        <ele>53.6</ele>
        <time>2022-08-10T09:20:54Z</time>
      </trkpt>
      <trkpt lat="45.13565" lon="0.53763">
        <ele>53.6</ele>
        <time>2022-08-10T09:20:55Z</time>
      </trkpt>
      <trkpt lat="45.13559" lon="0.53765">
        <ele>53.6</ele>
        <time>2022-08-10T09:20:56Z</time>
      </trkpt>
      <trkpt lat="45.13554" lon="0.53767">
        <ele>53.6</ele>
        <time>2022-08-10T09:20:57Z</time>
      </trkpt>
      <trkpt lat="45.13549" lon="0.5377">
        <ele>52.6</ele>
        <time>2022-08-10T09:20:58Z</time>
      </trkpt>
      <trkpt lat="45.13543" lon="0.53772">
        <ele>52.6</ele>
        <time>2022-08-10T09:20:59Z</time>
      </trkpt>
      <trkpt lat="45.13538" lon="0.53774">
        <ele>52.6</ele>
        <time>2022-08-10T09:21:00Z</time>
      </trkpt>
      <trkpt lat="45.13534" lon="0.53777">
        <ele>51.6</ele>
        <time>2022-08-10T09:21:01Z</time>
      </trkpt>
      <trkpt lat="45.13529" lon="0.53779">
        <ele>51.6</ele>
        <time>2022-08-10T09:21:02Z</time>
      </trkpt>
      <trkpt lat="45.13524" lon="0.53781">
        <ele>50.6</ele>
        <time>2022-08-10T09:21:03Z</time>
      </trkpt>
      <trkpt lat="45.13519" lon="0.53784">
        <ele>50.6</ele>
        <time>2022-08-10T09:21:04Z</time>
      </trkpt>
      <trkpt lat="45.13514" lon="0.53786">
        <ele>51.6</ele>
        <time>2022-08-10T09:21:05Z</time>
      </trkpt>
      <trkpt lat="45.13509" lon="0.53788">
        <ele>50.6</ele>
        <time>2022-08-10T09:21:06Z</time>
      </trkpt>
      <trkpt lat="45.13505" lon="0.5379">
        <ele>50.6</ele>
        <time>2022-08-10T09:21:07Z</time>
      </trkpt>
      <trkpt lat="45.13496" lon="0.5379">
        <ele>51.6</ele>
        <time>2022-08-10T09:21:09Z</time>
      </trkpt>
      <trkpt lat="45.13491" lon="0.53789">
        <ele>51.6</ele>
        <time>2022-08-10T09:21:10Z</time>
      </trkpt>
      <trkpt lat="45.13486" lon="0.53787">
        <ele>51.6</ele>
        <time>2022-08-10T09:21:11Z</time>
      </trkpt>
      <trkpt lat="45.13482" lon="0.53787">
        <ele>53.6</ele>
        <time>2022-08-10T09:21:12Z</time>
      </trkpt>
      <trkpt lat="45.13477" lon="0.53788">
        <ele>53.6</ele>
        <time>2022-08-10T09:21:13Z</time>
      </trkpt>
      <trkpt lat="45.1347" lon="0.53794">
        <ele>54.6</ele>
        <time>2022-08-10T09:21:15Z</time>
      </trkpt>
      <trkpt lat="45.13468" lon="0.53799">
        <ele>55.6</ele>
        <time>2022-08-10T09:21:16Z</time>
      </trkpt>
      <trkpt lat="45.13465" lon="0.53805">
        <ele>56.6</ele>
        <time>2022-08-10T09:21:17Z</time>
      </trkpt>
      <trkpt lat="45.13464" lon="0.53812">
        <ele>56.6</ele>
        <time>2022-08-10T09:21:18Z</time>
      </trkpt>
      <trkpt lat="45.13464" lon="0.5382">
        <ele>56.6</ele>
        <time>2022-08-10T09:21:19Z</time>
      </trkpt>
      <trkpt lat="45.13464" lon="0.53833">
        <ele>57.6</ele>
        <time>2022-08-10T09:21:21Z</time>
      </trkpt>
      <trkpt lat="45.13462" lon="0.5384">
        <ele>57.6</ele>
        <time>2022-08-10T09:21:22Z</time>
      </trkpt>
      <trkpt lat="45.13459" lon="0.53848">
        <ele>57.6</ele>
        <time>2022-08-10T09:21:23Z</time>
      </trkpt>
      <trkpt lat="45.13456" lon="0.53855">
        <ele>58.6</ele>
        <time>2022-08-10T09:21:24Z</time>
      </trkpt>
      <trkpt lat="45.13452" lon="0.53862">
        <ele>57.6</ele>
        <time>2022-08-10T09:21:25Z</time>
      </trkpt>
      <trkpt lat="45.13448" lon="0.5387">
        <ele>58.6</ele>
        <time>2022-08-10T09:21:26Z</time>
      </trkpt>
      <trkpt lat="45.13444" lon="0.53877">
        <ele>58.6</ele>
        <time>2022-08-10T09:21:27Z</time>
      </trkpt>
      <trkpt lat="45.1344" lon="0.53884">
        <ele>58.6</ele>
        <time>2022-08-10T09:21:28Z</time>
      </trkpt>
      <trkpt lat="45.13436" lon="0.53892">
        <ele>58.6</ele>
        <time>2022-08-10T09:21:29Z</time>
      </trkpt>
      <trkpt lat="45.13432" lon="0.53899">
        <ele>58.6</ele>
        <time>2022-08-10T09:21:30Z</time>
      </trkpt>
      <trkpt lat="45.13429" lon="0.53905">
        <ele>58.6</ele>
        <time>2022-08-10T09:21:31Z</time>
      </trkpt>
      <trkpt lat="45.13426" lon="0.53912">
        <ele>58.6</ele>
        <time>2022-08-10T09:21:32Z</time>
      </trkpt>
      <trkpt lat="45.13423" lon="0.5392">
        <ele>58.6</ele>
        <time>2022-08-10T09:21:33Z</time>
      </trkpt>
      <trkpt lat="45.1342" lon="0.53928">
        <ele>58.6</ele>
        <time>2022-08-10T09:21:34Z</time>
      </trkpt>
      <trkpt lat="45.13417" lon="0.53935">
        <ele>58.6</ele>
        <time>2022-08-10T09:21:35Z</time>
      </trkpt>
      <trkpt lat="45.13413" lon="0.53942">
        <ele>57.6</ele>
        <time>2022-08-10T09:21:36Z</time>
      </trkpt>
      <trkpt lat="45.13409" lon="0.53947">
        <ele>57.6</ele>
        <time>2022-08-10T09:21:37Z</time>
      </trkpt>
      <trkpt lat="45.13404" lon="0.53957">
        <ele>57.6</ele>
        <time>2022-08-10T09:21:39Z</time>
      </trkpt>
      <trkpt lat="45.13401" lon="0.53962">
        <ele>57.6</ele>
        <time>2022-08-10T09:21:40Z</time>
      </trkpt>
      <trkpt lat="45.13398" lon="0.53967">
        <ele>57.6</ele>
        <time>2022-08-10T09:21:41Z</time>
      </trkpt>
      <trkpt lat="45.13395" lon="0.53972">
        <ele>57.6</ele>
        <time>2022-08-10T09:21:42Z</time>
      </trkpt>
      <trkpt lat="45.13389" lon="0.53982">
        <ele>57.6</ele>
        <time>2022-08-10T09:21:44Z</time>
      </trkpt>
      <trkpt lat="45.13386" lon="0.53987">
        <ele>58.6</ele>
        <time>2022-08-10T09:21:45Z</time>
      </trkpt>
      <trkpt lat="45.13383" lon="0.53996">
        <ele>58.6</ele>
        <time>2022-08-10T09:21:47Z</time>
      </trkpt>
      <trkpt lat="45.1338" lon="0.54005">
        <ele>59.6</ele>
        <time>2022-08-10T09:21:49Z</time>
      </trkpt>
      <trkpt lat="45.13379" lon="0.54014">
        <ele>59.6</ele>
        <time>2022-08-10T09:21:51Z</time>
      </trkpt>
      <trkpt lat="45.13376" lon="0.54023">
        <ele>58.6</ele>
        <time>2022-08-10T09:21:53Z</time>
      </trkpt>
      <trkpt lat="45.13375" lon="0.54031">
        <ele>59.6</ele>
        <time>2022-08-10T09:21:55Z</time>
      </trkpt>
      <trkpt lat="45.13374" lon="0.5404">
        <ele>60.6</ele>
        <time>2022-08-10T09:21:57Z</time>
      </trkpt>
      <trkpt lat="45.13373" lon="0.54049">
        <ele>60.6</ele>
        <time>2022-08-10T09:21:59Z</time>
      </trkpt>
      <trkpt lat="45.13371" lon="0.54058">
        <ele>61.6</ele>
        <time>2022-08-10T09:22:01Z</time>
      </trkpt>
      <trkpt lat="45.13369" lon="0.54067">
        <ele>62.6</ele>
        <time>2022-08-10T09:22:03Z</time>
      </trkpt>
      <trkpt lat="45.13366" lon="0.54076">
        <ele>63.6</ele>
        <time>2022-08-10T09:22:05Z</time>
      </trkpt>
      <trkpt lat="45.13364" lon="0.54085">
        <ele>63.6</ele>
        <time>2022-08-10T09:22:07Z</time>
      </trkpt>
      <trkpt lat="45.13361" lon="0.54094">
        <ele>63.6</ele>
        <time>2022-08-10T09:22:09Z</time>
      </trkpt>
      <trkpt lat="45.13358" lon="0.54102">
        <ele>63.6</ele>
        <time>2022-08-10T09:22:11Z</time>
      </trkpt>
      <trkpt lat="45.13354" lon="0.5411">
        <ele>64.6</ele>
        <time>2022-08-10T09:22:13Z</time>
      </trkpt>
      <trkpt lat="45.13351" lon="0.54118">
        <ele>64.6</ele>
        <time>2022-08-10T09:22:15Z</time>
      </trkpt>
      <trkpt lat="45.13347" lon="0.54127">
        <ele>64.6</ele>
        <time>2022-08-10T09:22:17Z</time>
      </trkpt>
      <trkpt lat="45.13344" lon="0.54132">
        <ele>64.6</ele>
        <time>2022-08-10T09:22:18Z</time>
      </trkpt>
      <trkpt lat="45.13338" lon="0.54141">
        <ele>65.6</ele>
        <time>2022-08-10T09:22:20Z</time>
      </trkpt>
      <trkpt lat="45.13333" lon="0.54151">
        <ele>65.6</ele>
        <time>2022-08-10T09:22:22Z</time>
      </trkpt>
      <trkpt lat="45.13327" lon="0.54161">
        <ele>66.6</ele>
        <time>2022-08-10T09:22:24Z</time>
      </trkpt>
      <trkpt lat="45.13321" lon="0.5417">
        <ele>66.6</ele>
        <time>2022-08-10T09:22:26Z</time>
      </trkpt>
      <trkpt lat="45.13315" lon="0.54179">
        <ele>67.6</ele>
        <time>2022-08-10T09:22:28Z</time>
      </trkpt>
      <trkpt lat="45.13308" lon="0.54195">
        <ele>67.6</ele>
        <time>2022-08-10T09:22:31Z</time>
      </trkpt>
      <trkpt lat="45.13304" lon="0.54199">
        <ele>67.6</ele>
        <time>2022-08-10T09:22:32Z</time>
      </trkpt>
      <trkpt lat="45.13301" lon="0.54204">
        <ele>67.6</ele>
        <time>2022-08-10T09:22:33Z</time>
      </trkpt>
      <trkpt lat="45.13298" lon="0.54209">
        <ele>67.6</ele>
        <time>2022-08-10T09:22:34Z</time>
      </trkpt>
      <trkpt lat="45.13294" lon="0.54214">
        <ele>66.6</ele>
        <time>2022-08-10T09:22:35Z</time>
      </trkpt>
      <trkpt lat="45.13291" lon="0.54218">
        <ele>66.6</ele>
        <time>2022-08-10T09:22:36Z</time>
      </trkpt>
      <trkpt lat="45.13288" lon="0.54223">
        <ele>66.6</ele>
        <time>2022-08-10T09:22:37Z</time>
      </trkpt>
      <trkpt lat="45.13285" lon="0.54229">
        <ele>66.6</ele>
        <time>2022-08-10T09:22:38Z</time>
      </trkpt>
      <trkpt lat="45.13282" lon="0.54235">
        <ele>66.6</ele>
        <time>2022-08-10T09:22:39Z</time>
      </trkpt>
      <trkpt lat="45.13278" lon="0.5424">
        <ele>66.6</ele>
        <time>2022-08-10T09:22:40Z</time>
      </trkpt>
      <trkpt lat="45.13275" lon="0.54246">
        <ele>66.6</ele>
        <time>2022-08-10T09:22:41Z</time>
      </trkpt>
      <trkpt lat="45.13272" lon="0.54251">
        <ele>66.6</ele>
        <time>2022-08-10T09:22:42Z</time>
      </trkpt>
      <trkpt lat="45.13269" lon="0.54257">
        <ele>66.6</ele>
        <time>2022-08-10T09:22:43Z</time>
      </trkpt>
      <trkpt lat="45.13263" lon="0.54266">
        <ele>65.6</ele>
        <time>2022-08-10T09:22:45Z</time>
      </trkpt>
      <trkpt lat="45.13259" lon="0.54272">
        <ele>65.6</ele>
        <time>2022-08-10T09:22:46Z</time>
      </trkpt>
      <trkpt lat="45.13256" lon="0.54278">
        <ele>66.6</ele>
        <time>2022-08-10T09:22:47Z</time>
      </trkpt>
      <trkpt lat="45.13253" lon="0.54283">
        <ele>65.6</ele>
        <time>2022-08-10T09:22:48Z</time>
      </trkpt>
      <trkpt lat="45.13249" lon="0.54288">
        <ele>65.6</ele>
        <time>2022-08-10T09:22:49Z</time>
      </trkpt>
      <trkpt lat="45.13246" lon="0.54293">
        <ele>65.6</ele>
        <time>2022-08-10T09:22:50Z</time>
      </trkpt>
      <trkpt lat="45.13243" lon="0.54298">
        <ele>65.6</ele>
        <time>2022-08-10T09:22:51Z</time>
      </trkpt>
      <trkpt lat="45.1324" lon="0.54303">
        <ele>66.6</ele>
        <time>2022-08-10T09:22:52Z</time>
      </trkpt>
      <trkpt lat="45.13237" lon="0.54309">
        <ele>66.6</ele>
        <time>2022-08-10T09:22:53Z</time>
      </trkpt>
      <trkpt lat="45.13234" lon="0.54314">
        <ele>65.6</ele>
        <time>2022-08-10T09:22:54Z</time>
      </trkpt>
      <trkpt lat="45.13229" lon="0.54324">
        <ele>65.6</ele>
        <time>2022-08-10T09:22:56Z</time>
      </trkpt>
      <trkpt lat="45.13226" lon="0.5433">
        <ele>65.6</ele>
        <time>2022-08-10T09:22:57Z</time>
      </trkpt>
      <trkpt lat="45.13223" lon="0.54335">
        <ele>65.6</ele>
        <time>2022-08-10T09:22:58Z</time>
      </trkpt>
      <trkpt lat="45.13221" lon="0.54341">
        <ele>64.6</ele>
        <time>2022-08-10T09:22:59Z</time>
      </trkpt>
      <trkpt lat="45.13218" lon="0.54347">
        <ele>65.6</ele>
        <time>2022-08-10T09:23:00Z</time>
      </trkpt>
      <trkpt lat="45.13215" lon="0.54353">
        <ele>65.6</ele>
        <time>2022-08-10T09:23:01Z</time>
      </trkpt>
      <trkpt lat="45.13213" lon="0.54358">
        <ele>65.6</ele>
        <time>2022-08-10T09:23:02Z</time>
      </trkpt>
      <trkpt lat="45.1321" lon="0.54364">
        <ele>65.6</ele>
        <time>2022-08-10T09:23:03Z</time>
      </trkpt>
      <trkpt lat="45.13207" lon="0.5437">
        <ele>66.6</ele>
        <time>2022-08-10T09:23:04Z</time>
      </trkpt>
      <trkpt lat="45.13205" lon="0.54376">
        <ele>66.6</ele>
        <time>2022-08-10T09:23:05Z</time>
      </trkpt>
      <trkpt lat="45.13202" lon="0.54382">
        <ele>66.6</ele>
        <time>2022-08-10T09:23:06Z</time>
      </trkpt>
      <trkpt lat="45.13199" lon="0.54389">
        <ele>66.6</ele>
        <time>2022-08-10T09:23:07Z</time>
      </trkpt>
      <trkpt lat="45.13197" lon="0.54395">
        <ele>66.6</ele>
        <time>2022-08-10T09:23:08Z</time>
      </trkpt>
      <trkpt lat="45.13195" lon="0.54401">
        <ele>67.6</ele>
        <time>2022-08-10T09:23:09Z</time>
      </trkpt>
      <trkpt lat="45.13192" lon="0.54407">
        <ele>67.6</ele>
        <time>2022-08-10T09:23:10Z</time>
      </trkpt>
      <trkpt lat="45.1319" lon="0.54413">
        <ele>67.6</ele>
        <time>2022-08-10T09:23:11Z</time>
      </trkpt>
      <trkpt lat="45.13187" lon="0.54419">
        <ele>67.6</ele>
        <time>2022-08-10T09:23:12Z</time>
      </trkpt>
      <trkpt lat="45.13184" lon="0.54425">
        <ele>67.6</ele>
        <time>2022-08-10T09:23:13Z</time>
      </trkpt>
      <trkpt lat="45.13181" lon="0.54431">
        <ele>67.6</ele>
        <time>2022-08-10T09:23:14Z</time>
      </trkpt>
      <trkpt lat="45.13178" lon="0.54436">
        <ele>66.6</ele>
        <time>2022-08-10T09:23:15Z</time>
      </trkpt>
      <trkpt lat="45.13174" lon="0.54441">
        <ele>66.6</ele>
        <time>2022-08-10T09:23:16Z</time>
      </trkpt>
      <trkpt lat="45.1317" lon="0.54445">
        <ele>66.6</ele>
        <time>2022-08-10T09:23:17Z</time>
      </trkpt>
      <trkpt lat="45.13166" lon="0.54449">
        <ele>66.6</ele>
        <time>2022-08-10T09:23:18Z</time>
      </trkpt>
      <trkpt lat="45.13161" lon="0.54453">
        <ele>66.6</ele>
        <time>2022-08-10T09:23:19Z</time>
      </trkpt>
      <trkpt lat="45.13157" lon="0.54456">
        <ele>66.6</ele>
        <time>2022-08-10T09:23:20Z</time>
      </trkpt>
      <trkpt lat="45.13152" lon="0.54459">
        <ele>66.6</ele>
        <time>2022-08-10T09:23:21Z</time>
      </trkpt>
      <trkpt lat="45.13147" lon="0.54462">
        <ele>66.6</ele>
        <time>2022-08-10T09:23:22Z</time>
      </trkpt>
      <trkpt lat="45.13143" lon="0.54464">
        <ele>67.6</ele>
        <time>2022-08-10T09:23:23Z</time>
      </trkpt>
      <trkpt lat="45.13138" lon="0.54465">
        <ele>67.6</ele>
        <time>2022-08-10T09:23:24Z</time>
      </trkpt>
      <trkpt lat="45.13131" lon="0.54467">
        <ele>67.6</ele>
        <time>2022-08-10T09:23:26Z</time>
      </trkpt>
      <trkpt lat="45.13125" lon="0.54468">
        <ele>67.6</ele>
        <time>2022-08-10T09:23:28Z</time>
      </trkpt>
      <trkpt lat="45.13119" lon="0.54469">
        <ele>67.6</ele>
        <time>2022-08-10T09:23:30Z</time>
      </trkpt>
      <trkpt lat="45.13114" lon="0.5447">
        <ele>68.6</ele>
        <time>2022-08-10T09:23:33Z</time>
      </trkpt>
      <trkpt lat="45.13108" lon="0.54472">
        <ele>68.6</ele>
        <time>2022-08-10T09:23:36Z</time>
      </trkpt>
      <trkpt lat="45.13103" lon="0.54472">
        <ele>68.6</ele>
        <time>2022-08-10T09:23:38Z</time>
      </trkpt>
      <trkpt lat="45.13099" lon="0.54473">
        <ele>68.6</ele>
        <time>2022-08-10T09:23:40Z</time>
      </trkpt>
      <trkpt lat="45.13093" lon="0.54474">
        <ele>69.6</ele>
        <time>2022-08-10T09:23:42Z</time>
      </trkpt>
      <trkpt lat="45.13087" lon="0.54477">
        <ele>68.6</ele>
        <time>2022-08-10T09:23:44Z</time>
      </trkpt>
      <trkpt lat="45.13081" lon="0.54479">
        <ele>68.6</ele>
        <time>2022-08-10T09:23:46Z</time>
      </trkpt>
      <trkpt lat="45.13075" lon="0.54481">
        <ele>68.6</ele>
        <time>2022-08-10T09:23:48Z</time>
      </trkpt>
      <trkpt lat="45.13069" lon="0.54483">
        <ele>69.6</ele>
        <time>2022-08-10T09:23:50Z</time>
      </trkpt>
      <trkpt lat="45.13063" lon="0.54486">
        <ele>69.6</ele>
        <time>2022-08-10T09:23:52Z</time>
      </trkpt>
      <trkpt lat="45.13059" lon="0.54488">
        <ele>69.6</ele>
        <time>2022-08-10T09:23:54Z</time>
      </trkpt>
      <trkpt lat="45.13059" lon="0.54479">
        <ele>69.6</ele>
        <time>2022-08-10T09:23:57Z</time>
      </trkpt>
      <trkpt lat="45.13066" lon="0.54474">
        <ele>69.6</ele>
        <time>2022-08-10T09:23:59Z</time>
      </trkpt>
      <trkpt lat="45.13071" lon="0.54473">
        <ele>68.6</ele>
        <time>2022-08-10T09:24:00Z</time>
      </trkpt>
      <trkpt lat="45.1308" lon="0.5447">
        <ele>68.6</ele>
        <time>2022-08-10T09:24:02Z</time>
      </trkpt>
      <trkpt lat="45.13084" lon="0.54468">
        <ele>68.6</ele>
        <time>2022-08-10T09:24:03Z</time>
      </trkpt>
      <trkpt lat="45.13089" lon="0.54466">
        <ele>67.6</ele>
        <time>2022-08-10T09:24:04Z</time>
      </trkpt>
      <trkpt lat="45.13094" lon="0.54464">
        <ele>67.6</ele>
        <time>2022-08-10T09:24:05Z</time>
      </trkpt>
      <trkpt lat="45.13099" lon="0.54462">
        <ele>66.6</ele>
        <time>2022-08-10T09:24:06Z</time>
      </trkpt>
      <trkpt lat="45.13104" lon="0.54461">
        <ele>66.6</ele>
        <time>2022-08-10T09:24:07Z</time>
      </trkpt>
      <trkpt lat="45.13109" lon="0.54459">
        <ele>65.6</ele>
        <time>2022-08-10T09:24:08Z</time>
      </trkpt>
      <trkpt lat="45.13113" lon="0.54458">
        <ele>65.6</ele>
        <time>2022-08-10T09:24:09Z</time>
      </trkpt>
      <trkpt lat="45.13121" lon="0.54455">
        <ele>64.6</ele>
        <time>2022-08-10T09:24:11Z</time>
      </trkpt>
      <trkpt lat="45.13123" lon="0.54449">
        <ele>64.6</ele>
        <time>2022-08-10T09:24:13Z</time>
      </trkpt>
      <trkpt lat="45.13123" lon="0.5444">
        <ele>64.6</ele>
        <time>2022-08-10T09:24:15Z</time>
      </trkpt>
      <trkpt lat="45.13122" lon="0.54432">
        <ele>65.6</ele>
        <time>2022-08-10T09:24:17Z</time>
      </trkpt>
      <trkpt lat="45.1312" lon="0.54424">
        <ele>65.6</ele>
        <time>2022-08-10T09:24:19Z</time>
      </trkpt>
      <trkpt lat="45.13117" lon="0.54417">
        <ele>65.6</ele>
        <time>2022-08-10T09:24:21Z</time>
      </trkpt>
      <trkpt lat="45.13115" lon="0.54411">
        <ele>65.6</ele>
        <time>2022-08-10T09:24:23Z</time>
      </trkpt>
      <trkpt lat="45.13111" lon="0.54404">
        <ele>65.6</ele>
        <time>2022-08-10T09:24:25Z</time>
      </trkpt>
      <trkpt lat="45.13107" lon="0.54398">
        <ele>64.6</ele>
        <time>2022-08-10T09:24:27Z</time>
      </trkpt>
      <trkpt lat="45.13102" lon="0.54392">
        <ele>64.6</ele>
        <time>2022-08-10T09:24:29Z</time>
      </trkpt>
      <trkpt lat="45.13096" lon="0.54388">
        <ele>64.6</ele>
        <time>2022-08-10T09:24:31Z</time>
      </trkpt>
      <trkpt lat="45.1309" lon="0.54384">
        <ele>64.6</ele>
        <time>2022-08-10T09:24:33Z</time>
      </trkpt>
      <trkpt lat="45.13083" lon="0.54381">
        <ele>64.6</ele>
        <time>2022-08-10T09:24:35Z</time>
      </trkpt>
      <trkpt lat="45.13076" lon="0.5438">
        <ele>64.6</ele>
        <time>2022-08-10T09:24:37Z</time>
      </trkpt>
      <trkpt lat="45.1307" lon="0.5438">
        <ele>64.6</ele>
        <time>2022-08-10T09:24:39Z</time>
      </trkpt>
      <trkpt lat="45.13065" lon="0.54377">
        <ele>65.6</ele>
        <time>2022-08-10T09:25:32Z</time>
      </trkpt>
      <trkpt lat="45.1306" lon="0.54377">
        <ele>65.6</ele>
        <time>2022-08-10T09:25:36Z</time>
      </trkpt>
      <trkpt lat="45.13055" lon="0.54378">
        <ele>65.6</ele>
        <time>2022-08-10T09:25:38Z</time>
      </trkpt>
      <trkpt lat="45.13048" lon="0.54378">
        <ele>65.6</ele>
        <time>2022-08-10T09:25:41Z</time>
      </trkpt>
      <trkpt lat="45.13042" lon="0.54379">
        <ele>65.6</ele>
        <time>2022-08-10T09:25:44Z</time>
      </trkpt>
      <trkpt lat="45.13038" lon="0.54382">
        <ele>66.6</ele>
        <time>2022-08-10T09:25:46Z</time>
      </trkpt>
      <trkpt lat="45.13033" lon="0.54384">
        <ele>66.6</ele>
        <time>2022-08-10T09:25:48Z</time>
      </trkpt>
      <trkpt lat="45.13026" lon="0.54387">
        <ele>65.6</ele>
        <time>2022-08-10T09:25:51Z</time>
      </trkpt>
      <trkpt lat="45.13021" lon="0.54387">
        <ele>65.6</ele>
        <time>2022-08-10T09:25:53Z</time>
      </trkpt>
      <trkpt lat="45.13014" lon="0.54388">
        <ele>64.6</ele>
        <time>2022-08-10T09:25:56Z</time>
      </trkpt>
      <trkpt lat="45.1301" lon="0.54388">
        <ele>65.6</ele>
        <time>2022-08-10T09:25:58Z</time>
      </trkpt>
      <trkpt lat="45.13004" lon="0.54389">
        <ele>65.6</ele>
        <time>2022-08-10T09:26:00Z</time>
      </trkpt>
      <trkpt lat="45.12999" lon="0.5439">
        <ele>65.6</ele>
        <time>2022-08-10T09:26:02Z</time>
      </trkpt>
      <trkpt lat="45.12993" lon="0.54391">
        <ele>65.6</ele>
        <time>2022-08-10T09:26:04Z</time>
      </trkpt>
      <trkpt lat="45.12988" lon="0.54392">
        <ele>65.6</ele>
        <time>2022-08-10T09:26:06Z</time>
      </trkpt>
      <trkpt lat="45.12983" lon="0.54393">
        <ele>64.6</ele>
        <time>2022-08-10T09:26:08Z</time>
      </trkpt>
      <trkpt lat="45.12977" lon="0.54393">
        <ele>64.6</ele>
        <time>2022-08-10T09:26:10Z</time>
      </trkpt>
      <trkpt lat="45.12973" lon="0.54394">
        <ele>64.6</ele>
        <time>2022-08-10T09:26:12Z</time>
      </trkpt>
      <trkpt lat="45.12967" lon="0.54394">
        <ele>64.6</ele>
        <time>2022-08-10T09:26:14Z</time>
      </trkpt>
      <trkpt lat="45.12962" lon="0.54394">
        <ele>64.6</ele>
        <time>2022-08-10T09:26:16Z</time>
      </trkpt>
      <trkpt lat="45.12956" lon="0.54393">
        <ele>64.6</ele>
        <time>2022-08-10T09:26:18Z</time>
      </trkpt>
      <trkpt lat="45.12951" lon="0.54391">
        <ele>64.6</ele>
        <time>2022-08-10T09:26:20Z</time>
      </trkpt>
      <trkpt lat="45.12945" lon="0.54388">
        <ele>63.6</ele>
        <time>2022-08-10T09:26:22Z</time>
      </trkpt>
      <trkpt lat="45.1294" lon="0.54384">
        <ele>63.6</ele>
        <time>2022-08-10T09:26:24Z</time>
      </trkpt>
      <trkpt lat="45.12936" lon="0.54379">
        <ele>64.6</ele>
        <time>2022-08-10T09:26:26Z</time>
      </trkpt>
      <trkpt lat="45.12931" lon="0.54374">
        <ele>65.6</ele>
        <time>2022-08-10T09:26:29Z</time>
      </trkpt>
      <trkpt lat="45.12926" lon="0.54372">
        <ele>65.6</ele>
        <time>2022-08-10T09:26:31Z</time>
      </trkpt>
      <trkpt lat="45.1292" lon="0.54372">
        <ele>66.6</ele>
        <time>2022-08-10T09:26:33Z</time>
      </trkpt>
      <trkpt lat="45.12915" lon="0.54371">
        <ele>66.6</ele>
        <time>2022-08-10T09:26:35Z</time>
      </trkpt>
      <trkpt lat="45.12909" lon="0.5437">
        <ele>66.6</ele>
        <time>2022-08-10T09:26:37Z</time>
      </trkpt>
      <trkpt lat="45.12904" lon="0.54369">
        <ele>66.6</ele>
        <time>2022-08-10T09:26:39Z</time>
      </trkpt>
      <trkpt lat="45.12899" lon="0.54368">
        <ele>66.6</ele>
        <time>2022-08-10T09:26:41Z</time>
      </trkpt>
      <trkpt lat="45.12894" lon="0.54368">
        <ele>65.6</ele>
        <time>2022-08-10T09:26:43Z</time>
      </trkpt>
      <trkpt lat="45.12889" lon="0.54368">
        <ele>65.6</ele>
        <time>2022-08-10T09:26:45Z</time>
      </trkpt>
      <trkpt lat="45.12884" lon="0.54368">
        <ele>65.6</ele>
        <time>2022-08-10T09:26:47Z</time>
      </trkpt>
      <trkpt lat="45.12879" lon="0.54368">
        <ele>65.6</ele>
        <time>2022-08-10T09:26:49Z</time>
      </trkpt>
      <trkpt lat="45.12873" lon="0.54367">
        <ele>64.6</ele>
        <time>2022-08-10T09:26:51Z</time>
      </trkpt>
      <trkpt lat="45.12868" lon="0.54366">
        <ele>63.6</ele>
        <time>2022-08-10T09:26:53Z</time>
      </trkpt>
      <trkpt lat="45.12863" lon="0.54367">
        <ele>63.6</ele>
        <time>2022-08-10T09:26:55Z</time>
      </trkpt>
      <trkpt lat="45.12858" lon="0.54369">
        <ele>72.6</ele>
        <time>2022-08-10T09:27:59Z</time>
      </trkpt>
      <trkpt lat="45.12862" lon="0.54365">
        <ele>74.6</ele>
        <time>2022-08-10T09:28:36Z</time>
      </trkpt>
      <trkpt lat="45.12859" lon="0.54369">
        <ele>69.6</ele>
        <time>2022-08-10T09:29:24Z</time>
      </trkpt>
      <trkpt lat="45.12856" lon="0.54375">
        <ele>70.6</ele>
        <time>2022-08-10T09:29:45Z</time>
      </trkpt>
      <trkpt lat="45.12852" lon="0.54371">
        <ele>67.6</ele>
        <time>2022-08-10T09:30:17Z</time>
      </trkpt>
      <trkpt lat="45.12848" lon="0.54372">
        <ele>67.6</ele>
        <time>2022-08-10T09:30:22Z</time>
      </trkpt>
      <trkpt lat="45.12843" lon="0.54373">
        <ele>63.6</ele>
        <time>2022-08-10T09:30:27Z</time>
      </trkpt>
      <trkpt lat="45.12837" lon="0.54372">
        <ele>61.6</ele>
        <time>2022-08-10T09:30:31Z</time>
      </trkpt>
      <trkpt lat="45.12831" lon="0.5437">
        <ele>62.6</ele>
        <time>2022-08-10T09:30:34Z</time>
      </trkpt>
      <trkpt lat="45.12825" lon="0.54368">
        <ele>64.6</ele>
        <time>2022-08-10T09:30:37Z</time>
      </trkpt>
      <trkpt lat="45.12821" lon="0.54366">
        <ele>65.6</ele>
        <time>2022-08-10T09:30:39Z</time>
      </trkpt>
      <trkpt lat="45.12816" lon="0.54363">
        <ele>67.6</ele>
        <time>2022-08-10T09:30:41Z</time>
      </trkpt>
      <trkpt lat="45.12811" lon="0.5436">
        <ele>68.6</ele>
        <time>2022-08-10T09:30:43Z</time>
      </trkpt>
      <trkpt lat="45.12806" lon="0.54357">
        <ele>69.6</ele>
        <time>2022-08-10T09:30:45Z</time>
      </trkpt>
      <trkpt lat="45.12801" lon="0.54355">
        <ele>68.6</ele>
        <time>2022-08-10T09:30:47Z</time>
      </trkpt>
      <trkpt lat="45.12795" lon="0.54354">
        <ele>69.6</ele>
        <time>2022-08-10T09:30:49Z</time>
      </trkpt>
      <trkpt lat="45.12789" lon="0.54351">
        <ele>69.6</ele>
        <time>2022-08-10T09:30:51Z</time>
      </trkpt>
      <trkpt lat="45.12784" lon="0.54347">
        <ele>70.6</ele>
        <time>2022-08-10T09:30:53Z</time>
      </trkpt>
      <trkpt lat="45.12776" lon="0.54345">
        <ele>71.6</ele>
        <time>2022-08-10T09:30:56Z</time>
      </trkpt>
      <trkpt lat="45.1277" lon="0.54345">
        <ele>72.6</ele>
        <time>2022-08-10T09:30:58Z</time>
      </trkpt>
      <trkpt lat="45.12764" lon="0.54346">
        <ele>72.6</ele>
        <time>2022-08-10T09:31:00Z</time>
      </trkpt>
      <trkpt lat="45.12758" lon="0.54346">
        <ele>72.6</ele>
        <time>2022-08-10T09:31:02Z</time>
      </trkpt>
      <trkpt lat="45.12753" lon="0.54347">
        <ele>73.6</ele>
        <time>2022-08-10T09:31:04Z</time>
      </trkpt>
      <trkpt lat="45.12746" lon="0.54347">
        <ele>73.6</ele>
        <time>2022-08-10T09:31:06Z</time>
      </trkpt>
      <trkpt lat="45.1274" lon="0.54348">
        <ele>73.6</ele>
        <time>2022-08-10T09:31:08Z</time>
      </trkpt>
      <trkpt lat="45.12734" lon="0.54348">
        <ele>74.6</ele>
        <time>2022-08-10T09:31:10Z</time>
      </trkpt>
      <trkpt lat="45.12729" lon="0.54348">
        <ele>74.6</ele>
        <time>2022-08-10T09:31:12Z</time>
      </trkpt>
      <trkpt lat="45.12724" lon="0.54344">
        <ele>75.6</ele>
        <time>2022-08-10T09:31:14Z</time>
      </trkpt>
      <trkpt lat="45.1272" lon="0.54339">
        <ele>75.6</ele>
        <time>2022-08-10T09:31:16Z</time>
      </trkpt>
      <trkpt lat="45.12717" lon="0.54334">
        <ele>75.6</ele>
        <time>2022-08-10T09:31:18Z</time>
      </trkpt>
      <trkpt lat="45.12713" lon="0.54329">
        <ele>77.6</ele>
        <time>2022-08-10T09:31:21Z</time>
      </trkpt>
      <trkpt lat="45.12709" lon="0.54324">
        <ele>75.6</ele>
        <time>2022-08-10T09:31:26Z</time>
      </trkpt>
      <trkpt lat="45.12705" lon="0.5432">
        <ele>74.6</ele>
        <time>2022-08-10T09:31:29Z</time>
      </trkpt>
      <trkpt lat="45.12702" lon="0.54314">
        <ele>74.6</ele>
        <time>2022-08-10T09:31:32Z</time>
      </trkpt>
      <trkpt lat="45.12698" lon="0.54308">
        <ele>76.6</ele>
        <time>2022-08-10T09:31:35Z</time>
      </trkpt>
      <trkpt lat="45.12695" lon="0.54303">
        <ele>76.6</ele>
        <time>2022-08-10T09:31:38Z</time>
      </trkpt>
      <trkpt lat="45.12691" lon="0.54298">
        <ele>77.6</ele>
        <time>2022-08-10T09:31:41Z</time>
      </trkpt>
      <trkpt lat="45.12686" lon="0.54293">
        <ele>77.6</ele>
        <time>2022-08-10T09:31:44Z</time>
      </trkpt>
      <trkpt lat="45.12682" lon="0.54287">
        <ele>77.6</ele>
        <time>2022-08-10T09:31:47Z</time>
      </trkpt>
      <trkpt lat="45.12681" lon="0.54279">
        <ele>77.6</ele>
        <time>2022-08-10T09:31:50Z</time>
      </trkpt>
      <trkpt lat="45.12681" lon="0.5427">
        <ele>77.6</ele>
        <time>2022-08-10T09:31:53Z</time>
      </trkpt>
      <trkpt lat="45.1268" lon="0.5426">
        <ele>77.6</ele>
        <time>2022-08-10T09:31:56Z</time>
      </trkpt>
      <trkpt lat="45.12677" lon="0.54254">
        <ele>76.6</ele>
        <time>2022-08-10T09:31:58Z</time>
      </trkpt>
      <trkpt lat="45.12673" lon="0.5425">
        <ele>76.6</ele>
        <time>2022-08-10T09:32:00Z</time>
      </trkpt>
      <trkpt lat="45.12667" lon="0.54245">
        <ele>76.6</ele>
        <time>2022-08-10T09:32:03Z</time>
      </trkpt>
      <trkpt lat="45.12663" lon="0.5424">
        <ele>76.6</ele>
        <time>2022-08-10T09:32:05Z</time>
      </trkpt>
      <trkpt lat="45.12658" lon="0.54235">
        <ele>76.6</ele>
        <time>2022-08-10T09:32:07Z</time>
      </trkpt>
      <trkpt lat="45.12655" lon="0.5423">
        <ele>78.6</ele>
        <time>2022-08-10T09:32:09Z</time>
      </trkpt>
      <trkpt lat="45.12651" lon="0.54225">
        <ele>78.6</ele>
        <time>2022-08-10T09:32:11Z</time>
      </trkpt>
      <trkpt lat="45.12647" lon="0.54221">
        <ele>78.6</ele>
        <time>2022-08-10T09:32:13Z</time>
      </trkpt>
      <trkpt lat="45.12643" lon="0.54219">
        <ele>78.6</ele>
        <time>2022-08-10T09:32:15Z</time>
      </trkpt>
      <trkpt lat="45.12637" lon="0.54221">
        <ele>78.6</ele>
        <time>2022-08-10T09:32:18Z</time>
      </trkpt>
      <trkpt lat="45.12634" lon="0.54228">
        <ele>77.6</ele>
        <time>2022-08-10T09:32:21Z</time>
      </trkpt>
      <trkpt lat="45.12634" lon="0.54235">
        <ele>77.6</ele>
        <time>2022-08-10T09:32:24Z</time>
      </trkpt>
      <trkpt lat="45.12632" lon="0.54242">
        <ele>77.6</ele>
        <time>2022-08-10T09:32:28Z</time>
      </trkpt>
      <trkpt lat="45.12629" lon="0.54247">
        <ele>77.6</ele>
        <time>2022-08-10T09:32:31Z</time>
      </trkpt>
      <trkpt lat="45.12625" lon="0.54252">
        <ele>78.6</ele>
        <time>2022-08-10T09:32:35Z</time>
      </trkpt>
      <trkpt lat="45.1262" lon="0.54254">
        <ele>80.6</ele>
        <time>2022-08-10T09:32:40Z</time>
      </trkpt>
      <trkpt lat="45.12615" lon="0.54256">
        <ele>79.6</ele>
        <time>2022-08-10T09:32:45Z</time>
      </trkpt>
      <trkpt lat="45.1261" lon="0.54256">
        <ele>78.6</ele>
        <time>2022-08-10T09:32:49Z</time>
      </trkpt>
      <trkpt lat="45.12606" lon="0.54255">
        <ele>78.6</ele>
        <time>2022-08-10T09:32:53Z</time>
      </trkpt>
      <trkpt lat="45.12602" lon="0.5425">
        <ele>79.6</ele>
        <time>2022-08-10T09:32:57Z</time>
      </trkpt>
      <trkpt lat="45.12598" lon="0.54247">
        <ele>78.6</ele>
        <time>2022-08-10T09:33:02Z</time>
      </trkpt>
      <trkpt lat="45.12594" lon="0.54243">
        <ele>79.6</ele>
        <time>2022-08-10T09:33:06Z</time>
      </trkpt>
      <trkpt lat="45.1259" lon="0.5424">
        <ele>80.6</ele>
        <time>2022-08-10T09:33:09Z</time>
      </trkpt>
      <trkpt lat="45.12585" lon="0.54237">
        <ele>80.6</ele>
        <time>2022-08-10T09:33:14Z</time>
      </trkpt>
      <trkpt lat="45.12581" lon="0.54233">
        <ele>81.6</ele>
        <time>2022-08-10T09:33:17Z</time>
      </trkpt>
      <trkpt lat="45.12577" lon="0.54229">
        <ele>82.6</ele>
        <time>2022-08-10T09:33:20Z</time>
      </trkpt>
      <trkpt lat="45.12573" lon="0.54226">
        <ele>83.6</ele>
        <time>2022-08-10T09:33:23Z</time>
      </trkpt>
      <trkpt lat="45.12569" lon="0.54221">
        <ele>86.6</ele>
        <time>2022-08-10T09:33:27Z</time>
      </trkpt>
      <trkpt lat="45.12565" lon="0.54216">
        <ele>86.6</ele>
        <time>2022-08-10T09:33:31Z</time>
      </trkpt>
      <trkpt lat="45.1256" lon="0.54212">
        <ele>88.6</ele>
        <time>2022-08-10T09:33:37Z</time>
      </trkpt>
      <trkpt lat="45.12556" lon="0.54209">
        <ele>88.6</ele>
        <time>2022-08-10T09:33:40Z</time>
      </trkpt>
      <trkpt lat="45.12551" lon="0.54207">
        <ele>88.6</ele>
        <time>2022-08-10T09:33:44Z</time>
      </trkpt>
      <trkpt lat="45.12547" lon="0.54204">
        <ele>89.6</ele>
        <time>2022-08-10T09:33:48Z</time>
      </trkpt>
      <trkpt lat="45.12542" lon="0.54201">
        <ele>90.6</ele>
        <time>2022-08-10T09:33:53Z</time>
      </trkpt>
      <trkpt lat="45.12537" lon="0.54199">
        <ele>91.6</ele>
        <time>2022-08-10T09:33:59Z</time>
      </trkpt>
      <trkpt lat="45.12532" lon="0.54199">
        <ele>92.6</ele>
        <time>2022-08-10T09:34:03Z</time>
      </trkpt>
      <trkpt lat="45.12526" lon="0.54198">
        <ele>91.6</ele>
        <time>2022-08-10T09:34:08Z</time>
      </trkpt>
      <trkpt lat="45.12522" lon="0.54197">
        <ele>91.6</ele>
        <time>2022-08-10T09:34:13Z</time>
      </trkpt>
      <trkpt lat="45.12517" lon="0.54197">
        <ele>91.6</ele>
        <time>2022-08-10T09:34:18Z</time>
      </trkpt>
      <trkpt lat="45.12514" lon="0.54191">
        <ele>93.6</ele>
        <time>2022-08-10T09:34:23Z</time>
      </trkpt>
      <trkpt lat="45.1251" lon="0.54188">
        <ele>94.6</ele>
        <time>2022-08-10T09:34:27Z</time>
      </trkpt>
      <trkpt lat="45.12505" lon="0.54188">
        <ele>97.6</ele>
        <time>2022-08-10T09:34:31Z</time>
      </trkpt>
      <trkpt lat="45.125" lon="0.54187">
        <ele>97.6</ele>
        <time>2022-08-10T09:34:35Z</time>
      </trkpt>
      <trkpt lat="45.12496" lon="0.54183">
        <ele>98.6</ele>
        <time>2022-08-10T09:34:39Z</time>
      </trkpt>
      <trkpt lat="45.12491" lon="0.5418">
        <ele>98.6</ele>
        <time>2022-08-10T09:34:43Z</time>
      </trkpt>
      <trkpt lat="45.12486" lon="0.5418">
        <ele>98.6</ele>
        <time>2022-08-10T09:34:48Z</time>
      </trkpt>
      <trkpt lat="45.12481" lon="0.54177">
        <ele>99.6</ele>
        <time>2022-08-10T09:34:53Z</time>
      </trkpt>
      <trkpt lat="45.12476" lon="0.54172">
        <ele>101.6</ele>
        <time>2022-08-10T09:34:57Z</time>
      </trkpt>
      <trkpt lat="45.12471" lon="0.54171">
        <ele>102.6</ele>
        <time>2022-08-10T09:35:05Z</time>
      </trkpt>
      <trkpt lat="45.12467" lon="0.54174">
        <ele>100.6</ele>
        <time>2022-08-10T09:35:10Z</time>
      </trkpt>
      <trkpt lat="45.12463" lon="0.54177">
        <ele>101.6</ele>
        <time>2022-08-10T09:35:14Z</time>
      </trkpt>
      <trkpt lat="45.12458" lon="0.54176">
        <ele>101.6</ele>
        <time>2022-08-10T09:35:18Z</time>
      </trkpt>
      <trkpt lat="45.12454" lon="0.54175">
        <ele>102.6</ele>
        <time>2022-08-10T09:35:22Z</time>
      </trkpt>
      <trkpt lat="45.12449" lon="0.54172">
        <ele>105.6</ele>
        <time>2022-08-10T09:35:33Z</time>
      </trkpt>
      <trkpt lat="45.12444" lon="0.5417">
        <ele>104.6</ele>
        <time>2022-08-10T09:35:38Z</time>
      </trkpt>
      <trkpt lat="45.12439" lon="0.54168">
        <ele>103.6</ele>
        <time>2022-08-10T09:35:45Z</time>
      </trkpt>
      <trkpt lat="45.12435" lon="0.54166">
        <ele>104.6</ele>
        <time>2022-08-10T09:35:51Z</time>
      </trkpt>
      <trkpt lat="45.1243" lon="0.54164">
        <ele>105.6</ele>
        <time>2022-08-10T09:35:59Z</time>
      </trkpt>
      <trkpt lat="45.12425" lon="0.54164">
        <ele>106.6</ele>
        <time>2022-08-10T09:36:05Z</time>
      </trkpt>
      <trkpt lat="45.1242" lon="0.54163">
        <ele>107.6</ele>
        <time>2022-08-10T09:36:11Z</time>
      </trkpt>
      <trkpt lat="45.12416" lon="0.54162">
        <ele>106.6</ele>
        <time>2022-08-10T09:36:16Z</time>
      </trkpt>
      <trkpt lat="45.12411" lon="0.54163">
        <ele>107.6</ele>
        <time>2022-08-10T09:36:22Z</time>
      </trkpt>
      <trkpt lat="45.12406" lon="0.54166">
        <ele>108.6</ele>
        <time>2022-08-10T09:36:26Z</time>
      </trkpt>
      <trkpt lat="45.12401" lon="0.54166">
        <ele>108.6</ele>
        <time>2022-08-10T09:36:30Z</time>
      </trkpt>
      <trkpt lat="45.12396" lon="0.54167">
        <ele>109.6</ele>
        <time>2022-08-10T09:36:34Z</time>
      </trkpt>
      <trkpt lat="45.12391" lon="0.54164">
        <ele>114.6</ele>
        <time>2022-08-10T09:36:41Z</time>
      </trkpt>
      <trkpt lat="45.12385" lon="0.54163">
        <ele>116.6</ele>
        <time>2022-08-10T09:36:45Z</time>
      </trkpt>
      <trkpt lat="45.12379" lon="0.54163">
        <ele>116.6</ele>
        <time>2022-08-10T09:36:49Z</time>
      </trkpt>
      <trkpt lat="45.12374" lon="0.54163">
        <ele>118.6</ele>
        <time>2022-08-10T09:36:54Z</time>
      </trkpt>
      <trkpt lat="45.12369" lon="0.54164">
        <ele>121.6</ele>
        <time>2022-08-10T09:37:33Z</time>
      </trkpt>
      <trkpt lat="45.12365" lon="0.54161">
        <ele>120.6</ele>
        <time>2022-08-10T09:37:39Z</time>
      </trkpt>
      <trkpt lat="45.12359" lon="0.54161">
        <ele>120.6</ele>
        <time>2022-08-10T09:37:44Z</time>
      </trkpt>
      <trkpt lat="45.12354" lon="0.54162">
        <ele>121.6</ele>
        <time>2022-08-10T09:37:48Z</time>
      </trkpt>
      <trkpt lat="45.12348" lon="0.54162">
        <ele>120.6</ele>
        <time>2022-08-10T09:37:52Z</time>
      </trkpt>
      <trkpt lat="45.12344" lon="0.54161">
        <ele>121.6</ele>
        <time>2022-08-10T09:37:57Z</time>
      </trkpt>
      <trkpt lat="45.12339" lon="0.54163">
        <ele>121.6</ele>
        <time>2022-08-10T09:38:05Z</time>
      </trkpt>
      <trkpt lat="45.12335" lon="0.54164">
        <ele>122.6</ele>
        <time>2022-08-10T09:38:10Z</time>
      </trkpt>
      <trkpt lat="45.1233" lon="0.54165">
        <ele>124.6</ele>
        <time>2022-08-10T09:38:14Z</time>
      </trkpt>
      <trkpt lat="45.12324" lon="0.54166">
        <ele>126.6</ele>
        <time>2022-08-10T09:38:19Z</time>
      </trkpt>
      <trkpt lat="45.12319" lon="0.54167">
        <ele>128.6</ele>
        <time>2022-08-10T09:38:23Z</time>
      </trkpt>
      <trkpt lat="45.12314" lon="0.54168">
        <ele>128.6</ele>
        <time>2022-08-10T09:38:28Z</time>
      </trkpt>
      <trkpt lat="45.12309" lon="0.5417">
        <ele>130.6</ele>
        <time>2022-08-10T09:38:32Z</time>
      </trkpt>
      <trkpt lat="45.12304" lon="0.5417">
        <ele>132.6</ele>
        <time>2022-08-10T09:38:36Z</time>
      </trkpt>
      <trkpt lat="45.12299" lon="0.54171">
        <ele>133.6</ele>
        <time>2022-08-10T09:38:40Z</time>
      </trkpt>
      <trkpt lat="45.12293" lon="0.54172">
        <ele>134.6</ele>
        <time>2022-08-10T09:38:44Z</time>
      </trkpt>
      <trkpt lat="45.12288" lon="0.54172">
        <ele>135.6</ele>
        <time>2022-08-10T09:38:47Z</time>
      </trkpt>
      <trkpt lat="45.12283" lon="0.54171">
        <ele>136.6</ele>
        <time>2022-08-10T09:38:50Z</time>
      </trkpt>
      <trkpt lat="45.12278" lon="0.54173">
        <ele>137.6</ele>
        <time>2022-08-10T09:38:54Z</time>
      </trkpt>
      <trkpt lat="45.12273" lon="0.54175">
        <ele>137.6</ele>
        <time>2022-08-10T09:38:59Z</time>
      </trkpt>
      <trkpt lat="45.12268" lon="0.54176">
        <ele>139.6</ele>
        <time>2022-08-10T09:39:03Z</time>
      </trkpt>
      <trkpt lat="45.12262" lon="0.54176">
        <ele>139.6</ele>
        <time>2022-08-10T09:39:07Z</time>
      </trkpt>
      <trkpt lat="45.12257" lon="0.54175">
        <ele>140.6</ele>
        <time>2022-08-10T09:39:10Z</time>
      </trkpt>
      <trkpt lat="45.12251" lon="0.54175">
        <ele>141.6</ele>
        <time>2022-08-10T09:39:14Z</time>
      </trkpt>
      <trkpt lat="45.12245" lon="0.54176">
        <ele>142.6</ele>
        <time>2022-08-10T09:39:18Z</time>
      </trkpt>
      <trkpt lat="45.1224" lon="0.54175">
        <ele>144.6</ele>
        <time>2022-08-10T09:39:22Z</time>
      </trkpt>
      <trkpt lat="45.12235" lon="0.54174">
        <ele>143.6</ele>
        <time>2022-08-10T09:39:25Z</time>
      </trkpt>
      <trkpt lat="45.1223" lon="0.54174">
        <ele>143.6</ele>
        <time>2022-08-10T09:39:29Z</time>
      </trkpt>
      <trkpt lat="45.12225" lon="0.54175">
        <ele>142.6</ele>
        <time>2022-08-10T09:39:32Z</time>
      </trkpt>
      <trkpt lat="45.1222" lon="0.54173">
        <ele>143.6</ele>
        <time>2022-08-10T09:39:36Z</time>
      </trkpt>
      <trkpt lat="45.12216" lon="0.54172">
        <ele>144.6</ele>
        <time>2022-08-10T09:39:39Z</time>
      </trkpt>
      <trkpt lat="45.1221" lon="0.54171">
        <ele>144.6</ele>
        <time>2022-08-10T09:39:42Z</time>
      </trkpt>
      <trkpt lat="45.12205" lon="0.5417">
        <ele>145.6</ele>
        <time>2022-08-10T09:39:45Z</time>
      </trkpt>
      <trkpt lat="45.122" lon="0.54167">
        <ele>146.6</ele>
        <time>2022-08-10T09:39:49Z</time>
      </trkpt>
      <trkpt lat="45.12197" lon="0.54162">
        <ele>145.6</ele>
        <time>2022-08-10T09:39:53Z</time>
      </trkpt>
      <trkpt lat="45.12192" lon="0.54163">
        <ele>146.6</ele>
        <time>2022-08-10T09:41:13Z</time>
      </trkpt>
      <trkpt lat="45.12187" lon="0.5416">
        <ele>150.6</ele>
        <time>2022-08-10T09:43:57Z</time>
      </trkpt>
      <trkpt lat="45.12182" lon="0.5416">
        <ele>150.6</ele>
        <time>2022-08-10T09:46:20Z</time>
      </trkpt>
      <trkpt lat="45.12177" lon="0.54157">
        <ele>149.6</ele>
        <time>2022-08-10T09:46:24Z</time>
      </trkpt>
      <trkpt lat="45.12173" lon="0.54153">
        <ele>148.6</ele>
        <time>2022-08-10T09:46:27Z</time>
      </trkpt>
      <trkpt lat="45.12167" lon="0.5415">
        <ele>149.6</ele>
        <time>2022-08-10T09:46:30Z</time>
      </trkpt>
      <trkpt lat="45.12162" lon="0.54145">
        <ele>149.6</ele>
        <time>2022-08-10T09:46:33Z</time>
      </trkpt>
      <trkpt lat="45.12157" lon="0.5414">
        <ele>149.6</ele>
        <time>2022-08-10T09:46:36Z</time>
      </trkpt>
      <trkpt lat="45.12151" lon="0.54135">
        <ele>148.6</ele>
        <time>2022-08-10T09:46:39Z</time>
      </trkpt>
      <trkpt lat="45.12146" lon="0.5413">
        <ele>148.6</ele>
        <time>2022-08-10T09:46:42Z</time>
      </trkpt>
      <trkpt lat="45.12142" lon="0.54126">
        <ele>148.6</ele>
        <time>2022-08-10T09:46:45Z</time>
      </trkpt>
      <trkpt lat="45.12139" lon="0.54121">
        <ele>149.6</ele>
        <time>2022-08-10T09:46:48Z</time>
      </trkpt>
      <trkpt lat="45.12136" lon="0.54116">
        <ele>148.6</ele>
        <time>2022-08-10T09:46:51Z</time>
      </trkpt>
      <trkpt lat="45.12133" lon="0.5411">
        <ele>150.6</ele>
        <time>2022-08-10T09:46:54Z</time>
      </trkpt>
      <trkpt lat="45.1213" lon="0.54105">
        <ele>150.6</ele>
        <time>2022-08-10T09:46:57Z</time>
      </trkpt>
      <trkpt lat="45.12124" lon="0.54097">
        <ele>151.6</ele>
        <time>2022-08-10T09:47:01Z</time>
      </trkpt>
      <trkpt lat="45.1212" lon="0.54099">
        <ele>149.6</ele>
        <time>2022-08-10T09:47:12Z</time>
      </trkpt>
      <trkpt lat="45.12117" lon="0.54095">
        <ele>153.6</ele>
        <time>2022-08-10T09:47:47Z</time>
      </trkpt>
      <trkpt lat="45.12113" lon="0.5409">
        <ele>157.6</ele>
        <time>2022-08-10T09:48:05Z</time>
      </trkpt>
      <trkpt lat="45.12108" lon="0.54085">
        <ele>158.6</ele>
        <time>2022-08-10T09:48:09Z</time>
      </trkpt>
      <trkpt lat="45.12102" lon="0.54083">
        <ele>158.6</ele>
        <time>2022-08-10T09:48:12Z</time>
      </trkpt>
      <trkpt lat="45.12097" lon="0.54081">
        <ele>159.6</ele>
        <time>2022-08-10T09:48:15Z</time>
      </trkpt>
      <trkpt lat="45.1209" lon="0.54078">
        <ele>158.6</ele>
        <time>2022-08-10T09:48:18Z</time>
      </trkpt>
      <trkpt lat="45.12085" lon="0.54076">
        <ele>157.6</ele>
        <time>2022-08-10T09:48:20Z</time>
      </trkpt>
      <trkpt lat="45.12078" lon="0.54074">
        <ele>157.6</ele>
        <time>2022-08-10T09:48:22Z</time>
      </trkpt>
      <trkpt lat="45.12073" lon="0.54072">
        <ele>156.6</ele>
        <time>2022-08-10T09:48:24Z</time>
      </trkpt>
      <trkpt lat="45.12065" lon="0.5407">
        <ele>156.6</ele>
        <time>2022-08-10T09:48:27Z</time>
      </trkpt>
      <trkpt lat="45.12059" lon="0.54067">
        <ele>156.6</ele>
        <time>2022-08-10T09:48:29Z</time>
      </trkpt>
      <trkpt lat="45.12053" lon="0.54065">
        <ele>156.6</ele>
        <time>2022-08-10T09:48:31Z</time>
      </trkpt>
      <trkpt lat="45.12047" lon="0.54062">
        <ele>155.6</ele>
        <time>2022-08-10T09:48:33Z</time>
      </trkpt>
      <trkpt lat="45.12043" lon="0.5406">
        <ele>156.6</ele>
        <time>2022-08-10T09:48:35Z</time>
      </trkpt>
      <trkpt lat="45.12038" lon="0.54058">
        <ele>156.6</ele>
        <time>2022-08-10T09:48:37Z</time>
      </trkpt>
      <trkpt lat="45.12032" lon="0.54055">
        <ele>156.6</ele>
        <time>2022-08-10T09:48:39Z</time>
      </trkpt>
      <trkpt lat="45.12027" lon="0.54053">
        <ele>156.6</ele>
        <time>2022-08-10T09:48:41Z</time>
      </trkpt>
      <trkpt lat="45.12023" lon="0.54051">
        <ele>155.6</ele>
        <time>2022-08-10T09:48:43Z</time>
      </trkpt>
      <trkpt lat="45.12017" lon="0.54049">
        <ele>154.6</ele>
        <time>2022-08-10T09:48:45Z</time>
      </trkpt>
      <trkpt lat="45.12011" lon="0.54045">
        <ele>154.6</ele>
        <time>2022-08-10T09:48:47Z</time>
      </trkpt>
      <trkpt lat="45.12005" lon="0.54043">
        <ele>154.6</ele>
        <time>2022-08-10T09:48:49Z</time>
      </trkpt>
      <trkpt lat="45.11999" lon="0.54041">
        <ele>154.6</ele>
        <time>2022-08-10T09:48:51Z</time>
      </trkpt>
      <trkpt lat="45.11992" lon="0.54038">
        <ele>155.6</ele>
        <time>2022-08-10T09:48:53Z</time>
      </trkpt>
      <trkpt lat="45.11986" lon="0.54036">
        <ele>155.6</ele>
        <time>2022-08-10T09:48:55Z</time>
      </trkpt>
      <trkpt lat="45.1198" lon="0.54033">
        <ele>155.6</ele>
        <time>2022-08-10T09:48:57Z</time>
      </trkpt>
      <trkpt lat="45.11973" lon="0.5403">
        <ele>155.6</ele>
        <time>2022-08-10T09:48:59Z</time>
      </trkpt>
      <trkpt lat="45.11966" lon="0.54027">
        <ele>154.6</ele>
        <time>2022-08-10T09:49:01Z</time>
      </trkpt>
      <trkpt lat="45.11958" lon="0.54024">
        <ele>154.6</ele>
        <time>2022-08-10T09:49:03Z</time>
      </trkpt>
      <trkpt lat="45.11951" lon="0.5402">
        <ele>154.6</ele>
        <time>2022-08-10T09:49:05Z</time>
      </trkpt>
      <trkpt lat="45.11943" lon="0.54017">
        <ele>153.6</ele>
        <time>2022-08-10T09:49:07Z</time>
      </trkpt>
      <trkpt lat="45.11936" lon="0.54012">
        <ele>153.6</ele>
        <time>2022-08-10T09:49:09Z</time>
      </trkpt>
      <trkpt lat="45.1193" lon="0.54008">
        <ele>153.6</ele>
        <time>2022-08-10T09:49:11Z</time>
      </trkpt>
      <trkpt lat="45.11923" lon="0.54005">
        <ele>152.6</ele>
        <time>2022-08-10T09:49:13Z</time>
      </trkpt>
      <trkpt lat="45.11917" lon="0.54">
        <ele>153.6</ele>
        <time>2022-08-10T09:49:15Z</time>
      </trkpt>
      <trkpt lat="45.11911" lon="0.53995">
        <ele>153.6</ele>
        <time>2022-08-10T09:49:17Z</time>
      </trkpt>
      <trkpt lat="45.11905" lon="0.53994">
        <ele>153.6</ele>
        <time>2022-08-10T09:49:19Z</time>
      </trkpt>
      <trkpt lat="45.11897" lon="0.53993">
        <ele>153.6</ele>
        <time>2022-08-10T09:49:21Z</time>
      </trkpt>
      <trkpt lat="45.1189" lon="0.53992">
        <ele>153.6</ele>
        <time>2022-08-10T09:49:23Z</time>
      </trkpt>
      <trkpt lat="45.11883" lon="0.53991">
        <ele>153.6</ele>
        <time>2022-08-10T09:49:25Z</time>
      </trkpt>
      <trkpt lat="45.11877" lon="0.5399">
        <ele>154.6</ele>
        <time>2022-08-10T09:49:27Z</time>
      </trkpt>
      <trkpt lat="45.1187" lon="0.53989">
        <ele>155.6</ele>
        <time>2022-08-10T09:49:29Z</time>
      </trkpt>
      <trkpt lat="45.11861" lon="0.5399">
        <ele>157.6</ele>
        <time>2022-08-10T09:49:32Z</time>
      </trkpt>
      <trkpt lat="45.11854" lon="0.53989">
        <ele>156.6</ele>
        <time>2022-08-10T09:49:34Z</time>
      </trkpt>
      <trkpt lat="45.11847" lon="0.53987">
        <ele>157.6</ele>
        <time>2022-08-10T09:49:36Z</time>
      </trkpt>
      <trkpt lat="45.1184" lon="0.53986">
        <ele>156.6</ele>
        <time>2022-08-10T09:49:38Z</time>
      </trkpt>
      <trkpt lat="45.11833" lon="0.53985">
        <ele>155.6</ele>
        <time>2022-08-10T09:49:40Z</time>
      </trkpt>
      <trkpt lat="45.11826" lon="0.53983">
        <ele>155.6</ele>
        <time>2022-08-10T09:49:42Z</time>
      </trkpt>
      <trkpt lat="45.11819" lon="0.53981">
        <ele>157.6</ele>
        <time>2022-08-10T09:49:44Z</time>
      </trkpt>
      <trkpt lat="45.1181" lon="0.53979">
        <ele>157.6</ele>
        <time>2022-08-10T09:49:46Z</time>
      </trkpt>
      <trkpt lat="45.11806" lon="0.53979">
        <ele>158.6</ele>
        <time>2022-08-10T09:49:47Z</time>
      </trkpt>
      <trkpt lat="45.11799" lon="0.53978">
        <ele>160.6</ele>
        <time>2022-08-10T09:49:48Z</time>
      </trkpt>
      <trkpt lat="45.11793" lon="0.53977">
        <ele>160.6</ele>
        <time>2022-08-10T09:49:49Z</time>
      </trkpt>
      <trkpt lat="45.11787" lon="0.53976">
        <ele>160.6</ele>
        <time>2022-08-10T09:49:50Z</time>
      </trkpt>
      <trkpt lat="45.11782" lon="0.53975">
        <ele>160.6</ele>
        <time>2022-08-10T09:49:51Z</time>
      </trkpt>
      <trkpt lat="45.11776" lon="0.53975">
        <ele>160.6</ele>
        <time>2022-08-10T09:49:52Z</time>
      </trkpt>
      <trkpt lat="45.11771" lon="0.53974">
        <ele>160.6</ele>
        <time>2022-08-10T09:49:53Z</time>
      </trkpt>
      <trkpt lat="45.11766" lon="0.53973">
        <ele>160.6</ele>
        <time>2022-08-10T09:49:54Z</time>
      </trkpt>
      <trkpt lat="45.11761" lon="0.53972">
        <ele>160.6</ele>
        <time>2022-08-10T09:49:55Z</time>
      </trkpt>
      <trkpt lat="45.11756" lon="0.53971">
        <ele>160.6</ele>
        <time>2022-08-10T09:49:56Z</time>
      </trkpt>
      <trkpt lat="45.11752" lon="0.5397">
        <ele>160.6</ele>
        <time>2022-08-10T09:49:57Z</time>
      </trkpt>
      <trkpt lat="45.11747" lon="0.53969">
        <ele>160.6</ele>
        <time>2022-08-10T09:49:58Z</time>
      </trkpt>
      <trkpt lat="45.11742" lon="0.53968">
        <ele>160.6</ele>
        <time>2022-08-10T09:49:59Z</time>
      </trkpt>
      <trkpt lat="45.11738" lon="0.53968">
        <ele>159.6</ele>
        <time>2022-08-10T09:50:00Z</time>
      </trkpt>
      <trkpt lat="45.11729" lon="0.53966">
        <ele>158.6</ele>
        <time>2022-08-10T09:50:02Z</time>
      </trkpt>
      <trkpt lat="45.11721" lon="0.53964">
        <ele>158.6</ele>
        <time>2022-08-10T09:50:04Z</time>
      </trkpt>
      <trkpt lat="45.11716" lon="0.53963">
        <ele>158.6</ele>
        <time>2022-08-10T09:50:05Z</time>
      </trkpt>
      <trkpt lat="45.11712" lon="0.53962">
        <ele>158.6</ele>
        <time>2022-08-10T09:50:06Z</time>
      </trkpt>
      <trkpt lat="45.11707" lon="0.53961">
        <ele>158.6</ele>
        <time>2022-08-10T09:50:07Z</time>
      </trkpt>
      <trkpt lat="45.11702" lon="0.53959">
        <ele>158.6</ele>
        <time>2022-08-10T09:50:08Z</time>
      </trkpt>
      <trkpt lat="45.11697" lon="0.53958">
        <ele>158.6</ele>
        <time>2022-08-10T09:50:09Z</time>
      </trkpt>
      <trkpt lat="45.11688" lon="0.53955">
        <ele>159.6</ele>
        <time>2022-08-10T09:50:11Z</time>
      </trkpt>
      <trkpt lat="45.11683" lon="0.53954">
        <ele>159.6</ele>
        <time>2022-08-10T09:50:12Z</time>
      </trkpt>
      <trkpt lat="45.11678" lon="0.53952">
        <ele>159.6</ele>
        <time>2022-08-10T09:50:13Z</time>
      </trkpt>
      <trkpt lat="45.11673" lon="0.5395">
        <ele>159.6</ele>
        <time>2022-08-10T09:50:14Z</time>
      </trkpt>
      <trkpt lat="45.11668" lon="0.53948">
        <ele>159.6</ele>
        <time>2022-08-10T09:50:15Z</time>
      </trkpt>
      <trkpt lat="45.11664" lon="0.53946">
        <ele>159.6</ele>
        <time>2022-08-10T09:50:16Z</time>
      </trkpt>
      <trkpt lat="45.11659" lon="0.53944">
        <ele>159.6</ele>
        <time>2022-08-10T09:50:17Z</time>
      </trkpt>
      <trkpt lat="45.11654" lon="0.53942">
        <ele>159.6</ele>
        <time>2022-08-10T09:50:18Z</time>
      </trkpt>
      <trkpt lat="45.11649" lon="0.53941">
        <ele>159.6</ele>
        <time>2022-08-10T09:50:19Z</time>
      </trkpt>
      <trkpt lat="45.11643" lon="0.5394">
        <ele>159.6</ele>
        <time>2022-08-10T09:50:20Z</time>
      </trkpt>
      <trkpt lat="45.11638" lon="0.53938">
        <ele>158.6</ele>
        <time>2022-08-10T09:50:21Z</time>
      </trkpt>
      <trkpt lat="45.11632" lon="0.53937">
        <ele>158.6</ele>
        <time>2022-08-10T09:50:22Z</time>
      </trkpt>
      <trkpt lat="45.11626" lon="0.53936">
        <ele>158.6</ele>
        <time>2022-08-10T09:50:23Z</time>
      </trkpt>
      <trkpt lat="45.11621" lon="0.53935">
        <ele>158.6</ele>
        <time>2022-08-10T09:50:24Z</time>
      </trkpt>
      <trkpt lat="45.11615" lon="0.53935">
        <ele>158.6</ele>
        <time>2022-08-10T09:50:25Z</time>
      </trkpt>
      <trkpt lat="45.1161" lon="0.53933">
        <ele>159.6</ele>
        <time>2022-08-10T09:50:26Z</time>
      </trkpt>
      <trkpt lat="45.11604" lon="0.53933">
        <ele>158.6</ele>
        <time>2022-08-10T09:50:27Z</time>
      </trkpt>
      <trkpt lat="45.11599" lon="0.53932">
        <ele>158.6</ele>
        <time>2022-08-10T09:50:28Z</time>
      </trkpt>
      <trkpt lat="45.11593" lon="0.53931">
        <ele>157.6</ele>
        <time>2022-08-10T09:50:29Z</time>
      </trkpt>
      <trkpt lat="45.11588" lon="0.5393">
        <ele>157.6</ele>
        <time>2022-08-10T09:50:30Z</time>
      </trkpt>
      <trkpt lat="45.11583" lon="0.53929">
        <ele>156.6</ele>
        <time>2022-08-10T09:50:31Z</time>
      </trkpt>
      <trkpt lat="45.11578" lon="0.53929">
        <ele>156.6</ele>
        <time>2022-08-10T09:50:32Z</time>
      </trkpt>
      <trkpt lat="45.11573" lon="0.53927">
        <ele>156.6</ele>
        <time>2022-08-10T09:50:33Z</time>
      </trkpt>
      <trkpt lat="45.11568" lon="0.53927">
        <ele>155.6</ele>
        <time>2022-08-10T09:50:34Z</time>
      </trkpt>
      <trkpt lat="45.11563" lon="0.53926">
        <ele>155.6</ele>
        <time>2022-08-10T09:50:35Z</time>
      </trkpt>
      <trkpt lat="45.11558" lon="0.53925">
        <ele>155.6</ele>
        <time>2022-08-10T09:50:36Z</time>
      </trkpt>
      <trkpt lat="45.11553" lon="0.53925">
        <ele>154.6</ele>
        <time>2022-08-10T09:50:37Z</time>
      </trkpt>
      <trkpt lat="45.11548" lon="0.53925">
        <ele>154.6</ele>
        <time>2022-08-10T09:50:38Z</time>
      </trkpt>
      <trkpt lat="45.11543" lon="0.53925">
        <ele>155.6</ele>
        <time>2022-08-10T09:50:39Z</time>
      </trkpt>
      <trkpt lat="45.11539" lon="0.53924">
        <ele>154.6</ele>
        <time>2022-08-10T09:50:40Z</time>
      </trkpt>
      <trkpt lat="45.11534" lon="0.53924">
        <ele>154.6</ele>
        <time>2022-08-10T09:50:41Z</time>
      </trkpt>
      <trkpt lat="45.11525" lon="0.53922">
        <ele>153.6</ele>
        <time>2022-08-10T09:50:43Z</time>
      </trkpt>
      <trkpt lat="45.11521" lon="0.53922">
        <ele>153.6</ele>
        <time>2022-08-10T09:50:44Z</time>
      </trkpt>
      <trkpt lat="45.11516" lon="0.53921">
        <ele>152.6</ele>
        <time>2022-08-10T09:50:45Z</time>
      </trkpt>
      <trkpt lat="45.11512" lon="0.53921">
        <ele>151.6</ele>
        <time>2022-08-10T09:50:46Z</time>
      </trkpt>
      <trkpt lat="45.11503" lon="0.53919">
        <ele>151.6</ele>
        <time>2022-08-10T09:50:48Z</time>
      </trkpt>
      <trkpt lat="45.11498" lon="0.53919">
        <ele>151.6</ele>
        <time>2022-08-10T09:50:49Z</time>
      </trkpt>
      <trkpt lat="45.11489" lon="0.53918">
        <ele>151.6</ele>
        <time>2022-08-10T09:50:51Z</time>
      </trkpt>
      <trkpt lat="45.11484" lon="0.53918">
        <ele>151.6</ele>
        <time>2022-08-10T09:50:52Z</time>
      </trkpt>
      <trkpt lat="45.11479" lon="0.53917">
        <ele>151.6</ele>
        <time>2022-08-10T09:50:53Z</time>
      </trkpt>
      <trkpt lat="45.11471" lon="0.53917">
        <ele>151.6</ele>
        <time>2022-08-10T09:50:55Z</time>
      </trkpt>
      <trkpt lat="45.11462" lon="0.53917">
        <ele>150.6</ele>
        <time>2022-08-10T09:50:57Z</time>
      </trkpt>
      <trkpt lat="45.11454" lon="0.53918">
        <ele>150.6</ele>
        <time>2022-08-10T09:50:59Z</time>
      </trkpt>
      <trkpt lat="45.11447" lon="0.53919">
        <ele>150.6</ele>
        <time>2022-08-10T09:51:01Z</time>
      </trkpt>
      <trkpt lat="45.11442" lon="0.53921">
        <ele>150.6</ele>
        <time>2022-08-10T09:51:03Z</time>
      </trkpt>
      <trkpt lat="45.11437" lon="0.53926">
        <ele>151.6</ele>
        <time>2022-08-10T09:51:06Z</time>
      </trkpt>
      <trkpt lat="45.11434" lon="0.53931">
        <ele>152.6</ele>
        <time>2022-08-10T09:53:30Z</time>
      </trkpt>
      <trkpt lat="45.11437" lon="0.53925">
        <ele>157.6</ele>
        <time>2022-08-10T09:56:31Z</time>
      </trkpt>
      <trkpt lat="45.11432" lon="0.53923">
        <ele>158.6</ele>
        <time>2022-08-10T09:56:50Z</time>
      </trkpt>
      <trkpt lat="45.11426" lon="0.53926">
        <ele>163.6</ele>
        <time>2022-08-10T09:56:59Z</time>
      </trkpt>
      <trkpt lat="45.1142" lon="0.53928">
        <ele>163.6</ele>
        <time>2022-08-10T09:57:02Z</time>
      </trkpt>
      <trkpt lat="45.11415" lon="0.5393">
        <ele>163.6</ele>
        <time>2022-08-10T09:57:04Z</time>
      </trkpt>
      <trkpt lat="45.11409" lon="0.53933">
        <ele>163.6</ele>
        <time>2022-08-10T09:57:06Z</time>
      </trkpt>
      <trkpt lat="45.11403" lon="0.53935">
        <ele>163.6</ele>
        <time>2022-08-10T09:57:08Z</time>
      </trkpt>
      <trkpt lat="45.11396" lon="0.53938">
        <ele>164.6</ele>
        <time>2022-08-10T09:57:10Z</time>
      </trkpt>
      <trkpt lat="45.11389" lon="0.53941">
        <ele>164.6</ele>
        <time>2022-08-10T09:57:12Z</time>
      </trkpt>
      <trkpt lat="45.11382" lon="0.53944">
        <ele>165.6</ele>
        <time>2022-08-10T09:57:14Z</time>
      </trkpt>
      <trkpt lat="45.11376" lon="0.53946">
        <ele>166.6</ele>
        <time>2022-08-10T09:57:16Z</time>
      </trkpt>
      <trkpt lat="45.11369" lon="0.53949">
        <ele>166.6</ele>
        <time>2022-08-10T09:57:18Z</time>
      </trkpt>
      <trkpt lat="45.1136" lon="0.53954">
        <ele>167.6</ele>
        <time>2022-08-10T09:57:20Z</time>
      </trkpt>
      <trkpt lat="45.11352" lon="0.53959">
        <ele>167.6</ele>
        <time>2022-08-10T09:57:22Z</time>
      </trkpt>
      <trkpt lat="45.11345" lon="0.53963">
        <ele>168.6</ele>
        <time>2022-08-10T09:57:24Z</time>
      </trkpt>
      <trkpt lat="45.1134" lon="0.53966">
        <ele>168.6</ele>
        <time>2022-08-10T09:57:25Z</time>
      </trkpt>
      <trkpt lat="45.11334" lon="0.53971">
        <ele>167.6</ele>
        <time>2022-08-10T09:57:27Z</time>
      </trkpt>
      <trkpt lat="45.11326" lon="0.53979">
        <ele>167.6</ele>
        <time>2022-08-10T09:57:29Z</time>
      </trkpt>
      <trkpt lat="45.11322" lon="0.53982">
        <ele>166.6</ele>
        <time>2022-08-10T09:57:30Z</time>
      </trkpt>
      <trkpt lat="45.11315" lon="0.53986">
        <ele>167.6</ele>
        <time>2022-08-10T09:57:32Z</time>
      </trkpt>
      <trkpt lat="45.11309" lon="0.53992">
        <ele>167.6</ele>
        <time>2022-08-10T09:57:34Z</time>
      </trkpt>
      <trkpt lat="45.11302" lon="0.53997">
        <ele>167.6</ele>
        <time>2022-08-10T09:57:36Z</time>
      </trkpt>
      <trkpt lat="45.11296" lon="0.54002">
        <ele>168.6</ele>
        <time>2022-08-10T09:57:38Z</time>
      </trkpt>
      <trkpt lat="45.1129" lon="0.54008">
        <ele>168.6</ele>
        <time>2022-08-10T09:57:40Z</time>
      </trkpt>
      <trkpt lat="45.11285" lon="0.54013">
        <ele>168.6</ele>
        <time>2022-08-10T09:57:42Z</time>
      </trkpt>
      <trkpt lat="45.11281" lon="0.54017">
        <ele>168.6</ele>
        <time>2022-08-10T09:57:44Z</time>
      </trkpt>
      <trkpt lat="45.11277" lon="0.54021">
        <ele>167.6</ele>
        <time>2022-08-10T09:57:46Z</time>
      </trkpt>
      <trkpt lat="45.11272" lon="0.54025">
        <ele>166.6</ele>
        <time>2022-08-10T09:57:48Z</time>
      </trkpt>
      <trkpt lat="45.11267" lon="0.54029">
        <ele>166.6</ele>
        <time>2022-08-10T09:57:50Z</time>
      </trkpt>
      <trkpt lat="45.11262" lon="0.54033">
        <ele>165.6</ele>
        <time>2022-08-10T09:57:52Z</time>
      </trkpt>
      <trkpt lat="45.11258" lon="0.54036">
        <ele>165.6</ele>
        <time>2022-08-10T09:57:54Z</time>
      </trkpt>
      <trkpt lat="45.11253" lon="0.54041">
        <ele>166.6</ele>
        <time>2022-08-10T09:57:57Z</time>
      </trkpt>
      <trkpt lat="45.11248" lon="0.54043">
        <ele>167.6</ele>
        <time>2022-08-10T09:57:59Z</time>
      </trkpt>
      <trkpt lat="45.11241" lon="0.54048">
        <ele>168.6</ele>
        <time>2022-08-10T09:58:02Z</time>
      </trkpt>
      <trkpt lat="45.11236" lon="0.54051">
        <ele>168.6</ele>
        <time>2022-08-10T09:58:04Z</time>
      </trkpt>
      <trkpt lat="45.11232" lon="0.54054">
        <ele>168.6</ele>
        <time>2022-08-10T09:58:06Z</time>
      </trkpt>
      <trkpt lat="45.11227" lon="0.54058">
        <ele>168.6</ele>
        <time>2022-08-10T09:58:08Z</time>
      </trkpt>
      <trkpt lat="45.11222" lon="0.54061">
        <ele>168.6</ele>
        <time>2022-08-10T09:58:10Z</time>
      </trkpt>
      <trkpt lat="45.11217" lon="0.54065">
        <ele>169.6</ele>
        <time>2022-08-10T09:58:12Z</time>
      </trkpt>
      <trkpt lat="45.11212" lon="0.54067">
        <ele>169.6</ele>
        <time>2022-08-10T09:58:14Z</time>
      </trkpt>
      <trkpt lat="45.11207" lon="0.5407">
        <ele>169.6</ele>
        <time>2022-08-10T09:58:16Z</time>
      </trkpt>
      <trkpt lat="45.11202" lon="0.54074">
        <ele>169.6</ele>
        <time>2022-08-10T09:58:18Z</time>
      </trkpt>
      <trkpt lat="45.11196" lon="0.54077">
        <ele>169.6</ele>
        <time>2022-08-10T09:58:20Z</time>
      </trkpt>
      <trkpt lat="45.11191" lon="0.54079">
        <ele>169.6</ele>
        <time>2022-08-10T09:58:22Z</time>
      </trkpt>
      <trkpt lat="45.11185" lon="0.54082">
        <ele>170.6</ele>
        <time>2022-08-10T09:58:24Z</time>
      </trkpt>
      <trkpt lat="45.1118" lon="0.54084">
        <ele>170.6</ele>
        <time>2022-08-10T09:58:26Z</time>
      </trkpt>
      <trkpt lat="45.11174" lon="0.54087">
        <ele>170.6</ele>
        <time>2022-08-10T09:58:28Z</time>
      </trkpt>
      <trkpt lat="45.11168" lon="0.5409">
        <ele>170.6</ele>
        <time>2022-08-10T09:58:30Z</time>
      </trkpt>
      <trkpt lat="45.11163" lon="0.54092">
        <ele>171.6</ele>
        <time>2022-08-10T09:58:32Z</time>
      </trkpt>
      <trkpt lat="45.11159" lon="0.54094">
        <ele>171.6</ele>
        <time>2022-08-10T09:58:34Z</time>
      </trkpt>
      <trkpt lat="45.1115" lon="0.54099">
        <ele>172.6</ele>
        <time>2022-08-10T09:58:37Z</time>
      </trkpt>
      <trkpt lat="45.11144" lon="0.54101">
        <ele>172.6</ele>
        <time>2022-08-10T09:58:39Z</time>
      </trkpt>
      <trkpt lat="45.11138" lon="0.54102">
        <ele>172.6</ele>
        <time>2022-08-10T09:58:41Z</time>
      </trkpt>
      <trkpt lat="45.11131" lon="0.54103">
        <ele>173.6</ele>
        <time>2022-08-10T09:58:43Z</time>
      </trkpt>
      <trkpt lat="45.11125" lon="0.54105">
        <ele>173.6</ele>
        <time>2022-08-10T09:58:45Z</time>
      </trkpt>
      <trkpt lat="45.11118" lon="0.54107">
        <ele>173.6</ele>
        <time>2022-08-10T09:58:47Z</time>
      </trkpt>
      <trkpt lat="45.11112" lon="0.54107">
        <ele>175.6</ele>
        <time>2022-08-10T09:58:49Z</time>
      </trkpt>
      <trkpt lat="45.11105" lon="0.54109">
        <ele>176.6</ele>
        <time>2022-08-10T09:58:51Z</time>
      </trkpt>
      <trkpt lat="45.111" lon="0.54111">
        <ele>176.6</ele>
        <time>2022-08-10T09:58:53Z</time>
      </trkpt>
      <trkpt lat="45.11094" lon="0.54111">
        <ele>176.6</ele>
        <time>2022-08-10T09:58:55Z</time>
      </trkpt>
      <trkpt lat="45.11088" lon="0.54112">
        <ele>176.6</ele>
        <time>2022-08-10T09:58:57Z</time>
      </trkpt>
      <trkpt lat="45.11083" lon="0.54114">
        <ele>177.6</ele>
        <time>2022-08-10T09:58:59Z</time>
      </trkpt>
      <trkpt lat="45.11077" lon="0.54116">
        <ele>177.6</ele>
        <time>2022-08-10T09:59:01Z</time>
      </trkpt>
      <trkpt lat="45.11071" lon="0.54117">
        <ele>177.6</ele>
        <time>2022-08-10T09:59:03Z</time>
      </trkpt>
      <trkpt lat="45.11064" lon="0.54118">
        <ele>177.6</ele>
        <time>2022-08-10T09:59:05Z</time>
      </trkpt>
      <trkpt lat="45.11057" lon="0.54119">
        <ele>177.6</ele>
        <time>2022-08-10T09:59:07Z</time>
      </trkpt>
      <trkpt lat="45.1105" lon="0.5412">
        <ele>177.6</ele>
        <time>2022-08-10T09:59:09Z</time>
      </trkpt>
      <trkpt lat="45.11038" lon="0.54119">
        <ele>177.6</ele>
        <time>2022-08-10T09:59:12Z</time>
      </trkpt>
      <trkpt lat="45.1103" lon="0.5412">
        <ele>176.6</ele>
        <time>2022-08-10T09:59:14Z</time>
      </trkpt>
      <trkpt lat="45.11022" lon="0.54119">
        <ele>176.6</ele>
        <time>2022-08-10T09:59:16Z</time>
      </trkpt>
      <trkpt lat="45.11017" lon="0.54119">
        <ele>176.6</ele>
        <time>2022-08-10T09:59:17Z</time>
      </trkpt>
      <trkpt lat="45.1101" lon="0.54118">
        <ele>176.6</ele>
        <time>2022-08-10T09:59:18Z</time>
      </trkpt>
      <trkpt lat="45.11003" lon="0.54116">
        <ele>175.6</ele>
        <time>2022-08-10T09:59:19Z</time>
      </trkpt>
      <trkpt lat="45.10997" lon="0.54115">
        <ele>174.6</ele>
        <time>2022-08-10T09:59:20Z</time>
      </trkpt>
      <trkpt lat="45.10992" lon="0.54115">
        <ele>174.6</ele>
        <time>2022-08-10T09:59:21Z</time>
      </trkpt>
      <trkpt lat="45.10987" lon="0.54114">
        <ele>173.6</ele>
        <time>2022-08-10T09:59:22Z</time>
      </trkpt>
      <trkpt lat="45.10982" lon="0.54114">
        <ele>173.6</ele>
        <time>2022-08-10T09:59:23Z</time>
      </trkpt>
      <trkpt lat="45.10977" lon="0.54114">
        <ele>174.6</ele>
        <time>2022-08-10T09:59:24Z</time>
      </trkpt>
      <trkpt lat="45.10972" lon="0.54112">
        <ele>173.6</ele>
        <time>2022-08-10T09:59:25Z</time>
      </trkpt>
      <trkpt lat="45.10966" lon="0.54111">
        <ele>173.6</ele>
        <time>2022-08-10T09:59:26Z</time>
      </trkpt>
      <trkpt lat="45.10961" lon="0.5411">
        <ele>174.6</ele>
        <time>2022-08-10T09:59:27Z</time>
      </trkpt>
      <trkpt lat="45.10955" lon="0.54108">
        <ele>173.6</ele>
        <time>2022-08-10T09:59:28Z</time>
      </trkpt>
      <trkpt lat="45.1095" lon="0.54106">
        <ele>174.6</ele>
        <time>2022-08-10T09:59:29Z</time>
      </trkpt>
      <trkpt lat="45.10945" lon="0.54105">
        <ele>174.6</ele>
        <time>2022-08-10T09:59:30Z</time>
      </trkpt>
      <trkpt lat="45.10941" lon="0.54104">
        <ele>174.6</ele>
        <time>2022-08-10T09:59:31Z</time>
      </trkpt>
      <trkpt lat="45.10935" lon="0.54103">
        <ele>174.6</ele>
        <time>2022-08-10T09:59:32Z</time>
      </trkpt>
      <trkpt lat="45.1093" lon="0.54101">
        <ele>174.6</ele>
        <time>2022-08-10T09:59:33Z</time>
      </trkpt>
      <trkpt lat="45.10925" lon="0.54099">
        <ele>174.6</ele>
        <time>2022-08-10T09:59:34Z</time>
      </trkpt>
      <trkpt lat="45.10921" lon="0.54098">
        <ele>174.6</ele>
        <time>2022-08-10T09:59:35Z</time>
      </trkpt>
      <trkpt lat="45.10911" lon="0.54096">
        <ele>174.6</ele>
        <time>2022-08-10T09:59:37Z</time>
      </trkpt>
      <trkpt lat="45.10906" lon="0.54095">
        <ele>174.6</ele>
        <time>2022-08-10T09:59:38Z</time>
      </trkpt>
      <trkpt lat="45.10899" lon="0.54094">
        <ele>175.6</ele>
        <time>2022-08-10T09:59:40Z</time>
      </trkpt>
      <trkpt lat="45.10888" lon="0.54092">
        <ele>174.6</ele>
        <time>2022-08-10T09:59:42Z</time>
      </trkpt>
      <trkpt lat="45.10882" lon="0.54091">
        <ele>174.6</ele>
        <time>2022-08-10T09:59:43Z</time>
      </trkpt>
      <trkpt lat="45.10877" lon="0.5409">
        <ele>174.6</ele>
        <time>2022-08-10T09:59:44Z</time>
      </trkpt>
      <trkpt lat="45.10872" lon="0.5409">
        <ele>174.6</ele>
        <time>2022-08-10T09:59:45Z</time>
      </trkpt>
      <trkpt lat="45.10865" lon="0.54089">
        <ele>173.6</ele>
        <time>2022-08-10T09:59:47Z</time>
      </trkpt>
      <trkpt lat="45.10857" lon="0.54089">
        <ele>173.6</ele>
        <time>2022-08-10T09:59:49Z</time>
      </trkpt>
      <trkpt lat="45.10851" lon="0.54087">
        <ele>173.6</ele>
        <time>2022-08-10T09:59:50Z</time>
      </trkpt>
      <trkpt lat="45.10845" lon="0.54085">
        <ele>173.6</ele>
        <time>2022-08-10T09:59:51Z</time>
      </trkpt>
      <trkpt lat="45.10839" lon="0.54084">
        <ele>173.6</ele>
        <time>2022-08-10T09:59:52Z</time>
      </trkpt>
      <trkpt lat="45.10834" lon="0.54083">
        <ele>173.6</ele>
        <time>2022-08-10T09:59:53Z</time>
      </trkpt>
      <trkpt lat="45.10828" lon="0.54082">
        <ele>173.6</ele>
        <time>2022-08-10T09:59:54Z</time>
      </trkpt>
      <trkpt lat="45.10823" lon="0.5408">
        <ele>173.6</ele>
        <time>2022-08-10T09:59:55Z</time>
      </trkpt>
      <trkpt lat="45.10815" lon="0.54078">
        <ele>174.6</ele>
        <time>2022-08-10T09:59:57Z</time>
      </trkpt>
      <trkpt lat="45.10806" lon="0.54076">
        <ele>174.6</ele>
        <time>2022-08-10T09:59:59Z</time>
      </trkpt>
      <trkpt lat="45.10799" lon="0.54076">
        <ele>174.6</ele>
        <time>2022-08-10T10:00:01Z</time>
      </trkpt>
      <trkpt lat="45.10793" lon="0.54077">
        <ele>174.6</ele>
        <time>2022-08-10T10:00:03Z</time>
      </trkpt>
      <trkpt lat="45.10788" lon="0.54078">
        <ele>174.6</ele>
        <time>2022-08-10T10:00:05Z</time>
      </trkpt>
      <trkpt lat="45.10782" lon="0.5408">
        <ele>174.6</ele>
        <time>2022-08-10T10:00:07Z</time>
      </trkpt>
      <trkpt lat="45.10776" lon="0.54082">
        <ele>174.6</ele>
        <time>2022-08-10T10:00:09Z</time>
      </trkpt>
      <trkpt lat="45.10771" lon="0.54084">
        <ele>174.6</ele>
        <time>2022-08-10T10:00:11Z</time>
      </trkpt>
      <trkpt lat="45.10765" lon="0.54085">
        <ele>174.6</ele>
        <time>2022-08-10T10:00:13Z</time>
      </trkpt>
      <trkpt lat="45.1076" lon="0.54086">
        <ele>174.6</ele>
        <time>2022-08-10T10:00:15Z</time>
      </trkpt>
      <trkpt lat="45.10755" lon="0.54086">
        <ele>174.6</ele>
        <time>2022-08-10T10:00:17Z</time>
      </trkpt>
      <trkpt lat="45.10748" lon="0.54086">
        <ele>174.6</ele>
        <time>2022-08-10T10:00:19Z</time>
      </trkpt>
      <trkpt lat="45.10741" lon="0.54086">
        <ele>174.6</ele>
        <time>2022-08-10T10:00:21Z</time>
      </trkpt>
      <trkpt lat="45.10735" lon="0.54087">
        <ele>174.6</ele>
        <time>2022-08-10T10:00:23Z</time>
      </trkpt>
      <trkpt lat="45.10728" lon="0.54089">
        <ele>174.6</ele>
        <time>2022-08-10T10:00:25Z</time>
      </trkpt>
      <trkpt lat="45.10722" lon="0.54089">
        <ele>174.6</ele>
        <time>2022-08-10T10:00:27Z</time>
      </trkpt>
      <trkpt lat="45.10717" lon="0.54091">
        <ele>175.6</ele>
        <time>2022-08-10T10:00:29Z</time>
      </trkpt>
      <trkpt lat="45.10712" lon="0.54093">
        <ele>175.6</ele>
        <time>2022-08-10T10:00:31Z</time>
      </trkpt>
      <trkpt lat="45.10706" lon="0.54095">
        <ele>175.6</ele>
        <time>2022-08-10T10:00:34Z</time>
      </trkpt>
      <trkpt lat="45.10701" lon="0.54096">
        <ele>175.6</ele>
        <time>2022-08-10T10:00:36Z</time>
      </trkpt>
      <trkpt lat="45.10696" lon="0.54098">
        <ele>175.6</ele>
        <time>2022-08-10T10:00:42Z</time>
      </trkpt>
      <trkpt lat="45.10692" lon="0.54098">
        <ele>175.6</ele>
        <time>2022-08-10T10:00:48Z</time>
      </trkpt>
      <trkpt lat="45.10686" lon="0.54098">
        <ele>175.6</ele>
        <time>2022-08-10T10:00:50Z</time>
      </trkpt>
      <trkpt lat="45.10682" lon="0.54099">
        <ele>175.6</ele>
        <time>2022-08-10T10:00:52Z</time>
      </trkpt>
      <trkpt lat="45.10675" lon="0.54102">
        <ele>174.6</ele>
        <time>2022-08-10T10:00:55Z</time>
      </trkpt>
      <trkpt lat="45.10669" lon="0.54103">
        <ele>173.6</ele>
        <time>2022-08-10T10:00:58Z</time>
      </trkpt>
      <trkpt lat="45.10664" lon="0.54103">
        <ele>173.6</ele>
        <time>2022-08-10T10:01:00Z</time>
      </trkpt>
      <trkpt lat="45.10659" lon="0.54104">
        <ele>172.6</ele>
        <time>2022-08-10T10:01:02Z</time>
      </trkpt>
      <trkpt lat="45.10653" lon="0.54107">
        <ele>172.6</ele>
        <time>2022-08-10T10:01:05Z</time>
      </trkpt>
      <trkpt lat="45.10646" lon="0.54108">
        <ele>169.6</ele>
        <time>2022-08-10T10:01:08Z</time>
      </trkpt>
      <trkpt lat="45.10641" lon="0.54108">
        <ele>167.6</ele>
        <time>2022-08-10T10:01:10Z</time>
      </trkpt>
      <trkpt lat="45.10637" lon="0.54108">
        <ele>167.6</ele>
        <time>2022-08-10T10:01:12Z</time>
      </trkpt>
      <trkpt lat="45.10632" lon="0.54109">
        <ele>167.6</ele>
        <time>2022-08-10T10:01:14Z</time>
      </trkpt>
      <trkpt lat="45.10627" lon="0.54111">
        <ele>166.6</ele>
        <time>2022-08-10T10:01:16Z</time>
      </trkpt>
      <trkpt lat="45.10622" lon="0.54114">
        <ele>164.6</ele>
        <time>2022-08-10T10:01:18Z</time>
      </trkpt>
      <trkpt lat="45.10615" lon="0.54117">
        <ele>161.6</ele>
        <time>2022-08-10T10:01:20Z</time>
      </trkpt>
      <trkpt lat="45.10609" lon="0.54119">
        <ele>159.6</ele>
        <time>2022-08-10T10:01:22Z</time>
      </trkpt>
      <trkpt lat="45.10602" lon="0.54119">
        <ele>158.6</ele>
        <time>2022-08-10T10:01:24Z</time>
      </trkpt>
      <trkpt lat="45.10593" lon="0.54119">
        <ele>156.6</ele>
        <time>2022-08-10T10:01:27Z</time>
      </trkpt>
      <trkpt lat="45.10586" lon="0.54119">
        <ele>155.6</ele>
        <time>2022-08-10T10:01:29Z</time>
      </trkpt>
      <trkpt lat="45.10577" lon="0.54119">
        <ele>155.6</ele>
        <time>2022-08-10T10:01:32Z</time>
      </trkpt>
      <trkpt lat="45.1057" lon="0.54118">
        <ele>155.6</ele>
        <time>2022-08-10T10:01:34Z</time>
      </trkpt>
      <trkpt lat="45.1056" lon="0.54119">
        <ele>155.6</ele>
        <time>2022-08-10T10:01:37Z</time>
      </trkpt>
      <trkpt lat="45.10554" lon="0.54121">
        <ele>156.6</ele>
        <time>2022-08-10T10:01:39Z</time>
      </trkpt>
      <trkpt lat="45.10548" lon="0.54123">
        <ele>158.6</ele>
        <time>2022-08-10T10:01:41Z</time>
      </trkpt>
      <trkpt lat="45.10542" lon="0.54123">
        <ele>159.6</ele>
        <time>2022-08-10T10:01:43Z</time>
      </trkpt>
      <trkpt lat="45.10536" lon="0.54124">
        <ele>161.6</ele>
        <time>2022-08-10T10:01:45Z</time>
      </trkpt>
      <trkpt lat="45.1053" lon="0.54124">
        <ele>160.6</ele>
        <time>2022-08-10T10:01:47Z</time>
      </trkpt>
      <trkpt lat="45.10526" lon="0.54123">
        <ele>161.6</ele>
        <time>2022-08-10T10:01:49Z</time>
      </trkpt>
      <trkpt lat="45.10521" lon="0.54121">
        <ele>161.6</ele>
        <time>2022-08-10T10:01:51Z</time>
      </trkpt>
      <trkpt lat="45.10516" lon="0.54121">
        <ele>161.6</ele>
        <time>2022-08-10T10:01:53Z</time>
      </trkpt>
      <trkpt lat="45.10509" lon="0.54119">
        <ele>162.6</ele>
        <time>2022-08-10T10:01:55Z</time>
      </trkpt>
      <trkpt lat="45.10503" lon="0.54117">
        <ele>163.6</ele>
        <time>2022-08-10T10:01:57Z</time>
      </trkpt>
      <trkpt lat="45.10494" lon="0.54115">
        <ele>164.6</ele>
        <time>2022-08-10T10:01:59Z</time>
      </trkpt>
      <trkpt lat="45.10487" lon="0.54114">
        <ele>166.6</ele>
        <time>2022-08-10T10:02:01Z</time>
      </trkpt>
      <trkpt lat="45.1048" lon="0.54112">
        <ele>167.6</ele>
        <time>2022-08-10T10:02:03Z</time>
      </trkpt>
      <trkpt lat="45.10473" lon="0.5411">
        <ele>168.6</ele>
        <time>2022-08-10T10:02:05Z</time>
      </trkpt>
      <trkpt lat="45.10467" lon="0.54109">
        <ele>170.6</ele>
        <time>2022-08-10T10:02:07Z</time>
      </trkpt>
      <trkpt lat="45.10459" lon="0.54107">
        <ele>171.6</ele>
        <time>2022-08-10T10:02:09Z</time>
      </trkpt>
      <trkpt lat="45.10449" lon="0.54105">
        <ele>171.6</ele>
        <time>2022-08-10T10:02:12Z</time>
      </trkpt>
      <trkpt lat="45.10442" lon="0.54103">
        <ele>171.6</ele>
        <time>2022-08-10T10:02:14Z</time>
      </trkpt>
      <trkpt lat="45.10433" lon="0.54099">
        <ele>171.6</ele>
        <time>2022-08-10T10:02:17Z</time>
      </trkpt>
      <trkpt lat="45.10431" lon="0.54093">
        <ele>172.6</ele>
        <time>2022-08-10T10:02:21Z</time>
      </trkpt>
      <trkpt lat="45.10425" lon="0.54094">
        <ele>171.6</ele>
        <time>2022-08-10T10:02:26Z</time>
      </trkpt>
      <trkpt lat="45.10419" lon="0.54096">
        <ele>171.6</ele>
        <time>2022-08-10T10:02:29Z</time>
      </trkpt>
      <trkpt lat="45.10414" lon="0.54094">
        <ele>170.6</ele>
        <time>2022-08-10T10:02:31Z</time>
      </trkpt>
      <trkpt lat="45.10408" lon="0.54091">
        <ele>171.6</ele>
        <time>2022-08-10T10:02:33Z</time>
      </trkpt>
      <trkpt lat="45.10402" lon="0.54088">
        <ele>174.6</ele>
        <time>2022-08-10T10:02:35Z</time>
      </trkpt>
      <trkpt lat="45.10396" lon="0.54086">
        <ele>174.6</ele>
        <time>2022-08-10T10:02:37Z</time>
      </trkpt>
      <trkpt lat="45.10389" lon="0.54084">
        <ele>175.6</ele>
        <time>2022-08-10T10:02:39Z</time>
      </trkpt>
      <trkpt lat="45.10382" lon="0.54083">
        <ele>175.6</ele>
        <time>2022-08-10T10:02:41Z</time>
      </trkpt>
      <trkpt lat="45.10376" lon="0.5408">
        <ele>175.6</ele>
        <time>2022-08-10T10:02:43Z</time>
      </trkpt>
      <trkpt lat="45.1037" lon="0.54078">
        <ele>174.6</ele>
        <time>2022-08-10T10:02:45Z</time>
      </trkpt>
      <trkpt lat="45.10364" lon="0.54077">
        <ele>174.6</ele>
        <time>2022-08-10T10:02:47Z</time>
      </trkpt>
      <trkpt lat="45.10357" lon="0.54075">
        <ele>173.6</ele>
        <time>2022-08-10T10:02:49Z</time>
      </trkpt>
      <trkpt lat="45.10352" lon="0.54074">
        <ele>174.6</ele>
        <time>2022-08-10T10:02:51Z</time>
      </trkpt>
      <trkpt lat="45.10347" lon="0.54072">
        <ele>174.6</ele>
        <time>2022-08-10T10:02:53Z</time>
      </trkpt>
      <trkpt lat="45.10342" lon="0.54071">
        <ele>175.6</ele>
        <time>2022-08-10T10:02:55Z</time>
      </trkpt>
      <trkpt lat="45.10336" lon="0.5407">
        <ele>175.6</ele>
        <time>2022-08-10T10:02:57Z</time>
      </trkpt>
      <trkpt lat="45.10331" lon="0.54069">
        <ele>174.6</ele>
        <time>2022-08-10T10:02:59Z</time>
      </trkpt>
      <trkpt lat="45.10327" lon="0.54069">
        <ele>175.6</ele>
        <time>2022-08-10T10:03:01Z</time>
      </trkpt>
      <trkpt lat="45.1032" lon="0.5407">
        <ele>176.6</ele>
        <time>2022-08-10T10:03:04Z</time>
      </trkpt>
      <trkpt lat="45.10314" lon="0.54072">
        <ele>176.6</ele>
        <time>2022-08-10T10:03:07Z</time>
      </trkpt>
      <trkpt lat="45.10307" lon="0.54074">
        <ele>175.6</ele>
        <time>2022-08-10T10:03:10Z</time>
      </trkpt>
      <trkpt lat="45.10303" lon="0.54075">
        <ele>174.6</ele>
        <time>2022-08-10T10:03:12Z</time>
      </trkpt>
      <trkpt lat="45.10298" lon="0.54075">
        <ele>173.6</ele>
        <time>2022-08-10T10:03:14Z</time>
      </trkpt>
      <trkpt lat="45.10294" lon="0.54076">
        <ele>172.6</ele>
        <time>2022-08-10T10:03:16Z</time>
      </trkpt>
      <trkpt lat="45.10289" lon="0.54077">
        <ele>173.6</ele>
        <time>2022-08-10T10:03:18Z</time>
      </trkpt>
      <trkpt lat="45.10284" lon="0.54077">
        <ele>172.6</ele>
        <time>2022-08-10T10:03:20Z</time>
      </trkpt>
      <trkpt lat="45.10279" lon="0.54077">
        <ele>173.6</ele>
        <time>2022-08-10T10:03:22Z</time>
      </trkpt>
      <trkpt lat="45.10273" lon="0.54076">
        <ele>173.6</ele>
        <time>2022-08-10T10:03:24Z</time>
      </trkpt>
      <trkpt lat="45.10267" lon="0.54075">
        <ele>176.6</ele>
        <time>2022-08-10T10:03:27Z</time>
      </trkpt>
      <trkpt lat="45.10262" lon="0.54076">
        <ele>177.6</ele>
        <time>2022-08-10T10:03:30Z</time>
      </trkpt>
      <trkpt lat="45.10261" lon="0.54082">
        <ele>181.6</ele>
        <time>2022-08-10T10:03:58Z</time>
      </trkpt>
      <trkpt lat="45.10266" lon="0.54082">
        <ele>180.6</ele>
        <time>2022-08-10T10:04:32Z</time>
      </trkpt>
      <trkpt lat="45.10269" lon="0.54077">
        <ele>189.6</ele>
        <time>2022-08-10T10:09:28Z</time>
      </trkpt>
      <trkpt lat="45.10274" lon="0.54075">
        <ele>188.6</ele>
        <time>2022-08-10T10:10:41Z</time>
      </trkpt>
      <trkpt lat="45.10279" lon="0.54077">
        <ele>186.6</ele>
        <time>2022-08-10T10:10:44Z</time>
      </trkpt>
      <trkpt lat="45.10284" lon="0.54078">
        <ele>186.6</ele>
        <time>2022-08-10T10:10:47Z</time>
      </trkpt>
      <trkpt lat="45.10289" lon="0.54077">
        <ele>183.6</ele>
        <time>2022-08-10T10:10:55Z</time>
      </trkpt>
      <trkpt lat="45.10295" lon="0.54075">
        <ele>183.6</ele>
        <time>2022-08-10T10:10:58Z</time>
      </trkpt>
      <trkpt lat="45.103" lon="0.54075">
        <ele>182.6</ele>
        <time>2022-08-10T10:11:00Z</time>
      </trkpt>
      <trkpt lat="45.10306" lon="0.54075">
        <ele>182.6</ele>
        <time>2022-08-10T10:11:02Z</time>
      </trkpt>
      <trkpt lat="45.10313" lon="0.54074">
        <ele>182.6</ele>
        <time>2022-08-10T10:11:04Z</time>
      </trkpt>
      <trkpt lat="45.10321" lon="0.54072">
        <ele>181.6</ele>
        <time>2022-08-10T10:11:06Z</time>
      </trkpt>
      <trkpt lat="45.1033" lon="0.54072">
        <ele>180.6</ele>
        <time>2022-08-10T10:11:08Z</time>
      </trkpt>
      <trkpt lat="45.10334" lon="0.54072">
        <ele>179.6</ele>
        <time>2022-08-10T10:11:09Z</time>
      </trkpt>
      <trkpt lat="45.10343" lon="0.54074">
        <ele>177.6</ele>
        <time>2022-08-10T10:11:11Z</time>
      </trkpt>
      <trkpt lat="45.10348" lon="0.54075">
        <ele>176.6</ele>
        <time>2022-08-10T10:11:12Z</time>
      </trkpt>
      <trkpt lat="45.10353" lon="0.54076">
        <ele>176.6</ele>
        <time>2022-08-10T10:11:13Z</time>
      </trkpt>
      <trkpt lat="45.10358" lon="0.54076">
        <ele>175.6</ele>
        <time>2022-08-10T10:11:14Z</time>
      </trkpt>
      <trkpt lat="45.10364" lon="0.54077">
        <ele>175.6</ele>
        <time>2022-08-10T10:11:15Z</time>
      </trkpt>
      <trkpt lat="45.10369" lon="0.54078">
        <ele>174.6</ele>
        <time>2022-08-10T10:11:16Z</time>
      </trkpt>
      <trkpt lat="45.10374" lon="0.54079">
        <ele>174.6</ele>
        <time>2022-08-10T10:11:17Z</time>
      </trkpt>
      <trkpt lat="45.1038" lon="0.54081">
        <ele>173.6</ele>
        <time>2022-08-10T10:11:18Z</time>
      </trkpt>
      <trkpt lat="45.10386" lon="0.54082">
        <ele>173.6</ele>
        <time>2022-08-10T10:11:19Z</time>
      </trkpt>
      <trkpt lat="45.10392" lon="0.54084">
        <ele>173.6</ele>
        <time>2022-08-10T10:11:20Z</time>
      </trkpt>
      <trkpt lat="45.10397" lon="0.54086">
        <ele>174.6</ele>
        <time>2022-08-10T10:11:21Z</time>
      </trkpt>
      <trkpt lat="45.10404" lon="0.54091">
        <ele>173.6</ele>
        <time>2022-08-10T10:11:23Z</time>
      </trkpt>
      <trkpt lat="45.10408" lon="0.54102">
        <ele>173.6</ele>
        <time>2022-08-10T10:11:25Z</time>
      </trkpt>
      <trkpt lat="45.1041" lon="0.54114">
        <ele>172.6</ele>
        <time>2022-08-10T10:11:27Z</time>
      </trkpt>
      <trkpt lat="45.10411" lon="0.54126">
        <ele>171.6</ele>
        <time>2022-08-10T10:11:29Z</time>
      </trkpt>
      <trkpt lat="45.10412" lon="0.54133">
        <ele>170.6</ele>
        <time>2022-08-10T10:11:30Z</time>
      </trkpt>
      <trkpt lat="45.10412" lon="0.5414">
        <ele>169.6</ele>
        <time>2022-08-10T10:11:31Z</time>
      </trkpt>
      <trkpt lat="45.10415" lon="0.54151">
        <ele>167.6</ele>
        <time>2022-08-10T10:11:33Z</time>
      </trkpt>
      <trkpt lat="45.10417" lon="0.54158">
        <ele>167.6</ele>
        <time>2022-08-10T10:11:35Z</time>
      </trkpt>
      <trkpt lat="45.10417" lon="0.54165">
        <ele>167.6</ele>
        <time>2022-08-10T10:11:46Z</time>
      </trkpt>
      <trkpt lat="45.1042" lon="0.54173">
        <ele>167.6</ele>
        <time>2022-08-10T10:11:48Z</time>
      </trkpt>
      <trkpt lat="45.10426" lon="0.54182">
        <ele>166.6</ele>
        <time>2022-08-10T10:11:50Z</time>
      </trkpt>
      <trkpt lat="45.10429" lon="0.54188">
        <ele>167.6</ele>
        <time>2022-08-10T10:11:51Z</time>
      </trkpt>
      <trkpt lat="45.10433" lon="0.54193">
        <ele>166.6</ele>
        <time>2022-08-10T10:11:52Z</time>
      </trkpt>
      <trkpt lat="45.10437" lon="0.54198">
        <ele>166.6</ele>
        <time>2022-08-10T10:11:53Z</time>
      </trkpt>
      <trkpt lat="45.10442" lon="0.54203">
        <ele>165.6</ele>
        <time>2022-08-10T10:11:54Z</time>
      </trkpt>
      <trkpt lat="45.10447" lon="0.54209">
        <ele>165.6</ele>
        <time>2022-08-10T10:11:55Z</time>
      </trkpt>
      <trkpt lat="45.10451" lon="0.54216">
        <ele>165.6</ele>
        <time>2022-08-10T10:11:56Z</time>
      </trkpt>
      <trkpt lat="45.10456" lon="0.54223">
        <ele>165.6</ele>
        <time>2022-08-10T10:11:57Z</time>
      </trkpt>
      <trkpt lat="45.10461" lon="0.54231">
        <ele>164.6</ele>
        <time>2022-08-10T10:11:58Z</time>
      </trkpt>
      <trkpt lat="45.10466" lon="0.54239">
        <ele>164.6</ele>
        <time>2022-08-10T10:11:59Z</time>
      </trkpt>
      <trkpt lat="45.10471" lon="0.54247">
        <ele>164.6</ele>
        <time>2022-08-10T10:12:00Z</time>
      </trkpt>
      <trkpt lat="45.10475" lon="0.54255">
        <ele>164.6</ele>
        <time>2022-08-10T10:12:01Z</time>
      </trkpt>
      <trkpt lat="45.10479" lon="0.54262">
        <ele>163.6</ele>
        <time>2022-08-10T10:12:02Z</time>
      </trkpt>
      <trkpt lat="45.10483" lon="0.54269">
        <ele>163.6</ele>
        <time>2022-08-10T10:12:03Z</time>
      </trkpt>
      <trkpt lat="45.10486" lon="0.54275">
        <ele>162.6</ele>
        <time>2022-08-10T10:12:04Z</time>
      </trkpt>
      <trkpt lat="45.10489" lon="0.54283">
        <ele>162.6</ele>
        <time>2022-08-10T10:12:05Z</time>
      </trkpt>
      <trkpt lat="45.1049" lon="0.54291">
        <ele>161.6</ele>
        <time>2022-08-10T10:12:06Z</time>
      </trkpt>
      <trkpt lat="45.10491" lon="0.54299">
        <ele>161.6</ele>
        <time>2022-08-10T10:12:07Z</time>
      </trkpt>
      <trkpt lat="45.1049" lon="0.54307">
        <ele>161.6</ele>
        <time>2022-08-10T10:12:08Z</time>
      </trkpt>
      <trkpt lat="45.10489" lon="0.54314">
        <ele>161.6</ele>
        <time>2022-08-10T10:12:09Z</time>
      </trkpt>
      <trkpt lat="45.10487" lon="0.5432">
        <ele>161.6</ele>
        <time>2022-08-10T10:12:10Z</time>
      </trkpt>
      <trkpt lat="45.10485" lon="0.54327">
        <ele>162.6</ele>
        <time>2022-08-10T10:12:11Z</time>
      </trkpt>
      <trkpt lat="45.10481" lon="0.54337">
        <ele>162.6</ele>
        <time>2022-08-10T10:12:13Z</time>
      </trkpt>
      <trkpt lat="45.10476" lon="0.54346">
        <ele>162.6</ele>
        <time>2022-08-10T10:12:15Z</time>
      </trkpt>
      <trkpt lat="45.10472" lon="0.54356">
        <ele>163.6</ele>
        <time>2022-08-10T10:12:17Z</time>
      </trkpt>
      <trkpt lat="45.10469" lon="0.54365">
        <ele>163.6</ele>
        <time>2022-08-10T10:12:19Z</time>
      </trkpt>
      <trkpt lat="45.10467" lon="0.54375">
        <ele>164.6</ele>
        <time>2022-08-10T10:12:21Z</time>
      </trkpt>
      <trkpt lat="45.10467" lon="0.54385">
        <ele>164.6</ele>
        <time>2022-08-10T10:12:23Z</time>
      </trkpt>
      <trkpt lat="45.10466" lon="0.54395">
        <ele>164.6</ele>
        <time>2022-08-10T10:12:25Z</time>
      </trkpt>
      <trkpt lat="45.10467" lon="0.54404">
        <ele>164.6</ele>
        <time>2022-08-10T10:12:27Z</time>
      </trkpt>
      <trkpt lat="45.10467" lon="0.54413">
        <ele>164.6</ele>
        <time>2022-08-10T10:12:29Z</time>
      </trkpt>
      <trkpt lat="45.10468" lon="0.54421">
        <ele>164.6</ele>
        <time>2022-08-10T10:12:31Z</time>
      </trkpt>
      <trkpt lat="45.10468" lon="0.54429">
        <ele>164.6</ele>
        <time>2022-08-10T10:12:33Z</time>
      </trkpt>
      <trkpt lat="45.10469" lon="0.54437">
        <ele>164.6</ele>
        <time>2022-08-10T10:12:35Z</time>
      </trkpt>
      <trkpt lat="45.10469" lon="0.54445">
        <ele>164.6</ele>
        <time>2022-08-10T10:12:37Z</time>
      </trkpt>
      <trkpt lat="45.1047" lon="0.54454">
        <ele>164.6</ele>
        <time>2022-08-10T10:12:39Z</time>
      </trkpt>
      <trkpt lat="45.1047" lon="0.54462">
        <ele>163.6</ele>
        <time>2022-08-10T10:12:41Z</time>
      </trkpt>
      <trkpt lat="45.10471" lon="0.5447">
        <ele>163.6</ele>
        <time>2022-08-10T10:12:43Z</time>
      </trkpt>
      <trkpt lat="45.10471" lon="0.54479">
        <ele>162.6</ele>
        <time>2022-08-10T10:12:45Z</time>
      </trkpt>
      <trkpt lat="45.10471" lon="0.54487">
        <ele>163.6</ele>
        <time>2022-08-10T10:12:47Z</time>
      </trkpt>
      <trkpt lat="45.1047" lon="0.54495">
        <ele>163.6</ele>
        <time>2022-08-10T10:12:49Z</time>
      </trkpt>
      <trkpt lat="45.1047" lon="0.54503">
        <ele>163.6</ele>
        <time>2022-08-10T10:12:51Z</time>
      </trkpt>
      <trkpt lat="45.10469" lon="0.54512">
        <ele>162.6</ele>
        <time>2022-08-10T10:12:53Z</time>
      </trkpt>
      <trkpt lat="45.10469" lon="0.5452">
        <ele>163.6</ele>
        <time>2022-08-10T10:12:55Z</time>
      </trkpt>
      <trkpt lat="45.10468" lon="0.54527">
        <ele>164.6</ele>
        <time>2022-08-10T10:12:57Z</time>
      </trkpt>
      <trkpt lat="45.10468" lon="0.54534">
        <ele>164.6</ele>
        <time>2022-08-10T10:12:59Z</time>
      </trkpt>
      <trkpt lat="45.10467" lon="0.54542">
        <ele>164.6</ele>
        <time>2022-08-10T10:13:02Z</time>
      </trkpt>
      <trkpt lat="45.10466" lon="0.54549">
        <ele>165.6</ele>
        <time>2022-08-10T10:13:05Z</time>
      </trkpt>
      <trkpt lat="45.10464" lon="0.54557">
        <ele>166.6</ele>
        <time>2022-08-10T10:13:08Z</time>
      </trkpt>
      <trkpt lat="45.1046" lon="0.54565">
        <ele>165.6</ele>
        <time>2022-08-10T10:13:11Z</time>
      </trkpt>
      <trkpt lat="45.10457" lon="0.54571">
        <ele>165.6</ele>
        <time>2022-08-10T10:13:13Z</time>
      </trkpt>
      <trkpt lat="45.10455" lon="0.54577">
        <ele>165.6</ele>
        <time>2022-08-10T10:13:15Z</time>
      </trkpt>
      <trkpt lat="45.10452" lon="0.54583">
        <ele>165.6</ele>
        <time>2022-08-10T10:13:17Z</time>
      </trkpt>
      <trkpt lat="45.1045" lon="0.54591">
        <ele>165.6</ele>
        <time>2022-08-10T10:13:20Z</time>
      </trkpt>
      <trkpt lat="45.10448" lon="0.54598">
        <ele>165.6</ele>
        <time>2022-08-10T10:13:23Z</time>
      </trkpt>
      <trkpt lat="45.10445" lon="0.54604">
        <ele>165.6</ele>
        <time>2022-08-10T10:13:26Z</time>
      </trkpt>
      <trkpt lat="45.10443" lon="0.5461">
        <ele>166.6</ele>
        <time>2022-08-10T10:13:29Z</time>
      </trkpt>
      <trkpt lat="45.10441" lon="0.54616">
        <ele>166.6</ele>
        <time>2022-08-10T10:13:32Z</time>
      </trkpt>
      <trkpt lat="45.10439" lon="0.54624">
        <ele>167.6</ele>
        <time>2022-08-10T10:13:35Z</time>
      </trkpt>
      <trkpt lat="45.10438" lon="0.54631">
        <ele>169.6</ele>
        <time>2022-08-10T10:13:38Z</time>
      </trkpt>
      <trkpt lat="45.10437" lon="0.54639">
        <ele>170.6</ele>
        <time>2022-08-10T10:13:41Z</time>
      </trkpt>
      <trkpt lat="45.10436" lon="0.54647">
        <ele>171.6</ele>
        <time>2022-08-10T10:13:44Z</time>
      </trkpt>
      <trkpt lat="45.10434" lon="0.54653">
        <ele>171.6</ele>
        <time>2022-08-10T10:13:47Z</time>
      </trkpt>
      <trkpt lat="45.10433" lon="0.54661">
        <ele>169.6</ele>
        <time>2022-08-10T10:13:51Z</time>
      </trkpt>
      <trkpt lat="45.10431" lon="0.54668">
        <ele>169.6</ele>
        <time>2022-08-10T10:13:55Z</time>
      </trkpt>
      <trkpt lat="45.10431" lon="0.54676">
        <ele>170.6</ele>
        <time>2022-08-10T10:13:59Z</time>
      </trkpt>
      <trkpt lat="45.1043" lon="0.54683">
        <ele>170.6</ele>
        <time>2022-08-10T10:14:02Z</time>
      </trkpt>
      <trkpt lat="45.10428" lon="0.54689">
        <ele>172.6</ele>
        <time>2022-08-10T10:14:04Z</time>
      </trkpt>
      <trkpt lat="45.10426" lon="0.54696">
        <ele>171.6</ele>
        <time>2022-08-10T10:14:06Z</time>
      </trkpt>
      <trkpt lat="45.10426" lon="0.54704">
        <ele>170.6</ele>
        <time>2022-08-10T10:14:08Z</time>
      </trkpt>
      <trkpt lat="45.10426" lon="0.54711">
        <ele>168.6</ele>
        <time>2022-08-10T10:14:10Z</time>
      </trkpt>
      <trkpt lat="45.10427" lon="0.54719">
        <ele>167.6</ele>
        <time>2022-08-10T10:14:12Z</time>
      </trkpt>
      <trkpt lat="45.10428" lon="0.54726">
        <ele>166.6</ele>
        <time>2022-08-10T10:14:14Z</time>
      </trkpt>
      <trkpt lat="45.10429" lon="0.54733">
        <ele>166.6</ele>
        <time>2022-08-10T10:14:16Z</time>
      </trkpt>
      <trkpt lat="45.1043" lon="0.54741">
        <ele>165.6</ele>
        <time>2022-08-10T10:14:18Z</time>
      </trkpt>
      <trkpt lat="45.10432" lon="0.54749">
        <ele>164.6</ele>
        <time>2022-08-10T10:14:20Z</time>
      </trkpt>
      <trkpt lat="45.10433" lon="0.54757">
        <ele>164.6</ele>
        <time>2022-08-10T10:14:22Z</time>
      </trkpt>
      <trkpt lat="45.10434" lon="0.54766">
        <ele>164.6</ele>
        <time>2022-08-10T10:14:24Z</time>
      </trkpt>
      <trkpt lat="45.10435" lon="0.54776">
        <ele>165.6</ele>
        <time>2022-08-10T10:14:26Z</time>
      </trkpt>
      <trkpt lat="45.10436" lon="0.54786">
        <ele>166.6</ele>
        <time>2022-08-10T10:14:28Z</time>
      </trkpt>
      <trkpt lat="45.10436" lon="0.54797">
        <ele>168.6</ele>
        <time>2022-08-10T10:14:30Z</time>
      </trkpt>
      <trkpt lat="45.10436" lon="0.54809">
        <ele>169.6</ele>
        <time>2022-08-10T10:14:32Z</time>
      </trkpt>
      <trkpt lat="45.10436" lon="0.5482">
        <ele>169.6</ele>
        <time>2022-08-10T10:14:34Z</time>
      </trkpt>
      <trkpt lat="45.10437" lon="0.54831">
        <ele>168.6</ele>
        <time>2022-08-10T10:14:36Z</time>
      </trkpt>
      <trkpt lat="45.10438" lon="0.54838">
        <ele>169.6</ele>
        <time>2022-08-10T10:14:37Z</time>
      </trkpt>
      <trkpt lat="45.1044" lon="0.54846">
        <ele>169.6</ele>
        <time>2022-08-10T10:14:38Z</time>
      </trkpt>
      <trkpt lat="45.10442" lon="0.54852">
        <ele>169.6</ele>
        <time>2022-08-10T10:14:39Z</time>
      </trkpt>
      <trkpt lat="45.10444" lon="0.54857">
        <ele>169.6</ele>
        <time>2022-08-10T10:14:40Z</time>
      </trkpt>
      <trkpt lat="45.10447" lon="0.54864">
        <ele>169.6</ele>
        <time>2022-08-10T10:14:41Z</time>
      </trkpt>
      <trkpt lat="45.10449" lon="0.5487">
        <ele>169.6</ele>
        <time>2022-08-10T10:14:42Z</time>
      </trkpt>
      <trkpt lat="45.10452" lon="0.54875">
        <ele>169.6</ele>
        <time>2022-08-10T10:14:43Z</time>
      </trkpt>
      <trkpt lat="45.10455" lon="0.5488">
        <ele>170.6</ele>
        <time>2022-08-10T10:14:44Z</time>
      </trkpt>
      <trkpt lat="45.10458" lon="0.54885">
        <ele>170.6</ele>
        <time>2022-08-10T10:14:45Z</time>
      </trkpt>
      <trkpt lat="45.10462" lon="0.54891">
        <ele>171.6</ele>
        <time>2022-08-10T10:14:46Z</time>
      </trkpt>
      <trkpt lat="45.10465" lon="0.54897">
        <ele>172.6</ele>
        <time>2022-08-10T10:14:47Z</time>
      </trkpt>
      <trkpt lat="45.10468" lon="0.54902">
        <ele>172.6</ele>
        <time>2022-08-10T10:14:48Z</time>
      </trkpt>
      <trkpt lat="45.10473" lon="0.54912">
        <ele>173.6</ele>
        <time>2022-08-10T10:14:50Z</time>
      </trkpt>
      <trkpt lat="45.10476" lon="0.54917">
        <ele>173.6</ele>
        <time>2022-08-10T10:14:51Z</time>
      </trkpt>
      <trkpt lat="45.10479" lon="0.54923">
        <ele>174.6</ele>
        <time>2022-08-10T10:14:52Z</time>
      </trkpt>
      <trkpt lat="45.10481" lon="0.5493">
        <ele>174.6</ele>
        <time>2022-08-10T10:14:53Z</time>
      </trkpt>
      <trkpt lat="45.10483" lon="0.54936">
        <ele>174.6</ele>
        <time>2022-08-10T10:14:54Z</time>
      </trkpt>
      <trkpt lat="45.10484" lon="0.54943">
        <ele>174.6</ele>
        <time>2022-08-10T10:14:55Z</time>
      </trkpt>
      <trkpt lat="45.10485" lon="0.5495">
        <ele>174.6</ele>
        <time>2022-08-10T10:14:56Z</time>
      </trkpt>
      <trkpt lat="45.10485" lon="0.54962">
        <ele>174.6</ele>
        <time>2022-08-10T10:14:58Z</time>
      </trkpt>
      <trkpt lat="45.10484" lon="0.54968">
        <ele>173.6</ele>
        <time>2022-08-10T10:14:59Z</time>
      </trkpt>
      <trkpt lat="45.10482" lon="0.54974">
        <ele>173.6</ele>
        <time>2022-08-10T10:15:00Z</time>
      </trkpt>
      <trkpt lat="45.1048" lon="0.5498">
        <ele>173.6</ele>
        <time>2022-08-10T10:15:01Z</time>
      </trkpt>
      <trkpt lat="45.10478" lon="0.54986">
        <ele>172.6</ele>
        <time>2022-08-10T10:15:02Z</time>
      </trkpt>
      <trkpt lat="45.10476" lon="0.54991">
        <ele>172.6</ele>
        <time>2022-08-10T10:15:03Z</time>
      </trkpt>
      <trkpt lat="45.10473" lon="0.54997">
        <ele>172.6</ele>
        <time>2022-08-10T10:15:04Z</time>
      </trkpt>
      <trkpt lat="45.10471" lon="0.55003">
        <ele>172.6</ele>
        <time>2022-08-10T10:15:05Z</time>
      </trkpt>
      <trkpt lat="45.10467" lon="0.55015">
        <ele>173.6</ele>
        <time>2022-08-10T10:15:07Z</time>
      </trkpt>
      <trkpt lat="45.10464" lon="0.5502">
        <ele>172.6</ele>
        <time>2022-08-10T10:15:08Z</time>
      </trkpt>
      <trkpt lat="45.10461" lon="0.55032">
        <ele>172.6</ele>
        <time>2022-08-10T10:15:10Z</time>
      </trkpt>
      <trkpt lat="45.1046" lon="0.55038">
        <ele>172.6</ele>
        <time>2022-08-10T10:15:11Z</time>
      </trkpt>
      <trkpt lat="45.10458" lon="0.5505">
        <ele>172.6</ele>
        <time>2022-08-10T10:15:13Z</time>
      </trkpt>
      <trkpt lat="45.10455" lon="0.55061">
        <ele>172.6</ele>
        <time>2022-08-10T10:15:15Z</time>
      </trkpt>
      <trkpt lat="45.10451" lon="0.55072">
        <ele>172.6</ele>
        <time>2022-08-10T10:15:17Z</time>
      </trkpt>
      <trkpt lat="45.10446" lon="0.55082">
        <ele>172.6</ele>
        <time>2022-08-10T10:15:19Z</time>
      </trkpt>
      <trkpt lat="45.10439" lon="0.55089">
        <ele>172.6</ele>
        <time>2022-08-10T10:15:21Z</time>
      </trkpt>
      <trkpt lat="45.10431" lon="0.55093">
        <ele>173.6</ele>
        <time>2022-08-10T10:15:23Z</time>
      </trkpt>
      <trkpt lat="45.10425" lon="0.55094">
        <ele>173.6</ele>
        <time>2022-08-10T10:15:25Z</time>
      </trkpt>
      <trkpt lat="45.1042" lon="0.55094">
        <ele>175.6</ele>
        <time>2022-08-10T10:16:03Z</time>
      </trkpt>
      <trkpt lat="45.10415" lon="0.55094">
        <ele>176.6</ele>
        <time>2022-08-10T10:16:06Z</time>
      </trkpt>
      <trkpt lat="45.1041" lon="0.55094">
        <ele>176.6</ele>
        <time>2022-08-10T10:16:08Z</time>
      </trkpt>
      <trkpt lat="45.10405" lon="0.55095">
        <ele>176.6</ele>
        <time>2022-08-10T10:16:10Z</time>
      </trkpt>
      <trkpt lat="45.10399" lon="0.55096">
        <ele>176.6</ele>
        <time>2022-08-10T10:16:12Z</time>
      </trkpt>
      <trkpt lat="45.10394" lon="0.55098">
        <ele>176.6</ele>
        <time>2022-08-10T10:16:14Z</time>
      </trkpt>
      <trkpt lat="45.10388" lon="0.551">
        <ele>177.6</ele>
        <time>2022-08-10T10:16:16Z</time>
      </trkpt>
      <trkpt lat="45.10383" lon="0.55101">
        <ele>178.6</ele>
        <time>2022-08-10T10:16:18Z</time>
      </trkpt>
      <trkpt lat="45.10376" lon="0.55102">
        <ele>178.6</ele>
        <time>2022-08-10T10:16:20Z</time>
      </trkpt>
      <trkpt lat="45.1037" lon="0.55105">
        <ele>178.6</ele>
        <time>2022-08-10T10:16:22Z</time>
      </trkpt>
      <trkpt lat="45.10363" lon="0.55108">
        <ele>178.6</ele>
        <time>2022-08-10T10:16:24Z</time>
      </trkpt>
      <trkpt lat="45.10357" lon="0.55111">
        <ele>178.6</ele>
        <time>2022-08-10T10:16:26Z</time>
      </trkpt>
      <trkpt lat="45.1035" lon="0.55115">
        <ele>179.6</ele>
        <time>2022-08-10T10:16:28Z</time>
      </trkpt>
      <trkpt lat="45.10344" lon="0.55118">
        <ele>179.6</ele>
        <time>2022-08-10T10:16:30Z</time>
      </trkpt>
      <trkpt lat="45.10338" lon="0.55121">
        <ele>180.6</ele>
        <time>2022-08-10T10:16:32Z</time>
      </trkpt>
      <trkpt lat="45.10332" lon="0.55126">
        <ele>180.6</ele>
        <time>2022-08-10T10:16:34Z</time>
      </trkpt>
      <trkpt lat="45.10326" lon="0.55132">
        <ele>180.6</ele>
        <time>2022-08-10T10:16:36Z</time>
      </trkpt>
      <trkpt lat="45.1032" lon="0.55138">
        <ele>180.6</ele>
        <time>2022-08-10T10:16:38Z</time>
      </trkpt>
      <trkpt lat="45.10314" lon="0.55144">
        <ele>180.6</ele>
        <time>2022-08-10T10:16:40Z</time>
      </trkpt>
      <trkpt lat="45.10308" lon="0.55149">
        <ele>180.6</ele>
        <time>2022-08-10T10:16:42Z</time>
      </trkpt>
      <trkpt lat="45.10303" lon="0.55155">
        <ele>180.6</ele>
        <time>2022-08-10T10:16:44Z</time>
      </trkpt>
      <trkpt lat="45.10297" lon="0.5516">
        <ele>180.6</ele>
        <time>2022-08-10T10:16:46Z</time>
      </trkpt>
      <trkpt lat="45.10291" lon="0.55167">
        <ele>180.6</ele>
        <time>2022-08-10T10:16:48Z</time>
      </trkpt>
      <trkpt lat="45.10284" lon="0.55173">
        <ele>180.6</ele>
        <time>2022-08-10T10:16:50Z</time>
      </trkpt>
      <trkpt lat="45.10278" lon="0.55178">
        <ele>181.6</ele>
        <time>2022-08-10T10:16:52Z</time>
      </trkpt>
      <trkpt lat="45.1027" lon="0.55183">
        <ele>181.6</ele>
        <time>2022-08-10T10:16:54Z</time>
      </trkpt>
      <trkpt lat="45.10262" lon="0.55186">
        <ele>181.6</ele>
        <time>2022-08-10T10:16:56Z</time>
      </trkpt>
      <trkpt lat="45.10257" lon="0.5519">
        <ele>180.6</ele>
        <time>2022-08-10T10:16:58Z</time>
      </trkpt>
      <trkpt lat="45.10253" lon="0.55197">
        <ele>179.6</ele>
        <time>2022-08-10T10:17:00Z</time>
      </trkpt>
      <trkpt lat="45.10249" lon="0.55205">
        <ele>179.6</ele>
        <time>2022-08-10T10:17:02Z</time>
      </trkpt>
      <trkpt lat="45.10245" lon="0.55215">
        <ele>178.6</ele>
        <time>2022-08-10T10:17:04Z</time>
      </trkpt>
      <trkpt lat="45.1024" lon="0.55226">
        <ele>177.6</ele>
        <time>2022-08-10T10:17:06Z</time>
      </trkpt>
      <trkpt lat="45.10237" lon="0.55233">
        <ele>177.6</ele>
        <time>2022-08-10T10:17:07Z</time>
      </trkpt>
      <trkpt lat="45.10235" lon="0.5524">
        <ele>177.6</ele>
        <time>2022-08-10T10:17:08Z</time>
      </trkpt>
      <trkpt lat="45.10232" lon="0.55246">
        <ele>178.6</ele>
        <time>2022-08-10T10:17:09Z</time>
      </trkpt>
      <trkpt lat="45.10229" lon="0.55252">
        <ele>178.6</ele>
        <time>2022-08-10T10:17:10Z</time>
      </trkpt>
      <trkpt lat="45.10226" lon="0.55258">
        <ele>179.6</ele>
        <time>2022-08-10T10:17:11Z</time>
      </trkpt>
      <trkpt lat="45.10223" lon="0.55264">
        <ele>179.6</ele>
        <time>2022-08-10T10:17:12Z</time>
      </trkpt>
      <trkpt lat="45.10219" lon="0.55272">
        <ele>179.6</ele>
        <time>2022-08-10T10:17:14Z</time>
      </trkpt>
      <trkpt lat="45.10216" lon="0.55278">
        <ele>179.6</ele>
        <time>2022-08-10T10:17:16Z</time>
      </trkpt>
      <trkpt lat="45.10214" lon="0.55286">
        <ele>178.6</ele>
        <time>2022-08-10T10:17:19Z</time>
      </trkpt>
      <trkpt lat="45.10211" lon="0.55292">
        <ele>178.6</ele>
        <time>2022-08-10T10:17:22Z</time>
      </trkpt>
      <trkpt lat="45.10208" lon="0.553">
        <ele>178.6</ele>
        <time>2022-08-10T10:18:21Z</time>
      </trkpt>
      <trkpt lat="45.10205" lon="0.55306">
        <ele>178.6</ele>
        <time>2022-08-10T10:18:23Z</time>
      </trkpt>
      <trkpt lat="45.10203" lon="0.55312">
        <ele>177.6</ele>
        <time>2022-08-10T10:18:25Z</time>
      </trkpt>
      <trkpt lat="45.10201" lon="0.55319">
        <ele>177.6</ele>
        <time>2022-08-10T10:18:27Z</time>
      </trkpt>
      <trkpt lat="45.10197" lon="0.55326">
        <ele>176.6</ele>
        <time>2022-08-10T10:18:29Z</time>
      </trkpt>
      <trkpt lat="45.10194" lon="0.55334">
        <ele>176.6</ele>
        <time>2022-08-10T10:18:31Z</time>
      </trkpt>
      <trkpt lat="45.1019" lon="0.55343">
        <ele>177.6</ele>
        <time>2022-08-10T10:18:33Z</time>
      </trkpt>
      <trkpt lat="45.10188" lon="0.55351">
        <ele>178.6</ele>
        <time>2022-08-10T10:18:35Z</time>
      </trkpt>
      <trkpt lat="45.10185" lon="0.5536">
        <ele>178.6</ele>
        <time>2022-08-10T10:18:37Z</time>
      </trkpt>
      <trkpt lat="45.10183" lon="0.55369">
        <ele>177.6</ele>
        <time>2022-08-10T10:18:39Z</time>
      </trkpt>
      <trkpt lat="45.10179" lon="0.55377">
        <ele>177.6</ele>
        <time>2022-08-10T10:18:41Z</time>
      </trkpt>
      <trkpt lat="45.10175" lon="0.55385">
        <ele>177.6</ele>
        <time>2022-08-10T10:18:43Z</time>
      </trkpt>
      <trkpt lat="45.10173" lon="0.55393">
        <ele>177.6</ele>
        <time>2022-08-10T10:18:45Z</time>
      </trkpt>
      <trkpt lat="45.1017" lon="0.554">
        <ele>178.6</ele>
        <time>2022-08-10T10:18:47Z</time>
      </trkpt>
      <trkpt lat="45.10167" lon="0.55408">
        <ele>177.6</ele>
        <time>2022-08-10T10:18:49Z</time>
      </trkpt>
      <trkpt lat="45.10164" lon="0.55417">
        <ele>177.6</ele>
        <time>2022-08-10T10:18:51Z</time>
      </trkpt>
      <trkpt lat="45.10159" lon="0.55427">
        <ele>177.6</ele>
        <time>2022-08-10T10:18:53Z</time>
      </trkpt>
      <trkpt lat="45.10154" lon="0.55437">
        <ele>177.6</ele>
        <time>2022-08-10T10:18:55Z</time>
      </trkpt>
      <trkpt lat="45.10149" lon="0.55447">
        <ele>177.6</ele>
        <time>2022-08-10T10:18:57Z</time>
      </trkpt>
      <trkpt lat="45.10145" lon="0.55457">
        <ele>177.6</ele>
        <time>2022-08-10T10:18:59Z</time>
      </trkpt>
      <trkpt lat="45.10141" lon="0.55467">
        <ele>177.6</ele>
        <time>2022-08-10T10:19:01Z</time>
      </trkpt>
      <trkpt lat="45.10138" lon="0.55479">
        <ele>177.6</ele>
        <time>2022-08-10T10:19:03Z</time>
      </trkpt>
      <trkpt lat="45.10136" lon="0.55485">
        <ele>177.6</ele>
        <time>2022-08-10T10:19:04Z</time>
      </trkpt>
      <trkpt lat="45.10132" lon="0.55497">
        <ele>178.6</ele>
        <time>2022-08-10T10:19:06Z</time>
      </trkpt>
      <trkpt lat="45.10129" lon="0.55504">
        <ele>178.6</ele>
        <time>2022-08-10T10:19:07Z</time>
      </trkpt>
      <trkpt lat="45.10127" lon="0.5551">
        <ele>177.6</ele>
        <time>2022-08-10T10:19:08Z</time>
      </trkpt>
      <trkpt lat="45.10124" lon="0.55515">
        <ele>177.6</ele>
        <time>2022-08-10T10:19:09Z</time>
      </trkpt>
      <trkpt lat="45.10121" lon="0.55522">
        <ele>178.6</ele>
        <time>2022-08-10T10:19:10Z</time>
      </trkpt>
      <trkpt lat="45.10118" lon="0.55529">
        <ele>179.6</ele>
        <time>2022-08-10T10:19:11Z</time>
      </trkpt>
      <trkpt lat="45.10115" lon="0.55537">
        <ele>178.6</ele>
        <time>2022-08-10T10:19:12Z</time>
      </trkpt>
      <trkpt lat="45.10112" lon="0.55544">
        <ele>177.6</ele>
        <time>2022-08-10T10:19:13Z</time>
      </trkpt>
      <trkpt lat="45.10109" lon="0.55551">
        <ele>177.6</ele>
        <time>2022-08-10T10:19:14Z</time>
      </trkpt>
      <trkpt lat="45.10107" lon="0.55558">
        <ele>176.6</ele>
        <time>2022-08-10T10:19:15Z</time>
      </trkpt>
      <trkpt lat="45.10104" lon="0.55564">
        <ele>176.6</ele>
        <time>2022-08-10T10:19:16Z</time>
      </trkpt>
      <trkpt lat="45.10102" lon="0.5557">
        <ele>176.6</ele>
        <time>2022-08-10T10:19:17Z</time>
      </trkpt>
      <trkpt lat="45.10099" lon="0.55575">
        <ele>176.6</ele>
        <time>2022-08-10T10:19:18Z</time>
      </trkpt>
      <trkpt lat="45.10096" lon="0.55581">
        <ele>176.6</ele>
        <time>2022-08-10T10:19:19Z</time>
      </trkpt>
      <trkpt lat="45.10093" lon="0.55587">
        <ele>177.6</ele>
        <time>2022-08-10T10:19:20Z</time>
      </trkpt>
      <trkpt lat="45.10091" lon="0.55592">
        <ele>177.6</ele>
        <time>2022-08-10T10:19:21Z</time>
      </trkpt>
      <trkpt lat="45.10088" lon="0.55599">
        <ele>177.6</ele>
        <time>2022-08-10T10:19:22Z</time>
      </trkpt>
      <trkpt lat="45.10086" lon="0.55605">
        <ele>177.6</ele>
        <time>2022-08-10T10:19:23Z</time>
      </trkpt>
      <trkpt lat="45.10083" lon="0.5561">
        <ele>178.6</ele>
        <time>2022-08-10T10:19:24Z</time>
      </trkpt>
      <trkpt lat="45.10079" lon="0.55619">
        <ele>179.6</ele>
        <time>2022-08-10T10:19:26Z</time>
      </trkpt>
      <trkpt lat="45.10073" lon="0.55623">
        <ele>179.6</ele>
        <time>2022-08-10T10:19:28Z</time>
      </trkpt>
      <trkpt lat="45.10065" lon="0.55625">
        <ele>179.6</ele>
        <time>2022-08-10T10:19:30Z</time>
      </trkpt>
      <trkpt lat="45.1006" lon="0.55626">
        <ele>179.6</ele>
        <time>2022-08-10T10:19:32Z</time>
      </trkpt>
      <trkpt lat="45.10057" lon="0.55631">
        <ele>179.6</ele>
        <time>2022-08-10T10:19:34Z</time>
      </trkpt>
      <trkpt lat="45.10055" lon="0.5564">
        <ele>179.6</ele>
        <time>2022-08-10T10:19:36Z</time>
      </trkpt>
      <trkpt lat="45.10053" lon="0.55649">
        <ele>179.6</ele>
        <time>2022-08-10T10:19:38Z</time>
      </trkpt>
      <trkpt lat="45.10049" lon="0.55659">
        <ele>179.6</ele>
        <time>2022-08-10T10:19:40Z</time>
      </trkpt>
      <trkpt lat="45.10046" lon="0.55665">
        <ele>179.6</ele>
        <time>2022-08-10T10:19:41Z</time>
      </trkpt>
      <trkpt lat="45.10044" lon="0.55672">
        <ele>179.6</ele>
        <time>2022-08-10T10:19:42Z</time>
      </trkpt>
      <trkpt lat="45.10039" lon="0.55682">
        <ele>179.6</ele>
        <time>2022-08-10T10:19:44Z</time>
      </trkpt>
      <trkpt lat="45.10036" lon="0.55687">
        <ele>179.6</ele>
        <time>2022-08-10T10:19:45Z</time>
      </trkpt>
      <trkpt lat="45.10033" lon="0.55692">
        <ele>179.6</ele>
        <time>2022-08-10T10:19:46Z</time>
      </trkpt>
      <trkpt lat="45.10028" lon="0.55703">
        <ele>179.6</ele>
        <time>2022-08-10T10:19:48Z</time>
      </trkpt>
      <trkpt lat="45.10025" lon="0.55708">
        <ele>179.6</ele>
        <time>2022-08-10T10:19:49Z</time>
      </trkpt>
      <trkpt lat="45.10023" lon="0.55714">
        <ele>179.6</ele>
        <time>2022-08-10T10:19:50Z</time>
      </trkpt>
      <trkpt lat="45.1002" lon="0.55719">
        <ele>179.6</ele>
        <time>2022-08-10T10:19:51Z</time>
      </trkpt>
      <trkpt lat="45.10016" lon="0.55725">
        <ele>179.6</ele>
        <time>2022-08-10T10:19:52Z</time>
      </trkpt>
      <trkpt lat="45.10013" lon="0.55729">
        <ele>179.6</ele>
        <time>2022-08-10T10:19:53Z</time>
      </trkpt>
      <trkpt lat="45.1001" lon="0.55734">
        <ele>179.6</ele>
        <time>2022-08-10T10:19:54Z</time>
      </trkpt>
      <trkpt lat="45.10007" lon="0.55739">
        <ele>179.6</ele>
        <time>2022-08-10T10:19:55Z</time>
      </trkpt>
      <trkpt lat="45.10003" lon="0.55744">
        <ele>179.6</ele>
        <time>2022-08-10T10:19:56Z</time>
      </trkpt>
      <trkpt lat="45.09998" lon="0.55752">
        <ele>179.6</ele>
        <time>2022-08-10T10:19:58Z</time>
      </trkpt>
      <trkpt lat="45.09992" lon="0.55762">
        <ele>178.6</ele>
        <time>2022-08-10T10:20:00Z</time>
      </trkpt>
      <trkpt lat="45.09988" lon="0.55773">
        <ele>178.6</ele>
        <time>2022-08-10T10:20:02Z</time>
      </trkpt>
      <trkpt lat="45.09985" lon="0.55785">
        <ele>179.6</ele>
        <time>2022-08-10T10:20:04Z</time>
      </trkpt>
      <trkpt lat="45.09984" lon="0.55791">
        <ele>179.6</ele>
        <time>2022-08-10T10:20:05Z</time>
      </trkpt>
      <trkpt lat="45.09982" lon="0.55797">
        <ele>179.6</ele>
        <time>2022-08-10T10:20:06Z</time>
      </trkpt>
      <trkpt lat="45.0998" lon="0.55804">
        <ele>179.6</ele>
        <time>2022-08-10T10:20:07Z</time>
      </trkpt>
      <trkpt lat="45.09978" lon="0.5581">
        <ele>180.6</ele>
        <time>2022-08-10T10:20:08Z</time>
      </trkpt>
      <trkpt lat="45.09977" lon="0.55817">
        <ele>180.6</ele>
        <time>2022-08-10T10:20:09Z</time>
      </trkpt>
      <trkpt lat="45.09976" lon="0.55823">
        <ele>180.6</ele>
        <time>2022-08-10T10:20:10Z</time>
      </trkpt>
      <trkpt lat="45.09974" lon="0.55829">
        <ele>181.6</ele>
        <time>2022-08-10T10:20:11Z</time>
      </trkpt>
      <trkpt lat="45.09971" lon="0.55841">
        <ele>181.6</ele>
        <time>2022-08-10T10:20:13Z</time>
      </trkpt>
      <trkpt lat="45.0997" lon="0.55847">
        <ele>181.6</ele>
        <time>2022-08-10T10:20:14Z</time>
      </trkpt>
      <trkpt lat="45.09967" lon="0.55858">
        <ele>181.6</ele>
        <time>2022-08-10T10:20:16Z</time>
      </trkpt>
      <trkpt lat="45.09966" lon="0.55867">
        <ele>181.6</ele>
        <time>2022-08-10T10:20:18Z</time>
      </trkpt>
      <trkpt lat="45.09964" lon="0.55876">
        <ele>181.6</ele>
        <time>2022-08-10T10:20:20Z</time>
      </trkpt>
      <trkpt lat="45.09961" lon="0.55886">
        <ele>181.6</ele>
        <time>2022-08-10T10:20:22Z</time>
      </trkpt>
      <trkpt lat="45.09959" lon="0.55895">
        <ele>181.6</ele>
        <time>2022-08-10T10:20:24Z</time>
      </trkpt>
      <trkpt lat="45.09958" lon="0.55906">
        <ele>181.6</ele>
        <time>2022-08-10T10:20:26Z</time>
      </trkpt>
      <trkpt lat="45.09956" lon="0.55916">
        <ele>181.6</ele>
        <time>2022-08-10T10:20:28Z</time>
      </trkpt>
      <trkpt lat="45.09955" lon="0.55924">
        <ele>182.6</ele>
        <time>2022-08-10T10:20:30Z</time>
      </trkpt>
      <trkpt lat="45.09955" lon="0.55932">
        <ele>182.6</ele>
        <time>2022-08-10T10:20:32Z</time>
      </trkpt>
      <trkpt lat="45.09956" lon="0.55939">
        <ele>182.6</ele>
        <time>2022-08-10T10:20:34Z</time>
      </trkpt>
      <trkpt lat="45.09956" lon="0.55946">
        <ele>182.6</ele>
        <time>2022-08-10T10:20:36Z</time>
      </trkpt>
      <trkpt lat="45.09956" lon="0.55953">
        <ele>182.6</ele>
        <time>2022-08-10T10:20:38Z</time>
      </trkpt>
      <trkpt lat="45.09952" lon="0.55957">
        <ele>182.6</ele>
        <time>2022-08-10T10:21:24Z</time>
      </trkpt>
      <trkpt lat="45.09955" lon="0.55963">
        <ele>182.6</ele>
        <time>2022-08-10T10:23:58Z</time>
      </trkpt>
      <trkpt lat="45.09959" lon="0.55967">
        <ele>181.6</ele>
        <time>2022-08-10T10:25:06Z</time>
      </trkpt>
      <trkpt lat="45.0996" lon="0.55975">
        <ele>182.6</ele>
        <time>2022-08-10T10:25:10Z</time>
      </trkpt>
      <trkpt lat="45.09963" lon="0.55982">
        <ele>182.6</ele>
        <time>2022-08-10T10:25:13Z</time>
      </trkpt>
      <trkpt lat="45.09965" lon="0.55988">
        <ele>181.6</ele>
        <time>2022-08-10T10:25:15Z</time>
      </trkpt>
      <trkpt lat="45.09967" lon="0.55996">
        <ele>181.6</ele>
        <time>2022-08-10T10:25:17Z</time>
      </trkpt>
      <trkpt lat="45.09969" lon="0.56004">
        <ele>180.6</ele>
        <time>2022-08-10T10:25:19Z</time>
      </trkpt>
      <trkpt lat="45.09971" lon="0.56013">
        <ele>179.6</ele>
        <time>2022-08-10T10:25:21Z</time>
      </trkpt>
      <trkpt lat="45.09973" lon="0.56019">
        <ele>178.6</ele>
        <time>2022-08-10T10:25:23Z</time>
      </trkpt>
      <trkpt lat="45.0997" lon="0.56011">
        <ele>180.6</ele>
        <time>2022-08-10T10:26:21Z</time>
      </trkpt>
      <trkpt lat="45.09969" lon="0.56005">
        <ele>180.6</ele>
        <time>2022-08-10T10:26:23Z</time>
      </trkpt>
      <trkpt lat="45.09966" lon="0.55997">
        <ele>181.6</ele>
        <time>2022-08-10T10:26:26Z</time>
      </trkpt>
      <trkpt lat="45.09966" lon="0.55987">
        <ele>181.6</ele>
        <time>2022-08-10T10:26:29Z</time>
      </trkpt>
      <trkpt lat="45.09965" lon="0.5598">
        <ele>182.6</ele>
        <time>2022-08-10T10:26:31Z</time>
      </trkpt>
      <trkpt lat="45.09962" lon="0.55974">
        <ele>181.6</ele>
        <time>2022-08-10T10:26:34Z</time>
      </trkpt>
      <trkpt lat="45.09956" lon="0.55975">
        <ele>182.6</ele>
        <time>2022-08-10T10:26:37Z</time>
      </trkpt>
      <trkpt lat="45.0995" lon="0.55975">
        <ele>182.6</ele>
        <time>2022-08-10T10:26:39Z</time>
      </trkpt>
      <trkpt lat="45.09946" lon="0.55971">
        <ele>182.6</ele>
        <time>2022-08-10T10:26:41Z</time>
      </trkpt>
      <trkpt lat="45.0994" lon="0.55968">
        <ele>185.6</ele>
        <time>2022-08-10T10:26:44Z</time>
      </trkpt>
      <trkpt lat="45.09935" lon="0.55969">
        <ele>187.6</ele>
        <time>2022-08-10T10:26:48Z</time>
      </trkpt>
      <trkpt lat="45.09929" lon="0.55969">
        <ele>188.6</ele>
        <time>2022-08-10T10:26:52Z</time>
      </trkpt>
      <trkpt lat="45.09924" lon="0.55971">
        <ele>188.6</ele>
        <time>2022-08-10T10:26:54Z</time>
      </trkpt>
      <trkpt lat="45.0992" lon="0.55974">
        <ele>188.6</ele>
        <time>2022-08-10T10:26:56Z</time>
      </trkpt>
      <trkpt lat="45.09916" lon="0.55977">
        <ele>188.6</ele>
        <time>2022-08-10T10:26:58Z</time>
      </trkpt>
      <trkpt lat="45.09909" lon="0.55987">
        <ele>187.6</ele>
        <time>2022-08-10T10:27:00Z</time>
      </trkpt>
      <trkpt lat="45.09903" lon="0.55994">
        <ele>188.6</ele>
        <time>2022-08-10T10:27:01Z</time>
      </trkpt>
      <trkpt lat="45.09895" lon="0.56003">
        <ele>188.6</ele>
        <time>2022-08-10T10:27:02Z</time>
      </trkpt>
      <trkpt lat="45.09888" lon="0.56012">
        <ele>187.6</ele>
        <time>2022-08-10T10:27:03Z</time>
      </trkpt>
      <trkpt lat="45.0988" lon="0.56021">
        <ele>187.6</ele>
        <time>2022-08-10T10:27:04Z</time>
      </trkpt>
      <trkpt lat="45.09872" lon="0.56031">
        <ele>187.6</ele>
        <time>2022-08-10T10:27:05Z</time>
      </trkpt>
      <trkpt lat="45.09863" lon="0.56041">
        <ele>187.6</ele>
        <time>2022-08-10T10:27:06Z</time>
      </trkpt>
      <trkpt lat="45.09855" lon="0.56051">
        <ele>187.6</ele>
        <time>2022-08-10T10:27:07Z</time>
      </trkpt>
      <trkpt lat="45.09847" lon="0.5606">
        <ele>187.6</ele>
        <time>2022-08-10T10:27:08Z</time>
      </trkpt>
      <trkpt lat="45.09838" lon="0.5607">
        <ele>186.6</ele>
        <time>2022-08-10T10:27:09Z</time>
      </trkpt>
      <trkpt lat="45.0983" lon="0.56078">
        <ele>186.6</ele>
        <time>2022-08-10T10:27:10Z</time>
      </trkpt>
      <trkpt lat="45.09822" lon="0.56085">
        <ele>185.6</ele>
        <time>2022-08-10T10:27:11Z</time>
      </trkpt>
      <trkpt lat="45.09814" lon="0.56091">
        <ele>184.6</ele>
        <time>2022-08-10T10:27:12Z</time>
      </trkpt>
      <trkpt lat="45.09806" lon="0.56097">
        <ele>184.6</ele>
        <time>2022-08-10T10:27:13Z</time>
      </trkpt>
      <trkpt lat="45.098" lon="0.56102">
        <ele>183.6</ele>
        <time>2022-08-10T10:27:14Z</time>
      </trkpt>
      <trkpt lat="45.09795" lon="0.56107">
        <ele>182.6</ele>
        <time>2022-08-10T10:27:15Z</time>
      </trkpt>
      <trkpt lat="45.0979" lon="0.56111">
        <ele>181.6</ele>
        <time>2022-08-10T10:27:16Z</time>
      </trkpt>
      <trkpt lat="45.09785" lon="0.56114">
        <ele>181.6</ele>
        <time>2022-08-10T10:27:17Z</time>
      </trkpt>
      <trkpt lat="45.0978" lon="0.56118">
        <ele>181.6</ele>
        <time>2022-08-10T10:27:18Z</time>
      </trkpt>
      <trkpt lat="45.09774" lon="0.56121">
        <ele>180.6</ele>
        <time>2022-08-10T10:27:19Z</time>
      </trkpt>
      <trkpt lat="45.09769" lon="0.56125">
        <ele>181.6</ele>
        <time>2022-08-10T10:27:20Z</time>
      </trkpt>
      <trkpt lat="45.09764" lon="0.56129">
        <ele>181.6</ele>
        <time>2022-08-10T10:27:21Z</time>
      </trkpt>
      <trkpt lat="45.0976" lon="0.56132">
        <ele>181.6</ele>
        <time>2022-08-10T10:27:22Z</time>
      </trkpt>
      <trkpt lat="45.09755" lon="0.56135">
        <ele>181.6</ele>
        <time>2022-08-10T10:27:23Z</time>
      </trkpt>
      <trkpt lat="45.0975" lon="0.56139">
        <ele>181.6</ele>
        <time>2022-08-10T10:27:24Z</time>
      </trkpt>
      <trkpt lat="45.09745" lon="0.56143">
        <ele>181.6</ele>
        <time>2022-08-10T10:27:25Z</time>
      </trkpt>
      <trkpt lat="45.0974" lon="0.56147">
        <ele>181.6</ele>
        <time>2022-08-10T10:27:26Z</time>
      </trkpt>
      <trkpt lat="45.09734" lon="0.56152">
        <ele>181.6</ele>
        <time>2022-08-10T10:27:27Z</time>
      </trkpt>
      <trkpt lat="45.09729" lon="0.56157">
        <ele>181.6</ele>
        <time>2022-08-10T10:27:28Z</time>
      </trkpt>
      <trkpt lat="45.09724" lon="0.56162">
        <ele>181.6</ele>
        <time>2022-08-10T10:27:29Z</time>
      </trkpt>
      <trkpt lat="45.09719" lon="0.56166">
        <ele>180.6</ele>
        <time>2022-08-10T10:27:30Z</time>
      </trkpt>
      <trkpt lat="45.09714" lon="0.56171">
        <ele>180.6</ele>
        <time>2022-08-10T10:27:31Z</time>
      </trkpt>
      <trkpt lat="45.0971" lon="0.56176">
        <ele>180.6</ele>
        <time>2022-08-10T10:27:32Z</time>
      </trkpt>
      <trkpt lat="45.09705" lon="0.56181">
        <ele>180.6</ele>
        <time>2022-08-10T10:27:33Z</time>
      </trkpt>
      <trkpt lat="45.09701" lon="0.56185">
        <ele>180.6</ele>
        <time>2022-08-10T10:27:34Z</time>
      </trkpt>
      <trkpt lat="45.09697" lon="0.5619">
        <ele>179.6</ele>
        <time>2022-08-10T10:27:35Z</time>
      </trkpt>
      <trkpt lat="45.09692" lon="0.56195">
        <ele>179.6</ele>
        <time>2022-08-10T10:27:36Z</time>
      </trkpt>
      <trkpt lat="45.09689" lon="0.562">
        <ele>180.6</ele>
        <time>2022-08-10T10:27:37Z</time>
      </trkpt>
      <trkpt lat="45.09684" lon="0.56205">
        <ele>180.6</ele>
        <time>2022-08-10T10:27:38Z</time>
      </trkpt>
      <trkpt lat="45.0968" lon="0.5621">
        <ele>180.6</ele>
        <time>2022-08-10T10:27:39Z</time>
      </trkpt>
      <trkpt lat="45.09675" lon="0.56216">
        <ele>180.6</ele>
        <time>2022-08-10T10:27:40Z</time>
      </trkpt>
      <trkpt lat="45.09671" lon="0.56221">
        <ele>179.6</ele>
        <time>2022-08-10T10:27:41Z</time>
      </trkpt>
      <trkpt lat="45.09666" lon="0.56227">
        <ele>178.6</ele>
        <time>2022-08-10T10:27:42Z</time>
      </trkpt>
      <trkpt lat="45.09662" lon="0.56232">
        <ele>178.6</ele>
        <time>2022-08-10T10:27:43Z</time>
      </trkpt>
      <trkpt lat="45.09657" lon="0.56236">
        <ele>177.6</ele>
        <time>2022-08-10T10:27:44Z</time>
      </trkpt>
      <trkpt lat="45.09652" lon="0.5624">
        <ele>176.6</ele>
        <time>2022-08-10T10:27:45Z</time>
      </trkpt>
      <trkpt lat="45.09647" lon="0.56244">
        <ele>176.6</ele>
        <time>2022-08-10T10:27:46Z</time>
      </trkpt>
      <trkpt lat="45.09642" lon="0.56248">
        <ele>176.6</ele>
        <time>2022-08-10T10:27:47Z</time>
      </trkpt>
      <trkpt lat="45.09637" lon="0.56252">
        <ele>176.6</ele>
        <time>2022-08-10T10:27:48Z</time>
      </trkpt>
      <trkpt lat="45.09632" lon="0.56256">
        <ele>176.6</ele>
        <time>2022-08-10T10:27:49Z</time>
      </trkpt>
      <trkpt lat="45.09627" lon="0.5626">
        <ele>175.6</ele>
        <time>2022-08-10T10:27:50Z</time>
      </trkpt>
      <trkpt lat="45.09622" lon="0.56264">
        <ele>175.6</ele>
        <time>2022-08-10T10:27:51Z</time>
      </trkpt>
      <trkpt lat="45.09617" lon="0.56267">
        <ele>174.6</ele>
        <time>2022-08-10T10:27:52Z</time>
      </trkpt>
      <trkpt lat="45.09612" lon="0.56269">
        <ele>174.6</ele>
        <time>2022-08-10T10:27:53Z</time>
      </trkpt>
      <trkpt lat="45.09604" lon="0.56273">
        <ele>174.6</ele>
        <time>2022-08-10T10:27:55Z</time>
      </trkpt>
      <trkpt lat="45.096" lon="0.56276">
        <ele>174.6</ele>
        <time>2022-08-10T10:27:56Z</time>
      </trkpt>
      <trkpt lat="45.09596" lon="0.56281">
        <ele>173.6</ele>
        <time>2022-08-10T10:27:57Z</time>
      </trkpt>
      <trkpt lat="45.09592" lon="0.56285">
        <ele>173.6</ele>
        <time>2022-08-10T10:27:58Z</time>
      </trkpt>
      <trkpt lat="45.09587" lon="0.56291">
        <ele>172.6</ele>
        <time>2022-08-10T10:28:00Z</time>
      </trkpt>
      <trkpt lat="45.09583" lon="0.56293">
        <ele>172.6</ele>
        <time>2022-08-10T10:28:10Z</time>
      </trkpt>
      <trkpt lat="45.09579" lon="0.56298">
        <ele>173.6</ele>
        <time>2022-08-10T10:30:36Z</time>
      </trkpt>
      <trkpt lat="45.09574" lon="0.56302">
        <ele>168.6</ele>
        <time>2022-08-10T10:31:14Z</time>
      </trkpt>
      <trkpt lat="45.09569" lon="0.56307">
        <ele>168.6</ele>
        <time>2022-08-10T10:31:16Z</time>
      </trkpt>
      <trkpt lat="45.09563" lon="0.56314">
        <ele>168.6</ele>
        <time>2022-08-10T10:31:18Z</time>
      </trkpt>
      <trkpt lat="45.09559" lon="0.56318">
        <ele>168.6</ele>
        <time>2022-08-10T10:31:19Z</time>
      </trkpt>
      <trkpt lat="45.09556" lon="0.56322">
        <ele>167.6</ele>
        <time>2022-08-10T10:31:20Z</time>
      </trkpt>
      <trkpt lat="45.09552" lon="0.56325">
        <ele>168.6</ele>
        <time>2022-08-10T10:31:21Z</time>
      </trkpt>
      <trkpt lat="45.09547" lon="0.56329">
        <ele>167.6</ele>
        <time>2022-08-10T10:31:22Z</time>
      </trkpt>
      <trkpt lat="45.09542" lon="0.56332">
        <ele>167.6</ele>
        <time>2022-08-10T10:31:23Z</time>
      </trkpt>
      <trkpt lat="45.09537" lon="0.56337">
        <ele>167.6</ele>
        <time>2022-08-10T10:31:24Z</time>
      </trkpt>
      <trkpt lat="45.09532" lon="0.56342">
        <ele>166.6</ele>
        <time>2022-08-10T10:31:25Z</time>
      </trkpt>
      <trkpt lat="45.09527" lon="0.56347">
        <ele>164.6</ele>
        <time>2022-08-10T10:31:26Z</time>
      </trkpt>
      <trkpt lat="45.09522" lon="0.56352">
        <ele>163.6</ele>
        <time>2022-08-10T10:31:27Z</time>
      </trkpt>
      <trkpt lat="45.09516" lon="0.56357">
        <ele>162.6</ele>
        <time>2022-08-10T10:31:28Z</time>
      </trkpt>
      <trkpt lat="45.09511" lon="0.56361">
        <ele>161.6</ele>
        <time>2022-08-10T10:31:29Z</time>
      </trkpt>
      <trkpt lat="45.09505" lon="0.56366">
        <ele>161.6</ele>
        <time>2022-08-10T10:31:30Z</time>
      </trkpt>
      <trkpt lat="45.09501" lon="0.5637">
        <ele>160.6</ele>
        <time>2022-08-10T10:31:31Z</time>
      </trkpt>
      <trkpt lat="45.09496" lon="0.56375">
        <ele>159.6</ele>
        <time>2022-08-10T10:31:32Z</time>
      </trkpt>
      <trkpt lat="45.09492" lon="0.56379">
        <ele>159.6</ele>
        <time>2022-08-10T10:31:33Z</time>
      </trkpt>
      <trkpt lat="45.09488" lon="0.56382">
        <ele>158.6</ele>
        <time>2022-08-10T10:31:34Z</time>
      </trkpt>
      <trkpt lat="45.09483" lon="0.56386">
        <ele>157.6</ele>
        <time>2022-08-10T10:31:35Z</time>
      </trkpt>
      <trkpt lat="45.09478" lon="0.5639">
        <ele>157.6</ele>
        <time>2022-08-10T10:31:36Z</time>
      </trkpt>
      <trkpt lat="45.09474" lon="0.56394">
        <ele>157.6</ele>
        <time>2022-08-10T10:31:37Z</time>
      </trkpt>
      <trkpt lat="45.09469" lon="0.56398">
        <ele>156.6</ele>
        <time>2022-08-10T10:31:38Z</time>
      </trkpt>
      <trkpt lat="45.09464" lon="0.56402">
        <ele>156.6</ele>
        <time>2022-08-10T10:31:39Z</time>
      </trkpt>
      <trkpt lat="45.09459" lon="0.56406">
        <ele>156.6</ele>
        <time>2022-08-10T10:31:40Z</time>
      </trkpt>
      <trkpt lat="45.09454" lon="0.56408">
        <ele>155.6</ele>
        <time>2022-08-10T10:31:41Z</time>
      </trkpt>
      <trkpt lat="45.09449" lon="0.5641">
        <ele>155.6</ele>
        <time>2022-08-10T10:31:42Z</time>
      </trkpt>
      <trkpt lat="45.09444" lon="0.56411">
        <ele>155.6</ele>
        <time>2022-08-10T10:31:43Z</time>
      </trkpt>
      <trkpt lat="45.0944" lon="0.56411">
        <ele>154.6</ele>
        <time>2022-08-10T10:31:44Z</time>
      </trkpt>
      <trkpt lat="45.09435" lon="0.56411">
        <ele>154.6</ele>
        <time>2022-08-10T10:31:45Z</time>
      </trkpt>
      <trkpt lat="45.0943" lon="0.56409">
        <ele>154.6</ele>
        <time>2022-08-10T10:31:46Z</time>
      </trkpt>
      <trkpt lat="45.09424" lon="0.56407">
        <ele>153.6</ele>
        <time>2022-08-10T10:31:47Z</time>
      </trkpt>
      <trkpt lat="45.09419" lon="0.56405">
        <ele>153.6</ele>
        <time>2022-08-10T10:31:48Z</time>
      </trkpt>
      <trkpt lat="45.09414" lon="0.56403">
        <ele>152.6</ele>
        <time>2022-08-10T10:31:49Z</time>
      </trkpt>
      <trkpt lat="45.09409" lon="0.56401">
        <ele>152.6</ele>
        <time>2022-08-10T10:31:50Z</time>
      </trkpt>
      <trkpt lat="45.09404" lon="0.56399">
        <ele>152.6</ele>
        <time>2022-08-10T10:31:51Z</time>
      </trkpt>
      <trkpt lat="45.09399" lon="0.56396">
        <ele>152.6</ele>
        <time>2022-08-10T10:31:52Z</time>
      </trkpt>
      <trkpt lat="45.09394" lon="0.56393">
        <ele>152.6</ele>
        <time>2022-08-10T10:31:53Z</time>
      </trkpt>
      <trkpt lat="45.0939" lon="0.56391">
        <ele>151.6</ele>
        <time>2022-08-10T10:31:54Z</time>
      </trkpt>
      <trkpt lat="45.09385" lon="0.56388">
        <ele>151.6</ele>
        <time>2022-08-10T10:31:55Z</time>
      </trkpt>
      <trkpt lat="45.09381" lon="0.56386">
        <ele>151.6</ele>
        <time>2022-08-10T10:31:56Z</time>
      </trkpt>
      <trkpt lat="45.09377" lon="0.56383">
        <ele>151.6</ele>
        <time>2022-08-10T10:31:57Z</time>
      </trkpt>
      <trkpt lat="45.09369" lon="0.56378">
        <ele>150.6</ele>
        <time>2022-08-10T10:31:59Z</time>
      </trkpt>
      <trkpt lat="45.09362" lon="0.56373">
        <ele>149.6</ele>
        <time>2022-08-10T10:32:01Z</time>
      </trkpt>
      <trkpt lat="45.09354" lon="0.56367">
        <ele>148.6</ele>
        <time>2022-08-10T10:32:03Z</time>
      </trkpt>
      <trkpt lat="45.09349" lon="0.56365">
        <ele>148.6</ele>
        <time>2022-08-10T10:32:04Z</time>
      </trkpt>
      <trkpt lat="45.09345" lon="0.56363">
        <ele>147.6</ele>
        <time>2022-08-10T10:32:05Z</time>
      </trkpt>
      <trkpt lat="45.09341" lon="0.56361">
        <ele>147.6</ele>
        <time>2022-08-10T10:32:06Z</time>
      </trkpt>
      <trkpt lat="45.09336" lon="0.56359">
        <ele>147.6</ele>
        <time>2022-08-10T10:32:07Z</time>
      </trkpt>
      <trkpt lat="45.09329" lon="0.56357">
        <ele>146.6</ele>
        <time>2022-08-10T10:32:09Z</time>
      </trkpt>
      <trkpt lat="45.09323" lon="0.56354">
        <ele>146.6</ele>
        <time>2022-08-10T10:32:11Z</time>
      </trkpt>
      <trkpt lat="45.09319" lon="0.56351">
        <ele>145.6</ele>
        <time>2022-08-10T10:32:12Z</time>
      </trkpt>
      <trkpt lat="45.09314" lon="0.56348">
        <ele>145.6</ele>
        <time>2022-08-10T10:32:13Z</time>
      </trkpt>
      <trkpt lat="45.0931" lon="0.56345">
        <ele>144.6</ele>
        <time>2022-08-10T10:32:14Z</time>
      </trkpt>
      <trkpt lat="45.09304" lon="0.56341">
        <ele>143.6</ele>
        <time>2022-08-10T10:32:16Z</time>
      </trkpt>
      <trkpt lat="45.09298" lon="0.56337">
        <ele>142.6</ele>
        <time>2022-08-10T10:32:18Z</time>
      </trkpt>
      <trkpt lat="45.09292" lon="0.56332">
        <ele>141.6</ele>
        <time>2022-08-10T10:32:20Z</time>
      </trkpt>
      <trkpt lat="45.09285" lon="0.56327">
        <ele>140.6</ele>
        <time>2022-08-10T10:32:22Z</time>
      </trkpt>
      <trkpt lat="45.0928" lon="0.56325">
        <ele>139.6</ele>
        <time>2022-08-10T10:32:23Z</time>
      </trkpt>
      <trkpt lat="45.09276" lon="0.56323">
        <ele>138.6</ele>
        <time>2022-08-10T10:32:24Z</time>
      </trkpt>
      <trkpt lat="45.09271" lon="0.56321">
        <ele>136.6</ele>
        <time>2022-08-10T10:32:25Z</time>
      </trkpt>
      <trkpt lat="45.09264" lon="0.56317">
        <ele>134.6</ele>
        <time>2022-08-10T10:32:27Z</time>
      </trkpt>
      <trkpt lat="45.09257" lon="0.56314">
        <ele>133.6</ele>
        <time>2022-08-10T10:32:29Z</time>
      </trkpt>
      <trkpt lat="45.09251" lon="0.5631">
        <ele>132.6</ele>
        <time>2022-08-10T10:32:31Z</time>
      </trkpt>
      <trkpt lat="45.09245" lon="0.56306">
        <ele>131.6</ele>
        <time>2022-08-10T10:32:33Z</time>
      </trkpt>
      <trkpt lat="45.09239" lon="0.56303">
        <ele>131.6</ele>
        <time>2022-08-10T10:32:35Z</time>
      </trkpt>
      <trkpt lat="45.0923" lon="0.563">
        <ele>129.6</ele>
        <time>2022-08-10T10:32:37Z</time>
      </trkpt>
      <trkpt lat="45.09223" lon="0.56294">
        <ele>127.6</ele>
        <time>2022-08-10T10:32:39Z</time>
      </trkpt>
      <trkpt lat="45.09215" lon="0.56288">
        <ele>125.6</ele>
        <time>2022-08-10T10:32:41Z</time>
      </trkpt>
      <trkpt lat="45.09208" lon="0.56285">
        <ele>123.6</ele>
        <time>2022-08-10T10:32:43Z</time>
      </trkpt>
      <trkpt lat="45.09203" lon="0.56283">
        <ele>122.6</ele>
        <time>2022-08-10T10:32:44Z</time>
      </trkpt>
      <trkpt lat="45.09198" lon="0.56281">
        <ele>122.6</ele>
        <time>2022-08-10T10:32:45Z</time>
      </trkpt>
      <trkpt lat="45.09194" lon="0.5628">
        <ele>122.6</ele>
        <time>2022-08-10T10:32:46Z</time>
      </trkpt>
      <trkpt lat="45.09189" lon="0.56278">
        <ele>121.6</ele>
        <time>2022-08-10T10:32:47Z</time>
      </trkpt>
      <trkpt lat="45.09183" lon="0.56276">
        <ele>120.6</ele>
        <time>2022-08-10T10:32:48Z</time>
      </trkpt>
      <trkpt lat="45.09178" lon="0.56274">
        <ele>120.6</ele>
        <time>2022-08-10T10:32:49Z</time>
      </trkpt>
      <trkpt lat="45.09174" lon="0.56271">
        <ele>120.6</ele>
        <time>2022-08-10T10:32:50Z</time>
      </trkpt>
      <trkpt lat="45.09169" lon="0.56268">
        <ele>119.6</ele>
        <time>2022-08-10T10:32:51Z</time>
      </trkpt>
      <trkpt lat="45.09165" lon="0.56266">
        <ele>119.6</ele>
        <time>2022-08-10T10:32:52Z</time>
      </trkpt>
      <trkpt lat="45.09158" lon="0.56261">
        <ele>117.6</ele>
        <time>2022-08-10T10:32:54Z</time>
      </trkpt>
      <trkpt lat="45.09152" lon="0.56258">
        <ele>115.6</ele>
        <time>2022-08-10T10:32:56Z</time>
      </trkpt>
      <trkpt lat="45.09144" lon="0.56254">
        <ele>114.6</ele>
        <time>2022-08-10T10:32:58Z</time>
      </trkpt>
      <trkpt lat="45.09136" lon="0.56249">
        <ele>113.6</ele>
        <time>2022-08-10T10:33:00Z</time>
      </trkpt>
      <trkpt lat="45.09132" lon="0.56246">
        <ele>112.6</ele>
        <time>2022-08-10T10:33:01Z</time>
      </trkpt>
      <trkpt lat="45.09124" lon="0.56242">
        <ele>111.6</ele>
        <time>2022-08-10T10:33:03Z</time>
      </trkpt>
      <trkpt lat="45.09119" lon="0.56239">
        <ele>110.6</ele>
        <time>2022-08-10T10:33:04Z</time>
      </trkpt>
      <trkpt lat="45.09114" lon="0.56237">
        <ele>110.6</ele>
        <time>2022-08-10T10:33:05Z</time>
      </trkpt>
      <trkpt lat="45.0911" lon="0.56234">
        <ele>109.6</ele>
        <time>2022-08-10T10:33:06Z</time>
      </trkpt>
      <trkpt lat="45.09101" lon="0.56228">
        <ele>108.6</ele>
        <time>2022-08-10T10:33:08Z</time>
      </trkpt>
      <trkpt lat="45.09097" lon="0.56224">
        <ele>107.6</ele>
        <time>2022-08-10T10:33:09Z</time>
      </trkpt>
      <trkpt lat="45.09092" lon="0.5622">
        <ele>106.6</ele>
        <time>2022-08-10T10:33:10Z</time>
      </trkpt>
      <trkpt lat="45.09087" lon="0.56216">
        <ele>105.6</ele>
        <time>2022-08-10T10:33:11Z</time>
      </trkpt>
      <trkpt lat="45.09082" lon="0.56212">
        <ele>104.6</ele>
        <time>2022-08-10T10:33:12Z</time>
      </trkpt>
      <trkpt lat="45.09076" lon="0.56208">
        <ele>103.6</ele>
        <time>2022-08-10T10:33:13Z</time>
      </trkpt>
      <trkpt lat="45.09071" lon="0.56204">
        <ele>102.6</ele>
        <time>2022-08-10T10:33:14Z</time>
      </trkpt>
      <trkpt lat="45.09066" lon="0.562">
        <ele>102.6</ele>
        <time>2022-08-10T10:33:15Z</time>
      </trkpt>
      <trkpt lat="45.09061" lon="0.56195">
        <ele>101.6</ele>
        <time>2022-08-10T10:33:16Z</time>
      </trkpt>
      <trkpt lat="45.09056" lon="0.56191">
        <ele>100.6</ele>
        <time>2022-08-10T10:33:17Z</time>
      </trkpt>
      <trkpt lat="45.09051" lon="0.56186">
        <ele>100.6</ele>
        <time>2022-08-10T10:33:18Z</time>
      </trkpt>
      <trkpt lat="45.09046" lon="0.5618">
        <ele>100.6</ele>
        <time>2022-08-10T10:33:19Z</time>
      </trkpt>
      <trkpt lat="45.09041" lon="0.56175">
        <ele>99.6</ele>
        <time>2022-08-10T10:33:20Z</time>
      </trkpt>
      <trkpt lat="45.09036" lon="0.5617">
        <ele>98.6</ele>
        <time>2022-08-10T10:33:21Z</time>
      </trkpt>
      <trkpt lat="45.09032" lon="0.56165">
        <ele>98.6</ele>
        <time>2022-08-10T10:33:22Z</time>
      </trkpt>
      <trkpt lat="45.09028" lon="0.56159">
        <ele>97.6</ele>
        <time>2022-08-10T10:33:23Z</time>
      </trkpt>
      <trkpt lat="45.09025" lon="0.56153">
        <ele>97.6</ele>
        <time>2022-08-10T10:33:24Z</time>
      </trkpt>
      <trkpt lat="45.09022" lon="0.56148">
        <ele>97.6</ele>
        <time>2022-08-10T10:33:25Z</time>
      </trkpt>
      <trkpt lat="45.09016" lon="0.56138">
        <ele>96.6</ele>
        <time>2022-08-10T10:33:27Z</time>
      </trkpt>
      <trkpt lat="45.09009" lon="0.56132">
        <ele>95.6</ele>
        <time>2022-08-10T10:33:29Z</time>
      </trkpt>
      <trkpt lat="45.09004" lon="0.56129">
        <ele>95.6</ele>
        <time>2022-08-10T10:33:30Z</time>
      </trkpt>
      <trkpt lat="45.09" lon="0.56127">
        <ele>94.6</ele>
        <time>2022-08-10T10:33:31Z</time>
      </trkpt>
      <trkpt lat="45.08995" lon="0.56123">
        <ele>94.6</ele>
        <time>2022-08-10T10:33:32Z</time>
      </trkpt>
      <trkpt lat="45.08991" lon="0.56119">
        <ele>94.6</ele>
        <time>2022-08-10T10:33:33Z</time>
      </trkpt>
      <trkpt lat="45.08986" lon="0.56115">
        <ele>94.6</ele>
        <time>2022-08-10T10:33:34Z</time>
      </trkpt>
      <trkpt lat="45.08982" lon="0.56111">
        <ele>93.6</ele>
        <time>2022-08-10T10:33:35Z</time>
      </trkpt>
      <trkpt lat="45.08978" lon="0.56107">
        <ele>93.6</ele>
        <time>2022-08-10T10:33:36Z</time>
      </trkpt>
      <trkpt lat="45.08974" lon="0.56104">
        <ele>92.6</ele>
        <time>2022-08-10T10:33:37Z</time>
      </trkpt>
      <trkpt lat="45.08969" lon="0.56099">
        <ele>92.6</ele>
        <time>2022-08-10T10:33:38Z</time>
      </trkpt>
      <trkpt lat="45.08964" lon="0.56095">
        <ele>92.6</ele>
        <time>2022-08-10T10:33:39Z</time>
      </trkpt>
      <trkpt lat="45.08958" lon="0.56092">
        <ele>92.6</ele>
        <time>2022-08-10T10:33:40Z</time>
      </trkpt>
      <trkpt lat="45.08953" lon="0.56089">
        <ele>92.6</ele>
        <time>2022-08-10T10:33:41Z</time>
      </trkpt>
      <trkpt lat="45.08947" lon="0.56087">
        <ele>92.6</ele>
        <time>2022-08-10T10:33:42Z</time>
      </trkpt>
      <trkpt lat="45.08942" lon="0.56085">
        <ele>92.6</ele>
        <time>2022-08-10T10:33:43Z</time>
      </trkpt>
      <trkpt lat="45.08934" lon="0.56083">
        <ele>91.6</ele>
        <time>2022-08-10T10:33:45Z</time>
      </trkpt>
      <trkpt lat="45.08929" lon="0.56082">
        <ele>91.6</ele>
        <time>2022-08-10T10:33:46Z</time>
      </trkpt>
      <trkpt lat="45.08924" lon="0.56081">
        <ele>91.6</ele>
        <time>2022-08-10T10:33:47Z</time>
      </trkpt>
      <trkpt lat="45.0892" lon="0.5608">
        <ele>90.6</ele>
        <time>2022-08-10T10:33:48Z</time>
      </trkpt>
      <trkpt lat="45.08915" lon="0.56077">
        <ele>90.6</ele>
        <time>2022-08-10T10:33:49Z</time>
      </trkpt>
      <trkpt lat="45.08911" lon="0.56074">
        <ele>89.6</ele>
        <time>2022-08-10T10:33:50Z</time>
      </trkpt>
      <trkpt lat="45.08907" lon="0.5607">
        <ele>88.6</ele>
        <time>2022-08-10T10:33:51Z</time>
      </trkpt>
      <trkpt lat="45.08903" lon="0.56065">
        <ele>89.6</ele>
        <time>2022-08-10T10:33:52Z</time>
      </trkpt>
      <trkpt lat="45.08899" lon="0.5606">
        <ele>88.6</ele>
        <time>2022-08-10T10:33:53Z</time>
      </trkpt>
      <trkpt lat="45.08894" lon="0.56055">
        <ele>88.6</ele>
        <time>2022-08-10T10:33:54Z</time>
      </trkpt>
      <trkpt lat="45.08889" lon="0.5605">
        <ele>88.6</ele>
        <time>2022-08-10T10:33:55Z</time>
      </trkpt>
      <trkpt lat="45.08883" lon="0.56045">
        <ele>88.6</ele>
        <time>2022-08-10T10:33:56Z</time>
      </trkpt>
      <trkpt lat="45.08877" lon="0.56041">
        <ele>88.6</ele>
        <time>2022-08-10T10:33:57Z</time>
      </trkpt>
      <trkpt lat="45.08871" lon="0.56036">
        <ele>88.6</ele>
        <time>2022-08-10T10:33:58Z</time>
      </trkpt>
      <trkpt lat="45.08866" lon="0.56032">
        <ele>87.6</ele>
        <time>2022-08-10T10:33:59Z</time>
      </trkpt>
      <trkpt lat="45.08859" lon="0.56027">
        <ele>87.6</ele>
        <time>2022-08-10T10:34:00Z</time>
      </trkpt>
      <trkpt lat="45.08853" lon="0.56023">
        <ele>86.6</ele>
        <time>2022-08-10T10:34:01Z</time>
      </trkpt>
      <trkpt lat="45.08848" lon="0.56019">
        <ele>86.6</ele>
        <time>2022-08-10T10:34:02Z</time>
      </trkpt>
      <trkpt lat="45.08842" lon="0.56015">
        <ele>85.6</ele>
        <time>2022-08-10T10:34:03Z</time>
      </trkpt>
      <trkpt lat="45.08836" lon="0.56011">
        <ele>84.6</ele>
        <time>2022-08-10T10:34:04Z</time>
      </trkpt>
      <trkpt lat="45.08831" lon="0.56007">
        <ele>84.6</ele>
        <time>2022-08-10T10:34:05Z</time>
      </trkpt>
      <trkpt lat="45.08826" lon="0.56003">
        <ele>84.6</ele>
        <time>2022-08-10T10:34:06Z</time>
      </trkpt>
      <trkpt lat="45.0882" lon="0.55999">
        <ele>83.6</ele>
        <time>2022-08-10T10:34:07Z</time>
      </trkpt>
      <trkpt lat="45.08814" lon="0.55994">
        <ele>82.6</ele>
        <time>2022-08-10T10:34:08Z</time>
      </trkpt>
      <trkpt lat="45.08809" lon="0.55991">
        <ele>81.6</ele>
        <time>2022-08-10T10:34:09Z</time>
      </trkpt>
      <trkpt lat="45.08803" lon="0.55987">
        <ele>81.6</ele>
        <time>2022-08-10T10:34:10Z</time>
      </trkpt>
      <trkpt lat="45.08797" lon="0.55983">
        <ele>81.6</ele>
        <time>2022-08-10T10:34:11Z</time>
      </trkpt>
      <trkpt lat="45.08791" lon="0.55979">
        <ele>80.6</ele>
        <time>2022-08-10T10:34:12Z</time>
      </trkpt>
      <trkpt lat="45.08786" lon="0.55974">
        <ele>79.6</ele>
        <time>2022-08-10T10:34:13Z</time>
      </trkpt>
      <trkpt lat="45.08781" lon="0.5597">
        <ele>79.6</ele>
        <time>2022-08-10T10:34:14Z</time>
      </trkpt>
      <trkpt lat="45.08776" lon="0.55965">
        <ele>79.6</ele>
        <time>2022-08-10T10:34:15Z</time>
      </trkpt>
      <trkpt lat="45.08771" lon="0.55961">
        <ele>79.6</ele>
        <time>2022-08-10T10:34:16Z</time>
      </trkpt>
      <trkpt lat="45.08766" lon="0.55956">
        <ele>78.6</ele>
        <time>2022-08-10T10:34:17Z</time>
      </trkpt>
      <trkpt lat="45.08761" lon="0.55952">
        <ele>78.6</ele>
        <time>2022-08-10T10:34:18Z</time>
      </trkpt>
      <trkpt lat="45.08755" lon="0.55948">
        <ele>77.6</ele>
        <time>2022-08-10T10:34:19Z</time>
      </trkpt>
      <trkpt lat="45.08749" lon="0.55944">
        <ele>77.6</ele>
        <time>2022-08-10T10:34:20Z</time>
      </trkpt>
      <trkpt lat="45.08744" lon="0.55939">
        <ele>77.6</ele>
        <time>2022-08-10T10:34:21Z</time>
      </trkpt>
      <trkpt lat="45.08739" lon="0.55935">
        <ele>77.6</ele>
        <time>2022-08-10T10:34:22Z</time>
      </trkpt>
      <trkpt lat="45.08733" lon="0.5593">
        <ele>76.6</ele>
        <time>2022-08-10T10:34:23Z</time>
      </trkpt>
      <trkpt lat="45.08728" lon="0.55926">
        <ele>76.6</ele>
        <time>2022-08-10T10:34:24Z</time>
      </trkpt>
      <trkpt lat="45.08722" lon="0.55922">
        <ele>76.6</ele>
        <time>2022-08-10T10:34:25Z</time>
      </trkpt>
      <trkpt lat="45.08718" lon="0.55917">
        <ele>75.6</ele>
        <time>2022-08-10T10:34:26Z</time>
      </trkpt>
      <trkpt lat="45.08713" lon="0.55913">
        <ele>75.6</ele>
        <time>2022-08-10T10:34:27Z</time>
      </trkpt>
      <trkpt lat="45.08706" lon="0.55907">
        <ele>74.6</ele>
        <time>2022-08-10T10:34:29Z</time>
      </trkpt>
      <trkpt lat="45.08702" lon="0.55904">
        <ele>74.6</ele>
        <time>2022-08-10T10:34:31Z</time>
      </trkpt>
      <trkpt lat="45.08697" lon="0.55901">
        <ele>74.6</ele>
        <time>2022-08-10T10:34:33Z</time>
      </trkpt>
      <trkpt lat="45.08692" lon="0.559">
        <ele>74.6</ele>
        <time>2022-08-10T10:34:35Z</time>
      </trkpt>
      <trkpt lat="45.08687" lon="0.55901">
        <ele>74.6</ele>
        <time>2022-08-10T10:34:39Z</time>
      </trkpt>
      <trkpt lat="45.08683" lon="0.55898">
        <ele>74.6</ele>
        <time>2022-08-10T10:35:00Z</time>
      </trkpt>
      <trkpt lat="45.08678" lon="0.55891">
        <ele>73.6</ele>
        <time>2022-08-10T10:35:51Z</time>
      </trkpt>
      <trkpt lat="45.08673" lon="0.55887">
        <ele>72.6</ele>
        <time>2022-08-10T10:35:53Z</time>
      </trkpt>
      <trkpt lat="45.08665" lon="0.55881">
        <ele>73.6</ele>
        <time>2022-08-10T10:35:55Z</time>
      </trkpt>
      <trkpt lat="45.08661" lon="0.55877">
        <ele>73.6</ele>
        <time>2022-08-10T10:35:56Z</time>
      </trkpt>
      <trkpt lat="45.08656" lon="0.55874">
        <ele>73.6</ele>
        <time>2022-08-10T10:35:57Z</time>
      </trkpt>
      <trkpt lat="45.08651" lon="0.55872">
        <ele>74.6</ele>
        <time>2022-08-10T10:35:58Z</time>
      </trkpt>
      <trkpt lat="45.08645" lon="0.55869">
        <ele>73.6</ele>
        <time>2022-08-10T10:35:59Z</time>
      </trkpt>
      <trkpt lat="45.0864" lon="0.55867">
        <ele>73.6</ele>
        <time>2022-08-10T10:36:00Z</time>
      </trkpt>
      <trkpt lat="45.08635" lon="0.55864">
        <ele>73.6</ele>
        <time>2022-08-10T10:36:01Z</time>
      </trkpt>
      <trkpt lat="45.08629" lon="0.55862">
        <ele>73.6</ele>
        <time>2022-08-10T10:36:02Z</time>
      </trkpt>
      <trkpt lat="45.08624" lon="0.55859">
        <ele>74.6</ele>
        <time>2022-08-10T10:36:03Z</time>
      </trkpt>
      <trkpt lat="45.08619" lon="0.55855">
        <ele>75.6</ele>
        <time>2022-08-10T10:36:04Z</time>
      </trkpt>
      <trkpt lat="45.08613" lon="0.55852">
        <ele>74.6</ele>
        <time>2022-08-10T10:36:05Z</time>
      </trkpt>
      <trkpt lat="45.08607" lon="0.55849">
        <ele>75.6</ele>
        <time>2022-08-10T10:36:06Z</time>
      </trkpt>
      <trkpt lat="45.08601" lon="0.55847">
        <ele>75.6</ele>
        <time>2022-08-10T10:36:07Z</time>
      </trkpt>
      <trkpt lat="45.08595" lon="0.55844">
        <ele>75.6</ele>
        <time>2022-08-10T10:36:08Z</time>
      </trkpt>
      <trkpt lat="45.08588" lon="0.55841">
        <ele>75.6</ele>
        <time>2022-08-10T10:36:09Z</time>
      </trkpt>
      <trkpt lat="45.08582" lon="0.55839">
        <ele>74.6</ele>
        <time>2022-08-10T10:36:10Z</time>
      </trkpt>
      <trkpt lat="45.08574" lon="0.55836">
        <ele>74.6</ele>
        <time>2022-08-10T10:36:11Z</time>
      </trkpt>
      <trkpt lat="45.08567" lon="0.55834">
        <ele>74.6</ele>
        <time>2022-08-10T10:36:12Z</time>
      </trkpt>
      <trkpt lat="45.08559" lon="0.55833">
        <ele>74.6</ele>
        <time>2022-08-10T10:36:13Z</time>
      </trkpt>
      <trkpt lat="45.08552" lon="0.55831">
        <ele>74.6</ele>
        <time>2022-08-10T10:36:14Z</time>
      </trkpt>
      <trkpt lat="45.08544" lon="0.5583">
        <ele>74.6</ele>
        <time>2022-08-10T10:36:15Z</time>
      </trkpt>
      <trkpt lat="45.08537" lon="0.5583">
        <ele>74.6</ele>
        <time>2022-08-10T10:36:16Z</time>
      </trkpt>
      <trkpt lat="45.08531" lon="0.5583">
        <ele>74.6</ele>
        <time>2022-08-10T10:36:17Z</time>
      </trkpt>
      <trkpt lat="45.08525" lon="0.55831">
        <ele>74.6</ele>
        <time>2022-08-10T10:36:18Z</time>
      </trkpt>
      <trkpt lat="45.08518" lon="0.55835">
        <ele>74.6</ele>
        <time>2022-08-10T10:36:20Z</time>
      </trkpt>
      <trkpt lat="45.08512" lon="0.55837">
        <ele>74.6</ele>
        <time>2022-08-10T10:36:23Z</time>
      </trkpt>
      <trkpt lat="45.08507" lon="0.55838">
        <ele>74.6</ele>
        <time>2022-08-10T10:36:25Z</time>
      </trkpt>
      <trkpt lat="45.08501" lon="0.55838">
        <ele>74.6</ele>
        <time>2022-08-10T10:36:27Z</time>
      </trkpt>
      <trkpt lat="45.08494" lon="0.55837">
        <ele>73.6</ele>
        <time>2022-08-10T10:36:29Z</time>
      </trkpt>
      <trkpt lat="45.08486" lon="0.55832">
        <ele>72.6</ele>
        <time>2022-08-10T10:36:31Z</time>
      </trkpt>
      <trkpt lat="45.08482" lon="0.55828">
        <ele>71.6</ele>
        <time>2022-08-10T10:36:32Z</time>
      </trkpt>
      <trkpt lat="45.08477" lon="0.55824">
        <ele>71.6</ele>
        <time>2022-08-10T10:36:33Z</time>
      </trkpt>
      <trkpt lat="45.08473" lon="0.5582">
        <ele>71.6</ele>
        <time>2022-08-10T10:36:34Z</time>
      </trkpt>
      <trkpt lat="45.08469" lon="0.55817">
        <ele>71.6</ele>
        <time>2022-08-10T10:36:35Z</time>
      </trkpt>
      <trkpt lat="45.08462" lon="0.5581">
        <ele>70.6</ele>
        <time>2022-08-10T10:36:37Z</time>
      </trkpt>
      <trkpt lat="45.08458" lon="0.55807">
        <ele>70.6</ele>
        <time>2022-08-10T10:36:38Z</time>
      </trkpt>
      <trkpt lat="45.08454" lon="0.55803">
        <ele>69.6</ele>
        <time>2022-08-10T10:36:39Z</time>
      </trkpt>
      <trkpt lat="45.08449" lon="0.558">
        <ele>69.6</ele>
        <time>2022-08-10T10:36:40Z</time>
      </trkpt>
      <trkpt lat="45.08445" lon="0.55797">
        <ele>68.6</ele>
        <time>2022-08-10T10:36:41Z</time>
      </trkpt>
      <trkpt lat="45.08441" lon="0.55793">
        <ele>68.6</ele>
        <time>2022-08-10T10:36:42Z</time>
      </trkpt>
      <trkpt lat="45.08437" lon="0.55789">
        <ele>68.6</ele>
        <time>2022-08-10T10:36:43Z</time>
      </trkpt>
      <trkpt lat="45.08432" lon="0.55786">
        <ele>68.6</ele>
        <time>2022-08-10T10:36:44Z</time>
      </trkpt>
      <trkpt lat="45.08427" lon="0.55782">
        <ele>67.6</ele>
        <time>2022-08-10T10:36:45Z</time>
      </trkpt>
      <trkpt lat="45.08423" lon="0.55779">
        <ele>67.6</ele>
        <time>2022-08-10T10:36:46Z</time>
      </trkpt>
      <trkpt lat="45.08419" lon="0.55775">
        <ele>67.6</ele>
        <time>2022-08-10T10:36:47Z</time>
      </trkpt>
      <trkpt lat="45.08414" lon="0.55772">
        <ele>68.6</ele>
        <time>2022-08-10T10:36:48Z</time>
      </trkpt>
      <trkpt lat="45.0841" lon="0.55768">
        <ele>67.6</ele>
        <time>2022-08-10T10:36:49Z</time>
      </trkpt>
      <trkpt lat="45.08405" lon="0.55764">
        <ele>67.6</ele>
        <time>2022-08-10T10:36:50Z</time>
      </trkpt>
      <trkpt lat="45.08401" lon="0.55761">
        <ele>67.6</ele>
        <time>2022-08-10T10:36:51Z</time>
      </trkpt>
      <trkpt lat="45.08396" lon="0.55758">
        <ele>67.6</ele>
        <time>2022-08-10T10:36:52Z</time>
      </trkpt>
      <trkpt lat="45.08392" lon="0.55755">
        <ele>67.6</ele>
        <time>2022-08-10T10:36:53Z</time>
      </trkpt>
      <trkpt lat="45.08387" lon="0.55752">
        <ele>68.6</ele>
        <time>2022-08-10T10:36:54Z</time>
      </trkpt>
      <trkpt lat="45.08382" lon="0.55749">
        <ele>67.6</ele>
        <time>2022-08-10T10:36:55Z</time>
      </trkpt>
      <trkpt lat="45.08378" lon="0.55746">
        <ele>68.6</ele>
        <time>2022-08-10T10:36:56Z</time>
      </trkpt>
      <trkpt lat="45.08373" lon="0.55743">
        <ele>68.6</ele>
        <time>2022-08-10T10:36:57Z</time>
      </trkpt>
      <trkpt lat="45.08368" lon="0.5574">
        <ele>68.6</ele>
        <time>2022-08-10T10:36:58Z</time>
      </trkpt>
      <trkpt lat="45.08363" lon="0.55738">
        <ele>67.6</ele>
        <time>2022-08-10T10:36:59Z</time>
      </trkpt>
      <trkpt lat="45.08358" lon="0.55735">
        <ele>68.6</ele>
        <time>2022-08-10T10:37:00Z</time>
      </trkpt>
      <trkpt lat="45.08353" lon="0.55732">
        <ele>68.6</ele>
        <time>2022-08-10T10:37:01Z</time>
      </trkpt>
      <trkpt lat="45.08348" lon="0.55729">
        <ele>68.6</ele>
        <time>2022-08-10T10:37:02Z</time>
      </trkpt>
      <trkpt lat="45.08344" lon="0.55726">
        <ele>68.6</ele>
        <time>2022-08-10T10:37:03Z</time>
      </trkpt>
      <trkpt lat="45.08339" lon="0.55723">
        <ele>68.6</ele>
        <time>2022-08-10T10:37:04Z</time>
      </trkpt>
      <trkpt lat="45.08334" lon="0.55721">
        <ele>68.6</ele>
        <time>2022-08-10T10:37:05Z</time>
      </trkpt>
      <trkpt lat="45.08329" lon="0.55718">
        <ele>68.6</ele>
        <time>2022-08-10T10:37:06Z</time>
      </trkpt>
      <trkpt lat="45.08324" lon="0.55715">
        <ele>68.6</ele>
        <time>2022-08-10T10:37:07Z</time>
      </trkpt>
      <trkpt lat="45.08319" lon="0.55712">
        <ele>68.6</ele>
        <time>2022-08-10T10:37:08Z</time>
      </trkpt>
      <trkpt lat="45.08314" lon="0.5571">
        <ele>68.6</ele>
        <time>2022-08-10T10:37:09Z</time>
      </trkpt>
      <trkpt lat="45.0831" lon="0.55707">
        <ele>68.6</ele>
        <time>2022-08-10T10:37:10Z</time>
      </trkpt>
      <trkpt lat="45.08305" lon="0.55705">
        <ele>68.6</ele>
        <time>2022-08-10T10:37:11Z</time>
      </trkpt>
      <trkpt lat="45.08301" lon="0.55703">
        <ele>69.6</ele>
        <time>2022-08-10T10:37:12Z</time>
      </trkpt>
      <trkpt lat="45.08296" lon="0.55701">
        <ele>69.6</ele>
        <time>2022-08-10T10:37:13Z</time>
      </trkpt>
      <trkpt lat="45.08291" lon="0.55699">
        <ele>69.6</ele>
        <time>2022-08-10T10:37:14Z</time>
      </trkpt>
      <trkpt lat="45.08286" lon="0.55698">
        <ele>69.6</ele>
        <time>2022-08-10T10:37:15Z</time>
      </trkpt>
      <trkpt lat="45.08282" lon="0.55697">
        <ele>69.6</ele>
        <time>2022-08-10T10:37:16Z</time>
      </trkpt>
      <trkpt lat="45.08277" lon="0.55695">
        <ele>69.6</ele>
        <time>2022-08-10T10:37:17Z</time>
      </trkpt>
      <trkpt lat="45.08272" lon="0.55694">
        <ele>69.6</ele>
        <time>2022-08-10T10:37:18Z</time>
      </trkpt>
      <trkpt lat="45.08267" lon="0.55693">
        <ele>69.6</ele>
        <time>2022-08-10T10:37:19Z</time>
      </trkpt>
      <trkpt lat="45.08262" lon="0.55691">
        <ele>69.6</ele>
        <time>2022-08-10T10:37:20Z</time>
      </trkpt>
      <trkpt lat="45.08257" lon="0.5569">
        <ele>69.6</ele>
        <time>2022-08-10T10:37:21Z</time>
      </trkpt>
      <trkpt lat="45.08252" lon="0.5569">
        <ele>69.6</ele>
        <time>2022-08-10T10:37:22Z</time>
      </trkpt>
      <trkpt lat="45.08247" lon="0.55688">
        <ele>69.6</ele>
        <time>2022-08-10T10:37:23Z</time>
      </trkpt>
      <trkpt lat="45.08243" lon="0.55687">
        <ele>69.6</ele>
        <time>2022-08-10T10:37:24Z</time>
      </trkpt>
      <trkpt lat="45.08238" lon="0.55684">
        <ele>70.6</ele>
        <time>2022-08-10T10:37:25Z</time>
      </trkpt>
      <trkpt lat="45.08233" lon="0.55682">
        <ele>70.6</ele>
        <time>2022-08-10T10:37:26Z</time>
      </trkpt>
      <trkpt lat="45.08229" lon="0.55681">
        <ele>71.6</ele>
        <time>2022-08-10T10:37:27Z</time>
      </trkpt>
      <trkpt lat="45.0822" lon="0.55678">
        <ele>71.6</ele>
        <time>2022-08-10T10:37:29Z</time>
      </trkpt>
      <trkpt lat="45.08215" lon="0.55676">
        <ele>71.6</ele>
        <time>2022-08-10T10:37:30Z</time>
      </trkpt>
      <trkpt lat="45.08211" lon="0.55674">
        <ele>71.6</ele>
        <time>2022-08-10T10:37:31Z</time>
      </trkpt>
      <trkpt lat="45.08206" lon="0.55673">
        <ele>71.6</ele>
        <time>2022-08-10T10:37:32Z</time>
      </trkpt>
      <trkpt lat="45.08202" lon="0.55673">
        <ele>71.6</ele>
        <time>2022-08-10T10:37:33Z</time>
      </trkpt>
      <trkpt lat="45.08194" lon="0.55672">
        <ele>71.6</ele>
        <time>2022-08-10T10:37:35Z</time>
      </trkpt>
      <trkpt lat="45.08185" lon="0.55669">
        <ele>71.6</ele>
        <time>2022-08-10T10:37:37Z</time>
      </trkpt>
      <trkpt lat="45.08181" lon="0.55668">
        <ele>71.6</ele>
        <time>2022-08-10T10:37:38Z</time>
      </trkpt>
      <trkpt lat="45.08176" lon="0.55667">
        <ele>71.6</ele>
        <time>2022-08-10T10:37:39Z</time>
      </trkpt>
      <trkpt lat="45.08168" lon="0.55665">
        <ele>72.6</ele>
        <time>2022-08-10T10:37:41Z</time>
      </trkpt>
      <trkpt lat="45.08161" lon="0.55664">
        <ele>72.6</ele>
        <time>2022-08-10T10:37:43Z</time>
      </trkpt>
      <trkpt lat="45.08153" lon="0.55662">
        <ele>73.6</ele>
        <time>2022-08-10T10:37:45Z</time>
      </trkpt>
      <trkpt lat="45.08146" lon="0.55661">
        <ele>73.6</ele>
        <time>2022-08-10T10:37:47Z</time>
      </trkpt>
      <trkpt lat="45.0814" lon="0.55659">
        <ele>73.6</ele>
        <time>2022-08-10T10:37:49Z</time>
      </trkpt>
      <trkpt lat="45.08133" lon="0.55657">
        <ele>73.6</ele>
        <time>2022-08-10T10:37:51Z</time>
      </trkpt>
      <trkpt lat="45.08127" lon="0.55655">
        <ele>73.6</ele>
        <time>2022-08-10T10:37:53Z</time>
      </trkpt>
      <trkpt lat="45.08121" lon="0.55654">
        <ele>73.6</ele>
        <time>2022-08-10T10:37:55Z</time>
      </trkpt>
      <trkpt lat="45.08116" lon="0.55652">
        <ele>72.6</ele>
        <time>2022-08-10T10:37:57Z</time>
      </trkpt>
      <trkpt lat="45.08111" lon="0.5565">
        <ele>73.6</ele>
        <time>2022-08-10T10:37:59Z</time>
      </trkpt>
      <trkpt lat="45.08105" lon="0.55649">
        <ele>73.6</ele>
        <time>2022-08-10T10:38:01Z</time>
      </trkpt>
      <trkpt lat="45.081" lon="0.55647">
        <ele>73.6</ele>
        <time>2022-08-10T10:38:03Z</time>
      </trkpt>
      <trkpt lat="45.08096" lon="0.55645">
        <ele>73.6</ele>
        <time>2022-08-10T10:38:05Z</time>
      </trkpt>
      <trkpt lat="45.08091" lon="0.55642">
        <ele>73.6</ele>
        <time>2022-08-10T10:38:07Z</time>
      </trkpt>
      <trkpt lat="45.08087" lon="0.55639">
        <ele>73.6</ele>
        <time>2022-08-10T10:38:09Z</time>
      </trkpt>
      <trkpt lat="45.08082" lon="0.55636">
        <ele>72.6</ele>
        <time>2022-08-10T10:38:12Z</time>
      </trkpt>
      <trkpt lat="45.08077" lon="0.55631">
        <ele>71.6</ele>
        <time>2022-08-10T10:38:17Z</time>
      </trkpt>
      <trkpt lat="45.08073" lon="0.55626">
        <ele>70.6</ele>
        <time>2022-08-10T10:38:21Z</time>
      </trkpt>
      <trkpt lat="45.0807" lon="0.55621">
        <ele>70.6</ele>
        <time>2022-08-10T10:38:25Z</time>
      </trkpt>
      <trkpt lat="45.0807" lon="0.55627">
        <ele>71.6</ele>
        <time>2022-08-10T10:38:30Z</time>
      </trkpt>
      <trkpt lat="45.08071" lon="0.55633">
        <ele>72.6</ele>
        <time>2022-08-10T10:38:35Z</time>
      </trkpt>
      <trkpt lat="45.08068" lon="0.55638">
        <ele>71.6</ele>
        <time>2022-08-10T10:39:23Z</time>
      </trkpt>
      <trkpt lat="45.08066" lon="0.55644">
        <ele>71.6</ele>
        <time>2022-08-10T10:39:26Z</time>
      </trkpt>
      <trkpt lat="45.08063" lon="0.55651">
        <ele>72.6</ele>
        <time>2022-08-10T10:39:29Z</time>
      </trkpt>
      <trkpt lat="45.08061" lon="0.55659">
        <ele>72.6</ele>
        <time>2022-08-10T10:39:32Z</time>
      </trkpt>
      <trkpt lat="45.08058" lon="0.55667">
        <ele>73.6</ele>
        <time>2022-08-10T10:39:35Z</time>
      </trkpt>
      <trkpt lat="45.08056" lon="0.55673">
        <ele>73.6</ele>
        <time>2022-08-10T10:39:37Z</time>
      </trkpt>
      <trkpt lat="45.08056" lon="0.5568">
        <ele>73.6</ele>
        <time>2022-08-10T10:39:39Z</time>
      </trkpt>
      <trkpt lat="45.08054" lon="0.55687">
        <ele>72.6</ele>
        <time>2022-08-10T10:39:41Z</time>
      </trkpt>
      <trkpt lat="45.08052" lon="0.55693">
        <ele>71.6</ele>
        <time>2022-08-10T10:39:43Z</time>
      </trkpt>
      <trkpt lat="45.08051" lon="0.557">
        <ele>71.6</ele>
        <time>2022-08-10T10:39:45Z</time>
      </trkpt>
      <trkpt lat="45.08049" lon="0.55707">
        <ele>71.6</ele>
        <time>2022-08-10T10:39:47Z</time>
      </trkpt>
      <trkpt lat="45.08048" lon="0.55713">
        <ele>71.6</ele>
        <time>2022-08-10T10:39:49Z</time>
      </trkpt>
      <trkpt lat="45.08047" lon="0.5572">
        <ele>71.6</ele>
        <time>2022-08-10T10:39:51Z</time>
      </trkpt>
      <trkpt lat="45.08045" lon="0.55729">
        <ele>72.6</ele>
        <time>2022-08-10T10:39:54Z</time>
      </trkpt>
      <trkpt lat="45.08044" lon="0.55737">
        <ele>72.6</ele>
        <time>2022-08-10T10:39:56Z</time>
      </trkpt>
      <trkpt lat="45.08044" lon="0.55744">
        <ele>72.6</ele>
        <time>2022-08-10T10:39:58Z</time>
      </trkpt>
      <trkpt lat="45.08043" lon="0.55752">
        <ele>73.6</ele>
        <time>2022-08-10T10:40:00Z</time>
      </trkpt>
      <trkpt lat="45.08043" lon="0.5576">
        <ele>73.6</ele>
        <time>2022-08-10T10:40:02Z</time>
      </trkpt>
      <trkpt lat="45.08042" lon="0.55768">
        <ele>73.6</ele>
        <time>2022-08-10T10:40:04Z</time>
      </trkpt>
      <trkpt lat="45.08041" lon="0.55775">
        <ele>74.6</ele>
        <time>2022-08-10T10:40:06Z</time>
      </trkpt>
      <trkpt lat="45.08039" lon="0.55783">
        <ele>74.6</ele>
        <time>2022-08-10T10:40:08Z</time>
      </trkpt>
      <trkpt lat="45.08038" lon="0.5579">
        <ele>74.6</ele>
        <time>2022-08-10T10:40:10Z</time>
      </trkpt>
      <trkpt lat="45.08037" lon="0.55797">
        <ele>74.6</ele>
        <time>2022-08-10T10:40:12Z</time>
      </trkpt>
      <trkpt lat="45.08035" lon="0.55804">
        <ele>74.6</ele>
        <time>2022-08-10T10:40:14Z</time>
      </trkpt>
      <trkpt lat="45.08033" lon="0.55812">
        <ele>73.6</ele>
        <time>2022-08-10T10:40:16Z</time>
      </trkpt>
      <trkpt lat="45.08031" lon="0.55819">
        <ele>73.6</ele>
        <time>2022-08-10T10:40:18Z</time>
      </trkpt>
      <trkpt lat="45.08029" lon="0.55827">
        <ele>72.6</ele>
        <time>2022-08-10T10:40:20Z</time>
      </trkpt>
      <trkpt lat="45.08026" lon="0.55836">
        <ele>71.6</ele>
        <time>2022-08-10T10:40:22Z</time>
      </trkpt>
      <trkpt lat="45.08025" lon="0.55847">
        <ele>70.6</ele>
        <time>2022-08-10T10:40:24Z</time>
      </trkpt>
      <trkpt lat="45.08023" lon="0.55859">
        <ele>70.6</ele>
        <time>2022-08-10T10:40:26Z</time>
      </trkpt>
      <trkpt lat="45.08022" lon="0.55871">
        <ele>72.6</ele>
        <time>2022-08-10T10:40:28Z</time>
      </trkpt>
      <trkpt lat="45.08021" lon="0.55877">
        <ele>72.6</ele>
        <time>2022-08-10T10:40:29Z</time>
      </trkpt>
      <trkpt lat="45.0802" lon="0.55888">
        <ele>71.6</ele>
        <time>2022-08-10T10:40:31Z</time>
      </trkpt>
      <trkpt lat="45.08018" lon="0.55899">
        <ele>71.6</ele>
        <time>2022-08-10T10:40:33Z</time>
      </trkpt>
      <trkpt lat="45.08017" lon="0.55905">
        <ele>71.6</ele>
        <time>2022-08-10T10:40:34Z</time>
      </trkpt>
      <trkpt lat="45.08016" lon="0.55917">
        <ele>72.6</ele>
        <time>2022-08-10T10:40:36Z</time>
      </trkpt>
      <trkpt lat="45.08014" lon="0.55929">
        <ele>72.6</ele>
        <time>2022-08-10T10:40:38Z</time>
      </trkpt>
      <trkpt lat="45.08013" lon="0.55941">
        <ele>72.6</ele>
        <time>2022-08-10T10:40:40Z</time>
      </trkpt>
      <trkpt lat="45.08012" lon="0.55952">
        <ele>72.6</ele>
        <time>2022-08-10T10:40:42Z</time>
      </trkpt>
      <trkpt lat="45.08011" lon="0.55963">
        <ele>72.6</ele>
        <time>2022-08-10T10:40:44Z</time>
      </trkpt>
      <trkpt lat="45.08012" lon="0.55976">
        <ele>72.6</ele>
        <time>2022-08-10T10:40:46Z</time>
      </trkpt>
      <trkpt lat="45.08012" lon="0.55984">
        <ele>72.6</ele>
        <time>2022-08-10T10:40:47Z</time>
      </trkpt>
      <trkpt lat="45.08013" lon="0.55992">
        <ele>72.6</ele>
        <time>2022-08-10T10:40:48Z</time>
      </trkpt>
      <trkpt lat="45.08013" lon="0.56">
        <ele>72.6</ele>
        <time>2022-08-10T10:40:49Z</time>
      </trkpt>
      <trkpt lat="45.08014" lon="0.56008">
        <ele>72.6</ele>
        <time>2022-08-10T10:40:50Z</time>
      </trkpt>
      <trkpt lat="45.08014" lon="0.56016">
        <ele>72.6</ele>
        <time>2022-08-10T10:40:51Z</time>
      </trkpt>
      <trkpt lat="45.08015" lon="0.56024">
        <ele>71.6</ele>
        <time>2022-08-10T10:40:52Z</time>
      </trkpt>
      <trkpt lat="45.08016" lon="0.56034">
        <ele>71.6</ele>
        <time>2022-08-10T10:40:53Z</time>
      </trkpt>
      <trkpt lat="45.08018" lon="0.56044">
        <ele>71.6</ele>
        <time>2022-08-10T10:40:54Z</time>
      </trkpt>
      <trkpt lat="45.08019" lon="0.56054">
        <ele>71.6</ele>
        <time>2022-08-10T10:40:55Z</time>
      </trkpt>
      <trkpt lat="45.0802" lon="0.56063">
        <ele>70.6</ele>
        <time>2022-08-10T10:40:56Z</time>
      </trkpt>
      <trkpt lat="45.08021" lon="0.5607">
        <ele>71.6</ele>
        <time>2022-08-10T10:40:57Z</time>
      </trkpt>
      <trkpt lat="45.08022" lon="0.5608">
        <ele>72.6</ele>
        <time>2022-08-10T10:40:59Z</time>
      </trkpt>
      <trkpt lat="45.08022" lon="0.56087">
        <ele>72.6</ele>
        <time>2022-08-10T10:41:01Z</time>
      </trkpt>
      <trkpt lat="45.08021" lon="0.56094">
        <ele>71.6</ele>
        <time>2022-08-10T10:41:04Z</time>
      </trkpt>
      <trkpt lat="45.0802" lon="0.56101">
        <ele>71.6</ele>
        <time>2022-08-10T10:41:08Z</time>
      </trkpt>
      <trkpt lat="45.08025" lon="0.56101">
        <ele>71.6</ele>
        <time>2022-08-10T10:41:11Z</time>
      </trkpt>
      <trkpt lat="45.08022" lon="0.56093">
        <ele>73.6</ele>
        <time>2022-08-10T10:41:15Z</time>
      </trkpt>
      <trkpt lat="45.08021" lon="0.56087">
        <ele>73.6</ele>
        <time>2022-08-10T10:41:17Z</time>
      </trkpt>
      <trkpt lat="45.0802" lon="0.56078">
        <ele>73.6</ele>
        <time>2022-08-10T10:41:19Z</time>
      </trkpt>
      <trkpt lat="45.0802" lon="0.56069">
        <ele>73.6</ele>
        <time>2022-08-10T10:41:21Z</time>
      </trkpt>
      <trkpt lat="45.08019" lon="0.5606">
        <ele>74.6</ele>
        <time>2022-08-10T10:41:23Z</time>
      </trkpt>
      <trkpt lat="45.08018" lon="0.56052">
        <ele>74.6</ele>
        <time>2022-08-10T10:41:25Z</time>
      </trkpt>
      <trkpt lat="45.08016" lon="0.56045">
        <ele>74.6</ele>
        <time>2022-08-10T10:41:27Z</time>
      </trkpt>
      <trkpt lat="45.08016" lon="0.56038">
        <ele>75.6</ele>
        <time>2022-08-10T10:41:29Z</time>
      </trkpt>
      <trkpt lat="45.08017" lon="0.56031">
        <ele>76.6</ele>
        <time>2022-08-10T10:41:32Z</time>
      </trkpt>
      <trkpt lat="45.08017" lon="0.56022">
        <ele>76.6</ele>
        <time>2022-08-10T10:41:35Z</time>
      </trkpt>
      <trkpt lat="45.08017" lon="0.56014">
        <ele>76.6</ele>
        <time>2022-08-10T10:41:38Z</time>
      </trkpt>
      <trkpt lat="45.08015" lon="0.56008">
        <ele>78.6</ele>
        <time>2022-08-10T10:43:11Z</time>
      </trkpt>
      <trkpt lat="45.08015" lon="0.56001">
        <ele>77.6</ele>
        <time>2022-08-10T10:43:13Z</time>
      </trkpt>
      <trkpt lat="45.08015" lon="0.55994">
        <ele>78.6</ele>
        <time>2022-08-10T10:43:15Z</time>
      </trkpt>
      <trkpt lat="45.08015" lon="0.55987">
        <ele>78.6</ele>
        <time>2022-08-10T10:43:17Z</time>
      </trkpt>
      <trkpt lat="45.08015" lon="0.55979">
        <ele>78.6</ele>
        <time>2022-08-10T10:43:19Z</time>
      </trkpt>
      <trkpt lat="45.08015" lon="0.55971">
        <ele>78.6</ele>
        <time>2022-08-10T10:43:21Z</time>
      </trkpt>
      <trkpt lat="45.08016" lon="0.55963">
        <ele>77.6</ele>
        <time>2022-08-10T10:43:24Z</time>
      </trkpt>
      <trkpt lat="45.08016" lon="0.55954">
        <ele>77.6</ele>
        <time>2022-08-10T10:43:27Z</time>
      </trkpt>
      <trkpt lat="45.08016" lon="0.55945">
        <ele>77.6</ele>
        <time>2022-08-10T10:43:30Z</time>
      </trkpt>
      <trkpt lat="45.08017" lon="0.55937">
        <ele>77.6</ele>
        <time>2022-08-10T10:43:33Z</time>
      </trkpt>
      <trkpt lat="45.08018" lon="0.5593">
        <ele>77.6</ele>
        <time>2022-08-10T10:43:36Z</time>
      </trkpt>
      <trkpt lat="45.08021" lon="0.55921">
        <ele>77.6</ele>
        <time>2022-08-10T10:43:39Z</time>
      </trkpt>
      <trkpt lat="45.08022" lon="0.55913">
        <ele>77.6</ele>
        <time>2022-08-10T10:43:41Z</time>
      </trkpt>
      <trkpt lat="45.08023" lon="0.55905">
        <ele>78.6</ele>
        <time>2022-08-10T10:43:43Z</time>
      </trkpt>
      <trkpt lat="45.08023" lon="0.55899">
        <ele>77.6</ele>
        <time>2022-08-10T10:43:45Z</time>
      </trkpt>
      <trkpt lat="45.08023" lon="0.5589">
        <ele>77.6</ele>
        <time>2022-08-10T10:43:47Z</time>
      </trkpt>
      <trkpt lat="45.08024" lon="0.55881">
        <ele>77.6</ele>
        <time>2022-08-10T10:43:49Z</time>
      </trkpt>
      <trkpt lat="45.08025" lon="0.55872">
        <ele>77.6</ele>
        <time>2022-08-10T10:43:51Z</time>
      </trkpt>
      <trkpt lat="45.08026" lon="0.55863">
        <ele>76.6</ele>
        <time>2022-08-10T10:43:53Z</time>
      </trkpt>
      <trkpt lat="45.08028" lon="0.55855">
        <ele>76.6</ele>
        <time>2022-08-10T10:43:55Z</time>
      </trkpt>
      <trkpt lat="45.0803" lon="0.55846">
        <ele>75.6</ele>
        <time>2022-08-10T10:43:57Z</time>
      </trkpt>
      <trkpt lat="45.08032" lon="0.55836">
        <ele>75.6</ele>
        <time>2022-08-10T10:43:59Z</time>
      </trkpt>
      <trkpt lat="45.08035" lon="0.55826">
        <ele>75.6</ele>
        <time>2022-08-10T10:44:01Z</time>
      </trkpt>
      <trkpt lat="45.08038" lon="0.55812">
        <ele>74.6</ele>
        <time>2022-08-10T10:44:03Z</time>
      </trkpt>
      <trkpt lat="45.08039" lon="0.55805">
        <ele>73.6</ele>
        <time>2022-08-10T10:44:04Z</time>
      </trkpt>
      <trkpt lat="45.08041" lon="0.55797">
        <ele>73.6</ele>
        <time>2022-08-10T10:44:05Z</time>
      </trkpt>
      <trkpt lat="45.08042" lon="0.55789">
        <ele>73.6</ele>
        <time>2022-08-10T10:44:06Z</time>
      </trkpt>
      <trkpt lat="45.08043" lon="0.55781">
        <ele>73.6</ele>
        <time>2022-08-10T10:44:07Z</time>
      </trkpt>
      <trkpt lat="45.08043" lon="0.5577">
        <ele>73.6</ele>
        <time>2022-08-10T10:44:08Z</time>
      </trkpt>
      <trkpt lat="45.08044" lon="0.5576">
        <ele>73.6</ele>
        <time>2022-08-10T10:44:09Z</time>
      </trkpt>
      <trkpt lat="45.08045" lon="0.5575">
        <ele>73.6</ele>
        <time>2022-08-10T10:44:10Z</time>
      </trkpt>
      <trkpt lat="45.08046" lon="0.55739">
        <ele>73.6</ele>
        <time>2022-08-10T10:44:11Z</time>
      </trkpt>
      <trkpt lat="45.08047" lon="0.55728">
        <ele>73.6</ele>
        <time>2022-08-10T10:44:12Z</time>
      </trkpt>
      <trkpt lat="45.08049" lon="0.55716">
        <ele>74.6</ele>
        <time>2022-08-10T10:44:13Z</time>
      </trkpt>
      <trkpt lat="45.08051" lon="0.55703">
        <ele>75.6</ele>
        <time>2022-08-10T10:44:14Z</time>
      </trkpt>
      <trkpt lat="45.08054" lon="0.55692">
        <ele>76.6</ele>
        <time>2022-08-10T10:44:15Z</time>
      </trkpt>
      <trkpt lat="45.08056" lon="0.55681">
        <ele>77.6</ele>
        <time>2022-08-10T10:44:16Z</time>
      </trkpt>
      <trkpt lat="45.08059" lon="0.55669">
        <ele>77.6</ele>
        <time>2022-08-10T10:44:17Z</time>
      </trkpt>
      <trkpt lat="45.08062" lon="0.55658">
        <ele>78.6</ele>
        <time>2022-08-10T10:44:18Z</time>
      </trkpt>
      <trkpt lat="45.08065" lon="0.55648">
        <ele>78.6</ele>
        <time>2022-08-10T10:44:19Z</time>
      </trkpt>
      <trkpt lat="45.08066" lon="0.55639">
        <ele>78.6</ele>
        <time>2022-08-10T10:44:20Z</time>
      </trkpt>
      <trkpt lat="45.08067" lon="0.5563">
        <ele>77.6</ele>
        <time>2022-08-10T10:44:21Z</time>
      </trkpt>
      <trkpt lat="45.08067" lon="0.55621">
        <ele>76.6</ele>
        <time>2022-08-10T10:44:22Z</time>
      </trkpt>
      <trkpt lat="45.08066" lon="0.55613">
        <ele>77.6</ele>
        <time>2022-08-10T10:44:23Z</time>
      </trkpt>
      <trkpt lat="45.08065" lon="0.55605">
        <ele>76.6</ele>
        <time>2022-08-10T10:44:25Z</time>
      </trkpt>
      <trkpt lat="45.08061" lon="0.55599">
        <ele>77.6</ele>
        <time>2022-08-10T10:44:28Z</time>
      </trkpt>
      <trkpt lat="45.08056" lon="0.55595">
        <ele>77.6</ele>
        <time>2022-08-10T10:44:32Z</time>
      </trkpt>
      <trkpt lat="45.08051" lon="0.55594">
        <ele>78.6</ele>
        <time>2022-08-10T10:44:35Z</time>
      </trkpt>
      <trkpt lat="45.08045" lon="0.55593">
        <ele>78.6</ele>
        <time>2022-08-10T10:44:38Z</time>
      </trkpt>
      <trkpt lat="45.08041" lon="0.55593">
        <ele>78.6</ele>
        <time>2022-08-10T10:44:41Z</time>
      </trkpt>
      <trkpt lat="45.08036" lon="0.55594">
        <ele>78.6</ele>
        <time>2022-08-10T10:44:44Z</time>
      </trkpt>
      <trkpt lat="45.08031" lon="0.55594">
        <ele>78.6</ele>
        <time>2022-08-10T10:44:48Z</time>
      </trkpt>
      <trkpt lat="45.08026" lon="0.55595">
        <ele>78.6</ele>
        <time>2022-08-10T10:44:52Z</time>
      </trkpt>
      <trkpt lat="45.08021" lon="0.55595">
        <ele>78.6</ele>
        <time>2022-08-10T10:44:56Z</time>
      </trkpt>
      <trkpt lat="45.08016" lon="0.55595">
        <ele>78.6</ele>
        <time>2022-08-10T10:45:00Z</time>
      </trkpt>
      <trkpt lat="45.08011" lon="0.55595">
        <ele>79.6</ele>
        <time>2022-08-10T10:45:03Z</time>
      </trkpt>
      <trkpt lat="45.08006" lon="0.55594">
        <ele>79.6</ele>
        <time>2022-08-10T10:45:06Z</time>
      </trkpt>
      <trkpt lat="45.08001" lon="0.55594">
        <ele>80.6</ele>
        <time>2022-08-10T10:45:10Z</time>
      </trkpt>
      <trkpt lat="45.07996" lon="0.55594">
        <ele>80.6</ele>
        <time>2022-08-10T10:45:14Z</time>
      </trkpt>
      <trkpt lat="45.07991" lon="0.55594">
        <ele>81.6</ele>
        <time>2022-08-10T10:45:17Z</time>
      </trkpt>
      <trkpt lat="45.07985" lon="0.55594">
        <ele>82.6</ele>
        <time>2022-08-10T10:45:20Z</time>
      </trkpt>
      <trkpt lat="45.0798" lon="0.55594">
        <ele>82.6</ele>
        <time>2022-08-10T10:45:23Z</time>
      </trkpt>
      <trkpt lat="45.07975" lon="0.55595">
        <ele>83.6</ele>
        <time>2022-08-10T10:45:27Z</time>
      </trkpt>
      <trkpt lat="45.0797" lon="0.55595">
        <ele>83.6</ele>
        <time>2022-08-10T10:45:31Z</time>
      </trkpt>
      <trkpt lat="45.07965" lon="0.55594">
        <ele>83.6</ele>
        <time>2022-08-10T10:45:35Z</time>
      </trkpt>
      <trkpt lat="45.0796" lon="0.55592">
        <ele>84.6</ele>
        <time>2022-08-10T10:45:38Z</time>
      </trkpt>
      <trkpt lat="45.07954" lon="0.5559">
        <ele>85.6</ele>
        <time>2022-08-10T10:45:44Z</time>
      </trkpt>
      <trkpt lat="45.0795" lon="0.55589">
        <ele>86.6</ele>
        <time>2022-08-10T10:45:49Z</time>
      </trkpt>
      <trkpt lat="45.07945" lon="0.55588">
        <ele>86.6</ele>
        <time>2022-08-10T10:45:52Z</time>
      </trkpt>
      <trkpt lat="45.0794" lon="0.55584">
        <ele>86.6</ele>
        <time>2022-08-10T10:45:56Z</time>
      </trkpt>
      <trkpt lat="45.07934" lon="0.55583">
        <ele>87.6</ele>
        <time>2022-08-10T10:46:02Z</time>
      </trkpt>
      <trkpt lat="45.07929" lon="0.55583">
        <ele>87.6</ele>
        <time>2022-08-10T10:46:05Z</time>
      </trkpt>
      <trkpt lat="45.07925" lon="0.55581">
        <ele>89.6</ele>
        <time>2022-08-10T10:46:11Z</time>
      </trkpt>
      <trkpt lat="45.07921" lon="0.55581">
        <ele>91.6</ele>
        <time>2022-08-10T10:46:16Z</time>
      </trkpt>
      <trkpt lat="45.07916" lon="0.5558">
        <ele>93.6</ele>
        <time>2022-08-10T10:46:21Z</time>
      </trkpt>
      <trkpt lat="45.0791" lon="0.55578">
        <ele>92.6</ele>
        <time>2022-08-10T10:46:26Z</time>
      </trkpt>
      <trkpt lat="45.07905" lon="0.55576">
        <ele>93.6</ele>
        <time>2022-08-10T10:46:29Z</time>
      </trkpt>
      <trkpt lat="45.07899" lon="0.55574">
        <ele>93.6</ele>
        <time>2022-08-10T10:46:33Z</time>
      </trkpt>
      <trkpt lat="45.07894" lon="0.55572">
        <ele>93.6</ele>
        <time>2022-08-10T10:46:36Z</time>
      </trkpt>
      <trkpt lat="45.07889" lon="0.5557">
        <ele>93.6</ele>
        <time>2022-08-10T10:46:40Z</time>
      </trkpt>
      <trkpt lat="45.07884" lon="0.55569">
        <ele>93.6</ele>
        <time>2022-08-10T10:46:43Z</time>
      </trkpt>
      <trkpt lat="45.07879" lon="0.55567">
        <ele>93.6</ele>
        <time>2022-08-10T10:46:48Z</time>
      </trkpt>
      <trkpt lat="45.07874" lon="0.55564">
        <ele>95.6</ele>
        <time>2022-08-10T10:46:51Z</time>
      </trkpt>
      <trkpt lat="45.07869" lon="0.5556">
        <ele>96.6</ele>
        <time>2022-08-10T10:46:54Z</time>
      </trkpt>
      <trkpt lat="45.07864" lon="0.55555">
        <ele>97.6</ele>
        <time>2022-08-10T10:46:57Z</time>
      </trkpt>
      <trkpt lat="45.0786" lon="0.55553">
        <ele>98.6</ele>
        <time>2022-08-10T10:46:59Z</time>
      </trkpt>
      <trkpt lat="45.07855" lon="0.55551">
        <ele>97.6</ele>
        <time>2022-08-10T10:47:01Z</time>
      </trkpt>
      <trkpt lat="45.07849" lon="0.55549">
        <ele>97.6</ele>
        <time>2022-08-10T10:47:04Z</time>
      </trkpt>
      <trkpt lat="45.07843" lon="0.55548">
        <ele>97.6</ele>
        <time>2022-08-10T10:47:07Z</time>
      </trkpt>
      <trkpt lat="45.07837" lon="0.55546">
        <ele>98.6</ele>
        <time>2022-08-10T10:47:10Z</time>
      </trkpt>
      <trkpt lat="45.07832" lon="0.55544">
        <ele>98.6</ele>
        <time>2022-08-10T10:47:13Z</time>
      </trkpt>
      <trkpt lat="45.07827" lon="0.55545">
        <ele>99.6</ele>
        <time>2022-08-10T10:47:17Z</time>
      </trkpt>
      <trkpt lat="45.07822" lon="0.55546">
        <ele>100.6</ele>
        <time>2022-08-10T10:47:22Z</time>
      </trkpt>
      <trkpt lat="45.07818" lon="0.55548">
        <ele>101.6</ele>
        <time>2022-08-10T10:47:26Z</time>
      </trkpt>
      <trkpt lat="45.07812" lon="0.5555">
        <ele>100.6</ele>
        <time>2022-08-10T10:47:30Z</time>
      </trkpt>
      <trkpt lat="45.07807" lon="0.5555">
        <ele>100.6</ele>
        <time>2022-08-10T10:47:35Z</time>
      </trkpt>
      <trkpt lat="45.07803" lon="0.55553">
        <ele>101.6</ele>
        <time>2022-08-10T10:47:39Z</time>
      </trkpt>
      <trkpt lat="45.07797" lon="0.55554">
        <ele>102.6</ele>
        <time>2022-08-10T10:47:44Z</time>
      </trkpt>
      <trkpt lat="45.07792" lon="0.55557">
        <ele>103.6</ele>
        <time>2022-08-10T10:47:50Z</time>
      </trkpt>
      <trkpt lat="45.07787" lon="0.5556">
        <ele>102.6</ele>
        <time>2022-08-10T10:47:55Z</time>
      </trkpt>
      <trkpt lat="45.07782" lon="0.55562">
        <ele>101.6</ele>
        <time>2022-08-10T10:48:00Z</time>
      </trkpt>
      <trkpt lat="45.07777" lon="0.55565">
        <ele>100.6</ele>
        <time>2022-08-10T10:48:06Z</time>
      </trkpt>
      <trkpt lat="45.07772" lon="0.55567">
        <ele>100.6</ele>
        <time>2022-08-10T10:48:10Z</time>
      </trkpt>
      <trkpt lat="45.07767" lon="0.55568">
        <ele>101.6</ele>
        <time>2022-08-10T10:48:14Z</time>
      </trkpt>
      <trkpt lat="45.07761" lon="0.55569">
        <ele>101.6</ele>
        <time>2022-08-10T10:48:19Z</time>
      </trkpt>
      <trkpt lat="45.07756" lon="0.55568">
        <ele>101.6</ele>
        <time>2022-08-10T10:48:23Z</time>
      </trkpt>
      <trkpt lat="45.07751" lon="0.55567">
        <ele>102.6</ele>
        <time>2022-08-10T10:48:28Z</time>
      </trkpt>
      <trkpt lat="45.07744" lon="0.55565">
        <ele>102.6</ele>
        <time>2022-08-10T10:48:33Z</time>
      </trkpt>
      <trkpt lat="45.07739" lon="0.55563">
        <ele>103.6</ele>
        <time>2022-08-10T10:48:37Z</time>
      </trkpt>
      <trkpt lat="45.07733" lon="0.55562">
        <ele>106.6</ele>
        <time>2022-08-10T10:48:43Z</time>
      </trkpt>
      <trkpt lat="45.07727" lon="0.5556">
        <ele>107.6</ele>
        <time>2022-08-10T10:48:48Z</time>
      </trkpt>
      <trkpt lat="45.07723" lon="0.55557">
        <ele>108.6</ele>
        <time>2022-08-10T10:48:51Z</time>
      </trkpt>
      <trkpt lat="45.07719" lon="0.55554">
        <ele>109.6</ele>
        <time>2022-08-10T10:48:55Z</time>
      </trkpt>
      <trkpt lat="45.07713" lon="0.55553">
        <ele>111.6</ele>
        <time>2022-08-10T10:49:00Z</time>
      </trkpt>
      <trkpt lat="45.07708" lon="0.55552">
        <ele>113.6</ele>
        <time>2022-08-10T10:49:05Z</time>
      </trkpt>
      <trkpt lat="45.07702" lon="0.55551">
        <ele>114.6</ele>
        <time>2022-08-10T10:49:09Z</time>
      </trkpt>
      <trkpt lat="45.07697" lon="0.55547">
        <ele>114.6</ele>
        <time>2022-08-10T10:49:13Z</time>
      </trkpt>
      <trkpt lat="45.07692" lon="0.55546">
        <ele>117.6</ele>
        <time>2022-08-10T10:49:17Z</time>
      </trkpt>
      <trkpt lat="45.07686" lon="0.55544">
        <ele>118.6</ele>
        <time>2022-08-10T10:49:23Z</time>
      </trkpt>
      <trkpt lat="45.07679" lon="0.55544">
        <ele>120.6</ele>
        <time>2022-08-10T10:49:27Z</time>
      </trkpt>
      <trkpt lat="45.07674" lon="0.55544">
        <ele>121.6</ele>
        <time>2022-08-10T10:49:31Z</time>
      </trkpt>
      <trkpt lat="45.07669" lon="0.55547">
        <ele>123.6</ele>
        <time>2022-08-10T10:49:36Z</time>
      </trkpt>
      <trkpt lat="45.07664" lon="0.55548">
        <ele>125.6</ele>
        <time>2022-08-10T10:49:40Z</time>
      </trkpt>
      <trkpt lat="45.07659" lon="0.5555">
        <ele>126.6</ele>
        <time>2022-08-10T10:49:45Z</time>
      </trkpt>
      <trkpt lat="45.07654" lon="0.55549">
        <ele>128.6</ele>
        <time>2022-08-10T10:49:50Z</time>
      </trkpt>
      <trkpt lat="45.07649" lon="0.5555">
        <ele>130.6</ele>
        <time>2022-08-10T10:49:57Z</time>
      </trkpt>
      <trkpt lat="45.07644" lon="0.5555">
        <ele>129.6</ele>
        <time>2022-08-10T10:50:07Z</time>
      </trkpt>
      <trkpt lat="45.0764" lon="0.55548">
        <ele>125.6</ele>
        <time>2022-08-10T10:50:12Z</time>
      </trkpt>
      <trkpt lat="45.07642" lon="0.55554">
        <ele>129.6</ele>
        <time>2022-08-10T10:50:44Z</time>
      </trkpt>
      <trkpt lat="45.07643" lon="0.5556">
        <ele>130.6</ele>
        <time>2022-08-10T10:50:48Z</time>
      </trkpt>
      <trkpt lat="45.07646" lon="0.55567">
        <ele>133.6</ele>
        <time>2022-08-10T10:50:53Z</time>
      </trkpt>
      <trkpt lat="45.07649" lon="0.55572">
        <ele>134.6</ele>
        <time>2022-08-10T10:50:57Z</time>
      </trkpt>
      <trkpt lat="45.0765" lon="0.5558">
        <ele>134.6</ele>
        <time>2022-08-10T10:51:02Z</time>
      </trkpt>
      <trkpt lat="45.07646" lon="0.55582">
        <ele>133.6</ele>
        <time>2022-08-10T10:51:06Z</time>
      </trkpt>
      <trkpt lat="45.07642" lon="0.55586">
        <ele>134.6</ele>
        <time>2022-08-10T10:51:11Z</time>
      </trkpt>
      <trkpt lat="45.07638" lon="0.5559">
        <ele>134.6</ele>
        <time>2022-08-10T10:51:16Z</time>
      </trkpt>
      <trkpt lat="45.07633" lon="0.55593">
        <ele>134.6</ele>
        <time>2022-08-10T10:51:21Z</time>
      </trkpt>
      <trkpt lat="45.07628" lon="0.55596">
        <ele>135.6</ele>
        <time>2022-08-10T10:51:26Z</time>
      </trkpt>
      <trkpt lat="45.07624" lon="0.55599">
        <ele>136.6</ele>
        <time>2022-08-10T10:51:33Z</time>
      </trkpt>
      <trkpt lat="45.0762" lon="0.55601">
        <ele>138.6</ele>
        <time>2022-08-10T10:51:43Z</time>
      </trkpt>
      <trkpt lat="45.07615" lon="0.55604">
        <ele>140.6</ele>
        <time>2022-08-10T10:51:50Z</time>
      </trkpt>
      <trkpt lat="45.07611" lon="0.55606">
        <ele>143.6</ele>
        <time>2022-08-10T10:52:31Z</time>
      </trkpt>
      <trkpt lat="45.07607" lon="0.5561">
        <ele>145.6</ele>
        <time>2022-08-10T10:52:36Z</time>
      </trkpt>
      <trkpt lat="45.07602" lon="0.55612">
        <ele>145.6</ele>
        <time>2022-08-10T10:52:42Z</time>
      </trkpt>
      <trkpt lat="45.07597" lon="0.55616">
        <ele>146.6</ele>
        <time>2022-08-10T10:52:48Z</time>
      </trkpt>
      <trkpt lat="45.07592" lon="0.5562">
        <ele>147.6</ele>
        <time>2022-08-10T10:52:53Z</time>
      </trkpt>
      <trkpt lat="45.07586" lon="0.55621">
        <ele>147.6</ele>
        <time>2022-08-10T10:52:58Z</time>
      </trkpt>
      <trkpt lat="45.07582" lon="0.55623">
        <ele>148.6</ele>
        <time>2022-08-10T10:53:03Z</time>
      </trkpt>
      <trkpt lat="45.07577" lon="0.55626">
        <ele>149.6</ele>
        <time>2022-08-10T10:53:09Z</time>
      </trkpt>
      <trkpt lat="45.07572" lon="0.55629">
        <ele>150.6</ele>
        <time>2022-08-10T10:53:16Z</time>
      </trkpt>
      <trkpt lat="45.07567" lon="0.5563">
        <ele>151.6</ele>
        <time>2022-08-10T10:53:23Z</time>
      </trkpt>
      <trkpt lat="45.07562" lon="0.55633">
        <ele>152.6</ele>
        <time>2022-08-10T10:53:28Z</time>
      </trkpt>
      <trkpt lat="45.07557" lon="0.55636">
        <ele>153.6</ele>
        <time>2022-08-10T10:53:33Z</time>
      </trkpt>
      <trkpt lat="45.07552" lon="0.55639">
        <ele>154.6</ele>
        <time>2022-08-10T10:53:39Z</time>
      </trkpt>
      <trkpt lat="45.07548" lon="0.55641">
        <ele>155.6</ele>
        <time>2022-08-10T10:53:43Z</time>
      </trkpt>
      <trkpt lat="45.07542" lon="0.55642">
        <ele>156.6</ele>
        <time>2022-08-10T10:53:48Z</time>
      </trkpt>
      <trkpt lat="45.07538" lon="0.55642">
        <ele>157.6</ele>
        <time>2022-08-10T10:53:53Z</time>
      </trkpt>
      <trkpt lat="45.07532" lon="0.55643">
        <ele>157.6</ele>
        <time>2022-08-10T10:53:59Z</time>
      </trkpt>
      <trkpt lat="45.07527" lon="0.55648">
        <ele>159.6</ele>
        <time>2022-08-10T10:54:20Z</time>
      </trkpt>
      <trkpt lat="45.07522" lon="0.55649">
        <ele>160.6</ele>
        <time>2022-08-10T10:54:26Z</time>
      </trkpt>
      <trkpt lat="45.07517" lon="0.55648">
        <ele>162.6</ele>
        <time>2022-08-10T10:54:31Z</time>
      </trkpt>
      <trkpt lat="45.07511" lon="0.55648">
        <ele>161.6</ele>
        <time>2022-08-10T10:54:36Z</time>
      </trkpt>
      <trkpt lat="45.07507" lon="0.55648">
        <ele>161.6</ele>
        <time>2022-08-10T10:54:43Z</time>
      </trkpt>
      <trkpt lat="45.07502" lon="0.5565">
        <ele>160.6</ele>
        <time>2022-08-10T10:54:58Z</time>
      </trkpt>
      <trkpt lat="45.07495" lon="0.5565">
        <ele>163.6</ele>
        <time>2022-08-10T10:55:23Z</time>
      </trkpt>
      <trkpt lat="45.07491" lon="0.5565">
        <ele>165.6</ele>
        <time>2022-08-10T10:55:28Z</time>
      </trkpt>
      <trkpt lat="45.07486" lon="0.55651">
        <ele>167.6</ele>
        <time>2022-08-10T10:55:33Z</time>
      </trkpt>
      <trkpt lat="45.07481" lon="0.55651">
        <ele>171.6</ele>
        <time>2022-08-10T10:55:53Z</time>
      </trkpt>
      <trkpt lat="45.07477" lon="0.55652">
        <ele>166.6</ele>
        <time>2022-08-10T10:56:24Z</time>
      </trkpt>
      <trkpt lat="45.07472" lon="0.55648">
        <ele>167.6</ele>
        <time>2022-08-10T10:56:34Z</time>
      </trkpt>
      <trkpt lat="45.07467" lon="0.55645">
        <ele>168.6</ele>
        <time>2022-08-10T10:56:40Z</time>
      </trkpt>
      <trkpt lat="45.07463" lon="0.55641">
        <ele>169.6</ele>
        <time>2022-08-10T10:56:45Z</time>
      </trkpt>
      <trkpt lat="45.07459" lon="0.55638">
        <ele>168.6</ele>
        <time>2022-08-10T10:56:49Z</time>
      </trkpt>
      <trkpt lat="45.07454" lon="0.55633">
        <ele>169.6</ele>
        <time>2022-08-10T10:56:53Z</time>
      </trkpt>
      <trkpt lat="45.0745" lon="0.55629">
        <ele>169.6</ele>
        <time>2022-08-10T10:56:57Z</time>
      </trkpt>
      <trkpt lat="45.07445" lon="0.55626">
        <ele>168.6</ele>
        <time>2022-08-10T10:57:00Z</time>
      </trkpt>
      <trkpt lat="45.07441" lon="0.55621">
        <ele>169.6</ele>
        <time>2022-08-10T10:57:04Z</time>
      </trkpt>
      <trkpt lat="45.07436" lon="0.55617">
        <ele>170.6</ele>
        <time>2022-08-10T10:57:08Z</time>
      </trkpt>
      <trkpt lat="45.07432" lon="0.55611">
        <ele>170.6</ele>
        <time>2022-08-10T10:57:13Z</time>
      </trkpt>
      <trkpt lat="45.07429" lon="0.55605">
        <ele>170.6</ele>
        <time>2022-08-10T10:57:17Z</time>
      </trkpt>
      <trkpt lat="45.07425" lon="0.55601">
        <ele>169.6</ele>
        <time>2022-08-10T10:57:20Z</time>
      </trkpt>
      <trkpt lat="45.0742" lon="0.55598">
        <ele>169.6</ele>
        <time>2022-08-10T10:57:24Z</time>
      </trkpt>
      <trkpt lat="45.07416" lon="0.55595">
        <ele>170.6</ele>
        <time>2022-08-10T10:57:27Z</time>
      </trkpt>
      <trkpt lat="45.07411" lon="0.55591">
        <ele>170.6</ele>
        <time>2022-08-10T10:57:31Z</time>
      </trkpt>
      <trkpt lat="45.07407" lon="0.55587">
        <ele>169.6</ele>
        <time>2022-08-10T10:57:35Z</time>
      </trkpt>
      <trkpt lat="45.07404" lon="0.55582">
        <ele>169.6</ele>
        <time>2022-08-10T10:57:38Z</time>
      </trkpt>
      <trkpt lat="45.07399" lon="0.55577">
        <ele>169.6</ele>
        <time>2022-08-10T10:57:42Z</time>
      </trkpt>
      <trkpt lat="45.07395" lon="0.55572">
        <ele>170.6</ele>
        <time>2022-08-10T10:57:48Z</time>
      </trkpt>
      <trkpt lat="45.0739" lon="0.5557">
        <ele>170.6</ele>
        <time>2022-08-10T10:57:52Z</time>
      </trkpt>
      <trkpt lat="45.07385" lon="0.55566">
        <ele>170.6</ele>
        <time>2022-08-10T10:57:55Z</time>
      </trkpt>
      <trkpt lat="45.07381" lon="0.55563">
        <ele>170.6</ele>
        <time>2022-08-10T10:57:58Z</time>
      </trkpt>
      <trkpt lat="45.07377" lon="0.5556">
        <ele>169.6</ele>
        <time>2022-08-10T10:58:02Z</time>
      </trkpt>
      <trkpt lat="45.07372" lon="0.55558">
        <ele>169.6</ele>
        <time>2022-08-10T10:58:06Z</time>
      </trkpt>
      <trkpt lat="45.07365" lon="0.55552">
        <ele>168.6</ele>
        <time>2022-08-10T10:58:11Z</time>
      </trkpt>
      <trkpt lat="45.0736" lon="0.5555">
        <ele>168.6</ele>
        <time>2022-08-10T10:58:15Z</time>
      </trkpt>
      <trkpt lat="45.07356" lon="0.55546">
        <ele>168.6</ele>
        <time>2022-08-10T10:58:19Z</time>
      </trkpt>
      <trkpt lat="45.0735" lon="0.55543">
        <ele>168.6</ele>
        <time>2022-08-10T10:58:22Z</time>
      </trkpt>
      <trkpt lat="45.07346" lon="0.55537">
        <ele>168.6</ele>
        <time>2022-08-10T10:58:25Z</time>
      </trkpt>
      <trkpt lat="45.07342" lon="0.55533">
        <ele>168.6</ele>
        <time>2022-08-10T10:58:28Z</time>
      </trkpt>
      <trkpt lat="45.07338" lon="0.55528">
        <ele>167.6</ele>
        <time>2022-08-10T10:58:31Z</time>
      </trkpt>
      <trkpt lat="45.07332" lon="0.55523">
        <ele>168.6</ele>
        <time>2022-08-10T10:58:34Z</time>
      </trkpt>
      <trkpt lat="45.07328" lon="0.55521">
        <ele>168.6</ele>
        <time>2022-08-10T10:58:37Z</time>
      </trkpt>
      <trkpt lat="45.07323" lon="0.55516">
        <ele>167.6</ele>
        <time>2022-08-10T10:58:40Z</time>
      </trkpt>
      <trkpt lat="45.07319" lon="0.55512">
        <ele>167.6</ele>
        <time>2022-08-10T10:58:42Z</time>
      </trkpt>
      <trkpt lat="45.07314" lon="0.55507">
        <ele>166.6</ele>
        <time>2022-08-10T10:58:44Z</time>
      </trkpt>
      <trkpt lat="45.07308" lon="0.55504">
        <ele>167.6</ele>
        <time>2022-08-10T10:58:46Z</time>
      </trkpt>
      <trkpt lat="45.07303" lon="0.555">
        <ele>166.6</ele>
        <time>2022-08-10T10:58:48Z</time>
      </trkpt>
      <trkpt lat="45.07297" lon="0.55497">
        <ele>167.6</ele>
        <time>2022-08-10T10:58:50Z</time>
      </trkpt>
      <trkpt lat="45.07292" lon="0.55493">
        <ele>167.6</ele>
        <time>2022-08-10T10:58:52Z</time>
      </trkpt>
      <trkpt lat="45.07286" lon="0.55488">
        <ele>167.6</ele>
        <time>2022-08-10T10:58:54Z</time>
      </trkpt>
      <trkpt lat="45.07282" lon="0.55484">
        <ele>167.6</ele>
        <time>2022-08-10T10:58:56Z</time>
      </trkpt>
      <trkpt lat="45.07276" lon="0.5548">
        <ele>168.6</ele>
        <time>2022-08-10T10:58:58Z</time>
      </trkpt>
      <trkpt lat="45.0727" lon="0.55476">
        <ele>169.6</ele>
        <time>2022-08-10T10:59:00Z</time>
      </trkpt>
      <trkpt lat="45.07265" lon="0.55472">
        <ele>170.6</ele>
        <time>2022-08-10T10:59:02Z</time>
      </trkpt>
      <trkpt lat="45.07259" lon="0.5547">
        <ele>170.6</ele>
        <time>2022-08-10T10:59:04Z</time>
      </trkpt>
      <trkpt lat="45.07251" lon="0.55469">
        <ele>171.6</ele>
        <time>2022-08-10T10:59:06Z</time>
      </trkpt>
      <trkpt lat="45.07245" lon="0.55467">
        <ele>175.6</ele>
        <time>2022-08-10T10:59:07Z</time>
      </trkpt>
      <trkpt lat="45.07239" lon="0.55465">
        <ele>176.6</ele>
        <time>2022-08-10T10:59:08Z</time>
      </trkpt>
      <trkpt lat="45.07233" lon="0.55462">
        <ele>177.6</ele>
        <time>2022-08-10T10:59:09Z</time>
      </trkpt>
      <trkpt lat="45.07226" lon="0.55459">
        <ele>177.6</ele>
        <time>2022-08-10T10:59:10Z</time>
      </trkpt>
      <trkpt lat="45.0722" lon="0.55455">
        <ele>178.6</ele>
        <time>2022-08-10T10:59:11Z</time>
      </trkpt>
      <trkpt lat="45.07213" lon="0.55451">
        <ele>179.6</ele>
        <time>2022-08-10T10:59:12Z</time>
      </trkpt>
      <trkpt lat="45.07207" lon="0.55449">
        <ele>179.6</ele>
        <time>2022-08-10T10:59:13Z</time>
      </trkpt>
      <trkpt lat="45.07201" lon="0.55449">
        <ele>179.6</ele>
        <time>2022-08-10T10:59:14Z</time>
      </trkpt>
      <trkpt lat="45.07194" lon="0.55448">
        <ele>180.6</ele>
        <time>2022-08-10T10:59:15Z</time>
      </trkpt>
      <trkpt lat="45.07187" lon="0.55447">
        <ele>180.6</ele>
        <time>2022-08-10T10:59:16Z</time>
      </trkpt>
      <trkpt lat="45.07179" lon="0.55447">
        <ele>180.6</ele>
        <time>2022-08-10T10:59:17Z</time>
      </trkpt>
      <trkpt lat="45.0717" lon="0.55448">
        <ele>179.6</ele>
        <time>2022-08-10T10:59:18Z</time>
      </trkpt>
      <trkpt lat="45.07162" lon="0.55449">
        <ele>179.6</ele>
        <time>2022-08-10T10:59:19Z</time>
      </trkpt>
      <trkpt lat="45.07155" lon="0.55451">
        <ele>178.6</ele>
        <time>2022-08-10T10:59:20Z</time>
      </trkpt>
      <trkpt lat="45.07148" lon="0.55454">
        <ele>178.6</ele>
        <time>2022-08-10T10:59:21Z</time>
      </trkpt>
      <trkpt lat="45.0714" lon="0.55457">
        <ele>179.6</ele>
        <time>2022-08-10T10:59:22Z</time>
      </trkpt>
      <trkpt lat="45.07133" lon="0.55461">
        <ele>179.6</ele>
        <time>2022-08-10T10:59:23Z</time>
      </trkpt>
      <trkpt lat="45.07127" lon="0.55466">
        <ele>180.6</ele>
        <time>2022-08-10T10:59:24Z</time>
      </trkpt>
      <trkpt lat="45.07122" lon="0.55471">
        <ele>180.6</ele>
        <time>2022-08-10T10:59:25Z</time>
      </trkpt>
      <trkpt lat="45.07117" lon="0.55475">
        <ele>179.6</ele>
        <time>2022-08-10T10:59:26Z</time>
      </trkpt>
      <trkpt lat="45.07112" lon="0.55479">
        <ele>180.6</ele>
        <time>2022-08-10T10:59:27Z</time>
      </trkpt>
      <trkpt lat="45.07107" lon="0.55483">
        <ele>180.6</ele>
        <time>2022-08-10T10:59:28Z</time>
      </trkpt>
      <trkpt lat="45.07103" lon="0.55486">
        <ele>180.6</ele>
        <time>2022-08-10T10:59:29Z</time>
      </trkpt>
      <trkpt lat="45.07098" lon="0.5549">
        <ele>180.6</ele>
        <time>2022-08-10T10:59:30Z</time>
      </trkpt>
      <trkpt lat="45.07094" lon="0.55494">
        <ele>180.6</ele>
        <time>2022-08-10T10:59:31Z</time>
      </trkpt>
      <trkpt lat="45.07089" lon="0.55497">
        <ele>180.6</ele>
        <time>2022-08-10T10:59:32Z</time>
      </trkpt>
      <trkpt lat="45.07084" lon="0.55501">
        <ele>180.6</ele>
        <time>2022-08-10T10:59:33Z</time>
      </trkpt>
      <trkpt lat="45.0708" lon="0.55505">
        <ele>179.6</ele>
        <time>2022-08-10T10:59:34Z</time>
      </trkpt>
      <trkpt lat="45.07074" lon="0.55512">
        <ele>179.6</ele>
        <time>2022-08-10T10:59:36Z</time>
      </trkpt>
      <trkpt lat="45.07073" lon="0.55519">
        <ele>179.6</ele>
        <time>2022-08-10T11:00:41Z</time>
      </trkpt>
      <trkpt lat="45.07069" lon="0.55525">
        <ele>178.6</ele>
        <time>2022-08-10T11:00:54Z</time>
      </trkpt>
      <trkpt lat="45.07063" lon="0.55531">
        <ele>177.6</ele>
        <time>2022-08-10T11:00:56Z</time>
      </trkpt>
      <trkpt lat="45.07057" lon="0.55536">
        <ele>176.6</ele>
        <time>2022-08-10T11:00:58Z</time>
      </trkpt>
      <trkpt lat="45.07051" lon="0.55542">
        <ele>175.6</ele>
        <time>2022-08-10T11:01:00Z</time>
      </trkpt>
      <trkpt lat="45.07044" lon="0.5555">
        <ele>174.6</ele>
        <time>2022-08-10T11:01:02Z</time>
      </trkpt>
      <trkpt lat="45.07037" lon="0.55557">
        <ele>174.6</ele>
        <time>2022-08-10T11:01:04Z</time>
      </trkpt>
      <trkpt lat="45.07032" lon="0.55562">
        <ele>175.6</ele>
        <time>2022-08-10T11:01:05Z</time>
      </trkpt>
      <trkpt lat="45.07028" lon="0.55566">
        <ele>175.6</ele>
        <time>2022-08-10T11:01:06Z</time>
      </trkpt>
      <trkpt lat="45.07025" lon="0.55571">
        <ele>175.6</ele>
        <time>2022-08-10T11:01:07Z</time>
      </trkpt>
      <trkpt lat="45.07021" lon="0.55575">
        <ele>175.6</ele>
        <time>2022-08-10T11:01:08Z</time>
      </trkpt>
      <trkpt lat="45.07014" lon="0.55582">
        <ele>175.6</ele>
        <time>2022-08-10T11:01:10Z</time>
      </trkpt>
      <trkpt lat="45.0701" lon="0.55586">
        <ele>175.6</ele>
        <time>2022-08-10T11:01:11Z</time>
      </trkpt>
      <trkpt lat="45.07006" lon="0.5559">
        <ele>175.6</ele>
        <time>2022-08-10T11:01:12Z</time>
      </trkpt>
      <trkpt lat="45.07" lon="0.55596">
        <ele>175.6</ele>
        <time>2022-08-10T11:01:14Z</time>
      </trkpt>
      <trkpt lat="45.06996" lon="0.55602">
        <ele>175.6</ele>
        <time>2022-08-10T11:01:16Z</time>
      </trkpt>
      <trkpt lat="45.06992" lon="0.55609">
        <ele>175.6</ele>
        <time>2022-08-10T11:01:18Z</time>
      </trkpt>
      <trkpt lat="45.06986" lon="0.55616">
        <ele>175.6</ele>
        <time>2022-08-10T11:01:20Z</time>
      </trkpt>
      <trkpt lat="45.06981" lon="0.55624">
        <ele>175.6</ele>
        <time>2022-08-10T11:01:22Z</time>
      </trkpt>
      <trkpt lat="45.06975" lon="0.55631">
        <ele>175.6</ele>
        <time>2022-08-10T11:01:24Z</time>
      </trkpt>
      <trkpt lat="45.0697" lon="0.55639">
        <ele>174.6</ele>
        <time>2022-08-10T11:01:26Z</time>
      </trkpt>
      <trkpt lat="45.06965" lon="0.55645">
        <ele>174.6</ele>
        <time>2022-08-10T11:01:28Z</time>
      </trkpt>
      <trkpt lat="45.06959" lon="0.55653">
        <ele>173.6</ele>
        <time>2022-08-10T11:01:30Z</time>
      </trkpt>
      <trkpt lat="45.06956" lon="0.55658">
        <ele>172.6</ele>
        <time>2022-08-10T11:01:32Z</time>
      </trkpt>
      <trkpt lat="45.06951" lon="0.55659">
        <ele>172.6</ele>
        <time>2022-08-10T11:01:49Z</time>
      </trkpt>
      <trkpt lat="45.06947" lon="0.55654">
        <ele>172.6</ele>
        <time>2022-08-10T11:01:52Z</time>
      </trkpt>
      <trkpt lat="45.06943" lon="0.55649">
        <ele>172.6</ele>
        <time>2022-08-10T11:01:54Z</time>
      </trkpt>
      <trkpt lat="45.06938" lon="0.55646">
        <ele>172.6</ele>
        <time>2022-08-10T11:01:56Z</time>
      </trkpt>
      <trkpt lat="45.06933" lon="0.55641">
        <ele>172.6</ele>
        <time>2022-08-10T11:01:58Z</time>
      </trkpt>
      <trkpt lat="45.06926" lon="0.55636">
        <ele>172.6</ele>
        <time>2022-08-10T11:02:00Z</time>
      </trkpt>
      <trkpt lat="45.06919" lon="0.55632">
        <ele>172.6</ele>
        <time>2022-08-10T11:02:02Z</time>
      </trkpt>
      <trkpt lat="45.06913" lon="0.55628">
        <ele>172.6</ele>
        <time>2022-08-10T11:02:04Z</time>
      </trkpt>
      <trkpt lat="45.06905" lon="0.55623">
        <ele>171.6</ele>
        <time>2022-08-10T11:02:06Z</time>
      </trkpt>
      <trkpt lat="45.06897" lon="0.55614">
        <ele>171.6</ele>
        <time>2022-08-10T11:02:09Z</time>
      </trkpt>
      <trkpt lat="45.06897" lon="0.55606">
        <ele>171.6</ele>
        <time>2022-08-10T11:02:12Z</time>
      </trkpt>
      <trkpt lat="45.06898" lon="0.55599">
        <ele>170.6</ele>
        <time>2022-08-10T11:02:17Z</time>
      </trkpt>
      <trkpt lat="45.06898" lon="0.55592">
        <ele>162.6</ele>
        <time>2022-08-10T11:02:29Z</time>
      </trkpt>
      <trkpt lat="45.06899" lon="0.55586">
        <ele>162.6</ele>
        <time>2022-08-10T11:02:32Z</time>
      </trkpt>
      <trkpt lat="45.06901" lon="0.55578">
        <ele>164.6</ele>
        <time>2022-08-10T11:02:34Z</time>
      </trkpt>
      <trkpt lat="45.06903" lon="0.5557">
        <ele>165.6</ele>
        <time>2022-08-10T11:02:36Z</time>
      </trkpt>
      <trkpt lat="45.06906" lon="0.55562">
        <ele>165.6</ele>
        <time>2022-08-10T11:02:38Z</time>
      </trkpt>
      <trkpt lat="45.06909" lon="0.55553">
        <ele>164.6</ele>
        <time>2022-08-10T11:02:40Z</time>
      </trkpt>
      <trkpt lat="45.06911" lon="0.55546">
        <ele>164.6</ele>
        <time>2022-08-10T11:02:42Z</time>
      </trkpt>
      <trkpt lat="45.06915" lon="0.55539">
        <ele>164.6</ele>
        <time>2022-08-10T11:02:44Z</time>
      </trkpt>
      <trkpt lat="45.06918" lon="0.55532">
        <ele>164.6</ele>
        <time>2022-08-10T11:02:46Z</time>
      </trkpt>
      <trkpt lat="45.06919" lon="0.55523">
        <ele>163.6</ele>
        <time>2022-08-10T11:02:49Z</time>
      </trkpt>
      <trkpt lat="45.06916" lon="0.55518">
        <ele>162.6</ele>
        <time>2022-08-10T11:02:51Z</time>
      </trkpt>
      <trkpt lat="45.06914" lon="0.5551">
        <ele>160.6</ele>
        <time>2022-08-10T11:02:53Z</time>
      </trkpt>
      <trkpt lat="45.0691" lon="0.55502">
        <ele>157.6</ele>
        <time>2022-08-10T11:02:55Z</time>
      </trkpt>
      <trkpt lat="45.06907" lon="0.55493">
        <ele>155.6</ele>
        <time>2022-08-10T11:02:57Z</time>
      </trkpt>
      <trkpt lat="45.06903" lon="0.55484">
        <ele>153.6</ele>
        <time>2022-08-10T11:02:59Z</time>
      </trkpt>
      <trkpt lat="45.06897" lon="0.55474">
        <ele>152.6</ele>
        <time>2022-08-10T11:03:01Z</time>
      </trkpt>
      <trkpt lat="45.06895" lon="0.55469">
        <ele>151.6</ele>
        <time>2022-08-10T11:03:02Z</time>
      </trkpt>
      <trkpt lat="45.0689" lon="0.55457">
        <ele>150.6</ele>
        <time>2022-08-10T11:03:04Z</time>
      </trkpt>
      <trkpt lat="45.06888" lon="0.55451">
        <ele>149.6</ele>
        <time>2022-08-10T11:03:05Z</time>
      </trkpt>
      <trkpt lat="45.06884" lon="0.55441">
        <ele>148.6</ele>
        <time>2022-08-10T11:03:07Z</time>
      </trkpt>
      <trkpt lat="45.06878" lon="0.55431">
        <ele>146.6</ele>
        <time>2022-08-10T11:03:09Z</time>
      </trkpt>
      <trkpt lat="45.06874" lon="0.55425">
        <ele>145.6</ele>
        <time>2022-08-10T11:03:10Z</time>
      </trkpt>
      <trkpt lat="45.0687" lon="0.55419">
        <ele>143.6</ele>
        <time>2022-08-10T11:03:11Z</time>
      </trkpt>
      <trkpt lat="45.06867" lon="0.55414">
        <ele>142.6</ele>
        <time>2022-08-10T11:03:12Z</time>
      </trkpt>
      <trkpt lat="45.06864" lon="0.55408">
        <ele>141.6</ele>
        <time>2022-08-10T11:03:13Z</time>
      </trkpt>
      <trkpt lat="45.06861" lon="0.55401">
        <ele>141.6</ele>
        <time>2022-08-10T11:03:14Z</time>
      </trkpt>
      <trkpt lat="45.06859" lon="0.55395">
        <ele>141.6</ele>
        <time>2022-08-10T11:03:15Z</time>
      </trkpt>
      <trkpt lat="45.06856" lon="0.55389">
        <ele>141.6</ele>
        <time>2022-08-10T11:03:17Z</time>
      </trkpt>
      <trkpt lat="45.06854" lon="0.55383">
        <ele>139.6</ele>
        <time>2022-08-10T11:03:20Z</time>
      </trkpt>
      <trkpt lat="45.06852" lon="0.55377">
        <ele>139.6</ele>
        <time>2022-08-10T11:03:22Z</time>
      </trkpt>
      <trkpt lat="45.06851" lon="0.55369">
        <ele>139.6</ele>
        <time>2022-08-10T11:03:24Z</time>
      </trkpt>
      <trkpt lat="45.06849" lon="0.55363">
        <ele>146.6</ele>
        <time>2022-08-10T11:03:52Z</time>
      </trkpt>
      <trkpt lat="45.06847" lon="0.55354">
        <ele>146.6</ele>
        <time>2022-08-10T11:04:10Z</time>
      </trkpt>
      <trkpt lat="45.06843" lon="0.55348">
        <ele>145.6</ele>
        <time>2022-08-10T11:04:12Z</time>
      </trkpt>
      <trkpt lat="45.06838" lon="0.5534">
        <ele>144.6</ele>
        <time>2022-08-10T11:04:14Z</time>
      </trkpt>
      <trkpt lat="45.06834" lon="0.55329">
        <ele>143.6</ele>
        <time>2022-08-10T11:04:16Z</time>
      </trkpt>
      <trkpt lat="45.06831" lon="0.55319">
        <ele>143.6</ele>
        <time>2022-08-10T11:04:18Z</time>
      </trkpt>
      <trkpt lat="45.06826" lon="0.55309">
        <ele>142.6</ele>
        <time>2022-08-10T11:04:20Z</time>
      </trkpt>
      <trkpt lat="45.06823" lon="0.55298">
        <ele>141.6</ele>
        <time>2022-08-10T11:04:22Z</time>
      </trkpt>
      <trkpt lat="45.06821" lon="0.55292">
        <ele>141.6</ele>
        <time>2022-08-10T11:04:23Z</time>
      </trkpt>
      <trkpt lat="45.0682" lon="0.55286">
        <ele>141.6</ele>
        <time>2022-08-10T11:04:24Z</time>
      </trkpt>
      <trkpt lat="45.06819" lon="0.55274">
        <ele>141.6</ele>
        <time>2022-08-10T11:04:26Z</time>
      </trkpt>
      <trkpt lat="45.06819" lon="0.55262">
        <ele>140.6</ele>
        <time>2022-08-10T11:04:28Z</time>
      </trkpt>
      <trkpt lat="45.06819" lon="0.55254">
        <ele>139.6</ele>
        <time>2022-08-10T11:04:29Z</time>
      </trkpt>
      <trkpt lat="45.06817" lon="0.55247">
        <ele>139.6</ele>
        <time>2022-08-10T11:04:30Z</time>
      </trkpt>
      <trkpt lat="45.06814" lon="0.55236">
        <ele>137.6</ele>
        <time>2022-08-10T11:04:32Z</time>
      </trkpt>
      <trkpt lat="45.06809" lon="0.55221">
        <ele>135.6</ele>
        <time>2022-08-10T11:04:34Z</time>
      </trkpt>
      <trkpt lat="45.06808" lon="0.55214">
        <ele>135.6</ele>
        <time>2022-08-10T11:04:35Z</time>
      </trkpt>
      <trkpt lat="45.06807" lon="0.55207">
        <ele>134.6</ele>
        <time>2022-08-10T11:04:36Z</time>
      </trkpt>
      <trkpt lat="45.06805" lon="0.552">
        <ele>133.6</ele>
        <time>2022-08-10T11:04:37Z</time>
      </trkpt>
      <trkpt lat="45.06803" lon="0.55184">
        <ele>134.6</ele>
        <time>2022-08-10T11:04:39Z</time>
      </trkpt>
      <trkpt lat="45.06802" lon="0.55177">
        <ele>134.6</ele>
        <time>2022-08-10T11:04:40Z</time>
      </trkpt>
      <trkpt lat="45.06798" lon="0.55166">
        <ele>133.6</ele>
        <time>2022-08-10T11:04:42Z</time>
      </trkpt>
      <trkpt lat="45.06795" lon="0.55161">
        <ele>132.6</ele>
        <time>2022-08-10T11:04:44Z</time>
      </trkpt>
      <trkpt lat="45.06791" lon="0.55155">
        <ele>131.6</ele>
        <time>2022-08-10T11:04:46Z</time>
      </trkpt>
      <trkpt lat="45.06789" lon="0.55147">
        <ele>131.6</ele>
        <time>2022-08-10T11:04:48Z</time>
      </trkpt>
      <trkpt lat="45.06789" lon="0.55137">
        <ele>130.6</ele>
        <time>2022-08-10T11:04:50Z</time>
      </trkpt>
      <trkpt lat="45.06789" lon="0.55128">
        <ele>130.6</ele>
        <time>2022-08-10T11:04:52Z</time>
      </trkpt>
      <trkpt lat="45.0679" lon="0.55118">
        <ele>129.6</ele>
        <time>2022-08-10T11:04:54Z</time>
      </trkpt>
      <trkpt lat="45.06791" lon="0.5511">
        <ele>129.6</ele>
        <time>2022-08-10T11:04:56Z</time>
      </trkpt>
      <trkpt lat="45.06792" lon="0.55101">
        <ele>129.6</ele>
        <time>2022-08-10T11:04:58Z</time>
      </trkpt>
      <trkpt lat="45.06793" lon="0.55092">
        <ele>128.6</ele>
        <time>2022-08-10T11:05:00Z</time>
      </trkpt>
      <trkpt lat="45.06794" lon="0.55082">
        <ele>128.6</ele>
        <time>2022-08-10T11:05:02Z</time>
      </trkpt>
      <trkpt lat="45.06794" lon="0.55071">
        <ele>128.6</ele>
        <time>2022-08-10T11:05:04Z</time>
      </trkpt>
      <trkpt lat="45.06794" lon="0.55058">
        <ele>127.6</ele>
        <time>2022-08-10T11:05:06Z</time>
      </trkpt>
      <trkpt lat="45.06794" lon="0.5505">
        <ele>127.6</ele>
        <time>2022-08-10T11:05:07Z</time>
      </trkpt>
      <trkpt lat="45.06796" lon="0.55041">
        <ele>127.6</ele>
        <time>2022-08-10T11:05:08Z</time>
      </trkpt>
      <trkpt lat="45.06796" lon="0.55033">
        <ele>127.6</ele>
        <time>2022-08-10T11:05:09Z</time>
      </trkpt>
      <trkpt lat="45.06797" lon="0.55026">
        <ele>127.6</ele>
        <time>2022-08-10T11:05:10Z</time>
      </trkpt>
      <trkpt lat="45.06795" lon="0.55011">
        <ele>127.6</ele>
        <time>2022-08-10T11:05:13Z</time>
      </trkpt>
      <trkpt lat="45.06791" lon="0.55004">
        <ele>127.6</ele>
        <time>2022-08-10T11:05:15Z</time>
      </trkpt>
      <trkpt lat="45.06784" lon="0.54996">
        <ele>127.6</ele>
        <time>2022-08-10T11:05:17Z</time>
      </trkpt>
      <trkpt lat="45.06778" lon="0.54987">
        <ele>126.6</ele>
        <time>2022-08-10T11:05:19Z</time>
      </trkpt>
      <trkpt lat="45.06771" lon="0.54981">
        <ele>126.6</ele>
        <time>2022-08-10T11:05:21Z</time>
      </trkpt>
      <trkpt lat="45.06765" lon="0.54976">
        <ele>125.6</ele>
        <time>2022-08-10T11:05:23Z</time>
      </trkpt>
      <trkpt lat="45.06759" lon="0.54973">
        <ele>125.6</ele>
        <time>2022-08-10T11:05:25Z</time>
      </trkpt>
      <trkpt lat="45.06752" lon="0.54971">
        <ele>125.6</ele>
        <time>2022-08-10T11:05:27Z</time>
      </trkpt>
      <trkpt lat="45.06743" lon="0.5497">
        <ele>125.6</ele>
        <time>2022-08-10T11:05:29Z</time>
      </trkpt>
      <trkpt lat="45.06739" lon="0.54969">
        <ele>125.6</ele>
        <time>2022-08-10T11:05:30Z</time>
      </trkpt>
      <trkpt lat="45.06732" lon="0.54967">
        <ele>126.6</ele>
        <time>2022-08-10T11:05:31Z</time>
      </trkpt>
      <trkpt lat="45.06726" lon="0.54966">
        <ele>126.6</ele>
        <time>2022-08-10T11:05:32Z</time>
      </trkpt>
      <trkpt lat="45.0672" lon="0.54964">
        <ele>126.6</ele>
        <time>2022-08-10T11:05:33Z</time>
      </trkpt>
      <trkpt lat="45.06714" lon="0.54963">
        <ele>126.6</ele>
        <time>2022-08-10T11:05:34Z</time>
      </trkpt>
      <trkpt lat="45.06707" lon="0.54961">
        <ele>125.6</ele>
        <time>2022-08-10T11:05:35Z</time>
      </trkpt>
      <trkpt lat="45.06701" lon="0.5496">
        <ele>124.6</ele>
        <time>2022-08-10T11:05:36Z</time>
      </trkpt>
      <trkpt lat="45.06695" lon="0.54958">
        <ele>123.6</ele>
        <time>2022-08-10T11:05:37Z</time>
      </trkpt>
      <trkpt lat="45.06689" lon="0.54955">
        <ele>122.6</ele>
        <time>2022-08-10T11:05:38Z</time>
      </trkpt>
      <trkpt lat="45.06683" lon="0.54952">
        <ele>122.6</ele>
        <time>2022-08-10T11:05:39Z</time>
      </trkpt>
      <trkpt lat="45.06677" lon="0.54947">
        <ele>122.6</ele>
        <time>2022-08-10T11:05:40Z</time>
      </trkpt>
      <trkpt lat="45.06671" lon="0.54942">
        <ele>122.6</ele>
        <time>2022-08-10T11:05:41Z</time>
      </trkpt>
      <trkpt lat="45.06665" lon="0.54937">
        <ele>122.6</ele>
        <time>2022-08-10T11:05:42Z</time>
      </trkpt>
      <trkpt lat="45.0666" lon="0.54932">
        <ele>121.6</ele>
        <time>2022-08-10T11:05:43Z</time>
      </trkpt>
      <trkpt lat="45.06654" lon="0.54928">
        <ele>120.6</ele>
        <time>2022-08-10T11:05:44Z</time>
      </trkpt>
      <trkpt lat="45.06648" lon="0.54923">
        <ele>120.6</ele>
        <time>2022-08-10T11:05:45Z</time>
      </trkpt>
      <trkpt lat="45.06641" lon="0.54917">
        <ele>120.6</ele>
        <time>2022-08-10T11:05:46Z</time>
      </trkpt>
      <trkpt lat="45.06634" lon="0.54912">
        <ele>119.6</ele>
        <time>2022-08-10T11:05:47Z</time>
      </trkpt>
      <trkpt lat="45.06627" lon="0.54908">
        <ele>119.6</ele>
        <time>2022-08-10T11:05:48Z</time>
      </trkpt>
      <trkpt lat="45.06621" lon="0.54904">
        <ele>118.6</ele>
        <time>2022-08-10T11:05:49Z</time>
      </trkpt>
      <trkpt lat="45.06617" lon="0.54903">
        <ele>118.6</ele>
        <time>2022-08-10T11:05:50Z</time>
      </trkpt>
      <trkpt lat="45.06609" lon="0.54903">
        <ele>117.6</ele>
        <time>2022-08-10T11:05:52Z</time>
      </trkpt>
      <trkpt lat="45.06601" lon="0.54902">
        <ele>117.6</ele>
        <time>2022-08-10T11:05:54Z</time>
      </trkpt>
      <trkpt lat="45.06595" lon="0.549">
        <ele>117.6</ele>
        <time>2022-08-10T11:05:55Z</time>
      </trkpt>
      <trkpt lat="45.0659" lon="0.54898">
        <ele>117.6</ele>
        <time>2022-08-10T11:05:56Z</time>
      </trkpt>
      <trkpt lat="45.06584" lon="0.54896">
        <ele>117.6</ele>
        <time>2022-08-10T11:05:57Z</time>
      </trkpt>
      <trkpt lat="45.06578" lon="0.54893">
        <ele>118.6</ele>
        <time>2022-08-10T11:05:58Z</time>
      </trkpt>
      <trkpt lat="45.06573" lon="0.54891">
        <ele>118.6</ele>
        <time>2022-08-10T11:05:59Z</time>
      </trkpt>
      <trkpt lat="45.06568" lon="0.54888">
        <ele>118.6</ele>
        <time>2022-08-10T11:06:00Z</time>
      </trkpt>
      <trkpt lat="45.06563" lon="0.54886">
        <ele>117.6</ele>
        <time>2022-08-10T11:06:01Z</time>
      </trkpt>
      <trkpt lat="45.06559" lon="0.54884">
        <ele>117.6</ele>
        <time>2022-08-10T11:06:02Z</time>
      </trkpt>
      <trkpt lat="45.06554" lon="0.54881">
        <ele>117.6</ele>
        <time>2022-08-10T11:06:03Z</time>
      </trkpt>
      <trkpt lat="45.0655" lon="0.5488">
        <ele>117.6</ele>
        <time>2022-08-10T11:06:04Z</time>
      </trkpt>
      <trkpt lat="45.06545" lon="0.54878">
        <ele>117.6</ele>
        <time>2022-08-10T11:06:05Z</time>
      </trkpt>
      <trkpt lat="45.06541" lon="0.54876">
        <ele>116.6</ele>
        <time>2022-08-10T11:06:06Z</time>
      </trkpt>
      <trkpt lat="45.06536" lon="0.54874">
        <ele>116.6</ele>
        <time>2022-08-10T11:06:07Z</time>
      </trkpt>
      <trkpt lat="45.06527" lon="0.54869">
        <ele>116.6</ele>
        <time>2022-08-10T11:06:09Z</time>
      </trkpt>
      <trkpt lat="45.06518" lon="0.54865">
        <ele>116.6</ele>
        <time>2022-08-10T11:06:11Z</time>
      </trkpt>
      <trkpt lat="45.06514" lon="0.54863">
        <ele>116.6</ele>
        <time>2022-08-10T11:06:12Z</time>
      </trkpt>
      <trkpt lat="45.06509" lon="0.54861">
        <ele>116.6</ele>
        <time>2022-08-10T11:06:13Z</time>
      </trkpt>
      <trkpt lat="45.06505" lon="0.54858">
        <ele>116.6</ele>
        <time>2022-08-10T11:06:14Z</time>
      </trkpt>
      <trkpt lat="45.06501" lon="0.54856">
        <ele>115.6</ele>
        <time>2022-08-10T11:06:15Z</time>
      </trkpt>
      <trkpt lat="45.06496" lon="0.54854">
        <ele>115.6</ele>
        <time>2022-08-10T11:06:16Z</time>
      </trkpt>
      <trkpt lat="45.06491" lon="0.54851">
        <ele>115.6</ele>
        <time>2022-08-10T11:06:17Z</time>
      </trkpt>
      <trkpt lat="45.06486" lon="0.54848">
        <ele>114.6</ele>
        <time>2022-08-10T11:06:18Z</time>
      </trkpt>
      <trkpt lat="45.06481" lon="0.54846">
        <ele>114.6</ele>
        <time>2022-08-10T11:06:19Z</time>
      </trkpt>
      <trkpt lat="45.06477" lon="0.54844">
        <ele>114.6</ele>
        <time>2022-08-10T11:06:20Z</time>
      </trkpt>
      <trkpt lat="45.06472" lon="0.54842">
        <ele>114.6</ele>
        <time>2022-08-10T11:06:21Z</time>
      </trkpt>
      <trkpt lat="45.06463" lon="0.54839">
        <ele>114.6</ele>
        <time>2022-08-10T11:06:23Z</time>
      </trkpt>
      <trkpt lat="45.06458" lon="0.54838">
        <ele>114.6</ele>
        <time>2022-08-10T11:06:24Z</time>
      </trkpt>
      <trkpt lat="45.06453" lon="0.54837">
        <ele>113.6</ele>
        <time>2022-08-10T11:06:25Z</time>
      </trkpt>
      <trkpt lat="45.06448" lon="0.54836">
        <ele>113.6</ele>
        <time>2022-08-10T11:06:26Z</time>
      </trkpt>
      <trkpt lat="45.06443" lon="0.54835">
        <ele>112.6</ele>
        <time>2022-08-10T11:06:27Z</time>
      </trkpt>
      <trkpt lat="45.06438" lon="0.54834">
        <ele>112.6</ele>
        <time>2022-08-10T11:06:28Z</time>
      </trkpt>
      <trkpt lat="45.06433" lon="0.54832">
        <ele>112.6</ele>
        <time>2022-08-10T11:06:29Z</time>
      </trkpt>
      <trkpt lat="45.06427" lon="0.54831">
        <ele>112.6</ele>
        <time>2022-08-10T11:06:30Z</time>
      </trkpt>
      <trkpt lat="45.0642" lon="0.54829">
        <ele>111.6</ele>
        <time>2022-08-10T11:06:31Z</time>
      </trkpt>
      <trkpt lat="45.06414" lon="0.54828">
        <ele>110.6</ele>
        <time>2022-08-10T11:06:32Z</time>
      </trkpt>
      <trkpt lat="45.06408" lon="0.54826">
        <ele>110.6</ele>
        <time>2022-08-10T11:06:33Z</time>
      </trkpt>
      <trkpt lat="45.06402" lon="0.54824">
        <ele>110.6</ele>
        <time>2022-08-10T11:06:34Z</time>
      </trkpt>
      <trkpt lat="45.06397" lon="0.54823">
        <ele>110.6</ele>
        <time>2022-08-10T11:06:35Z</time>
      </trkpt>
      <trkpt lat="45.06391" lon="0.54823">
        <ele>110.6</ele>
        <time>2022-08-10T11:06:36Z</time>
      </trkpt>
      <trkpt lat="45.06385" lon="0.54824">
        <ele>109.6</ele>
        <time>2022-08-10T11:06:37Z</time>
      </trkpt>
      <trkpt lat="45.0638" lon="0.54825">
        <ele>109.6</ele>
        <time>2022-08-10T11:06:38Z</time>
      </trkpt>
      <trkpt lat="45.06374" lon="0.54826">
        <ele>109.6</ele>
        <time>2022-08-10T11:06:39Z</time>
      </trkpt>
      <trkpt lat="45.06369" lon="0.54827">
        <ele>108.6</ele>
        <time>2022-08-10T11:06:40Z</time>
      </trkpt>
      <trkpt lat="45.06364" lon="0.54828">
        <ele>108.6</ele>
        <time>2022-08-10T11:06:41Z</time>
      </trkpt>
      <trkpt lat="45.06356" lon="0.54828">
        <ele>107.6</ele>
        <time>2022-08-10T11:06:43Z</time>
      </trkpt>
      <trkpt lat="45.06352" lon="0.54825">
        <ele>107.6</ele>
        <time>2022-08-10T11:06:44Z</time>
      </trkpt>
      <trkpt lat="45.06348" lon="0.54819">
        <ele>107.6</ele>
        <time>2022-08-10T11:06:45Z</time>
      </trkpt>
      <trkpt lat="45.06344" lon="0.54813">
        <ele>107.6</ele>
        <time>2022-08-10T11:06:46Z</time>
      </trkpt>
      <trkpt lat="45.06339" lon="0.54807">
        <ele>108.6</ele>
        <time>2022-08-10T11:06:47Z</time>
      </trkpt>
      <trkpt lat="45.06334" lon="0.54803">
        <ele>107.6</ele>
        <time>2022-08-10T11:06:48Z</time>
      </trkpt>
      <trkpt lat="45.0633" lon="0.54798">
        <ele>108.6</ele>
        <time>2022-08-10T11:06:49Z</time>
      </trkpt>
      <trkpt lat="45.06325" lon="0.54794">
        <ele>108.6</ele>
        <time>2022-08-10T11:06:50Z</time>
      </trkpt>
      <trkpt lat="45.06321" lon="0.54791">
        <ele>109.6</ele>
        <time>2022-08-10T11:06:51Z</time>
      </trkpt>
      <trkpt lat="45.06317" lon="0.54787">
        <ele>108.6</ele>
        <time>2022-08-10T11:06:52Z</time>
      </trkpt>
      <trkpt lat="45.06313" lon="0.54783">
        <ele>108.6</ele>
        <time>2022-08-10T11:06:53Z</time>
      </trkpt>
      <trkpt lat="45.06309" lon="0.54778">
        <ele>107.6</ele>
        <time>2022-08-10T11:06:54Z</time>
      </trkpt>
      <trkpt lat="45.06304" lon="0.54772">
        <ele>107.6</ele>
        <time>2022-08-10T11:06:55Z</time>
      </trkpt>
      <trkpt lat="45.063" lon="0.54766">
        <ele>108.6</ele>
        <time>2022-08-10T11:06:56Z</time>
      </trkpt>
      <trkpt lat="45.06297" lon="0.5476">
        <ele>108.6</ele>
        <time>2022-08-10T11:06:57Z</time>
      </trkpt>
      <trkpt lat="45.06293" lon="0.54754">
        <ele>108.6</ele>
        <time>2022-08-10T11:06:58Z</time>
      </trkpt>
      <trkpt lat="45.0629" lon="0.54748">
        <ele>108.6</ele>
        <time>2022-08-10T11:06:59Z</time>
      </trkpt>
      <trkpt lat="45.06287" lon="0.54743">
        <ele>108.6</ele>
        <time>2022-08-10T11:07:00Z</time>
      </trkpt>
      <trkpt lat="45.06282" lon="0.54732">
        <ele>108.6</ele>
        <time>2022-08-10T11:07:02Z</time>
      </trkpt>
      <trkpt lat="45.0628" lon="0.54727">
        <ele>108.6</ele>
        <time>2022-08-10T11:07:03Z</time>
      </trkpt>
      <trkpt lat="45.06277" lon="0.54721">
        <ele>108.6</ele>
        <time>2022-08-10T11:07:04Z</time>
      </trkpt>
      <trkpt lat="45.06273" lon="0.54715">
        <ele>108.6</ele>
        <time>2022-08-10T11:07:05Z</time>
      </trkpt>
      <trkpt lat="45.0627" lon="0.54709">
        <ele>108.6</ele>
        <time>2022-08-10T11:07:06Z</time>
      </trkpt>
      <trkpt lat="45.06267" lon="0.54704">
        <ele>108.6</ele>
        <time>2022-08-10T11:07:07Z</time>
      </trkpt>
      <trkpt lat="45.06264" lon="0.54698">
        <ele>108.6</ele>
        <time>2022-08-10T11:07:08Z</time>
      </trkpt>
      <trkpt lat="45.06261" lon="0.54692">
        <ele>108.6</ele>
        <time>2022-08-10T11:07:09Z</time>
      </trkpt>
      <trkpt lat="45.06258" lon="0.54686">
        <ele>107.6</ele>
        <time>2022-08-10T11:07:10Z</time>
      </trkpt>
      <trkpt lat="45.06255" lon="0.54679">
        <ele>107.6</ele>
        <time>2022-08-10T11:07:11Z</time>
      </trkpt>
      <trkpt lat="45.06253" lon="0.54672">
        <ele>108.6</ele>
        <time>2022-08-10T11:07:12Z</time>
      </trkpt>
      <trkpt lat="45.06251" lon="0.54665">
        <ele>108.6</ele>
        <time>2022-08-10T11:07:13Z</time>
      </trkpt>
      <trkpt lat="45.0625" lon="0.54658">
        <ele>108.6</ele>
        <time>2022-08-10T11:07:14Z</time>
      </trkpt>
      <trkpt lat="45.06248" lon="0.54652">
        <ele>108.6</ele>
        <time>2022-08-10T11:07:15Z</time>
      </trkpt>
      <trkpt lat="45.06247" lon="0.54645">
        <ele>108.6</ele>
        <time>2022-08-10T11:07:16Z</time>
      </trkpt>
      <trkpt lat="45.06245" lon="0.54638">
        <ele>108.6</ele>
        <time>2022-08-10T11:07:17Z</time>
      </trkpt>
      <trkpt lat="45.06244" lon="0.54631">
        <ele>108.6</ele>
        <time>2022-08-10T11:07:18Z</time>
      </trkpt>
      <trkpt lat="45.06242" lon="0.54624">
        <ele>108.6</ele>
        <time>2022-08-10T11:07:19Z</time>
      </trkpt>
      <trkpt lat="45.06241" lon="0.54617">
        <ele>108.6</ele>
        <time>2022-08-10T11:07:20Z</time>
      </trkpt>
      <trkpt lat="45.06239" lon="0.54611">
        <ele>108.6</ele>
        <time>2022-08-10T11:07:21Z</time>
      </trkpt>
      <trkpt lat="45.06234" lon="0.54606">
        <ele>108.6</ele>
        <time>2022-08-10T11:07:23Z</time>
      </trkpt>
      <trkpt lat="45.06227" lon="0.54607">
        <ele>107.6</ele>
        <time>2022-08-10T11:07:25Z</time>
      </trkpt>
      <trkpt lat="45.0622" lon="0.54612">
        <ele>106.6</ele>
        <time>2022-08-10T11:07:27Z</time>
      </trkpt>
      <trkpt lat="45.06212" lon="0.54616">
        <ele>106.6</ele>
        <time>2022-08-10T11:07:29Z</time>
      </trkpt>
      <trkpt lat="45.06205" lon="0.54619">
        <ele>105.6</ele>
        <time>2022-08-10T11:07:31Z</time>
      </trkpt>
      <trkpt lat="45.06198" lon="0.54621">
        <ele>105.6</ele>
        <time>2022-08-10T11:07:33Z</time>
      </trkpt>
      <trkpt lat="45.06191" lon="0.54623">
        <ele>105.6</ele>
        <time>2022-08-10T11:07:35Z</time>
      </trkpt>
      <trkpt lat="45.06185" lon="0.54627">
        <ele>105.6</ele>
        <time>2022-08-10T11:07:38Z</time>
      </trkpt>
      <trkpt lat="45.06181" lon="0.54629">
        <ele>103.6</ele>
        <time>2022-08-10T11:07:53Z</time>
      </trkpt>
      <trkpt lat="45.06176" lon="0.54629">
        <ele>103.6</ele>
        <time>2022-08-10T11:07:56Z</time>
      </trkpt>
      <trkpt lat="45.06171" lon="0.5463">
        <ele>103.6</ele>
        <time>2022-08-10T11:07:59Z</time>
      </trkpt>
      <trkpt lat="45.06166" lon="0.54629">
        <ele>103.6</ele>
        <time>2022-08-10T11:08:02Z</time>
      </trkpt>
      <trkpt lat="45.0616" lon="0.5463">
        <ele>102.6</ele>
        <time>2022-08-10T11:08:05Z</time>
      </trkpt>
      <trkpt lat="45.06155" lon="0.54629">
        <ele>103.6</ele>
        <time>2022-08-10T11:08:08Z</time>
      </trkpt>
      <trkpt lat="45.06149" lon="0.54629">
        <ele>103.6</ele>
        <time>2022-08-10T11:08:11Z</time>
      </trkpt>
      <trkpt lat="45.06143" lon="0.54628">
        <ele>103.6</ele>
        <time>2022-08-10T11:08:14Z</time>
      </trkpt>
      <trkpt lat="45.06137" lon="0.54629">
        <ele>104.6</ele>
        <time>2022-08-10T11:08:17Z</time>
      </trkpt>
      <trkpt lat="45.06131" lon="0.54627">
        <ele>106.6</ele>
        <time>2022-08-10T11:08:20Z</time>
      </trkpt>
      <trkpt lat="45.06126" lon="0.54627">
        <ele>106.6</ele>
        <time>2022-08-10T11:08:22Z</time>
      </trkpt>
      <trkpt lat="45.06122" lon="0.54627">
        <ele>107.6</ele>
        <time>2022-08-10T11:08:24Z</time>
      </trkpt>
      <trkpt lat="45.06115" lon="0.54628">
        <ele>109.6</ele>
        <time>2022-08-10T11:08:27Z</time>
      </trkpt>
      <trkpt lat="45.0611" lon="0.54629">
        <ele>109.6</ele>
        <time>2022-08-10T11:08:29Z</time>
      </trkpt>
      <trkpt lat="45.06106" lon="0.5463">
        <ele>110.6</ele>
        <time>2022-08-10T11:08:31Z</time>
      </trkpt>
      <trkpt lat="45.06101" lon="0.54631">
        <ele>110.6</ele>
        <time>2022-08-10T11:08:33Z</time>
      </trkpt>
      <trkpt lat="45.06097" lon="0.54631">
        <ele>110.6</ele>
        <time>2022-08-10T11:08:35Z</time>
      </trkpt>
      <trkpt lat="45.06092" lon="0.54631">
        <ele>111.6</ele>
        <time>2022-08-10T11:08:37Z</time>
      </trkpt>
      <trkpt lat="45.06087" lon="0.54631">
        <ele>111.6</ele>
        <time>2022-08-10T11:08:39Z</time>
      </trkpt>
      <trkpt lat="45.06082" lon="0.54632">
        <ele>112.6</ele>
        <time>2022-08-10T11:08:41Z</time>
      </trkpt>
      <trkpt lat="45.06077" lon="0.54634">
        <ele>113.6</ele>
        <time>2022-08-10T11:08:43Z</time>
      </trkpt>
      <trkpt lat="45.06071" lon="0.54635">
        <ele>113.6</ele>
        <time>2022-08-10T11:08:46Z</time>
      </trkpt>
      <trkpt lat="45.06064" lon="0.54636">
        <ele>114.6</ele>
        <time>2022-08-10T11:08:49Z</time>
      </trkpt>
      <trkpt lat="45.06058" lon="0.54637">
        <ele>115.6</ele>
        <time>2022-08-10T11:08:52Z</time>
      </trkpt>
      <trkpt lat="45.06051" lon="0.54639">
        <ele>115.6</ele>
        <time>2022-08-10T11:08:55Z</time>
      </trkpt>
      <trkpt lat="45.06046" lon="0.54643">
        <ele>117.6</ele>
        <time>2022-08-10T11:08:58Z</time>
      </trkpt>
      <trkpt lat="45.0604" lon="0.54647">
        <ele>118.6</ele>
        <time>2022-08-10T11:09:01Z</time>
      </trkpt>
      <trkpt lat="45.06036" lon="0.5465">
        <ele>119.6</ele>
        <time>2022-08-10T11:09:03Z</time>
      </trkpt>
      <trkpt lat="45.06033" lon="0.54653">
        <ele>120.6</ele>
        <time>2022-08-10T11:09:05Z</time>
      </trkpt>
      <trkpt lat="45.06026" lon="0.54655">
        <ele>121.6</ele>
        <time>2022-08-10T11:09:08Z</time>
      </trkpt>
      <trkpt lat="45.06021" lon="0.54654">
        <ele>120.6</ele>
        <time>2022-08-10T11:09:10Z</time>
      </trkpt>
      <trkpt lat="45.06016" lon="0.54655">
        <ele>120.6</ele>
        <time>2022-08-10T11:09:12Z</time>
      </trkpt>
      <trkpt lat="45.06011" lon="0.54657">
        <ele>120.6</ele>
        <time>2022-08-10T11:09:14Z</time>
      </trkpt>
      <trkpt lat="45.06006" lon="0.54659">
        <ele>120.6</ele>
        <time>2022-08-10T11:09:16Z</time>
      </trkpt>
      <trkpt lat="45.06001" lon="0.54661">
        <ele>120.6</ele>
        <time>2022-08-10T11:09:18Z</time>
      </trkpt>
      <trkpt lat="45.05995" lon="0.54664">
        <ele>120.6</ele>
        <time>2022-08-10T11:09:20Z</time>
      </trkpt>
      <trkpt lat="45.05989" lon="0.54666">
        <ele>120.6</ele>
        <time>2022-08-10T11:09:22Z</time>
      </trkpt>
      <trkpt lat="45.05983" lon="0.5467">
        <ele>120.6</ele>
        <time>2022-08-10T11:09:24Z</time>
      </trkpt>
      <trkpt lat="45.05975" lon="0.54674">
        <ele>121.6</ele>
        <time>2022-08-10T11:09:26Z</time>
      </trkpt>
      <trkpt lat="45.0597" lon="0.54677">
        <ele>121.6</ele>
        <time>2022-08-10T11:09:27Z</time>
      </trkpt>
      <trkpt lat="45.05965" lon="0.5468">
        <ele>121.6</ele>
        <time>2022-08-10T11:09:28Z</time>
      </trkpt>
      <trkpt lat="45.0596" lon="0.54683">
        <ele>121.6</ele>
        <time>2022-08-10T11:09:29Z</time>
      </trkpt>
      <trkpt lat="45.05954" lon="0.54685">
        <ele>121.6</ele>
        <time>2022-08-10T11:09:30Z</time>
      </trkpt>
      <trkpt lat="45.05947" lon="0.54688">
        <ele>121.6</ele>
        <time>2022-08-10T11:09:31Z</time>
      </trkpt>
      <trkpt lat="45.0594" lon="0.54692">
        <ele>120.6</ele>
        <time>2022-08-10T11:09:32Z</time>
      </trkpt>
      <trkpt lat="45.05933" lon="0.54695">
        <ele>120.6</ele>
        <time>2022-08-10T11:09:33Z</time>
      </trkpt>
      <trkpt lat="45.05926" lon="0.54698">
        <ele>119.6</ele>
        <time>2022-08-10T11:09:34Z</time>
      </trkpt>
      <trkpt lat="45.05921" lon="0.547">
        <ele>118.6</ele>
        <time>2022-08-10T11:09:35Z</time>
      </trkpt>
      <trkpt lat="45.05916" lon="0.54703">
        <ele>117.6</ele>
        <time>2022-08-10T11:09:36Z</time>
      </trkpt>
      <trkpt lat="45.05909" lon="0.54707">
        <ele>116.6</ele>
        <time>2022-08-10T11:09:38Z</time>
      </trkpt>
      <trkpt lat="45.05904" lon="0.54705">
        <ele>116.6</ele>
        <time>2022-08-10T11:09:40Z</time>
      </trkpt>
      <trkpt lat="45.05899" lon="0.54702">
        <ele>117.6</ele>
        <time>2022-08-10T11:09:43Z</time>
      </trkpt>
      <trkpt lat="45.05894" lon="0.54706">
        <ele>116.6</ele>
        <time>2022-08-10T11:09:47Z</time>
      </trkpt>
      <trkpt lat="45.0589" lon="0.54709">
        <ele>115.6</ele>
        <time>2022-08-10T11:09:51Z</time>
      </trkpt>
      <trkpt lat="45.05885" lon="0.5471">
        <ele>115.6</ele>
        <time>2022-08-10T11:09:56Z</time>
      </trkpt>
      <trkpt lat="45.05881" lon="0.54712">
        <ele>114.6</ele>
        <time>2022-08-10T11:09:59Z</time>
      </trkpt>
      <trkpt lat="45.05876" lon="0.54715">
        <ele>114.6</ele>
        <time>2022-08-10T11:10:05Z</time>
      </trkpt>
      <trkpt lat="45.05872" lon="0.54721">
        <ele>114.6</ele>
        <time>2022-08-10T11:10:09Z</time>
      </trkpt>
      <trkpt lat="45.05869" lon="0.54725">
        <ele>113.6</ele>
        <time>2022-08-10T11:10:18Z</time>
      </trkpt>
      <trkpt lat="45.05864" lon="0.54729">
        <ele>113.6</ele>
        <time>2022-08-10T11:10:21Z</time>
      </trkpt>
      <trkpt lat="45.05858" lon="0.54733">
        <ele>113.6</ele>
        <time>2022-08-10T11:10:24Z</time>
      </trkpt>
      <trkpt lat="45.05853" lon="0.54736">
        <ele>113.6</ele>
        <time>2022-08-10T11:10:27Z</time>
      </trkpt>
      <trkpt lat="45.05849" lon="0.54738">
        <ele>112.6</ele>
        <time>2022-08-10T11:10:31Z</time>
      </trkpt>
      <trkpt lat="45.05843" lon="0.54741">
        <ele>112.6</ele>
        <time>2022-08-10T11:10:34Z</time>
      </trkpt>
      <trkpt lat="45.05838" lon="0.54744">
        <ele>112.6</ele>
        <time>2022-08-10T11:10:36Z</time>
      </trkpt>
      <trkpt lat="45.05832" lon="0.54746">
        <ele>112.6</ele>
        <time>2022-08-10T11:10:41Z</time>
      </trkpt>
      <trkpt lat="45.05827" lon="0.54747">
        <ele>112.6</ele>
        <time>2022-08-10T11:10:44Z</time>
      </trkpt>
      <trkpt lat="45.05822" lon="0.54749">
        <ele>112.6</ele>
        <time>2022-08-10T11:10:48Z</time>
      </trkpt>
      <trkpt lat="45.05816" lon="0.54752">
        <ele>112.6</ele>
        <time>2022-08-10T11:10:53Z</time>
      </trkpt>
      <trkpt lat="45.05811" lon="0.54753">
        <ele>112.6</ele>
        <time>2022-08-10T11:10:56Z</time>
      </trkpt>
      <trkpt lat="45.05806" lon="0.54755">
        <ele>113.6</ele>
        <time>2022-08-10T11:11:00Z</time>
      </trkpt>
      <trkpt lat="45.058" lon="0.54757">
        <ele>112.6</ele>
        <time>2022-08-10T11:11:04Z</time>
      </trkpt>
      <trkpt lat="45.05795" lon="0.54758">
        <ele>112.6</ele>
        <time>2022-08-10T11:11:07Z</time>
      </trkpt>
      <trkpt lat="45.0579" lon="0.54761">
        <ele>113.6</ele>
        <time>2022-08-10T11:11:11Z</time>
      </trkpt>
      <trkpt lat="45.05785" lon="0.54765">
        <ele>113.6</ele>
        <time>2022-08-10T11:11:16Z</time>
      </trkpt>
      <trkpt lat="45.05781" lon="0.54768">
        <ele>113.6</ele>
        <time>2022-08-10T11:11:21Z</time>
      </trkpt>
      <trkpt lat="45.05778" lon="0.54772">
        <ele>112.6</ele>
        <time>2022-08-10T11:11:24Z</time>
      </trkpt>
      <trkpt lat="45.05773" lon="0.54775">
        <ele>111.6</ele>
        <time>2022-08-10T11:11:29Z</time>
      </trkpt>
      <trkpt lat="45.05768" lon="0.54778">
        <ele>109.6</ele>
        <time>2022-08-10T11:11:34Z</time>
      </trkpt>
      <trkpt lat="45.05762" lon="0.54781">
        <ele>109.6</ele>
        <time>2022-08-10T11:11:39Z</time>
      </trkpt>
      <trkpt lat="45.05757" lon="0.54783">
        <ele>109.6</ele>
        <time>2022-08-10T11:11:44Z</time>
      </trkpt>
      <trkpt lat="45.05752" lon="0.54785">
        <ele>109.6</ele>
        <time>2022-08-10T11:11:48Z</time>
      </trkpt>
      <trkpt lat="45.05748" lon="0.54789">
        <ele>109.6</ele>
        <time>2022-08-10T11:11:51Z</time>
      </trkpt>
      <trkpt lat="45.05743" lon="0.54792">
        <ele>110.6</ele>
        <time>2022-08-10T11:11:55Z</time>
      </trkpt>
      <trkpt lat="45.05738" lon="0.54795">
        <ele>110.6</ele>
        <time>2022-08-10T11:11:59Z</time>
      </trkpt>
      <trkpt lat="45.05732" lon="0.54797">
        <ele>111.6</ele>
        <time>2022-08-10T11:12:02Z</time>
      </trkpt>
      <trkpt lat="45.05727" lon="0.54798">
        <ele>113.6</ele>
        <time>2022-08-10T11:12:06Z</time>
      </trkpt>
      <trkpt lat="45.05723" lon="0.54802">
        <ele>114.6</ele>
        <time>2022-08-10T11:12:10Z</time>
      </trkpt>
      <trkpt lat="45.0572" lon="0.54808">
        <ele>115.6</ele>
        <time>2022-08-10T11:12:12Z</time>
      </trkpt>
      <trkpt lat="45.05717" lon="0.54814">
        <ele>115.6</ele>
        <time>2022-08-10T11:12:14Z</time>
      </trkpt>
      <trkpt lat="45.05714" lon="0.5482">
        <ele>115.6</ele>
        <time>2022-08-10T11:12:16Z</time>
      </trkpt>
      <trkpt lat="45.05711" lon="0.54825">
        <ele>116.6</ele>
        <time>2022-08-10T11:12:18Z</time>
      </trkpt>
      <trkpt lat="45.05707" lon="0.54831">
        <ele>117.6</ele>
        <time>2022-08-10T11:12:20Z</time>
      </trkpt>
      <trkpt lat="45.05704" lon="0.54837">
        <ele>118.6</ele>
        <time>2022-08-10T11:12:22Z</time>
      </trkpt>
      <trkpt lat="45.05703" lon="0.54843">
        <ele>118.6</ele>
        <time>2022-08-10T11:12:24Z</time>
      </trkpt>
      <trkpt lat="45.057" lon="0.54852">
        <ele>119.6</ele>
        <time>2022-08-10T11:12:26Z</time>
      </trkpt>
      <trkpt lat="45.05696" lon="0.54862">
        <ele>120.6</ele>
        <time>2022-08-10T11:12:28Z</time>
      </trkpt>
      <trkpt lat="45.05692" lon="0.54872">
        <ele>121.6</ele>
        <time>2022-08-10T11:12:30Z</time>
      </trkpt>
      <trkpt lat="45.05689" lon="0.54878">
        <ele>124.6</ele>
        <time>2022-08-10T11:12:31Z</time>
      </trkpt>
      <trkpt lat="45.05686" lon="0.54885">
        <ele>125.6</ele>
        <time>2022-08-10T11:12:32Z</time>
      </trkpt>
      <trkpt lat="45.05683" lon="0.54892">
        <ele>127.6</ele>
        <time>2022-08-10T11:12:33Z</time>
      </trkpt>
      <trkpt lat="45.0568" lon="0.54898">
        <ele>127.6</ele>
        <time>2022-08-10T11:12:34Z</time>
      </trkpt>
      <trkpt lat="45.05675" lon="0.54909">
        <ele>127.6</ele>
        <time>2022-08-10T11:12:36Z</time>
      </trkpt>
      <trkpt lat="45.05672" lon="0.54915">
        <ele>128.6</ele>
        <time>2022-08-10T11:12:37Z</time>
      </trkpt>
      <trkpt lat="45.05668" lon="0.54922">
        <ele>129.6</ele>
        <time>2022-08-10T11:12:38Z</time>
      </trkpt>
      <trkpt lat="45.05666" lon="0.54927">
        <ele>130.6</ele>
        <time>2022-08-10T11:12:39Z</time>
      </trkpt>
      <trkpt lat="45.05663" lon="0.54933">
        <ele>130.6</ele>
        <time>2022-08-10T11:12:40Z</time>
      </trkpt>
      <trkpt lat="45.05659" lon="0.54942">
        <ele>129.6</ele>
        <time>2022-08-10T11:12:42Z</time>
      </trkpt>
      <trkpt lat="45.05657" lon="0.54949">
        <ele>130.6</ele>
        <time>2022-08-10T11:12:44Z</time>
      </trkpt>
      <trkpt lat="45.05654" lon="0.54958">
        <ele>129.6</ele>
        <time>2022-08-10T11:12:46Z</time>
      </trkpt>
      <trkpt lat="45.05653" lon="0.54965">
        <ele>129.6</ele>
        <time>2022-08-10T11:12:48Z</time>
      </trkpt>
      <trkpt lat="45.0565" lon="0.54973">
        <ele>128.6</ele>
        <time>2022-08-10T11:12:50Z</time>
      </trkpt>
      <trkpt lat="45.05648" lon="0.54979">
        <ele>128.6</ele>
        <time>2022-08-10T11:12:52Z</time>
      </trkpt>
      <trkpt lat="45.05646" lon="0.54987">
        <ele>128.6</ele>
        <time>2022-08-10T11:12:54Z</time>
      </trkpt>
      <trkpt lat="45.05644" lon="0.54993">
        <ele>128.6</ele>
        <time>2022-08-10T11:12:57Z</time>
      </trkpt>
      <trkpt lat="45.05642" lon="0.55001">
        <ele>129.6</ele>
        <time>2022-08-10T11:13:00Z</time>
      </trkpt>
      <trkpt lat="45.05638" lon="0.55008">
        <ele>129.6</ele>
        <time>2022-08-10T11:13:03Z</time>
      </trkpt>
      <trkpt lat="45.05636" lon="0.55015">
        <ele>129.6</ele>
        <time>2022-08-10T11:13:06Z</time>
      </trkpt>
      <trkpt lat="45.05633" lon="0.55021">
        <ele>130.6</ele>
        <time>2022-08-10T11:13:09Z</time>
      </trkpt>
      <trkpt lat="45.05631" lon="0.55027">
        <ele>130.6</ele>
        <time>2022-08-10T11:13:12Z</time>
      </trkpt>
      <trkpt lat="45.05628" lon="0.55034">
        <ele>130.6</ele>
        <time>2022-08-10T11:13:15Z</time>
      </trkpt>
      <trkpt lat="45.05625" lon="0.55039">
        <ele>131.6</ele>
        <time>2022-08-10T11:13:18Z</time>
      </trkpt>
      <trkpt lat="45.05621" lon="0.55046">
        <ele>131.6</ele>
        <time>2022-08-10T11:13:21Z</time>
      </trkpt>
      <trkpt lat="45.05618" lon="0.55053">
        <ele>131.6</ele>
        <time>2022-08-10T11:13:24Z</time>
      </trkpt>
      <trkpt lat="45.05615" lon="0.55062">
        <ele>131.6</ele>
        <time>2022-08-10T11:13:27Z</time>
      </trkpt>
      <trkpt lat="45.05612" lon="0.55067">
        <ele>131.6</ele>
        <time>2022-08-10T11:13:29Z</time>
      </trkpt>
      <trkpt lat="45.05608" lon="0.55071">
        <ele>131.6</ele>
        <time>2022-08-10T11:13:31Z</time>
      </trkpt>
      <trkpt lat="45.05603" lon="0.55077">
        <ele>132.6</ele>
        <time>2022-08-10T11:13:33Z</time>
      </trkpt>
      <trkpt lat="45.056" lon="0.55083">
        <ele>131.6</ele>
        <time>2022-08-10T11:13:35Z</time>
      </trkpt>
      <trkpt lat="45.05596" lon="0.55088">
        <ele>132.6</ele>
        <time>2022-08-10T11:13:37Z</time>
      </trkpt>
      <trkpt lat="45.05592" lon="0.55094">
        <ele>132.6</ele>
        <time>2022-08-10T11:13:39Z</time>
      </trkpt>
      <trkpt lat="45.05588" lon="0.55102">
        <ele>132.6</ele>
        <time>2022-08-10T11:13:41Z</time>
      </trkpt>
      <trkpt lat="45.05584" lon="0.55109">
        <ele>132.6</ele>
        <time>2022-08-10T11:13:43Z</time>
      </trkpt>
      <trkpt lat="45.05579" lon="0.55116">
        <ele>132.6</ele>
        <time>2022-08-10T11:13:45Z</time>
      </trkpt>
      <trkpt lat="45.05573" lon="0.55122">
        <ele>132.6</ele>
        <time>2022-08-10T11:13:47Z</time>
      </trkpt>
      <trkpt lat="45.05569" lon="0.5513">
        <ele>132.6</ele>
        <time>2022-08-10T11:13:49Z</time>
      </trkpt>
      <trkpt lat="45.05563" lon="0.55136">
        <ele>133.6</ele>
        <time>2022-08-10T11:13:51Z</time>
      </trkpt>
      <trkpt lat="45.05558" lon="0.55142">
        <ele>133.6</ele>
        <time>2022-08-10T11:13:53Z</time>
      </trkpt>
      <trkpt lat="45.05554" lon="0.55148">
        <ele>133.6</ele>
        <time>2022-08-10T11:13:55Z</time>
      </trkpt>
      <trkpt lat="45.0555" lon="0.55154">
        <ele>133.6</ele>
        <time>2022-08-10T11:13:57Z</time>
      </trkpt>
      <trkpt lat="45.05547" lon="0.55161">
        <ele>133.6</ele>
        <time>2022-08-10T11:13:59Z</time>
      </trkpt>
      <trkpt lat="45.05543" lon="0.55169">
        <ele>133.6</ele>
        <time>2022-08-10T11:14:01Z</time>
      </trkpt>
      <trkpt lat="45.0554" lon="0.55177">
        <ele>133.6</ele>
        <time>2022-08-10T11:14:03Z</time>
      </trkpt>
      <trkpt lat="45.05536" lon="0.55185">
        <ele>133.6</ele>
        <time>2022-08-10T11:14:05Z</time>
      </trkpt>
      <trkpt lat="45.05531" lon="0.55193">
        <ele>133.6</ele>
        <time>2022-08-10T11:14:07Z</time>
      </trkpt>
      <trkpt lat="45.05526" lon="0.552">
        <ele>132.6</ele>
        <time>2022-08-10T11:14:09Z</time>
      </trkpt>
      <trkpt lat="45.05519" lon="0.55207">
        <ele>134.6</ele>
        <time>2022-08-10T11:14:11Z</time>
      </trkpt>
      <trkpt lat="45.05515" lon="0.55213">
        <ele>135.6</ele>
        <time>2022-08-10T11:14:12Z</time>
      </trkpt>
      <trkpt lat="45.05513" lon="0.55219">
        <ele>135.6</ele>
        <time>2022-08-10T11:14:13Z</time>
      </trkpt>
      <trkpt lat="45.05514" lon="0.55228">
        <ele>135.6</ele>
        <time>2022-08-10T11:14:14Z</time>
      </trkpt>
      <trkpt lat="45.05516" lon="0.55236">
        <ele>136.6</ele>
        <time>2022-08-10T11:14:15Z</time>
      </trkpt>
      <trkpt lat="45.0552" lon="0.55244">
        <ele>137.6</ele>
        <time>2022-08-10T11:14:16Z</time>
      </trkpt>
      <trkpt lat="45.05525" lon="0.55251">
        <ele>137.6</ele>
        <time>2022-08-10T11:14:17Z</time>
      </trkpt>
      <trkpt lat="45.0553" lon="0.55258">
        <ele>138.6</ele>
        <time>2022-08-10T11:14:18Z</time>
      </trkpt>
      <trkpt lat="45.05534" lon="0.55264">
        <ele>139.6</ele>
        <time>2022-08-10T11:14:19Z</time>
      </trkpt>
      <trkpt lat="45.05538" lon="0.5527">
        <ele>140.6</ele>
        <time>2022-08-10T11:14:20Z</time>
      </trkpt>
      <trkpt lat="45.05542" lon="0.55275">
        <ele>140.6</ele>
        <time>2022-08-10T11:14:21Z</time>
      </trkpt>
      <trkpt lat="45.05545" lon="0.55279">
        <ele>140.6</ele>
        <time>2022-08-10T11:14:22Z</time>
      </trkpt>
      <trkpt lat="45.05552" lon="0.55288">
        <ele>139.6</ele>
        <time>2022-08-10T11:14:24Z</time>
      </trkpt>
      <trkpt lat="45.05555" lon="0.55292">
        <ele>139.6</ele>
        <time>2022-08-10T11:14:25Z</time>
      </trkpt>
      <trkpt lat="45.05559" lon="0.55296">
        <ele>139.6</ele>
        <time>2022-08-10T11:14:26Z</time>
      </trkpt>
      <trkpt lat="45.05563" lon="0.55301">
        <ele>138.6</ele>
        <time>2022-08-10T11:14:27Z</time>
      </trkpt>
      <trkpt lat="45.05566" lon="0.55307">
        <ele>138.6</ele>
        <time>2022-08-10T11:14:28Z</time>
      </trkpt>
      <trkpt lat="45.0557" lon="0.55312">
        <ele>138.6</ele>
        <time>2022-08-10T11:14:29Z</time>
      </trkpt>
      <trkpt lat="45.05572" lon="0.55318">
        <ele>138.6</ele>
        <time>2022-08-10T11:14:30Z</time>
      </trkpt>
      <trkpt lat="45.05576" lon="0.55323">
        <ele>138.6</ele>
        <time>2022-08-10T11:14:32Z</time>
      </trkpt>
      <trkpt lat="45.05581" lon="0.55319">
        <ele>137.6</ele>
        <time>2022-08-10T11:14:37Z</time>
      </trkpt>
      <trkpt lat="45.05586" lon="0.55319">
        <ele>137.6</ele>
        <time>2022-08-10T11:14:41Z</time>
      </trkpt>
      <trkpt lat="45.05591" lon="0.55319">
        <ele>136.6</ele>
        <time>2022-08-10T11:14:44Z</time>
      </trkpt>
      <trkpt lat="45.05591" lon="0.55312">
        <ele>136.6</ele>
        <time>2022-08-10T11:14:48Z</time>
      </trkpt>
      <trkpt lat="45.05594" lon="0.55307">
        <ele>133.6</ele>
        <time>2022-08-10T11:14:58Z</time>
      </trkpt>
      <trkpt lat="45.05597" lon="0.55302">
        <ele>133.6</ele>
        <time>2022-08-10T11:15:03Z</time>
      </trkpt>
      <trkpt lat="45.05601" lon="0.55298">
        <ele>128.6</ele>
        <time>2022-08-10T11:18:50Z</time>
      </trkpt>
      <trkpt lat="45.04476" lon="0.55711">
        <ele>167.6</ele>
        <time>2022-08-10T12:29:04Z</time>
      </trkpt>
      <trkpt lat="45.04471" lon="0.55711">
        <ele>163.6</ele>
        <time>2022-08-10T12:29:24Z</time>
      </trkpt>
      <trkpt lat="45.04467" lon="0.55707">
        <ele>162.6</ele>
        <time>2022-08-10T12:29:26Z</time>
      </trkpt>
      <trkpt lat="45.04464" lon="0.55703">
        <ele>161.6</ele>
        <time>2022-08-10T12:29:28Z</time>
      </trkpt>
      <trkpt lat="45.04458" lon="0.55698">
        <ele>161.6</ele>
        <time>2022-08-10T12:29:31Z</time>
      </trkpt>
      <trkpt lat="45.04454" lon="0.55692">
        <ele>160.6</ele>
        <time>2022-08-10T12:29:33Z</time>
      </trkpt>
      <trkpt lat="45.0445" lon="0.55686">
        <ele>159.6</ele>
        <time>2022-08-10T12:29:35Z</time>
      </trkpt>
      <trkpt lat="45.04447" lon="0.55679">
        <ele>158.6</ele>
        <time>2022-08-10T12:29:37Z</time>
      </trkpt>
      <trkpt lat="45.04442" lon="0.55673">
        <ele>158.6</ele>
        <time>2022-08-10T12:29:39Z</time>
      </trkpt>
      <trkpt lat="45.04439" lon="0.55668">
        <ele>158.6</ele>
        <time>2022-08-10T12:29:41Z</time>
      </trkpt>
      <trkpt lat="45.04438" lon="0.5566">
        <ele>158.6</ele>
        <time>2022-08-10T12:29:43Z</time>
      </trkpt>
      <trkpt lat="45.04437" lon="0.55653">
        <ele>158.6</ele>
        <time>2022-08-10T12:29:45Z</time>
      </trkpt>
      <trkpt lat="45.04437" lon="0.55645">
        <ele>158.6</ele>
        <time>2022-08-10T12:29:47Z</time>
      </trkpt>
      <trkpt lat="45.04437" lon="0.55639">
        <ele>157.6</ele>
        <time>2022-08-10T12:29:49Z</time>
      </trkpt>
      <trkpt lat="45.04436" lon="0.55632">
        <ele>158.6</ele>
        <time>2022-08-10T12:29:51Z</time>
      </trkpt>
      <trkpt lat="45.04432" lon="0.55627">
        <ele>158.6</ele>
        <time>2022-08-10T12:29:54Z</time>
      </trkpt>
      <trkpt lat="45.04428" lon="0.55624">
        <ele>158.6</ele>
        <time>2022-08-10T12:29:56Z</time>
      </trkpt>
      <trkpt lat="45.04423" lon="0.55622">
        <ele>157.6</ele>
        <time>2022-08-10T12:29:58Z</time>
      </trkpt>
      <trkpt lat="45.04417" lon="0.55621">
        <ele>156.6</ele>
        <time>2022-08-10T12:30:00Z</time>
      </trkpt>
      <trkpt lat="45.04412" lon="0.55619">
        <ele>156.6</ele>
        <time>2022-08-10T12:30:02Z</time>
      </trkpt>
      <trkpt lat="45.04407" lon="0.55617">
        <ele>155.6</ele>
        <time>2022-08-10T12:30:04Z</time>
      </trkpt>
      <trkpt lat="45.04401" lon="0.55615">
        <ele>154.6</ele>
        <time>2022-08-10T12:30:06Z</time>
      </trkpt>
      <trkpt lat="45.04395" lon="0.55612">
        <ele>153.6</ele>
        <time>2022-08-10T12:30:08Z</time>
      </trkpt>
      <trkpt lat="45.0439" lon="0.55611">
        <ele>153.6</ele>
        <time>2022-08-10T12:30:10Z</time>
      </trkpt>
      <trkpt lat="45.04386" lon="0.55608">
        <ele>153.6</ele>
        <time>2022-08-10T12:30:12Z</time>
      </trkpt>
      <trkpt lat="45.04382" lon="0.55606">
        <ele>153.6</ele>
        <time>2022-08-10T12:30:14Z</time>
      </trkpt>
      <trkpt lat="45.04375" lon="0.55604">
        <ele>153.6</ele>
        <time>2022-08-10T12:30:17Z</time>
      </trkpt>
      <trkpt lat="45.04369" lon="0.55603">
        <ele>153.6</ele>
        <time>2022-08-10T12:30:19Z</time>
      </trkpt>
      <trkpt lat="45.04362" lon="0.55603">
        <ele>152.6</ele>
        <time>2022-08-10T12:30:22Z</time>
      </trkpt>
      <trkpt lat="45.04357" lon="0.55603">
        <ele>153.6</ele>
        <time>2022-08-10T12:30:25Z</time>
      </trkpt>
      <trkpt lat="45.04351" lon="0.55604">
        <ele>153.6</ele>
        <time>2022-08-10T12:30:28Z</time>
      </trkpt>
      <trkpt lat="45.04345" lon="0.55605">
        <ele>153.6</ele>
        <time>2022-08-10T12:30:31Z</time>
      </trkpt>
      <trkpt lat="45.0434" lon="0.55606">
        <ele>153.6</ele>
        <time>2022-08-10T12:30:33Z</time>
      </trkpt>
      <trkpt lat="45.04335" lon="0.55607">
        <ele>152.6</ele>
        <time>2022-08-10T12:30:35Z</time>
      </trkpt>
      <trkpt lat="45.04329" lon="0.55607">
        <ele>152.6</ele>
        <time>2022-08-10T12:30:37Z</time>
      </trkpt>
      <trkpt lat="45.04322" lon="0.55608">
        <ele>152.6</ele>
        <time>2022-08-10T12:30:39Z</time>
      </trkpt>
      <trkpt lat="45.04316" lon="0.5561">
        <ele>152.6</ele>
        <time>2022-08-10T12:30:41Z</time>
      </trkpt>
      <trkpt lat="45.0431" lon="0.55612">
        <ele>153.6</ele>
        <time>2022-08-10T12:30:43Z</time>
      </trkpt>
      <trkpt lat="45.04304" lon="0.55613">
        <ele>154.6</ele>
        <time>2022-08-10T12:30:45Z</time>
      </trkpt>
      <trkpt lat="45.04299" lon="0.55613">
        <ele>154.6</ele>
        <time>2022-08-10T12:30:47Z</time>
      </trkpt>
      <trkpt lat="45.04294" lon="0.55613">
        <ele>155.6</ele>
        <time>2022-08-10T12:30:49Z</time>
      </trkpt>
      <trkpt lat="45.04289" lon="0.55614">
        <ele>156.6</ele>
        <time>2022-08-10T12:30:51Z</time>
      </trkpt>
      <trkpt lat="45.04283" lon="0.55612">
        <ele>156.6</ele>
        <time>2022-08-10T12:30:54Z</time>
      </trkpt>
      <trkpt lat="45.04278" lon="0.55608">
        <ele>156.6</ele>
        <time>2022-08-10T12:30:56Z</time>
      </trkpt>
      <trkpt lat="45.04273" lon="0.55605">
        <ele>157.6</ele>
        <time>2022-08-10T12:30:58Z</time>
      </trkpt>
      <trkpt lat="45.04264" lon="0.55605">
        <ele>158.6</ele>
        <time>2022-08-10T12:31:01Z</time>
      </trkpt>
      <trkpt lat="45.04259" lon="0.55605">
        <ele>158.6</ele>
        <time>2022-08-10T12:31:03Z</time>
      </trkpt>
      <trkpt lat="45.04253" lon="0.55604">
        <ele>159.6</ele>
        <time>2022-08-10T12:31:05Z</time>
      </trkpt>
      <trkpt lat="45.04247" lon="0.55604">
        <ele>160.6</ele>
        <time>2022-08-10T12:31:07Z</time>
      </trkpt>
      <trkpt lat="45.04241" lon="0.55604">
        <ele>161.6</ele>
        <time>2022-08-10T12:31:09Z</time>
      </trkpt>
      <trkpt lat="45.04236" lon="0.55604">
        <ele>160.6</ele>
        <time>2022-08-10T12:31:11Z</time>
      </trkpt>
      <trkpt lat="45.04231" lon="0.55605">
        <ele>162.6</ele>
        <time>2022-08-10T12:31:13Z</time>
      </trkpt>
      <trkpt lat="45.04226" lon="0.55606">
        <ele>162.6</ele>
        <time>2022-08-10T12:31:15Z</time>
      </trkpt>
      <trkpt lat="45.04221" lon="0.55607">
        <ele>163.6</ele>
        <time>2022-08-10T12:31:17Z</time>
      </trkpt>
      <trkpt lat="45.04217" lon="0.55608">
        <ele>164.6</ele>
        <time>2022-08-10T12:31:19Z</time>
      </trkpt>
      <trkpt lat="45.04212" lon="0.55608">
        <ele>166.6</ele>
        <time>2022-08-10T12:31:21Z</time>
      </trkpt>
      <trkpt lat="45.04206" lon="0.5561">
        <ele>167.6</ele>
        <time>2022-08-10T12:31:24Z</time>
      </trkpt>
      <trkpt lat="45.04201" lon="0.55612">
        <ele>167.6</ele>
        <time>2022-08-10T12:31:26Z</time>
      </trkpt>
      <trkpt lat="45.04195" lon="0.55614">
        <ele>168.6</ele>
        <time>2022-08-10T12:31:29Z</time>
      </trkpt>
      <trkpt lat="45.04189" lon="0.55614">
        <ele>168.6</ele>
        <time>2022-08-10T12:31:32Z</time>
      </trkpt>
      <trkpt lat="45.04183" lon="0.55615">
        <ele>168.6</ele>
        <time>2022-08-10T12:31:35Z</time>
      </trkpt>
      <trkpt lat="45.04178" lon="0.55617">
        <ele>171.6</ele>
        <time>2022-08-10T12:31:38Z</time>
      </trkpt>
      <trkpt lat="45.04173" lon="0.55619">
        <ele>172.6</ele>
        <time>2022-08-10T12:31:40Z</time>
      </trkpt>
      <trkpt lat="45.04169" lon="0.55619">
        <ele>172.6</ele>
        <time>2022-08-10T12:31:43Z</time>
      </trkpt>
      <trkpt lat="45.04164" lon="0.5562">
        <ele>179.6</ele>
        <time>2022-08-10T12:32:05Z</time>
      </trkpt>
      <trkpt lat="45.04159" lon="0.55623">
        <ele>184.6</ele>
        <time>2022-08-10T12:32:37Z</time>
      </trkpt>
      <trkpt lat="45.04154" lon="0.5562">
        <ele>192.6</ele>
        <time>2022-08-10T12:33:06Z</time>
      </trkpt>
      <trkpt lat="45.04154" lon="0.55614">
        <ele>194.6</ele>
        <time>2022-08-10T12:33:22Z</time>
      </trkpt>
      <trkpt lat="45.04153" lon="0.55605">
        <ele>193.6</ele>
        <time>2022-08-10T12:33:25Z</time>
      </trkpt>
      <trkpt lat="45.04152" lon="0.55599">
        <ele>191.6</ele>
        <time>2022-08-10T12:33:27Z</time>
      </trkpt>
      <trkpt lat="45.04151" lon="0.55591">
        <ele>189.6</ele>
        <time>2022-08-10T12:33:30Z</time>
      </trkpt>
      <trkpt lat="45.04146" lon="0.55588">
        <ele>188.6</ele>
        <time>2022-08-10T12:33:32Z</time>
      </trkpt>
      <trkpt lat="45.04141" lon="0.55586">
        <ele>186.6</ele>
        <time>2022-08-10T12:33:36Z</time>
      </trkpt>
      <trkpt lat="45.04136" lon="0.55584">
        <ele>184.6</ele>
        <time>2022-08-10T12:33:40Z</time>
      </trkpt>
      <trkpt lat="45.04131" lon="0.55582">
        <ele>182.6</ele>
        <time>2022-08-10T12:33:43Z</time>
      </trkpt>
      <trkpt lat="45.04125" lon="0.55579">
        <ele>182.6</ele>
        <time>2022-08-10T12:33:46Z</time>
      </trkpt>
      <trkpt lat="45.04119" lon="0.55576">
        <ele>181.6</ele>
        <time>2022-08-10T12:33:49Z</time>
      </trkpt>
      <trkpt lat="45.04114" lon="0.55575">
        <ele>180.6</ele>
        <time>2022-08-10T12:33:52Z</time>
      </trkpt>
      <trkpt lat="45.04109" lon="0.55574">
        <ele>180.6</ele>
        <time>2022-08-10T12:33:55Z</time>
      </trkpt>
      <trkpt lat="45.04103" lon="0.55571">
        <ele>179.6</ele>
        <time>2022-08-10T12:33:58Z</time>
      </trkpt>
      <trkpt lat="45.04096" lon="0.55569">
        <ele>178.6</ele>
        <time>2022-08-10T12:34:01Z</time>
      </trkpt>
      <trkpt lat="45.04089" lon="0.55569">
        <ele>177.6</ele>
        <time>2022-08-10T12:34:04Z</time>
      </trkpt>
      <trkpt lat="45.04084" lon="0.5557">
        <ele>175.6</ele>
        <time>2022-08-10T12:34:06Z</time>
      </trkpt>
      <trkpt lat="45.04079" lon="0.55568">
        <ele>174.6</ele>
        <time>2022-08-10T12:34:08Z</time>
      </trkpt>
      <trkpt lat="45.04073" lon="0.55566">
        <ele>172.6</ele>
        <time>2022-08-10T12:34:10Z</time>
      </trkpt>
      <trkpt lat="45.04065" lon="0.5556">
        <ele>171.6</ele>
        <time>2022-08-10T12:34:12Z</time>
      </trkpt>
      <trkpt lat="45.04058" lon="0.55555">
        <ele>169.6</ele>
        <time>2022-08-10T12:34:14Z</time>
      </trkpt>
      <trkpt lat="45.04051" lon="0.55549">
        <ele>167.6</ele>
        <time>2022-08-10T12:34:16Z</time>
      </trkpt>
      <trkpt lat="45.04045" lon="0.55544">
        <ele>166.6</ele>
        <time>2022-08-10T12:34:18Z</time>
      </trkpt>
      <trkpt lat="45.04039" lon="0.55543">
        <ele>165.6</ele>
        <time>2022-08-10T12:34:20Z</time>
      </trkpt>
      <trkpt lat="45.04035" lon="0.55538">
        <ele>166.6</ele>
        <time>2022-08-10T12:34:23Z</time>
      </trkpt>
      <trkpt lat="45.04031" lon="0.55532">
        <ele>169.6</ele>
        <time>2022-08-10T12:34:29Z</time>
      </trkpt>
      <trkpt lat="45.04026" lon="0.55526">
        <ele>167.6</ele>
        <time>2022-08-10T12:34:50Z</time>
      </trkpt>
      <trkpt lat="45.04017" lon="0.55518">
        <ele>171.6</ele>
        <time>2022-08-10T12:35:01Z</time>
      </trkpt>
      <trkpt lat="45.04014" lon="0.55513">
        <ele>172.6</ele>
        <time>2022-08-10T12:35:11Z</time>
      </trkpt>
      <trkpt lat="45.04009" lon="0.55511">
        <ele>172.6</ele>
        <time>2022-08-10T12:35:27Z</time>
      </trkpt>
      <trkpt lat="45.04003" lon="0.55512">
        <ele>170.6</ele>
        <time>2022-08-10T12:35:30Z</time>
      </trkpt>
      <trkpt lat="45.03996" lon="0.55512">
        <ele>169.6</ele>
        <time>2022-08-10T12:35:33Z</time>
      </trkpt>
      <trkpt lat="45.0399" lon="0.55512">
        <ele>168.6</ele>
        <time>2022-08-10T12:35:35Z</time>
      </trkpt>
      <trkpt lat="45.03985" lon="0.5551">
        <ele>168.6</ele>
        <time>2022-08-10T12:35:37Z</time>
      </trkpt>
      <trkpt lat="45.03979" lon="0.55511">
        <ele>166.6</ele>
        <time>2022-08-10T12:35:40Z</time>
      </trkpt>
      <trkpt lat="45.03974" lon="0.5551">
        <ele>165.6</ele>
        <time>2022-08-10T12:35:43Z</time>
      </trkpt>
      <trkpt lat="45.03969" lon="0.55508">
        <ele>164.6</ele>
        <time>2022-08-10T12:35:47Z</time>
      </trkpt>
      <trkpt lat="45.03964" lon="0.55508">
        <ele>163.6</ele>
        <time>2022-08-10T12:35:49Z</time>
      </trkpt>
      <trkpt lat="45.03959" lon="0.55508">
        <ele>162.6</ele>
        <time>2022-08-10T12:35:51Z</time>
      </trkpt>
      <trkpt lat="45.03954" lon="0.55507">
        <ele>161.6</ele>
        <time>2022-08-10T12:35:53Z</time>
      </trkpt>
      <trkpt lat="45.03949" lon="0.55508">
        <ele>160.6</ele>
        <time>2022-08-10T12:35:56Z</time>
      </trkpt>
      <trkpt lat="45.03946" lon="0.55512">
        <ele>160.6</ele>
        <time>2022-08-10T12:35:59Z</time>
      </trkpt>
      <trkpt lat="45.03941" lon="0.55519">
        <ele>158.6</ele>
        <time>2022-08-10T12:36:02Z</time>
      </trkpt>
      <trkpt lat="45.03936" lon="0.55522">
        <ele>157.6</ele>
        <time>2022-08-10T12:36:04Z</time>
      </trkpt>
      <trkpt lat="45.03929" lon="0.55523">
        <ele>156.6</ele>
        <time>2022-08-10T12:36:06Z</time>
      </trkpt>
      <trkpt lat="45.03921" lon="0.55523">
        <ele>154.6</ele>
        <time>2022-08-10T12:36:08Z</time>
      </trkpt>
      <trkpt lat="45.03911" lon="0.55525">
        <ele>152.6</ele>
        <time>2022-08-10T12:36:11Z</time>
      </trkpt>
      <trkpt lat="45.03905" lon="0.55528">
        <ele>151.6</ele>
        <time>2022-08-10T12:36:13Z</time>
      </trkpt>
      <trkpt lat="45.03895" lon="0.55532">
        <ele>150.6</ele>
        <time>2022-08-10T12:36:16Z</time>
      </trkpt>
      <trkpt lat="45.03889" lon="0.55534">
        <ele>148.6</ele>
        <time>2022-08-10T12:36:18Z</time>
      </trkpt>
      <trkpt lat="45.03885" lon="0.55539">
        <ele>146.6</ele>
        <time>2022-08-10T12:36:20Z</time>
      </trkpt>
      <trkpt lat="45.03881" lon="0.55544">
        <ele>144.6</ele>
        <time>2022-08-10T12:36:23Z</time>
      </trkpt>
      <trkpt lat="45.03878" lon="0.55548">
        <ele>144.6</ele>
        <time>2022-08-10T12:36:30Z</time>
      </trkpt>
      <trkpt lat="45.03873" lon="0.55555">
        <ele>143.6</ele>
        <time>2022-08-10T12:36:32Z</time>
      </trkpt>
      <trkpt lat="45.03865" lon="0.55558">
        <ele>142.6</ele>
        <time>2022-08-10T12:36:34Z</time>
      </trkpt>
      <trkpt lat="45.03857" lon="0.55558">
        <ele>141.6</ele>
        <time>2022-08-10T12:36:36Z</time>
      </trkpt>
      <trkpt lat="45.03849" lon="0.55561">
        <ele>141.6</ele>
        <time>2022-08-10T12:36:38Z</time>
      </trkpt>
      <trkpt lat="45.03841" lon="0.55565">
        <ele>141.6</ele>
        <time>2022-08-10T12:36:40Z</time>
      </trkpt>
      <trkpt lat="45.03837" lon="0.55568">
        <ele>141.6</ele>
        <time>2022-08-10T12:36:41Z</time>
      </trkpt>
      <trkpt lat="45.03833" lon="0.55572">
        <ele>141.6</ele>
        <time>2022-08-10T12:36:42Z</time>
      </trkpt>
      <trkpt lat="45.03829" lon="0.55575">
        <ele>140.6</ele>
        <time>2022-08-10T12:36:43Z</time>
      </trkpt>
      <trkpt lat="45.03822" lon="0.55581">
        <ele>140.6</ele>
        <time>2022-08-10T12:36:45Z</time>
      </trkpt>
      <trkpt lat="45.03814" lon="0.55588">
        <ele>141.6</ele>
        <time>2022-08-10T12:36:47Z</time>
      </trkpt>
      <trkpt lat="45.0381" lon="0.55592">
        <ele>141.6</ele>
        <time>2022-08-10T12:36:48Z</time>
      </trkpt>
      <trkpt lat="45.03804" lon="0.55597">
        <ele>141.6</ele>
        <time>2022-08-10T12:36:50Z</time>
      </trkpt>
      <trkpt lat="45.03801" lon="0.55602">
        <ele>143.6</ele>
        <time>2022-08-10T12:36:53Z</time>
      </trkpt>
      <trkpt lat="45.03796" lon="0.55608">
        <ele>147.6</ele>
        <time>2022-08-10T12:36:58Z</time>
      </trkpt>
      <trkpt lat="45.03793" lon="0.55615">
        <ele>150.6</ele>
        <time>2022-08-10T12:37:00Z</time>
      </trkpt>
      <trkpt lat="45.03789" lon="0.55621">
        <ele>155.6</ele>
        <time>2022-08-10T12:37:04Z</time>
      </trkpt>
      <trkpt lat="45.03785" lon="0.55626">
        <ele>160.6</ele>
        <time>2022-08-10T12:37:24Z</time>
      </trkpt>
      <trkpt lat="45.0378" lon="0.55631">
        <ele>161.6</ele>
        <time>2022-08-10T12:37:31Z</time>
      </trkpt>
      <trkpt lat="45.03777" lon="0.55636">
        <ele>162.6</ele>
        <time>2022-08-10T12:37:34Z</time>
      </trkpt>
      <trkpt lat="45.03772" lon="0.5564">
        <ele>162.6</ele>
        <time>2022-08-10T12:37:37Z</time>
      </trkpt>
      <trkpt lat="45.03768" lon="0.55644">
        <ele>161.6</ele>
        <time>2022-08-10T12:37:39Z</time>
      </trkpt>
      <trkpt lat="45.03764" lon="0.55648">
        <ele>162.6</ele>
        <time>2022-08-10T12:37:41Z</time>
      </trkpt>
      <trkpt lat="45.03759" lon="0.55654">
        <ele>161.6</ele>
        <time>2022-08-10T12:37:43Z</time>
      </trkpt>
      <trkpt lat="45.03752" lon="0.55658">
        <ele>160.6</ele>
        <time>2022-08-10T12:37:45Z</time>
      </trkpt>
      <trkpt lat="45.03745" lon="0.55662">
        <ele>160.6</ele>
        <time>2022-08-10T12:37:47Z</time>
      </trkpt>
      <trkpt lat="45.03739" lon="0.55664">
        <ele>159.6</ele>
        <time>2022-08-10T12:37:49Z</time>
      </trkpt>
      <trkpt lat="45.03732" lon="0.55667">
        <ele>159.6</ele>
        <time>2022-08-10T12:37:51Z</time>
      </trkpt>
      <trkpt lat="45.03727" lon="0.5567">
        <ele>158.6</ele>
        <time>2022-08-10T12:37:53Z</time>
      </trkpt>
      <trkpt lat="45.03721" lon="0.55674">
        <ele>158.6</ele>
        <time>2022-08-10T12:37:55Z</time>
      </trkpt>
      <trkpt lat="45.03715" lon="0.55677">
        <ele>158.6</ele>
        <time>2022-08-10T12:37:57Z</time>
      </trkpt>
      <trkpt lat="45.03709" lon="0.55683">
        <ele>157.6</ele>
        <time>2022-08-10T12:37:59Z</time>
      </trkpt>
      <trkpt lat="45.03703" lon="0.5569">
        <ele>157.6</ele>
        <time>2022-08-10T12:38:01Z</time>
      </trkpt>
      <trkpt lat="45.03696" lon="0.55697">
        <ele>157.6</ele>
        <time>2022-08-10T12:38:03Z</time>
      </trkpt>
      <trkpt lat="45.03689" lon="0.55702">
        <ele>156.6</ele>
        <time>2022-08-10T12:38:05Z</time>
      </trkpt>
      <trkpt lat="45.03685" lon="0.55705">
        <ele>155.6</ele>
        <time>2022-08-10T12:38:06Z</time>
      </trkpt>
      <trkpt lat="45.03681" lon="0.55709">
        <ele>155.6</ele>
        <time>2022-08-10T12:38:07Z</time>
      </trkpt>
      <trkpt lat="45.03677" lon="0.55712">
        <ele>155.6</ele>
        <time>2022-08-10T12:38:08Z</time>
      </trkpt>
      <trkpt lat="45.03671" lon="0.55716">
        <ele>155.6</ele>
        <time>2022-08-10T12:38:09Z</time>
      </trkpt>
      <trkpt lat="45.03665" lon="0.55719">
        <ele>154.6</ele>
        <time>2022-08-10T12:38:10Z</time>
      </trkpt>
      <trkpt lat="45.03658" lon="0.55719">
        <ele>155.6</ele>
        <time>2022-08-10T12:38:11Z</time>
      </trkpt>
      <trkpt lat="45.03651" lon="0.55719">
        <ele>154.6</ele>
        <time>2022-08-10T12:38:12Z</time>
      </trkpt>
      <trkpt lat="45.03644" lon="0.5572">
        <ele>154.6</ele>
        <time>2022-08-10T12:38:13Z</time>
      </trkpt>
      <trkpt lat="45.03638" lon="0.55721">
        <ele>153.6</ele>
        <time>2022-08-10T12:38:14Z</time>
      </trkpt>
      <trkpt lat="45.03633" lon="0.55723">
        <ele>153.6</ele>
        <time>2022-08-10T12:38:15Z</time>
      </trkpt>
      <trkpt lat="45.03627" lon="0.55725">
        <ele>153.6</ele>
        <time>2022-08-10T12:38:17Z</time>
      </trkpt>
      <trkpt lat="45.03623" lon="0.5573">
        <ele>153.6</ele>
        <time>2022-08-10T12:38:20Z</time>
      </trkpt>
      <trkpt lat="45.03619" lon="0.55734">
        <ele>153.6</ele>
        <time>2022-08-10T12:38:26Z</time>
      </trkpt>
      <trkpt lat="45.03615" lon="0.55739">
        <ele>153.6</ele>
        <time>2022-08-10T12:38:29Z</time>
      </trkpt>
      <trkpt lat="45.03612" lon="0.55745">
        <ele>153.6</ele>
        <time>2022-08-10T12:38:33Z</time>
      </trkpt>
      <trkpt lat="45.03611" lon="0.55751">
        <ele>153.6</ele>
        <time>2022-08-10T12:38:49Z</time>
      </trkpt>
      <trkpt lat="45.03608" lon="0.55757">
        <ele>154.6</ele>
        <time>2022-08-10T12:39:10Z</time>
      </trkpt>
      <trkpt lat="45.03604" lon="0.55761">
        <ele>154.6</ele>
        <time>2022-08-10T12:39:17Z</time>
      </trkpt>
      <trkpt lat="45.03599" lon="0.55766">
        <ele>155.6</ele>
        <time>2022-08-10T12:39:23Z</time>
      </trkpt>
      <trkpt lat="45.03595" lon="0.5577">
        <ele>156.6</ele>
        <time>2022-08-10T12:39:34Z</time>
      </trkpt>
      <trkpt lat="45.0359" lon="0.55775">
        <ele>155.6</ele>
        <time>2022-08-10T12:39:37Z</time>
      </trkpt>
      <trkpt lat="45.03585" lon="0.5578">
        <ele>156.6</ele>
        <time>2022-08-10T12:39:41Z</time>
      </trkpt>
      <trkpt lat="45.03581" lon="0.55784">
        <ele>157.6</ele>
        <time>2022-08-10T12:39:44Z</time>
      </trkpt>
      <trkpt lat="45.03577" lon="0.55788">
        <ele>158.6</ele>
        <time>2022-08-10T12:39:47Z</time>
      </trkpt>
      <trkpt lat="45.03573" lon="0.55794">
        <ele>159.6</ele>
        <time>2022-08-10T12:39:52Z</time>
      </trkpt>
      <trkpt lat="45.03569" lon="0.55798">
        <ele>160.6</ele>
        <time>2022-08-10T12:39:55Z</time>
      </trkpt>
      <trkpt lat="45.03565" lon="0.55804">
        <ele>161.6</ele>
        <time>2022-08-10T12:39:59Z</time>
      </trkpt>
      <trkpt lat="45.03559" lon="0.55808">
        <ele>161.6</ele>
        <time>2022-08-10T12:40:04Z</time>
      </trkpt>
      <trkpt lat="45.03555" lon="0.55812">
        <ele>162.6</ele>
        <time>2022-08-10T12:40:08Z</time>
      </trkpt>
      <trkpt lat="45.03552" lon="0.55819">
        <ele>161.6</ele>
        <time>2022-08-10T12:40:11Z</time>
      </trkpt>
      <trkpt lat="45.03549" lon="0.55824">
        <ele>162.6</ele>
        <time>2022-08-10T12:40:15Z</time>
      </trkpt>
      <trkpt lat="45.03547" lon="0.55829">
        <ele>162.6</ele>
        <time>2022-08-10T12:40:18Z</time>
      </trkpt>
      <trkpt lat="45.03542" lon="0.55834">
        <ele>161.6</ele>
        <time>2022-08-10T12:40:23Z</time>
      </trkpt>
      <trkpt lat="45.03536" lon="0.55838">
        <ele>160.6</ele>
        <time>2022-08-10T12:40:26Z</time>
      </trkpt>
      <trkpt lat="45.03531" lon="0.55839">
        <ele>159.6</ele>
        <time>2022-08-10T12:40:29Z</time>
      </trkpt>
      <trkpt lat="45.03526" lon="0.55843">
        <ele>158.6</ele>
        <time>2022-08-10T12:40:33Z</time>
      </trkpt>
      <trkpt lat="45.03523" lon="0.55848">
        <ele>159.6</ele>
        <time>2022-08-10T12:41:30Z</time>
      </trkpt>
      <trkpt lat="45.03518" lon="0.55842">
        <ele>156.6</ele>
        <time>2022-08-10T12:41:34Z</time>
      </trkpt>
      <trkpt lat="45.03515" lon="0.55837">
        <ele>156.6</ele>
        <time>2022-08-10T12:41:36Z</time>
      </trkpt>
      <trkpt lat="45.03509" lon="0.5583">
        <ele>155.6</ele>
        <time>2022-08-10T12:41:38Z</time>
      </trkpt>
      <trkpt lat="45.03506" lon="0.55823">
        <ele>155.6</ele>
        <time>2022-08-10T12:41:40Z</time>
      </trkpt>
      <trkpt lat="45.03502" lon="0.55817">
        <ele>154.6</ele>
        <time>2022-08-10T12:41:42Z</time>
      </trkpt>
      <trkpt lat="45.03496" lon="0.5581">
        <ele>153.6</ele>
        <time>2022-08-10T12:41:44Z</time>
      </trkpt>
      <trkpt lat="45.0349" lon="0.55804">
        <ele>153.6</ele>
        <time>2022-08-10T12:41:46Z</time>
      </trkpt>
      <trkpt lat="45.03484" lon="0.55798">
        <ele>153.6</ele>
        <time>2022-08-10T12:41:48Z</time>
      </trkpt>
      <trkpt lat="45.0348" lon="0.55795">
        <ele>154.6</ele>
        <time>2022-08-10T12:41:49Z</time>
      </trkpt>
      <trkpt lat="45.03474" lon="0.55793">
        <ele>156.6</ele>
        <time>2022-08-10T12:41:51Z</time>
      </trkpt>
      <trkpt lat="45.03468" lon="0.55792">
        <ele>156.6</ele>
        <time>2022-08-10T12:41:55Z</time>
      </trkpt>
      <trkpt lat="45.03462" lon="0.55787">
        <ele>155.6</ele>
        <time>2022-08-10T12:41:58Z</time>
      </trkpt>
      <trkpt lat="45.03458" lon="0.55783">
        <ele>155.6</ele>
        <time>2022-08-10T12:42:00Z</time>
      </trkpt>
      <trkpt lat="45.03454" lon="0.55779">
        <ele>155.6</ele>
        <time>2022-08-10T12:42:02Z</time>
      </trkpt>
      <trkpt lat="45.03449" lon="0.55777">
        <ele>154.6</ele>
        <time>2022-08-10T12:42:04Z</time>
      </trkpt>
      <trkpt lat="45.03445" lon="0.55775">
        <ele>154.6</ele>
        <time>2022-08-10T12:42:06Z</time>
      </trkpt>
      <trkpt lat="45.0344" lon="0.55772">
        <ele>153.6</ele>
        <time>2022-08-10T12:42:09Z</time>
      </trkpt>
      <trkpt lat="45.03434" lon="0.5577">
        <ele>153.6</ele>
        <time>2022-08-10T12:42:12Z</time>
      </trkpt>
      <trkpt lat="45.0343" lon="0.55768">
        <ele>153.6</ele>
        <time>2022-08-10T12:42:15Z</time>
      </trkpt>
      <trkpt lat="45.03426" lon="0.55766">
        <ele>152.6</ele>
        <time>2022-08-10T12:42:17Z</time>
      </trkpt>
      <trkpt lat="45.03421" lon="0.55764">
        <ele>152.6</ele>
        <time>2022-08-10T12:42:19Z</time>
      </trkpt>
      <trkpt lat="45.03416" lon="0.55761">
        <ele>151.6</ele>
        <time>2022-08-10T12:42:22Z</time>
      </trkpt>
      <trkpt lat="45.03411" lon="0.55759">
        <ele>150.6</ele>
        <time>2022-08-10T12:42:25Z</time>
      </trkpt>
      <trkpt lat="45.03406" lon="0.55754">
        <ele>150.6</ele>
        <time>2022-08-10T12:42:28Z</time>
      </trkpt>
      <trkpt lat="45.03401" lon="0.55749">
        <ele>149.6</ele>
        <time>2022-08-10T12:42:30Z</time>
      </trkpt>
      <trkpt lat="45.03397" lon="0.55744">
        <ele>148.6</ele>
        <time>2022-08-10T12:42:33Z</time>
      </trkpt>
      <trkpt lat="45.03393" lon="0.55741">
        <ele>150.6</ele>
        <time>2022-08-10T12:42:38Z</time>
      </trkpt>
      <trkpt lat="45.0339" lon="0.55735">
        <ele>153.6</ele>
        <time>2022-08-10T12:42:57Z</time>
      </trkpt>
      <trkpt lat="45.03386" lon="0.55736">
        <ele>153.6</ele>
        <time>2022-08-10T12:43:26Z</time>
      </trkpt>
      <trkpt lat="45.03383" lon="0.55729">
        <ele>147.6</ele>
        <time>2022-08-10T12:43:42Z</time>
      </trkpt>
      <trkpt lat="45.03382" lon="0.55723">
        <ele>149.6</ele>
        <time>2022-08-10T12:44:04Z</time>
      </trkpt>
      <trkpt lat="45.03386" lon="0.55728">
        <ele>148.6</ele>
        <time>2022-08-10T12:44:31Z</time>
      </trkpt>
      <trkpt lat="45.03391" lon="0.55734">
        <ele>148.6</ele>
        <time>2022-08-10T12:44:34Z</time>
      </trkpt>
      <trkpt lat="45.03394" lon="0.55739">
        <ele>148.6</ele>
        <time>2022-08-10T12:44:36Z</time>
      </trkpt>
      <trkpt lat="45.03398" lon="0.55744">
        <ele>147.6</ele>
        <time>2022-08-10T12:44:39Z</time>
      </trkpt>
      <trkpt lat="45.03402" lon="0.5575">
        <ele>147.6</ele>
        <time>2022-08-10T12:44:41Z</time>
      </trkpt>
      <trkpt lat="45.03407" lon="0.55755">
        <ele>147.6</ele>
        <time>2022-08-10T12:44:44Z</time>
      </trkpt>
      <trkpt lat="45.03411" lon="0.5576">
        <ele>147.6</ele>
        <time>2022-08-10T12:44:47Z</time>
      </trkpt>
      <trkpt lat="45.03414" lon="0.55765">
        <ele>148.6</ele>
        <time>2022-08-10T12:44:49Z</time>
      </trkpt>
      <trkpt lat="45.03419" lon="0.55769">
        <ele>147.6</ele>
        <time>2022-08-10T12:44:52Z</time>
      </trkpt>
      <trkpt lat="45.03424" lon="0.55771">
        <ele>147.6</ele>
        <time>2022-08-10T12:44:54Z</time>
      </trkpt>
      <trkpt lat="45.03429" lon="0.55774">
        <ele>147.6</ele>
        <time>2022-08-10T12:44:56Z</time>
      </trkpt>
      <trkpt lat="45.03435" lon="0.55777">
        <ele>147.6</ele>
        <time>2022-08-10T12:44:58Z</time>
      </trkpt>
      <trkpt lat="45.03441" lon="0.5578">
        <ele>147.6</ele>
        <time>2022-08-10T12:45:00Z</time>
      </trkpt>
      <trkpt lat="45.03447" lon="0.55783">
        <ele>146.6</ele>
        <time>2022-08-10T12:45:02Z</time>
      </trkpt>
      <trkpt lat="45.03453" lon="0.55785">
        <ele>146.6</ele>
        <time>2022-08-10T12:45:04Z</time>
      </trkpt>
      <trkpt lat="45.0346" lon="0.55788">
        <ele>146.6</ele>
        <time>2022-08-10T12:45:06Z</time>
      </trkpt>
      <trkpt lat="45.03466" lon="0.55792">
        <ele>146.6</ele>
        <time>2022-08-10T12:45:08Z</time>
      </trkpt>
      <trkpt lat="45.03473" lon="0.55794">
        <ele>147.6</ele>
        <time>2022-08-10T12:45:10Z</time>
      </trkpt>
      <trkpt lat="45.03478" lon="0.55798">
        <ele>147.6</ele>
        <time>2022-08-10T12:45:12Z</time>
      </trkpt>
      <trkpt lat="45.03483" lon="0.55803">
        <ele>148.6</ele>
        <time>2022-08-10T12:45:14Z</time>
      </trkpt>
      <trkpt lat="45.03487" lon="0.5581">
        <ele>149.6</ele>
        <time>2022-08-10T12:45:17Z</time>
      </trkpt>
      <trkpt lat="45.03492" lon="0.55814">
        <ele>150.6</ele>
        <time>2022-08-10T12:45:19Z</time>
      </trkpt>
      <trkpt lat="45.03497" lon="0.55821">
        <ele>150.6</ele>
        <time>2022-08-10T12:45:21Z</time>
      </trkpt>
      <trkpt lat="45.03502" lon="0.55827">
        <ele>151.6</ele>
        <time>2022-08-10T12:45:23Z</time>
      </trkpt>
      <trkpt lat="45.03506" lon="0.55833">
        <ele>150.6</ele>
        <time>2022-08-10T12:45:25Z</time>
      </trkpt>
      <trkpt lat="45.0351" lon="0.55839">
        <ele>151.6</ele>
        <time>2022-08-10T12:45:27Z</time>
      </trkpt>
      <trkpt lat="45.03513" lon="0.55845">
        <ele>150.6</ele>
        <time>2022-08-10T12:45:29Z</time>
      </trkpt>
      <trkpt lat="45.03516" lon="0.55851">
        <ele>151.6</ele>
        <time>2022-08-10T12:45:31Z</time>
      </trkpt>
      <trkpt lat="45.0352" lon="0.55857">
        <ele>151.6</ele>
        <time>2022-08-10T12:45:33Z</time>
      </trkpt>
      <trkpt lat="45.03524" lon="0.55863">
        <ele>152.6</ele>
        <time>2022-08-10T12:45:35Z</time>
      </trkpt>
      <trkpt lat="45.03528" lon="0.55869">
        <ele>152.6</ele>
        <time>2022-08-10T12:45:37Z</time>
      </trkpt>
      <trkpt lat="45.03533" lon="0.55874">
        <ele>153.6</ele>
        <time>2022-08-10T12:45:39Z</time>
      </trkpt>
      <trkpt lat="45.03538" lon="0.55879">
        <ele>153.6</ele>
        <time>2022-08-10T12:45:41Z</time>
      </trkpt>
      <trkpt lat="45.03541" lon="0.55884">
        <ele>154.6</ele>
        <time>2022-08-10T12:45:43Z</time>
      </trkpt>
      <trkpt lat="45.03546" lon="0.55888">
        <ele>155.6</ele>
        <time>2022-08-10T12:45:45Z</time>
      </trkpt>
      <trkpt lat="45.0355" lon="0.55895">
        <ele>155.6</ele>
        <time>2022-08-10T12:45:48Z</time>
      </trkpt>
      <trkpt lat="45.03553" lon="0.55901">
        <ele>157.6</ele>
        <time>2022-08-10T12:45:51Z</time>
      </trkpt>
      <trkpt lat="45.03556" lon="0.5591">
        <ele>158.6</ele>
        <time>2022-08-10T12:45:54Z</time>
      </trkpt>
      <trkpt lat="45.0356" lon="0.55916">
        <ele>158.6</ele>
        <time>2022-08-10T12:45:56Z</time>
      </trkpt>
      <trkpt lat="45.03564" lon="0.55923">
        <ele>159.6</ele>
        <time>2022-08-10T12:45:59Z</time>
      </trkpt>
      <trkpt lat="45.03569" lon="0.5593">
        <ele>159.6</ele>
        <time>2022-08-10T12:46:02Z</time>
      </trkpt>
      <trkpt lat="45.03573" lon="0.55936">
        <ele>159.6</ele>
        <time>2022-08-10T12:46:05Z</time>
      </trkpt>
      <trkpt lat="45.03575" lon="0.55941">
        <ele>159.6</ele>
        <time>2022-08-10T12:46:08Z</time>
      </trkpt>
      <trkpt lat="45.03579" lon="0.55948">
        <ele>159.6</ele>
        <time>2022-08-10T12:46:11Z</time>
      </trkpt>
      <trkpt lat="45.03583" lon="0.55953">
        <ele>157.6</ele>
        <time>2022-08-10T12:46:13Z</time>
      </trkpt>
      <trkpt lat="45.03586" lon="0.55958">
        <ele>158.6</ele>
        <time>2022-08-10T12:46:15Z</time>
      </trkpt>
      <trkpt lat="45.0359" lon="0.55963">
        <ele>157.6</ele>
        <time>2022-08-10T12:46:17Z</time>
      </trkpt>
      <trkpt lat="45.03594" lon="0.55968">
        <ele>156.6</ele>
        <time>2022-08-10T12:46:19Z</time>
      </trkpt>
      <trkpt lat="45.03598" lon="0.55972">
        <ele>156.6</ele>
        <time>2022-08-10T12:46:21Z</time>
      </trkpt>
      <trkpt lat="45.03604" lon="0.5598">
        <ele>154.6</ele>
        <time>2022-08-10T12:46:25Z</time>
      </trkpt>
      <trkpt lat="45.03608" lon="0.55986">
        <ele>155.6</ele>
        <time>2022-08-10T12:46:27Z</time>
      </trkpt>
      <trkpt lat="45.03612" lon="0.55991">
        <ele>155.6</ele>
        <time>2022-08-10T12:46:29Z</time>
      </trkpt>
      <trkpt lat="45.03615" lon="0.55996">
        <ele>156.6</ele>
        <time>2022-08-10T12:46:31Z</time>
      </trkpt>
      <trkpt lat="45.03619" lon="0.56001">
        <ele>157.6</ele>
        <time>2022-08-10T12:46:33Z</time>
      </trkpt>
      <trkpt lat="45.03622" lon="0.56006">
        <ele>157.6</ele>
        <time>2022-08-10T12:46:35Z</time>
      </trkpt>
      <trkpt lat="45.03626" lon="0.5601">
        <ele>156.6</ele>
        <time>2022-08-10T12:46:37Z</time>
      </trkpt>
      <trkpt lat="45.0363" lon="0.56015">
        <ele>157.6</ele>
        <time>2022-08-10T12:46:39Z</time>
      </trkpt>
      <trkpt lat="45.03635" lon="0.56019">
        <ele>158.6</ele>
        <time>2022-08-10T12:46:41Z</time>
      </trkpt>
      <trkpt lat="45.03638" lon="0.56024">
        <ele>158.6</ele>
        <time>2022-08-10T12:46:43Z</time>
      </trkpt>
      <trkpt lat="45.03643" lon="0.5603">
        <ele>157.6</ele>
        <time>2022-08-10T12:46:46Z</time>
      </trkpt>
      <trkpt lat="45.03647" lon="0.56035">
        <ele>158.6</ele>
        <time>2022-08-10T12:46:49Z</time>
      </trkpt>
      <trkpt lat="45.03651" lon="0.5604">
        <ele>158.6</ele>
        <time>2022-08-10T12:46:51Z</time>
      </trkpt>
      <trkpt lat="45.03654" lon="0.56046">
        <ele>158.6</ele>
        <time>2022-08-10T12:46:53Z</time>
      </trkpt>
      <trkpt lat="45.03658" lon="0.56052">
        <ele>158.6</ele>
        <time>2022-08-10T12:46:55Z</time>
      </trkpt>
      <trkpt lat="45.03662" lon="0.56056">
        <ele>158.6</ele>
        <time>2022-08-10T12:46:57Z</time>
      </trkpt>
      <trkpt lat="45.03665" lon="0.56062">
        <ele>158.6</ele>
        <time>2022-08-10T12:46:59Z</time>
      </trkpt>
      <trkpt lat="45.0367" lon="0.56068">
        <ele>158.6</ele>
        <time>2022-08-10T12:47:02Z</time>
      </trkpt>
      <trkpt lat="45.03675" lon="0.56073">
        <ele>159.6</ele>
        <time>2022-08-10T12:47:06Z</time>
      </trkpt>
      <trkpt lat="45.03677" lon="0.56078">
        <ele>159.6</ele>
        <time>2022-08-10T12:47:08Z</time>
      </trkpt>
      <trkpt lat="45.0368" lon="0.56086">
        <ele>161.6</ele>
        <time>2022-08-10T12:47:11Z</time>
      </trkpt>
      <trkpt lat="45.03682" lon="0.56092">
        <ele>161.6</ele>
        <time>2022-08-10T12:47:14Z</time>
      </trkpt>
      <trkpt lat="45.03685" lon="0.56097">
        <ele>160.6</ele>
        <time>2022-08-10T12:47:16Z</time>
      </trkpt>
      <trkpt lat="45.03689" lon="0.56103">
        <ele>160.6</ele>
        <time>2022-08-10T12:47:19Z</time>
      </trkpt>
      <trkpt lat="45.03691" lon="0.56109">
        <ele>160.6</ele>
        <time>2022-08-10T12:47:22Z</time>
      </trkpt>
      <trkpt lat="45.03693" lon="0.56117">
        <ele>161.6</ele>
        <time>2022-08-10T12:47:25Z</time>
      </trkpt>
      <trkpt lat="45.03697" lon="0.56123">
        <ele>161.6</ele>
        <time>2022-08-10T12:47:28Z</time>
      </trkpt>
      <trkpt lat="45.03702" lon="0.56129">
        <ele>162.6</ele>
        <time>2022-08-10T12:47:31Z</time>
      </trkpt>
      <trkpt lat="45.03705" lon="0.56133">
        <ele>164.6</ele>
        <time>2022-08-10T12:47:33Z</time>
      </trkpt>
      <trkpt lat="45.03708" lon="0.56138">
        <ele>164.6</ele>
        <time>2022-08-10T12:47:35Z</time>
      </trkpt>
      <trkpt lat="45.03711" lon="0.56144">
        <ele>165.6</ele>
        <time>2022-08-10T12:47:37Z</time>
      </trkpt>
      <trkpt lat="45.03714" lon="0.56151">
        <ele>166.6</ele>
        <time>2022-08-10T12:47:40Z</time>
      </trkpt>
      <trkpt lat="45.03717" lon="0.56156">
        <ele>167.6</ele>
        <time>2022-08-10T12:47:42Z</time>
      </trkpt>
      <trkpt lat="45.0372" lon="0.56161">
        <ele>167.6</ele>
        <time>2022-08-10T12:47:44Z</time>
      </trkpt>
      <trkpt lat="45.03723" lon="0.56167">
        <ele>166.6</ele>
        <time>2022-08-10T12:47:46Z</time>
      </trkpt>
      <trkpt lat="45.03727" lon="0.56173">
        <ele>166.6</ele>
        <time>2022-08-10T12:47:49Z</time>
      </trkpt>
      <trkpt lat="45.03731" lon="0.56175">
        <ele>171.6</ele>
        <time>2022-08-10T12:47:53Z</time>
      </trkpt>
      <trkpt lat="45.03735" lon="0.5618">
        <ele>175.6</ele>
        <time>2022-08-10T12:48:26Z</time>
      </trkpt>
      <trkpt lat="45.0374" lon="0.56183">
        <ele>175.6</ele>
        <time>2022-08-10T12:48:29Z</time>
      </trkpt>
      <trkpt lat="45.03745" lon="0.56187">
        <ele>174.6</ele>
        <time>2022-08-10T12:48:32Z</time>
      </trkpt>
      <trkpt lat="45.03749" lon="0.56194">
        <ele>175.6</ele>
        <time>2022-08-10T12:48:35Z</time>
      </trkpt>
      <trkpt lat="45.03752" lon="0.56199">
        <ele>175.6</ele>
        <time>2022-08-10T12:48:37Z</time>
      </trkpt>
      <trkpt lat="45.03756" lon="0.56206">
        <ele>176.6</ele>
        <time>2022-08-10T12:48:40Z</time>
      </trkpt>
      <trkpt lat="45.03758" lon="0.56213">
        <ele>176.6</ele>
        <time>2022-08-10T12:48:42Z</time>
      </trkpt>
      <trkpt lat="45.03761" lon="0.56218">
        <ele>176.6</ele>
        <time>2022-08-10T12:48:44Z</time>
      </trkpt>
      <trkpt lat="45.03765" lon="0.56225">
        <ele>177.6</ele>
        <time>2022-08-10T12:48:46Z</time>
      </trkpt>
      <trkpt lat="45.03768" lon="0.56232">
        <ele>178.6</ele>
        <time>2022-08-10T12:48:48Z</time>
      </trkpt>
      <trkpt lat="45.03771" lon="0.56238">
        <ele>179.6</ele>
        <time>2022-08-10T12:48:50Z</time>
      </trkpt>
      <trkpt lat="45.03773" lon="0.56245">
        <ele>179.6</ele>
        <time>2022-08-10T12:48:52Z</time>
      </trkpt>
      <trkpt lat="45.03776" lon="0.56251">
        <ele>180.6</ele>
        <time>2022-08-10T12:48:54Z</time>
      </trkpt>
      <trkpt lat="45.03779" lon="0.56257">
        <ele>180.6</ele>
        <time>2022-08-10T12:48:56Z</time>
      </trkpt>
      <trkpt lat="45.03782" lon="0.56263">
        <ele>181.6</ele>
        <time>2022-08-10T12:48:58Z</time>
      </trkpt>
      <trkpt lat="45.03785" lon="0.56268">
        <ele>181.6</ele>
        <time>2022-08-10T12:49:00Z</time>
      </trkpt>
      <trkpt lat="45.03789" lon="0.56274">
        <ele>182.6</ele>
        <time>2022-08-10T12:49:02Z</time>
      </trkpt>
      <trkpt lat="45.03792" lon="0.56279">
        <ele>182.6</ele>
        <time>2022-08-10T12:49:04Z</time>
      </trkpt>
      <trkpt lat="45.03796" lon="0.56287">
        <ele>182.6</ele>
        <time>2022-08-10T12:49:07Z</time>
      </trkpt>
      <trkpt lat="45.03799" lon="0.56294">
        <ele>182.6</ele>
        <time>2022-08-10T12:49:10Z</time>
      </trkpt>
      <trkpt lat="45.03802" lon="0.563">
        <ele>182.6</ele>
        <time>2022-08-10T12:49:12Z</time>
      </trkpt>
      <trkpt lat="45.03805" lon="0.56305">
        <ele>183.6</ele>
        <time>2022-08-10T12:49:14Z</time>
      </trkpt>
      <trkpt lat="45.0381" lon="0.56313">
        <ele>182.6</ele>
        <time>2022-08-10T12:49:17Z</time>
      </trkpt>
      <trkpt lat="45.03812" lon="0.56319">
        <ele>183.6</ele>
        <time>2022-08-10T12:49:19Z</time>
      </trkpt>
      <trkpt lat="45.03812" lon="0.56327">
        <ele>185.6</ele>
        <time>2022-08-10T12:49:49Z</time>
      </trkpt>
      <trkpt lat="45.03807" lon="0.5633">
        <ele>185.6</ele>
        <time>2022-08-10T12:49:51Z</time>
      </trkpt>
      <trkpt lat="45.03801" lon="0.56333">
        <ele>185.6</ele>
        <time>2022-08-10T12:49:53Z</time>
      </trkpt>
      <trkpt lat="45.03794" lon="0.56343">
        <ele>186.6</ele>
        <time>2022-08-10T12:49:55Z</time>
      </trkpt>
      <trkpt lat="45.03789" lon="0.56348">
        <ele>186.6</ele>
        <time>2022-08-10T12:49:56Z</time>
      </trkpt>
      <trkpt lat="45.03783" lon="0.56354">
        <ele>185.6</ele>
        <time>2022-08-10T12:49:57Z</time>
      </trkpt>
      <trkpt lat="45.03778" lon="0.56361">
        <ele>185.6</ele>
        <time>2022-08-10T12:49:58Z</time>
      </trkpt>
      <trkpt lat="45.03771" lon="0.56368">
        <ele>184.6</ele>
        <time>2022-08-10T12:49:59Z</time>
      </trkpt>
      <trkpt lat="45.03764" lon="0.56374">
        <ele>183.6</ele>
        <time>2022-08-10T12:50:00Z</time>
      </trkpt>
      <trkpt lat="45.03757" lon="0.5638">
        <ele>182.6</ele>
        <time>2022-08-10T12:50:01Z</time>
      </trkpt>
      <trkpt lat="45.0375" lon="0.56387">
        <ele>183.6</ele>
        <time>2022-08-10T12:50:02Z</time>
      </trkpt>
      <trkpt lat="45.03744" lon="0.56394">
        <ele>183.6</ele>
        <time>2022-08-10T12:50:03Z</time>
      </trkpt>
      <trkpt lat="45.03738" lon="0.56401">
        <ele>183.6</ele>
        <time>2022-08-10T12:50:04Z</time>
      </trkpt>
      <trkpt lat="45.03733" lon="0.56406">
        <ele>184.6</ele>
        <time>2022-08-10T12:50:05Z</time>
      </trkpt>
      <trkpt lat="45.03728" lon="0.5641">
        <ele>184.6</ele>
        <time>2022-08-10T12:50:06Z</time>
      </trkpt>
      <trkpt lat="45.0372" lon="0.56417">
        <ele>184.6</ele>
        <time>2022-08-10T12:50:08Z</time>
      </trkpt>
      <trkpt lat="45.03716" lon="0.56421">
        <ele>184.6</ele>
        <time>2022-08-10T12:50:09Z</time>
      </trkpt>
      <trkpt lat="45.03712" lon="0.56424">
        <ele>184.6</ele>
        <time>2022-08-10T12:50:10Z</time>
      </trkpt>
      <trkpt lat="45.03706" lon="0.5643">
        <ele>185.6</ele>
        <time>2022-08-10T12:50:12Z</time>
      </trkpt>
      <trkpt lat="45.03701" lon="0.56434">
        <ele>185.6</ele>
        <time>2022-08-10T12:50:14Z</time>
      </trkpt>
      <trkpt lat="45.03696" lon="0.56438">
        <ele>184.6</ele>
        <time>2022-08-10T12:50:16Z</time>
      </trkpt>
      <trkpt lat="45.03691" lon="0.56443">
        <ele>185.6</ele>
        <time>2022-08-10T12:50:18Z</time>
      </trkpt>
      <trkpt lat="45.03685" lon="0.56449">
        <ele>185.6</ele>
        <time>2022-08-10T12:50:20Z</time>
      </trkpt>
      <trkpt lat="45.03679" lon="0.56455">
        <ele>185.6</ele>
        <time>2022-08-10T12:50:22Z</time>
      </trkpt>
      <trkpt lat="45.03673" lon="0.56462">
        <ele>185.6</ele>
        <time>2022-08-10T12:50:24Z</time>
      </trkpt>
      <trkpt lat="45.03665" lon="0.56467">
        <ele>185.6</ele>
        <time>2022-08-10T12:50:26Z</time>
      </trkpt>
      <trkpt lat="45.03658" lon="0.56473">
        <ele>185.6</ele>
        <time>2022-08-10T12:50:28Z</time>
      </trkpt>
      <trkpt lat="45.03654" lon="0.56477">
        <ele>185.6</ele>
        <time>2022-08-10T12:50:29Z</time>
      </trkpt>
      <trkpt lat="45.03647" lon="0.56483">
        <ele>185.6</ele>
        <time>2022-08-10T12:50:31Z</time>
      </trkpt>
      <trkpt lat="45.0364" lon="0.56489">
        <ele>185.6</ele>
        <time>2022-08-10T12:50:33Z</time>
      </trkpt>
      <trkpt lat="45.03636" lon="0.56493">
        <ele>185.6</ele>
        <time>2022-08-10T12:50:34Z</time>
      </trkpt>
      <trkpt lat="45.03631" lon="0.56496">
        <ele>184.6</ele>
        <time>2022-08-10T12:50:35Z</time>
      </trkpt>
      <trkpt lat="45.03627" lon="0.56498">
        <ele>184.6</ele>
        <time>2022-08-10T12:50:36Z</time>
      </trkpt>
      <trkpt lat="45.03622" lon="0.56501">
        <ele>184.6</ele>
        <time>2022-08-10T12:50:37Z</time>
      </trkpt>
      <trkpt lat="45.03618" lon="0.56504">
        <ele>184.6</ele>
        <time>2022-08-10T12:50:38Z</time>
      </trkpt>
      <trkpt lat="45.03611" lon="0.56508">
        <ele>183.6</ele>
        <time>2022-08-10T12:50:39Z</time>
      </trkpt>
      <trkpt lat="45.03605" lon="0.56512">
        <ele>183.6</ele>
        <time>2022-08-10T12:50:40Z</time>
      </trkpt>
      <trkpt lat="45.03599" lon="0.56516">
        <ele>183.6</ele>
        <time>2022-08-10T12:50:41Z</time>
      </trkpt>
      <trkpt lat="45.03593" lon="0.56519">
        <ele>183.6</ele>
        <time>2022-08-10T12:50:42Z</time>
      </trkpt>
      <trkpt lat="45.03587" lon="0.56523">
        <ele>183.6</ele>
        <time>2022-08-10T12:50:43Z</time>
      </trkpt>
      <trkpt lat="45.03581" lon="0.56527">
        <ele>182.6</ele>
        <time>2022-08-10T12:50:44Z</time>
      </trkpt>
      <trkpt lat="45.03574" lon="0.56531">
        <ele>181.6</ele>
        <time>2022-08-10T12:50:45Z</time>
      </trkpt>
      <trkpt lat="45.03567" lon="0.56536">
        <ele>181.6</ele>
        <time>2022-08-10T12:50:46Z</time>
      </trkpt>
      <trkpt lat="45.03559" lon="0.56541">
        <ele>181.6</ele>
        <time>2022-08-10T12:50:47Z</time>
      </trkpt>
      <trkpt lat="45.03551" lon="0.56547">
        <ele>180.6</ele>
        <time>2022-08-10T12:50:48Z</time>
      </trkpt>
      <trkpt lat="45.03541" lon="0.56553">
        <ele>180.6</ele>
        <time>2022-08-10T12:50:49Z</time>
      </trkpt>
      <trkpt lat="45.03532" lon="0.5656">
        <ele>179.6</ele>
        <time>2022-08-10T12:50:50Z</time>
      </trkpt>
      <trkpt lat="45.03523" lon="0.56567">
        <ele>178.6</ele>
        <time>2022-08-10T12:50:51Z</time>
      </trkpt>
      <trkpt lat="45.03514" lon="0.56573">
        <ele>178.6</ele>
        <time>2022-08-10T12:50:52Z</time>
      </trkpt>
      <trkpt lat="45.03506" lon="0.56579">
        <ele>177.6</ele>
        <time>2022-08-10T12:50:53Z</time>
      </trkpt>
      <trkpt lat="45.03497" lon="0.56584">
        <ele>177.6</ele>
        <time>2022-08-10T12:50:54Z</time>
      </trkpt>
      <trkpt lat="45.03488" lon="0.56589">
        <ele>175.6</ele>
        <time>2022-08-10T12:50:55Z</time>
      </trkpt>
      <trkpt lat="45.03478" lon="0.56594">
        <ele>173.6</ele>
        <time>2022-08-10T12:50:56Z</time>
      </trkpt>
      <trkpt lat="45.03468" lon="0.56599">
        <ele>171.6</ele>
        <time>2022-08-10T12:50:57Z</time>
      </trkpt>
      <trkpt lat="45.03458" lon="0.56605">
        <ele>169.6</ele>
        <time>2022-08-10T12:50:58Z</time>
      </trkpt>
      <trkpt lat="45.03447" lon="0.56611">
        <ele>168.6</ele>
        <time>2022-08-10T12:50:59Z</time>
      </trkpt>
      <trkpt lat="45.03439" lon="0.56616">
        <ele>166.6</ele>
        <time>2022-08-10T12:51:00Z</time>
      </trkpt>
      <trkpt lat="45.03431" lon="0.56621">
        <ele>165.6</ele>
        <time>2022-08-10T12:51:01Z</time>
      </trkpt>
      <trkpt lat="45.03424" lon="0.56625">
        <ele>164.6</ele>
        <time>2022-08-10T12:51:02Z</time>
      </trkpt>
      <trkpt lat="45.03416" lon="0.5663">
        <ele>163.6</ele>
        <time>2022-08-10T12:51:03Z</time>
      </trkpt>
      <trkpt lat="45.03408" lon="0.56636">
        <ele>161.6</ele>
        <time>2022-08-10T12:51:04Z</time>
      </trkpt>
      <trkpt lat="45.034" lon="0.56641">
        <ele>160.6</ele>
        <time>2022-08-10T12:51:05Z</time>
      </trkpt>
      <trkpt lat="45.03392" lon="0.56646">
        <ele>158.6</ele>
        <time>2022-08-10T12:51:06Z</time>
      </trkpt>
      <trkpt lat="45.03385" lon="0.56651">
        <ele>157.6</ele>
        <time>2022-08-10T12:51:07Z</time>
      </trkpt>
      <trkpt lat="45.03377" lon="0.56657">
        <ele>155.6</ele>
        <time>2022-08-10T12:51:08Z</time>
      </trkpt>
      <trkpt lat="45.0337" lon="0.56661">
        <ele>154.6</ele>
        <time>2022-08-10T12:51:09Z</time>
      </trkpt>
      <trkpt lat="45.03363" lon="0.56666">
        <ele>153.6</ele>
        <time>2022-08-10T12:51:10Z</time>
      </trkpt>
      <trkpt lat="45.03356" lon="0.56669">
        <ele>152.6</ele>
        <time>2022-08-10T12:51:11Z</time>
      </trkpt>
      <trkpt lat="45.03349" lon="0.56673">
        <ele>150.6</ele>
        <time>2022-08-10T12:51:12Z</time>
      </trkpt>
      <trkpt lat="45.03343" lon="0.56676">
        <ele>149.6</ele>
        <time>2022-08-10T12:51:13Z</time>
      </trkpt>
      <trkpt lat="45.03336" lon="0.56679">
        <ele>148.6</ele>
        <time>2022-08-10T12:51:14Z</time>
      </trkpt>
      <trkpt lat="45.03329" lon="0.56683">
        <ele>148.6</ele>
        <time>2022-08-10T12:51:15Z</time>
      </trkpt>
      <trkpt lat="45.03322" lon="0.56687">
        <ele>147.6</ele>
        <time>2022-08-10T12:51:16Z</time>
      </trkpt>
      <trkpt lat="45.03316" lon="0.56691">
        <ele>147.6</ele>
        <time>2022-08-10T12:51:17Z</time>
      </trkpt>
      <trkpt lat="45.03311" lon="0.56694">
        <ele>146.6</ele>
        <time>2022-08-10T12:51:18Z</time>
      </trkpt>
      <trkpt lat="45.03307" lon="0.56698">
        <ele>146.6</ele>
        <time>2022-08-10T12:51:19Z</time>
      </trkpt>
      <trkpt lat="45.03301" lon="0.567">
        <ele>145.6</ele>
        <time>2022-08-10T12:51:21Z</time>
      </trkpt>
      <trkpt lat="45.03296" lon="0.56694">
        <ele>144.6</ele>
        <time>2022-08-10T12:51:24Z</time>
      </trkpt>
      <trkpt lat="45.03293" lon="0.56688">
        <ele>144.6</ele>
        <time>2022-08-10T12:51:26Z</time>
      </trkpt>
      <trkpt lat="45.03289" lon="0.5668">
        <ele>143.6</ele>
        <time>2022-08-10T12:51:28Z</time>
      </trkpt>
      <trkpt lat="45.03285" lon="0.56675">
        <ele>142.6</ele>
        <time>2022-08-10T12:51:29Z</time>
      </trkpt>
      <trkpt lat="45.03283" lon="0.56669">
        <ele>141.6</ele>
        <time>2022-08-10T12:51:30Z</time>
      </trkpt>
      <trkpt lat="45.0328" lon="0.56663">
        <ele>141.6</ele>
        <time>2022-08-10T12:51:31Z</time>
      </trkpt>
      <trkpt lat="45.03278" lon="0.56656">
        <ele>141.6</ele>
        <time>2022-08-10T12:51:32Z</time>
      </trkpt>
      <trkpt lat="45.03276" lon="0.5665">
        <ele>140.6</ele>
        <time>2022-08-10T12:51:33Z</time>
      </trkpt>
      <trkpt lat="45.03275" lon="0.56638">
        <ele>140.6</ele>
        <time>2022-08-10T12:51:35Z</time>
      </trkpt>
      <trkpt lat="45.03275" lon="0.56625">
        <ele>139.6</ele>
        <time>2022-08-10T12:51:37Z</time>
      </trkpt>
      <trkpt lat="45.03275" lon="0.56618">
        <ele>139.6</ele>
        <time>2022-08-10T12:51:38Z</time>
      </trkpt>
      <trkpt lat="45.03276" lon="0.56606">
        <ele>140.6</ele>
        <time>2022-08-10T12:51:40Z</time>
      </trkpt>
      <trkpt lat="45.03276" lon="0.56595">
        <ele>139.6</ele>
        <time>2022-08-10T12:51:42Z</time>
      </trkpt>
      <trkpt lat="45.03275" lon="0.56583">
        <ele>138.6</ele>
        <time>2022-08-10T12:51:44Z</time>
      </trkpt>
      <trkpt lat="45.03273" lon="0.56571">
        <ele>137.6</ele>
        <time>2022-08-10T12:51:46Z</time>
      </trkpt>
      <trkpt lat="45.03271" lon="0.5656">
        <ele>136.6</ele>
        <time>2022-08-10T12:51:48Z</time>
      </trkpt>
      <trkpt lat="45.03267" lon="0.5655">
        <ele>136.6</ele>
        <time>2022-08-10T12:51:50Z</time>
      </trkpt>
      <trkpt lat="45.03263" lon="0.5654">
        <ele>135.6</ele>
        <time>2022-08-10T12:51:52Z</time>
      </trkpt>
      <trkpt lat="45.03259" lon="0.56529">
        <ele>135.6</ele>
        <time>2022-08-10T12:51:54Z</time>
      </trkpt>
      <trkpt lat="45.03256" lon="0.56524">
        <ele>135.6</ele>
        <time>2022-08-10T12:51:55Z</time>
      </trkpt>
      <trkpt lat="45.03251" lon="0.56514">
        <ele>135.6</ele>
        <time>2022-08-10T12:51:57Z</time>
      </trkpt>
      <trkpt lat="45.03249" lon="0.56509">
        <ele>135.6</ele>
        <time>2022-08-10T12:51:58Z</time>
      </trkpt>
      <trkpt lat="45.03246" lon="0.56503">
        <ele>135.6</ele>
        <time>2022-08-10T12:51:59Z</time>
      </trkpt>
      <trkpt lat="45.03243" lon="0.56498">
        <ele>136.6</ele>
        <time>2022-08-10T12:52:00Z</time>
      </trkpt>
      <trkpt lat="45.0324" lon="0.56493">
        <ele>136.6</ele>
        <time>2022-08-10T12:52:01Z</time>
      </trkpt>
      <trkpt lat="45.03238" lon="0.56487">
        <ele>136.6</ele>
        <time>2022-08-10T12:52:02Z</time>
      </trkpt>
      <trkpt lat="45.03235" lon="0.56482">
        <ele>136.6</ele>
        <time>2022-08-10T12:52:03Z</time>
      </trkpt>
      <trkpt lat="45.03232" lon="0.56476">
        <ele>136.6</ele>
        <time>2022-08-10T12:52:04Z</time>
      </trkpt>
      <trkpt lat="45.03227" lon="0.56466">
        <ele>136.6</ele>
        <time>2022-08-10T12:52:06Z</time>
      </trkpt>
      <trkpt lat="45.03222" lon="0.56457">
        <ele>136.6</ele>
        <time>2022-08-10T12:52:08Z</time>
      </trkpt>
      <trkpt lat="45.03219" lon="0.5645">
        <ele>136.6</ele>
        <time>2022-08-10T12:52:10Z</time>
      </trkpt>
      <trkpt lat="45.03216" lon="0.56444">
        <ele>136.6</ele>
        <time>2022-08-10T12:52:12Z</time>
      </trkpt>
      <trkpt lat="45.03212" lon="0.56439">
        <ele>136.6</ele>
        <time>2022-08-10T12:52:15Z</time>
      </trkpt>
      <trkpt lat="45.03213" lon="0.56446">
        <ele>136.6</ele>
        <time>2022-08-10T12:52:19Z</time>
      </trkpt>
      <trkpt lat="45.03216" lon="0.56452">
        <ele>137.6</ele>
        <time>2022-08-10T12:52:21Z</time>
      </trkpt>
      <trkpt lat="45.03219" lon="0.56458">
        <ele>137.6</ele>
        <time>2022-08-10T12:52:23Z</time>
      </trkpt>
      <trkpt lat="45.03223" lon="0.56466">
        <ele>136.6</ele>
        <time>2022-08-10T12:52:25Z</time>
      </trkpt>
      <trkpt lat="45.03227" lon="0.56474">
        <ele>136.6</ele>
        <time>2022-08-10T12:52:27Z</time>
      </trkpt>
      <trkpt lat="45.0323" lon="0.56482">
        <ele>135.6</ele>
        <time>2022-08-10T12:52:29Z</time>
      </trkpt>
      <trkpt lat="45.03233" lon="0.56491">
        <ele>135.6</ele>
        <time>2022-08-10T12:52:31Z</time>
      </trkpt>
      <trkpt lat="45.03236" lon="0.56501">
        <ele>135.6</ele>
        <time>2022-08-10T12:52:33Z</time>
      </trkpt>
      <trkpt lat="45.03242" lon="0.5651">
        <ele>135.6</ele>
        <time>2022-08-10T12:52:35Z</time>
      </trkpt>
      <trkpt lat="45.03246" lon="0.56519">
        <ele>135.6</ele>
        <time>2022-08-10T12:52:37Z</time>
      </trkpt>
      <trkpt lat="45.03251" lon="0.56529">
        <ele>135.6</ele>
        <time>2022-08-10T12:52:39Z</time>
      </trkpt>
      <trkpt lat="45.03255" lon="0.56538">
        <ele>135.6</ele>
        <time>2022-08-10T12:52:41Z</time>
      </trkpt>
      <trkpt lat="45.03259" lon="0.56548">
        <ele>136.6</ele>
        <time>2022-08-10T12:52:43Z</time>
      </trkpt>
      <trkpt lat="45.03263" lon="0.56557">
        <ele>136.6</ele>
        <time>2022-08-10T12:52:45Z</time>
      </trkpt>
      <trkpt lat="45.03265" lon="0.56566">
        <ele>136.6</ele>
        <time>2022-08-10T12:52:47Z</time>
      </trkpt>
      <trkpt lat="45.03268" lon="0.56576">
        <ele>137.6</ele>
        <time>2022-08-10T12:52:49Z</time>
      </trkpt>
      <trkpt lat="45.03269" lon="0.56588">
        <ele>137.6</ele>
        <time>2022-08-10T12:52:51Z</time>
      </trkpt>
      <trkpt lat="45.03269" lon="0.566">
        <ele>138.6</ele>
        <time>2022-08-10T12:52:53Z</time>
      </trkpt>
      <trkpt lat="45.03269" lon="0.56612">
        <ele>138.6</ele>
        <time>2022-08-10T12:52:55Z</time>
      </trkpt>
      <trkpt lat="45.03269" lon="0.56622">
        <ele>139.6</ele>
        <time>2022-08-10T12:52:57Z</time>
      </trkpt>
      <trkpt lat="45.03269" lon="0.56634">
        <ele>139.6</ele>
        <time>2022-08-10T12:52:59Z</time>
      </trkpt>
      <trkpt lat="45.0327" lon="0.56645">
        <ele>139.6</ele>
        <time>2022-08-10T12:53:01Z</time>
      </trkpt>
      <trkpt lat="45.03272" lon="0.56655">
        <ele>139.6</ele>
        <time>2022-08-10T12:53:03Z</time>
      </trkpt>
      <trkpt lat="45.03277" lon="0.56666">
        <ele>139.6</ele>
        <time>2022-08-10T12:53:05Z</time>
      </trkpt>
      <trkpt lat="45.03282" lon="0.56675">
        <ele>139.6</ele>
        <time>2022-08-10T12:53:07Z</time>
      </trkpt>
      <trkpt lat="45.03288" lon="0.56683">
        <ele>139.6</ele>
        <time>2022-08-10T12:53:09Z</time>
      </trkpt>
      <trkpt lat="45.03292" lon="0.56691">
        <ele>139.6</ele>
        <time>2022-08-10T12:53:11Z</time>
      </trkpt>
      <trkpt lat="45.03295" lon="0.567">
        <ele>139.6</ele>
        <time>2022-08-10T12:53:13Z</time>
      </trkpt>
      <trkpt lat="45.03299" lon="0.56708">
        <ele>139.6</ele>
        <time>2022-08-10T12:53:15Z</time>
      </trkpt>
      <trkpt lat="45.03301" lon="0.56716">
        <ele>138.6</ele>
        <time>2022-08-10T12:53:17Z</time>
      </trkpt>
      <trkpt lat="45.03304" lon="0.56723">
        <ele>138.6</ele>
        <time>2022-08-10T12:53:19Z</time>
      </trkpt>
      <trkpt lat="45.03306" lon="0.56732">
        <ele>138.6</ele>
        <time>2022-08-10T12:53:21Z</time>
      </trkpt>
      <trkpt lat="45.03307" lon="0.56741">
        <ele>138.6</ele>
        <time>2022-08-10T12:53:23Z</time>
      </trkpt>
      <trkpt lat="45.03309" lon="0.5675">
        <ele>138.6</ele>
        <time>2022-08-10T12:53:25Z</time>
      </trkpt>
      <trkpt lat="45.03311" lon="0.56759">
        <ele>138.6</ele>
        <time>2022-08-10T12:53:27Z</time>
      </trkpt>
      <trkpt lat="45.03313" lon="0.56769">
        <ele>138.6</ele>
        <time>2022-08-10T12:53:29Z</time>
      </trkpt>
      <trkpt lat="45.03314" lon="0.56778">
        <ele>138.6</ele>
        <time>2022-08-10T12:53:31Z</time>
      </trkpt>
      <trkpt lat="45.03315" lon="0.56786">
        <ele>138.6</ele>
        <time>2022-08-10T12:53:33Z</time>
      </trkpt>
      <trkpt lat="45.03316" lon="0.56796">
        <ele>138.6</ele>
        <time>2022-08-10T12:53:35Z</time>
      </trkpt>
      <trkpt lat="45.03317" lon="0.56805">
        <ele>138.6</ele>
        <time>2022-08-10T12:53:37Z</time>
      </trkpt>
      <trkpt lat="45.03319" lon="0.56815">
        <ele>137.6</ele>
        <time>2022-08-10T12:53:39Z</time>
      </trkpt>
      <trkpt lat="45.03322" lon="0.56824">
        <ele>137.6</ele>
        <time>2022-08-10T12:53:41Z</time>
      </trkpt>
      <trkpt lat="45.03325" lon="0.56833">
        <ele>136.6</ele>
        <time>2022-08-10T12:53:43Z</time>
      </trkpt>
      <trkpt lat="45.03329" lon="0.56842">
        <ele>136.6</ele>
        <time>2022-08-10T12:53:45Z</time>
      </trkpt>
      <trkpt lat="45.03333" lon="0.5685">
        <ele>136.6</ele>
        <time>2022-08-10T12:53:47Z</time>
      </trkpt>
      <trkpt lat="45.03338" lon="0.56858">
        <ele>136.6</ele>
        <time>2022-08-10T12:53:49Z</time>
      </trkpt>
      <trkpt lat="45.03341" lon="0.56865">
        <ele>136.6</ele>
        <time>2022-08-10T12:53:51Z</time>
      </trkpt>
      <trkpt lat="45.03345" lon="0.5687">
        <ele>136.6</ele>
        <time>2022-08-10T12:53:53Z</time>
      </trkpt>
      <trkpt lat="45.03349" lon="0.56876">
        <ele>136.6</ele>
        <time>2022-08-10T12:53:55Z</time>
      </trkpt>
      <trkpt lat="45.03352" lon="0.56884">
        <ele>136.6</ele>
        <time>2022-08-10T12:53:57Z</time>
      </trkpt>
      <trkpt lat="45.03354" lon="0.56891">
        <ele>135.6</ele>
        <time>2022-08-10T12:53:59Z</time>
      </trkpt>
      <trkpt lat="45.03358" lon="0.56897">
        <ele>136.6</ele>
        <time>2022-08-10T12:54:01Z</time>
      </trkpt>
      <trkpt lat="45.03361" lon="0.56904">
        <ele>136.6</ele>
        <time>2022-08-10T12:54:03Z</time>
      </trkpt>
      <trkpt lat="45.03363" lon="0.5691">
        <ele>136.6</ele>
        <time>2022-08-10T12:54:05Z</time>
      </trkpt>
      <trkpt lat="45.03367" lon="0.56917">
        <ele>135.6</ele>
        <time>2022-08-10T12:54:08Z</time>
      </trkpt>
      <trkpt lat="45.0337" lon="0.56926">
        <ele>136.6</ele>
        <time>2022-08-10T12:54:11Z</time>
      </trkpt>
      <trkpt lat="45.03373" lon="0.56933">
        <ele>136.6</ele>
        <time>2022-08-10T12:54:13Z</time>
      </trkpt>
      <trkpt lat="45.03376" lon="0.5694">
        <ele>136.6</ele>
        <time>2022-08-10T12:54:15Z</time>
      </trkpt>
      <trkpt lat="45.03381" lon="0.56947">
        <ele>137.6</ele>
        <time>2022-08-10T12:54:17Z</time>
      </trkpt>
      <trkpt lat="45.03385" lon="0.56954">
        <ele>137.6</ele>
        <time>2022-08-10T12:54:19Z</time>
      </trkpt>
      <trkpt lat="45.03389" lon="0.56962">
        <ele>136.6</ele>
        <time>2022-08-10T12:54:21Z</time>
      </trkpt>
      <trkpt lat="45.03393" lon="0.56969">
        <ele>137.6</ele>
        <time>2022-08-10T12:54:23Z</time>
      </trkpt>
      <trkpt lat="45.03396" lon="0.56976">
        <ele>137.6</ele>
        <time>2022-08-10T12:54:25Z</time>
      </trkpt>
      <trkpt lat="45.03399" lon="0.56981">
        <ele>136.6</ele>
        <time>2022-08-10T12:54:27Z</time>
      </trkpt>
      <trkpt lat="45.03403" lon="0.56988">
        <ele>137.6</ele>
        <time>2022-08-10T12:54:30Z</time>
      </trkpt>
      <trkpt lat="45.03407" lon="0.5699">
        <ele>136.6</ele>
        <time>2022-08-10T12:54:33Z</time>
      </trkpt>
      <trkpt lat="45.03408" lon="0.56983">
        <ele>136.6</ele>
        <time>2022-08-10T12:54:36Z</time>
      </trkpt>
      <trkpt lat="45.03404" lon="0.56976">
        <ele>136.6</ele>
        <time>2022-08-10T12:54:39Z</time>
      </trkpt>
      <trkpt lat="45.03401" lon="0.5697">
        <ele>135.6</ele>
        <time>2022-08-10T12:54:41Z</time>
      </trkpt>
      <trkpt lat="45.03397" lon="0.56962">
        <ele>135.6</ele>
        <time>2022-08-10T12:54:43Z</time>
      </trkpt>
      <trkpt lat="45.03393" lon="0.56954">
        <ele>135.6</ele>
        <time>2022-08-10T12:54:45Z</time>
      </trkpt>
      <trkpt lat="45.03388" lon="0.56945">
        <ele>134.6</ele>
        <time>2022-08-10T12:54:47Z</time>
      </trkpt>
      <trkpt lat="45.03384" lon="0.56936">
        <ele>133.6</ele>
        <time>2022-08-10T12:54:49Z</time>
      </trkpt>
      <trkpt lat="45.03378" lon="0.56926">
        <ele>133.6</ele>
        <time>2022-08-10T12:54:51Z</time>
      </trkpt>
      <trkpt lat="45.03374" lon="0.56917">
        <ele>133.6</ele>
        <time>2022-08-10T12:54:53Z</time>
      </trkpt>
      <trkpt lat="45.03368" lon="0.56906">
        <ele>133.6</ele>
        <time>2022-08-10T12:54:56Z</time>
      </trkpt>
      <trkpt lat="45.03362" lon="0.56899">
        <ele>132.6</ele>
        <time>2022-08-10T12:54:58Z</time>
      </trkpt>
      <trkpt lat="45.03357" lon="0.56897">
        <ele>133.6</ele>
        <time>2022-08-10T12:54:59Z</time>
      </trkpt>
      <trkpt lat="45.03352" lon="0.56896">
        <ele>133.6</ele>
        <time>2022-08-10T12:55:00Z</time>
      </trkpt>
      <trkpt lat="45.03346" lon="0.56898">
        <ele>133.6</ele>
        <time>2022-08-10T12:55:02Z</time>
      </trkpt>
      <trkpt lat="45.03341" lon="0.56902">
        <ele>133.6</ele>
        <time>2022-08-10T12:55:04Z</time>
      </trkpt>
      <trkpt lat="45.03337" lon="0.56906">
        <ele>133.6</ele>
        <time>2022-08-10T12:55:06Z</time>
      </trkpt>
      <trkpt lat="45.03331" lon="0.56909">
        <ele>133.6</ele>
        <time>2022-08-10T12:55:08Z</time>
      </trkpt>
      <trkpt lat="45.03325" lon="0.56912">
        <ele>133.6</ele>
        <time>2022-08-10T12:55:10Z</time>
      </trkpt>
      <trkpt lat="45.0332" lon="0.56913">
        <ele>133.6</ele>
        <time>2022-08-10T12:55:12Z</time>
      </trkpt>
      <trkpt lat="45.03316" lon="0.56915">
        <ele>133.6</ele>
        <time>2022-08-10T12:55:14Z</time>
      </trkpt>
      <trkpt lat="45.03311" lon="0.56918">
        <ele>133.6</ele>
        <time>2022-08-10T12:55:16Z</time>
      </trkpt>
      <trkpt lat="45.03305" lon="0.56923">
        <ele>133.6</ele>
        <time>2022-08-10T12:55:18Z</time>
      </trkpt>
      <trkpt lat="45.03301" lon="0.56928">
        <ele>133.6</ele>
        <time>2022-08-10T12:55:20Z</time>
      </trkpt>
      <trkpt lat="45.03297" lon="0.56933">
        <ele>133.6</ele>
        <time>2022-08-10T12:55:22Z</time>
      </trkpt>
      <trkpt lat="45.03292" lon="0.56938">
        <ele>133.6</ele>
        <time>2022-08-10T12:55:24Z</time>
      </trkpt>
      <trkpt lat="45.03286" lon="0.56941">
        <ele>133.6</ele>
        <time>2022-08-10T12:55:26Z</time>
      </trkpt>
      <trkpt lat="45.0328" lon="0.56943">
        <ele>133.6</ele>
        <time>2022-08-10T12:55:28Z</time>
      </trkpt>
      <trkpt lat="45.03275" lon="0.56946">
        <ele>133.6</ele>
        <time>2022-08-10T12:55:30Z</time>
      </trkpt>
      <trkpt lat="45.03269" lon="0.56949">
        <ele>133.6</ele>
        <time>2022-08-10T12:55:32Z</time>
      </trkpt>
      <trkpt lat="45.03264" lon="0.56953">
        <ele>133.6</ele>
        <time>2022-08-10T12:55:34Z</time>
      </trkpt>
      <trkpt lat="45.03257" lon="0.5696">
        <ele>134.6</ele>
        <time>2022-08-10T12:55:37Z</time>
      </trkpt>
      <trkpt lat="45.03251" lon="0.56965">
        <ele>134.6</ele>
        <time>2022-08-10T12:55:39Z</time>
      </trkpt>
      <trkpt lat="45.03246" lon="0.56969">
        <ele>134.6</ele>
        <time>2022-08-10T12:55:41Z</time>
      </trkpt>
      <trkpt lat="45.03241" lon="0.56973">
        <ele>134.6</ele>
        <time>2022-08-10T12:55:43Z</time>
      </trkpt>
      <trkpt lat="45.03237" lon="0.56978">
        <ele>134.6</ele>
        <time>2022-08-10T12:55:45Z</time>
      </trkpt>
      <trkpt lat="45.03231" lon="0.56982">
        <ele>135.6</ele>
        <time>2022-08-10T12:55:47Z</time>
      </trkpt>
      <trkpt lat="45.03226" lon="0.56988">
        <ele>135.6</ele>
        <time>2022-08-10T12:55:49Z</time>
      </trkpt>
      <trkpt lat="45.03221" lon="0.56994">
        <ele>135.6</ele>
        <time>2022-08-10T12:55:51Z</time>
      </trkpt>
      <trkpt lat="45.03216" lon="0.57">
        <ele>136.6</ele>
        <time>2022-08-10T12:55:53Z</time>
      </trkpt>
      <trkpt lat="45.03212" lon="0.57007">
        <ele>136.6</ele>
        <time>2022-08-10T12:55:55Z</time>
      </trkpt>
      <trkpt lat="45.03208" lon="0.57014">
        <ele>137.6</ele>
        <time>2022-08-10T12:55:57Z</time>
      </trkpt>
      <trkpt lat="45.03204" lon="0.57022">
        <ele>137.6</ele>
        <time>2022-08-10T12:55:59Z</time>
      </trkpt>
      <trkpt lat="45.032" lon="0.57029">
        <ele>139.6</ele>
        <time>2022-08-10T12:56:01Z</time>
      </trkpt>
      <trkpt lat="45.03197" lon="0.57036">
        <ele>139.6</ele>
        <time>2022-08-10T12:56:03Z</time>
      </trkpt>
      <trkpt lat="45.03193" lon="0.57042">
        <ele>140.6</ele>
        <time>2022-08-10T12:56:05Z</time>
      </trkpt>
      <trkpt lat="45.0319" lon="0.57047">
        <ele>142.6</ele>
        <time>2022-08-10T12:56:07Z</time>
      </trkpt>
      <trkpt lat="45.03187" lon="0.57054">
        <ele>143.6</ele>
        <time>2022-08-10T12:56:09Z</time>
      </trkpt>
      <trkpt lat="45.03184" lon="0.57059">
        <ele>144.6</ele>
        <time>2022-08-10T12:56:11Z</time>
      </trkpt>
      <trkpt lat="45.03182" lon="0.57064">
        <ele>146.6</ele>
        <time>2022-08-10T12:56:13Z</time>
      </trkpt>
      <trkpt lat="45.03178" lon="0.57071">
        <ele>147.6</ele>
        <time>2022-08-10T12:56:16Z</time>
      </trkpt>
      <trkpt lat="45.03176" lon="0.57076">
        <ele>147.6</ele>
        <time>2022-08-10T12:56:19Z</time>
      </trkpt>
      <trkpt lat="45.03172" lon="0.57082">
        <ele>148.6</ele>
        <time>2022-08-10T12:56:22Z</time>
      </trkpt>
      <trkpt lat="45.0317" lon="0.57089">
        <ele>151.6</ele>
        <time>2022-08-10T12:56:27Z</time>
      </trkpt>
      <trkpt lat="45.03166" lon="0.57096">
        <ele>152.6</ele>
        <time>2022-08-10T12:56:32Z</time>
      </trkpt>
      <trkpt lat="45.03163" lon="0.57104">
        <ele>152.6</ele>
        <time>2022-08-10T12:56:35Z</time>
      </trkpt>
      <trkpt lat="45.0316" lon="0.57109">
        <ele>153.6</ele>
        <time>2022-08-10T12:56:38Z</time>
      </trkpt>
      <trkpt lat="45.03155" lon="0.57117">
        <ele>152.6</ele>
        <time>2022-08-10T12:56:44Z</time>
      </trkpt>
      <trkpt lat="45.03153" lon="0.57123">
        <ele>152.6</ele>
        <time>2022-08-10T12:56:47Z</time>
      </trkpt>
      <trkpt lat="45.03151" lon="0.5713">
        <ele>153.6</ele>
        <time>2022-08-10T12:56:51Z</time>
      </trkpt>
      <trkpt lat="45.03148" lon="0.57137">
        <ele>153.6</ele>
        <time>2022-08-10T12:56:54Z</time>
      </trkpt>
      <trkpt lat="45.03144" lon="0.57143">
        <ele>153.6</ele>
        <time>2022-08-10T12:56:57Z</time>
      </trkpt>
      <trkpt lat="45.03142" lon="0.57151">
        <ele>154.6</ele>
        <time>2022-08-10T12:57:00Z</time>
      </trkpt>
      <trkpt lat="45.0314" lon="0.57158">
        <ele>155.6</ele>
        <time>2022-08-10T12:57:03Z</time>
      </trkpt>
      <trkpt lat="45.03137" lon="0.57165">
        <ele>155.6</ele>
        <time>2022-08-10T12:57:06Z</time>
      </trkpt>
      <trkpt lat="45.03136" lon="0.57173">
        <ele>155.6</ele>
        <time>2022-08-10T12:57:09Z</time>
      </trkpt>
      <trkpt lat="45.03133" lon="0.57179">
        <ele>156.6</ele>
        <time>2022-08-10T12:57:12Z</time>
      </trkpt>
      <trkpt lat="45.0313" lon="0.57186">
        <ele>155.6</ele>
        <time>2022-08-10T12:57:15Z</time>
      </trkpt>
      <trkpt lat="45.03127" lon="0.57194">
        <ele>155.6</ele>
        <time>2022-08-10T12:57:18Z</time>
      </trkpt>
      <trkpt lat="45.03123" lon="0.57201">
        <ele>156.6</ele>
        <time>2022-08-10T12:57:21Z</time>
      </trkpt>
      <trkpt lat="45.03121" lon="0.57209">
        <ele>156.6</ele>
        <time>2022-08-10T12:57:24Z</time>
      </trkpt>
      <trkpt lat="45.03118" lon="0.57216">
        <ele>155.6</ele>
        <time>2022-08-10T12:57:27Z</time>
      </trkpt>
      <trkpt lat="45.03115" lon="0.57222">
        <ele>154.6</ele>
        <time>2022-08-10T12:57:29Z</time>
      </trkpt>
      <trkpt lat="45.03113" lon="0.57228">
        <ele>155.6</ele>
        <time>2022-08-10T12:57:31Z</time>
      </trkpt>
      <trkpt lat="45.0311" lon="0.57235">
        <ele>155.6</ele>
        <time>2022-08-10T12:57:33Z</time>
      </trkpt>
      <trkpt lat="45.03107" lon="0.57241">
        <ele>155.6</ele>
        <time>2022-08-10T12:57:35Z</time>
      </trkpt>
      <trkpt lat="45.03103" lon="0.57248">
        <ele>156.6</ele>
        <time>2022-08-10T12:57:37Z</time>
      </trkpt>
      <trkpt lat="45.03098" lon="0.57254">
        <ele>155.6</ele>
        <time>2022-08-10T12:57:39Z</time>
      </trkpt>
      <trkpt lat="45.03094" lon="0.57261">
        <ele>155.6</ele>
        <time>2022-08-10T12:57:41Z</time>
      </trkpt>
      <trkpt lat="45.03091" lon="0.57267">
        <ele>155.6</ele>
        <time>2022-08-10T12:57:43Z</time>
      </trkpt>
      <trkpt lat="45.03087" lon="0.57273">
        <ele>155.6</ele>
        <time>2022-08-10T12:57:45Z</time>
      </trkpt>
      <trkpt lat="45.03084" lon="0.57278">
        <ele>156.6</ele>
        <time>2022-08-10T12:57:47Z</time>
      </trkpt>
      <trkpt lat="45.03081" lon="0.57284">
        <ele>156.6</ele>
        <time>2022-08-10T12:57:49Z</time>
      </trkpt>
      <trkpt lat="45.03079" lon="0.5729">
        <ele>156.6</ele>
        <time>2022-08-10T12:57:51Z</time>
      </trkpt>
      <trkpt lat="45.03076" lon="0.57298">
        <ele>156.6</ele>
        <time>2022-08-10T12:57:54Z</time>
      </trkpt>
      <trkpt lat="45.03071" lon="0.57303">
        <ele>157.6</ele>
        <time>2022-08-10T12:57:57Z</time>
      </trkpt>
      <trkpt lat="45.03068" lon="0.57309">
        <ele>158.6</ele>
        <time>2022-08-10T12:58:00Z</time>
      </trkpt>
      <trkpt lat="45.03064" lon="0.57316">
        <ele>158.6</ele>
        <time>2022-08-10T12:58:03Z</time>
      </trkpt>
      <trkpt lat="45.0306" lon="0.57322">
        <ele>159.6</ele>
        <time>2022-08-10T12:58:06Z</time>
      </trkpt>
      <trkpt lat="45.03057" lon="0.57329">
        <ele>160.6</ele>
        <time>2022-08-10T12:58:09Z</time>
      </trkpt>
      <trkpt lat="45.03053" lon="0.57336">
        <ele>161.6</ele>
        <time>2022-08-10T12:58:12Z</time>
      </trkpt>
      <trkpt lat="45.03051" lon="0.57344">
        <ele>162.6</ele>
        <time>2022-08-10T12:58:15Z</time>
      </trkpt>
      <trkpt lat="45.03051" lon="0.57353">
        <ele>163.6</ele>
        <time>2022-08-10T12:58:18Z</time>
      </trkpt>
      <trkpt lat="45.0305" lon="0.5736">
        <ele>164.6</ele>
        <time>2022-08-10T12:58:21Z</time>
      </trkpt>
      <trkpt lat="45.03049" lon="0.57368">
        <ele>165.6</ele>
        <time>2022-08-10T12:58:24Z</time>
      </trkpt>
      <trkpt lat="45.03049" lon="0.57376">
        <ele>166.6</ele>
        <time>2022-08-10T12:58:27Z</time>
      </trkpt>
      <trkpt lat="45.0305" lon="0.57384">
        <ele>166.6</ele>
        <time>2022-08-10T12:58:30Z</time>
      </trkpt>
      <trkpt lat="45.0305" lon="0.57392">
        <ele>167.6</ele>
        <time>2022-08-10T12:58:33Z</time>
      </trkpt>
      <trkpt lat="45.0305" lon="0.574">
        <ele>167.6</ele>
        <time>2022-08-10T12:58:36Z</time>
      </trkpt>
      <trkpt lat="45.03051" lon="0.57407">
        <ele>168.6</ele>
        <time>2022-08-10T12:58:39Z</time>
      </trkpt>
      <trkpt lat="45.03052" lon="0.57415">
        <ele>169.6</ele>
        <time>2022-08-10T12:58:43Z</time>
      </trkpt>
      <trkpt lat="45.03053" lon="0.57422">
        <ele>168.6</ele>
        <time>2022-08-10T12:58:47Z</time>
      </trkpt>
      <trkpt lat="45.03053" lon="0.57429">
        <ele>169.6</ele>
        <time>2022-08-10T12:58:50Z</time>
      </trkpt>
      <trkpt lat="45.03054" lon="0.57437">
        <ele>168.6</ele>
        <time>2022-08-10T12:58:53Z</time>
      </trkpt>
      <trkpt lat="45.03053" lon="0.57444">
        <ele>168.6</ele>
        <time>2022-08-10T12:58:56Z</time>
      </trkpt>
      <trkpt lat="45.03053" lon="0.57452">
        <ele>169.6</ele>
        <time>2022-08-10T12:58:59Z</time>
      </trkpt>
      <trkpt lat="45.03053" lon="0.57459">
        <ele>171.6</ele>
        <time>2022-08-10T12:59:02Z</time>
      </trkpt>
      <trkpt lat="45.03052" lon="0.57466">
        <ele>172.6</ele>
        <time>2022-08-10T12:59:05Z</time>
      </trkpt>
      <trkpt lat="45.03051" lon="0.57473">
        <ele>172.6</ele>
        <time>2022-08-10T12:59:08Z</time>
      </trkpt>
      <trkpt lat="45.03051" lon="0.57479">
        <ele>174.6</ele>
        <time>2022-08-10T12:59:11Z</time>
      </trkpt>
      <trkpt lat="45.03051" lon="0.57486">
        <ele>176.6</ele>
        <time>2022-08-10T12:59:14Z</time>
      </trkpt>
      <trkpt lat="45.03049" lon="0.57494">
        <ele>176.6</ele>
        <time>2022-08-10T12:59:20Z</time>
      </trkpt>
      <trkpt lat="45.03048" lon="0.57501">
        <ele>176.6</ele>
        <time>2022-08-10T12:59:23Z</time>
      </trkpt>
      <trkpt lat="45.03046" lon="0.57507">
        <ele>175.6</ele>
        <time>2022-08-10T12:59:27Z</time>
      </trkpt>
      <trkpt lat="45.03043" lon="0.57515">
        <ele>175.6</ele>
        <time>2022-08-10T12:59:32Z</time>
      </trkpt>
      <trkpt lat="45.03041" lon="0.57523">
        <ele>176.6</ele>
        <time>2022-08-10T12:59:35Z</time>
      </trkpt>
      <trkpt lat="45.03039" lon="0.57529">
        <ele>176.6</ele>
        <time>2022-08-10T12:59:38Z</time>
      </trkpt>
      <trkpt lat="45.03037" lon="0.57535">
        <ele>176.6</ele>
        <time>2022-08-10T12:59:41Z</time>
      </trkpt>
      <trkpt lat="45.03034" lon="0.57541">
        <ele>176.6</ele>
        <time>2022-08-10T12:59:44Z</time>
      </trkpt>
      <trkpt lat="45.03031" lon="0.57545">
        <ele>177.6</ele>
        <time>2022-08-10T12:59:48Z</time>
      </trkpt>
      <trkpt lat="45.03028" lon="0.57553">
        <ele>177.6</ele>
        <time>2022-08-10T12:59:51Z</time>
      </trkpt>
      <trkpt lat="45.03026" lon="0.5756">
        <ele>178.6</ele>
        <time>2022-08-10T12:59:54Z</time>
      </trkpt>
      <trkpt lat="45.03024" lon="0.57568">
        <ele>177.6</ele>
        <time>2022-08-10T12:59:57Z</time>
      </trkpt>
      <trkpt lat="45.0302" lon="0.57575">
        <ele>178.6</ele>
        <time>2022-08-10T13:00:00Z</time>
      </trkpt>
      <trkpt lat="45.03015" lon="0.57581">
        <ele>179.6</ele>
        <time>2022-08-10T13:00:03Z</time>
      </trkpt>
      <trkpt lat="45.03013" lon="0.57588">
        <ele>179.6</ele>
        <time>2022-08-10T13:00:06Z</time>
      </trkpt>
      <trkpt lat="45.0301" lon="0.57595">
        <ele>179.6</ele>
        <time>2022-08-10T13:00:09Z</time>
      </trkpt>
      <trkpt lat="45.03007" lon="0.57602">
        <ele>179.6</ele>
        <time>2022-08-10T13:00:12Z</time>
      </trkpt>
      <trkpt lat="45.03004" lon="0.5761">
        <ele>180.6</ele>
        <time>2022-08-10T13:00:15Z</time>
      </trkpt>
      <trkpt lat="45.03001" lon="0.57618">
        <ele>180.6</ele>
        <time>2022-08-10T13:00:18Z</time>
      </trkpt>
      <trkpt lat="45.02998" lon="0.57627">
        <ele>180.6</ele>
        <time>2022-08-10T13:00:21Z</time>
      </trkpt>
      <trkpt lat="45.02995" lon="0.57632">
        <ele>180.6</ele>
        <time>2022-08-10T13:00:23Z</time>
      </trkpt>
      <trkpt lat="45.02992" lon="0.57638">
        <ele>180.6</ele>
        <time>2022-08-10T13:00:26Z</time>
      </trkpt>
      <trkpt lat="45.02988" lon="0.57644">
        <ele>181.6</ele>
        <time>2022-08-10T13:00:29Z</time>
      </trkpt>
      <trkpt lat="45.02985" lon="0.57649">
        <ele>181.6</ele>
        <time>2022-08-10T13:00:31Z</time>
      </trkpt>
      <trkpt lat="45.02981" lon="0.57655">
        <ele>181.6</ele>
        <time>2022-08-10T13:00:34Z</time>
      </trkpt>
      <trkpt lat="45.02977" lon="0.5766">
        <ele>180.6</ele>
        <time>2022-08-10T13:00:37Z</time>
      </trkpt>
      <trkpt lat="45.02973" lon="0.57664">
        <ele>180.6</ele>
        <time>2022-08-10T13:00:40Z</time>
      </trkpt>
      <trkpt lat="45.02969" lon="0.5767">
        <ele>179.6</ele>
        <time>2022-08-10T13:00:43Z</time>
      </trkpt>
      <trkpt lat="45.02964" lon="0.57676">
        <ele>179.6</ele>
        <time>2022-08-10T13:00:46Z</time>
      </trkpt>
      <trkpt lat="45.0296" lon="0.5768">
        <ele>178.6</ele>
        <time>2022-08-10T13:00:49Z</time>
      </trkpt>
      <trkpt lat="45.02955" lon="0.57687">
        <ele>178.6</ele>
        <time>2022-08-10T13:00:52Z</time>
      </trkpt>
      <trkpt lat="45.02951" lon="0.57691">
        <ele>179.6</ele>
        <time>2022-08-10T13:00:55Z</time>
      </trkpt>
      <trkpt lat="45.02947" lon="0.57696">
        <ele>179.6</ele>
        <time>2022-08-10T13:00:58Z</time>
      </trkpt>
      <trkpt lat="45.02944" lon="0.57701">
        <ele>180.6</ele>
        <time>2022-08-10T13:01:01Z</time>
      </trkpt>
      <trkpt lat="45.02939" lon="0.57706">
        <ele>180.6</ele>
        <time>2022-08-10T13:01:04Z</time>
      </trkpt>
      <trkpt lat="45.02934" lon="0.57711">
        <ele>181.6</ele>
        <time>2022-08-10T13:01:07Z</time>
      </trkpt>
      <trkpt lat="45.02929" lon="0.57715">
        <ele>182.6</ele>
        <time>2022-08-10T13:01:10Z</time>
      </trkpt>
      <trkpt lat="45.02924" lon="0.5772">
        <ele>182.6</ele>
        <time>2022-08-10T13:01:14Z</time>
      </trkpt>
      <trkpt lat="45.02919" lon="0.57726">
        <ele>181.6</ele>
        <time>2022-08-10T13:01:17Z</time>
      </trkpt>
      <trkpt lat="45.02915" lon="0.5773">
        <ele>181.6</ele>
        <time>2022-08-10T13:01:20Z</time>
      </trkpt>
      <trkpt lat="45.02913" lon="0.57737">
        <ele>182.6</ele>
        <time>2022-08-10T13:01:23Z</time>
      </trkpt>
      <trkpt lat="45.02917" lon="0.57742">
        <ele>182.6</ele>
        <time>2022-08-10T13:01:27Z</time>
      </trkpt>
      <trkpt lat="45.02922" lon="0.57745">
        <ele>182.6</ele>
        <time>2022-08-10T13:01:30Z</time>
      </trkpt>
      <trkpt lat="45.02928" lon="0.57749">
        <ele>182.6</ele>
        <time>2022-08-10T13:01:34Z</time>
      </trkpt>
      <trkpt lat="45.02933" lon="0.57751">
        <ele>182.6</ele>
        <time>2022-08-10T13:01:38Z</time>
      </trkpt>
      <trkpt lat="45.02939" lon="0.57752">
        <ele>183.6</ele>
        <time>2022-08-10T13:01:42Z</time>
      </trkpt>
      <trkpt lat="45.02944" lon="0.5775">
        <ele>184.6</ele>
        <time>2022-08-10T13:01:45Z</time>
      </trkpt>
      <trkpt lat="45.02949" lon="0.57749">
        <ele>185.6</ele>
        <time>2022-08-10T13:01:48Z</time>
      </trkpt>
      <trkpt lat="45.02955" lon="0.57747">
        <ele>184.6</ele>
        <time>2022-08-10T13:01:51Z</time>
      </trkpt>
      <trkpt lat="45.0296" lon="0.57746">
        <ele>185.6</ele>
        <time>2022-08-10T13:01:54Z</time>
      </trkpt>
      <trkpt lat="45.02966" lon="0.57745">
        <ele>185.6</ele>
        <time>2022-08-10T13:01:57Z</time>
      </trkpt>
      <trkpt lat="45.02972" lon="0.57743">
        <ele>185.6</ele>
        <time>2022-08-10T13:02:00Z</time>
      </trkpt>
      <trkpt lat="45.02978" lon="0.57743">
        <ele>186.6</ele>
        <time>2022-08-10T13:02:03Z</time>
      </trkpt>
      <trkpt lat="45.02983" lon="0.57743">
        <ele>186.6</ele>
        <time>2022-08-10T13:02:06Z</time>
      </trkpt>
      <trkpt lat="45.02988" lon="0.57746">
        <ele>186.6</ele>
        <time>2022-08-10T13:02:09Z</time>
      </trkpt>
      <trkpt lat="45.02994" lon="0.5775">
        <ele>188.6</ele>
        <time>2022-08-10T13:02:12Z</time>
      </trkpt>
      <trkpt lat="45.02999" lon="0.57751">
        <ele>188.6</ele>
        <time>2022-08-10T13:02:15Z</time>
      </trkpt>
      <trkpt lat="45.03005" lon="0.57752">
        <ele>190.6</ele>
        <time>2022-08-10T13:02:18Z</time>
      </trkpt>
      <trkpt lat="45.03009" lon="0.57755">
        <ele>191.6</ele>
        <time>2022-08-10T13:02:21Z</time>
      </trkpt>
      <trkpt lat="45.03015" lon="0.57758">
        <ele>191.6</ele>
        <time>2022-08-10T13:02:24Z</time>
      </trkpt>
      <trkpt lat="45.0302" lon="0.57759">
        <ele>191.6</ele>
        <time>2022-08-10T13:02:27Z</time>
      </trkpt>
      <trkpt lat="45.03025" lon="0.57762">
        <ele>192.6</ele>
        <time>2022-08-10T13:02:30Z</time>
      </trkpt>
      <trkpt lat="45.0303" lon="0.57765">
        <ele>193.6</ele>
        <time>2022-08-10T13:02:33Z</time>
      </trkpt>
      <trkpt lat="45.03037" lon="0.57767">
        <ele>195.6</ele>
        <time>2022-08-10T13:02:36Z</time>
      </trkpt>
      <trkpt lat="45.03042" lon="0.57769">
        <ele>196.6</ele>
        <time>2022-08-10T13:02:39Z</time>
      </trkpt>
      <trkpt lat="45.03047" lon="0.57772">
        <ele>196.6</ele>
        <time>2022-08-10T13:02:42Z</time>
      </trkpt>
      <trkpt lat="45.03052" lon="0.57776">
        <ele>196.6</ele>
        <time>2022-08-10T13:02:46Z</time>
      </trkpt>
      <trkpt lat="45.03057" lon="0.5778">
        <ele>196.6</ele>
        <time>2022-08-10T13:02:49Z</time>
      </trkpt>
      <trkpt lat="45.03061" lon="0.57785">
        <ele>196.6</ele>
        <time>2022-08-10T13:02:52Z</time>
      </trkpt>
      <trkpt lat="45.03065" lon="0.57789">
        <ele>195.6</ele>
        <time>2022-08-10T13:02:55Z</time>
      </trkpt>
      <trkpt lat="45.03071" lon="0.57793">
        <ele>195.6</ele>
        <time>2022-08-10T13:02:58Z</time>
      </trkpt>
      <trkpt lat="45.03075" lon="0.57798">
        <ele>194.6</ele>
        <time>2022-08-10T13:03:01Z</time>
      </trkpt>
      <trkpt lat="45.03081" lon="0.57803">
        <ele>194.6</ele>
        <time>2022-08-10T13:03:04Z</time>
      </trkpt>
      <trkpt lat="45.03087" lon="0.57811">
        <ele>194.6</ele>
        <time>2022-08-10T13:03:07Z</time>
      </trkpt>
      <trkpt lat="45.03091" lon="0.57816">
        <ele>193.6</ele>
        <time>2022-08-10T13:03:09Z</time>
      </trkpt>
      <trkpt lat="45.03094" lon="0.5782">
        <ele>193.6</ele>
        <time>2022-08-10T13:03:11Z</time>
      </trkpt>
      <trkpt lat="45.03099" lon="0.57826">
        <ele>193.6</ele>
        <time>2022-08-10T13:03:13Z</time>
      </trkpt>
      <trkpt lat="45.03106" lon="0.57831">
        <ele>192.6</ele>
        <time>2022-08-10T13:03:15Z</time>
      </trkpt>
      <trkpt lat="45.03113" lon="0.57836">
        <ele>191.6</ele>
        <time>2022-08-10T13:03:17Z</time>
      </trkpt>
      <trkpt lat="45.03122" lon="0.57841">
        <ele>190.6</ele>
        <time>2022-08-10T13:03:19Z</time>
      </trkpt>
      <trkpt lat="45.03127" lon="0.57844">
        <ele>190.6</ele>
        <time>2022-08-10T13:03:20Z</time>
      </trkpt>
      <trkpt lat="45.03131" lon="0.57846">
        <ele>190.6</ele>
        <time>2022-08-10T13:03:21Z</time>
      </trkpt>
      <trkpt lat="45.03138" lon="0.5785">
        <ele>190.6</ele>
        <time>2022-08-10T13:03:23Z</time>
      </trkpt>
      <trkpt lat="45.03145" lon="0.57853">
        <ele>189.6</ele>
        <time>2022-08-10T13:03:25Z</time>
      </trkpt>
      <trkpt lat="45.0315" lon="0.57858">
        <ele>189.6</ele>
        <time>2022-08-10T13:03:27Z</time>
      </trkpt>
      <trkpt lat="45.03154" lon="0.57862">
        <ele>189.6</ele>
        <time>2022-08-10T13:03:29Z</time>
      </trkpt>
      <trkpt lat="45.03158" lon="0.57868">
        <ele>190.6</ele>
        <time>2022-08-10T13:03:31Z</time>
      </trkpt>
      <trkpt lat="45.03161" lon="0.57874">
        <ele>189.6</ele>
        <time>2022-08-10T13:03:33Z</time>
      </trkpt>
      <trkpt lat="45.03167" lon="0.57882">
        <ele>189.6</ele>
        <time>2022-08-10T13:03:35Z</time>
      </trkpt>
      <trkpt lat="45.03176" lon="0.57894">
        <ele>188.6</ele>
        <time>2022-08-10T13:03:37Z</time>
      </trkpt>
      <trkpt lat="45.0318" lon="0.579">
        <ele>188.6</ele>
        <time>2022-08-10T13:03:38Z</time>
      </trkpt>
      <trkpt lat="45.03184" lon="0.57906">
        <ele>188.6</ele>
        <time>2022-08-10T13:03:39Z</time>
      </trkpt>
      <trkpt lat="45.03189" lon="0.57914">
        <ele>187.6</ele>
        <time>2022-08-10T13:03:41Z</time>
      </trkpt>
      <trkpt lat="45.03189" lon="0.57922">
        <ele>187.6</ele>
        <time>2022-08-10T13:03:49Z</time>
      </trkpt>
      <trkpt lat="45.03184" lon="0.57929">
        <ele>185.6</ele>
        <time>2022-08-10T13:03:52Z</time>
      </trkpt>
      <trkpt lat="45.03179" lon="0.57934">
        <ele>185.6</ele>
        <time>2022-08-10T13:03:55Z</time>
      </trkpt>
      <trkpt lat="45.03174" lon="0.5794">
        <ele>184.6</ele>
        <time>2022-08-10T13:03:58Z</time>
      </trkpt>
      <trkpt lat="45.03169" lon="0.57944">
        <ele>184.6</ele>
        <time>2022-08-10T13:04:01Z</time>
      </trkpt>
      <trkpt lat="45.03165" lon="0.57948">
        <ele>183.6</ele>
        <time>2022-08-10T13:04:06Z</time>
      </trkpt>
      <trkpt lat="45.03163" lon="0.57955">
        <ele>184.6</ele>
        <time>2022-08-10T13:04:11Z</time>
      </trkpt>
      <trkpt lat="45.03165" lon="0.57949">
        <ele>185.6</ele>
        <time>2022-08-10T13:05:22Z</time>
      </trkpt>
      <trkpt lat="45.0317" lon="0.57945">
        <ele>184.6</ele>
        <time>2022-08-10T13:05:28Z</time>
      </trkpt>
      <trkpt lat="45.03174" lon="0.57939">
        <ele>184.6</ele>
        <time>2022-08-10T13:05:31Z</time>
      </trkpt>
      <trkpt lat="45.03178" lon="0.57934">
        <ele>182.6</ele>
        <time>2022-08-10T13:05:33Z</time>
      </trkpt>
      <trkpt lat="45.03181" lon="0.57928">
        <ele>180.6</ele>
        <time>2022-08-10T13:05:35Z</time>
      </trkpt>
      <trkpt lat="45.03186" lon="0.57924">
        <ele>179.6</ele>
        <time>2022-08-10T13:05:38Z</time>
      </trkpt>
      <trkpt lat="45.03191" lon="0.57926">
        <ele>179.6</ele>
        <time>2022-08-10T13:05:41Z</time>
      </trkpt>
      <trkpt lat="45.03195" lon="0.57934">
        <ele>178.6</ele>
        <time>2022-08-10T13:05:44Z</time>
      </trkpt>
      <trkpt lat="45.03198" lon="0.5794">
        <ele>177.6</ele>
        <time>2022-08-10T13:05:46Z</time>
      </trkpt>
      <trkpt lat="45.03202" lon="0.5795">
        <ele>178.6</ele>
        <time>2022-08-10T13:05:48Z</time>
      </trkpt>
      <trkpt lat="45.03206" lon="0.57961">
        <ele>180.6</ele>
        <time>2022-08-10T13:05:50Z</time>
      </trkpt>
      <trkpt lat="45.0321" lon="0.57973">
        <ele>180.6</ele>
        <time>2022-08-10T13:05:52Z</time>
      </trkpt>
      <trkpt lat="45.03212" lon="0.57979">
        <ele>181.6</ele>
        <time>2022-08-10T13:05:53Z</time>
      </trkpt>
      <trkpt lat="45.03213" lon="0.57986">
        <ele>180.6</ele>
        <time>2022-08-10T13:05:54Z</time>
      </trkpt>
      <trkpt lat="45.03215" lon="0.57992">
        <ele>181.6</ele>
        <time>2022-08-10T13:05:55Z</time>
      </trkpt>
      <trkpt lat="45.03217" lon="0.58002">
        <ele>179.6</ele>
        <time>2022-08-10T13:05:57Z</time>
      </trkpt>
      <trkpt lat="45.03218" lon="0.58011">
        <ele>179.6</ele>
        <time>2022-08-10T13:05:59Z</time>
      </trkpt>
      <trkpt lat="45.03219" lon="0.58024">
        <ele>179.6</ele>
        <time>2022-08-10T13:06:01Z</time>
      </trkpt>
      <trkpt lat="45.03221" lon="0.58033">
        <ele>179.6</ele>
        <time>2022-08-10T13:06:03Z</time>
      </trkpt>
      <trkpt lat="45.03225" lon="0.58043">
        <ele>179.6</ele>
        <time>2022-08-10T13:06:05Z</time>
      </trkpt>
      <trkpt lat="45.03229" lon="0.58052">
        <ele>179.6</ele>
        <time>2022-08-10T13:06:07Z</time>
      </trkpt>
      <trkpt lat="45.03234" lon="0.58063">
        <ele>179.6</ele>
        <time>2022-08-10T13:06:09Z</time>
      </trkpt>
      <trkpt lat="45.03236" lon="0.58069">
        <ele>180.6</ele>
        <time>2022-08-10T13:06:10Z</time>
      </trkpt>
      <trkpt lat="45.03239" lon="0.58079">
        <ele>180.6</ele>
        <time>2022-08-10T13:06:12Z</time>
      </trkpt>
      <trkpt lat="45.03243" lon="0.58088">
        <ele>180.6</ele>
        <time>2022-08-10T13:06:14Z</time>
      </trkpt>
      <trkpt lat="45.03245" lon="0.58096">
        <ele>181.6</ele>
        <time>2022-08-10T13:06:16Z</time>
      </trkpt>
      <trkpt lat="45.03248" lon="0.58102">
        <ele>181.6</ele>
        <time>2022-08-10T13:06:18Z</time>
      </trkpt>
      <trkpt lat="45.03252" lon="0.58107">
        <ele>181.6</ele>
        <time>2022-08-10T13:06:20Z</time>
      </trkpt>
      <trkpt lat="45.03255" lon="0.58113">
        <ele>181.6</ele>
        <time>2022-08-10T13:06:22Z</time>
      </trkpt>
      <trkpt lat="45.03258" lon="0.5812">
        <ele>181.6</ele>
        <time>2022-08-10T13:06:24Z</time>
      </trkpt>
      <trkpt lat="45.03261" lon="0.58127">
        <ele>181.6</ele>
        <time>2022-08-10T13:06:26Z</time>
      </trkpt>
      <trkpt lat="45.03264" lon="0.58134">
        <ele>182.6</ele>
        <time>2022-08-10T13:06:28Z</time>
      </trkpt>
      <trkpt lat="45.03266" lon="0.58142">
        <ele>183.6</ele>
        <time>2022-08-10T13:06:30Z</time>
      </trkpt>
      <trkpt lat="45.03269" lon="0.58148">
        <ele>183.6</ele>
        <time>2022-08-10T13:06:32Z</time>
      </trkpt>
      <trkpt lat="45.03272" lon="0.58156">
        <ele>184.6</ele>
        <time>2022-08-10T13:06:34Z</time>
      </trkpt>
      <trkpt lat="45.03275" lon="0.58163">
        <ele>185.6</ele>
        <time>2022-08-10T13:06:36Z</time>
      </trkpt>
      <trkpt lat="45.03277" lon="0.58171">
        <ele>185.6</ele>
        <time>2022-08-10T13:06:38Z</time>
      </trkpt>
      <trkpt lat="45.0328" lon="0.58177">
        <ele>185.6</ele>
        <time>2022-08-10T13:06:40Z</time>
      </trkpt>
      <trkpt lat="45.03283" lon="0.58184">
        <ele>186.6</ele>
        <time>2022-08-10T13:06:42Z</time>
      </trkpt>
      <trkpt lat="45.03284" lon="0.5819">
        <ele>186.6</ele>
        <time>2022-08-10T13:06:44Z</time>
      </trkpt>
      <trkpt lat="45.03286" lon="0.58197">
        <ele>186.6</ele>
        <time>2022-08-10T13:06:46Z</time>
      </trkpt>
      <trkpt lat="45.03287" lon="0.58205">
        <ele>186.6</ele>
        <time>2022-08-10T13:06:48Z</time>
      </trkpt>
      <trkpt lat="45.03289" lon="0.58214">
        <ele>187.6</ele>
        <time>2022-08-10T13:06:50Z</time>
      </trkpt>
      <trkpt lat="45.03292" lon="0.58221">
        <ele>187.6</ele>
        <time>2022-08-10T13:06:52Z</time>
      </trkpt>
      <trkpt lat="45.03294" lon="0.58228">
        <ele>187.6</ele>
        <time>2022-08-10T13:06:54Z</time>
      </trkpt>
      <trkpt lat="45.03295" lon="0.58234">
        <ele>187.6</ele>
        <time>2022-08-10T13:06:56Z</time>
      </trkpt>
      <trkpt lat="45.03297" lon="0.58242">
        <ele>187.6</ele>
        <time>2022-08-10T13:06:58Z</time>
      </trkpt>
      <trkpt lat="45.033" lon="0.58249">
        <ele>187.6</ele>
        <time>2022-08-10T13:07:00Z</time>
      </trkpt>
      <trkpt lat="45.03302" lon="0.58256">
        <ele>187.6</ele>
        <time>2022-08-10T13:07:02Z</time>
      </trkpt>
      <trkpt lat="45.03303" lon="0.58262">
        <ele>188.6</ele>
        <time>2022-08-10T13:07:04Z</time>
      </trkpt>
      <trkpt lat="45.03306" lon="0.58268">
        <ele>188.6</ele>
        <time>2022-08-10T13:07:07Z</time>
      </trkpt>
      <trkpt lat="45.03301" lon="0.58265">
        <ele>188.6</ele>
        <time>2022-08-10T13:07:51Z</time>
      </trkpt>
      <trkpt lat="45.03297" lon="0.58261">
        <ele>188.6</ele>
        <time>2022-08-10T13:07:53Z</time>
      </trkpt>
      <trkpt lat="45.03296" lon="0.58253">
        <ele>187.6</ele>
        <time>2022-08-10T13:07:55Z</time>
      </trkpt>
      <trkpt lat="45.03295" lon="0.58245">
        <ele>186.6</ele>
        <time>2022-08-10T13:07:57Z</time>
      </trkpt>
      <trkpt lat="45.03294" lon="0.58237">
        <ele>184.6</ele>
        <time>2022-08-10T13:07:59Z</time>
      </trkpt>
      <trkpt lat="45.03293" lon="0.58229">
        <ele>182.6</ele>
        <time>2022-08-10T13:08:01Z</time>
      </trkpt>
      <trkpt lat="45.03292" lon="0.58218">
        <ele>180.6</ele>
        <time>2022-08-10T13:08:03Z</time>
      </trkpt>
      <trkpt lat="45.03291" lon="0.58206">
        <ele>178.6</ele>
        <time>2022-08-10T13:08:05Z</time>
      </trkpt>
      <trkpt lat="45.0329" lon="0.582">
        <ele>177.6</ele>
        <time>2022-08-10T13:08:06Z</time>
      </trkpt>
      <trkpt lat="45.0329" lon="0.58192">
        <ele>176.6</ele>
        <time>2022-08-10T13:08:07Z</time>
      </trkpt>
      <trkpt lat="45.03288" lon="0.58183">
        <ele>176.6</ele>
        <time>2022-08-10T13:08:08Z</time>
      </trkpt>
      <trkpt lat="45.03286" lon="0.58175">
        <ele>176.6</ele>
        <time>2022-08-10T13:08:09Z</time>
      </trkpt>
      <trkpt lat="45.03284" lon="0.58167">
        <ele>176.6</ele>
        <time>2022-08-10T13:08:10Z</time>
      </trkpt>
      <trkpt lat="45.03281" lon="0.58159">
        <ele>175.6</ele>
        <time>2022-08-10T13:08:11Z</time>
      </trkpt>
      <trkpt lat="45.03278" lon="0.58152">
        <ele>176.6</ele>
        <time>2022-08-10T13:08:12Z</time>
      </trkpt>
      <trkpt lat="45.03275" lon="0.58145">
        <ele>175.6</ele>
        <time>2022-08-10T13:08:13Z</time>
      </trkpt>
      <trkpt lat="45.03273" lon="0.58137">
        <ele>174.6</ele>
        <time>2022-08-10T13:08:14Z</time>
      </trkpt>
      <trkpt lat="45.0327" lon="0.5813">
        <ele>174.6</ele>
        <time>2022-08-10T13:08:15Z</time>
      </trkpt>
      <trkpt lat="45.03267" lon="0.58123">
        <ele>174.6</ele>
        <time>2022-08-10T13:08:16Z</time>
      </trkpt>
      <trkpt lat="45.03264" lon="0.58115">
        <ele>174.6</ele>
        <time>2022-08-10T13:08:17Z</time>
      </trkpt>
      <trkpt lat="45.03261" lon="0.58108">
        <ele>174.6</ele>
        <time>2022-08-10T13:08:18Z</time>
      </trkpt>
      <trkpt lat="45.03258" lon="0.581">
        <ele>173.6</ele>
        <time>2022-08-10T13:08:19Z</time>
      </trkpt>
      <trkpt lat="45.03256" lon="0.58094">
        <ele>173.6</ele>
        <time>2022-08-10T13:08:20Z</time>
      </trkpt>
      <trkpt lat="45.03253" lon="0.58087">
        <ele>173.6</ele>
        <time>2022-08-10T13:08:21Z</time>
      </trkpt>
      <trkpt lat="45.0325" lon="0.5808">
        <ele>173.6</ele>
        <time>2022-08-10T13:08:22Z</time>
      </trkpt>
      <trkpt lat="45.03247" lon="0.58075">
        <ele>173.6</ele>
        <time>2022-08-10T13:08:23Z</time>
      </trkpt>
      <trkpt lat="45.03244" lon="0.58069">
        <ele>174.6</ele>
        <time>2022-08-10T13:08:24Z</time>
      </trkpt>
      <trkpt lat="45.03238" lon="0.58054">
        <ele>174.6</ele>
        <time>2022-08-10T13:08:27Z</time>
      </trkpt>
      <trkpt lat="45.03237" lon="0.58045">
        <ele>173.6</ele>
        <time>2022-08-10T13:08:29Z</time>
      </trkpt>
      <trkpt lat="45.03238" lon="0.58031">
        <ele>173.6</ele>
        <time>2022-08-10T13:08:32Z</time>
      </trkpt>
      <trkpt lat="45.03237" lon="0.58021">
        <ele>172.6</ele>
        <time>2022-08-10T13:08:34Z</time>
      </trkpt>
      <trkpt lat="45.03235" lon="0.58012">
        <ele>172.6</ele>
        <time>2022-08-10T13:08:36Z</time>
      </trkpt>
      <trkpt lat="45.03232" lon="0.58007">
        <ele>172.6</ele>
        <time>2022-08-10T13:08:38Z</time>
      </trkpt>
      <trkpt lat="45.0323" lon="0.57999">
        <ele>172.6</ele>
        <time>2022-08-10T13:08:40Z</time>
      </trkpt>
      <trkpt lat="45.03229" lon="0.57992">
        <ele>172.6</ele>
        <time>2022-08-10T13:08:42Z</time>
      </trkpt>
      <trkpt lat="45.03227" lon="0.57984">
        <ele>172.6</ele>
        <time>2022-08-10T13:08:44Z</time>
      </trkpt>
      <trkpt lat="45.03225" lon="0.57976">
        <ele>172.6</ele>
        <time>2022-08-10T13:08:46Z</time>
      </trkpt>
      <trkpt lat="45.03223" lon="0.57969">
        <ele>172.6</ele>
        <time>2022-08-10T13:08:48Z</time>
      </trkpt>
      <trkpt lat="45.03221" lon="0.57962">
        <ele>172.6</ele>
        <time>2022-08-10T13:08:50Z</time>
      </trkpt>
      <trkpt lat="45.03219" lon="0.57956">
        <ele>172.6</ele>
        <time>2022-08-10T13:08:52Z</time>
      </trkpt>
      <trkpt lat="45.03216" lon="0.57947">
        <ele>171.6</ele>
        <time>2022-08-10T13:08:55Z</time>
      </trkpt>
      <trkpt lat="45.03211" lon="0.57941">
        <ele>171.6</ele>
        <time>2022-08-10T13:08:58Z</time>
      </trkpt>
      <trkpt lat="45.03204" lon="0.57937">
        <ele>170.6</ele>
        <time>2022-08-10T13:09:01Z</time>
      </trkpt>
      <trkpt lat="45.03199" lon="0.57939">
        <ele>171.6</ele>
        <time>2022-08-10T13:09:06Z</time>
      </trkpt>
      <trkpt lat="45.03192" lon="0.57941">
        <ele>171.6</ele>
        <time>2022-08-10T13:09:09Z</time>
      </trkpt>
      <trkpt lat="45.03187" lon="0.57944">
        <ele>171.6</ele>
        <time>2022-08-10T13:09:11Z</time>
      </trkpt>
      <trkpt lat="45.03182" lon="0.57946">
        <ele>172.6</ele>
        <time>2022-08-10T13:09:13Z</time>
      </trkpt>
      <trkpt lat="45.03176" lon="0.5795">
        <ele>172.6</ele>
        <time>2022-08-10T13:09:16Z</time>
      </trkpt>
      <trkpt lat="45.03171" lon="0.57954">
        <ele>172.6</ele>
        <time>2022-08-10T13:09:18Z</time>
      </trkpt>
      <trkpt lat="45.03164" lon="0.57959">
        <ele>172.6</ele>
        <time>2022-08-10T13:09:20Z</time>
      </trkpt>
      <trkpt lat="45.03158" lon="0.57962">
        <ele>174.6</ele>
        <time>2022-08-10T13:09:21Z</time>
      </trkpt>
      <trkpt lat="45.03152" lon="0.57966">
        <ele>175.6</ele>
        <time>2022-08-10T13:09:22Z</time>
      </trkpt>
      <trkpt lat="45.03146" lon="0.5797">
        <ele>176.6</ele>
        <time>2022-08-10T13:09:23Z</time>
      </trkpt>
      <trkpt lat="45.03141" lon="0.57975">
        <ele>177.6</ele>
        <time>2022-08-10T13:09:24Z</time>
      </trkpt>
      <trkpt lat="45.03136" lon="0.57978">
        <ele>177.6</ele>
        <time>2022-08-10T13:09:25Z</time>
      </trkpt>
      <trkpt lat="45.0313" lon="0.57981">
        <ele>177.6</ele>
        <time>2022-08-10T13:09:27Z</time>
      </trkpt>
      <trkpt lat="45.03123" lon="0.57983">
        <ele>176.6</ele>
        <time>2022-08-10T13:09:29Z</time>
      </trkpt>
      <trkpt lat="45.03116" lon="0.57988">
        <ele>176.6</ele>
        <time>2022-08-10T13:09:31Z</time>
      </trkpt>
      <trkpt lat="45.03109" lon="0.57994">
        <ele>176.6</ele>
        <time>2022-08-10T13:09:33Z</time>
      </trkpt>
      <trkpt lat="45.03103" lon="0.58003">
        <ele>175.6</ele>
        <time>2022-08-10T13:09:35Z</time>
      </trkpt>
      <trkpt lat="45.03098" lon="0.58011">
        <ele>175.6</ele>
        <time>2022-08-10T13:09:37Z</time>
      </trkpt>
      <trkpt lat="45.03093" lon="0.58019">
        <ele>175.6</ele>
        <time>2022-08-10T13:09:39Z</time>
      </trkpt>
      <trkpt lat="45.03088" lon="0.58027">
        <ele>174.6</ele>
        <time>2022-08-10T13:09:41Z</time>
      </trkpt>
      <trkpt lat="45.03082" lon="0.58035">
        <ele>173.6</ele>
        <time>2022-08-10T13:09:43Z</time>
      </trkpt>
      <trkpt lat="45.03078" lon="0.58041">
        <ele>173.6</ele>
        <time>2022-08-10T13:09:44Z</time>
      </trkpt>
      <trkpt lat="45.03075" lon="0.58045">
        <ele>173.6</ele>
        <time>2022-08-10T13:09:45Z</time>
      </trkpt>
      <trkpt lat="45.0307" lon="0.58054">
        <ele>172.6</ele>
        <time>2022-08-10T13:09:47Z</time>
      </trkpt>
      <trkpt lat="45.03065" lon="0.58062">
        <ele>171.6</ele>
        <time>2022-08-10T13:09:49Z</time>
      </trkpt>
      <trkpt lat="45.03061" lon="0.5807">
        <ele>170.6</ele>
        <time>2022-08-10T13:09:51Z</time>
      </trkpt>
      <trkpt lat="45.03055" lon="0.58078">
        <ele>170.6</ele>
        <time>2022-08-10T13:09:53Z</time>
      </trkpt>
      <trkpt lat="45.03049" lon="0.58087">
        <ele>169.6</ele>
        <time>2022-08-10T13:09:55Z</time>
      </trkpt>
      <trkpt lat="45.03044" lon="0.58096">
        <ele>168.6</ele>
        <time>2022-08-10T13:09:57Z</time>
      </trkpt>
      <trkpt lat="45.03041" lon="0.58101">
        <ele>168.6</ele>
        <time>2022-08-10T13:09:58Z</time>
      </trkpt>
      <trkpt lat="45.03038" lon="0.58107">
        <ele>167.6</ele>
        <time>2022-08-10T13:09:59Z</time>
      </trkpt>
      <trkpt lat="45.03035" lon="0.58113">
        <ele>167.6</ele>
        <time>2022-08-10T13:10:00Z</time>
      </trkpt>
      <trkpt lat="45.03032" lon="0.58119">
        <ele>167.6</ele>
        <time>2022-08-10T13:10:01Z</time>
      </trkpt>
      <trkpt lat="45.03028" lon="0.58124">
        <ele>167.6</ele>
        <time>2022-08-10T13:10:02Z</time>
      </trkpt>
      <trkpt lat="45.03024" lon="0.58129">
        <ele>167.6</ele>
        <time>2022-08-10T13:10:03Z</time>
      </trkpt>
      <trkpt lat="45.03018" lon="0.58139">
        <ele>166.6</ele>
        <time>2022-08-10T13:10:05Z</time>
      </trkpt>
      <trkpt lat="45.03013" lon="0.58145">
        <ele>166.6</ele>
        <time>2022-08-10T13:10:06Z</time>
      </trkpt>
      <trkpt lat="45.03009" lon="0.58152">
        <ele>166.6</ele>
        <time>2022-08-10T13:10:07Z</time>
      </trkpt>
      <trkpt lat="45.03004" lon="0.58158">
        <ele>166.6</ele>
        <time>2022-08-10T13:10:08Z</time>
      </trkpt>
      <trkpt lat="45.03" lon="0.58163">
        <ele>166.6</ele>
        <time>2022-08-10T13:10:09Z</time>
      </trkpt>
      <trkpt lat="45.02996" lon="0.58167">
        <ele>166.6</ele>
        <time>2022-08-10T13:10:10Z</time>
      </trkpt>
      <trkpt lat="45.02988" lon="0.58176">
        <ele>165.6</ele>
        <time>2022-08-10T13:10:12Z</time>
      </trkpt>
      <trkpt lat="45.02985" lon="0.5818">
        <ele>165.6</ele>
        <time>2022-08-10T13:10:13Z</time>
      </trkpt>
      <trkpt lat="45.02978" lon="0.58189">
        <ele>164.6</ele>
        <time>2022-08-10T13:10:15Z</time>
      </trkpt>
      <trkpt lat="45.02974" lon="0.58193">
        <ele>164.6</ele>
        <time>2022-08-10T13:10:16Z</time>
      </trkpt>
      <trkpt lat="45.0297" lon="0.58198">
        <ele>164.6</ele>
        <time>2022-08-10T13:10:17Z</time>
      </trkpt>
      <trkpt lat="45.02966" lon="0.58207">
        <ele>164.6</ele>
        <time>2022-08-10T13:10:19Z</time>
      </trkpt>
      <trkpt lat="45.02963" lon="0.58213">
        <ele>163.6</ele>
        <time>2022-08-10T13:10:21Z</time>
      </trkpt>
      <trkpt lat="45.02962" lon="0.5822">
        <ele>163.6</ele>
        <time>2022-08-10T13:10:26Z</time>
      </trkpt>
      <trkpt lat="45.02959" lon="0.58226">
        <ele>165.6</ele>
        <time>2022-08-10T13:10:31Z</time>
      </trkpt>
      <trkpt lat="45.02957" lon="0.58233">
        <ele>165.6</ele>
        <time>2022-08-10T13:10:57Z</time>
      </trkpt>
      <trkpt lat="45.02956" lon="0.58239">
        <ele>167.6</ele>
        <time>2022-08-10T13:11:40Z</time>
      </trkpt>
      <trkpt lat="45.02956" lon="0.58247">
        <ele>167.6</ele>
        <time>2022-08-10T13:11:45Z</time>
      </trkpt>
      <trkpt lat="45.02955" lon="0.58254">
        <ele>168.6</ele>
        <time>2022-08-10T13:12:00Z</time>
      </trkpt>
      <trkpt lat="45.02954" lon="0.58261">
        <ele>169.6</ele>
        <time>2022-08-10T13:12:09Z</time>
      </trkpt>
      <trkpt lat="45.02955" lon="0.58267">
        <ele>167.6</ele>
        <time>2022-08-10T13:12:13Z</time>
      </trkpt>
      <trkpt lat="45.02958" lon="0.58278">
        <ele>165.6</ele>
        <time>2022-08-10T13:12:16Z</time>
      </trkpt>
      <trkpt lat="45.02959" lon="0.58284">
        <ele>164.6</ele>
        <time>2022-08-10T13:12:20Z</time>
      </trkpt>
      <trkpt lat="45.02962" lon="0.58291">
        <ele>164.6</ele>
        <time>2022-08-10T13:12:23Z</time>
      </trkpt>
      <trkpt lat="45.02964" lon="0.58297">
        <ele>165.6</ele>
        <time>2022-08-10T13:12:28Z</time>
      </trkpt>
      <trkpt lat="45.02966" lon="0.58289">
        <ele>162.6</ele>
        <time>2022-08-10T13:12:48Z</time>
      </trkpt>
      <trkpt lat="45.02966" lon="0.5828">
        <ele>160.6</ele>
        <time>2022-08-10T13:12:52Z</time>
      </trkpt>
      <trkpt lat="45.02966" lon="0.58273">
        <ele>159.6</ele>
        <time>2022-08-10T13:12:57Z</time>
      </trkpt>
      <trkpt lat="45.02966" lon="0.58264">
        <ele>157.6</ele>
        <time>2022-08-10T13:13:02Z</time>
      </trkpt>
      <trkpt lat="45.02965" lon="0.58257">
        <ele>156.6</ele>
        <time>2022-08-10T13:13:05Z</time>
      </trkpt>
      <trkpt lat="45.02964" lon="0.58251">
        <ele>154.6</ele>
        <time>2022-08-10T13:13:09Z</time>
      </trkpt>
      <trkpt lat="45.0296" lon="0.58247">
        <ele>153.6</ele>
        <time>2022-08-10T13:13:12Z</time>
      </trkpt>
      <trkpt lat="45.02954" lon="0.58248">
        <ele>152.6</ele>
        <time>2022-08-10T13:13:15Z</time>
      </trkpt>
      <trkpt lat="45.02949" lon="0.58253">
        <ele>151.6</ele>
        <time>2022-08-10T13:13:17Z</time>
      </trkpt>
      <trkpt lat="45.02941" lon="0.58259">
        <ele>151.6</ele>
        <time>2022-08-10T13:13:19Z</time>
      </trkpt>
      <trkpt lat="45.02935" lon="0.58265">
        <ele>151.6</ele>
        <time>2022-08-10T13:13:21Z</time>
      </trkpt>
      <trkpt lat="45.0293" lon="0.58271">
        <ele>151.6</ele>
        <time>2022-08-10T13:13:23Z</time>
      </trkpt>
      <trkpt lat="45.02925" lon="0.58275">
        <ele>151.6</ele>
        <time>2022-08-10T13:13:25Z</time>
      </trkpt>
      <trkpt lat="45.0292" lon="0.58278">
        <ele>151.6</ele>
        <time>2022-08-10T13:13:27Z</time>
      </trkpt>
      <trkpt lat="45.02916" lon="0.5828">
        <ele>151.6</ele>
        <time>2022-08-10T13:13:29Z</time>
      </trkpt>
      <trkpt lat="45.02912" lon="0.58283">
        <ele>151.6</ele>
        <time>2022-08-10T13:13:31Z</time>
      </trkpt>
      <trkpt lat="45.02907" lon="0.58287">
        <ele>150.6</ele>
        <time>2022-08-10T13:13:33Z</time>
      </trkpt>
      <trkpt lat="45.02902" lon="0.58291">
        <ele>151.6</ele>
        <time>2022-08-10T13:13:35Z</time>
      </trkpt>
      <trkpt lat="45.02893" lon="0.58297">
        <ele>156.6</ele>
        <time>2022-08-10T13:13:37Z</time>
      </trkpt>
      <trkpt lat="45.02888" lon="0.583">
        <ele>157.6</ele>
        <time>2022-08-10T13:13:38Z</time>
      </trkpt>
      <trkpt lat="45.02884" lon="0.58303">
        <ele>157.6</ele>
        <time>2022-08-10T13:13:39Z</time>
      </trkpt>
      <trkpt lat="45.02879" lon="0.58306">
        <ele>159.6</ele>
        <time>2022-08-10T13:13:40Z</time>
      </trkpt>
      <trkpt lat="45.02874" lon="0.5831">
        <ele>159.6</ele>
        <time>2022-08-10T13:13:41Z</time>
      </trkpt>
      <trkpt lat="45.02869" lon="0.58313">
        <ele>160.6</ele>
        <time>2022-08-10T13:13:42Z</time>
      </trkpt>
      <trkpt lat="45.02864" lon="0.58317">
        <ele>161.6</ele>
        <time>2022-08-10T13:13:43Z</time>
      </trkpt>
      <trkpt lat="45.02858" lon="0.58325">
        <ele>161.6</ele>
        <time>2022-08-10T13:13:45Z</time>
      </trkpt>
      <trkpt lat="45.02854" lon="0.5833">
        <ele>160.6</ele>
        <time>2022-08-10T13:13:47Z</time>
      </trkpt>
      <trkpt lat="45.02851" lon="0.58336">
        <ele>160.6</ele>
        <time>2022-08-10T13:13:49Z</time>
      </trkpt>
      <trkpt lat="45.02853" lon="0.58344">
        <ele>160.6</ele>
        <time>2022-08-10T13:13:51Z</time>
      </trkpt>
      <trkpt lat="45.02856" lon="0.58351">
        <ele>160.6</ele>
        <time>2022-08-10T13:13:53Z</time>
      </trkpt>
      <trkpt lat="45.02859" lon="0.58357">
        <ele>160.6</ele>
        <time>2022-08-10T13:13:55Z</time>
      </trkpt>
      <trkpt lat="45.02862" lon="0.58362">
        <ele>161.6</ele>
        <time>2022-08-10T13:13:57Z</time>
      </trkpt>
      <trkpt lat="45.02866" lon="0.58367">
        <ele>161.6</ele>
        <time>2022-08-10T13:13:59Z</time>
      </trkpt>
      <trkpt lat="45.02872" lon="0.58374">
        <ele>161.6</ele>
        <time>2022-08-10T13:14:01Z</time>
      </trkpt>
      <trkpt lat="45.02878" lon="0.5838">
        <ele>161.6</ele>
        <time>2022-08-10T13:14:03Z</time>
      </trkpt>
      <trkpt lat="45.02884" lon="0.58389">
        <ele>161.6</ele>
        <time>2022-08-10T13:14:05Z</time>
      </trkpt>
      <trkpt lat="45.0289" lon="0.58396">
        <ele>161.6</ele>
        <time>2022-08-10T13:14:07Z</time>
      </trkpt>
      <trkpt lat="45.02897" lon="0.58404">
        <ele>160.6</ele>
        <time>2022-08-10T13:14:09Z</time>
      </trkpt>
      <trkpt lat="45.02901" lon="0.58408">
        <ele>160.6</ele>
        <time>2022-08-10T13:14:10Z</time>
      </trkpt>
      <trkpt lat="45.02904" lon="0.58412">
        <ele>159.6</ele>
        <time>2022-08-10T13:14:11Z</time>
      </trkpt>
      <trkpt lat="45.02908" lon="0.58416">
        <ele>159.6</ele>
        <time>2022-08-10T13:14:12Z</time>
      </trkpt>
      <trkpt lat="45.02912" lon="0.58421">
        <ele>160.6</ele>
        <time>2022-08-10T13:14:13Z</time>
      </trkpt>
      <trkpt lat="45.02915" lon="0.58425">
        <ele>159.6</ele>
        <time>2022-08-10T13:14:14Z</time>
      </trkpt>
      <trkpt lat="45.02919" lon="0.5843">
        <ele>159.6</ele>
        <time>2022-08-10T13:14:15Z</time>
      </trkpt>
      <trkpt lat="45.02923" lon="0.58435">
        <ele>159.6</ele>
        <time>2022-08-10T13:14:16Z</time>
      </trkpt>
      <trkpt lat="45.02927" lon="0.58439">
        <ele>158.6</ele>
        <time>2022-08-10T13:14:17Z</time>
      </trkpt>
      <trkpt lat="45.02931" lon="0.58444">
        <ele>158.6</ele>
        <time>2022-08-10T13:14:18Z</time>
      </trkpt>
      <trkpt lat="45.02934" lon="0.58448">
        <ele>158.6</ele>
        <time>2022-08-10T13:14:19Z</time>
      </trkpt>
      <trkpt lat="45.02938" lon="0.58453">
        <ele>158.6</ele>
        <time>2022-08-10T13:14:20Z</time>
      </trkpt>
      <trkpt lat="45.02942" lon="0.58457">
        <ele>158.6</ele>
        <time>2022-08-10T13:14:21Z</time>
      </trkpt>
      <trkpt lat="45.02946" lon="0.58462">
        <ele>158.6</ele>
        <time>2022-08-10T13:14:22Z</time>
      </trkpt>
      <trkpt lat="45.0295" lon="0.58467">
        <ele>158.6</ele>
        <time>2022-08-10T13:14:23Z</time>
      </trkpt>
      <trkpt lat="45.02953" lon="0.58471">
        <ele>159.6</ele>
        <time>2022-08-10T13:14:24Z</time>
      </trkpt>
      <trkpt lat="45.02956" lon="0.58476">
        <ele>159.6</ele>
        <time>2022-08-10T13:14:25Z</time>
      </trkpt>
      <trkpt lat="45.02962" lon="0.58486">
        <ele>159.6</ele>
        <time>2022-08-10T13:14:27Z</time>
      </trkpt>
      <trkpt lat="45.02967" lon="0.58494">
        <ele>159.6</ele>
        <time>2022-08-10T13:14:29Z</time>
      </trkpt>
      <trkpt lat="45.02972" lon="0.58504">
        <ele>158.6</ele>
        <time>2022-08-10T13:14:31Z</time>
      </trkpt>
      <trkpt lat="45.02976" lon="0.58515">
        <ele>158.6</ele>
        <time>2022-08-10T13:14:33Z</time>
      </trkpt>
      <trkpt lat="45.0298" lon="0.58525">
        <ele>158.6</ele>
        <time>2022-08-10T13:14:35Z</time>
      </trkpt>
      <trkpt lat="45.02983" lon="0.58535">
        <ele>158.6</ele>
        <time>2022-08-10T13:14:37Z</time>
      </trkpt>
      <trkpt lat="45.02986" lon="0.58544">
        <ele>158.6</ele>
        <time>2022-08-10T13:14:39Z</time>
      </trkpt>
      <trkpt lat="45.02989" lon="0.5856">
        <ele>159.6</ele>
        <time>2022-08-10T13:14:42Z</time>
      </trkpt>
      <trkpt lat="45.02993" lon="0.58568">
        <ele>159.6</ele>
        <time>2022-08-10T13:14:44Z</time>
      </trkpt>
      <trkpt lat="45.02996" lon="0.58576">
        <ele>158.6</ele>
        <time>2022-08-10T13:14:46Z</time>
      </trkpt>
      <trkpt lat="45.02998" lon="0.58585">
        <ele>158.6</ele>
        <time>2022-08-10T13:14:48Z</time>
      </trkpt>
      <trkpt lat="45.02998" lon="0.58593">
        <ele>158.6</ele>
        <time>2022-08-10T13:14:50Z</time>
      </trkpt>
      <trkpt lat="45.03001" lon="0.58602">
        <ele>158.6</ele>
        <time>2022-08-10T13:14:52Z</time>
      </trkpt>
      <trkpt lat="45.03004" lon="0.5861">
        <ele>158.6</ele>
        <time>2022-08-10T13:14:54Z</time>
      </trkpt>
      <trkpt lat="45.03008" lon="0.58617">
        <ele>158.6</ele>
        <time>2022-08-10T13:14:56Z</time>
      </trkpt>
      <trkpt lat="45.03013" lon="0.58626">
        <ele>157.6</ele>
        <time>2022-08-10T13:14:58Z</time>
      </trkpt>
      <trkpt lat="45.03015" lon="0.58633">
        <ele>157.6</ele>
        <time>2022-08-10T13:14:59Z</time>
      </trkpt>
      <trkpt lat="45.03017" lon="0.58638">
        <ele>157.6</ele>
        <time>2022-08-10T13:15:00Z</time>
      </trkpt>
      <trkpt lat="45.03019" lon="0.58644">
        <ele>157.6</ele>
        <time>2022-08-10T13:15:01Z</time>
      </trkpt>
      <trkpt lat="45.03024" lon="0.58654">
        <ele>156.6</ele>
        <time>2022-08-10T13:15:03Z</time>
      </trkpt>
      <trkpt lat="45.03029" lon="0.58664">
        <ele>155.6</ele>
        <time>2022-08-10T13:15:05Z</time>
      </trkpt>
      <trkpt lat="45.03035" lon="0.58672">
        <ele>156.6</ele>
        <time>2022-08-10T13:15:07Z</time>
      </trkpt>
      <trkpt lat="45.03038" lon="0.58677">
        <ele>155.6</ele>
        <time>2022-08-10T13:15:08Z</time>
      </trkpt>
      <trkpt lat="45.03045" lon="0.58684">
        <ele>156.6</ele>
        <time>2022-08-10T13:15:10Z</time>
      </trkpt>
      <trkpt lat="45.03051" lon="0.5869">
        <ele>156.6</ele>
        <time>2022-08-10T13:15:12Z</time>
      </trkpt>
      <trkpt lat="45.03057" lon="0.58698">
        <ele>155.6</ele>
        <time>2022-08-10T13:15:14Z</time>
      </trkpt>
      <trkpt lat="45.03062" lon="0.58705">
        <ele>155.6</ele>
        <time>2022-08-10T13:15:16Z</time>
      </trkpt>
      <trkpt lat="45.03068" lon="0.58713">
        <ele>155.6</ele>
        <time>2022-08-10T13:15:18Z</time>
      </trkpt>
      <trkpt lat="45.03074" lon="0.5872">
        <ele>155.6</ele>
        <time>2022-08-10T13:15:20Z</time>
      </trkpt>
      <trkpt lat="45.0308" lon="0.58728">
        <ele>156.6</ele>
        <time>2022-08-10T13:15:22Z</time>
      </trkpt>
      <trkpt lat="45.03086" lon="0.58735">
        <ele>156.6</ele>
        <time>2022-08-10T13:15:24Z</time>
      </trkpt>
      <trkpt lat="45.03092" lon="0.58743">
        <ele>156.6</ele>
        <time>2022-08-10T13:15:26Z</time>
      </trkpt>
      <trkpt lat="45.03098" lon="0.58749">
        <ele>156.6</ele>
        <time>2022-08-10T13:15:28Z</time>
      </trkpt>
      <trkpt lat="45.03105" lon="0.58755">
        <ele>156.6</ele>
        <time>2022-08-10T13:15:30Z</time>
      </trkpt>
      <trkpt lat="45.03111" lon="0.58762">
        <ele>155.6</ele>
        <time>2022-08-10T13:15:32Z</time>
      </trkpt>
      <trkpt lat="45.03117" lon="0.58768">
        <ele>156.6</ele>
        <time>2022-08-10T13:15:34Z</time>
      </trkpt>
      <trkpt lat="45.03126" lon="0.5878">
        <ele>156.6</ele>
        <time>2022-08-10T13:15:37Z</time>
      </trkpt>
      <trkpt lat="45.03131" lon="0.58787">
        <ele>156.6</ele>
        <time>2022-08-10T13:15:39Z</time>
      </trkpt>
      <trkpt lat="45.0314" lon="0.58797">
        <ele>156.6</ele>
        <time>2022-08-10T13:15:42Z</time>
      </trkpt>
      <trkpt lat="45.03146" lon="0.58804">
        <ele>156.6</ele>
        <time>2022-08-10T13:15:44Z</time>
      </trkpt>
      <trkpt lat="45.03153" lon="0.58811">
        <ele>156.6</ele>
        <time>2022-08-10T13:15:46Z</time>
      </trkpt>
      <trkpt lat="45.0316" lon="0.58818">
        <ele>157.6</ele>
        <time>2022-08-10T13:15:48Z</time>
      </trkpt>
      <trkpt lat="45.03165" lon="0.58822">
        <ele>157.6</ele>
        <time>2022-08-10T13:15:50Z</time>
      </trkpt>
      <trkpt lat="45.03171" lon="0.58825">
        <ele>158.6</ele>
        <time>2022-08-10T13:15:53Z</time>
      </trkpt>
      <trkpt lat="45.03172" lon="0.58831">
        <ele>157.6</ele>
        <time>2022-08-10T13:15:56Z</time>
      </trkpt>
      <trkpt lat="45.03174" lon="0.58837">
        <ele>157.6</ele>
        <time>2022-08-10T13:16:29Z</time>
      </trkpt>
      <trkpt lat="45.03177" lon="0.58842">
        <ele>158.6</ele>
        <time>2022-08-10T13:16:56Z</time>
      </trkpt>
      <trkpt lat="45.03173" lon="0.58847">
        <ele>159.6</ele>
        <time>2022-08-10T13:18:21Z</time>
      </trkpt>
      <trkpt lat="45.03167" lon="0.58854">
        <ele>159.6</ele>
        <time>2022-08-10T13:18:23Z</time>
      </trkpt>
      <trkpt lat="45.03162" lon="0.58865">
        <ele>159.6</ele>
        <time>2022-08-10T13:18:25Z</time>
      </trkpt>
      <trkpt lat="45.03157" lon="0.58875">
        <ele>159.6</ele>
        <time>2022-08-10T13:18:27Z</time>
      </trkpt>
      <trkpt lat="45.03154" lon="0.58881">
        <ele>159.6</ele>
        <time>2022-08-10T13:18:28Z</time>
      </trkpt>
      <trkpt lat="45.03151" lon="0.58887">
        <ele>159.6</ele>
        <time>2022-08-10T13:18:29Z</time>
      </trkpt>
      <trkpt lat="45.03148" lon="0.58891">
        <ele>159.6</ele>
        <time>2022-08-10T13:18:30Z</time>
      </trkpt>
      <trkpt lat="45.03145" lon="0.58896">
        <ele>159.6</ele>
        <time>2022-08-10T13:18:31Z</time>
      </trkpt>
      <trkpt lat="45.03142" lon="0.58902">
        <ele>159.6</ele>
        <time>2022-08-10T13:18:32Z</time>
      </trkpt>
      <trkpt lat="45.03139" lon="0.58908">
        <ele>159.6</ele>
        <time>2022-08-10T13:18:33Z</time>
      </trkpt>
      <trkpt lat="45.03136" lon="0.58914">
        <ele>159.6</ele>
        <time>2022-08-10T13:18:34Z</time>
      </trkpt>
      <trkpt lat="45.03132" lon="0.58924">
        <ele>159.6</ele>
        <time>2022-08-10T13:18:36Z</time>
      </trkpt>
      <trkpt lat="45.0313" lon="0.58932">
        <ele>159.6</ele>
        <time>2022-08-10T13:18:38Z</time>
      </trkpt>
      <trkpt lat="45.0313" lon="0.5894">
        <ele>158.6</ele>
        <time>2022-08-10T13:18:41Z</time>
      </trkpt>
      <trkpt lat="45.03129" lon="0.58947">
        <ele>158.6</ele>
        <time>2022-08-10T13:18:44Z</time>
      </trkpt>
      <trkpt lat="45.03127" lon="0.58953">
        <ele>158.6</ele>
        <time>2022-08-10T13:18:47Z</time>
      </trkpt>
      <trkpt lat="45.03124" lon="0.58958">
        <ele>158.6</ele>
        <time>2022-08-10T13:18:50Z</time>
      </trkpt>
      <trkpt lat="45.03122" lon="0.58966">
        <ele>157.6</ele>
        <time>2022-08-10T13:18:53Z</time>
      </trkpt>
      <trkpt lat="45.0312" lon="0.58972">
        <ele>157.6</ele>
        <time>2022-08-10T13:18:56Z</time>
      </trkpt>
      <trkpt lat="45.03119" lon="0.58978">
        <ele>157.6</ele>
        <time>2022-08-10T13:18:59Z</time>
      </trkpt>
      <trkpt lat="45.03119" lon="0.58986">
        <ele>158.6</ele>
        <time>2022-08-10T13:19:02Z</time>
      </trkpt>
      <trkpt lat="45.03118" lon="0.58994">
        <ele>158.6</ele>
        <time>2022-08-10T13:19:06Z</time>
      </trkpt>
      <trkpt lat="45.03117" lon="0.59002">
        <ele>158.6</ele>
        <time>2022-08-10T13:19:10Z</time>
      </trkpt>
      <trkpt lat="45.03115" lon="0.59009">
        <ele>158.6</ele>
        <time>2022-08-10T13:19:13Z</time>
      </trkpt>
      <trkpt lat="45.03113" lon="0.59016">
        <ele>158.6</ele>
        <time>2022-08-10T13:19:17Z</time>
      </trkpt>
      <trkpt lat="45.03111" lon="0.59022">
        <ele>158.6</ele>
        <time>2022-08-10T13:19:20Z</time>
      </trkpt>
      <trkpt lat="45.03111" lon="0.5903">
        <ele>158.6</ele>
        <time>2022-08-10T13:19:24Z</time>
      </trkpt>
      <trkpt lat="45.03109" lon="0.59037">
        <ele>158.6</ele>
        <time>2022-08-10T13:19:26Z</time>
      </trkpt>
      <trkpt lat="45.03106" lon="0.59044">
        <ele>158.6</ele>
        <time>2022-08-10T13:19:28Z</time>
      </trkpt>
      <trkpt lat="45.03103" lon="0.59049">
        <ele>158.6</ele>
        <time>2022-08-10T13:19:30Z</time>
      </trkpt>
      <trkpt lat="45.03099" lon="0.59053">
        <ele>157.6</ele>
        <time>2022-08-10T13:19:32Z</time>
      </trkpt>
      <trkpt lat="45.03094" lon="0.59058">
        <ele>158.6</ele>
        <time>2022-08-10T13:19:34Z</time>
      </trkpt>
      <trkpt lat="45.0309" lon="0.59061">
        <ele>158.6</ele>
        <time>2022-08-10T13:19:36Z</time>
      </trkpt>
      <trkpt lat="45.03086" lon="0.59065">
        <ele>159.6</ele>
        <time>2022-08-10T13:19:38Z</time>
      </trkpt>
      <trkpt lat="45.03082" lon="0.59071">
        <ele>158.6</ele>
        <time>2022-08-10T13:19:40Z</time>
      </trkpt>
      <trkpt lat="45.03077" lon="0.59076">
        <ele>158.6</ele>
        <time>2022-08-10T13:19:42Z</time>
      </trkpt>
      <trkpt lat="45.03073" lon="0.59082">
        <ele>159.6</ele>
        <time>2022-08-10T13:19:44Z</time>
      </trkpt>
      <trkpt lat="45.03068" lon="0.59086">
        <ele>159.6</ele>
        <time>2022-08-10T13:19:46Z</time>
      </trkpt>
      <trkpt lat="45.03063" lon="0.59091">
        <ele>160.6</ele>
        <time>2022-08-10T13:19:48Z</time>
      </trkpt>
      <trkpt lat="45.03059" lon="0.59096">
        <ele>161.6</ele>
        <time>2022-08-10T13:19:50Z</time>
      </trkpt>
      <trkpt lat="45.03055" lon="0.591">
        <ele>161.6</ele>
        <time>2022-08-10T13:19:52Z</time>
      </trkpt>
      <trkpt lat="45.0305" lon="0.59105">
        <ele>162.6</ele>
        <time>2022-08-10T13:19:54Z</time>
      </trkpt>
      <trkpt lat="45.03045" lon="0.5911">
        <ele>162.6</ele>
        <time>2022-08-10T13:19:56Z</time>
      </trkpt>
      <trkpt lat="45.03041" lon="0.59115">
        <ele>163.6</ele>
        <time>2022-08-10T13:19:58Z</time>
      </trkpt>
      <trkpt lat="45.03038" lon="0.59121">
        <ele>163.6</ele>
        <time>2022-08-10T13:20:00Z</time>
      </trkpt>
      <trkpt lat="45.03035" lon="0.59126">
        <ele>163.6</ele>
        <time>2022-08-10T13:20:02Z</time>
      </trkpt>
      <trkpt lat="45.03031" lon="0.59132">
        <ele>164.6</ele>
        <time>2022-08-10T13:20:04Z</time>
      </trkpt>
      <trkpt lat="45.03029" lon="0.5914">
        <ele>165.6</ele>
        <time>2022-08-10T13:20:07Z</time>
      </trkpt>
      <trkpt lat="45.03028" lon="0.59147">
        <ele>165.6</ele>
        <time>2022-08-10T13:20:10Z</time>
      </trkpt>
      <trkpt lat="45.03026" lon="0.59153">
        <ele>165.6</ele>
        <time>2022-08-10T13:20:14Z</time>
      </trkpt>
      <trkpt lat="45.03025" lon="0.59161">
        <ele>166.6</ele>
        <time>2022-08-10T13:20:18Z</time>
      </trkpt>
      <trkpt lat="45.03022" lon="0.59168">
        <ele>168.6</ele>
        <time>2022-08-10T13:20:22Z</time>
      </trkpt>
      <trkpt lat="45.03021" lon="0.59174">
        <ele>169.6</ele>
        <time>2022-08-10T13:20:25Z</time>
      </trkpt>
      <trkpt lat="45.03019" lon="0.59182">
        <ele>169.6</ele>
        <time>2022-08-10T13:20:28Z</time>
      </trkpt>
      <trkpt lat="45.03017" lon="0.59187">
        <ele>169.6</ele>
        <time>2022-08-10T13:20:30Z</time>
      </trkpt>
      <trkpt lat="45.03015" lon="0.59195">
        <ele>170.6</ele>
        <time>2022-08-10T13:20:33Z</time>
      </trkpt>
      <trkpt lat="45.03013" lon="0.592">
        <ele>170.6</ele>
        <time>2022-08-10T13:20:36Z</time>
      </trkpt>
      <trkpt lat="45.0301" lon="0.59207">
        <ele>170.6</ele>
        <time>2022-08-10T13:20:39Z</time>
      </trkpt>
      <trkpt lat="45.03008" lon="0.59215">
        <ele>170.6</ele>
        <time>2022-08-10T13:20:43Z</time>
      </trkpt>
      <trkpt lat="45.03007" lon="0.59222">
        <ele>171.6</ele>
        <time>2022-08-10T13:20:46Z</time>
      </trkpt>
      <trkpt lat="45.03005" lon="0.59228">
        <ele>171.6</ele>
        <time>2022-08-10T13:20:49Z</time>
      </trkpt>
      <trkpt lat="45.03005" lon="0.59235">
        <ele>171.6</ele>
        <time>2022-08-10T13:20:53Z</time>
      </trkpt>
      <trkpt lat="45.03003" lon="0.59242">
        <ele>171.6</ele>
        <time>2022-08-10T13:20:57Z</time>
      </trkpt>
      <trkpt lat="45.03001" lon="0.59249">
        <ele>171.6</ele>
        <time>2022-08-10T13:21:00Z</time>
      </trkpt>
      <trkpt lat="45.03" lon="0.59256">
        <ele>172.6</ele>
        <time>2022-08-10T13:21:03Z</time>
      </trkpt>
      <trkpt lat="45.02999" lon="0.59263">
        <ele>171.6</ele>
        <time>2022-08-10T13:21:06Z</time>
      </trkpt>
      <trkpt lat="45.02998" lon="0.5927">
        <ele>171.6</ele>
        <time>2022-08-10T13:21:10Z</time>
      </trkpt>
      <trkpt lat="45.02996" lon="0.59276">
        <ele>171.6</ele>
        <time>2022-08-10T13:21:14Z</time>
      </trkpt>
      <trkpt lat="45.02995" lon="0.59283">
        <ele>171.6</ele>
        <time>2022-08-10T13:21:18Z</time>
      </trkpt>
      <trkpt lat="45.02995" lon="0.5929">
        <ele>172.6</ele>
        <time>2022-08-10T13:21:22Z</time>
      </trkpt>
      <trkpt lat="45.02991" lon="0.59297">
        <ele>174.6</ele>
        <time>2022-08-10T13:21:26Z</time>
      </trkpt>
      <trkpt lat="45.02988" lon="0.59305">
        <ele>175.6</ele>
        <time>2022-08-10T13:21:30Z</time>
      </trkpt>
      <trkpt lat="45.02985" lon="0.5931">
        <ele>177.6</ele>
        <time>2022-08-10T13:21:33Z</time>
      </trkpt>
      <trkpt lat="45.02982" lon="0.59318">
        <ele>178.6</ele>
        <time>2022-08-10T13:21:37Z</time>
      </trkpt>
      <trkpt lat="45.02979" lon="0.59323">
        <ele>179.6</ele>
        <time>2022-08-10T13:21:40Z</time>
      </trkpt>
      <trkpt lat="45.02976" lon="0.59331">
        <ele>180.6</ele>
        <time>2022-08-10T13:21:43Z</time>
      </trkpt>
      <trkpt lat="45.02972" lon="0.59336">
        <ele>181.6</ele>
        <time>2022-08-10T13:21:46Z</time>
      </trkpt>
      <trkpt lat="45.02969" lon="0.59342">
        <ele>181.6</ele>
        <time>2022-08-10T13:21:49Z</time>
      </trkpt>
      <trkpt lat="45.02966" lon="0.59348">
        <ele>182.6</ele>
        <time>2022-08-10T13:21:51Z</time>
      </trkpt>
      <trkpt lat="45.02963" lon="0.59353">
        <ele>182.6</ele>
        <time>2022-08-10T13:21:53Z</time>
      </trkpt>
      <trkpt lat="45.0296" lon="0.5936">
        <ele>182.6</ele>
        <time>2022-08-10T13:21:56Z</time>
      </trkpt>
      <trkpt lat="45.02954" lon="0.59366">
        <ele>182.6</ele>
        <time>2022-08-10T13:21:59Z</time>
      </trkpt>
      <trkpt lat="45.0295" lon="0.59371">
        <ele>182.6</ele>
        <time>2022-08-10T13:22:01Z</time>
      </trkpt>
      <trkpt lat="45.02947" lon="0.59376">
        <ele>181.6</ele>
        <time>2022-08-10T13:22:03Z</time>
      </trkpt>
      <trkpt lat="45.02942" lon="0.59383">
        <ele>183.6</ele>
        <time>2022-08-10T13:22:05Z</time>
      </trkpt>
      <trkpt lat="45.02939" lon="0.59389">
        <ele>183.6</ele>
        <time>2022-08-10T13:22:07Z</time>
      </trkpt>
      <trkpt lat="45.02936" lon="0.59395">
        <ele>183.6</ele>
        <time>2022-08-10T13:22:09Z</time>
      </trkpt>
      <trkpt lat="45.02932" lon="0.594">
        <ele>183.6</ele>
        <time>2022-08-10T13:22:11Z</time>
      </trkpt>
      <trkpt lat="45.02927" lon="0.59405">
        <ele>184.6</ele>
        <time>2022-08-10T13:22:13Z</time>
      </trkpt>
      <trkpt lat="45.02923" lon="0.59411">
        <ele>184.6</ele>
        <time>2022-08-10T13:22:15Z</time>
      </trkpt>
      <trkpt lat="45.02919" lon="0.59416">
        <ele>184.6</ele>
        <time>2022-08-10T13:22:17Z</time>
      </trkpt>
      <trkpt lat="45.02914" lon="0.5942">
        <ele>184.6</ele>
        <time>2022-08-10T13:22:19Z</time>
      </trkpt>
      <trkpt lat="45.0291" lon="0.59422">
        <ele>184.6</ele>
        <time>2022-08-10T13:22:21Z</time>
      </trkpt>
      <trkpt lat="45.02905" lon="0.59418">
        <ele>182.6</ele>
        <time>2022-08-10T13:22:24Z</time>
      </trkpt>
      <trkpt lat="45.02901" lon="0.59412">
        <ele>180.6</ele>
        <time>2022-08-10T13:22:27Z</time>
      </trkpt>
      <trkpt lat="45.02896" lon="0.59405">
        <ele>180.6</ele>
        <time>2022-08-10T13:22:30Z</time>
      </trkpt>
      <trkpt lat="45.0289" lon="0.59403">
        <ele>180.6</ele>
        <time>2022-08-10T13:22:32Z</time>
      </trkpt>
      <trkpt lat="45.02884" lon="0.59403">
        <ele>180.6</ele>
        <time>2022-08-10T13:22:34Z</time>
      </trkpt>
      <trkpt lat="45.02878" lon="0.59403">
        <ele>179.6</ele>
        <time>2022-08-10T13:22:36Z</time>
      </trkpt>
      <trkpt lat="45.02873" lon="0.59403">
        <ele>179.6</ele>
        <time>2022-08-10T13:22:38Z</time>
      </trkpt>
      <trkpt lat="45.02867" lon="0.59404">
        <ele>179.6</ele>
        <time>2022-08-10T13:22:41Z</time>
      </trkpt>
      <trkpt lat="45.02862" lon="0.59408">
        <ele>179.6</ele>
        <time>2022-08-10T13:22:44Z</time>
      </trkpt>
      <trkpt lat="45.02857" lon="0.5941">
        <ele>179.6</ele>
        <time>2022-08-10T13:22:47Z</time>
      </trkpt>
      <trkpt lat="45.02852" lon="0.59414">
        <ele>180.6</ele>
        <time>2022-08-10T13:22:50Z</time>
      </trkpt>
      <trkpt lat="45.02846" lon="0.59414">
        <ele>178.6</ele>
        <time>2022-08-10T13:22:55Z</time>
      </trkpt>
      <trkpt lat="45.02842" lon="0.59413">
        <ele>178.6</ele>
        <time>2022-08-10T13:22:58Z</time>
      </trkpt>
      <trkpt lat="45.02836" lon="0.59415">
        <ele>179.6</ele>
        <time>2022-08-10T13:23:02Z</time>
      </trkpt>
      <trkpt lat="45.02832" lon="0.59415">
        <ele>179.6</ele>
        <time>2022-08-10T13:23:05Z</time>
      </trkpt>
      <trkpt lat="45.02828" lon="0.59419">
        <ele>178.6</ele>
        <time>2022-08-10T13:23:09Z</time>
      </trkpt>
      <trkpt lat="45.02823" lon="0.59422">
        <ele>178.6</ele>
        <time>2022-08-10T13:23:14Z</time>
      </trkpt>
      <trkpt lat="45.02817" lon="0.59425">
        <ele>177.6</ele>
        <time>2022-08-10T13:23:18Z</time>
      </trkpt>
      <trkpt lat="45.02811" lon="0.59427">
        <ele>177.6</ele>
        <time>2022-08-10T13:23:22Z</time>
      </trkpt>
      <trkpt lat="45.02805" lon="0.59428">
        <ele>178.6</ele>
        <time>2022-08-10T13:23:26Z</time>
      </trkpt>
      <trkpt lat="45.02801" lon="0.59431">
        <ele>178.6</ele>
        <time>2022-08-10T13:23:29Z</time>
      </trkpt>
      <trkpt lat="45.02795" lon="0.59432">
        <ele>179.6</ele>
        <time>2022-08-10T13:23:33Z</time>
      </trkpt>
      <trkpt lat="45.02789" lon="0.59436">
        <ele>180.6</ele>
        <time>2022-08-10T13:23:37Z</time>
      </trkpt>
      <trkpt lat="45.02783" lon="0.59437">
        <ele>179.6</ele>
        <time>2022-08-10T13:23:41Z</time>
      </trkpt>
      <trkpt lat="45.02778" lon="0.59435">
        <ele>177.6</ele>
        <time>2022-08-10T13:23:44Z</time>
      </trkpt>
      <trkpt lat="45.02772" lon="0.59434">
        <ele>175.6</ele>
        <time>2022-08-10T13:23:47Z</time>
      </trkpt>
      <trkpt lat="45.02767" lon="0.59433">
        <ele>174.6</ele>
        <time>2022-08-10T13:23:49Z</time>
      </trkpt>
      <trkpt lat="45.02762" lon="0.5943">
        <ele>173.6</ele>
        <time>2022-08-10T13:23:51Z</time>
      </trkpt>
      <trkpt lat="45.02756" lon="0.59427">
        <ele>173.6</ele>
        <time>2022-08-10T13:23:53Z</time>
      </trkpt>
      <trkpt lat="45.02749" lon="0.59424">
        <ele>172.6</ele>
        <time>2022-08-10T13:23:55Z</time>
      </trkpt>
      <trkpt lat="45.02743" lon="0.59419">
        <ele>171.6</ele>
        <time>2022-08-10T13:23:57Z</time>
      </trkpt>
      <trkpt lat="45.02736" lon="0.59416">
        <ele>171.6</ele>
        <time>2022-08-10T13:23:59Z</time>
      </trkpt>
      <trkpt lat="45.0273" lon="0.59414">
        <ele>171.6</ele>
        <time>2022-08-10T13:24:01Z</time>
      </trkpt>
      <trkpt lat="45.02725" lon="0.5941">
        <ele>171.6</ele>
        <time>2022-08-10T13:24:03Z</time>
      </trkpt>
      <trkpt lat="45.02719" lon="0.59406">
        <ele>171.6</ele>
        <time>2022-08-10T13:24:05Z</time>
      </trkpt>
      <trkpt lat="45.02714" lon="0.59401">
        <ele>170.6</ele>
        <time>2022-08-10T13:24:07Z</time>
      </trkpt>
      <trkpt lat="45.02709" lon="0.59397">
        <ele>170.6</ele>
        <time>2022-08-10T13:24:09Z</time>
      </trkpt>
      <trkpt lat="45.02705" lon="0.59394">
        <ele>170.6</ele>
        <time>2022-08-10T13:24:11Z</time>
      </trkpt>
      <trkpt lat="45.027" lon="0.59391">
        <ele>171.6</ele>
        <time>2022-08-10T13:24:13Z</time>
      </trkpt>
      <trkpt lat="45.02696" lon="0.5939">
        <ele>170.6</ele>
        <time>2022-08-10T13:24:15Z</time>
      </trkpt>
      <trkpt lat="45.0269" lon="0.59389">
        <ele>171.6</ele>
        <time>2022-08-10T13:24:17Z</time>
      </trkpt>
      <trkpt lat="45.02685" lon="0.5939">
        <ele>172.6</ele>
        <time>2022-08-10T13:24:19Z</time>
      </trkpt>
      <trkpt lat="45.02679" lon="0.59391">
        <ele>173.6</ele>
        <time>2022-08-10T13:24:21Z</time>
      </trkpt>
      <trkpt lat="45.02674" lon="0.59393">
        <ele>174.6</ele>
        <time>2022-08-10T13:24:23Z</time>
      </trkpt>
      <trkpt lat="45.02669" lon="0.59394">
        <ele>174.6</ele>
        <time>2022-08-10T13:24:25Z</time>
      </trkpt>
      <trkpt lat="45.02663" lon="0.59395">
        <ele>175.6</ele>
        <time>2022-08-10T13:24:27Z</time>
      </trkpt>
      <trkpt lat="45.02658" lon="0.59395">
        <ele>176.6</ele>
        <time>2022-08-10T13:24:29Z</time>
      </trkpt>
      <trkpt lat="45.02651" lon="0.59395">
        <ele>177.6</ele>
        <time>2022-08-10T13:24:31Z</time>
      </trkpt>
      <trkpt lat="45.02644" lon="0.59395">
        <ele>178.6</ele>
        <time>2022-08-10T13:24:33Z</time>
      </trkpt>
      <trkpt lat="45.02638" lon="0.59396">
        <ele>178.6</ele>
        <time>2022-08-10T13:24:35Z</time>
      </trkpt>
      <trkpt lat="45.02632" lon="0.59396">
        <ele>178.6</ele>
        <time>2022-08-10T13:24:37Z</time>
      </trkpt>
      <trkpt lat="45.02627" lon="0.59398">
        <ele>178.6</ele>
        <time>2022-08-10T13:24:39Z</time>
      </trkpt>
      <trkpt lat="45.02621" lon="0.59398">
        <ele>179.6</ele>
        <time>2022-08-10T13:24:41Z</time>
      </trkpt>
      <trkpt lat="45.02616" lon="0.59399">
        <ele>179.6</ele>
        <time>2022-08-10T13:24:43Z</time>
      </trkpt>
      <trkpt lat="45.0261" lon="0.59402">
        <ele>178.6</ele>
        <time>2022-08-10T13:24:45Z</time>
      </trkpt>
      <trkpt lat="45.02604" lon="0.59406">
        <ele>178.6</ele>
        <time>2022-08-10T13:24:47Z</time>
      </trkpt>
      <trkpt lat="45.026" lon="0.59409">
        <ele>179.6</ele>
        <time>2022-08-10T13:24:49Z</time>
      </trkpt>
      <trkpt lat="45.02596" lon="0.59413">
        <ele>179.6</ele>
        <time>2022-08-10T13:24:51Z</time>
      </trkpt>
      <trkpt lat="45.02591" lon="0.59416">
        <ele>179.6</ele>
        <time>2022-08-10T13:24:53Z</time>
      </trkpt>
      <trkpt lat="45.02588" lon="0.5942">
        <ele>179.6</ele>
        <time>2022-08-10T13:24:55Z</time>
      </trkpt>
      <trkpt lat="45.02583" lon="0.59423">
        <ele>178.6</ele>
        <time>2022-08-10T13:24:57Z</time>
      </trkpt>
      <trkpt lat="45.02577" lon="0.59425">
        <ele>178.6</ele>
        <time>2022-08-10T13:24:59Z</time>
      </trkpt>
      <trkpt lat="45.0257" lon="0.59426">
        <ele>177.6</ele>
        <time>2022-08-10T13:25:01Z</time>
      </trkpt>
      <trkpt lat="45.02565" lon="0.59425">
        <ele>176.6</ele>
        <time>2022-08-10T13:25:02Z</time>
      </trkpt>
      <trkpt lat="45.02558" lon="0.59423">
        <ele>175.6</ele>
        <time>2022-08-10T13:25:03Z</time>
      </trkpt>
      <trkpt lat="45.02552" lon="0.59421">
        <ele>174.6</ele>
        <time>2022-08-10T13:25:04Z</time>
      </trkpt>
      <trkpt lat="45.02545" lon="0.59418">
        <ele>173.6</ele>
        <time>2022-08-10T13:25:05Z</time>
      </trkpt>
      <trkpt lat="45.02538" lon="0.59417">
        <ele>173.6</ele>
        <time>2022-08-10T13:25:06Z</time>
      </trkpt>
      <trkpt lat="45.02531" lon="0.59415">
        <ele>173.6</ele>
        <time>2022-08-10T13:25:07Z</time>
      </trkpt>
      <trkpt lat="45.02525" lon="0.59414">
        <ele>173.6</ele>
        <time>2022-08-10T13:25:08Z</time>
      </trkpt>
      <trkpt lat="45.02519" lon="0.59412">
        <ele>173.6</ele>
        <time>2022-08-10T13:25:09Z</time>
      </trkpt>
      <trkpt lat="45.02508" lon="0.59408">
        <ele>173.6</ele>
        <time>2022-08-10T13:25:11Z</time>
      </trkpt>
      <trkpt lat="45.02502" lon="0.59405">
        <ele>173.6</ele>
        <time>2022-08-10T13:25:12Z</time>
      </trkpt>
      <trkpt lat="45.02496" lon="0.59401">
        <ele>173.6</ele>
        <time>2022-08-10T13:25:13Z</time>
      </trkpt>
      <trkpt lat="45.0249" lon="0.59398">
        <ele>175.6</ele>
        <time>2022-08-10T13:25:14Z</time>
      </trkpt>
      <trkpt lat="45.02484" lon="0.59395">
        <ele>175.6</ele>
        <time>2022-08-10T13:25:15Z</time>
      </trkpt>
      <trkpt lat="45.02479" lon="0.59391">
        <ele>175.6</ele>
        <time>2022-08-10T13:25:16Z</time>
      </trkpt>
      <trkpt lat="45.02474" lon="0.59386">
        <ele>176.6</ele>
        <time>2022-08-10T13:25:17Z</time>
      </trkpt>
      <trkpt lat="45.0247" lon="0.59382">
        <ele>176.6</ele>
        <time>2022-08-10T13:25:18Z</time>
      </trkpt>
      <trkpt lat="45.02464" lon="0.59376">
        <ele>177.6</ele>
        <time>2022-08-10T13:25:20Z</time>
      </trkpt>
      <trkpt lat="45.0246" lon="0.59369">
        <ele>177.6</ele>
        <time>2022-08-10T13:25:22Z</time>
      </trkpt>
      <trkpt lat="45.02456" lon="0.59363">
        <ele>177.6</ele>
        <time>2022-08-10T13:25:24Z</time>
      </trkpt>
      <trkpt lat="45.02453" lon="0.59356">
        <ele>177.6</ele>
        <time>2022-08-10T13:25:26Z</time>
      </trkpt>
      <trkpt lat="45.02449" lon="0.59349">
        <ele>176.6</ele>
        <time>2022-08-10T13:25:28Z</time>
      </trkpt>
      <trkpt lat="45.02446" lon="0.59341">
        <ele>177.6</ele>
        <time>2022-08-10T13:25:30Z</time>
      </trkpt>
      <trkpt lat="45.02443" lon="0.59336">
        <ele>176.6</ele>
        <time>2022-08-10T13:25:32Z</time>
      </trkpt>
      <trkpt lat="45.02438" lon="0.59335">
        <ele>173.6</ele>
        <time>2022-08-10T13:26:57Z</time>
      </trkpt>
      <trkpt lat="45.02433" lon="0.59334">
        <ele>173.6</ele>
        <time>2022-08-10T13:27:09Z</time>
      </trkpt>
      <trkpt lat="45.0243" lon="0.59327">
        <ele>172.6</ele>
        <time>2022-08-10T13:27:12Z</time>
      </trkpt>
      <trkpt lat="45.02427" lon="0.59321">
        <ele>171.6</ele>
        <time>2022-08-10T13:27:14Z</time>
      </trkpt>
      <trkpt lat="45.02419" lon="0.59312">
        <ele>170.6</ele>
        <time>2022-08-10T13:27:17Z</time>
      </trkpt>
      <trkpt lat="45.02414" lon="0.59306">
        <ele>169.6</ele>
        <time>2022-08-10T13:27:19Z</time>
      </trkpt>
      <trkpt lat="45.02407" lon="0.59296">
        <ele>167.6</ele>
        <time>2022-08-10T13:27:21Z</time>
      </trkpt>
      <trkpt lat="45.02405" lon="0.59291">
        <ele>166.6</ele>
        <time>2022-08-10T13:27:22Z</time>
      </trkpt>
      <trkpt lat="45.02399" lon="0.59281">
        <ele>165.6</ele>
        <time>2022-08-10T13:27:24Z</time>
      </trkpt>
      <trkpt lat="45.02395" lon="0.59277">
        <ele>164.6</ele>
        <time>2022-08-10T13:27:25Z</time>
      </trkpt>
      <trkpt lat="45.02389" lon="0.59269">
        <ele>163.6</ele>
        <time>2022-08-10T13:27:27Z</time>
      </trkpt>
      <trkpt lat="45.02383" lon="0.59262">
        <ele>163.6</ele>
        <time>2022-08-10T13:27:29Z</time>
      </trkpt>
      <trkpt lat="45.02378" lon="0.59255">
        <ele>162.6</ele>
        <time>2022-08-10T13:27:31Z</time>
      </trkpt>
      <trkpt lat="45.02373" lon="0.59248">
        <ele>161.6</ele>
        <time>2022-08-10T13:27:33Z</time>
      </trkpt>
      <trkpt lat="45.02368" lon="0.59241">
        <ele>161.6</ele>
        <time>2022-08-10T13:27:35Z</time>
      </trkpt>
      <trkpt lat="45.02361" lon="0.59234">
        <ele>160.6</ele>
        <time>2022-08-10T13:27:37Z</time>
      </trkpt>
      <trkpt lat="45.02355" lon="0.59226">
        <ele>160.6</ele>
        <time>2022-08-10T13:27:39Z</time>
      </trkpt>
      <trkpt lat="45.0235" lon="0.59219">
        <ele>160.6</ele>
        <time>2022-08-10T13:27:41Z</time>
      </trkpt>
      <trkpt lat="45.02344" lon="0.59213">
        <ele>160.6</ele>
        <time>2022-08-10T13:27:43Z</time>
      </trkpt>
      <trkpt lat="45.02338" lon="0.59207">
        <ele>161.6</ele>
        <time>2022-08-10T13:27:45Z</time>
      </trkpt>
      <trkpt lat="45.02331" lon="0.592">
        <ele>161.6</ele>
        <time>2022-08-10T13:27:47Z</time>
      </trkpt>
      <trkpt lat="45.02324" lon="0.59195">
        <ele>162.6</ele>
        <time>2022-08-10T13:27:49Z</time>
      </trkpt>
      <trkpt lat="45.02318" lon="0.5919">
        <ele>163.6</ele>
        <time>2022-08-10T13:27:51Z</time>
      </trkpt>
      <trkpt lat="45.02313" lon="0.59186">
        <ele>164.6</ele>
        <time>2022-08-10T13:27:53Z</time>
      </trkpt>
      <trkpt lat="45.02307" lon="0.59182">
        <ele>165.6</ele>
        <time>2022-08-10T13:27:55Z</time>
      </trkpt>
      <trkpt lat="45.02301" lon="0.59178">
        <ele>166.6</ele>
        <time>2022-08-10T13:27:57Z</time>
      </trkpt>
      <trkpt lat="45.02295" lon="0.59175">
        <ele>166.6</ele>
        <time>2022-08-10T13:27:59Z</time>
      </trkpt>
      <trkpt lat="45.02289" lon="0.5917">
        <ele>166.6</ele>
        <time>2022-08-10T13:28:01Z</time>
      </trkpt>
      <trkpt lat="45.02283" lon="0.59167">
        <ele>166.6</ele>
        <time>2022-08-10T13:28:03Z</time>
      </trkpt>
      <trkpt lat="45.02276" lon="0.59164">
        <ele>165.6</ele>
        <time>2022-08-10T13:28:05Z</time>
      </trkpt>
      <trkpt lat="45.02268" lon="0.5916">
        <ele>165.6</ele>
        <time>2022-08-10T13:28:07Z</time>
      </trkpt>
      <trkpt lat="45.0226" lon="0.59155">
        <ele>165.6</ele>
        <time>2022-08-10T13:28:09Z</time>
      </trkpt>
      <trkpt lat="45.02255" lon="0.59153">
        <ele>165.6</ele>
        <time>2022-08-10T13:28:10Z</time>
      </trkpt>
      <trkpt lat="45.0225" lon="0.59151">
        <ele>166.6</ele>
        <time>2022-08-10T13:28:11Z</time>
      </trkpt>
      <trkpt lat="45.02243" lon="0.59147">
        <ele>166.6</ele>
        <time>2022-08-10T13:28:13Z</time>
      </trkpt>
      <trkpt lat="45.02236" lon="0.59145">
        <ele>166.6</ele>
        <time>2022-08-10T13:28:15Z</time>
      </trkpt>
      <trkpt lat="45.02229" lon="0.59142">
        <ele>165.6</ele>
        <time>2022-08-10T13:28:17Z</time>
      </trkpt>
      <trkpt lat="45.02221" lon="0.59139">
        <ele>165.6</ele>
        <time>2022-08-10T13:28:19Z</time>
      </trkpt>
      <trkpt lat="45.02212" lon="0.59135">
        <ele>165.6</ele>
        <time>2022-08-10T13:28:21Z</time>
      </trkpt>
      <trkpt lat="45.02204" lon="0.59132">
        <ele>165.6</ele>
        <time>2022-08-10T13:28:23Z</time>
      </trkpt>
      <trkpt lat="45.02196" lon="0.5913">
        <ele>165.6</ele>
        <time>2022-08-10T13:28:25Z</time>
      </trkpt>
      <trkpt lat="45.02188" lon="0.59126">
        <ele>165.6</ele>
        <time>2022-08-10T13:28:27Z</time>
      </trkpt>
      <trkpt lat="45.02184" lon="0.59124">
        <ele>166.6</ele>
        <time>2022-08-10T13:28:28Z</time>
      </trkpt>
      <trkpt lat="45.02179" lon="0.59122">
        <ele>166.6</ele>
        <time>2022-08-10T13:28:29Z</time>
      </trkpt>
      <trkpt lat="45.02174" lon="0.59119">
        <ele>166.6</ele>
        <time>2022-08-10T13:28:30Z</time>
      </trkpt>
      <trkpt lat="45.02167" lon="0.59116">
        <ele>167.6</ele>
        <time>2022-08-10T13:28:32Z</time>
      </trkpt>
      <trkpt lat="45.02161" lon="0.59114">
        <ele>167.6</ele>
        <time>2022-08-10T13:28:34Z</time>
      </trkpt>
      <trkpt lat="45.02156" lon="0.59114">
        <ele>169.6</ele>
        <time>2022-08-10T13:28:37Z</time>
      </trkpt>
      <trkpt lat="45.02152" lon="0.59111">
        <ele>173.6</ele>
        <time>2022-08-10T13:29:09Z</time>
      </trkpt>
      <trkpt lat="45.02143" lon="0.59104">
        <ele>172.6</ele>
        <time>2022-08-10T13:29:12Z</time>
      </trkpt>
      <trkpt lat="45.02135" lon="0.59098">
        <ele>172.6</ele>
        <time>2022-08-10T13:29:14Z</time>
      </trkpt>
      <trkpt lat="45.02127" lon="0.59095">
        <ele>172.6</ele>
        <time>2022-08-10T13:29:16Z</time>
      </trkpt>
      <trkpt lat="45.0212" lon="0.5909">
        <ele>172.6</ele>
        <time>2022-08-10T13:29:18Z</time>
      </trkpt>
      <trkpt lat="45.02113" lon="0.59085">
        <ele>172.6</ele>
        <time>2022-08-10T13:29:20Z</time>
      </trkpt>
      <trkpt lat="45.02106" lon="0.5908">
        <ele>171.6</ele>
        <time>2022-08-10T13:29:22Z</time>
      </trkpt>
      <trkpt lat="45.02095" lon="0.59071">
        <ele>170.6</ele>
        <time>2022-08-10T13:29:25Z</time>
      </trkpt>
      <trkpt lat="45.02088" lon="0.59068">
        <ele>170.6</ele>
        <time>2022-08-10T13:29:27Z</time>
      </trkpt>
      <trkpt lat="45.02082" lon="0.59063">
        <ele>170.6</ele>
        <time>2022-08-10T13:29:29Z</time>
      </trkpt>
      <trkpt lat="45.02075" lon="0.59059">
        <ele>169.6</ele>
        <time>2022-08-10T13:29:31Z</time>
      </trkpt>
      <trkpt lat="45.02067" lon="0.59054">
        <ele>170.6</ele>
        <time>2022-08-10T13:29:33Z</time>
      </trkpt>
      <trkpt lat="45.0206" lon="0.5905">
        <ele>169.6</ele>
        <time>2022-08-10T13:29:35Z</time>
      </trkpt>
      <trkpt lat="45.02053" lon="0.59046">
        <ele>169.6</ele>
        <time>2022-08-10T13:29:37Z</time>
      </trkpt>
      <trkpt lat="45.02049" lon="0.59043">
        <ele>169.6</ele>
        <time>2022-08-10T13:29:38Z</time>
      </trkpt>
      <trkpt lat="45.02044" lon="0.59037">
        <ele>169.6</ele>
        <time>2022-08-10T13:29:39Z</time>
      </trkpt>
      <trkpt lat="45.0204" lon="0.59032">
        <ele>169.6</ele>
        <time>2022-08-10T13:29:40Z</time>
      </trkpt>
      <trkpt lat="45.02028" lon="0.59025">
        <ele>170.6</ele>
        <time>2022-08-10T13:29:42Z</time>
      </trkpt>
      <trkpt lat="45.02022" lon="0.59022">
        <ele>170.6</ele>
        <time>2022-08-10T13:29:43Z</time>
      </trkpt>
      <trkpt lat="45.02017" lon="0.59018">
        <ele>169.6</ele>
        <time>2022-08-10T13:29:44Z</time>
      </trkpt>
      <trkpt lat="45.02011" lon="0.59015">
        <ele>169.6</ele>
        <time>2022-08-10T13:29:45Z</time>
      </trkpt>
      <trkpt lat="45.02005" lon="0.5901">
        <ele>168.6</ele>
        <time>2022-08-10T13:29:46Z</time>
      </trkpt>
      <trkpt lat="45.01999" lon="0.59004">
        <ele>169.6</ele>
        <time>2022-08-10T13:29:47Z</time>
      </trkpt>
      <trkpt lat="45.01993" lon="0.58999">
        <ele>168.6</ele>
        <time>2022-08-10T13:29:48Z</time>
      </trkpt>
      <trkpt lat="45.01988" lon="0.58994">
        <ele>168.6</ele>
        <time>2022-08-10T13:29:49Z</time>
      </trkpt>
      <trkpt lat="45.01982" lon="0.58989">
        <ele>168.6</ele>
        <time>2022-08-10T13:29:50Z</time>
      </trkpt>
      <trkpt lat="45.01977" lon="0.58984">
        <ele>168.6</ele>
        <time>2022-08-10T13:29:51Z</time>
      </trkpt>
      <trkpt lat="45.01973" lon="0.58979">
        <ele>168.6</ele>
        <time>2022-08-10T13:29:52Z</time>
      </trkpt>
      <trkpt lat="45.01968" lon="0.58974">
        <ele>168.6</ele>
        <time>2022-08-10T13:29:53Z</time>
      </trkpt>
      <trkpt lat="45.01964" lon="0.58968">
        <ele>169.6</ele>
        <time>2022-08-10T13:29:54Z</time>
      </trkpt>
      <trkpt lat="45.01959" lon="0.58963">
        <ele>169.6</ele>
        <time>2022-08-10T13:29:55Z</time>
      </trkpt>
      <trkpt lat="45.01955" lon="0.58958">
        <ele>169.6</ele>
        <time>2022-08-10T13:29:56Z</time>
      </trkpt>
      <trkpt lat="45.0195" lon="0.58954">
        <ele>169.6</ele>
        <time>2022-08-10T13:29:57Z</time>
      </trkpt>
      <trkpt lat="45.01945" lon="0.58949">
        <ele>170.6</ele>
        <time>2022-08-10T13:29:58Z</time>
      </trkpt>
      <trkpt lat="45.0194" lon="0.58945">
        <ele>170.6</ele>
        <time>2022-08-10T13:29:59Z</time>
      </trkpt>
      <trkpt lat="45.01935" lon="0.58942">
        <ele>169.6</ele>
        <time>2022-08-10T13:30:00Z</time>
      </trkpt>
      <trkpt lat="45.01931" lon="0.58939">
        <ele>170.6</ele>
        <time>2022-08-10T13:30:01Z</time>
      </trkpt>
      <trkpt lat="45.01926" lon="0.58935">
        <ele>170.6</ele>
        <time>2022-08-10T13:30:02Z</time>
      </trkpt>
      <trkpt lat="45.0192" lon="0.58931">
        <ele>170.6</ele>
        <time>2022-08-10T13:30:03Z</time>
      </trkpt>
      <trkpt lat="45.01915" lon="0.58927">
        <ele>170.6</ele>
        <time>2022-08-10T13:30:04Z</time>
      </trkpt>
      <trkpt lat="45.0191" lon="0.58923">
        <ele>170.6</ele>
        <time>2022-08-10T13:30:05Z</time>
      </trkpt>
      <trkpt lat="45.01906" lon="0.5892">
        <ele>171.6</ele>
        <time>2022-08-10T13:30:06Z</time>
      </trkpt>
      <trkpt lat="45.01902" lon="0.58917">
        <ele>171.6</ele>
        <time>2022-08-10T13:30:07Z</time>
      </trkpt>
      <trkpt lat="45.01898" lon="0.58914">
        <ele>171.6</ele>
        <time>2022-08-10T13:30:08Z</time>
      </trkpt>
      <trkpt lat="45.01894" lon="0.58911">
        <ele>171.6</ele>
        <time>2022-08-10T13:30:09Z</time>
      </trkpt>
      <trkpt lat="45.01889" lon="0.58908">
        <ele>171.6</ele>
        <time>2022-08-10T13:30:10Z</time>
      </trkpt>
      <trkpt lat="45.01885" lon="0.58905">
        <ele>172.6</ele>
        <time>2022-08-10T13:30:11Z</time>
      </trkpt>
      <trkpt lat="45.0188" lon="0.58903">
        <ele>172.6</ele>
        <time>2022-08-10T13:30:12Z</time>
      </trkpt>
      <trkpt lat="45.01876" lon="0.58901">
        <ele>173.6</ele>
        <time>2022-08-10T13:30:13Z</time>
      </trkpt>
      <trkpt lat="45.01872" lon="0.58898">
        <ele>173.6</ele>
        <time>2022-08-10T13:30:14Z</time>
      </trkpt>
      <trkpt lat="45.01867" lon="0.58895">
        <ele>173.6</ele>
        <time>2022-08-10T13:30:15Z</time>
      </trkpt>
      <trkpt lat="45.01863" lon="0.58891">
        <ele>173.6</ele>
        <time>2022-08-10T13:30:16Z</time>
      </trkpt>
      <trkpt lat="45.01858" lon="0.58888">
        <ele>174.6</ele>
        <time>2022-08-10T13:30:17Z</time>
      </trkpt>
      <trkpt lat="45.01851" lon="0.58881">
        <ele>174.6</ele>
        <time>2022-08-10T13:30:19Z</time>
      </trkpt>
      <trkpt lat="45.01846" lon="0.58878">
        <ele>174.6</ele>
        <time>2022-08-10T13:30:20Z</time>
      </trkpt>
      <trkpt lat="45.01842" lon="0.58875">
        <ele>174.6</ele>
        <time>2022-08-10T13:30:21Z</time>
      </trkpt>
      <trkpt lat="45.01838" lon="0.58872">
        <ele>174.6</ele>
        <time>2022-08-10T13:30:22Z</time>
      </trkpt>
      <trkpt lat="45.01834" lon="0.58869">
        <ele>174.6</ele>
        <time>2022-08-10T13:30:23Z</time>
      </trkpt>
      <trkpt lat="45.01827" lon="0.58863">
        <ele>174.6</ele>
        <time>2022-08-10T13:30:25Z</time>
      </trkpt>
      <trkpt lat="45.0182" lon="0.58856">
        <ele>174.6</ele>
        <time>2022-08-10T13:30:27Z</time>
      </trkpt>
      <trkpt lat="45.01813" lon="0.58851">
        <ele>174.6</ele>
        <time>2022-08-10T13:30:29Z</time>
      </trkpt>
      <trkpt lat="45.01807" lon="0.58845">
        <ele>173.6</ele>
        <time>2022-08-10T13:30:31Z</time>
      </trkpt>
      <trkpt lat="45.01802" lon="0.58837">
        <ele>173.6</ele>
        <time>2022-08-10T13:30:33Z</time>
      </trkpt>
      <trkpt lat="45.01798" lon="0.58828">
        <ele>173.6</ele>
        <time>2022-08-10T13:30:35Z</time>
      </trkpt>
      <trkpt lat="45.01793" lon="0.5882">
        <ele>173.6</ele>
        <time>2022-08-10T13:30:37Z</time>
      </trkpt>
      <trkpt lat="45.01789" lon="0.58812">
        <ele>174.6</ele>
        <time>2022-08-10T13:30:39Z</time>
      </trkpt>
      <trkpt lat="45.01785" lon="0.58804">
        <ele>173.6</ele>
        <time>2022-08-10T13:30:41Z</time>
      </trkpt>
      <trkpt lat="45.01781" lon="0.58795">
        <ele>173.6</ele>
        <time>2022-08-10T13:30:43Z</time>
      </trkpt>
      <trkpt lat="45.01777" lon="0.58787">
        <ele>173.6</ele>
        <time>2022-08-10T13:30:45Z</time>
      </trkpt>
      <trkpt lat="45.01773" lon="0.58779">
        <ele>174.6</ele>
        <time>2022-08-10T13:30:47Z</time>
      </trkpt>
      <trkpt lat="45.01769" lon="0.58769">
        <ele>174.6</ele>
        <time>2022-08-10T13:30:49Z</time>
      </trkpt>
      <trkpt lat="45.01765" lon="0.5876">
        <ele>174.6</ele>
        <time>2022-08-10T13:30:51Z</time>
      </trkpt>
      <trkpt lat="45.01763" lon="0.58755">
        <ele>174.6</ele>
        <time>2022-08-10T13:30:52Z</time>
      </trkpt>
      <trkpt lat="45.0176" lon="0.58748">
        <ele>175.6</ele>
        <time>2022-08-10T13:30:53Z</time>
      </trkpt>
      <trkpt lat="45.01756" lon="0.58741">
        <ele>175.6</ele>
        <time>2022-08-10T13:30:54Z</time>
      </trkpt>
      <trkpt lat="45.01754" lon="0.58735">
        <ele>174.6</ele>
        <time>2022-08-10T13:30:55Z</time>
      </trkpt>
      <trkpt lat="45.0175" lon="0.58728">
        <ele>174.6</ele>
        <time>2022-08-10T13:30:56Z</time>
      </trkpt>
      <trkpt lat="45.01748" lon="0.58721">
        <ele>174.6</ele>
        <time>2022-08-10T13:30:57Z</time>
      </trkpt>
      <trkpt lat="45.01744" lon="0.58714">
        <ele>173.6</ele>
        <time>2022-08-10T13:30:58Z</time>
      </trkpt>
      <trkpt lat="45.01741" lon="0.58708">
        <ele>173.6</ele>
        <time>2022-08-10T13:30:59Z</time>
      </trkpt>
      <trkpt lat="45.01738" lon="0.58701">
        <ele>172.6</ele>
        <time>2022-08-10T13:31:00Z</time>
      </trkpt>
      <trkpt lat="45.01734" lon="0.58694">
        <ele>172.6</ele>
        <time>2022-08-10T13:31:01Z</time>
      </trkpt>
      <trkpt lat="45.01731" lon="0.58687">
        <ele>172.6</ele>
        <time>2022-08-10T13:31:02Z</time>
      </trkpt>
      <trkpt lat="45.01727" lon="0.5868">
        <ele>172.6</ele>
        <time>2022-08-10T13:31:03Z</time>
      </trkpt>
      <trkpt lat="45.01724" lon="0.58673">
        <ele>172.6</ele>
        <time>2022-08-10T13:31:04Z</time>
      </trkpt>
      <trkpt lat="45.0172" lon="0.58666">
        <ele>172.6</ele>
        <time>2022-08-10T13:31:05Z</time>
      </trkpt>
      <trkpt lat="45.01717" lon="0.58659">
        <ele>172.6</ele>
        <time>2022-08-10T13:31:06Z</time>
      </trkpt>
      <trkpt lat="45.01714" lon="0.58653">
        <ele>172.6</ele>
        <time>2022-08-10T13:31:07Z</time>
      </trkpt>
      <trkpt lat="45.01712" lon="0.58647">
        <ele>171.6</ele>
        <time>2022-08-10T13:31:08Z</time>
      </trkpt>
      <trkpt lat="45.01709" lon="0.58642">
        <ele>171.6</ele>
        <time>2022-08-10T13:31:09Z</time>
      </trkpt>
      <trkpt lat="45.01706" lon="0.58636">
        <ele>171.6</ele>
        <time>2022-08-10T13:31:10Z</time>
      </trkpt>
      <trkpt lat="45.017" lon="0.58626">
        <ele>171.6</ele>
        <time>2022-08-10T13:31:12Z</time>
      </trkpt>
      <trkpt lat="45.01697" lon="0.58622">
        <ele>171.6</ele>
        <time>2022-08-10T13:31:13Z</time>
      </trkpt>
      <trkpt lat="45.01691" lon="0.58614">
        <ele>171.6</ele>
        <time>2022-08-10T13:31:15Z</time>
      </trkpt>
      <trkpt lat="45.01686" lon="0.58606">
        <ele>170.6</ele>
        <time>2022-08-10T13:31:17Z</time>
      </trkpt>
      <trkpt lat="45.0168" lon="0.58599">
        <ele>170.6</ele>
        <time>2022-08-10T13:31:19Z</time>
      </trkpt>
      <trkpt lat="45.01673" lon="0.58592">
        <ele>169.6</ele>
        <time>2022-08-10T13:31:21Z</time>
      </trkpt>
      <trkpt lat="45.0167" lon="0.58588">
        <ele>169.6</ele>
        <time>2022-08-10T13:31:22Z</time>
      </trkpt>
      <trkpt lat="45.01663" lon="0.58582">
        <ele>169.6</ele>
        <time>2022-08-10T13:31:24Z</time>
      </trkpt>
      <trkpt lat="45.01657" lon="0.58577">
        <ele>169.6</ele>
        <time>2022-08-10T13:31:26Z</time>
      </trkpt>
      <trkpt lat="45.01652" lon="0.58572">
        <ele>168.6</ele>
        <time>2022-08-10T13:31:28Z</time>
      </trkpt>
      <trkpt lat="45.01647" lon="0.58567">
        <ele>168.6</ele>
        <time>2022-08-10T13:31:30Z</time>
      </trkpt>
      <trkpt lat="45.01644" lon="0.58563">
        <ele>168.6</ele>
        <time>2022-08-10T13:31:32Z</time>
      </trkpt>
      <trkpt lat="45.01639" lon="0.58559">
        <ele>168.6</ele>
        <time>2022-08-10T13:31:35Z</time>
      </trkpt>
      <trkpt lat="45.01635" lon="0.58558">
        <ele>169.6</ele>
        <time>2022-08-10T13:31:39Z</time>
      </trkpt>
      <trkpt lat="45.01631" lon="0.58561">
        <ele>170.6</ele>
        <time>2022-08-10T13:31:42Z</time>
      </trkpt>
      <trkpt lat="45.01627" lon="0.58569">
        <ele>170.6</ele>
        <time>2022-08-10T13:31:45Z</time>
      </trkpt>
      <trkpt lat="45.01625" lon="0.58576">
        <ele>170.6</ele>
        <time>2022-08-10T13:31:47Z</time>
      </trkpt>
      <trkpt lat="45.01621" lon="0.58584">
        <ele>170.6</ele>
        <time>2022-08-10T13:31:49Z</time>
      </trkpt>
      <trkpt lat="45.01615" lon="0.58592">
        <ele>170.6</ele>
        <time>2022-08-10T13:31:51Z</time>
      </trkpt>
      <trkpt lat="45.01611" lon="0.58597">
        <ele>171.6</ele>
        <time>2022-08-10T13:31:52Z</time>
      </trkpt>
      <trkpt lat="45.01608" lon="0.58602">
        <ele>171.6</ele>
        <time>2022-08-10T13:31:53Z</time>
      </trkpt>
      <trkpt lat="45.01604" lon="0.5861">
        <ele>171.6</ele>
        <time>2022-08-10T13:31:54Z</time>
      </trkpt>
      <trkpt lat="45.01599" lon="0.58618">
        <ele>172.6</ele>
        <time>2022-08-10T13:31:55Z</time>
      </trkpt>
      <trkpt lat="45.01593" lon="0.58627">
        <ele>173.6</ele>
        <time>2022-08-10T13:31:56Z</time>
      </trkpt>
      <trkpt lat="45.01588" lon="0.58636">
        <ele>173.6</ele>
        <time>2022-08-10T13:31:57Z</time>
      </trkpt>
      <trkpt lat="45.01583" lon="0.58646">
        <ele>174.6</ele>
        <time>2022-08-10T13:31:58Z</time>
      </trkpt>
      <trkpt lat="45.01572" lon="0.58667">
        <ele>175.6</ele>
        <time>2022-08-10T13:32:00Z</time>
      </trkpt>
      <trkpt lat="45.01568" lon="0.58676">
        <ele>175.6</ele>
        <time>2022-08-10T13:32:01Z</time>
      </trkpt>
      <trkpt lat="45.01564" lon="0.58685">
        <ele>175.6</ele>
        <time>2022-08-10T13:32:02Z</time>
      </trkpt>
      <trkpt lat="45.0156" lon="0.58693">
        <ele>175.6</ele>
        <time>2022-08-10T13:32:03Z</time>
      </trkpt>
      <trkpt lat="45.01556" lon="0.58701">
        <ele>175.6</ele>
        <time>2022-08-10T13:32:04Z</time>
      </trkpt>
      <trkpt lat="45.01552" lon="0.58708">
        <ele>175.6</ele>
        <time>2022-08-10T13:32:05Z</time>
      </trkpt>
      <trkpt lat="45.01549" lon="0.58716">
        <ele>175.6</ele>
        <time>2022-08-10T13:32:06Z</time>
      </trkpt>
      <trkpt lat="45.01545" lon="0.58723">
        <ele>175.6</ele>
        <time>2022-08-10T13:32:07Z</time>
      </trkpt>
      <trkpt lat="45.01542" lon="0.5873">
        <ele>174.6</ele>
        <time>2022-08-10T13:32:08Z</time>
      </trkpt>
      <trkpt lat="45.01538" lon="0.58738">
        <ele>175.6</ele>
        <time>2022-08-10T13:32:09Z</time>
      </trkpt>
      <trkpt lat="45.01532" lon="0.58745">
        <ele>175.6</ele>
        <time>2022-08-10T13:32:10Z</time>
      </trkpt>
      <trkpt lat="45.01527" lon="0.58753">
        <ele>175.6</ele>
        <time>2022-08-10T13:32:11Z</time>
      </trkpt>
      <trkpt lat="45.01521" lon="0.58758">
        <ele>175.6</ele>
        <time>2022-08-10T13:32:12Z</time>
      </trkpt>
      <trkpt lat="45.01515" lon="0.58763">
        <ele>175.6</ele>
        <time>2022-08-10T13:32:13Z</time>
      </trkpt>
      <trkpt lat="45.0151" lon="0.58765">
        <ele>174.6</ele>
        <time>2022-08-10T13:32:14Z</time>
      </trkpt>
      <trkpt lat="45.01504" lon="0.58767">
        <ele>174.6</ele>
        <time>2022-08-10T13:32:15Z</time>
      </trkpt>
      <trkpt lat="45.01498" lon="0.58768">
        <ele>173.6</ele>
        <time>2022-08-10T13:32:16Z</time>
      </trkpt>
      <trkpt lat="45.01494" lon="0.58771">
        <ele>173.6</ele>
        <time>2022-08-10T13:32:17Z</time>
      </trkpt>
      <trkpt lat="45.01489" lon="0.58779">
        <ele>173.6</ele>
        <time>2022-08-10T13:32:19Z</time>
      </trkpt>
      <trkpt lat="45.01486" lon="0.58787">
        <ele>173.6</ele>
        <time>2022-08-10T13:32:21Z</time>
      </trkpt>
      <trkpt lat="45.01483" lon="0.58795">
        <ele>174.6</ele>
        <time>2022-08-10T13:32:23Z</time>
      </trkpt>
      <trkpt lat="45.01479" lon="0.58803">
        <ele>173.6</ele>
        <time>2022-08-10T13:32:25Z</time>
      </trkpt>
      <trkpt lat="45.01475" lon="0.58811">
        <ele>172.6</ele>
        <time>2022-08-10T13:32:27Z</time>
      </trkpt>
      <trkpt lat="45.01471" lon="0.5882">
        <ele>172.6</ele>
        <time>2022-08-10T13:32:29Z</time>
      </trkpt>
      <trkpt lat="45.01466" lon="0.5883">
        <ele>173.6</ele>
        <time>2022-08-10T13:32:31Z</time>
      </trkpt>
      <trkpt lat="45.01463" lon="0.58835">
        <ele>174.6</ele>
        <time>2022-08-10T13:32:32Z</time>
      </trkpt>
      <trkpt lat="45.01459" lon="0.58841">
        <ele>174.6</ele>
        <time>2022-08-10T13:32:33Z</time>
      </trkpt>
      <trkpt lat="45.01456" lon="0.58847">
        <ele>174.6</ele>
        <time>2022-08-10T13:32:34Z</time>
      </trkpt>
      <trkpt lat="45.01454" lon="0.58852">
        <ele>175.6</ele>
        <time>2022-08-10T13:32:35Z</time>
      </trkpt>
      <trkpt lat="45.01451" lon="0.58858">
        <ele>175.6</ele>
        <time>2022-08-10T13:32:36Z</time>
      </trkpt>
      <trkpt lat="45.01449" lon="0.58864">
        <ele>175.6</ele>
        <time>2022-08-10T13:32:37Z</time>
      </trkpt>
      <trkpt lat="45.01447" lon="0.58871">
        <ele>175.6</ele>
        <time>2022-08-10T13:32:38Z</time>
      </trkpt>
      <trkpt lat="45.01445" lon="0.58877">
        <ele>175.6</ele>
        <time>2022-08-10T13:32:39Z</time>
      </trkpt>
      <trkpt lat="45.01442" lon="0.58885">
        <ele>175.6</ele>
        <time>2022-08-10T13:32:40Z</time>
      </trkpt>
      <trkpt lat="45.01439" lon="0.58892">
        <ele>175.6</ele>
        <time>2022-08-10T13:32:41Z</time>
      </trkpt>
      <trkpt lat="45.01435" lon="0.58901">
        <ele>175.6</ele>
        <time>2022-08-10T13:32:42Z</time>
      </trkpt>
      <trkpt lat="45.01431" lon="0.5891">
        <ele>175.6</ele>
        <time>2022-08-10T13:32:43Z</time>
      </trkpt>
      <trkpt lat="45.01427" lon="0.58919">
        <ele>175.6</ele>
        <time>2022-08-10T13:32:44Z</time>
      </trkpt>
      <trkpt lat="45.01423" lon="0.58929">
        <ele>176.6</ele>
        <time>2022-08-10T13:32:45Z</time>
      </trkpt>
      <trkpt lat="45.0142" lon="0.58939">
        <ele>176.6</ele>
        <time>2022-08-10T13:32:46Z</time>
      </trkpt>
      <trkpt lat="45.01417" lon="0.58951">
        <ele>175.6</ele>
        <time>2022-08-10T13:32:47Z</time>
      </trkpt>
      <trkpt lat="45.01415" lon="0.58962">
        <ele>175.6</ele>
        <time>2022-08-10T13:32:48Z</time>
      </trkpt>
      <trkpt lat="45.01413" lon="0.58973">
        <ele>174.6</ele>
        <time>2022-08-10T13:32:49Z</time>
      </trkpt>
      <trkpt lat="45.01411" lon="0.58984">
        <ele>174.6</ele>
        <time>2022-08-10T13:32:50Z</time>
      </trkpt>
      <trkpt lat="45.0141" lon="0.58994">
        <ele>173.6</ele>
        <time>2022-08-10T13:32:51Z</time>
      </trkpt>
      <trkpt lat="45.01409" lon="0.59006">
        <ele>173.6</ele>
        <time>2022-08-10T13:32:52Z</time>
      </trkpt>
      <trkpt lat="45.01408" lon="0.59017">
        <ele>172.6</ele>
        <time>2022-08-10T13:32:53Z</time>
      </trkpt>
      <trkpt lat="45.01407" lon="0.59028">
        <ele>171.6</ele>
        <time>2022-08-10T13:32:54Z</time>
      </trkpt>
      <trkpt lat="45.01406" lon="0.59039">
        <ele>171.6</ele>
        <time>2022-08-10T13:32:55Z</time>
      </trkpt>
      <trkpt lat="45.01405" lon="0.59049">
        <ele>170.6</ele>
        <time>2022-08-10T13:32:56Z</time>
      </trkpt>
      <trkpt lat="45.01404" lon="0.59059">
        <ele>170.6</ele>
        <time>2022-08-10T13:32:57Z</time>
      </trkpt>
      <trkpt lat="45.01403" lon="0.59069">
        <ele>169.6</ele>
        <time>2022-08-10T13:32:58Z</time>
      </trkpt>
      <trkpt lat="45.01402" lon="0.59077">
        <ele>169.6</ele>
        <time>2022-08-10T13:32:59Z</time>
      </trkpt>
      <trkpt lat="45.01401" lon="0.59085">
        <ele>169.6</ele>
        <time>2022-08-10T13:33:00Z</time>
      </trkpt>
      <trkpt lat="45.01398" lon="0.59092">
        <ele>168.6</ele>
        <time>2022-08-10T13:33:01Z</time>
      </trkpt>
      <trkpt lat="45.01394" lon="0.591">
        <ele>168.6</ele>
        <time>2022-08-10T13:33:02Z</time>
      </trkpt>
      <trkpt lat="45.01391" lon="0.59108">
        <ele>167.6</ele>
        <time>2022-08-10T13:33:03Z</time>
      </trkpt>
      <trkpt lat="45.01387" lon="0.59115">
        <ele>167.6</ele>
        <time>2022-08-10T13:33:04Z</time>
      </trkpt>
      <trkpt lat="45.01383" lon="0.59122">
        <ele>166.6</ele>
        <time>2022-08-10T13:33:05Z</time>
      </trkpt>
      <trkpt lat="45.01375" lon="0.59136">
        <ele>165.6</ele>
        <time>2022-08-10T13:33:07Z</time>
      </trkpt>
      <trkpt lat="45.01371" lon="0.59144">
        <ele>165.6</ele>
        <time>2022-08-10T13:33:08Z</time>
      </trkpt>
      <trkpt lat="45.01368" lon="0.59151">
        <ele>164.6</ele>
        <time>2022-08-10T13:33:09Z</time>
      </trkpt>
      <trkpt lat="45.01364" lon="0.59158">
        <ele>164.6</ele>
        <time>2022-08-10T13:33:10Z</time>
      </trkpt>
      <trkpt lat="45.01361" lon="0.59165">
        <ele>163.6</ele>
        <time>2022-08-10T13:33:11Z</time>
      </trkpt>
      <trkpt lat="45.01358" lon="0.5917">
        <ele>163.6</ele>
        <time>2022-08-10T13:33:12Z</time>
      </trkpt>
      <trkpt lat="45.01355" lon="0.59176">
        <ele>162.6</ele>
        <time>2022-08-10T13:33:13Z</time>
      </trkpt>
      <trkpt lat="45.01352" lon="0.59183">
        <ele>162.6</ele>
        <time>2022-08-10T13:33:14Z</time>
      </trkpt>
      <trkpt lat="45.0135" lon="0.5919">
        <ele>160.6</ele>
        <time>2022-08-10T13:33:15Z</time>
      </trkpt>
      <trkpt lat="45.01347" lon="0.59197">
        <ele>159.6</ele>
        <time>2022-08-10T13:33:16Z</time>
      </trkpt>
      <trkpt lat="45.01342" lon="0.59207">
        <ele>159.6</ele>
        <time>2022-08-10T13:33:17Z</time>
      </trkpt>
      <trkpt lat="45.01337" lon="0.59218">
        <ele>158.6</ele>
        <time>2022-08-10T13:33:18Z</time>
      </trkpt>
      <trkpt lat="45.01331" lon="0.5923">
        <ele>158.6</ele>
        <time>2022-08-10T13:33:19Z</time>
      </trkpt>
      <trkpt lat="45.01324" lon="0.59242">
        <ele>156.6</ele>
        <time>2022-08-10T13:33:20Z</time>
      </trkpt>
      <trkpt lat="45.01318" lon="0.59254">
        <ele>156.6</ele>
        <time>2022-08-10T13:33:21Z</time>
      </trkpt>
      <trkpt lat="45.01313" lon="0.59265">
        <ele>155.6</ele>
        <time>2022-08-10T13:33:22Z</time>
      </trkpt>
      <trkpt lat="45.01308" lon="0.59275">
        <ele>154.6</ele>
        <time>2022-08-10T13:33:23Z</time>
      </trkpt>
      <trkpt lat="45.01303" lon="0.59286">
        <ele>153.6</ele>
        <time>2022-08-10T13:33:24Z</time>
      </trkpt>
      <trkpt lat="45.01298" lon="0.59295">
        <ele>152.6</ele>
        <time>2022-08-10T13:33:25Z</time>
      </trkpt>
      <trkpt lat="45.01293" lon="0.59305">
        <ele>149.6</ele>
        <time>2022-08-10T13:33:26Z</time>
      </trkpt>
      <trkpt lat="45.01289" lon="0.59316">
        <ele>149.6</ele>
        <time>2022-08-10T13:33:27Z</time>
      </trkpt>
      <trkpt lat="45.01284" lon="0.59327">
        <ele>148.6</ele>
        <time>2022-08-10T13:33:28Z</time>
      </trkpt>
      <trkpt lat="45.01279" lon="0.59337">
        <ele>146.6</ele>
        <time>2022-08-10T13:33:29Z</time>
      </trkpt>
      <trkpt lat="45.01276" lon="0.59346">
        <ele>146.6</ele>
        <time>2022-08-10T13:33:30Z</time>
      </trkpt>
      <trkpt lat="45.01272" lon="0.59356">
        <ele>145.6</ele>
        <time>2022-08-10T13:33:31Z</time>
      </trkpt>
      <trkpt lat="45.01269" lon="0.59365">
        <ele>145.6</ele>
        <time>2022-08-10T13:33:32Z</time>
      </trkpt>
      <trkpt lat="45.01266" lon="0.59373">
        <ele>144.6</ele>
        <time>2022-08-10T13:33:33Z</time>
      </trkpt>
      <trkpt lat="45.01263" lon="0.59379">
        <ele>144.6</ele>
        <time>2022-08-10T13:33:34Z</time>
      </trkpt>
      <trkpt lat="45.01261" lon="0.59385">
        <ele>144.6</ele>
        <time>2022-08-10T13:33:35Z</time>
      </trkpt>
      <trkpt lat="45.01257" lon="0.59395">
        <ele>143.6</ele>
        <time>2022-08-10T13:33:37Z</time>
      </trkpt>
      <trkpt lat="45.01256" lon="0.59404">
        <ele>143.6</ele>
        <time>2022-08-10T13:33:39Z</time>
      </trkpt>
      <trkpt lat="45.01256" lon="0.59415">
        <ele>142.6</ele>
        <time>2022-08-10T13:33:41Z</time>
      </trkpt>
      <trkpt lat="45.01256" lon="0.59427">
        <ele>142.6</ele>
        <time>2022-08-10T13:33:43Z</time>
      </trkpt>
      <trkpt lat="45.01255" lon="0.59435">
        <ele>142.6</ele>
        <time>2022-08-10T13:33:44Z</time>
      </trkpt>
      <trkpt lat="45.01254" lon="0.59444">
        <ele>141.6</ele>
        <time>2022-08-10T13:33:45Z</time>
      </trkpt>
      <trkpt lat="45.01252" lon="0.59453">
        <ele>141.6</ele>
        <time>2022-08-10T13:33:46Z</time>
      </trkpt>
      <trkpt lat="45.0125" lon="0.59463">
        <ele>141.6</ele>
        <time>2022-08-10T13:33:47Z</time>
      </trkpt>
      <trkpt lat="45.01248" lon="0.59473">
        <ele>141.6</ele>
        <time>2022-08-10T13:33:48Z</time>
      </trkpt>
      <trkpt lat="45.01246" lon="0.59482">
        <ele>140.6</ele>
        <time>2022-08-10T13:33:49Z</time>
      </trkpt>
      <trkpt lat="45.01244" lon="0.59492">
        <ele>140.6</ele>
        <time>2022-08-10T13:33:50Z</time>
      </trkpt>
      <trkpt lat="45.01242" lon="0.595">
        <ele>140.6</ele>
        <time>2022-08-10T13:33:51Z</time>
      </trkpt>
      <trkpt lat="45.0124" lon="0.5951">
        <ele>140.6</ele>
        <time>2022-08-10T13:33:52Z</time>
      </trkpt>
      <trkpt lat="45.01239" lon="0.59519">
        <ele>139.6</ele>
        <time>2022-08-10T13:33:53Z</time>
      </trkpt>
      <trkpt lat="45.01237" lon="0.59527">
        <ele>139.6</ele>
        <time>2022-08-10T13:33:54Z</time>
      </trkpt>
      <trkpt lat="45.01235" lon="0.59537">
        <ele>139.6</ele>
        <time>2022-08-10T13:33:55Z</time>
      </trkpt>
      <trkpt lat="45.01234" lon="0.59545">
        <ele>139.6</ele>
        <time>2022-08-10T13:33:56Z</time>
      </trkpt>
      <trkpt lat="45.01233" lon="0.59553">
        <ele>140.6</ele>
        <time>2022-08-10T13:33:57Z</time>
      </trkpt>
      <trkpt lat="45.01232" lon="0.59561">
        <ele>140.6</ele>
        <time>2022-08-10T13:33:58Z</time>
      </trkpt>
      <trkpt lat="45.01232" lon="0.59568">
        <ele>140.6</ele>
        <time>2022-08-10T13:33:59Z</time>
      </trkpt>
      <trkpt lat="45.01232" lon="0.59579">
        <ele>140.6</ele>
        <time>2022-08-10T13:34:01Z</time>
      </trkpt>
      <trkpt lat="45.01234" lon="0.59587">
        <ele>139.6</ele>
        <time>2022-08-10T13:34:03Z</time>
      </trkpt>
      <trkpt lat="45.01236" lon="0.59594">
        <ele>139.6</ele>
        <time>2022-08-10T13:34:05Z</time>
      </trkpt>
      <trkpt lat="45.01239" lon="0.59599">
        <ele>138.6</ele>
        <time>2022-08-10T13:34:07Z</time>
      </trkpt>
      <trkpt lat="45.01241" lon="0.59609">
        <ele>138.6</ele>
        <time>2022-08-10T13:34:10Z</time>
      </trkpt>
      <trkpt lat="45.01242" lon="0.59616">
        <ele>138.6</ele>
        <time>2022-08-10T13:34:12Z</time>
      </trkpt>
      <trkpt lat="45.01244" lon="0.59622">
        <ele>138.6</ele>
        <time>2022-08-10T13:34:14Z</time>
      </trkpt>
      <trkpt lat="45.01246" lon="0.59629">
        <ele>137.6</ele>
        <time>2022-08-10T13:34:16Z</time>
      </trkpt>
      <trkpt lat="45.01248" lon="0.59635">
        <ele>137.6</ele>
        <time>2022-08-10T13:34:18Z</time>
      </trkpt>
      <trkpt lat="45.0125" lon="0.59641">
        <ele>136.6</ele>
        <time>2022-08-10T13:34:20Z</time>
      </trkpt>
      <trkpt lat="45.01252" lon="0.59648">
        <ele>136.6</ele>
        <time>2022-08-10T13:34:22Z</time>
      </trkpt>
      <trkpt lat="45.01254" lon="0.59654">
        <ele>136.6</ele>
        <time>2022-08-10T13:34:24Z</time>
      </trkpt>
      <trkpt lat="45.01256" lon="0.59662">
        <ele>136.6</ele>
        <time>2022-08-10T13:34:26Z</time>
      </trkpt>
      <trkpt lat="45.01257" lon="0.59668">
        <ele>136.6</ele>
        <time>2022-08-10T13:34:28Z</time>
      </trkpt>
      <trkpt lat="45.0126" lon="0.59676">
        <ele>136.6</ele>
        <time>2022-08-10T13:34:30Z</time>
      </trkpt>
      <trkpt lat="45.01262" lon="0.59683">
        <ele>136.6</ele>
        <time>2022-08-10T13:34:32Z</time>
      </trkpt>
      <trkpt lat="45.01264" lon="0.5969">
        <ele>136.6</ele>
        <time>2022-08-10T13:34:34Z</time>
      </trkpt>
      <trkpt lat="45.01265" lon="0.59698">
        <ele>135.6</ele>
        <time>2022-08-10T13:34:36Z</time>
      </trkpt>
      <trkpt lat="45.01266" lon="0.59705">
        <ele>135.6</ele>
        <time>2022-08-10T13:34:38Z</time>
      </trkpt>
      <trkpt lat="45.01268" lon="0.59712">
        <ele>135.6</ele>
        <time>2022-08-10T13:34:40Z</time>
      </trkpt>
      <trkpt lat="45.01269" lon="0.59721">
        <ele>135.6</ele>
        <time>2022-08-10T13:34:43Z</time>
      </trkpt>
      <trkpt lat="45.0127" lon="0.59729">
        <ele>135.6</ele>
        <time>2022-08-10T13:34:45Z</time>
      </trkpt>
      <trkpt lat="45.01271" lon="0.59736">
        <ele>135.6</ele>
        <time>2022-08-10T13:34:47Z</time>
      </trkpt>
      <trkpt lat="45.01272" lon="0.59743">
        <ele>135.6</ele>
        <time>2022-08-10T13:34:49Z</time>
      </trkpt>
      <trkpt lat="45.01272" lon="0.59749">
        <ele>135.6</ele>
        <time>2022-08-10T13:34:51Z</time>
      </trkpt>
      <trkpt lat="45.0127" lon="0.59756">
        <ele>135.6</ele>
        <time>2022-08-10T13:34:53Z</time>
      </trkpt>
      <trkpt lat="45.01271" lon="0.59763">
        <ele>136.6</ele>
        <time>2022-08-10T13:34:55Z</time>
      </trkpt>
      <trkpt lat="45.01271" lon="0.59774">
        <ele>136.6</ele>
        <time>2022-08-10T13:34:58Z</time>
      </trkpt>
      <trkpt lat="45.01268" lon="0.59783">
        <ele>136.6</ele>
        <time>2022-08-10T13:35:00Z</time>
      </trkpt>
      <trkpt lat="45.01266" lon="0.59791">
        <ele>135.6</ele>
        <time>2022-08-10T13:35:02Z</time>
      </trkpt>
      <trkpt lat="45.01265" lon="0.59798">
        <ele>136.6</ele>
        <time>2022-08-10T13:35:04Z</time>
      </trkpt>
      <trkpt lat="45.01264" lon="0.59805">
        <ele>135.6</ele>
        <time>2022-08-10T13:35:06Z</time>
      </trkpt>
      <trkpt lat="45.01265" lon="0.59815">
        <ele>136.6</ele>
        <time>2022-08-10T13:35:08Z</time>
      </trkpt>
      <trkpt lat="45.01265" lon="0.59822">
        <ele>139.6</ele>
        <time>2022-08-10T13:35:10Z</time>
      </trkpt>
      <trkpt lat="45.01262" lon="0.5983">
        <ele>141.6</ele>
        <time>2022-08-10T13:35:13Z</time>
      </trkpt>
      <trkpt lat="45.0126" lon="0.59837">
        <ele>142.6</ele>
        <time>2022-08-10T13:35:16Z</time>
      </trkpt>
      <trkpt lat="45.01256" lon="0.59842">
        <ele>142.6</ele>
        <time>2022-08-10T13:35:19Z</time>
      </trkpt>
      <trkpt lat="45.01253" lon="0.59846">
        <ele>142.6</ele>
        <time>2022-08-10T13:35:22Z</time>
      </trkpt>
      <trkpt lat="45.01248" lon="0.5985">
        <ele>142.6</ele>
        <time>2022-08-10T13:35:25Z</time>
      </trkpt>
      <trkpt lat="45.01244" lon="0.59854">
        <ele>142.6</ele>
        <time>2022-08-10T13:35:28Z</time>
      </trkpt>
      <trkpt lat="45.0124" lon="0.59859">
        <ele>143.6</ele>
        <time>2022-08-10T13:35:32Z</time>
      </trkpt>
      <trkpt lat="45.01234" lon="0.59864">
        <ele>144.6</ele>
        <time>2022-08-10T13:35:36Z</time>
      </trkpt>
      <trkpt lat="45.0123" lon="0.59869">
        <ele>144.6</ele>
        <time>2022-08-10T13:35:39Z</time>
      </trkpt>
      <trkpt lat="45.01227" lon="0.59874">
        <ele>144.6</ele>
        <time>2022-08-10T13:35:42Z</time>
      </trkpt>
      <trkpt lat="45.01221" lon="0.59878">
        <ele>143.6</ele>
        <time>2022-08-10T13:35:45Z</time>
      </trkpt>
      <trkpt lat="45.01216" lon="0.59881">
        <ele>143.6</ele>
        <time>2022-08-10T13:35:48Z</time>
      </trkpt>
      <trkpt lat="45.01213" lon="0.59887">
        <ele>144.6</ele>
        <time>2022-08-10T13:35:51Z</time>
      </trkpt>
      <trkpt lat="45.01209" lon="0.59892">
        <ele>145.6</ele>
        <time>2022-08-10T13:35:54Z</time>
      </trkpt>
      <trkpt lat="45.01204" lon="0.59897">
        <ele>145.6</ele>
        <time>2022-08-10T13:35:57Z</time>
      </trkpt>
      <trkpt lat="45.012" lon="0.59899">
        <ele>145.6</ele>
        <time>2022-08-10T13:36:00Z</time>
      </trkpt>
      <trkpt lat="45.01194" lon="0.59903">
        <ele>146.6</ele>
        <time>2022-08-10T13:36:03Z</time>
      </trkpt>
      <trkpt lat="45.01189" lon="0.59907">
        <ele>147.6</ele>
        <time>2022-08-10T13:36:06Z</time>
      </trkpt>
      <trkpt lat="45.01184" lon="0.59908">
        <ele>147.6</ele>
        <time>2022-08-10T13:36:09Z</time>
      </trkpt>
      <trkpt lat="45.0118" lon="0.59912">
        <ele>149.6</ele>
        <time>2022-08-10T13:36:12Z</time>
      </trkpt>
      <trkpt lat="45.01175" lon="0.59913">
        <ele>148.6</ele>
        <time>2022-08-10T13:36:15Z</time>
      </trkpt>
      <trkpt lat="45.0117" lon="0.59915">
        <ele>148.6</ele>
        <time>2022-08-10T13:36:18Z</time>
      </trkpt>
      <trkpt lat="45.01165" lon="0.59915">
        <ele>148.6</ele>
        <time>2022-08-10T13:36:21Z</time>
      </trkpt>
      <trkpt lat="45.0116" lon="0.59915">
        <ele>148.6</ele>
        <time>2022-08-10T13:36:24Z</time>
      </trkpt>
      <trkpt lat="45.01155" lon="0.59915">
        <ele>148.6</ele>
        <time>2022-08-10T13:36:27Z</time>
      </trkpt>
      <trkpt lat="45.0115" lon="0.59916">
        <ele>148.6</ele>
        <time>2022-08-10T13:36:30Z</time>
      </trkpt>
      <trkpt lat="45.01145" lon="0.59917">
        <ele>149.6</ele>
        <time>2022-08-10T13:36:33Z</time>
      </trkpt>
      <trkpt lat="45.01141" lon="0.59918">
        <ele>150.6</ele>
        <time>2022-08-10T13:36:36Z</time>
      </trkpt>
      <trkpt lat="45.01136" lon="0.59919">
        <ele>150.6</ele>
        <time>2022-08-10T13:36:39Z</time>
      </trkpt>
      <trkpt lat="45.01132" lon="0.59922">
        <ele>149.6</ele>
        <time>2022-08-10T13:36:43Z</time>
      </trkpt>
      <trkpt lat="45.01126" lon="0.59925">
        <ele>150.6</ele>
        <time>2022-08-10T13:36:47Z</time>
      </trkpt>
      <trkpt lat="45.0112" lon="0.59929">
        <ele>150.6</ele>
        <time>2022-08-10T13:36:52Z</time>
      </trkpt>
      <trkpt lat="45.01112" lon="0.59931">
        <ele>150.6</ele>
        <time>2022-08-10T13:36:57Z</time>
      </trkpt>
      <trkpt lat="45.01107" lon="0.59932">
        <ele>151.6</ele>
        <time>2022-08-10T13:37:01Z</time>
      </trkpt>
      <trkpt lat="45.01102" lon="0.59932">
        <ele>153.6</ele>
        <time>2022-08-10T13:37:04Z</time>
      </trkpt>
      <trkpt lat="45.01097" lon="0.59932">
        <ele>152.6</ele>
        <time>2022-08-10T13:37:07Z</time>
      </trkpt>
      <trkpt lat="45.01093" lon="0.5993">
        <ele>153.6</ele>
        <time>2022-08-10T13:37:10Z</time>
      </trkpt>
      <trkpt lat="45.01088" lon="0.59929">
        <ele>153.6</ele>
        <time>2022-08-10T13:37:13Z</time>
      </trkpt>
      <trkpt lat="45.01082" lon="0.59929">
        <ele>155.6</ele>
        <time>2022-08-10T13:37:17Z</time>
      </trkpt>
      <trkpt lat="45.01078" lon="0.59928">
        <ele>156.6</ele>
        <time>2022-08-10T13:37:20Z</time>
      </trkpt>
      <trkpt lat="45.01073" lon="0.59927">
        <ele>156.6</ele>
        <time>2022-08-10T13:37:23Z</time>
      </trkpt>
      <trkpt lat="45.01069" lon="0.59924">
        <ele>156.6</ele>
        <time>2022-08-10T13:37:27Z</time>
      </trkpt>
      <trkpt lat="45.01066" lon="0.59917">
        <ele>154.6</ele>
        <time>2022-08-10T13:37:32Z</time>
      </trkpt>
      <trkpt lat="45.01067" lon="0.59909">
        <ele>154.6</ele>
        <time>2022-08-10T13:37:37Z</time>
      </trkpt>
      <trkpt lat="45.01069" lon="0.59903">
        <ele>153.6</ele>
        <time>2022-08-10T13:37:40Z</time>
      </trkpt>
      <trkpt lat="45.01072" lon="0.59898">
        <ele>153.6</ele>
        <time>2022-08-10T13:37:45Z</time>
      </trkpt>
      <trkpt lat="45.01075" lon="0.59893">
        <ele>151.6</ele>
        <time>2022-08-10T13:37:50Z</time>
      </trkpt>
      <trkpt lat="45.01078" lon="0.59887">
        <ele>150.6</ele>
        <time>2022-08-10T13:37:54Z</time>
      </trkpt>
      <trkpt lat="45.01081" lon="0.59881">
        <ele>150.6</ele>
        <time>2022-08-10T13:37:58Z</time>
      </trkpt>
      <trkpt lat="45.01083" lon="0.59876">
        <ele>149.6</ele>
        <time>2022-08-10T13:38:01Z</time>
      </trkpt>
      <trkpt lat="45.01088" lon="0.59872">
        <ele>149.6</ele>
        <time>2022-08-10T13:38:06Z</time>
      </trkpt>
      <trkpt lat="45.01092" lon="0.59865">
        <ele>149.6</ele>
        <time>2022-08-10T13:38:10Z</time>
      </trkpt>
      <trkpt lat="45.01095" lon="0.59859">
        <ele>149.6</ele>
        <time>2022-08-10T13:38:13Z</time>
      </trkpt>
      <trkpt lat="45.01098" lon="0.59854">
        <ele>149.6</ele>
        <time>2022-08-10T13:38:16Z</time>
      </trkpt>
      <trkpt lat="45.01099" lon="0.59846">
        <ele>150.6</ele>
        <time>2022-08-10T13:38:21Z</time>
      </trkpt>
      <trkpt lat="45.01102" lon="0.59839">
        <ele>151.6</ele>
        <time>2022-08-10T13:38:27Z</time>
      </trkpt>
      <trkpt lat="45.01102" lon="0.59832">
        <ele>151.6</ele>
        <time>2022-08-10T13:38:32Z</time>
      </trkpt>
      <trkpt lat="45.01103" lon="0.59825">
        <ele>151.6</ele>
        <time>2022-08-10T13:38:35Z</time>
      </trkpt>
      <trkpt lat="45.01102" lon="0.59818">
        <ele>151.6</ele>
        <time>2022-08-10T13:38:38Z</time>
      </trkpt>
      <trkpt lat="45.01102" lon="0.59808">
        <ele>151.6</ele>
        <time>2022-08-10T13:38:43Z</time>
      </trkpt>
      <trkpt lat="45.011" lon="0.59802">
        <ele>152.6</ele>
        <time>2022-08-10T13:38:49Z</time>
      </trkpt>
      <trkpt lat="45.01097" lon="0.59794">
        <ele>153.6</ele>
        <time>2022-08-10T13:38:53Z</time>
      </trkpt>
      <trkpt lat="45.01097" lon="0.59785">
        <ele>152.6</ele>
        <time>2022-08-10T13:38:56Z</time>
      </trkpt>
      <trkpt lat="45.01096" lon="0.59777">
        <ele>153.6</ele>
        <time>2022-08-10T13:38:59Z</time>
      </trkpt>
      <trkpt lat="45.01096" lon="0.59771">
        <ele>152.6</ele>
        <time>2022-08-10T13:39:02Z</time>
      </trkpt>
      <trkpt lat="45.01094" lon="0.59764">
        <ele>153.6</ele>
        <time>2022-08-10T13:39:05Z</time>
      </trkpt>
      <trkpt lat="45.01092" lon="0.59757">
        <ele>154.6</ele>
        <time>2022-08-10T13:39:09Z</time>
      </trkpt>
      <trkpt lat="45.01089" lon="0.59751">
        <ele>155.6</ele>
        <time>2022-08-10T13:39:13Z</time>
      </trkpt>
      <trkpt lat="45.01084" lon="0.59747">
        <ele>155.6</ele>
        <time>2022-08-10T13:39:17Z</time>
      </trkpt>
      <trkpt lat="45.01079" lon="0.59744">
        <ele>156.6</ele>
        <time>2022-08-10T13:39:20Z</time>
      </trkpt>
      <trkpt lat="45.01076" lon="0.5974">
        <ele>156.6</ele>
        <time>2022-08-10T13:39:23Z</time>
      </trkpt>
      <trkpt lat="45.01071" lon="0.59738">
        <ele>158.6</ele>
        <time>2022-08-10T13:39:27Z</time>
      </trkpt>
      <trkpt lat="45.01067" lon="0.59736">
        <ele>158.6</ele>
        <time>2022-08-10T13:39:30Z</time>
      </trkpt>
      <trkpt lat="45.01061" lon="0.59735">
        <ele>160.6</ele>
        <time>2022-08-10T13:39:34Z</time>
      </trkpt>
      <trkpt lat="45.01056" lon="0.59735">
        <ele>161.6</ele>
        <time>2022-08-10T13:39:37Z</time>
      </trkpt>
      <trkpt lat="45.01051" lon="0.59735">
        <ele>162.6</ele>
        <time>2022-08-10T13:39:40Z</time>
      </trkpt>
      <trkpt lat="45.01045" lon="0.59736">
        <ele>164.6</ele>
        <time>2022-08-10T13:39:43Z</time>
      </trkpt>
      <trkpt lat="45.0104" lon="0.59736">
        <ele>165.6</ele>
        <time>2022-08-10T13:39:46Z</time>
      </trkpt>
      <trkpt lat="45.01036" lon="0.59738">
        <ele>165.6</ele>
        <time>2022-08-10T13:39:49Z</time>
      </trkpt>
      <trkpt lat="45.0103" lon="0.59741">
        <ele>166.6</ele>
        <time>2022-08-10T13:39:52Z</time>
      </trkpt>
      <trkpt lat="45.01024" lon="0.59744">
        <ele>166.6</ele>
        <time>2022-08-10T13:39:55Z</time>
      </trkpt>
      <trkpt lat="45.0102" lon="0.59747">
        <ele>167.6</ele>
        <time>2022-08-10T13:39:58Z</time>
      </trkpt>
      <trkpt lat="45.01015" lon="0.59751">
        <ele>167.6</ele>
        <time>2022-08-10T13:40:01Z</time>
      </trkpt>
      <trkpt lat="45.0101" lon="0.59753">
        <ele>169.6</ele>
        <time>2022-08-10T13:40:04Z</time>
      </trkpt>
      <trkpt lat="45.01006" lon="0.59757">
        <ele>170.6</ele>
        <time>2022-08-10T13:40:08Z</time>
      </trkpt>
      <trkpt lat="45.01003" lon="0.59763">
        <ele>170.6</ele>
        <time>2022-08-10T13:40:11Z</time>
      </trkpt>
      <trkpt lat="45.00998" lon="0.59768">
        <ele>170.6</ele>
        <time>2022-08-10T13:40:14Z</time>
      </trkpt>
      <trkpt lat="45.00994" lon="0.59772">
        <ele>170.6</ele>
        <time>2022-08-10T13:40:16Z</time>
      </trkpt>
      <trkpt lat="45.00989" lon="0.59778">
        <ele>171.6</ele>
        <time>2022-08-10T13:40:19Z</time>
      </trkpt>
      <trkpt lat="45.00985" lon="0.59783">
        <ele>172.6</ele>
        <time>2022-08-10T13:40:22Z</time>
      </trkpt>
      <trkpt lat="45.0098" lon="0.5979">
        <ele>172.6</ele>
        <time>2022-08-10T13:40:25Z</time>
      </trkpt>
      <trkpt lat="45.00976" lon="0.59795">
        <ele>173.6</ele>
        <time>2022-08-10T13:40:28Z</time>
      </trkpt>
      <trkpt lat="45.00971" lon="0.59799">
        <ele>173.6</ele>
        <time>2022-08-10T13:40:30Z</time>
      </trkpt>
      <trkpt lat="45.00966" lon="0.59805">
        <ele>175.6</ele>
        <time>2022-08-10T13:40:33Z</time>
      </trkpt>
      <trkpt lat="45.00961" lon="0.59808">
        <ele>173.6</ele>
        <time>2022-08-10T13:40:36Z</time>
      </trkpt>
      <trkpt lat="45.00956" lon="0.59813">
        <ele>174.6</ele>
        <time>2022-08-10T13:40:39Z</time>
      </trkpt>
      <trkpt lat="45.0095" lon="0.59818">
        <ele>176.6</ele>
        <time>2022-08-10T13:40:42Z</time>
      </trkpt>
      <trkpt lat="45.00947" lon="0.59822">
        <ele>177.6</ele>
        <time>2022-08-10T13:40:44Z</time>
      </trkpt>
      <trkpt lat="45.00942" lon="0.59827">
        <ele>177.6</ele>
        <time>2022-08-10T13:40:46Z</time>
      </trkpt>
      <trkpt lat="45.00938" lon="0.59832">
        <ele>178.6</ele>
        <time>2022-08-10T13:40:48Z</time>
      </trkpt>
      <trkpt lat="45.00933" lon="0.59837">
        <ele>179.6</ele>
        <time>2022-08-10T13:40:51Z</time>
      </trkpt>
      <trkpt lat="45.00929" lon="0.59843">
        <ele>180.6</ele>
        <time>2022-08-10T13:40:54Z</time>
      </trkpt>
      <trkpt lat="45.00925" lon="0.59849">
        <ele>182.6</ele>
        <time>2022-08-10T13:40:57Z</time>
      </trkpt>
      <trkpt lat="45.00918" lon="0.59856">
        <ele>183.6</ele>
        <time>2022-08-10T13:41:01Z</time>
      </trkpt>
      <trkpt lat="45.00914" lon="0.59861">
        <ele>186.6</ele>
        <time>2022-08-10T13:41:04Z</time>
      </trkpt>
      <trkpt lat="45.00909" lon="0.59866">
        <ele>187.6</ele>
        <time>2022-08-10T13:41:07Z</time>
      </trkpt>
      <trkpt lat="45.00904" lon="0.5987">
        <ele>187.6</ele>
        <time>2022-08-10T13:41:09Z</time>
      </trkpt>
      <trkpt lat="45.009" lon="0.59874">
        <ele>187.6</ele>
        <time>2022-08-10T13:41:11Z</time>
      </trkpt>
      <trkpt lat="45.00896" lon="0.59878">
        <ele>188.6</ele>
        <time>2022-08-10T13:41:13Z</time>
      </trkpt>
      <trkpt lat="45.00892" lon="0.59883">
        <ele>187.6</ele>
        <time>2022-08-10T13:41:15Z</time>
      </trkpt>
      <trkpt lat="45.00887" lon="0.5989">
        <ele>187.6</ele>
        <time>2022-08-10T13:41:17Z</time>
      </trkpt>
      <trkpt lat="45.00883" lon="0.59896">
        <ele>187.6</ele>
        <time>2022-08-10T13:41:19Z</time>
      </trkpt>
      <trkpt lat="45.00879" lon="0.59904">
        <ele>186.6</ele>
        <time>2022-08-10T13:41:21Z</time>
      </trkpt>
      <trkpt lat="45.00874" lon="0.59913">
        <ele>186.6</ele>
        <time>2022-08-10T13:41:23Z</time>
      </trkpt>
      <trkpt lat="45.00868" lon="0.59922">
        <ele>187.6</ele>
        <time>2022-08-10T13:41:25Z</time>
      </trkpt>
      <trkpt lat="45.00863" lon="0.59931">
        <ele>188.6</ele>
        <time>2022-08-10T13:41:27Z</time>
      </trkpt>
      <trkpt lat="45.0086" lon="0.59936">
        <ele>188.6</ele>
        <time>2022-08-10T13:41:28Z</time>
      </trkpt>
      <trkpt lat="45.00857" lon="0.59943">
        <ele>188.6</ele>
        <time>2022-08-10T13:41:29Z</time>
      </trkpt>
      <trkpt lat="45.00855" lon="0.5995">
        <ele>188.6</ele>
        <time>2022-08-10T13:41:30Z</time>
      </trkpt>
      <trkpt lat="45.00854" lon="0.59958">
        <ele>189.6</ele>
        <time>2022-08-10T13:41:31Z</time>
      </trkpt>
      <trkpt lat="45.00853" lon="0.59965">
        <ele>189.6</ele>
        <time>2022-08-10T13:41:32Z</time>
      </trkpt>
      <trkpt lat="45.00852" lon="0.59973">
        <ele>189.6</ele>
        <time>2022-08-10T13:41:33Z</time>
      </trkpt>
      <trkpt lat="45.0085" lon="0.5998">
        <ele>188.6</ele>
        <time>2022-08-10T13:41:34Z</time>
      </trkpt>
      <trkpt lat="45.00847" lon="0.59986">
        <ele>189.6</ele>
        <time>2022-08-10T13:41:35Z</time>
      </trkpt>
      <trkpt lat="45.00843" lon="0.59992">
        <ele>188.6</ele>
        <time>2022-08-10T13:41:36Z</time>
      </trkpt>
      <trkpt lat="45.0084" lon="0.59999">
        <ele>187.6</ele>
        <time>2022-08-10T13:41:37Z</time>
      </trkpt>
      <trkpt lat="45.00837" lon="0.60006">
        <ele>186.6</ele>
        <time>2022-08-10T13:41:38Z</time>
      </trkpt>
      <trkpt lat="45.00834" lon="0.60013">
        <ele>186.6</ele>
        <time>2022-08-10T13:41:39Z</time>
      </trkpt>
      <trkpt lat="45.00832" lon="0.60019">
        <ele>185.6</ele>
        <time>2022-08-10T13:41:40Z</time>
      </trkpt>
      <trkpt lat="45.00831" lon="0.60026">
        <ele>186.6</ele>
        <time>2022-08-10T13:41:41Z</time>
      </trkpt>
      <trkpt lat="45.0083" lon="0.60032">
        <ele>185.6</ele>
        <time>2022-08-10T13:41:42Z</time>
      </trkpt>
      <trkpt lat="45.00828" lon="0.60038">
        <ele>185.6</ele>
        <time>2022-08-10T13:41:43Z</time>
      </trkpt>
      <trkpt lat="45.00826" lon="0.60045">
        <ele>185.6</ele>
        <time>2022-08-10T13:41:44Z</time>
      </trkpt>
      <trkpt lat="45.00824" lon="0.60052">
        <ele>185.6</ele>
        <time>2022-08-10T13:41:45Z</time>
      </trkpt>
      <trkpt lat="45.00822" lon="0.60059">
        <ele>185.6</ele>
        <time>2022-08-10T13:41:46Z</time>
      </trkpt>
      <trkpt lat="45.0082" lon="0.60065">
        <ele>185.6</ele>
        <time>2022-08-10T13:41:47Z</time>
      </trkpt>
      <trkpt lat="45.00819" lon="0.60072">
        <ele>186.6</ele>
        <time>2022-08-10T13:41:48Z</time>
      </trkpt>
      <trkpt lat="45.00818" lon="0.60079">
        <ele>186.6</ele>
        <time>2022-08-10T13:41:49Z</time>
      </trkpt>
      <trkpt lat="45.00817" lon="0.60085">
        <ele>187.6</ele>
        <time>2022-08-10T13:41:50Z</time>
      </trkpt>
      <trkpt lat="45.00815" lon="0.60096">
        <ele>187.6</ele>
        <time>2022-08-10T13:41:52Z</time>
      </trkpt>
      <trkpt lat="45.00813" lon="0.60109">
        <ele>188.6</ele>
        <time>2022-08-10T13:41:54Z</time>
      </trkpt>
      <trkpt lat="45.00811" lon="0.6012">
        <ele>188.6</ele>
        <time>2022-08-10T13:41:56Z</time>
      </trkpt>
      <trkpt lat="45.00812" lon="0.6013">
        <ele>188.6</ele>
        <time>2022-08-10T13:41:58Z</time>
      </trkpt>
      <trkpt lat="45.00812" lon="0.6014">
        <ele>188.6</ele>
        <time>2022-08-10T13:42:00Z</time>
      </trkpt>
      <trkpt lat="45.00812" lon="0.60152">
        <ele>188.6</ele>
        <time>2022-08-10T13:42:02Z</time>
      </trkpt>
      <trkpt lat="45.00811" lon="0.60164">
        <ele>188.6</ele>
        <time>2022-08-10T13:42:04Z</time>
      </trkpt>
      <trkpt lat="45.00811" lon="0.60176">
        <ele>188.6</ele>
        <time>2022-08-10T13:42:06Z</time>
      </trkpt>
      <trkpt lat="45.00811" lon="0.60183">
        <ele>188.6</ele>
        <time>2022-08-10T13:42:07Z</time>
      </trkpt>
      <trkpt lat="45.00811" lon="0.6019">
        <ele>188.6</ele>
        <time>2022-08-10T13:42:08Z</time>
      </trkpt>
      <trkpt lat="45.00811" lon="0.60197">
        <ele>188.6</ele>
        <time>2022-08-10T13:42:09Z</time>
      </trkpt>
      <trkpt lat="45.0081" lon="0.60204">
        <ele>188.6</ele>
        <time>2022-08-10T13:42:10Z</time>
      </trkpt>
      <trkpt lat="45.0081" lon="0.60212">
        <ele>188.6</ele>
        <time>2022-08-10T13:42:11Z</time>
      </trkpt>
      <trkpt lat="45.0081" lon="0.60219">
        <ele>188.6</ele>
        <time>2022-08-10T13:42:12Z</time>
      </trkpt>
      <trkpt lat="45.0081" lon="0.60226">
        <ele>188.6</ele>
        <time>2022-08-10T13:42:13Z</time>
      </trkpt>
      <trkpt lat="45.0081" lon="0.60233">
        <ele>188.6</ele>
        <time>2022-08-10T13:42:14Z</time>
      </trkpt>
      <trkpt lat="45.00809" lon="0.6024">
        <ele>188.6</ele>
        <time>2022-08-10T13:42:15Z</time>
      </trkpt>
      <trkpt lat="45.00808" lon="0.60247">
        <ele>188.6</ele>
        <time>2022-08-10T13:42:16Z</time>
      </trkpt>
      <trkpt lat="45.00807" lon="0.60254">
        <ele>189.6</ele>
        <time>2022-08-10T13:42:17Z</time>
      </trkpt>
      <trkpt lat="45.00807" lon="0.60262">
        <ele>189.6</ele>
        <time>2022-08-10T13:42:18Z</time>
      </trkpt>
      <trkpt lat="45.00807" lon="0.60269">
        <ele>189.6</ele>
        <time>2022-08-10T13:42:19Z</time>
      </trkpt>
      <trkpt lat="45.00808" lon="0.60276">
        <ele>189.6</ele>
        <time>2022-08-10T13:42:20Z</time>
      </trkpt>
      <trkpt lat="45.00808" lon="0.60283">
        <ele>190.6</ele>
        <time>2022-08-10T13:42:21Z</time>
      </trkpt>
      <trkpt lat="45.00809" lon="0.6029">
        <ele>189.6</ele>
        <time>2022-08-10T13:42:22Z</time>
      </trkpt>
      <trkpt lat="45.0081" lon="0.60297">
        <ele>190.6</ele>
        <time>2022-08-10T13:42:23Z</time>
      </trkpt>
      <trkpt lat="45.00811" lon="0.60304">
        <ele>190.6</ele>
        <time>2022-08-10T13:42:24Z</time>
      </trkpt>
      <trkpt lat="45.00812" lon="0.60311">
        <ele>190.6</ele>
        <time>2022-08-10T13:42:25Z</time>
      </trkpt>
      <trkpt lat="45.00814" lon="0.60318">
        <ele>190.6</ele>
        <time>2022-08-10T13:42:26Z</time>
      </trkpt>
      <trkpt lat="45.00815" lon="0.60324">
        <ele>190.6</ele>
        <time>2022-08-10T13:42:27Z</time>
      </trkpt>
      <trkpt lat="45.00816" lon="0.60332">
        <ele>190.6</ele>
        <time>2022-08-10T13:42:28Z</time>
      </trkpt>
      <trkpt lat="45.00816" lon="0.60339">
        <ele>190.6</ele>
        <time>2022-08-10T13:42:29Z</time>
      </trkpt>
      <trkpt lat="45.00817" lon="0.60347">
        <ele>190.6</ele>
        <time>2022-08-10T13:42:30Z</time>
      </trkpt>
      <trkpt lat="45.00817" lon="0.60354">
        <ele>190.6</ele>
        <time>2022-08-10T13:42:31Z</time>
      </trkpt>
      <trkpt lat="45.00818" lon="0.60362">
        <ele>189.6</ele>
        <time>2022-08-10T13:42:32Z</time>
      </trkpt>
      <trkpt lat="45.00819" lon="0.60369">
        <ele>189.6</ele>
        <time>2022-08-10T13:42:33Z</time>
      </trkpt>
      <trkpt lat="45.0082" lon="0.60377">
        <ele>189.6</ele>
        <time>2022-08-10T13:42:34Z</time>
      </trkpt>
      <trkpt lat="45.00822" lon="0.60384">
        <ele>189.6</ele>
        <time>2022-08-10T13:42:35Z</time>
      </trkpt>
      <trkpt lat="45.00824" lon="0.6039">
        <ele>189.6</ele>
        <time>2022-08-10T13:42:36Z</time>
      </trkpt>
      <trkpt lat="45.00825" lon="0.60396">
        <ele>189.6</ele>
        <time>2022-08-10T13:42:37Z</time>
      </trkpt>
      <trkpt lat="45.00826" lon="0.60402">
        <ele>189.6</ele>
        <time>2022-08-10T13:42:38Z</time>
      </trkpt>
      <trkpt lat="45.00828" lon="0.60413">
        <ele>189.6</ele>
        <time>2022-08-10T13:42:40Z</time>
      </trkpt>
      <trkpt lat="45.00829" lon="0.60422">
        <ele>189.6</ele>
        <time>2022-08-10T13:42:42Z</time>
      </trkpt>
      <trkpt lat="45.0083" lon="0.60429">
        <ele>189.6</ele>
        <time>2022-08-10T13:42:44Z</time>
      </trkpt>
      <trkpt lat="45.00831" lon="0.60438">
        <ele>190.6</ele>
        <time>2022-08-10T13:42:47Z</time>
      </trkpt>
      <trkpt lat="45.0083" lon="0.60445">
        <ele>189.6</ele>
        <time>2022-08-10T13:42:50Z</time>
      </trkpt>
      <trkpt lat="45.00828" lon="0.60451">
        <ele>190.6</ele>
        <time>2022-08-10T13:45:04Z</time>
      </trkpt>
      <trkpt lat="45.00826" lon="0.60458">
        <ele>190.6</ele>
        <time>2022-08-10T13:45:07Z</time>
      </trkpt>
      <trkpt lat="45.00826" lon="0.60464">
        <ele>190.6</ele>
        <time>2022-08-10T13:45:09Z</time>
      </trkpt>
      <trkpt lat="45.00826" lon="0.60473">
        <ele>190.6</ele>
        <time>2022-08-10T13:45:11Z</time>
      </trkpt>
      <trkpt lat="45.00825" lon="0.60481">
        <ele>190.6</ele>
        <time>2022-08-10T13:45:13Z</time>
      </trkpt>
      <trkpt lat="45.00823" lon="0.60489">
        <ele>190.6</ele>
        <time>2022-08-10T13:45:15Z</time>
      </trkpt>
      <trkpt lat="45.00821" lon="0.60496">
        <ele>190.6</ele>
        <time>2022-08-10T13:45:17Z</time>
      </trkpt>
      <trkpt lat="45.00818" lon="0.60502">
        <ele>189.6</ele>
        <time>2022-08-10T13:45:19Z</time>
      </trkpt>
      <trkpt lat="45.00815" lon="0.60507">
        <ele>189.6</ele>
        <time>2022-08-10T13:45:21Z</time>
      </trkpt>
      <trkpt lat="45.00811" lon="0.60511">
        <ele>189.6</ele>
        <time>2022-08-10T13:45:23Z</time>
      </trkpt>
      <trkpt lat="45.00807" lon="0.60514">
        <ele>189.6</ele>
        <time>2022-08-10T13:45:25Z</time>
      </trkpt>
      <trkpt lat="45.00802" lon="0.60517">
        <ele>188.6</ele>
        <time>2022-08-10T13:45:27Z</time>
      </trkpt>
      <trkpt lat="45.00796" lon="0.60519">
        <ele>188.6</ele>
        <time>2022-08-10T13:45:29Z</time>
      </trkpt>
      <trkpt lat="45.0079" lon="0.6052">
        <ele>188.6</ele>
        <time>2022-08-10T13:45:31Z</time>
      </trkpt>
      <trkpt lat="45.00784" lon="0.60518">
        <ele>186.6</ele>
        <time>2022-08-10T13:45:33Z</time>
      </trkpt>
      <trkpt lat="45.00779" lon="0.60514">
        <ele>185.6</ele>
        <time>2022-08-10T13:45:35Z</time>
      </trkpt>
      <trkpt lat="45.00772" lon="0.60509">
        <ele>184.6</ele>
        <time>2022-08-10T13:45:37Z</time>
      </trkpt>
      <trkpt lat="45.00765" lon="0.60504">
        <ele>183.6</ele>
        <time>2022-08-10T13:45:39Z</time>
      </trkpt>
      <trkpt lat="45.00758" lon="0.60501">
        <ele>182.6</ele>
        <time>2022-08-10T13:45:41Z</time>
      </trkpt>
      <trkpt lat="45.0075" lon="0.60497">
        <ele>182.6</ele>
        <time>2022-08-10T13:45:43Z</time>
      </trkpt>
      <trkpt lat="45.00742" lon="0.60493">
        <ele>181.6</ele>
        <time>2022-08-10T13:45:45Z</time>
      </trkpt>
      <trkpt lat="45.00738" lon="0.60492">
        <ele>181.6</ele>
        <time>2022-08-10T13:45:46Z</time>
      </trkpt>
      <trkpt lat="45.00733" lon="0.6049">
        <ele>182.6</ele>
        <time>2022-08-10T13:45:47Z</time>
      </trkpt>
      <trkpt lat="45.00725" lon="0.60486">
        <ele>183.6</ele>
        <time>2022-08-10T13:45:49Z</time>
      </trkpt>
      <trkpt lat="45.00721" lon="0.60484">
        <ele>183.6</ele>
        <time>2022-08-10T13:45:50Z</time>
      </trkpt>
      <trkpt lat="45.00717" lon="0.60481">
        <ele>183.6</ele>
        <time>2022-08-10T13:45:51Z</time>
      </trkpt>
      <trkpt lat="45.00712" lon="0.60479">
        <ele>182.6</ele>
        <time>2022-08-10T13:45:52Z</time>
      </trkpt>
      <trkpt lat="45.00708" lon="0.60477">
        <ele>183.6</ele>
        <time>2022-08-10T13:45:53Z</time>
      </trkpt>
      <trkpt lat="45.00703" lon="0.60475">
        <ele>183.6</ele>
        <time>2022-08-10T13:45:54Z</time>
      </trkpt>
      <trkpt lat="45.00698" lon="0.60473">
        <ele>183.6</ele>
        <time>2022-08-10T13:45:55Z</time>
      </trkpt>
      <trkpt lat="45.00694" lon="0.60471">
        <ele>183.6</ele>
        <time>2022-08-10T13:45:56Z</time>
      </trkpt>
      <trkpt lat="45.0069" lon="0.60468">
        <ele>183.6</ele>
        <time>2022-08-10T13:45:57Z</time>
      </trkpt>
      <trkpt lat="45.00682" lon="0.60463">
        <ele>183.6</ele>
        <time>2022-08-10T13:45:59Z</time>
      </trkpt>
      <trkpt lat="45.00674" lon="0.6046">
        <ele>182.6</ele>
        <time>2022-08-10T13:46:01Z</time>
      </trkpt>
      <trkpt lat="45.00667" lon="0.60456">
        <ele>182.6</ele>
        <time>2022-08-10T13:46:03Z</time>
      </trkpt>
      <trkpt lat="45.00661" lon="0.60453">
        <ele>182.6</ele>
        <time>2022-08-10T13:46:05Z</time>
      </trkpt>
      <trkpt lat="45.00656" lon="0.60452">
        <ele>181.6</ele>
        <time>2022-08-10T13:46:07Z</time>
      </trkpt>
      <trkpt lat="45.00651" lon="0.60456">
        <ele>181.6</ele>
        <time>2022-08-10T13:46:09Z</time>
      </trkpt>
      <trkpt lat="45.00649" lon="0.60462">
        <ele>181.6</ele>
        <time>2022-08-10T13:46:11Z</time>
      </trkpt>
      <trkpt lat="45.00648" lon="0.6047">
        <ele>181.6</ele>
        <time>2022-08-10T13:46:13Z</time>
      </trkpt>
      <trkpt lat="45.00649" lon="0.60477">
        <ele>180.6</ele>
        <time>2022-08-10T13:47:06Z</time>
      </trkpt>
      <trkpt lat="45.00648" lon="0.60485">
        <ele>179.6</ele>
        <time>2022-08-10T13:47:09Z</time>
      </trkpt>
      <trkpt lat="45.00648" lon="0.60491">
        <ele>179.6</ele>
        <time>2022-08-10T13:47:11Z</time>
      </trkpt>
      <trkpt lat="45.00645" lon="0.60499">
        <ele>179.6</ele>
        <time>2022-08-10T13:47:13Z</time>
      </trkpt>
      <trkpt lat="45.00641" lon="0.60508">
        <ele>178.6</ele>
        <time>2022-08-10T13:47:15Z</time>
      </trkpt>
      <trkpt lat="45.00639" lon="0.60514">
        <ele>177.6</ele>
        <time>2022-08-10T13:47:16Z</time>
      </trkpt>
      <trkpt lat="45.00637" lon="0.60521">
        <ele>177.6</ele>
        <time>2022-08-10T13:47:17Z</time>
      </trkpt>
      <trkpt lat="45.00635" lon="0.60527">
        <ele>177.6</ele>
        <time>2022-08-10T13:47:18Z</time>
      </trkpt>
      <trkpt lat="45.00633" lon="0.60534">
        <ele>177.6</ele>
        <time>2022-08-10T13:47:19Z</time>
      </trkpt>
      <trkpt lat="45.00632" lon="0.60541">
        <ele>177.6</ele>
        <time>2022-08-10T13:47:20Z</time>
      </trkpt>
      <trkpt lat="45.00632" lon="0.60547">
        <ele>177.6</ele>
        <time>2022-08-10T13:47:21Z</time>
      </trkpt>
      <trkpt lat="45.00632" lon="0.60557">
        <ele>177.6</ele>
        <time>2022-08-10T13:47:23Z</time>
      </trkpt>
      <trkpt lat="45.00634" lon="0.60565">
        <ele>177.6</ele>
        <time>2022-08-10T13:47:25Z</time>
      </trkpt>
      <trkpt lat="45.00637" lon="0.60572">
        <ele>177.6</ele>
        <time>2022-08-10T13:47:27Z</time>
      </trkpt>
      <trkpt lat="45.00641" lon="0.60578">
        <ele>177.6</ele>
        <time>2022-08-10T13:47:29Z</time>
      </trkpt>
      <trkpt lat="45.00645" lon="0.60584">
        <ele>176.6</ele>
        <time>2022-08-10T13:47:31Z</time>
      </trkpt>
      <trkpt lat="45.0065" lon="0.60589">
        <ele>175.6</ele>
        <time>2022-08-10T13:47:33Z</time>
      </trkpt>
      <trkpt lat="45.00656" lon="0.60596">
        <ele>174.6</ele>
        <time>2022-08-10T13:47:35Z</time>
      </trkpt>
      <trkpt lat="45.00661" lon="0.60601">
        <ele>173.6</ele>
        <time>2022-08-10T13:47:36Z</time>
      </trkpt>
      <trkpt lat="45.00665" lon="0.60607">
        <ele>173.6</ele>
        <time>2022-08-10T13:47:37Z</time>
      </trkpt>
      <trkpt lat="45.0067" lon="0.60612">
        <ele>173.6</ele>
        <time>2022-08-10T13:47:38Z</time>
      </trkpt>
      <trkpt lat="45.00673" lon="0.60616">
        <ele>173.6</ele>
        <time>2022-08-10T13:47:39Z</time>
      </trkpt>
      <trkpt lat="45.00677" lon="0.6062">
        <ele>172.6</ele>
        <time>2022-08-10T13:47:40Z</time>
      </trkpt>
      <trkpt lat="45.00683" lon="0.60628">
        <ele>171.6</ele>
        <time>2022-08-10T13:47:42Z</time>
      </trkpt>
      <trkpt lat="45.00686" lon="0.60638">
        <ele>170.6</ele>
        <time>2022-08-10T13:47:44Z</time>
      </trkpt>
      <trkpt lat="45.00687" lon="0.60645">
        <ele>169.6</ele>
        <time>2022-08-10T13:47:45Z</time>
      </trkpt>
      <trkpt lat="45.00684" lon="0.6066">
        <ele>167.6</ele>
        <time>2022-08-10T13:47:47Z</time>
      </trkpt>
      <trkpt lat="45.00679" lon="0.60668">
        <ele>166.6</ele>
        <time>2022-08-10T13:47:48Z</time>
      </trkpt>
      <trkpt lat="45.00673" lon="0.60676">
        <ele>166.6</ele>
        <time>2022-08-10T13:47:49Z</time>
      </trkpt>
      <trkpt lat="45.00667" lon="0.60685">
        <ele>166.6</ele>
        <time>2022-08-10T13:47:50Z</time>
      </trkpt>
      <trkpt lat="45.00661" lon="0.60694">
        <ele>166.6</ele>
        <time>2022-08-10T13:47:51Z</time>
      </trkpt>
      <trkpt lat="45.00655" lon="0.60701">
        <ele>166.6</ele>
        <time>2022-08-10T13:47:52Z</time>
      </trkpt>
      <trkpt lat="45.00648" lon="0.60707">
        <ele>166.6</ele>
        <time>2022-08-10T13:47:53Z</time>
      </trkpt>
      <trkpt lat="45.0064" lon="0.60713">
        <ele>166.6</ele>
        <time>2022-08-10T13:47:54Z</time>
      </trkpt>
      <trkpt lat="45.00632" lon="0.60717">
        <ele>166.6</ele>
        <time>2022-08-10T13:47:55Z</time>
      </trkpt>
      <trkpt lat="45.00625" lon="0.60722">
        <ele>166.6</ele>
        <time>2022-08-10T13:47:56Z</time>
      </trkpt>
      <trkpt lat="45.00619" lon="0.60727">
        <ele>166.6</ele>
        <time>2022-08-10T13:47:57Z</time>
      </trkpt>
      <trkpt lat="45.00612" lon="0.60733">
        <ele>166.6</ele>
        <time>2022-08-10T13:47:58Z</time>
      </trkpt>
      <trkpt lat="45.00605" lon="0.6074">
        <ele>166.6</ele>
        <time>2022-08-10T13:47:59Z</time>
      </trkpt>
      <trkpt lat="45.00598" lon="0.60747">
        <ele>167.6</ele>
        <time>2022-08-10T13:48:00Z</time>
      </trkpt>
      <trkpt lat="45.00592" lon="0.60753">
        <ele>167.6</ele>
        <time>2022-08-10T13:48:01Z</time>
      </trkpt>
      <trkpt lat="45.00586" lon="0.6076">
        <ele>167.6</ele>
        <time>2022-08-10T13:48:02Z</time>
      </trkpt>
      <trkpt lat="45.0058" lon="0.60767">
        <ele>167.6</ele>
        <time>2022-08-10T13:48:03Z</time>
      </trkpt>
      <trkpt lat="45.00574" lon="0.60774">
        <ele>167.6</ele>
        <time>2022-08-10T13:48:04Z</time>
      </trkpt>
      <trkpt lat="45.00569" lon="0.6078">
        <ele>167.6</ele>
        <time>2022-08-10T13:48:05Z</time>
      </trkpt>
      <trkpt lat="45.00564" lon="0.60785">
        <ele>166.6</ele>
        <time>2022-08-10T13:48:06Z</time>
      </trkpt>
      <trkpt lat="45.00559" lon="0.6079">
        <ele>166.6</ele>
        <time>2022-08-10T13:48:07Z</time>
      </trkpt>
      <trkpt lat="45.00555" lon="0.60795">
        <ele>166.6</ele>
        <time>2022-08-10T13:48:08Z</time>
      </trkpt>
      <trkpt lat="45.0055" lon="0.608">
        <ele>165.6</ele>
        <time>2022-08-10T13:48:09Z</time>
      </trkpt>
      <trkpt lat="45.00546" lon="0.60804">
        <ele>165.6</ele>
        <time>2022-08-10T13:48:10Z</time>
      </trkpt>
      <trkpt lat="45.00541" lon="0.60809">
        <ele>165.6</ele>
        <time>2022-08-10T13:48:11Z</time>
      </trkpt>
      <trkpt lat="45.00537" lon="0.60814">
        <ele>164.6</ele>
        <time>2022-08-10T13:48:12Z</time>
      </trkpt>
      <trkpt lat="45.00533" lon="0.60819">
        <ele>164.6</ele>
        <time>2022-08-10T13:48:13Z</time>
      </trkpt>
      <trkpt lat="45.00528" lon="0.60824">
        <ele>163.6</ele>
        <time>2022-08-10T13:48:14Z</time>
      </trkpt>
      <trkpt lat="45.00522" lon="0.60829">
        <ele>162.6</ele>
        <time>2022-08-10T13:48:15Z</time>
      </trkpt>
      <trkpt lat="45.00517" lon="0.60835">
        <ele>162.6</ele>
        <time>2022-08-10T13:48:16Z</time>
      </trkpt>
      <trkpt lat="45.00511" lon="0.60842">
        <ele>161.6</ele>
        <time>2022-08-10T13:48:17Z</time>
      </trkpt>
      <trkpt lat="45.00504" lon="0.6085">
        <ele>161.6</ele>
        <time>2022-08-10T13:48:18Z</time>
      </trkpt>
      <trkpt lat="45.00498" lon="0.60857">
        <ele>160.6</ele>
        <time>2022-08-10T13:48:19Z</time>
      </trkpt>
      <trkpt lat="45.00491" lon="0.60865">
        <ele>160.6</ele>
        <time>2022-08-10T13:48:20Z</time>
      </trkpt>
      <trkpt lat="45.00484" lon="0.60872">
        <ele>159.6</ele>
        <time>2022-08-10T13:48:21Z</time>
      </trkpt>
      <trkpt lat="45.00477" lon="0.60879">
        <ele>158.6</ele>
        <time>2022-08-10T13:48:22Z</time>
      </trkpt>
      <trkpt lat="45.00471" lon="0.60887">
        <ele>157.6</ele>
        <time>2022-08-10T13:48:23Z</time>
      </trkpt>
      <trkpt lat="45.00465" lon="0.60894">
        <ele>156.6</ele>
        <time>2022-08-10T13:48:24Z</time>
      </trkpt>
      <trkpt lat="45.00459" lon="0.609">
        <ele>155.6</ele>
        <time>2022-08-10T13:48:25Z</time>
      </trkpt>
      <trkpt lat="45.00453" lon="0.60907">
        <ele>155.6</ele>
        <time>2022-08-10T13:48:26Z</time>
      </trkpt>
      <trkpt lat="45.00447" lon="0.60913">
        <ele>153.6</ele>
        <time>2022-08-10T13:48:27Z</time>
      </trkpt>
      <trkpt lat="45.0044" lon="0.60917">
        <ele>152.6</ele>
        <time>2022-08-10T13:48:28Z</time>
      </trkpt>
      <trkpt lat="45.00432" lon="0.60919">
        <ele>152.6</ele>
        <time>2022-08-10T13:48:29Z</time>
      </trkpt>
      <trkpt lat="45.00424" lon="0.60919">
        <ele>151.6</ele>
        <time>2022-08-10T13:48:30Z</time>
      </trkpt>
      <trkpt lat="45.00416" lon="0.6092">
        <ele>151.6</ele>
        <time>2022-08-10T13:48:31Z</time>
      </trkpt>
      <trkpt lat="45.00408" lon="0.6092">
        <ele>150.6</ele>
        <time>2022-08-10T13:48:32Z</time>
      </trkpt>
      <trkpt lat="45.004" lon="0.6092">
        <ele>149.6</ele>
        <time>2022-08-10T13:48:33Z</time>
      </trkpt>
      <trkpt lat="45.00392" lon="0.6092">
        <ele>148.6</ele>
        <time>2022-08-10T13:48:34Z</time>
      </trkpt>
      <trkpt lat="45.00385" lon="0.6092">
        <ele>147.6</ele>
        <time>2022-08-10T13:48:35Z</time>
      </trkpt>
      <trkpt lat="45.00378" lon="0.60919">
        <ele>146.6</ele>
        <time>2022-08-10T13:48:36Z</time>
      </trkpt>
      <trkpt lat="45.00372" lon="0.60918">
        <ele>145.6</ele>
        <time>2022-08-10T13:48:37Z</time>
      </trkpt>
      <trkpt lat="45.00367" lon="0.60916">
        <ele>144.6</ele>
        <time>2022-08-10T13:48:38Z</time>
      </trkpt>
      <trkpt lat="45.00361" lon="0.60913">
        <ele>143.6</ele>
        <time>2022-08-10T13:48:39Z</time>
      </trkpt>
      <trkpt lat="45.00357" lon="0.6091">
        <ele>141.6</ele>
        <time>2022-08-10T13:48:40Z</time>
      </trkpt>
      <trkpt lat="45.00353" lon="0.60908">
        <ele>140.6</ele>
        <time>2022-08-10T13:48:41Z</time>
      </trkpt>
      <trkpt lat="45.00349" lon="0.60905">
        <ele>137.6</ele>
        <time>2022-08-10T13:48:42Z</time>
      </trkpt>
      <trkpt lat="45.00344" lon="0.60901">
        <ele>136.6</ele>
        <time>2022-08-10T13:48:43Z</time>
      </trkpt>
      <trkpt lat="45.0034" lon="0.60897">
        <ele>134.6</ele>
        <time>2022-08-10T13:48:44Z</time>
      </trkpt>
      <trkpt lat="45.00336" lon="0.60892">
        <ele>133.6</ele>
        <time>2022-08-10T13:48:45Z</time>
      </trkpt>
      <trkpt lat="45.00331" lon="0.60889">
        <ele>133.6</ele>
        <time>2022-08-10T13:48:46Z</time>
      </trkpt>
      <trkpt lat="45.00327" lon="0.60886">
        <ele>132.6</ele>
        <time>2022-08-10T13:48:47Z</time>
      </trkpt>
      <trkpt lat="45.0032" lon="0.60883">
        <ele>131.6</ele>
        <time>2022-08-10T13:48:49Z</time>
      </trkpt>
      <trkpt lat="45.00315" lon="0.60885">
        <ele>130.6</ele>
        <time>2022-08-10T13:48:52Z</time>
      </trkpt>
      <trkpt lat="45.0031" lon="0.60888">
        <ele>129.6</ele>
        <time>2022-08-10T13:49:58Z</time>
      </trkpt>
      <trkpt lat="45.00311" lon="0.60895">
        <ele>131.6</ele>
        <time>2022-08-10T13:50:18Z</time>
      </trkpt>
      <trkpt lat="45.00313" lon="0.60902">
        <ele>130.6</ele>
        <time>2022-08-10T13:50:21Z</time>
      </trkpt>
      <trkpt lat="45.00315" lon="0.6091">
        <ele>130.6</ele>
        <time>2022-08-10T13:50:23Z</time>
      </trkpt>
      <trkpt lat="45.00319" lon="0.60919">
        <ele>130.6</ele>
        <time>2022-08-10T13:50:25Z</time>
      </trkpt>
      <trkpt lat="45.00323" lon="0.60924">
        <ele>130.6</ele>
        <time>2022-08-10T13:50:26Z</time>
      </trkpt>
      <trkpt lat="45.00329" lon="0.60932">
        <ele>131.6</ele>
        <time>2022-08-10T13:50:28Z</time>
      </trkpt>
      <trkpt lat="45.00336" lon="0.6094">
        <ele>133.6</ele>
        <time>2022-08-10T13:50:30Z</time>
      </trkpt>
      <trkpt lat="45.00341" lon="0.60948">
        <ele>132.6</ele>
        <time>2022-08-10T13:50:32Z</time>
      </trkpt>
      <trkpt lat="45.00346" lon="0.60956">
        <ele>132.6</ele>
        <time>2022-08-10T13:50:34Z</time>
      </trkpt>
      <trkpt lat="45.00351" lon="0.60966">
        <ele>132.6</ele>
        <time>2022-08-10T13:50:36Z</time>
      </trkpt>
      <trkpt lat="45.00353" lon="0.60973">
        <ele>132.6</ele>
        <time>2022-08-10T13:50:37Z</time>
      </trkpt>
      <trkpt lat="45.00355" lon="0.60981">
        <ele>132.6</ele>
        <time>2022-08-10T13:50:38Z</time>
      </trkpt>
      <trkpt lat="45.00356" lon="0.60988">
        <ele>132.6</ele>
        <time>2022-08-10T13:50:39Z</time>
      </trkpt>
      <trkpt lat="45.00357" lon="0.60995">
        <ele>133.6</ele>
        <time>2022-08-10T13:50:40Z</time>
      </trkpt>
      <trkpt lat="45.00358" lon="0.61002">
        <ele>133.6</ele>
        <time>2022-08-10T13:50:41Z</time>
      </trkpt>
      <trkpt lat="45.00359" lon="0.61009">
        <ele>133.6</ele>
        <time>2022-08-10T13:50:42Z</time>
      </trkpt>
      <trkpt lat="45.00361" lon="0.61015">
        <ele>133.6</ele>
        <time>2022-08-10T13:50:43Z</time>
      </trkpt>
      <trkpt lat="45.00363" lon="0.61022">
        <ele>133.6</ele>
        <time>2022-08-10T13:50:44Z</time>
      </trkpt>
      <trkpt lat="45.00364" lon="0.61029">
        <ele>133.6</ele>
        <time>2022-08-10T13:50:45Z</time>
      </trkpt>
      <trkpt lat="45.00366" lon="0.61037">
        <ele>133.6</ele>
        <time>2022-08-10T13:50:46Z</time>
      </trkpt>
      <trkpt lat="45.00368" lon="0.61043">
        <ele>134.6</ele>
        <time>2022-08-10T13:50:47Z</time>
      </trkpt>
      <trkpt lat="45.0037" lon="0.61049">
        <ele>133.6</ele>
        <time>2022-08-10T13:50:48Z</time>
      </trkpt>
      <trkpt lat="45.00373" lon="0.61056">
        <ele>133.6</ele>
        <time>2022-08-10T13:50:49Z</time>
      </trkpt>
      <trkpt lat="45.00375" lon="0.61062">
        <ele>133.6</ele>
        <time>2022-08-10T13:50:50Z</time>
      </trkpt>
      <trkpt lat="45.0038" lon="0.61071">
        <ele>132.6</ele>
        <time>2022-08-10T13:50:52Z</time>
      </trkpt>
      <trkpt lat="45.00385" lon="0.6108">
        <ele>132.6</ele>
        <time>2022-08-10T13:50:54Z</time>
      </trkpt>
      <trkpt lat="45.00387" lon="0.61086">
        <ele>132.6</ele>
        <time>2022-08-10T13:50:55Z</time>
      </trkpt>
      <trkpt lat="45.0039" lon="0.61091">
        <ele>132.6</ele>
        <time>2022-08-10T13:50:56Z</time>
      </trkpt>
      <trkpt lat="45.00393" lon="0.61096">
        <ele>132.6</ele>
        <time>2022-08-10T13:50:57Z</time>
      </trkpt>
      <trkpt lat="45.00398" lon="0.61105">
        <ele>132.6</ele>
        <time>2022-08-10T13:50:59Z</time>
      </trkpt>
      <trkpt lat="45.00403" lon="0.61114">
        <ele>132.6</ele>
        <time>2022-08-10T13:51:01Z</time>
      </trkpt>
      <trkpt lat="45.00407" lon="0.61123">
        <ele>133.6</ele>
        <time>2022-08-10T13:51:03Z</time>
      </trkpt>
      <trkpt lat="45.00411" lon="0.61132">
        <ele>133.6</ele>
        <time>2022-08-10T13:51:05Z</time>
      </trkpt>
      <trkpt lat="45.00416" lon="0.61141">
        <ele>133.6</ele>
        <time>2022-08-10T13:51:07Z</time>
      </trkpt>
      <trkpt lat="45.0042" lon="0.61149">
        <ele>132.6</ele>
        <time>2022-08-10T13:51:09Z</time>
      </trkpt>
      <trkpt lat="45.00422" lon="0.61156">
        <ele>132.6</ele>
        <time>2022-08-10T13:51:11Z</time>
      </trkpt>
      <trkpt lat="45.00424" lon="0.61163">
        <ele>132.6</ele>
        <time>2022-08-10T13:51:13Z</time>
      </trkpt>
      <trkpt lat="45.00427" lon="0.61171">
        <ele>132.6</ele>
        <time>2022-08-10T13:51:15Z</time>
      </trkpt>
      <trkpt lat="45.00429" lon="0.61178">
        <ele>132.6</ele>
        <time>2022-08-10T13:51:17Z</time>
      </trkpt>
      <trkpt lat="45.00432" lon="0.61185">
        <ele>132.6</ele>
        <time>2022-08-10T13:51:19Z</time>
      </trkpt>
      <trkpt lat="45.00434" lon="0.61193">
        <ele>132.6</ele>
        <time>2022-08-10T13:51:21Z</time>
      </trkpt>
      <trkpt lat="45.00437" lon="0.612">
        <ele>132.6</ele>
        <time>2022-08-10T13:51:23Z</time>
      </trkpt>
      <trkpt lat="45.00439" lon="0.61206">
        <ele>132.6</ele>
        <time>2022-08-10T13:51:25Z</time>
      </trkpt>
      <trkpt lat="45.00441" lon="0.61213">
        <ele>132.6</ele>
        <time>2022-08-10T13:51:27Z</time>
      </trkpt>
      <trkpt lat="45.00444" lon="0.6122">
        <ele>132.6</ele>
        <time>2022-08-10T13:51:29Z</time>
      </trkpt>
      <trkpt lat="45.00446" lon="0.61227">
        <ele>132.6</ele>
        <time>2022-08-10T13:51:31Z</time>
      </trkpt>
      <trkpt lat="45.00449" lon="0.61233">
        <ele>132.6</ele>
        <time>2022-08-10T13:51:33Z</time>
      </trkpt>
      <trkpt lat="45.00451" lon="0.61241">
        <ele>132.6</ele>
        <time>2022-08-10T13:51:35Z</time>
      </trkpt>
      <trkpt lat="45.00455" lon="0.61249">
        <ele>132.6</ele>
        <time>2022-08-10T13:51:37Z</time>
      </trkpt>
      <trkpt lat="45.00458" lon="0.61257">
        <ele>132.6</ele>
        <time>2022-08-10T13:51:39Z</time>
      </trkpt>
      <trkpt lat="45.00461" lon="0.61266">
        <ele>132.6</ele>
        <time>2022-08-10T13:51:41Z</time>
      </trkpt>
      <trkpt lat="45.00464" lon="0.61275">
        <ele>132.6</ele>
        <time>2022-08-10T13:51:43Z</time>
      </trkpt>
      <trkpt lat="45.00466" lon="0.61286">
        <ele>132.6</ele>
        <time>2022-08-10T13:51:45Z</time>
      </trkpt>
      <trkpt lat="45.00468" lon="0.61296">
        <ele>131.6</ele>
        <time>2022-08-10T13:51:47Z</time>
      </trkpt>
      <trkpt lat="45.00471" lon="0.61308">
        <ele>131.6</ele>
        <time>2022-08-10T13:51:49Z</time>
      </trkpt>
      <trkpt lat="45.00473" lon="0.61319">
        <ele>131.6</ele>
        <time>2022-08-10T13:51:51Z</time>
      </trkpt>
      <trkpt lat="45.00474" lon="0.61329">
        <ele>131.6</ele>
        <time>2022-08-10T13:51:53Z</time>
      </trkpt>
      <trkpt lat="45.00475" lon="0.61337">
        <ele>131.6</ele>
        <time>2022-08-10T13:51:55Z</time>
      </trkpt>
      <trkpt lat="45.00477" lon="0.61346">
        <ele>131.6</ele>
        <time>2022-08-10T13:51:57Z</time>
      </trkpt>
      <trkpt lat="45.00479" lon="0.61356">
        <ele>132.6</ele>
        <time>2022-08-10T13:51:59Z</time>
      </trkpt>
      <trkpt lat="45.0048" lon="0.61364">
        <ele>132.6</ele>
        <time>2022-08-10T13:52:01Z</time>
      </trkpt>
      <trkpt lat="45.00482" lon="0.61371">
        <ele>131.6</ele>
        <time>2022-08-10T13:52:03Z</time>
      </trkpt>
      <trkpt lat="45.00483" lon="0.61379">
        <ele>132.6</ele>
        <time>2022-08-10T13:52:05Z</time>
      </trkpt>
      <trkpt lat="45.00484" lon="0.61386">
        <ele>131.6</ele>
        <time>2022-08-10T13:52:07Z</time>
      </trkpt>
      <trkpt lat="45.00485" lon="0.61394">
        <ele>131.6</ele>
        <time>2022-08-10T13:52:09Z</time>
      </trkpt>
      <trkpt lat="45.00486" lon="0.61402">
        <ele>133.6</ele>
        <time>2022-08-10T13:52:39Z</time>
      </trkpt>
      <trkpt lat="45.00486" lon="0.6141">
        <ele>133.6</ele>
        <time>2022-08-10T13:52:42Z</time>
      </trkpt>
      <trkpt lat="45.00488" lon="0.61418">
        <ele>133.6</ele>
        <time>2022-08-10T13:52:44Z</time>
      </trkpt>
      <trkpt lat="45.0049" lon="0.61426">
        <ele>132.6</ele>
        <time>2022-08-10T13:52:46Z</time>
      </trkpt>
      <trkpt lat="45.00491" lon="0.61436">
        <ele>133.6</ele>
        <time>2022-08-10T13:52:48Z</time>
      </trkpt>
      <trkpt lat="45.00491" lon="0.61444">
        <ele>133.6</ele>
        <time>2022-08-10T13:52:50Z</time>
      </trkpt>
      <trkpt lat="45.00492" lon="0.61451">
        <ele>133.6</ele>
        <time>2022-08-10T13:52:52Z</time>
      </trkpt>
      <trkpt lat="45.00494" lon="0.61459">
        <ele>132.6</ele>
        <time>2022-08-10T13:52:54Z</time>
      </trkpt>
      <trkpt lat="45.00496" lon="0.61468">
        <ele>132.6</ele>
        <time>2022-08-10T13:52:56Z</time>
      </trkpt>
      <trkpt lat="45.00498" lon="0.61476">
        <ele>132.6</ele>
        <time>2022-08-10T13:52:58Z</time>
      </trkpt>
      <trkpt lat="45.005" lon="0.61484">
        <ele>132.6</ele>
        <time>2022-08-10T13:53:00Z</time>
      </trkpt>
      <trkpt lat="45.00502" lon="0.61491">
        <ele>132.6</ele>
        <time>2022-08-10T13:53:02Z</time>
      </trkpt>
      <trkpt lat="45.00504" lon="0.61499">
        <ele>131.6</ele>
        <time>2022-08-10T13:53:04Z</time>
      </trkpt>
      <trkpt lat="45.00507" lon="0.61507">
        <ele>131.6</ele>
        <time>2022-08-10T13:53:06Z</time>
      </trkpt>
      <trkpt lat="45.00509" lon="0.61514">
        <ele>131.6</ele>
        <time>2022-08-10T13:53:08Z</time>
      </trkpt>
      <trkpt lat="45.00511" lon="0.61522">
        <ele>131.6</ele>
        <time>2022-08-10T13:53:10Z</time>
      </trkpt>
      <trkpt lat="45.00512" lon="0.6153">
        <ele>132.6</ele>
        <time>2022-08-10T13:53:12Z</time>
      </trkpt>
      <trkpt lat="45.00514" lon="0.61538">
        <ele>132.6</ele>
        <time>2022-08-10T13:53:14Z</time>
      </trkpt>
      <trkpt lat="45.00517" lon="0.61546">
        <ele>132.6</ele>
        <time>2022-08-10T13:53:16Z</time>
      </trkpt>
      <trkpt lat="45.00519" lon="0.61554">
        <ele>132.6</ele>
        <time>2022-08-10T13:53:18Z</time>
      </trkpt>
      <trkpt lat="45.00521" lon="0.61562">
        <ele>132.6</ele>
        <time>2022-08-10T13:53:20Z</time>
      </trkpt>
      <trkpt lat="45.00524" lon="0.6157">
        <ele>132.6</ele>
        <time>2022-08-10T13:53:22Z</time>
      </trkpt>
      <trkpt lat="45.00526" lon="0.61577">
        <ele>132.6</ele>
        <time>2022-08-10T13:53:24Z</time>
      </trkpt>
      <trkpt lat="45.00528" lon="0.61583">
        <ele>132.6</ele>
        <time>2022-08-10T13:53:26Z</time>
      </trkpt>
      <trkpt lat="45.0053" lon="0.6159">
        <ele>133.6</ele>
        <time>2022-08-10T13:53:28Z</time>
      </trkpt>
      <trkpt lat="45.00532" lon="0.61597">
        <ele>133.6</ele>
        <time>2022-08-10T13:53:31Z</time>
      </trkpt>
      <trkpt lat="45.00533" lon="0.61604">
        <ele>135.6</ele>
        <time>2022-08-10T13:53:35Z</time>
      </trkpt>
      <trkpt lat="45.00538" lon="0.61603">
        <ele>135.6</ele>
        <time>2022-08-10T13:53:39Z</time>
      </trkpt>
      <trkpt lat="45.00542" lon="0.61599">
        <ele>136.6</ele>
        <time>2022-08-10T13:53:43Z</time>
      </trkpt>
      <trkpt lat="45.00547" lon="0.61596">
        <ele>136.6</ele>
        <time>2022-08-10T13:53:47Z</time>
      </trkpt>
      <trkpt lat="45.00552" lon="0.61594">
        <ele>136.6</ele>
        <time>2022-08-10T13:53:51Z</time>
      </trkpt>
      <trkpt lat="45.00558" lon="0.61591">
        <ele>137.6</ele>
        <time>2022-08-10T13:53:55Z</time>
      </trkpt>
      <trkpt lat="45.00563" lon="0.61587">
        <ele>137.6</ele>
        <time>2022-08-10T13:53:58Z</time>
      </trkpt>
      <trkpt lat="45.00567" lon="0.61584">
        <ele>138.6</ele>
        <time>2022-08-10T13:54:01Z</time>
      </trkpt>
      <trkpt lat="45.00572" lon="0.61581">
        <ele>138.6</ele>
        <time>2022-08-10T13:54:06Z</time>
      </trkpt>
      <trkpt lat="45.00576" lon="0.61577">
        <ele>139.6</ele>
        <time>2022-08-10T13:54:17Z</time>
      </trkpt>
      <trkpt lat="45.00581" lon="0.61577">
        <ele>145.6</ele>
        <time>2022-08-10T13:56:46Z</time>
      </trkpt>
      <trkpt lat="45.00585" lon="0.61572">
        <ele>145.6</ele>
        <time>2022-08-10T13:56:49Z</time>
      </trkpt>
      <trkpt lat="45.00589" lon="0.61567">
        <ele>145.6</ele>
        <time>2022-08-10T13:56:53Z</time>
      </trkpt>
      <trkpt lat="45.00595" lon="0.61564">
        <ele>145.6</ele>
        <time>2022-08-10T13:56:58Z</time>
      </trkpt>
      <trkpt lat="45.006" lon="0.61556">
        <ele>145.6</ele>
        <time>2022-08-10T13:57:03Z</time>
      </trkpt>
      <trkpt lat="45.00605" lon="0.61551">
        <ele>145.6</ele>
        <time>2022-08-10T13:57:07Z</time>
      </trkpt>
      <trkpt lat="45.00609" lon="0.61547">
        <ele>144.6</ele>
        <time>2022-08-10T13:57:11Z</time>
      </trkpt>
      <trkpt lat="45.00613" lon="0.61543">
        <ele>143.6</ele>
        <time>2022-08-10T13:57:14Z</time>
      </trkpt>
      <trkpt lat="45.00618" lon="0.61539">
        <ele>143.6</ele>
        <time>2022-08-10T13:57:18Z</time>
      </trkpt>
      <trkpt lat="45.00622" lon="0.61537">
        <ele>144.6</ele>
        <time>2022-08-10T13:57:21Z</time>
      </trkpt>
      <trkpt lat="45.00627" lon="0.61537">
        <ele>146.6</ele>
        <time>2022-08-10T13:57:25Z</time>
      </trkpt>
      <trkpt lat="45.00632" lon="0.61538">
        <ele>147.6</ele>
        <time>2022-08-10T13:57:28Z</time>
      </trkpt>
      <trkpt lat="45.00637" lon="0.61535">
        <ele>146.6</ele>
        <time>2022-08-10T13:57:32Z</time>
      </trkpt>
      <trkpt lat="45.00633" lon="0.61538">
        <ele>150.6</ele>
        <time>2022-08-10T13:57:38Z</time>
      </trkpt>
      <trkpt lat="45.00628" lon="0.61543">
        <ele>152.6</ele>
        <time>2022-08-10T13:57:40Z</time>
      </trkpt>
      <trkpt lat="45.00622" lon="0.6155">
        <ele>153.6</ele>
        <time>2022-08-10T13:57:42Z</time>
      </trkpt>
      <trkpt lat="45.00617" lon="0.61554">
        <ele>152.6</ele>
        <time>2022-08-10T13:57:43Z</time>
      </trkpt>
      <trkpt lat="45.00612" lon="0.61558">
        <ele>150.6</ele>
        <time>2022-08-10T13:57:44Z</time>
      </trkpt>
      <trkpt lat="45.00607" lon="0.61563">
        <ele>150.6</ele>
        <time>2022-08-10T13:57:45Z</time>
      </trkpt>
      <trkpt lat="45.00601" lon="0.61568">
        <ele>149.6</ele>
        <time>2022-08-10T13:57:46Z</time>
      </trkpt>
      <trkpt lat="45.00594" lon="0.61573">
        <ele>148.6</ele>
        <time>2022-08-10T13:57:47Z</time>
      </trkpt>
      <trkpt lat="45.00587" lon="0.61579">
        <ele>148.6</ele>
        <time>2022-08-10T13:57:48Z</time>
      </trkpt>
      <trkpt lat="45.00579" lon="0.61584">
        <ele>147.6</ele>
        <time>2022-08-10T13:57:49Z</time>
      </trkpt>
      <trkpt lat="45.00572" lon="0.61589">
        <ele>147.6</ele>
        <time>2022-08-10T13:57:50Z</time>
      </trkpt>
      <trkpt lat="45.00565" lon="0.61593">
        <ele>147.6</ele>
        <time>2022-08-10T13:57:51Z</time>
      </trkpt>
      <trkpt lat="45.00558" lon="0.61597">
        <ele>146.6</ele>
        <time>2022-08-10T13:57:52Z</time>
      </trkpt>
      <trkpt lat="45.00552" lon="0.61601">
        <ele>146.6</ele>
        <time>2022-08-10T13:57:53Z</time>
      </trkpt>
      <trkpt lat="45.00545" lon="0.61606">
        <ele>147.6</ele>
        <time>2022-08-10T13:57:54Z</time>
      </trkpt>
      <trkpt lat="45.00539" lon="0.6161">
        <ele>147.6</ele>
        <time>2022-08-10T13:57:55Z</time>
      </trkpt>
      <trkpt lat="45.00534" lon="0.61615">
        <ele>147.6</ele>
        <time>2022-08-10T13:57:56Z</time>
      </trkpt>
      <trkpt lat="45.00529" lon="0.61618">
        <ele>148.6</ele>
        <time>2022-08-10T13:57:57Z</time>
      </trkpt>
      <trkpt lat="45.00525" lon="0.61626">
        <ele>148.6</ele>
        <time>2022-08-10T13:57:59Z</time>
      </trkpt>
      <trkpt lat="45.00525" lon="0.61638">
        <ele>148.6</ele>
        <time>2022-08-10T13:58:01Z</time>
      </trkpt>
      <trkpt lat="45.00525" lon="0.61649">
        <ele>147.6</ele>
        <time>2022-08-10T13:58:03Z</time>
      </trkpt>
      <trkpt lat="45.00527" lon="0.61657">
        <ele>147.6</ele>
        <time>2022-08-10T13:58:05Z</time>
      </trkpt>
      <trkpt lat="45.00534" lon="0.61666">
        <ele>146.6</ele>
        <time>2022-08-10T13:58:08Z</time>
      </trkpt>
      <trkpt lat="45.0054" lon="0.6167">
        <ele>145.6</ele>
        <time>2022-08-10T13:58:10Z</time>
      </trkpt>
      <trkpt lat="45.00545" lon="0.61673">
        <ele>145.6</ele>
        <time>2022-08-10T13:58:12Z</time>
      </trkpt>
      <trkpt lat="45.00551" lon="0.61675">
        <ele>145.6</ele>
        <time>2022-08-10T13:58:14Z</time>
      </trkpt>
      <trkpt lat="45.00556" lon="0.61679">
        <ele>145.6</ele>
        <time>2022-08-10T13:58:16Z</time>
      </trkpt>
      <trkpt lat="45.0056" lon="0.61687">
        <ele>145.6</ele>
        <time>2022-08-10T13:58:18Z</time>
      </trkpt>
      <trkpt lat="45.00564" lon="0.61696">
        <ele>145.6</ele>
        <time>2022-08-10T13:58:20Z</time>
      </trkpt>
      <trkpt lat="45.00565" lon="0.61702">
        <ele>144.6</ele>
        <time>2022-08-10T13:58:21Z</time>
      </trkpt>
      <trkpt lat="45.00567" lon="0.61709">
        <ele>144.6</ele>
        <time>2022-08-10T13:58:22Z</time>
      </trkpt>
      <trkpt lat="45.00569" lon="0.61716">
        <ele>144.6</ele>
        <time>2022-08-10T13:58:23Z</time>
      </trkpt>
      <trkpt lat="45.00571" lon="0.61722">
        <ele>143.6</ele>
        <time>2022-08-10T13:58:24Z</time>
      </trkpt>
      <trkpt lat="45.00575" lon="0.61731">
        <ele>143.6</ele>
        <time>2022-08-10T13:58:26Z</time>
      </trkpt>
      <trkpt lat="45.00579" lon="0.6174">
        <ele>143.6</ele>
        <time>2022-08-10T13:58:28Z</time>
      </trkpt>
      <trkpt lat="45.00583" lon="0.6175">
        <ele>143.6</ele>
        <time>2022-08-10T13:58:30Z</time>
      </trkpt>
      <trkpt lat="45.00584" lon="0.61757">
        <ele>142.6</ele>
        <time>2022-08-10T13:58:31Z</time>
      </trkpt>
      <trkpt lat="45.00584" lon="0.61764">
        <ele>141.6</ele>
        <time>2022-08-10T13:58:32Z</time>
      </trkpt>
      <trkpt lat="45.00583" lon="0.61771">
        <ele>141.6</ele>
        <time>2022-08-10T13:58:33Z</time>
      </trkpt>
      <trkpt lat="45.00581" lon="0.61776">
        <ele>141.6</ele>
        <time>2022-08-10T13:58:34Z</time>
      </trkpt>
      <trkpt lat="45.00575" lon="0.61785">
        <ele>140.6</ele>
        <time>2022-08-10T13:58:36Z</time>
      </trkpt>
      <trkpt lat="45.00571" lon="0.61792">
        <ele>141.6</ele>
        <time>2022-08-10T13:58:38Z</time>
      </trkpt>
      <trkpt lat="45.00569" lon="0.61798">
        <ele>141.6</ele>
        <time>2022-08-10T13:58:41Z</time>
      </trkpt>
      <trkpt lat="45.00572" lon="0.61793">
        <ele>141.6</ele>
        <time>2022-08-10T13:58:48Z</time>
      </trkpt>
      <trkpt lat="45.00576" lon="0.61787">
        <ele>141.6</ele>
        <time>2022-08-10T13:58:51Z</time>
      </trkpt>
      <trkpt lat="45.0058" lon="0.61783">
        <ele>141.6</ele>
        <time>2022-08-10T13:58:55Z</time>
      </trkpt>
      <trkpt lat="45.00575" lon="0.61783">
        <ele>140.6</ele>
        <time>2022-08-10T13:59:54Z</time>
      </trkpt>
      <trkpt lat="45.0057" lon="0.61791">
        <ele>140.6</ele>
        <time>2022-08-10T13:59:57Z</time>
      </trkpt>
      <trkpt lat="45.00567" lon="0.61798">
        <ele>140.6</ele>
        <time>2022-08-10T13:59:59Z</time>
      </trkpt>
      <trkpt lat="45.00563" lon="0.61805">
        <ele>140.6</ele>
        <time>2022-08-10T14:00:01Z</time>
      </trkpt>
      <trkpt lat="45.00559" lon="0.61814">
        <ele>140.6</ele>
        <time>2022-08-10T14:00:03Z</time>
      </trkpt>
      <trkpt lat="45.00556" lon="0.61825">
        <ele>141.6</ele>
        <time>2022-08-10T14:00:05Z</time>
      </trkpt>
      <trkpt lat="45.00557" lon="0.61837">
        <ele>142.6</ele>
        <time>2022-08-10T14:00:07Z</time>
      </trkpt>
      <trkpt lat="45.00558" lon="0.61847">
        <ele>141.6</ele>
        <time>2022-08-10T14:00:09Z</time>
      </trkpt>
      <trkpt lat="45.00561" lon="0.61855">
        <ele>140.6</ele>
        <time>2022-08-10T14:00:12Z</time>
      </trkpt>
      <trkpt lat="45.00558" lon="0.61863">
        <ele>140.6</ele>
        <time>2022-08-10T14:00:15Z</time>
      </trkpt>
      <trkpt lat="45.00553" lon="0.61871">
        <ele>140.6</ele>
        <time>2022-08-10T14:00:17Z</time>
      </trkpt>
      <trkpt lat="45.0055" lon="0.61876">
        <ele>141.6</ele>
        <time>2022-08-10T14:00:18Z</time>
      </trkpt>
      <trkpt lat="45.00545" lon="0.61886">
        <ele>143.6</ele>
        <time>2022-08-10T14:00:20Z</time>
      </trkpt>
      <trkpt lat="45.00536" lon="0.61896">
        <ele>143.6</ele>
        <time>2022-08-10T14:00:23Z</time>
      </trkpt>
      <trkpt lat="45.00531" lon="0.61902">
        <ele>143.6</ele>
        <time>2022-08-10T14:00:25Z</time>
      </trkpt>
      <trkpt lat="45.00525" lon="0.61908">
        <ele>143.6</ele>
        <time>2022-08-10T14:00:27Z</time>
      </trkpt>
      <trkpt lat="45.0052" lon="0.61912">
        <ele>143.6</ele>
        <time>2022-08-10T14:00:29Z</time>
      </trkpt>
      <trkpt lat="45.00511" lon="0.61916">
        <ele>143.6</ele>
        <time>2022-08-10T14:00:32Z</time>
      </trkpt>
      <trkpt lat="45.00505" lon="0.61918">
        <ele>143.6</ele>
        <time>2022-08-10T14:00:34Z</time>
      </trkpt>
      <trkpt lat="45.005" lon="0.61921">
        <ele>143.6</ele>
        <time>2022-08-10T14:00:36Z</time>
      </trkpt>
      <trkpt lat="45.00495" lon="0.61924">
        <ele>143.6</ele>
        <time>2022-08-10T14:00:38Z</time>
      </trkpt>
      <trkpt lat="45.00488" lon="0.61927">
        <ele>144.6</ele>
        <time>2022-08-10T14:00:41Z</time>
      </trkpt>
      <trkpt lat="45.00483" lon="0.6193">
        <ele>144.6</ele>
        <time>2022-08-10T14:00:43Z</time>
      </trkpt>
      <trkpt lat="45.00478" lon="0.61931">
        <ele>145.6</ele>
        <time>2022-08-10T14:00:45Z</time>
      </trkpt>
      <trkpt lat="45.00473" lon="0.61932">
        <ele>144.6</ele>
        <time>2022-08-10T14:00:48Z</time>
      </trkpt>
      <trkpt lat="45.00467" lon="0.61932">
        <ele>144.6</ele>
        <time>2022-08-10T14:00:52Z</time>
      </trkpt>
      <trkpt lat="45.00462" lon="0.61932">
        <ele>143.6</ele>
        <time>2022-08-10T14:00:55Z</time>
      </trkpt>
      <trkpt lat="45.00457" lon="0.61932">
        <ele>143.6</ele>
        <time>2022-08-10T14:01:00Z</time>
      </trkpt>
      <trkpt lat="45.00452" lon="0.61933">
        <ele>143.6</ele>
        <time>2022-08-10T14:01:03Z</time>
      </trkpt>
      <trkpt lat="45.00447" lon="0.61933">
        <ele>143.6</ele>
        <time>2022-08-10T14:01:06Z</time>
      </trkpt>
      <trkpt lat="45.00442" lon="0.61937">
        <ele>143.6</ele>
        <time>2022-08-10T14:01:10Z</time>
      </trkpt>
      <trkpt lat="45.00437" lon="0.61941">
        <ele>144.6</ele>
        <time>2022-08-10T14:01:15Z</time>
      </trkpt>
      <trkpt lat="45.00432" lon="0.61945">
        <ele>144.6</ele>
        <time>2022-08-10T14:01:19Z</time>
      </trkpt>
      <trkpt lat="45.00428" lon="0.61949">
        <ele>144.6</ele>
        <time>2022-08-10T14:01:23Z</time>
      </trkpt>
      <trkpt lat="45.00424" lon="0.61954">
        <ele>144.6</ele>
        <time>2022-08-10T14:01:27Z</time>
      </trkpt>
      <trkpt lat="45.00418" lon="0.61957">
        <ele>143.6</ele>
        <time>2022-08-10T14:01:33Z</time>
      </trkpt>
      <trkpt lat="45.00414" lon="0.6196">
        <ele>143.6</ele>
        <time>2022-08-10T14:01:38Z</time>
      </trkpt>
      <trkpt lat="45.00406" lon="0.61962">
        <ele>142.6</ele>
        <time>2022-08-10T14:01:43Z</time>
      </trkpt>
      <trkpt lat="45.004" lon="0.61967">
        <ele>141.6</ele>
        <time>2022-08-10T14:01:48Z</time>
      </trkpt>
      <trkpt lat="45.00397" lon="0.61972">
        <ele>139.6</ele>
        <time>2022-08-10T14:01:51Z</time>
      </trkpt>
      <trkpt lat="45.00393" lon="0.61976">
        <ele>140.6</ele>
        <time>2022-08-10T14:01:54Z</time>
      </trkpt>
      <trkpt lat="45.00388" lon="0.61981">
        <ele>140.6</ele>
        <time>2022-08-10T14:01:58Z</time>
      </trkpt>
      <trkpt lat="45.00383" lon="0.61985">
        <ele>141.6</ele>
        <time>2022-08-10T14:02:01Z</time>
      </trkpt>
      <trkpt lat="45.00378" lon="0.61988">
        <ele>140.6</ele>
        <time>2022-08-10T14:02:04Z</time>
      </trkpt>
      <trkpt lat="45.00374" lon="0.61994">
        <ele>139.6</ele>
        <time>2022-08-10T14:02:08Z</time>
      </trkpt>
      <trkpt lat="45.0037" lon="0.61998">
        <ele>137.6</ele>
        <time>2022-08-10T14:02:11Z</time>
      </trkpt>
      <trkpt lat="45.00366" lon="0.62003">
        <ele>137.6</ele>
        <time>2022-08-10T14:02:15Z</time>
      </trkpt>
      <trkpt lat="45.00361" lon="0.62007">
        <ele>136.6</ele>
        <time>2022-08-10T14:02:18Z</time>
      </trkpt>
      <trkpt lat="45.00356" lon="0.62011">
        <ele>136.6</ele>
        <time>2022-08-10T14:02:22Z</time>
      </trkpt>
      <trkpt lat="45.00351" lon="0.62017">
        <ele>137.6</ele>
        <time>2022-08-10T14:02:27Z</time>
      </trkpt>
      <trkpt lat="45.00347" lon="0.6202">
        <ele>138.6</ele>
        <time>2022-08-10T14:02:33Z</time>
      </trkpt>
      <trkpt lat="45.00345" lon="0.62027">
        <ele>138.6</ele>
        <time>2022-08-10T14:02:37Z</time>
      </trkpt>
      <trkpt lat="45.00341" lon="0.62034">
        <ele>138.6</ele>
        <time>2022-08-10T14:02:41Z</time>
      </trkpt>
      <trkpt lat="45.00338" lon="0.62039">
        <ele>139.6</ele>
        <time>2022-08-10T14:02:44Z</time>
      </trkpt>
      <trkpt lat="45.00335" lon="0.62044">
        <ele>140.6</ele>
        <time>2022-08-10T14:02:47Z</time>
      </trkpt>
      <trkpt lat="45.00334" lon="0.62051">
        <ele>140.6</ele>
        <time>2022-08-10T14:02:50Z</time>
      </trkpt>
      <trkpt lat="45.00334" lon="0.62059">
        <ele>140.6</ele>
        <time>2022-08-10T14:02:54Z</time>
      </trkpt>
      <trkpt lat="45.00332" lon="0.62066">
        <ele>140.6</ele>
        <time>2022-08-10T14:02:58Z</time>
      </trkpt>
      <trkpt lat="45.00331" lon="0.62073">
        <ele>142.6</ele>
        <time>2022-08-10T14:03:04Z</time>
      </trkpt>
      <trkpt lat="45.0033" lon="0.62081">
        <ele>143.6</ele>
        <time>2022-08-10T14:03:08Z</time>
      </trkpt>
      <trkpt lat="45.00328" lon="0.62087">
        <ele>144.6</ele>
        <time>2022-08-10T14:03:11Z</time>
      </trkpt>
      <trkpt lat="45.00325" lon="0.62094">
        <ele>145.6</ele>
        <time>2022-08-10T14:03:15Z</time>
      </trkpt>
      <trkpt lat="45.00323" lon="0.62101">
        <ele>147.6</ele>
        <time>2022-08-10T14:03:19Z</time>
      </trkpt>
      <trkpt lat="45.00321" lon="0.62107">
        <ele>149.6</ele>
        <time>2022-08-10T14:03:22Z</time>
      </trkpt>
      <trkpt lat="45.0032" lon="0.62114">
        <ele>150.6</ele>
        <time>2022-08-10T14:03:25Z</time>
      </trkpt>
      <trkpt lat="45.0032" lon="0.62122">
        <ele>152.6</ele>
        <time>2022-08-10T14:03:28Z</time>
      </trkpt>
      <trkpt lat="45.0032" lon="0.62129">
        <ele>153.6</ele>
        <time>2022-08-10T14:03:31Z</time>
      </trkpt>
      <trkpt lat="45.00322" lon="0.62136">
        <ele>156.6</ele>
        <time>2022-08-10T14:03:36Z</time>
      </trkpt>
      <trkpt lat="45.00324" lon="0.62145">
        <ele>158.6</ele>
        <time>2022-08-10T14:03:39Z</time>
      </trkpt>
      <trkpt lat="45.00325" lon="0.62152">
        <ele>159.6</ele>
        <time>2022-08-10T14:03:42Z</time>
      </trkpt>
      <trkpt lat="45.00327" lon="0.6216">
        <ele>160.6</ele>
        <time>2022-08-10T14:03:46Z</time>
      </trkpt>
      <trkpt lat="45.00328" lon="0.62167">
        <ele>161.6</ele>
        <time>2022-08-10T14:03:50Z</time>
      </trkpt>
      <trkpt lat="45.00329" lon="0.62174">
        <ele>162.6</ele>
        <time>2022-08-10T14:03:54Z</time>
      </trkpt>
      <trkpt lat="45.0033" lon="0.62182">
        <ele>162.6</ele>
        <time>2022-08-10T14:03:58Z</time>
      </trkpt>
      <trkpt lat="45.00331" lon="0.62189">
        <ele>163.6</ele>
        <time>2022-08-10T14:04:02Z</time>
      </trkpt>
      <trkpt lat="45.00333" lon="0.62197">
        <ele>164.6</ele>
        <time>2022-08-10T14:04:08Z</time>
      </trkpt>
      <trkpt lat="45.00333" lon="0.62207">
        <ele>164.6</ele>
        <time>2022-08-10T14:04:13Z</time>
      </trkpt>
      <trkpt lat="45.00332" lon="0.62213">
        <ele>166.6</ele>
        <time>2022-08-10T14:04:18Z</time>
      </trkpt>
      <trkpt lat="45.00331" lon="0.62221">
        <ele>165.6</ele>
        <time>2022-08-10T14:04:22Z</time>
      </trkpt>
      <trkpt lat="45.00331" lon="0.62227">
        <ele>165.6</ele>
        <time>2022-08-10T14:04:25Z</time>
      </trkpt>
      <trkpt lat="45.00332" lon="0.62234">
        <ele>166.6</ele>
        <time>2022-08-10T14:04:28Z</time>
      </trkpt>
      <trkpt lat="45.00334" lon="0.6224">
        <ele>166.6</ele>
        <time>2022-08-10T14:04:31Z</time>
      </trkpt>
      <trkpt lat="45.00334" lon="0.62247">
        <ele>167.6</ele>
        <time>2022-08-10T14:04:35Z</time>
      </trkpt>
      <trkpt lat="45.00333" lon="0.62254">
        <ele>168.6</ele>
        <time>2022-08-10T14:04:38Z</time>
      </trkpt>
      <trkpt lat="45.00331" lon="0.62261">
        <ele>168.6</ele>
        <time>2022-08-10T14:04:42Z</time>
      </trkpt>
      <trkpt lat="45.0033" lon="0.62268">
        <ele>169.6</ele>
        <time>2022-08-10T14:04:47Z</time>
      </trkpt>
      <trkpt lat="45.00329" lon="0.62275">
        <ele>171.6</ele>
        <time>2022-08-10T14:04:54Z</time>
      </trkpt>
      <trkpt lat="45.00329" lon="0.62283">
        <ele>174.6</ele>
        <time>2022-08-10T14:04:58Z</time>
      </trkpt>
      <trkpt lat="45.0033" lon="0.62291">
        <ele>172.6</ele>
        <time>2022-08-10T14:05:04Z</time>
      </trkpt>
      <trkpt lat="45.00328" lon="0.62299">
        <ele>172.6</ele>
        <time>2022-08-10T14:05:07Z</time>
      </trkpt>
      <trkpt lat="45.00326" lon="0.62308">
        <ele>171.6</ele>
        <time>2022-08-10T14:05:10Z</time>
      </trkpt>
      <trkpt lat="45.00326" lon="0.62315">
        <ele>173.6</ele>
        <time>2022-08-10T14:05:16Z</time>
      </trkpt>
      <trkpt lat="45.00324" lon="0.62321">
        <ele>173.6</ele>
        <time>2022-08-10T14:05:19Z</time>
      </trkpt>
      <trkpt lat="45.00321" lon="0.62328">
        <ele>174.6</ele>
        <time>2022-08-10T14:05:24Z</time>
      </trkpt>
      <trkpt lat="45.00319" lon="0.62335">
        <ele>175.6</ele>
        <time>2022-08-10T14:05:30Z</time>
      </trkpt>
      <trkpt lat="45.00314" lon="0.62343">
        <ele>176.6</ele>
        <time>2022-08-10T14:05:34Z</time>
      </trkpt>
      <trkpt lat="45.00311" lon="0.62348">
        <ele>177.6</ele>
        <time>2022-08-10T14:05:38Z</time>
      </trkpt>
      <trkpt lat="45.00308" lon="0.62353">
        <ele>179.6</ele>
        <time>2022-08-10T14:05:44Z</time>
      </trkpt>
      <trkpt lat="45.00305" lon="0.62359">
        <ele>184.6</ele>
        <time>2022-08-10T14:06:14Z</time>
      </trkpt>
      <trkpt lat="45.00302" lon="0.62363">
        <ele>186.6</ele>
        <time>2022-08-10T14:06:50Z</time>
      </trkpt>
      <trkpt lat="45.00298" lon="0.62366">
        <ele>185.6</ele>
        <time>2022-08-10T14:12:07Z</time>
      </trkpt>
      <trkpt lat="45.00292" lon="0.62365">
        <ele>183.6</ele>
        <time>2022-08-10T14:12:11Z</time>
      </trkpt>
      <trkpt lat="45.00288" lon="0.62365">
        <ele>183.6</ele>
        <time>2022-08-10T14:12:14Z</time>
      </trkpt>
      <trkpt lat="45.00284" lon="0.62368">
        <ele>182.6</ele>
        <time>2022-08-10T14:12:19Z</time>
      </trkpt>
      <trkpt lat="45.0028" lon="0.62372">
        <ele>181.6</ele>
        <time>2022-08-10T14:12:24Z</time>
      </trkpt>
      <trkpt lat="45.00276" lon="0.62376">
        <ele>182.6</ele>
        <time>2022-08-10T14:12:28Z</time>
      </trkpt>
      <trkpt lat="45.00272" lon="0.62381">
        <ele>183.6</ele>
        <time>2022-08-10T14:12:32Z</time>
      </trkpt>
      <trkpt lat="45.00268" lon="0.62384">
        <ele>183.6</ele>
        <time>2022-08-10T14:12:35Z</time>
      </trkpt>
      <trkpt lat="45.00262" lon="0.62385">
        <ele>184.6</ele>
        <time>2022-08-10T14:12:40Z</time>
      </trkpt>
      <trkpt lat="45.00258" lon="0.6239">
        <ele>186.6</ele>
        <time>2022-08-10T14:12:43Z</time>
      </trkpt>
      <trkpt lat="45.00252" lon="0.62395">
        <ele>186.6</ele>
        <time>2022-08-10T14:12:48Z</time>
      </trkpt>
      <trkpt lat="45.00248" lon="0.62399">
        <ele>188.6</ele>
        <time>2022-08-10T14:12:51Z</time>
      </trkpt>
      <trkpt lat="45.00242" lon="0.62402">
        <ele>188.6</ele>
        <time>2022-08-10T14:12:54Z</time>
      </trkpt>
      <trkpt lat="45.00237" lon="0.62404">
        <ele>186.6</ele>
        <time>2022-08-10T14:12:57Z</time>
      </trkpt>
      <trkpt lat="45.00232" lon="0.62406">
        <ele>186.6</ele>
        <time>2022-08-10T14:13:00Z</time>
      </trkpt>
      <trkpt lat="45.00227" lon="0.62409">
        <ele>186.6</ele>
        <time>2022-08-10T14:13:03Z</time>
      </trkpt>
      <trkpt lat="45.00219" lon="0.6241">
        <ele>185.6</ele>
        <time>2022-08-10T14:13:08Z</time>
      </trkpt>
      <trkpt lat="45.00215" lon="0.62414">
        <ele>186.6</ele>
        <time>2022-08-10T14:13:11Z</time>
      </trkpt>
      <trkpt lat="45.0021" lon="0.62416">
        <ele>187.6</ele>
        <time>2022-08-10T14:13:15Z</time>
      </trkpt>
      <trkpt lat="45.00204" lon="0.62419">
        <ele>189.6</ele>
        <time>2022-08-10T14:13:19Z</time>
      </trkpt>
      <trkpt lat="45.002" lon="0.62421">
        <ele>189.6</ele>
        <time>2022-08-10T14:13:23Z</time>
      </trkpt>
      <trkpt lat="45.00194" lon="0.62422">
        <ele>189.6</ele>
        <time>2022-08-10T14:13:26Z</time>
      </trkpt>
      <trkpt lat="45.00189" lon="0.62426">
        <ele>189.6</ele>
        <time>2022-08-10T14:13:29Z</time>
      </trkpt>
      <trkpt lat="45.00184" lon="0.62427">
        <ele>189.6</ele>
        <time>2022-08-10T14:13:31Z</time>
      </trkpt>
      <trkpt lat="45.0018" lon="0.62429">
        <ele>189.6</ele>
        <time>2022-08-10T14:13:33Z</time>
      </trkpt>
      <trkpt lat="45.00174" lon="0.62433">
        <ele>189.6</ele>
        <time>2022-08-10T14:13:36Z</time>
      </trkpt>
      <trkpt lat="45.0017" lon="0.62436">
        <ele>189.6</ele>
        <time>2022-08-10T14:13:39Z</time>
      </trkpt>
      <trkpt lat="45.00165" lon="0.62438">
        <ele>189.6</ele>
        <time>2022-08-10T14:13:41Z</time>
      </trkpt>
      <trkpt lat="45.0016" lon="0.62441">
        <ele>189.6</ele>
        <time>2022-08-10T14:13:44Z</time>
      </trkpt>
      <trkpt lat="45.00155" lon="0.62444">
        <ele>190.6</ele>
        <time>2022-08-10T14:13:48Z</time>
      </trkpt>
      <trkpt lat="45.0015" lon="0.62445">
        <ele>190.6</ele>
        <time>2022-08-10T14:13:51Z</time>
      </trkpt>
      <trkpt lat="45.00146" lon="0.62448">
        <ele>189.6</ele>
        <time>2022-08-10T14:13:54Z</time>
      </trkpt>
      <trkpt lat="45.0014" lon="0.62448">
        <ele>189.6</ele>
        <time>2022-08-10T14:13:58Z</time>
      </trkpt>
      <trkpt lat="45.00134" lon="0.62449">
        <ele>188.6</ele>
        <time>2022-08-10T14:14:01Z</time>
      </trkpt>
      <trkpt lat="45.00128" lon="0.62451">
        <ele>186.6</ele>
        <time>2022-08-10T14:14:04Z</time>
      </trkpt>
      <trkpt lat="45.00123" lon="0.62454">
        <ele>187.6</ele>
        <time>2022-08-10T14:14:07Z</time>
      </trkpt>
      <trkpt lat="45.00118" lon="0.62456">
        <ele>187.6</ele>
        <time>2022-08-10T14:14:10Z</time>
      </trkpt>
      <trkpt lat="45.00113" lon="0.62458">
        <ele>187.6</ele>
        <time>2022-08-10T14:14:12Z</time>
      </trkpt>
      <trkpt lat="45.00107" lon="0.6246">
        <ele>187.6</ele>
        <time>2022-08-10T14:14:14Z</time>
      </trkpt>
      <trkpt lat="45.00102" lon="0.62462">
        <ele>186.6</ele>
        <time>2022-08-10T14:14:16Z</time>
      </trkpt>
      <trkpt lat="45.00098" lon="0.62462">
        <ele>186.6</ele>
        <time>2022-08-10T14:14:18Z</time>
      </trkpt>
      <trkpt lat="45.00092" lon="0.62463">
        <ele>186.6</ele>
        <time>2022-08-10T14:14:21Z</time>
      </trkpt>
      <trkpt lat="45.00087" lon="0.62461">
        <ele>187.6</ele>
        <time>2022-08-10T14:14:24Z</time>
      </trkpt>
      <trkpt lat="45.0008" lon="0.62461">
        <ele>187.6</ele>
        <time>2022-08-10T14:14:27Z</time>
      </trkpt>
      <trkpt lat="45.00075" lon="0.62461">
        <ele>187.6</ele>
        <time>2022-08-10T14:14:29Z</time>
      </trkpt>
      <trkpt lat="45.0007" lon="0.62462">
        <ele>187.6</ele>
        <time>2022-08-10T14:14:31Z</time>
      </trkpt>
      <trkpt lat="45.00064" lon="0.62462">
        <ele>187.6</ele>
        <time>2022-08-10T14:14:33Z</time>
      </trkpt>
      <trkpt lat="45.00059" lon="0.62461">
        <ele>187.6</ele>
        <time>2022-08-10T14:14:35Z</time>
      </trkpt>
      <trkpt lat="45.00054" lon="0.62461">
        <ele>188.6</ele>
        <time>2022-08-10T14:14:37Z</time>
      </trkpt>
      <trkpt lat="45.00048" lon="0.6246">
        <ele>188.6</ele>
        <time>2022-08-10T14:14:39Z</time>
      </trkpt>
      <trkpt lat="45.00042" lon="0.62459">
        <ele>188.6</ele>
        <time>2022-08-10T14:14:41Z</time>
      </trkpt>
      <trkpt lat="45.00037" lon="0.62459">
        <ele>188.6</ele>
        <time>2022-08-10T14:14:43Z</time>
      </trkpt>
      <trkpt lat="45.00032" lon="0.62459">
        <ele>188.6</ele>
        <time>2022-08-10T14:14:45Z</time>
      </trkpt>
      <trkpt lat="45.00025" lon="0.62459">
        <ele>188.6</ele>
        <time>2022-08-10T14:14:48Z</time>
      </trkpt>
      <trkpt lat="45.00021" lon="0.62457">
        <ele>188.6</ele>
        <time>2022-08-10T14:14:50Z</time>
      </trkpt>
      <trkpt lat="45.00016" lon="0.62456">
        <ele>188.6</ele>
        <time>2022-08-10T14:14:52Z</time>
      </trkpt>
      <trkpt lat="45.00011" lon="0.62455">
        <ele>188.6</ele>
        <time>2022-08-10T14:14:54Z</time>
      </trkpt>
      <trkpt lat="45.00003" lon="0.62454">
        <ele>191.6</ele>
        <time>2022-08-10T14:14:58Z</time>
      </trkpt>
      <trkpt lat="44.99998" lon="0.62453">
        <ele>192.6</ele>
        <time>2022-08-10T14:15:01Z</time>
      </trkpt>
      <trkpt lat="44.99993" lon="0.62451">
        <ele>192.6</ele>
        <time>2022-08-10T14:15:04Z</time>
      </trkpt>
      <trkpt lat="44.99987" lon="0.62451">
        <ele>193.6</ele>
        <time>2022-08-10T14:15:08Z</time>
      </trkpt>
      <trkpt lat="44.9998" lon="0.62451">
        <ele>193.6</ele>
        <time>2022-08-10T14:15:11Z</time>
      </trkpt>
      <trkpt lat="44.99974" lon="0.62452">
        <ele>193.6</ele>
        <time>2022-08-10T14:15:14Z</time>
      </trkpt>
      <trkpt lat="44.9997" lon="0.62453">
        <ele>194.6</ele>
        <time>2022-08-10T14:15:16Z</time>
      </trkpt>
      <trkpt lat="44.99964" lon="0.62455">
        <ele>195.6</ele>
        <time>2022-08-10T14:15:19Z</time>
      </trkpt>
      <trkpt lat="44.99959" lon="0.62456">
        <ele>195.6</ele>
        <time>2022-08-10T14:15:22Z</time>
      </trkpt>
      <trkpt lat="44.99953" lon="0.62457">
        <ele>196.6</ele>
        <time>2022-08-10T14:15:25Z</time>
      </trkpt>
      <trkpt lat="44.99948" lon="0.6246">
        <ele>197.6</ele>
        <time>2022-08-10T14:15:27Z</time>
      </trkpt>
      <trkpt lat="44.99943" lon="0.62462">
        <ele>197.6</ele>
        <time>2022-08-10T14:15:29Z</time>
      </trkpt>
      <trkpt lat="44.99938" lon="0.62465">
        <ele>197.6</ele>
        <time>2022-08-10T14:15:31Z</time>
      </trkpt>
      <trkpt lat="44.99933" lon="0.62468">
        <ele>196.6</ele>
        <time>2022-08-10T14:15:33Z</time>
      </trkpt>
      <trkpt lat="44.99927" lon="0.62471">
        <ele>195.6</ele>
        <time>2022-08-10T14:15:35Z</time>
      </trkpt>
      <trkpt lat="44.9992" lon="0.62475">
        <ele>194.6</ele>
        <time>2022-08-10T14:15:37Z</time>
      </trkpt>
      <trkpt lat="44.99915" lon="0.62477">
        <ele>196.6</ele>
        <time>2022-08-10T14:15:38Z</time>
      </trkpt>
      <trkpt lat="44.9991" lon="0.6248">
        <ele>197.6</ele>
        <time>2022-08-10T14:15:39Z</time>
      </trkpt>
      <trkpt lat="44.99906" lon="0.62481">
        <ele>196.6</ele>
        <time>2022-08-10T14:15:40Z</time>
      </trkpt>
      <trkpt lat="44.99897" lon="0.62484">
        <ele>198.6</ele>
        <time>2022-08-10T14:15:42Z</time>
      </trkpt>
      <trkpt lat="44.99892" lon="0.62486">
        <ele>199.6</ele>
        <time>2022-08-10T14:15:43Z</time>
      </trkpt>
      <trkpt lat="44.99888" lon="0.62488">
        <ele>200.6</ele>
        <time>2022-08-10T14:15:44Z</time>
      </trkpt>
      <trkpt lat="44.99883" lon="0.62489">
        <ele>199.6</ele>
        <time>2022-08-10T14:15:45Z</time>
      </trkpt>
      <trkpt lat="44.99877" lon="0.62492">
        <ele>198.6</ele>
        <time>2022-08-10T14:15:46Z</time>
      </trkpt>
      <trkpt lat="44.99871" lon="0.62495">
        <ele>199.6</ele>
        <time>2022-08-10T14:15:47Z</time>
      </trkpt>
      <trkpt lat="44.99866" lon="0.62498">
        <ele>199.6</ele>
        <time>2022-08-10T14:15:48Z</time>
      </trkpt>
      <trkpt lat="44.9986" lon="0.625">
        <ele>199.6</ele>
        <time>2022-08-10T14:15:49Z</time>
      </trkpt>
      <trkpt lat="44.99854" lon="0.62503">
        <ele>198.6</ele>
        <time>2022-08-10T14:15:50Z</time>
      </trkpt>
      <trkpt lat="44.99848" lon="0.62506">
        <ele>198.6</ele>
        <time>2022-08-10T14:15:51Z</time>
      </trkpt>
      <trkpt lat="44.99842" lon="0.62508">
        <ele>198.6</ele>
        <time>2022-08-10T14:15:52Z</time>
      </trkpt>
      <trkpt lat="44.99836" lon="0.62511">
        <ele>198.6</ele>
        <time>2022-08-10T14:15:53Z</time>
      </trkpt>
      <trkpt lat="44.99829" lon="0.62514">
        <ele>198.6</ele>
        <time>2022-08-10T14:15:54Z</time>
      </trkpt>
      <trkpt lat="44.99822" lon="0.62518">
        <ele>198.6</ele>
        <time>2022-08-10T14:15:55Z</time>
      </trkpt>
      <trkpt lat="44.99815" lon="0.62522">
        <ele>198.6</ele>
        <time>2022-08-10T14:15:56Z</time>
      </trkpt>
      <trkpt lat="44.99808" lon="0.62525">
        <ele>197.6</ele>
        <time>2022-08-10T14:15:57Z</time>
      </trkpt>
      <trkpt lat="44.998" lon="0.62528">
        <ele>197.6</ele>
        <time>2022-08-10T14:15:58Z</time>
      </trkpt>
      <trkpt lat="44.99793" lon="0.62531">
        <ele>197.6</ele>
        <time>2022-08-10T14:15:59Z</time>
      </trkpt>
      <trkpt lat="44.99786" lon="0.62534">
        <ele>196.6</ele>
        <time>2022-08-10T14:16:00Z</time>
      </trkpt>
      <trkpt lat="44.99778" lon="0.62538">
        <ele>196.6</ele>
        <time>2022-08-10T14:16:01Z</time>
      </trkpt>
      <trkpt lat="44.9977" lon="0.62543">
        <ele>196.6</ele>
        <time>2022-08-10T14:16:02Z</time>
      </trkpt>
      <trkpt lat="44.99762" lon="0.62547">
        <ele>195.6</ele>
        <time>2022-08-10T14:16:03Z</time>
      </trkpt>
      <trkpt lat="44.99754" lon="0.62552">
        <ele>194.6</ele>
        <time>2022-08-10T14:16:04Z</time>
      </trkpt>
      <trkpt lat="44.99746" lon="0.62558">
        <ele>194.6</ele>
        <time>2022-08-10T14:16:05Z</time>
      </trkpt>
      <trkpt lat="44.99738" lon="0.62564">
        <ele>193.6</ele>
        <time>2022-08-10T14:16:06Z</time>
      </trkpt>
      <trkpt lat="44.9973" lon="0.62571">
        <ele>193.6</ele>
        <time>2022-08-10T14:16:07Z</time>
      </trkpt>
      <trkpt lat="44.99723" lon="0.62579">
        <ele>192.6</ele>
        <time>2022-08-10T14:16:08Z</time>
      </trkpt>
      <trkpt lat="44.99716" lon="0.62587">
        <ele>191.6</ele>
        <time>2022-08-10T14:16:09Z</time>
      </trkpt>
      <trkpt lat="44.99708" lon="0.62593">
        <ele>191.6</ele>
        <time>2022-08-10T14:16:10Z</time>
      </trkpt>
      <trkpt lat="44.997" lon="0.62599">
        <ele>191.6</ele>
        <time>2022-08-10T14:16:11Z</time>
      </trkpt>
      <trkpt lat="44.99693" lon="0.62606">
        <ele>191.6</ele>
        <time>2022-08-10T14:16:12Z</time>
      </trkpt>
      <trkpt lat="44.99686" lon="0.62612">
        <ele>192.6</ele>
        <time>2022-08-10T14:16:13Z</time>
      </trkpt>
      <trkpt lat="44.99679" lon="0.62619">
        <ele>192.6</ele>
        <time>2022-08-10T14:16:14Z</time>
      </trkpt>
      <trkpt lat="44.99671" lon="0.62625">
        <ele>191.6</ele>
        <time>2022-08-10T14:16:15Z</time>
      </trkpt>
      <trkpt lat="44.99664" lon="0.6263">
        <ele>191.6</ele>
        <time>2022-08-10T14:16:16Z</time>
      </trkpt>
      <trkpt lat="44.99659" lon="0.62635">
        <ele>190.6</ele>
        <time>2022-08-10T14:16:17Z</time>
      </trkpt>
      <trkpt lat="44.99653" lon="0.6264">
        <ele>190.6</ele>
        <time>2022-08-10T14:16:18Z</time>
      </trkpt>
      <trkpt lat="44.99649" lon="0.62644">
        <ele>190.6</ele>
        <time>2022-08-10T14:16:19Z</time>
      </trkpt>
      <trkpt lat="44.99645" lon="0.62646">
        <ele>190.6</ele>
        <time>2022-08-10T14:16:20Z</time>
      </trkpt>
      <trkpt lat="44.99639" lon="0.62651">
        <ele>190.6</ele>
        <time>2022-08-10T14:16:22Z</time>
      </trkpt>
      <trkpt lat="44.99634" lon="0.62654">
        <ele>190.6</ele>
        <time>2022-08-10T14:16:24Z</time>
      </trkpt>
      <trkpt lat="44.9963" lon="0.62658">
        <ele>189.6</ele>
        <time>2022-08-10T14:18:34Z</time>
      </trkpt>
      <trkpt lat="44.99634" lon="0.62668">
        <ele>184.6</ele>
        <time>2022-08-10T14:19:03Z</time>
      </trkpt>
      <trkpt lat="44.99635" lon="0.6268">
        <ele>184.6</ele>
        <time>2022-08-10T14:19:05Z</time>
      </trkpt>
      <trkpt lat="44.99635" lon="0.62687">
        <ele>184.6</ele>
        <time>2022-08-10T14:19:06Z</time>
      </trkpt>
      <trkpt lat="44.99635" lon="0.62694">
        <ele>183.6</ele>
        <time>2022-08-10T14:19:07Z</time>
      </trkpt>
      <trkpt lat="44.99636" lon="0.627">
        <ele>182.6</ele>
        <time>2022-08-10T14:19:08Z</time>
      </trkpt>
      <trkpt lat="44.99636" lon="0.62707">
        <ele>180.6</ele>
        <time>2022-08-10T14:19:09Z</time>
      </trkpt>
      <trkpt lat="44.99636" lon="0.62714">
        <ele>181.6</ele>
        <time>2022-08-10T14:19:10Z</time>
      </trkpt>
      <trkpt lat="44.99638" lon="0.62726">
        <ele>180.6</ele>
        <time>2022-08-10T14:19:12Z</time>
      </trkpt>
      <trkpt lat="44.99638" lon="0.62736">
        <ele>179.6</ele>
        <time>2022-08-10T14:19:14Z</time>
      </trkpt>
      <trkpt lat="44.99638" lon="0.62746">
        <ele>179.6</ele>
        <time>2022-08-10T14:19:16Z</time>
      </trkpt>
      <trkpt lat="44.99639" lon="0.62755">
        <ele>178.6</ele>
        <time>2022-08-10T14:19:18Z</time>
      </trkpt>
      <trkpt lat="44.99639" lon="0.62763">
        <ele>178.6</ele>
        <time>2022-08-10T14:19:20Z</time>
      </trkpt>
      <trkpt lat="44.99639" lon="0.62773">
        <ele>178.6</ele>
        <time>2022-08-10T14:19:22Z</time>
      </trkpt>
      <trkpt lat="44.99638" lon="0.62783">
        <ele>178.6</ele>
        <time>2022-08-10T14:19:24Z</time>
      </trkpt>
      <trkpt lat="44.99637" lon="0.62791">
        <ele>178.6</ele>
        <time>2022-08-10T14:19:26Z</time>
      </trkpt>
      <trkpt lat="44.99634" lon="0.62799">
        <ele>177.6</ele>
        <time>2022-08-10T14:19:28Z</time>
      </trkpt>
      <trkpt lat="44.99632" lon="0.62806">
        <ele>176.6</ele>
        <time>2022-08-10T14:19:30Z</time>
      </trkpt>
      <trkpt lat="44.99629" lon="0.62813">
        <ele>176.6</ele>
        <time>2022-08-10T14:19:32Z</time>
      </trkpt>
      <trkpt lat="44.99628" lon="0.62822">
        <ele>175.6</ele>
        <time>2022-08-10T14:19:34Z</time>
      </trkpt>
      <trkpt lat="44.99625" lon="0.62832">
        <ele>175.6</ele>
        <time>2022-08-10T14:19:36Z</time>
      </trkpt>
      <trkpt lat="44.99624" lon="0.62839">
        <ele>174.6</ele>
        <time>2022-08-10T14:19:37Z</time>
      </trkpt>
      <trkpt lat="44.99622" lon="0.62846">
        <ele>174.6</ele>
        <time>2022-08-10T14:19:38Z</time>
      </trkpt>
      <trkpt lat="44.9962" lon="0.62853">
        <ele>173.6</ele>
        <time>2022-08-10T14:19:39Z</time>
      </trkpt>
      <trkpt lat="44.99618" lon="0.62859">
        <ele>173.6</ele>
        <time>2022-08-10T14:19:40Z</time>
      </trkpt>
      <trkpt lat="44.99616" lon="0.62866">
        <ele>172.6</ele>
        <time>2022-08-10T14:19:41Z</time>
      </trkpt>
      <trkpt lat="44.99614" lon="0.62873">
        <ele>171.6</ele>
        <time>2022-08-10T14:19:42Z</time>
      </trkpt>
      <trkpt lat="44.99612" lon="0.62879">
        <ele>171.6</ele>
        <time>2022-08-10T14:19:43Z</time>
      </trkpt>
      <trkpt lat="44.99611" lon="0.62886">
        <ele>170.6</ele>
        <time>2022-08-10T14:19:44Z</time>
      </trkpt>
      <trkpt lat="44.99607" lon="0.62896">
        <ele>170.6</ele>
        <time>2022-08-10T14:19:46Z</time>
      </trkpt>
      <trkpt lat="44.99604" lon="0.62904">
        <ele>170.6</ele>
        <time>2022-08-10T14:19:49Z</time>
      </trkpt>
      <trkpt lat="44.99599" lon="0.62905">
        <ele>171.6</ele>
        <time>2022-08-10T14:19:52Z</time>
      </trkpt>
      <trkpt lat="44.99595" lon="0.629">
        <ele>171.6</ele>
        <time>2022-08-10T14:19:56Z</time>
      </trkpt>
      <trkpt lat="44.99591" lon="0.62896">
        <ele>171.6</ele>
        <time>2022-08-10T14:20:01Z</time>
      </trkpt>
      <trkpt lat="44.99587" lon="0.62892">
        <ele>172.6</ele>
        <time>2022-08-10T14:20:05Z</time>
      </trkpt>
      <trkpt lat="44.99582" lon="0.62887">
        <ele>171.6</ele>
        <time>2022-08-10T14:20:08Z</time>
      </trkpt>
      <trkpt lat="44.99578" lon="0.62881">
        <ele>172.6</ele>
        <time>2022-08-10T14:20:11Z</time>
      </trkpt>
      <trkpt lat="44.99572" lon="0.62875">
        <ele>172.6</ele>
        <time>2022-08-10T14:20:14Z</time>
      </trkpt>
      <trkpt lat="44.99567" lon="0.62868">
        <ele>172.6</ele>
        <time>2022-08-10T14:20:17Z</time>
      </trkpt>
      <trkpt lat="44.99564" lon="0.62864">
        <ele>172.6</ele>
        <time>2022-08-10T14:20:19Z</time>
      </trkpt>
      <trkpt lat="44.9956" lon="0.62859">
        <ele>172.6</ele>
        <time>2022-08-10T14:20:21Z</time>
      </trkpt>
      <trkpt lat="44.99555" lon="0.62854">
        <ele>172.6</ele>
        <time>2022-08-10T14:20:24Z</time>
      </trkpt>
      <trkpt lat="44.99551" lon="0.62856">
        <ele>174.6</ele>
        <time>2022-08-10T14:20:28Z</time>
      </trkpt>
      <trkpt lat="44.99553" lon="0.62862">
        <ele>175.6</ele>
        <time>2022-08-10T14:20:33Z</time>
      </trkpt>
      <trkpt lat="44.99556" lon="0.62867">
        <ele>182.6</ele>
        <time>2022-08-10T14:22:52Z</time>
      </trkpt>
      <trkpt lat="44.99553" lon="0.6286">
        <ele>182.6</ele>
        <time>2022-08-10T14:23:08Z</time>
      </trkpt>
      <trkpt lat="44.99551" lon="0.62854">
        <ele>180.6</ele>
        <time>2022-08-10T14:23:13Z</time>
      </trkpt>
      <trkpt lat="44.99548" lon="0.62847">
        <ele>180.6</ele>
        <time>2022-08-10T14:23:16Z</time>
      </trkpt>
      <trkpt lat="44.99543" lon="0.62843">
        <ele>180.6</ele>
        <time>2022-08-10T14:23:20Z</time>
      </trkpt>
      <trkpt lat="44.99539" lon="0.6284">
        <ele>180.6</ele>
        <time>2022-08-10T14:23:23Z</time>
      </trkpt>
      <trkpt lat="44.99535" lon="0.62833">
        <ele>180.6</ele>
        <time>2022-08-10T14:23:26Z</time>
      </trkpt>
      <trkpt lat="44.99529" lon="0.62828">
        <ele>181.6</ele>
        <time>2022-08-10T14:23:29Z</time>
      </trkpt>
      <trkpt lat="44.99524" lon="0.62825">
        <ele>181.6</ele>
        <time>2022-08-10T14:23:31Z</time>
      </trkpt>
      <trkpt lat="44.99519" lon="0.62822">
        <ele>181.6</ele>
        <time>2022-08-10T14:23:33Z</time>
      </trkpt>
      <trkpt lat="44.99515" lon="0.6282">
        <ele>181.6</ele>
        <time>2022-08-10T14:23:35Z</time>
      </trkpt>
      <trkpt lat="44.9951" lon="0.62819">
        <ele>181.6</ele>
        <time>2022-08-10T14:23:37Z</time>
      </trkpt>
      <trkpt lat="44.99503" lon="0.62818">
        <ele>180.6</ele>
        <time>2022-08-10T14:23:39Z</time>
      </trkpt>
      <trkpt lat="44.99497" lon="0.62816">
        <ele>180.6</ele>
        <time>2022-08-10T14:23:41Z</time>
      </trkpt>
      <trkpt lat="44.99492" lon="0.62813">
        <ele>179.6</ele>
        <time>2022-08-10T14:23:43Z</time>
      </trkpt>
      <trkpt lat="44.99487" lon="0.62811">
        <ele>180.6</ele>
        <time>2022-08-10T14:23:45Z</time>
      </trkpt>
      <trkpt lat="44.99482" lon="0.62811">
        <ele>179.6</ele>
        <time>2022-08-10T14:23:47Z</time>
      </trkpt>
      <trkpt lat="44.99478" lon="0.62808">
        <ele>179.6</ele>
        <time>2022-08-10T14:23:49Z</time>
      </trkpt>
      <trkpt lat="44.9948" lon="0.62802">
        <ele>181.6</ele>
        <time>2022-08-10T14:25:01Z</time>
      </trkpt>
      <trkpt lat="44.9948" lon="0.62795">
        <ele>181.6</ele>
        <time>2022-08-10T14:25:04Z</time>
      </trkpt>
      <trkpt lat="44.99481" lon="0.62788">
        <ele>180.6</ele>
        <time>2022-08-10T14:25:06Z</time>
      </trkpt>
      <trkpt lat="44.99481" lon="0.62781">
        <ele>179.6</ele>
        <time>2022-08-10T14:25:08Z</time>
      </trkpt>
      <trkpt lat="44.99482" lon="0.62772">
        <ele>179.6</ele>
        <time>2022-08-10T14:25:10Z</time>
      </trkpt>
      <trkpt lat="44.99482" lon="0.62764">
        <ele>179.6</ele>
        <time>2022-08-10T14:25:12Z</time>
      </trkpt>
      <trkpt lat="44.99481" lon="0.62756">
        <ele>177.6</ele>
        <time>2022-08-10T14:25:15Z</time>
      </trkpt>
      <trkpt lat="44.9948" lon="0.62748">
        <ele>177.6</ele>
        <time>2022-08-10T14:25:17Z</time>
      </trkpt>
      <trkpt lat="44.99475" lon="0.62742">
        <ele>177.6</ele>
        <time>2022-08-10T14:25:19Z</time>
      </trkpt>
      <trkpt lat="44.99469" lon="0.62735">
        <ele>176.6</ele>
        <time>2022-08-10T14:25:21Z</time>
      </trkpt>
      <trkpt lat="44.99463" lon="0.62728">
        <ele>175.6</ele>
        <time>2022-08-10T14:25:23Z</time>
      </trkpt>
      <trkpt lat="44.99457" lon="0.62721">
        <ele>174.6</ele>
        <time>2022-08-10T14:25:25Z</time>
      </trkpt>
      <trkpt lat="44.99452" lon="0.62714">
        <ele>173.6</ele>
        <time>2022-08-10T14:25:27Z</time>
      </trkpt>
      <trkpt lat="44.99448" lon="0.62708">
        <ele>173.6</ele>
        <time>2022-08-10T14:25:29Z</time>
      </trkpt>
      <trkpt lat="44.99446" lon="0.62702">
        <ele>174.6</ele>
        <time>2022-08-10T14:25:31Z</time>
      </trkpt>
      <trkpt lat="44.99442" lon="0.62697">
        <ele>174.6</ele>
        <time>2022-08-10T14:25:33Z</time>
      </trkpt>
      <trkpt lat="44.99439" lon="0.62692">
        <ele>174.6</ele>
        <time>2022-08-10T14:25:43Z</time>
      </trkpt>
      <trkpt lat="44.99435" lon="0.62688">
        <ele>174.6</ele>
        <time>2022-08-10T14:26:04Z</time>
      </trkpt>
      <trkpt lat="44.99431" lon="0.62683">
        <ele>174.6</ele>
        <time>2022-08-10T14:26:08Z</time>
      </trkpt>
      <trkpt lat="44.99427" lon="0.62678">
        <ele>174.6</ele>
        <time>2022-08-10T14:26:11Z</time>
      </trkpt>
      <trkpt lat="44.9943" lon="0.62671">
        <ele>174.6</ele>
        <time>2022-08-10T14:26:15Z</time>
      </trkpt>
      <trkpt lat="44.99433" lon="0.62666">
        <ele>175.6</ele>
        <time>2022-08-10T14:26:18Z</time>
      </trkpt>
      <trkpt lat="44.99437" lon="0.62661">
        <ele>175.6</ele>
        <time>2022-08-10T14:26:21Z</time>
      </trkpt>
      <trkpt lat="44.99441" lon="0.62658">
        <ele>175.6</ele>
        <time>2022-08-10T14:26:24Z</time>
      </trkpt>
      <trkpt lat="44.99445" lon="0.62655">
        <ele>176.6</ele>
        <time>2022-08-10T14:26:27Z</time>
      </trkpt>
      <trkpt lat="44.9945" lon="0.62655">
        <ele>176.6</ele>
        <time>2022-08-10T14:26:31Z</time>
      </trkpt>
      <trkpt lat="44.99455" lon="0.6265">
        <ele>176.6</ele>
        <time>2022-08-10T14:26:34Z</time>
      </trkpt>
      <trkpt lat="44.9946" lon="0.62644">
        <ele>177.6</ele>
        <time>2022-08-10T14:26:37Z</time>
      </trkpt>
      <trkpt lat="44.99464" lon="0.6264">
        <ele>176.6</ele>
        <time>2022-08-10T14:26:39Z</time>
      </trkpt>
      <trkpt lat="44.99468" lon="0.62635">
        <ele>176.6</ele>
        <time>2022-08-10T14:26:41Z</time>
      </trkpt>
      <trkpt lat="44.99472" lon="0.62632">
        <ele>177.6</ele>
        <time>2022-08-10T14:26:43Z</time>
      </trkpt>
      <trkpt lat="44.99476" lon="0.62628">
        <ele>176.6</ele>
        <time>2022-08-10T14:26:45Z</time>
      </trkpt>
      <trkpt lat="44.9948" lon="0.62622">
        <ele>176.6</ele>
        <time>2022-08-10T14:26:47Z</time>
      </trkpt>
      <trkpt lat="44.99484" lon="0.62618">
        <ele>175.6</ele>
        <time>2022-08-10T14:26:49Z</time>
      </trkpt>
      <trkpt lat="44.99489" lon="0.62611">
        <ele>176.6</ele>
        <time>2022-08-10T14:26:52Z</time>
      </trkpt>
      <trkpt lat="44.99493" lon="0.62606">
        <ele>175.6</ele>
        <time>2022-08-10T14:26:55Z</time>
      </trkpt>
      <trkpt lat="44.99497" lon="0.62601">
        <ele>175.6</ele>
        <time>2022-08-10T14:26:58Z</time>
      </trkpt>
      <trkpt lat="44.995" lon="0.62595">
        <ele>175.6</ele>
        <time>2022-08-10T14:27:01Z</time>
      </trkpt>
      <trkpt lat="44.99504" lon="0.62588">
        <ele>176.6</ele>
        <time>2022-08-10T14:27:04Z</time>
      </trkpt>
      <trkpt lat="44.99505" lon="0.62582">
        <ele>176.6</ele>
        <time>2022-08-10T14:27:06Z</time>
      </trkpt>
      <trkpt lat="44.99508" lon="0.62575">
        <ele>176.6</ele>
        <time>2022-08-10T14:27:09Z</time>
      </trkpt>
      <trkpt lat="44.99511" lon="0.62568">
        <ele>177.6</ele>
        <time>2022-08-10T14:27:13Z</time>
      </trkpt>
      <trkpt lat="44.99514" lon="0.62563">
        <ele>177.6</ele>
        <time>2022-08-10T14:27:15Z</time>
      </trkpt>
      <trkpt lat="44.99517" lon="0.62556">
        <ele>178.6</ele>
        <time>2022-08-10T14:27:17Z</time>
      </trkpt>
      <trkpt lat="44.9952" lon="0.62548">
        <ele>178.6</ele>
        <time>2022-08-10T14:27:19Z</time>
      </trkpt>
      <trkpt lat="44.99523" lon="0.62539">
        <ele>178.6</ele>
        <time>2022-08-10T14:27:21Z</time>
      </trkpt>
      <trkpt lat="44.99525" lon="0.62531">
        <ele>178.6</ele>
        <time>2022-08-10T14:27:23Z</time>
      </trkpt>
      <trkpt lat="44.99527" lon="0.62522">
        <ele>178.6</ele>
        <time>2022-08-10T14:27:25Z</time>
      </trkpt>
      <trkpt lat="44.99529" lon="0.62509">
        <ele>179.6</ele>
        <time>2022-08-10T14:27:27Z</time>
      </trkpt>
      <trkpt lat="44.99529" lon="0.62503">
        <ele>180.6</ele>
        <time>2022-08-10T14:27:28Z</time>
      </trkpt>
      <trkpt lat="44.99531" lon="0.62492">
        <ele>180.6</ele>
        <time>2022-08-10T14:27:30Z</time>
      </trkpt>
      <trkpt lat="44.99534" lon="0.62481">
        <ele>181.6</ele>
        <time>2022-08-10T14:27:32Z</time>
      </trkpt>
      <trkpt lat="44.99538" lon="0.62469">
        <ele>181.6</ele>
        <time>2022-08-10T14:27:34Z</time>
      </trkpt>
      <trkpt lat="44.9954" lon="0.62463">
        <ele>180.6</ele>
        <time>2022-08-10T14:27:35Z</time>
      </trkpt>
      <trkpt lat="44.99542" lon="0.62458">
        <ele>180.6</ele>
        <time>2022-08-10T14:27:36Z</time>
      </trkpt>
      <trkpt lat="44.99545" lon="0.62452">
        <ele>180.6</ele>
        <time>2022-08-10T14:27:37Z</time>
      </trkpt>
      <trkpt lat="44.9955" lon="0.62442">
        <ele>181.6</ele>
        <time>2022-08-10T14:27:39Z</time>
      </trkpt>
      <trkpt lat="44.99555" lon="0.62434">
        <ele>180.6</ele>
        <time>2022-08-10T14:27:41Z</time>
      </trkpt>
      <trkpt lat="44.9956" lon="0.62426">
        <ele>180.6</ele>
        <time>2022-08-10T14:27:43Z</time>
      </trkpt>
      <trkpt lat="44.99564" lon="0.62418">
        <ele>180.6</ele>
        <time>2022-08-10T14:27:45Z</time>
      </trkpt>
      <trkpt lat="44.99569" lon="0.62412">
        <ele>181.6</ele>
        <time>2022-08-10T14:27:47Z</time>
      </trkpt>
      <trkpt lat="44.99574" lon="0.62406">
        <ele>181.6</ele>
        <time>2022-08-10T14:27:49Z</time>
      </trkpt>
      <trkpt lat="44.99578" lon="0.624">
        <ele>181.6</ele>
        <time>2022-08-10T14:27:51Z</time>
      </trkpt>
      <trkpt lat="44.99582" lon="0.62394">
        <ele>181.6</ele>
        <time>2022-08-10T14:27:53Z</time>
      </trkpt>
      <trkpt lat="44.99577" lon="0.62392">
        <ele>181.6</ele>
        <time>2022-08-10T14:28:46Z</time>
      </trkpt>
      <trkpt lat="44.99573" lon="0.62398">
        <ele>181.6</ele>
        <time>2022-08-10T14:28:48Z</time>
      </trkpt>
      <trkpt lat="44.99569" lon="0.62404">
        <ele>180.6</ele>
        <time>2022-08-10T14:28:50Z</time>
      </trkpt>
      <trkpt lat="44.99564" lon="0.62411">
        <ele>180.6</ele>
        <time>2022-08-10T14:28:52Z</time>
      </trkpt>
      <trkpt lat="44.99559" lon="0.62418">
        <ele>179.6</ele>
        <time>2022-08-10T14:28:54Z</time>
      </trkpt>
      <trkpt lat="44.99555" lon="0.62426">
        <ele>179.6</ele>
        <time>2022-08-10T14:28:56Z</time>
      </trkpt>
      <trkpt lat="44.9955" lon="0.62433">
        <ele>178.6</ele>
        <time>2022-08-10T14:28:58Z</time>
      </trkpt>
      <trkpt lat="44.99545" lon="0.62441">
        <ele>178.6</ele>
        <time>2022-08-10T14:29:00Z</time>
      </trkpt>
      <trkpt lat="44.9954" lon="0.62451">
        <ele>177.6</ele>
        <time>2022-08-10T14:29:02Z</time>
      </trkpt>
      <trkpt lat="44.99538" lon="0.62456">
        <ele>177.6</ele>
        <time>2022-08-10T14:29:03Z</time>
      </trkpt>
      <trkpt lat="44.99533" lon="0.62466">
        <ele>178.6</ele>
        <time>2022-08-10T14:29:05Z</time>
      </trkpt>
      <trkpt lat="44.99529" lon="0.62476">
        <ele>178.6</ele>
        <time>2022-08-10T14:29:07Z</time>
      </trkpt>
      <trkpt lat="44.99526" lon="0.62486">
        <ele>177.6</ele>
        <time>2022-08-10T14:29:09Z</time>
      </trkpt>
      <trkpt lat="44.99524" lon="0.62495">
        <ele>177.6</ele>
        <time>2022-08-10T14:29:11Z</time>
      </trkpt>
      <trkpt lat="44.99522" lon="0.62505">
        <ele>176.6</ele>
        <time>2022-08-10T14:29:13Z</time>
      </trkpt>
      <trkpt lat="44.99521" lon="0.62515">
        <ele>176.6</ele>
        <time>2022-08-10T14:29:15Z</time>
      </trkpt>
      <trkpt lat="44.99519" lon="0.62524">
        <ele>176.6</ele>
        <time>2022-08-10T14:29:17Z</time>
      </trkpt>
      <trkpt lat="44.99516" lon="0.62534">
        <ele>176.6</ele>
        <time>2022-08-10T14:29:19Z</time>
      </trkpt>
      <trkpt lat="44.99514" lon="0.6254">
        <ele>175.6</ele>
        <time>2022-08-10T14:29:20Z</time>
      </trkpt>
      <trkpt lat="44.99511" lon="0.6255">
        <ele>175.6</ele>
        <time>2022-08-10T14:29:22Z</time>
      </trkpt>
      <trkpt lat="44.99508" lon="0.62559">
        <ele>176.6</ele>
        <time>2022-08-10T14:29:24Z</time>
      </trkpt>
      <trkpt lat="44.99506" lon="0.62565">
        <ele>176.6</ele>
        <time>2022-08-10T14:29:25Z</time>
      </trkpt>
      <trkpt lat="44.99504" lon="0.62576">
        <ele>176.6</ele>
        <time>2022-08-10T14:29:27Z</time>
      </trkpt>
      <trkpt lat="44.995" lon="0.62587">
        <ele>176.6</ele>
        <time>2022-08-10T14:29:29Z</time>
      </trkpt>
      <trkpt lat="44.99497" lon="0.62595">
        <ele>175.6</ele>
        <time>2022-08-10T14:29:31Z</time>
      </trkpt>
      <trkpt lat="44.99495" lon="0.62601">
        <ele>176.6</ele>
        <time>2022-08-10T14:29:33Z</time>
      </trkpt>
      <trkpt lat="44.9949" lon="0.62603">
        <ele>176.6</ele>
        <time>2022-08-10T14:29:36Z</time>
      </trkpt>
      <trkpt lat="44.99484" lon="0.626">
        <ele>177.6</ele>
        <time>2022-08-10T14:29:39Z</time>
      </trkpt>
      <trkpt lat="44.99478" lon="0.626">
        <ele>177.6</ele>
        <time>2022-08-10T14:29:41Z</time>
      </trkpt>
      <trkpt lat="44.99474" lon="0.62602">
        <ele>178.6</ele>
        <time>2022-08-10T14:29:43Z</time>
      </trkpt>
      <trkpt lat="44.99467" lon="0.62602">
        <ele>181.6</ele>
        <time>2022-08-10T14:30:01Z</time>
      </trkpt>
      <trkpt lat="44.99462" lon="0.62604">
        <ele>181.6</ele>
        <time>2022-08-10T14:30:03Z</time>
      </trkpt>
      <trkpt lat="44.99457" lon="0.62606">
        <ele>181.6</ele>
        <time>2022-08-10T14:30:05Z</time>
      </trkpt>
      <trkpt lat="44.99452" lon="0.62608">
        <ele>181.6</ele>
        <time>2022-08-10T14:30:07Z</time>
      </trkpt>
      <trkpt lat="44.99448" lon="0.62611">
        <ele>181.6</ele>
        <time>2022-08-10T14:30:09Z</time>
      </trkpt>
      <trkpt lat="44.99442" lon="0.62614">
        <ele>181.6</ele>
        <time>2022-08-10T14:30:11Z</time>
      </trkpt>
      <trkpt lat="44.99435" lon="0.62618">
        <ele>180.6</ele>
        <time>2022-08-10T14:30:13Z</time>
      </trkpt>
      <trkpt lat="44.99428" lon="0.62623">
        <ele>180.6</ele>
        <time>2022-08-10T14:30:15Z</time>
      </trkpt>
      <trkpt lat="44.99424" lon="0.62626">
        <ele>179.6</ele>
        <time>2022-08-10T14:30:16Z</time>
      </trkpt>
      <trkpt lat="44.99417" lon="0.6263">
        <ele>178.6</ele>
        <time>2022-08-10T14:30:18Z</time>
      </trkpt>
      <trkpt lat="44.99412" lon="0.62636">
        <ele>178.6</ele>
        <time>2022-08-10T14:30:20Z</time>
      </trkpt>
      <trkpt lat="44.9941" lon="0.62641">
        <ele>179.6</ele>
        <time>2022-08-10T14:30:26Z</time>
      </trkpt>
      <trkpt lat="44.99406" lon="0.62636">
        <ele>180.6</ele>
        <time>2022-08-10T14:30:35Z</time>
      </trkpt>
      <trkpt lat="44.99404" lon="0.62629">
        <ele>180.6</ele>
        <time>2022-08-10T14:30:37Z</time>
      </trkpt>
      <trkpt lat="44.994" lon="0.6262">
        <ele>180.6</ele>
        <time>2022-08-10T14:30:39Z</time>
      </trkpt>
      <trkpt lat="44.99398" lon="0.62614">
        <ele>180.6</ele>
        <time>2022-08-10T14:30:40Z</time>
      </trkpt>
      <trkpt lat="44.99396" lon="0.62608">
        <ele>180.6</ele>
        <time>2022-08-10T14:30:41Z</time>
      </trkpt>
      <trkpt lat="44.99394" lon="0.62601">
        <ele>180.6</ele>
        <time>2022-08-10T14:30:42Z</time>
      </trkpt>
      <trkpt lat="44.99391" lon="0.62592">
        <ele>180.6</ele>
        <time>2022-08-10T14:30:43Z</time>
      </trkpt>
      <trkpt lat="44.99388" lon="0.62584">
        <ele>180.6</ele>
        <time>2022-08-10T14:30:44Z</time>
      </trkpt>
      <trkpt lat="44.99385" lon="0.62574">
        <ele>181.6</ele>
        <time>2022-08-10T14:30:45Z</time>
      </trkpt>
      <trkpt lat="44.99382" lon="0.62564">
        <ele>180.6</ele>
        <time>2022-08-10T14:30:46Z</time>
      </trkpt>
      <trkpt lat="44.99379" lon="0.62554">
        <ele>180.6</ele>
        <time>2022-08-10T14:30:47Z</time>
      </trkpt>
      <trkpt lat="44.99377" lon="0.62543">
        <ele>180.6</ele>
        <time>2022-08-10T14:30:48Z</time>
      </trkpt>
      <trkpt lat="44.99376" lon="0.62531">
        <ele>180.6</ele>
        <time>2022-08-10T14:30:49Z</time>
      </trkpt>
      <trkpt lat="44.99376" lon="0.62521">
        <ele>180.6</ele>
        <time>2022-08-10T14:30:50Z</time>
      </trkpt>
      <trkpt lat="44.99375" lon="0.6251">
        <ele>179.6</ele>
        <time>2022-08-10T14:30:51Z</time>
      </trkpt>
      <trkpt lat="44.99374" lon="0.625">
        <ele>179.6</ele>
        <time>2022-08-10T14:30:52Z</time>
      </trkpt>
      <trkpt lat="44.99374" lon="0.6249">
        <ele>179.6</ele>
        <time>2022-08-10T14:30:53Z</time>
      </trkpt>
      <trkpt lat="44.99373" lon="0.6248">
        <ele>178.6</ele>
        <time>2022-08-10T14:30:54Z</time>
      </trkpt>
      <trkpt lat="44.99372" lon="0.62471">
        <ele>179.6</ele>
        <time>2022-08-10T14:30:55Z</time>
      </trkpt>
      <trkpt lat="44.99371" lon="0.62462">
        <ele>179.6</ele>
        <time>2022-08-10T14:30:56Z</time>
      </trkpt>
      <trkpt lat="44.9937" lon="0.62455">
        <ele>179.6</ele>
        <time>2022-08-10T14:30:57Z</time>
      </trkpt>
      <trkpt lat="44.99369" lon="0.62448">
        <ele>179.6</ele>
        <time>2022-08-10T14:30:58Z</time>
      </trkpt>
      <trkpt lat="44.99367" lon="0.62438">
        <ele>179.6</ele>
        <time>2022-08-10T14:31:00Z</time>
      </trkpt>
      <trkpt lat="44.99365" lon="0.62429">
        <ele>179.6</ele>
        <time>2022-08-10T14:31:02Z</time>
      </trkpt>
      <trkpt lat="44.99364" lon="0.62422">
        <ele>179.6</ele>
        <time>2022-08-10T14:31:04Z</time>
      </trkpt>
      <trkpt lat="44.99363" lon="0.62414">
        <ele>179.6</ele>
        <time>2022-08-10T14:31:06Z</time>
      </trkpt>
      <trkpt lat="44.99362" lon="0.62407">
        <ele>179.6</ele>
        <time>2022-08-10T14:31:08Z</time>
      </trkpt>
      <trkpt lat="44.99361" lon="0.62398">
        <ele>178.6</ele>
        <time>2022-08-10T14:31:10Z</time>
      </trkpt>
      <trkpt lat="44.99362" lon="0.62391">
        <ele>178.6</ele>
        <time>2022-08-10T14:31:12Z</time>
      </trkpt>
      <trkpt lat="44.99361" lon="0.62383">
        <ele>178.6</ele>
        <time>2022-08-10T14:31:14Z</time>
      </trkpt>
      <trkpt lat="44.99361" lon="0.62375">
        <ele>178.6</ele>
        <time>2022-08-10T14:31:16Z</time>
      </trkpt>
      <trkpt lat="44.9936" lon="0.62367">
        <ele>178.6</ele>
        <time>2022-08-10T14:31:18Z</time>
      </trkpt>
      <trkpt lat="44.9936" lon="0.62359">
        <ele>178.6</ele>
        <time>2022-08-10T14:31:20Z</time>
      </trkpt>
      <trkpt lat="44.9936" lon="0.62352">
        <ele>178.6</ele>
        <time>2022-08-10T14:31:22Z</time>
      </trkpt>
      <trkpt lat="44.99359" lon="0.62343">
        <ele>178.6</ele>
        <time>2022-08-10T14:31:25Z</time>
      </trkpt>
      <trkpt lat="44.99359" lon="0.62334">
        <ele>179.6</ele>
        <time>2022-08-10T14:31:28Z</time>
      </trkpt>
      <trkpt lat="44.99358" lon="0.62328">
        <ele>179.6</ele>
        <time>2022-08-10T14:31:30Z</time>
      </trkpt>
      <trkpt lat="44.99358" lon="0.6232">
        <ele>178.6</ele>
        <time>2022-08-10T14:31:33Z</time>
      </trkpt>
      <trkpt lat="44.99359" lon="0.62313">
        <ele>177.6</ele>
        <time>2022-08-10T14:31:36Z</time>
      </trkpt>
      <trkpt lat="44.99358" lon="0.62305">
        <ele>177.6</ele>
        <time>2022-08-10T14:31:39Z</time>
      </trkpt>
      <trkpt lat="44.99357" lon="0.62298">
        <ele>177.6</ele>
        <time>2022-08-10T14:31:43Z</time>
      </trkpt>
      <trkpt lat="44.99354" lon="0.62292">
        <ele>176.6</ele>
        <time>2022-08-10T14:31:46Z</time>
      </trkpt>
      <trkpt lat="44.99353" lon="0.62285">
        <ele>176.6</ele>
        <time>2022-08-10T14:31:49Z</time>
      </trkpt>
      <trkpt lat="44.99352" lon="0.62278">
        <ele>175.6</ele>
        <time>2022-08-10T14:31:52Z</time>
      </trkpt>
      <trkpt lat="44.99352" lon="0.6227">
        <ele>175.6</ele>
        <time>2022-08-10T14:31:55Z</time>
      </trkpt>
      <trkpt lat="44.9935" lon="0.62263">
        <ele>175.6</ele>
        <time>2022-08-10T14:31:58Z</time>
      </trkpt>
      <trkpt lat="44.99348" lon="0.62256">
        <ele>175.6</ele>
        <time>2022-08-10T14:32:01Z</time>
      </trkpt>
      <trkpt lat="44.99346" lon="0.6225">
        <ele>174.6</ele>
        <time>2022-08-10T14:32:04Z</time>
      </trkpt>
      <trkpt lat="44.99345" lon="0.62242">
        <ele>174.6</ele>
        <time>2022-08-10T14:32:07Z</time>
      </trkpt>
      <trkpt lat="44.99344" lon="0.62235">
        <ele>174.6</ele>
        <time>2022-08-10T14:32:10Z</time>
      </trkpt>
      <trkpt lat="44.99341" lon="0.62228">
        <ele>174.6</ele>
        <time>2022-08-10T14:32:13Z</time>
      </trkpt>
      <trkpt lat="44.99338" lon="0.62222">
        <ele>173.6</ele>
        <time>2022-08-10T14:32:17Z</time>
      </trkpt>
      <trkpt lat="44.99335" lon="0.62217">
        <ele>173.6</ele>
        <time>2022-08-10T14:32:20Z</time>
      </trkpt>
      <trkpt lat="44.99333" lon="0.6221">
        <ele>173.6</ele>
        <time>2022-08-10T14:32:23Z</time>
      </trkpt>
      <trkpt lat="44.99332" lon="0.62203">
        <ele>174.6</ele>
        <time>2022-08-10T14:32:27Z</time>
      </trkpt>
      <trkpt lat="44.99332" lon="0.62194">
        <ele>173.6</ele>
        <time>2022-08-10T14:32:30Z</time>
      </trkpt>
      <trkpt lat="44.99332" lon="0.62186">
        <ele>173.6</ele>
        <time>2022-08-10T14:32:33Z</time>
      </trkpt>
      <trkpt lat="44.99332" lon="0.62178">
        <ele>173.6</ele>
        <time>2022-08-10T14:32:36Z</time>
      </trkpt>
      <trkpt lat="44.99332" lon="0.6217">
        <ele>173.6</ele>
        <time>2022-08-10T14:32:39Z</time>
      </trkpt>
      <trkpt lat="44.99332" lon="0.62163">
        <ele>173.6</ele>
        <time>2022-08-10T14:32:42Z</time>
      </trkpt>
      <trkpt lat="44.9933" lon="0.62154">
        <ele>174.6</ele>
        <time>2022-08-10T14:32:45Z</time>
      </trkpt>
      <trkpt lat="44.99329" lon="0.62146">
        <ele>175.6</ele>
        <time>2022-08-10T14:32:48Z</time>
      </trkpt>
      <trkpt lat="44.99328" lon="0.62138">
        <ele>173.6</ele>
        <time>2022-08-10T14:32:51Z</time>
      </trkpt>
      <trkpt lat="44.99326" lon="0.6213">
        <ele>172.6</ele>
        <time>2022-08-10T14:32:54Z</time>
      </trkpt>
      <trkpt lat="44.99325" lon="0.62121">
        <ele>171.6</ele>
        <time>2022-08-10T14:32:57Z</time>
      </trkpt>
      <trkpt lat="44.99324" lon="0.62114">
        <ele>170.6</ele>
        <time>2022-08-10T14:32:59Z</time>
      </trkpt>
      <trkpt lat="44.99323" lon="0.62106">
        <ele>170.6</ele>
        <time>2022-08-10T14:33:01Z</time>
      </trkpt>
      <trkpt lat="44.99322" lon="0.62099">
        <ele>170.6</ele>
        <time>2022-08-10T14:33:03Z</time>
      </trkpt>
      <trkpt lat="44.99321" lon="0.62093">
        <ele>170.6</ele>
        <time>2022-08-10T14:33:05Z</time>
      </trkpt>
      <trkpt lat="44.99321" lon="0.62085">
        <ele>169.6</ele>
        <time>2022-08-10T14:33:08Z</time>
      </trkpt>
      <trkpt lat="44.9932" lon="0.62077">
        <ele>169.6</ele>
        <time>2022-08-10T14:33:10Z</time>
      </trkpt>
      <trkpt lat="44.9932" lon="0.62065">
        <ele>168.6</ele>
        <time>2022-08-10T14:33:12Z</time>
      </trkpt>
      <trkpt lat="44.99319" lon="0.62054">
        <ele>168.6</ele>
        <time>2022-08-10T14:33:14Z</time>
      </trkpt>
      <trkpt lat="44.99318" lon="0.62044">
        <ele>168.6</ele>
        <time>2022-08-10T14:33:16Z</time>
      </trkpt>
      <trkpt lat="44.99318" lon="0.62037">
        <ele>168.6</ele>
        <time>2022-08-10T14:33:19Z</time>
      </trkpt>
      <trkpt lat="44.99317" lon="0.62031">
        <ele>168.6</ele>
        <time>2022-08-10T14:34:03Z</time>
      </trkpt>
      <trkpt lat="44.99318" lon="0.62022">
        <ele>168.6</ele>
        <time>2022-08-10T14:34:06Z</time>
      </trkpt>
      <trkpt lat="44.99319" lon="0.62015">
        <ele>168.6</ele>
        <time>2022-08-10T14:34:08Z</time>
      </trkpt>
      <trkpt lat="44.99318" lon="0.62006">
        <ele>168.6</ele>
        <time>2022-08-10T14:34:10Z</time>
      </trkpt>
      <trkpt lat="44.99318" lon="0.61992">
        <ele>167.6</ele>
        <time>2022-08-10T14:34:12Z</time>
      </trkpt>
      <trkpt lat="44.99319" lon="0.61983">
        <ele>167.6</ele>
        <time>2022-08-10T14:34:13Z</time>
      </trkpt>
      <trkpt lat="44.99319" lon="0.61974">
        <ele>166.6</ele>
        <time>2022-08-10T14:34:14Z</time>
      </trkpt>
      <trkpt lat="44.99319" lon="0.61963">
        <ele>165.6</ele>
        <time>2022-08-10T14:34:15Z</time>
      </trkpt>
      <trkpt lat="44.99318" lon="0.61952">
        <ele>165.6</ele>
        <time>2022-08-10T14:34:16Z</time>
      </trkpt>
      <trkpt lat="44.99318" lon="0.6194">
        <ele>164.6</ele>
        <time>2022-08-10T14:34:17Z</time>
      </trkpt>
      <trkpt lat="44.99317" lon="0.61926">
        <ele>164.6</ele>
        <time>2022-08-10T14:34:18Z</time>
      </trkpt>
      <trkpt lat="44.99316" lon="0.61912">
        <ele>164.6</ele>
        <time>2022-08-10T14:34:19Z</time>
      </trkpt>
      <trkpt lat="44.99315" lon="0.61898">
        <ele>163.6</ele>
        <time>2022-08-10T14:34:20Z</time>
      </trkpt>
      <trkpt lat="44.99314" lon="0.61883">
        <ele>163.6</ele>
        <time>2022-08-10T14:34:21Z</time>
      </trkpt>
      <trkpt lat="44.99313" lon="0.61868">
        <ele>164.6</ele>
        <time>2022-08-10T14:34:22Z</time>
      </trkpt>
      <trkpt lat="44.99311" lon="0.61853">
        <ele>164.6</ele>
        <time>2022-08-10T14:34:23Z</time>
      </trkpt>
      <trkpt lat="44.9931" lon="0.61838">
        <ele>164.6</ele>
        <time>2022-08-10T14:34:24Z</time>
      </trkpt>
      <trkpt lat="44.99308" lon="0.61824">
        <ele>164.6</ele>
        <time>2022-08-10T14:34:25Z</time>
      </trkpt>
      <trkpt lat="44.99305" lon="0.6181">
        <ele>165.6</ele>
        <time>2022-08-10T14:34:26Z</time>
      </trkpt>
      <trkpt lat="44.99302" lon="0.61798">
        <ele>165.6</ele>
        <time>2022-08-10T14:34:27Z</time>
      </trkpt>
      <trkpt lat="44.99299" lon="0.61788">
        <ele>165.6</ele>
        <time>2022-08-10T14:34:28Z</time>
      </trkpt>
      <trkpt lat="44.99295" lon="0.61779">
        <ele>166.6</ele>
        <time>2022-08-10T14:34:29Z</time>
      </trkpt>
      <trkpt lat="44.99292" lon="0.61771">
        <ele>166.6</ele>
        <time>2022-08-10T14:34:30Z</time>
      </trkpt>
      <trkpt lat="44.9929" lon="0.61764">
        <ele>166.6</ele>
        <time>2022-08-10T14:34:31Z</time>
      </trkpt>
      <trkpt lat="44.99285" lon="0.61754">
        <ele>165.6</ele>
        <time>2022-08-10T14:34:33Z</time>
      </trkpt>
      <trkpt lat="44.9928" lon="0.61745">
        <ele>164.6</ele>
        <time>2022-08-10T14:34:35Z</time>
      </trkpt>
      <trkpt lat="44.99275" lon="0.61738">
        <ele>163.6</ele>
        <time>2022-08-10T14:34:37Z</time>
      </trkpt>
      <trkpt lat="44.99271" lon="0.61731">
        <ele>164.6</ele>
        <time>2022-08-10T14:34:39Z</time>
      </trkpt>
      <trkpt lat="44.99268" lon="0.61724">
        <ele>164.6</ele>
        <time>2022-08-10T14:34:41Z</time>
      </trkpt>
      <trkpt lat="44.99265" lon="0.61718">
        <ele>164.6</ele>
        <time>2022-08-10T14:34:43Z</time>
      </trkpt>
      <trkpt lat="44.99262" lon="0.6171">
        <ele>164.6</ele>
        <time>2022-08-10T14:34:45Z</time>
      </trkpt>
      <trkpt lat="44.99259" lon="0.61703">
        <ele>164.6</ele>
        <time>2022-08-10T14:34:47Z</time>
      </trkpt>
      <trkpt lat="44.99255" lon="0.61695">
        <ele>165.6</ele>
        <time>2022-08-10T14:34:49Z</time>
      </trkpt>
      <trkpt lat="44.99253" lon="0.61687">
        <ele>166.6</ele>
        <time>2022-08-10T14:34:51Z</time>
      </trkpt>
      <trkpt lat="44.99252" lon="0.61679">
        <ele>167.6</ele>
        <time>2022-08-10T14:34:53Z</time>
      </trkpt>
      <trkpt lat="44.9925" lon="0.61669">
        <ele>168.6</ele>
        <time>2022-08-10T14:34:55Z</time>
      </trkpt>
      <trkpt lat="44.99248" lon="0.6166">
        <ele>169.6</ele>
        <time>2022-08-10T14:34:57Z</time>
      </trkpt>
      <trkpt lat="44.99246" lon="0.61652">
        <ele>169.6</ele>
        <time>2022-08-10T14:34:59Z</time>
      </trkpt>
      <trkpt lat="44.99245" lon="0.61644">
        <ele>170.6</ele>
        <time>2022-08-10T14:35:01Z</time>
      </trkpt>
      <trkpt lat="44.99243" lon="0.61636">
        <ele>170.6</ele>
        <time>2022-08-10T14:35:03Z</time>
      </trkpt>
      <trkpt lat="44.99241" lon="0.61626">
        <ele>171.6</ele>
        <time>2022-08-10T14:35:05Z</time>
      </trkpt>
      <trkpt lat="44.99239" lon="0.61616">
        <ele>171.6</ele>
        <time>2022-08-10T14:35:07Z</time>
      </trkpt>
      <trkpt lat="44.99238" lon="0.61605">
        <ele>172.6</ele>
        <time>2022-08-10T14:35:09Z</time>
      </trkpt>
      <trkpt lat="44.99237" lon="0.61595">
        <ele>172.6</ele>
        <time>2022-08-10T14:35:11Z</time>
      </trkpt>
      <trkpt lat="44.99236" lon="0.61586">
        <ele>173.6</ele>
        <time>2022-08-10T14:35:13Z</time>
      </trkpt>
      <trkpt lat="44.99235" lon="0.61578">
        <ele>174.6</ele>
        <time>2022-08-10T14:35:15Z</time>
      </trkpt>
      <trkpt lat="44.99234" lon="0.6157">
        <ele>174.6</ele>
        <time>2022-08-10T14:35:17Z</time>
      </trkpt>
      <trkpt lat="44.99233" lon="0.61561">
        <ele>175.6</ele>
        <time>2022-08-10T14:35:20Z</time>
      </trkpt>
      <trkpt lat="44.99234" lon="0.61552">
        <ele>175.6</ele>
        <time>2022-08-10T14:35:23Z</time>
      </trkpt>
      <trkpt lat="44.99233" lon="0.61544">
        <ele>176.6</ele>
        <time>2022-08-10T14:35:26Z</time>
      </trkpt>
      <trkpt lat="44.99233" lon="0.61537">
        <ele>176.6</ele>
        <time>2022-08-10T14:35:29Z</time>
      </trkpt>
      <trkpt lat="44.99232" lon="0.61528">
        <ele>177.6</ele>
        <time>2022-08-10T14:35:33Z</time>
      </trkpt>
      <trkpt lat="44.99232" lon="0.61521">
        <ele>177.6</ele>
        <time>2022-08-10T14:35:36Z</time>
      </trkpt>
      <trkpt lat="44.99232" lon="0.61514">
        <ele>177.6</ele>
        <time>2022-08-10T14:35:39Z</time>
      </trkpt>
      <trkpt lat="44.99233" lon="0.61506">
        <ele>178.6</ele>
        <time>2022-08-10T14:35:42Z</time>
      </trkpt>
      <trkpt lat="44.99234" lon="0.61499">
        <ele>178.6</ele>
        <time>2022-08-10T14:35:45Z</time>
      </trkpt>
      <trkpt lat="44.99234" lon="0.61491">
        <ele>178.6</ele>
        <time>2022-08-10T14:35:48Z</time>
      </trkpt>
      <trkpt lat="44.99235" lon="0.61484">
        <ele>179.6</ele>
        <time>2022-08-10T14:35:51Z</time>
      </trkpt>
      <trkpt lat="44.99234" lon="0.61477">
        <ele>179.6</ele>
        <time>2022-08-10T14:35:54Z</time>
      </trkpt>
      <trkpt lat="44.9923" lon="0.61471">
        <ele>179.6</ele>
        <time>2022-08-10T14:35:57Z</time>
      </trkpt>
      <trkpt lat="44.99225" lon="0.61467">
        <ele>179.6</ele>
        <time>2022-08-10T14:35:59Z</time>
      </trkpt>
      <trkpt lat="44.99218" lon="0.61463">
        <ele>179.6</ele>
        <time>2022-08-10T14:36:01Z</time>
      </trkpt>
      <trkpt lat="44.99211" lon="0.61458">
        <ele>179.6</ele>
        <time>2022-08-10T14:36:03Z</time>
      </trkpt>
      <trkpt lat="44.99206" lon="0.61449">
        <ele>179.6</ele>
        <time>2022-08-10T14:36:05Z</time>
      </trkpt>
      <trkpt lat="44.99199" lon="0.61442">
        <ele>179.6</ele>
        <time>2022-08-10T14:36:07Z</time>
      </trkpt>
      <trkpt lat="44.99193" lon="0.61434">
        <ele>179.6</ele>
        <time>2022-08-10T14:36:09Z</time>
      </trkpt>
      <trkpt lat="44.99187" lon="0.61427">
        <ele>179.6</ele>
        <time>2022-08-10T14:36:11Z</time>
      </trkpt>
      <trkpt lat="44.9918" lon="0.61421">
        <ele>179.6</ele>
        <time>2022-08-10T14:36:13Z</time>
      </trkpt>
      <trkpt lat="44.99172" lon="0.61415">
        <ele>179.6</ele>
        <time>2022-08-10T14:36:15Z</time>
      </trkpt>
      <trkpt lat="44.99168" lon="0.61414">
        <ele>179.6</ele>
        <time>2022-08-10T14:36:16Z</time>
      </trkpt>
      <trkpt lat="44.99163" lon="0.61412">
        <ele>180.6</ele>
        <time>2022-08-10T14:36:17Z</time>
      </trkpt>
      <trkpt lat="44.99158" lon="0.61411">
        <ele>179.6</ele>
        <time>2022-08-10T14:36:18Z</time>
      </trkpt>
      <trkpt lat="44.99154" lon="0.6141">
        <ele>180.6</ele>
        <time>2022-08-10T14:36:19Z</time>
      </trkpt>
      <trkpt lat="44.99148" lon="0.61409">
        <ele>180.6</ele>
        <time>2022-08-10T14:36:20Z</time>
      </trkpt>
      <trkpt lat="44.99144" lon="0.61408">
        <ele>180.6</ele>
        <time>2022-08-10T14:36:21Z</time>
      </trkpt>
      <trkpt lat="44.99135" lon="0.61404">
        <ele>180.6</ele>
        <time>2022-08-10T14:36:23Z</time>
      </trkpt>
      <trkpt lat="44.99126" lon="0.61403">
        <ele>179.6</ele>
        <time>2022-08-10T14:36:25Z</time>
      </trkpt>
      <trkpt lat="44.99122" lon="0.61403">
        <ele>179.6</ele>
        <time>2022-08-10T14:36:26Z</time>
      </trkpt>
      <trkpt lat="44.99117" lon="0.61402">
        <ele>179.6</ele>
        <time>2022-08-10T14:36:27Z</time>
      </trkpt>
      <trkpt lat="44.99112" lon="0.61399">
        <ele>179.6</ele>
        <time>2022-08-10T14:36:28Z</time>
      </trkpt>
      <trkpt lat="44.99106" lon="0.61397">
        <ele>178.6</ele>
        <time>2022-08-10T14:36:29Z</time>
      </trkpt>
      <trkpt lat="44.991" lon="0.61397">
        <ele>178.6</ele>
        <time>2022-08-10T14:36:30Z</time>
      </trkpt>
      <trkpt lat="44.99095" lon="0.61399">
        <ele>178.6</ele>
        <time>2022-08-10T14:36:31Z</time>
      </trkpt>
      <trkpt lat="44.99089" lon="0.61402">
        <ele>177.6</ele>
        <time>2022-08-10T14:36:32Z</time>
      </trkpt>
      <trkpt lat="44.99084" lon="0.61406">
        <ele>177.6</ele>
        <time>2022-08-10T14:36:33Z</time>
      </trkpt>
      <trkpt lat="44.99078" lon="0.61411">
        <ele>176.6</ele>
        <time>2022-08-10T14:36:34Z</time>
      </trkpt>
      <trkpt lat="44.99072" lon="0.61416">
        <ele>176.6</ele>
        <time>2022-08-10T14:36:35Z</time>
      </trkpt>
      <trkpt lat="44.99066" lon="0.61422">
        <ele>175.6</ele>
        <time>2022-08-10T14:36:36Z</time>
      </trkpt>
      <trkpt lat="44.99059" lon="0.61428">
        <ele>175.6</ele>
        <time>2022-08-10T14:36:37Z</time>
      </trkpt>
      <trkpt lat="44.99053" lon="0.61433">
        <ele>175.6</ele>
        <time>2022-08-10T14:36:38Z</time>
      </trkpt>
      <trkpt lat="44.99045" lon="0.61436">
        <ele>175.6</ele>
        <time>2022-08-10T14:36:39Z</time>
      </trkpt>
      <trkpt lat="44.99037" lon="0.61438">
        <ele>174.6</ele>
        <time>2022-08-10T14:36:40Z</time>
      </trkpt>
      <trkpt lat="44.99028" lon="0.61441">
        <ele>173.6</ele>
        <time>2022-08-10T14:36:41Z</time>
      </trkpt>
      <trkpt lat="44.99019" lon="0.61442">
        <ele>171.6</ele>
        <time>2022-08-10T14:36:42Z</time>
      </trkpt>
      <trkpt lat="44.9901" lon="0.61442">
        <ele>170.6</ele>
        <time>2022-08-10T14:36:43Z</time>
      </trkpt>
      <trkpt lat="44.99001" lon="0.61443">
        <ele>169.6</ele>
        <time>2022-08-10T14:36:44Z</time>
      </trkpt>
      <trkpt lat="44.98993" lon="0.61444">
        <ele>168.6</ele>
        <time>2022-08-10T14:36:45Z</time>
      </trkpt>
      <trkpt lat="44.98984" lon="0.61445">
        <ele>166.6</ele>
        <time>2022-08-10T14:36:46Z</time>
      </trkpt>
      <trkpt lat="44.98976" lon="0.61447">
        <ele>165.6</ele>
        <time>2022-08-10T14:36:47Z</time>
      </trkpt>
      <trkpt lat="44.98968" lon="0.61451">
        <ele>163.6</ele>
        <time>2022-08-10T14:36:48Z</time>
      </trkpt>
      <trkpt lat="44.98961" lon="0.61456">
        <ele>161.6</ele>
        <time>2022-08-10T14:36:49Z</time>
      </trkpt>
      <trkpt lat="44.98953" lon="0.6146">
        <ele>160.6</ele>
        <time>2022-08-10T14:36:50Z</time>
      </trkpt>
      <trkpt lat="44.98945" lon="0.61464">
        <ele>159.6</ele>
        <time>2022-08-10T14:36:51Z</time>
      </trkpt>
      <trkpt lat="44.98936" lon="0.61465">
        <ele>159.6</ele>
        <time>2022-08-10T14:36:52Z</time>
      </trkpt>
      <trkpt lat="44.98927" lon="0.61465">
        <ele>158.6</ele>
        <time>2022-08-10T14:36:53Z</time>
      </trkpt>
      <trkpt lat="44.98917" lon="0.61464">
        <ele>158.6</ele>
        <time>2022-08-10T14:36:54Z</time>
      </trkpt>
      <trkpt lat="44.98908" lon="0.61464">
        <ele>157.6</ele>
        <time>2022-08-10T14:36:55Z</time>
      </trkpt>
      <trkpt lat="44.98899" lon="0.61463">
        <ele>157.6</ele>
        <time>2022-08-10T14:36:56Z</time>
      </trkpt>
      <trkpt lat="44.9889" lon="0.61463">
        <ele>156.6</ele>
        <time>2022-08-10T14:36:57Z</time>
      </trkpt>
      <trkpt lat="44.98881" lon="0.61464">
        <ele>155.6</ele>
        <time>2022-08-10T14:36:58Z</time>
      </trkpt>
      <trkpt lat="44.98872" lon="0.61466">
        <ele>154.6</ele>
        <time>2022-08-10T14:36:59Z</time>
      </trkpt>
      <trkpt lat="44.98863" lon="0.6147">
        <ele>153.6</ele>
        <time>2022-08-10T14:37:00Z</time>
      </trkpt>
      <trkpt lat="44.98855" lon="0.61474">
        <ele>151.6</ele>
        <time>2022-08-10T14:37:01Z</time>
      </trkpt>
      <trkpt lat="44.98847" lon="0.61478">
        <ele>149.6</ele>
        <time>2022-08-10T14:37:02Z</time>
      </trkpt>
      <trkpt lat="44.9884" lon="0.61483">
        <ele>148.6</ele>
        <time>2022-08-10T14:37:03Z</time>
      </trkpt>
      <trkpt lat="44.98832" lon="0.61487">
        <ele>148.6</ele>
        <time>2022-08-10T14:37:04Z</time>
      </trkpt>
      <trkpt lat="44.98824" lon="0.61491">
        <ele>148.6</ele>
        <time>2022-08-10T14:37:05Z</time>
      </trkpt>
      <trkpt lat="44.98817" lon="0.61494">
        <ele>147.6</ele>
        <time>2022-08-10T14:37:06Z</time>
      </trkpt>
      <trkpt lat="44.98811" lon="0.61498">
        <ele>146.6</ele>
        <time>2022-08-10T14:37:07Z</time>
      </trkpt>
      <trkpt lat="44.98806" lon="0.61502">
        <ele>146.6</ele>
        <time>2022-08-10T14:37:08Z</time>
      </trkpt>
      <trkpt lat="44.98801" lon="0.61507">
        <ele>145.6</ele>
        <time>2022-08-10T14:37:09Z</time>
      </trkpt>
      <trkpt lat="44.98797" lon="0.6151">
        <ele>144.6</ele>
        <time>2022-08-10T14:37:10Z</time>
      </trkpt>
      <trkpt lat="44.98793" lon="0.61514">
        <ele>144.6</ele>
        <time>2022-08-10T14:37:11Z</time>
      </trkpt>
      <trkpt lat="44.98786" lon="0.61522">
        <ele>144.6</ele>
        <time>2022-08-10T14:37:13Z</time>
      </trkpt>
      <trkpt lat="44.98783" lon="0.61532">
        <ele>143.6</ele>
        <time>2022-08-10T14:37:15Z</time>
      </trkpt>
      <trkpt lat="44.98782" lon="0.6154">
        <ele>142.6</ele>
        <time>2022-08-10T14:37:16Z</time>
      </trkpt>
      <trkpt lat="44.98781" lon="0.61547">
        <ele>142.6</ele>
        <time>2022-08-10T14:37:17Z</time>
      </trkpt>
      <trkpt lat="44.98781" lon="0.61555">
        <ele>142.6</ele>
        <time>2022-08-10T14:37:18Z</time>
      </trkpt>
      <trkpt lat="44.98781" lon="0.61563">
        <ele>142.6</ele>
        <time>2022-08-10T14:37:19Z</time>
      </trkpt>
      <trkpt lat="44.98779" lon="0.61571">
        <ele>142.6</ele>
        <time>2022-08-10T14:37:20Z</time>
      </trkpt>
      <trkpt lat="44.98777" lon="0.61579">
        <ele>141.6</ele>
        <time>2022-08-10T14:37:21Z</time>
      </trkpt>
      <trkpt lat="44.98774" lon="0.61586">
        <ele>141.6</ele>
        <time>2022-08-10T14:37:22Z</time>
      </trkpt>
      <trkpt lat="44.98772" lon="0.61593">
        <ele>141.6</ele>
        <time>2022-08-10T14:37:23Z</time>
      </trkpt>
      <trkpt lat="44.9877" lon="0.616">
        <ele>141.6</ele>
        <time>2022-08-10T14:37:24Z</time>
      </trkpt>
      <trkpt lat="44.98769" lon="0.61607">
        <ele>141.6</ele>
        <time>2022-08-10T14:37:25Z</time>
      </trkpt>
      <trkpt lat="44.98769" lon="0.61618">
        <ele>141.6</ele>
        <time>2022-08-10T14:37:27Z</time>
      </trkpt>
      <trkpt lat="44.9877" lon="0.61629">
        <ele>141.6</ele>
        <time>2022-08-10T14:37:29Z</time>
      </trkpt>
      <trkpt lat="44.98771" lon="0.6164">
        <ele>140.6</ele>
        <time>2022-08-10T14:37:31Z</time>
      </trkpt>
      <trkpt lat="44.98772" lon="0.6165">
        <ele>140.6</ele>
        <time>2022-08-10T14:37:33Z</time>
      </trkpt>
      <trkpt lat="44.98774" lon="0.6166">
        <ele>140.6</ele>
        <time>2022-08-10T14:37:35Z</time>
      </trkpt>
      <trkpt lat="44.98776" lon="0.61671">
        <ele>139.6</ele>
        <time>2022-08-10T14:37:37Z</time>
      </trkpt>
      <trkpt lat="44.98779" lon="0.61682">
        <ele>138.6</ele>
        <time>2022-08-10T14:37:39Z</time>
      </trkpt>
      <trkpt lat="44.98781" lon="0.61692">
        <ele>138.6</ele>
        <time>2022-08-10T14:37:41Z</time>
      </trkpt>
      <trkpt lat="44.98783" lon="0.61697">
        <ele>137.6</ele>
        <time>2022-08-10T14:37:43Z</time>
      </trkpt>
      <trkpt lat="44.98785" lon="0.61704">
        <ele>137.6</ele>
        <time>2022-08-10T14:37:48Z</time>
      </trkpt>
      <trkpt lat="44.98786" lon="0.61711">
        <ele>137.6</ele>
        <time>2022-08-10T14:38:14Z</time>
      </trkpt>
      <trkpt lat="44.98787" lon="0.6172">
        <ele>138.6</ele>
        <time>2022-08-10T14:38:19Z</time>
      </trkpt>
      <trkpt lat="44.98789" lon="0.61728">
        <ele>138.6</ele>
        <time>2022-08-10T14:38:22Z</time>
      </trkpt>
      <trkpt lat="44.98791" lon="0.61737">
        <ele>138.6</ele>
        <time>2022-08-10T14:38:25Z</time>
      </trkpt>
      <trkpt lat="44.98791" lon="0.61744">
        <ele>138.6</ele>
        <time>2022-08-10T14:38:27Z</time>
      </trkpt>
      <trkpt lat="44.98792" lon="0.61751">
        <ele>137.6</ele>
        <time>2022-08-10T14:38:29Z</time>
      </trkpt>
      <trkpt lat="44.98794" lon="0.61757">
        <ele>137.6</ele>
        <time>2022-08-10T14:38:31Z</time>
      </trkpt>
      <trkpt lat="44.98795" lon="0.61764">
        <ele>137.6</ele>
        <time>2022-08-10T14:38:33Z</time>
      </trkpt>
      <trkpt lat="44.98796" lon="0.61773">
        <ele>137.6</ele>
        <time>2022-08-10T14:38:36Z</time>
      </trkpt>
      <trkpt lat="44.98798" lon="0.6178">
        <ele>137.6</ele>
        <time>2022-08-10T14:38:38Z</time>
      </trkpt>
      <trkpt lat="44.988" lon="0.61789">
        <ele>138.6</ele>
        <time>2022-08-10T14:38:41Z</time>
      </trkpt>
      <trkpt lat="44.988" lon="0.61796">
        <ele>137.6</ele>
        <time>2022-08-10T14:38:43Z</time>
      </trkpt>
      <trkpt lat="44.98799" lon="0.61806">
        <ele>136.6</ele>
        <time>2022-08-10T14:38:45Z</time>
      </trkpt>
      <trkpt lat="44.988" lon="0.61816">
        <ele>136.6</ele>
        <time>2022-08-10T14:38:47Z</time>
      </trkpt>
      <trkpt lat="44.98799" lon="0.61826">
        <ele>136.6</ele>
        <time>2022-08-10T14:38:49Z</time>
      </trkpt>
      <trkpt lat="44.98798" lon="0.61832">
        <ele>135.6</ele>
        <time>2022-08-10T14:39:04Z</time>
      </trkpt>
      <trkpt lat="44.98793" lon="0.61835">
        <ele>135.6</ele>
        <time>2022-08-10T14:39:08Z</time>
      </trkpt>
      <trkpt lat="44.98797" lon="0.61837">
        <ele>136.6</ele>
        <time>2022-08-10T14:39:41Z</time>
      </trkpt>
      <trkpt lat="44.98802" lon="0.61837">
        <ele>136.6</ele>
        <time>2022-08-10T14:39:52Z</time>
      </trkpt>
      <trkpt lat="44.98808" lon="0.61836">
        <ele>137.6</ele>
        <time>2022-08-10T14:39:56Z</time>
      </trkpt>
      <trkpt lat="44.98812" lon="0.61835">
        <ele>137.6</ele>
        <time>2022-08-10T14:40:01Z</time>
      </trkpt>
      <trkpt lat="44.98817" lon="0.61834">
        <ele>138.6</ele>
        <time>2022-08-10T14:40:19Z</time>
      </trkpt>
      <trkpt lat="44.98822" lon="0.61834">
        <ele>138.6</ele>
        <time>2022-08-10T14:40:31Z</time>
      </trkpt>
      <trkpt lat="44.98827" lon="0.61831">
        <ele>138.6</ele>
        <time>2022-08-10T14:40:38Z</time>
      </trkpt>
      <trkpt lat="44.98831" lon="0.61833">
        <ele>143.6</ele>
        <time>2022-08-10T14:40:54Z</time>
      </trkpt>
      <trkpt lat="44.98836" lon="0.61832">
        <ele>146.6</ele>
        <time>2022-08-10T14:41:05Z</time>
      </trkpt>
      <trkpt lat="44.98842" lon="0.6183">
        <ele>148.6</ele>
        <time>2022-08-10T14:41:11Z</time>
      </trkpt>
      <trkpt lat="44.98847" lon="0.61827">
        <ele>149.6</ele>
        <time>2022-08-10T14:41:15Z</time>
      </trkpt>
      <trkpt lat="44.98852" lon="0.61825">
        <ele>149.6</ele>
        <time>2022-08-10T14:41:18Z</time>
      </trkpt>
      <trkpt lat="44.98855" lon="0.6182">
        <ele>149.6</ele>
        <time>2022-08-10T14:41:25Z</time>
      </trkpt>
      <trkpt lat="44.98858" lon="0.61815">
        <ele>150.6</ele>
        <time>2022-08-10T14:41:30Z</time>
      </trkpt>
      <trkpt lat="44.98859" lon="0.61808">
        <ele>152.6</ele>
        <time>2022-08-10T14:41:42Z</time>
      </trkpt>
      <trkpt lat="44.98857" lon="0.61802">
        <ele>155.6</ele>
        <time>2022-08-10T14:41:58Z</time>
      </trkpt>
      <trkpt lat="44.98859" lon="0.61797">
        <ele>155.6</ele>
        <time>2022-08-10T14:42:50Z</time>
      </trkpt>
      <trkpt lat="44.98857" lon="0.61803">
        <ele>158.6</ele>
        <time>2022-08-10T14:43:07Z</time>
      </trkpt>
      <trkpt lat="44.9886" lon="0.61809">
        <ele>158.6</ele>
        <time>2022-08-10T14:44:47Z</time>
      </trkpt>
      <trkpt lat="44.98862" lon="0.61815">
        <ele>155.6</ele>
        <time>2022-08-10T14:44:53Z</time>
      </trkpt>
      <trkpt lat="44.98862" lon="0.61821">
        <ele>157.6</ele>
        <time>2022-08-10T14:45:00Z</time>
      </trkpt>
      <trkpt lat="44.98857" lon="0.61821">
        <ele>152.6</ele>
        <time>2022-08-10T14:45:13Z</time>
      </trkpt>
      <trkpt lat="44.98852" lon="0.61824">
        <ele>151.6</ele>
        <time>2022-08-10T14:45:16Z</time>
      </trkpt>
      <trkpt lat="44.98847" lon="0.61826">
        <ele>150.6</ele>
        <time>2022-08-10T14:45:20Z</time>
      </trkpt>
      <trkpt lat="44.98842" lon="0.61826">
        <ele>148.6</ele>
        <time>2022-08-10T14:45:23Z</time>
      </trkpt>
      <trkpt lat="44.98838" lon="0.6183">
        <ele>145.6</ele>
        <time>2022-08-10T14:45:28Z</time>
      </trkpt>
      <trkpt lat="44.98833" lon="0.61833">
        <ele>143.6</ele>
        <time>2022-08-10T14:45:31Z</time>
      </trkpt>
      <trkpt lat="44.98828" lon="0.61834">
        <ele>143.6</ele>
        <time>2022-08-10T14:45:34Z</time>
      </trkpt>
      <trkpt lat="44.98824" lon="0.61837">
        <ele>142.6</ele>
        <time>2022-08-10T14:45:38Z</time>
      </trkpt>
      <trkpt lat="44.98819" lon="0.61836">
        <ele>142.6</ele>
        <time>2022-08-10T14:46:01Z</time>
      </trkpt>
      <trkpt lat="44.98814" lon="0.61835">
        <ele>138.6</ele>
        <time>2022-08-10T14:46:21Z</time>
      </trkpt>
      <trkpt lat="44.98808" lon="0.61834">
        <ele>136.6</ele>
        <time>2022-08-10T14:46:25Z</time>
      </trkpt>
      <trkpt lat="44.98804" lon="0.61834">
        <ele>134.6</ele>
        <time>2022-08-10T14:46:29Z</time>
      </trkpt>
      <trkpt lat="44.98809" lon="0.61834">
        <ele>137.6</ele>
        <time>2022-08-10T14:46:57Z</time>
      </trkpt>
      <trkpt lat="44.98813" lon="0.61837">
        <ele>135.6</ele>
        <time>2022-08-10T14:47:02Z</time>
      </trkpt>
      <trkpt lat="44.98818" lon="0.61837">
        <ele>135.6</ele>
        <time>2022-08-10T14:47:07Z</time>
      </trkpt>
      <trkpt lat="44.98823" lon="0.61837">
        <ele>138.6</ele>
        <time>2022-08-10T14:47:18Z</time>
      </trkpt>
      <trkpt lat="44.98828" lon="0.61835">
        <ele>139.6</ele>
        <time>2022-08-10T14:47:29Z</time>
      </trkpt>
      <trkpt lat="44.98833" lon="0.61834">
        <ele>140.6</ele>
        <time>2022-08-10T14:47:37Z</time>
      </trkpt>
      <trkpt lat="44.98837" lon="0.61828">
        <ele>142.6</ele>
        <time>2022-08-10T14:47:41Z</time>
      </trkpt>
      <trkpt lat="44.98841" lon="0.61827">
        <ele>144.6</ele>
        <time>2022-08-10T14:47:49Z</time>
      </trkpt>
      <trkpt lat="44.98846" lon="0.61827">
        <ele>147.6</ele>
        <time>2022-08-10T14:47:56Z</time>
      </trkpt>
      <trkpt lat="44.98851" lon="0.61827">
        <ele>149.6</ele>
        <time>2022-08-10T14:48:04Z</time>
      </trkpt>
      <trkpt lat="44.98855" lon="0.61824">
        <ele>151.6</ele>
        <time>2022-08-10T14:48:11Z</time>
      </trkpt>
      <trkpt lat="44.98859" lon="0.6182">
        <ele>151.6</ele>
        <time>2022-08-10T14:48:17Z</time>
      </trkpt>
      <trkpt lat="44.98862" lon="0.61814">
        <ele>151.6</ele>
        <time>2022-08-10T14:48:23Z</time>
      </trkpt>
      <trkpt lat="44.98863" lon="0.61808">
        <ele>152.6</ele>
        <time>2022-08-10T14:48:32Z</time>
      </trkpt>
      <trkpt lat="44.98861" lon="0.61802">
        <ele>153.6</ele>
        <time>2022-08-10T14:48:55Z</time>
      </trkpt>
      <trkpt lat="44.98862" lon="0.61795">
        <ele>153.6</ele>
        <time>2022-08-10T14:49:00Z</time>
      </trkpt>
      <trkpt lat="44.98865" lon="0.61789">
        <ele>153.6</ele>
        <time>2022-08-10T14:49:05Z</time>
      </trkpt>
      <trkpt lat="44.98863" lon="0.61796">
        <ele>149.6</ele>
        <time>2022-08-10T14:49:25Z</time>
      </trkpt>
      <trkpt lat="44.98862" lon="0.61803">
        <ele>147.6</ele>
        <time>2022-08-10T14:49:31Z</time>
      </trkpt>
      <trkpt lat="44.98864" lon="0.61809">
        <ele>150.6</ele>
        <time>2022-08-10T14:50:05Z</time>
      </trkpt>
      <trkpt lat="44.98866" lon="0.61815">
        <ele>149.6</ele>
        <time>2022-08-10T14:50:10Z</time>
      </trkpt>
      <trkpt lat="44.98862" lon="0.61818">
        <ele>147.6</ele>
        <time>2022-08-10T14:50:14Z</time>
      </trkpt>
      <trkpt lat="44.98857" lon="0.61819">
        <ele>146.6</ele>
        <time>2022-08-10T14:50:17Z</time>
      </trkpt>
      <trkpt lat="44.98852" lon="0.6182">
        <ele>145.6</ele>
        <time>2022-08-10T14:50:21Z</time>
      </trkpt>
      <trkpt lat="44.98847" lon="0.6182">
        <ele>143.6</ele>
        <time>2022-08-10T14:50:25Z</time>
      </trkpt>
      <trkpt lat="44.98843" lon="0.61825">
        <ele>141.6</ele>
        <time>2022-08-10T14:50:29Z</time>
      </trkpt>
      <trkpt lat="44.98839" lon="0.61829">
        <ele>139.6</ele>
        <time>2022-08-10T14:50:34Z</time>
      </trkpt>
      <trkpt lat="44.98833" lon="0.61832">
        <ele>138.6</ele>
        <time>2022-08-10T14:50:37Z</time>
      </trkpt>
      <trkpt lat="44.98828" lon="0.61836">
        <ele>137.6</ele>
        <time>2022-08-10T14:50:40Z</time>
      </trkpt>
      <trkpt lat="44.98823" lon="0.61835">
        <ele>137.6</ele>
        <time>2022-08-10T14:50:48Z</time>
      </trkpt>
      <trkpt lat="44.98818" lon="0.61835">
        <ele>138.6</ele>
        <time>2022-08-10T14:51:07Z</time>
      </trkpt>
      <trkpt lat="44.98814" lon="0.61835">
        <ele>140.6</ele>
        <time>2022-08-10T14:51:10Z</time>
      </trkpt>
      <trkpt lat="44.98808" lon="0.61834">
        <ele>139.6</ele>
        <time>2022-08-10T14:51:14Z</time>
      </trkpt>
      <trkpt lat="44.98803" lon="0.61833">
        <ele>138.6</ele>
        <time>2022-08-10T14:51:19Z</time>
      </trkpt>
      <trkpt lat="44.98798" lon="0.61832">
        <ele>137.6</ele>
        <time>2022-08-10T14:51:23Z</time>
      </trkpt>
      <trkpt lat="44.98794" lon="0.61836">
        <ele>132.6</ele>
        <time>2022-08-10T14:51:42Z</time>
      </trkpt>
      <trkpt lat="44.9879" lon="0.61832">
        <ele>138.6</ele>
        <time>2022-08-10T14:52:19Z</time>
      </trkpt>
      <trkpt lat="44.9879" lon="0.61824">
        <ele>137.6</ele>
        <time>2022-08-10T14:52:22Z</time>
      </trkpt>
      <trkpt lat="44.98791" lon="0.61817">
        <ele>137.6</ele>
        <time>2022-08-10T14:52:24Z</time>
      </trkpt>
      <trkpt lat="44.98793" lon="0.61811">
        <ele>137.6</ele>
        <time>2022-08-10T14:52:26Z</time>
      </trkpt>
      <trkpt lat="44.98795" lon="0.61802">
        <ele>137.6</ele>
        <time>2022-08-10T14:52:29Z</time>
      </trkpt>
      <trkpt lat="44.98795" lon="0.61793">
        <ele>136.6</ele>
        <time>2022-08-10T14:52:32Z</time>
      </trkpt>
      <trkpt lat="44.98793" lon="0.61785">
        <ele>136.6</ele>
        <time>2022-08-10T14:52:35Z</time>
      </trkpt>
      <trkpt lat="44.98792" lon="0.61777">
        <ele>135.6</ele>
        <time>2022-08-10T14:52:37Z</time>
      </trkpt>
      <trkpt lat="44.98792" lon="0.61769">
        <ele>135.6</ele>
        <time>2022-08-10T14:52:39Z</time>
      </trkpt>
      <trkpt lat="44.9879" lon="0.61759">
        <ele>135.6</ele>
        <time>2022-08-10T14:52:41Z</time>
      </trkpt>
      <trkpt lat="44.98789" lon="0.61748">
        <ele>135.6</ele>
        <time>2022-08-10T14:52:43Z</time>
      </trkpt>
      <trkpt lat="44.98787" lon="0.61738">
        <ele>135.6</ele>
        <time>2022-08-10T14:52:45Z</time>
      </trkpt>
      <trkpt lat="44.98785" lon="0.61731">
        <ele>136.6</ele>
        <time>2022-08-10T14:52:46Z</time>
      </trkpt>
      <trkpt lat="44.98784" lon="0.61724">
        <ele>136.6</ele>
        <time>2022-08-10T14:52:47Z</time>
      </trkpt>
      <trkpt lat="44.98783" lon="0.61718">
        <ele>136.6</ele>
        <time>2022-08-10T14:52:48Z</time>
      </trkpt>
      <trkpt lat="44.9878" lon="0.61707">
        <ele>135.6</ele>
        <time>2022-08-10T14:52:50Z</time>
      </trkpt>
      <trkpt lat="44.98778" lon="0.617">
        <ele>135.6</ele>
        <time>2022-08-10T14:52:51Z</time>
      </trkpt>
      <trkpt lat="44.98776" lon="0.61693">
        <ele>135.6</ele>
        <time>2022-08-10T14:52:52Z</time>
      </trkpt>
      <trkpt lat="44.98775" lon="0.61685">
        <ele>136.6</ele>
        <time>2022-08-10T14:52:53Z</time>
      </trkpt>
      <trkpt lat="44.98773" lon="0.61679">
        <ele>136.6</ele>
        <time>2022-08-10T14:52:54Z</time>
      </trkpt>
      <trkpt lat="44.98772" lon="0.61672">
        <ele>137.6</ele>
        <time>2022-08-10T14:52:55Z</time>
      </trkpt>
      <trkpt lat="44.98771" lon="0.61665">
        <ele>137.6</ele>
        <time>2022-08-10T14:52:56Z</time>
      </trkpt>
      <trkpt lat="44.98771" lon="0.61655">
        <ele>137.6</ele>
        <time>2022-08-10T14:52:58Z</time>
      </trkpt>
      <trkpt lat="44.98771" lon="0.61646">
        <ele>137.6</ele>
        <time>2022-08-10T14:53:00Z</time>
      </trkpt>
      <trkpt lat="44.98771" lon="0.61638">
        <ele>137.6</ele>
        <time>2022-08-10T14:53:02Z</time>
      </trkpt>
      <trkpt lat="44.98771" lon="0.61629">
        <ele>137.6</ele>
        <time>2022-08-10T14:53:04Z</time>
      </trkpt>
      <trkpt lat="44.98772" lon="0.6162">
        <ele>137.6</ele>
        <time>2022-08-10T14:53:06Z</time>
      </trkpt>
      <trkpt lat="44.98774" lon="0.61608">
        <ele>136.6</ele>
        <time>2022-08-10T14:53:09Z</time>
      </trkpt>
      <trkpt lat="44.98776" lon="0.616">
        <ele>136.6</ele>
        <time>2022-08-10T14:53:11Z</time>
      </trkpt>
      <trkpt lat="44.98778" lon="0.61592">
        <ele>136.6</ele>
        <time>2022-08-10T14:53:13Z</time>
      </trkpt>
      <trkpt lat="44.9878" lon="0.61584">
        <ele>135.6</ele>
        <time>2022-08-10T14:53:16Z</time>
      </trkpt>
      <trkpt lat="44.98783" lon="0.61576">
        <ele>135.6</ele>
        <time>2022-08-10T14:53:19Z</time>
      </trkpt>
      <trkpt lat="44.98786" lon="0.61568">
        <ele>135.6</ele>
        <time>2022-08-10T14:53:22Z</time>
      </trkpt>
      <trkpt lat="44.98789" lon="0.61562">
        <ele>135.6</ele>
        <time>2022-08-10T14:53:25Z</time>
      </trkpt>
      <trkpt lat="44.9879" lon="0.61553">
        <ele>135.6</ele>
        <time>2022-08-10T14:53:28Z</time>
      </trkpt>
      <trkpt lat="44.9879" lon="0.61544">
        <ele>135.6</ele>
        <time>2022-08-10T14:53:31Z</time>
      </trkpt>
      <trkpt lat="44.98788" lon="0.61536">
        <ele>135.6</ele>
        <time>2022-08-10T14:53:34Z</time>
      </trkpt>
      <trkpt lat="44.98788" lon="0.61528">
        <ele>135.6</ele>
        <time>2022-08-10T14:53:38Z</time>
      </trkpt>
      <trkpt lat="44.98792" lon="0.61523">
        <ele>135.6</ele>
        <time>2022-08-10T14:53:42Z</time>
      </trkpt>
      <trkpt lat="44.98791" lon="0.61529">
        <ele>137.6</ele>
        <time>2022-08-10T14:53:58Z</time>
      </trkpt>
      <trkpt lat="44.98789" lon="0.61538">
        <ele>136.6</ele>
        <time>2022-08-10T14:54:00Z</time>
      </trkpt>
      <trkpt lat="44.98789" lon="0.61547">
        <ele>136.6</ele>
        <time>2022-08-10T14:54:02Z</time>
      </trkpt>
      <trkpt lat="44.9879" lon="0.61557">
        <ele>136.6</ele>
        <time>2022-08-10T14:54:04Z</time>
      </trkpt>
      <trkpt lat="44.98788" lon="0.61565">
        <ele>135.6</ele>
        <time>2022-08-10T14:54:06Z</time>
      </trkpt>
      <trkpt lat="44.98786" lon="0.61572">
        <ele>134.6</ele>
        <time>2022-08-10T14:54:09Z</time>
      </trkpt>
      <trkpt lat="44.98785" lon="0.61579">
        <ele>134.6</ele>
        <time>2022-08-10T14:54:11Z</time>
      </trkpt>
      <trkpt lat="44.98783" lon="0.61587">
        <ele>134.6</ele>
        <time>2022-08-10T14:54:13Z</time>
      </trkpt>
      <trkpt lat="44.98781" lon="0.61597">
        <ele>134.6</ele>
        <time>2022-08-10T14:54:15Z</time>
      </trkpt>
      <trkpt lat="44.9878" lon="0.61606">
        <ele>132.6</ele>
        <time>2022-08-10T14:54:17Z</time>
      </trkpt>
      <trkpt lat="44.9878" lon="0.61616">
        <ele>131.6</ele>
        <time>2022-08-10T14:54:19Z</time>
      </trkpt>
      <trkpt lat="44.9878" lon="0.61626">
        <ele>131.6</ele>
        <time>2022-08-10T14:54:21Z</time>
      </trkpt>
      <trkpt lat="44.9878" lon="0.61636">
        <ele>131.6</ele>
        <time>2022-08-10T14:54:23Z</time>
      </trkpt>
      <trkpt lat="44.98781" lon="0.61646">
        <ele>130.6</ele>
        <time>2022-08-10T14:54:25Z</time>
      </trkpt>
      <trkpt lat="44.98781" lon="0.61656">
        <ele>130.6</ele>
        <time>2022-08-10T14:54:27Z</time>
      </trkpt>
      <trkpt lat="44.98781" lon="0.61665">
        <ele>130.6</ele>
        <time>2022-08-10T14:54:29Z</time>
      </trkpt>
      <trkpt lat="44.98782" lon="0.61673">
        <ele>129.6</ele>
        <time>2022-08-10T14:54:31Z</time>
      </trkpt>
      <trkpt lat="44.98783" lon="0.61682">
        <ele>129.6</ele>
        <time>2022-08-10T14:54:33Z</time>
      </trkpt>
      <trkpt lat="44.98783" lon="0.61689">
        <ele>129.6</ele>
        <time>2022-08-10T14:54:35Z</time>
      </trkpt>
      <trkpt lat="44.98785" lon="0.61697">
        <ele>129.6</ele>
        <time>2022-08-10T14:54:38Z</time>
      </trkpt>
      <trkpt lat="44.98787" lon="0.61703">
        <ele>128.6</ele>
        <time>2022-08-10T14:54:41Z</time>
      </trkpt>
      <trkpt lat="44.98789" lon="0.61711">
        <ele>128.6</ele>
        <time>2022-08-10T14:54:44Z</time>
      </trkpt>
      <trkpt lat="44.98791" lon="0.61719">
        <ele>128.6</ele>
        <time>2022-08-10T14:54:47Z</time>
      </trkpt>
      <trkpt lat="44.98792" lon="0.61727">
        <ele>128.6</ele>
        <time>2022-08-10T14:54:49Z</time>
      </trkpt>
      <trkpt lat="44.98793" lon="0.61734">
        <ele>129.6</ele>
        <time>2022-08-10T14:54:51Z</time>
      </trkpt>
      <trkpt lat="44.98794" lon="0.61743">
        <ele>128.6</ele>
        <time>2022-08-10T14:54:54Z</time>
      </trkpt>
      <trkpt lat="44.98796" lon="0.61749">
        <ele>128.6</ele>
        <time>2022-08-10T14:54:56Z</time>
      </trkpt>
      <trkpt lat="44.98797" lon="0.61756">
        <ele>128.6</ele>
        <time>2022-08-10T14:54:58Z</time>
      </trkpt>
      <trkpt lat="44.98798" lon="0.61763">
        <ele>128.6</ele>
        <time>2022-08-10T14:55:00Z</time>
      </trkpt>
      <trkpt lat="44.98799" lon="0.61772">
        <ele>129.6</ele>
        <time>2022-08-10T14:55:03Z</time>
      </trkpt>
      <trkpt lat="44.988" lon="0.61781">
        <ele>129.6</ele>
        <time>2022-08-10T14:55:06Z</time>
      </trkpt>
      <trkpt lat="44.988" lon="0.6179">
        <ele>129.6</ele>
        <time>2022-08-10T14:55:09Z</time>
      </trkpt>
      <trkpt lat="44.988" lon="0.61798">
        <ele>129.6</ele>
        <time>2022-08-10T14:55:11Z</time>
      </trkpt>
      <trkpt lat="44.988" lon="0.61807">
        <ele>128.6</ele>
        <time>2022-08-10T14:55:13Z</time>
      </trkpt>
      <trkpt lat="44.98797" lon="0.61818">
        <ele>128.6</ele>
        <time>2022-08-10T14:55:15Z</time>
      </trkpt>
      <trkpt lat="44.98796" lon="0.61828">
        <ele>128.6</ele>
        <time>2022-08-10T14:55:17Z</time>
      </trkpt>
      <trkpt lat="44.98798" lon="0.61834">
        <ele>128.6</ele>
        <time>2022-08-10T14:55:35Z</time>
      </trkpt>
      <trkpt lat="44.98803" lon="0.61832">
        <ele>128.6</ele>
        <time>2022-08-10T14:55:43Z</time>
      </trkpt>
      <trkpt lat="44.98808" lon="0.61833">
        <ele>129.6</ele>
        <time>2022-08-10T14:55:50Z</time>
      </trkpt>
      <trkpt lat="44.98813" lon="0.61833">
        <ele>130.6</ele>
        <time>2022-08-10T14:56:23Z</time>
      </trkpt>
      <trkpt lat="44.98818" lon="0.61833">
        <ele>134.6</ele>
        <time>2022-08-10T14:56:39Z</time>
      </trkpt>
      <trkpt lat="44.98822" lon="0.61834">
        <ele>136.6</ele>
        <time>2022-08-10T14:56:55Z</time>
      </trkpt>
      <trkpt lat="44.98827" lon="0.61834">
        <ele>137.6</ele>
        <time>2022-08-10T14:57:02Z</time>
      </trkpt>
      <trkpt lat="44.98831" lon="0.61837">
        <ele>137.6</ele>
        <time>2022-08-10T14:57:09Z</time>
      </trkpt>
      <trkpt lat="44.98836" lon="0.61837">
        <ele>139.6</ele>
        <time>2022-08-10T14:57:15Z</time>
      </trkpt>
      <trkpt lat="44.98841" lon="0.61836">
        <ele>139.6</ele>
        <time>2022-08-10T14:57:24Z</time>
      </trkpt>
      <trkpt lat="44.98845" lon="0.61833">
        <ele>140.6</ele>
        <time>2022-08-10T14:57:29Z</time>
      </trkpt>
      <trkpt lat="44.9885" lon="0.61834">
        <ele>140.6</ele>
        <time>2022-08-10T14:57:35Z</time>
      </trkpt>
      <trkpt lat="44.98855" lon="0.61835">
        <ele>141.6</ele>
        <time>2022-08-10T14:57:43Z</time>
      </trkpt>
      <trkpt lat="44.98858" lon="0.61831">
        <ele>143.6</ele>
        <time>2022-08-10T14:57:48Z</time>
      </trkpt>
      <trkpt lat="44.98862" lon="0.61825">
        <ele>146.6</ele>
        <time>2022-08-10T14:57:52Z</time>
      </trkpt>
      <trkpt lat="44.98864" lon="0.61819">
        <ele>147.6</ele>
        <time>2022-08-10T14:57:56Z</time>
      </trkpt>
      <trkpt lat="44.98864" lon="0.61812">
        <ele>149.6</ele>
        <time>2022-08-10T14:58:07Z</time>
      </trkpt>
      <trkpt lat="44.98863" lon="0.61806">
        <ele>152.6</ele>
        <time>2022-08-10T14:58:21Z</time>
      </trkpt>
      <trkpt lat="44.98865" lon="0.618">
        <ele>152.6</ele>
        <time>2022-08-10T14:58:33Z</time>
      </trkpt>
      <trkpt lat="44.98862" lon="0.61796">
        <ele>154.6</ele>
        <time>2022-08-10T14:58:57Z</time>
      </trkpt>
      <trkpt lat="44.98864" lon="0.61802">
        <ele>153.6</ele>
        <time>2022-08-10T14:59:02Z</time>
      </trkpt>
      <trkpt lat="44.98865" lon="0.61809">
        <ele>154.6</ele>
        <time>2022-08-10T14:59:23Z</time>
      </trkpt>
      <trkpt lat="44.98866" lon="0.61816">
        <ele>153.6</ele>
        <time>2022-08-10T14:59:29Z</time>
      </trkpt>
      <trkpt lat="44.98862" lon="0.6182">
        <ele>151.6</ele>
        <time>2022-08-10T14:59:36Z</time>
      </trkpt>
      <trkpt lat="44.98857" lon="0.61821">
        <ele>149.6</ele>
        <time>2022-08-10T14:59:40Z</time>
      </trkpt>
      <trkpt lat="44.98851" lon="0.61823">
        <ele>147.6</ele>
        <time>2022-08-10T14:59:46Z</time>
      </trkpt>
      <trkpt lat="44.98847" lon="0.61825">
        <ele>145.6</ele>
        <time>2022-08-10T14:59:50Z</time>
      </trkpt>
      <trkpt lat="44.98842" lon="0.61829">
        <ele>144.6</ele>
        <time>2022-08-10T14:59:56Z</time>
      </trkpt>
      <trkpt lat="44.98836" lon="0.61831">
        <ele>142.6</ele>
        <time>2022-08-10T15:00:00Z</time>
      </trkpt>
      <trkpt lat="44.9883" lon="0.61834">
        <ele>141.6</ele>
        <time>2022-08-10T15:00:03Z</time>
      </trkpt>
      <trkpt lat="44.98825" lon="0.61835">
        <ele>141.6</ele>
        <time>2022-08-10T15:00:06Z</time>
      </trkpt>
      <trkpt lat="44.98821" lon="0.61836">
        <ele>141.6</ele>
        <time>2022-08-10T15:00:30Z</time>
      </trkpt>
      <trkpt lat="44.98815" lon="0.61836">
        <ele>143.6</ele>
        <time>2022-08-10T15:00:43Z</time>
      </trkpt>
      <trkpt lat="44.98809" lon="0.61835">
        <ele>143.6</ele>
        <time>2022-08-10T15:00:47Z</time>
      </trkpt>
      <trkpt lat="44.98804" lon="0.61834">
        <ele>142.6</ele>
        <time>2022-08-10T15:00:53Z</time>
      </trkpt>
      <trkpt lat="44.98799" lon="0.61834">
        <ele>141.6</ele>
        <time>2022-08-10T15:01:01Z</time>
      </trkpt>
      <trkpt lat="44.98793" lon="0.61833">
        <ele>142.6</ele>
        <time>2022-08-10T15:01:07Z</time>
      </trkpt>
      <trkpt lat="44.98788" lon="0.61835">
        <ele>141.6</ele>
        <time>2022-08-10T15:01:17Z</time>
      </trkpt>
      <trkpt lat="44.98785" lon="0.6184">
        <ele>140.6</ele>
        <time>2022-08-10T15:01:23Z</time>
      </trkpt>
      <trkpt lat="44.98784" lon="0.61849">
        <ele>141.6</ele>
        <time>2022-08-10T15:01:31Z</time>
      </trkpt>
      <trkpt lat="44.98784" lon="0.61857">
        <ele>141.6</ele>
        <time>2022-08-10T15:01:33Z</time>
      </trkpt>
      <trkpt lat="44.98784" lon="0.61864">
        <ele>140.6</ele>
        <time>2022-08-10T15:01:35Z</time>
      </trkpt>
      <trkpt lat="44.98785" lon="0.61872">
        <ele>140.6</ele>
        <time>2022-08-10T15:01:37Z</time>
      </trkpt>
      <trkpt lat="44.98785" lon="0.61879">
        <ele>140.6</ele>
        <time>2022-08-10T15:01:39Z</time>
      </trkpt>
      <trkpt lat="44.98786" lon="0.61887">
        <ele>139.6</ele>
        <time>2022-08-10T15:01:41Z</time>
      </trkpt>
      <trkpt lat="44.98786" lon="0.61894">
        <ele>139.6</ele>
        <time>2022-08-10T15:01:43Z</time>
      </trkpt>
      <trkpt lat="44.98786" lon="0.61902">
        <ele>139.6</ele>
        <time>2022-08-10T15:01:45Z</time>
      </trkpt>
      <trkpt lat="44.98786" lon="0.61911">
        <ele>139.6</ele>
        <time>2022-08-10T15:01:47Z</time>
      </trkpt>
      <trkpt lat="44.98786" lon="0.61918">
        <ele>138.6</ele>
        <time>2022-08-10T15:01:49Z</time>
      </trkpt>
      <trkpt lat="44.98785" lon="0.61925">
        <ele>138.6</ele>
        <time>2022-08-10T15:01:51Z</time>
      </trkpt>
      <trkpt lat="44.98785" lon="0.61932">
        <ele>138.6</ele>
        <time>2022-08-10T15:01:53Z</time>
      </trkpt>
      <trkpt lat="44.98784" lon="0.61939">
        <ele>138.6</ele>
        <time>2022-08-10T15:01:55Z</time>
      </trkpt>
      <trkpt lat="44.98784" lon="0.61946">
        <ele>138.6</ele>
        <time>2022-08-10T15:01:57Z</time>
      </trkpt>
      <trkpt lat="44.98784" lon="0.61953">
        <ele>138.6</ele>
        <time>2022-08-10T15:01:59Z</time>
      </trkpt>
      <trkpt lat="44.98783" lon="0.6196">
        <ele>137.6</ele>
        <time>2022-08-10T15:02:01Z</time>
      </trkpt>
      <trkpt lat="44.98782" lon="0.61968">
        <ele>137.6</ele>
        <time>2022-08-10T15:02:03Z</time>
      </trkpt>
      <trkpt lat="44.98782" lon="0.61975">
        <ele>137.6</ele>
        <time>2022-08-10T15:02:05Z</time>
      </trkpt>
      <trkpt lat="44.9878" lon="0.61983">
        <ele>136.6</ele>
        <time>2022-08-10T15:02:07Z</time>
      </trkpt>
      <trkpt lat="44.98779" lon="0.61992">
        <ele>136.6</ele>
        <time>2022-08-10T15:02:09Z</time>
      </trkpt>
      <trkpt lat="44.98778" lon="0.62001">
        <ele>135.6</ele>
        <time>2022-08-10T15:02:11Z</time>
      </trkpt>
      <trkpt lat="44.98778" lon="0.62008">
        <ele>135.6</ele>
        <time>2022-08-10T15:02:13Z</time>
      </trkpt>
      <trkpt lat="44.98777" lon="0.62016">
        <ele>136.6</ele>
        <time>2022-08-10T15:02:15Z</time>
      </trkpt>
      <trkpt lat="44.98777" lon="0.62023">
        <ele>135.6</ele>
        <time>2022-08-10T15:02:17Z</time>
      </trkpt>
      <trkpt lat="44.98777" lon="0.6203">
        <ele>135.6</ele>
        <time>2022-08-10T15:02:19Z</time>
      </trkpt>
      <trkpt lat="44.98777" lon="0.62038">
        <ele>136.6</ele>
        <time>2022-08-10T15:02:21Z</time>
      </trkpt>
      <trkpt lat="44.98777" lon="0.62046">
        <ele>136.6</ele>
        <time>2022-08-10T15:02:24Z</time>
      </trkpt>
      <trkpt lat="44.98777" lon="0.62052">
        <ele>136.6</ele>
        <time>2022-08-10T15:02:27Z</time>
      </trkpt>
      <trkpt lat="44.98776" lon="0.6206">
        <ele>135.6</ele>
        <time>2022-08-10T15:02:40Z</time>
      </trkpt>
      <trkpt lat="44.98774" lon="0.62068">
        <ele>136.6</ele>
        <time>2022-08-10T15:02:44Z</time>
      </trkpt>
      <trkpt lat="44.98772" lon="0.62076">
        <ele>136.6</ele>
        <time>2022-08-10T15:02:48Z</time>
      </trkpt>
      <trkpt lat="44.9877" lon="0.62082">
        <ele>137.6</ele>
        <time>2022-08-10T15:02:53Z</time>
      </trkpt>
      <trkpt lat="44.98768" lon="0.6209">
        <ele>137.6</ele>
        <time>2022-08-10T15:02:59Z</time>
      </trkpt>
      <trkpt lat="44.98766" lon="0.62098">
        <ele>137.6</ele>
        <time>2022-08-10T15:03:03Z</time>
      </trkpt>
      <trkpt lat="44.98764" lon="0.62104">
        <ele>139.6</ele>
        <time>2022-08-10T15:03:07Z</time>
      </trkpt>
      <trkpt lat="44.98762" lon="0.62111">
        <ele>140.6</ele>
        <time>2022-08-10T15:03:14Z</time>
      </trkpt>
      <trkpt lat="44.98761" lon="0.62117">
        <ele>140.6</ele>
        <time>2022-08-10T15:03:18Z</time>
      </trkpt>
      <trkpt lat="44.9876" lon="0.62123">
        <ele>139.6</ele>
        <time>2022-08-10T15:03:22Z</time>
      </trkpt>
      <trkpt lat="44.98759" lon="0.62129">
        <ele>141.6</ele>
        <time>2022-08-10T15:03:26Z</time>
      </trkpt>
      <trkpt lat="44.98757" lon="0.62136">
        <ele>141.6</ele>
        <time>2022-08-10T15:03:31Z</time>
      </trkpt>
      <trkpt lat="44.98756" lon="0.62143">
        <ele>141.6</ele>
        <time>2022-08-10T15:03:35Z</time>
      </trkpt>
      <trkpt lat="44.98755" lon="0.6215">
        <ele>140.6</ele>
        <time>2022-08-10T15:03:39Z</time>
      </trkpt>
      <trkpt lat="44.98754" lon="0.62158">
        <ele>139.6</ele>
        <time>2022-08-10T15:03:43Z</time>
      </trkpt>
      <trkpt lat="44.98752" lon="0.62166">
        <ele>140.6</ele>
        <time>2022-08-10T15:03:47Z</time>
      </trkpt>
      <trkpt lat="44.98752" lon="0.62174">
        <ele>141.6</ele>
        <time>2022-08-10T15:03:51Z</time>
      </trkpt>
      <trkpt lat="44.98752" lon="0.62181">
        <ele>141.6</ele>
        <time>2022-08-10T15:03:55Z</time>
      </trkpt>
      <trkpt lat="44.98751" lon="0.62187">
        <ele>141.6</ele>
        <time>2022-08-10T15:03:59Z</time>
      </trkpt>
      <trkpt lat="44.98751" lon="0.62196">
        <ele>141.6</ele>
        <time>2022-08-10T15:04:04Z</time>
      </trkpt>
      <trkpt lat="44.9875" lon="0.62204">
        <ele>141.6</ele>
        <time>2022-08-10T15:04:08Z</time>
      </trkpt>
      <trkpt lat="44.9875" lon="0.62212">
        <ele>141.6</ele>
        <time>2022-08-10T15:04:12Z</time>
      </trkpt>
      <trkpt lat="44.9875" lon="0.62219">
        <ele>140.6</ele>
        <time>2022-08-10T15:04:15Z</time>
      </trkpt>
      <trkpt lat="44.98751" lon="0.62226">
        <ele>140.6</ele>
        <time>2022-08-10T15:04:19Z</time>
      </trkpt>
      <trkpt lat="44.98751" lon="0.62233">
        <ele>140.6</ele>
        <time>2022-08-10T15:04:23Z</time>
      </trkpt>
      <trkpt lat="44.9875" lon="0.62241">
        <ele>141.6</ele>
        <time>2022-08-10T15:04:27Z</time>
      </trkpt>
      <trkpt lat="44.98751" lon="0.62248">
        <ele>141.6</ele>
        <time>2022-08-10T15:04:31Z</time>
      </trkpt>
      <trkpt lat="44.98752" lon="0.62254">
        <ele>141.6</ele>
        <time>2022-08-10T15:04:35Z</time>
      </trkpt>
      <trkpt lat="44.98752" lon="0.62261">
        <ele>142.6</ele>
        <time>2022-08-10T15:04:39Z</time>
      </trkpt>
      <trkpt lat="44.9875" lon="0.62267">
        <ele>138.6</ele>
        <time>2022-08-10T15:04:44Z</time>
      </trkpt>
      <trkpt lat="44.98745" lon="0.62266">
        <ele>137.6</ele>
        <time>2022-08-10T15:04:48Z</time>
      </trkpt>
      <trkpt lat="44.98743" lon="0.6226">
        <ele>136.6</ele>
        <time>2022-08-10T15:04:52Z</time>
      </trkpt>
      <trkpt lat="44.98743" lon="0.62253">
        <ele>136.6</ele>
        <time>2022-08-10T15:04:55Z</time>
      </trkpt>
      <trkpt lat="44.98745" lon="0.62246">
        <ele>135.6</ele>
        <time>2022-08-10T15:04:59Z</time>
      </trkpt>
      <trkpt lat="44.98745" lon="0.62239">
        <ele>135.6</ele>
        <time>2022-08-10T15:05:03Z</time>
      </trkpt>
      <trkpt lat="44.98745" lon="0.62233">
        <ele>135.6</ele>
        <time>2022-08-10T15:05:07Z</time>
      </trkpt>
      <trkpt lat="44.98743" lon="0.62226">
        <ele>135.6</ele>
        <time>2022-08-10T15:05:12Z</time>
      </trkpt>
      <trkpt lat="44.9874" lon="0.62221">
        <ele>137.6</ele>
        <time>2022-08-10T15:05:25Z</time>
      </trkpt>
      <trkpt lat="44.9874" lon="0.62214">
        <ele>139.6</ele>
        <time>2022-08-10T15:06:29Z</time>
      </trkpt>
      <trkpt lat="44.98741" lon="0.62221">
        <ele>143.6</ele>
        <time>2022-08-10T15:08:23Z</time>
      </trkpt>
      <trkpt lat="44.98738" lon="0.62228">
        <ele>147.6</ele>
        <time>2022-08-10T15:13:21Z</time>
      </trkpt>
      <trkpt lat="44.98738" lon="0.62221">
        <ele>147.6</ele>
        <time>2022-08-10T15:15:16Z</time>
      </trkpt>
      <trkpt lat="44.98743" lon="0.62219">
        <ele>141.6</ele>
        <time>2022-08-10T15:15:25Z</time>
      </trkpt>
      <trkpt lat="44.98746" lon="0.62224">
        <ele>141.6</ele>
        <time>2022-08-10T15:15:45Z</time>
      </trkpt>
      <trkpt lat="44.98745" lon="0.62231">
        <ele>136.5</ele>
        <time>2022-08-10T15:15:45Z</time>
      </trkpt>
      <trkpt lat="44.98743" lon="0.62225">
        <ele>142.5</ele>
        <time>2022-08-10T15:16:27Z</time>
      </trkpt>
      <trkpt lat="44.98747" lon="0.6222">
        <ele>145.5</ele>
        <time>2022-08-10T15:16:37Z</time>
      </trkpt>
      <trkpt lat="44.98754" lon="0.62216">
        <ele>145.5</ele>
        <time>2022-08-10T15:16:39Z</time>
      </trkpt>
      <trkpt lat="44.98758" lon="0.62219">
        <ele>144.5</ele>
        <time>2022-08-10T15:16:44Z</time>
      </trkpt>
      <trkpt lat="44.98754" lon="0.62222">
        <ele>143.5</ele>
        <time>2022-08-10T15:16:49Z</time>
      </trkpt>
      <trkpt lat="44.98749" lon="0.62223">
        <ele>143.5</ele>
        <time>2022-08-10T15:16:51Z</time>
      </trkpt>
      <trkpt lat="44.98745" lon="0.62226">
        <ele>143.5</ele>
        <time>2022-08-10T15:17:06Z</time>
      </trkpt>
      <trkpt lat="44.98739" lon="0.62226">
        <ele>142.5</ele>
        <time>2022-08-10T15:17:11Z</time>
      </trkpt>
      <trkpt lat="44.98739" lon="0.62218">
        <ele>150.5</ele>
        <time>2022-08-10T15:19:37Z</time>
      </trkpt>
      <trkpt lat="44.98744" lon="0.62221">
        <ele>140.5</ele>
        <time>2022-08-10T15:21:04Z</time>
      </trkpt>
      <trkpt lat="44.98739" lon="0.62219">
        <ele>135.5</ele>
        <time>2022-08-10T15:22:03Z</time>
      </trkpt>
      <trkpt lat="44.98743" lon="0.62222">
        <ele>143.5</ele>
        <time>2022-08-10T15:27:30Z</time>
      </trkpt>
      <trkpt lat="44.98739" lon="0.62223">
        <ele>148.5</ele>
        <time>2022-08-10T15:32:16Z</time>
      </trkpt>
      <trkpt lat="44.98742" lon="0.62228">
        <ele>136.5</ele>
        <time>2022-08-10T15:37:05Z</time>
      </trkpt>
      <trkpt lat="44.98743" lon="0.62235">
        <ele>134.5</ele>
        <time>2022-08-10T15:37:13Z</time>
      </trkpt>
      <trkpt lat="44.98744" lon="0.62242">
        <ele>135.5</ele>
        <time>2022-08-10T15:37:15Z</time>
      </trkpt>
      <trkpt lat="44.98744" lon="0.6225">
        <ele>134.5</ele>
        <time>2022-08-10T15:37:17Z</time>
      </trkpt>
      <trkpt lat="44.98743" lon="0.62259">
        <ele>135.5</ele>
        <time>2022-08-10T15:37:19Z</time>
      </trkpt>
      <trkpt lat="44.98743" lon="0.62265">
        <ele>135.5</ele>
        <time>2022-08-10T15:37:21Z</time>
      </trkpt>
      <trkpt lat="44.98742" lon="0.62275">
        <ele>134.5</ele>
        <time>2022-08-10T15:37:24Z</time>
      </trkpt>
      <trkpt lat="44.98742" lon="0.62282">
        <ele>134.5</ele>
        <time>2022-08-10T15:37:26Z</time>
      </trkpt>
      <trkpt lat="44.98742" lon="0.6229">
        <ele>134.5</ele>
        <time>2022-08-10T15:37:30Z</time>
      </trkpt>
      <trkpt lat="44.98742" lon="0.62296">
        <ele>134.5</ele>
        <time>2022-08-10T15:37:33Z</time>
      </trkpt>
      <trkpt lat="44.98739" lon="0.62304">
        <ele>134.5</ele>
        <time>2022-08-10T15:37:37Z</time>
      </trkpt>
      <trkpt lat="44.98739" lon="0.62311">
        <ele>133.5</ele>
        <time>2022-08-10T15:37:40Z</time>
      </trkpt>
      <trkpt lat="44.98739" lon="0.62319">
        <ele>133.5</ele>
        <time>2022-08-10T15:37:43Z</time>
      </trkpt>
      <trkpt lat="44.98738" lon="0.62326">
        <ele>133.5</ele>
        <time>2022-08-10T15:37:45Z</time>
      </trkpt>
      <trkpt lat="44.98737" lon="0.62332">
        <ele>132.5</ele>
        <time>2022-08-10T15:37:47Z</time>
      </trkpt>
      <trkpt lat="44.98735" lon="0.62342">
        <ele>133.5</ele>
        <time>2022-08-10T15:37:50Z</time>
      </trkpt>
      <trkpt lat="44.98732" lon="0.6235">
        <ele>133.5</ele>
        <time>2022-08-10T15:37:53Z</time>
      </trkpt>
      <trkpt lat="44.98732" lon="0.62358">
        <ele>133.5</ele>
        <time>2022-08-10T15:37:56Z</time>
      </trkpt>
      <trkpt lat="44.98736" lon="0.62362">
        <ele>134.5</ele>
        <time>2022-08-10T15:37:59Z</time>
      </trkpt>
      <trkpt lat="44.98741" lon="0.62368">
        <ele>134.5</ele>
        <time>2022-08-10T15:38:02Z</time>
      </trkpt>
      <trkpt lat="44.98746" lon="0.62372">
        <ele>134.5</ele>
        <time>2022-08-10T15:38:05Z</time>
      </trkpt>
      <trkpt lat="44.98751" lon="0.62369">
        <ele>134.5</ele>
        <time>2022-08-10T15:38:09Z</time>
      </trkpt>
      <trkpt lat="44.98752" lon="0.62363">
        <ele>135.5</ele>
        <time>2022-08-10T15:38:13Z</time>
      </trkpt>
      <trkpt lat="44.98754" lon="0.62371">
        <ele>136.5</ele>
        <time>2022-08-10T15:38:25Z</time>
      </trkpt>
      <trkpt lat="44.98757" lon="0.62377">
        <ele>135.5</ele>
        <time>2022-08-10T15:38:28Z</time>
      </trkpt>
      <trkpt lat="44.98762" lon="0.6238">
        <ele>135.5</ele>
        <time>2022-08-10T15:38:31Z</time>
      </trkpt>
      <trkpt lat="44.98767" lon="0.62384">
        <ele>136.5</ele>
        <time>2022-08-10T15:38:33Z</time>
      </trkpt>
      <trkpt lat="44.98773" lon="0.62386">
        <ele>135.5</ele>
        <time>2022-08-10T15:38:36Z</time>
      </trkpt>
      <trkpt lat="44.98778" lon="0.62387">
        <ele>135.5</ele>
        <time>2022-08-10T15:38:39Z</time>
      </trkpt>
      <trkpt lat="44.98784" lon="0.62386">
        <ele>136.5</ele>
        <time>2022-08-10T15:38:41Z</time>
      </trkpt>
      <trkpt lat="44.98789" lon="0.62386">
        <ele>136.5</ele>
        <time>2022-08-10T15:38:43Z</time>
      </trkpt>
      <trkpt lat="44.98795" lon="0.62386">
        <ele>135.5</ele>
        <time>2022-08-10T15:38:45Z</time>
      </trkpt>
      <trkpt lat="44.98802" lon="0.62384">
        <ele>135.5</ele>
        <time>2022-08-10T15:38:47Z</time>
      </trkpt>
      <trkpt lat="44.98809" lon="0.62383">
        <ele>136.5</ele>
        <time>2022-08-10T15:38:49Z</time>
      </trkpt>
      <trkpt lat="44.98816" lon="0.62381">
        <ele>137.5</ele>
        <time>2022-08-10T15:38:51Z</time>
      </trkpt>
      <trkpt lat="44.98823" lon="0.62378">
        <ele>137.5</ele>
        <time>2022-08-10T15:38:53Z</time>
      </trkpt>
      <trkpt lat="44.9883" lon="0.62377">
        <ele>138.5</ele>
        <time>2022-08-10T15:38:55Z</time>
      </trkpt>
      <trkpt lat="44.98836" lon="0.62378">
        <ele>138.5</ele>
        <time>2022-08-10T15:38:57Z</time>
      </trkpt>
      <trkpt lat="44.98843" lon="0.62377">
        <ele>138.5</ele>
        <time>2022-08-10T15:38:59Z</time>
      </trkpt>
      <trkpt lat="44.98849" lon="0.62378">
        <ele>139.5</ele>
        <time>2022-08-10T15:39:01Z</time>
      </trkpt>
      <trkpt lat="44.98855" lon="0.62378">
        <ele>140.5</ele>
        <time>2022-08-10T15:39:03Z</time>
      </trkpt>
      <trkpt lat="44.98862" lon="0.62378">
        <ele>141.5</ele>
        <time>2022-08-10T15:39:05Z</time>
      </trkpt>
      <trkpt lat="44.98868" lon="0.62379">
        <ele>141.5</ele>
        <time>2022-08-10T15:39:07Z</time>
      </trkpt>
      <trkpt lat="44.98874" lon="0.62379">
        <ele>141.5</ele>
        <time>2022-08-10T15:39:09Z</time>
      </trkpt>
      <trkpt lat="44.9888" lon="0.6238">
        <ele>141.5</ele>
        <time>2022-08-10T15:39:11Z</time>
      </trkpt>
      <trkpt lat="44.98886" lon="0.6238">
        <ele>142.5</ele>
        <time>2022-08-10T15:39:13Z</time>
      </trkpt>
      <trkpt lat="44.98891" lon="0.62379">
        <ele>142.5</ele>
        <time>2022-08-10T15:39:15Z</time>
      </trkpt>
      <trkpt lat="44.98898" lon="0.62379">
        <ele>142.5</ele>
        <time>2022-08-10T15:39:17Z</time>
      </trkpt>
      <trkpt lat="44.98905" lon="0.62378">
        <ele>142.5</ele>
        <time>2022-08-10T15:39:19Z</time>
      </trkpt>
      <trkpt lat="44.98911" lon="0.62378">
        <ele>141.5</ele>
        <time>2022-08-10T15:39:21Z</time>
      </trkpt>
      <trkpt lat="44.98916" lon="0.62376">
        <ele>141.5</ele>
        <time>2022-08-10T15:39:23Z</time>
      </trkpt>
      <trkpt lat="44.98922" lon="0.62376">
        <ele>141.5</ele>
        <time>2022-08-10T15:39:25Z</time>
      </trkpt>
      <trkpt lat="44.98928" lon="0.62376">
        <ele>141.5</ele>
        <time>2022-08-10T15:39:27Z</time>
      </trkpt>
      <trkpt lat="44.98934" lon="0.62375">
        <ele>140.5</ele>
        <time>2022-08-10T15:39:29Z</time>
      </trkpt>
      <trkpt lat="44.9894" lon="0.62376">
        <ele>140.5</ele>
        <time>2022-08-10T15:39:31Z</time>
      </trkpt>
      <trkpt lat="44.98946" lon="0.62377">
        <ele>140.5</ele>
        <time>2022-08-10T15:39:33Z</time>
      </trkpt>
      <trkpt lat="44.98952" lon="0.62379">
        <ele>141.5</ele>
        <time>2022-08-10T15:39:35Z</time>
      </trkpt>
      <trkpt lat="44.98957" lon="0.62382">
        <ele>140.5</ele>
        <time>2022-08-10T15:39:37Z</time>
      </trkpt>
      <trkpt lat="44.98965" lon="0.62387">
        <ele>139.5</ele>
        <time>2022-08-10T15:39:40Z</time>
      </trkpt>
      <trkpt lat="44.98971" lon="0.6239">
        <ele>139.5</ele>
        <time>2022-08-10T15:39:42Z</time>
      </trkpt>
      <trkpt lat="44.98977" lon="0.62393">
        <ele>139.5</ele>
        <time>2022-08-10T15:39:44Z</time>
      </trkpt>
      <trkpt lat="44.98982" lon="0.62397">
        <ele>139.5</ele>
        <time>2022-08-10T15:39:46Z</time>
      </trkpt>
      <trkpt lat="44.98987" lon="0.62402">
        <ele>139.5</ele>
        <time>2022-08-10T15:39:48Z</time>
      </trkpt>
      <trkpt lat="44.98992" lon="0.62407">
        <ele>139.5</ele>
        <time>2022-08-10T15:39:50Z</time>
      </trkpt>
      <trkpt lat="44.98996" lon="0.62413">
        <ele>139.5</ele>
        <time>2022-08-10T15:39:52Z</time>
      </trkpt>
      <trkpt lat="44.99002" lon="0.62419">
        <ele>139.5</ele>
        <time>2022-08-10T15:39:55Z</time>
      </trkpt>
      <trkpt lat="44.99006" lon="0.62422">
        <ele>139.5</ele>
        <time>2022-08-10T15:39:57Z</time>
      </trkpt>
      <trkpt lat="44.99009" lon="0.62427">
        <ele>140.5</ele>
        <time>2022-08-10T15:39:59Z</time>
      </trkpt>
      <trkpt lat="44.99013" lon="0.62433">
        <ele>140.5</ele>
        <time>2022-08-10T15:40:01Z</time>
      </trkpt>
      <trkpt lat="44.99017" lon="0.62439">
        <ele>140.5</ele>
        <time>2022-08-10T15:40:03Z</time>
      </trkpt>
      <trkpt lat="44.99022" lon="0.62443">
        <ele>141.5</ele>
        <time>2022-08-10T15:40:05Z</time>
      </trkpt>
      <trkpt lat="44.99026" lon="0.62447">
        <ele>141.5</ele>
        <time>2022-08-10T15:40:07Z</time>
      </trkpt>
      <trkpt lat="44.9903" lon="0.62452">
        <ele>141.5</ele>
        <time>2022-08-10T15:40:09Z</time>
      </trkpt>
      <trkpt lat="44.99034" lon="0.62456">
        <ele>142.5</ele>
        <time>2022-08-10T15:40:11Z</time>
      </trkpt>
      <trkpt lat="44.99038" lon="0.6246">
        <ele>142.5</ele>
        <time>2022-08-10T15:40:13Z</time>
      </trkpt>
      <trkpt lat="44.99042" lon="0.62465">
        <ele>142.5</ele>
        <time>2022-08-10T15:40:15Z</time>
      </trkpt>
      <trkpt lat="44.99046" lon="0.62469">
        <ele>142.5</ele>
        <time>2022-08-10T15:40:17Z</time>
      </trkpt>
      <trkpt lat="44.99051" lon="0.62474">
        <ele>143.5</ele>
        <time>2022-08-10T15:40:19Z</time>
      </trkpt>
      <trkpt lat="44.99056" lon="0.62479">
        <ele>144.5</ele>
        <time>2022-08-10T15:40:21Z</time>
      </trkpt>
      <trkpt lat="44.9906" lon="0.62485">
        <ele>144.5</ele>
        <time>2022-08-10T15:40:23Z</time>
      </trkpt>
      <trkpt lat="44.99064" lon="0.62492">
        <ele>144.5</ele>
        <time>2022-08-10T15:40:25Z</time>
      </trkpt>
      <trkpt lat="44.99068" lon="0.62498">
        <ele>143.5</ele>
        <time>2022-08-10T15:40:27Z</time>
      </trkpt>
      <trkpt lat="44.99072" lon="0.62505">
        <ele>143.5</ele>
        <time>2022-08-10T15:40:29Z</time>
      </trkpt>
      <trkpt lat="44.99077" lon="0.62511">
        <ele>143.5</ele>
        <time>2022-08-10T15:40:31Z</time>
      </trkpt>
      <trkpt lat="44.99082" lon="0.62518">
        <ele>144.5</ele>
        <time>2022-08-10T15:40:33Z</time>
      </trkpt>
      <trkpt lat="44.99086" lon="0.62524">
        <ele>144.5</ele>
        <time>2022-08-10T15:40:35Z</time>
      </trkpt>
      <trkpt lat="44.9909" lon="0.6253">
        <ele>144.5</ele>
        <time>2022-08-10T15:40:37Z</time>
      </trkpt>
      <trkpt lat="44.99095" lon="0.62536">
        <ele>144.5</ele>
        <time>2022-08-10T15:40:39Z</time>
      </trkpt>
      <trkpt lat="44.99098" lon="0.62543">
        <ele>144.5</ele>
        <time>2022-08-10T15:40:41Z</time>
      </trkpt>
      <trkpt lat="44.99102" lon="0.62551">
        <ele>144.5</ele>
        <time>2022-08-10T15:40:43Z</time>
      </trkpt>
      <trkpt lat="44.99106" lon="0.62556">
        <ele>144.5</ele>
        <time>2022-08-10T15:40:45Z</time>
      </trkpt>
      <trkpt lat="44.99109" lon="0.62562">
        <ele>145.5</ele>
        <time>2022-08-10T15:40:47Z</time>
      </trkpt>
      <trkpt lat="44.99112" lon="0.62568">
        <ele>145.5</ele>
        <time>2022-08-10T15:40:49Z</time>
      </trkpt>
      <trkpt lat="44.99116" lon="0.62574">
        <ele>144.5</ele>
        <time>2022-08-10T15:40:51Z</time>
      </trkpt>
      <trkpt lat="44.99119" lon="0.6258">
        <ele>145.5</ele>
        <time>2022-08-10T15:40:53Z</time>
      </trkpt>
      <trkpt lat="44.99124" lon="0.62586">
        <ele>145.5</ele>
        <time>2022-08-10T15:40:55Z</time>
      </trkpt>
      <trkpt lat="44.99128" lon="0.62591">
        <ele>145.5</ele>
        <time>2022-08-10T15:40:57Z</time>
      </trkpt>
      <trkpt lat="44.99133" lon="0.62596">
        <ele>145.5</ele>
        <time>2022-08-10T15:40:59Z</time>
      </trkpt>
      <trkpt lat="44.99137" lon="0.626">
        <ele>145.5</ele>
        <time>2022-08-10T15:41:01Z</time>
      </trkpt>
      <trkpt lat="44.99141" lon="0.62606">
        <ele>146.5</ele>
        <time>2022-08-10T15:41:03Z</time>
      </trkpt>
      <trkpt lat="44.99145" lon="0.6261">
        <ele>146.5</ele>
        <time>2022-08-10T15:41:05Z</time>
      </trkpt>
      <trkpt lat="44.99148" lon="0.62615">
        <ele>146.5</ele>
        <time>2022-08-10T15:41:07Z</time>
      </trkpt>
      <trkpt lat="44.99152" lon="0.62619">
        <ele>146.5</ele>
        <time>2022-08-10T15:41:09Z</time>
      </trkpt>
      <trkpt lat="44.99157" lon="0.62626">
        <ele>146.5</ele>
        <time>2022-08-10T15:41:12Z</time>
      </trkpt>
      <trkpt lat="44.99163" lon="0.62632">
        <ele>146.5</ele>
        <time>2022-08-10T15:41:15Z</time>
      </trkpt>
      <trkpt lat="44.99167" lon="0.62636">
        <ele>146.5</ele>
        <time>2022-08-10T15:41:17Z</time>
      </trkpt>
      <trkpt lat="44.9917" lon="0.62641">
        <ele>146.5</ele>
        <time>2022-08-10T15:41:19Z</time>
      </trkpt>
      <trkpt lat="44.99173" lon="0.62645">
        <ele>147.5</ele>
        <time>2022-08-10T15:41:21Z</time>
      </trkpt>
      <trkpt lat="44.99177" lon="0.6265">
        <ele>147.5</ele>
        <time>2022-08-10T15:41:23Z</time>
      </trkpt>
      <trkpt lat="44.99182" lon="0.62654">
        <ele>148.5</ele>
        <time>2022-08-10T15:41:25Z</time>
      </trkpt>
      <trkpt lat="44.99185" lon="0.62658">
        <ele>149.5</ele>
        <time>2022-08-10T15:41:27Z</time>
      </trkpt>
      <trkpt lat="44.9919" lon="0.62663">
        <ele>150.5</ele>
        <time>2022-08-10T15:41:29Z</time>
      </trkpt>
      <trkpt lat="44.99195" lon="0.62667">
        <ele>150.5</ele>
        <time>2022-08-10T15:41:31Z</time>
      </trkpt>
      <trkpt lat="44.992" lon="0.62671">
        <ele>151.5</ele>
        <time>2022-08-10T15:41:33Z</time>
      </trkpt>
      <trkpt lat="44.99205" lon="0.62675">
        <ele>153.5</ele>
        <time>2022-08-10T15:41:35Z</time>
      </trkpt>
      <trkpt lat="44.9921" lon="0.6268">
        <ele>154.5</ele>
        <time>2022-08-10T15:41:37Z</time>
      </trkpt>
      <trkpt lat="44.99214" lon="0.62685">
        <ele>154.5</ele>
        <time>2022-08-10T15:41:39Z</time>
      </trkpt>
      <trkpt lat="44.99219" lon="0.62688">
        <ele>156.5</ele>
        <time>2022-08-10T15:41:41Z</time>
      </trkpt>
      <trkpt lat="44.99224" lon="0.62692">
        <ele>157.5</ele>
        <time>2022-08-10T15:41:43Z</time>
      </trkpt>
      <trkpt lat="44.99229" lon="0.62697">
        <ele>160.5</ele>
        <time>2022-08-10T15:41:45Z</time>
      </trkpt>
      <trkpt lat="44.99234" lon="0.62701">
        <ele>160.5</ele>
        <time>2022-08-10T15:41:47Z</time>
      </trkpt>
      <trkpt lat="44.99238" lon="0.62705">
        <ele>161.5</ele>
        <time>2022-08-10T15:41:49Z</time>
      </trkpt>
      <trkpt lat="44.99243" lon="0.62708">
        <ele>162.5</ele>
        <time>2022-08-10T15:41:51Z</time>
      </trkpt>
      <trkpt lat="44.99247" lon="0.62712">
        <ele>162.5</ele>
        <time>2022-08-10T15:41:53Z</time>
      </trkpt>
      <trkpt lat="44.99252" lon="0.62716">
        <ele>163.5</ele>
        <time>2022-08-10T15:41:55Z</time>
      </trkpt>
      <trkpt lat="44.99256" lon="0.6272">
        <ele>165.5</ele>
        <time>2022-08-10T15:41:57Z</time>
      </trkpt>
      <trkpt lat="44.99261" lon="0.62724">
        <ele>165.5</ele>
        <time>2022-08-10T15:41:59Z</time>
      </trkpt>
      <trkpt lat="44.99267" lon="0.62727">
        <ele>167.5</ele>
        <time>2022-08-10T15:42:02Z</time>
      </trkpt>
      <trkpt lat="44.99273" lon="0.62731">
        <ele>166.5</ele>
        <time>2022-08-10T15:42:05Z</time>
      </trkpt>
      <trkpt lat="44.99278" lon="0.62733">
        <ele>166.5</ele>
        <time>2022-08-10T15:42:07Z</time>
      </trkpt>
      <trkpt lat="44.99283" lon="0.62738">
        <ele>167.5</ele>
        <time>2022-08-10T15:42:10Z</time>
      </trkpt>
      <trkpt lat="44.99288" lon="0.62741">
        <ele>167.5</ele>
        <time>2022-08-10T15:42:12Z</time>
      </trkpt>
      <trkpt lat="44.99294" lon="0.62746">
        <ele>167.5</ele>
        <time>2022-08-10T15:42:15Z</time>
      </trkpt>
      <trkpt lat="44.99299" lon="0.62748">
        <ele>167.5</ele>
        <time>2022-08-10T15:42:17Z</time>
      </trkpt>
      <trkpt lat="44.99305" lon="0.62754">
        <ele>168.5</ele>
        <time>2022-08-10T15:42:20Z</time>
      </trkpt>
      <trkpt lat="44.99311" lon="0.62758">
        <ele>168.5</ele>
        <time>2022-08-10T15:42:23Z</time>
      </trkpt>
      <trkpt lat="44.99316" lon="0.6276">
        <ele>168.5</ele>
        <time>2022-08-10T15:42:25Z</time>
      </trkpt>
      <trkpt lat="44.99321" lon="0.62764">
        <ele>168.5</ele>
        <time>2022-08-10T15:42:28Z</time>
      </trkpt>
      <trkpt lat="44.99325" lon="0.62768">
        <ele>168.5</ele>
        <time>2022-08-10T15:42:30Z</time>
      </trkpt>
      <trkpt lat="44.99331" lon="0.62771">
        <ele>169.5</ele>
        <time>2022-08-10T15:42:33Z</time>
      </trkpt>
      <trkpt lat="44.99335" lon="0.62775">
        <ele>169.5</ele>
        <time>2022-08-10T15:42:35Z</time>
      </trkpt>
      <trkpt lat="44.99341" lon="0.62779">
        <ele>169.5</ele>
        <time>2022-08-10T15:42:38Z</time>
      </trkpt>
      <trkpt lat="44.99345" lon="0.62783">
        <ele>169.5</ele>
        <time>2022-08-10T15:42:40Z</time>
      </trkpt>
      <trkpt lat="44.99351" lon="0.62786">
        <ele>170.5</ele>
        <time>2022-08-10T15:42:43Z</time>
      </trkpt>
      <trkpt lat="44.99356" lon="0.62788">
        <ele>170.5</ele>
        <time>2022-08-10T15:42:45Z</time>
      </trkpt>
      <trkpt lat="44.99362" lon="0.62792">
        <ele>171.5</ele>
        <time>2022-08-10T15:42:48Z</time>
      </trkpt>
      <trkpt lat="44.99366" lon="0.62794">
        <ele>171.5</ele>
        <time>2022-08-10T15:42:50Z</time>
      </trkpt>
      <trkpt lat="44.99373" lon="0.62795">
        <ele>172.5</ele>
        <time>2022-08-10T15:42:53Z</time>
      </trkpt>
      <trkpt lat="44.99377" lon="0.62795">
        <ele>171.5</ele>
        <time>2022-08-10T15:42:55Z</time>
      </trkpt>
      <trkpt lat="44.99383" lon="0.62792">
        <ele>170.5</ele>
        <time>2022-08-10T15:42:58Z</time>
      </trkpt>
      <trkpt lat="44.99387" lon="0.62785">
        <ele>171.5</ele>
        <time>2022-08-10T15:43:01Z</time>
      </trkpt>
      <trkpt lat="44.9939" lon="0.62779">
        <ele>171.5</ele>
        <time>2022-08-10T15:43:03Z</time>
      </trkpt>
      <trkpt lat="44.99392" lon="0.62772">
        <ele>171.5</ele>
        <time>2022-08-10T15:43:05Z</time>
      </trkpt>
      <trkpt lat="44.99393" lon="0.62766">
        <ele>172.5</ele>
        <time>2022-08-10T15:43:07Z</time>
      </trkpt>
      <trkpt lat="44.99395" lon="0.6276">
        <ele>172.5</ele>
        <time>2022-08-10T15:43:09Z</time>
      </trkpt>
      <trkpt lat="44.99396" lon="0.62753">
        <ele>172.5</ele>
        <time>2022-08-10T15:43:11Z</time>
      </trkpt>
      <trkpt lat="44.99398" lon="0.62747">
        <ele>173.5</ele>
        <time>2022-08-10T15:43:13Z</time>
      </trkpt>
      <trkpt lat="44.99399" lon="0.6274">
        <ele>173.5</ele>
        <time>2022-08-10T15:43:15Z</time>
      </trkpt>
      <trkpt lat="44.994" lon="0.62734">
        <ele>173.5</ele>
        <time>2022-08-10T15:43:17Z</time>
      </trkpt>
      <trkpt lat="44.99402" lon="0.62727">
        <ele>174.5</ele>
        <time>2022-08-10T15:43:19Z</time>
      </trkpt>
      <trkpt lat="44.99403" lon="0.62721">
        <ele>174.5</ele>
        <time>2022-08-10T15:43:21Z</time>
      </trkpt>
      <trkpt lat="44.99403" lon="0.62711">
        <ele>174.5</ele>
        <time>2022-08-10T15:43:24Z</time>
      </trkpt>
      <trkpt lat="44.99403" lon="0.62705">
        <ele>174.5</ele>
        <time>2022-08-10T15:43:26Z</time>
      </trkpt>
      <trkpt lat="44.99404" lon="0.62698">
        <ele>175.5</ele>
        <time>2022-08-10T15:43:28Z</time>
      </trkpt>
      <trkpt lat="44.99404" lon="0.6269">
        <ele>176.5</ele>
        <time>2022-08-10T15:43:30Z</time>
      </trkpt>
      <trkpt lat="44.99406" lon="0.62679">
        <ele>177.5</ele>
        <time>2022-08-10T15:43:34Z</time>
      </trkpt>
      <trkpt lat="44.9941" lon="0.62675">
        <ele>177.5</ele>
        <time>2022-08-10T15:43:37Z</time>
      </trkpt>
      <trkpt lat="44.99416" lon="0.62673">
        <ele>177.5</ele>
        <time>2022-08-10T15:43:40Z</time>
      </trkpt>
      <trkpt lat="44.99421" lon="0.62669">
        <ele>177.5</ele>
        <time>2022-08-10T15:43:43Z</time>
      </trkpt>
      <trkpt lat="44.99424" lon="0.62677">
        <ele>177.5</ele>
        <time>2022-08-10T15:43:48Z</time>
      </trkpt>
      <trkpt lat="44.99425" lon="0.62686">
        <ele>176.5</ele>
        <time>2022-08-10T15:43:51Z</time>
      </trkpt>
      <trkpt lat="44.99428" lon="0.62691">
        <ele>175.5</ele>
        <time>2022-08-10T15:43:54Z</time>
      </trkpt>
      <trkpt lat="44.99432" lon="0.62696">
        <ele>174.5</ele>
        <time>2022-08-10T15:43:57Z</time>
      </trkpt>
      <trkpt lat="44.99437" lon="0.62702">
        <ele>173.5</ele>
        <time>2022-08-10T15:44:00Z</time>
      </trkpt>
      <trkpt lat="44.99442" lon="0.62706">
        <ele>173.5</ele>
        <time>2022-08-10T15:44:02Z</time>
      </trkpt>
      <trkpt lat="44.99447" lon="0.62709">
        <ele>173.5</ele>
        <time>2022-08-10T15:44:04Z</time>
      </trkpt>
      <trkpt lat="44.99452" lon="0.62712">
        <ele>172.5</ele>
        <time>2022-08-10T15:44:06Z</time>
      </trkpt>
      <trkpt lat="44.99457" lon="0.62715">
        <ele>172.5</ele>
        <time>2022-08-10T15:44:08Z</time>
      </trkpt>
      <trkpt lat="44.99462" lon="0.62719">
        <ele>171.5</ele>
        <time>2022-08-10T15:44:10Z</time>
      </trkpt>
      <trkpt lat="44.99466" lon="0.62726">
        <ele>171.5</ele>
        <time>2022-08-10T15:44:12Z</time>
      </trkpt>
      <trkpt lat="44.99467" lon="0.62733">
        <ele>172.5</ele>
        <time>2022-08-10T15:44:14Z</time>
      </trkpt>
      <trkpt lat="44.99469" lon="0.6274">
        <ele>173.5</ele>
        <time>2022-08-10T15:44:16Z</time>
      </trkpt>
      <trkpt lat="44.99469" lon="0.62747">
        <ele>172.5</ele>
        <time>2022-08-10T15:44:18Z</time>
      </trkpt>
      <trkpt lat="44.9947" lon="0.62755">
        <ele>172.5</ele>
        <time>2022-08-10T15:44:20Z</time>
      </trkpt>
      <trkpt lat="44.9947" lon="0.62763">
        <ele>172.5</ele>
        <time>2022-08-10T15:44:22Z</time>
      </trkpt>
      <trkpt lat="44.99471" lon="0.62771">
        <ele>172.5</ele>
        <time>2022-08-10T15:44:24Z</time>
      </trkpt>
      <trkpt lat="44.99473" lon="0.6278">
        <ele>172.5</ele>
        <time>2022-08-10T15:44:26Z</time>
      </trkpt>
      <trkpt lat="44.99474" lon="0.62788">
        <ele>172.5</ele>
        <time>2022-08-10T15:44:28Z</time>
      </trkpt>
      <trkpt lat="44.99476" lon="0.62797">
        <ele>172.5</ele>
        <time>2022-08-10T15:44:30Z</time>
      </trkpt>
      <trkpt lat="44.9948" lon="0.62804">
        <ele>173.5</ele>
        <time>2022-08-10T15:44:32Z</time>
      </trkpt>
      <trkpt lat="44.99487" lon="0.62808">
        <ele>175.5</ele>
        <time>2022-08-10T15:44:35Z</time>
      </trkpt>
      <trkpt lat="44.99491" lon="0.62811">
        <ele>175.5</ele>
        <time>2022-08-10T15:44:37Z</time>
      </trkpt>
      <trkpt lat="44.995" lon="0.62812">
        <ele>175.5</ele>
        <time>2022-08-10T15:44:40Z</time>
      </trkpt>
      <trkpt lat="44.99505" lon="0.62816">
        <ele>175.5</ele>
        <time>2022-08-10T15:44:42Z</time>
      </trkpt>
      <trkpt lat="44.99509" lon="0.6282">
        <ele>175.5</ele>
        <time>2022-08-10T15:44:44Z</time>
      </trkpt>
      <trkpt lat="44.99513" lon="0.62824">
        <ele>175.5</ele>
        <time>2022-08-10T15:44:46Z</time>
      </trkpt>
      <trkpt lat="44.99518" lon="0.62828">
        <ele>175.5</ele>
        <time>2022-08-10T15:44:48Z</time>
      </trkpt>
      <trkpt lat="44.99523" lon="0.62835">
        <ele>174.5</ele>
        <time>2022-08-10T15:44:50Z</time>
      </trkpt>
      <trkpt lat="44.9953" lon="0.62839">
        <ele>175.5</ele>
        <time>2022-08-10T15:44:52Z</time>
      </trkpt>
      <trkpt lat="44.99539" lon="0.62846">
        <ele>177.5</ele>
        <time>2022-08-10T15:44:55Z</time>
      </trkpt>
      <trkpt lat="44.99542" lon="0.62853">
        <ele>178.5</ele>
        <time>2022-08-10T15:44:58Z</time>
      </trkpt>
      <trkpt lat="44.99545" lon="0.62858">
        <ele>180.5</ele>
        <time>2022-08-10T15:45:01Z</time>
      </trkpt>
      <trkpt lat="44.9955" lon="0.62856">
        <ele>182.5</ele>
        <time>2022-08-10T15:45:10Z</time>
      </trkpt>
      <trkpt lat="44.99546" lon="0.62851">
        <ele>184.5</ele>
        <time>2022-08-10T15:45:16Z</time>
      </trkpt>
      <trkpt lat="44.99542" lon="0.62846">
        <ele>184.5</ele>
        <time>2022-08-10T15:45:18Z</time>
      </trkpt>
      <trkpt lat="44.99538" lon="0.62841">
        <ele>185.5</ele>
        <time>2022-08-10T15:45:20Z</time>
      </trkpt>
      <trkpt lat="44.99533" lon="0.62837">
        <ele>185.5</ele>
        <time>2022-08-10T15:45:22Z</time>
      </trkpt>
      <trkpt lat="44.99528" lon="0.62833">
        <ele>184.5</ele>
        <time>2022-08-10T15:45:24Z</time>
      </trkpt>
      <trkpt lat="44.99523" lon="0.62829">
        <ele>183.5</ele>
        <time>2022-08-10T15:45:26Z</time>
      </trkpt>
      <trkpt lat="44.99516" lon="0.62824">
        <ele>183.5</ele>
        <time>2022-08-10T15:45:28Z</time>
      </trkpt>
      <trkpt lat="44.99509" lon="0.62821">
        <ele>184.5</ele>
        <time>2022-08-10T15:45:30Z</time>
      </trkpt>
      <trkpt lat="44.995" lon="0.62821">
        <ele>184.5</ele>
        <time>2022-08-10T15:45:32Z</time>
      </trkpt>
      <trkpt lat="44.99492" lon="0.6282">
        <ele>184.5</ele>
        <time>2022-08-10T15:45:34Z</time>
      </trkpt>
      <trkpt lat="44.99484" lon="0.6282">
        <ele>184.5</ele>
        <time>2022-08-10T15:45:36Z</time>
      </trkpt>
      <trkpt lat="44.99477" lon="0.62812">
        <ele>183.5</ele>
        <time>2022-08-10T15:45:38Z</time>
      </trkpt>
      <trkpt lat="44.99476" lon="0.62799">
        <ele>182.5</ele>
        <time>2022-08-10T15:45:40Z</time>
      </trkpt>
      <trkpt lat="44.99475" lon="0.62789">
        <ele>182.5</ele>
        <time>2022-08-10T15:45:42Z</time>
      </trkpt>
      <trkpt lat="44.99476" lon="0.62777">
        <ele>181.5</ele>
        <time>2022-08-10T15:45:44Z</time>
      </trkpt>
      <trkpt lat="44.99475" lon="0.62771">
        <ele>181.5</ele>
        <time>2022-08-10T15:45:45Z</time>
      </trkpt>
      <trkpt lat="44.99475" lon="0.62764">
        <ele>181.5</ele>
        <time>2022-08-10T15:45:46Z</time>
      </trkpt>
      <trkpt lat="44.99475" lon="0.62753">
        <ele>181.5</ele>
        <time>2022-08-10T15:45:48Z</time>
      </trkpt>
      <trkpt lat="44.99473" lon="0.62743">
        <ele>181.5</ele>
        <time>2022-08-10T15:45:50Z</time>
      </trkpt>
      <trkpt lat="44.9947" lon="0.62732">
        <ele>180.5</ele>
        <time>2022-08-10T15:45:52Z</time>
      </trkpt>
      <trkpt lat="44.99465" lon="0.62723">
        <ele>180.5</ele>
        <time>2022-08-10T15:45:54Z</time>
      </trkpt>
      <trkpt lat="44.99461" lon="0.62719">
        <ele>180.5</ele>
        <time>2022-08-10T15:45:55Z</time>
      </trkpt>
      <trkpt lat="44.99454" lon="0.62712">
        <ele>180.5</ele>
        <time>2022-08-10T15:45:57Z</time>
      </trkpt>
      <trkpt lat="44.99448" lon="0.62706">
        <ele>180.5</ele>
        <time>2022-08-10T15:45:59Z</time>
      </trkpt>
      <trkpt lat="44.99441" lon="0.62699">
        <ele>179.5</ele>
        <time>2022-08-10T15:46:01Z</time>
      </trkpt>
      <trkpt lat="44.99437" lon="0.62694">
        <ele>179.5</ele>
        <time>2022-08-10T15:46:03Z</time>
      </trkpt>
      <trkpt lat="44.99433" lon="0.62689">
        <ele>179.5</ele>
        <time>2022-08-10T15:46:05Z</time>
      </trkpt>
      <trkpt lat="44.99428" lon="0.62683">
        <ele>179.5</ele>
        <time>2022-08-10T15:46:08Z</time>
      </trkpt>
      <trkpt lat="44.99425" lon="0.62679">
        <ele>179.5</ele>
        <time>2022-08-10T15:46:10Z</time>
      </trkpt>
      <trkpt lat="44.99424" lon="0.62672">
        <ele>178.5</ele>
        <time>2022-08-10T15:46:13Z</time>
      </trkpt>
      <trkpt lat="44.99428" lon="0.62668">
        <ele>179.5</ele>
        <time>2022-08-10T15:46:16Z</time>
      </trkpt>
      <trkpt lat="44.99433" lon="0.62665">
        <ele>179.5</ele>
        <time>2022-08-10T15:46:19Z</time>
      </trkpt>
      <trkpt lat="44.99437" lon="0.6266">
        <ele>178.5</ele>
        <time>2022-08-10T15:46:22Z</time>
      </trkpt>
      <trkpt lat="44.99442" lon="0.62656">
        <ele>178.5</ele>
        <time>2022-08-10T15:46:25Z</time>
      </trkpt>
      <trkpt lat="44.99448" lon="0.62655">
        <ele>178.5</ele>
        <time>2022-08-10T15:46:28Z</time>
      </trkpt>
      <trkpt lat="44.99452" lon="0.62652">
        <ele>177.5</ele>
        <time>2022-08-10T15:46:30Z</time>
      </trkpt>
      <trkpt lat="44.99458" lon="0.62646">
        <ele>177.5</ele>
        <time>2022-08-10T15:46:33Z</time>
      </trkpt>
      <trkpt lat="44.99462" lon="0.62641">
        <ele>177.5</ele>
        <time>2022-08-10T15:46:36Z</time>
      </trkpt>
      <trkpt lat="44.99466" lon="0.62637">
        <ele>178.5</ele>
        <time>2022-08-10T15:46:38Z</time>
      </trkpt>
      <trkpt lat="44.9947" lon="0.62633">
        <ele>178.5</ele>
        <time>2022-08-10T15:46:40Z</time>
      </trkpt>
      <trkpt lat="44.99475" lon="0.62628">
        <ele>178.5</ele>
        <time>2022-08-10T15:46:42Z</time>
      </trkpt>
      <trkpt lat="44.99479" lon="0.62624">
        <ele>177.5</ele>
        <time>2022-08-10T15:46:44Z</time>
      </trkpt>
      <trkpt lat="44.99484" lon="0.62618">
        <ele>177.5</ele>
        <time>2022-08-10T15:46:46Z</time>
      </trkpt>
      <trkpt lat="44.99488" lon="0.62612">
        <ele>176.5</ele>
        <time>2022-08-10T15:46:48Z</time>
      </trkpt>
      <trkpt lat="44.99493" lon="0.62604">
        <ele>175.5</ele>
        <time>2022-08-10T15:46:50Z</time>
      </trkpt>
      <trkpt lat="44.99497" lon="0.62597">
        <ele>175.5</ele>
        <time>2022-08-10T15:46:52Z</time>
      </trkpt>
      <trkpt lat="44.995" lon="0.62589">
        <ele>175.5</ele>
        <time>2022-08-10T15:46:54Z</time>
      </trkpt>
      <trkpt lat="44.99503" lon="0.62582">
        <ele>175.5</ele>
        <time>2022-08-10T15:46:56Z</time>
      </trkpt>
      <trkpt lat="44.99506" lon="0.62575">
        <ele>175.5</ele>
        <time>2022-08-10T15:46:58Z</time>
      </trkpt>
      <trkpt lat="44.99507" lon="0.62568">
        <ele>176.5</ele>
        <time>2022-08-10T15:47:00Z</time>
      </trkpt>
      <trkpt lat="44.9951" lon="0.62562">
        <ele>177.5</ele>
        <time>2022-08-10T15:47:02Z</time>
      </trkpt>
      <trkpt lat="44.99513" lon="0.62555">
        <ele>177.5</ele>
        <time>2022-08-10T15:47:04Z</time>
      </trkpt>
      <trkpt lat="44.99514" lon="0.62549">
        <ele>177.5</ele>
        <time>2022-08-10T15:47:06Z</time>
      </trkpt>
      <trkpt lat="44.99516" lon="0.62541">
        <ele>177.5</ele>
        <time>2022-08-10T15:47:08Z</time>
      </trkpt>
      <trkpt lat="44.99518" lon="0.62532">
        <ele>177.5</ele>
        <time>2022-08-10T15:47:10Z</time>
      </trkpt>
      <trkpt lat="44.99519" lon="0.62523">
        <ele>178.5</ele>
        <time>2022-08-10T15:47:12Z</time>
      </trkpt>
      <trkpt lat="44.99521" lon="0.62514">
        <ele>179.5</ele>
        <time>2022-08-10T15:47:14Z</time>
      </trkpt>
      <trkpt lat="44.99524" lon="0.62505">
        <ele>179.5</ele>
        <time>2022-08-10T15:47:16Z</time>
      </trkpt>
      <trkpt lat="44.99525" lon="0.62495">
        <ele>179.5</ele>
        <time>2022-08-10T15:47:18Z</time>
      </trkpt>
      <trkpt lat="44.99529" lon="0.62488">
        <ele>180.5</ele>
        <time>2022-08-10T15:47:20Z</time>
      </trkpt>
      <trkpt lat="44.9953" lon="0.62482">
        <ele>179.5</ele>
        <time>2022-08-10T15:47:22Z</time>
      </trkpt>
      <trkpt lat="44.99533" lon="0.62475">
        <ele>179.5</ele>
        <time>2022-08-10T15:47:25Z</time>
      </trkpt>
      <trkpt lat="44.9953" lon="0.6248">
        <ele>180.5</ele>
        <time>2022-08-10T15:47:34Z</time>
      </trkpt>
      <trkpt lat="44.99527" lon="0.62486">
        <ele>180.5</ele>
        <time>2022-08-10T15:47:36Z</time>
      </trkpt>
      <trkpt lat="44.99525" lon="0.62494">
        <ele>180.5</ele>
        <time>2022-08-10T15:47:38Z</time>
      </trkpt>
      <trkpt lat="44.99524" lon="0.62502">
        <ele>180.5</ele>
        <time>2022-08-10T15:47:40Z</time>
      </trkpt>
      <trkpt lat="44.99522" lon="0.62511">
        <ele>180.5</ele>
        <time>2022-08-10T15:47:42Z</time>
      </trkpt>
      <trkpt lat="44.9952" lon="0.62519">
        <ele>181.5</ele>
        <time>2022-08-10T15:47:44Z</time>
      </trkpt>
      <trkpt lat="44.99519" lon="0.62529">
        <ele>181.5</ele>
        <time>2022-08-10T15:47:46Z</time>
      </trkpt>
      <trkpt lat="44.99517" lon="0.62538">
        <ele>181.5</ele>
        <time>2022-08-10T15:47:48Z</time>
      </trkpt>
      <trkpt lat="44.99514" lon="0.62547">
        <ele>182.5</ele>
        <time>2022-08-10T15:47:50Z</time>
      </trkpt>
      <trkpt lat="44.99511" lon="0.62558">
        <ele>182.5</ele>
        <time>2022-08-10T15:47:52Z</time>
      </trkpt>
      <trkpt lat="44.99509" lon="0.62566">
        <ele>182.5</ele>
        <time>2022-08-10T15:47:54Z</time>
      </trkpt>
      <trkpt lat="44.99507" lon="0.62574">
        <ele>182.5</ele>
        <time>2022-08-10T15:47:56Z</time>
      </trkpt>
      <trkpt lat="44.99504" lon="0.62582">
        <ele>182.5</ele>
        <time>2022-08-10T15:47:58Z</time>
      </trkpt>
      <trkpt lat="44.99501" lon="0.6259">
        <ele>182.5</ele>
        <time>2022-08-10T15:48:00Z</time>
      </trkpt>
      <trkpt lat="44.99496" lon="0.62594">
        <ele>182.5</ele>
        <time>2022-08-10T15:48:02Z</time>
      </trkpt>
      <trkpt lat="44.9949" lon="0.62593">
        <ele>182.5</ele>
        <time>2022-08-10T15:48:04Z</time>
      </trkpt>
      <trkpt lat="44.99484" lon="0.62593">
        <ele>182.5</ele>
        <time>2022-08-10T15:48:06Z</time>
      </trkpt>
      <trkpt lat="44.99475" lon="0.62597">
        <ele>183.5</ele>
        <time>2022-08-10T15:48:08Z</time>
      </trkpt>
      <trkpt lat="44.99471" lon="0.62599">
        <ele>184.5</ele>
        <time>2022-08-10T15:48:09Z</time>
      </trkpt>
      <trkpt lat="44.99467" lon="0.62601">
        <ele>184.5</ele>
        <time>2022-08-10T15:48:10Z</time>
      </trkpt>
      <trkpt lat="44.99462" lon="0.62604">
        <ele>184.5</ele>
        <time>2022-08-10T15:48:11Z</time>
      </trkpt>
      <trkpt lat="44.99458" lon="0.62606">
        <ele>184.5</ele>
        <time>2022-08-10T15:48:12Z</time>
      </trkpt>
      <trkpt lat="44.9945" lon="0.62611">
        <ele>184.5</ele>
        <time>2022-08-10T15:48:14Z</time>
      </trkpt>
      <trkpt lat="44.99442" lon="0.62616">
        <ele>183.5</ele>
        <time>2022-08-10T15:48:16Z</time>
      </trkpt>
      <trkpt lat="44.99436" lon="0.6262">
        <ele>183.5</ele>
        <time>2022-08-10T15:48:18Z</time>
      </trkpt>
      <trkpt lat="44.99432" lon="0.62625">
        <ele>183.5</ele>
        <time>2022-08-10T15:48:20Z</time>
      </trkpt>
      <trkpt lat="44.99427" lon="0.62631">
        <ele>183.5</ele>
        <time>2022-08-10T15:48:22Z</time>
      </trkpt>
      <trkpt lat="44.99422" lon="0.62634">
        <ele>184.5</ele>
        <time>2022-08-10T15:48:24Z</time>
      </trkpt>
      <trkpt lat="44.99416" lon="0.62638">
        <ele>184.5</ele>
        <time>2022-08-10T15:48:27Z</time>
      </trkpt>
      <trkpt lat="44.9941" lon="0.62637">
        <ele>183.5</ele>
        <time>2022-08-10T15:48:29Z</time>
      </trkpt>
      <trkpt lat="44.99407" lon="0.6263">
        <ele>183.5</ele>
        <time>2022-08-10T15:48:31Z</time>
      </trkpt>
      <trkpt lat="44.99404" lon="0.6262">
        <ele>182.5</ele>
        <time>2022-08-10T15:48:33Z</time>
      </trkpt>
      <trkpt lat="44.99402" lon="0.62614">
        <ele>182.5</ele>
        <time>2022-08-10T15:48:34Z</time>
      </trkpt>
      <trkpt lat="44.994" lon="0.62608">
        <ele>182.5</ele>
        <time>2022-08-10T15:48:35Z</time>
      </trkpt>
      <trkpt lat="44.99398" lon="0.62602">
        <ele>182.5</ele>
        <time>2022-08-10T15:48:36Z</time>
      </trkpt>
      <trkpt lat="44.99395" lon="0.62596">
        <ele>182.5</ele>
        <time>2022-08-10T15:48:37Z</time>
      </trkpt>
      <trkpt lat="44.99392" lon="0.62588">
        <ele>182.5</ele>
        <time>2022-08-10T15:48:38Z</time>
      </trkpt>
      <trkpt lat="44.9939" lon="0.62581">
        <ele>182.5</ele>
        <time>2022-08-10T15:48:39Z</time>
      </trkpt>
      <trkpt lat="44.99387" lon="0.62573">
        <ele>182.5</ele>
        <time>2022-08-10T15:48:40Z</time>
      </trkpt>
      <trkpt lat="44.99384" lon="0.62564">
        <ele>181.5</ele>
        <time>2022-08-10T15:48:41Z</time>
      </trkpt>
      <trkpt lat="44.99382" lon="0.62554">
        <ele>180.5</ele>
        <time>2022-08-10T15:48:42Z</time>
      </trkpt>
      <trkpt lat="44.9938" lon="0.62544">
        <ele>179.5</ele>
        <time>2022-08-10T15:48:43Z</time>
      </trkpt>
      <trkpt lat="44.99379" lon="0.62533">
        <ele>179.5</ele>
        <time>2022-08-10T15:48:44Z</time>
      </trkpt>
      <trkpt lat="44.99378" lon="0.62522">
        <ele>178.5</ele>
        <time>2022-08-10T15:48:45Z</time>
      </trkpt>
      <trkpt lat="44.99377" lon="0.62511">
        <ele>177.5</ele>
        <time>2022-08-10T15:48:46Z</time>
      </trkpt>
      <trkpt lat="44.99376" lon="0.625">
        <ele>177.5</ele>
        <time>2022-08-10T15:48:47Z</time>
      </trkpt>
      <trkpt lat="44.99375" lon="0.6249">
        <ele>177.5</ele>
        <time>2022-08-10T15:48:48Z</time>
      </trkpt>
      <trkpt lat="44.99374" lon="0.6248">
        <ele>177.5</ele>
        <time>2022-08-10T15:48:49Z</time>
      </trkpt>
      <trkpt lat="44.99373" lon="0.62471">
        <ele>177.5</ele>
        <time>2022-08-10T15:48:50Z</time>
      </trkpt>
      <trkpt lat="44.99372" lon="0.62463">
        <ele>176.5</ele>
        <time>2022-08-10T15:48:51Z</time>
      </trkpt>
      <trkpt lat="44.99371" lon="0.62455">
        <ele>176.5</ele>
        <time>2022-08-10T15:48:52Z</time>
      </trkpt>
      <trkpt lat="44.9937" lon="0.62448">
        <ele>176.5</ele>
        <time>2022-08-10T15:48:53Z</time>
      </trkpt>
      <trkpt lat="44.99369" lon="0.62441">
        <ele>175.5</ele>
        <time>2022-08-10T15:48:54Z</time>
      </trkpt>
      <trkpt lat="44.99368" lon="0.6243">
        <ele>175.5</ele>
        <time>2022-08-10T15:48:56Z</time>
      </trkpt>
      <trkpt lat="44.99367" lon="0.62421">
        <ele>175.5</ele>
        <time>2022-08-10T15:48:58Z</time>
      </trkpt>
      <trkpt lat="44.99366" lon="0.62412">
        <ele>176.5</ele>
        <time>2022-08-10T15:49:00Z</time>
      </trkpt>
      <trkpt lat="44.99365" lon="0.62403">
        <ele>176.5</ele>
        <time>2022-08-10T15:49:02Z</time>
      </trkpt>
      <trkpt lat="44.99365" lon="0.62394">
        <ele>176.5</ele>
        <time>2022-08-10T15:49:04Z</time>
      </trkpt>
      <trkpt lat="44.99363" lon="0.62385">
        <ele>176.5</ele>
        <time>2022-08-10T15:49:06Z</time>
      </trkpt>
      <trkpt lat="44.99363" lon="0.62377">
        <ele>176.5</ele>
        <time>2022-08-10T15:49:08Z</time>
      </trkpt>
      <trkpt lat="44.99362" lon="0.62369">
        <ele>176.5</ele>
        <time>2022-08-10T15:49:10Z</time>
      </trkpt>
      <trkpt lat="44.99361" lon="0.62361">
        <ele>176.5</ele>
        <time>2022-08-10T15:49:12Z</time>
      </trkpt>
      <trkpt lat="44.9936" lon="0.62353">
        <ele>176.5</ele>
        <time>2022-08-10T15:49:14Z</time>
      </trkpt>
      <trkpt lat="44.99359" lon="0.62346">
        <ele>176.5</ele>
        <time>2022-08-10T15:49:16Z</time>
      </trkpt>
      <trkpt lat="44.99359" lon="0.62338">
        <ele>176.5</ele>
        <time>2022-08-10T15:49:18Z</time>
      </trkpt>
      <trkpt lat="44.99358" lon="0.62331">
        <ele>176.5</ele>
        <time>2022-08-10T15:49:20Z</time>
      </trkpt>
      <trkpt lat="44.99358" lon="0.62323">
        <ele>176.5</ele>
        <time>2022-08-10T15:49:23Z</time>
      </trkpt>
      <trkpt lat="44.99357" lon="0.62316">
        <ele>176.5</ele>
        <time>2022-08-10T15:49:26Z</time>
      </trkpt>
      <trkpt lat="44.99357" lon="0.62309">
        <ele>176.5</ele>
        <time>2022-08-10T15:49:29Z</time>
      </trkpt>
      <trkpt lat="44.99356" lon="0.62303">
        <ele>176.5</ele>
        <time>2022-08-10T15:49:32Z</time>
      </trkpt>
      <trkpt lat="44.99355" lon="0.62296">
        <ele>177.5</ele>
        <time>2022-08-10T15:49:36Z</time>
      </trkpt>
      <trkpt lat="44.99353" lon="0.62288">
        <ele>176.5</ele>
        <time>2022-08-10T15:49:42Z</time>
      </trkpt>
      <trkpt lat="44.99352" lon="0.6228">
        <ele>176.5</ele>
        <time>2022-08-10T15:49:46Z</time>
      </trkpt>
      <trkpt lat="44.9935" lon="0.62272">
        <ele>175.5</ele>
        <time>2022-08-10T15:49:50Z</time>
      </trkpt>
      <trkpt lat="44.99349" lon="0.62264">
        <ele>175.5</ele>
        <time>2022-08-10T15:49:53Z</time>
      </trkpt>
      <trkpt lat="44.99347" lon="0.62257">
        <ele>174.5</ele>
        <time>2022-08-10T15:49:56Z</time>
      </trkpt>
      <trkpt lat="44.99344" lon="0.62253">
        <ele>174.5</ele>
        <time>2022-08-10T15:49:59Z</time>
      </trkpt>
      <trkpt lat="44.99342" lon="0.62245">
        <ele>172.5</ele>
        <time>2022-08-10T15:50:03Z</time>
      </trkpt>
      <trkpt lat="44.9934" lon="0.62239">
        <ele>172.5</ele>
        <time>2022-08-10T15:50:07Z</time>
      </trkpt>
      <trkpt lat="44.99337" lon="0.62232">
        <ele>169.5</ele>
        <time>2022-08-10T15:50:11Z</time>
      </trkpt>
      <trkpt lat="44.99335" lon="0.62225">
        <ele>169.5</ele>
        <time>2022-08-10T15:50:14Z</time>
      </trkpt>
      <trkpt lat="44.99334" lon="0.62217">
        <ele>171.5</ele>
        <time>2022-08-10T15:50:17Z</time>
      </trkpt>
      <trkpt lat="44.99332" lon="0.62209">
        <ele>171.5</ele>
        <time>2022-08-10T15:50:20Z</time>
      </trkpt>
      <trkpt lat="44.99329" lon="0.62202">
        <ele>172.5</ele>
        <time>2022-08-10T15:50:23Z</time>
      </trkpt>
      <trkpt lat="44.99328" lon="0.62193">
        <ele>172.5</ele>
        <time>2022-08-10T15:50:26Z</time>
      </trkpt>
      <trkpt lat="44.99327" lon="0.62186">
        <ele>172.5</ele>
        <time>2022-08-10T15:50:29Z</time>
      </trkpt>
      <trkpt lat="44.99325" lon="0.62178">
        <ele>171.5</ele>
        <time>2022-08-10T15:50:32Z</time>
      </trkpt>
      <trkpt lat="44.99324" lon="0.62171">
        <ele>171.5</ele>
        <time>2022-08-10T15:50:36Z</time>
      </trkpt>
      <trkpt lat="44.99323" lon="0.62163">
        <ele>170.5</ele>
        <time>2022-08-10T15:50:39Z</time>
      </trkpt>
      <trkpt lat="44.99322" lon="0.62156">
        <ele>170.5</ele>
        <time>2022-08-10T15:50:42Z</time>
      </trkpt>
      <trkpt lat="44.99323" lon="0.62147">
        <ele>170.5</ele>
        <time>2022-08-10T15:50:45Z</time>
      </trkpt>
      <trkpt lat="44.99322" lon="0.6214">
        <ele>169.5</ele>
        <time>2022-08-10T15:50:47Z</time>
      </trkpt>
      <trkpt lat="44.99321" lon="0.62131">
        <ele>168.5</ele>
        <time>2022-08-10T15:50:49Z</time>
      </trkpt>
      <trkpt lat="44.9932" lon="0.62123">
        <ele>167.5</ele>
        <time>2022-08-10T15:50:51Z</time>
      </trkpt>
      <trkpt lat="44.99319" lon="0.62115">
        <ele>167.5</ele>
        <time>2022-08-10T15:50:53Z</time>
      </trkpt>
      <trkpt lat="44.99317" lon="0.62107">
        <ele>166.5</ele>
        <time>2022-08-10T15:50:56Z</time>
      </trkpt>
      <trkpt lat="44.99316" lon="0.62098">
        <ele>167.5</ele>
        <time>2022-08-10T15:50:59Z</time>
      </trkpt>
      <trkpt lat="44.99315" lon="0.6209">
        <ele>168.5</ele>
        <time>2022-08-10T15:51:02Z</time>
      </trkpt>
      <trkpt lat="44.99314" lon="0.62083">
        <ele>168.5</ele>
        <time>2022-08-10T15:51:05Z</time>
      </trkpt>
      <trkpt lat="44.99314" lon="0.62074">
        <ele>168.5</ele>
        <time>2022-08-10T15:51:08Z</time>
      </trkpt>
      <trkpt lat="44.99313" lon="0.62067">
        <ele>167.5</ele>
        <time>2022-08-10T15:51:10Z</time>
      </trkpt>
      <trkpt lat="44.99313" lon="0.62058">
        <ele>167.5</ele>
        <time>2022-08-10T15:51:13Z</time>
      </trkpt>
      <trkpt lat="44.99313" lon="0.6205">
        <ele>166.5</ele>
        <time>2022-08-10T15:51:16Z</time>
      </trkpt>
      <trkpt lat="44.99314" lon="0.62043">
        <ele>166.5</ele>
        <time>2022-08-10T15:51:18Z</time>
      </trkpt>
      <trkpt lat="44.99314" lon="0.62035">
        <ele>166.5</ele>
        <time>2022-08-10T15:51:20Z</time>
      </trkpt>
      <trkpt lat="44.99314" lon="0.62026">
        <ele>166.5</ele>
        <time>2022-08-10T15:51:22Z</time>
      </trkpt>
      <trkpt lat="44.99314" lon="0.62015">
        <ele>166.5</ele>
        <time>2022-08-10T15:51:24Z</time>
      </trkpt>
      <trkpt lat="44.99314" lon="0.62005">
        <ele>165.5</ele>
        <time>2022-08-10T15:51:26Z</time>
      </trkpt>
      <trkpt lat="44.99312" lon="0.61996">
        <ele>165.5</ele>
        <time>2022-08-10T15:51:28Z</time>
      </trkpt>
      <trkpt lat="44.99311" lon="0.61985">
        <ele>164.5</ele>
        <time>2022-08-10T15:51:30Z</time>
      </trkpt>
      <trkpt lat="44.99309" lon="0.61975">
        <ele>164.5</ele>
        <time>2022-08-10T15:51:32Z</time>
      </trkpt>
      <trkpt lat="44.99308" lon="0.61963">
        <ele>163.5</ele>
        <time>2022-08-10T15:51:34Z</time>
      </trkpt>
      <trkpt lat="44.99308" lon="0.61956">
        <ele>162.5</ele>
        <time>2022-08-10T15:51:35Z</time>
      </trkpt>
      <trkpt lat="44.99308" lon="0.61944">
        <ele>161.5</ele>
        <time>2022-08-10T15:51:37Z</time>
      </trkpt>
      <trkpt lat="44.99308" lon="0.61937">
        <ele>161.5</ele>
        <time>2022-08-10T15:51:38Z</time>
      </trkpt>
      <trkpt lat="44.99308" lon="0.61924">
        <ele>160.5</ele>
        <time>2022-08-10T15:51:40Z</time>
      </trkpt>
      <trkpt lat="44.99308" lon="0.61914">
        <ele>160.5</ele>
        <time>2022-08-10T15:51:42Z</time>
      </trkpt>
      <trkpt lat="44.9931" lon="0.61902">
        <ele>159.5</ele>
        <time>2022-08-10T15:51:44Z</time>
      </trkpt>
      <trkpt lat="44.99309" lon="0.61895">
        <ele>158.5</ele>
        <time>2022-08-10T15:51:45Z</time>
      </trkpt>
      <trkpt lat="44.99308" lon="0.61889">
        <ele>157.5</ele>
        <time>2022-08-10T15:51:46Z</time>
      </trkpt>
      <trkpt lat="44.99306" lon="0.61877">
        <ele>156.5</ele>
        <time>2022-08-10T15:51:48Z</time>
      </trkpt>
      <trkpt lat="44.99304" lon="0.61871">
        <ele>156.5</ele>
        <time>2022-08-10T15:51:49Z</time>
      </trkpt>
      <trkpt lat="44.99302" lon="0.61864">
        <ele>155.5</ele>
        <time>2022-08-10T15:51:50Z</time>
      </trkpt>
      <trkpt lat="44.99298" lon="0.61853">
        <ele>155.5</ele>
        <time>2022-08-10T15:51:52Z</time>
      </trkpt>
      <trkpt lat="44.99296" lon="0.61847">
        <ele>155.5</ele>
        <time>2022-08-10T15:51:53Z</time>
      </trkpt>
      <trkpt lat="44.99293" lon="0.61836">
        <ele>154.5</ele>
        <time>2022-08-10T15:51:55Z</time>
      </trkpt>
      <trkpt lat="44.99291" lon="0.61828">
        <ele>153.5</ele>
        <time>2022-08-10T15:51:57Z</time>
      </trkpt>
      <trkpt lat="44.99288" lon="0.61819">
        <ele>153.5</ele>
        <time>2022-08-10T15:51:59Z</time>
      </trkpt>
      <trkpt lat="44.99286" lon="0.61811">
        <ele>153.5</ele>
        <time>2022-08-10T15:52:01Z</time>
      </trkpt>
      <trkpt lat="44.99284" lon="0.61805">
        <ele>152.5</ele>
        <time>2022-08-10T15:52:03Z</time>
      </trkpt>
      <trkpt lat="44.99282" lon="0.61798">
        <ele>152.5</ele>
        <time>2022-08-10T15:52:05Z</time>
      </trkpt>
      <trkpt lat="44.99278" lon="0.61787">
        <ele>152.5</ele>
        <time>2022-08-10T15:52:08Z</time>
      </trkpt>
      <trkpt lat="44.99275" lon="0.6178">
        <ele>152.5</ele>
        <time>2022-08-10T15:52:10Z</time>
      </trkpt>
      <trkpt lat="44.99273" lon="0.61771">
        <ele>151.5</ele>
        <time>2022-08-10T15:52:12Z</time>
      </trkpt>
      <trkpt lat="44.9927" lon="0.61763">
        <ele>152.5</ele>
        <time>2022-08-10T15:52:14Z</time>
      </trkpt>
      <trkpt lat="44.99266" lon="0.61754">
        <ele>152.5</ele>
        <time>2022-08-10T15:52:16Z</time>
      </trkpt>
      <trkpt lat="44.99263" lon="0.61744">
        <ele>152.5</ele>
        <time>2022-08-10T15:52:18Z</time>
      </trkpt>
      <trkpt lat="44.99261" lon="0.61734">
        <ele>153.5</ele>
        <time>2022-08-10T15:52:20Z</time>
      </trkpt>
      <trkpt lat="44.99257" lon="0.61725">
        <ele>154.5</ele>
        <time>2022-08-10T15:52:22Z</time>
      </trkpt>
      <trkpt lat="44.99254" lon="0.61714">
        <ele>156.5</ele>
        <time>2022-08-10T15:52:24Z</time>
      </trkpt>
      <trkpt lat="44.99251" lon="0.61702">
        <ele>159.5</ele>
        <time>2022-08-10T15:52:26Z</time>
      </trkpt>
      <trkpt lat="44.99251" lon="0.61695">
        <ele>161.5</ele>
        <time>2022-08-10T15:52:27Z</time>
      </trkpt>
      <trkpt lat="44.99248" lon="0.61683">
        <ele>162.5</ele>
        <time>2022-08-10T15:52:29Z</time>
      </trkpt>
      <trkpt lat="44.99247" lon="0.61677">
        <ele>162.5</ele>
        <time>2022-08-10T15:52:30Z</time>
      </trkpt>
      <trkpt lat="44.99246" lon="0.6167">
        <ele>164.5</ele>
        <time>2022-08-10T15:52:31Z</time>
      </trkpt>
      <trkpt lat="44.99245" lon="0.61663">
        <ele>165.5</ele>
        <time>2022-08-10T15:52:32Z</time>
      </trkpt>
      <trkpt lat="44.99244" lon="0.61656">
        <ele>166.5</ele>
        <time>2022-08-10T15:52:33Z</time>
      </trkpt>
      <trkpt lat="44.99243" lon="0.6165">
        <ele>167.5</ele>
        <time>2022-08-10T15:52:34Z</time>
      </trkpt>
      <trkpt lat="44.99242" lon="0.61642">
        <ele>169.5</ele>
        <time>2022-08-10T15:52:35Z</time>
      </trkpt>
      <trkpt lat="44.99241" lon="0.61636">
        <ele>169.5</ele>
        <time>2022-08-10T15:52:36Z</time>
      </trkpt>
      <trkpt lat="44.9924" lon="0.61628">
        <ele>172.5</ele>
        <time>2022-08-10T15:52:37Z</time>
      </trkpt>
      <trkpt lat="44.99238" lon="0.61616">
        <ele>172.5</ele>
        <time>2022-08-10T15:52:39Z</time>
      </trkpt>
      <trkpt lat="44.99236" lon="0.61605">
        <ele>173.5</ele>
        <time>2022-08-10T15:52:41Z</time>
      </trkpt>
      <trkpt lat="44.99235" lon="0.61595">
        <ele>174.5</ele>
        <time>2022-08-10T15:52:43Z</time>
      </trkpt>
      <trkpt lat="44.99234" lon="0.61584">
        <ele>175.5</ele>
        <time>2022-08-10T15:52:45Z</time>
      </trkpt>
      <trkpt lat="44.99233" lon="0.61575">
        <ele>176.5</ele>
        <time>2022-08-10T15:52:47Z</time>
      </trkpt>
      <trkpt lat="44.99232" lon="0.61567">
        <ele>176.5</ele>
        <time>2022-08-10T15:52:49Z</time>
      </trkpt>
      <trkpt lat="44.99231" lon="0.61559">
        <ele>177.5</ele>
        <time>2022-08-10T15:52:51Z</time>
      </trkpt>
      <trkpt lat="44.99231" lon="0.61552">
        <ele>178.5</ele>
        <time>2022-08-10T15:52:53Z</time>
      </trkpt>
      <trkpt lat="44.9923" lon="0.61545">
        <ele>178.5</ele>
        <time>2022-08-10T15:52:55Z</time>
      </trkpt>
      <trkpt lat="44.99231" lon="0.61538">
        <ele>179.5</ele>
        <time>2022-08-10T15:52:57Z</time>
      </trkpt>
      <trkpt lat="44.99231" lon="0.6153">
        <ele>179.5</ele>
        <time>2022-08-10T15:53:00Z</time>
      </trkpt>
      <trkpt lat="44.99231" lon="0.61522">
        <ele>179.5</ele>
        <time>2022-08-10T15:53:04Z</time>
      </trkpt>
      <trkpt lat="44.99231" lon="0.61516">
        <ele>179.5</ele>
        <time>2022-08-10T15:53:07Z</time>
      </trkpt>
      <trkpt lat="44.99231" lon="0.61509">
        <ele>180.5</ele>
        <time>2022-08-10T15:53:10Z</time>
      </trkpt>
      <trkpt lat="44.99231" lon="0.61501">
        <ele>180.5</ele>
        <time>2022-08-10T15:53:13Z</time>
      </trkpt>
      <trkpt lat="44.99231" lon="0.61494">
        <ele>180.5</ele>
        <time>2022-08-10T15:53:16Z</time>
      </trkpt>
      <trkpt lat="44.99232" lon="0.61487">
        <ele>181.5</ele>
        <time>2022-08-10T15:53:19Z</time>
      </trkpt>
      <trkpt lat="44.99231" lon="0.61478">
        <ele>182.5</ele>
        <time>2022-08-10T15:53:22Z</time>
      </trkpt>
      <trkpt lat="44.9923" lon="0.61472">
        <ele>182.5</ele>
        <time>2022-08-10T15:53:24Z</time>
      </trkpt>
      <trkpt lat="44.99227" lon="0.61464">
        <ele>183.5</ele>
        <time>2022-08-10T15:53:27Z</time>
      </trkpt>
      <trkpt lat="44.9922" lon="0.61458">
        <ele>184.5</ele>
        <time>2022-08-10T15:53:30Z</time>
      </trkpt>
      <trkpt lat="44.99215" lon="0.61455">
        <ele>184.5</ele>
        <time>2022-08-10T15:53:32Z</time>
      </trkpt>
      <trkpt lat="44.9921" lon="0.61452">
        <ele>184.5</ele>
        <time>2022-08-10T15:53:34Z</time>
      </trkpt>
      <trkpt lat="44.99204" lon="0.61447">
        <ele>184.5</ele>
        <time>2022-08-10T15:53:36Z</time>
      </trkpt>
      <trkpt lat="44.992" lon="0.61442">
        <ele>185.5</ele>
        <time>2022-08-10T15:53:38Z</time>
      </trkpt>
      <trkpt lat="44.99195" lon="0.61437">
        <ele>186.5</ele>
        <time>2022-08-10T15:53:40Z</time>
      </trkpt>
      <trkpt lat="44.99191" lon="0.61433">
        <ele>186.5</ele>
        <time>2022-08-10T15:53:42Z</time>
      </trkpt>
      <trkpt lat="44.99187" lon="0.61428">
        <ele>186.5</ele>
        <time>2022-08-10T15:53:44Z</time>
      </trkpt>
      <trkpt lat="44.99182" lon="0.61424">
        <ele>186.5</ele>
        <time>2022-08-10T15:53:46Z</time>
      </trkpt>
      <trkpt lat="44.99178" lon="0.61419">
        <ele>187.5</ele>
        <time>2022-08-10T15:53:48Z</time>
      </trkpt>
      <trkpt lat="44.99173" lon="0.61414">
        <ele>186.5</ele>
        <time>2022-08-10T15:53:50Z</time>
      </trkpt>
      <trkpt lat="44.99167" lon="0.6141">
        <ele>187.5</ele>
        <time>2022-08-10T15:53:52Z</time>
      </trkpt>
      <trkpt lat="44.99161" lon="0.61408">
        <ele>188.5</ele>
        <time>2022-08-10T15:53:54Z</time>
      </trkpt>
      <trkpt lat="44.99154" lon="0.61406">
        <ele>188.5</ele>
        <time>2022-08-10T15:53:56Z</time>
      </trkpt>
      <trkpt lat="44.99149" lon="0.61406">
        <ele>188.5</ele>
        <time>2022-08-10T15:53:58Z</time>
      </trkpt>
      <trkpt lat="44.99142" lon="0.61406">
        <ele>188.5</ele>
        <time>2022-08-10T15:54:00Z</time>
      </trkpt>
      <trkpt lat="44.99134" lon="0.61405">
        <ele>188.5</ele>
        <time>2022-08-10T15:54:02Z</time>
      </trkpt>
      <trkpt lat="44.99129" lon="0.61404">
        <ele>188.5</ele>
        <time>2022-08-10T15:54:03Z</time>
      </trkpt>
      <trkpt lat="44.99121" lon="0.61401">
        <ele>187.5</ele>
        <time>2022-08-10T15:54:05Z</time>
      </trkpt>
      <trkpt lat="44.99116" lon="0.614">
        <ele>187.5</ele>
        <time>2022-08-10T15:54:06Z</time>
      </trkpt>
      <trkpt lat="44.99112" lon="0.61398">
        <ele>187.5</ele>
        <time>2022-08-10T15:54:07Z</time>
      </trkpt>
      <trkpt lat="44.99108" lon="0.61396">
        <ele>187.5</ele>
        <time>2022-08-10T15:54:08Z</time>
      </trkpt>
      <trkpt lat="44.99101" lon="0.61392">
        <ele>187.5</ele>
        <time>2022-08-10T15:54:10Z</time>
      </trkpt>
      <trkpt lat="44.99093" lon="0.61392">
        <ele>187.5</ele>
        <time>2022-08-10T15:54:12Z</time>
      </trkpt>
      <trkpt lat="44.99089" lon="0.61394">
        <ele>188.5</ele>
        <time>2022-08-10T15:54:13Z</time>
      </trkpt>
      <trkpt lat="44.99084" lon="0.61396">
        <ele>188.5</ele>
        <time>2022-08-10T15:54:14Z</time>
      </trkpt>
      <trkpt lat="44.99079" lon="0.61399">
        <ele>188.5</ele>
        <time>2022-08-10T15:54:15Z</time>
      </trkpt>
      <trkpt lat="44.99072" lon="0.61403">
        <ele>188.5</ele>
        <time>2022-08-10T15:54:17Z</time>
      </trkpt>
      <trkpt lat="44.99066" lon="0.61409">
        <ele>187.5</ele>
        <time>2022-08-10T15:54:19Z</time>
      </trkpt>
      <trkpt lat="44.9906" lon="0.61417">
        <ele>186.5</ele>
        <time>2022-08-10T15:54:21Z</time>
      </trkpt>
      <trkpt lat="44.99053" lon="0.61425">
        <ele>183.5</ele>
        <time>2022-08-10T15:54:23Z</time>
      </trkpt>
      <trkpt lat="44.99049" lon="0.61427">
        <ele>181.5</ele>
        <time>2022-08-10T15:54:24Z</time>
      </trkpt>
      <trkpt lat="44.99044" lon="0.61428">
        <ele>180.5</ele>
        <time>2022-08-10T15:54:25Z</time>
      </trkpt>
      <trkpt lat="44.99037" lon="0.61429">
        <ele>180.5</ele>
        <time>2022-08-10T15:54:26Z</time>
      </trkpt>
      <trkpt lat="44.9903" lon="0.61431">
        <ele>180.5</ele>
        <time>2022-08-10T15:54:27Z</time>
      </trkpt>
      <trkpt lat="44.99022" lon="0.61433">
        <ele>180.5</ele>
        <time>2022-08-10T15:54:28Z</time>
      </trkpt>
      <trkpt lat="44.99013" lon="0.61435">
        <ele>179.5</ele>
        <time>2022-08-10T15:54:29Z</time>
      </trkpt>
      <trkpt lat="44.99005" lon="0.61436">
        <ele>177.5</ele>
        <time>2022-08-10T15:54:30Z</time>
      </trkpt>
      <trkpt lat="44.98997" lon="0.61437">
        <ele>176.5</ele>
        <time>2022-08-10T15:54:31Z</time>
      </trkpt>
      <trkpt lat="44.9899" lon="0.61439">
        <ele>175.5</ele>
        <time>2022-08-10T15:54:32Z</time>
      </trkpt>
      <trkpt lat="44.98983" lon="0.6144">
        <ele>174.5</ele>
        <time>2022-08-10T15:54:33Z</time>
      </trkpt>
      <trkpt lat="44.98976" lon="0.61442">
        <ele>173.5</ele>
        <time>2022-08-10T15:54:34Z</time>
      </trkpt>
      <trkpt lat="44.98969" lon="0.61445">
        <ele>173.5</ele>
        <time>2022-08-10T15:54:35Z</time>
      </trkpt>
      <trkpt lat="44.98963" lon="0.61447">
        <ele>172.5</ele>
        <time>2022-08-10T15:54:36Z</time>
      </trkpt>
      <trkpt lat="44.98957" lon="0.61451">
        <ele>172.5</ele>
        <time>2022-08-10T15:54:37Z</time>
      </trkpt>
      <trkpt lat="44.98952" lon="0.61453">
        <ele>171.5</ele>
        <time>2022-08-10T15:54:38Z</time>
      </trkpt>
      <trkpt lat="44.98947" lon="0.61456">
        <ele>171.5</ele>
        <time>2022-08-10T15:54:39Z</time>
      </trkpt>
      <trkpt lat="44.98942" lon="0.61458">
        <ele>170.5</ele>
        <time>2022-08-10T15:54:40Z</time>
      </trkpt>
      <trkpt lat="44.98936" lon="0.61459">
        <ele>170.5</ele>
        <time>2022-08-10T15:54:41Z</time>
      </trkpt>
      <trkpt lat="44.9893" lon="0.61461">
        <ele>169.5</ele>
        <time>2022-08-10T15:54:42Z</time>
      </trkpt>
      <trkpt lat="44.98923" lon="0.61462">
        <ele>169.5</ele>
        <time>2022-08-10T15:54:43Z</time>
      </trkpt>
      <trkpt lat="44.98916" lon="0.61462">
        <ele>168.5</ele>
        <time>2022-08-10T15:54:44Z</time>
      </trkpt>
      <trkpt lat="44.98908" lon="0.61463">
        <ele>168.5</ele>
        <time>2022-08-10T15:54:45Z</time>
      </trkpt>
      <trkpt lat="44.989" lon="0.61463">
        <ele>168.5</ele>
        <time>2022-08-10T15:54:46Z</time>
      </trkpt>
      <trkpt lat="44.98892" lon="0.61464">
        <ele>167.5</ele>
        <time>2022-08-10T15:54:47Z</time>
      </trkpt>
      <trkpt lat="44.98883" lon="0.61465">
        <ele>167.5</ele>
        <time>2022-08-10T15:54:48Z</time>
      </trkpt>
      <trkpt lat="44.98875" lon="0.61467">
        <ele>166.5</ele>
        <time>2022-08-10T15:54:49Z</time>
      </trkpt>
      <trkpt lat="44.98866" lon="0.6147">
        <ele>165.5</ele>
        <time>2022-08-10T15:54:50Z</time>
      </trkpt>
      <trkpt lat="44.98857" lon="0.61472">
        <ele>164.5</ele>
        <time>2022-08-10T15:54:51Z</time>
      </trkpt>
      <trkpt lat="44.98849" lon="0.61475">
        <ele>163.5</ele>
        <time>2022-08-10T15:54:52Z</time>
      </trkpt>
      <trkpt lat="44.98841" lon="0.61479">
        <ele>162.5</ele>
        <time>2022-08-10T15:54:53Z</time>
      </trkpt>
      <trkpt lat="44.98833" lon="0.61483">
        <ele>161.5</ele>
        <time>2022-08-10T15:54:54Z</time>
      </trkpt>
      <trkpt lat="44.98826" lon="0.61488">
        <ele>159.5</ele>
        <time>2022-08-10T15:54:55Z</time>
      </trkpt>
      <trkpt lat="44.98819" lon="0.61491">
        <ele>158.5</ele>
        <time>2022-08-10T15:54:56Z</time>
      </trkpt>
      <trkpt lat="44.98814" lon="0.61495">
        <ele>156.5</ele>
        <time>2022-08-10T15:54:57Z</time>
      </trkpt>
      <trkpt lat="44.98809" lon="0.615">
        <ele>155.5</ele>
        <time>2022-08-10T15:54:58Z</time>
      </trkpt>
      <trkpt lat="44.98804" lon="0.61503">
        <ele>154.5</ele>
        <time>2022-08-10T15:54:59Z</time>
      </trkpt>
      <trkpt lat="44.988" lon="0.61507">
        <ele>153.5</ele>
        <time>2022-08-10T15:55:00Z</time>
      </trkpt>
      <trkpt lat="44.98796" lon="0.61512">
        <ele>153.5</ele>
        <time>2022-08-10T15:55:01Z</time>
      </trkpt>
      <trkpt lat="44.98793" lon="0.61516">
        <ele>152.5</ele>
        <time>2022-08-10T15:55:02Z</time>
      </trkpt>
      <trkpt lat="44.9879" lon="0.61522">
        <ele>151.5</ele>
        <time>2022-08-10T15:55:03Z</time>
      </trkpt>
      <trkpt lat="44.98787" lon="0.61534">
        <ele>150.5</ele>
        <time>2022-08-10T15:55:05Z</time>
      </trkpt>
      <trkpt lat="44.98786" lon="0.6154">
        <ele>149.5</ele>
        <time>2022-08-10T15:55:06Z</time>
      </trkpt>
      <trkpt lat="44.98786" lon="0.61547">
        <ele>149.5</ele>
        <time>2022-08-10T15:55:07Z</time>
      </trkpt>
      <trkpt lat="44.98786" lon="0.61559">
        <ele>148.5</ele>
        <time>2022-08-10T15:55:09Z</time>
      </trkpt>
      <trkpt lat="44.98784" lon="0.6157">
        <ele>147.5</ele>
        <time>2022-08-10T15:55:11Z</time>
      </trkpt>
      <trkpt lat="44.98782" lon="0.61576">
        <ele>146.5</ele>
        <time>2022-08-10T15:55:12Z</time>
      </trkpt>
      <trkpt lat="44.9878" lon="0.61582">
        <ele>145.5</ele>
        <time>2022-08-10T15:55:13Z</time>
      </trkpt>
      <trkpt lat="44.98779" lon="0.61589">
        <ele>145.5</ele>
        <time>2022-08-10T15:55:14Z</time>
      </trkpt>
      <trkpt lat="44.98777" lon="0.61597">
        <ele>144.5</ele>
        <time>2022-08-10T15:55:15Z</time>
      </trkpt>
      <trkpt lat="44.98776" lon="0.61605">
        <ele>143.5</ele>
        <time>2022-08-10T15:55:16Z</time>
      </trkpt>
      <trkpt lat="44.98776" lon="0.61612">
        <ele>142.5</ele>
        <time>2022-08-10T15:55:17Z</time>
      </trkpt>
      <trkpt lat="44.98776" lon="0.6162">
        <ele>141.5</ele>
        <time>2022-08-10T15:55:18Z</time>
      </trkpt>
      <trkpt lat="44.98776" lon="0.61627">
        <ele>141.5</ele>
        <time>2022-08-10T15:55:19Z</time>
      </trkpt>
      <trkpt lat="44.98776" lon="0.61634">
        <ele>140.5</ele>
        <time>2022-08-10T15:55:20Z</time>
      </trkpt>
      <trkpt lat="44.98776" lon="0.61641">
        <ele>139.5</ele>
        <time>2022-08-10T15:55:21Z</time>
      </trkpt>
      <trkpt lat="44.98777" lon="0.61648">
        <ele>139.5</ele>
        <time>2022-08-10T15:55:22Z</time>
      </trkpt>
      <trkpt lat="44.98777" lon="0.61655">
        <ele>138.5</ele>
        <time>2022-08-10T15:55:23Z</time>
      </trkpt>
      <trkpt lat="44.98778" lon="0.61661">
        <ele>137.5</ele>
        <time>2022-08-10T15:55:24Z</time>
      </trkpt>
      <trkpt lat="44.98779" lon="0.61668">
        <ele>136.5</ele>
        <time>2022-08-10T15:55:25Z</time>
      </trkpt>
      <trkpt lat="44.9878" lon="0.61679">
        <ele>136.5</ele>
        <time>2022-08-10T15:55:27Z</time>
      </trkpt>
      <trkpt lat="44.98783" lon="0.61691">
        <ele>136.5</ele>
        <time>2022-08-10T15:55:29Z</time>
      </trkpt>
      <trkpt lat="44.98785" lon="0.61699">
        <ele>136.5</ele>
        <time>2022-08-10T15:55:31Z</time>
      </trkpt>
      <trkpt lat="44.98787" lon="0.61707">
        <ele>136.5</ele>
        <time>2022-08-10T15:55:34Z</time>
      </trkpt>
      <trkpt lat="44.98787" lon="0.61716">
        <ele>135.5</ele>
        <time>2022-08-10T15:55:37Z</time>
      </trkpt>
      <trkpt lat="44.98788" lon="0.61725">
        <ele>135.5</ele>
        <time>2022-08-10T15:55:40Z</time>
      </trkpt>
      <trkpt lat="44.98789" lon="0.61732">
        <ele>135.5</ele>
        <time>2022-08-10T15:55:42Z</time>
      </trkpt>
      <trkpt lat="44.9879" lon="0.6174">
        <ele>135.5</ele>
        <time>2022-08-10T15:55:44Z</time>
      </trkpt>
      <trkpt lat="44.9879" lon="0.61749">
        <ele>134.5</ele>
        <time>2022-08-10T15:55:46Z</time>
      </trkpt>
      <trkpt lat="44.98791" lon="0.61759">
        <ele>134.5</ele>
        <time>2022-08-10T15:55:48Z</time>
      </trkpt>
      <trkpt lat="44.98792" lon="0.61767">
        <ele>134.5</ele>
        <time>2022-08-10T15:55:50Z</time>
      </trkpt>
      <trkpt lat="44.98793" lon="0.61773">
        <ele>134.5</ele>
        <time>2022-08-10T15:55:52Z</time>
      </trkpt>
      <trkpt lat="44.98793" lon="0.61782">
        <ele>134.5</ele>
        <time>2022-08-10T15:55:55Z</time>
      </trkpt>
      <trkpt lat="44.98794" lon="0.61788">
        <ele>134.5</ele>
        <time>2022-08-10T15:55:57Z</time>
      </trkpt>
      <trkpt lat="44.98795" lon="0.61795">
        <ele>134.5</ele>
        <time>2022-08-10T15:55:59Z</time>
      </trkpt>
      <trkpt lat="44.98795" lon="0.61803">
        <ele>133.5</ele>
        <time>2022-08-10T15:56:01Z</time>
      </trkpt>
      <trkpt lat="44.98794" lon="0.61812">
        <ele>133.5</ele>
        <time>2022-08-10T15:56:03Z</time>
      </trkpt>
      <trkpt lat="44.98794" lon="0.61819">
        <ele>133.5</ele>
        <time>2022-08-10T15:56:06Z</time>
      </trkpt>
      <trkpt lat="44.98792" lon="0.61826">
        <ele>133.5</ele>
        <time>2022-08-10T15:56:14Z</time>
      </trkpt>
      <trkpt lat="44.98795" lon="0.61831">
        <ele>138.5</ele>
        <time>2022-08-10T15:57:14Z</time>
      </trkpt>
      <trkpt lat="44.988" lon="0.61831">
        <ele>139.5</ele>
        <time>2022-08-10T15:57:35Z</time>
      </trkpt>
      <trkpt lat="44.98805" lon="0.61832">
        <ele>140.5</ele>
        <time>2022-08-10T15:57:42Z</time>
      </trkpt>
      <trkpt lat="44.9881" lon="0.61831">
        <ele>140.5</ele>
        <time>2022-08-10T15:57:48Z</time>
      </trkpt>
      <trkpt lat="44.98815" lon="0.61831">
        <ele>142.5</ele>
        <time>2022-08-10T15:57:56Z</time>
      </trkpt>
      <trkpt lat="44.9882" lon="0.61829">
        <ele>145.5</ele>
        <time>2022-08-10T15:58:10Z</time>
      </trkpt>
      <trkpt lat="44.98826" lon="0.61829">
        <ele>143.5</ele>
        <time>2022-08-10T15:58:36Z</time>
      </trkpt>
      <trkpt lat="44.98831" lon="0.61829">
        <ele>143.5</ele>
        <time>2022-08-10T15:58:46Z</time>
      </trkpt>
      <trkpt lat="44.98835" lon="0.61829">
        <ele>143.5</ele>
        <time>2022-08-10T15:58:53Z</time>
      </trkpt>
      <trkpt lat="44.98839" lon="0.61826">
        <ele>144.5</ele>
        <time>2022-08-10T15:58:59Z</time>
      </trkpt>
      <trkpt lat="44.98844" lon="0.61825">
        <ele>143.5</ele>
        <time>2022-08-10T15:59:10Z</time>
      </trkpt>
      <trkpt lat="44.98849" lon="0.61824">
        <ele>146.5</ele>
        <time>2022-08-10T15:59:23Z</time>
      </trkpt>
      <trkpt lat="44.98854" lon="0.61823">
        <ele>148.5</ele>
        <time>2022-08-10T15:59:33Z</time>
      </trkpt>
      <trkpt lat="44.98857" lon="0.61818">
        <ele>152.5</ele>
        <time>2022-08-10T15:59:38Z</time>
      </trkpt>
      <trkpt lat="44.98859" lon="0.61812">
        <ele>154.5</ele>
        <time>2022-08-10T15:59:43Z</time>
      </trkpt>
      <trkpt lat="44.98862" lon="0.61806">
        <ele>156.5</ele>
        <time>2022-08-10T15:59:51Z</time>
      </trkpt>
      <trkpt lat="44.98866" lon="0.61804">
        <ele>156.5</ele>
        <time>2022-08-10T15:59:59Z</time>
      </trkpt>
      <trkpt lat="44.98869" lon="0.61799">
        <ele>157.5</ele>
        <time>2022-08-10T16:00:07Z</time>
      </trkpt>
      <trkpt lat="44.98865" lon="0.61797">
        <ele>161.5</ele>
        <time>2022-08-10T16:00:42Z</time>
      </trkpt>
      <trkpt lat="44.98864" lon="0.61791">
        <ele>166.5</ele>
        <time>2022-08-10T16:01:16Z</time>
      </trkpt>
      <trkpt lat="44.98859" lon="0.61789">
        <ele>168.5</ele>
        <time>2022-08-10T16:01:34Z</time>
      </trkpt>
      <trkpt lat="44.98857" lon="0.61795">
        <ele>166.5</ele>
        <time>2022-08-10T16:01:58Z</time>
      </trkpt>
      <trkpt lat="44.98861" lon="0.61798">
        <ele>161.5</ele>
        <time>2022-08-10T16:02:17Z</time>
      </trkpt>
      <trkpt lat="44.98863" lon="0.61804">
        <ele>159.5</ele>
        <time>2022-08-10T16:02:34Z</time>
      </trkpt>
      <trkpt lat="44.98863" lon="0.61811">
        <ele>158.5</ele>
        <time>2022-08-10T16:02:39Z</time>
      </trkpt>
      <trkpt lat="44.9886" lon="0.61819">
        <ele>157.5</ele>
        <time>2022-08-10T16:02:47Z</time>
      </trkpt>
      <trkpt lat="44.98856" lon="0.61823">
        <ele>157.5</ele>
        <time>2022-08-10T16:02:51Z</time>
      </trkpt>
      <trkpt lat="44.98851" lon="0.61824">
        <ele>154.5</ele>
        <time>2022-08-10T16:02:56Z</time>
      </trkpt>
      <trkpt lat="44.98846" lon="0.61825">
        <ele>153.5</ele>
        <time>2022-08-10T16:03:00Z</time>
      </trkpt>
      <trkpt lat="44.98842" lon="0.61829">
        <ele>148.5</ele>
        <time>2022-08-10T16:03:08Z</time>
      </trkpt>
      <trkpt lat="44.98837" lon="0.61831">
        <ele>147.5</ele>
        <time>2022-08-10T16:03:12Z</time>
      </trkpt>
      <trkpt lat="44.98832" lon="0.61835">
        <ele>145.5</ele>
        <time>2022-08-10T16:03:15Z</time>
      </trkpt>
      <trkpt lat="44.98828" lon="0.61837">
        <ele>145.5</ele>
        <time>2022-08-10T16:03:18Z</time>
      </trkpt>
      <trkpt lat="44.98823" lon="0.61837">
        <ele>146.5</ele>
        <time>2022-08-10T16:03:23Z</time>
      </trkpt>
      <trkpt lat="44.98817" lon="0.61838">
        <ele>141.5</ele>
        <time>2022-08-10T16:03:46Z</time>
      </trkpt>
      <trkpt lat="44.98813" lon="0.61838">
        <ele>140.5</ele>
        <time>2022-08-10T16:03:49Z</time>
      </trkpt>
      <trkpt lat="44.98808" lon="0.61838">
        <ele>139.5</ele>
        <time>2022-08-10T16:03:52Z</time>
      </trkpt>
      <trkpt lat="44.98803" lon="0.61837">
        <ele>139.5</ele>
        <time>2022-08-10T16:03:56Z</time>
      </trkpt>
      <trkpt lat="44.98798" lon="0.61836">
        <ele>141.5</ele>
        <time>2022-08-10T16:04:00Z</time>
      </trkpt>
      <trkpt lat="44.98793" lon="0.61836">
        <ele>140.5</ele>
        <time>2022-08-10T16:04:04Z</time>
      </trkpt>
      <trkpt lat="44.98789" lon="0.61836">
        <ele>138.5</ele>
        <time>2022-08-10T16:04:09Z</time>
      </trkpt>
      <trkpt lat="44.98786" lon="0.61831">
        <ele>139.5</ele>
        <time>2022-08-10T16:04:15Z</time>
      </trkpt>
      <trkpt lat="44.98788" lon="0.61822">
        <ele>138.5</ele>
        <time>2022-08-10T16:04:19Z</time>
      </trkpt>
      <trkpt lat="44.98789" lon="0.61815">
        <ele>138.5</ele>
        <time>2022-08-10T16:04:21Z</time>
      </trkpt>
      <trkpt lat="44.98791" lon="0.61808">
        <ele>138.5</ele>
        <time>2022-08-10T16:04:23Z</time>
      </trkpt>
      <trkpt lat="44.98793" lon="0.618">
        <ele>137.5</ele>
        <time>2022-08-10T16:04:25Z</time>
      </trkpt>
      <trkpt lat="44.98794" lon="0.61792">
        <ele>137.5</ele>
        <time>2022-08-10T16:04:27Z</time>
      </trkpt>
      <trkpt lat="44.98794" lon="0.61784">
        <ele>136.5</ele>
        <time>2022-08-10T16:04:29Z</time>
      </trkpt>
      <trkpt lat="44.98792" lon="0.61775">
        <ele>136.5</ele>
        <time>2022-08-10T16:04:31Z</time>
      </trkpt>
      <trkpt lat="44.98791" lon="0.61765">
        <ele>136.5</ele>
        <time>2022-08-10T16:04:33Z</time>
      </trkpt>
      <trkpt lat="44.98789" lon="0.61754">
        <ele>136.5</ele>
        <time>2022-08-10T16:04:35Z</time>
      </trkpt>
      <trkpt lat="44.98787" lon="0.61741">
        <ele>135.5</ele>
        <time>2022-08-10T16:04:37Z</time>
      </trkpt>
      <trkpt lat="44.98786" lon="0.61735">
        <ele>136.5</ele>
        <time>2022-08-10T16:04:38Z</time>
      </trkpt>
      <trkpt lat="44.98784" lon="0.61723">
        <ele>136.5</ele>
        <time>2022-08-10T16:04:40Z</time>
      </trkpt>
      <trkpt lat="44.98782" lon="0.6171">
        <ele>136.5</ele>
        <time>2022-08-10T16:04:42Z</time>
      </trkpt>
      <trkpt lat="44.9878" lon="0.61704">
        <ele>136.5</ele>
        <time>2022-08-10T16:04:43Z</time>
      </trkpt>
      <trkpt lat="44.98779" lon="0.61696">
        <ele>135.5</ele>
        <time>2022-08-10T16:04:44Z</time>
      </trkpt>
      <trkpt lat="44.98778" lon="0.61688">
        <ele>135.5</ele>
        <time>2022-08-10T16:04:45Z</time>
      </trkpt>
      <trkpt lat="44.98777" lon="0.61681">
        <ele>135.5</ele>
        <time>2022-08-10T16:04:46Z</time>
      </trkpt>
      <trkpt lat="44.98777" lon="0.61674">
        <ele>135.5</ele>
        <time>2022-08-10T16:04:47Z</time>
      </trkpt>
      <trkpt lat="44.98777" lon="0.61666">
        <ele>136.5</ele>
        <time>2022-08-10T16:04:48Z</time>
      </trkpt>
      <trkpt lat="44.98777" lon="0.61659">
        <ele>136.5</ele>
        <time>2022-08-10T16:04:49Z</time>
      </trkpt>
      <trkpt lat="44.98776" lon="0.61651">
        <ele>136.5</ele>
        <time>2022-08-10T16:04:50Z</time>
      </trkpt>
      <trkpt lat="44.98776" lon="0.61644">
        <ele>137.5</ele>
        <time>2022-08-10T16:04:51Z</time>
      </trkpt>
      <trkpt lat="44.98776" lon="0.61637">
        <ele>137.5</ele>
        <time>2022-08-10T16:04:52Z</time>
      </trkpt>
      <trkpt lat="44.98776" lon="0.61624">
        <ele>137.5</ele>
        <time>2022-08-10T16:04:54Z</time>
      </trkpt>
      <trkpt lat="44.98777" lon="0.61613">
        <ele>137.5</ele>
        <time>2022-08-10T16:04:56Z</time>
      </trkpt>
      <trkpt lat="44.98778" lon="0.61602">
        <ele>136.5</ele>
        <time>2022-08-10T16:04:58Z</time>
      </trkpt>
      <trkpt lat="44.98779" lon="0.61591">
        <ele>136.5</ele>
        <time>2022-08-10T16:05:00Z</time>
      </trkpt>
      <trkpt lat="44.98781" lon="0.6158">
        <ele>136.5</ele>
        <time>2022-08-10T16:05:02Z</time>
      </trkpt>
      <trkpt lat="44.98784" lon="0.61572">
        <ele>136.5</ele>
        <time>2022-08-10T16:05:04Z</time>
      </trkpt>
      <trkpt lat="44.98787" lon="0.61566">
        <ele>136.5</ele>
        <time>2022-08-10T16:05:06Z</time>
      </trkpt>
      <trkpt lat="44.98789" lon="0.61561">
        <ele>136.5</ele>
        <time>2022-08-10T16:05:08Z</time>
      </trkpt>
      <trkpt lat="44.9879" lon="0.61553">
        <ele>136.5</ele>
        <time>2022-08-10T16:05:11Z</time>
      </trkpt>
      <trkpt lat="44.98789" lon="0.61546">
        <ele>136.5</ele>
        <time>2022-08-10T16:05:13Z</time>
      </trkpt>
      <trkpt lat="44.98787" lon="0.61538">
        <ele>137.5</ele>
        <time>2022-08-10T16:05:15Z</time>
      </trkpt>
      <trkpt lat="44.98782" lon="0.61535">
        <ele>136.5</ele>
        <time>2022-08-10T16:05:17Z</time>
      </trkpt>
      <trkpt lat="44.98774" lon="0.61538">
        <ele>136.5</ele>
        <time>2022-08-10T16:05:19Z</time>
      </trkpt>
      <trkpt lat="44.98769" lon="0.6154">
        <ele>136.5</ele>
        <time>2022-08-10T16:05:20Z</time>
      </trkpt>
      <trkpt lat="44.98765" lon="0.61544">
        <ele>137.5</ele>
        <time>2022-08-10T16:05:21Z</time>
      </trkpt>
      <trkpt lat="44.9876" lon="0.61549">
        <ele>137.5</ele>
        <time>2022-08-10T16:05:22Z</time>
      </trkpt>
      <trkpt lat="44.98755" lon="0.61554">
        <ele>137.5</ele>
        <time>2022-08-10T16:05:23Z</time>
      </trkpt>
      <trkpt lat="44.98749" lon="0.61559">
        <ele>136.5</ele>
        <time>2022-08-10T16:05:24Z</time>
      </trkpt>
      <trkpt lat="44.98743" lon="0.61565">
        <ele>136.5</ele>
        <time>2022-08-10T16:05:25Z</time>
      </trkpt>
      <trkpt lat="44.98737" lon="0.6157">
        <ele>136.5</ele>
        <time>2022-08-10T16:05:26Z</time>
      </trkpt>
      <trkpt lat="44.9873" lon="0.61574">
        <ele>137.5</ele>
        <time>2022-08-10T16:05:27Z</time>
      </trkpt>
      <trkpt lat="44.98724" lon="0.6158">
        <ele>137.5</ele>
        <time>2022-08-10T16:05:28Z</time>
      </trkpt>
      <trkpt lat="44.98718" lon="0.61585">
        <ele>138.5</ele>
        <time>2022-08-10T16:05:29Z</time>
      </trkpt>
      <trkpt lat="44.98713" lon="0.6159">
        <ele>138.5</ele>
        <time>2022-08-10T16:05:30Z</time>
      </trkpt>
      <trkpt lat="44.98708" lon="0.61596">
        <ele>138.5</ele>
        <time>2022-08-10T16:05:31Z</time>
      </trkpt>
      <trkpt lat="44.98703" lon="0.616">
        <ele>137.5</ele>
        <time>2022-08-10T16:05:32Z</time>
      </trkpt>
      <trkpt lat="44.98698" lon="0.61604">
        <ele>137.5</ele>
        <time>2022-08-10T16:05:33Z</time>
      </trkpt>
      <trkpt lat="44.98693" lon="0.61607">
        <ele>137.5</ele>
        <time>2022-08-10T16:05:34Z</time>
      </trkpt>
      <trkpt lat="44.98688" lon="0.6161">
        <ele>137.5</ele>
        <time>2022-08-10T16:05:35Z</time>
      </trkpt>
      <trkpt lat="44.98684" lon="0.61614">
        <ele>136.5</ele>
        <time>2022-08-10T16:05:36Z</time>
      </trkpt>
      <trkpt lat="44.98679" lon="0.61616">
        <ele>136.5</ele>
        <time>2022-08-10T16:05:37Z</time>
      </trkpt>
      <trkpt lat="44.98673" lon="0.61618">
        <ele>136.5</ele>
        <time>2022-08-10T16:05:38Z</time>
      </trkpt>
      <trkpt lat="44.98667" lon="0.6162">
        <ele>136.5</ele>
        <time>2022-08-10T16:05:39Z</time>
      </trkpt>
      <trkpt lat="44.98661" lon="0.61623">
        <ele>137.5</ele>
        <time>2022-08-10T16:05:40Z</time>
      </trkpt>
      <trkpt lat="44.98656" lon="0.61626">
        <ele>137.5</ele>
        <time>2022-08-10T16:05:41Z</time>
      </trkpt>
      <trkpt lat="44.9865" lon="0.61628">
        <ele>137.5</ele>
        <time>2022-08-10T16:05:42Z</time>
      </trkpt>
      <trkpt lat="44.98645" lon="0.61629">
        <ele>137.5</ele>
        <time>2022-08-10T16:05:43Z</time>
      </trkpt>
      <trkpt lat="44.9864" lon="0.61631">
        <ele>138.5</ele>
        <time>2022-08-10T16:05:44Z</time>
      </trkpt>
      <trkpt lat="44.98633" lon="0.61631">
        <ele>137.5</ele>
        <time>2022-08-10T16:05:46Z</time>
      </trkpt>
      <trkpt lat="44.98629" lon="0.61632">
        <ele>137.5</ele>
        <time>2022-08-10T16:05:49Z</time>
      </trkpt>
      <trkpt lat="44.98623" lon="0.61635">
        <ele>137.5</ele>
        <time>2022-08-10T16:05:53Z</time>
      </trkpt>
      <trkpt lat="44.98618" lon="0.6164">
        <ele>137.5</ele>
        <time>2022-08-10T16:05:56Z</time>
      </trkpt>
      <trkpt lat="44.98613" lon="0.61645">
        <ele>138.5</ele>
        <time>2022-08-10T16:06:00Z</time>
      </trkpt>
      <trkpt lat="44.98611" lon="0.61651">
        <ele>138.5</ele>
        <time>2022-08-10T16:06:03Z</time>
      </trkpt>
      <trkpt lat="44.98613" lon="0.61659">
        <ele>138.5</ele>
        <time>2022-08-10T16:06:06Z</time>
      </trkpt>
      <trkpt lat="44.98614" lon="0.61666">
        <ele>137.5</ele>
        <time>2022-08-10T16:06:08Z</time>
      </trkpt>
      <trkpt lat="44.98617" lon="0.61674">
        <ele>137.5</ele>
        <time>2022-08-10T16:06:10Z</time>
      </trkpt>
      <trkpt lat="44.98619" lon="0.61682">
        <ele>136.5</ele>
        <time>2022-08-10T16:06:12Z</time>
      </trkpt>
      <trkpt lat="44.98622" lon="0.61691">
        <ele>136.5</ele>
        <time>2022-08-10T16:06:14Z</time>
      </trkpt>
      <trkpt lat="44.98625" lon="0.617">
        <ele>136.5</ele>
        <time>2022-08-10T16:06:16Z</time>
      </trkpt>
      <trkpt lat="44.98627" lon="0.61709">
        <ele>135.5</ele>
        <time>2022-08-10T16:06:18Z</time>
      </trkpt>
      <trkpt lat="44.98632" lon="0.61721">
        <ele>134.5</ele>
        <time>2022-08-10T16:06:20Z</time>
      </trkpt>
      <trkpt lat="44.98636" lon="0.6173">
        <ele>134.5</ele>
        <time>2022-08-10T16:06:22Z</time>
      </trkpt>
      <trkpt lat="44.98639" lon="0.61739">
        <ele>134.5</ele>
        <time>2022-08-10T16:06:24Z</time>
      </trkpt>
      <trkpt lat="44.98643" lon="0.61748">
        <ele>134.5</ele>
        <time>2022-08-10T16:06:26Z</time>
      </trkpt>
      <trkpt lat="44.98646" lon="0.61758">
        <ele>134.5</ele>
        <time>2022-08-10T16:06:28Z</time>
      </trkpt>
      <trkpt lat="44.98649" lon="0.61767">
        <ele>134.5</ele>
        <time>2022-08-10T16:06:30Z</time>
      </trkpt>
      <trkpt lat="44.98651" lon="0.61777">
        <ele>135.5</ele>
        <time>2022-08-10T16:06:32Z</time>
      </trkpt>
      <trkpt lat="44.98654" lon="0.61788">
        <ele>135.5</ele>
        <time>2022-08-10T16:06:34Z</time>
      </trkpt>
      <trkpt lat="44.98656" lon="0.61799">
        <ele>135.5</ele>
        <time>2022-08-10T16:06:36Z</time>
      </trkpt>
      <trkpt lat="44.98658" lon="0.61811">
        <ele>134.5</ele>
        <time>2022-08-10T16:06:38Z</time>
      </trkpt>
      <trkpt lat="44.98659" lon="0.61822">
        <ele>135.5</ele>
        <time>2022-08-10T16:06:40Z</time>
      </trkpt>
      <trkpt lat="44.98661" lon="0.61834">
        <ele>134.5</ele>
        <time>2022-08-10T16:06:42Z</time>
      </trkpt>
      <trkpt lat="44.98662" lon="0.61847">
        <ele>135.5</ele>
        <time>2022-08-10T16:06:44Z</time>
      </trkpt>
      <trkpt lat="44.98662" lon="0.61859">
        <ele>134.5</ele>
        <time>2022-08-10T16:06:46Z</time>
      </trkpt>
      <trkpt lat="44.98663" lon="0.61871">
        <ele>134.5</ele>
        <time>2022-08-10T16:06:48Z</time>
      </trkpt>
      <trkpt lat="44.98664" lon="0.61878">
        <ele>134.5</ele>
        <time>2022-08-10T16:06:49Z</time>
      </trkpt>
      <trkpt lat="44.98664" lon="0.61885">
        <ele>134.5</ele>
        <time>2022-08-10T16:06:50Z</time>
      </trkpt>
      <trkpt lat="44.98664" lon="0.61891">
        <ele>135.5</ele>
        <time>2022-08-10T16:06:51Z</time>
      </trkpt>
      <trkpt lat="44.98663" lon="0.61898">
        <ele>134.5</ele>
        <time>2022-08-10T16:06:52Z</time>
      </trkpt>
      <trkpt lat="44.98663" lon="0.61904">
        <ele>134.5</ele>
        <time>2022-08-10T16:06:53Z</time>
      </trkpt>
      <trkpt lat="44.98662" lon="0.61911">
        <ele>134.5</ele>
        <time>2022-08-10T16:06:54Z</time>
      </trkpt>
      <trkpt lat="44.98661" lon="0.61917">
        <ele>135.5</ele>
        <time>2022-08-10T16:06:55Z</time>
      </trkpt>
      <trkpt lat="44.9866" lon="0.61924">
        <ele>135.5</ele>
        <time>2022-08-10T16:06:56Z</time>
      </trkpt>
      <trkpt lat="44.98659" lon="0.6193">
        <ele>135.5</ele>
        <time>2022-08-10T16:06:57Z</time>
      </trkpt>
      <trkpt lat="44.98658" lon="0.61943">
        <ele>135.5</ele>
        <time>2022-08-10T16:06:59Z</time>
      </trkpt>
      <trkpt lat="44.98657" lon="0.61949">
        <ele>135.5</ele>
        <time>2022-08-10T16:07:00Z</time>
      </trkpt>
      <trkpt lat="44.98656" lon="0.61956">
        <ele>135.5</ele>
        <time>2022-08-10T16:07:01Z</time>
      </trkpt>
      <trkpt lat="44.98654" lon="0.61963">
        <ele>135.5</ele>
        <time>2022-08-10T16:07:02Z</time>
      </trkpt>
      <trkpt lat="44.98652" lon="0.6197">
        <ele>135.5</ele>
        <time>2022-08-10T16:07:03Z</time>
      </trkpt>
      <trkpt lat="44.9865" lon="0.61976">
        <ele>135.5</ele>
        <time>2022-08-10T16:07:04Z</time>
      </trkpt>
      <trkpt lat="44.98648" lon="0.61983">
        <ele>134.5</ele>
        <time>2022-08-10T16:07:05Z</time>
      </trkpt>
      <trkpt lat="44.98645" lon="0.61995">
        <ele>134.5</ele>
        <time>2022-08-10T16:07:07Z</time>
      </trkpt>
      <trkpt lat="44.98643" lon="0.62001">
        <ele>133.5</ele>
        <time>2022-08-10T16:07:08Z</time>
      </trkpt>
      <trkpt lat="44.98642" lon="0.62008">
        <ele>133.5</ele>
        <time>2022-08-10T16:07:09Z</time>
      </trkpt>
      <trkpt lat="44.98639" lon="0.6202">
        <ele>133.5</ele>
        <time>2022-08-10T16:07:11Z</time>
      </trkpt>
      <trkpt lat="44.98638" lon="0.62027">
        <ele>133.5</ele>
        <time>2022-08-10T16:07:12Z</time>
      </trkpt>
      <trkpt lat="44.98636" lon="0.62033">
        <ele>132.5</ele>
        <time>2022-08-10T16:07:13Z</time>
      </trkpt>
      <trkpt lat="44.98635" lon="0.6204">
        <ele>132.5</ele>
        <time>2022-08-10T16:07:14Z</time>
      </trkpt>
      <trkpt lat="44.98633" lon="0.62046">
        <ele>131.5</ele>
        <time>2022-08-10T16:07:15Z</time>
      </trkpt>
      <trkpt lat="44.98632" lon="0.62052">
        <ele>131.5</ele>
        <time>2022-08-10T16:07:16Z</time>
      </trkpt>
      <trkpt lat="44.9863" lon="0.62065">
        <ele>130.5</ele>
        <time>2022-08-10T16:07:18Z</time>
      </trkpt>
      <trkpt lat="44.98628" lon="0.62071">
        <ele>130.5</ele>
        <time>2022-08-10T16:07:19Z</time>
      </trkpt>
      <trkpt lat="44.98626" lon="0.62078">
        <ele>130.5</ele>
        <time>2022-08-10T16:07:20Z</time>
      </trkpt>
      <trkpt lat="44.98624" lon="0.62085">
        <ele>130.5</ele>
        <time>2022-08-10T16:07:21Z</time>
      </trkpt>
      <trkpt lat="44.98622" lon="0.62093">
        <ele>129.5</ele>
        <time>2022-08-10T16:07:22Z</time>
      </trkpt>
      <trkpt lat="44.98621" lon="0.621">
        <ele>129.5</ele>
        <time>2022-08-10T16:07:23Z</time>
      </trkpt>
      <trkpt lat="44.98619" lon="0.62107">
        <ele>129.5</ele>
        <time>2022-08-10T16:07:24Z</time>
      </trkpt>
      <trkpt lat="44.98619" lon="0.62114">
        <ele>128.5</ele>
        <time>2022-08-10T16:07:25Z</time>
      </trkpt>
      <trkpt lat="44.98617" lon="0.62121">
        <ele>128.5</ele>
        <time>2022-08-10T16:07:26Z</time>
      </trkpt>
      <trkpt lat="44.98615" lon="0.62133">
        <ele>128.5</ele>
        <time>2022-08-10T16:07:28Z</time>
      </trkpt>
      <trkpt lat="44.98614" lon="0.62139">
        <ele>127.5</ele>
        <time>2022-08-10T16:07:29Z</time>
      </trkpt>
      <trkpt lat="44.98613" lon="0.62147">
        <ele>127.5</ele>
        <time>2022-08-10T16:07:30Z</time>
      </trkpt>
      <trkpt lat="44.98612" lon="0.62154">
        <ele>127.5</ele>
        <time>2022-08-10T16:07:31Z</time>
      </trkpt>
      <trkpt lat="44.98611" lon="0.62161">
        <ele>127.5</ele>
        <time>2022-08-10T16:07:32Z</time>
      </trkpt>
      <trkpt lat="44.9861" lon="0.62168">
        <ele>127.5</ele>
        <time>2022-08-10T16:07:33Z</time>
      </trkpt>
      <trkpt lat="44.98609" lon="0.62176">
        <ele>127.5</ele>
        <time>2022-08-10T16:07:34Z</time>
      </trkpt>
      <trkpt lat="44.98608" lon="0.62184">
        <ele>127.5</ele>
        <time>2022-08-10T16:07:35Z</time>
      </trkpt>
      <trkpt lat="44.98607" lon="0.62192">
        <ele>127.5</ele>
        <time>2022-08-10T16:07:36Z</time>
      </trkpt>
      <trkpt lat="44.98606" lon="0.62199">
        <ele>127.5</ele>
        <time>2022-08-10T16:07:37Z</time>
      </trkpt>
      <trkpt lat="44.98605" lon="0.62206">
        <ele>126.5</ele>
        <time>2022-08-10T16:07:38Z</time>
      </trkpt>
      <trkpt lat="44.98603" lon="0.62218">
        <ele>126.5</ele>
        <time>2022-08-10T16:07:40Z</time>
      </trkpt>
      <trkpt lat="44.98602" lon="0.62225">
        <ele>126.5</ele>
        <time>2022-08-10T16:07:41Z</time>
      </trkpt>
      <trkpt lat="44.986" lon="0.62232">
        <ele>127.5</ele>
        <time>2022-08-10T16:07:42Z</time>
      </trkpt>
      <trkpt lat="44.98599" lon="0.62239">
        <ele>127.5</ele>
        <time>2022-08-10T16:07:43Z</time>
      </trkpt>
      <trkpt lat="44.98597" lon="0.62246">
        <ele>127.5</ele>
        <time>2022-08-10T16:07:44Z</time>
      </trkpt>
      <trkpt lat="44.98595" lon="0.62252">
        <ele>127.5</ele>
        <time>2022-08-10T16:07:45Z</time>
      </trkpt>
      <trkpt lat="44.98594" lon="0.62259">
        <ele>127.5</ele>
        <time>2022-08-10T16:07:46Z</time>
      </trkpt>
      <trkpt lat="44.98592" lon="0.62265">
        <ele>127.5</ele>
        <time>2022-08-10T16:07:47Z</time>
      </trkpt>
      <trkpt lat="44.9859" lon="0.62271">
        <ele>127.5</ele>
        <time>2022-08-10T16:07:48Z</time>
      </trkpt>
      <trkpt lat="44.98589" lon="0.62278">
        <ele>128.5</ele>
        <time>2022-08-10T16:07:49Z</time>
      </trkpt>
      <trkpt lat="44.98586" lon="0.62288">
        <ele>128.5</ele>
        <time>2022-08-10T16:07:51Z</time>
      </trkpt>
      <trkpt lat="44.98584" lon="0.62299">
        <ele>128.5</ele>
        <time>2022-08-10T16:07:53Z</time>
      </trkpt>
      <trkpt lat="44.98582" lon="0.62311">
        <ele>128.5</ele>
        <time>2022-08-10T16:07:55Z</time>
      </trkpt>
      <trkpt lat="44.9858" lon="0.62322">
        <ele>128.5</ele>
        <time>2022-08-10T16:07:57Z</time>
      </trkpt>
      <trkpt lat="44.98578" lon="0.62328">
        <ele>128.5</ele>
        <time>2022-08-10T16:07:58Z</time>
      </trkpt>
      <trkpt lat="44.98576" lon="0.62339">
        <ele>128.5</ele>
        <time>2022-08-10T16:08:00Z</time>
      </trkpt>
      <trkpt lat="44.98575" lon="0.62351">
        <ele>127.5</ele>
        <time>2022-08-10T16:08:02Z</time>
      </trkpt>
      <trkpt lat="44.98574" lon="0.62363">
        <ele>127.5</ele>
        <time>2022-08-10T16:08:04Z</time>
      </trkpt>
      <trkpt lat="44.98574" lon="0.6237">
        <ele>127.5</ele>
        <time>2022-08-10T16:08:05Z</time>
      </trkpt>
      <trkpt lat="44.98575" lon="0.62377">
        <ele>126.5</ele>
        <time>2022-08-10T16:08:06Z</time>
      </trkpt>
      <trkpt lat="44.98576" lon="0.62384">
        <ele>126.5</ele>
        <time>2022-08-10T16:08:07Z</time>
      </trkpt>
      <trkpt lat="44.98576" lon="0.62391">
        <ele>127.5</ele>
        <time>2022-08-10T16:08:08Z</time>
      </trkpt>
      <trkpt lat="44.98577" lon="0.62398">
        <ele>127.5</ele>
        <time>2022-08-10T16:08:09Z</time>
      </trkpt>
      <trkpt lat="44.98578" lon="0.62404">
        <ele>127.5</ele>
        <time>2022-08-10T16:08:10Z</time>
      </trkpt>
      <trkpt lat="44.98579" lon="0.62411">
        <ele>128.5</ele>
        <time>2022-08-10T16:08:11Z</time>
      </trkpt>
      <trkpt lat="44.9858" lon="0.62419">
        <ele>128.5</ele>
        <time>2022-08-10T16:08:12Z</time>
      </trkpt>
      <trkpt lat="44.98581" lon="0.62426">
        <ele>129.5</ele>
        <time>2022-08-10T16:08:13Z</time>
      </trkpt>
      <trkpt lat="44.98582" lon="0.62434">
        <ele>130.5</ele>
        <time>2022-08-10T16:08:14Z</time>
      </trkpt>
      <trkpt lat="44.98582" lon="0.62442">
        <ele>131.5</ele>
        <time>2022-08-10T16:08:15Z</time>
      </trkpt>
      <trkpt lat="44.98583" lon="0.6245">
        <ele>131.5</ele>
        <time>2022-08-10T16:08:16Z</time>
      </trkpt>
      <trkpt lat="44.98583" lon="0.62457">
        <ele>131.5</ele>
        <time>2022-08-10T16:08:17Z</time>
      </trkpt>
      <trkpt lat="44.98584" lon="0.62465">
        <ele>132.5</ele>
        <time>2022-08-10T16:08:18Z</time>
      </trkpt>
      <trkpt lat="44.98584" lon="0.62473">
        <ele>132.5</ele>
        <time>2022-08-10T16:08:19Z</time>
      </trkpt>
      <trkpt lat="44.98584" lon="0.6248">
        <ele>132.5</ele>
        <time>2022-08-10T16:08:20Z</time>
      </trkpt>
      <trkpt lat="44.98585" lon="0.62488">
        <ele>132.5</ele>
        <time>2022-08-10T16:08:21Z</time>
      </trkpt>
      <trkpt lat="44.98585" lon="0.62495">
        <ele>133.5</ele>
        <time>2022-08-10T16:08:22Z</time>
      </trkpt>
      <trkpt lat="44.98585" lon="0.62502">
        <ele>133.5</ele>
        <time>2022-08-10T16:08:23Z</time>
      </trkpt>
      <trkpt lat="44.98585" lon="0.62509">
        <ele>133.5</ele>
        <time>2022-08-10T16:08:24Z</time>
      </trkpt>
      <trkpt lat="44.98586" lon="0.62516">
        <ele>134.5</ele>
        <time>2022-08-10T16:08:25Z</time>
      </trkpt>
      <trkpt lat="44.98587" lon="0.62522">
        <ele>133.5</ele>
        <time>2022-08-10T16:08:26Z</time>
      </trkpt>
      <trkpt lat="44.98587" lon="0.6253">
        <ele>134.5</ele>
        <time>2022-08-10T16:08:27Z</time>
      </trkpt>
      <trkpt lat="44.98588" lon="0.62537">
        <ele>134.5</ele>
        <time>2022-08-10T16:08:28Z</time>
      </trkpt>
      <trkpt lat="44.9859" lon="0.62545">
        <ele>134.5</ele>
        <time>2022-08-10T16:08:29Z</time>
      </trkpt>
      <trkpt lat="44.98591" lon="0.62551">
        <ele>134.5</ele>
        <time>2022-08-10T16:08:30Z</time>
      </trkpt>
      <trkpt lat="44.98592" lon="0.62559">
        <ele>135.5</ele>
        <time>2022-08-10T16:08:31Z</time>
      </trkpt>
      <trkpt lat="44.98593" lon="0.62566">
        <ele>135.5</ele>
        <time>2022-08-10T16:08:32Z</time>
      </trkpt>
      <trkpt lat="44.98595" lon="0.62572">
        <ele>135.5</ele>
        <time>2022-08-10T16:08:33Z</time>
      </trkpt>
      <trkpt lat="44.98596" lon="0.62579">
        <ele>135.5</ele>
        <time>2022-08-10T16:08:34Z</time>
      </trkpt>
      <trkpt lat="44.986" lon="0.62592">
        <ele>135.5</ele>
        <time>2022-08-10T16:08:36Z</time>
      </trkpt>
      <trkpt lat="44.98602" lon="0.626">
        <ele>136.5</ele>
        <time>2022-08-10T16:08:37Z</time>
      </trkpt>
      <trkpt lat="44.98603" lon="0.62606">
        <ele>136.5</ele>
        <time>2022-08-10T16:08:38Z</time>
      </trkpt>
      <trkpt lat="44.98604" lon="0.62613">
        <ele>136.5</ele>
        <time>2022-08-10T16:08:39Z</time>
      </trkpt>
      <trkpt lat="44.98606" lon="0.62619">
        <ele>136.5</ele>
        <time>2022-08-10T16:08:40Z</time>
      </trkpt>
      <trkpt lat="44.98606" lon="0.62626">
        <ele>136.5</ele>
        <time>2022-08-10T16:08:41Z</time>
      </trkpt>
      <trkpt lat="44.98607" lon="0.62633">
        <ele>137.5</ele>
        <time>2022-08-10T16:08:42Z</time>
      </trkpt>
      <trkpt lat="44.98608" lon="0.6264">
        <ele>137.5</ele>
        <time>2022-08-10T16:08:43Z</time>
      </trkpt>
      <trkpt lat="44.98609" lon="0.62646">
        <ele>137.5</ele>
        <time>2022-08-10T16:08:44Z</time>
      </trkpt>
      <trkpt lat="44.9861" lon="0.62653">
        <ele>137.5</ele>
        <time>2022-08-10T16:08:45Z</time>
      </trkpt>
      <trkpt lat="44.98612" lon="0.6266">
        <ele>138.5</ele>
        <time>2022-08-10T16:08:46Z</time>
      </trkpt>
      <trkpt lat="44.98613" lon="0.62667">
        <ele>138.5</ele>
        <time>2022-08-10T16:08:47Z</time>
      </trkpt>
      <trkpt lat="44.98615" lon="0.62674">
        <ele>138.5</ele>
        <time>2022-08-10T16:08:48Z</time>
      </trkpt>
      <trkpt lat="44.98616" lon="0.6268">
        <ele>138.5</ele>
        <time>2022-08-10T16:08:49Z</time>
      </trkpt>
      <trkpt lat="44.98618" lon="0.62687">
        <ele>138.5</ele>
        <time>2022-08-10T16:08:50Z</time>
      </trkpt>
      <trkpt lat="44.9862" lon="0.62694">
        <ele>138.5</ele>
        <time>2022-08-10T16:08:51Z</time>
      </trkpt>
      <trkpt lat="44.98622" lon="0.627">
        <ele>138.5</ele>
        <time>2022-08-10T16:08:52Z</time>
      </trkpt>
      <trkpt lat="44.98623" lon="0.62707">
        <ele>138.5</ele>
        <time>2022-08-10T16:08:53Z</time>
      </trkpt>
      <trkpt lat="44.98624" lon="0.62714">
        <ele>138.5</ele>
        <time>2022-08-10T16:08:54Z</time>
      </trkpt>
      <trkpt lat="44.98625" lon="0.62721">
        <ele>138.5</ele>
        <time>2022-08-10T16:08:55Z</time>
      </trkpt>
      <trkpt lat="44.98626" lon="0.62728">
        <ele>138.5</ele>
        <time>2022-08-10T16:08:56Z</time>
      </trkpt>
      <trkpt lat="44.98627" lon="0.62735">
        <ele>138.5</ele>
        <time>2022-08-10T16:08:57Z</time>
      </trkpt>
      <trkpt lat="44.98627" lon="0.62743">
        <ele>138.5</ele>
        <time>2022-08-10T16:08:58Z</time>
      </trkpt>
      <trkpt lat="44.98628" lon="0.6275">
        <ele>139.5</ele>
        <time>2022-08-10T16:08:59Z</time>
      </trkpt>
      <trkpt lat="44.98628" lon="0.62757">
        <ele>139.5</ele>
        <time>2022-08-10T16:09:00Z</time>
      </trkpt>
      <trkpt lat="44.98628" lon="0.62764">
        <ele>139.5</ele>
        <time>2022-08-10T16:09:01Z</time>
      </trkpt>
      <trkpt lat="44.98628" lon="0.62772">
        <ele>140.5</ele>
        <time>2022-08-10T16:09:02Z</time>
      </trkpt>
      <trkpt lat="44.98629" lon="0.62779">
        <ele>140.5</ele>
        <time>2022-08-10T16:09:03Z</time>
      </trkpt>
      <trkpt lat="44.98629" lon="0.62786">
        <ele>140.5</ele>
        <time>2022-08-10T16:09:04Z</time>
      </trkpt>
      <trkpt lat="44.9863" lon="0.62792">
        <ele>140.5</ele>
        <time>2022-08-10T16:09:05Z</time>
      </trkpt>
      <trkpt lat="44.9863" lon="0.62799">
        <ele>140.5</ele>
        <time>2022-08-10T16:09:06Z</time>
      </trkpt>
      <trkpt lat="44.9863" lon="0.62805">
        <ele>140.5</ele>
        <time>2022-08-10T16:09:07Z</time>
      </trkpt>
      <trkpt lat="44.9863" lon="0.62818">
        <ele>140.5</ele>
        <time>2022-08-10T16:09:09Z</time>
      </trkpt>
      <trkpt lat="44.9863" lon="0.62825">
        <ele>140.5</ele>
        <time>2022-08-10T16:09:10Z</time>
      </trkpt>
      <trkpt lat="44.9863" lon="0.62832">
        <ele>140.5</ele>
        <time>2022-08-10T16:09:11Z</time>
      </trkpt>
      <trkpt lat="44.9863" lon="0.62838">
        <ele>141.5</ele>
        <time>2022-08-10T16:09:12Z</time>
      </trkpt>
      <trkpt lat="44.98629" lon="0.62845">
        <ele>141.5</ele>
        <time>2022-08-10T16:09:13Z</time>
      </trkpt>
      <trkpt lat="44.98629" lon="0.62858">
        <ele>141.5</ele>
        <time>2022-08-10T16:09:15Z</time>
      </trkpt>
      <trkpt lat="44.9863" lon="0.62865">
        <ele>141.5</ele>
        <time>2022-08-10T16:09:16Z</time>
      </trkpt>
      <trkpt lat="44.9863" lon="0.62872">
        <ele>142.5</ele>
        <time>2022-08-10T16:09:17Z</time>
      </trkpt>
      <trkpt lat="44.98631" lon="0.62879">
        <ele>142.5</ele>
        <time>2022-08-10T16:09:18Z</time>
      </trkpt>
      <trkpt lat="44.98632" lon="0.62887">
        <ele>142.5</ele>
        <time>2022-08-10T16:09:19Z</time>
      </trkpt>
      <trkpt lat="44.98632" lon="0.62893">
        <ele>142.5</ele>
        <time>2022-08-10T16:09:20Z</time>
      </trkpt>
      <trkpt lat="44.98632" lon="0.629">
        <ele>142.5</ele>
        <time>2022-08-10T16:09:21Z</time>
      </trkpt>
      <trkpt lat="44.98632" lon="0.62906">
        <ele>142.5</ele>
        <time>2022-08-10T16:09:22Z</time>
      </trkpt>
      <trkpt lat="44.98632" lon="0.62913">
        <ele>142.5</ele>
        <time>2022-08-10T16:09:23Z</time>
      </trkpt>
      <trkpt lat="44.98632" lon="0.62921">
        <ele>142.5</ele>
        <time>2022-08-10T16:09:24Z</time>
      </trkpt>
      <trkpt lat="44.98634" lon="0.62928">
        <ele>142.5</ele>
        <time>2022-08-10T16:09:25Z</time>
      </trkpt>
      <trkpt lat="44.98635" lon="0.62935">
        <ele>142.5</ele>
        <time>2022-08-10T16:09:26Z</time>
      </trkpt>
      <trkpt lat="44.98636" lon="0.62943">
        <ele>142.5</ele>
        <time>2022-08-10T16:09:27Z</time>
      </trkpt>
      <trkpt lat="44.98637" lon="0.6295">
        <ele>142.5</ele>
        <time>2022-08-10T16:09:28Z</time>
      </trkpt>
      <trkpt lat="44.98638" lon="0.62956">
        <ele>142.5</ele>
        <time>2022-08-10T16:09:29Z</time>
      </trkpt>
      <trkpt lat="44.98639" lon="0.62963">
        <ele>143.5</ele>
        <time>2022-08-10T16:09:30Z</time>
      </trkpt>
      <trkpt lat="44.98641" lon="0.62969">
        <ele>143.5</ele>
        <time>2022-08-10T16:09:31Z</time>
      </trkpt>
      <trkpt lat="44.98642" lon="0.62976">
        <ele>143.5</ele>
        <time>2022-08-10T16:09:32Z</time>
      </trkpt>
      <trkpt lat="44.98644" lon="0.62983">
        <ele>144.5</ele>
        <time>2022-08-10T16:09:33Z</time>
      </trkpt>
      <trkpt lat="44.98646" lon="0.6299">
        <ele>144.5</ele>
        <time>2022-08-10T16:09:34Z</time>
      </trkpt>
      <trkpt lat="44.98648" lon="0.62997">
        <ele>144.5</ele>
        <time>2022-08-10T16:09:35Z</time>
      </trkpt>
      <trkpt lat="44.98651" lon="0.63008">
        <ele>144.5</ele>
        <time>2022-08-10T16:09:37Z</time>
      </trkpt>
      <trkpt lat="44.98653" lon="0.63015">
        <ele>144.5</ele>
        <time>2022-08-10T16:09:38Z</time>
      </trkpt>
      <trkpt lat="44.98655" lon="0.63021">
        <ele>143.5</ele>
        <time>2022-08-10T16:09:39Z</time>
      </trkpt>
      <trkpt lat="44.98657" lon="0.63027">
        <ele>143.5</ele>
        <time>2022-08-10T16:09:40Z</time>
      </trkpt>
      <trkpt lat="44.98659" lon="0.63034">
        <ele>143.5</ele>
        <time>2022-08-10T16:09:41Z</time>
      </trkpt>
      <trkpt lat="44.98661" lon="0.6304">
        <ele>143.5</ele>
        <time>2022-08-10T16:09:42Z</time>
      </trkpt>
      <trkpt lat="44.98664" lon="0.63046">
        <ele>143.5</ele>
        <time>2022-08-10T16:09:43Z</time>
      </trkpt>
      <trkpt lat="44.98666" lon="0.63052">
        <ele>143.5</ele>
        <time>2022-08-10T16:09:44Z</time>
      </trkpt>
      <trkpt lat="44.98668" lon="0.63059">
        <ele>143.5</ele>
        <time>2022-08-10T16:09:45Z</time>
      </trkpt>
      <trkpt lat="44.9867" lon="0.63065">
        <ele>143.5</ele>
        <time>2022-08-10T16:09:46Z</time>
      </trkpt>
      <trkpt lat="44.98672" lon="0.63072">
        <ele>143.5</ele>
        <time>2022-08-10T16:09:47Z</time>
      </trkpt>
      <trkpt lat="44.98674" lon="0.63078">
        <ele>143.5</ele>
        <time>2022-08-10T16:09:48Z</time>
      </trkpt>
      <trkpt lat="44.98676" lon="0.63085">
        <ele>144.5</ele>
        <time>2022-08-10T16:09:49Z</time>
      </trkpt>
      <trkpt lat="44.98679" lon="0.63091">
        <ele>144.5</ele>
        <time>2022-08-10T16:09:50Z</time>
      </trkpt>
      <trkpt lat="44.98681" lon="0.63097">
        <ele>144.5</ele>
        <time>2022-08-10T16:09:51Z</time>
      </trkpt>
      <trkpt lat="44.98683" lon="0.63103">
        <ele>145.5</ele>
        <time>2022-08-10T16:09:52Z</time>
      </trkpt>
      <trkpt lat="44.98687" lon="0.63114">
        <ele>145.5</ele>
        <time>2022-08-10T16:09:54Z</time>
      </trkpt>
      <trkpt lat="44.9869" lon="0.63121">
        <ele>145.5</ele>
        <time>2022-08-10T16:09:55Z</time>
      </trkpt>
      <trkpt lat="44.98692" lon="0.63127">
        <ele>145.5</ele>
        <time>2022-08-10T16:09:56Z</time>
      </trkpt>
      <trkpt lat="44.98694" lon="0.63134">
        <ele>144.5</ele>
        <time>2022-08-10T16:09:57Z</time>
      </trkpt>
      <trkpt lat="44.98695" lon="0.6314">
        <ele>145.5</ele>
        <time>2022-08-10T16:09:58Z</time>
      </trkpt>
      <trkpt lat="44.98699" lon="0.63152">
        <ele>144.5</ele>
        <time>2022-08-10T16:10:00Z</time>
      </trkpt>
      <trkpt lat="44.98701" lon="0.63159">
        <ele>144.5</ele>
        <time>2022-08-10T16:10:01Z</time>
      </trkpt>
      <trkpt lat="44.98703" lon="0.63166">
        <ele>144.5</ele>
        <time>2022-08-10T16:10:02Z</time>
      </trkpt>
      <trkpt lat="44.98705" lon="0.63173">
        <ele>145.5</ele>
        <time>2022-08-10T16:10:03Z</time>
      </trkpt>
      <trkpt lat="44.98706" lon="0.6318">
        <ele>144.5</ele>
        <time>2022-08-10T16:10:04Z</time>
      </trkpt>
      <trkpt lat="44.98707" lon="0.63187">
        <ele>144.5</ele>
        <time>2022-08-10T16:10:05Z</time>
      </trkpt>
      <trkpt lat="44.98708" lon="0.63193">
        <ele>144.5</ele>
        <time>2022-08-10T16:10:06Z</time>
      </trkpt>
      <trkpt lat="44.98709" lon="0.632">
        <ele>143.5</ele>
        <time>2022-08-10T16:10:07Z</time>
      </trkpt>
      <trkpt lat="44.98709" lon="0.63207">
        <ele>144.5</ele>
        <time>2022-08-10T16:10:08Z</time>
      </trkpt>
      <trkpt lat="44.9871" lon="0.63214">
        <ele>144.5</ele>
        <time>2022-08-10T16:10:09Z</time>
      </trkpt>
      <trkpt lat="44.9871" lon="0.63221">
        <ele>144.5</ele>
        <time>2022-08-10T16:10:10Z</time>
      </trkpt>
      <trkpt lat="44.98711" lon="0.63227">
        <ele>145.5</ele>
        <time>2022-08-10T16:10:11Z</time>
      </trkpt>
      <trkpt lat="44.98711" lon="0.63234">
        <ele>145.5</ele>
        <time>2022-08-10T16:10:12Z</time>
      </trkpt>
      <trkpt lat="44.98712" lon="0.63241">
        <ele>145.5</ele>
        <time>2022-08-10T16:10:13Z</time>
      </trkpt>
      <trkpt lat="44.98712" lon="0.63247">
        <ele>145.5</ele>
        <time>2022-08-10T16:10:14Z</time>
      </trkpt>
      <trkpt lat="44.98711" lon="0.6326">
        <ele>146.5</ele>
        <time>2022-08-10T16:10:16Z</time>
      </trkpt>
      <trkpt lat="44.98711" lon="0.63267">
        <ele>146.5</ele>
        <time>2022-08-10T16:10:17Z</time>
      </trkpt>
      <trkpt lat="44.9871" lon="0.63273">
        <ele>146.5</ele>
        <time>2022-08-10T16:10:18Z</time>
      </trkpt>
      <trkpt lat="44.98708" lon="0.63286">
        <ele>146.5</ele>
        <time>2022-08-10T16:10:20Z</time>
      </trkpt>
      <trkpt lat="44.98707" lon="0.63299">
        <ele>146.5</ele>
        <time>2022-08-10T16:10:22Z</time>
      </trkpt>
      <trkpt lat="44.98707" lon="0.63305">
        <ele>146.5</ele>
        <time>2022-08-10T16:10:23Z</time>
      </trkpt>
      <trkpt lat="44.98706" lon="0.63313">
        <ele>146.5</ele>
        <time>2022-08-10T16:10:24Z</time>
      </trkpt>
      <trkpt lat="44.98706" lon="0.6332">
        <ele>146.5</ele>
        <time>2022-08-10T16:10:25Z</time>
      </trkpt>
      <trkpt lat="44.98706" lon="0.63326">
        <ele>146.5</ele>
        <time>2022-08-10T16:10:26Z</time>
      </trkpt>
      <trkpt lat="44.98706" lon="0.63333">
        <ele>146.5</ele>
        <time>2022-08-10T16:10:27Z</time>
      </trkpt>
      <trkpt lat="44.98706" lon="0.6334">
        <ele>145.5</ele>
        <time>2022-08-10T16:10:28Z</time>
      </trkpt>
      <trkpt lat="44.98706" lon="0.63347">
        <ele>145.5</ele>
        <time>2022-08-10T16:10:29Z</time>
      </trkpt>
      <trkpt lat="44.98706" lon="0.63353">
        <ele>145.5</ele>
        <time>2022-08-10T16:10:30Z</time>
      </trkpt>
      <trkpt lat="44.98706" lon="0.6336">
        <ele>145.5</ele>
        <time>2022-08-10T16:10:31Z</time>
      </trkpt>
      <trkpt lat="44.98707" lon="0.63367">
        <ele>146.5</ele>
        <time>2022-08-10T16:10:32Z</time>
      </trkpt>
      <trkpt lat="44.98707" lon="0.63374">
        <ele>145.5</ele>
        <time>2022-08-10T16:10:33Z</time>
      </trkpt>
      <trkpt lat="44.98707" lon="0.63381">
        <ele>145.5</ele>
        <time>2022-08-10T16:10:34Z</time>
      </trkpt>
      <trkpt lat="44.98708" lon="0.63387">
        <ele>145.5</ele>
        <time>2022-08-10T16:10:35Z</time>
      </trkpt>
      <trkpt lat="44.98707" lon="0.63394">
        <ele>145.5</ele>
        <time>2022-08-10T16:10:36Z</time>
      </trkpt>
      <trkpt lat="44.98707" lon="0.634">
        <ele>145.5</ele>
        <time>2022-08-10T16:10:37Z</time>
      </trkpt>
      <trkpt lat="44.98707" lon="0.63413">
        <ele>145.5</ele>
        <time>2022-08-10T16:10:39Z</time>
      </trkpt>
      <trkpt lat="44.98706" lon="0.63419">
        <ele>146.5</ele>
        <time>2022-08-10T16:10:40Z</time>
      </trkpt>
      <trkpt lat="44.98705" lon="0.63426">
        <ele>145.5</ele>
        <time>2022-08-10T16:10:41Z</time>
      </trkpt>
      <trkpt lat="44.98704" lon="0.63433">
        <ele>145.5</ele>
        <time>2022-08-10T16:10:42Z</time>
      </trkpt>
      <trkpt lat="44.98703" lon="0.63439">
        <ele>145.5</ele>
        <time>2022-08-10T16:10:43Z</time>
      </trkpt>
      <trkpt lat="44.98702" lon="0.63445">
        <ele>146.5</ele>
        <time>2022-08-10T16:10:44Z</time>
      </trkpt>
      <trkpt lat="44.98701" lon="0.63452">
        <ele>146.5</ele>
        <time>2022-08-10T16:10:45Z</time>
      </trkpt>
      <trkpt lat="44.987" lon="0.63459">
        <ele>146.5</ele>
        <time>2022-08-10T16:10:46Z</time>
      </trkpt>
      <trkpt lat="44.98699" lon="0.63465">
        <ele>145.5</ele>
        <time>2022-08-10T16:10:47Z</time>
      </trkpt>
      <trkpt lat="44.98697" lon="0.63472">
        <ele>145.5</ele>
        <time>2022-08-10T16:10:48Z</time>
      </trkpt>
      <trkpt lat="44.98696" lon="0.63479">
        <ele>145.5</ele>
        <time>2022-08-10T16:10:49Z</time>
      </trkpt>
      <trkpt lat="44.98695" lon="0.63485">
        <ele>145.5</ele>
        <time>2022-08-10T16:10:50Z</time>
      </trkpt>
      <trkpt lat="44.98694" lon="0.63492">
        <ele>145.5</ele>
        <time>2022-08-10T16:10:51Z</time>
      </trkpt>
      <trkpt lat="44.98693" lon="0.63499">
        <ele>145.5</ele>
        <time>2022-08-10T16:10:52Z</time>
      </trkpt>
      <trkpt lat="44.98691" lon="0.63506">
        <ele>145.5</ele>
        <time>2022-08-10T16:10:53Z</time>
      </trkpt>
      <trkpt lat="44.9869" lon="0.63513">
        <ele>145.5</ele>
        <time>2022-08-10T16:10:54Z</time>
      </trkpt>
      <trkpt lat="44.98689" lon="0.6352">
        <ele>146.5</ele>
        <time>2022-08-10T16:10:55Z</time>
      </trkpt>
      <trkpt lat="44.98688" lon="0.63528">
        <ele>146.5</ele>
        <time>2022-08-10T16:10:56Z</time>
      </trkpt>
      <trkpt lat="44.98687" lon="0.63535">
        <ele>146.5</ele>
        <time>2022-08-10T16:10:57Z</time>
      </trkpt>
      <trkpt lat="44.98686" lon="0.63542">
        <ele>146.5</ele>
        <time>2022-08-10T16:10:58Z</time>
      </trkpt>
      <trkpt lat="44.98686" lon="0.63549">
        <ele>146.5</ele>
        <time>2022-08-10T16:10:59Z</time>
      </trkpt>
      <trkpt lat="44.98686" lon="0.63556">
        <ele>147.5</ele>
        <time>2022-08-10T16:11:00Z</time>
      </trkpt>
      <trkpt lat="44.98686" lon="0.63563">
        <ele>147.5</ele>
        <time>2022-08-10T16:11:01Z</time>
      </trkpt>
      <trkpt lat="44.98686" lon="0.6357">
        <ele>147.5</ele>
        <time>2022-08-10T16:11:02Z</time>
      </trkpt>
      <trkpt lat="44.98686" lon="0.63576">
        <ele>147.5</ele>
        <time>2022-08-10T16:11:03Z</time>
      </trkpt>
      <trkpt lat="44.98686" lon="0.63583">
        <ele>147.5</ele>
        <time>2022-08-10T16:11:04Z</time>
      </trkpt>
      <trkpt lat="44.98686" lon="0.6359">
        <ele>147.5</ele>
        <time>2022-08-10T16:11:05Z</time>
      </trkpt>
      <trkpt lat="44.98687" lon="0.63597">
        <ele>147.5</ele>
        <time>2022-08-10T16:11:06Z</time>
      </trkpt>
      <trkpt lat="44.98688" lon="0.63604">
        <ele>147.5</ele>
        <time>2022-08-10T16:11:07Z</time>
      </trkpt>
      <trkpt lat="44.98689" lon="0.63611">
        <ele>147.5</ele>
        <time>2022-08-10T16:11:08Z</time>
      </trkpt>
      <trkpt lat="44.9869" lon="0.63617">
        <ele>147.5</ele>
        <time>2022-08-10T16:11:09Z</time>
      </trkpt>
      <trkpt lat="44.98692" lon="0.63624">
        <ele>147.5</ele>
        <time>2022-08-10T16:11:10Z</time>
      </trkpt>
      <trkpt lat="44.98694" lon="0.6363">
        <ele>147.5</ele>
        <time>2022-08-10T16:11:11Z</time>
      </trkpt>
      <trkpt lat="44.98696" lon="0.63636">
        <ele>147.5</ele>
        <time>2022-08-10T16:11:12Z</time>
      </trkpt>
      <trkpt lat="44.98698" lon="0.63642">
        <ele>147.5</ele>
        <time>2022-08-10T16:11:13Z</time>
      </trkpt>
      <trkpt lat="44.98701" lon="0.63648">
        <ele>147.5</ele>
        <time>2022-08-10T16:11:14Z</time>
      </trkpt>
      <trkpt lat="44.98703" lon="0.63654">
        <ele>148.5</ele>
        <time>2022-08-10T16:11:15Z</time>
      </trkpt>
      <trkpt lat="44.98706" lon="0.63659">
        <ele>147.5</ele>
        <time>2022-08-10T16:11:16Z</time>
      </trkpt>
      <trkpt lat="44.98711" lon="0.63668">
        <ele>147.5</ele>
        <time>2022-08-10T16:11:18Z</time>
      </trkpt>
      <trkpt lat="44.98714" lon="0.63676">
        <ele>148.5</ele>
        <time>2022-08-10T16:11:20Z</time>
      </trkpt>
      <trkpt lat="44.98716" lon="0.63682">
        <ele>147.5</ele>
        <time>2022-08-10T16:11:22Z</time>
      </trkpt>
      <trkpt lat="44.98718" lon="0.63689">
        <ele>148.5</ele>
        <time>2022-08-10T16:11:24Z</time>
      </trkpt>
      <trkpt lat="44.98718" lon="0.63696">
        <ele>148.5</ele>
        <time>2022-08-10T16:11:26Z</time>
      </trkpt>
      <trkpt lat="44.98718" lon="0.63703">
        <ele>148.5</ele>
        <time>2022-08-10T16:11:28Z</time>
      </trkpt>
      <trkpt lat="44.98718" lon="0.63709">
        <ele>148.5</ele>
        <time>2022-08-10T16:11:30Z</time>
      </trkpt>
      <trkpt lat="44.98718" lon="0.63716">
        <ele>148.5</ele>
        <time>2022-08-10T16:11:34Z</time>
      </trkpt>
      <trkpt lat="44.98715" lon="0.63724">
        <ele>149.5</ele>
        <time>2022-08-10T16:11:38Z</time>
      </trkpt>
      <trkpt lat="44.98713" lon="0.6373">
        <ele>150.5</ele>
        <time>2022-08-10T16:11:41Z</time>
      </trkpt>
      <trkpt lat="44.98709" lon="0.63736">
        <ele>149.5</ele>
        <time>2022-08-10T16:11:45Z</time>
      </trkpt>
      <trkpt lat="44.98706" lon="0.63742">
        <ele>149.5</ele>
        <time>2022-08-10T16:11:48Z</time>
      </trkpt>
      <trkpt lat="44.98702" lon="0.63747">
        <ele>150.5</ele>
        <time>2022-08-10T16:11:51Z</time>
      </trkpt>
      <trkpt lat="44.98699" lon="0.63752">
        <ele>150.5</ele>
        <time>2022-08-10T16:11:54Z</time>
      </trkpt>
      <trkpt lat="44.98694" lon="0.63759">
        <ele>150.5</ele>
        <time>2022-08-10T16:11:57Z</time>
      </trkpt>
      <trkpt lat="44.9869" lon="0.63766">
        <ele>150.5</ele>
        <time>2022-08-10T16:12:00Z</time>
      </trkpt>
      <trkpt lat="44.98688" lon="0.63773">
        <ele>150.5</ele>
        <time>2022-08-10T16:12:03Z</time>
      </trkpt>
      <trkpt lat="44.98685" lon="0.6378">
        <ele>150.5</ele>
        <time>2022-08-10T16:12:06Z</time>
      </trkpt>
      <trkpt lat="44.9868" lon="0.63785">
        <ele>150.5</ele>
        <time>2022-08-10T16:12:09Z</time>
      </trkpt>
      <trkpt lat="44.98676" lon="0.63792">
        <ele>151.5</ele>
        <time>2022-08-10T16:12:12Z</time>
      </trkpt>
      <trkpt lat="44.98672" lon="0.63798">
        <ele>152.5</ele>
        <time>2022-08-10T16:12:15Z</time>
      </trkpt>
      <trkpt lat="44.98668" lon="0.63805">
        <ele>153.5</ele>
        <time>2022-08-10T16:12:18Z</time>
      </trkpt>
      <trkpt lat="44.98664" lon="0.63811">
        <ele>155.5</ele>
        <time>2022-08-10T16:12:21Z</time>
      </trkpt>
      <trkpt lat="44.98662" lon="0.63817">
        <ele>155.5</ele>
        <time>2022-08-10T16:12:24Z</time>
      </trkpt>
      <trkpt lat="44.98659" lon="0.63825">
        <ele>156.5</ele>
        <time>2022-08-10T16:12:27Z</time>
      </trkpt>
      <trkpt lat="44.98656" lon="0.63833">
        <ele>157.5</ele>
        <time>2022-08-10T16:12:30Z</time>
      </trkpt>
      <trkpt lat="44.98655" lon="0.6384">
        <ele>158.5</ele>
        <time>2022-08-10T16:12:33Z</time>
      </trkpt>
      <trkpt lat="44.98653" lon="0.63851">
        <ele>161.5</ele>
        <time>2022-08-10T16:12:36Z</time>
      </trkpt>
      <trkpt lat="44.98652" lon="0.63858">
        <ele>160.5</ele>
        <time>2022-08-10T16:12:39Z</time>
      </trkpt>
      <trkpt lat="44.98651" lon="0.63864">
        <ele>160.5</ele>
        <time>2022-08-10T16:12:42Z</time>
      </trkpt>
      <trkpt lat="44.98649" lon="0.6387">
        <ele>161.5</ele>
        <time>2022-08-10T16:12:45Z</time>
      </trkpt>
      <trkpt lat="44.98647" lon="0.63877">
        <ele>162.5</ele>
        <time>2022-08-10T16:12:48Z</time>
      </trkpt>
      <trkpt lat="44.98645" lon="0.63884">
        <ele>162.5</ele>
        <time>2022-08-10T16:12:51Z</time>
      </trkpt>
      <trkpt lat="44.98643" lon="0.63891">
        <ele>163.5</ele>
        <time>2022-08-10T16:12:54Z</time>
      </trkpt>
      <trkpt lat="44.98641" lon="0.63899">
        <ele>162.5</ele>
        <time>2022-08-10T16:12:57Z</time>
      </trkpt>
      <trkpt lat="44.9864" lon="0.63906">
        <ele>163.5</ele>
        <time>2022-08-10T16:13:00Z</time>
      </trkpt>
      <trkpt lat="44.98638" lon="0.63913">
        <ele>164.5</ele>
        <time>2022-08-10T16:13:03Z</time>
      </trkpt>
      <trkpt lat="44.98635" lon="0.6392">
        <ele>164.5</ele>
        <time>2022-08-10T16:13:06Z</time>
      </trkpt>
      <trkpt lat="44.98634" lon="0.63926">
        <ele>165.5</ele>
        <time>2022-08-10T16:13:09Z</time>
      </trkpt>
      <trkpt lat="44.98632" lon="0.63932">
        <ele>164.5</ele>
        <time>2022-08-10T16:13:12Z</time>
      </trkpt>
      <trkpt lat="44.98629" lon="0.63938">
        <ele>165.5</ele>
        <time>2022-08-10T16:13:15Z</time>
      </trkpt>
      <trkpt lat="44.98627" lon="0.63945">
        <ele>166.5</ele>
        <time>2022-08-10T16:13:18Z</time>
      </trkpt>
      <trkpt lat="44.98624" lon="0.63952">
        <ele>166.5</ele>
        <time>2022-08-10T16:13:21Z</time>
      </trkpt>
      <trkpt lat="44.98621" lon="0.63958">
        <ele>166.5</ele>
        <time>2022-08-10T16:13:24Z</time>
      </trkpt>
      <trkpt lat="44.98619" lon="0.63964">
        <ele>166.5</ele>
        <time>2022-08-10T16:13:27Z</time>
      </trkpt>
      <trkpt lat="44.98616" lon="0.6397">
        <ele>167.5</ele>
        <time>2022-08-10T16:13:30Z</time>
      </trkpt>
      <trkpt lat="44.98612" lon="0.63976">
        <ele>168.5</ele>
        <time>2022-08-10T16:13:33Z</time>
      </trkpt>
      <trkpt lat="44.98608" lon="0.63983">
        <ele>168.5</ele>
        <time>2022-08-10T16:13:36Z</time>
      </trkpt>
      <trkpt lat="44.98604" lon="0.63989">
        <ele>169.5</ele>
        <time>2022-08-10T16:13:39Z</time>
      </trkpt>
      <trkpt lat="44.98601" lon="0.63996">
        <ele>169.5</ele>
        <time>2022-08-10T16:13:42Z</time>
      </trkpt>
      <trkpt lat="44.98598" lon="0.64002">
        <ele>170.5</ele>
        <time>2022-08-10T16:13:45Z</time>
      </trkpt>
      <trkpt lat="44.98595" lon="0.64007">
        <ele>170.5</ele>
        <time>2022-08-10T16:13:48Z</time>
      </trkpt>
      <trkpt lat="44.98593" lon="0.64014">
        <ele>170.5</ele>
        <time>2022-08-10T16:13:51Z</time>
      </trkpt>
      <trkpt lat="44.98592" lon="0.6402">
        <ele>171.5</ele>
        <time>2022-08-10T16:13:54Z</time>
      </trkpt>
      <trkpt lat="44.9859" lon="0.64027">
        <ele>172.5</ele>
        <time>2022-08-10T16:13:57Z</time>
      </trkpt>
      <trkpt lat="44.9859" lon="0.64035">
        <ele>172.5</ele>
        <time>2022-08-10T16:14:00Z</time>
      </trkpt>
      <trkpt lat="44.98591" lon="0.64042">
        <ele>172.5</ele>
        <time>2022-08-10T16:14:03Z</time>
      </trkpt>
      <trkpt lat="44.98595" lon="0.64049">
        <ele>172.5</ele>
        <time>2022-08-10T16:14:06Z</time>
      </trkpt>
      <trkpt lat="44.98599" lon="0.64054">
        <ele>172.5</ele>
        <time>2022-08-10T16:14:09Z</time>
      </trkpt>
      <trkpt lat="44.98603" lon="0.64059">
        <ele>173.5</ele>
        <time>2022-08-10T16:14:12Z</time>
      </trkpt>
      <trkpt lat="44.98607" lon="0.64063">
        <ele>174.5</ele>
        <time>2022-08-10T16:14:15Z</time>
      </trkpt>
      <trkpt lat="44.98611" lon="0.64064">
        <ele>174.5</ele>
        <time>2022-08-10T16:14:18Z</time>
      </trkpt>
      <trkpt lat="44.98617" lon="0.64065">
        <ele>174.5</ele>
        <time>2022-08-10T16:14:22Z</time>
      </trkpt>
      <trkpt lat="44.98623" lon="0.64068">
        <ele>173.5</ele>
        <time>2022-08-10T16:14:26Z</time>
      </trkpt>
      <trkpt lat="44.98628" lon="0.64068">
        <ele>173.5</ele>
        <time>2022-08-10T16:14:29Z</time>
      </trkpt>
      <trkpt lat="44.98633" lon="0.64066">
        <ele>172.5</ele>
        <time>2022-08-10T16:14:33Z</time>
      </trkpt>
      <trkpt lat="44.98638" lon="0.64064">
        <ele>171.5</ele>
        <time>2022-08-10T16:14:36Z</time>
      </trkpt>
      <trkpt lat="44.98644" lon="0.64063">
        <ele>171.5</ele>
        <time>2022-08-10T16:14:39Z</time>
      </trkpt>
      <trkpt lat="44.98649" lon="0.64062">
        <ele>170.5</ele>
        <time>2022-08-10T16:14:42Z</time>
      </trkpt>
      <trkpt lat="44.98654" lon="0.64061">
        <ele>170.5</ele>
        <time>2022-08-10T16:14:45Z</time>
      </trkpt>
      <trkpt lat="44.98658" lon="0.64059">
        <ele>171.5</ele>
        <time>2022-08-10T16:14:48Z</time>
      </trkpt>
      <trkpt lat="44.98663" lon="0.64057">
        <ele>171.5</ele>
        <time>2022-08-10T16:14:51Z</time>
      </trkpt>
      <trkpt lat="44.98668" lon="0.64054">
        <ele>171.5</ele>
        <time>2022-08-10T16:14:54Z</time>
      </trkpt>
      <trkpt lat="44.98673" lon="0.64052">
        <ele>171.5</ele>
        <time>2022-08-10T16:14:57Z</time>
      </trkpt>
      <trkpt lat="44.98679" lon="0.6405">
        <ele>170.5</ele>
        <time>2022-08-10T16:15:00Z</time>
      </trkpt>
      <trkpt lat="44.98684" lon="0.64051">
        <ele>170.5</ele>
        <time>2022-08-10T16:15:04Z</time>
      </trkpt>
      <trkpt lat="44.9869" lon="0.64049">
        <ele>170.5</ele>
        <time>2022-08-10T16:15:08Z</time>
      </trkpt>
      <trkpt lat="44.98695" lon="0.64046">
        <ele>170.5</ele>
        <time>2022-08-10T16:15:11Z</time>
      </trkpt>
      <trkpt lat="44.98701" lon="0.64044">
        <ele>170.5</ele>
        <time>2022-08-10T16:15:14Z</time>
      </trkpt>
      <trkpt lat="44.98708" lon="0.64041">
        <ele>170.5</ele>
        <time>2022-08-10T16:15:17Z</time>
      </trkpt>
      <trkpt lat="44.98715" lon="0.6404">
        <ele>171.5</ele>
        <time>2022-08-10T16:15:21Z</time>
      </trkpt>
      <trkpt lat="44.9872" lon="0.64037">
        <ele>174.5</ele>
        <time>2022-08-10T16:15:24Z</time>
      </trkpt>
      <trkpt lat="44.98725" lon="0.64035">
        <ele>176.5</ele>
        <time>2022-08-10T16:15:27Z</time>
      </trkpt>
      <trkpt lat="44.9873" lon="0.64035">
        <ele>176.5</ele>
        <time>2022-08-10T16:15:29Z</time>
      </trkpt>
      <trkpt lat="44.98736" lon="0.64035">
        <ele>178.5</ele>
        <time>2022-08-10T16:15:32Z</time>
      </trkpt>
      <trkpt lat="44.98741" lon="0.64034">
        <ele>178.5</ele>
        <time>2022-08-10T16:15:35Z</time>
      </trkpt>
      <trkpt lat="44.98746" lon="0.64034">
        <ele>178.5</ele>
        <time>2022-08-10T16:15:38Z</time>
      </trkpt>
      <trkpt lat="44.98753" lon="0.64029">
        <ele>178.5</ele>
        <time>2022-08-10T16:15:42Z</time>
      </trkpt>
      <trkpt lat="44.9876" lon="0.64023">
        <ele>178.5</ele>
        <time>2022-08-10T16:15:44Z</time>
      </trkpt>
      <trkpt lat="44.98766" lon="0.64019">
        <ele>179.5</ele>
        <time>2022-08-10T16:15:46Z</time>
      </trkpt>
      <trkpt lat="44.98771" lon="0.64017">
        <ele>179.5</ele>
        <time>2022-08-10T16:15:48Z</time>
      </trkpt>
      <trkpt lat="44.98775" lon="0.6402">
        <ele>187.5</ele>
        <time>2022-08-10T16:17:36Z</time>
      </trkpt>
      <trkpt lat="44.98771" lon="0.64016">
        <ele>189.5</ele>
        <time>2022-08-10T16:17:49Z</time>
      </trkpt>
      <trkpt lat="44.98777" lon="0.64018">
        <ele>191.5</ele>
        <time>2022-08-10T16:20:52Z</time>
      </trkpt>
      <trkpt lat="44.98779" lon="0.64023">
        <ele>191.5</ele>
        <time>2022-08-10T16:20:57Z</time>
      </trkpt>
      <trkpt lat="44.98775" lon="0.64028">
        <ele>192.5</ele>
        <time>2022-08-10T16:23:52Z</time>
      </trkpt>
      <trkpt lat="44.9877" lon="0.64034">
        <ele>193.5</ele>
        <time>2022-08-10T16:23:56Z</time>
      </trkpt>
      <trkpt lat="44.98767" lon="0.64039">
        <ele>193.5</ele>
        <time>2022-08-10T16:24:00Z</time>
      </trkpt>
      <trkpt lat="44.98763" lon="0.64044">
        <ele>192.5</ele>
        <time>2022-08-10T16:24:04Z</time>
      </trkpt>
      <trkpt lat="44.98764" lon="0.64053">
        <ele>191.5</ele>
        <time>2022-08-10T16:24:09Z</time>
      </trkpt>
      <trkpt lat="44.98766" lon="0.6406">
        <ele>190.5</ele>
        <time>2022-08-10T16:24:12Z</time>
      </trkpt>
      <trkpt lat="44.98768" lon="0.64067">
        <ele>190.5</ele>
        <time>2022-08-10T16:24:15Z</time>
      </trkpt>
      <trkpt lat="44.98769" lon="0.64074">
        <ele>189.5</ele>
        <time>2022-08-10T16:24:18Z</time>
      </trkpt>
      <trkpt lat="44.98771" lon="0.64082">
        <ele>188.5</ele>
        <time>2022-08-10T16:24:21Z</time>
      </trkpt>
      <trkpt lat="44.98774" lon="0.6409">
        <ele>187.5</ele>
        <time>2022-08-10T16:24:24Z</time>
      </trkpt>
      <trkpt lat="44.98775" lon="0.64098">
        <ele>188.5</ele>
        <time>2022-08-10T16:24:27Z</time>
      </trkpt>
      <trkpt lat="44.98776" lon="0.64105">
        <ele>189.5</ele>
        <time>2022-08-10T16:24:30Z</time>
      </trkpt>
      <trkpt lat="44.98778" lon="0.64111">
        <ele>189.5</ele>
        <time>2022-08-10T16:24:33Z</time>
      </trkpt>
      <trkpt lat="44.9878" lon="0.64121">
        <ele>189.5</ele>
        <time>2022-08-10T16:24:36Z</time>
      </trkpt>
      <trkpt lat="44.98781" lon="0.6413">
        <ele>190.5</ele>
        <time>2022-08-10T16:24:39Z</time>
      </trkpt>
      <trkpt lat="44.98782" lon="0.64136">
        <ele>189.5</ele>
        <time>2022-08-10T16:24:41Z</time>
      </trkpt>
      <trkpt lat="44.98785" lon="0.64142">
        <ele>188.5</ele>
        <time>2022-08-10T16:24:43Z</time>
      </trkpt>
      <trkpt lat="44.98787" lon="0.64149">
        <ele>188.5</ele>
        <time>2022-08-10T16:24:45Z</time>
      </trkpt>
      <trkpt lat="44.98787" lon="0.64157">
        <ele>189.5</ele>
        <time>2022-08-10T16:24:47Z</time>
      </trkpt>
      <trkpt lat="44.98788" lon="0.64166">
        <ele>189.5</ele>
        <time>2022-08-10T16:24:49Z</time>
      </trkpt>
      <trkpt lat="44.98789" lon="0.64175">
        <ele>190.5</ele>
        <time>2022-08-10T16:24:51Z</time>
      </trkpt>
      <trkpt lat="44.9879" lon="0.64185">
        <ele>190.5</ele>
        <time>2022-08-10T16:24:53Z</time>
      </trkpt>
      <trkpt lat="44.98791" lon="0.64194">
        <ele>190.5</ele>
        <time>2022-08-10T16:24:55Z</time>
      </trkpt>
      <trkpt lat="44.98793" lon="0.64204">
        <ele>190.5</ele>
        <time>2022-08-10T16:24:57Z</time>
      </trkpt>
      <trkpt lat="44.98794" lon="0.64215">
        <ele>190.5</ele>
        <time>2022-08-10T16:24:59Z</time>
      </trkpt>
      <trkpt lat="44.98795" lon="0.64222">
        <ele>191.5</ele>
        <time>2022-08-10T16:25:00Z</time>
      </trkpt>
      <trkpt lat="44.98795" lon="0.64232">
        <ele>191.5</ele>
        <time>2022-08-10T16:25:02Z</time>
      </trkpt>
      <trkpt lat="44.98796" lon="0.64242">
        <ele>192.5</ele>
        <time>2022-08-10T16:25:04Z</time>
      </trkpt>
      <trkpt lat="44.98796" lon="0.64251">
        <ele>193.5</ele>
        <time>2022-08-10T16:25:06Z</time>
      </trkpt>
      <trkpt lat="44.98792" lon="0.64256">
        <ele>192.5</ele>
        <time>2022-08-10T16:25:08Z</time>
      </trkpt>
      <trkpt lat="44.98787" lon="0.64258">
        <ele>192.5</ele>
        <time>2022-08-10T16:25:10Z</time>
      </trkpt>
      <trkpt lat="44.98782" lon="0.6426">
        <ele>193.5</ele>
        <time>2022-08-10T16:25:12Z</time>
      </trkpt>
      <trkpt lat="44.98777" lon="0.64262">
        <ele>193.5</ele>
        <time>2022-08-10T16:25:14Z</time>
      </trkpt>
      <trkpt lat="44.9877" lon="0.64263">
        <ele>193.5</ele>
        <time>2022-08-10T16:25:16Z</time>
      </trkpt>
      <trkpt lat="44.98764" lon="0.64265">
        <ele>193.5</ele>
        <time>2022-08-10T16:25:18Z</time>
      </trkpt>
      <trkpt lat="44.9876" lon="0.64266">
        <ele>194.5</ele>
        <time>2022-08-10T16:25:21Z</time>
      </trkpt>
      <trkpt lat="44.98756" lon="0.64271">
        <ele>192.5</ele>
        <time>2022-08-10T16:32:05Z</time>
      </trkpt>
      <trkpt lat="44.9876" lon="0.64267">
        <ele>193.5</ele>
        <time>2022-08-10T16:32:28Z</time>
      </trkpt>
      <trkpt lat="44.98765" lon="0.64262">
        <ele>194.5</ele>
        <time>2022-08-10T16:32:37Z</time>
      </trkpt>
      <trkpt lat="44.9877" lon="0.64259">
        <ele>193.5</ele>
        <time>2022-08-10T16:32:39Z</time>
      </trkpt>
      <trkpt lat="44.98775" lon="0.64256">
        <ele>193.5</ele>
        <time>2022-08-10T16:32:41Z</time>
      </trkpt>
      <trkpt lat="44.98781" lon="0.64253">
        <ele>192.5</ele>
        <time>2022-08-10T16:32:43Z</time>
      </trkpt>
      <trkpt lat="44.98787" lon="0.64252">
        <ele>193.5</ele>
        <time>2022-08-10T16:32:45Z</time>
      </trkpt>
      <trkpt lat="44.98792" lon="0.64249">
        <ele>192.5</ele>
        <time>2022-08-10T16:32:47Z</time>
      </trkpt>
      <trkpt lat="44.98793" lon="0.64239">
        <ele>192.5</ele>
        <time>2022-08-10T16:32:49Z</time>
      </trkpt>
      <trkpt lat="44.98792" lon="0.64228">
        <ele>193.5</ele>
        <time>2022-08-10T16:32:51Z</time>
      </trkpt>
      <trkpt lat="44.98792" lon="0.64218">
        <ele>193.5</ele>
        <time>2022-08-10T16:32:53Z</time>
      </trkpt>
      <trkpt lat="44.98791" lon="0.64208">
        <ele>194.5</ele>
        <time>2022-08-10T16:32:55Z</time>
      </trkpt>
      <trkpt lat="44.9879" lon="0.64196">
        <ele>194.5</ele>
        <time>2022-08-10T16:32:57Z</time>
      </trkpt>
      <trkpt lat="44.98789" lon="0.64183">
        <ele>195.5</ele>
        <time>2022-08-10T16:32:59Z</time>
      </trkpt>
      <trkpt lat="44.98788" lon="0.64171">
        <ele>195.5</ele>
        <time>2022-08-10T16:33:01Z</time>
      </trkpt>
      <trkpt lat="44.98787" lon="0.64165">
        <ele>195.5</ele>
        <time>2022-08-10T16:33:02Z</time>
      </trkpt>
      <trkpt lat="44.98786" lon="0.64154">
        <ele>195.5</ele>
        <time>2022-08-10T16:33:04Z</time>
      </trkpt>
      <trkpt lat="44.98784" lon="0.64143">
        <ele>196.5</ele>
        <time>2022-08-10T16:33:06Z</time>
      </trkpt>
      <trkpt lat="44.98783" lon="0.64131">
        <ele>196.5</ele>
        <time>2022-08-10T16:33:08Z</time>
      </trkpt>
      <trkpt lat="44.98782" lon="0.64124">
        <ele>196.5</ele>
        <time>2022-08-10T16:33:09Z</time>
      </trkpt>
      <trkpt lat="44.98781" lon="0.64118">
        <ele>195.5</ele>
        <time>2022-08-10T16:33:10Z</time>
      </trkpt>
      <trkpt lat="44.9878" lon="0.64106">
        <ele>195.5</ele>
        <time>2022-08-10T16:33:12Z</time>
      </trkpt>
      <trkpt lat="44.9878" lon="0.64099">
        <ele>195.5</ele>
        <time>2022-08-10T16:33:13Z</time>
      </trkpt>
      <trkpt lat="44.9878" lon="0.64092">
        <ele>195.5</ele>
        <time>2022-08-10T16:33:14Z</time>
      </trkpt>
      <trkpt lat="44.98779" lon="0.64085">
        <ele>194.5</ele>
        <time>2022-08-10T16:33:15Z</time>
      </trkpt>
      <trkpt lat="44.98778" lon="0.64078">
        <ele>194.5</ele>
        <time>2022-08-10T16:33:16Z</time>
      </trkpt>
      <trkpt lat="44.98777" lon="0.64067">
        <ele>193.5</ele>
        <time>2022-08-10T16:33:18Z</time>
      </trkpt>
      <trkpt lat="44.98775" lon="0.64058">
        <ele>192.5</ele>
        <time>2022-08-10T16:33:20Z</time>
      </trkpt>
      <trkpt lat="44.98775" lon="0.64048">
        <ele>192.5</ele>
        <time>2022-08-10T16:33:22Z</time>
      </trkpt>
      <trkpt lat="44.98779" lon="0.64041">
        <ele>192.5</ele>
        <time>2022-08-10T16:33:24Z</time>
      </trkpt>
      <trkpt lat="44.98785" lon="0.64037">
        <ele>190.5</ele>
        <time>2022-08-10T16:33:26Z</time>
      </trkpt>
      <trkpt lat="44.98793" lon="0.64036">
        <ele>190.5</ele>
        <time>2022-08-10T16:33:28Z</time>
      </trkpt>
      <trkpt lat="44.98804" lon="0.64037">
        <ele>189.5</ele>
        <time>2022-08-10T16:33:31Z</time>
      </trkpt>
      <trkpt lat="44.98808" lon="0.64041">
        <ele>189.5</ele>
        <time>2022-08-10T16:33:33Z</time>
      </trkpt>
      <trkpt lat="44.98811" lon="0.64048">
        <ele>189.5</ele>
        <time>2022-08-10T16:33:35Z</time>
      </trkpt>
      <trkpt lat="44.98815" lon="0.64054">
        <ele>189.5</ele>
        <time>2022-08-10T16:33:37Z</time>
      </trkpt>
      <trkpt lat="44.98823" lon="0.64054">
        <ele>188.5</ele>
        <time>2022-08-10T16:33:39Z</time>
      </trkpt>
      <trkpt lat="44.98832" lon="0.64051">
        <ele>187.5</ele>
        <time>2022-08-10T16:33:41Z</time>
      </trkpt>
      <trkpt lat="44.98837" lon="0.64049">
        <ele>187.5</ele>
        <time>2022-08-10T16:33:42Z</time>
      </trkpt>
      <trkpt lat="44.98842" lon="0.64048">
        <ele>187.5</ele>
        <time>2022-08-10T16:33:43Z</time>
      </trkpt>
      <trkpt lat="44.98847" lon="0.64047">
        <ele>186.5</ele>
        <time>2022-08-10T16:33:44Z</time>
      </trkpt>
      <trkpt lat="44.98857" lon="0.64051">
        <ele>186.5</ele>
        <time>2022-08-10T16:33:46Z</time>
      </trkpt>
      <trkpt lat="44.98861" lon="0.64055">
        <ele>185.5</ele>
        <time>2022-08-10T16:33:47Z</time>
      </trkpt>
      <trkpt lat="44.98865" lon="0.64061">
        <ele>186.5</ele>
        <time>2022-08-10T16:33:48Z</time>
      </trkpt>
      <trkpt lat="44.98874" lon="0.64073">
        <ele>185.5</ele>
        <time>2022-08-10T16:33:50Z</time>
      </trkpt>
      <trkpt lat="44.98879" lon="0.64081">
        <ele>184.5</ele>
        <time>2022-08-10T16:33:51Z</time>
      </trkpt>
      <trkpt lat="44.98885" lon="0.64088">
        <ele>183.5</ele>
        <time>2022-08-10T16:33:52Z</time>
      </trkpt>
      <trkpt lat="44.98891" lon="0.64095">
        <ele>183.5</ele>
        <time>2022-08-10T16:33:53Z</time>
      </trkpt>
      <trkpt lat="44.98896" lon="0.64101">
        <ele>183.5</ele>
        <time>2022-08-10T16:33:54Z</time>
      </trkpt>
      <trkpt lat="44.98902" lon="0.64106">
        <ele>182.5</ele>
        <time>2022-08-10T16:33:55Z</time>
      </trkpt>
      <trkpt lat="44.98907" lon="0.6411">
        <ele>182.5</ele>
        <time>2022-08-10T16:33:56Z</time>
      </trkpt>
      <trkpt lat="44.98913" lon="0.64114">
        <ele>182.5</ele>
        <time>2022-08-10T16:33:57Z</time>
      </trkpt>
      <trkpt lat="44.98918" lon="0.64115">
        <ele>182.5</ele>
        <time>2022-08-10T16:33:58Z</time>
      </trkpt>
      <trkpt lat="44.98925" lon="0.64116">
        <ele>181.5</ele>
        <time>2022-08-10T16:33:59Z</time>
      </trkpt>
      <trkpt lat="44.98931" lon="0.64115">
        <ele>181.5</ele>
        <time>2022-08-10T16:34:00Z</time>
      </trkpt>
      <trkpt lat="44.98938" lon="0.64114">
        <ele>180.5</ele>
        <time>2022-08-10T16:34:01Z</time>
      </trkpt>
      <trkpt lat="44.98945" lon="0.64112">
        <ele>179.5</ele>
        <time>2022-08-10T16:34:02Z</time>
      </trkpt>
      <trkpt lat="44.98952" lon="0.6411">
        <ele>179.5</ele>
        <time>2022-08-10T16:34:03Z</time>
      </trkpt>
      <trkpt lat="44.98959" lon="0.64109">
        <ele>178.5</ele>
        <time>2022-08-10T16:34:04Z</time>
      </trkpt>
      <trkpt lat="44.98965" lon="0.64109">
        <ele>177.5</ele>
        <time>2022-08-10T16:34:05Z</time>
      </trkpt>
      <trkpt lat="44.98971" lon="0.64112">
        <ele>177.5</ele>
        <time>2022-08-10T16:34:06Z</time>
      </trkpt>
      <trkpt lat="44.98977" lon="0.64117">
        <ele>177.5</ele>
        <time>2022-08-10T16:34:07Z</time>
      </trkpt>
      <trkpt lat="44.98983" lon="0.64122">
        <ele>177.5</ele>
        <time>2022-08-10T16:34:08Z</time>
      </trkpt>
      <trkpt lat="44.98989" lon="0.64127">
        <ele>177.5</ele>
        <time>2022-08-10T16:34:09Z</time>
      </trkpt>
      <trkpt lat="44.98995" lon="0.6413">
        <ele>176.5</ele>
        <time>2022-08-10T16:34:10Z</time>
      </trkpt>
      <trkpt lat="44.99002" lon="0.64133">
        <ele>176.5</ele>
        <time>2022-08-10T16:34:11Z</time>
      </trkpt>
      <trkpt lat="44.99008" lon="0.64136">
        <ele>176.5</ele>
        <time>2022-08-10T16:34:12Z</time>
      </trkpt>
      <trkpt lat="44.99014" lon="0.6414">
        <ele>175.5</ele>
        <time>2022-08-10T16:34:13Z</time>
      </trkpt>
      <trkpt lat="44.9902" lon="0.64145">
        <ele>175.5</ele>
        <time>2022-08-10T16:34:14Z</time>
      </trkpt>
      <trkpt lat="44.99024" lon="0.64152">
        <ele>175.5</ele>
        <time>2022-08-10T16:34:15Z</time>
      </trkpt>
      <trkpt lat="44.99028" lon="0.6416">
        <ele>174.5</ele>
        <time>2022-08-10T16:34:16Z</time>
      </trkpt>
      <trkpt lat="44.99031" lon="0.64168">
        <ele>174.5</ele>
        <time>2022-08-10T16:34:17Z</time>
      </trkpt>
      <trkpt lat="44.99036" lon="0.64176">
        <ele>173.5</ele>
        <time>2022-08-10T16:34:18Z</time>
      </trkpt>
      <trkpt lat="44.99042" lon="0.64185">
        <ele>173.5</ele>
        <time>2022-08-10T16:34:19Z</time>
      </trkpt>
      <trkpt lat="44.99048" lon="0.64194">
        <ele>173.5</ele>
        <time>2022-08-10T16:34:20Z</time>
      </trkpt>
      <trkpt lat="44.99054" lon="0.64204">
        <ele>172.5</ele>
        <time>2022-08-10T16:34:21Z</time>
      </trkpt>
      <trkpt lat="44.9906" lon="0.64213">
        <ele>172.5</ele>
        <time>2022-08-10T16:34:22Z</time>
      </trkpt>
      <trkpt lat="44.99066" lon="0.64222">
        <ele>171.5</ele>
        <time>2022-08-10T16:34:23Z</time>
      </trkpt>
      <trkpt lat="44.99072" lon="0.64231">
        <ele>171.5</ele>
        <time>2022-08-10T16:34:24Z</time>
      </trkpt>
      <trkpt lat="44.99078" lon="0.6424">
        <ele>170.5</ele>
        <time>2022-08-10T16:34:25Z</time>
      </trkpt>
      <trkpt lat="44.99083" lon="0.64249">
        <ele>170.5</ele>
        <time>2022-08-10T16:34:26Z</time>
      </trkpt>
      <trkpt lat="44.99087" lon="0.64258">
        <ele>170.5</ele>
        <time>2022-08-10T16:34:27Z</time>
      </trkpt>
      <trkpt lat="44.99094" lon="0.64267">
        <ele>169.5</ele>
        <time>2022-08-10T16:34:28Z</time>
      </trkpt>
      <trkpt lat="44.991" lon="0.64276">
        <ele>169.5</ele>
        <time>2022-08-10T16:34:29Z</time>
      </trkpt>
      <trkpt lat="44.99106" lon="0.64284">
        <ele>168.5</ele>
        <time>2022-08-10T16:34:30Z</time>
      </trkpt>
      <trkpt lat="44.99113" lon="0.6429">
        <ele>168.5</ele>
        <time>2022-08-10T16:34:31Z</time>
      </trkpt>
      <trkpt lat="44.99122" lon="0.64292">
        <ele>168.5</ele>
        <time>2022-08-10T16:34:32Z</time>
      </trkpt>
      <trkpt lat="44.9913" lon="0.6429">
        <ele>168.5</ele>
        <time>2022-08-10T16:34:33Z</time>
      </trkpt>
      <trkpt lat="44.99137" lon="0.64288">
        <ele>167.5</ele>
        <time>2022-08-10T16:34:34Z</time>
      </trkpt>
      <trkpt lat="44.99143" lon="0.64283">
        <ele>166.5</ele>
        <time>2022-08-10T16:34:35Z</time>
      </trkpt>
      <trkpt lat="44.99149" lon="0.64278">
        <ele>166.5</ele>
        <time>2022-08-10T16:34:36Z</time>
      </trkpt>
      <trkpt lat="44.99154" lon="0.64273">
        <ele>165.5</ele>
        <time>2022-08-10T16:34:37Z</time>
      </trkpt>
      <trkpt lat="44.99161" lon="0.64268">
        <ele>164.5</ele>
        <time>2022-08-10T16:34:38Z</time>
      </trkpt>
      <trkpt lat="44.99168" lon="0.64264">
        <ele>163.5</ele>
        <time>2022-08-10T16:34:39Z</time>
      </trkpt>
      <trkpt lat="44.99175" lon="0.6426">
        <ele>162.5</ele>
        <time>2022-08-10T16:34:40Z</time>
      </trkpt>
      <trkpt lat="44.99181" lon="0.64258">
        <ele>161.5</ele>
        <time>2022-08-10T16:34:41Z</time>
      </trkpt>
      <trkpt lat="44.99187" lon="0.64255">
        <ele>161.5</ele>
        <time>2022-08-10T16:34:42Z</time>
      </trkpt>
      <trkpt lat="44.99193" lon="0.64253">
        <ele>161.5</ele>
        <time>2022-08-10T16:34:43Z</time>
      </trkpt>
      <trkpt lat="44.99198" lon="0.64251">
        <ele>161.5</ele>
        <time>2022-08-10T16:34:44Z</time>
      </trkpt>
      <trkpt lat="44.99207" lon="0.64247">
        <ele>162.5</ele>
        <time>2022-08-10T16:34:46Z</time>
      </trkpt>
      <trkpt lat="44.99215" lon="0.64246">
        <ele>162.5</ele>
        <time>2022-08-10T16:34:48Z</time>
      </trkpt>
      <trkpt lat="44.99221" lon="0.64245">
        <ele>162.5</ele>
        <time>2022-08-10T16:34:50Z</time>
      </trkpt>
      <trkpt lat="44.99227" lon="0.64244">
        <ele>162.5</ele>
        <time>2022-08-10T16:34:52Z</time>
      </trkpt>
      <trkpt lat="44.99231" lon="0.64245">
        <ele>161.5</ele>
        <time>2022-08-10T16:34:54Z</time>
      </trkpt>
      <trkpt lat="44.99238" lon="0.64243">
        <ele>161.5</ele>
        <time>2022-08-10T16:34:56Z</time>
      </trkpt>
      <trkpt lat="44.99244" lon="0.64242">
        <ele>161.5</ele>
        <time>2022-08-10T16:34:58Z</time>
      </trkpt>
      <trkpt lat="44.99256" lon="0.64243">
        <ele>162.5</ele>
        <time>2022-08-10T16:35:01Z</time>
      </trkpt>
      <trkpt lat="44.99265" lon="0.64244">
        <ele>163.5</ele>
        <time>2022-08-10T16:35:03Z</time>
      </trkpt>
      <trkpt lat="44.99273" lon="0.64243">
        <ele>163.5</ele>
        <time>2022-08-10T16:35:05Z</time>
      </trkpt>
      <trkpt lat="44.99281" lon="0.64242">
        <ele>162.5</ele>
        <time>2022-08-10T16:35:07Z</time>
      </trkpt>
      <trkpt lat="44.99288" lon="0.64241">
        <ele>162.5</ele>
        <time>2022-08-10T16:35:09Z</time>
      </trkpt>
      <trkpt lat="44.99295" lon="0.64242">
        <ele>162.5</ele>
        <time>2022-08-10T16:35:11Z</time>
      </trkpt>
      <trkpt lat="44.993" lon="0.64242">
        <ele>162.5</ele>
        <time>2022-08-10T16:35:13Z</time>
      </trkpt>
      <trkpt lat="44.99306" lon="0.64241">
        <ele>162.5</ele>
        <time>2022-08-10T16:35:15Z</time>
      </trkpt>
      <trkpt lat="44.99311" lon="0.64239">
        <ele>162.5</ele>
        <time>2022-08-10T16:35:17Z</time>
      </trkpt>
      <trkpt lat="44.99316" lon="0.64238">
        <ele>162.5</ele>
        <time>2022-08-10T16:35:19Z</time>
      </trkpt>
      <trkpt lat="44.99322" lon="0.64239">
        <ele>161.5</ele>
        <time>2022-08-10T16:35:21Z</time>
      </trkpt>
      <trkpt lat="44.99328" lon="0.64238">
        <ele>161.5</ele>
        <time>2022-08-10T16:35:23Z</time>
      </trkpt>
      <trkpt lat="44.99333" lon="0.64236">
        <ele>161.5</ele>
        <time>2022-08-10T16:35:25Z</time>
      </trkpt>
      <trkpt lat="44.9934" lon="0.64234">
        <ele>161.5</ele>
        <time>2022-08-10T16:35:27Z</time>
      </trkpt>
      <trkpt lat="44.99346" lon="0.64233">
        <ele>160.5</ele>
        <time>2022-08-10T16:35:29Z</time>
      </trkpt>
      <trkpt lat="44.99354" lon="0.64233">
        <ele>160.5</ele>
        <time>2022-08-10T16:35:31Z</time>
      </trkpt>
      <trkpt lat="44.99362" lon="0.64235">
        <ele>159.5</ele>
        <time>2022-08-10T16:35:33Z</time>
      </trkpt>
      <trkpt lat="44.99369" lon="0.64238">
        <ele>159.5</ele>
        <time>2022-08-10T16:35:35Z</time>
      </trkpt>
      <trkpt lat="44.99374" lon="0.64242">
        <ele>158.5</ele>
        <time>2022-08-10T16:35:37Z</time>
      </trkpt>
      <trkpt lat="44.99379" lon="0.64247">
        <ele>158.5</ele>
        <time>2022-08-10T16:35:39Z</time>
      </trkpt>
      <trkpt lat="44.99385" lon="0.6425">
        <ele>158.5</ele>
        <time>2022-08-10T16:35:41Z</time>
      </trkpt>
      <trkpt lat="44.9939" lon="0.64255">
        <ele>157.5</ele>
        <time>2022-08-10T16:35:43Z</time>
      </trkpt>
      <trkpt lat="44.99393" lon="0.64264">
        <ele>155.5</ele>
        <time>2022-08-10T16:35:45Z</time>
      </trkpt>
      <trkpt lat="44.99396" lon="0.6427">
        <ele>154.5</ele>
        <time>2022-08-10T16:35:47Z</time>
      </trkpt>
      <trkpt lat="44.99398" lon="0.64277">
        <ele>153.5</ele>
        <time>2022-08-10T16:35:49Z</time>
      </trkpt>
      <trkpt lat="44.99402" lon="0.64284">
        <ele>153.5</ele>
        <time>2022-08-10T16:35:52Z</time>
      </trkpt>
      <trkpt lat="44.99405" lon="0.64289">
        <ele>153.5</ele>
        <time>2022-08-10T16:35:54Z</time>
      </trkpt>
      <trkpt lat="44.99408" lon="0.64296">
        <ele>152.5</ele>
        <time>2022-08-10T16:35:57Z</time>
      </trkpt>
      <trkpt lat="44.99413" lon="0.643">
        <ele>152.5</ele>
        <time>2022-08-10T16:35:59Z</time>
      </trkpt>
      <trkpt lat="44.99418" lon="0.64303">
        <ele>152.5</ele>
        <time>2022-08-10T16:36:01Z</time>
      </trkpt>
      <trkpt lat="44.99423" lon="0.64306">
        <ele>152.5</ele>
        <time>2022-08-10T16:36:03Z</time>
      </trkpt>
      <trkpt lat="44.99428" lon="0.6431">
        <ele>152.5</ele>
        <time>2022-08-10T16:36:06Z</time>
      </trkpt>
      <trkpt lat="44.99433" lon="0.64311">
        <ele>151.5</ele>
        <time>2022-08-10T16:36:09Z</time>
      </trkpt>
      <trkpt lat="44.9944" lon="0.64314">
        <ele>151.5</ele>
        <time>2022-08-10T16:36:12Z</time>
      </trkpt>
      <trkpt lat="44.99446" lon="0.64317">
        <ele>151.5</ele>
        <time>2022-08-10T16:36:14Z</time>
      </trkpt>
      <trkpt lat="44.99451" lon="0.64319">
        <ele>150.5</ele>
        <time>2022-08-10T16:36:16Z</time>
      </trkpt>
      <trkpt lat="44.99456" lon="0.64319">
        <ele>149.5</ele>
        <time>2022-08-10T16:36:18Z</time>
      </trkpt>
      <trkpt lat="44.99461" lon="0.6432">
        <ele>149.5</ele>
        <time>2022-08-10T16:36:20Z</time>
      </trkpt>
      <trkpt lat="44.99466" lon="0.64322">
        <ele>148.5</ele>
        <time>2022-08-10T16:36:22Z</time>
      </trkpt>
      <trkpt lat="44.9947" lon="0.64322">
        <ele>148.5</ele>
        <time>2022-08-10T16:36:24Z</time>
      </trkpt>
      <trkpt lat="44.99476" lon="0.64322">
        <ele>147.5</ele>
        <time>2022-08-10T16:36:26Z</time>
      </trkpt>
      <trkpt lat="44.99481" lon="0.64322">
        <ele>146.5</ele>
        <time>2022-08-10T16:36:28Z</time>
      </trkpt>
      <trkpt lat="44.99489" lon="0.64321">
        <ele>146.5</ele>
        <time>2022-08-10T16:36:31Z</time>
      </trkpt>
      <trkpt lat="44.99494" lon="0.64322">
        <ele>146.5</ele>
        <time>2022-08-10T16:36:33Z</time>
      </trkpt>
      <trkpt lat="44.99502" lon="0.64322">
        <ele>145.5</ele>
        <time>2022-08-10T16:36:36Z</time>
      </trkpt>
      <trkpt lat="44.99507" lon="0.64323">
        <ele>145.5</ele>
        <time>2022-08-10T16:36:38Z</time>
      </trkpt>
      <trkpt lat="44.99512" lon="0.64324">
        <ele>144.5</ele>
        <time>2022-08-10T16:36:40Z</time>
      </trkpt>
      <trkpt lat="44.99519" lon="0.64325">
        <ele>143.5</ele>
        <time>2022-08-10T16:36:42Z</time>
      </trkpt>
      <trkpt lat="44.99525" lon="0.64326">
        <ele>143.5</ele>
        <time>2022-08-10T16:36:44Z</time>
      </trkpt>
      <trkpt lat="44.9953" lon="0.64325">
        <ele>143.5</ele>
        <time>2022-08-10T16:36:46Z</time>
      </trkpt>
      <trkpt lat="44.99538" lon="0.64326">
        <ele>141.5</ele>
        <time>2022-08-10T16:36:49Z</time>
      </trkpt>
      <trkpt lat="44.99545" lon="0.64329">
        <ele>142.5</ele>
        <time>2022-08-10T16:36:51Z</time>
      </trkpt>
      <trkpt lat="44.99552" lon="0.6433">
        <ele>142.5</ele>
        <time>2022-08-10T16:36:53Z</time>
      </trkpt>
      <trkpt lat="44.99558" lon="0.6433">
        <ele>142.5</ele>
        <time>2022-08-10T16:36:55Z</time>
      </trkpt>
      <trkpt lat="44.99565" lon="0.6433">
        <ele>141.5</ele>
        <time>2022-08-10T16:36:57Z</time>
      </trkpt>
      <trkpt lat="44.99571" lon="0.64331">
        <ele>141.5</ele>
        <time>2022-08-10T16:36:59Z</time>
      </trkpt>
      <trkpt lat="44.99578" lon="0.6433">
        <ele>140.5</ele>
        <time>2022-08-10T16:37:01Z</time>
      </trkpt>
      <trkpt lat="44.99584" lon="0.64332">
        <ele>140.5</ele>
        <time>2022-08-10T16:37:03Z</time>
      </trkpt>
      <trkpt lat="44.99591" lon="0.64333">
        <ele>139.5</ele>
        <time>2022-08-10T16:37:05Z</time>
      </trkpt>
      <trkpt lat="44.99597" lon="0.64335">
        <ele>138.5</ele>
        <time>2022-08-10T16:37:07Z</time>
      </trkpt>
      <trkpt lat="44.99604" lon="0.64338">
        <ele>139.5</ele>
        <time>2022-08-10T16:37:09Z</time>
      </trkpt>
      <trkpt lat="44.9961" lon="0.64341">
        <ele>139.5</ele>
        <time>2022-08-10T16:37:11Z</time>
      </trkpt>
      <trkpt lat="44.99615" lon="0.64346">
        <ele>137.5</ele>
        <time>2022-08-10T16:37:13Z</time>
      </trkpt>
      <trkpt lat="44.99619" lon="0.6435">
        <ele>136.5</ele>
        <time>2022-08-10T16:37:14Z</time>
      </trkpt>
      <trkpt lat="44.99624" lon="0.64355">
        <ele>135.5</ele>
        <time>2022-08-10T16:37:15Z</time>
      </trkpt>
      <trkpt lat="44.99628" lon="0.6436">
        <ele>133.5</ele>
        <time>2022-08-10T16:37:16Z</time>
      </trkpt>
      <trkpt lat="44.99632" lon="0.64365">
        <ele>133.5</ele>
        <time>2022-08-10T16:37:17Z</time>
      </trkpt>
      <trkpt lat="44.99638" lon="0.64373">
        <ele>134.5</ele>
        <time>2022-08-10T16:37:19Z</time>
      </trkpt>
      <trkpt lat="44.99644" lon="0.64382">
        <ele>134.5</ele>
        <time>2022-08-10T16:37:21Z</time>
      </trkpt>
      <trkpt lat="44.99647" lon="0.64387">
        <ele>135.5</ele>
        <time>2022-08-10T16:37:22Z</time>
      </trkpt>
      <trkpt lat="44.99653" lon="0.64395">
        <ele>136.5</ele>
        <time>2022-08-10T16:37:24Z</time>
      </trkpt>
      <trkpt lat="44.99658" lon="0.64404">
        <ele>136.5</ele>
        <time>2022-08-10T16:37:26Z</time>
      </trkpt>
      <trkpt lat="44.99661" lon="0.64413">
        <ele>136.5</ele>
        <time>2022-08-10T16:37:28Z</time>
      </trkpt>
      <trkpt lat="44.99666" lon="0.64421">
        <ele>137.5</ele>
        <time>2022-08-10T16:37:30Z</time>
      </trkpt>
      <trkpt lat="44.9967" lon="0.64428">
        <ele>138.5</ele>
        <time>2022-08-10T16:37:32Z</time>
      </trkpt>
      <trkpt lat="44.99671" lon="0.64434">
        <ele>138.5</ele>
        <time>2022-08-10T16:37:34Z</time>
      </trkpt>
      <trkpt lat="44.99675" lon="0.64443">
        <ele>139.5</ele>
        <time>2022-08-10T16:37:37Z</time>
      </trkpt>
      <trkpt lat="44.9968" lon="0.64447">
        <ele>140.5</ele>
        <time>2022-08-10T16:37:39Z</time>
      </trkpt>
      <trkpt lat="44.99685" lon="0.6445">
        <ele>141.5</ele>
        <time>2022-08-10T16:37:41Z</time>
      </trkpt>
      <trkpt lat="44.99691" lon="0.64452">
        <ele>143.5</ele>
        <time>2022-08-10T16:37:44Z</time>
      </trkpt>
      <trkpt lat="44.99696" lon="0.64455">
        <ele>143.5</ele>
        <time>2022-08-10T16:37:47Z</time>
      </trkpt>
      <trkpt lat="44.997" lon="0.64459">
        <ele>144.5</ele>
        <time>2022-08-10T16:37:50Z</time>
      </trkpt>
      <trkpt lat="44.99705" lon="0.64463">
        <ele>146.5</ele>
        <time>2022-08-10T16:37:53Z</time>
      </trkpt>
      <trkpt lat="44.9971" lon="0.64465">
        <ele>146.5</ele>
        <time>2022-08-10T16:37:55Z</time>
      </trkpt>
      <trkpt lat="44.99714" lon="0.64469">
        <ele>146.5</ele>
        <time>2022-08-10T16:37:57Z</time>
      </trkpt>
      <trkpt lat="44.99718" lon="0.64473">
        <ele>147.5</ele>
        <time>2022-08-10T16:38:00Z</time>
      </trkpt>
      <trkpt lat="44.99723" lon="0.6448">
        <ele>147.5</ele>
        <time>2022-08-10T16:38:04Z</time>
      </trkpt>
      <trkpt lat="44.99727" lon="0.64485">
        <ele>148.5</ele>
        <time>2022-08-10T16:38:06Z</time>
      </trkpt>
      <trkpt lat="44.99732" lon="0.64491">
        <ele>148.5</ele>
        <time>2022-08-10T16:38:08Z</time>
      </trkpt>
      <trkpt lat="44.99736" lon="0.64497">
        <ele>149.5</ele>
        <time>2022-08-10T16:38:10Z</time>
      </trkpt>
      <trkpt lat="44.9974" lon="0.64502">
        <ele>149.5</ele>
        <time>2022-08-10T16:38:12Z</time>
      </trkpt>
      <trkpt lat="44.99743" lon="0.64507">
        <ele>149.5</ele>
        <time>2022-08-10T16:38:14Z</time>
      </trkpt>
      <trkpt lat="44.99747" lon="0.64511">
        <ele>150.5</ele>
        <time>2022-08-10T16:38:16Z</time>
      </trkpt>
      <trkpt lat="44.99752" lon="0.64515">
        <ele>151.5</ele>
        <time>2022-08-10T16:38:18Z</time>
      </trkpt>
      <trkpt lat="44.99755" lon="0.64521">
        <ele>151.5</ele>
        <time>2022-08-10T16:38:20Z</time>
      </trkpt>
      <trkpt lat="44.99758" lon="0.64527">
        <ele>151.5</ele>
        <time>2022-08-10T16:38:22Z</time>
      </trkpt>
      <trkpt lat="44.99762" lon="0.64531">
        <ele>150.5</ele>
        <time>2022-08-10T16:38:24Z</time>
      </trkpt>
      <trkpt lat="44.99766" lon="0.64535">
        <ele>149.5</ele>
        <time>2022-08-10T16:38:26Z</time>
      </trkpt>
      <trkpt lat="44.9977" lon="0.64539">
        <ele>148.5</ele>
        <time>2022-08-10T16:38:28Z</time>
      </trkpt>
      <trkpt lat="44.99774" lon="0.64543">
        <ele>148.5</ele>
        <time>2022-08-10T16:38:30Z</time>
      </trkpt>
      <trkpt lat="44.99778" lon="0.64549">
        <ele>146.5</ele>
        <time>2022-08-10T16:38:33Z</time>
      </trkpt>
      <trkpt lat="44.99781" lon="0.64554">
        <ele>141.5</ele>
        <time>2022-08-10T16:38:37Z</time>
      </trkpt>
      <trkpt lat="44.99785" lon="0.64559">
        <ele>136.5</ele>
        <time>2022-08-10T16:38:40Z</time>
      </trkpt>
      <trkpt lat="44.9979" lon="0.64565">
        <ele>134.5</ele>
        <time>2022-08-10T16:38:46Z</time>
      </trkpt>
      <trkpt lat="44.99794" lon="0.6457">
        <ele>131.5</ele>
        <time>2022-08-10T16:38:49Z</time>
      </trkpt>
      <trkpt lat="44.99798" lon="0.64576">
        <ele>131.5</ele>
        <time>2022-08-10T16:38:52Z</time>
      </trkpt>
      <trkpt lat="44.99802" lon="0.64581">
        <ele>133.5</ele>
        <time>2022-08-10T16:38:54Z</time>
      </trkpt>
      <trkpt lat="44.99804" lon="0.64586">
        <ele>135.5</ele>
        <time>2022-08-10T16:38:57Z</time>
      </trkpt>
      <trkpt lat="44.99809" lon="0.64592">
        <ele>136.5</ele>
        <time>2022-08-10T16:39:02Z</time>
      </trkpt>
      <trkpt lat="44.99812" lon="0.64598">
        <ele>137.5</ele>
        <time>2022-08-10T16:39:06Z</time>
      </trkpt>
      <trkpt lat="44.99813" lon="0.64606">
        <ele>137.5</ele>
        <time>2022-08-10T16:39:11Z</time>
      </trkpt>
      <trkpt lat="44.99813" lon="0.64613">
        <ele>138.5</ele>
        <time>2022-08-10T16:39:16Z</time>
      </trkpt>
      <trkpt lat="44.99815" lon="0.6462">
        <ele>139.5</ele>
        <time>2022-08-10T16:39:19Z</time>
      </trkpt>
      <trkpt lat="44.99818" lon="0.64627">
        <ele>139.5</ele>
        <time>2022-08-10T16:39:23Z</time>
      </trkpt>
      <trkpt lat="44.99819" lon="0.64633">
        <ele>139.5</ele>
        <time>2022-08-10T16:39:25Z</time>
      </trkpt>
      <trkpt lat="44.99821" lon="0.64639">
        <ele>139.5</ele>
        <time>2022-08-10T16:39:27Z</time>
      </trkpt>
      <trkpt lat="44.99823" lon="0.64648">
        <ele>139.5</ele>
        <time>2022-08-10T16:39:30Z</time>
      </trkpt>
      <trkpt lat="44.99825" lon="0.64656">
        <ele>138.5</ele>
        <time>2022-08-10T16:39:33Z</time>
      </trkpt>
      <trkpt lat="44.99828" lon="0.64662">
        <ele>138.5</ele>
        <time>2022-08-10T16:39:35Z</time>
      </trkpt>
      <trkpt lat="44.9983" lon="0.64669">
        <ele>137.5</ele>
        <time>2022-08-10T16:39:37Z</time>
      </trkpt>
      <trkpt lat="44.99831" lon="0.64677">
        <ele>138.5</ele>
        <time>2022-08-10T16:39:39Z</time>
      </trkpt>
      <trkpt lat="44.99832" lon="0.64684">
        <ele>137.5</ele>
        <time>2022-08-10T16:39:41Z</time>
      </trkpt>
      <trkpt lat="44.99833" lon="0.6469">
        <ele>137.5</ele>
        <time>2022-08-10T16:39:43Z</time>
      </trkpt>
      <trkpt lat="44.99834" lon="0.64698">
        <ele>137.5</ele>
        <time>2022-08-10T16:39:46Z</time>
      </trkpt>
      <trkpt lat="44.99836" lon="0.64705">
        <ele>137.5</ele>
        <time>2022-08-10T16:39:48Z</time>
      </trkpt>
      <trkpt lat="44.99838" lon="0.64712">
        <ele>137.5</ele>
        <time>2022-08-10T16:39:50Z</time>
      </trkpt>
      <trkpt lat="44.9984" lon="0.64719">
        <ele>137.5</ele>
        <time>2022-08-10T16:39:52Z</time>
      </trkpt>
      <trkpt lat="44.99839" lon="0.64726">
        <ele>136.5</ele>
        <time>2022-08-10T16:39:55Z</time>
      </trkpt>
      <trkpt lat="44.9984" lon="0.64733">
        <ele>136.5</ele>
        <time>2022-08-10T16:39:59Z</time>
      </trkpt>
      <trkpt lat="44.99844" lon="0.64738">
        <ele>139.5</ele>
        <time>2022-08-10T16:40:03Z</time>
      </trkpt>
      <trkpt lat="44.99845" lon="0.64746">
        <ele>142.5</ele>
        <time>2022-08-10T16:40:08Z</time>
      </trkpt>
      <trkpt lat="44.99846" lon="0.64754">
        <ele>148.5</ele>
        <time>2022-08-10T16:40:12Z</time>
      </trkpt>
      <trkpt lat="44.99849" lon="0.6476">
        <ele>152.5</ele>
        <time>2022-08-10T16:40:19Z</time>
      </trkpt>
      <trkpt lat="44.9985" lon="0.64767">
        <ele>160.5</ele>
        <time>2022-08-10T16:40:36Z</time>
      </trkpt>
      <trkpt lat="44.99848" lon="0.64776">
        <ele>164.5</ele>
        <time>2022-08-10T16:40:44Z</time>
      </trkpt>
      <trkpt lat="44.99848" lon="0.64782">
        <ele>167.5</ele>
        <time>2022-08-10T16:40:52Z</time>
      </trkpt>
      <trkpt lat="44.99848" lon="0.64789">
        <ele>169.5</ele>
        <time>2022-08-10T16:41:04Z</time>
      </trkpt>
      <trkpt lat="44.99846" lon="0.64796">
        <ele>172.5</ele>
        <time>2022-08-10T16:41:10Z</time>
      </trkpt>
      <trkpt lat="44.99846" lon="0.64802">
        <ele>172.5</ele>
        <time>2022-08-10T16:41:42Z</time>
      </trkpt>
      <trkpt lat="44.99843" lon="0.64808">
        <ele>184.5</ele>
        <time>2022-08-10T16:42:01Z</time>
      </trkpt>
      <trkpt lat="44.9984" lon="0.64813">
        <ele>184.5</ele>
        <time>2022-08-10T16:42:14Z</time>
      </trkpt>
      <trkpt lat="44.99837" lon="0.64819">
        <ele>185.5</ele>
        <time>2022-08-10T16:42:17Z</time>
      </trkpt>
      <trkpt lat="44.99834" lon="0.64826">
        <ele>186.5</ele>
        <time>2022-08-10T16:42:20Z</time>
      </trkpt>
      <trkpt lat="44.9983" lon="0.64833">
        <ele>187.5</ele>
        <time>2022-08-10T16:42:23Z</time>
      </trkpt>
      <trkpt lat="44.99826" lon="0.64839">
        <ele>188.5</ele>
        <time>2022-08-10T16:42:27Z</time>
      </trkpt>
      <trkpt lat="44.99822" lon="0.64848">
        <ele>187.5</ele>
        <time>2022-08-10T16:42:31Z</time>
      </trkpt>
      <trkpt lat="44.9982" lon="0.64854">
        <ele>185.5</ele>
        <time>2022-08-10T16:42:33Z</time>
      </trkpt>
      <trkpt lat="44.99819" lon="0.6486">
        <ele>184.5</ele>
        <time>2022-08-10T16:42:35Z</time>
      </trkpt>
      <trkpt lat="44.99816" lon="0.64868">
        <ele>182.5</ele>
        <time>2022-08-10T16:42:37Z</time>
      </trkpt>
      <trkpt lat="44.99816" lon="0.64876">
        <ele>181.5</ele>
        <time>2022-08-10T16:42:39Z</time>
      </trkpt>
      <trkpt lat="44.99819" lon="0.64885">
        <ele>181.5</ele>
        <time>2022-08-10T16:42:41Z</time>
      </trkpt>
      <trkpt lat="44.99825" lon="0.64894">
        <ele>180.5</ele>
        <time>2022-08-10T16:42:43Z</time>
      </trkpt>
      <trkpt lat="44.99828" lon="0.64899">
        <ele>180.5</ele>
        <time>2022-08-10T16:42:44Z</time>
      </trkpt>
      <trkpt lat="44.99832" lon="0.64904">
        <ele>179.5</ele>
        <time>2022-08-10T16:42:45Z</time>
      </trkpt>
      <trkpt lat="44.99836" lon="0.6491">
        <ele>179.5</ele>
        <time>2022-08-10T16:42:46Z</time>
      </trkpt>
      <trkpt lat="44.99841" lon="0.64915">
        <ele>179.5</ele>
        <time>2022-08-10T16:42:47Z</time>
      </trkpt>
      <trkpt lat="44.99846" lon="0.64922">
        <ele>178.5</ele>
        <time>2022-08-10T16:42:48Z</time>
      </trkpt>
      <trkpt lat="44.99851" lon="0.64929">
        <ele>178.5</ele>
        <time>2022-08-10T16:42:49Z</time>
      </trkpt>
      <trkpt lat="44.99856" lon="0.64936">
        <ele>178.5</ele>
        <time>2022-08-10T16:42:50Z</time>
      </trkpt>
      <trkpt lat="44.99861" lon="0.64944">
        <ele>178.5</ele>
        <time>2022-08-10T16:42:51Z</time>
      </trkpt>
      <trkpt lat="44.99864" lon="0.64952">
        <ele>178.5</ele>
        <time>2022-08-10T16:42:52Z</time>
      </trkpt>
      <trkpt lat="44.99867" lon="0.6496">
        <ele>179.5</ele>
        <time>2022-08-10T16:42:53Z</time>
      </trkpt>
      <trkpt lat="44.99869" lon="0.64966">
        <ele>181.5</ele>
        <time>2022-08-10T16:42:54Z</time>
      </trkpt>
      <trkpt lat="44.99872" lon="0.64971">
        <ele>180.5</ele>
        <time>2022-08-10T16:42:56Z</time>
      </trkpt>
      <trkpt lat="44.99875" lon="0.64977">
        <ele>182.5</ele>
        <time>2022-08-10T16:43:00Z</time>
      </trkpt>
      <trkpt lat="44.99878" lon="0.64983">
        <ele>182.5</ele>
        <time>2022-08-10T16:43:03Z</time>
      </trkpt>
      <trkpt lat="44.99882" lon="0.6499">
        <ele>183.5</ele>
        <time>2022-08-10T16:43:07Z</time>
      </trkpt>
      <trkpt lat="44.99885" lon="0.64995">
        <ele>183.5</ele>
        <time>2022-08-10T16:43:11Z</time>
      </trkpt>
      <trkpt lat="44.9989" lon="0.64998">
        <ele>184.5</ele>
        <time>2022-08-10T16:43:14Z</time>
      </trkpt>
      <trkpt lat="44.99894" lon="0.65003">
        <ele>184.5</ele>
        <time>2022-08-10T16:43:17Z</time>
      </trkpt>
      <trkpt lat="44.99897" lon="0.65008">
        <ele>185.5</ele>
        <time>2022-08-10T16:43:20Z</time>
      </trkpt>
      <trkpt lat="44.99902" lon="0.65012">
        <ele>185.5</ele>
        <time>2022-08-10T16:43:24Z</time>
      </trkpt>
      <trkpt lat="44.99906" lon="0.65017">
        <ele>186.5</ele>
        <time>2022-08-10T16:43:27Z</time>
      </trkpt>
      <trkpt lat="44.9991" lon="0.6502">
        <ele>186.5</ele>
        <time>2022-08-10T16:43:30Z</time>
      </trkpt>
      <trkpt lat="44.99914" lon="0.65025">
        <ele>186.5</ele>
        <time>2022-08-10T16:43:34Z</time>
      </trkpt>
      <trkpt lat="44.99919" lon="0.65028">
        <ele>186.5</ele>
        <time>2022-08-10T16:43:37Z</time>
      </trkpt>
      <trkpt lat="44.99922" lon="0.65033">
        <ele>186.5</ele>
        <time>2022-08-10T16:43:40Z</time>
      </trkpt>
      <trkpt lat="44.99926" lon="0.65038">
        <ele>187.5</ele>
        <time>2022-08-10T16:43:43Z</time>
      </trkpt>
      <trkpt lat="44.9993" lon="0.65041">
        <ele>187.5</ele>
        <time>2022-08-10T16:43:46Z</time>
      </trkpt>
      <trkpt lat="44.99935" lon="0.65043">
        <ele>186.5</ele>
        <time>2022-08-10T16:43:50Z</time>
      </trkpt>
      <trkpt lat="44.99929" lon="0.65038">
        <ele>187.5</ele>
        <time>2022-08-10T16:43:56Z</time>
      </trkpt>
      <trkpt lat="44.99925" lon="0.65034">
        <ele>189.5</ele>
        <time>2022-08-10T16:44:05Z</time>
      </trkpt>
      <trkpt lat="44.99924" lon="0.65027">
        <ele>195.5</ele>
        <time>2022-08-10T16:44:58Z</time>
      </trkpt>
      <trkpt lat="44.9992" lon="0.65023">
        <ele>197.5</ele>
        <time>2022-08-10T16:45:17Z</time>
      </trkpt>
      <trkpt lat="44.99915" lon="0.65019">
        <ele>197.5</ele>
        <time>2022-08-10T16:45:19Z</time>
      </trkpt>
      <trkpt lat="44.99909" lon="0.65014">
        <ele>197.5</ele>
        <time>2022-08-10T16:45:21Z</time>
      </trkpt>
      <trkpt lat="44.99906" lon="0.65009">
        <ele>198.5</ele>
        <time>2022-08-10T16:45:22Z</time>
      </trkpt>
      <trkpt lat="44.99902" lon="0.65002">
        <ele>198.5</ele>
        <time>2022-08-10T16:45:24Z</time>
      </trkpt>
      <trkpt lat="44.99898" lon="0.65">
        <ele>201.5</ele>
        <time>2022-08-10T16:45:37Z</time>
      </trkpt>
      <trkpt lat="44.99893" lon="0.64996">
        <ele>198.5</ele>
        <time>2022-08-10T16:46:47Z</time>
      </trkpt>
      <trkpt lat="44.99889" lon="0.64992">
        <ele>197.5</ele>
        <time>2022-08-10T16:46:54Z</time>
      </trkpt>
      <trkpt lat="44.99884" lon="0.64986">
        <ele>196.5</ele>
        <time>2022-08-10T16:46:56Z</time>
      </trkpt>
      <trkpt lat="44.99881" lon="0.64981">
        <ele>194.5</ele>
        <time>2022-08-10T16:46:57Z</time>
      </trkpt>
      <trkpt lat="44.99878" lon="0.64975">
        <ele>193.5</ele>
        <time>2022-08-10T16:46:58Z</time>
      </trkpt>
      <trkpt lat="44.99874" lon="0.64969">
        <ele>193.5</ele>
        <time>2022-08-10T16:46:59Z</time>
      </trkpt>
      <trkpt lat="44.9987" lon="0.64963">
        <ele>193.5</ele>
        <time>2022-08-10T16:47:00Z</time>
      </trkpt>
      <trkpt lat="44.99864" lon="0.64955">
        <ele>193.5</ele>
        <time>2022-08-10T16:47:01Z</time>
      </trkpt>
      <trkpt lat="44.99859" lon="0.64947">
        <ele>192.5</ele>
        <time>2022-08-10T16:47:02Z</time>
      </trkpt>
      <trkpt lat="44.99854" lon="0.64939">
        <ele>192.5</ele>
        <time>2022-08-10T16:47:03Z</time>
      </trkpt>
      <trkpt lat="44.99847" lon="0.64931">
        <ele>192.5</ele>
        <time>2022-08-10T16:47:04Z</time>
      </trkpt>
      <trkpt lat="44.9984" lon="0.64924">
        <ele>192.5</ele>
        <time>2022-08-10T16:47:05Z</time>
      </trkpt>
      <trkpt lat="44.99834" lon="0.64918">
        <ele>192.5</ele>
        <time>2022-08-10T16:47:06Z</time>
      </trkpt>
      <trkpt lat="44.99829" lon="0.64913">
        <ele>192.5</ele>
        <time>2022-08-10T16:47:07Z</time>
      </trkpt>
      <trkpt lat="44.99824" lon="0.64908">
        <ele>192.5</ele>
        <time>2022-08-10T16:47:08Z</time>
      </trkpt>
      <trkpt lat="44.99821" lon="0.64904">
        <ele>192.5</ele>
        <time>2022-08-10T16:47:09Z</time>
      </trkpt>
      <trkpt lat="44.99816" lon="0.64899">
        <ele>192.5</ele>
        <time>2022-08-10T16:47:11Z</time>
      </trkpt>
      <trkpt lat="44.99808" lon="0.64894">
        <ele>192.5</ele>
        <time>2022-08-10T16:47:14Z</time>
      </trkpt>
      <trkpt lat="44.99802" lon="0.64892">
        <ele>191.5</ele>
        <time>2022-08-10T16:47:16Z</time>
      </trkpt>
      <trkpt lat="44.99796" lon="0.64891">
        <ele>191.5</ele>
        <time>2022-08-10T16:47:18Z</time>
      </trkpt>
      <trkpt lat="44.9979" lon="0.6489">
        <ele>192.5</ele>
        <time>2022-08-10T16:47:20Z</time>
      </trkpt>
      <trkpt lat="44.99783" lon="0.64892">
        <ele>192.5</ele>
        <time>2022-08-10T16:47:22Z</time>
      </trkpt>
      <trkpt lat="44.99777" lon="0.64895">
        <ele>192.5</ele>
        <time>2022-08-10T16:47:24Z</time>
      </trkpt>
      <trkpt lat="44.99772" lon="0.64898">
        <ele>191.5</ele>
        <time>2022-08-10T16:47:26Z</time>
      </trkpt>
      <trkpt lat="44.99767" lon="0.649">
        <ele>191.5</ele>
        <time>2022-08-10T16:47:28Z</time>
      </trkpt>
      <trkpt lat="44.99762" lon="0.64903">
        <ele>192.5</ele>
        <time>2022-08-10T16:47:30Z</time>
      </trkpt>
      <trkpt lat="44.99757" lon="0.64906">
        <ele>191.5</ele>
        <time>2022-08-10T16:47:32Z</time>
      </trkpt>
      <trkpt lat="44.99752" lon="0.64908">
        <ele>192.5</ele>
        <time>2022-08-10T16:47:34Z</time>
      </trkpt>
      <trkpt lat="44.99746" lon="0.64909">
        <ele>192.5</ele>
        <time>2022-08-10T16:47:37Z</time>
      </trkpt>
      <trkpt lat="44.99741" lon="0.6491">
        <ele>191.5</ele>
        <time>2022-08-10T16:47:39Z</time>
      </trkpt>
      <trkpt lat="44.99736" lon="0.64912">
        <ele>192.5</ele>
        <time>2022-08-10T16:47:42Z</time>
      </trkpt>
      <trkpt lat="44.9973" lon="0.64916">
        <ele>192.5</ele>
        <time>2022-08-10T16:47:45Z</time>
      </trkpt>
      <trkpt lat="44.99725" lon="0.64918">
        <ele>192.5</ele>
        <time>2022-08-10T16:47:47Z</time>
      </trkpt>
      <trkpt lat="44.9972" lon="0.64922">
        <ele>192.5</ele>
        <time>2022-08-10T16:47:50Z</time>
      </trkpt>
      <trkpt lat="44.99715" lon="0.64925">
        <ele>192.5</ele>
        <time>2022-08-10T16:47:53Z</time>
      </trkpt>
      <trkpt lat="44.9971" lon="0.64926">
        <ele>192.5</ele>
        <time>2022-08-10T16:47:55Z</time>
      </trkpt>
      <trkpt lat="44.99705" lon="0.64927">
        <ele>192.5</ele>
        <time>2022-08-10T16:47:57Z</time>
      </trkpt>
      <trkpt lat="44.997" lon="0.64928">
        <ele>192.5</ele>
        <time>2022-08-10T16:47:59Z</time>
      </trkpt>
      <trkpt lat="44.99694" lon="0.64931">
        <ele>192.5</ele>
        <time>2022-08-10T16:48:01Z</time>
      </trkpt>
      <trkpt lat="44.99689" lon="0.64932">
        <ele>193.5</ele>
        <time>2022-08-10T16:48:03Z</time>
      </trkpt>
      <trkpt lat="44.99683" lon="0.64936">
        <ele>193.5</ele>
        <time>2022-08-10T16:48:06Z</time>
      </trkpt>
      <trkpt lat="44.99677" lon="0.64937">
        <ele>193.5</ele>
        <time>2022-08-10T16:48:08Z</time>
      </trkpt>
      <trkpt lat="44.99672" lon="0.64939">
        <ele>193.5</ele>
        <time>2022-08-10T16:48:10Z</time>
      </trkpt>
      <trkpt lat="44.99667" lon="0.64942">
        <ele>193.5</ele>
        <time>2022-08-10T16:48:12Z</time>
      </trkpt>
      <trkpt lat="44.99662" lon="0.64945">
        <ele>193.5</ele>
        <time>2022-08-10T16:48:15Z</time>
      </trkpt>
      <trkpt lat="44.99657" lon="0.64946">
        <ele>193.5</ele>
        <time>2022-08-10T16:48:17Z</time>
      </trkpt>
      <trkpt lat="44.99651" lon="0.64948">
        <ele>194.5</ele>
        <time>2022-08-10T16:48:19Z</time>
      </trkpt>
      <trkpt lat="44.99646" lon="0.6495">
        <ele>193.5</ele>
        <time>2022-08-10T16:48:21Z</time>
      </trkpt>
      <trkpt lat="44.9964" lon="0.64953">
        <ele>193.5</ele>
        <time>2022-08-10T16:48:23Z</time>
      </trkpt>
      <trkpt lat="44.99634" lon="0.64955">
        <ele>193.5</ele>
        <time>2022-08-10T16:48:25Z</time>
      </trkpt>
      <trkpt lat="44.99628" lon="0.64959">
        <ele>194.5</ele>
        <time>2022-08-10T16:48:27Z</time>
      </trkpt>
      <trkpt lat="44.99621" lon="0.64962">
        <ele>195.5</ele>
        <time>2022-08-10T16:48:29Z</time>
      </trkpt>
      <trkpt lat="44.99614" lon="0.64964">
        <ele>196.5</ele>
        <time>2022-08-10T16:48:31Z</time>
      </trkpt>
      <trkpt lat="44.99606" lon="0.64964">
        <ele>195.5</ele>
        <time>2022-08-10T16:48:33Z</time>
      </trkpt>
      <trkpt lat="44.99599" lon="0.64964">
        <ele>195.5</ele>
        <time>2022-08-10T16:48:35Z</time>
      </trkpt>
      <trkpt lat="44.99593" lon="0.64963">
        <ele>194.5</ele>
        <time>2022-08-10T16:48:37Z</time>
      </trkpt>
      <trkpt lat="44.99587" lon="0.64962">
        <ele>195.5</ele>
        <time>2022-08-10T16:48:39Z</time>
      </trkpt>
      <trkpt lat="44.99581" lon="0.6496">
        <ele>195.5</ele>
        <time>2022-08-10T16:48:41Z</time>
      </trkpt>
      <trkpt lat="44.99575" lon="0.64958">
        <ele>194.5</ele>
        <time>2022-08-10T16:48:43Z</time>
      </trkpt>
      <trkpt lat="44.99571" lon="0.64956">
        <ele>193.5</ele>
        <time>2022-08-10T16:48:45Z</time>
      </trkpt>
      <trkpt lat="44.99566" lon="0.64954">
        <ele>193.5</ele>
        <time>2022-08-10T16:48:47Z</time>
      </trkpt>
      <trkpt lat="44.99561" lon="0.64951">
        <ele>193.5</ele>
        <time>2022-08-10T16:48:49Z</time>
      </trkpt>
      <trkpt lat="44.99557" lon="0.64949">
        <ele>193.5</ele>
        <time>2022-08-10T16:48:51Z</time>
      </trkpt>
      <trkpt lat="44.9955" lon="0.64947">
        <ele>193.5</ele>
        <time>2022-08-10T16:48:54Z</time>
      </trkpt>
      <trkpt lat="44.99544" lon="0.64945">
        <ele>193.5</ele>
        <time>2022-08-10T16:48:56Z</time>
      </trkpt>
      <trkpt lat="44.99539" lon="0.64942">
        <ele>192.5</ele>
        <time>2022-08-10T16:48:58Z</time>
      </trkpt>
      <trkpt lat="44.99534" lon="0.6494">
        <ele>192.5</ele>
        <time>2022-08-10T16:49:00Z</time>
      </trkpt>
      <trkpt lat="44.99529" lon="0.64938">
        <ele>192.5</ele>
        <time>2022-08-10T16:49:02Z</time>
      </trkpt>
      <trkpt lat="44.99523" lon="0.64935">
        <ele>192.5</ele>
        <time>2022-08-10T16:49:04Z</time>
      </trkpt>
      <trkpt lat="44.99518" lon="0.64929">
        <ele>193.5</ele>
        <time>2022-08-10T16:49:06Z</time>
      </trkpt>
      <trkpt lat="44.99512" lon="0.64923">
        <ele>194.5</ele>
        <time>2022-08-10T16:49:08Z</time>
      </trkpt>
      <trkpt lat="44.99508" lon="0.64921">
        <ele>194.5</ele>
        <time>2022-08-10T16:49:09Z</time>
      </trkpt>
      <trkpt lat="44.99503" lon="0.64918">
        <ele>194.5</ele>
        <time>2022-08-10T16:49:10Z</time>
      </trkpt>
      <trkpt lat="44.99497" lon="0.64916">
        <ele>195.5</ele>
        <time>2022-08-10T16:49:11Z</time>
      </trkpt>
      <trkpt lat="44.9949" lon="0.64914">
        <ele>195.5</ele>
        <time>2022-08-10T16:49:12Z</time>
      </trkpt>
      <trkpt lat="44.99483" lon="0.64913">
        <ele>195.5</ele>
        <time>2022-08-10T16:49:13Z</time>
      </trkpt>
      <trkpt lat="44.99474" lon="0.6491">
        <ele>195.5</ele>
        <time>2022-08-10T16:49:14Z</time>
      </trkpt>
      <trkpt lat="44.99465" lon="0.64906">
        <ele>195.5</ele>
        <time>2022-08-10T16:49:15Z</time>
      </trkpt>
      <trkpt lat="44.99454" lon="0.64902">
        <ele>194.5</ele>
        <time>2022-08-10T16:49:16Z</time>
      </trkpt>
      <trkpt lat="44.99444" lon="0.64897">
        <ele>194.5</ele>
        <time>2022-08-10T16:49:17Z</time>
      </trkpt>
      <trkpt lat="44.99435" lon="0.64893">
        <ele>193.5</ele>
        <time>2022-08-10T16:49:18Z</time>
      </trkpt>
      <trkpt lat="44.99426" lon="0.64887">
        <ele>193.5</ele>
        <time>2022-08-10T16:49:19Z</time>
      </trkpt>
      <trkpt lat="44.99419" lon="0.64882">
        <ele>192.5</ele>
        <time>2022-08-10T16:49:20Z</time>
      </trkpt>
      <trkpt lat="44.99413" lon="0.64879">
        <ele>192.5</ele>
        <time>2022-08-10T16:49:21Z</time>
      </trkpt>
      <trkpt lat="44.99408" lon="0.64875">
        <ele>191.5</ele>
        <time>2022-08-10T16:49:22Z</time>
      </trkpt>
      <trkpt lat="44.99399" lon="0.64868">
        <ele>191.5</ele>
        <time>2022-08-10T16:49:24Z</time>
      </trkpt>
      <trkpt lat="44.99394" lon="0.64865">
        <ele>191.5</ele>
        <time>2022-08-10T16:49:25Z</time>
      </trkpt>
      <trkpt lat="44.99389" lon="0.64861">
        <ele>191.5</ele>
        <time>2022-08-10T16:49:26Z</time>
      </trkpt>
      <trkpt lat="44.99385" lon="0.64859">
        <ele>191.5</ele>
        <time>2022-08-10T16:49:27Z</time>
      </trkpt>
      <trkpt lat="44.9938" lon="0.64856">
        <ele>192.5</ele>
        <time>2022-08-10T16:49:28Z</time>
      </trkpt>
      <trkpt lat="44.99372" lon="0.64852">
        <ele>192.5</ele>
        <time>2022-08-10T16:49:30Z</time>
      </trkpt>
      <trkpt lat="44.99363" lon="0.64848">
        <ele>192.5</ele>
        <time>2022-08-10T16:49:32Z</time>
      </trkpt>
      <trkpt lat="44.99355" lon="0.64842">
        <ele>191.5</ele>
        <time>2022-08-10T16:49:34Z</time>
      </trkpt>
      <trkpt lat="44.99348" lon="0.64836">
        <ele>191.5</ele>
        <time>2022-08-10T16:49:36Z</time>
      </trkpt>
      <trkpt lat="44.99341" lon="0.64831">
        <ele>190.5</ele>
        <time>2022-08-10T16:49:38Z</time>
      </trkpt>
      <trkpt lat="44.99335" lon="0.64824">
        <ele>189.5</ele>
        <time>2022-08-10T16:49:40Z</time>
      </trkpt>
      <trkpt lat="44.99331" lon="0.6482">
        <ele>189.5</ele>
        <time>2022-08-10T16:49:41Z</time>
      </trkpt>
      <trkpt lat="44.99326" lon="0.64815">
        <ele>189.5</ele>
        <time>2022-08-10T16:49:42Z</time>
      </trkpt>
      <trkpt lat="44.99323" lon="0.64812">
        <ele>189.5</ele>
        <time>2022-08-10T16:49:43Z</time>
      </trkpt>
      <trkpt lat="44.99319" lon="0.64808">
        <ele>189.5</ele>
        <time>2022-08-10T16:49:44Z</time>
      </trkpt>
      <trkpt lat="44.99312" lon="0.64799">
        <ele>188.5</ele>
        <time>2022-08-10T16:49:46Z</time>
      </trkpt>
      <trkpt lat="44.9931" lon="0.64793">
        <ele>187.5</ele>
        <time>2022-08-10T16:49:47Z</time>
      </trkpt>
      <trkpt lat="44.99308" lon="0.64787">
        <ele>187.5</ele>
        <time>2022-08-10T16:49:48Z</time>
      </trkpt>
      <trkpt lat="44.99303" lon="0.64781">
        <ele>185.5</ele>
        <time>2022-08-10T16:49:49Z</time>
      </trkpt>
      <trkpt lat="44.99296" lon="0.64775">
        <ele>184.5</ele>
        <time>2022-08-10T16:49:50Z</time>
      </trkpt>
      <trkpt lat="44.9929" lon="0.64769">
        <ele>183.5</ele>
        <time>2022-08-10T16:49:51Z</time>
      </trkpt>
      <trkpt lat="44.99284" lon="0.64766">
        <ele>182.5</ele>
        <time>2022-08-10T16:49:52Z</time>
      </trkpt>
      <trkpt lat="44.99276" lon="0.64763">
        <ele>181.5</ele>
        <time>2022-08-10T16:49:54Z</time>
      </trkpt>
      <trkpt lat="44.9927" lon="0.64759">
        <ele>181.5</ele>
        <time>2022-08-10T16:49:56Z</time>
      </trkpt>
      <trkpt lat="44.99268" lon="0.64753">
        <ele>181.5</ele>
        <time>2022-08-10T16:49:58Z</time>
      </trkpt>
      <trkpt lat="44.99268" lon="0.64746">
        <ele>183.5</ele>
        <time>2022-08-10T16:50:02Z</time>
      </trkpt>
      <trkpt lat="44.99263" lon="0.64744">
        <ele>182.5</ele>
        <time>2022-08-10T16:50:25Z</time>
      </trkpt>
      <trkpt lat="44.9926" lon="0.64752">
        <ele>182.5</ele>
        <time>2022-08-10T16:50:28Z</time>
      </trkpt>
      <trkpt lat="44.99259" lon="0.6476">
        <ele>182.5</ele>
        <time>2022-08-10T16:50:30Z</time>
      </trkpt>
      <trkpt lat="44.99257" lon="0.64771">
        <ele>181.5</ele>
        <time>2022-08-10T16:50:32Z</time>
      </trkpt>
      <trkpt lat="44.99253" lon="0.64781">
        <ele>181.5</ele>
        <time>2022-08-10T16:50:34Z</time>
      </trkpt>
      <trkpt lat="44.99251" lon="0.64787">
        <ele>180.5</ele>
        <time>2022-08-10T16:50:35Z</time>
      </trkpt>
      <trkpt lat="44.9925" lon="0.64794">
        <ele>179.5</ele>
        <time>2022-08-10T16:50:36Z</time>
      </trkpt>
      <trkpt lat="44.99248" lon="0.64801">
        <ele>178.5</ele>
        <time>2022-08-10T16:50:37Z</time>
      </trkpt>
      <trkpt lat="44.99246" lon="0.64808">
        <ele>176.5</ele>
        <time>2022-08-10T16:50:38Z</time>
      </trkpt>
      <trkpt lat="44.99243" lon="0.64814">
        <ele>175.5</ele>
        <time>2022-08-10T16:50:39Z</time>
      </trkpt>
      <trkpt lat="44.99241" lon="0.6482">
        <ele>175.5</ele>
        <time>2022-08-10T16:50:40Z</time>
      </trkpt>
      <trkpt lat="44.99238" lon="0.64826">
        <ele>174.5</ele>
        <time>2022-08-10T16:50:41Z</time>
      </trkpt>
      <trkpt lat="44.99236" lon="0.64832">
        <ele>174.5</ele>
        <time>2022-08-10T16:50:42Z</time>
      </trkpt>
      <trkpt lat="44.99232" lon="0.64837">
        <ele>173.5</ele>
        <time>2022-08-10T16:50:43Z</time>
      </trkpt>
      <trkpt lat="44.99229" lon="0.64842">
        <ele>172.5</ele>
        <time>2022-08-10T16:50:44Z</time>
      </trkpt>
      <trkpt lat="44.99221" lon="0.64849">
        <ele>172.5</ele>
        <time>2022-08-10T16:50:46Z</time>
      </trkpt>
      <trkpt lat="44.99217" lon="0.64853">
        <ele>172.5</ele>
        <time>2022-08-10T16:50:47Z</time>
      </trkpt>
      <trkpt lat="44.99212" lon="0.64857">
        <ele>172.5</ele>
        <time>2022-08-10T16:50:48Z</time>
      </trkpt>
      <trkpt lat="44.99207" lon="0.64863">
        <ele>171.5</ele>
        <time>2022-08-10T16:50:49Z</time>
      </trkpt>
      <trkpt lat="44.99201" lon="0.6487">
        <ele>171.5</ele>
        <time>2022-08-10T16:50:50Z</time>
      </trkpt>
      <trkpt lat="44.99196" lon="0.64879">
        <ele>171.5</ele>
        <time>2022-08-10T16:50:51Z</time>
      </trkpt>
      <trkpt lat="44.9919" lon="0.64887">
        <ele>171.5</ele>
        <time>2022-08-10T16:50:52Z</time>
      </trkpt>
      <trkpt lat="44.99185" lon="0.64894">
        <ele>171.5</ele>
        <time>2022-08-10T16:50:53Z</time>
      </trkpt>
      <trkpt lat="44.9918" lon="0.64898">
        <ele>171.5</ele>
        <time>2022-08-10T16:50:54Z</time>
      </trkpt>
      <trkpt lat="44.99174" lon="0.649">
        <ele>171.5</ele>
        <time>2022-08-10T16:50:55Z</time>
      </trkpt>
      <trkpt lat="44.99167" lon="0.64897">
        <ele>170.5</ele>
        <time>2022-08-10T16:50:57Z</time>
      </trkpt>
      <trkpt lat="44.9916" lon="0.6489">
        <ele>170.5</ele>
        <time>2022-08-10T16:50:59Z</time>
      </trkpt>
      <trkpt lat="44.99156" lon="0.64886">
        <ele>169.5</ele>
        <time>2022-08-10T16:51:00Z</time>
      </trkpt>
      <trkpt lat="44.9915" lon="0.64881">
        <ele>169.5</ele>
        <time>2022-08-10T16:51:02Z</time>
      </trkpt>
      <trkpt lat="44.99145" lon="0.64878">
        <ele>169.5</ele>
        <time>2022-08-10T16:51:04Z</time>
      </trkpt>
      <trkpt lat="44.9914" lon="0.64873">
        <ele>170.5</ele>
        <time>2022-08-10T16:51:07Z</time>
      </trkpt>
      <trkpt lat="44.99136" lon="0.64869">
        <ele>169.5</ele>
        <time>2022-08-10T16:51:09Z</time>
      </trkpt>
      <trkpt lat="44.99131" lon="0.64867">
        <ele>169.5</ele>
        <time>2022-08-10T16:51:13Z</time>
      </trkpt>
      <trkpt lat="44.99127" lon="0.64863">
        <ele>169.5</ele>
        <time>2022-08-10T16:51:15Z</time>
      </trkpt>
      <trkpt lat="44.99123" lon="0.64858">
        <ele>169.5</ele>
        <time>2022-08-10T16:51:17Z</time>
      </trkpt>
      <trkpt lat="44.99119" lon="0.64853">
        <ele>169.5</ele>
        <time>2022-08-10T16:51:19Z</time>
      </trkpt>
      <trkpt lat="44.99115" lon="0.64848">
        <ele>169.5</ele>
        <time>2022-08-10T16:51:21Z</time>
      </trkpt>
      <trkpt lat="44.99111" lon="0.64843">
        <ele>169.5</ele>
        <time>2022-08-10T16:51:23Z</time>
      </trkpt>
      <trkpt lat="44.99106" lon="0.64839">
        <ele>169.5</ele>
        <time>2022-08-10T16:51:26Z</time>
      </trkpt>
      <trkpt lat="44.99101" lon="0.64834">
        <ele>169.5</ele>
        <time>2022-08-10T16:51:28Z</time>
      </trkpt>
      <trkpt lat="44.99097" lon="0.64828">
        <ele>168.5</ele>
        <time>2022-08-10T16:51:30Z</time>
      </trkpt>
      <trkpt lat="44.99093" lon="0.64821">
        <ele>168.5</ele>
        <time>2022-08-10T16:51:32Z</time>
      </trkpt>
      <trkpt lat="44.99088" lon="0.64815">
        <ele>168.5</ele>
        <time>2022-08-10T16:51:34Z</time>
      </trkpt>
      <trkpt lat="44.99084" lon="0.64809">
        <ele>168.5</ele>
        <time>2022-08-10T16:51:36Z</time>
      </trkpt>
      <trkpt lat="44.9908" lon="0.64805">
        <ele>168.5</ele>
        <time>2022-08-10T16:51:38Z</time>
      </trkpt>
      <trkpt lat="44.99076" lon="0.64798">
        <ele>169.5</ele>
        <time>2022-08-10T16:51:40Z</time>
      </trkpt>
      <trkpt lat="44.9907" lon="0.64791">
        <ele>168.5</ele>
        <time>2022-08-10T16:51:42Z</time>
      </trkpt>
      <trkpt lat="44.99066" lon="0.64787">
        <ele>169.5</ele>
        <time>2022-08-10T16:51:44Z</time>
      </trkpt>
      <trkpt lat="44.99063" lon="0.64782">
        <ele>168.5</ele>
        <time>2022-08-10T16:51:46Z</time>
      </trkpt>
      <trkpt lat="44.99059" lon="0.64776">
        <ele>168.5</ele>
        <time>2022-08-10T16:51:48Z</time>
      </trkpt>
      <trkpt lat="44.99054" lon="0.64769">
        <ele>168.5</ele>
        <time>2022-08-10T16:51:50Z</time>
      </trkpt>
      <trkpt lat="44.99051" lon="0.64764">
        <ele>168.5</ele>
        <time>2022-08-10T16:51:51Z</time>
      </trkpt>
      <trkpt lat="44.99048" lon="0.6476">
        <ele>168.5</ele>
        <time>2022-08-10T16:51:52Z</time>
      </trkpt>
      <trkpt lat="44.99042" lon="0.64751">
        <ele>168.5</ele>
        <time>2022-08-10T16:51:54Z</time>
      </trkpt>
      <trkpt lat="44.99035" lon="0.64742">
        <ele>168.5</ele>
        <time>2022-08-10T16:51:56Z</time>
      </trkpt>
      <trkpt lat="44.99032" lon="0.64738">
        <ele>168.5</ele>
        <time>2022-08-10T16:51:57Z</time>
      </trkpt>
      <trkpt lat="44.99026" lon="0.64729">
        <ele>169.5</ele>
        <time>2022-08-10T16:51:59Z</time>
      </trkpt>
      <trkpt lat="44.99024" lon="0.64724">
        <ele>169.5</ele>
        <time>2022-08-10T16:52:00Z</time>
      </trkpt>
      <trkpt lat="44.99019" lon="0.64715">
        <ele>170.5</ele>
        <time>2022-08-10T16:52:02Z</time>
      </trkpt>
      <trkpt lat="44.99014" lon="0.64708">
        <ele>171.5</ele>
        <time>2022-08-10T16:52:04Z</time>
      </trkpt>
      <trkpt lat="44.99009" lon="0.64702">
        <ele>172.5</ele>
        <time>2022-08-10T16:52:06Z</time>
      </trkpt>
      <trkpt lat="44.99004" lon="0.64697">
        <ele>172.5</ele>
        <time>2022-08-10T16:52:08Z</time>
      </trkpt>
      <trkpt lat="44.98999" lon="0.64692">
        <ele>172.5</ele>
        <time>2022-08-10T16:52:10Z</time>
      </trkpt>
      <trkpt lat="44.98995" lon="0.64687">
        <ele>172.5</ele>
        <time>2022-08-10T16:52:12Z</time>
      </trkpt>
      <trkpt lat="44.98991" lon="0.64683">
        <ele>173.5</ele>
        <time>2022-08-10T16:52:14Z</time>
      </trkpt>
      <trkpt lat="44.98987" lon="0.64679">
        <ele>174.5</ele>
        <time>2022-08-10T16:52:16Z</time>
      </trkpt>
      <trkpt lat="44.98982" lon="0.64671">
        <ele>175.5</ele>
        <time>2022-08-10T16:52:19Z</time>
      </trkpt>
      <trkpt lat="44.98978" lon="0.64665">
        <ele>176.5</ele>
        <time>2022-08-10T16:52:22Z</time>
      </trkpt>
      <trkpt lat="44.98973" lon="0.6466">
        <ele>177.5</ele>
        <time>2022-08-10T16:52:25Z</time>
      </trkpt>
      <trkpt lat="44.98968" lon="0.64655">
        <ele>177.5</ele>
        <time>2022-08-10T16:52:28Z</time>
      </trkpt>
      <trkpt lat="44.98964" lon="0.64651">
        <ele>178.5</ele>
        <time>2022-08-10T16:52:31Z</time>
      </trkpt>
      <trkpt lat="44.98959" lon="0.64648">
        <ele>180.5</ele>
        <time>2022-08-10T16:52:34Z</time>
      </trkpt>
      <trkpt lat="44.98955" lon="0.64644">
        <ele>180.5</ele>
        <time>2022-08-10T16:52:37Z</time>
      </trkpt>
      <trkpt lat="44.9895" lon="0.64642">
        <ele>181.5</ele>
        <time>2022-08-10T16:52:40Z</time>
      </trkpt>
      <trkpt lat="44.98945" lon="0.6464">
        <ele>181.5</ele>
        <time>2022-08-10T16:52:43Z</time>
      </trkpt>
      <trkpt lat="44.9894" lon="0.64637">
        <ele>182.5</ele>
        <time>2022-08-10T16:52:46Z</time>
      </trkpt>
      <trkpt lat="44.98935" lon="0.64635">
        <ele>182.5</ele>
        <time>2022-08-10T16:52:50Z</time>
      </trkpt>
      <trkpt lat="44.9893" lon="0.64633">
        <ele>182.5</ele>
        <time>2022-08-10T16:52:53Z</time>
      </trkpt>
      <trkpt lat="44.98925" lon="0.64632">
        <ele>182.5</ele>
        <time>2022-08-10T16:52:56Z</time>
      </trkpt>
      <trkpt lat="44.98921" lon="0.64629">
        <ele>183.5</ele>
        <time>2022-08-10T16:52:59Z</time>
      </trkpt>
      <trkpt lat="44.98915" lon="0.64626">
        <ele>184.5</ele>
        <time>2022-08-10T16:53:03Z</time>
      </trkpt>
      <trkpt lat="44.9891" lon="0.64621">
        <ele>184.5</ele>
        <time>2022-08-10T16:53:06Z</time>
      </trkpt>
      <trkpt lat="44.98906" lon="0.64618">
        <ele>186.5</ele>
        <time>2022-08-10T16:53:09Z</time>
      </trkpt>
      <trkpt lat="44.98901" lon="0.64615">
        <ele>186.5</ele>
        <time>2022-08-10T16:53:12Z</time>
      </trkpt>
      <trkpt lat="44.98896" lon="0.64613">
        <ele>186.5</ele>
        <time>2022-08-10T16:53:15Z</time>
      </trkpt>
      <trkpt lat="44.9889" lon="0.6461">
        <ele>187.5</ele>
        <time>2022-08-10T16:53:19Z</time>
      </trkpt>
      <trkpt lat="44.98886" lon="0.64607">
        <ele>189.5</ele>
        <time>2022-08-10T16:53:22Z</time>
      </trkpt>
      <trkpt lat="44.98881" lon="0.64602">
        <ele>190.5</ele>
        <time>2022-08-10T16:53:25Z</time>
      </trkpt>
      <trkpt lat="44.98876" lon="0.64598">
        <ele>190.5</ele>
        <time>2022-08-10T16:53:28Z</time>
      </trkpt>
      <trkpt lat="44.98872" lon="0.64594">
        <ele>191.5</ele>
        <time>2022-08-10T16:53:31Z</time>
      </trkpt>
      <trkpt lat="44.98868" lon="0.64591">
        <ele>191.5</ele>
        <time>2022-08-10T16:53:34Z</time>
      </trkpt>
      <trkpt lat="44.98863" lon="0.64588">
        <ele>191.5</ele>
        <time>2022-08-10T16:53:37Z</time>
      </trkpt>
      <trkpt lat="44.98858" lon="0.64583">
        <ele>191.5</ele>
        <time>2022-08-10T16:53:40Z</time>
      </trkpt>
      <trkpt lat="44.98854" lon="0.64579">
        <ele>192.5</ele>
        <time>2022-08-10T16:53:43Z</time>
      </trkpt>
      <trkpt lat="44.98849" lon="0.64575">
        <ele>194.5</ele>
        <time>2022-08-10T16:53:47Z</time>
      </trkpt>
      <trkpt lat="44.98846" lon="0.64568">
        <ele>194.5</ele>
        <time>2022-08-10T16:53:51Z</time>
      </trkpt>
      <trkpt lat="44.98842" lon="0.6456">
        <ele>195.5</ele>
        <time>2022-08-10T16:53:54Z</time>
      </trkpt>
      <trkpt lat="44.98842" lon="0.64553">
        <ele>196.5</ele>
        <time>2022-08-10T16:53:56Z</time>
      </trkpt>
      <trkpt lat="44.9884" lon="0.64543">
        <ele>196.5</ele>
        <time>2022-08-10T16:53:58Z</time>
      </trkpt>
      <trkpt lat="44.98838" lon="0.64535">
        <ele>195.5</ele>
        <time>2022-08-10T16:54:00Z</time>
      </trkpt>
      <trkpt lat="44.98836" lon="0.64526">
        <ele>194.5</ele>
        <time>2022-08-10T16:54:02Z</time>
      </trkpt>
      <trkpt lat="44.98834" lon="0.64517">
        <ele>194.5</ele>
        <time>2022-08-10T16:54:04Z</time>
      </trkpt>
      <trkpt lat="44.98834" lon="0.64507">
        <ele>195.5</ele>
        <time>2022-08-10T16:54:06Z</time>
      </trkpt>
      <trkpt lat="44.98833" lon="0.64498">
        <ele>194.5</ele>
        <time>2022-08-10T16:54:08Z</time>
      </trkpt>
      <trkpt lat="44.98831" lon="0.64489">
        <ele>195.5</ele>
        <time>2022-08-10T16:54:10Z</time>
      </trkpt>
      <trkpt lat="44.9883" lon="0.64479">
        <ele>194.5</ele>
        <time>2022-08-10T16:54:12Z</time>
      </trkpt>
      <trkpt lat="44.98828" lon="0.64469">
        <ele>194.5</ele>
        <time>2022-08-10T16:54:14Z</time>
      </trkpt>
      <trkpt lat="44.98827" lon="0.64461">
        <ele>194.5</ele>
        <time>2022-08-10T16:54:16Z</time>
      </trkpt>
      <trkpt lat="44.98825" lon="0.64452">
        <ele>194.5</ele>
        <time>2022-08-10T16:54:18Z</time>
      </trkpt>
      <trkpt lat="44.98823" lon="0.64442">
        <ele>193.5</ele>
        <time>2022-08-10T16:54:20Z</time>
      </trkpt>
      <trkpt lat="44.9882" lon="0.64432">
        <ele>192.5</ele>
        <time>2022-08-10T16:54:22Z</time>
      </trkpt>
      <trkpt lat="44.98817" lon="0.64424">
        <ele>193.5</ele>
        <time>2022-08-10T16:54:24Z</time>
      </trkpt>
      <trkpt lat="44.98815" lon="0.64413">
        <ele>193.5</ele>
        <time>2022-08-10T16:54:26Z</time>
      </trkpt>
      <trkpt lat="44.98813" lon="0.64403">
        <ele>193.5</ele>
        <time>2022-08-10T16:54:28Z</time>
      </trkpt>
      <trkpt lat="44.98812" lon="0.64386">
        <ele>193.5</ele>
        <time>2022-08-10T16:54:31Z</time>
      </trkpt>
      <trkpt lat="44.98812" lon="0.6438">
        <ele>194.5</ele>
        <time>2022-08-10T16:54:32Z</time>
      </trkpt>
      <trkpt lat="44.98811" lon="0.64372">
        <ele>193.5</ele>
        <time>2022-08-10T16:54:33Z</time>
      </trkpt>
      <trkpt lat="44.9881" lon="0.64366">
        <ele>192.5</ele>
        <time>2022-08-10T16:54:34Z</time>
      </trkpt>
      <trkpt lat="44.9881" lon="0.6436">
        <ele>193.5</ele>
        <time>2022-08-10T16:54:35Z</time>
      </trkpt>
      <trkpt lat="44.9881" lon="0.64353">
        <ele>193.5</ele>
        <time>2022-08-10T16:54:36Z</time>
      </trkpt>
      <trkpt lat="44.98811" lon="0.64346">
        <ele>192.5</ele>
        <time>2022-08-10T16:54:37Z</time>
      </trkpt>
      <trkpt lat="44.98811" lon="0.64333">
        <ele>191.5</ele>
        <time>2022-08-10T16:54:39Z</time>
      </trkpt>
      <trkpt lat="44.98811" lon="0.64327">
        <ele>192.5</ele>
        <time>2022-08-10T16:54:40Z</time>
      </trkpt>
      <trkpt lat="44.98809" lon="0.64316">
        <ele>191.5</ele>
        <time>2022-08-10T16:54:42Z</time>
      </trkpt>
      <trkpt lat="44.98808" lon="0.64305">
        <ele>190.5</ele>
        <time>2022-08-10T16:54:44Z</time>
      </trkpt>
      <trkpt lat="44.98807" lon="0.64294">
        <ele>190.5</ele>
        <time>2022-08-10T16:54:46Z</time>
      </trkpt>
      <trkpt lat="44.98805" lon="0.64282">
        <ele>190.5</ele>
        <time>2022-08-10T16:54:48Z</time>
      </trkpt>
      <trkpt lat="44.98803" lon="0.64271">
        <ele>188.5</ele>
        <time>2022-08-10T16:54:50Z</time>
      </trkpt>
      <trkpt lat="44.98799" lon="0.64263">
        <ele>188.5</ele>
        <time>2022-08-10T16:54:52Z</time>
      </trkpt>
      <trkpt lat="44.98794" lon="0.64257">
        <ele>186.5</ele>
        <time>2022-08-10T16:54:54Z</time>
      </trkpt>
      <trkpt lat="44.98788" lon="0.64256">
        <ele>187.5</ele>
        <time>2022-08-10T16:54:56Z</time>
      </trkpt>
      <trkpt lat="44.98781" lon="0.64256">
        <ele>187.5</ele>
        <time>2022-08-10T16:54:58Z</time>
      </trkpt>
      <trkpt lat="44.98776" lon="0.64258">
        <ele>188.5</ele>
        <time>2022-08-10T16:55:00Z</time>
      </trkpt>
      <trkpt lat="44.9877" lon="0.64261">
        <ele>188.5</ele>
        <time>2022-08-10T16:55:03Z</time>
      </trkpt>
      <trkpt lat="44.98765" lon="0.64264">
        <ele>188.5</ele>
        <time>2022-08-10T16:55:06Z</time>
      </trkpt>
      <trkpt lat="44.98759" lon="0.64265">
        <ele>188.5</ele>
        <time>2022-08-10T16:55:08Z</time>
      </trkpt>
      <trkpt lat="44.98751" lon="0.64268">
        <ele>189.5</ele>
        <time>2022-08-10T16:55:11Z</time>
      </trkpt>
      <trkpt lat="44.98744" lon="0.64272">
        <ele>189.5</ele>
        <time>2022-08-10T16:55:13Z</time>
      </trkpt>
      <trkpt lat="44.98739" lon="0.64274">
        <ele>189.5</ele>
        <time>2022-08-10T16:55:14Z</time>
      </trkpt>
      <trkpt lat="44.98733" lon="0.64276">
        <ele>189.5</ele>
        <time>2022-08-10T16:55:15Z</time>
      </trkpt>
      <trkpt lat="44.98727" lon="0.64278">
        <ele>189.5</ele>
        <time>2022-08-10T16:55:16Z</time>
      </trkpt>
      <trkpt lat="44.98719" lon="0.64281">
        <ele>189.5</ele>
        <time>2022-08-10T16:55:17Z</time>
      </trkpt>
      <trkpt lat="44.98712" lon="0.64284">
        <ele>188.5</ele>
        <time>2022-08-10T16:55:18Z</time>
      </trkpt>
      <trkpt lat="44.98704" lon="0.64287">
        <ele>187.5</ele>
        <time>2022-08-10T16:55:19Z</time>
      </trkpt>
      <trkpt lat="44.9869" lon="0.64293">
        <ele>187.5</ele>
        <time>2022-08-10T16:55:21Z</time>
      </trkpt>
      <trkpt lat="44.98682" lon="0.64296">
        <ele>186.5</ele>
        <time>2022-08-10T16:55:22Z</time>
      </trkpt>
      <trkpt lat="44.98675" lon="0.64298">
        <ele>185.5</ele>
        <time>2022-08-10T16:55:23Z</time>
      </trkpt>
      <trkpt lat="44.98667" lon="0.64301">
        <ele>185.5</ele>
        <time>2022-08-10T16:55:24Z</time>
      </trkpt>
      <trkpt lat="44.98661" lon="0.64303">
        <ele>184.5</ele>
        <time>2022-08-10T16:55:25Z</time>
      </trkpt>
      <trkpt lat="44.98654" lon="0.64306">
        <ele>183.5</ele>
        <time>2022-08-10T16:55:26Z</time>
      </trkpt>
      <trkpt lat="44.98648" lon="0.64309">
        <ele>183.5</ele>
        <time>2022-08-10T16:55:27Z</time>
      </trkpt>
      <trkpt lat="44.98642" lon="0.64311">
        <ele>182.5</ele>
        <time>2022-08-10T16:55:28Z</time>
      </trkpt>
      <trkpt lat="44.98635" lon="0.64315">
        <ele>182.5</ele>
        <time>2022-08-10T16:55:30Z</time>
      </trkpt>
      <trkpt lat="44.98634" lon="0.64323">
        <ele>180.5</ele>
        <time>2022-08-10T16:55:54Z</time>
      </trkpt>
      <trkpt lat="44.98634" lon="0.64331">
        <ele>179.5</ele>
        <time>2022-08-10T16:55:57Z</time>
      </trkpt>
      <trkpt lat="44.98634" lon="0.64338">
        <ele>178.5</ele>
        <time>2022-08-10T16:55:59Z</time>
      </trkpt>
      <trkpt lat="44.98634" lon="0.64347">
        <ele>178.5</ele>
        <time>2022-08-10T16:56:02Z</time>
      </trkpt>
      <trkpt lat="44.98633" lon="0.64353">
        <ele>177.5</ele>
        <time>2022-08-10T16:56:04Z</time>
      </trkpt>
      <trkpt lat="44.98632" lon="0.6436">
        <ele>177.5</ele>
        <time>2022-08-10T16:56:06Z</time>
      </trkpt>
      <trkpt lat="44.98632" lon="0.64368">
        <ele>177.5</ele>
        <time>2022-08-10T16:56:09Z</time>
      </trkpt>
      <trkpt lat="44.98632" lon="0.64375">
        <ele>176.5</ele>
        <time>2022-08-10T16:56:12Z</time>
      </trkpt>
      <trkpt lat="44.98632" lon="0.64384">
        <ele>176.5</ele>
        <time>2022-08-10T16:56:15Z</time>
      </trkpt>
      <trkpt lat="44.98632" lon="0.64391">
        <ele>176.5</ele>
        <time>2022-08-10T16:56:17Z</time>
      </trkpt>
      <trkpt lat="44.98631" lon="0.64402">
        <ele>175.5</ele>
        <time>2022-08-10T16:56:21Z</time>
      </trkpt>
      <trkpt lat="44.98631" lon="0.64409">
        <ele>175.5</ele>
        <time>2022-08-10T16:56:23Z</time>
      </trkpt>
      <trkpt lat="44.98631" lon="0.64417">
        <ele>175.5</ele>
        <time>2022-08-10T16:56:25Z</time>
      </trkpt>
      <trkpt lat="44.9863" lon="0.64424">
        <ele>175.5</ele>
        <time>2022-08-10T16:56:27Z</time>
      </trkpt>
      <trkpt lat="44.98629" lon="0.64431">
        <ele>174.5</ele>
        <time>2022-08-10T16:56:32Z</time>
      </trkpt>
      <trkpt lat="44.98627" lon="0.64438">
        <ele>176.5</ele>
        <time>2022-08-10T16:56:59Z</time>
      </trkpt>
      <trkpt lat="44.98627" lon="0.64445">
        <ele>175.5</ele>
        <time>2022-08-10T16:57:02Z</time>
      </trkpt>
      <trkpt lat="44.98627" lon="0.64454">
        <ele>174.5</ele>
        <time>2022-08-10T16:57:05Z</time>
      </trkpt>
      <trkpt lat="44.98627" lon="0.6446">
        <ele>173.5</ele>
        <time>2022-08-10T16:57:07Z</time>
      </trkpt>
      <trkpt lat="44.98627" lon="0.6447">
        <ele>173.5</ele>
        <time>2022-08-10T16:57:09Z</time>
      </trkpt>
      <trkpt lat="44.98627" lon="0.64479">
        <ele>172.5</ele>
        <time>2022-08-10T16:57:11Z</time>
      </trkpt>
      <trkpt lat="44.98625" lon="0.64489">
        <ele>171.5</ele>
        <time>2022-08-10T16:57:13Z</time>
      </trkpt>
      <trkpt lat="44.98623" lon="0.64498">
        <ele>171.5</ele>
        <time>2022-08-10T16:57:15Z</time>
      </trkpt>
      <trkpt lat="44.98623" lon="0.64505">
        <ele>170.5</ele>
        <time>2022-08-10T16:57:17Z</time>
      </trkpt>
      <trkpt lat="44.98623" lon="0.64514">
        <ele>169.5</ele>
        <time>2022-08-10T16:57:19Z</time>
      </trkpt>
      <trkpt lat="44.98627" lon="0.64527">
        <ele>166.5</ele>
        <time>2022-08-10T16:57:21Z</time>
      </trkpt>
      <trkpt lat="44.98629" lon="0.64534">
        <ele>167.5</ele>
        <time>2022-08-10T16:57:22Z</time>
      </trkpt>
      <trkpt lat="44.98631" lon="0.64541">
        <ele>167.5</ele>
        <time>2022-08-10T16:57:23Z</time>
      </trkpt>
      <trkpt lat="44.98632" lon="0.64547">
        <ele>167.5</ele>
        <time>2022-08-10T16:57:24Z</time>
      </trkpt>
      <trkpt lat="44.98633" lon="0.64554">
        <ele>167.5</ele>
        <time>2022-08-10T16:57:25Z</time>
      </trkpt>
      <trkpt lat="44.98633" lon="0.6456">
        <ele>166.5</ele>
        <time>2022-08-10T16:57:26Z</time>
      </trkpt>
      <trkpt lat="44.98634" lon="0.64566">
        <ele>165.5</ele>
        <time>2022-08-10T16:57:27Z</time>
      </trkpt>
      <trkpt lat="44.98635" lon="0.64579">
        <ele>165.5</ele>
        <time>2022-08-10T16:57:29Z</time>
      </trkpt>
      <trkpt lat="44.98635" lon="0.64586">
        <ele>165.5</ele>
        <time>2022-08-10T16:57:30Z</time>
      </trkpt>
      <trkpt lat="44.98636" lon="0.64592">
        <ele>165.5</ele>
        <time>2022-08-10T16:57:31Z</time>
      </trkpt>
      <trkpt lat="44.98637" lon="0.64599">
        <ele>165.5</ele>
        <time>2022-08-10T16:57:32Z</time>
      </trkpt>
      <trkpt lat="44.98637" lon="0.64606">
        <ele>165.5</ele>
        <time>2022-08-10T16:57:33Z</time>
      </trkpt>
      <trkpt lat="44.98638" lon="0.64612">
        <ele>165.5</ele>
        <time>2022-08-10T16:57:34Z</time>
      </trkpt>
      <trkpt lat="44.98638" lon="0.64619">
        <ele>165.5</ele>
        <time>2022-08-10T16:57:35Z</time>
      </trkpt>
      <trkpt lat="44.98639" lon="0.64626">
        <ele>165.5</ele>
        <time>2022-08-10T16:57:36Z</time>
      </trkpt>
      <trkpt lat="44.98639" lon="0.64633">
        <ele>165.5</ele>
        <time>2022-08-10T16:57:37Z</time>
      </trkpt>
      <trkpt lat="44.98639" lon="0.6464">
        <ele>165.5</ele>
        <time>2022-08-10T16:57:38Z</time>
      </trkpt>
      <trkpt lat="44.9864" lon="0.64647">
        <ele>165.5</ele>
        <time>2022-08-10T16:57:39Z</time>
      </trkpt>
      <trkpt lat="44.9864" lon="0.64654">
        <ele>165.5</ele>
        <time>2022-08-10T16:57:40Z</time>
      </trkpt>
      <trkpt lat="44.98641" lon="0.64661">
        <ele>165.5</ele>
        <time>2022-08-10T16:57:41Z</time>
      </trkpt>
      <trkpt lat="44.98641" lon="0.64668">
        <ele>165.5</ele>
        <time>2022-08-10T16:57:42Z</time>
      </trkpt>
      <trkpt lat="44.98642" lon="0.64675">
        <ele>165.5</ele>
        <time>2022-08-10T16:57:43Z</time>
      </trkpt>
      <trkpt lat="44.98643" lon="0.64682">
        <ele>166.5</ele>
        <time>2022-08-10T16:57:44Z</time>
      </trkpt>
      <trkpt lat="44.98644" lon="0.64689">
        <ele>165.5</ele>
        <time>2022-08-10T16:57:45Z</time>
      </trkpt>
      <trkpt lat="44.98645" lon="0.64696">
        <ele>166.5</ele>
        <time>2022-08-10T16:57:46Z</time>
      </trkpt>
      <trkpt lat="44.98645" lon="0.64703">
        <ele>165.5</ele>
        <time>2022-08-10T16:57:47Z</time>
      </trkpt>
      <trkpt lat="44.98646" lon="0.6471">
        <ele>165.5</ele>
        <time>2022-08-10T16:57:48Z</time>
      </trkpt>
      <trkpt lat="44.98647" lon="0.64718">
        <ele>165.5</ele>
        <time>2022-08-10T16:57:49Z</time>
      </trkpt>
      <trkpt lat="44.98647" lon="0.64726">
        <ele>164.5</ele>
        <time>2022-08-10T16:57:50Z</time>
      </trkpt>
      <trkpt lat="44.98647" lon="0.64734">
        <ele>164.5</ele>
        <time>2022-08-10T16:57:51Z</time>
      </trkpt>
      <trkpt lat="44.98647" lon="0.64743">
        <ele>163.5</ele>
        <time>2022-08-10T16:57:52Z</time>
      </trkpt>
      <trkpt lat="44.98648" lon="0.64751">
        <ele>162.5</ele>
        <time>2022-08-10T16:57:53Z</time>
      </trkpt>
      <trkpt lat="44.98648" lon="0.64759">
        <ele>162.5</ele>
        <time>2022-08-10T16:57:54Z</time>
      </trkpt>
      <trkpt lat="44.98649" lon="0.64767">
        <ele>161.5</ele>
        <time>2022-08-10T16:57:55Z</time>
      </trkpt>
      <trkpt lat="44.98649" lon="0.64774">
        <ele>161.5</ele>
        <time>2022-08-10T16:57:56Z</time>
      </trkpt>
      <trkpt lat="44.98649" lon="0.64782">
        <ele>161.5</ele>
        <time>2022-08-10T16:57:57Z</time>
      </trkpt>
      <trkpt lat="44.9865" lon="0.64789">
        <ele>161.5</ele>
        <time>2022-08-10T16:57:58Z</time>
      </trkpt>
      <trkpt lat="44.9865" lon="0.64796">
        <ele>160.5</ele>
        <time>2022-08-10T16:57:59Z</time>
      </trkpt>
      <trkpt lat="44.98651" lon="0.64802">
        <ele>160.5</ele>
        <time>2022-08-10T16:58:00Z</time>
      </trkpt>
      <trkpt lat="44.98651" lon="0.64809">
        <ele>160.5</ele>
        <time>2022-08-10T16:58:01Z</time>
      </trkpt>
      <trkpt lat="44.98652" lon="0.64821">
        <ele>159.5</ele>
        <time>2022-08-10T16:58:03Z</time>
      </trkpt>
      <trkpt lat="44.98655" lon="0.64831">
        <ele>159.5</ele>
        <time>2022-08-10T16:58:05Z</time>
      </trkpt>
      <trkpt lat="44.98657" lon="0.64839">
        <ele>159.5</ele>
        <time>2022-08-10T16:58:07Z</time>
      </trkpt>
      <trkpt lat="44.98657" lon="0.64845">
        <ele>160.5</ele>
        <time>2022-08-10T16:58:09Z</time>
      </trkpt>
      <trkpt lat="44.98657" lon="0.64852">
        <ele>159.5</ele>
        <time>2022-08-10T16:58:11Z</time>
      </trkpt>
      <trkpt lat="44.98659" lon="0.6486">
        <ele>159.5</ele>
        <time>2022-08-10T16:58:13Z</time>
      </trkpt>
      <trkpt lat="44.98661" lon="0.64868">
        <ele>160.5</ele>
        <time>2022-08-10T16:58:15Z</time>
      </trkpt>
      <trkpt lat="44.98664" lon="0.64876">
        <ele>160.5</ele>
        <time>2022-08-10T16:58:17Z</time>
      </trkpt>
      <trkpt lat="44.98667" lon="0.64884">
        <ele>160.5</ele>
        <time>2022-08-10T16:58:19Z</time>
      </trkpt>
      <trkpt lat="44.9867" lon="0.64892">
        <ele>160.5</ele>
        <time>2022-08-10T16:58:21Z</time>
      </trkpt>
      <trkpt lat="44.98672" lon="0.64898">
        <ele>161.5</ele>
        <time>2022-08-10T16:58:23Z</time>
      </trkpt>
      <trkpt lat="44.98673" lon="0.64905">
        <ele>161.5</ele>
        <time>2022-08-10T16:58:25Z</time>
      </trkpt>
      <trkpt lat="44.98673" lon="0.64914">
        <ele>161.5</ele>
        <time>2022-08-10T16:58:27Z</time>
      </trkpt>
      <trkpt lat="44.98674" lon="0.64921">
        <ele>162.5</ele>
        <time>2022-08-10T16:58:29Z</time>
      </trkpt>
      <trkpt lat="44.98674" lon="0.64928">
        <ele>162.5</ele>
        <time>2022-08-10T16:58:31Z</time>
      </trkpt>
      <trkpt lat="44.98674" lon="0.64937">
        <ele>162.5</ele>
        <time>2022-08-10T16:58:34Z</time>
      </trkpt>
      <trkpt lat="44.98673" lon="0.64946">
        <ele>162.5</ele>
        <time>2022-08-10T16:58:37Z</time>
      </trkpt>
      <trkpt lat="44.98671" lon="0.64953">
        <ele>162.5</ele>
        <time>2022-08-10T16:58:39Z</time>
      </trkpt>
      <trkpt lat="44.98669" lon="0.6496">
        <ele>162.5</ele>
        <time>2022-08-10T16:58:41Z</time>
      </trkpt>
      <trkpt lat="44.98666" lon="0.64968">
        <ele>162.5</ele>
        <time>2022-08-10T16:58:43Z</time>
      </trkpt>
      <trkpt lat="44.98663" lon="0.64976">
        <ele>162.5</ele>
        <time>2022-08-10T16:58:45Z</time>
      </trkpt>
      <trkpt lat="44.9866" lon="0.64984">
        <ele>162.5</ele>
        <time>2022-08-10T16:58:47Z</time>
      </trkpt>
      <trkpt lat="44.98657" lon="0.64991">
        <ele>162.5</ele>
        <time>2022-08-10T16:58:49Z</time>
      </trkpt>
      <trkpt lat="44.98654" lon="0.64999">
        <ele>163.5</ele>
        <time>2022-08-10T16:58:51Z</time>
      </trkpt>
      <trkpt lat="44.98651" lon="0.65007">
        <ele>163.5</ele>
        <time>2022-08-10T16:58:53Z</time>
      </trkpt>
      <trkpt lat="44.98647" lon="0.65014">
        <ele>163.5</ele>
        <time>2022-08-10T16:58:55Z</time>
      </trkpt>
      <trkpt lat="44.98641" lon="0.65023">
        <ele>164.5</ele>
        <time>2022-08-10T16:58:57Z</time>
      </trkpt>
      <trkpt lat="44.98637" lon="0.65032">
        <ele>165.5</ele>
        <time>2022-08-10T16:58:59Z</time>
      </trkpt>
      <trkpt lat="44.98633" lon="0.65042">
        <ele>165.5</ele>
        <time>2022-08-10T16:59:01Z</time>
      </trkpt>
      <trkpt lat="44.9863" lon="0.65047">
        <ele>164.5</ele>
        <time>2022-08-10T16:59:02Z</time>
      </trkpt>
      <trkpt lat="44.98628" lon="0.65053">
        <ele>165.5</ele>
        <time>2022-08-10T16:59:03Z</time>
      </trkpt>
      <trkpt lat="44.98626" lon="0.65059">
        <ele>165.5</ele>
        <time>2022-08-10T16:59:04Z</time>
      </trkpt>
      <trkpt lat="44.98622" lon="0.6507">
        <ele>166.5</ele>
        <time>2022-08-10T16:59:06Z</time>
      </trkpt>
      <trkpt lat="44.98618" lon="0.65078">
        <ele>167.5</ele>
        <time>2022-08-10T16:59:08Z</time>
      </trkpt>
      <trkpt lat="44.98613" lon="0.65085">
        <ele>167.5</ele>
        <time>2022-08-10T16:59:10Z</time>
      </trkpt>
      <trkpt lat="44.98609" lon="0.65093">
        <ele>167.5</ele>
        <time>2022-08-10T16:59:12Z</time>
      </trkpt>
      <trkpt lat="44.98605" lon="0.65102">
        <ele>167.5</ele>
        <time>2022-08-10T16:59:14Z</time>
      </trkpt>
      <trkpt lat="44.98601" lon="0.6511">
        <ele>167.5</ele>
        <time>2022-08-10T16:59:16Z</time>
      </trkpt>
      <trkpt lat="44.98596" lon="0.65118">
        <ele>167.5</ele>
        <time>2022-08-10T16:59:18Z</time>
      </trkpt>
      <trkpt lat="44.98593" lon="0.65127">
        <ele>167.5</ele>
        <time>2022-08-10T16:59:20Z</time>
      </trkpt>
      <trkpt lat="44.98588" lon="0.65136">
        <ele>167.5</ele>
        <time>2022-08-10T16:59:22Z</time>
      </trkpt>
      <trkpt lat="44.98585" lon="0.65144">
        <ele>168.5</ele>
        <time>2022-08-10T16:59:24Z</time>
      </trkpt>
      <trkpt lat="44.9858" lon="0.65151">
        <ele>168.5</ele>
        <time>2022-08-10T16:59:26Z</time>
      </trkpt>
      <trkpt lat="44.98578" lon="0.65158">
        <ele>168.5</ele>
        <time>2022-08-10T16:59:28Z</time>
      </trkpt>
      <trkpt lat="44.98576" lon="0.65165">
        <ele>169.5</ele>
        <time>2022-08-10T16:59:30Z</time>
      </trkpt>
      <trkpt lat="44.98573" lon="0.6517">
        <ele>170.5</ele>
        <time>2022-08-10T16:59:33Z</time>
      </trkpt>
      <trkpt lat="44.98576" lon="0.65165">
        <ele>168.5</ele>
        <time>2022-08-10T17:00:54Z</time>
      </trkpt>
      <trkpt lat="44.98571" lon="0.65166">
        <ele>168.5</ele>
        <time>2022-08-10T17:00:57Z</time>
      </trkpt>
      <trkpt lat="44.98564" lon="0.65171">
        <ele>168.5</ele>
        <time>2022-08-10T17:00:59Z</time>
      </trkpt>
      <trkpt lat="44.98559" lon="0.65172">
        <ele>168.5</ele>
        <time>2022-08-10T17:01:00Z</time>
      </trkpt>
      <trkpt lat="44.98554" lon="0.65172">
        <ele>168.5</ele>
        <time>2022-08-10T17:01:01Z</time>
      </trkpt>
      <trkpt lat="44.98546" lon="0.6517">
        <ele>167.5</ele>
        <time>2022-08-10T17:01:03Z</time>
      </trkpt>
      <trkpt lat="44.98541" lon="0.65168">
        <ele>167.5</ele>
        <time>2022-08-10T17:01:06Z</time>
      </trkpt>
      <trkpt lat="44.98536" lon="0.65166">
        <ele>167.5</ele>
        <time>2022-08-10T17:01:10Z</time>
      </trkpt>
      <trkpt lat="44.98541" lon="0.65167">
        <ele>166.5</ele>
        <time>2022-08-10T17:01:25Z</time>
      </trkpt>
      <trkpt lat="44.98547" lon="0.65171">
        <ele>166.5</ele>
        <time>2022-08-10T17:01:28Z</time>
      </trkpt>
      <trkpt lat="44.98551" lon="0.65176">
        <ele>165.5</ele>
        <time>2022-08-10T17:01:30Z</time>
      </trkpt>
      <trkpt lat="44.98555" lon="0.65183">
        <ele>165.5</ele>
        <time>2022-08-10T17:01:33Z</time>
      </trkpt>
      <trkpt lat="44.98555" lon="0.65191">
        <ele>165.5</ele>
        <time>2022-08-10T17:01:37Z</time>
      </trkpt>
      <trkpt lat="44.98554" lon="0.65198">
        <ele>164.5</ele>
        <time>2022-08-10T17:01:41Z</time>
      </trkpt>
      <trkpt lat="44.98554" lon="0.65206">
        <ele>164.5</ele>
        <time>2022-08-10T17:01:45Z</time>
      </trkpt>
      <trkpt lat="44.98555" lon="0.65213">
        <ele>164.5</ele>
        <time>2022-08-10T17:01:48Z</time>
      </trkpt>
      <trkpt lat="44.98557" lon="0.6522">
        <ele>164.5</ele>
        <time>2022-08-10T17:01:51Z</time>
      </trkpt>
      <trkpt lat="44.98559" lon="0.65228">
        <ele>163.5</ele>
        <time>2022-08-10T17:01:54Z</time>
      </trkpt>
      <trkpt lat="44.9856" lon="0.65235">
        <ele>163.5</ele>
        <time>2022-08-10T17:01:56Z</time>
      </trkpt>
      <trkpt lat="44.98561" lon="0.65242">
        <ele>164.5</ele>
        <time>2022-08-10T17:01:58Z</time>
      </trkpt>
      <trkpt lat="44.98563" lon="0.65248">
        <ele>164.5</ele>
        <time>2022-08-10T17:02:00Z</time>
      </trkpt>
      <trkpt lat="44.98565" lon="0.65256">
        <ele>164.5</ele>
        <time>2022-08-10T17:02:02Z</time>
      </trkpt>
      <trkpt lat="44.98568" lon="0.65265">
        <ele>164.5</ele>
        <time>2022-08-10T17:02:04Z</time>
      </trkpt>
      <trkpt lat="44.98571" lon="0.65275">
        <ele>163.5</ele>
        <time>2022-08-10T17:02:06Z</time>
      </trkpt>
      <trkpt lat="44.98572" lon="0.65282">
        <ele>162.5</ele>
        <time>2022-08-10T17:02:07Z</time>
      </trkpt>
      <trkpt lat="44.98574" lon="0.65289">
        <ele>162.5</ele>
        <time>2022-08-10T17:02:08Z</time>
      </trkpt>
      <trkpt lat="44.98576" lon="0.65295">
        <ele>163.5</ele>
        <time>2022-08-10T17:02:09Z</time>
      </trkpt>
      <trkpt lat="44.98578" lon="0.65306">
        <ele>164.5</ele>
        <time>2022-08-10T17:02:11Z</time>
      </trkpt>
      <trkpt lat="44.98579" lon="0.65318">
        <ele>164.5</ele>
        <time>2022-08-10T17:02:13Z</time>
      </trkpt>
      <trkpt lat="44.98579" lon="0.6533">
        <ele>165.5</ele>
        <time>2022-08-10T17:02:15Z</time>
      </trkpt>
      <trkpt lat="44.98579" lon="0.65337">
        <ele>165.5</ele>
        <time>2022-08-10T17:02:16Z</time>
      </trkpt>
      <trkpt lat="44.98578" lon="0.65344">
        <ele>164.5</ele>
        <time>2022-08-10T17:02:17Z</time>
      </trkpt>
      <trkpt lat="44.98578" lon="0.6535">
        <ele>165.5</ele>
        <time>2022-08-10T17:02:18Z</time>
      </trkpt>
      <trkpt lat="44.98577" lon="0.65357">
        <ele>165.5</ele>
        <time>2022-08-10T17:02:19Z</time>
      </trkpt>
      <trkpt lat="44.98577" lon="0.65369">
        <ele>166.5</ele>
        <time>2022-08-10T17:02:21Z</time>
      </trkpt>
      <trkpt lat="44.98576" lon="0.65381">
        <ele>167.5</ele>
        <time>2022-08-10T17:02:23Z</time>
      </trkpt>
      <trkpt lat="44.98573" lon="0.65392">
        <ele>167.5</ele>
        <time>2022-08-10T17:02:25Z</time>
      </trkpt>
      <trkpt lat="44.98572" lon="0.65404">
        <ele>168.5</ele>
        <time>2022-08-10T17:02:27Z</time>
      </trkpt>
      <trkpt lat="44.9857" lon="0.65416">
        <ele>170.5</ele>
        <time>2022-08-10T17:02:29Z</time>
      </trkpt>
      <trkpt lat="44.98568" lon="0.65426">
        <ele>170.5</ele>
        <time>2022-08-10T17:02:31Z</time>
      </trkpt>
      <trkpt lat="44.98566" lon="0.65435">
        <ele>170.5</ele>
        <time>2022-08-10T17:02:33Z</time>
      </trkpt>
      <trkpt lat="44.98564" lon="0.65444">
        <ele>170.5</ele>
        <time>2022-08-10T17:02:35Z</time>
      </trkpt>
      <trkpt lat="44.98562" lon="0.65452">
        <ele>170.5</ele>
        <time>2022-08-10T17:02:37Z</time>
      </trkpt>
      <trkpt lat="44.98562" lon="0.65461">
        <ele>170.5</ele>
        <time>2022-08-10T17:02:39Z</time>
      </trkpt>
      <trkpt lat="44.98561" lon="0.65468">
        <ele>170.5</ele>
        <time>2022-08-10T17:02:41Z</time>
      </trkpt>
      <trkpt lat="44.98559" lon="0.65476">
        <ele>170.5</ele>
        <time>2022-08-10T17:02:43Z</time>
      </trkpt>
      <trkpt lat="44.98557" lon="0.65484">
        <ele>170.5</ele>
        <time>2022-08-10T17:02:45Z</time>
      </trkpt>
      <trkpt lat="44.98555" lon="0.65491">
        <ele>170.5</ele>
        <time>2022-08-10T17:02:47Z</time>
      </trkpt>
      <trkpt lat="44.98552" lon="0.65498">
        <ele>170.5</ele>
        <time>2022-08-10T17:02:49Z</time>
      </trkpt>
      <trkpt lat="44.9855" lon="0.65506">
        <ele>170.5</ele>
        <time>2022-08-10T17:02:51Z</time>
      </trkpt>
      <trkpt lat="44.98548" lon="0.65513">
        <ele>170.5</ele>
        <time>2022-08-10T17:02:53Z</time>
      </trkpt>
      <trkpt lat="44.98546" lon="0.65522">
        <ele>170.5</ele>
        <time>2022-08-10T17:02:56Z</time>
      </trkpt>
      <trkpt lat="44.98545" lon="0.65529">
        <ele>170.5</ele>
        <time>2022-08-10T17:02:58Z</time>
      </trkpt>
      <trkpt lat="44.98543" lon="0.65536">
        <ele>170.5</ele>
        <time>2022-08-10T17:03:00Z</time>
      </trkpt>
      <trkpt lat="44.98539" lon="0.65543">
        <ele>170.5</ele>
        <time>2022-08-10T17:03:02Z</time>
      </trkpt>
      <trkpt lat="44.98538" lon="0.65551">
        <ele>170.5</ele>
        <time>2022-08-10T17:03:04Z</time>
      </trkpt>
      <trkpt lat="44.98536" lon="0.65559">
        <ele>169.5</ele>
        <time>2022-08-10T17:03:06Z</time>
      </trkpt>
      <trkpt lat="44.98532" lon="0.65568">
        <ele>170.5</ele>
        <time>2022-08-10T17:03:08Z</time>
      </trkpt>
      <trkpt lat="44.9853" lon="0.65578">
        <ele>169.5</ele>
        <time>2022-08-10T17:03:10Z</time>
      </trkpt>
      <trkpt lat="44.98526" lon="0.65586">
        <ele>169.5</ele>
        <time>2022-08-10T17:03:12Z</time>
      </trkpt>
      <trkpt lat="44.98523" lon="0.65596">
        <ele>170.5</ele>
        <time>2022-08-10T17:03:14Z</time>
      </trkpt>
      <trkpt lat="44.9852" lon="0.65603">
        <ele>170.5</ele>
        <time>2022-08-10T17:03:16Z</time>
      </trkpt>
      <trkpt lat="44.98516" lon="0.6561">
        <ele>171.5</ele>
        <time>2022-08-10T17:03:18Z</time>
      </trkpt>
      <trkpt lat="44.98513" lon="0.65617">
        <ele>171.5</ele>
        <time>2022-08-10T17:03:20Z</time>
      </trkpt>
      <trkpt lat="44.98511" lon="0.65626">
        <ele>171.5</ele>
        <time>2022-08-10T17:03:22Z</time>
      </trkpt>
      <trkpt lat="44.98508" lon="0.65634">
        <ele>171.5</ele>
        <time>2022-08-10T17:03:24Z</time>
      </trkpt>
      <trkpt lat="44.98505" lon="0.65641">
        <ele>172.5</ele>
        <time>2022-08-10T17:03:26Z</time>
      </trkpt>
      <trkpt lat="44.98502" lon="0.65649">
        <ele>172.5</ele>
        <time>2022-08-10T17:03:28Z</time>
      </trkpt>
      <trkpt lat="44.98499" lon="0.65656">
        <ele>172.5</ele>
        <time>2022-08-10T17:03:30Z</time>
      </trkpt>
      <trkpt lat="44.98496" lon="0.65664">
        <ele>172.5</ele>
        <time>2022-08-10T17:03:32Z</time>
      </trkpt>
      <trkpt lat="44.98494" lon="0.65672">
        <ele>173.5</ele>
        <time>2022-08-10T17:03:34Z</time>
      </trkpt>
      <trkpt lat="44.98492" lon="0.6568">
        <ele>172.5</ele>
        <time>2022-08-10T17:03:36Z</time>
      </trkpt>
      <trkpt lat="44.98489" lon="0.65687">
        <ele>172.5</ele>
        <time>2022-08-10T17:03:38Z</time>
      </trkpt>
      <trkpt lat="44.98486" lon="0.65695">
        <ele>172.5</ele>
        <time>2022-08-10T17:03:40Z</time>
      </trkpt>
      <trkpt lat="44.98483" lon="0.65702">
        <ele>173.5</ele>
        <time>2022-08-10T17:03:42Z</time>
      </trkpt>
      <trkpt lat="44.9848" lon="0.6571">
        <ele>173.5</ele>
        <time>2022-08-10T17:03:44Z</time>
      </trkpt>
      <trkpt lat="44.98478" lon="0.65718">
        <ele>174.5</ele>
        <time>2022-08-10T17:03:46Z</time>
      </trkpt>
      <trkpt lat="44.98476" lon="0.65725">
        <ele>173.5</ele>
        <time>2022-08-10T17:03:48Z</time>
      </trkpt>
      <trkpt lat="44.98474" lon="0.65732">
        <ele>174.5</ele>
        <time>2022-08-10T17:03:50Z</time>
      </trkpt>
      <trkpt lat="44.98471" lon="0.6574">
        <ele>175.5</ele>
        <time>2022-08-10T17:03:52Z</time>
      </trkpt>
      <trkpt lat="44.98469" lon="0.65748">
        <ele>176.5</ele>
        <time>2022-08-10T17:03:54Z</time>
      </trkpt>
      <trkpt lat="44.98467" lon="0.65755">
        <ele>176.5</ele>
        <time>2022-08-10T17:03:56Z</time>
      </trkpt>
      <trkpt lat="44.98464" lon="0.65763">
        <ele>176.5</ele>
        <time>2022-08-10T17:03:58Z</time>
      </trkpt>
      <trkpt lat="44.98462" lon="0.65769">
        <ele>177.5</ele>
        <time>2022-08-10T17:04:00Z</time>
      </trkpt>
      <trkpt lat="44.9846" lon="0.65775">
        <ele>179.5</ele>
        <time>2022-08-10T17:04:02Z</time>
      </trkpt>
      <trkpt lat="44.98458" lon="0.65782">
        <ele>179.5</ele>
        <time>2022-08-10T17:04:04Z</time>
      </trkpt>
      <trkpt lat="44.98456" lon="0.65789">
        <ele>180.5</ele>
        <time>2022-08-10T17:04:06Z</time>
      </trkpt>
      <trkpt lat="44.98453" lon="0.65797">
        <ele>180.5</ele>
        <time>2022-08-10T17:04:08Z</time>
      </trkpt>
      <trkpt lat="44.98451" lon="0.65804">
        <ele>180.5</ele>
        <time>2022-08-10T17:04:10Z</time>
      </trkpt>
      <trkpt lat="44.98448" lon="0.65812">
        <ele>179.5</ele>
        <time>2022-08-10T17:04:12Z</time>
      </trkpt>
      <trkpt lat="44.98446" lon="0.65819">
        <ele>178.5</ele>
        <time>2022-08-10T17:04:14Z</time>
      </trkpt>
      <trkpt lat="44.98443" lon="0.65825">
        <ele>178.5</ele>
        <time>2022-08-10T17:04:16Z</time>
      </trkpt>
      <trkpt lat="44.98441" lon="0.65832">
        <ele>178.5</ele>
        <time>2022-08-10T17:04:18Z</time>
      </trkpt>
      <trkpt lat="44.98438" lon="0.65839">
        <ele>177.5</ele>
        <time>2022-08-10T17:04:20Z</time>
      </trkpt>
      <trkpt lat="44.98437" lon="0.65846">
        <ele>177.5</ele>
        <time>2022-08-10T17:04:22Z</time>
      </trkpt>
      <trkpt lat="44.98435" lon="0.65853">
        <ele>177.5</ele>
        <time>2022-08-10T17:04:24Z</time>
      </trkpt>
      <trkpt lat="44.98433" lon="0.65861">
        <ele>178.5</ele>
        <time>2022-08-10T17:04:26Z</time>
      </trkpt>
      <trkpt lat="44.98431" lon="0.65867">
        <ele>178.5</ele>
        <time>2022-08-10T17:04:28Z</time>
      </trkpt>
      <trkpt lat="44.98428" lon="0.65876">
        <ele>176.5</ele>
        <time>2022-08-10T17:04:31Z</time>
      </trkpt>
      <trkpt lat="44.98426" lon="0.65882">
        <ele>176.5</ele>
        <time>2022-08-10T17:04:33Z</time>
      </trkpt>
      <trkpt lat="44.98423" lon="0.65888">
        <ele>177.5</ele>
        <time>2022-08-10T17:04:35Z</time>
      </trkpt>
      <trkpt lat="44.98421" lon="0.65895">
        <ele>177.5</ele>
        <time>2022-08-10T17:04:37Z</time>
      </trkpt>
      <trkpt lat="44.98419" lon="0.65902">
        <ele>177.5</ele>
        <time>2022-08-10T17:04:39Z</time>
      </trkpt>
      <trkpt lat="44.98417" lon="0.65909">
        <ele>178.5</ele>
        <time>2022-08-10T17:04:41Z</time>
      </trkpt>
      <trkpt lat="44.98415" lon="0.65916">
        <ele>178.5</ele>
        <time>2022-08-10T17:04:43Z</time>
      </trkpt>
      <trkpt lat="44.98412" lon="0.65922">
        <ele>178.5</ele>
        <time>2022-08-10T17:04:45Z</time>
      </trkpt>
      <trkpt lat="44.98409" lon="0.65928">
        <ele>179.5</ele>
        <time>2022-08-10T17:04:47Z</time>
      </trkpt>
      <trkpt lat="44.98407" lon="0.65935">
        <ele>179.5</ele>
        <time>2022-08-10T17:04:49Z</time>
      </trkpt>
      <trkpt lat="44.98405" lon="0.65942">
        <ele>179.5</ele>
        <time>2022-08-10T17:04:51Z</time>
      </trkpt>
      <trkpt lat="44.98401" lon="0.65948">
        <ele>179.5</ele>
        <time>2022-08-10T17:04:53Z</time>
      </trkpt>
      <trkpt lat="44.98397" lon="0.65955">
        <ele>180.5</ele>
        <time>2022-08-10T17:04:55Z</time>
      </trkpt>
      <trkpt lat="44.98394" lon="0.65961">
        <ele>181.5</ele>
        <time>2022-08-10T17:04:57Z</time>
      </trkpt>
      <trkpt lat="44.9839" lon="0.65969">
        <ele>181.5</ele>
        <time>2022-08-10T17:05:00Z</time>
      </trkpt>
      <trkpt lat="44.98387" lon="0.65975">
        <ele>181.5</ele>
        <time>2022-08-10T17:05:02Z</time>
      </trkpt>
      <trkpt lat="44.98383" lon="0.65981">
        <ele>182.5</ele>
        <time>2022-08-10T17:05:04Z</time>
      </trkpt>
      <trkpt lat="44.98378" lon="0.65988">
        <ele>183.5</ele>
        <time>2022-08-10T17:05:06Z</time>
      </trkpt>
      <trkpt lat="44.98374" lon="0.65994">
        <ele>183.5</ele>
        <time>2022-08-10T17:05:08Z</time>
      </trkpt>
      <trkpt lat="44.98369" lon="0.66001">
        <ele>184.5</ele>
        <time>2022-08-10T17:05:10Z</time>
      </trkpt>
      <trkpt lat="44.98364" lon="0.66008">
        <ele>183.5</ele>
        <time>2022-08-10T17:05:12Z</time>
      </trkpt>
      <trkpt lat="44.9836" lon="0.66015">
        <ele>184.5</ele>
        <time>2022-08-10T17:05:14Z</time>
      </trkpt>
      <trkpt lat="44.98356" lon="0.66023">
        <ele>183.5</ele>
        <time>2022-08-10T17:05:16Z</time>
      </trkpt>
      <trkpt lat="44.98351" lon="0.66032">
        <ele>185.5</ele>
        <time>2022-08-10T17:05:18Z</time>
      </trkpt>
      <trkpt lat="44.98347" lon="0.66039">
        <ele>185.5</ele>
        <time>2022-08-10T17:05:20Z</time>
      </trkpt>
      <trkpt lat="44.98342" lon="0.66046">
        <ele>185.5</ele>
        <time>2022-08-10T17:05:22Z</time>
      </trkpt>
      <trkpt lat="44.98337" lon="0.66054">
        <ele>186.5</ele>
        <time>2022-08-10T17:05:24Z</time>
      </trkpt>
      <trkpt lat="44.98332" lon="0.66061">
        <ele>186.5</ele>
        <time>2022-08-10T17:05:26Z</time>
      </trkpt>
      <trkpt lat="44.98326" lon="0.66068">
        <ele>187.5</ele>
        <time>2022-08-10T17:05:28Z</time>
      </trkpt>
      <trkpt lat="44.98321" lon="0.66075">
        <ele>188.5</ele>
        <time>2022-08-10T17:05:30Z</time>
      </trkpt>
      <trkpt lat="44.98316" lon="0.66082">
        <ele>187.5</ele>
        <time>2022-08-10T17:05:32Z</time>
      </trkpt>
      <trkpt lat="44.98311" lon="0.66089">
        <ele>188.5</ele>
        <time>2022-08-10T17:05:34Z</time>
      </trkpt>
      <trkpt lat="44.98306" lon="0.66096">
        <ele>188.5</ele>
        <time>2022-08-10T17:05:36Z</time>
      </trkpt>
      <trkpt lat="44.98301" lon="0.66104">
        <ele>188.5</ele>
        <time>2022-08-10T17:05:38Z</time>
      </trkpt>
      <trkpt lat="44.98295" lon="0.6611">
        <ele>188.5</ele>
        <time>2022-08-10T17:05:40Z</time>
      </trkpt>
      <trkpt lat="44.9829" lon="0.66116">
        <ele>188.5</ele>
        <time>2022-08-10T17:05:42Z</time>
      </trkpt>
      <trkpt lat="44.98287" lon="0.66121">
        <ele>188.5</ele>
        <time>2022-08-10T17:05:44Z</time>
      </trkpt>
      <trkpt lat="44.9828" lon="0.66126">
        <ele>187.5</ele>
        <time>2022-08-10T17:05:47Z</time>
      </trkpt>
      <trkpt lat="44.98275" lon="0.66131">
        <ele>187.5</ele>
        <time>2022-08-10T17:05:49Z</time>
      </trkpt>
      <trkpt lat="44.9827" lon="0.66137">
        <ele>188.5</ele>
        <time>2022-08-10T17:05:51Z</time>
      </trkpt>
      <trkpt lat="44.98264" lon="0.66142">
        <ele>188.5</ele>
        <time>2022-08-10T17:05:53Z</time>
      </trkpt>
      <trkpt lat="44.98258" lon="0.66146">
        <ele>188.5</ele>
        <time>2022-08-10T17:05:55Z</time>
      </trkpt>
      <trkpt lat="44.98252" lon="0.66151">
        <ele>188.5</ele>
        <time>2022-08-10T17:05:57Z</time>
      </trkpt>
      <trkpt lat="44.98246" lon="0.66155">
        <ele>188.5</ele>
        <time>2022-08-10T17:05:59Z</time>
      </trkpt>
      <trkpt lat="44.98241" lon="0.66156">
        <ele>188.5</ele>
        <time>2022-08-10T17:06:01Z</time>
      </trkpt>
      <trkpt lat="44.98236" lon="0.66159">
        <ele>188.5</ele>
        <time>2022-08-10T17:06:03Z</time>
      </trkpt>
      <trkpt lat="44.98231" lon="0.66163">
        <ele>187.5</ele>
        <time>2022-08-10T17:06:05Z</time>
      </trkpt>
      <trkpt lat="44.98226" lon="0.66169">
        <ele>188.5</ele>
        <time>2022-08-10T17:06:07Z</time>
      </trkpt>
      <trkpt lat="44.9822" lon="0.6618">
        <ele>189.5</ele>
        <time>2022-08-10T17:06:09Z</time>
      </trkpt>
      <trkpt lat="44.98215" lon="0.66185">
        <ele>189.5</ele>
        <time>2022-08-10T17:06:10Z</time>
      </trkpt>
      <trkpt lat="44.98211" lon="0.6619">
        <ele>190.5</ele>
        <time>2022-08-10T17:06:11Z</time>
      </trkpt>
      <trkpt lat="44.98206" lon="0.66195">
        <ele>190.5</ele>
        <time>2022-08-10T17:06:12Z</time>
      </trkpt>
      <trkpt lat="44.98201" lon="0.662">
        <ele>190.5</ele>
        <time>2022-08-10T17:06:13Z</time>
      </trkpt>
      <trkpt lat="44.98196" lon="0.66205">
        <ele>190.5</ele>
        <time>2022-08-10T17:06:14Z</time>
      </trkpt>
      <trkpt lat="44.98191" lon="0.66211">
        <ele>190.5</ele>
        <time>2022-08-10T17:06:15Z</time>
      </trkpt>
      <trkpt lat="44.98185" lon="0.66216">
        <ele>190.5</ele>
        <time>2022-08-10T17:06:16Z</time>
      </trkpt>
      <trkpt lat="44.9818" lon="0.66222">
        <ele>190.5</ele>
        <time>2022-08-10T17:06:17Z</time>
      </trkpt>
      <trkpt lat="44.98175" lon="0.66228">
        <ele>190.5</ele>
        <time>2022-08-10T17:06:18Z</time>
      </trkpt>
      <trkpt lat="44.98169" lon="0.66235">
        <ele>190.5</ele>
        <time>2022-08-10T17:06:19Z</time>
      </trkpt>
      <trkpt lat="44.98164" lon="0.66242">
        <ele>191.5</ele>
        <time>2022-08-10T17:06:20Z</time>
      </trkpt>
      <trkpt lat="44.98159" lon="0.6625">
        <ele>191.5</ele>
        <time>2022-08-10T17:06:21Z</time>
      </trkpt>
      <trkpt lat="44.98154" lon="0.66257">
        <ele>191.5</ele>
        <time>2022-08-10T17:06:22Z</time>
      </trkpt>
      <trkpt lat="44.98148" lon="0.66264">
        <ele>191.5</ele>
        <time>2022-08-10T17:06:23Z</time>
      </trkpt>
      <trkpt lat="44.98143" lon="0.66271">
        <ele>192.5</ele>
        <time>2022-08-10T17:06:24Z</time>
      </trkpt>
      <trkpt lat="44.98137" lon="0.66279">
        <ele>192.5</ele>
        <time>2022-08-10T17:06:25Z</time>
      </trkpt>
      <trkpt lat="44.98132" lon="0.66287">
        <ele>193.5</ele>
        <time>2022-08-10T17:06:26Z</time>
      </trkpt>
      <trkpt lat="44.98127" lon="0.66295">
        <ele>193.5</ele>
        <time>2022-08-10T17:06:27Z</time>
      </trkpt>
      <trkpt lat="44.98122" lon="0.66303">
        <ele>193.5</ele>
        <time>2022-08-10T17:06:28Z</time>
      </trkpt>
      <trkpt lat="44.98116" lon="0.6631">
        <ele>193.5</ele>
        <time>2022-08-10T17:06:29Z</time>
      </trkpt>
      <trkpt lat="44.98112" lon="0.66316">
        <ele>193.5</ele>
        <time>2022-08-10T17:06:30Z</time>
      </trkpt>
      <trkpt lat="44.98108" lon="0.66322">
        <ele>193.5</ele>
        <time>2022-08-10T17:06:31Z</time>
      </trkpt>
      <trkpt lat="44.98103" lon="0.66328">
        <ele>193.5</ele>
        <time>2022-08-10T17:06:32Z</time>
      </trkpt>
      <trkpt lat="44.98099" lon="0.66333">
        <ele>193.5</ele>
        <time>2022-08-10T17:06:33Z</time>
      </trkpt>
      <trkpt lat="44.98095" lon="0.66338">
        <ele>194.5</ele>
        <time>2022-08-10T17:06:34Z</time>
      </trkpt>
      <trkpt lat="44.98091" lon="0.66344">
        <ele>194.5</ele>
        <time>2022-08-10T17:06:35Z</time>
      </trkpt>
      <trkpt lat="44.98087" lon="0.6635">
        <ele>194.5</ele>
        <time>2022-08-10T17:06:36Z</time>
      </trkpt>
      <trkpt lat="44.98083" lon="0.66355">
        <ele>193.5</ele>
        <time>2022-08-10T17:06:37Z</time>
      </trkpt>
      <trkpt lat="44.9808" lon="0.6636">
        <ele>193.5</ele>
        <time>2022-08-10T17:06:38Z</time>
      </trkpt>
      <trkpt lat="44.98077" lon="0.66366">
        <ele>192.5</ele>
        <time>2022-08-10T17:06:39Z</time>
      </trkpt>
      <trkpt lat="44.98073" lon="0.66372">
        <ele>192.5</ele>
        <time>2022-08-10T17:06:40Z</time>
      </trkpt>
      <trkpt lat="44.9807" lon="0.66378">
        <ele>192.5</ele>
        <time>2022-08-10T17:06:41Z</time>
      </trkpt>
      <trkpt lat="44.98066" lon="0.66382">
        <ele>192.5</ele>
        <time>2022-08-10T17:06:42Z</time>
      </trkpt>
      <trkpt lat="44.98062" lon="0.66387">
        <ele>192.5</ele>
        <time>2022-08-10T17:06:43Z</time>
      </trkpt>
      <trkpt lat="44.98058" lon="0.66392">
        <ele>192.5</ele>
        <time>2022-08-10T17:06:44Z</time>
      </trkpt>
      <trkpt lat="44.98054" lon="0.66398">
        <ele>192.5</ele>
        <time>2022-08-10T17:06:45Z</time>
      </trkpt>
      <trkpt lat="44.9805" lon="0.66403">
        <ele>192.5</ele>
        <time>2022-08-10T17:06:46Z</time>
      </trkpt>
      <trkpt lat="44.98046" lon="0.66409">
        <ele>192.5</ele>
        <time>2022-08-10T17:06:47Z</time>
      </trkpt>
      <trkpt lat="44.98042" lon="0.66414">
        <ele>191.5</ele>
        <time>2022-08-10T17:06:48Z</time>
      </trkpt>
      <trkpt lat="44.98039" lon="0.66418">
        <ele>191.5</ele>
        <time>2022-08-10T17:06:49Z</time>
      </trkpt>
      <trkpt lat="44.98035" lon="0.66422">
        <ele>190.5</ele>
        <time>2022-08-10T17:06:50Z</time>
      </trkpt>
      <trkpt lat="44.98031" lon="0.66426">
        <ele>189.5</ele>
        <time>2022-08-10T17:06:51Z</time>
      </trkpt>
      <trkpt lat="44.98027" lon="0.6643">
        <ele>189.5</ele>
        <time>2022-08-10T17:06:52Z</time>
      </trkpt>
      <trkpt lat="44.98023" lon="0.66434">
        <ele>188.5</ele>
        <time>2022-08-10T17:06:53Z</time>
      </trkpt>
      <trkpt lat="44.98016" lon="0.66442">
        <ele>188.5</ele>
        <time>2022-08-10T17:06:55Z</time>
      </trkpt>
      <trkpt lat="44.98009" lon="0.66449">
        <ele>186.5</ele>
        <time>2022-08-10T17:06:57Z</time>
      </trkpt>
      <trkpt lat="44.98004" lon="0.66452">
        <ele>186.5</ele>
        <time>2022-08-10T17:06:58Z</time>
      </trkpt>
      <trkpt lat="44.98" lon="0.66455">
        <ele>185.5</ele>
        <time>2022-08-10T17:06:59Z</time>
      </trkpt>
      <trkpt lat="44.97996" lon="0.66459">
        <ele>186.5</ele>
        <time>2022-08-10T17:07:00Z</time>
      </trkpt>
      <trkpt lat="44.97989" lon="0.66467">
        <ele>186.5</ele>
        <time>2022-08-10T17:07:02Z</time>
      </trkpt>
      <trkpt lat="44.97984" lon="0.66471">
        <ele>186.5</ele>
        <time>2022-08-10T17:07:03Z</time>
      </trkpt>
      <trkpt lat="44.97977" lon="0.66479">
        <ele>186.5</ele>
        <time>2022-08-10T17:07:05Z</time>
      </trkpt>
      <trkpt lat="44.97972" lon="0.66484">
        <ele>185.5</ele>
        <time>2022-08-10T17:07:07Z</time>
      </trkpt>
      <trkpt lat="44.97968" lon="0.6649">
        <ele>185.5</ele>
        <time>2022-08-10T17:07:09Z</time>
      </trkpt>
      <trkpt lat="44.97965" lon="0.66496">
        <ele>185.5</ele>
        <time>2022-08-10T17:07:13Z</time>
      </trkpt>
      <trkpt lat="44.97961" lon="0.66502">
        <ele>185.5</ele>
        <time>2022-08-10T17:07:30Z</time>
      </trkpt>
      <trkpt lat="44.97958" lon="0.66507">
        <ele>185.5</ele>
        <time>2022-08-10T17:07:34Z</time>
      </trkpt>
      <trkpt lat="44.97956" lon="0.66513">
        <ele>184.5</ele>
        <time>2022-08-10T17:08:13Z</time>
      </trkpt>
      <trkpt lat="44.97959" lon="0.6652">
        <ele>183.5</ele>
        <time>2022-08-10T17:08:16Z</time>
      </trkpt>
      <trkpt lat="44.97961" lon="0.66528">
        <ele>183.5</ele>
        <time>2022-08-10T17:08:18Z</time>
      </trkpt>
      <trkpt lat="44.97962" lon="0.66535">
        <ele>182.5</ele>
        <time>2022-08-10T17:08:20Z</time>
      </trkpt>
      <trkpt lat="44.97963" lon="0.66542">
        <ele>181.5</ele>
        <time>2022-08-10T17:08:22Z</time>
      </trkpt>
      <trkpt lat="44.97965" lon="0.66549">
        <ele>180.5</ele>
        <time>2022-08-10T17:08:24Z</time>
      </trkpt>
      <trkpt lat="44.97967" lon="0.66557">
        <ele>178.5</ele>
        <time>2022-08-10T17:08:26Z</time>
      </trkpt>
      <trkpt lat="44.97968" lon="0.66566">
        <ele>177.5</ele>
        <time>2022-08-10T17:08:28Z</time>
      </trkpt>
      <trkpt lat="44.97968" lon="0.66575">
        <ele>177.5</ele>
        <time>2022-08-10T17:08:30Z</time>
      </trkpt>
      <trkpt lat="44.97969" lon="0.66585">
        <ele>176.5</ele>
        <time>2022-08-10T17:08:32Z</time>
      </trkpt>
      <trkpt lat="44.9797" lon="0.66597">
        <ele>175.5</ele>
        <time>2022-08-10T17:08:34Z</time>
      </trkpt>
      <trkpt lat="44.9797" lon="0.66608">
        <ele>174.5</ele>
        <time>2022-08-10T17:08:36Z</time>
      </trkpt>
      <trkpt lat="44.97968" lon="0.6662">
        <ele>173.5</ele>
        <time>2022-08-10T17:08:38Z</time>
      </trkpt>
      <trkpt lat="44.97967" lon="0.66632">
        <ele>169.5</ele>
        <time>2022-08-10T17:08:40Z</time>
      </trkpt>
      <trkpt lat="44.97968" lon="0.66646">
        <ele>166.5</ele>
        <time>2022-08-10T17:08:42Z</time>
      </trkpt>
      <trkpt lat="44.97969" lon="0.66654">
        <ele>163.5</ele>
        <time>2022-08-10T17:08:43Z</time>
      </trkpt>
      <trkpt lat="44.97973" lon="0.66663">
        <ele>160.5</ele>
        <time>2022-08-10T17:08:44Z</time>
      </trkpt>
      <trkpt lat="44.97978" lon="0.6667">
        <ele>158.5</ele>
        <time>2022-08-10T17:08:45Z</time>
      </trkpt>
      <trkpt lat="44.97983" lon="0.66678">
        <ele>158.5</ele>
        <time>2022-08-10T17:08:46Z</time>
      </trkpt>
      <trkpt lat="44.97988" lon="0.66684">
        <ele>158.5</ele>
        <time>2022-08-10T17:08:47Z</time>
      </trkpt>
      <trkpt lat="44.97992" lon="0.6669">
        <ele>157.5</ele>
        <time>2022-08-10T17:08:48Z</time>
      </trkpt>
      <trkpt lat="44.97996" lon="0.66696">
        <ele>157.5</ele>
        <time>2022-08-10T17:08:49Z</time>
      </trkpt>
      <trkpt lat="44.97999" lon="0.66703">
        <ele>157.5</ele>
        <time>2022-08-10T17:08:50Z</time>
      </trkpt>
      <trkpt lat="44.98003" lon="0.6671">
        <ele>157.5</ele>
        <time>2022-08-10T17:08:51Z</time>
      </trkpt>
      <trkpt lat="44.98007" lon="0.66718">
        <ele>157.5</ele>
        <time>2022-08-10T17:08:52Z</time>
      </trkpt>
      <trkpt lat="44.98011" lon="0.66726">
        <ele>157.5</ele>
        <time>2022-08-10T17:08:53Z</time>
      </trkpt>
      <trkpt lat="44.98016" lon="0.66733">
        <ele>157.5</ele>
        <time>2022-08-10T17:08:54Z</time>
      </trkpt>
      <trkpt lat="44.98021" lon="0.66741">
        <ele>158.5</ele>
        <time>2022-08-10T17:08:55Z</time>
      </trkpt>
      <trkpt lat="44.98031" lon="0.66754">
        <ele>161.5</ele>
        <time>2022-08-10T17:08:57Z</time>
      </trkpt>
      <trkpt lat="44.98036" lon="0.6676">
        <ele>163.5</ele>
        <time>2022-08-10T17:08:58Z</time>
      </trkpt>
      <trkpt lat="44.98046" lon="0.6677">
        <ele>165.5</ele>
        <time>2022-08-10T17:09:00Z</time>
      </trkpt>
      <trkpt lat="44.98052" lon="0.66774">
        <ele>165.5</ele>
        <time>2022-08-10T17:09:01Z</time>
      </trkpt>
      <trkpt lat="44.98057" lon="0.66777">
        <ele>165.5</ele>
        <time>2022-08-10T17:09:02Z</time>
      </trkpt>
      <trkpt lat="44.98061" lon="0.66781">
        <ele>165.5</ele>
        <time>2022-08-10T17:09:03Z</time>
      </trkpt>
      <trkpt lat="44.98066" lon="0.66786">
        <ele>165.5</ele>
        <time>2022-08-10T17:09:04Z</time>
      </trkpt>
      <trkpt lat="44.9807" lon="0.6679">
        <ele>165.5</ele>
        <time>2022-08-10T17:09:05Z</time>
      </trkpt>
      <trkpt lat="44.98075" lon="0.66796">
        <ele>165.5</ele>
        <time>2022-08-10T17:09:06Z</time>
      </trkpt>
      <trkpt lat="44.98079" lon="0.66803">
        <ele>165.5</ele>
        <time>2022-08-10T17:09:07Z</time>
      </trkpt>
      <trkpt lat="44.98083" lon="0.6681">
        <ele>164.5</ele>
        <time>2022-08-10T17:09:08Z</time>
      </trkpt>
      <trkpt lat="44.98086" lon="0.66817">
        <ele>164.5</ele>
        <time>2022-08-10T17:09:09Z</time>
      </trkpt>
      <trkpt lat="44.98089" lon="0.66825">
        <ele>164.5</ele>
        <time>2022-08-10T17:09:10Z</time>
      </trkpt>
      <trkpt lat="44.98091" lon="0.66833">
        <ele>163.5</ele>
        <time>2022-08-10T17:09:11Z</time>
      </trkpt>
      <trkpt lat="44.98094" lon="0.6684">
        <ele>163.5</ele>
        <time>2022-08-10T17:09:12Z</time>
      </trkpt>
      <trkpt lat="44.98097" lon="0.66848">
        <ele>163.5</ele>
        <time>2022-08-10T17:09:13Z</time>
      </trkpt>
      <trkpt lat="44.98099" lon="0.66854">
        <ele>163.5</ele>
        <time>2022-08-10T17:09:14Z</time>
      </trkpt>
      <trkpt lat="44.98099" lon="0.66866">
        <ele>162.5</ele>
        <time>2022-08-10T17:09:16Z</time>
      </trkpt>
      <trkpt lat="44.98097" lon="0.66872">
        <ele>162.5</ele>
        <time>2022-08-10T17:09:17Z</time>
      </trkpt>
      <trkpt lat="44.98094" lon="0.66878">
        <ele>162.5</ele>
        <time>2022-08-10T17:09:18Z</time>
      </trkpt>
      <trkpt lat="44.98091" lon="0.66886">
        <ele>161.5</ele>
        <time>2022-08-10T17:09:20Z</time>
      </trkpt>
      <trkpt lat="44.98094" lon="0.66891">
        <ele>162.5</ele>
        <time>2022-08-10T17:10:07Z</time>
      </trkpt>
      <trkpt lat="44.98096" lon="0.66885">
        <ele>169.5</ele>
        <time>2022-08-10T17:12:07Z</time>
      </trkpt>
      <trkpt lat="44.98096" lon="0.66892">
        <ele>162.5</ele>
        <time>2022-08-10T17:13:34Z</time>
      </trkpt>
      <trkpt lat="44.98094" lon="0.66901">
        <ele>163.5</ele>
        <time>2022-08-10T17:13:38Z</time>
      </trkpt>
      <trkpt lat="44.98091" lon="0.66907">
        <ele>161.5</ele>
        <time>2022-08-10T17:13:40Z</time>
      </trkpt>
      <trkpt lat="44.98089" lon="0.66915">
        <ele>161.5</ele>
        <time>2022-08-10T17:13:42Z</time>
      </trkpt>
      <trkpt lat="44.98088" lon="0.66924">
        <ele>161.5</ele>
        <time>2022-08-10T17:13:44Z</time>
      </trkpt>
      <trkpt lat="44.98089" lon="0.66931">
        <ele>161.5</ele>
        <time>2022-08-10T17:13:46Z</time>
      </trkpt>
      <trkpt lat="44.98091" lon="0.66938">
        <ele>160.5</ele>
        <time>2022-08-10T17:13:48Z</time>
      </trkpt>
      <trkpt lat="44.98094" lon="0.66945">
        <ele>160.5</ele>
        <time>2022-08-10T17:13:51Z</time>
      </trkpt>
      <trkpt lat="44.98096" lon="0.66951">
        <ele>160.5</ele>
        <time>2022-08-10T17:13:53Z</time>
      </trkpt>
      <trkpt lat="44.981" lon="0.66957">
        <ele>159.5</ele>
        <time>2022-08-10T17:13:56Z</time>
      </trkpt>
      <trkpt lat="44.98104" lon="0.66962">
        <ele>158.5</ele>
        <time>2022-08-10T17:13:58Z</time>
      </trkpt>
      <trkpt lat="44.98107" lon="0.66969">
        <ele>157.5</ele>
        <time>2022-08-10T17:14:00Z</time>
      </trkpt>
      <trkpt lat="44.98109" lon="0.66976">
        <ele>157.5</ele>
        <time>2022-08-10T17:14:02Z</time>
      </trkpt>
      <trkpt lat="44.98111" lon="0.66984">
        <ele>157.5</ele>
        <time>2022-08-10T17:14:04Z</time>
      </trkpt>
      <trkpt lat="44.98113" lon="0.66994">
        <ele>157.5</ele>
        <time>2022-08-10T17:14:06Z</time>
      </trkpt>
      <trkpt lat="44.98117" lon="0.67003">
        <ele>157.5</ele>
        <time>2022-08-10T17:14:08Z</time>
      </trkpt>
      <trkpt lat="44.98121" lon="0.67013">
        <ele>157.5</ele>
        <time>2022-08-10T17:14:10Z</time>
      </trkpt>
      <trkpt lat="44.98124" lon="0.67022">
        <ele>156.5</ele>
        <time>2022-08-10T17:14:12Z</time>
      </trkpt>
      <trkpt lat="44.98125" lon="0.67031">
        <ele>157.5</ele>
        <time>2022-08-10T17:14:14Z</time>
      </trkpt>
      <trkpt lat="44.98127" lon="0.67042">
        <ele>157.5</ele>
        <time>2022-08-10T17:14:17Z</time>
      </trkpt>
      <trkpt lat="44.98128" lon="0.67049">
        <ele>156.5</ele>
        <time>2022-08-10T17:14:19Z</time>
      </trkpt>
      <trkpt lat="44.98129" lon="0.67057">
        <ele>157.5</ele>
        <time>2022-08-10T17:14:21Z</time>
      </trkpt>
      <trkpt lat="44.9813" lon="0.67065">
        <ele>157.5</ele>
        <time>2022-08-10T17:14:23Z</time>
      </trkpt>
      <trkpt lat="44.98132" lon="0.67072">
        <ele>157.5</ele>
        <time>2022-08-10T17:14:25Z</time>
      </trkpt>
      <trkpt lat="44.98134" lon="0.67079">
        <ele>158.5</ele>
        <time>2022-08-10T17:14:28Z</time>
      </trkpt>
      <trkpt lat="44.98137" lon="0.67087">
        <ele>159.5</ele>
        <time>2022-08-10T17:14:32Z</time>
      </trkpt>
      <trkpt lat="44.98137" lon="0.67095">
        <ele>159.5</ele>
        <time>2022-08-10T17:14:36Z</time>
      </trkpt>
      <trkpt lat="44.98136" lon="0.67102">
        <ele>159.5</ele>
        <time>2022-08-10T17:14:40Z</time>
      </trkpt>
      <trkpt lat="44.98136" lon="0.67109">
        <ele>157.5</ele>
        <time>2022-08-10T17:14:43Z</time>
      </trkpt>
      <trkpt lat="44.98136" lon="0.67117">
        <ele>156.5</ele>
        <time>2022-08-10T17:14:45Z</time>
      </trkpt>
      <trkpt lat="44.98135" lon="0.67123">
        <ele>155.5</ele>
        <time>2022-08-10T17:14:47Z</time>
      </trkpt>
      <trkpt lat="44.98135" lon="0.67131">
        <ele>153.5</ele>
        <time>2022-08-10T17:14:50Z</time>
      </trkpt>
      <trkpt lat="44.98135" lon="0.67138">
        <ele>153.5</ele>
        <time>2022-08-10T17:14:54Z</time>
      </trkpt>
      <trkpt lat="44.98136" lon="0.67145">
        <ele>154.5</ele>
        <time>2022-08-10T17:14:57Z</time>
      </trkpt>
      <trkpt lat="44.98138" lon="0.67152">
        <ele>154.5</ele>
        <time>2022-08-10T17:15:00Z</time>
      </trkpt>
      <trkpt lat="44.9814" lon="0.6716">
        <ele>154.5</ele>
        <time>2022-08-10T17:15:03Z</time>
      </trkpt>
      <trkpt lat="44.98141" lon="0.67168">
        <ele>155.5</ele>
        <time>2022-08-10T17:15:06Z</time>
      </trkpt>
      <trkpt lat="44.98142" lon="0.67178">
        <ele>155.5</ele>
        <time>2022-08-10T17:15:09Z</time>
      </trkpt>
      <trkpt lat="44.98141" lon="0.67186">
        <ele>156.5</ele>
        <time>2022-08-10T17:15:12Z</time>
      </trkpt>
      <trkpt lat="44.98142" lon="0.67195">
        <ele>157.5</ele>
        <time>2022-08-10T17:15:15Z</time>
      </trkpt>
      <trkpt lat="44.98143" lon="0.67203">
        <ele>157.5</ele>
        <time>2022-08-10T17:15:18Z</time>
      </trkpt>
      <trkpt lat="44.98144" lon="0.6721">
        <ele>158.5</ele>
        <time>2022-08-10T17:15:20Z</time>
      </trkpt>
      <trkpt lat="44.98144" lon="0.67217">
        <ele>159.5</ele>
        <time>2022-08-10T17:15:23Z</time>
      </trkpt>
      <trkpt lat="44.98143" lon="0.67225">
        <ele>160.5</ele>
        <time>2022-08-10T17:15:26Z</time>
      </trkpt>
      <trkpt lat="44.98142" lon="0.67232">
        <ele>159.5</ele>
        <time>2022-08-10T17:15:29Z</time>
      </trkpt>
      <trkpt lat="44.98143" lon="0.67242">
        <ele>159.5</ele>
        <time>2022-08-10T17:15:32Z</time>
      </trkpt>
      <trkpt lat="44.98145" lon="0.6725">
        <ele>160.5</ele>
        <time>2022-08-10T17:15:35Z</time>
      </trkpt>
      <trkpt lat="44.98146" lon="0.67259">
        <ele>161.5</ele>
        <time>2022-08-10T17:15:38Z</time>
      </trkpt>
      <trkpt lat="44.98148" lon="0.67266">
        <ele>162.5</ele>
        <time>2022-08-10T17:15:40Z</time>
      </trkpt>
      <trkpt lat="44.98151" lon="0.67273">
        <ele>165.5</ele>
        <time>2022-08-10T17:15:43Z</time>
      </trkpt>
      <trkpt lat="44.98148" lon="0.67281">
        <ele>169.5</ele>
        <time>2022-08-10T17:15:50Z</time>
      </trkpt>
      <trkpt lat="44.98147" lon="0.67288">
        <ele>173.5</ele>
        <time>2022-08-10T17:16:09Z</time>
      </trkpt>
      <trkpt lat="44.98145" lon="0.67295">
        <ele>171.5</ele>
        <time>2022-08-10T17:16:47Z</time>
      </trkpt>
      <trkpt lat="44.98143" lon="0.673">
        <ele>172.5</ele>
        <time>2022-08-10T17:16:50Z</time>
      </trkpt>
      <trkpt lat="44.98141" lon="0.67308">
        <ele>172.5</ele>
        <time>2022-08-10T17:16:53Z</time>
      </trkpt>
      <trkpt lat="44.9814" lon="0.67317">
        <ele>172.5</ele>
        <time>2022-08-10T17:16:55Z</time>
      </trkpt>
      <trkpt lat="44.98138" lon="0.67327">
        <ele>174.5</ele>
        <time>2022-08-10T17:16:57Z</time>
      </trkpt>
      <trkpt lat="44.98134" lon="0.67338">
        <ele>174.5</ele>
        <time>2022-08-10T17:16:59Z</time>
      </trkpt>
      <trkpt lat="44.98132" lon="0.67346">
        <ele>174.5</ele>
        <time>2022-08-10T17:17:00Z</time>
      </trkpt>
      <trkpt lat="44.9813" lon="0.67353">
        <ele>174.5</ele>
        <time>2022-08-10T17:17:01Z</time>
      </trkpt>
      <trkpt lat="44.98127" lon="0.67361">
        <ele>174.5</ele>
        <time>2022-08-10T17:17:02Z</time>
      </trkpt>
      <trkpt lat="44.98125" lon="0.6737">
        <ele>174.5</ele>
        <time>2022-08-10T17:17:03Z</time>
      </trkpt>
      <trkpt lat="44.98123" lon="0.67377">
        <ele>175.5</ele>
        <time>2022-08-10T17:17:04Z</time>
      </trkpt>
      <trkpt lat="44.98121" lon="0.67386">
        <ele>174.5</ele>
        <time>2022-08-10T17:17:05Z</time>
      </trkpt>
      <trkpt lat="44.98118" lon="0.67402">
        <ele>174.5</ele>
        <time>2022-08-10T17:17:07Z</time>
      </trkpt>
      <trkpt lat="44.98117" lon="0.67409">
        <ele>174.5</ele>
        <time>2022-08-10T17:17:08Z</time>
      </trkpt>
      <trkpt lat="44.98116" lon="0.67417">
        <ele>173.5</ele>
        <time>2022-08-10T17:17:09Z</time>
      </trkpt>
      <trkpt lat="44.98115" lon="0.67425">
        <ele>173.5</ele>
        <time>2022-08-10T17:17:10Z</time>
      </trkpt>
      <trkpt lat="44.98113" lon="0.6744">
        <ele>173.5</ele>
        <time>2022-08-10T17:17:12Z</time>
      </trkpt>
      <trkpt lat="44.98112" lon="0.67447">
        <ele>172.5</ele>
        <time>2022-08-10T17:17:13Z</time>
      </trkpt>
      <trkpt lat="44.9811" lon="0.67458">
        <ele>171.5</ele>
        <time>2022-08-10T17:17:15Z</time>
      </trkpt>
      <trkpt lat="44.98108" lon="0.67465">
        <ele>171.5</ele>
        <time>2022-08-10T17:17:17Z</time>
      </trkpt>
      <trkpt lat="44.98107" lon="0.67472">
        <ele>170.5</ele>
        <time>2022-08-10T17:17:19Z</time>
      </trkpt>
      <trkpt lat="44.98106" lon="0.6748">
        <ele>169.5</ele>
        <time>2022-08-10T17:17:21Z</time>
      </trkpt>
      <trkpt lat="44.98104" lon="0.67487">
        <ele>168.5</ele>
        <time>2022-08-10T17:17:24Z</time>
      </trkpt>
      <trkpt lat="44.98101" lon="0.67494">
        <ele>166.5</ele>
        <time>2022-08-10T17:17:29Z</time>
      </trkpt>
      <trkpt lat="44.981" lon="0.675">
        <ele>165.5</ele>
        <time>2022-08-10T17:17:47Z</time>
      </trkpt>
      <trkpt lat="44.98099" lon="0.67493">
        <ele>166.5</ele>
        <time>2022-08-10T17:18:05Z</time>
      </trkpt>
      <trkpt lat="44.98102" lon="0.67487">
        <ele>166.5</ele>
        <time>2022-08-10T17:18:09Z</time>
      </trkpt>
      <trkpt lat="44.98105" lon="0.67479">
        <ele>165.5</ele>
        <time>2022-08-10T17:18:13Z</time>
      </trkpt>
      <trkpt lat="44.98106" lon="0.67471">
        <ele>165.5</ele>
        <time>2022-08-10T17:18:16Z</time>
      </trkpt>
      <trkpt lat="44.98108" lon="0.67462">
        <ele>165.5</ele>
        <time>2022-08-10T17:18:19Z</time>
      </trkpt>
      <trkpt lat="44.98109" lon="0.67456">
        <ele>165.5</ele>
        <time>2022-08-10T17:18:22Z</time>
      </trkpt>
      <trkpt lat="44.9811" lon="0.67447">
        <ele>164.5</ele>
        <time>2022-08-10T17:18:27Z</time>
      </trkpt>
      <trkpt lat="44.98112" lon="0.6744">
        <ele>164.5</ele>
        <time>2022-08-10T17:18:30Z</time>
      </trkpt>
      <trkpt lat="44.98113" lon="0.67433">
        <ele>165.5</ele>
        <time>2022-08-10T17:18:33Z</time>
      </trkpt>
      <trkpt lat="44.98114" lon="0.67425">
        <ele>164.5</ele>
        <time>2022-08-10T17:18:36Z</time>
      </trkpt>
      <trkpt lat="44.98115" lon="0.67418">
        <ele>164.5</ele>
        <time>2022-08-10T17:18:39Z</time>
      </trkpt>
      <trkpt lat="44.98116" lon="0.6741">
        <ele>164.5</ele>
        <time>2022-08-10T17:18:42Z</time>
      </trkpt>
      <trkpt lat="44.98117" lon="0.67402">
        <ele>163.5</ele>
        <time>2022-08-10T17:18:45Z</time>
      </trkpt>
      <trkpt lat="44.98117" lon="0.67394">
        <ele>163.5</ele>
        <time>2022-08-10T17:18:48Z</time>
      </trkpt>
      <trkpt lat="44.98118" lon="0.67387">
        <ele>162.5</ele>
        <time>2022-08-10T17:18:51Z</time>
      </trkpt>
      <trkpt lat="44.9812" lon="0.67381">
        <ele>163.5</ele>
        <time>2022-08-10T17:18:54Z</time>
      </trkpt>
      <trkpt lat="44.98122" lon="0.67373">
        <ele>162.5</ele>
        <time>2022-08-10T17:18:57Z</time>
      </trkpt>
      <trkpt lat="44.98123" lon="0.67365">
        <ele>162.5</ele>
        <time>2022-08-10T17:19:00Z</time>
      </trkpt>
      <trkpt lat="44.98124" lon="0.67357">
        <ele>162.5</ele>
        <time>2022-08-10T17:19:03Z</time>
      </trkpt>
      <trkpt lat="44.98125" lon="0.67348">
        <ele>164.5</ele>
        <time>2022-08-10T17:19:06Z</time>
      </trkpt>
      <trkpt lat="44.98126" lon="0.67339">
        <ele>165.5</ele>
        <time>2022-08-10T17:19:09Z</time>
      </trkpt>
      <trkpt lat="44.98128" lon="0.67329">
        <ele>165.5</ele>
        <time>2022-08-10T17:19:12Z</time>
      </trkpt>
      <trkpt lat="44.98129" lon="0.67323">
        <ele>164.5</ele>
        <time>2022-08-10T17:19:14Z</time>
      </trkpt>
      <trkpt lat="44.9813" lon="0.67316">
        <ele>165.5</ele>
        <time>2022-08-10T17:19:16Z</time>
      </trkpt>
      <trkpt lat="44.98131" lon="0.67309">
        <ele>164.5</ele>
        <time>2022-08-10T17:19:18Z</time>
      </trkpt>
      <trkpt lat="44.98134" lon="0.67301">
        <ele>165.5</ele>
        <time>2022-08-10T17:19:21Z</time>
      </trkpt>
      <trkpt lat="44.98137" lon="0.67296">
        <ele>165.5</ele>
        <time>2022-08-10T17:19:23Z</time>
      </trkpt>
      <trkpt lat="44.98142" lon="0.67292">
        <ele>165.5</ele>
        <time>2022-08-10T17:19:25Z</time>
      </trkpt>
      <trkpt lat="44.98148" lon="0.67289">
        <ele>166.5</ele>
        <time>2022-08-10T17:19:27Z</time>
      </trkpt>
      <trkpt lat="44.98154" lon="0.67288">
        <ele>167.5</ele>
        <time>2022-08-10T17:19:29Z</time>
      </trkpt>
      <trkpt lat="44.9816" lon="0.67285">
        <ele>167.5</ele>
        <time>2022-08-10T17:19:31Z</time>
      </trkpt>
      <trkpt lat="44.98167" lon="0.67282">
        <ele>167.5</ele>
        <time>2022-08-10T17:19:33Z</time>
      </trkpt>
      <trkpt lat="44.98174" lon="0.67278">
        <ele>167.5</ele>
        <time>2022-08-10T17:19:35Z</time>
      </trkpt>
      <trkpt lat="44.98181" lon="0.67274">
        <ele>168.5</ele>
        <time>2022-08-10T17:19:37Z</time>
      </trkpt>
      <trkpt lat="44.98189" lon="0.6727">
        <ele>168.5</ele>
        <time>2022-08-10T17:19:39Z</time>
      </trkpt>
      <trkpt lat="44.98196" lon="0.67266">
        <ele>169.5</ele>
        <time>2022-08-10T17:19:41Z</time>
      </trkpt>
      <trkpt lat="44.98205" lon="0.67264">
        <ele>170.5</ele>
        <time>2022-08-10T17:19:43Z</time>
      </trkpt>
      <trkpt lat="44.98213" lon="0.67262">
        <ele>168.5</ele>
        <time>2022-08-10T17:19:45Z</time>
      </trkpt>
      <trkpt lat="44.98221" lon="0.67259">
        <ele>168.5</ele>
        <time>2022-08-10T17:19:47Z</time>
      </trkpt>
      <trkpt lat="44.98228" lon="0.67257">
        <ele>168.5</ele>
        <time>2022-08-10T17:19:49Z</time>
      </trkpt>
      <trkpt lat="44.98236" lon="0.67254">
        <ele>168.5</ele>
        <time>2022-08-10T17:19:51Z</time>
      </trkpt>
      <trkpt lat="44.98241" lon="0.67252">
        <ele>168.5</ele>
        <time>2022-08-10T17:19:52Z</time>
      </trkpt>
      <trkpt lat="44.98245" lon="0.67251">
        <ele>168.5</ele>
        <time>2022-08-10T17:19:53Z</time>
      </trkpt>
      <trkpt lat="44.98253" lon="0.67249">
        <ele>168.5</ele>
        <time>2022-08-10T17:19:55Z</time>
      </trkpt>
      <trkpt lat="44.98262" lon="0.6725">
        <ele>168.5</ele>
        <time>2022-08-10T17:19:57Z</time>
      </trkpt>
      <trkpt lat="44.9827" lon="0.67252">
        <ele>167.5</ele>
        <time>2022-08-10T17:19:59Z</time>
      </trkpt>
      <trkpt lat="44.98278" lon="0.67254">
        <ele>168.5</ele>
        <time>2022-08-10T17:20:01Z</time>
      </trkpt>
      <trkpt lat="44.98285" lon="0.67256">
        <ele>168.5</ele>
        <time>2022-08-10T17:20:03Z</time>
      </trkpt>
      <trkpt lat="44.98293" lon="0.67256">
        <ele>169.5</ele>
        <time>2022-08-10T17:20:05Z</time>
      </trkpt>
      <trkpt lat="44.983" lon="0.67256">
        <ele>170.5</ele>
        <time>2022-08-10T17:20:07Z</time>
      </trkpt>
      <trkpt lat="44.98307" lon="0.67254">
        <ele>170.5</ele>
        <time>2022-08-10T17:20:09Z</time>
      </trkpt>
      <trkpt lat="44.98313" lon="0.67253">
        <ele>170.5</ele>
        <time>2022-08-10T17:20:11Z</time>
      </trkpt>
      <trkpt lat="44.98318" lon="0.67251">
        <ele>170.5</ele>
        <time>2022-08-10T17:20:13Z</time>
      </trkpt>
      <trkpt lat="44.98325" lon="0.67248">
        <ele>169.5</ele>
        <time>2022-08-10T17:20:16Z</time>
      </trkpt>
      <trkpt lat="44.98329" lon="0.67248">
        <ele>170.5</ele>
        <time>2022-08-10T17:20:18Z</time>
      </trkpt>
      <trkpt lat="44.98336" lon="0.67247">
        <ele>169.5</ele>
        <time>2022-08-10T17:20:21Z</time>
      </trkpt>
      <trkpt lat="44.98341" lon="0.67245">
        <ele>169.5</ele>
        <time>2022-08-10T17:20:23Z</time>
      </trkpt>
      <trkpt lat="44.98347" lon="0.67241">
        <ele>169.5</ele>
        <time>2022-08-10T17:20:26Z</time>
      </trkpt>
      <trkpt lat="44.98352" lon="0.67239">
        <ele>168.5</ele>
        <time>2022-08-10T17:20:28Z</time>
      </trkpt>
      <trkpt lat="44.98358" lon="0.67237">
        <ele>168.5</ele>
        <time>2022-08-10T17:20:31Z</time>
      </trkpt>
      <trkpt lat="44.98364" lon="0.67235">
        <ele>167.5</ele>
        <time>2022-08-10T17:20:33Z</time>
      </trkpt>
      <trkpt lat="44.9837" lon="0.67232">
        <ele>168.5</ele>
        <time>2022-08-10T17:20:36Z</time>
      </trkpt>
      <trkpt lat="44.98376" lon="0.6723">
        <ele>167.5</ele>
        <time>2022-08-10T17:20:39Z</time>
      </trkpt>
      <trkpt lat="44.98382" lon="0.67228">
        <ele>167.5</ele>
        <time>2022-08-10T17:20:42Z</time>
      </trkpt>
      <trkpt lat="44.98388" lon="0.67227">
        <ele>168.5</ele>
        <time>2022-08-10T17:20:45Z</time>
      </trkpt>
      <trkpt lat="44.98394" lon="0.67227">
        <ele>168.5</ele>
        <time>2022-08-10T17:20:47Z</time>
      </trkpt>
      <trkpt lat="44.98401" lon="0.67226">
        <ele>169.5</ele>
        <time>2022-08-10T17:20:49Z</time>
      </trkpt>
      <trkpt lat="44.98406" lon="0.67224">
        <ele>169.5</ele>
        <time>2022-08-10T17:20:51Z</time>
      </trkpt>
      <trkpt lat="44.98411" lon="0.67223">
        <ele>169.5</ele>
        <time>2022-08-10T17:20:53Z</time>
      </trkpt>
      <trkpt lat="44.98416" lon="0.67223">
        <ele>169.5</ele>
        <time>2022-08-10T17:20:55Z</time>
      </trkpt>
      <trkpt lat="44.98419" lon="0.67231">
        <ele>170.5</ele>
        <time>2022-08-10T17:20:58Z</time>
      </trkpt>
      <trkpt lat="44.9842" lon="0.67237">
        <ele>170.5</ele>
        <time>2022-08-10T17:21:00Z</time>
      </trkpt>
      <trkpt lat="44.98421" lon="0.67244">
        <ele>170.5</ele>
        <time>2022-08-10T17:21:02Z</time>
      </trkpt>
      <trkpt lat="44.98422" lon="0.67251">
        <ele>170.5</ele>
        <time>2022-08-10T17:21:04Z</time>
      </trkpt>
      <trkpt lat="44.98423" lon="0.67258">
        <ele>171.5</ele>
        <time>2022-08-10T17:21:06Z</time>
      </trkpt>
      <trkpt lat="44.98425" lon="0.67265">
        <ele>172.5</ele>
        <time>2022-08-10T17:21:08Z</time>
      </trkpt>
      <trkpt lat="44.98427" lon="0.67272">
        <ele>172.5</ele>
        <time>2022-08-10T17:21:10Z</time>
      </trkpt>
      <trkpt lat="44.98429" lon="0.6728">
        <ele>172.5</ele>
        <time>2022-08-10T17:21:12Z</time>
      </trkpt>
      <trkpt lat="44.98432" lon="0.67288">
        <ele>172.5</ele>
        <time>2022-08-10T17:21:14Z</time>
      </trkpt>
      <trkpt lat="44.98435" lon="0.67299">
        <ele>172.5</ele>
        <time>2022-08-10T17:21:16Z</time>
      </trkpt>
      <trkpt lat="44.98439" lon="0.6731">
        <ele>172.5</ele>
        <time>2022-08-10T17:21:18Z</time>
      </trkpt>
      <trkpt lat="44.98443" lon="0.67321">
        <ele>172.5</ele>
        <time>2022-08-10T17:21:20Z</time>
      </trkpt>
      <trkpt lat="44.98446" lon="0.67327">
        <ele>172.5</ele>
        <time>2022-08-10T17:21:21Z</time>
      </trkpt>
      <trkpt lat="44.9845" lon="0.67332">
        <ele>172.5</ele>
        <time>2022-08-10T17:21:22Z</time>
      </trkpt>
      <trkpt lat="44.98453" lon="0.67338">
        <ele>172.5</ele>
        <time>2022-08-10T17:21:23Z</time>
      </trkpt>
      <trkpt lat="44.98457" lon="0.67344">
        <ele>173.5</ele>
        <time>2022-08-10T17:21:24Z</time>
      </trkpt>
      <trkpt lat="44.9846" lon="0.67352">
        <ele>173.5</ele>
        <time>2022-08-10T17:21:25Z</time>
      </trkpt>
      <trkpt lat="44.98463" lon="0.6736">
        <ele>174.5</ele>
        <time>2022-08-10T17:21:26Z</time>
      </trkpt>
      <trkpt lat="44.98465" lon="0.67369">
        <ele>174.5</ele>
        <time>2022-08-10T17:21:27Z</time>
      </trkpt>
      <trkpt lat="44.98468" lon="0.67378">
        <ele>175.5</ele>
        <time>2022-08-10T17:21:28Z</time>
      </trkpt>
      <trkpt lat="44.9847" lon="0.67387">
        <ele>176.5</ele>
        <time>2022-08-10T17:21:29Z</time>
      </trkpt>
      <trkpt lat="44.98472" lon="0.67396">
        <ele>176.5</ele>
        <time>2022-08-10T17:21:30Z</time>
      </trkpt>
      <trkpt lat="44.98473" lon="0.67406">
        <ele>176.5</ele>
        <time>2022-08-10T17:21:31Z</time>
      </trkpt>
      <trkpt lat="44.98474" lon="0.67416">
        <ele>176.5</ele>
        <time>2022-08-10T17:21:32Z</time>
      </trkpt>
      <trkpt lat="44.98475" lon="0.67425">
        <ele>176.5</ele>
        <time>2022-08-10T17:21:33Z</time>
      </trkpt>
      <trkpt lat="44.98477" lon="0.67436">
        <ele>176.5</ele>
        <time>2022-08-10T17:21:34Z</time>
      </trkpt>
      <trkpt lat="44.98479" lon="0.67446">
        <ele>176.5</ele>
        <time>2022-08-10T17:21:35Z</time>
      </trkpt>
      <trkpt lat="44.9848" lon="0.67457">
        <ele>176.5</ele>
        <time>2022-08-10T17:21:36Z</time>
      </trkpt>
      <trkpt lat="44.98482" lon="0.67467">
        <ele>176.5</ele>
        <time>2022-08-10T17:21:37Z</time>
      </trkpt>
      <trkpt lat="44.98485" lon="0.67478">
        <ele>175.5</ele>
        <time>2022-08-10T17:21:38Z</time>
      </trkpt>
      <trkpt lat="44.98487" lon="0.67489">
        <ele>175.5</ele>
        <time>2022-08-10T17:21:39Z</time>
      </trkpt>
      <trkpt lat="44.98489" lon="0.67502">
        <ele>174.5</ele>
        <time>2022-08-10T17:21:40Z</time>
      </trkpt>
      <trkpt lat="44.98493" lon="0.67517">
        <ele>173.5</ele>
        <time>2022-08-10T17:21:41Z</time>
      </trkpt>
      <trkpt lat="44.98496" lon="0.67532">
        <ele>173.5</ele>
        <time>2022-08-10T17:21:42Z</time>
      </trkpt>
      <trkpt lat="44.985" lon="0.67548">
        <ele>172.5</ele>
        <time>2022-08-10T17:21:43Z</time>
      </trkpt>
      <trkpt lat="44.98503" lon="0.67563">
        <ele>171.5</ele>
        <time>2022-08-10T17:21:44Z</time>
      </trkpt>
      <trkpt lat="44.98506" lon="0.67577">
        <ele>171.5</ele>
        <time>2022-08-10T17:21:45Z</time>
      </trkpt>
      <trkpt lat="44.98509" lon="0.67589">
        <ele>170.5</ele>
        <time>2022-08-10T17:21:46Z</time>
      </trkpt>
      <trkpt lat="44.98512" lon="0.676">
        <ele>170.5</ele>
        <time>2022-08-10T17:21:47Z</time>
      </trkpt>
      <trkpt lat="44.98514" lon="0.6761">
        <ele>169.5</ele>
        <time>2022-08-10T17:21:48Z</time>
      </trkpt>
      <trkpt lat="44.98516" lon="0.67619">
        <ele>169.5</ele>
        <time>2022-08-10T17:21:49Z</time>
      </trkpt>
      <trkpt lat="44.98517" lon="0.67626">
        <ele>169.5</ele>
        <time>2022-08-10T17:21:50Z</time>
      </trkpt>
      <trkpt lat="44.98519" lon="0.67638">
        <ele>168.5</ele>
        <time>2022-08-10T17:21:52Z</time>
      </trkpt>
      <trkpt lat="44.9852" lon="0.67648">
        <ele>168.5</ele>
        <time>2022-08-10T17:21:54Z</time>
      </trkpt>
      <trkpt lat="44.98522" lon="0.67659">
        <ele>167.5</ele>
        <time>2022-08-10T17:21:56Z</time>
      </trkpt>
      <trkpt lat="44.98523" lon="0.67665">
        <ele>168.5</ele>
        <time>2022-08-10T17:21:57Z</time>
      </trkpt>
      <trkpt lat="44.98524" lon="0.67672">
        <ele>168.5</ele>
        <time>2022-08-10T17:21:58Z</time>
      </trkpt>
      <trkpt lat="44.98524" lon="0.6768">
        <ele>167.5</ele>
        <time>2022-08-10T17:21:59Z</time>
      </trkpt>
      <trkpt lat="44.98525" lon="0.67686">
        <ele>167.5</ele>
        <time>2022-08-10T17:22:00Z</time>
      </trkpt>
      <trkpt lat="44.98525" lon="0.67699">
        <ele>166.5</ele>
        <time>2022-08-10T17:22:02Z</time>
      </trkpt>
      <trkpt lat="44.98524" lon="0.67706">
        <ele>166.5</ele>
        <time>2022-08-10T17:22:03Z</time>
      </trkpt>
      <trkpt lat="44.98524" lon="0.67713">
        <ele>166.5</ele>
        <time>2022-08-10T17:22:04Z</time>
      </trkpt>
      <trkpt lat="44.98523" lon="0.67724">
        <ele>167.5</ele>
        <time>2022-08-10T17:22:06Z</time>
      </trkpt>
      <trkpt lat="44.98521" lon="0.67735">
        <ele>166.5</ele>
        <time>2022-08-10T17:22:08Z</time>
      </trkpt>
      <trkpt lat="44.9852" lon="0.67745">
        <ele>166.5</ele>
        <time>2022-08-10T17:22:10Z</time>
      </trkpt>
      <trkpt lat="44.98518" lon="0.67754">
        <ele>166.5</ele>
        <time>2022-08-10T17:22:12Z</time>
      </trkpt>
      <trkpt lat="44.98516" lon="0.67762">
        <ele>166.5</ele>
        <time>2022-08-10T17:22:14Z</time>
      </trkpt>
      <trkpt lat="44.98514" lon="0.67771">
        <ele>166.5</ele>
        <time>2022-08-10T17:22:16Z</time>
      </trkpt>
      <trkpt lat="44.98513" lon="0.67779">
        <ele>166.5</ele>
        <time>2022-08-10T17:22:18Z</time>
      </trkpt>
      <trkpt lat="44.9851" lon="0.67787">
        <ele>166.5</ele>
        <time>2022-08-10T17:22:20Z</time>
      </trkpt>
      <trkpt lat="44.98509" lon="0.67794">
        <ele>166.5</ele>
        <time>2022-08-10T17:22:22Z</time>
      </trkpt>
      <trkpt lat="44.98507" lon="0.67802">
        <ele>166.5</ele>
        <time>2022-08-10T17:22:25Z</time>
      </trkpt>
      <trkpt lat="44.98505" lon="0.67808">
        <ele>165.5</ele>
        <time>2022-08-10T17:22:27Z</time>
      </trkpt>
      <trkpt lat="44.98504" lon="0.67817">
        <ele>165.5</ele>
        <time>2022-08-10T17:22:30Z</time>
      </trkpt>
      <trkpt lat="44.98504" lon="0.67825">
        <ele>166.5</ele>
        <time>2022-08-10T17:22:33Z</time>
      </trkpt>
      <trkpt lat="44.98502" lon="0.67835">
        <ele>167.5</ele>
        <time>2022-08-10T17:22:36Z</time>
      </trkpt>
      <trkpt lat="44.98501" lon="0.67844">
        <ele>167.5</ele>
        <time>2022-08-10T17:22:39Z</time>
      </trkpt>
      <trkpt lat="44.985" lon="0.67852">
        <ele>166.5</ele>
        <time>2022-08-10T17:22:42Z</time>
      </trkpt>
      <trkpt lat="44.98499" lon="0.67859">
        <ele>166.5</ele>
        <time>2022-08-10T17:22:45Z</time>
      </trkpt>
      <trkpt lat="44.98497" lon="0.67866">
        <ele>166.5</ele>
        <time>2022-08-10T17:22:48Z</time>
      </trkpt>
      <trkpt lat="44.98496" lon="0.67873">
        <ele>166.5</ele>
        <time>2022-08-10T17:22:51Z</time>
      </trkpt>
      <trkpt lat="44.98496" lon="0.6788">
        <ele>165.5</ele>
        <time>2022-08-10T17:22:54Z</time>
      </trkpt>
      <trkpt lat="44.98495" lon="0.67887">
        <ele>165.5</ele>
        <time>2022-08-10T17:22:57Z</time>
      </trkpt>
      <trkpt lat="44.98493" lon="0.67894">
        <ele>166.5</ele>
        <time>2022-08-10T17:23:01Z</time>
      </trkpt>
      <trkpt lat="44.98491" lon="0.67902">
        <ele>166.5</ele>
        <time>2022-08-10T17:23:05Z</time>
      </trkpt>
      <trkpt lat="44.9849" lon="0.67908">
        <ele>166.5</ele>
        <time>2022-08-10T17:23:10Z</time>
      </trkpt>
      <trkpt lat="44.98488" lon="0.67916">
        <ele>168.5</ele>
        <time>2022-08-10T17:23:14Z</time>
      </trkpt>
      <trkpt lat="44.98485" lon="0.67924">
        <ele>168.5</ele>
        <time>2022-08-10T17:23:17Z</time>
      </trkpt>
      <trkpt lat="44.98483" lon="0.67931">
        <ele>169.5</ele>
        <time>2022-08-10T17:23:20Z</time>
      </trkpt>
      <trkpt lat="44.98479" lon="0.67936">
        <ele>169.5</ele>
        <time>2022-08-10T17:23:24Z</time>
      </trkpt>
      <trkpt lat="44.98477" lon="0.67942">
        <ele>169.5</ele>
        <time>2022-08-10T17:23:27Z</time>
      </trkpt>
      <trkpt lat="44.98473" lon="0.67949">
        <ele>169.5</ele>
        <time>2022-08-10T17:23:30Z</time>
      </trkpt>
      <trkpt lat="44.9847" lon="0.67954">
        <ele>170.5</ele>
        <time>2022-08-10T17:23:33Z</time>
      </trkpt>
      <trkpt lat="44.98468" lon="0.6796">
        <ele>171.5</ele>
        <time>2022-08-10T17:23:36Z</time>
      </trkpt>
      <trkpt lat="44.98466" lon="0.67966">
        <ele>171.5</ele>
        <time>2022-08-10T17:23:39Z</time>
      </trkpt>
      <trkpt lat="44.98463" lon="0.67973">
        <ele>172.5</ele>
        <time>2022-08-10T17:23:43Z</time>
      </trkpt>
      <trkpt lat="44.98462" lon="0.67979">
        <ele>171.5</ele>
        <time>2022-08-10T17:23:46Z</time>
      </trkpt>
      <trkpt lat="44.98462" lon="0.67987">
        <ele>171.5</ele>
        <time>2022-08-10T17:23:50Z</time>
      </trkpt>
      <trkpt lat="44.98461" lon="0.67994">
        <ele>173.5</ele>
        <time>2022-08-10T17:23:54Z</time>
      </trkpt>
      <trkpt lat="44.98461" lon="0.68">
        <ele>173.5</ele>
        <time>2022-08-10T17:23:57Z</time>
      </trkpt>
      <trkpt lat="44.98462" lon="0.68007">
        <ele>173.5</ele>
        <time>2022-08-10T17:24:00Z</time>
      </trkpt>
      <trkpt lat="44.98465" lon="0.68014">
        <ele>173.5</ele>
        <time>2022-08-10T17:24:04Z</time>
      </trkpt>
      <trkpt lat="44.98465" lon="0.68022">
        <ele>174.5</ele>
        <time>2022-08-10T17:24:07Z</time>
      </trkpt>
      <trkpt lat="44.98465" lon="0.68029">
        <ele>174.5</ele>
        <time>2022-08-10T17:24:10Z</time>
      </trkpt>
      <trkpt lat="44.92333" lon="0.73832">
        <ele>141</ele>
        <time>2022-08-11T08:00:12Z</time>
      </trkpt>
      <trkpt lat="44.9233" lon="0.73827">
        <ele>138.5</ele>
        <time>2022-08-11T08:06:10Z</time>
      </trkpt>
      <trkpt lat="44.92331" lon="0.7382">
        <ele>139.5</ele>
        <time>2022-08-11T08:07:35Z</time>
      </trkpt>
      <trkpt lat="44.92336" lon="0.73818">
        <ele>142.5</ele>
        <time>2022-08-11T08:07:41Z</time>
      </trkpt>
      <trkpt lat="44.9234" lon="0.73816">
        <ele>142.5</ele>
        <time>2022-08-11T08:07:45Z</time>
      </trkpt>
      <trkpt lat="44.92342" lon="0.73809">
        <ele>143.5</ele>
        <time>2022-08-11T08:08:14Z</time>
      </trkpt>
      <trkpt lat="44.92339" lon="0.73805">
        <ele>143.5</ele>
        <time>2022-08-11T08:08:19Z</time>
      </trkpt>
      <trkpt lat="44.92335" lon="0.73801">
        <ele>139.5</ele>
        <time>2022-08-11T08:08:52Z</time>
      </trkpt>
      <trkpt lat="44.9233" lon="0.73798">
        <ele>136.5</ele>
        <time>2022-08-11T08:09:47Z</time>
      </trkpt>
      <trkpt lat="44.92325" lon="0.73797">
        <ele>136.5</ele>
        <time>2022-08-11T08:09:52Z</time>
      </trkpt>
      <trkpt lat="44.9232" lon="0.73796">
        <ele>137.5</ele>
        <time>2022-08-11T08:09:56Z</time>
      </trkpt>
      <trkpt lat="44.92315" lon="0.73794">
        <ele>138.5</ele>
        <time>2022-08-11T08:10:00Z</time>
      </trkpt>
      <trkpt lat="44.9231" lon="0.73789">
        <ele>140.5</ele>
        <time>2022-08-11T08:10:04Z</time>
      </trkpt>
      <trkpt lat="44.92306" lon="0.73783">
        <ele>142.5</ele>
        <time>2022-08-11T08:10:08Z</time>
      </trkpt>
      <trkpt lat="44.92302" lon="0.73779">
        <ele>142.5</ele>
        <time>2022-08-11T08:10:12Z</time>
      </trkpt>
      <trkpt lat="44.92298" lon="0.73776">
        <ele>143.5</ele>
        <time>2022-08-11T08:10:15Z</time>
      </trkpt>
      <trkpt lat="44.92293" lon="0.73774">
        <ele>144.5</ele>
        <time>2022-08-11T08:10:18Z</time>
      </trkpt>
      <trkpt lat="44.92289" lon="0.7377">
        <ele>145.5</ele>
        <time>2022-08-11T08:10:21Z</time>
      </trkpt>
      <trkpt lat="44.92285" lon="0.73763">
        <ele>146.5</ele>
        <time>2022-08-11T08:10:25Z</time>
      </trkpt>
      <trkpt lat="44.92281" lon="0.7376">
        <ele>145.5</ele>
        <time>2022-08-11T08:10:28Z</time>
      </trkpt>
      <trkpt lat="44.92276" lon="0.73757">
        <ele>145.5</ele>
        <time>2022-08-11T08:10:31Z</time>
      </trkpt>
      <trkpt lat="44.92272" lon="0.73755">
        <ele>145.5</ele>
        <time>2022-08-11T08:10:34Z</time>
      </trkpt>
      <trkpt lat="44.92267" lon="0.73753">
        <ele>145.5</ele>
        <time>2022-08-11T08:10:37Z</time>
      </trkpt>
      <trkpt lat="44.92263" lon="0.73753">
        <ele>145.5</ele>
        <time>2022-08-11T08:10:40Z</time>
      </trkpt>
      <trkpt lat="44.92258" lon="0.73752">
        <ele>145.5</ele>
        <time>2022-08-11T08:10:43Z</time>
      </trkpt>
      <trkpt lat="44.92252" lon="0.73752">
        <ele>145.5</ele>
        <time>2022-08-11T08:10:46Z</time>
      </trkpt>
      <trkpt lat="44.92246" lon="0.73753">
        <ele>145.5</ele>
        <time>2022-08-11T08:10:49Z</time>
      </trkpt>
      <trkpt lat="44.92241" lon="0.73755">
        <ele>145.5</ele>
        <time>2022-08-11T08:10:52Z</time>
      </trkpt>
      <trkpt lat="44.92236" lon="0.73756">
        <ele>145.5</ele>
        <time>2022-08-11T08:10:55Z</time>
      </trkpt>
      <trkpt lat="44.9223" lon="0.73758">
        <ele>146.5</ele>
        <time>2022-08-11T08:10:59Z</time>
      </trkpt>
      <trkpt lat="44.92226" lon="0.7376">
        <ele>146.5</ele>
        <time>2022-08-11T08:11:02Z</time>
      </trkpt>
      <trkpt lat="44.92219" lon="0.7376">
        <ele>146.5</ele>
        <time>2022-08-11T08:11:07Z</time>
      </trkpt>
      <trkpt lat="44.92214" lon="0.73761">
        <ele>147.5</ele>
        <time>2022-08-11T08:11:11Z</time>
      </trkpt>
      <trkpt lat="44.92209" lon="0.73762">
        <ele>147.5</ele>
        <time>2022-08-11T08:11:15Z</time>
      </trkpt>
      <trkpt lat="44.92203" lon="0.73763">
        <ele>148.5</ele>
        <time>2022-08-11T08:11:19Z</time>
      </trkpt>
      <trkpt lat="44.92198" lon="0.73767">
        <ele>147.5</ele>
        <time>2022-08-11T08:11:22Z</time>
      </trkpt>
      <trkpt lat="44.92194" lon="0.7377">
        <ele>147.5</ele>
        <time>2022-08-11T08:11:25Z</time>
      </trkpt>
      <trkpt lat="44.92189" lon="0.73775">
        <ele>148.5</ele>
        <time>2022-08-11T08:11:28Z</time>
      </trkpt>
      <trkpt lat="44.92183" lon="0.73778">
        <ele>148.5</ele>
        <time>2022-08-11T08:11:30Z</time>
      </trkpt>
      <trkpt lat="44.92179" lon="0.73782">
        <ele>148.5</ele>
        <time>2022-08-11T08:11:32Z</time>
      </trkpt>
      <trkpt lat="44.92172" lon="0.73786">
        <ele>149.5</ele>
        <time>2022-08-11T08:11:35Z</time>
      </trkpt>
      <trkpt lat="44.92164" lon="0.73789">
        <ele>149.5</ele>
        <time>2022-08-11T08:11:38Z</time>
      </trkpt>
      <trkpt lat="44.92159" lon="0.73792">
        <ele>149.5</ele>
        <time>2022-08-11T08:11:40Z</time>
      </trkpt>
      <trkpt lat="44.92153" lon="0.73794">
        <ele>149.5</ele>
        <time>2022-08-11T08:11:42Z</time>
      </trkpt>
      <trkpt lat="44.92147" lon="0.73797">
        <ele>150.5</ele>
        <time>2022-08-11T08:11:44Z</time>
      </trkpt>
      <trkpt lat="44.9214" lon="0.73799">
        <ele>150.5</ele>
        <time>2022-08-11T08:11:46Z</time>
      </trkpt>
      <trkpt lat="44.92134" lon="0.73802">
        <ele>151.5</ele>
        <time>2022-08-11T08:11:48Z</time>
      </trkpt>
      <trkpt lat="44.92128" lon="0.73804">
        <ele>151.5</ele>
        <time>2022-08-11T08:11:50Z</time>
      </trkpt>
      <trkpt lat="44.92122" lon="0.73806">
        <ele>151.5</ele>
        <time>2022-08-11T08:11:52Z</time>
      </trkpt>
      <trkpt lat="44.92116" lon="0.73809">
        <ele>151.5</ele>
        <time>2022-08-11T08:11:54Z</time>
      </trkpt>
      <trkpt lat="44.92109" lon="0.73811">
        <ele>150.5</ele>
        <time>2022-08-11T08:11:56Z</time>
      </trkpt>
      <trkpt lat="44.92103" lon="0.73815">
        <ele>150.5</ele>
        <time>2022-08-11T08:11:58Z</time>
      </trkpt>
      <trkpt lat="44.92097" lon="0.73819">
        <ele>150.5</ele>
        <time>2022-08-11T08:12:00Z</time>
      </trkpt>
      <trkpt lat="44.92092" lon="0.73824">
        <ele>151.5</ele>
        <time>2022-08-11T08:12:02Z</time>
      </trkpt>
      <trkpt lat="44.92088" lon="0.7383">
        <ele>152.5</ele>
        <time>2022-08-11T08:12:05Z</time>
      </trkpt>
      <trkpt lat="44.92084" lon="0.73834">
        <ele>154.5</ele>
        <time>2022-08-11T08:13:05Z</time>
      </trkpt>
      <trkpt lat="44.9208" lon="0.7384">
        <ele>154.5</ele>
        <time>2022-08-11T08:13:08Z</time>
      </trkpt>
      <trkpt lat="44.92078" lon="0.73846">
        <ele>154.5</ele>
        <time>2022-08-11T08:13:10Z</time>
      </trkpt>
      <trkpt lat="44.92074" lon="0.73852">
        <ele>154.5</ele>
        <time>2022-08-11T08:13:12Z</time>
      </trkpt>
      <trkpt lat="44.9207" lon="0.73858">
        <ele>155.5</ele>
        <time>2022-08-11T08:13:14Z</time>
      </trkpt>
      <trkpt lat="44.92066" lon="0.73863">
        <ele>155.5</ele>
        <time>2022-08-11T08:13:16Z</time>
      </trkpt>
      <trkpt lat="44.92061" lon="0.73868">
        <ele>156.5</ele>
        <time>2022-08-11T08:13:18Z</time>
      </trkpt>
      <trkpt lat="44.92056" lon="0.73872">
        <ele>157.5</ele>
        <time>2022-08-11T08:13:20Z</time>
      </trkpt>
      <trkpt lat="44.92052" lon="0.73876">
        <ele>157.5</ele>
        <time>2022-08-11T08:13:22Z</time>
      </trkpt>
      <trkpt lat="44.92048" lon="0.73882">
        <ele>157.5</ele>
        <time>2022-08-11T08:13:24Z</time>
      </trkpt>
      <trkpt lat="44.92044" lon="0.73887">
        <ele>157.5</ele>
        <time>2022-08-11T08:13:26Z</time>
      </trkpt>
      <trkpt lat="44.92041" lon="0.73894">
        <ele>157.5</ele>
        <time>2022-08-11T08:13:28Z</time>
      </trkpt>
      <trkpt lat="44.92037" lon="0.73901">
        <ele>157.5</ele>
        <time>2022-08-11T08:13:30Z</time>
      </trkpt>
      <trkpt lat="44.92034" lon="0.73908">
        <ele>157.5</ele>
        <time>2022-08-11T08:13:32Z</time>
      </trkpt>
      <trkpt lat="44.92029" lon="0.73912">
        <ele>157.5</ele>
        <time>2022-08-11T08:13:34Z</time>
      </trkpt>
      <trkpt lat="44.92024" lon="0.73913">
        <ele>157.5</ele>
        <time>2022-08-11T08:13:36Z</time>
      </trkpt>
      <trkpt lat="44.9202" lon="0.73911">
        <ele>158.5</ele>
        <time>2022-08-11T08:13:38Z</time>
      </trkpt>
      <trkpt lat="44.92015" lon="0.73909">
        <ele>158.5</ele>
        <time>2022-08-11T08:13:40Z</time>
      </trkpt>
      <trkpt lat="44.9201" lon="0.73908">
        <ele>159.5</ele>
        <time>2022-08-11T08:13:42Z</time>
      </trkpt>
      <trkpt lat="44.92005" lon="0.73907">
        <ele>158.5</ele>
        <time>2022-08-11T08:13:44Z</time>
      </trkpt>
      <trkpt lat="44.91999" lon="0.73905">
        <ele>158.5</ele>
        <time>2022-08-11T08:13:47Z</time>
      </trkpt>
      <trkpt lat="44.91992" lon="0.73903">
        <ele>157.5</ele>
        <time>2022-08-11T08:13:50Z</time>
      </trkpt>
      <trkpt lat="44.91988" lon="0.73902">
        <ele>156.5</ele>
        <time>2022-08-11T08:13:52Z</time>
      </trkpt>
      <trkpt lat="44.91982" lon="0.73901">
        <ele>156.5</ele>
        <time>2022-08-11T08:13:54Z</time>
      </trkpt>
      <trkpt lat="44.91977" lon="0.739">
        <ele>156.5</ele>
        <time>2022-08-11T08:13:56Z</time>
      </trkpt>
      <trkpt lat="44.91971" lon="0.73899">
        <ele>156.5</ele>
        <time>2022-08-11T08:13:59Z</time>
      </trkpt>
      <trkpt lat="44.91962" lon="0.73904">
        <ele>157.5</ele>
        <time>2022-08-11T08:14:03Z</time>
      </trkpt>
      <trkpt lat="44.91959" lon="0.73908">
        <ele>157.5</ele>
        <time>2022-08-11T08:14:05Z</time>
      </trkpt>
      <trkpt lat="44.91953" lon="0.73914">
        <ele>157.5</ele>
        <time>2022-08-11T08:14:08Z</time>
      </trkpt>
      <trkpt lat="44.9195" lon="0.7392">
        <ele>159.5</ele>
        <time>2022-08-11T08:14:12Z</time>
      </trkpt>
      <trkpt lat="44.91946" lon="0.73923">
        <ele>159.5</ele>
        <time>2022-08-11T08:14:15Z</time>
      </trkpt>
      <trkpt lat="44.91941" lon="0.73927">
        <ele>161.5</ele>
        <time>2022-08-11T08:14:19Z</time>
      </trkpt>
      <trkpt lat="44.91937" lon="0.73931">
        <ele>160.5</ele>
        <time>2022-08-11T08:14:23Z</time>
      </trkpt>
      <trkpt lat="44.91932" lon="0.73934">
        <ele>160.5</ele>
        <time>2022-08-11T08:14:26Z</time>
      </trkpt>
      <trkpt lat="44.91929" lon="0.73938">
        <ele>160.5</ele>
        <time>2022-08-11T08:14:29Z</time>
      </trkpt>
      <trkpt lat="44.91924" lon="0.73941">
        <ele>159.5</ele>
        <time>2022-08-11T08:14:32Z</time>
      </trkpt>
      <trkpt lat="44.91919" lon="0.73944">
        <ele>160.5</ele>
        <time>2022-08-11T08:14:35Z</time>
      </trkpt>
      <trkpt lat="44.91913" lon="0.73947">
        <ele>161.5</ele>
        <time>2022-08-11T08:14:38Z</time>
      </trkpt>
      <trkpt lat="44.91909" lon="0.7395">
        <ele>162.5</ele>
        <time>2022-08-11T08:14:40Z</time>
      </trkpt>
      <trkpt lat="44.91903" lon="0.73953">
        <ele>162.5</ele>
        <time>2022-08-11T08:14:43Z</time>
      </trkpt>
      <trkpt lat="44.91899" lon="0.73957">
        <ele>162.5</ele>
        <time>2022-08-11T08:14:46Z</time>
      </trkpt>
      <trkpt lat="44.91893" lon="0.73961">
        <ele>162.5</ele>
        <time>2022-08-11T08:14:49Z</time>
      </trkpt>
      <trkpt lat="44.91888" lon="0.73964">
        <ele>162.5</ele>
        <time>2022-08-11T08:14:52Z</time>
      </trkpt>
      <trkpt lat="44.91883" lon="0.73969">
        <ele>162.5</ele>
        <time>2022-08-11T08:14:55Z</time>
      </trkpt>
      <trkpt lat="44.91878" lon="0.73973">
        <ele>162.5</ele>
        <time>2022-08-11T08:14:58Z</time>
      </trkpt>
      <trkpt lat="44.91872" lon="0.73977">
        <ele>163.5</ele>
        <time>2022-08-11T08:15:01Z</time>
      </trkpt>
      <trkpt lat="44.91868" lon="0.7398">
        <ele>163.5</ele>
        <time>2022-08-11T08:15:04Z</time>
      </trkpt>
      <trkpt lat="44.91863" lon="0.73984">
        <ele>163.5</ele>
        <time>2022-08-11T08:15:07Z</time>
      </trkpt>
      <trkpt lat="44.91858" lon="0.73987">
        <ele>163.5</ele>
        <time>2022-08-11T08:15:10Z</time>
      </trkpt>
      <trkpt lat="44.91853" lon="0.73989">
        <ele>162.5</ele>
        <time>2022-08-11T08:15:20Z</time>
      </trkpt>
      <trkpt lat="44.91849" lon="0.73987">
        <ele>164.5</ele>
        <time>2022-08-11T08:15:39Z</time>
      </trkpt>
      <trkpt lat="44.91845" lon="0.73992">
        <ele>159.5</ele>
        <time>2022-08-11T08:18:55Z</time>
      </trkpt>
      <trkpt lat="44.91841" lon="0.73995">
        <ele>159.5</ele>
        <time>2022-08-11T08:18:59Z</time>
      </trkpt>
      <trkpt lat="44.91835" lon="0.73999">
        <ele>158.5</ele>
        <time>2022-08-11T08:19:03Z</time>
      </trkpt>
      <trkpt lat="44.91829" lon="0.73999">
        <ele>158.5</ele>
        <time>2022-08-11T08:19:08Z</time>
      </trkpt>
      <trkpt lat="44.91824" lon="0.74003">
        <ele>158.5</ele>
        <time>2022-08-11T08:19:13Z</time>
      </trkpt>
      <trkpt lat="44.9182" lon="0.74006">
        <ele>158.5</ele>
        <time>2022-08-11T08:19:18Z</time>
      </trkpt>
      <trkpt lat="44.91816" lon="0.74009">
        <ele>157.5</ele>
        <time>2022-08-11T08:19:22Z</time>
      </trkpt>
      <trkpt lat="44.9181" lon="0.74013">
        <ele>157.5</ele>
        <time>2022-08-11T08:19:26Z</time>
      </trkpt>
      <trkpt lat="44.91807" lon="0.74017">
        <ele>157.5</ele>
        <time>2022-08-11T08:19:29Z</time>
      </trkpt>
      <trkpt lat="44.91803" lon="0.74021">
        <ele>156.5</ele>
        <time>2022-08-11T08:19:33Z</time>
      </trkpt>
      <trkpt lat="44.91799" lon="0.74027">
        <ele>155.5</ele>
        <time>2022-08-11T08:19:38Z</time>
      </trkpt>
      <trkpt lat="44.91792" lon="0.74033">
        <ele>155.5</ele>
        <time>2022-08-11T08:19:43Z</time>
      </trkpt>
      <trkpt lat="44.91789" lon="0.74037">
        <ele>154.5</ele>
        <time>2022-08-11T08:19:46Z</time>
      </trkpt>
      <trkpt lat="44.91785" lon="0.74043">
        <ele>154.5</ele>
        <time>2022-08-11T08:19:49Z</time>
      </trkpt>
      <trkpt lat="44.91782" lon="0.74049">
        <ele>154.5</ele>
        <time>2022-08-11T08:19:52Z</time>
      </trkpt>
      <trkpt lat="44.91779" lon="0.74053">
        <ele>155.5</ele>
        <time>2022-08-11T08:19:54Z</time>
      </trkpt>
      <trkpt lat="44.91775" lon="0.74057">
        <ele>156.5</ele>
        <time>2022-08-11T08:19:57Z</time>
      </trkpt>
      <trkpt lat="44.9177" lon="0.7406">
        <ele>158.5</ele>
        <time>2022-08-11T08:20:00Z</time>
      </trkpt>
      <trkpt lat="44.91765" lon="0.74063">
        <ele>158.5</ele>
        <time>2022-08-11T08:20:03Z</time>
      </trkpt>
      <trkpt lat="44.91761" lon="0.74068">
        <ele>158.5</ele>
        <time>2022-08-11T08:20:06Z</time>
      </trkpt>
      <trkpt lat="44.91756" lon="0.7407">
        <ele>160.5</ele>
        <time>2022-08-11T08:20:09Z</time>
      </trkpt>
      <trkpt lat="44.91752" lon="0.74073">
        <ele>160.5</ele>
        <time>2022-08-11T08:20:12Z</time>
      </trkpt>
      <trkpt lat="44.91748" lon="0.74077">
        <ele>161.5</ele>
        <time>2022-08-11T08:20:16Z</time>
      </trkpt>
      <trkpt lat="44.91743" lon="0.7408">
        <ele>161.5</ele>
        <time>2022-08-11T08:20:20Z</time>
      </trkpt>
      <trkpt lat="44.91738" lon="0.74083">
        <ele>162.5</ele>
        <time>2022-08-11T08:20:23Z</time>
      </trkpt>
      <trkpt lat="44.91734" lon="0.74086">
        <ele>162.5</ele>
        <time>2022-08-11T08:20:26Z</time>
      </trkpt>
      <trkpt lat="44.91729" lon="0.7409">
        <ele>163.5</ele>
        <time>2022-08-11T08:20:30Z</time>
      </trkpt>
      <trkpt lat="44.91725" lon="0.74093">
        <ele>163.5</ele>
        <time>2022-08-11T08:20:33Z</time>
      </trkpt>
      <trkpt lat="44.9172" lon="0.74097">
        <ele>163.5</ele>
        <time>2022-08-11T08:20:36Z</time>
      </trkpt>
      <trkpt lat="44.91717" lon="0.74101">
        <ele>164.5</ele>
        <time>2022-08-11T08:20:39Z</time>
      </trkpt>
      <trkpt lat="44.91713" lon="0.74105">
        <ele>164.5</ele>
        <time>2022-08-11T08:20:42Z</time>
      </trkpt>
      <trkpt lat="44.91708" lon="0.74108">
        <ele>165.5</ele>
        <time>2022-08-11T08:20:45Z</time>
      </trkpt>
      <trkpt lat="44.91701" lon="0.7411">
        <ele>164.5</ele>
        <time>2022-08-11T08:20:48Z</time>
      </trkpt>
      <trkpt lat="44.91696" lon="0.7411">
        <ele>164.5</ele>
        <time>2022-08-11T08:20:50Z</time>
      </trkpt>
      <trkpt lat="44.9169" lon="0.74112">
        <ele>163.5</ele>
        <time>2022-08-11T08:20:53Z</time>
      </trkpt>
      <trkpt lat="44.91686" lon="0.74114">
        <ele>164.5</ele>
        <time>2022-08-11T08:22:03Z</time>
      </trkpt>
      <trkpt lat="44.91681" lon="0.74115">
        <ele>163.5</ele>
        <time>2022-08-11T08:22:06Z</time>
      </trkpt>
      <trkpt lat="44.91674" lon="0.74116">
        <ele>163.5</ele>
        <time>2022-08-11T08:22:09Z</time>
      </trkpt>
      <trkpt lat="44.91669" lon="0.74118">
        <ele>162.5</ele>
        <time>2022-08-11T08:22:11Z</time>
      </trkpt>
      <trkpt lat="44.91662" lon="0.7412">
        <ele>161.5</ele>
        <time>2022-08-11T08:22:13Z</time>
      </trkpt>
      <trkpt lat="44.91655" lon="0.74121">
        <ele>161.5</ele>
        <time>2022-08-11T08:22:15Z</time>
      </trkpt>
      <trkpt lat="44.91647" lon="0.74124">
        <ele>160.5</ele>
        <time>2022-08-11T08:22:17Z</time>
      </trkpt>
      <trkpt lat="44.91641" lon="0.74128">
        <ele>160.5</ele>
        <time>2022-08-11T08:22:19Z</time>
      </trkpt>
      <trkpt lat="44.91636" lon="0.74136">
        <ele>160.5</ele>
        <time>2022-08-11T08:22:21Z</time>
      </trkpt>
      <trkpt lat="44.91629" lon="0.74144">
        <ele>159.5</ele>
        <time>2022-08-11T08:22:23Z</time>
      </trkpt>
      <trkpt lat="44.91625" lon="0.74148">
        <ele>159.5</ele>
        <time>2022-08-11T08:22:24Z</time>
      </trkpt>
      <trkpt lat="44.9162" lon="0.74153">
        <ele>159.5</ele>
        <time>2022-08-11T08:22:25Z</time>
      </trkpt>
      <trkpt lat="44.91614" lon="0.74156">
        <ele>159.5</ele>
        <time>2022-08-11T08:22:26Z</time>
      </trkpt>
      <trkpt lat="44.91607" lon="0.74159">
        <ele>159.5</ele>
        <time>2022-08-11T08:22:27Z</time>
      </trkpt>
      <trkpt lat="44.91602" lon="0.74162">
        <ele>159.5</ele>
        <time>2022-08-11T08:22:28Z</time>
      </trkpt>
      <trkpt lat="44.91596" lon="0.74163">
        <ele>158.5</ele>
        <time>2022-08-11T08:22:29Z</time>
      </trkpt>
      <trkpt lat="44.91591" lon="0.74165">
        <ele>158.5</ele>
        <time>2022-08-11T08:22:30Z</time>
      </trkpt>
      <trkpt lat="44.91586" lon="0.74167">
        <ele>156.5</ele>
        <time>2022-08-11T08:22:31Z</time>
      </trkpt>
      <trkpt lat="44.91582" lon="0.74167">
        <ele>155.5</ele>
        <time>2022-08-11T08:22:32Z</time>
      </trkpt>
      <trkpt lat="44.91576" lon="0.74166">
        <ele>154.5</ele>
        <time>2022-08-11T08:22:33Z</time>
      </trkpt>
      <trkpt lat="44.9157" lon="0.74165">
        <ele>154.5</ele>
        <time>2022-08-11T08:22:34Z</time>
      </trkpt>
      <trkpt lat="44.91564" lon="0.74161">
        <ele>153.5</ele>
        <time>2022-08-11T08:22:35Z</time>
      </trkpt>
      <trkpt lat="44.91558" lon="0.74156">
        <ele>153.5</ele>
        <time>2022-08-11T08:22:36Z</time>
      </trkpt>
      <trkpt lat="44.91552" lon="0.74151">
        <ele>153.5</ele>
        <time>2022-08-11T08:22:37Z</time>
      </trkpt>
      <trkpt lat="44.91547" lon="0.74146">
        <ele>152.5</ele>
        <time>2022-08-11T08:22:38Z</time>
      </trkpt>
      <trkpt lat="44.91542" lon="0.74142">
        <ele>152.5</ele>
        <time>2022-08-11T08:22:39Z</time>
      </trkpt>
      <trkpt lat="44.91537" lon="0.74137">
        <ele>151.5</ele>
        <time>2022-08-11T08:22:41Z</time>
      </trkpt>
      <trkpt lat="44.91532" lon="0.7414">
        <ele>154.5</ele>
        <time>2022-08-11T08:23:13Z</time>
      </trkpt>
      <trkpt lat="44.91527" lon="0.74141">
        <ele>154.5</ele>
        <time>2022-08-11T08:23:36Z</time>
      </trkpt>
      <trkpt lat="44.91521" lon="0.74138">
        <ele>161.5</ele>
        <time>2022-08-11T08:31:44Z</time>
      </trkpt>
      <trkpt lat="44.91516" lon="0.74132">
        <ele>160.5</ele>
        <time>2022-08-11T08:31:46Z</time>
      </trkpt>
      <trkpt lat="44.91509" lon="0.74124">
        <ele>160.5</ele>
        <time>2022-08-11T08:31:48Z</time>
      </trkpt>
      <trkpt lat="44.91505" lon="0.74119">
        <ele>159.5</ele>
        <time>2022-08-11T08:31:49Z</time>
      </trkpt>
      <trkpt lat="44.91501" lon="0.74114">
        <ele>159.5</ele>
        <time>2022-08-11T08:31:50Z</time>
      </trkpt>
      <trkpt lat="44.91496" lon="0.74108">
        <ele>158.5</ele>
        <time>2022-08-11T08:31:51Z</time>
      </trkpt>
      <trkpt lat="44.91492" lon="0.74103">
        <ele>158.5</ele>
        <time>2022-08-11T08:31:52Z</time>
      </trkpt>
      <trkpt lat="44.91487" lon="0.74097">
        <ele>157.5</ele>
        <time>2022-08-11T08:31:53Z</time>
      </trkpt>
      <trkpt lat="44.91482" lon="0.74091">
        <ele>157.5</ele>
        <time>2022-08-11T08:31:54Z</time>
      </trkpt>
      <trkpt lat="44.91477" lon="0.74086">
        <ele>157.5</ele>
        <time>2022-08-11T08:31:55Z</time>
      </trkpt>
      <trkpt lat="44.91473" lon="0.7408">
        <ele>157.5</ele>
        <time>2022-08-11T08:31:56Z</time>
      </trkpt>
      <trkpt lat="44.91469" lon="0.74075">
        <ele>157.5</ele>
        <time>2022-08-11T08:31:57Z</time>
      </trkpt>
      <trkpt lat="44.91466" lon="0.7407">
        <ele>157.5</ele>
        <time>2022-08-11T08:31:58Z</time>
      </trkpt>
      <trkpt lat="44.91462" lon="0.74065">
        <ele>157.5</ele>
        <time>2022-08-11T08:31:59Z</time>
      </trkpt>
      <trkpt lat="44.91459" lon="0.7406">
        <ele>157.5</ele>
        <time>2022-08-11T08:32:00Z</time>
      </trkpt>
      <trkpt lat="44.91455" lon="0.74055">
        <ele>156.5</ele>
        <time>2022-08-11T08:32:01Z</time>
      </trkpt>
      <trkpt lat="44.91451" lon="0.7405">
        <ele>156.5</ele>
        <time>2022-08-11T08:32:02Z</time>
      </trkpt>
      <trkpt lat="44.91447" lon="0.74044">
        <ele>155.5</ele>
        <time>2022-08-11T08:32:03Z</time>
      </trkpt>
      <trkpt lat="44.91442" lon="0.74039">
        <ele>155.5</ele>
        <time>2022-08-11T08:32:04Z</time>
      </trkpt>
      <trkpt lat="44.91436" lon="0.74036">
        <ele>154.5</ele>
        <time>2022-08-11T08:32:05Z</time>
      </trkpt>
      <trkpt lat="44.9143" lon="0.74033">
        <ele>154.5</ele>
        <time>2022-08-11T08:32:06Z</time>
      </trkpt>
      <trkpt lat="44.91424" lon="0.7403">
        <ele>153.5</ele>
        <time>2022-08-11T08:32:07Z</time>
      </trkpt>
      <trkpt lat="44.91418" lon="0.74027">
        <ele>153.5</ele>
        <time>2022-08-11T08:32:08Z</time>
      </trkpt>
      <trkpt lat="44.91411" lon="0.74023">
        <ele>153.5</ele>
        <time>2022-08-11T08:32:09Z</time>
      </trkpt>
      <trkpt lat="44.91405" lon="0.74019">
        <ele>152.5</ele>
        <time>2022-08-11T08:32:10Z</time>
      </trkpt>
      <trkpt lat="44.91399" lon="0.74016">
        <ele>152.5</ele>
        <time>2022-08-11T08:32:11Z</time>
      </trkpt>
      <trkpt lat="44.91393" lon="0.74011">
        <ele>152.5</ele>
        <time>2022-08-11T08:32:12Z</time>
      </trkpt>
      <trkpt lat="44.91387" lon="0.74007">
        <ele>151.5</ele>
        <time>2022-08-11T08:32:13Z</time>
      </trkpt>
      <trkpt lat="44.91381" lon="0.74003">
        <ele>151.5</ele>
        <time>2022-08-11T08:32:14Z</time>
      </trkpt>
      <trkpt lat="44.91374" lon="0.73999">
        <ele>150.5</ele>
        <time>2022-08-11T08:32:15Z</time>
      </trkpt>
      <trkpt lat="44.91367" lon="0.73995">
        <ele>149.5</ele>
        <time>2022-08-11T08:32:16Z</time>
      </trkpt>
      <trkpt lat="44.91361" lon="0.73992">
        <ele>149.5</ele>
        <time>2022-08-11T08:32:17Z</time>
      </trkpt>
      <trkpt lat="44.91356" lon="0.73989">
        <ele>148.5</ele>
        <time>2022-08-11T08:32:18Z</time>
      </trkpt>
      <trkpt lat="44.91351" lon="0.73986">
        <ele>148.5</ele>
        <time>2022-08-11T08:32:19Z</time>
      </trkpt>
      <trkpt lat="44.91347" lon="0.73984">
        <ele>148.5</ele>
        <time>2022-08-11T08:32:20Z</time>
      </trkpt>
      <trkpt lat="44.91338" lon="0.73982">
        <ele>147.5</ele>
        <time>2022-08-11T08:32:22Z</time>
      </trkpt>
      <trkpt lat="44.91333" lon="0.73981">
        <ele>146.5</ele>
        <time>2022-08-11T08:32:23Z</time>
      </trkpt>
      <trkpt lat="44.91328" lon="0.73978">
        <ele>145.5</ele>
        <time>2022-08-11T08:32:24Z</time>
      </trkpt>
      <trkpt lat="44.91324" lon="0.73975">
        <ele>145.5</ele>
        <time>2022-08-11T08:32:25Z</time>
      </trkpt>
      <trkpt lat="44.91318" lon="0.73973">
        <ele>145.5</ele>
        <time>2022-08-11T08:32:26Z</time>
      </trkpt>
      <trkpt lat="44.91312" lon="0.73972">
        <ele>145.5</ele>
        <time>2022-08-11T08:32:27Z</time>
      </trkpt>
      <trkpt lat="44.91307" lon="0.73971">
        <ele>145.5</ele>
        <time>2022-08-11T08:32:28Z</time>
      </trkpt>
      <trkpt lat="44.91301" lon="0.73968">
        <ele>145.5</ele>
        <time>2022-08-11T08:32:29Z</time>
      </trkpt>
      <trkpt lat="44.91296" lon="0.73965">
        <ele>146.5</ele>
        <time>2022-08-11T08:32:30Z</time>
      </trkpt>
      <trkpt lat="44.9129" lon="0.73963">
        <ele>146.5</ele>
        <time>2022-08-11T08:32:31Z</time>
      </trkpt>
      <trkpt lat="44.91284" lon="0.73961">
        <ele>146.5</ele>
        <time>2022-08-11T08:32:32Z</time>
      </trkpt>
      <trkpt lat="44.91279" lon="0.73958">
        <ele>146.5</ele>
        <time>2022-08-11T08:32:33Z</time>
      </trkpt>
      <trkpt lat="44.91273" lon="0.73956">
        <ele>146.5</ele>
        <time>2022-08-11T08:32:34Z</time>
      </trkpt>
      <trkpt lat="44.91267" lon="0.73953">
        <ele>146.5</ele>
        <time>2022-08-11T08:32:35Z</time>
      </trkpt>
      <trkpt lat="44.91261" lon="0.73952">
        <ele>146.5</ele>
        <time>2022-08-11T08:32:36Z</time>
      </trkpt>
      <trkpt lat="44.91255" lon="0.7395">
        <ele>147.5</ele>
        <time>2022-08-11T08:32:37Z</time>
      </trkpt>
      <trkpt lat="44.91248" lon="0.73948">
        <ele>147.5</ele>
        <time>2022-08-11T08:32:38Z</time>
      </trkpt>
      <trkpt lat="44.91242" lon="0.73947">
        <ele>147.5</ele>
        <time>2022-08-11T08:32:39Z</time>
      </trkpt>
      <trkpt lat="44.91235" lon="0.73947">
        <ele>146.5</ele>
        <time>2022-08-11T08:32:40Z</time>
      </trkpt>
      <trkpt lat="44.91229" lon="0.73947">
        <ele>145.5</ele>
        <time>2022-08-11T08:32:41Z</time>
      </trkpt>
      <trkpt lat="44.91223" lon="0.73946">
        <ele>145.5</ele>
        <time>2022-08-11T08:32:42Z</time>
      </trkpt>
      <trkpt lat="44.91217" lon="0.73946">
        <ele>145.5</ele>
        <time>2022-08-11T08:32:43Z</time>
      </trkpt>
      <trkpt lat="44.91211" lon="0.73945">
        <ele>145.5</ele>
        <time>2022-08-11T08:32:44Z</time>
      </trkpt>
      <trkpt lat="44.91204" lon="0.73945">
        <ele>144.5</ele>
        <time>2022-08-11T08:32:45Z</time>
      </trkpt>
      <trkpt lat="44.91197" lon="0.73946">
        <ele>143.5</ele>
        <time>2022-08-11T08:32:46Z</time>
      </trkpt>
      <trkpt lat="44.91191" lon="0.73948">
        <ele>143.5</ele>
        <time>2022-08-11T08:32:47Z</time>
      </trkpt>
      <trkpt lat="44.91185" lon="0.73949">
        <ele>143.5</ele>
        <time>2022-08-11T08:32:48Z</time>
      </trkpt>
      <trkpt lat="44.91179" lon="0.73951">
        <ele>143.5</ele>
        <time>2022-08-11T08:32:49Z</time>
      </trkpt>
      <trkpt lat="44.91175" lon="0.73954">
        <ele>142.5</ele>
        <time>2022-08-11T08:32:50Z</time>
      </trkpt>
      <trkpt lat="44.9117" lon="0.73957">
        <ele>141.5</ele>
        <time>2022-08-11T08:32:51Z</time>
      </trkpt>
      <trkpt lat="44.91163" lon="0.7396">
        <ele>140.5</ele>
        <time>2022-08-11T08:32:53Z</time>
      </trkpt>
      <trkpt lat="44.91159" lon="0.73955">
        <ele>139.5</ele>
        <time>2022-08-11T08:32:56Z</time>
      </trkpt>
      <trkpt lat="44.91162" lon="0.73961">
        <ele>141.5</ele>
        <time>2022-08-11T08:33:30Z</time>
      </trkpt>
      <trkpt lat="44.91162" lon="0.73971">
        <ele>141.5</ele>
        <time>2022-08-11T08:33:33Z</time>
      </trkpt>
      <trkpt lat="44.91162" lon="0.7398">
        <ele>141.5</ele>
        <time>2022-08-11T08:33:35Z</time>
      </trkpt>
      <trkpt lat="44.91163" lon="0.73989">
        <ele>141.5</ele>
        <time>2022-08-11T08:33:37Z</time>
      </trkpt>
      <trkpt lat="44.91165" lon="0.73998">
        <ele>140.5</ele>
        <time>2022-08-11T08:33:39Z</time>
      </trkpt>
      <trkpt lat="44.91166" lon="0.74008">
        <ele>140.5</ele>
        <time>2022-08-11T08:33:41Z</time>
      </trkpt>
      <trkpt lat="44.91167" lon="0.74019">
        <ele>140.5</ele>
        <time>2022-08-11T08:33:43Z</time>
      </trkpt>
      <trkpt lat="44.91168" lon="0.7403">
        <ele>139.5</ele>
        <time>2022-08-11T08:33:45Z</time>
      </trkpt>
      <trkpt lat="44.91168" lon="0.74042">
        <ele>139.5</ele>
        <time>2022-08-11T08:33:47Z</time>
      </trkpt>
      <trkpt lat="44.91169" lon="0.74051">
        <ele>138.5</ele>
        <time>2022-08-11T08:33:49Z</time>
      </trkpt>
      <trkpt lat="44.91169" lon="0.74061">
        <ele>138.5</ele>
        <time>2022-08-11T08:33:51Z</time>
      </trkpt>
      <trkpt lat="44.91169" lon="0.74069">
        <ele>138.5</ele>
        <time>2022-08-11T08:33:53Z</time>
      </trkpt>
      <trkpt lat="44.91169" lon="0.74076">
        <ele>136.5</ele>
        <time>2022-08-11T08:34:08Z</time>
      </trkpt>
      <trkpt lat="44.91169" lon="0.74082">
        <ele>135.5</ele>
        <time>2022-08-11T08:34:10Z</time>
      </trkpt>
      <trkpt lat="44.9117" lon="0.7409">
        <ele>135.5</ele>
        <time>2022-08-11T08:34:12Z</time>
      </trkpt>
      <trkpt lat="44.91171" lon="0.74099">
        <ele>134.5</ele>
        <time>2022-08-11T08:34:14Z</time>
      </trkpt>
      <trkpt lat="44.9117" lon="0.7411">
        <ele>134.5</ele>
        <time>2022-08-11T08:34:16Z</time>
      </trkpt>
      <trkpt lat="44.91169" lon="0.74122">
        <ele>133.5</ele>
        <time>2022-08-11T08:34:18Z</time>
      </trkpt>
      <trkpt lat="44.91167" lon="0.74136">
        <ele>133.5</ele>
        <time>2022-08-11T08:34:20Z</time>
      </trkpt>
      <trkpt lat="44.91164" lon="0.74148">
        <ele>132.5</ele>
        <time>2022-08-11T08:34:22Z</time>
      </trkpt>
      <trkpt lat="44.91163" lon="0.74154">
        <ele>130.5</ele>
        <time>2022-08-11T08:34:23Z</time>
      </trkpt>
      <trkpt lat="44.9116" lon="0.74163">
        <ele>130.5</ele>
        <time>2022-08-11T08:34:25Z</time>
      </trkpt>
      <trkpt lat="44.91158" lon="0.74171">
        <ele>130.5</ele>
        <time>2022-08-11T08:34:27Z</time>
      </trkpt>
      <trkpt lat="44.91156" lon="0.7418">
        <ele>130.5</ele>
        <time>2022-08-11T08:34:29Z</time>
      </trkpt>
      <trkpt lat="44.91152" lon="0.7419">
        <ele>130.5</ele>
        <time>2022-08-11T08:34:31Z</time>
      </trkpt>
      <trkpt lat="44.91149" lon="0.74199">
        <ele>129.5</ele>
        <time>2022-08-11T08:34:33Z</time>
      </trkpt>
      <trkpt lat="44.91146" lon="0.7421">
        <ele>128.5</ele>
        <time>2022-08-11T08:34:35Z</time>
      </trkpt>
      <trkpt lat="44.91143" lon="0.74221">
        <ele>128.5</ele>
        <time>2022-08-11T08:34:37Z</time>
      </trkpt>
      <trkpt lat="44.91143" lon="0.74228">
        <ele>128.5</ele>
        <time>2022-08-11T08:34:39Z</time>
      </trkpt>
      <trkpt lat="44.91142" lon="0.74235">
        <ele>128.5</ele>
        <time>2022-08-11T08:34:41Z</time>
      </trkpt>
      <trkpt lat="44.91142" lon="0.74243">
        <ele>128.5</ele>
        <time>2022-08-11T08:34:43Z</time>
      </trkpt>
      <trkpt lat="44.91141" lon="0.74252">
        <ele>129.5</ele>
        <time>2022-08-11T08:34:45Z</time>
      </trkpt>
      <trkpt lat="44.91139" lon="0.74259">
        <ele>129.5</ele>
        <time>2022-08-11T08:34:47Z</time>
      </trkpt>
      <trkpt lat="44.91135" lon="0.74267">
        <ele>129.5</ele>
        <time>2022-08-11T08:34:49Z</time>
      </trkpt>
      <trkpt lat="44.91132" lon="0.74275">
        <ele>129.5</ele>
        <time>2022-08-11T08:34:51Z</time>
      </trkpt>
      <trkpt lat="44.91128" lon="0.74284">
        <ele>130.5</ele>
        <time>2022-08-11T08:34:53Z</time>
      </trkpt>
      <trkpt lat="44.91125" lon="0.74293">
        <ele>130.5</ele>
        <time>2022-08-11T08:34:55Z</time>
      </trkpt>
      <trkpt lat="44.91121" lon="0.74304">
        <ele>130.5</ele>
        <time>2022-08-11T08:34:57Z</time>
      </trkpt>
      <trkpt lat="44.91118" lon="0.7431">
        <ele>129.5</ele>
        <time>2022-08-11T08:34:58Z</time>
      </trkpt>
      <trkpt lat="44.91114" lon="0.74319">
        <ele>129.5</ele>
        <time>2022-08-11T08:35:00Z</time>
      </trkpt>
      <trkpt lat="44.91108" lon="0.74332">
        <ele>130.5</ele>
        <time>2022-08-11T08:35:03Z</time>
      </trkpt>
      <trkpt lat="44.91104" lon="0.7434">
        <ele>130.5</ele>
        <time>2022-08-11T08:35:05Z</time>
      </trkpt>
      <trkpt lat="44.91099" lon="0.74352">
        <ele>130.5</ele>
        <time>2022-08-11T08:35:07Z</time>
      </trkpt>
      <trkpt lat="44.91096" lon="0.74361">
        <ele>130.5</ele>
        <time>2022-08-11T08:35:09Z</time>
      </trkpt>
      <trkpt lat="44.91092" lon="0.7437">
        <ele>130.5</ele>
        <time>2022-08-11T08:35:11Z</time>
      </trkpt>
      <trkpt lat="44.91089" lon="0.7438">
        <ele>130.5</ele>
        <time>2022-08-11T08:35:13Z</time>
      </trkpt>
      <trkpt lat="44.91085" lon="0.74388">
        <ele>131.5</ele>
        <time>2022-08-11T08:35:15Z</time>
      </trkpt>
      <trkpt lat="44.91081" lon="0.74396">
        <ele>131.5</ele>
        <time>2022-08-11T08:35:17Z</time>
      </trkpt>
      <trkpt lat="44.91078" lon="0.74405">
        <ele>131.5</ele>
        <time>2022-08-11T08:35:19Z</time>
      </trkpt>
      <trkpt lat="44.91073" lon="0.74415">
        <ele>131.5</ele>
        <time>2022-08-11T08:35:21Z</time>
      </trkpt>
      <trkpt lat="44.91068" lon="0.74426">
        <ele>132.5</ele>
        <time>2022-08-11T08:35:23Z</time>
      </trkpt>
      <trkpt lat="44.91066" lon="0.74432">
        <ele>132.5</ele>
        <time>2022-08-11T08:35:24Z</time>
      </trkpt>
      <trkpt lat="44.91062" lon="0.74441">
        <ele>133.5</ele>
        <time>2022-08-11T08:35:26Z</time>
      </trkpt>
      <trkpt lat="44.91057" lon="0.74448">
        <ele>133.5</ele>
        <time>2022-08-11T08:35:28Z</time>
      </trkpt>
      <trkpt lat="44.91049" lon="0.7445">
        <ele>134.5</ele>
        <time>2022-08-11T08:35:30Z</time>
      </trkpt>
      <trkpt lat="44.91043" lon="0.74452">
        <ele>135.5</ele>
        <time>2022-08-11T08:35:31Z</time>
      </trkpt>
      <trkpt lat="44.91037" lon="0.74452">
        <ele>137.5</ele>
        <time>2022-08-11T08:35:32Z</time>
      </trkpt>
      <trkpt lat="44.9103" lon="0.74454">
        <ele>138.5</ele>
        <time>2022-08-11T08:35:33Z</time>
      </trkpt>
      <trkpt lat="44.91024" lon="0.74453">
        <ele>138.5</ele>
        <time>2022-08-11T08:35:34Z</time>
      </trkpt>
      <trkpt lat="44.91019" lon="0.74451">
        <ele>138.5</ele>
        <time>2022-08-11T08:35:35Z</time>
      </trkpt>
      <trkpt lat="44.91012" lon="0.7445">
        <ele>139.5</ele>
        <time>2022-08-11T08:35:37Z</time>
      </trkpt>
      <trkpt lat="44.91008" lon="0.74453">
        <ele>139.5</ele>
        <time>2022-08-11T08:35:39Z</time>
      </trkpt>
      <trkpt lat="44.91004" lon="0.74461">
        <ele>139.5</ele>
        <time>2022-08-11T08:35:42Z</time>
      </trkpt>
      <trkpt lat="44.91002" lon="0.74468">
        <ele>140.5</ele>
        <time>2022-08-11T08:35:44Z</time>
      </trkpt>
      <trkpt lat="44.91" lon="0.74475">
        <ele>140.5</ele>
        <time>2022-08-11T08:35:46Z</time>
      </trkpt>
      <trkpt lat="44.90997" lon="0.7448">
        <ele>140.5</ele>
        <time>2022-08-11T08:35:48Z</time>
      </trkpt>
      <trkpt lat="44.90993" lon="0.74485">
        <ele>141.5</ele>
        <time>2022-08-11T08:35:50Z</time>
      </trkpt>
      <trkpt lat="44.90988" lon="0.7449">
        <ele>140.5</ele>
        <time>2022-08-11T08:35:52Z</time>
      </trkpt>
      <trkpt lat="44.90984" lon="0.74494">
        <ele>140.5</ele>
        <time>2022-08-11T08:35:54Z</time>
      </trkpt>
      <trkpt lat="44.9098" lon="0.74499">
        <ele>139.5</ele>
        <time>2022-08-11T08:35:56Z</time>
      </trkpt>
      <trkpt lat="44.90976" lon="0.74504">
        <ele>139.5</ele>
        <time>2022-08-11T08:35:58Z</time>
      </trkpt>
      <trkpt lat="44.90972" lon="0.74508">
        <ele>139.5</ele>
        <time>2022-08-11T08:36:00Z</time>
      </trkpt>
      <trkpt lat="44.90968" lon="0.74512">
        <ele>139.5</ele>
        <time>2022-08-11T08:36:02Z</time>
      </trkpt>
      <trkpt lat="44.90964" lon="0.74517">
        <ele>139.5</ele>
        <time>2022-08-11T08:36:04Z</time>
      </trkpt>
      <trkpt lat="44.90961" lon="0.74522">
        <ele>138.5</ele>
        <time>2022-08-11T08:36:06Z</time>
      </trkpt>
      <trkpt lat="44.90957" lon="0.74529">
        <ele>138.5</ele>
        <time>2022-08-11T08:36:09Z</time>
      </trkpt>
      <trkpt lat="44.90949" lon="0.74536">
        <ele>138.5</ele>
        <time>2022-08-11T08:36:13Z</time>
      </trkpt>
      <trkpt lat="44.90945" lon="0.74539">
        <ele>137.5</ele>
        <time>2022-08-11T08:36:15Z</time>
      </trkpt>
      <trkpt lat="44.90939" lon="0.74548">
        <ele>137.5</ele>
        <time>2022-08-11T08:36:18Z</time>
      </trkpt>
      <trkpt lat="44.90934" lon="0.74554">
        <ele>137.5</ele>
        <time>2022-08-11T08:36:21Z</time>
      </trkpt>
      <trkpt lat="44.9093" lon="0.74559">
        <ele>137.5</ele>
        <time>2022-08-11T08:36:23Z</time>
      </trkpt>
      <trkpt lat="44.90926" lon="0.74564">
        <ele>136.5</ele>
        <time>2022-08-11T08:36:25Z</time>
      </trkpt>
      <trkpt lat="44.90922" lon="0.74568">
        <ele>137.5</ele>
        <time>2022-08-11T08:36:27Z</time>
      </trkpt>
      <trkpt lat="44.90916" lon="0.74573">
        <ele>137.5</ele>
        <time>2022-08-11T08:36:30Z</time>
      </trkpt>
      <trkpt lat="44.90912" lon="0.74579">
        <ele>136.5</ele>
        <time>2022-08-11T08:36:33Z</time>
      </trkpt>
      <trkpt lat="44.90908" lon="0.74583">
        <ele>136.5</ele>
        <time>2022-08-11T08:36:35Z</time>
      </trkpt>
      <trkpt lat="44.90905" lon="0.74588">
        <ele>136.5</ele>
        <time>2022-08-11T08:36:37Z</time>
      </trkpt>
      <trkpt lat="44.90901" lon="0.74594">
        <ele>136.5</ele>
        <time>2022-08-11T08:36:39Z</time>
      </trkpt>
      <trkpt lat="44.90897" lon="0.74601">
        <ele>135.5</ele>
        <time>2022-08-11T08:36:41Z</time>
      </trkpt>
      <trkpt lat="44.90892" lon="0.74606">
        <ele>135.5</ele>
        <time>2022-08-11T08:36:43Z</time>
      </trkpt>
      <trkpt lat="44.90888" lon="0.7461">
        <ele>135.5</ele>
        <time>2022-08-11T08:36:45Z</time>
      </trkpt>
      <trkpt lat="44.90884" lon="0.74616">
        <ele>135.5</ele>
        <time>2022-08-11T08:36:47Z</time>
      </trkpt>
      <trkpt lat="44.90878" lon="0.7462">
        <ele>135.5</ele>
        <time>2022-08-11T08:36:49Z</time>
      </trkpt>
      <trkpt lat="44.9087" lon="0.74621">
        <ele>135.5</ele>
        <time>2022-08-11T08:36:51Z</time>
      </trkpt>
      <trkpt lat="44.90864" lon="0.7462">
        <ele>136.5</ele>
        <time>2022-08-11T08:36:52Z</time>
      </trkpt>
      <trkpt lat="44.90858" lon="0.74619">
        <ele>135.5</ele>
        <time>2022-08-11T08:36:53Z</time>
      </trkpt>
      <trkpt lat="44.90851" lon="0.74618">
        <ele>137.5</ele>
        <time>2022-08-11T08:36:54Z</time>
      </trkpt>
      <trkpt lat="44.90846" lon="0.74615">
        <ele>137.5</ele>
        <time>2022-08-11T08:36:55Z</time>
      </trkpt>
      <trkpt lat="44.90838" lon="0.74612">
        <ele>137.5</ele>
        <time>2022-08-11T08:36:57Z</time>
      </trkpt>
      <trkpt lat="44.9083" lon="0.74611">
        <ele>137.5</ele>
        <time>2022-08-11T08:36:59Z</time>
      </trkpt>
      <trkpt lat="44.90823" lon="0.74609">
        <ele>138.5</ele>
        <time>2022-08-11T08:37:01Z</time>
      </trkpt>
      <trkpt lat="44.90816" lon="0.74606">
        <ele>137.5</ele>
        <time>2022-08-11T08:37:03Z</time>
      </trkpt>
      <trkpt lat="44.90808" lon="0.74604">
        <ele>137.5</ele>
        <time>2022-08-11T08:37:05Z</time>
      </trkpt>
      <trkpt lat="44.90797" lon="0.74601">
        <ele>139.5</ele>
        <time>2022-08-11T08:37:08Z</time>
      </trkpt>
      <trkpt lat="44.9079" lon="0.74599">
        <ele>139.5</ele>
        <time>2022-08-11T08:37:10Z</time>
      </trkpt>
      <trkpt lat="44.90783" lon="0.74598">
        <ele>140.5</ele>
        <time>2022-08-11T08:37:12Z</time>
      </trkpt>
      <trkpt lat="44.90776" lon="0.74596">
        <ele>140.5</ele>
        <time>2022-08-11T08:37:14Z</time>
      </trkpt>
      <trkpt lat="44.90771" lon="0.74595">
        <ele>140.5</ele>
        <time>2022-08-11T08:37:15Z</time>
      </trkpt>
      <trkpt lat="44.90763" lon="0.74594">
        <ele>140.5</ele>
        <time>2022-08-11T08:37:17Z</time>
      </trkpt>
      <trkpt lat="44.90759" lon="0.74597">
        <ele>141.5</ele>
        <time>2022-08-11T08:37:21Z</time>
      </trkpt>
      <trkpt lat="44.90757" lon="0.74602">
        <ele>141.5</ele>
        <time>2022-08-11T08:37:47Z</time>
      </trkpt>
      <trkpt lat="44.90752" lon="0.74602">
        <ele>143.5</ele>
        <time>2022-08-11T08:38:06Z</time>
      </trkpt>
      <trkpt lat="44.90747" lon="0.74602">
        <ele>144.5</ele>
        <time>2022-08-11T08:38:09Z</time>
      </trkpt>
      <trkpt lat="44.90742" lon="0.74599">
        <ele>143.5</ele>
        <time>2022-08-11T08:38:11Z</time>
      </trkpt>
      <trkpt lat="44.90736" lon="0.74597">
        <ele>144.5</ele>
        <time>2022-08-11T08:38:13Z</time>
      </trkpt>
      <trkpt lat="44.9073" lon="0.74595">
        <ele>145.5</ele>
        <time>2022-08-11T08:38:15Z</time>
      </trkpt>
      <trkpt lat="44.90725" lon="0.74593">
        <ele>145.5</ele>
        <time>2022-08-11T08:38:17Z</time>
      </trkpt>
      <trkpt lat="44.90719" lon="0.74593">
        <ele>146.5</ele>
        <time>2022-08-11T08:38:19Z</time>
      </trkpt>
      <trkpt lat="44.90713" lon="0.74594">
        <ele>146.5</ele>
        <time>2022-08-11T08:38:21Z</time>
      </trkpt>
      <trkpt lat="44.90707" lon="0.74593">
        <ele>147.5</ele>
        <time>2022-08-11T08:38:23Z</time>
      </trkpt>
      <trkpt lat="44.90701" lon="0.74592">
        <ele>147.5</ele>
        <time>2022-08-11T08:38:25Z</time>
      </trkpt>
      <trkpt lat="44.90692" lon="0.74591">
        <ele>148.5</ele>
        <time>2022-08-11T08:38:28Z</time>
      </trkpt>
      <trkpt lat="44.90687" lon="0.7459">
        <ele>149.5</ele>
        <time>2022-08-11T08:38:30Z</time>
      </trkpt>
      <trkpt lat="44.90678" lon="0.7459">
        <ele>150.5</ele>
        <time>2022-08-11T08:38:33Z</time>
      </trkpt>
      <trkpt lat="44.90673" lon="0.74589">
        <ele>150.5</ele>
        <time>2022-08-11T08:38:35Z</time>
      </trkpt>
      <trkpt lat="44.90667" lon="0.7459">
        <ele>150.5</ele>
        <time>2022-08-11T08:38:37Z</time>
      </trkpt>
      <trkpt lat="44.90661" lon="0.74591">
        <ele>150.5</ele>
        <time>2022-08-11T08:38:39Z</time>
      </trkpt>
      <trkpt lat="44.90654" lon="0.74591">
        <ele>151.5</ele>
        <time>2022-08-11T08:38:41Z</time>
      </trkpt>
      <trkpt lat="44.90648" lon="0.74591">
        <ele>151.5</ele>
        <time>2022-08-11T08:38:43Z</time>
      </trkpt>
      <trkpt lat="44.90642" lon="0.74591">
        <ele>152.5</ele>
        <time>2022-08-11T08:38:45Z</time>
      </trkpt>
      <trkpt lat="44.90635" lon="0.74591">
        <ele>152.5</ele>
        <time>2022-08-11T08:38:47Z</time>
      </trkpt>
      <trkpt lat="44.90628" lon="0.7459">
        <ele>152.5</ele>
        <time>2022-08-11T08:38:49Z</time>
      </trkpt>
      <trkpt lat="44.90622" lon="0.74589">
        <ele>152.5</ele>
        <time>2022-08-11T08:38:51Z</time>
      </trkpt>
      <trkpt lat="44.90617" lon="0.74588">
        <ele>152.5</ele>
        <time>2022-08-11T08:38:53Z</time>
      </trkpt>
      <trkpt lat="44.90611" lon="0.74586">
        <ele>152.5</ele>
        <time>2022-08-11T08:38:55Z</time>
      </trkpt>
      <trkpt lat="44.90604" lon="0.74584">
        <ele>153.5</ele>
        <time>2022-08-11T08:38:57Z</time>
      </trkpt>
      <trkpt lat="44.90598" lon="0.74582">
        <ele>153.5</ele>
        <time>2022-08-11T08:38:59Z</time>
      </trkpt>
      <trkpt lat="44.90591" lon="0.74579">
        <ele>153.5</ele>
        <time>2022-08-11T08:39:01Z</time>
      </trkpt>
      <trkpt lat="44.90585" lon="0.74577">
        <ele>154.5</ele>
        <time>2022-08-11T08:39:03Z</time>
      </trkpt>
      <trkpt lat="44.90579" lon="0.74575">
        <ele>154.5</ele>
        <time>2022-08-11T08:39:05Z</time>
      </trkpt>
      <trkpt lat="44.90573" lon="0.74573">
        <ele>154.5</ele>
        <time>2022-08-11T08:39:07Z</time>
      </trkpt>
      <trkpt lat="44.90567" lon="0.74571">
        <ele>153.5</ele>
        <time>2022-08-11T08:39:09Z</time>
      </trkpt>
      <trkpt lat="44.9056" lon="0.74569">
        <ele>153.5</ele>
        <time>2022-08-11T08:39:11Z</time>
      </trkpt>
      <trkpt lat="44.90555" lon="0.74567">
        <ele>154.5</ele>
        <time>2022-08-11T08:39:13Z</time>
      </trkpt>
      <trkpt lat="44.9055" lon="0.74566">
        <ele>154.5</ele>
        <time>2022-08-11T08:39:15Z</time>
      </trkpt>
      <trkpt lat="44.90544" lon="0.74565">
        <ele>155.5</ele>
        <time>2022-08-11T08:39:17Z</time>
      </trkpt>
      <trkpt lat="44.90538" lon="0.74564">
        <ele>155.5</ele>
        <time>2022-08-11T08:39:19Z</time>
      </trkpt>
      <trkpt lat="44.90532" lon="0.74563">
        <ele>156.5</ele>
        <time>2022-08-11T08:39:21Z</time>
      </trkpt>
      <trkpt lat="44.90527" lon="0.74562">
        <ele>156.5</ele>
        <time>2022-08-11T08:39:23Z</time>
      </trkpt>
      <trkpt lat="44.90522" lon="0.74562">
        <ele>155.5</ele>
        <time>2022-08-11T08:39:25Z</time>
      </trkpt>
      <trkpt lat="44.90516" lon="0.74562">
        <ele>154.5</ele>
        <time>2022-08-11T08:39:27Z</time>
      </trkpt>
      <trkpt lat="44.90511" lon="0.74561">
        <ele>154.5</ele>
        <time>2022-08-11T08:39:29Z</time>
      </trkpt>
      <trkpt lat="44.90505" lon="0.74559">
        <ele>155.5</ele>
        <time>2022-08-11T08:39:31Z</time>
      </trkpt>
      <trkpt lat="44.905" lon="0.74558">
        <ele>154.5</ele>
        <time>2022-08-11T08:39:33Z</time>
      </trkpt>
      <trkpt lat="44.90495" lon="0.74557">
        <ele>154.5</ele>
        <time>2022-08-11T08:39:35Z</time>
      </trkpt>
      <trkpt lat="44.9049" lon="0.74556">
        <ele>156.5</ele>
        <time>2022-08-11T08:39:37Z</time>
      </trkpt>
      <trkpt lat="44.90484" lon="0.74553">
        <ele>156.5</ele>
        <time>2022-08-11T08:39:39Z</time>
      </trkpt>
      <trkpt lat="44.90477" lon="0.7455">
        <ele>157.5</ele>
        <time>2022-08-11T08:39:41Z</time>
      </trkpt>
      <trkpt lat="44.90471" lon="0.74546">
        <ele>158.5</ele>
        <time>2022-08-11T08:39:43Z</time>
      </trkpt>
      <trkpt lat="44.90463" lon="0.74541">
        <ele>159.5</ele>
        <time>2022-08-11T08:39:45Z</time>
      </trkpt>
      <trkpt lat="44.90455" lon="0.74536">
        <ele>161.5</ele>
        <time>2022-08-11T08:39:47Z</time>
      </trkpt>
      <trkpt lat="44.90449" lon="0.74533">
        <ele>162.5</ele>
        <time>2022-08-11T08:39:49Z</time>
      </trkpt>
      <trkpt lat="44.90442" lon="0.74531">
        <ele>163.5</ele>
        <time>2022-08-11T08:39:51Z</time>
      </trkpt>
      <trkpt lat="44.90436" lon="0.74529">
        <ele>163.5</ele>
        <time>2022-08-11T08:39:53Z</time>
      </trkpt>
      <trkpt lat="44.9043" lon="0.74528">
        <ele>164.5</ele>
        <time>2022-08-11T08:39:55Z</time>
      </trkpt>
      <trkpt lat="44.90425" lon="0.74528">
        <ele>164.5</ele>
        <time>2022-08-11T08:39:57Z</time>
      </trkpt>
      <trkpt lat="44.9042" lon="0.74528">
        <ele>165.5</ele>
        <time>2022-08-11T08:39:59Z</time>
      </trkpt>
      <trkpt lat="44.90415" lon="0.74529">
        <ele>166.5</ele>
        <time>2022-08-11T08:40:02Z</time>
      </trkpt>
      <trkpt lat="44.90409" lon="0.7453">
        <ele>167.5</ele>
        <time>2022-08-11T08:40:05Z</time>
      </trkpt>
      <trkpt lat="44.90403" lon="0.74532">
        <ele>167.5</ele>
        <time>2022-08-11T08:40:08Z</time>
      </trkpt>
      <trkpt lat="44.90398" lon="0.74533">
        <ele>167.5</ele>
        <time>2022-08-11T08:40:10Z</time>
      </trkpt>
      <trkpt lat="44.90393" lon="0.74534">
        <ele>168.5</ele>
        <time>2022-08-11T08:40:12Z</time>
      </trkpt>
      <trkpt lat="44.90388" lon="0.74535">
        <ele>168.5</ele>
        <time>2022-08-11T08:40:14Z</time>
      </trkpt>
      <trkpt lat="44.90382" lon="0.74536">
        <ele>168.5</ele>
        <time>2022-08-11T08:40:16Z</time>
      </trkpt>
      <trkpt lat="44.90377" lon="0.74537">
        <ele>168.5</ele>
        <time>2022-08-11T08:40:18Z</time>
      </trkpt>
      <trkpt lat="44.90372" lon="0.74538">
        <ele>168.5</ele>
        <time>2022-08-11T08:40:20Z</time>
      </trkpt>
      <trkpt lat="44.90366" lon="0.74539">
        <ele>167.5</ele>
        <time>2022-08-11T08:40:22Z</time>
      </trkpt>
      <trkpt lat="44.90362" lon="0.74541">
        <ele>167.5</ele>
        <time>2022-08-11T08:40:24Z</time>
      </trkpt>
      <trkpt lat="44.90357" lon="0.74541">
        <ele>167.5</ele>
        <time>2022-08-11T08:40:26Z</time>
      </trkpt>
      <trkpt lat="44.90352" lon="0.74542">
        <ele>168.5</ele>
        <time>2022-08-11T08:40:28Z</time>
      </trkpt>
      <trkpt lat="44.90346" lon="0.74541">
        <ele>167.5</ele>
        <time>2022-08-11T08:40:30Z</time>
      </trkpt>
      <trkpt lat="44.90341" lon="0.74542">
        <ele>167.5</ele>
        <time>2022-08-11T08:40:32Z</time>
      </trkpt>
      <trkpt lat="44.90336" lon="0.74542">
        <ele>167.5</ele>
        <time>2022-08-11T08:40:34Z</time>
      </trkpt>
      <trkpt lat="44.90331" lon="0.74543">
        <ele>167.5</ele>
        <time>2022-08-11T08:40:36Z</time>
      </trkpt>
      <trkpt lat="44.90325" lon="0.74544">
        <ele>167.5</ele>
        <time>2022-08-11T08:40:38Z</time>
      </trkpt>
      <trkpt lat="44.9032" lon="0.74545">
        <ele>168.5</ele>
        <time>2022-08-11T08:40:40Z</time>
      </trkpt>
      <trkpt lat="44.90314" lon="0.74546">
        <ele>169.5</ele>
        <time>2022-08-11T08:40:42Z</time>
      </trkpt>
      <trkpt lat="44.90309" lon="0.74547">
        <ele>169.5</ele>
        <time>2022-08-11T08:40:44Z</time>
      </trkpt>
      <trkpt lat="44.90303" lon="0.74548">
        <ele>169.5</ele>
        <time>2022-08-11T08:40:46Z</time>
      </trkpt>
      <trkpt lat="44.90296" lon="0.74548">
        <ele>169.5</ele>
        <time>2022-08-11T08:40:48Z</time>
      </trkpt>
      <trkpt lat="44.9029" lon="0.74548">
        <ele>169.5</ele>
        <time>2022-08-11T08:40:50Z</time>
      </trkpt>
      <trkpt lat="44.90284" lon="0.74547">
        <ele>170.5</ele>
        <time>2022-08-11T08:40:52Z</time>
      </trkpt>
      <trkpt lat="44.90278" lon="0.74546">
        <ele>171.5</ele>
        <time>2022-08-11T08:40:54Z</time>
      </trkpt>
      <trkpt lat="44.90272" lon="0.74546">
        <ele>170.5</ele>
        <time>2022-08-11T08:40:56Z</time>
      </trkpt>
      <trkpt lat="44.90267" lon="0.74545">
        <ele>169.5</ele>
        <time>2022-08-11T08:40:58Z</time>
      </trkpt>
      <trkpt lat="44.90261" lon="0.74544">
        <ele>169.5</ele>
        <time>2022-08-11T08:41:00Z</time>
      </trkpt>
      <trkpt lat="44.90255" lon="0.74544">
        <ele>169.5</ele>
        <time>2022-08-11T08:41:02Z</time>
      </trkpt>
      <trkpt lat="44.90249" lon="0.74542">
        <ele>168.5</ele>
        <time>2022-08-11T08:41:04Z</time>
      </trkpt>
      <trkpt lat="44.90244" lon="0.74541">
        <ele>168.5</ele>
        <time>2022-08-11T08:41:06Z</time>
      </trkpt>
      <trkpt lat="44.90238" lon="0.74538">
        <ele>168.5</ele>
        <time>2022-08-11T08:41:08Z</time>
      </trkpt>
      <trkpt lat="44.90232" lon="0.74536">
        <ele>168.5</ele>
        <time>2022-08-11T08:41:10Z</time>
      </trkpt>
      <trkpt lat="44.90226" lon="0.74533">
        <ele>168.5</ele>
        <time>2022-08-11T08:41:12Z</time>
      </trkpt>
      <trkpt lat="44.90221" lon="0.7453">
        <ele>168.5</ele>
        <time>2022-08-11T08:41:14Z</time>
      </trkpt>
      <trkpt lat="44.90216" lon="0.74527">
        <ele>168.5</ele>
        <time>2022-08-11T08:41:16Z</time>
      </trkpt>
      <trkpt lat="44.90211" lon="0.74524">
        <ele>169.5</ele>
        <time>2022-08-11T08:41:18Z</time>
      </trkpt>
      <trkpt lat="44.90206" lon="0.7452">
        <ele>169.5</ele>
        <time>2022-08-11T08:41:20Z</time>
      </trkpt>
      <trkpt lat="44.90201" lon="0.74517">
        <ele>169.5</ele>
        <time>2022-08-11T08:41:22Z</time>
      </trkpt>
      <trkpt lat="44.90196" lon="0.74513">
        <ele>169.5</ele>
        <time>2022-08-11T08:41:24Z</time>
      </trkpt>
      <trkpt lat="44.90191" lon="0.7451">
        <ele>169.5</ele>
        <time>2022-08-11T08:41:26Z</time>
      </trkpt>
      <trkpt lat="44.90186" lon="0.74507">
        <ele>170.5</ele>
        <time>2022-08-11T08:41:28Z</time>
      </trkpt>
      <trkpt lat="44.90181" lon="0.74505">
        <ele>171.5</ele>
        <time>2022-08-11T08:41:30Z</time>
      </trkpt>
      <trkpt lat="44.90176" lon="0.74503">
        <ele>171.5</ele>
        <time>2022-08-11T08:41:32Z</time>
      </trkpt>
      <trkpt lat="44.90171" lon="0.74501">
        <ele>172.5</ele>
        <time>2022-08-11T08:41:34Z</time>
      </trkpt>
      <trkpt lat="44.90165" lon="0.74498">
        <ele>173.5</ele>
        <time>2022-08-11T08:41:37Z</time>
      </trkpt>
      <trkpt lat="44.90159" lon="0.74497">
        <ele>173.5</ele>
        <time>2022-08-11T08:41:39Z</time>
      </trkpt>
      <trkpt lat="44.90155" lon="0.74497">
        <ele>173.5</ele>
        <time>2022-08-11T08:41:41Z</time>
      </trkpt>
      <trkpt lat="44.9015" lon="0.74496">
        <ele>172.5</ele>
        <time>2022-08-11T08:41:43Z</time>
      </trkpt>
      <trkpt lat="44.90146" lon="0.74496">
        <ele>173.5</ele>
        <time>2022-08-11T08:41:45Z</time>
      </trkpt>
      <trkpt lat="44.90141" lon="0.74497">
        <ele>173.5</ele>
        <time>2022-08-11T08:41:47Z</time>
      </trkpt>
      <trkpt lat="44.90134" lon="0.74498">
        <ele>173.5</ele>
        <time>2022-08-11T08:41:50Z</time>
      </trkpt>
      <trkpt lat="44.90129" lon="0.745">
        <ele>174.5</ele>
        <time>2022-08-11T08:41:52Z</time>
      </trkpt>
      <trkpt lat="44.90124" lon="0.74499">
        <ele>173.5</ele>
        <time>2022-08-11T08:41:54Z</time>
      </trkpt>
      <trkpt lat="44.90119" lon="0.74501">
        <ele>173.5</ele>
        <time>2022-08-11T08:41:56Z</time>
      </trkpt>
      <trkpt lat="44.90114" lon="0.74502">
        <ele>174.5</ele>
        <time>2022-08-11T08:41:58Z</time>
      </trkpt>
      <trkpt lat="44.90109" lon="0.74503">
        <ele>174.5</ele>
        <time>2022-08-11T08:42:00Z</time>
      </trkpt>
      <trkpt lat="44.90104" lon="0.74505">
        <ele>175.5</ele>
        <time>2022-08-11T08:42:02Z</time>
      </trkpt>
      <trkpt lat="44.90098" lon="0.74506">
        <ele>176.5</ele>
        <time>2022-08-11T08:42:04Z</time>
      </trkpt>
      <trkpt lat="44.90093" lon="0.74509">
        <ele>175.5</ele>
        <time>2022-08-11T08:42:06Z</time>
      </trkpt>
      <trkpt lat="44.90089" lon="0.74512">
        <ele>175.5</ele>
        <time>2022-08-11T08:42:08Z</time>
      </trkpt>
      <trkpt lat="44.90084" lon="0.74514">
        <ele>176.5</ele>
        <time>2022-08-11T08:42:10Z</time>
      </trkpt>
      <trkpt lat="44.9008" lon="0.74517">
        <ele>177.5</ele>
        <time>2022-08-11T08:42:12Z</time>
      </trkpt>
      <trkpt lat="44.90076" lon="0.74519">
        <ele>177.5</ele>
        <time>2022-08-11T08:42:14Z</time>
      </trkpt>
      <trkpt lat="44.90071" lon="0.74521">
        <ele>177.5</ele>
        <time>2022-08-11T08:42:16Z</time>
      </trkpt>
      <trkpt lat="44.90066" lon="0.74523">
        <ele>178.5</ele>
        <time>2022-08-11T08:42:18Z</time>
      </trkpt>
      <trkpt lat="44.9006" lon="0.74524">
        <ele>179.5</ele>
        <time>2022-08-11T08:42:21Z</time>
      </trkpt>
      <trkpt lat="44.90054" lon="0.74525">
        <ele>180.5</ele>
        <time>2022-08-11T08:42:24Z</time>
      </trkpt>
      <trkpt lat="44.90048" lon="0.74528">
        <ele>180.5</ele>
        <time>2022-08-11T08:42:27Z</time>
      </trkpt>
      <trkpt lat="44.90044" lon="0.74534">
        <ele>182.5</ele>
        <time>2022-08-11T08:42:30Z</time>
      </trkpt>
      <trkpt lat="44.9004" lon="0.74538">
        <ele>185.5</ele>
        <time>2022-08-11T08:42:39Z</time>
      </trkpt>
      <trkpt lat="44.90041" lon="0.74545">
        <ele>189.5</ele>
        <time>2022-08-11T08:43:08Z</time>
      </trkpt>
      <trkpt lat="44.90036" lon="0.74549">
        <ele>192.5</ele>
        <time>2022-08-11T08:43:50Z</time>
      </trkpt>
      <trkpt lat="44.9004" lon="0.74552">
        <ele>194.5</ele>
        <time>2022-08-11T08:45:13Z</time>
      </trkpt>
      <trkpt lat="44.90036" lon="0.74556">
        <ele>191.5</ele>
        <time>2022-08-11T08:45:26Z</time>
      </trkpt>
      <trkpt lat="44.90033" lon="0.74561">
        <ele>190.5</ele>
        <time>2022-08-11T08:45:28Z</time>
      </trkpt>
      <trkpt lat="44.9003" lon="0.74567">
        <ele>189.5</ele>
        <time>2022-08-11T08:45:30Z</time>
      </trkpt>
      <trkpt lat="44.90026" lon="0.74573">
        <ele>189.5</ele>
        <time>2022-08-11T08:45:32Z</time>
      </trkpt>
      <trkpt lat="44.90023" lon="0.7458">
        <ele>188.5</ele>
        <time>2022-08-11T08:45:34Z</time>
      </trkpt>
      <trkpt lat="44.9002" lon="0.74585">
        <ele>188.5</ele>
        <time>2022-08-11T08:45:36Z</time>
      </trkpt>
      <trkpt lat="44.90017" lon="0.7459">
        <ele>188.5</ele>
        <time>2022-08-11T08:45:38Z</time>
      </trkpt>
      <trkpt lat="44.90013" lon="0.74596">
        <ele>187.5</ele>
        <time>2022-08-11T08:45:40Z</time>
      </trkpt>
      <trkpt lat="44.90009" lon="0.746">
        <ele>187.5</ele>
        <time>2022-08-11T08:45:42Z</time>
      </trkpt>
      <trkpt lat="44.90005" lon="0.74605">
        <ele>186.5</ele>
        <time>2022-08-11T08:45:44Z</time>
      </trkpt>
      <trkpt lat="44.90001" lon="0.74609">
        <ele>186.5</ele>
        <time>2022-08-11T08:45:46Z</time>
      </trkpt>
      <trkpt lat="44.89995" lon="0.74612">
        <ele>187.5</ele>
        <time>2022-08-11T08:45:48Z</time>
      </trkpt>
      <trkpt lat="44.89989" lon="0.74616">
        <ele>187.5</ele>
        <time>2022-08-11T08:45:50Z</time>
      </trkpt>
      <trkpt lat="44.89983" lon="0.74617">
        <ele>187.5</ele>
        <time>2022-08-11T08:45:52Z</time>
      </trkpt>
      <trkpt lat="44.89978" lon="0.74617">
        <ele>187.5</ele>
        <time>2022-08-11T08:45:54Z</time>
      </trkpt>
      <trkpt lat="44.89972" lon="0.74617">
        <ele>186.5</ele>
        <time>2022-08-11T08:45:56Z</time>
      </trkpt>
      <trkpt lat="44.89966" lon="0.74618">
        <ele>186.5</ele>
        <time>2022-08-11T08:45:58Z</time>
      </trkpt>
      <trkpt lat="44.89959" lon="0.7462">
        <ele>184.5</ele>
        <time>2022-08-11T08:46:00Z</time>
      </trkpt>
      <trkpt lat="44.89952" lon="0.7462">
        <ele>184.5</ele>
        <time>2022-08-11T08:46:02Z</time>
      </trkpt>
      <trkpt lat="44.89944" lon="0.74618">
        <ele>182.5</ele>
        <time>2022-08-11T08:46:04Z</time>
      </trkpt>
      <trkpt lat="44.89936" lon="0.74617">
        <ele>180.5</ele>
        <time>2022-08-11T08:46:06Z</time>
      </trkpt>
      <trkpt lat="44.89929" lon="0.7462">
        <ele>178.5</ele>
        <time>2022-08-11T08:46:08Z</time>
      </trkpt>
      <trkpt lat="44.89923" lon="0.74625">
        <ele>178.5</ele>
        <time>2022-08-11T08:46:10Z</time>
      </trkpt>
      <trkpt lat="44.89917" lon="0.74634">
        <ele>178.5</ele>
        <time>2022-08-11T08:46:12Z</time>
      </trkpt>
      <trkpt lat="44.89914" lon="0.74639">
        <ele>178.5</ele>
        <time>2022-08-11T08:46:13Z</time>
      </trkpt>
      <trkpt lat="44.8991" lon="0.74645">
        <ele>178.5</ele>
        <time>2022-08-11T08:46:14Z</time>
      </trkpt>
      <trkpt lat="44.89905" lon="0.7465">
        <ele>179.5</ele>
        <time>2022-08-11T08:46:15Z</time>
      </trkpt>
      <trkpt lat="44.89902" lon="0.74657">
        <ele>179.5</ele>
        <time>2022-08-11T08:46:16Z</time>
      </trkpt>
      <trkpt lat="44.89897" lon="0.74663">
        <ele>178.5</ele>
        <time>2022-08-11T08:46:17Z</time>
      </trkpt>
      <trkpt lat="44.89894" lon="0.74669">
        <ele>178.5</ele>
        <time>2022-08-11T08:46:18Z</time>
      </trkpt>
      <trkpt lat="44.8989" lon="0.74674">
        <ele>178.5</ele>
        <time>2022-08-11T08:46:19Z</time>
      </trkpt>
      <trkpt lat="44.89885" lon="0.7468">
        <ele>178.5</ele>
        <time>2022-08-11T08:46:21Z</time>
      </trkpt>
      <trkpt lat="44.89881" lon="0.74684">
        <ele>181.5</ele>
        <time>2022-08-11T08:46:53Z</time>
      </trkpt>
      <trkpt lat="44.89876" lon="0.74678">
        <ele>182.5</ele>
        <time>2022-08-11T08:46:57Z</time>
      </trkpt>
      <trkpt lat="44.89874" lon="0.7467">
        <ele>182.5</ele>
        <time>2022-08-11T08:46:59Z</time>
      </trkpt>
      <trkpt lat="44.89872" lon="0.74662">
        <ele>182.5</ele>
        <time>2022-08-11T08:47:01Z</time>
      </trkpt>
      <trkpt lat="44.89869" lon="0.74653">
        <ele>182.5</ele>
        <time>2022-08-11T08:47:03Z</time>
      </trkpt>
      <trkpt lat="44.89865" lon="0.74644">
        <ele>182.5</ele>
        <time>2022-08-11T08:47:05Z</time>
      </trkpt>
      <trkpt lat="44.8986" lon="0.74636">
        <ele>183.5</ele>
        <time>2022-08-11T08:47:07Z</time>
      </trkpt>
      <trkpt lat="44.89855" lon="0.74627">
        <ele>183.5</ele>
        <time>2022-08-11T08:47:09Z</time>
      </trkpt>
      <trkpt lat="44.8985" lon="0.74618">
        <ele>182.5</ele>
        <time>2022-08-11T08:47:11Z</time>
      </trkpt>
      <trkpt lat="44.89845" lon="0.74608">
        <ele>181.5</ele>
        <time>2022-08-11T08:47:13Z</time>
      </trkpt>
      <trkpt lat="44.89842" lon="0.74602">
        <ele>181.5</ele>
        <time>2022-08-11T08:47:14Z</time>
      </trkpt>
      <trkpt lat="44.89839" lon="0.74596">
        <ele>181.5</ele>
        <time>2022-08-11T08:47:15Z</time>
      </trkpt>
      <trkpt lat="44.89837" lon="0.7459">
        <ele>181.5</ele>
        <time>2022-08-11T08:47:16Z</time>
      </trkpt>
      <trkpt lat="44.89834" lon="0.74585">
        <ele>182.5</ele>
        <time>2022-08-11T08:47:17Z</time>
      </trkpt>
      <trkpt lat="44.89831" lon="0.74581">
        <ele>182.5</ele>
        <time>2022-08-11T08:47:18Z</time>
      </trkpt>
      <trkpt lat="44.89827" lon="0.74576">
        <ele>181.5</ele>
        <time>2022-08-11T08:47:19Z</time>
      </trkpt>
      <trkpt lat="44.89822" lon="0.74572">
        <ele>181.5</ele>
        <time>2022-08-11T08:47:20Z</time>
      </trkpt>
      <trkpt lat="44.89817" lon="0.74567">
        <ele>181.5</ele>
        <time>2022-08-11T08:47:21Z</time>
      </trkpt>
      <trkpt lat="44.8981" lon="0.74562">
        <ele>181.5</ele>
        <time>2022-08-11T08:47:22Z</time>
      </trkpt>
      <trkpt lat="44.89803" lon="0.74556">
        <ele>181.5</ele>
        <time>2022-08-11T08:47:23Z</time>
      </trkpt>
      <trkpt lat="44.89795" lon="0.74551">
        <ele>181.5</ele>
        <time>2022-08-11T08:47:24Z</time>
      </trkpt>
      <trkpt lat="44.89786" lon="0.74545">
        <ele>180.5</ele>
        <time>2022-08-11T08:47:25Z</time>
      </trkpt>
      <trkpt lat="44.89776" lon="0.7454">
        <ele>180.5</ele>
        <time>2022-08-11T08:47:26Z</time>
      </trkpt>
      <trkpt lat="44.89766" lon="0.74537">
        <ele>179.5</ele>
        <time>2022-08-11T08:47:27Z</time>
      </trkpt>
      <trkpt lat="44.89755" lon="0.74535">
        <ele>178.5</ele>
        <time>2022-08-11T08:47:28Z</time>
      </trkpt>
      <trkpt lat="44.89743" lon="0.74535">
        <ele>177.5</ele>
        <time>2022-08-11T08:47:29Z</time>
      </trkpt>
      <trkpt lat="44.8973" lon="0.74537">
        <ele>176.5</ele>
        <time>2022-08-11T08:47:30Z</time>
      </trkpt>
      <trkpt lat="44.89709" lon="0.74541">
        <ele>174.5</ele>
        <time>2022-08-11T08:47:32Z</time>
      </trkpt>
      <trkpt lat="44.89699" lon="0.74544">
        <ele>172.5</ele>
        <time>2022-08-11T08:47:33Z</time>
      </trkpt>
      <trkpt lat="44.89691" lon="0.74546">
        <ele>172.5</ele>
        <time>2022-08-11T08:47:34Z</time>
      </trkpt>
      <trkpt lat="44.89685" lon="0.74549">
        <ele>172.5</ele>
        <time>2022-08-11T08:47:35Z</time>
      </trkpt>
      <trkpt lat="44.8968" lon="0.7455">
        <ele>172.5</ele>
        <time>2022-08-11T08:47:36Z</time>
      </trkpt>
      <trkpt lat="44.89672" lon="0.74555">
        <ele>172.5</ele>
        <time>2022-08-11T08:47:38Z</time>
      </trkpt>
      <trkpt lat="44.89667" lon="0.74559">
        <ele>172.5</ele>
        <time>2022-08-11T08:47:40Z</time>
      </trkpt>
      <trkpt lat="44.89663" lon="0.74561">
        <ele>172.5</ele>
        <time>2022-08-11T08:47:43Z</time>
      </trkpt>
      <trkpt lat="44.89659" lon="0.74557">
        <ele>173.5</ele>
        <time>2022-08-11T08:48:52Z</time>
      </trkpt>
      <trkpt lat="44.89653" lon="0.74551">
        <ele>170.5</ele>
        <time>2022-08-11T08:48:55Z</time>
      </trkpt>
      <trkpt lat="44.89648" lon="0.74547">
        <ele>170.5</ele>
        <time>2022-08-11T08:48:57Z</time>
      </trkpt>
      <trkpt lat="44.89643" lon="0.74539">
        <ele>170.5</ele>
        <time>2022-08-11T08:48:59Z</time>
      </trkpt>
      <trkpt lat="44.89639" lon="0.74531">
        <ele>171.5</ele>
        <time>2022-08-11T08:49:01Z</time>
      </trkpt>
      <trkpt lat="44.89636" lon="0.74524">
        <ele>171.5</ele>
        <time>2022-08-11T08:49:03Z</time>
      </trkpt>
      <trkpt lat="44.89632" lon="0.74517">
        <ele>172.5</ele>
        <time>2022-08-11T08:49:06Z</time>
      </trkpt>
      <trkpt lat="44.89627" lon="0.74516">
        <ele>170.5</ele>
        <time>2022-08-11T08:49:28Z</time>
      </trkpt>
      <trkpt lat="44.89631" lon="0.74523">
        <ele>173.5</ele>
        <time>2022-08-11T08:50:34Z</time>
      </trkpt>
      <trkpt lat="44.89635" lon="0.74531">
        <ele>172.5</ele>
        <time>2022-08-11T08:50:36Z</time>
      </trkpt>
      <trkpt lat="44.8964" lon="0.74541">
        <ele>171.5</ele>
        <time>2022-08-11T08:50:38Z</time>
      </trkpt>
      <trkpt lat="44.89646" lon="0.74548">
        <ele>170.5</ele>
        <time>2022-08-11T08:50:40Z</time>
      </trkpt>
      <trkpt lat="44.89653" lon="0.74554">
        <ele>170.5</ele>
        <time>2022-08-11T08:50:42Z</time>
      </trkpt>
      <trkpt lat="44.8966" lon="0.74561">
        <ele>170.5</ele>
        <time>2022-08-11T08:50:44Z</time>
      </trkpt>
      <trkpt lat="44.89661" lon="0.74568">
        <ele>170.5</ele>
        <time>2022-08-11T08:50:45Z</time>
      </trkpt>
      <trkpt lat="44.89661" lon="0.74574">
        <ele>170.5</ele>
        <time>2022-08-11T08:50:46Z</time>
      </trkpt>
      <trkpt lat="44.89657" lon="0.74584">
        <ele>170.5</ele>
        <time>2022-08-11T08:50:48Z</time>
      </trkpt>
      <trkpt lat="44.89652" lon="0.74591">
        <ele>170.5</ele>
        <time>2022-08-11T08:50:50Z</time>
      </trkpt>
      <trkpt lat="44.89649" lon="0.74597">
        <ele>170.5</ele>
        <time>2022-08-11T08:50:52Z</time>
      </trkpt>
      <trkpt lat="44.89646" lon="0.74605">
        <ele>170.5</ele>
        <time>2022-08-11T08:50:54Z</time>
      </trkpt>
      <trkpt lat="44.89643" lon="0.74613">
        <ele>170.5</ele>
        <time>2022-08-11T08:50:56Z</time>
      </trkpt>
      <trkpt lat="44.89641" lon="0.74622">
        <ele>170.5</ele>
        <time>2022-08-11T08:50:58Z</time>
      </trkpt>
      <trkpt lat="44.89638" lon="0.74631">
        <ele>171.5</ele>
        <time>2022-08-11T08:51:00Z</time>
      </trkpt>
      <trkpt lat="44.89636" lon="0.74639">
        <ele>170.5</ele>
        <time>2022-08-11T08:51:02Z</time>
      </trkpt>
      <trkpt lat="44.89633" lon="0.74645">
        <ele>170.5</ele>
        <time>2022-08-11T08:51:04Z</time>
      </trkpt>
      <trkpt lat="44.89628" lon="0.74652">
        <ele>170.5</ele>
        <time>2022-08-11T08:51:07Z</time>
      </trkpt>
      <trkpt lat="44.89625" lon="0.74657">
        <ele>170.5</ele>
        <time>2022-08-11T08:51:09Z</time>
      </trkpt>
      <trkpt lat="44.89622" lon="0.74664">
        <ele>170.5</ele>
        <time>2022-08-11T08:51:11Z</time>
      </trkpt>
      <trkpt lat="44.8962" lon="0.7467">
        <ele>171.5</ele>
        <time>2022-08-11T08:51:13Z</time>
      </trkpt>
      <trkpt lat="44.89616" lon="0.74677">
        <ele>170.5</ele>
        <time>2022-08-11T08:51:16Z</time>
      </trkpt>
      <trkpt lat="44.89612" lon="0.74682">
        <ele>171.5</ele>
        <time>2022-08-11T08:51:18Z</time>
      </trkpt>
      <trkpt lat="44.89607" lon="0.74687">
        <ele>171.5</ele>
        <time>2022-08-11T08:51:21Z</time>
      </trkpt>
      <trkpt lat="44.89602" lon="0.7469">
        <ele>171.5</ele>
        <time>2022-08-11T08:51:24Z</time>
      </trkpt>
      <trkpt lat="44.89596" lon="0.74692">
        <ele>172.5</ele>
        <time>2022-08-11T08:51:27Z</time>
      </trkpt>
      <trkpt lat="44.89592" lon="0.74695">
        <ele>172.5</ele>
        <time>2022-08-11T08:51:33Z</time>
      </trkpt>
      <trkpt lat="44.89587" lon="0.74699">
        <ele>171.5</ele>
        <time>2022-08-11T08:51:39Z</time>
      </trkpt>
      <trkpt lat="44.89581" lon="0.74702">
        <ele>172.5</ele>
        <time>2022-08-11T08:51:42Z</time>
      </trkpt>
      <trkpt lat="44.89576" lon="0.74704">
        <ele>173.5</ele>
        <time>2022-08-11T08:51:45Z</time>
      </trkpt>
      <trkpt lat="44.89571" lon="0.74707">
        <ele>173.5</ele>
        <time>2022-08-11T08:51:48Z</time>
      </trkpt>
      <trkpt lat="44.89566" lon="0.74709">
        <ele>174.5</ele>
        <time>2022-08-11T08:51:52Z</time>
      </trkpt>
      <trkpt lat="44.89561" lon="0.74711">
        <ele>174.5</ele>
        <time>2022-08-11T08:51:55Z</time>
      </trkpt>
      <trkpt lat="44.89555" lon="0.74713">
        <ele>174.5</ele>
        <time>2022-08-11T08:51:59Z</time>
      </trkpt>
      <trkpt lat="44.8955" lon="0.74715">
        <ele>175.5</ele>
        <time>2022-08-11T08:52:02Z</time>
      </trkpt>
      <trkpt lat="44.89545" lon="0.74719">
        <ele>175.5</ele>
        <time>2022-08-11T08:52:05Z</time>
      </trkpt>
      <trkpt lat="44.8954" lon="0.74721">
        <ele>174.5</ele>
        <time>2022-08-11T08:52:09Z</time>
      </trkpt>
      <trkpt lat="44.89535" lon="0.74722">
        <ele>175.5</ele>
        <time>2022-08-11T08:52:12Z</time>
      </trkpt>
      <trkpt lat="44.89528" lon="0.74724">
        <ele>174.5</ele>
        <time>2022-08-11T08:52:15Z</time>
      </trkpt>
      <trkpt lat="44.89522" lon="0.74725">
        <ele>173.5</ele>
        <time>2022-08-11T08:52:17Z</time>
      </trkpt>
      <trkpt lat="44.89516" lon="0.74725">
        <ele>174.5</ele>
        <time>2022-08-11T08:52:19Z</time>
      </trkpt>
      <trkpt lat="44.89511" lon="0.74726">
        <ele>174.5</ele>
        <time>2022-08-11T08:52:21Z</time>
      </trkpt>
      <trkpt lat="44.89505" lon="0.74727">
        <ele>174.5</ele>
        <time>2022-08-11T08:52:23Z</time>
      </trkpt>
      <trkpt lat="44.895" lon="0.74729">
        <ele>174.5</ele>
        <time>2022-08-11T08:52:25Z</time>
      </trkpt>
      <trkpt lat="44.89496" lon="0.74732">
        <ele>175.5</ele>
        <time>2022-08-11T08:52:27Z</time>
      </trkpt>
      <trkpt lat="44.89491" lon="0.74734">
        <ele>176.5</ele>
        <time>2022-08-11T08:52:29Z</time>
      </trkpt>
      <trkpt lat="44.89485" lon="0.74737">
        <ele>176.5</ele>
        <time>2022-08-11T08:52:32Z</time>
      </trkpt>
      <trkpt lat="44.89481" lon="0.7474">
        <ele>177.5</ele>
        <time>2022-08-11T08:52:35Z</time>
      </trkpt>
      <trkpt lat="44.89477" lon="0.74742">
        <ele>176.5</ele>
        <time>2022-08-11T08:52:37Z</time>
      </trkpt>
      <trkpt lat="44.89472" lon="0.74745">
        <ele>176.5</ele>
        <time>2022-08-11T08:52:39Z</time>
      </trkpt>
      <trkpt lat="44.89466" lon="0.74746">
        <ele>174.5</ele>
        <time>2022-08-11T08:52:42Z</time>
      </trkpt>
      <trkpt lat="44.89459" lon="0.74747">
        <ele>173.5</ele>
        <time>2022-08-11T08:52:45Z</time>
      </trkpt>
      <trkpt lat="44.89454" lon="0.74749">
        <ele>171.5</ele>
        <time>2022-08-11T08:52:47Z</time>
      </trkpt>
      <trkpt lat="44.8945" lon="0.7475">
        <ele>172.5</ele>
        <time>2022-08-11T08:52:50Z</time>
      </trkpt>
      <trkpt lat="44.89445" lon="0.74752">
        <ele>172.5</ele>
        <time>2022-08-11T08:52:54Z</time>
      </trkpt>
      <trkpt lat="44.89438" lon="0.74756">
        <ele>173.5</ele>
        <time>2022-08-11T08:52:59Z</time>
      </trkpt>
      <trkpt lat="44.89433" lon="0.74759">
        <ele>174.5</ele>
        <time>2022-08-11T08:53:01Z</time>
      </trkpt>
      <trkpt lat="44.89427" lon="0.74764">
        <ele>174.5</ele>
        <time>2022-08-11T08:53:04Z</time>
      </trkpt>
      <trkpt lat="44.89423" lon="0.74768">
        <ele>175.5</ele>
        <time>2022-08-11T08:53:06Z</time>
      </trkpt>
      <trkpt lat="44.89417" lon="0.74772">
        <ele>176.5</ele>
        <time>2022-08-11T08:53:09Z</time>
      </trkpt>
      <trkpt lat="44.89412" lon="0.74775">
        <ele>177.5</ele>
        <time>2022-08-11T08:53:12Z</time>
      </trkpt>
      <trkpt lat="44.89406" lon="0.74777">
        <ele>177.5</ele>
        <time>2022-08-11T08:53:15Z</time>
      </trkpt>
      <trkpt lat="44.894" lon="0.74781">
        <ele>177.5</ele>
        <time>2022-08-11T08:53:18Z</time>
      </trkpt>
      <trkpt lat="44.89396" lon="0.74785">
        <ele>177.5</ele>
        <time>2022-08-11T08:53:20Z</time>
      </trkpt>
      <trkpt lat="44.89391" lon="0.7479">
        <ele>177.5</ele>
        <time>2022-08-11T08:53:23Z</time>
      </trkpt>
      <trkpt lat="44.89388" lon="0.74797">
        <ele>178.5</ele>
        <time>2022-08-11T08:53:26Z</time>
      </trkpt>
      <trkpt lat="44.89385" lon="0.74801">
        <ele>179.5</ele>
        <time>2022-08-11T08:53:28Z</time>
      </trkpt>
      <trkpt lat="44.8938" lon="0.74807">
        <ele>180.5</ele>
        <time>2022-08-11T08:53:31Z</time>
      </trkpt>
      <trkpt lat="44.89375" lon="0.74811">
        <ele>180.5</ele>
        <time>2022-08-11T08:53:34Z</time>
      </trkpt>
      <trkpt lat="44.89372" lon="0.74815">
        <ele>180.5</ele>
        <time>2022-08-11T08:53:37Z</time>
      </trkpt>
      <trkpt lat="44.89369" lon="0.7482">
        <ele>180.5</ele>
        <time>2022-08-11T08:53:41Z</time>
      </trkpt>
      <trkpt lat="44.89366" lon="0.74825">
        <ele>179.5</ele>
        <time>2022-08-11T08:53:45Z</time>
      </trkpt>
      <trkpt lat="44.89362" lon="0.7483">
        <ele>179.5</ele>
        <time>2022-08-11T08:53:47Z</time>
      </trkpt>
      <trkpt lat="44.89358" lon="0.74838">
        <ele>178.5</ele>
        <time>2022-08-11T08:53:50Z</time>
      </trkpt>
      <trkpt lat="44.89353" lon="0.74843">
        <ele>177.5</ele>
        <time>2022-08-11T08:53:53Z</time>
      </trkpt>
      <trkpt lat="44.89348" lon="0.74846">
        <ele>176.5</ele>
        <time>2022-08-11T08:53:55Z</time>
      </trkpt>
      <trkpt lat="44.89343" lon="0.74848">
        <ele>177.5</ele>
        <time>2022-08-11T08:53:57Z</time>
      </trkpt>
      <trkpt lat="44.89338" lon="0.7485">
        <ele>178.5</ele>
        <time>2022-08-11T08:53:59Z</time>
      </trkpt>
      <trkpt lat="44.89334" lon="0.74854">
        <ele>178.5</ele>
        <time>2022-08-11T08:54:01Z</time>
      </trkpt>
      <trkpt lat="44.89328" lon="0.74858">
        <ele>180.5</ele>
        <time>2022-08-11T08:54:03Z</time>
      </trkpt>
      <trkpt lat="44.89322" lon="0.74862">
        <ele>182.5</ele>
        <time>2022-08-11T08:54:05Z</time>
      </trkpt>
      <trkpt lat="44.89316" lon="0.74865">
        <ele>183.5</ele>
        <time>2022-08-11T08:54:07Z</time>
      </trkpt>
      <trkpt lat="44.89311" lon="0.74868">
        <ele>185.5</ele>
        <time>2022-08-11T08:54:09Z</time>
      </trkpt>
      <trkpt lat="44.89306" lon="0.7487">
        <ele>185.5</ele>
        <time>2022-08-11T08:54:11Z</time>
      </trkpt>
      <trkpt lat="44.89301" lon="0.74871">
        <ele>186.5</ele>
        <time>2022-08-11T08:54:13Z</time>
      </trkpt>
      <trkpt lat="44.89295" lon="0.74871">
        <ele>186.5</ele>
        <time>2022-08-11T08:54:16Z</time>
      </trkpt>
      <trkpt lat="44.8929" lon="0.74872">
        <ele>186.5</ele>
        <time>2022-08-11T08:54:18Z</time>
      </trkpt>
      <trkpt lat="44.89285" lon="0.74873">
        <ele>186.5</ele>
        <time>2022-08-11T08:54:20Z</time>
      </trkpt>
      <trkpt lat="44.89281" lon="0.74875">
        <ele>186.5</ele>
        <time>2022-08-11T08:54:22Z</time>
      </trkpt>
      <trkpt lat="44.89275" lon="0.74877">
        <ele>186.5</ele>
        <time>2022-08-11T08:54:24Z</time>
      </trkpt>
      <trkpt lat="44.8927" lon="0.7488">
        <ele>186.5</ele>
        <time>2022-08-11T08:54:26Z</time>
      </trkpt>
      <trkpt lat="44.89264" lon="0.74882">
        <ele>186.5</ele>
        <time>2022-08-11T08:54:28Z</time>
      </trkpt>
      <trkpt lat="44.89258" lon="0.74884">
        <ele>186.5</ele>
        <time>2022-08-11T08:54:30Z</time>
      </trkpt>
      <trkpt lat="44.89252" lon="0.74888">
        <ele>187.5</ele>
        <time>2022-08-11T08:54:32Z</time>
      </trkpt>
      <trkpt lat="44.89246" lon="0.74892">
        <ele>187.5</ele>
        <time>2022-08-11T08:54:34Z</time>
      </trkpt>
      <trkpt lat="44.89239" lon="0.74894">
        <ele>187.5</ele>
        <time>2022-08-11T08:54:36Z</time>
      </trkpt>
      <trkpt lat="44.89231" lon="0.74897">
        <ele>188.5</ele>
        <time>2022-08-11T08:54:38Z</time>
      </trkpt>
      <trkpt lat="44.89224" lon="0.74899">
        <ele>188.5</ele>
        <time>2022-08-11T08:54:40Z</time>
      </trkpt>
      <trkpt lat="44.89219" lon="0.74899">
        <ele>189.5</ele>
        <time>2022-08-11T08:54:41Z</time>
      </trkpt>
      <trkpt lat="44.89214" lon="0.74901">
        <ele>189.5</ele>
        <time>2022-08-11T08:54:42Z</time>
      </trkpt>
      <trkpt lat="44.89209" lon="0.74903">
        <ele>189.5</ele>
        <time>2022-08-11T08:54:43Z</time>
      </trkpt>
      <trkpt lat="44.89204" lon="0.74904">
        <ele>189.5</ele>
        <time>2022-08-11T08:54:44Z</time>
      </trkpt>
      <trkpt lat="44.89199" lon="0.74905">
        <ele>189.5</ele>
        <time>2022-08-11T08:54:45Z</time>
      </trkpt>
      <trkpt lat="44.89193" lon="0.74906">
        <ele>189.5</ele>
        <time>2022-08-11T08:54:46Z</time>
      </trkpt>
      <trkpt lat="44.89187" lon="0.74906">
        <ele>189.5</ele>
        <time>2022-08-11T08:54:47Z</time>
      </trkpt>
      <trkpt lat="44.89181" lon="0.74907">
        <ele>189.5</ele>
        <time>2022-08-11T08:54:48Z</time>
      </trkpt>
      <trkpt lat="44.89176" lon="0.74907">
        <ele>189.5</ele>
        <time>2022-08-11T08:54:49Z</time>
      </trkpt>
      <trkpt lat="44.8917" lon="0.74907">
        <ele>189.5</ele>
        <time>2022-08-11T08:54:50Z</time>
      </trkpt>
      <trkpt lat="44.89164" lon="0.74907">
        <ele>189.5</ele>
        <time>2022-08-11T08:54:51Z</time>
      </trkpt>
      <trkpt lat="44.89158" lon="0.74908">
        <ele>189.5</ele>
        <time>2022-08-11T08:54:52Z</time>
      </trkpt>
      <trkpt lat="44.89152" lon="0.74908">
        <ele>189.5</ele>
        <time>2022-08-11T08:54:53Z</time>
      </trkpt>
      <trkpt lat="44.89147" lon="0.74909">
        <ele>189.5</ele>
        <time>2022-08-11T08:54:54Z</time>
      </trkpt>
      <trkpt lat="44.89141" lon="0.74909">
        <ele>189.5</ele>
        <time>2022-08-11T08:54:55Z</time>
      </trkpt>
      <trkpt lat="44.89135" lon="0.7491">
        <ele>189.5</ele>
        <time>2022-08-11T08:54:56Z</time>
      </trkpt>
      <trkpt lat="44.89129" lon="0.74912">
        <ele>189.5</ele>
        <time>2022-08-11T08:54:57Z</time>
      </trkpt>
      <trkpt lat="44.89124" lon="0.74913">
        <ele>189.5</ele>
        <time>2022-08-11T08:54:58Z</time>
      </trkpt>
      <trkpt lat="44.89118" lon="0.74913">
        <ele>189.5</ele>
        <time>2022-08-11T08:54:59Z</time>
      </trkpt>
      <trkpt lat="44.89113" lon="0.74913">
        <ele>189.5</ele>
        <time>2022-08-11T08:55:00Z</time>
      </trkpt>
      <trkpt lat="44.89108" lon="0.74913">
        <ele>190.5</ele>
        <time>2022-08-11T08:55:01Z</time>
      </trkpt>
      <trkpt lat="44.891" lon="0.74914">
        <ele>190.5</ele>
        <time>2022-08-11T08:55:03Z</time>
      </trkpt>
      <trkpt lat="44.89095" lon="0.74915">
        <ele>190.5</ele>
        <time>2022-08-11T08:55:06Z</time>
      </trkpt>
      <trkpt lat="44.8909" lon="0.74916">
        <ele>192.5</ele>
        <time>2022-08-11T08:55:25Z</time>
      </trkpt>
      <trkpt lat="44.89085" lon="0.74918">
        <ele>192.5</ele>
        <time>2022-08-11T08:55:27Z</time>
      </trkpt>
      <trkpt lat="44.89078" lon="0.74919">
        <ele>191.5</ele>
        <time>2022-08-11T08:55:29Z</time>
      </trkpt>
      <trkpt lat="44.8907" lon="0.74922">
        <ele>191.5</ele>
        <time>2022-08-11T08:55:31Z</time>
      </trkpt>
      <trkpt lat="44.89065" lon="0.74924">
        <ele>191.5</ele>
        <time>2022-08-11T08:55:32Z</time>
      </trkpt>
      <trkpt lat="44.89061" lon="0.74927">
        <ele>192.5</ele>
        <time>2022-08-11T08:55:33Z</time>
      </trkpt>
      <trkpt lat="44.89056" lon="0.74929">
        <ele>192.5</ele>
        <time>2022-08-11T08:55:34Z</time>
      </trkpt>
      <trkpt lat="44.89051" lon="0.74931">
        <ele>192.5</ele>
        <time>2022-08-11T08:55:35Z</time>
      </trkpt>
      <trkpt lat="44.89047" lon="0.74933">
        <ele>192.5</ele>
        <time>2022-08-11T08:55:36Z</time>
      </trkpt>
      <trkpt lat="44.89042" lon="0.74935">
        <ele>191.5</ele>
        <time>2022-08-11T08:55:37Z</time>
      </trkpt>
      <trkpt lat="44.89038" lon="0.74937">
        <ele>191.5</ele>
        <time>2022-08-11T08:55:38Z</time>
      </trkpt>
      <trkpt lat="44.89033" lon="0.74939">
        <ele>191.5</ele>
        <time>2022-08-11T08:55:39Z</time>
      </trkpt>
      <trkpt lat="44.89028" lon="0.74941">
        <ele>192.5</ele>
        <time>2022-08-11T08:55:40Z</time>
      </trkpt>
      <trkpt lat="44.89023" lon="0.74943">
        <ele>192.5</ele>
        <time>2022-08-11T08:55:41Z</time>
      </trkpt>
      <trkpt lat="44.89018" lon="0.74946">
        <ele>193.5</ele>
        <time>2022-08-11T08:55:42Z</time>
      </trkpt>
      <trkpt lat="44.89013" lon="0.74949">
        <ele>193.5</ele>
        <time>2022-08-11T08:55:43Z</time>
      </trkpt>
      <trkpt lat="44.89008" lon="0.74952">
        <ele>193.5</ele>
        <time>2022-08-11T08:55:44Z</time>
      </trkpt>
      <trkpt lat="44.89004" lon="0.74955">
        <ele>193.5</ele>
        <time>2022-08-11T08:55:45Z</time>
      </trkpt>
      <trkpt lat="44.88999" lon="0.74957">
        <ele>193.5</ele>
        <time>2022-08-11T08:55:46Z</time>
      </trkpt>
      <trkpt lat="44.88992" lon="0.74961">
        <ele>194.5</ele>
        <time>2022-08-11T08:55:48Z</time>
      </trkpt>
      <trkpt lat="44.88986" lon="0.74963">
        <ele>192.5</ele>
        <time>2022-08-11T08:56:23Z</time>
      </trkpt>
      <trkpt lat="44.88981" lon="0.74964">
        <ele>191.5</ele>
        <time>2022-08-11T08:56:25Z</time>
      </trkpt>
      <trkpt lat="44.88976" lon="0.74967">
        <ele>191.5</ele>
        <time>2022-08-11T08:56:27Z</time>
      </trkpt>
      <trkpt lat="44.8897" lon="0.74971">
        <ele>191.5</ele>
        <time>2022-08-11T08:56:29Z</time>
      </trkpt>
      <trkpt lat="44.88963" lon="0.74977">
        <ele>190.5</ele>
        <time>2022-08-11T08:56:31Z</time>
      </trkpt>
      <trkpt lat="44.88958" lon="0.74982">
        <ele>190.5</ele>
        <time>2022-08-11T08:56:33Z</time>
      </trkpt>
      <trkpt lat="44.88952" lon="0.74987">
        <ele>189.5</ele>
        <time>2022-08-11T08:56:36Z</time>
      </trkpt>
      <trkpt lat="44.88947" lon="0.7499">
        <ele>189.5</ele>
        <time>2022-08-11T08:56:38Z</time>
      </trkpt>
      <trkpt lat="44.88942" lon="0.74994">
        <ele>188.5</ele>
        <time>2022-08-11T08:56:40Z</time>
      </trkpt>
      <trkpt lat="44.88936" lon="0.74997">
        <ele>187.5</ele>
        <time>2022-08-11T08:56:42Z</time>
      </trkpt>
      <trkpt lat="44.8893" lon="0.74999">
        <ele>187.5</ele>
        <time>2022-08-11T08:56:44Z</time>
      </trkpt>
      <trkpt lat="44.88924" lon="0.75002">
        <ele>187.5</ele>
        <time>2022-08-11T08:56:46Z</time>
      </trkpt>
      <trkpt lat="44.88919" lon="0.75007">
        <ele>186.5</ele>
        <time>2022-08-11T08:56:48Z</time>
      </trkpt>
      <trkpt lat="44.88914" lon="0.7501">
        <ele>186.5</ele>
        <time>2022-08-11T08:56:50Z</time>
      </trkpt>
      <trkpt lat="44.88909" lon="0.75011">
        <ele>186.5</ele>
        <time>2022-08-11T08:56:53Z</time>
      </trkpt>
      <trkpt lat="44.88903" lon="0.75014">
        <ele>186.5</ele>
        <time>2022-08-11T08:56:56Z</time>
      </trkpt>
      <trkpt lat="44.88898" lon="0.75018">
        <ele>186.5</ele>
        <time>2022-08-11T08:56:58Z</time>
      </trkpt>
      <trkpt lat="44.88893" lon="0.75021">
        <ele>186.5</ele>
        <time>2022-08-11T08:57:00Z</time>
      </trkpt>
      <trkpt lat="44.88887" lon="0.75024">
        <ele>186.5</ele>
        <time>2022-08-11T08:57:02Z</time>
      </trkpt>
      <trkpt lat="44.88879" lon="0.75027">
        <ele>186.5</ele>
        <time>2022-08-11T08:57:04Z</time>
      </trkpt>
      <trkpt lat="44.88873" lon="0.75031">
        <ele>185.5</ele>
        <time>2022-08-11T08:57:06Z</time>
      </trkpt>
      <trkpt lat="44.88866" lon="0.75034">
        <ele>184.5</ele>
        <time>2022-08-11T08:57:08Z</time>
      </trkpt>
      <trkpt lat="44.88858" lon="0.75037">
        <ele>183.5</ele>
        <time>2022-08-11T08:57:10Z</time>
      </trkpt>
      <trkpt lat="44.88852" lon="0.7504">
        <ele>183.5</ele>
        <time>2022-08-11T08:57:12Z</time>
      </trkpt>
      <trkpt lat="44.88847" lon="0.7504">
        <ele>185.5</ele>
        <time>2022-08-11T08:59:12Z</time>
      </trkpt>
      <trkpt lat="44.88842" lon="0.75041">
        <ele>184.5</ele>
        <time>2022-08-11T08:59:15Z</time>
      </trkpt>
      <trkpt lat="44.88837" lon="0.75045">
        <ele>184.5</ele>
        <time>2022-08-11T08:59:18Z</time>
      </trkpt>
      <trkpt lat="44.88833" lon="0.75048">
        <ele>184.5</ele>
        <time>2022-08-11T08:59:20Z</time>
      </trkpt>
      <trkpt lat="44.88828" lon="0.75053">
        <ele>184.5</ele>
        <time>2022-08-11T08:59:22Z</time>
      </trkpt>
      <trkpt lat="44.88822" lon="0.75058">
        <ele>183.5</ele>
        <time>2022-08-11T08:59:24Z</time>
      </trkpt>
      <trkpt lat="44.88816" lon="0.75063">
        <ele>182.5</ele>
        <time>2022-08-11T08:59:26Z</time>
      </trkpt>
      <trkpt lat="44.88811" lon="0.75067">
        <ele>182.5</ele>
        <time>2022-08-11T08:59:28Z</time>
      </trkpt>
      <trkpt lat="44.88804" lon="0.75069">
        <ele>181.5</ele>
        <time>2022-08-11T08:59:30Z</time>
      </trkpt>
      <trkpt lat="44.88797" lon="0.75071">
        <ele>180.5</ele>
        <time>2022-08-11T08:59:32Z</time>
      </trkpt>
      <trkpt lat="44.88789" lon="0.75074">
        <ele>179.5</ele>
        <time>2022-08-11T08:59:34Z</time>
      </trkpt>
      <trkpt lat="44.88785" lon="0.75077">
        <ele>178.5</ele>
        <time>2022-08-11T08:59:35Z</time>
      </trkpt>
      <trkpt lat="44.88779" lon="0.7508">
        <ele>177.5</ele>
        <time>2022-08-11T08:59:36Z</time>
      </trkpt>
      <trkpt lat="44.88774" lon="0.75082">
        <ele>177.5</ele>
        <time>2022-08-11T08:59:37Z</time>
      </trkpt>
      <trkpt lat="44.88767" lon="0.75085">
        <ele>176.5</ele>
        <time>2022-08-11T08:59:39Z</time>
      </trkpt>
      <trkpt lat="44.8876" lon="0.75089">
        <ele>175.5</ele>
        <time>2022-08-11T08:59:41Z</time>
      </trkpt>
      <trkpt lat="44.88752" lon="0.75093">
        <ele>175.5</ele>
        <time>2022-08-11T08:59:43Z</time>
      </trkpt>
      <trkpt lat="44.88747" lon="0.75096">
        <ele>174.5</ele>
        <time>2022-08-11T08:59:44Z</time>
      </trkpt>
      <trkpt lat="44.88743" lon="0.75098">
        <ele>174.5</ele>
        <time>2022-08-11T08:59:45Z</time>
      </trkpt>
      <trkpt lat="44.88737" lon="0.75101">
        <ele>174.5</ele>
        <time>2022-08-11T08:59:47Z</time>
      </trkpt>
      <trkpt lat="44.88733" lon="0.75105">
        <ele>174.5</ele>
        <time>2022-08-11T08:59:49Z</time>
      </trkpt>
      <trkpt lat="44.88728" lon="0.75109">
        <ele>174.5</ele>
        <time>2022-08-11T08:59:51Z</time>
      </trkpt>
      <trkpt lat="44.88723" lon="0.75113">
        <ele>173.5</ele>
        <time>2022-08-11T08:59:53Z</time>
      </trkpt>
      <trkpt lat="44.88716" lon="0.75116">
        <ele>174.5</ele>
        <time>2022-08-11T08:59:55Z</time>
      </trkpt>
      <trkpt lat="44.88709" lon="0.7512">
        <ele>173.5</ele>
        <time>2022-08-11T08:59:57Z</time>
      </trkpt>
      <trkpt lat="44.88704" lon="0.75124">
        <ele>173.5</ele>
        <time>2022-08-11T08:59:59Z</time>
      </trkpt>
      <trkpt lat="44.887" lon="0.75129">
        <ele>173.5</ele>
        <time>2022-08-11T09:00:02Z</time>
      </trkpt>
      <trkpt lat="44.88696" lon="0.75134">
        <ele>174.5</ele>
        <time>2022-08-11T09:00:05Z</time>
      </trkpt>
      <trkpt lat="44.88691" lon="0.75138">
        <ele>174.5</ele>
        <time>2022-08-11T09:00:15Z</time>
      </trkpt>
      <trkpt lat="44.88686" lon="0.7514">
        <ele>173.5</ele>
        <time>2022-08-11T09:00:17Z</time>
      </trkpt>
      <trkpt lat="44.8868" lon="0.75142">
        <ele>173.5</ele>
        <time>2022-08-11T09:00:19Z</time>
      </trkpt>
      <trkpt lat="44.88673" lon="0.75144">
        <ele>173.5</ele>
        <time>2022-08-11T09:00:21Z</time>
      </trkpt>
      <trkpt lat="44.88664" lon="0.75145">
        <ele>173.5</ele>
        <time>2022-08-11T09:00:23Z</time>
      </trkpt>
      <trkpt lat="44.88657" lon="0.75148">
        <ele>173.5</ele>
        <time>2022-08-11T09:00:25Z</time>
      </trkpt>
      <trkpt lat="44.88652" lon="0.75151">
        <ele>174.5</ele>
        <time>2022-08-11T09:00:27Z</time>
      </trkpt>
      <trkpt lat="44.88647" lon="0.75156">
        <ele>174.5</ele>
        <time>2022-08-11T09:00:30Z</time>
      </trkpt>
      <trkpt lat="44.88645" lon="0.75162">
        <ele>173.5</ele>
        <time>2022-08-11T09:00:41Z</time>
      </trkpt>
      <trkpt lat="44.88641" lon="0.75164">
        <ele>174.5</ele>
        <time>2022-08-11T09:00:43Z</time>
      </trkpt>
      <trkpt lat="44.88635" lon="0.75165">
        <ele>174.5</ele>
        <time>2022-08-11T09:00:45Z</time>
      </trkpt>
      <trkpt lat="44.88628" lon="0.75165">
        <ele>174.5</ele>
        <time>2022-08-11T09:00:47Z</time>
      </trkpt>
      <trkpt lat="44.88623" lon="0.75166">
        <ele>174.5</ele>
        <time>2022-08-11T09:00:48Z</time>
      </trkpt>
      <trkpt lat="44.88619" lon="0.75167">
        <ele>174.5</ele>
        <time>2022-08-11T09:00:49Z</time>
      </trkpt>
      <trkpt lat="44.88614" lon="0.75168">
        <ele>174.5</ele>
        <time>2022-08-11T09:00:50Z</time>
      </trkpt>
      <trkpt lat="44.88609" lon="0.7517">
        <ele>173.5</ele>
        <time>2022-08-11T09:00:51Z</time>
      </trkpt>
      <trkpt lat="44.88604" lon="0.75172">
        <ele>173.5</ele>
        <time>2022-08-11T09:00:52Z</time>
      </trkpt>
      <trkpt lat="44.88599" lon="0.75174">
        <ele>173.5</ele>
        <time>2022-08-11T09:00:53Z</time>
      </trkpt>
      <trkpt lat="44.88594" lon="0.75175">
        <ele>173.5</ele>
        <time>2022-08-11T09:00:54Z</time>
      </trkpt>
      <trkpt lat="44.88589" lon="0.75177">
        <ele>172.5</ele>
        <time>2022-08-11T09:00:55Z</time>
      </trkpt>
      <trkpt lat="44.88583" lon="0.75179">
        <ele>172.5</ele>
        <time>2022-08-11T09:00:56Z</time>
      </trkpt>
      <trkpt lat="44.88578" lon="0.75181">
        <ele>172.5</ele>
        <time>2022-08-11T09:00:57Z</time>
      </trkpt>
      <trkpt lat="44.88572" lon="0.75183">
        <ele>173.5</ele>
        <time>2022-08-11T09:00:58Z</time>
      </trkpt>
      <trkpt lat="44.88567" lon="0.75185">
        <ele>172.5</ele>
        <time>2022-08-11T09:00:59Z</time>
      </trkpt>
      <trkpt lat="44.88562" lon="0.75188">
        <ele>172.5</ele>
        <time>2022-08-11T09:01:00Z</time>
      </trkpt>
      <trkpt lat="44.88556" lon="0.75191">
        <ele>171.5</ele>
        <time>2022-08-11T09:01:01Z</time>
      </trkpt>
      <trkpt lat="44.88551" lon="0.75193">
        <ele>170.5</ele>
        <time>2022-08-11T09:01:02Z</time>
      </trkpt>
      <trkpt lat="44.88546" lon="0.75196">
        <ele>170.5</ele>
        <time>2022-08-11T09:01:03Z</time>
      </trkpt>
      <trkpt lat="44.88541" lon="0.75198">
        <ele>169.5</ele>
        <time>2022-08-11T09:01:04Z</time>
      </trkpt>
      <trkpt lat="44.88535" lon="0.752">
        <ele>168.5</ele>
        <time>2022-08-11T09:01:05Z</time>
      </trkpt>
      <trkpt lat="44.8853" lon="0.75202">
        <ele>168.5</ele>
        <time>2022-08-11T09:01:06Z</time>
      </trkpt>
      <trkpt lat="44.88525" lon="0.75204">
        <ele>168.5</ele>
        <time>2022-08-11T09:01:07Z</time>
      </trkpt>
      <trkpt lat="44.88521" lon="0.75206">
        <ele>168.5</ele>
        <time>2022-08-11T09:01:08Z</time>
      </trkpt>
      <trkpt lat="44.88516" lon="0.75208">
        <ele>168.5</ele>
        <time>2022-08-11T09:01:09Z</time>
      </trkpt>
      <trkpt lat="44.88511" lon="0.75211">
        <ele>169.5</ele>
        <time>2022-08-11T09:01:10Z</time>
      </trkpt>
      <trkpt lat="44.88506" lon="0.75214">
        <ele>169.5</ele>
        <time>2022-08-11T09:01:11Z</time>
      </trkpt>
      <trkpt lat="44.88501" lon="0.75218">
        <ele>168.5</ele>
        <time>2022-08-11T09:01:12Z</time>
      </trkpt>
      <trkpt lat="44.88496" lon="0.75221">
        <ele>168.5</ele>
        <time>2022-08-11T09:01:13Z</time>
      </trkpt>
      <trkpt lat="44.88491" lon="0.75224">
        <ele>168.5</ele>
        <time>2022-08-11T09:01:14Z</time>
      </trkpt>
      <trkpt lat="44.88485" lon="0.75225">
        <ele>169.5</ele>
        <time>2022-08-11T09:01:15Z</time>
      </trkpt>
      <trkpt lat="44.8848" lon="0.75225">
        <ele>169.5</ele>
        <time>2022-08-11T09:01:16Z</time>
      </trkpt>
      <trkpt lat="44.88474" lon="0.75224">
        <ele>170.5</ele>
        <time>2022-08-11T09:01:18Z</time>
      </trkpt>
      <trkpt lat="44.8847" lon="0.75222">
        <ele>173.5</ele>
        <time>2022-08-11T09:01:44Z</time>
      </trkpt>
      <trkpt lat="44.88465" lon="0.7522">
        <ele>174.5</ele>
        <time>2022-08-11T09:01:47Z</time>
      </trkpt>
      <trkpt lat="44.88459" lon="0.75217">
        <ele>174.5</ele>
        <time>2022-08-11T09:01:49Z</time>
      </trkpt>
      <trkpt lat="44.88452" lon="0.75213">
        <ele>174.5</ele>
        <time>2022-08-11T09:01:51Z</time>
      </trkpt>
      <trkpt lat="44.88445" lon="0.75213">
        <ele>173.5</ele>
        <time>2022-08-11T09:01:52Z</time>
      </trkpt>
      <trkpt lat="44.88439" lon="0.75212">
        <ele>173.5</ele>
        <time>2022-08-11T09:01:53Z</time>
      </trkpt>
      <trkpt lat="44.88433" lon="0.75212">
        <ele>172.5</ele>
        <time>2022-08-11T09:01:54Z</time>
      </trkpt>
      <trkpt lat="44.88427" lon="0.75211">
        <ele>172.5</ele>
        <time>2022-08-11T09:01:55Z</time>
      </trkpt>
      <trkpt lat="44.88421" lon="0.75211">
        <ele>171.5</ele>
        <time>2022-08-11T09:01:56Z</time>
      </trkpt>
      <trkpt lat="44.88414" lon="0.7521">
        <ele>171.5</ele>
        <time>2022-08-11T09:01:57Z</time>
      </trkpt>
      <trkpt lat="44.88407" lon="0.75209">
        <ele>171.5</ele>
        <time>2022-08-11T09:01:58Z</time>
      </trkpt>
      <trkpt lat="44.88401" lon="0.75207">
        <ele>170.5</ele>
        <time>2022-08-11T09:01:59Z</time>
      </trkpt>
      <trkpt lat="44.88394" lon="0.75205">
        <ele>170.5</ele>
        <time>2022-08-11T09:02:00Z</time>
      </trkpt>
      <trkpt lat="44.88388" lon="0.75204">
        <ele>169.5</ele>
        <time>2022-08-11T09:02:01Z</time>
      </trkpt>
      <trkpt lat="44.88382" lon="0.75203">
        <ele>169.5</ele>
        <time>2022-08-11T09:02:02Z</time>
      </trkpt>
      <trkpt lat="44.88376" lon="0.75202">
        <ele>169.5</ele>
        <time>2022-08-11T09:02:03Z</time>
      </trkpt>
      <trkpt lat="44.8837" lon="0.75201">
        <ele>169.5</ele>
        <time>2022-08-11T09:02:04Z</time>
      </trkpt>
      <trkpt lat="44.88365" lon="0.75201">
        <ele>168.5</ele>
        <time>2022-08-11T09:02:05Z</time>
      </trkpt>
      <trkpt lat="44.88359" lon="0.75201">
        <ele>168.5</ele>
        <time>2022-08-11T09:02:06Z</time>
      </trkpt>
      <trkpt lat="44.88353" lon="0.75201">
        <ele>168.5</ele>
        <time>2022-08-11T09:02:07Z</time>
      </trkpt>
      <trkpt lat="44.88347" lon="0.75202">
        <ele>168.5</ele>
        <time>2022-08-11T09:02:08Z</time>
      </trkpt>
      <trkpt lat="44.88341" lon="0.75203">
        <ele>168.5</ele>
        <time>2022-08-11T09:02:09Z</time>
      </trkpt>
      <trkpt lat="44.88335" lon="0.75204">
        <ele>168.5</ele>
        <time>2022-08-11T09:02:10Z</time>
      </trkpt>
      <trkpt lat="44.88329" lon="0.75205">
        <ele>168.5</ele>
        <time>2022-08-11T09:02:11Z</time>
      </trkpt>
      <trkpt lat="44.88323" lon="0.75208">
        <ele>168.5</ele>
        <time>2022-08-11T09:02:12Z</time>
      </trkpt>
      <trkpt lat="44.88317" lon="0.7521">
        <ele>168.5</ele>
        <time>2022-08-11T09:02:13Z</time>
      </trkpt>
      <trkpt lat="44.88311" lon="0.75212">
        <ele>168.5</ele>
        <time>2022-08-11T09:02:14Z</time>
      </trkpt>
      <trkpt lat="44.88305" lon="0.75214">
        <ele>167.5</ele>
        <time>2022-08-11T09:02:15Z</time>
      </trkpt>
      <trkpt lat="44.88299" lon="0.75217">
        <ele>167.5</ele>
        <time>2022-08-11T09:02:16Z</time>
      </trkpt>
      <trkpt lat="44.88293" lon="0.75219">
        <ele>167.5</ele>
        <time>2022-08-11T09:02:17Z</time>
      </trkpt>
      <trkpt lat="44.88287" lon="0.75223">
        <ele>168.5</ele>
        <time>2022-08-11T09:02:18Z</time>
      </trkpt>
      <trkpt lat="44.88281" lon="0.75225">
        <ele>168.5</ele>
        <time>2022-08-11T09:02:19Z</time>
      </trkpt>
      <trkpt lat="44.88275" lon="0.75225">
        <ele>167.5</ele>
        <time>2022-08-11T09:02:20Z</time>
      </trkpt>
      <trkpt lat="44.88269" lon="0.75225">
        <ele>166.5</ele>
        <time>2022-08-11T09:02:21Z</time>
      </trkpt>
      <trkpt lat="44.88264" lon="0.75224">
        <ele>165.5</ele>
        <time>2022-08-11T09:02:22Z</time>
      </trkpt>
      <trkpt lat="44.88258" lon="0.75223">
        <ele>165.5</ele>
        <time>2022-08-11T09:02:23Z</time>
      </trkpt>
      <trkpt lat="44.88252" lon="0.75222">
        <ele>165.5</ele>
        <time>2022-08-11T09:02:24Z</time>
      </trkpt>
      <trkpt lat="44.88246" lon="0.75223">
        <ele>165.5</ele>
        <time>2022-08-11T09:02:25Z</time>
      </trkpt>
      <trkpt lat="44.8824" lon="0.75225">
        <ele>165.5</ele>
        <time>2022-08-11T09:02:26Z</time>
      </trkpt>
      <trkpt lat="44.88234" lon="0.75227">
        <ele>164.5</ele>
        <time>2022-08-11T09:02:27Z</time>
      </trkpt>
      <trkpt lat="44.88228" lon="0.75229">
        <ele>163.5</ele>
        <time>2022-08-11T09:02:28Z</time>
      </trkpt>
      <trkpt lat="44.88221" lon="0.7523">
        <ele>163.5</ele>
        <time>2022-08-11T09:02:29Z</time>
      </trkpt>
      <trkpt lat="44.88214" lon="0.75231">
        <ele>163.5</ele>
        <time>2022-08-11T09:02:30Z</time>
      </trkpt>
      <trkpt lat="44.88208" lon="0.75232">
        <ele>162.5</ele>
        <time>2022-08-11T09:02:31Z</time>
      </trkpt>
      <trkpt lat="44.88201" lon="0.75234">
        <ele>162.5</ele>
        <time>2022-08-11T09:02:32Z</time>
      </trkpt>
      <trkpt lat="44.88194" lon="0.75236">
        <ele>162.5</ele>
        <time>2022-08-11T09:02:33Z</time>
      </trkpt>
      <trkpt lat="44.88189" lon="0.75238">
        <ele>162.5</ele>
        <time>2022-08-11T09:02:34Z</time>
      </trkpt>
      <trkpt lat="44.88185" lon="0.75239">
        <ele>161.5</ele>
        <time>2022-08-11T09:02:35Z</time>
      </trkpt>
      <trkpt lat="44.8818" lon="0.75239">
        <ele>161.5</ele>
        <time>2022-08-11T09:02:36Z</time>
      </trkpt>
      <trkpt lat="44.88175" lon="0.75239">
        <ele>161.5</ele>
        <time>2022-08-11T09:02:37Z</time>
      </trkpt>
      <trkpt lat="44.8817" lon="0.7524">
        <ele>161.5</ele>
        <time>2022-08-11T09:02:38Z</time>
      </trkpt>
      <trkpt lat="44.88164" lon="0.7524">
        <ele>161.5</ele>
        <time>2022-08-11T09:02:39Z</time>
      </trkpt>
      <trkpt lat="44.88159" lon="0.7524">
        <ele>161.5</ele>
        <time>2022-08-11T09:02:40Z</time>
      </trkpt>
      <trkpt lat="44.88153" lon="0.7524">
        <ele>161.5</ele>
        <time>2022-08-11T09:02:41Z</time>
      </trkpt>
      <trkpt lat="44.88149" lon="0.7524">
        <ele>161.5</ele>
        <time>2022-08-11T09:02:42Z</time>
      </trkpt>
      <trkpt lat="44.88144" lon="0.75241">
        <ele>160.5</ele>
        <time>2022-08-11T09:02:43Z</time>
      </trkpt>
      <trkpt lat="44.88139" lon="0.7524">
        <ele>160.5</ele>
        <time>2022-08-11T09:02:44Z</time>
      </trkpt>
      <trkpt lat="44.88134" lon="0.7524">
        <ele>160.5</ele>
        <time>2022-08-11T09:02:45Z</time>
      </trkpt>
      <trkpt lat="44.88129" lon="0.75241">
        <ele>160.5</ele>
        <time>2022-08-11T09:02:46Z</time>
      </trkpt>
      <trkpt lat="44.88124" lon="0.75242">
        <ele>160.5</ele>
        <time>2022-08-11T09:02:47Z</time>
      </trkpt>
      <trkpt lat="44.8812" lon="0.75243">
        <ele>159.5</ele>
        <time>2022-08-11T09:02:48Z</time>
      </trkpt>
      <trkpt lat="44.88115" lon="0.75244">
        <ele>159.5</ele>
        <time>2022-08-11T09:02:49Z</time>
      </trkpt>
      <trkpt lat="44.8811" lon="0.75245">
        <ele>158.5</ele>
        <time>2022-08-11T09:02:50Z</time>
      </trkpt>
      <trkpt lat="44.88105" lon="0.75246">
        <ele>157.5</ele>
        <time>2022-08-11T09:02:51Z</time>
      </trkpt>
      <trkpt lat="44.881" lon="0.75248">
        <ele>157.5</ele>
        <time>2022-08-11T09:02:52Z</time>
      </trkpt>
      <trkpt lat="44.88095" lon="0.7525">
        <ele>157.5</ele>
        <time>2022-08-11T09:02:53Z</time>
      </trkpt>
      <trkpt lat="44.88091" lon="0.75251">
        <ele>157.5</ele>
        <time>2022-08-11T09:02:54Z</time>
      </trkpt>
      <trkpt lat="44.88086" lon="0.75252">
        <ele>156.5</ele>
        <time>2022-08-11T09:02:55Z</time>
      </trkpt>
      <trkpt lat="44.8808" lon="0.75254">
        <ele>155.5</ele>
        <time>2022-08-11T09:02:56Z</time>
      </trkpt>
      <trkpt lat="44.88075" lon="0.75256">
        <ele>155.5</ele>
        <time>2022-08-11T09:02:57Z</time>
      </trkpt>
      <trkpt lat="44.88067" lon="0.75259">
        <ele>154.5</ele>
        <time>2022-08-11T09:02:59Z</time>
      </trkpt>
      <trkpt lat="44.88059" lon="0.75262">
        <ele>152.5</ele>
        <time>2022-08-11T09:03:01Z</time>
      </trkpt>
      <trkpt lat="44.88052" lon="0.7526">
        <ele>151.5</ele>
        <time>2022-08-11T09:03:03Z</time>
      </trkpt>
      <trkpt lat="44.88045" lon="0.75258">
        <ele>151.5</ele>
        <time>2022-08-11T09:03:05Z</time>
      </trkpt>
      <trkpt lat="44.88038" lon="0.75256">
        <ele>150.5</ele>
        <time>2022-08-11T09:03:07Z</time>
      </trkpt>
      <trkpt lat="44.88032" lon="0.75257">
        <ele>150.5</ele>
        <time>2022-08-11T09:03:09Z</time>
      </trkpt>
      <trkpt lat="44.88026" lon="0.75258">
        <ele>148.5</ele>
        <time>2022-08-11T09:03:11Z</time>
      </trkpt>
      <trkpt lat="44.88021" lon="0.75253">
        <ele>148.5</ele>
        <time>2022-08-11T09:03:13Z</time>
      </trkpt>
      <trkpt lat="44.88017" lon="0.75245">
        <ele>148.5</ele>
        <time>2022-08-11T09:03:15Z</time>
      </trkpt>
      <trkpt lat="44.88013" lon="0.75238">
        <ele>148.5</ele>
        <time>2022-08-11T09:03:37Z</time>
      </trkpt>
      <trkpt lat="44.8801" lon="0.7523">
        <ele>148.5</ele>
        <time>2022-08-11T09:03:40Z</time>
      </trkpt>
      <trkpt lat="44.88006" lon="0.75225">
        <ele>147.5</ele>
        <time>2022-08-11T09:03:42Z</time>
      </trkpt>
      <trkpt lat="44.88003" lon="0.7522">
        <ele>146.5</ele>
        <time>2022-08-11T09:03:44Z</time>
      </trkpt>
      <trkpt lat="44.88" lon="0.75214">
        <ele>145.5</ele>
        <time>2022-08-11T09:03:46Z</time>
      </trkpt>
      <trkpt lat="44.87996" lon="0.75208">
        <ele>144.5</ele>
        <time>2022-08-11T09:03:48Z</time>
      </trkpt>
      <trkpt lat="44.87993" lon="0.75201">
        <ele>144.5</ele>
        <time>2022-08-11T09:03:50Z</time>
      </trkpt>
      <trkpt lat="44.8799" lon="0.75194">
        <ele>143.5</ele>
        <time>2022-08-11T09:03:52Z</time>
      </trkpt>
      <trkpt lat="44.87988" lon="0.75187">
        <ele>142.5</ele>
        <time>2022-08-11T09:03:54Z</time>
      </trkpt>
      <trkpt lat="44.87986" lon="0.7518">
        <ele>141.5</ele>
        <time>2022-08-11T09:03:56Z</time>
      </trkpt>
      <trkpt lat="44.87983" lon="0.75172">
        <ele>140.5</ele>
        <time>2022-08-11T09:03:58Z</time>
      </trkpt>
      <trkpt lat="44.87982" lon="0.75165">
        <ele>140.5</ele>
        <time>2022-08-11T09:04:00Z</time>
      </trkpt>
      <trkpt lat="44.87981" lon="0.75157">
        <ele>139.5</ele>
        <time>2022-08-11T09:04:03Z</time>
      </trkpt>
      <trkpt lat="44.8798" lon="0.75148">
        <ele>138.5</ele>
        <time>2022-08-11T09:04:06Z</time>
      </trkpt>
      <trkpt lat="44.87979" lon="0.7514">
        <ele>137.5</ele>
        <time>2022-08-11T09:04:09Z</time>
      </trkpt>
      <trkpt lat="44.87978" lon="0.75133">
        <ele>137.5</ele>
        <time>2022-08-11T09:04:12Z</time>
      </trkpt>
      <trkpt lat="44.87976" lon="0.75124">
        <ele>136.5</ele>
        <time>2022-08-11T09:04:15Z</time>
      </trkpt>
      <trkpt lat="44.87972" lon="0.7511">
        <ele>135.5</ele>
        <time>2022-08-11T09:04:18Z</time>
      </trkpt>
      <trkpt lat="44.87968" lon="0.751">
        <ele>135.5</ele>
        <time>2022-08-11T09:04:20Z</time>
      </trkpt>
      <trkpt lat="44.87963" lon="0.75091">
        <ele>135.5</ele>
        <time>2022-08-11T09:04:22Z</time>
      </trkpt>
      <trkpt lat="44.87959" lon="0.75084">
        <ele>134.5</ele>
        <time>2022-08-11T09:04:24Z</time>
      </trkpt>
      <trkpt lat="44.87955" lon="0.75079">
        <ele>134.5</ele>
        <time>2022-08-11T09:04:26Z</time>
      </trkpt>
      <trkpt lat="44.87951" lon="0.75073">
        <ele>134.5</ele>
        <time>2022-08-11T09:04:28Z</time>
      </trkpt>
      <trkpt lat="44.87947" lon="0.75068">
        <ele>134.5</ele>
        <time>2022-08-11T09:04:30Z</time>
      </trkpt>
      <trkpt lat="44.87943" lon="0.75063">
        <ele>133.5</ele>
        <time>2022-08-11T09:04:32Z</time>
      </trkpt>
      <trkpt lat="44.87939" lon="0.75058">
        <ele>133.5</ele>
        <time>2022-08-11T09:04:34Z</time>
      </trkpt>
      <trkpt lat="44.87936" lon="0.75051">
        <ele>132.5</ele>
        <time>2022-08-11T09:04:37Z</time>
      </trkpt>
      <trkpt lat="44.87932" lon="0.75045">
        <ele>131.5</ele>
        <time>2022-08-11T09:04:40Z</time>
      </trkpt>
      <trkpt lat="44.87927" lon="0.75043">
        <ele>130.5</ele>
        <time>2022-08-11T09:04:44Z</time>
      </trkpt>
      <trkpt lat="44.87922" lon="0.75043">
        <ele>131.5</ele>
        <time>2022-08-11T09:04:47Z</time>
      </trkpt>
      <trkpt lat="44.87917" lon="0.75044">
        <ele>133.5</ele>
        <time>2022-08-11T09:04:50Z</time>
      </trkpt>
      <trkpt lat="44.87911" lon="0.75043">
        <ele>135.5</ele>
        <time>2022-08-11T09:04:55Z</time>
      </trkpt>
      <trkpt lat="44.87905" lon="0.75044">
        <ele>135.5</ele>
        <time>2022-08-11T09:04:58Z</time>
      </trkpt>
      <trkpt lat="44.87899" lon="0.75044">
        <ele>137.5</ele>
        <time>2022-08-11T09:05:02Z</time>
      </trkpt>
      <trkpt lat="44.87894" lon="0.75045">
        <ele>137.5</ele>
        <time>2022-08-11T09:05:06Z</time>
      </trkpt>
      <trkpt lat="44.87889" lon="0.75046">
        <ele>137.5</ele>
        <time>2022-08-11T09:05:11Z</time>
      </trkpt>
      <trkpt lat="44.87884" lon="0.75048">
        <ele>136.5</ele>
        <time>2022-08-11T09:05:14Z</time>
      </trkpt>
      <trkpt lat="44.87879" lon="0.75048">
        <ele>137.5</ele>
        <time>2022-08-11T09:05:17Z</time>
      </trkpt>
      <trkpt lat="44.87874" lon="0.75049">
        <ele>137.5</ele>
        <time>2022-08-11T09:05:20Z</time>
      </trkpt>
      <trkpt lat="44.87869" lon="0.75049">
        <ele>137.5</ele>
        <time>2022-08-11T09:05:23Z</time>
      </trkpt>
      <trkpt lat="44.87863" lon="0.7505">
        <ele>137.5</ele>
        <time>2022-08-11T09:05:27Z</time>
      </trkpt>
      <trkpt lat="44.87858" lon="0.7505">
        <ele>139.5</ele>
        <time>2022-08-11T09:05:31Z</time>
      </trkpt>
      <trkpt lat="44.87853" lon="0.75049">
        <ele>139.5</ele>
        <time>2022-08-11T09:05:35Z</time>
      </trkpt>
      <trkpt lat="44.87848" lon="0.75047">
        <ele>139.5</ele>
        <time>2022-08-11T09:05:38Z</time>
      </trkpt>
      <trkpt lat="44.87844" lon="0.75046">
        <ele>140.5</ele>
        <time>2022-08-11T09:05:42Z</time>
      </trkpt>
      <trkpt lat="44.87838" lon="0.75043">
        <ele>139.5</ele>
        <time>2022-08-11T09:05:45Z</time>
      </trkpt>
      <trkpt lat="44.87834" lon="0.75041">
        <ele>139.5</ele>
        <time>2022-08-11T09:05:47Z</time>
      </trkpt>
      <trkpt lat="44.87829" lon="0.75041">
        <ele>139.5</ele>
        <time>2022-08-11T09:05:49Z</time>
      </trkpt>
      <trkpt lat="44.87823" lon="0.7504">
        <ele>140.5</ele>
        <time>2022-08-11T09:05:52Z</time>
      </trkpt>
      <trkpt lat="44.87817" lon="0.75039">
        <ele>141.5</ele>
        <time>2022-08-11T09:05:55Z</time>
      </trkpt>
      <trkpt lat="44.8781" lon="0.75039">
        <ele>141.5</ele>
        <time>2022-08-11T09:05:58Z</time>
      </trkpt>
      <trkpt lat="44.87806" lon="0.7504">
        <ele>141.5</ele>
        <time>2022-08-11T09:06:00Z</time>
      </trkpt>
      <trkpt lat="44.87801" lon="0.75041">
        <ele>141.5</ele>
        <time>2022-08-11T09:06:02Z</time>
      </trkpt>
      <trkpt lat="44.87796" lon="0.75043">
        <ele>142.5</ele>
        <time>2022-08-11T09:06:04Z</time>
      </trkpt>
      <trkpt lat="44.87792" lon="0.75044">
        <ele>143.5</ele>
        <time>2022-08-11T09:06:06Z</time>
      </trkpt>
      <trkpt lat="44.87785" lon="0.75045">
        <ele>143.5</ele>
        <time>2022-08-11T09:06:09Z</time>
      </trkpt>
      <trkpt lat="44.8778" lon="0.75045">
        <ele>145.5</ele>
        <time>2022-08-11T09:06:12Z</time>
      </trkpt>
      <trkpt lat="44.87775" lon="0.75045">
        <ele>146.5</ele>
        <time>2022-08-11T09:06:16Z</time>
      </trkpt>
      <trkpt lat="44.8777" lon="0.75042">
        <ele>147.5</ele>
        <time>2022-08-11T09:06:20Z</time>
      </trkpt>
      <trkpt lat="44.87766" lon="0.75039">
        <ele>147.5</ele>
        <time>2022-08-11T09:06:23Z</time>
      </trkpt>
      <trkpt lat="44.87761" lon="0.75036">
        <ele>148.5</ele>
        <time>2022-08-11T09:06:26Z</time>
      </trkpt>
      <trkpt lat="44.87756" lon="0.75032">
        <ele>148.5</ele>
        <time>2022-08-11T09:06:30Z</time>
      </trkpt>
      <trkpt lat="44.87752" lon="0.75029">
        <ele>148.5</ele>
        <time>2022-08-11T09:06:33Z</time>
      </trkpt>
      <trkpt lat="44.87747" lon="0.75026">
        <ele>147.5</ele>
        <time>2022-08-11T09:06:36Z</time>
      </trkpt>
      <trkpt lat="44.87741" lon="0.75024">
        <ele>147.5</ele>
        <time>2022-08-11T09:06:39Z</time>
      </trkpt>
      <trkpt lat="44.87735" lon="0.75021">
        <ele>148.5</ele>
        <time>2022-08-11T09:06:42Z</time>
      </trkpt>
      <trkpt lat="44.87731" lon="0.75019">
        <ele>148.5</ele>
        <time>2022-08-11T09:06:44Z</time>
      </trkpt>
      <trkpt lat="44.87725" lon="0.75018">
        <ele>148.5</ele>
        <time>2022-08-11T09:06:46Z</time>
      </trkpt>
      <trkpt lat="44.8772" lon="0.75017">
        <ele>150.5</ele>
        <time>2022-08-11T09:06:48Z</time>
      </trkpt>
      <trkpt lat="44.87714" lon="0.75017">
        <ele>151.5</ele>
        <time>2022-08-11T09:06:50Z</time>
      </trkpt>
      <trkpt lat="44.87708" lon="0.75017">
        <ele>151.5</ele>
        <time>2022-08-11T09:06:52Z</time>
      </trkpt>
      <trkpt lat="44.87702" lon="0.75017">
        <ele>150.5</ele>
        <time>2022-08-11T09:06:54Z</time>
      </trkpt>
      <trkpt lat="44.87697" lon="0.75017">
        <ele>150.5</ele>
        <time>2022-08-11T09:06:56Z</time>
      </trkpt>
      <trkpt lat="44.87692" lon="0.75018">
        <ele>150.5</ele>
        <time>2022-08-11T09:06:58Z</time>
      </trkpt>
      <trkpt lat="44.87686" lon="0.75019">
        <ele>151.5</ele>
        <time>2022-08-11T09:07:00Z</time>
      </trkpt>
      <trkpt lat="44.87681" lon="0.75019">
        <ele>151.5</ele>
        <time>2022-08-11T09:07:02Z</time>
      </trkpt>
      <trkpt lat="44.87675" lon="0.7502">
        <ele>151.5</ele>
        <time>2022-08-11T09:07:05Z</time>
      </trkpt>
      <trkpt lat="44.8767" lon="0.75022">
        <ele>150.5</ele>
        <time>2022-08-11T09:07:07Z</time>
      </trkpt>
      <trkpt lat="44.87664" lon="0.75024">
        <ele>150.5</ele>
        <time>2022-08-11T09:07:10Z</time>
      </trkpt>
      <trkpt lat="44.87659" lon="0.75027">
        <ele>150.5</ele>
        <time>2022-08-11T09:07:14Z</time>
      </trkpt>
      <trkpt lat="44.87655" lon="0.75029">
        <ele>149.5</ele>
        <time>2022-08-11T09:09:05Z</time>
      </trkpt>
      <trkpt lat="44.8765" lon="0.7503">
        <ele>158.5</ele>
        <time>2022-08-11T09:09:39Z</time>
      </trkpt>
      <trkpt lat="44.87655" lon="0.75025">
        <ele>155.5</ele>
        <time>2022-08-11T09:13:33Z</time>
      </trkpt>
      <trkpt lat="44.87661" lon="0.75024">
        <ele>156.5</ele>
        <time>2022-08-11T09:13:35Z</time>
      </trkpt>
      <trkpt lat="44.87667" lon="0.75022">
        <ele>156.5</ele>
        <time>2022-08-11T09:13:37Z</time>
      </trkpt>
      <trkpt lat="44.87673" lon="0.75022">
        <ele>156.5</ele>
        <time>2022-08-11T09:13:39Z</time>
      </trkpt>
      <trkpt lat="44.87678" lon="0.75022">
        <ele>156.5</ele>
        <time>2022-08-11T09:13:41Z</time>
      </trkpt>
      <trkpt lat="44.87683" lon="0.75023">
        <ele>155.5</ele>
        <time>2022-08-11T09:13:43Z</time>
      </trkpt>
      <trkpt lat="44.87689" lon="0.75022">
        <ele>155.5</ele>
        <time>2022-08-11T09:13:45Z</time>
      </trkpt>
      <trkpt lat="44.87696" lon="0.75021">
        <ele>155.5</ele>
        <time>2022-08-11T09:13:47Z</time>
      </trkpt>
      <trkpt lat="44.87701" lon="0.75021">
        <ele>155.5</ele>
        <time>2022-08-11T09:13:49Z</time>
      </trkpt>
      <trkpt lat="44.87706" lon="0.75022">
        <ele>154.5</ele>
        <time>2022-08-11T09:13:52Z</time>
      </trkpt>
      <trkpt lat="44.87711" lon="0.75025">
        <ele>153.5</ele>
        <time>2022-08-11T09:13:56Z</time>
      </trkpt>
      <trkpt lat="44.87716" lon="0.75029">
        <ele>153.5</ele>
        <time>2022-08-11T09:13:58Z</time>
      </trkpt>
      <trkpt lat="44.87722" lon="0.75034">
        <ele>152.5</ele>
        <time>2022-08-11T09:14:00Z</time>
      </trkpt>
      <trkpt lat="44.87727" lon="0.7504">
        <ele>152.5</ele>
        <time>2022-08-11T09:14:02Z</time>
      </trkpt>
      <trkpt lat="44.87731" lon="0.75044">
        <ele>151.5</ele>
        <time>2022-08-11T09:14:04Z</time>
      </trkpt>
      <trkpt lat="44.87735" lon="0.75048">
        <ele>149.5</ele>
        <time>2022-08-11T09:14:08Z</time>
      </trkpt>
      <trkpt lat="44.87739" lon="0.75047">
        <ele>147.5</ele>
        <time>2022-08-11T09:14:13Z</time>
      </trkpt>
      <trkpt lat="44.87745" lon="0.75047">
        <ele>147.5</ele>
        <time>2022-08-11T09:14:17Z</time>
      </trkpt>
      <trkpt lat="44.87753" lon="0.75048">
        <ele>145.5</ele>
        <time>2022-08-11T09:14:19Z</time>
      </trkpt>
      <trkpt lat="44.87759" lon="0.75049">
        <ele>143.5</ele>
        <time>2022-08-11T09:14:21Z</time>
      </trkpt>
      <trkpt lat="44.87764" lon="0.75049">
        <ele>142.5</ele>
        <time>2022-08-11T09:14:23Z</time>
      </trkpt>
      <trkpt lat="44.87771" lon="0.75046">
        <ele>141.5</ele>
        <time>2022-08-11T09:14:25Z</time>
      </trkpt>
      <trkpt lat="44.87777" lon="0.75044">
        <ele>141.5</ele>
        <time>2022-08-11T09:14:27Z</time>
      </trkpt>
      <trkpt lat="44.87782" lon="0.75044">
        <ele>141.5</ele>
        <time>2022-08-11T09:14:29Z</time>
      </trkpt>
      <trkpt lat="44.87788" lon="0.75047">
        <ele>141.5</ele>
        <time>2022-08-11T09:14:32Z</time>
      </trkpt>
      <trkpt lat="44.87793" lon="0.7505">
        <ele>141.5</ele>
        <time>2022-08-11T09:14:34Z</time>
      </trkpt>
      <trkpt lat="44.87798" lon="0.75054">
        <ele>141.5</ele>
        <time>2022-08-11T09:14:36Z</time>
      </trkpt>
      <trkpt lat="44.87803" lon="0.75058">
        <ele>140.5</ele>
        <time>2022-08-11T09:14:39Z</time>
      </trkpt>
      <trkpt lat="44.87808" lon="0.75059">
        <ele>140.5</ele>
        <time>2022-08-11T09:14:42Z</time>
      </trkpt>
      <trkpt lat="44.87814" lon="0.75059">
        <ele>140.5</ele>
        <time>2022-08-11T09:14:44Z</time>
      </trkpt>
      <trkpt lat="44.87821" lon="0.75057">
        <ele>140.5</ele>
        <time>2022-08-11T09:14:46Z</time>
      </trkpt>
      <trkpt lat="44.87828" lon="0.75056">
        <ele>139.5</ele>
        <time>2022-08-11T09:14:48Z</time>
      </trkpt>
      <trkpt lat="44.87834" lon="0.75053">
        <ele>137.5</ele>
        <time>2022-08-11T09:14:50Z</time>
      </trkpt>
      <trkpt lat="44.8784" lon="0.75051">
        <ele>136.5</ele>
        <time>2022-08-11T09:14:52Z</time>
      </trkpt>
      <trkpt lat="44.87844" lon="0.75049">
        <ele>136.5</ele>
        <time>2022-08-11T09:14:54Z</time>
      </trkpt>
      <trkpt lat="44.8785" lon="0.75048">
        <ele>135.5</ele>
        <time>2022-08-11T09:14:56Z</time>
      </trkpt>
      <trkpt lat="44.87855" lon="0.75047">
        <ele>134.5</ele>
        <time>2022-08-11T09:14:58Z</time>
      </trkpt>
      <trkpt lat="44.87861" lon="0.75046">
        <ele>132.5</ele>
        <time>2022-08-11T09:15:01Z</time>
      </trkpt>
      <trkpt lat="44.87868" lon="0.75044">
        <ele>127.5</ele>
        <time>2022-08-11T09:15:04Z</time>
      </trkpt>
      <trkpt lat="44.87874" lon="0.75042">
        <ele>124.5</ele>
        <time>2022-08-11T09:15:06Z</time>
      </trkpt>
      <trkpt lat="44.87879" lon="0.75041">
        <ele>124.5</ele>
        <time>2022-08-11T09:15:09Z</time>
      </trkpt>
      <trkpt lat="44.87883" lon="0.7504">
        <ele>125.5</ele>
        <time>2022-08-11T09:15:12Z</time>
      </trkpt>
      <trkpt lat="44.8789" lon="0.75038">
        <ele>126.5</ele>
        <time>2022-08-11T09:15:24Z</time>
      </trkpt>
      <trkpt lat="44.87893" lon="0.75045">
        <ele>127.5</ele>
        <time>2022-08-11T09:15:28Z</time>
      </trkpt>
      <trkpt lat="44.87897" lon="0.75051">
        <ele>126.5</ele>
        <time>2022-08-11T09:15:32Z</time>
      </trkpt>
      <trkpt lat="44.87902" lon="0.75056">
        <ele>125.5</ele>
        <time>2022-08-11T09:15:34Z</time>
      </trkpt>
      <trkpt lat="44.87906" lon="0.75063">
        <ele>124.5</ele>
        <time>2022-08-11T09:15:36Z</time>
      </trkpt>
      <trkpt lat="44.8791" lon="0.7507">
        <ele>124.5</ele>
        <time>2022-08-11T09:15:38Z</time>
      </trkpt>
      <trkpt lat="44.87914" lon="0.75074">
        <ele>124.5</ele>
        <time>2022-08-11T09:15:40Z</time>
      </trkpt>
      <trkpt lat="44.87917" lon="0.75078">
        <ele>123.5</ele>
        <time>2022-08-11T09:15:43Z</time>
      </trkpt>
      <trkpt lat="44.87922" lon="0.75084">
        <ele>121.5</ele>
        <time>2022-08-11T09:15:47Z</time>
      </trkpt>
      <trkpt lat="44.87928" lon="0.75088">
        <ele>119.5</ele>
        <time>2022-08-11T09:15:50Z</time>
      </trkpt>
      <trkpt lat="44.87933" lon="0.7509">
        <ele>117.5</ele>
        <time>2022-08-11T09:15:58Z</time>
      </trkpt>
      <trkpt lat="44.87939" lon="0.75095">
        <ele>116.5</ele>
        <time>2022-08-11T09:16:02Z</time>
      </trkpt>
      <trkpt lat="44.87942" lon="0.751">
        <ele>116.5</ele>
        <time>2022-08-11T09:16:05Z</time>
      </trkpt>
      <trkpt lat="44.87947" lon="0.75105">
        <ele>111.5</ele>
        <time>2022-08-11T09:16:19Z</time>
      </trkpt>
      <trkpt lat="44.87946" lon="0.75111">
        <ele>112.5</ele>
        <time>2022-08-11T09:16:27Z</time>
      </trkpt>
      <trkpt lat="44.87944" lon="0.7512">
        <ele>112.5</ele>
        <time>2022-08-11T09:16:34Z</time>
      </trkpt>
      <trkpt lat="44.8794" lon="0.75128">
        <ele>112.5</ele>
        <time>2022-08-11T09:16:37Z</time>
      </trkpt>
      <trkpt lat="44.87937" lon="0.75134">
        <ele>111.5</ele>
        <time>2022-08-11T09:16:39Z</time>
      </trkpt>
      <trkpt lat="44.87935" lon="0.75141">
        <ele>111.5</ele>
        <time>2022-08-11T09:16:41Z</time>
      </trkpt>
      <trkpt lat="44.87933" lon="0.75149">
        <ele>110.5</ele>
        <time>2022-08-11T09:16:43Z</time>
      </trkpt>
      <trkpt lat="44.87929" lon="0.75157">
        <ele>109.5</ele>
        <time>2022-08-11T09:16:45Z</time>
      </trkpt>
      <trkpt lat="44.87926" lon="0.75164">
        <ele>109.5</ele>
        <time>2022-08-11T09:16:47Z</time>
      </trkpt>
      <trkpt lat="44.87922" lon="0.75171">
        <ele>108.5</ele>
        <time>2022-08-11T09:16:49Z</time>
      </trkpt>
      <trkpt lat="44.87915" lon="0.7518">
        <ele>108.5</ele>
        <time>2022-08-11T09:16:51Z</time>
      </trkpt>
      <trkpt lat="44.87913" lon="0.75187">
        <ele>108.5</ele>
        <time>2022-08-11T09:16:52Z</time>
      </trkpt>
      <trkpt lat="44.8791" lon="0.75193">
        <ele>108.5</ele>
        <time>2022-08-11T09:16:53Z</time>
      </trkpt>
      <trkpt lat="44.87907" lon="0.75199">
        <ele>108.5</ele>
        <time>2022-08-11T09:16:54Z</time>
      </trkpt>
      <trkpt lat="44.87904" lon="0.75204">
        <ele>109.5</ele>
        <time>2022-08-11T09:16:55Z</time>
      </trkpt>
      <trkpt lat="44.87901" lon="0.75209">
        <ele>109.5</ele>
        <time>2022-08-11T09:16:56Z</time>
      </trkpt>
      <trkpt lat="44.87892" lon="0.75224">
        <ele>110.5</ele>
        <time>2022-08-11T09:16:59Z</time>
      </trkpt>
      <trkpt lat="44.8789" lon="0.75233">
        <ele>110.5</ele>
        <time>2022-08-11T09:17:00Z</time>
      </trkpt>
      <trkpt lat="44.87889" lon="0.75242">
        <ele>110.5</ele>
        <time>2022-08-11T09:17:01Z</time>
      </trkpt>
      <trkpt lat="44.87887" lon="0.75251">
        <ele>108.5</ele>
        <time>2022-08-11T09:17:02Z</time>
      </trkpt>
      <trkpt lat="44.87885" lon="0.75259">
        <ele>107.5</ele>
        <time>2022-08-11T09:17:03Z</time>
      </trkpt>
      <trkpt lat="44.87883" lon="0.75267">
        <ele>106.5</ele>
        <time>2022-08-11T09:17:04Z</time>
      </trkpt>
      <trkpt lat="44.87883" lon="0.75275">
        <ele>105.5</ele>
        <time>2022-08-11T09:17:05Z</time>
      </trkpt>
      <trkpt lat="44.87884" lon="0.75284">
        <ele>103.5</ele>
        <time>2022-08-11T09:17:06Z</time>
      </trkpt>
      <trkpt lat="44.87885" lon="0.75291">
        <ele>102.5</ele>
        <time>2022-08-11T09:17:07Z</time>
      </trkpt>
      <trkpt lat="44.87886" lon="0.75298">
        <ele>101.5</ele>
        <time>2022-08-11T09:17:08Z</time>
      </trkpt>
      <trkpt lat="44.87888" lon="0.75307">
        <ele>100.5</ele>
        <time>2022-08-11T09:17:09Z</time>
      </trkpt>
      <trkpt lat="44.87889" lon="0.75316">
        <ele>100.5</ele>
        <time>2022-08-11T09:17:10Z</time>
      </trkpt>
      <trkpt lat="44.8789" lon="0.75325">
        <ele>99.5</ele>
        <time>2022-08-11T09:17:11Z</time>
      </trkpt>
      <trkpt lat="44.87892" lon="0.75334">
        <ele>99.5</ele>
        <time>2022-08-11T09:17:12Z</time>
      </trkpt>
      <trkpt lat="44.87893" lon="0.75344">
        <ele>99.5</ele>
        <time>2022-08-11T09:17:13Z</time>
      </trkpt>
      <trkpt lat="44.87893" lon="0.75353">
        <ele>99.5</ele>
        <time>2022-08-11T09:17:14Z</time>
      </trkpt>
      <trkpt lat="44.87893" lon="0.75362">
        <ele>99.5</ele>
        <time>2022-08-11T09:17:15Z</time>
      </trkpt>
      <trkpt lat="44.87893" lon="0.75368">
        <ele>99.5</ele>
        <time>2022-08-11T09:17:16Z</time>
      </trkpt>
      <trkpt lat="44.8789" lon="0.75376">
        <ele>100.5</ele>
        <time>2022-08-11T09:17:18Z</time>
      </trkpt>
      <trkpt lat="44.87889" lon="0.75382">
        <ele>100.5</ele>
        <time>2022-08-11T09:17:21Z</time>
      </trkpt>
      <trkpt lat="44.87886" lon="0.75388">
        <ele>101.5</ele>
        <time>2022-08-11T09:17:24Z</time>
      </trkpt>
      <trkpt lat="44.87882" lon="0.75393">
        <ele>102.5</ele>
        <time>2022-08-11T09:17:29Z</time>
      </trkpt>
      <trkpt lat="44.87879" lon="0.75401">
        <ele>103.5</ele>
        <time>2022-08-11T09:17:32Z</time>
      </trkpt>
      <trkpt lat="44.87876" lon="0.75407">
        <ele>104.5</ele>
        <time>2022-08-11T09:17:34Z</time>
      </trkpt>
      <trkpt lat="44.87874" lon="0.75414">
        <ele>104.5</ele>
        <time>2022-08-11T09:17:36Z</time>
      </trkpt>
      <trkpt lat="44.87872" lon="0.75421">
        <ele>106.5</ele>
        <time>2022-08-11T09:17:39Z</time>
      </trkpt>
      <trkpt lat="44.87869" lon="0.75427">
        <ele>107.5</ele>
        <time>2022-08-11T09:17:46Z</time>
      </trkpt>
      <trkpt lat="44.87867" lon="0.75433">
        <ele>108.5</ele>
        <time>2022-08-11T09:17:48Z</time>
      </trkpt>
      <trkpt lat="44.87864" lon="0.7544">
        <ele>108.5</ele>
        <time>2022-08-11T09:17:51Z</time>
      </trkpt>
      <trkpt lat="44.87861" lon="0.75446">
        <ele>110.5</ele>
        <time>2022-08-11T09:17:56Z</time>
      </trkpt>
      <trkpt lat="44.87858" lon="0.75452">
        <ele>110.5</ele>
        <time>2022-08-11T09:18:03Z</time>
      </trkpt>
      <trkpt lat="44.87853" lon="0.75459">
        <ele>110.5</ele>
        <time>2022-08-11T09:18:06Z</time>
      </trkpt>
      <trkpt lat="44.87851" lon="0.75465">
        <ele>110.5</ele>
        <time>2022-08-11T09:18:09Z</time>
      </trkpt>
      <trkpt lat="44.87847" lon="0.7547">
        <ele>110.5</ele>
        <time>2022-08-11T09:18:12Z</time>
      </trkpt>
      <trkpt lat="44.87843" lon="0.75477">
        <ele>109.5</ele>
        <time>2022-08-11T09:18:18Z</time>
      </trkpt>
      <trkpt lat="44.8784" lon="0.75482">
        <ele>110.5</ele>
        <time>2022-08-11T09:18:20Z</time>
      </trkpt>
      <trkpt lat="44.87838" lon="0.75488">
        <ele>109.5</ele>
        <time>2022-08-11T09:18:22Z</time>
      </trkpt>
      <trkpt lat="44.87834" lon="0.75496">
        <ele>110.5</ele>
        <time>2022-08-11T09:18:27Z</time>
      </trkpt>
      <trkpt lat="44.87831" lon="0.75501">
        <ele>110.5</ele>
        <time>2022-08-11T09:18:30Z</time>
      </trkpt>
      <trkpt lat="44.87828" lon="0.75507">
        <ele>110.5</ele>
        <time>2022-08-11T09:18:33Z</time>
      </trkpt>
      <trkpt lat="44.87825" lon="0.75514">
        <ele>109.5</ele>
        <time>2022-08-11T09:18:35Z</time>
      </trkpt>
      <trkpt lat="44.87821" lon="0.75521">
        <ele>109.5</ele>
        <time>2022-08-11T09:18:38Z</time>
      </trkpt>
      <trkpt lat="44.87818" lon="0.75527">
        <ele>111.5</ele>
        <time>2022-08-11T09:18:41Z</time>
      </trkpt>
      <trkpt lat="44.87814" lon="0.75532">
        <ele>111.5</ele>
        <time>2022-08-11T09:18:44Z</time>
      </trkpt>
      <trkpt lat="44.8781" lon="0.75539">
        <ele>111.5</ele>
        <time>2022-08-11T09:18:49Z</time>
      </trkpt>
      <trkpt lat="44.87806" lon="0.75546">
        <ele>111.5</ele>
        <time>2022-08-11T09:18:52Z</time>
      </trkpt>
      <trkpt lat="44.87802" lon="0.75552">
        <ele>113.5</ele>
        <time>2022-08-11T09:18:56Z</time>
      </trkpt>
      <trkpt lat="44.87798" lon="0.7556">
        <ele>113.5</ele>
        <time>2022-08-11T09:19:01Z</time>
      </trkpt>
      <trkpt lat="44.87795" lon="0.75566">
        <ele>113.5</ele>
        <time>2022-08-11T09:19:03Z</time>
      </trkpt>
      <trkpt lat="44.87791" lon="0.75573">
        <ele>114.5</ele>
        <time>2022-08-11T09:19:07Z</time>
      </trkpt>
      <trkpt lat="44.87788" lon="0.7558">
        <ele>116.5</ele>
        <time>2022-08-11T09:19:10Z</time>
      </trkpt>
      <trkpt lat="44.87786" lon="0.75588">
        <ele>116.5</ele>
        <time>2022-08-11T09:19:14Z</time>
      </trkpt>
      <trkpt lat="44.87784" lon="0.75597">
        <ele>116.5</ele>
        <time>2022-08-11T09:19:19Z</time>
      </trkpt>
      <trkpt lat="44.87783" lon="0.75604">
        <ele>117.5</ele>
        <time>2022-08-11T09:19:22Z</time>
      </trkpt>
      <trkpt lat="44.87782" lon="0.75611">
        <ele>117.5</ele>
        <time>2022-08-11T09:19:25Z</time>
      </trkpt>
      <trkpt lat="44.87782" lon="0.75619">
        <ele>117.5</ele>
        <time>2022-08-11T09:19:29Z</time>
      </trkpt>
      <trkpt lat="44.87782" lon="0.75627">
        <ele>117.5</ele>
        <time>2022-08-11T09:19:33Z</time>
      </trkpt>
      <trkpt lat="44.87779" lon="0.75635">
        <ele>118.5</ele>
        <time>2022-08-11T09:19:37Z</time>
      </trkpt>
      <trkpt lat="44.87777" lon="0.75641">
        <ele>118.5</ele>
        <time>2022-08-11T09:19:39Z</time>
      </trkpt>
      <trkpt lat="44.87775" lon="0.75649">
        <ele>118.5</ele>
        <time>2022-08-11T09:19:42Z</time>
      </trkpt>
      <trkpt lat="44.87775" lon="0.75656">
        <ele>118.5</ele>
        <time>2022-08-11T09:19:44Z</time>
      </trkpt>
      <trkpt lat="44.87775" lon="0.75664">
        <ele>117.5</ele>
        <time>2022-08-11T09:19:47Z</time>
      </trkpt>
      <trkpt lat="44.87773" lon="0.75671">
        <ele>116.5</ele>
        <time>2022-08-11T09:19:50Z</time>
      </trkpt>
      <trkpt lat="44.87771" lon="0.75678">
        <ele>116.5</ele>
        <time>2022-08-11T09:19:52Z</time>
      </trkpt>
      <trkpt lat="44.8777" lon="0.75687">
        <ele>115.5</ele>
        <time>2022-08-11T09:19:54Z</time>
      </trkpt>
      <trkpt lat="44.8777" lon="0.75695">
        <ele>114.5</ele>
        <time>2022-08-11T09:19:56Z</time>
      </trkpt>
      <trkpt lat="44.8777" lon="0.75706">
        <ele>113.5</ele>
        <time>2022-08-11T09:19:59Z</time>
      </trkpt>
      <trkpt lat="44.87771" lon="0.75713">
        <ele>114.5</ele>
        <time>2022-08-11T09:20:05Z</time>
      </trkpt>
      <trkpt lat="44.87772" lon="0.75719">
        <ele>115.5</ele>
        <time>2022-08-11T09:20:09Z</time>
      </trkpt>
      <trkpt lat="44.87774" lon="0.75727">
        <ele>114.5</ele>
        <time>2022-08-11T09:20:14Z</time>
      </trkpt>
      <trkpt lat="44.87777" lon="0.75732">
        <ele>114.5</ele>
        <time>2022-08-11T09:20:16Z</time>
      </trkpt>
      <trkpt lat="44.87781" lon="0.75737">
        <ele>114.5</ele>
        <time>2022-08-11T09:20:18Z</time>
      </trkpt>
      <trkpt lat="44.87786" lon="0.75746">
        <ele>114.5</ele>
        <time>2022-08-11T09:20:20Z</time>
      </trkpt>
      <trkpt lat="44.8779" lon="0.75754">
        <ele>113.5</ele>
        <time>2022-08-11T09:20:22Z</time>
      </trkpt>
      <trkpt lat="44.87793" lon="0.75765">
        <ele>113.5</ele>
        <time>2022-08-11T09:20:24Z</time>
      </trkpt>
      <trkpt lat="44.87797" lon="0.75773">
        <ele>112.5</ele>
        <time>2022-08-11T09:20:26Z</time>
      </trkpt>
      <trkpt lat="44.878" lon="0.7578">
        <ele>112.5</ele>
        <time>2022-08-11T09:20:28Z</time>
      </trkpt>
      <trkpt lat="44.87802" lon="0.75789">
        <ele>111.5</ele>
        <time>2022-08-11T09:20:30Z</time>
      </trkpt>
      <trkpt lat="44.87805" lon="0.75798">
        <ele>110.5</ele>
        <time>2022-08-11T09:20:32Z</time>
      </trkpt>
      <trkpt lat="44.87807" lon="0.75808">
        <ele>108.5</ele>
        <time>2022-08-11T09:20:34Z</time>
      </trkpt>
      <trkpt lat="44.87809" lon="0.75818">
        <ele>107.5</ele>
        <time>2022-08-11T09:20:36Z</time>
      </trkpt>
      <trkpt lat="44.8781" lon="0.75828">
        <ele>106.5</ele>
        <time>2022-08-11T09:20:38Z</time>
      </trkpt>
      <trkpt lat="44.8781" lon="0.75838">
        <ele>105.5</ele>
        <time>2022-08-11T09:20:40Z</time>
      </trkpt>
      <trkpt lat="44.87808" lon="0.75845">
        <ele>103.5</ele>
        <time>2022-08-11T09:20:43Z</time>
      </trkpt>
      <trkpt lat="44.87806" lon="0.75851">
        <ele>103.5</ele>
        <time>2022-08-11T09:20:45Z</time>
      </trkpt>
      <trkpt lat="44.87803" lon="0.75858">
        <ele>101.5</ele>
        <time>2022-08-11T09:20:48Z</time>
      </trkpt>
      <trkpt lat="44.87801" lon="0.75863">
        <ele>101.5</ele>
        <time>2022-08-11T09:20:50Z</time>
      </trkpt>
      <trkpt lat="44.87798" lon="0.7587">
        <ele>101.5</ele>
        <time>2022-08-11T09:20:52Z</time>
      </trkpt>
      <trkpt lat="44.87796" lon="0.75876">
        <ele>100.5</ele>
        <time>2022-08-11T09:20:54Z</time>
      </trkpt>
      <trkpt lat="44.87793" lon="0.75883">
        <ele>99.5</ele>
        <time>2022-08-11T09:20:57Z</time>
      </trkpt>
      <trkpt lat="44.87791" lon="0.75889">
        <ele>98.5</ele>
        <time>2022-08-11T09:21:03Z</time>
      </trkpt>
      <trkpt lat="44.87788" lon="0.75898">
        <ele>97.5</ele>
        <time>2022-08-11T09:21:05Z</time>
      </trkpt>
      <trkpt lat="44.87784" lon="0.75906">
        <ele>97.5</ele>
        <time>2022-08-11T09:21:07Z</time>
      </trkpt>
      <trkpt lat="44.8778" lon="0.75916">
        <ele>97.5</ele>
        <time>2022-08-11T09:21:09Z</time>
      </trkpt>
      <trkpt lat="44.87777" lon="0.75926">
        <ele>96.5</ele>
        <time>2022-08-11T09:21:11Z</time>
      </trkpt>
      <trkpt lat="44.87775" lon="0.75936">
        <ele>95.5</ele>
        <time>2022-08-11T09:21:13Z</time>
      </trkpt>
      <trkpt lat="44.87772" lon="0.75944">
        <ele>95.5</ele>
        <time>2022-08-11T09:21:15Z</time>
      </trkpt>
      <trkpt lat="44.87767" lon="0.75951">
        <ele>95.5</ele>
        <time>2022-08-11T09:21:17Z</time>
      </trkpt>
      <trkpt lat="44.87761" lon="0.75958">
        <ele>94.5</ele>
        <time>2022-08-11T09:21:19Z</time>
      </trkpt>
      <trkpt lat="44.87754" lon="0.75963">
        <ele>94.5</ele>
        <time>2022-08-11T09:21:21Z</time>
      </trkpt>
      <trkpt lat="44.8775" lon="0.75967">
        <ele>94.5</ele>
        <time>2022-08-11T09:21:22Z</time>
      </trkpt>
      <trkpt lat="44.87746" lon="0.75969">
        <ele>94.5</ele>
        <time>2022-08-11T09:21:23Z</time>
      </trkpt>
      <trkpt lat="44.8774" lon="0.75973">
        <ele>94.5</ele>
        <time>2022-08-11T09:21:24Z</time>
      </trkpt>
      <trkpt lat="44.87735" lon="0.75977">
        <ele>93.5</ele>
        <time>2022-08-11T09:21:25Z</time>
      </trkpt>
      <trkpt lat="44.87731" lon="0.75979">
        <ele>93.5</ele>
        <time>2022-08-11T09:21:26Z</time>
      </trkpt>
      <trkpt lat="44.87726" lon="0.75981">
        <ele>92.5</ele>
        <time>2022-08-11T09:21:27Z</time>
      </trkpt>
      <trkpt lat="44.8772" lon="0.75983">
        <ele>92.5</ele>
        <time>2022-08-11T09:21:28Z</time>
      </trkpt>
      <trkpt lat="44.87714" lon="0.75987">
        <ele>91.5</ele>
        <time>2022-08-11T09:21:29Z</time>
      </trkpt>
      <trkpt lat="44.87707" lon="0.75994">
        <ele>91.5</ele>
        <time>2022-08-11T09:21:30Z</time>
      </trkpt>
      <trkpt lat="44.87702" lon="0.75998">
        <ele>90.5</ele>
        <time>2022-08-11T09:21:31Z</time>
      </trkpt>
      <trkpt lat="44.87697" lon="0.76003">
        <ele>90.5</ele>
        <time>2022-08-11T09:21:32Z</time>
      </trkpt>
      <trkpt lat="44.87693" lon="0.76008">
        <ele>90.5</ele>
        <time>2022-08-11T09:21:33Z</time>
      </trkpt>
      <trkpt lat="44.87688" lon="0.76014">
        <ele>89.5</ele>
        <time>2022-08-11T09:21:34Z</time>
      </trkpt>
      <trkpt lat="44.87682" lon="0.76021">
        <ele>88.5</ele>
        <time>2022-08-11T09:21:35Z</time>
      </trkpt>
      <trkpt lat="44.87676" lon="0.76026">
        <ele>88.5</ele>
        <time>2022-08-11T09:21:36Z</time>
      </trkpt>
      <trkpt lat="44.8767" lon="0.76031">
        <ele>87.5</ele>
        <time>2022-08-11T09:21:37Z</time>
      </trkpt>
      <trkpt lat="44.87662" lon="0.76039">
        <ele>87.5</ele>
        <time>2022-08-11T09:21:39Z</time>
      </trkpt>
      <trkpt lat="44.87657" lon="0.76048">
        <ele>86.5</ele>
        <time>2022-08-11T09:21:41Z</time>
      </trkpt>
      <trkpt lat="44.8765" lon="0.76064">
        <ele>86.5</ele>
        <time>2022-08-11T09:21:44Z</time>
      </trkpt>
      <trkpt lat="44.87647" lon="0.7607">
        <ele>85.5</ele>
        <time>2022-08-11T09:21:45Z</time>
      </trkpt>
      <trkpt lat="44.87644" lon="0.76076">
        <ele>85.5</ele>
        <time>2022-08-11T09:21:46Z</time>
      </trkpt>
      <trkpt lat="44.87641" lon="0.76081">
        <ele>84.5</ele>
        <time>2022-08-11T09:21:47Z</time>
      </trkpt>
      <trkpt lat="44.87638" lon="0.76087">
        <ele>84.5</ele>
        <time>2022-08-11T09:21:48Z</time>
      </trkpt>
      <trkpt lat="44.87635" lon="0.76093">
        <ele>84.5</ele>
        <time>2022-08-11T09:21:49Z</time>
      </trkpt>
      <trkpt lat="44.87631" lon="0.76099">
        <ele>84.5</ele>
        <time>2022-08-11T09:21:50Z</time>
      </trkpt>
      <trkpt lat="44.87628" lon="0.76107">
        <ele>83.5</ele>
        <time>2022-08-11T09:21:51Z</time>
      </trkpt>
      <trkpt lat="44.87623" lon="0.76115">
        <ele>82.5</ele>
        <time>2022-08-11T09:21:52Z</time>
      </trkpt>
      <trkpt lat="44.87618" lon="0.76122">
        <ele>81.5</ele>
        <time>2022-08-11T09:21:53Z</time>
      </trkpt>
      <trkpt lat="44.87613" lon="0.76129">
        <ele>80.5</ele>
        <time>2022-08-11T09:21:54Z</time>
      </trkpt>
      <trkpt lat="44.87608" lon="0.76136">
        <ele>79.5</ele>
        <time>2022-08-11T09:21:55Z</time>
      </trkpt>
      <trkpt lat="44.87605" lon="0.76142">
        <ele>79.5</ele>
        <time>2022-08-11T09:21:56Z</time>
      </trkpt>
      <trkpt lat="44.87601" lon="0.76153">
        <ele>78.5</ele>
        <time>2022-08-11T09:21:58Z</time>
      </trkpt>
      <trkpt lat="44.87596" lon="0.7616">
        <ele>78.5</ele>
        <time>2022-08-11T09:22:00Z</time>
      </trkpt>
      <trkpt lat="44.8759" lon="0.76162">
        <ele>77.5</ele>
        <time>2022-08-11T09:22:02Z</time>
      </trkpt>
      <trkpt lat="44.87581" lon="0.76168">
        <ele>77.5</ele>
        <time>2022-08-11T09:22:04Z</time>
      </trkpt>
      <trkpt lat="44.87577" lon="0.76174">
        <ele>77.5</ele>
        <time>2022-08-11T09:22:05Z</time>
      </trkpt>
      <trkpt lat="44.87572" lon="0.76181">
        <ele>77.5</ele>
        <time>2022-08-11T09:22:06Z</time>
      </trkpt>
      <trkpt lat="44.87568" lon="0.76186">
        <ele>77.5</ele>
        <time>2022-08-11T09:22:07Z</time>
      </trkpt>
      <trkpt lat="44.87564" lon="0.7619">
        <ele>77.5</ele>
        <time>2022-08-11T09:22:08Z</time>
      </trkpt>
      <trkpt lat="44.87559" lon="0.76193">
        <ele>77.5</ele>
        <time>2022-08-11T09:22:09Z</time>
      </trkpt>
      <trkpt lat="44.87555" lon="0.76196">
        <ele>77.5</ele>
        <time>2022-08-11T09:22:10Z</time>
      </trkpt>
      <trkpt lat="44.87551" lon="0.762">
        <ele>77.5</ele>
        <time>2022-08-11T09:22:11Z</time>
      </trkpt>
      <trkpt lat="44.87546" lon="0.76203">
        <ele>77.5</ele>
        <time>2022-08-11T09:22:12Z</time>
      </trkpt>
      <trkpt lat="44.87542" lon="0.76206">
        <ele>77.5</ele>
        <time>2022-08-11T09:22:13Z</time>
      </trkpt>
      <trkpt lat="44.87536" lon="0.76211">
        <ele>77.5</ele>
        <time>2022-08-11T09:22:14Z</time>
      </trkpt>
      <trkpt lat="44.87531" lon="0.76217">
        <ele>77.5</ele>
        <time>2022-08-11T09:22:15Z</time>
      </trkpt>
      <trkpt lat="44.87527" lon="0.76223">
        <ele>76.5</ele>
        <time>2022-08-11T09:22:16Z</time>
      </trkpt>
      <trkpt lat="44.87524" lon="0.76228">
        <ele>76.5</ele>
        <time>2022-08-11T09:22:17Z</time>
      </trkpt>
      <trkpt lat="44.8752" lon="0.76233">
        <ele>76.5</ele>
        <time>2022-08-11T09:22:18Z</time>
      </trkpt>
      <trkpt lat="44.87517" lon="0.76237">
        <ele>76.5</ele>
        <time>2022-08-11T09:22:19Z</time>
      </trkpt>
      <trkpt lat="44.87512" lon="0.76244">
        <ele>76.5</ele>
        <time>2022-08-11T09:22:21Z</time>
      </trkpt>
      <trkpt lat="44.8751" lon="0.76249">
        <ele>75.5</ele>
        <time>2022-08-11T09:22:23Z</time>
      </trkpt>
      <trkpt lat="44.87508" lon="0.76256">
        <ele>76.5</ele>
        <time>2022-08-11T09:22:25Z</time>
      </trkpt>
      <trkpt lat="44.87506" lon="0.76262">
        <ele>77.5</ele>
        <time>2022-08-11T09:22:27Z</time>
      </trkpt>
      <trkpt lat="44.87503" lon="0.76269">
        <ele>77.5</ele>
        <time>2022-08-11T09:22:30Z</time>
      </trkpt>
      <trkpt lat="44.87501" lon="0.76278">
        <ele>78.5</ele>
        <time>2022-08-11T09:22:32Z</time>
      </trkpt>
      <trkpt lat="44.875" lon="0.76285">
        <ele>79.5</ele>
        <time>2022-08-11T09:22:34Z</time>
      </trkpt>
      <trkpt lat="44.87499" lon="0.76291">
        <ele>80.5</ele>
        <time>2022-08-11T09:22:36Z</time>
      </trkpt>
      <trkpt lat="44.87498" lon="0.76299">
        <ele>80.5</ele>
        <time>2022-08-11T09:22:39Z</time>
      </trkpt>
      <trkpt lat="44.87496" lon="0.76306">
        <ele>81.5</ele>
        <time>2022-08-11T09:22:42Z</time>
      </trkpt>
      <trkpt lat="44.87497" lon="0.76314">
        <ele>82.5</ele>
        <time>2022-08-11T09:22:49Z</time>
      </trkpt>
      <trkpt lat="44.87498" lon="0.76322">
        <ele>82.5</ele>
        <time>2022-08-11T09:22:52Z</time>
      </trkpt>
      <trkpt lat="44.875" lon="0.7633">
        <ele>81.5</ele>
        <time>2022-08-11T09:22:55Z</time>
      </trkpt>
      <trkpt lat="44.87499" lon="0.76338">
        <ele>81.5</ele>
        <time>2022-08-11T09:22:58Z</time>
      </trkpt>
      <trkpt lat="44.87498" lon="0.76347">
        <ele>81.5</ele>
        <time>2022-08-11T09:23:01Z</time>
      </trkpt>
      <trkpt lat="44.87498" lon="0.76356">
        <ele>81.5</ele>
        <time>2022-08-11T09:23:04Z</time>
      </trkpt>
      <trkpt lat="44.87499" lon="0.76364">
        <ele>80.5</ele>
        <time>2022-08-11T09:23:07Z</time>
      </trkpt>
      <trkpt lat="44.87499" lon="0.76372">
        <ele>80.5</ele>
        <time>2022-08-11T09:23:20Z</time>
      </trkpt>
      <trkpt lat="44.875" lon="0.76378">
        <ele>79.5</ele>
        <time>2022-08-11T09:23:23Z</time>
      </trkpt>
      <trkpt lat="44.87501" lon="0.76385">
        <ele>80.5</ele>
        <time>2022-08-11T09:23:27Z</time>
      </trkpt>
      <trkpt lat="44.87503" lon="0.76393">
        <ele>81.5</ele>
        <time>2022-08-11T09:23:32Z</time>
      </trkpt>
      <trkpt lat="44.87505" lon="0.76401">
        <ele>82.5</ele>
        <time>2022-08-11T09:23:38Z</time>
      </trkpt>
      <trkpt lat="44.87506" lon="0.76407">
        <ele>83.5</ele>
        <time>2022-08-11T09:23:42Z</time>
      </trkpt>
      <trkpt lat="44.87507" lon="0.76415">
        <ele>88.5</ele>
        <time>2022-08-11T09:23:46Z</time>
      </trkpt>
      <trkpt lat="44.87511" lon="0.76419">
        <ele>88.5</ele>
        <time>2022-08-11T09:24:03Z</time>
      </trkpt>
      <trkpt lat="44.87511" lon="0.76425">
        <ele>89.5</ele>
        <time>2022-08-11T09:24:28Z</time>
      </trkpt>
      <trkpt lat="44.87514" lon="0.7643">
        <ele>89.5</ele>
        <time>2022-08-11T09:24:36Z</time>
      </trkpt>
      <trkpt lat="44.87518" lon="0.76435">
        <ele>87.5</ele>
        <time>2022-08-11T09:24:43Z</time>
      </trkpt>
      <trkpt lat="44.87521" lon="0.76439">
        <ele>87.5</ele>
        <time>2022-08-11T09:24:48Z</time>
      </trkpt>
      <trkpt lat="44.87521" lon="0.76445">
        <ele>88.5</ele>
        <time>2022-08-11T09:25:01Z</time>
      </trkpt>
      <trkpt lat="44.87525" lon="0.7645">
        <ele>87.5</ele>
        <time>2022-08-11T09:25:08Z</time>
      </trkpt>
      <trkpt lat="44.87529" lon="0.76456">
        <ele>87.5</ele>
        <time>2022-08-11T09:25:13Z</time>
      </trkpt>
      <trkpt lat="44.87534" lon="0.7646">
        <ele>87.5</ele>
        <time>2022-08-11T09:25:17Z</time>
      </trkpt>
      <trkpt lat="44.87538" lon="0.76463">
        <ele>88.5</ele>
        <time>2022-08-11T09:25:20Z</time>
      </trkpt>
      <trkpt lat="44.87544" lon="0.76468">
        <ele>88.5</ele>
        <time>2022-08-11T09:25:24Z</time>
      </trkpt>
      <trkpt lat="44.87549" lon="0.7647">
        <ele>89.5</ele>
        <time>2022-08-11T09:25:28Z</time>
      </trkpt>
      <trkpt lat="44.87553" lon="0.76474">
        <ele>88.5</ele>
        <time>2022-08-11T09:25:35Z</time>
      </trkpt>
      <trkpt lat="44.87551" lon="0.76481">
        <ele>88.5</ele>
        <time>2022-08-11T09:25:43Z</time>
      </trkpt>
      <trkpt lat="44.87549" lon="0.76487">
        <ele>88.5</ele>
        <time>2022-08-11T09:25:48Z</time>
      </trkpt>
      <trkpt lat="44.87546" lon="0.76493">
        <ele>88.5</ele>
        <time>2022-08-11T09:25:51Z</time>
      </trkpt>
      <trkpt lat="44.87547" lon="0.765">
        <ele>88.5</ele>
        <time>2022-08-11T09:25:56Z</time>
      </trkpt>
      <trkpt lat="44.87544" lon="0.76506">
        <ele>86.5</ele>
        <time>2022-08-11T09:26:02Z</time>
      </trkpt>
      <trkpt lat="44.87542" lon="0.76512">
        <ele>86.5</ele>
        <time>2022-08-11T09:26:05Z</time>
      </trkpt>
      <trkpt lat="44.87542" lon="0.76519">
        <ele>86.5</ele>
        <time>2022-08-11T09:26:10Z</time>
      </trkpt>
      <trkpt lat="44.87541" lon="0.76527">
        <ele>86.5</ele>
        <time>2022-08-11T09:26:15Z</time>
      </trkpt>
      <trkpt lat="44.8754" lon="0.76534">
        <ele>86.5</ele>
        <time>2022-08-11T09:26:19Z</time>
      </trkpt>
      <trkpt lat="44.87539" lon="0.76541">
        <ele>86.5</ele>
        <time>2022-08-11T09:26:22Z</time>
      </trkpt>
      <trkpt lat="44.87539" lon="0.76547">
        <ele>86.5</ele>
        <time>2022-08-11T09:26:25Z</time>
      </trkpt>
      <trkpt lat="44.87537" lon="0.76554">
        <ele>87.5</ele>
        <time>2022-08-11T09:26:30Z</time>
      </trkpt>
      <trkpt lat="44.87535" lon="0.7656">
        <ele>86.5</ele>
        <time>2022-08-11T09:26:37Z</time>
      </trkpt>
      <trkpt lat="44.87533" lon="0.76567">
        <ele>87.5</ele>
        <time>2022-08-11T09:26:42Z</time>
      </trkpt>
      <trkpt lat="44.87529" lon="0.76571">
        <ele>88.5</ele>
        <time>2022-08-11T09:26:47Z</time>
      </trkpt>
      <trkpt lat="44.87524" lon="0.76575">
        <ele>90.5</ele>
        <time>2022-08-11T09:26:52Z</time>
      </trkpt>
      <trkpt lat="44.87521" lon="0.7658">
        <ele>91.5</ele>
        <time>2022-08-11T09:26:56Z</time>
      </trkpt>
      <trkpt lat="44.87519" lon="0.76587">
        <ele>93.5</ele>
        <time>2022-08-11T09:27:02Z</time>
      </trkpt>
      <trkpt lat="44.8752" lon="0.76594">
        <ele>91.5</ele>
        <time>2022-08-11T09:27:07Z</time>
      </trkpt>
      <trkpt lat="44.8752" lon="0.76601">
        <ele>90.5</ele>
        <time>2022-08-11T09:27:11Z</time>
      </trkpt>
      <trkpt lat="44.87521" lon="0.76609">
        <ele>90.5</ele>
        <time>2022-08-11T09:27:16Z</time>
      </trkpt>
      <trkpt lat="44.87521" lon="0.76617">
        <ele>85.5</ele>
        <time>2022-08-11T09:27:22Z</time>
      </trkpt>
      <trkpt lat="44.87523" lon="0.76624">
        <ele>85.5</ele>
        <time>2022-08-11T09:27:25Z</time>
      </trkpt>
      <trkpt lat="44.87526" lon="0.7663">
        <ele>85.5</ele>
        <time>2022-08-11T09:27:28Z</time>
      </trkpt>
      <trkpt lat="44.87529" lon="0.76636">
        <ele>86.5</ele>
        <time>2022-08-11T09:27:32Z</time>
      </trkpt>
      <trkpt lat="44.87532" lon="0.76643">
        <ele>87.5</ele>
        <time>2022-08-11T09:27:36Z</time>
      </trkpt>
      <trkpt lat="44.87535" lon="0.7665">
        <ele>88.5</ele>
        <time>2022-08-11T09:27:39Z</time>
      </trkpt>
      <trkpt lat="44.87538" lon="0.76656">
        <ele>89.5</ele>
        <time>2022-08-11T09:27:42Z</time>
      </trkpt>
      <trkpt lat="44.87542" lon="0.76662">
        <ele>90.5</ele>
        <time>2022-08-11T09:27:45Z</time>
      </trkpt>
      <trkpt lat="44.87546" lon="0.76668">
        <ele>91.5</ele>
        <time>2022-08-11T09:27:49Z</time>
      </trkpt>
      <trkpt lat="44.87549" lon="0.76674">
        <ele>92.5</ele>
        <time>2022-08-11T09:27:52Z</time>
      </trkpt>
      <trkpt lat="44.87552" lon="0.76681">
        <ele>93.5</ele>
        <time>2022-08-11T09:27:55Z</time>
      </trkpt>
      <trkpt lat="44.87556" lon="0.76688">
        <ele>95.5</ele>
        <time>2022-08-11T09:27:59Z</time>
      </trkpt>
      <trkpt lat="44.8756" lon="0.76692">
        <ele>96.5</ele>
        <time>2022-08-11T09:28:02Z</time>
      </trkpt>
      <trkpt lat="44.87562" lon="0.76699">
        <ele>97.5</ele>
        <time>2022-08-11T09:28:05Z</time>
      </trkpt>
      <trkpt lat="44.87566" lon="0.76704">
        <ele>98.5</ele>
        <time>2022-08-11T09:28:08Z</time>
      </trkpt>
      <trkpt lat="44.87571" lon="0.76708">
        <ele>99.5</ele>
        <time>2022-08-11T09:28:11Z</time>
      </trkpt>
      <trkpt lat="44.87575" lon="0.76713">
        <ele>100.5</ele>
        <time>2022-08-11T09:28:14Z</time>
      </trkpt>
      <trkpt lat="44.8758" lon="0.76718">
        <ele>100.5</ele>
        <time>2022-08-11T09:28:18Z</time>
      </trkpt>
      <trkpt lat="44.87583" lon="0.76722">
        <ele>100.5</ele>
        <time>2022-08-11T09:28:21Z</time>
      </trkpt>
      <trkpt lat="44.87587" lon="0.76726">
        <ele>101.5</ele>
        <time>2022-08-11T09:28:24Z</time>
      </trkpt>
      <trkpt lat="44.87591" lon="0.7673">
        <ele>102.5</ele>
        <time>2022-08-11T09:28:27Z</time>
      </trkpt>
      <trkpt lat="44.87595" lon="0.76734">
        <ele>104.5</ele>
        <time>2022-08-11T09:28:31Z</time>
      </trkpt>
      <trkpt lat="44.876" lon="0.76734">
        <ele>104.5</ele>
        <time>2022-08-11T09:28:34Z</time>
      </trkpt>
      <trkpt lat="44.87606" lon="0.76735">
        <ele>104.5</ele>
        <time>2022-08-11T09:28:38Z</time>
      </trkpt>
      <trkpt lat="44.87612" lon="0.76738">
        <ele>105.5</ele>
        <time>2022-08-11T09:28:42Z</time>
      </trkpt>
      <trkpt lat="44.87616" lon="0.7674">
        <ele>106.5</ele>
        <time>2022-08-11T09:28:44Z</time>
      </trkpt>
      <trkpt lat="44.87624" lon="0.76743">
        <ele>109.5</ele>
        <time>2022-08-11T09:28:49Z</time>
      </trkpt>
      <trkpt lat="44.87629" lon="0.76742">
        <ele>109.5</ele>
        <time>2022-08-11T09:28:52Z</time>
      </trkpt>
      <trkpt lat="44.87634" lon="0.7674">
        <ele>110.5</ele>
        <time>2022-08-11T09:28:55Z</time>
      </trkpt>
      <trkpt lat="44.8764" lon="0.76736">
        <ele>110.5</ele>
        <time>2022-08-11T09:29:00Z</time>
      </trkpt>
      <trkpt lat="44.87645" lon="0.76735">
        <ele>109.5</ele>
        <time>2022-08-11T09:29:02Z</time>
      </trkpt>
      <trkpt lat="44.87651" lon="0.76731">
        <ele>109.5</ele>
        <time>2022-08-11T09:29:04Z</time>
      </trkpt>
      <trkpt lat="44.87657" lon="0.76728">
        <ele>110.5</ele>
        <time>2022-08-11T09:29:06Z</time>
      </trkpt>
      <trkpt lat="44.87663" lon="0.76726">
        <ele>111.5</ele>
        <time>2022-08-11T09:29:08Z</time>
      </trkpt>
      <trkpt lat="44.87669" lon="0.76724">
        <ele>112.5</ele>
        <time>2022-08-11T09:29:10Z</time>
      </trkpt>
      <trkpt lat="44.87676" lon="0.76722">
        <ele>113.5</ele>
        <time>2022-08-11T09:29:12Z</time>
      </trkpt>
      <trkpt lat="44.87683" lon="0.76721">
        <ele>114.5</ele>
        <time>2022-08-11T09:29:14Z</time>
      </trkpt>
      <trkpt lat="44.87689" lon="0.76721">
        <ele>115.5</ele>
        <time>2022-08-11T09:29:16Z</time>
      </trkpt>
      <trkpt lat="44.87695" lon="0.76722">
        <ele>117.5</ele>
        <time>2022-08-11T09:29:18Z</time>
      </trkpt>
      <trkpt lat="44.87703" lon="0.76724">
        <ele>118.5</ele>
        <time>2022-08-11T09:29:20Z</time>
      </trkpt>
      <trkpt lat="44.8771" lon="0.76726">
        <ele>119.5</ele>
        <time>2022-08-11T09:29:22Z</time>
      </trkpt>
      <trkpt lat="44.87715" lon="0.76729">
        <ele>120.5</ele>
        <time>2022-08-11T09:29:24Z</time>
      </trkpt>
      <trkpt lat="44.87721" lon="0.76732">
        <ele>121.5</ele>
        <time>2022-08-11T09:29:26Z</time>
      </trkpt>
      <trkpt lat="44.87726" lon="0.76734">
        <ele>121.5</ele>
        <time>2022-08-11T09:29:28Z</time>
      </trkpt>
      <trkpt lat="44.87731" lon="0.76737">
        <ele>121.5</ele>
        <time>2022-08-11T09:29:30Z</time>
      </trkpt>
      <trkpt lat="44.87736" lon="0.76739">
        <ele>121.5</ele>
        <time>2022-08-11T09:29:32Z</time>
      </trkpt>
      <trkpt lat="44.87742" lon="0.76741">
        <ele>122.5</ele>
        <time>2022-08-11T09:29:34Z</time>
      </trkpt>
      <trkpt lat="44.87747" lon="0.76743">
        <ele>122.5</ele>
        <time>2022-08-11T09:29:36Z</time>
      </trkpt>
      <trkpt lat="44.87756" lon="0.76747">
        <ele>123.5</ele>
        <time>2022-08-11T09:29:39Z</time>
      </trkpt>
      <trkpt lat="44.87761" lon="0.76751">
        <ele>124.5</ele>
        <time>2022-08-11T09:29:41Z</time>
      </trkpt>
      <trkpt lat="44.8777" lon="0.76756">
        <ele>125.5</ele>
        <time>2022-08-11T09:29:44Z</time>
      </trkpt>
      <trkpt lat="44.87775" lon="0.7676">
        <ele>125.5</ele>
        <time>2022-08-11T09:29:46Z</time>
      </trkpt>
      <trkpt lat="44.87781" lon="0.76763">
        <ele>124.5</ele>
        <time>2022-08-11T09:29:48Z</time>
      </trkpt>
      <trkpt lat="44.87786" lon="0.76766">
        <ele>124.5</ele>
        <time>2022-08-11T09:29:50Z</time>
      </trkpt>
      <trkpt lat="44.87792" lon="0.76769">
        <ele>125.5</ele>
        <time>2022-08-11T09:29:52Z</time>
      </trkpt>
      <trkpt lat="44.87799" lon="0.76771">
        <ele>125.5</ele>
        <time>2022-08-11T09:29:54Z</time>
      </trkpt>
      <trkpt lat="44.87808" lon="0.76773">
        <ele>126.5</ele>
        <time>2022-08-11T09:29:56Z</time>
      </trkpt>
      <trkpt lat="44.87816" lon="0.76776">
        <ele>126.5</ele>
        <time>2022-08-11T09:29:58Z</time>
      </trkpt>
      <trkpt lat="44.87823" lon="0.76778">
        <ele>126.5</ele>
        <time>2022-08-11T09:30:00Z</time>
      </trkpt>
      <trkpt lat="44.87831" lon="0.76781">
        <ele>127.5</ele>
        <time>2022-08-11T09:30:02Z</time>
      </trkpt>
      <trkpt lat="44.87836" lon="0.7678">
        <ele>129.5</ele>
        <time>2022-08-11T09:30:03Z</time>
      </trkpt>
      <trkpt lat="44.87845" lon="0.7678">
        <ele>129.5</ele>
        <time>2022-08-11T09:30:05Z</time>
      </trkpt>
      <trkpt lat="44.87852" lon="0.7678">
        <ele>129.5</ele>
        <time>2022-08-11T09:30:07Z</time>
      </trkpt>
      <trkpt lat="44.87858" lon="0.76783">
        <ele>130.5</ele>
        <time>2022-08-11T09:30:09Z</time>
      </trkpt>
      <trkpt lat="44.87865" lon="0.76786">
        <ele>129.5</ele>
        <time>2022-08-11T09:30:11Z</time>
      </trkpt>
      <trkpt lat="44.87877" lon="0.76788">
        <ele>130.5</ele>
        <time>2022-08-11T09:30:14Z</time>
      </trkpt>
      <trkpt lat="44.87884" lon="0.76787">
        <ele>130.5</ele>
        <time>2022-08-11T09:30:16Z</time>
      </trkpt>
      <trkpt lat="44.87892" lon="0.76787">
        <ele>130.5</ele>
        <time>2022-08-11T09:30:18Z</time>
      </trkpt>
      <trkpt lat="44.87899" lon="0.76785">
        <ele>130.5</ele>
        <time>2022-08-11T09:30:20Z</time>
      </trkpt>
      <trkpt lat="44.87906" lon="0.76784">
        <ele>130.5</ele>
        <time>2022-08-11T09:30:22Z</time>
      </trkpt>
      <trkpt lat="44.87911" lon="0.76786">
        <ele>131.5</ele>
        <time>2022-08-11T09:30:24Z</time>
      </trkpt>
      <trkpt lat="44.87914" lon="0.76791">
        <ele>130.5</ele>
        <time>2022-08-11T09:30:27Z</time>
      </trkpt>
      <trkpt lat="44.87916" lon="0.76799">
        <ele>130.5</ele>
        <time>2022-08-11T09:30:33Z</time>
      </trkpt>
      <trkpt lat="44.87915" lon="0.76806">
        <ele>130.5</ele>
        <time>2022-08-11T09:30:36Z</time>
      </trkpt>
      <trkpt lat="44.87913" lon="0.76812">
        <ele>130.5</ele>
        <time>2022-08-11T09:30:38Z</time>
      </trkpt>
      <trkpt lat="44.87909" lon="0.76818">
        <ele>130.5</ele>
        <time>2022-08-11T09:30:40Z</time>
      </trkpt>
      <trkpt lat="44.87906" lon="0.76824">
        <ele>130.5</ele>
        <time>2022-08-11T09:30:42Z</time>
      </trkpt>
      <trkpt lat="44.87903" lon="0.7683">
        <ele>130.5</ele>
        <time>2022-08-11T09:30:44Z</time>
      </trkpt>
      <trkpt lat="44.879" lon="0.76836">
        <ele>130.5</ele>
        <time>2022-08-11T09:30:46Z</time>
      </trkpt>
      <trkpt lat="44.87897" lon="0.76843">
        <ele>130.5</ele>
        <time>2022-08-11T09:30:48Z</time>
      </trkpt>
      <trkpt lat="44.87893" lon="0.76849">
        <ele>131.5</ele>
        <time>2022-08-11T09:30:50Z</time>
      </trkpt>
      <trkpt lat="44.87887" lon="0.76855">
        <ele>130.5</ele>
        <time>2022-08-11T09:30:52Z</time>
      </trkpt>
      <trkpt lat="44.8788" lon="0.76859">
        <ele>130.5</ele>
        <time>2022-08-11T09:30:54Z</time>
      </trkpt>
      <trkpt lat="44.87873" lon="0.76863">
        <ele>130.5</ele>
        <time>2022-08-11T09:30:56Z</time>
      </trkpt>
      <trkpt lat="44.87869" lon="0.76866">
        <ele>130.5</ele>
        <time>2022-08-11T09:30:58Z</time>
      </trkpt>
      <trkpt lat="44.87865" lon="0.7687">
        <ele>127.5</ele>
        <time>2022-08-11T09:31:02Z</time>
      </trkpt>
      <trkpt lat="44.87861" lon="0.76872">
        <ele>118.5</ele>
        <time>2022-08-11T09:31:25Z</time>
      </trkpt>
      <trkpt lat="44.87856" lon="0.76876">
        <ele>120.5</ele>
        <time>2022-08-11T09:31:29Z</time>
      </trkpt>
      <trkpt lat="44.8785" lon="0.7688">
        <ele>122.5</ele>
        <time>2022-08-11T09:31:32Z</time>
      </trkpt>
      <trkpt lat="44.87844" lon="0.76884">
        <ele>122.5</ele>
        <time>2022-08-11T09:31:34Z</time>
      </trkpt>
      <trkpt lat="44.87839" lon="0.76887">
        <ele>122.5</ele>
        <time>2022-08-11T09:31:36Z</time>
      </trkpt>
      <trkpt lat="44.87835" lon="0.7689">
        <ele>123.5</ele>
        <time>2022-08-11T09:31:38Z</time>
      </trkpt>
      <trkpt lat="44.8783" lon="0.76893">
        <ele>123.5</ele>
        <time>2022-08-11T09:31:40Z</time>
      </trkpt>
      <trkpt lat="44.87824" lon="0.76896">
        <ele>122.5</ele>
        <time>2022-08-11T09:31:42Z</time>
      </trkpt>
      <trkpt lat="44.8782" lon="0.769">
        <ele>123.5</ele>
        <time>2022-08-11T09:31:44Z</time>
      </trkpt>
      <trkpt lat="44.87815" lon="0.76905">
        <ele>124.5</ele>
        <time>2022-08-11T09:31:46Z</time>
      </trkpt>
      <trkpt lat="44.87811" lon="0.7691">
        <ele>124.5</ele>
        <time>2022-08-11T09:31:48Z</time>
      </trkpt>
      <trkpt lat="44.87807" lon="0.76915">
        <ele>124.5</ele>
        <time>2022-08-11T09:31:50Z</time>
      </trkpt>
      <trkpt lat="44.87803" lon="0.76922">
        <ele>124.5</ele>
        <time>2022-08-11T09:31:53Z</time>
      </trkpt>
      <trkpt lat="44.87798" lon="0.76926">
        <ele>124.5</ele>
        <time>2022-08-11T09:31:57Z</time>
      </trkpt>
      <trkpt lat="44.87795" lon="0.76931">
        <ele>124.5</ele>
        <time>2022-08-11T09:31:59Z</time>
      </trkpt>
      <trkpt lat="44.87793" lon="0.76939">
        <ele>124.5</ele>
        <time>2022-08-11T09:32:09Z</time>
      </trkpt>
      <trkpt lat="44.87795" lon="0.76946">
        <ele>122.5</ele>
        <time>2022-08-11T09:32:11Z</time>
      </trkpt>
      <trkpt lat="44.87799" lon="0.76954">
        <ele>121.5</ele>
        <time>2022-08-11T09:32:13Z</time>
      </trkpt>
      <trkpt lat="44.87801" lon="0.7696">
        <ele>122.5</ele>
        <time>2022-08-11T09:32:14Z</time>
      </trkpt>
      <trkpt lat="44.87804" lon="0.76966">
        <ele>122.5</ele>
        <time>2022-08-11T09:32:15Z</time>
      </trkpt>
      <trkpt lat="44.87808" lon="0.76972">
        <ele>121.5</ele>
        <time>2022-08-11T09:32:16Z</time>
      </trkpt>
      <trkpt lat="44.87813" lon="0.76978">
        <ele>120.5</ele>
        <time>2022-08-11T09:32:17Z</time>
      </trkpt>
      <trkpt lat="44.87818" lon="0.76983">
        <ele>119.5</ele>
        <time>2022-08-11T09:32:18Z</time>
      </trkpt>
      <trkpt lat="44.87822" lon="0.76988">
        <ele>118.5</ele>
        <time>2022-08-11T09:32:19Z</time>
      </trkpt>
      <trkpt lat="44.87827" lon="0.76994">
        <ele>117.5</ele>
        <time>2022-08-11T09:32:20Z</time>
      </trkpt>
      <trkpt lat="44.87831" lon="0.76999">
        <ele>117.5</ele>
        <time>2022-08-11T09:32:21Z</time>
      </trkpt>
      <trkpt lat="44.87834" lon="0.77004">
        <ele>116.5</ele>
        <time>2022-08-11T09:32:22Z</time>
      </trkpt>
      <trkpt lat="44.87838" lon="0.7701">
        <ele>116.5</ele>
        <time>2022-08-11T09:32:23Z</time>
      </trkpt>
      <trkpt lat="44.87841" lon="0.77015">
        <ele>115.5</ele>
        <time>2022-08-11T09:32:24Z</time>
      </trkpt>
      <trkpt lat="44.87844" lon="0.77021">
        <ele>115.5</ele>
        <time>2022-08-11T09:32:25Z</time>
      </trkpt>
      <trkpt lat="44.87847" lon="0.77032">
        <ele>113.5</ele>
        <time>2022-08-11T09:32:27Z</time>
      </trkpt>
      <trkpt lat="44.87849" lon="0.7704">
        <ele>113.5</ele>
        <time>2022-08-11T09:32:29Z</time>
      </trkpt>
      <trkpt lat="44.87851" lon="0.77047">
        <ele>112.5</ele>
        <time>2022-08-11T09:32:31Z</time>
      </trkpt>
      <trkpt lat="44.87853" lon="0.77054">
        <ele>111.5</ele>
        <time>2022-08-11T09:32:33Z</time>
      </trkpt>
      <trkpt lat="44.87858" lon="0.77057">
        <ele>110.5</ele>
        <time>2022-08-11T09:32:35Z</time>
      </trkpt>
      <trkpt lat="44.87866" lon="0.77063">
        <ele>109.5</ele>
        <time>2022-08-11T09:32:37Z</time>
      </trkpt>
      <trkpt lat="44.87869" lon="0.77069">
        <ele>109.5</ele>
        <time>2022-08-11T09:32:38Z</time>
      </trkpt>
      <trkpt lat="44.87873" lon="0.77078">
        <ele>110.5</ele>
        <time>2022-08-11T09:32:39Z</time>
      </trkpt>
      <trkpt lat="44.87876" lon="0.77088">
        <ele>111.5</ele>
        <time>2022-08-11T09:32:40Z</time>
      </trkpt>
      <trkpt lat="44.87879" lon="0.77098">
        <ele>111.5</ele>
        <time>2022-08-11T09:32:41Z</time>
      </trkpt>
      <trkpt lat="44.87882" lon="0.77109">
        <ele>111.5</ele>
        <time>2022-08-11T09:32:42Z</time>
      </trkpt>
      <trkpt lat="44.87884" lon="0.7712">
        <ele>111.5</ele>
        <time>2022-08-11T09:32:43Z</time>
      </trkpt>
      <trkpt lat="44.87885" lon="0.77132">
        <ele>111.5</ele>
        <time>2022-08-11T09:32:44Z</time>
      </trkpt>
      <trkpt lat="44.87884" lon="0.77144">
        <ele>111.5</ele>
        <time>2022-08-11T09:32:45Z</time>
      </trkpt>
      <trkpt lat="44.87883" lon="0.77156">
        <ele>111.5</ele>
        <time>2022-08-11T09:32:46Z</time>
      </trkpt>
      <trkpt lat="44.8788" lon="0.77167">
        <ele>110.5</ele>
        <time>2022-08-11T09:32:47Z</time>
      </trkpt>
      <trkpt lat="44.87877" lon="0.77175">
        <ele>110.5</ele>
        <time>2022-08-11T09:32:48Z</time>
      </trkpt>
      <trkpt lat="44.87872" lon="0.77181">
        <ele>109.5</ele>
        <time>2022-08-11T09:32:50Z</time>
      </trkpt>
      <trkpt lat="44.87869" lon="0.77186">
        <ele>108.5</ele>
        <time>2022-08-11T09:32:53Z</time>
      </trkpt>
      <trkpt lat="44.8787" lon="0.77196">
        <ele>108.5</ele>
        <time>2022-08-11T09:32:55Z</time>
      </trkpt>
      <trkpt lat="44.87871" lon="0.77206">
        <ele>109.5</ele>
        <time>2022-08-11T09:32:56Z</time>
      </trkpt>
      <trkpt lat="44.87875" lon="0.77215">
        <ele>110.5</ele>
        <time>2022-08-11T09:32:57Z</time>
      </trkpt>
      <trkpt lat="44.87878" lon="0.77223">
        <ele>110.5</ele>
        <time>2022-08-11T09:32:58Z</time>
      </trkpt>
      <trkpt lat="44.87881" lon="0.77229">
        <ele>109.5</ele>
        <time>2022-08-11T09:32:59Z</time>
      </trkpt>
      <trkpt lat="44.87884" lon="0.77235">
        <ele>109.5</ele>
        <time>2022-08-11T09:33:00Z</time>
      </trkpt>
      <trkpt lat="44.87886" lon="0.77241">
        <ele>108.5</ele>
        <time>2022-08-11T09:33:01Z</time>
      </trkpt>
      <trkpt lat="44.87889" lon="0.77245">
        <ele>108.5</ele>
        <time>2022-08-11T09:33:03Z</time>
      </trkpt>
      <trkpt lat="44.87892" lon="0.77253">
        <ele>107.5</ele>
        <time>2022-08-11T09:33:33Z</time>
      </trkpt>
      <trkpt lat="44.87896" lon="0.77258">
        <ele>108.5</ele>
        <time>2022-08-11T09:33:36Z</time>
      </trkpt>
      <trkpt lat="44.879" lon="0.77264">
        <ele>108.5</ele>
        <time>2022-08-11T09:33:40Z</time>
      </trkpt>
      <trkpt lat="44.87903" lon="0.77269">
        <ele>109.5</ele>
        <time>2022-08-11T09:33:43Z</time>
      </trkpt>
      <trkpt lat="44.87907" lon="0.77273">
        <ele>109.5</ele>
        <time>2022-08-11T09:33:46Z</time>
      </trkpt>
      <trkpt lat="44.87908" lon="0.77279">
        <ele>108.5</ele>
        <time>2022-08-11T09:33:50Z</time>
      </trkpt>
      <trkpt lat="44.87912" lon="0.77285">
        <ele>108.5</ele>
        <time>2022-08-11T09:33:54Z</time>
      </trkpt>
      <trkpt lat="44.87913" lon="0.77293">
        <ele>108.5</ele>
        <time>2022-08-11T09:33:58Z</time>
      </trkpt>
      <trkpt lat="44.87915" lon="0.773">
        <ele>108.5</ele>
        <time>2022-08-11T09:34:02Z</time>
      </trkpt>
      <trkpt lat="44.87918" lon="0.77305">
        <ele>108.5</ele>
        <time>2022-08-11T09:34:05Z</time>
      </trkpt>
      <trkpt lat="44.8792" lon="0.77312">
        <ele>109.5</ele>
        <time>2022-08-11T09:34:09Z</time>
      </trkpt>
      <trkpt lat="44.87921" lon="0.77321">
        <ele>109.5</ele>
        <time>2022-08-11T09:34:14Z</time>
      </trkpt>
      <trkpt lat="44.87923" lon="0.77328">
        <ele>111.5</ele>
        <time>2022-08-11T09:34:18Z</time>
      </trkpt>
      <trkpt lat="44.87925" lon="0.77334">
        <ele>112.5</ele>
        <time>2022-08-11T09:34:22Z</time>
      </trkpt>
      <trkpt lat="44.87926" lon="0.7734">
        <ele>112.5</ele>
        <time>2022-08-11T09:34:25Z</time>
      </trkpt>
      <trkpt lat="44.87928" lon="0.77348">
        <ele>112.5</ele>
        <time>2022-08-11T09:34:29Z</time>
      </trkpt>
      <trkpt lat="44.87929" lon="0.77356">
        <ele>113.5</ele>
        <time>2022-08-11T09:34:33Z</time>
      </trkpt>
      <trkpt lat="44.87928" lon="0.77362">
        <ele>113.5</ele>
        <time>2022-08-11T09:34:36Z</time>
      </trkpt>
      <trkpt lat="44.87927" lon="0.7737">
        <ele>113.5</ele>
        <time>2022-08-11T09:34:40Z</time>
      </trkpt>
      <trkpt lat="44.87927" lon="0.77378">
        <ele>115.5</ele>
        <time>2022-08-11T09:34:44Z</time>
      </trkpt>
      <trkpt lat="44.87926" lon="0.77386">
        <ele>114.5</ele>
        <time>2022-08-11T09:34:49Z</time>
      </trkpt>
      <trkpt lat="44.87924" lon="0.77392">
        <ele>111.5</ele>
        <time>2022-08-11T09:34:54Z</time>
      </trkpt>
      <trkpt lat="44.87921" lon="0.77399">
        <ele>110.5</ele>
        <time>2022-08-11T09:34:57Z</time>
      </trkpt>
      <trkpt lat="44.87918" lon="0.77404">
        <ele>109.5</ele>
        <time>2022-08-11T09:35:01Z</time>
      </trkpt>
      <trkpt lat="44.87914" lon="0.77412">
        <ele>108.5</ele>
        <time>2022-08-11T09:35:06Z</time>
      </trkpt>
      <trkpt lat="44.87912" lon="0.77418">
        <ele>109.5</ele>
        <time>2022-08-11T09:35:11Z</time>
      </trkpt>
      <trkpt lat="44.87907" lon="0.77418">
        <ele>108.5</ele>
        <time>2022-08-11T09:35:29Z</time>
      </trkpt>
      <trkpt lat="44.87905" lon="0.77425">
        <ele>119.5</ele>
        <time>2022-08-11T09:37:15Z</time>
      </trkpt>
      <trkpt lat="44.87903" lon="0.77431">
        <ele>117.5</ele>
        <time>2022-08-11T09:37:20Z</time>
      </trkpt>
      <trkpt lat="44.87903" lon="0.77437">
        <ele>116.5</ele>
        <time>2022-08-11T09:37:23Z</time>
      </trkpt>
      <trkpt lat="44.87902" lon="0.77444">
        <ele>116.5</ele>
        <time>2022-08-11T09:37:25Z</time>
      </trkpt>
      <trkpt lat="44.879" lon="0.77451">
        <ele>115.5</ele>
        <time>2022-08-11T09:37:27Z</time>
      </trkpt>
      <trkpt lat="44.87898" lon="0.77459">
        <ele>114.5</ele>
        <time>2022-08-11T09:37:29Z</time>
      </trkpt>
      <trkpt lat="44.87898" lon="0.77469">
        <ele>113.5</ele>
        <time>2022-08-11T09:37:31Z</time>
      </trkpt>
      <trkpt lat="44.87898" lon="0.77478">
        <ele>112.5</ele>
        <time>2022-08-11T09:37:33Z</time>
      </trkpt>
      <trkpt lat="44.87898" lon="0.77488">
        <ele>111.5</ele>
        <time>2022-08-11T09:37:35Z</time>
      </trkpt>
      <trkpt lat="44.87899" lon="0.77497">
        <ele>109.5</ele>
        <time>2022-08-11T09:37:38Z</time>
      </trkpt>
      <trkpt lat="44.87903" lon="0.77503">
        <ele>108.5</ele>
        <time>2022-08-11T09:37:40Z</time>
      </trkpt>
      <trkpt lat="44.87909" lon="0.77514">
        <ele>108.5</ele>
        <time>2022-08-11T09:37:42Z</time>
      </trkpt>
      <trkpt lat="44.87912" lon="0.77521">
        <ele>107.5</ele>
        <time>2022-08-11T09:37:43Z</time>
      </trkpt>
      <trkpt lat="44.87915" lon="0.77528">
        <ele>107.5</ele>
        <time>2022-08-11T09:37:44Z</time>
      </trkpt>
      <trkpt lat="44.87918" lon="0.77535">
        <ele>107.5</ele>
        <time>2022-08-11T09:37:45Z</time>
      </trkpt>
      <trkpt lat="44.8792" lon="0.77543">
        <ele>107.5</ele>
        <time>2022-08-11T09:37:46Z</time>
      </trkpt>
      <trkpt lat="44.87923" lon="0.7755">
        <ele>106.5</ele>
        <time>2022-08-11T09:37:47Z</time>
      </trkpt>
      <trkpt lat="44.87927" lon="0.77559">
        <ele>106.5</ele>
        <time>2022-08-11T09:37:48Z</time>
      </trkpt>
      <trkpt lat="44.87931" lon="0.77567">
        <ele>106.5</ele>
        <time>2022-08-11T09:37:49Z</time>
      </trkpt>
      <trkpt lat="44.87935" lon="0.77577">
        <ele>105.5</ele>
        <time>2022-08-11T09:37:50Z</time>
      </trkpt>
      <trkpt lat="44.87938" lon="0.77586">
        <ele>104.5</ele>
        <time>2022-08-11T09:37:51Z</time>
      </trkpt>
      <trkpt lat="44.87942" lon="0.77595">
        <ele>104.5</ele>
        <time>2022-08-11T09:37:52Z</time>
      </trkpt>
      <trkpt lat="44.87947" lon="0.77605">
        <ele>104.5</ele>
        <time>2022-08-11T09:37:53Z</time>
      </trkpt>
      <trkpt lat="44.87951" lon="0.77614">
        <ele>103.5</ele>
        <time>2022-08-11T09:37:54Z</time>
      </trkpt>
      <trkpt lat="44.87954" lon="0.77624">
        <ele>102.5</ele>
        <time>2022-08-11T09:37:55Z</time>
      </trkpt>
      <trkpt lat="44.87955" lon="0.77635">
        <ele>101.5</ele>
        <time>2022-08-11T09:37:56Z</time>
      </trkpt>
      <trkpt lat="44.87956" lon="0.77648">
        <ele>99.5</ele>
        <time>2022-08-11T09:37:57Z</time>
      </trkpt>
      <trkpt lat="44.87956" lon="0.77661">
        <ele>98.5</ele>
        <time>2022-08-11T09:37:58Z</time>
      </trkpt>
      <trkpt lat="44.87956" lon="0.77676">
        <ele>96.5</ele>
        <time>2022-08-11T09:37:59Z</time>
      </trkpt>
      <trkpt lat="44.87957" lon="0.7769">
        <ele>95.5</ele>
        <time>2022-08-11T09:38:00Z</time>
      </trkpt>
      <trkpt lat="44.87958" lon="0.77705">
        <ele>93.5</ele>
        <time>2022-08-11T09:38:01Z</time>
      </trkpt>
      <trkpt lat="44.87958" lon="0.77719">
        <ele>92.5</ele>
        <time>2022-08-11T09:38:02Z</time>
      </trkpt>
      <trkpt lat="44.87958" lon="0.77735">
        <ele>91.5</ele>
        <time>2022-08-11T09:38:03Z</time>
      </trkpt>
      <trkpt lat="44.87959" lon="0.77752">
        <ele>91.5</ele>
        <time>2022-08-11T09:38:04Z</time>
      </trkpt>
      <trkpt lat="44.8796" lon="0.77773">
        <ele>92.5</ele>
        <time>2022-08-11T09:38:05Z</time>
      </trkpt>
      <trkpt lat="44.87963" lon="0.7779">
        <ele>92.5</ele>
        <time>2022-08-11T09:38:06Z</time>
      </trkpt>
      <trkpt lat="44.87966" lon="0.77804">
        <ele>92.5</ele>
        <time>2022-08-11T09:38:07Z</time>
      </trkpt>
      <trkpt lat="44.87969" lon="0.77814">
        <ele>91.5</ele>
        <time>2022-08-11T09:38:08Z</time>
      </trkpt>
      <trkpt lat="44.8797" lon="0.77822">
        <ele>90.5</ele>
        <time>2022-08-11T09:38:09Z</time>
      </trkpt>
      <trkpt lat="44.87972" lon="0.77829">
        <ele>90.5</ele>
        <time>2022-08-11T09:38:10Z</time>
      </trkpt>
      <trkpt lat="44.87974" lon="0.77838">
        <ele>90.5</ele>
        <time>2022-08-11T09:38:12Z</time>
      </trkpt>
      <trkpt lat="44.87979" lon="0.77845">
        <ele>91.5</ele>
        <time>2022-08-11T09:38:14Z</time>
      </trkpt>
      <trkpt lat="44.87985" lon="0.7785">
        <ele>92.5</ele>
        <time>2022-08-11T09:38:16Z</time>
      </trkpt>
      <trkpt lat="44.87991" lon="0.77853">
        <ele>92.5</ele>
        <time>2022-08-11T09:38:19Z</time>
      </trkpt>
      <trkpt lat="44.87995" lon="0.77855">
        <ele>93.5</ele>
        <time>2022-08-11T09:38:22Z</time>
      </trkpt>
      <trkpt lat="44.88" lon="0.77859">
        <ele>95.5</ele>
        <time>2022-08-11T09:38:26Z</time>
      </trkpt>
      <trkpt lat="44.88005" lon="0.77862">
        <ele>96.5</ele>
        <time>2022-08-11T09:38:31Z</time>
      </trkpt>
      <trkpt lat="44.88009" lon="0.77865">
        <ele>96.5</ele>
        <time>2022-08-11T09:38:35Z</time>
      </trkpt>
      <trkpt lat="44.88013" lon="0.7787">
        <ele>97.5</ele>
        <time>2022-08-11T09:38:38Z</time>
      </trkpt>
      <trkpt lat="44.88018" lon="0.77875">
        <ele>98.5</ele>
        <time>2022-08-11T09:38:42Z</time>
      </trkpt>
      <trkpt lat="44.8802" lon="0.77881">
        <ele>97.5</ele>
        <time>2022-08-11T09:38:47Z</time>
      </trkpt>
      <trkpt lat="44.88023" lon="0.77886">
        <ele>97.5</ele>
        <time>2022-08-11T09:38:53Z</time>
      </trkpt>
      <trkpt lat="44.88025" lon="0.77892">
        <ele>96.5</ele>
        <time>2022-08-11T09:38:57Z</time>
      </trkpt>
      <trkpt lat="44.8803" lon="0.77897">
        <ele>93.5</ele>
        <time>2022-08-11T09:39:25Z</time>
      </trkpt>
      <trkpt lat="44.88032" lon="0.77904">
        <ele>93.5</ele>
        <time>2022-08-11T09:39:29Z</time>
      </trkpt>
      <trkpt lat="44.88035" lon="0.7791">
        <ele>93.5</ele>
        <time>2022-08-11T09:39:33Z</time>
      </trkpt>
      <trkpt lat="44.88039" lon="0.77916">
        <ele>94.5</ele>
        <time>2022-08-11T09:39:38Z</time>
      </trkpt>
      <trkpt lat="44.88042" lon="0.77921">
        <ele>94.5</ele>
        <time>2022-08-11T09:39:41Z</time>
      </trkpt>
      <trkpt lat="44.88046" lon="0.77926">
        <ele>94.5</ele>
        <time>2022-08-11T09:39:45Z</time>
      </trkpt>
      <trkpt lat="44.88049" lon="0.7793">
        <ele>96.5</ele>
        <time>2022-08-11T09:39:49Z</time>
      </trkpt>
      <trkpt lat="44.88053" lon="0.77935">
        <ele>96.5</ele>
        <time>2022-08-11T09:39:52Z</time>
      </trkpt>
      <trkpt lat="44.88056" lon="0.77939">
        <ele>95.5</ele>
        <time>2022-08-11T09:39:55Z</time>
      </trkpt>
      <trkpt lat="44.8806" lon="0.77944">
        <ele>95.5</ele>
        <time>2022-08-11T09:39:59Z</time>
      </trkpt>
      <trkpt lat="44.88064" lon="0.77948">
        <ele>96.5</ele>
        <time>2022-08-11T09:40:02Z</time>
      </trkpt>
      <trkpt lat="44.88068" lon="0.77952">
        <ele>96.5</ele>
        <time>2022-08-11T09:40:07Z</time>
      </trkpt>
      <trkpt lat="44.88072" lon="0.77957">
        <ele>97.5</ele>
        <time>2022-08-11T09:40:12Z</time>
      </trkpt>
      <trkpt lat="44.88076" lon="0.77961">
        <ele>98.5</ele>
        <time>2022-08-11T09:40:16Z</time>
      </trkpt>
      <trkpt lat="44.88076" lon="0.77968">
        <ele>102.5</ele>
        <time>2022-08-11T09:40:29Z</time>
      </trkpt>
      <trkpt lat="44.88072" lon="0.77971">
        <ele>103.5</ele>
        <time>2022-08-11T09:40:34Z</time>
      </trkpt>
      <trkpt lat="44.88068" lon="0.77975">
        <ele>105.5</ele>
        <time>2022-08-11T09:40:42Z</time>
      </trkpt>
      <trkpt lat="44.88063" lon="0.77978">
        <ele>103.5</ele>
        <time>2022-08-11T09:40:48Z</time>
      </trkpt>
      <trkpt lat="44.8806" lon="0.77983">
        <ele>104.5</ele>
        <time>2022-08-11T09:40:52Z</time>
      </trkpt>
      <trkpt lat="44.88059" lon="0.77989">
        <ele>105.5</ele>
        <time>2022-08-11T09:40:56Z</time>
      </trkpt>
      <trkpt lat="44.88058" lon="0.77996">
        <ele>102.5</ele>
        <time>2022-08-11T09:41:00Z</time>
      </trkpt>
      <trkpt lat="44.88061" lon="0.78001">
        <ele>104.5</ele>
        <time>2022-08-11T09:41:08Z</time>
      </trkpt>
      <trkpt lat="44.88064" lon="0.78008">
        <ele>104.5</ele>
        <time>2022-08-11T09:41:13Z</time>
      </trkpt>
      <trkpt lat="44.88066" lon="0.78015">
        <ele>103.5</ele>
        <time>2022-08-11T09:41:18Z</time>
      </trkpt>
      <trkpt lat="44.88066" lon="0.78023">
        <ele>103.5</ele>
        <time>2022-08-11T09:41:21Z</time>
      </trkpt>
      <trkpt lat="44.88068" lon="0.78029">
        <ele>103.5</ele>
        <time>2022-08-11T09:41:25Z</time>
      </trkpt>
      <trkpt lat="44.88072" lon="0.78034">
        <ele>103.5</ele>
        <time>2022-08-11T09:41:30Z</time>
      </trkpt>
      <trkpt lat="44.88074" lon="0.7804">
        <ele>99.5</ele>
        <time>2022-08-11T09:41:37Z</time>
      </trkpt>
      <trkpt lat="44.88075" lon="0.78047">
        <ele>97.5</ele>
        <time>2022-08-11T09:41:42Z</time>
      </trkpt>
      <trkpt lat="44.88079" lon="0.78053">
        <ele>96.5</ele>
        <time>2022-08-11T09:41:47Z</time>
      </trkpt>
      <trkpt lat="44.88083" lon="0.78061">
        <ele>97.5</ele>
        <time>2022-08-11T09:41:50Z</time>
      </trkpt>
      <trkpt lat="44.88086" lon="0.78068">
        <ele>96.5</ele>
        <time>2022-08-11T09:41:53Z</time>
      </trkpt>
      <trkpt lat="44.88088" lon="0.78076">
        <ele>91.5</ele>
        <time>2022-08-11T09:41:56Z</time>
      </trkpt>
      <trkpt lat="44.88091" lon="0.78082">
        <ele>92.5</ele>
        <time>2022-08-11T09:41:59Z</time>
      </trkpt>
      <trkpt lat="44.88092" lon="0.78091">
        <ele>92.5</ele>
        <time>2022-08-11T09:42:05Z</time>
      </trkpt>
      <trkpt lat="44.88091" lon="0.78098">
        <ele>91.5</ele>
        <time>2022-08-11T09:42:10Z</time>
      </trkpt>
      <trkpt lat="44.8809" lon="0.78105">
        <ele>90.5</ele>
        <time>2022-08-11T09:42:14Z</time>
      </trkpt>
      <trkpt lat="44.88091" lon="0.78112">
        <ele>91.5</ele>
        <time>2022-08-11T09:42:19Z</time>
      </trkpt>
      <trkpt lat="44.88091" lon="0.78119">
        <ele>93.5</ele>
        <time>2022-08-11T09:42:26Z</time>
      </trkpt>
      <trkpt lat="44.88091" lon="0.78126">
        <ele>94.5</ele>
        <time>2022-08-11T09:42:30Z</time>
      </trkpt>
      <trkpt lat="44.88094" lon="0.7813">
        <ele>95.5</ele>
        <time>2022-08-11T09:42:35Z</time>
      </trkpt>
      <trkpt lat="44.88098" lon="0.78135">
        <ele>95.5</ele>
        <time>2022-08-11T09:42:38Z</time>
      </trkpt>
      <trkpt lat="44.88101" lon="0.7814">
        <ele>95.5</ele>
        <time>2022-08-11T09:42:41Z</time>
      </trkpt>
      <trkpt lat="44.88106" lon="0.78144">
        <ele>96.5</ele>
        <time>2022-08-11T09:42:44Z</time>
      </trkpt>
      <trkpt lat="44.8811" lon="0.78147">
        <ele>97.5</ele>
        <time>2022-08-11T09:42:49Z</time>
      </trkpt>
      <trkpt lat="44.88116" lon="0.78149">
        <ele>97.5</ele>
        <time>2022-08-11T09:42:53Z</time>
      </trkpt>
      <trkpt lat="44.88122" lon="0.78151">
        <ele>96.5</ele>
        <time>2022-08-11T09:42:56Z</time>
      </trkpt>
      <trkpt lat="44.88126" lon="0.78154">
        <ele>97.5</ele>
        <time>2022-08-11T09:42:58Z</time>
      </trkpt>
      <trkpt lat="44.88133" lon="0.78157">
        <ele>98.5</ele>
        <time>2022-08-11T09:43:00Z</time>
      </trkpt>
      <trkpt lat="44.88139" lon="0.78161">
        <ele>98.5</ele>
        <time>2022-08-11T09:43:02Z</time>
      </trkpt>
      <trkpt lat="44.88146" lon="0.78166">
        <ele>98.5</ele>
        <time>2022-08-11T09:43:04Z</time>
      </trkpt>
      <trkpt lat="44.88152" lon="0.78169">
        <ele>98.5</ele>
        <time>2022-08-11T09:43:06Z</time>
      </trkpt>
      <trkpt lat="44.88159" lon="0.78172">
        <ele>98.5</ele>
        <time>2022-08-11T09:43:08Z</time>
      </trkpt>
      <trkpt lat="44.88166" lon="0.78173">
        <ele>99.5</ele>
        <time>2022-08-11T09:43:10Z</time>
      </trkpt>
      <trkpt lat="44.88173" lon="0.78173">
        <ele>99.5</ele>
        <time>2022-08-11T09:43:12Z</time>
      </trkpt>
      <trkpt lat="44.8818" lon="0.78171">
        <ele>99.5</ele>
        <time>2022-08-11T09:43:14Z</time>
      </trkpt>
      <trkpt lat="44.88187" lon="0.78169">
        <ele>99.5</ele>
        <time>2022-08-11T09:43:16Z</time>
      </trkpt>
      <trkpt lat="44.88193" lon="0.78167">
        <ele>100.5</ele>
        <time>2022-08-11T09:43:18Z</time>
      </trkpt>
      <trkpt lat="44.88199" lon="0.78166">
        <ele>101.5</ele>
        <time>2022-08-11T09:43:21Z</time>
      </trkpt>
      <trkpt lat="44.88204" lon="0.78166">
        <ele>102.5</ele>
        <time>2022-08-11T09:43:24Z</time>
      </trkpt>
      <trkpt lat="44.88209" lon="0.78165">
        <ele>102.5</ele>
        <time>2022-08-11T09:43:27Z</time>
      </trkpt>
      <trkpt lat="44.88216" lon="0.78167">
        <ele>103.5</ele>
        <time>2022-08-11T09:43:32Z</time>
      </trkpt>
      <trkpt lat="44.88222" lon="0.78169">
        <ele>104.5</ele>
        <time>2022-08-11T09:43:35Z</time>
      </trkpt>
      <trkpt lat="44.88228" lon="0.7817">
        <ele>105.5</ele>
        <time>2022-08-11T09:43:38Z</time>
      </trkpt>
      <trkpt lat="44.88234" lon="0.7817">
        <ele>106.5</ele>
        <time>2022-08-11T09:43:41Z</time>
      </trkpt>
      <trkpt lat="44.8824" lon="0.78171">
        <ele>107.5</ele>
        <time>2022-08-11T09:43:44Z</time>
      </trkpt>
      <trkpt lat="44.88244" lon="0.78171">
        <ele>108.5</ele>
        <time>2022-08-11T09:43:47Z</time>
      </trkpt>
      <trkpt lat="44.88249" lon="0.7817">
        <ele>108.5</ele>
        <time>2022-08-11T09:43:50Z</time>
      </trkpt>
      <trkpt lat="44.88253" lon="0.78169">
        <ele>109.5</ele>
        <time>2022-08-11T09:43:53Z</time>
      </trkpt>
      <trkpt lat="44.88259" lon="0.78169">
        <ele>110.5</ele>
        <time>2022-08-11T09:43:57Z</time>
      </trkpt>
      <trkpt lat="44.88266" lon="0.78169">
        <ele>110.5</ele>
        <time>2022-08-11T09:44:00Z</time>
      </trkpt>
      <trkpt lat="44.8827" lon="0.78168">
        <ele>111.5</ele>
        <time>2022-08-11T09:44:02Z</time>
      </trkpt>
      <trkpt lat="44.88275" lon="0.78164">
        <ele>112.5</ele>
        <time>2022-08-11T09:44:05Z</time>
      </trkpt>
      <trkpt lat="44.88281" lon="0.78162">
        <ele>112.5</ele>
        <time>2022-08-11T09:44:08Z</time>
      </trkpt>
      <trkpt lat="44.88286" lon="0.78159">
        <ele>113.5</ele>
        <time>2022-08-11T09:44:11Z</time>
      </trkpt>
      <trkpt lat="44.8829" lon="0.78156">
        <ele>113.5</ele>
        <time>2022-08-11T09:44:13Z</time>
      </trkpt>
      <trkpt lat="44.88296" lon="0.78154">
        <ele>113.5</ele>
        <time>2022-08-11T09:44:16Z</time>
      </trkpt>
      <trkpt lat="44.883" lon="0.78152">
        <ele>113.5</ele>
        <time>2022-08-11T09:44:18Z</time>
      </trkpt>
      <trkpt lat="44.88306" lon="0.78151">
        <ele>114.5</ele>
        <time>2022-08-11T09:44:20Z</time>
      </trkpt>
      <trkpt lat="44.88311" lon="0.7815">
        <ele>114.5</ele>
        <time>2022-08-11T09:44:22Z</time>
      </trkpt>
      <trkpt lat="44.88316" lon="0.7815">
        <ele>115.5</ele>
        <time>2022-08-11T09:44:24Z</time>
      </trkpt>
      <trkpt lat="44.88322" lon="0.78149">
        <ele>115.5</ele>
        <time>2022-08-11T09:44:26Z</time>
      </trkpt>
      <trkpt lat="44.88327" lon="0.78148">
        <ele>115.5</ele>
        <time>2022-08-11T09:44:28Z</time>
      </trkpt>
      <trkpt lat="44.88332" lon="0.78145">
        <ele>115.5</ele>
        <time>2022-08-11T09:44:30Z</time>
      </trkpt>
      <trkpt lat="44.88337" lon="0.78144">
        <ele>116.5</ele>
        <time>2022-08-11T09:44:32Z</time>
      </trkpt>
      <trkpt lat="44.88344" lon="0.78142">
        <ele>115.5</ele>
        <time>2022-08-11T09:44:35Z</time>
      </trkpt>
      <trkpt lat="44.8835" lon="0.7814">
        <ele>116.5</ele>
        <time>2022-08-11T09:44:37Z</time>
      </trkpt>
      <trkpt lat="44.88355" lon="0.78135">
        <ele>116.5</ele>
        <time>2022-08-11T09:44:39Z</time>
      </trkpt>
      <trkpt lat="44.88361" lon="0.78131">
        <ele>116.5</ele>
        <time>2022-08-11T09:44:41Z</time>
      </trkpt>
      <trkpt lat="44.88366" lon="0.78127">
        <ele>117.5</ele>
        <time>2022-08-11T09:44:43Z</time>
      </trkpt>
      <trkpt lat="44.88371" lon="0.78122">
        <ele>116.5</ele>
        <time>2022-08-11T09:44:45Z</time>
      </trkpt>
      <trkpt lat="44.88376" lon="0.78118">
        <ele>117.5</ele>
        <time>2022-08-11T09:44:47Z</time>
      </trkpt>
      <trkpt lat="44.88381" lon="0.78114">
        <ele>117.5</ele>
        <time>2022-08-11T09:44:49Z</time>
      </trkpt>
      <trkpt lat="44.88386" lon="0.7811">
        <ele>117.5</ele>
        <time>2022-08-11T09:44:51Z</time>
      </trkpt>
      <trkpt lat="44.88391" lon="0.78107">
        <ele>117.5</ele>
        <time>2022-08-11T09:44:53Z</time>
      </trkpt>
      <trkpt lat="44.88394" lon="0.78103">
        <ele>117.5</ele>
        <time>2022-08-11T09:44:55Z</time>
      </trkpt>
      <trkpt lat="44.88399" lon="0.781">
        <ele>117.5</ele>
        <time>2022-08-11T09:44:58Z</time>
      </trkpt>
      <trkpt lat="44.88403" lon="0.78098">
        <ele>117.5</ele>
        <time>2022-08-11T09:45:00Z</time>
      </trkpt>
      <trkpt lat="44.88408" lon="0.78094">
        <ele>116.5</ele>
        <time>2022-08-11T09:45:02Z</time>
      </trkpt>
      <trkpt lat="44.88411" lon="0.78089">
        <ele>116.5</ele>
        <time>2022-08-11T09:45:05Z</time>
      </trkpt>
      <trkpt lat="44.88416" lon="0.78085">
        <ele>115.5</ele>
        <time>2022-08-11T09:45:08Z</time>
      </trkpt>
      <trkpt lat="44.8842" lon="0.7808">
        <ele>115.5</ele>
        <time>2022-08-11T09:45:11Z</time>
      </trkpt>
      <trkpt lat="44.88425" lon="0.78074">
        <ele>115.5</ele>
        <time>2022-08-11T09:45:14Z</time>
      </trkpt>
      <trkpt lat="44.88429" lon="0.7807">
        <ele>115.5</ele>
        <time>2022-08-11T09:45:16Z</time>
      </trkpt>
      <trkpt lat="44.88433" lon="0.78067">
        <ele>115.5</ele>
        <time>2022-08-11T09:45:18Z</time>
      </trkpt>
      <trkpt lat="44.88437" lon="0.78064">
        <ele>115.5</ele>
        <time>2022-08-11T09:45:20Z</time>
      </trkpt>
      <trkpt lat="44.88441" lon="0.7806">
        <ele>115.5</ele>
        <time>2022-08-11T09:45:22Z</time>
      </trkpt>
      <trkpt lat="44.88445" lon="0.78055">
        <ele>115.5</ele>
        <time>2022-08-11T09:45:24Z</time>
      </trkpt>
      <trkpt lat="44.8845" lon="0.78052">
        <ele>115.5</ele>
        <time>2022-08-11T09:45:26Z</time>
      </trkpt>
      <trkpt lat="44.88455" lon="0.78048">
        <ele>114.5</ele>
        <time>2022-08-11T09:45:29Z</time>
      </trkpt>
      <trkpt lat="44.88461" lon="0.78044">
        <ele>114.5</ele>
        <time>2022-08-11T09:45:32Z</time>
      </trkpt>
      <trkpt lat="44.88466" lon="0.78041">
        <ele>114.5</ele>
        <time>2022-08-11T09:45:34Z</time>
      </trkpt>
      <trkpt lat="44.88471" lon="0.78037">
        <ele>114.5</ele>
        <time>2022-08-11T09:45:37Z</time>
      </trkpt>
      <trkpt lat="44.88478" lon="0.78032">
        <ele>114.5</ele>
        <time>2022-08-11T09:45:40Z</time>
      </trkpt>
      <trkpt lat="44.88483" lon="0.78029">
        <ele>115.5</ele>
        <time>2022-08-11T09:45:42Z</time>
      </trkpt>
      <trkpt lat="44.88488" lon="0.78027">
        <ele>116.5</ele>
        <time>2022-08-11T09:45:44Z</time>
      </trkpt>
      <trkpt lat="44.88492" lon="0.78024">
        <ele>116.5</ele>
        <time>2022-08-11T09:45:46Z</time>
      </trkpt>
      <trkpt lat="44.88497" lon="0.78024">
        <ele>116.5</ele>
        <time>2022-08-11T09:45:48Z</time>
      </trkpt>
      <trkpt lat="44.88503" lon="0.78024">
        <ele>116.5</ele>
        <time>2022-08-11T09:45:50Z</time>
      </trkpt>
      <trkpt lat="44.88509" lon="0.78021">
        <ele>115.5</ele>
        <time>2022-08-11T09:45:52Z</time>
      </trkpt>
      <trkpt lat="44.88514" lon="0.78015">
        <ele>116.5</ele>
        <time>2022-08-11T09:45:54Z</time>
      </trkpt>
      <trkpt lat="44.88517" lon="0.78009">
        <ele>117.5</ele>
        <time>2022-08-11T09:45:57Z</time>
      </trkpt>
      <trkpt lat="44.88521" lon="0.78005">
        <ele>117.5</ele>
        <time>2022-08-11T09:46:00Z</time>
      </trkpt>
      <trkpt lat="44.88526" lon="0.78003">
        <ele>119.5</ele>
        <time>2022-08-11T09:46:04Z</time>
      </trkpt>
      <trkpt lat="44.88532" lon="0.78004">
        <ele>119.5</ele>
        <time>2022-08-11T09:46:07Z</time>
      </trkpt>
      <trkpt lat="44.88537" lon="0.78005">
        <ele>118.5</ele>
        <time>2022-08-11T09:46:09Z</time>
      </trkpt>
      <trkpt lat="44.88543" lon="0.78007">
        <ele>119.5</ele>
        <time>2022-08-11T09:46:11Z</time>
      </trkpt>
      <trkpt lat="44.88549" lon="0.78008">
        <ele>119.5</ele>
        <time>2022-08-11T09:46:13Z</time>
      </trkpt>
      <trkpt lat="44.88555" lon="0.78007">
        <ele>119.5</ele>
        <time>2022-08-11T09:46:15Z</time>
      </trkpt>
      <trkpt lat="44.88561" lon="0.78005">
        <ele>119.5</ele>
        <time>2022-08-11T09:46:17Z</time>
      </trkpt>
      <trkpt lat="44.88567" lon="0.78001">
        <ele>118.5</ele>
        <time>2022-08-11T09:46:19Z</time>
      </trkpt>
      <trkpt lat="44.88574" lon="0.77998">
        <ele>119.5</ele>
        <time>2022-08-11T09:46:21Z</time>
      </trkpt>
      <trkpt lat="44.8858" lon="0.77993">
        <ele>119.5</ele>
        <time>2022-08-11T09:46:23Z</time>
      </trkpt>
      <trkpt lat="44.88584" lon="0.77987">
        <ele>118.5</ele>
        <time>2022-08-11T09:46:25Z</time>
      </trkpt>
      <trkpt lat="44.88589" lon="0.77982">
        <ele>118.5</ele>
        <time>2022-08-11T09:46:27Z</time>
      </trkpt>
      <trkpt lat="44.88598" lon="0.77973">
        <ele>118.5</ele>
        <time>2022-08-11T09:46:30Z</time>
      </trkpt>
      <trkpt lat="44.88604" lon="0.77967">
        <ele>118.5</ele>
        <time>2022-08-11T09:46:32Z</time>
      </trkpt>
      <trkpt lat="44.8861" lon="0.77962">
        <ele>117.5</ele>
        <time>2022-08-11T09:46:34Z</time>
      </trkpt>
      <trkpt lat="44.88616" lon="0.77958">
        <ele>116.5</ele>
        <time>2022-08-11T09:46:36Z</time>
      </trkpt>
      <trkpt lat="44.88623" lon="0.77953">
        <ele>115.5</ele>
        <time>2022-08-11T09:46:38Z</time>
      </trkpt>
      <trkpt lat="44.88627" lon="0.77949">
        <ele>115.5</ele>
        <time>2022-08-11T09:46:39Z</time>
      </trkpt>
      <trkpt lat="44.88631" lon="0.77945">
        <ele>114.5</ele>
        <time>2022-08-11T09:46:40Z</time>
      </trkpt>
      <trkpt lat="44.88635" lon="0.77941">
        <ele>113.5</ele>
        <time>2022-08-11T09:46:41Z</time>
      </trkpt>
      <trkpt lat="44.88642" lon="0.77934">
        <ele>112.5</ele>
        <time>2022-08-11T09:46:43Z</time>
      </trkpt>
      <trkpt lat="44.88648" lon="0.77936">
        <ele>110.5</ele>
        <time>2022-08-11T09:46:45Z</time>
      </trkpt>
      <trkpt lat="44.88657" lon="0.77943">
        <ele>108.5</ele>
        <time>2022-08-11T09:46:47Z</time>
      </trkpt>
      <trkpt lat="44.88663" lon="0.77946">
        <ele>105.5</ele>
        <time>2022-08-11T09:46:48Z</time>
      </trkpt>
      <trkpt lat="44.88668" lon="0.77948">
        <ele>105.5</ele>
        <time>2022-08-11T09:46:49Z</time>
      </trkpt>
      <trkpt lat="44.88673" lon="0.77949">
        <ele>105.5</ele>
        <time>2022-08-11T09:46:50Z</time>
      </trkpt>
      <trkpt lat="44.8868" lon="0.77949">
        <ele>105.5</ele>
        <time>2022-08-11T09:46:51Z</time>
      </trkpt>
      <trkpt lat="44.88686" lon="0.7795">
        <ele>105.5</ele>
        <time>2022-08-11T09:46:52Z</time>
      </trkpt>
      <trkpt lat="44.88693" lon="0.77951">
        <ele>104.5</ele>
        <time>2022-08-11T09:46:54Z</time>
      </trkpt>
      <trkpt lat="44.887" lon="0.77952">
        <ele>104.5</ele>
        <time>2022-08-11T09:46:56Z</time>
      </trkpt>
      <trkpt lat="44.88705" lon="0.77956">
        <ele>104.5</ele>
        <time>2022-08-11T09:46:58Z</time>
      </trkpt>
      <trkpt lat="44.88709" lon="0.77963">
        <ele>104.5</ele>
        <time>2022-08-11T09:47:00Z</time>
      </trkpt>
      <trkpt lat="44.88715" lon="0.77972">
        <ele>104.5</ele>
        <time>2022-08-11T09:47:02Z</time>
      </trkpt>
      <trkpt lat="44.88718" lon="0.77978">
        <ele>104.5</ele>
        <time>2022-08-11T09:47:03Z</time>
      </trkpt>
      <trkpt lat="44.88722" lon="0.77988">
        <ele>104.5</ele>
        <time>2022-08-11T09:47:05Z</time>
      </trkpt>
      <trkpt lat="44.88726" lon="0.77997">
        <ele>103.5</ele>
        <time>2022-08-11T09:47:07Z</time>
      </trkpt>
      <trkpt lat="44.88731" lon="0.78002">
        <ele>103.5</ele>
        <time>2022-08-11T09:47:10Z</time>
      </trkpt>
      <trkpt lat="44.88737" lon="0.78004">
        <ele>107.5</ele>
        <time>2022-08-11T09:47:14Z</time>
      </trkpt>
      <trkpt lat="44.88741" lon="0.78007">
        <ele>112.5</ele>
        <time>2022-08-11T09:47:21Z</time>
      </trkpt>
      <trkpt lat="44.88741" lon="0.78013">
        <ele>113.5</ele>
        <time>2022-08-11T09:47:40Z</time>
      </trkpt>
      <trkpt lat="44.88738" lon="0.78021">
        <ele>112.5</ele>
        <time>2022-08-11T09:47:44Z</time>
      </trkpt>
      <trkpt lat="44.88736" lon="0.78027">
        <ele>111.5</ele>
        <time>2022-08-11T09:47:46Z</time>
      </trkpt>
      <trkpt lat="44.88733" lon="0.78034">
        <ele>111.5</ele>
        <time>2022-08-11T09:47:48Z</time>
      </trkpt>
      <trkpt lat="44.8873" lon="0.78042">
        <ele>110.5</ele>
        <time>2022-08-11T09:47:50Z</time>
      </trkpt>
      <trkpt lat="44.88728" lon="0.78049">
        <ele>109.5</ele>
        <time>2022-08-11T09:47:52Z</time>
      </trkpt>
      <trkpt lat="44.88726" lon="0.78059">
        <ele>109.5</ele>
        <time>2022-08-11T09:47:54Z</time>
      </trkpt>
      <trkpt lat="44.88724" lon="0.78072">
        <ele>108.5</ele>
        <time>2022-08-11T09:47:56Z</time>
      </trkpt>
      <trkpt lat="44.88723" lon="0.78079">
        <ele>108.5</ele>
        <time>2022-08-11T09:47:57Z</time>
      </trkpt>
      <trkpt lat="44.88721" lon="0.78085">
        <ele>108.5</ele>
        <time>2022-08-11T09:47:58Z</time>
      </trkpt>
      <trkpt lat="44.88718" lon="0.78092">
        <ele>107.5</ele>
        <time>2022-08-11T09:47:59Z</time>
      </trkpt>
      <trkpt lat="44.88716" lon="0.78098">
        <ele>107.5</ele>
        <time>2022-08-11T09:48:00Z</time>
      </trkpt>
      <trkpt lat="44.8871" lon="0.78105">
        <ele>107.5</ele>
        <time>2022-08-11T09:48:02Z</time>
      </trkpt>
      <trkpt lat="44.88706" lon="0.78113">
        <ele>107.5</ele>
        <time>2022-08-11T09:48:04Z</time>
      </trkpt>
      <trkpt lat="44.88704" lon="0.78119">
        <ele>106.5</ele>
        <time>2022-08-11T09:48:06Z</time>
      </trkpt>
      <trkpt lat="44.88701" lon="0.78126">
        <ele>105.5</ele>
        <time>2022-08-11T09:48:09Z</time>
      </trkpt>
      <trkpt lat="44.88696" lon="0.78133">
        <ele>104.5</ele>
        <time>2022-08-11T09:48:11Z</time>
      </trkpt>
      <trkpt lat="44.88689" lon="0.78141">
        <ele>103.5</ele>
        <time>2022-08-11T09:48:13Z</time>
      </trkpt>
      <trkpt lat="44.88684" lon="0.78144">
        <ele>103.5</ele>
        <time>2022-08-11T09:48:14Z</time>
      </trkpt>
      <trkpt lat="44.88679" lon="0.78147">
        <ele>102.5</ele>
        <time>2022-08-11T09:48:15Z</time>
      </trkpt>
      <trkpt lat="44.88674" lon="0.7815">
        <ele>101.5</ele>
        <time>2022-08-11T09:48:16Z</time>
      </trkpt>
      <trkpt lat="44.88669" lon="0.78151">
        <ele>101.5</ele>
        <time>2022-08-11T09:48:17Z</time>
      </trkpt>
      <trkpt lat="44.88665" lon="0.78152">
        <ele>100.5</ele>
        <time>2022-08-11T09:48:18Z</time>
      </trkpt>
      <trkpt lat="44.88656" lon="0.78154">
        <ele>99.5</ele>
        <time>2022-08-11T09:48:20Z</time>
      </trkpt>
      <trkpt lat="44.88648" lon="0.78158">
        <ele>98.5</ele>
        <time>2022-08-11T09:48:22Z</time>
      </trkpt>
      <trkpt lat="44.88642" lon="0.78162">
        <ele>96.5</ele>
        <time>2022-08-11T09:48:25Z</time>
      </trkpt>
      <trkpt lat="44.88636" lon="0.78165">
        <ele>94.5</ele>
        <time>2022-08-11T09:48:28Z</time>
      </trkpt>
      <trkpt lat="44.88631" lon="0.78169">
        <ele>94.5</ele>
        <time>2022-08-11T09:48:31Z</time>
      </trkpt>
      <trkpt lat="44.88627" lon="0.78169">
        <ele>93.5</ele>
        <time>2022-08-11T09:48:34Z</time>
      </trkpt>
      <trkpt lat="44.88622" lon="0.78171">
        <ele>92.5</ele>
        <time>2022-08-11T09:48:36Z</time>
      </trkpt>
      <trkpt lat="44.88615" lon="0.78175">
        <ele>91.5</ele>
        <time>2022-08-11T09:48:38Z</time>
      </trkpt>
      <trkpt lat="44.88607" lon="0.78179">
        <ele>91.5</ele>
        <time>2022-08-11T09:48:40Z</time>
      </trkpt>
      <trkpt lat="44.88599" lon="0.78183">
        <ele>90.5</ele>
        <time>2022-08-11T09:48:42Z</time>
      </trkpt>
      <trkpt lat="44.88592" lon="0.78185">
        <ele>90.5</ele>
        <time>2022-08-11T09:48:44Z</time>
      </trkpt>
      <trkpt lat="44.88584" lon="0.78187">
        <ele>89.5</ele>
        <time>2022-08-11T09:48:46Z</time>
      </trkpt>
      <trkpt lat="44.88575" lon="0.78191">
        <ele>88.5</ele>
        <time>2022-08-11T09:48:48Z</time>
      </trkpt>
      <trkpt lat="44.88571" lon="0.78195">
        <ele>88.5</ele>
        <time>2022-08-11T09:48:49Z</time>
      </trkpt>
      <trkpt lat="44.88566" lon="0.782">
        <ele>88.5</ele>
        <time>2022-08-11T09:48:50Z</time>
      </trkpt>
      <trkpt lat="44.88562" lon="0.78204">
        <ele>88.5</ele>
        <time>2022-08-11T09:48:51Z</time>
      </trkpt>
      <trkpt lat="44.88555" lon="0.78209">
        <ele>88.5</ele>
        <time>2022-08-11T09:48:52Z</time>
      </trkpt>
      <trkpt lat="44.88549" lon="0.78213">
        <ele>89.5</ele>
        <time>2022-08-11T09:48:53Z</time>
      </trkpt>
      <trkpt lat="44.88545" lon="0.78216">
        <ele>89.5</ele>
        <time>2022-08-11T09:48:54Z</time>
      </trkpt>
      <trkpt lat="44.88538" lon="0.78222">
        <ele>89.5</ele>
        <time>2022-08-11T09:48:56Z</time>
      </trkpt>
      <trkpt lat="44.88531" lon="0.78228">
        <ele>90.5</ele>
        <time>2022-08-11T09:48:58Z</time>
      </trkpt>
      <trkpt lat="44.88526" lon="0.78234">
        <ele>90.5</ele>
        <time>2022-08-11T09:49:00Z</time>
      </trkpt>
      <trkpt lat="44.88523" lon="0.7824">
        <ele>90.5</ele>
        <time>2022-08-11T09:49:02Z</time>
      </trkpt>
      <trkpt lat="44.88519" lon="0.78245">
        <ele>90.5</ele>
        <time>2022-08-11T09:49:04Z</time>
      </trkpt>
      <trkpt lat="44.88516" lon="0.7825">
        <ele>90.5</ele>
        <time>2022-08-11T09:49:06Z</time>
      </trkpt>
      <trkpt lat="44.88512" lon="0.78255">
        <ele>90.5</ele>
        <time>2022-08-11T09:49:08Z</time>
      </trkpt>
      <trkpt lat="44.88508" lon="0.78261">
        <ele>90.5</ele>
        <time>2022-08-11T09:49:10Z</time>
      </trkpt>
      <trkpt lat="44.88505" lon="0.78267">
        <ele>89.5</ele>
        <time>2022-08-11T09:49:12Z</time>
      </trkpt>
      <trkpt lat="44.88502" lon="0.78273">
        <ele>89.5</ele>
        <time>2022-08-11T09:49:14Z</time>
      </trkpt>
      <trkpt lat="44.88499" lon="0.78281">
        <ele>89.5</ele>
        <time>2022-08-11T09:49:16Z</time>
      </trkpt>
      <trkpt lat="44.88497" lon="0.78289">
        <ele>88.5</ele>
        <time>2022-08-11T09:49:18Z</time>
      </trkpt>
      <trkpt lat="44.88493" lon="0.78296">
        <ele>88.5</ele>
        <time>2022-08-11T09:49:20Z</time>
      </trkpt>
      <trkpt lat="44.88491" lon="0.78303">
        <ele>88.5</ele>
        <time>2022-08-11T09:49:22Z</time>
      </trkpt>
      <trkpt lat="44.8849" lon="0.78313">
        <ele>88.5</ele>
        <time>2022-08-11T09:49:24Z</time>
      </trkpt>
      <trkpt lat="44.88489" lon="0.78325">
        <ele>88.5</ele>
        <time>2022-08-11T09:49:26Z</time>
      </trkpt>
      <trkpt lat="44.88489" lon="0.78336">
        <ele>88.5</ele>
        <time>2022-08-11T09:49:28Z</time>
      </trkpt>
      <trkpt lat="44.8849" lon="0.78345">
        <ele>87.5</ele>
        <time>2022-08-11T09:49:30Z</time>
      </trkpt>
      <trkpt lat="44.88489" lon="0.78351">
        <ele>87.5</ele>
        <time>2022-08-11T09:49:32Z</time>
      </trkpt>
      <trkpt lat="44.88489" lon="0.78361">
        <ele>86.5</ele>
        <time>2022-08-11T09:49:35Z</time>
      </trkpt>
      <trkpt lat="44.88495" lon="0.78374">
        <ele>85.5</ele>
        <time>2022-08-11T09:49:37Z</time>
      </trkpt>
      <trkpt lat="44.88499" lon="0.78382">
        <ele>85.5</ele>
        <time>2022-08-11T09:49:38Z</time>
      </trkpt>
      <trkpt lat="44.88503" lon="0.78389">
        <ele>84.5</ele>
        <time>2022-08-11T09:49:39Z</time>
      </trkpt>
      <trkpt lat="44.88506" lon="0.78397">
        <ele>84.5</ele>
        <time>2022-08-11T09:49:40Z</time>
      </trkpt>
      <trkpt lat="44.88509" lon="0.78404">
        <ele>84.5</ele>
        <time>2022-08-11T09:49:41Z</time>
      </trkpt>
      <trkpt lat="44.88513" lon="0.78411">
        <ele>83.5</ele>
        <time>2022-08-11T09:49:42Z</time>
      </trkpt>
      <trkpt lat="44.88515" lon="0.78417">
        <ele>83.5</ele>
        <time>2022-08-11T09:49:43Z</time>
      </trkpt>
      <trkpt lat="44.88519" lon="0.78427">
        <ele>82.5</ele>
        <time>2022-08-11T09:49:45Z</time>
      </trkpt>
      <trkpt lat="44.88522" lon="0.78434">
        <ele>82.5</ele>
        <time>2022-08-11T09:49:47Z</time>
      </trkpt>
      <trkpt lat="44.8852" lon="0.78441">
        <ele>82.5</ele>
        <time>2022-08-11T09:49:55Z</time>
      </trkpt>
      <trkpt lat="44.8852" lon="0.7845">
        <ele>83.5</ele>
        <time>2022-08-11T09:49:58Z</time>
      </trkpt>
      <trkpt lat="44.88516" lon="0.78456">
        <ele>83.5</ele>
        <time>2022-08-11T09:50:02Z</time>
      </trkpt>
      <trkpt lat="44.88513" lon="0.78461">
        <ele>83.5</ele>
        <time>2022-08-11T09:50:04Z</time>
      </trkpt>
      <trkpt lat="44.88509" lon="0.78468">
        <ele>83.5</ele>
        <time>2022-08-11T09:50:07Z</time>
      </trkpt>
      <trkpt lat="44.88505" lon="0.78475">
        <ele>83.5</ele>
        <time>2022-08-11T09:50:10Z</time>
      </trkpt>
      <trkpt lat="44.88502" lon="0.78481">
        <ele>82.5</ele>
        <time>2022-08-11T09:50:12Z</time>
      </trkpt>
      <trkpt lat="44.88499" lon="0.78488">
        <ele>81.5</ele>
        <time>2022-08-11T09:50:14Z</time>
      </trkpt>
      <trkpt lat="44.88498" lon="0.78496">
        <ele>81.5</ele>
        <time>2022-08-11T09:50:16Z</time>
      </trkpt>
      <trkpt lat="44.88497" lon="0.78503">
        <ele>81.5</ele>
        <time>2022-08-11T09:50:18Z</time>
      </trkpt>
      <trkpt lat="44.88495" lon="0.78509">
        <ele>80.5</ele>
        <time>2022-08-11T09:50:20Z</time>
      </trkpt>
      <trkpt lat="44.88492" lon="0.78515">
        <ele>80.5</ele>
        <time>2022-08-11T09:50:22Z</time>
      </trkpt>
      <trkpt lat="44.88487" lon="0.7852">
        <ele>79.5</ele>
        <time>2022-08-11T09:50:24Z</time>
      </trkpt>
      <trkpt lat="44.8848" lon="0.78526">
        <ele>79.5</ele>
        <time>2022-08-11T09:50:26Z</time>
      </trkpt>
      <trkpt lat="44.88476" lon="0.7853">
        <ele>79.5</ele>
        <time>2022-08-11T09:50:27Z</time>
      </trkpt>
      <trkpt lat="44.88472" lon="0.78534">
        <ele>79.5</ele>
        <time>2022-08-11T09:50:28Z</time>
      </trkpt>
      <trkpt lat="44.88464" lon="0.78538">
        <ele>78.5</ele>
        <time>2022-08-11T09:50:30Z</time>
      </trkpt>
      <trkpt lat="44.88455" lon="0.78542">
        <ele>78.5</ele>
        <time>2022-08-11T09:50:32Z</time>
      </trkpt>
      <trkpt lat="44.8845" lon="0.78545">
        <ele>78.5</ele>
        <time>2022-08-11T09:50:33Z</time>
      </trkpt>
      <trkpt lat="44.88446" lon="0.78547">
        <ele>78.5</ele>
        <time>2022-08-11T09:50:34Z</time>
      </trkpt>
      <trkpt lat="44.88441" lon="0.7855">
        <ele>78.5</ele>
        <time>2022-08-11T09:50:35Z</time>
      </trkpt>
      <trkpt lat="44.88437" lon="0.78553">
        <ele>79.5</ele>
        <time>2022-08-11T09:50:36Z</time>
      </trkpt>
      <trkpt lat="44.88431" lon="0.78559">
        <ele>78.5</ele>
        <time>2022-08-11T09:50:38Z</time>
      </trkpt>
      <trkpt lat="44.88428" lon="0.78565">
        <ele>78.5</ele>
        <time>2022-08-11T09:50:41Z</time>
      </trkpt>
      <trkpt lat="44.88424" lon="0.78571">
        <ele>78.5</ele>
        <time>2022-08-11T09:50:45Z</time>
      </trkpt>
      <trkpt lat="44.88421" lon="0.78577">
        <ele>79.5</ele>
        <time>2022-08-11T09:50:47Z</time>
      </trkpt>
      <trkpt lat="44.8842" lon="0.78583">
        <ele>84.5</ele>
        <time>2022-08-11T09:50:57Z</time>
      </trkpt>
      <trkpt lat="44.88415" lon="0.78586">
        <ele>87.5</ele>
        <time>2022-08-11T09:51:06Z</time>
      </trkpt>
      <trkpt lat="44.88419" lon="0.78589">
        <ele>90.5</ele>
        <time>2022-08-11T09:51:41Z</time>
      </trkpt>
      <trkpt lat="44.88424" lon="0.78589">
        <ele>91.5</ele>
        <time>2022-08-11T09:51:49Z</time>
      </trkpt>
      <trkpt lat="44.88429" lon="0.78588">
        <ele>93.5</ele>
        <time>2022-08-11T09:51:55Z</time>
      </trkpt>
      <trkpt lat="44.88434" lon="0.78587">
        <ele>94.5</ele>
        <time>2022-08-11T09:51:59Z</time>
      </trkpt>
      <trkpt lat="44.88438" lon="0.78589">
        <ele>95.5</ele>
        <time>2022-08-11T09:52:03Z</time>
      </trkpt>
      <trkpt lat="44.88443" lon="0.78588">
        <ele>106.5</ele>
        <time>2022-08-11T09:52:12Z</time>
      </trkpt>
      <trkpt lat="44.88448" lon="0.78587">
        <ele>111.5</ele>
        <time>2022-08-11T09:52:25Z</time>
      </trkpt>
      <trkpt lat="44.88453" lon="0.78589">
        <ele>111.5</ele>
        <time>2022-08-11T09:52:37Z</time>
      </trkpt>
      <trkpt lat="44.88458" lon="0.78591">
        <ele>109.5</ele>
        <time>2022-08-11T09:52:41Z</time>
      </trkpt>
      <trkpt lat="44.88463" lon="0.78594">
        <ele>108.5</ele>
        <time>2022-08-11T09:52:44Z</time>
      </trkpt>
      <trkpt lat="44.88467" lon="0.78597">
        <ele>108.5</ele>
        <time>2022-08-11T09:52:47Z</time>
      </trkpt>
      <trkpt lat="44.88471" lon="0.786">
        <ele>107.5</ele>
        <time>2022-08-11T09:52:50Z</time>
      </trkpt>
      <trkpt lat="44.88475" lon="0.78605">
        <ele>106.5</ele>
        <time>2022-08-11T09:52:54Z</time>
      </trkpt>
      <trkpt lat="44.88479" lon="0.78609">
        <ele>106.5</ele>
        <time>2022-08-11T09:53:02Z</time>
      </trkpt>
      <trkpt lat="44.88483" lon="0.78613">
        <ele>104.5</ele>
        <time>2022-08-11T09:53:06Z</time>
      </trkpt>
      <trkpt lat="44.88488" lon="0.78615">
        <ele>104.5</ele>
        <time>2022-08-11T09:53:15Z</time>
      </trkpt>
      <trkpt lat="44.88493" lon="0.78619">
        <ele>104.5</ele>
        <time>2022-08-11T09:53:20Z</time>
      </trkpt>
      <trkpt lat="44.88497" lon="0.78622">
        <ele>104.5</ele>
        <time>2022-08-11T09:53:23Z</time>
      </trkpt>
      <trkpt lat="44.88502" lon="0.78625">
        <ele>105.5</ele>
        <time>2022-08-11T09:53:26Z</time>
      </trkpt>
      <trkpt lat="44.88505" lon="0.78629">
        <ele>105.5</ele>
        <time>2022-08-11T09:53:31Z</time>
      </trkpt>
      <trkpt lat="44.88504" lon="0.78636">
        <ele>104.5</ele>
        <time>2022-08-11T09:53:36Z</time>
      </trkpt>
      <trkpt lat="44.88502" lon="0.78641">
        <ele>108.5</ele>
        <time>2022-08-11T09:53:42Z</time>
      </trkpt>
      <trkpt lat="44.885" lon="0.78649">
        <ele>106.5</ele>
        <time>2022-08-11T09:53:50Z</time>
      </trkpt>
      <trkpt lat="44.88501" lon="0.78655">
        <ele>105.5</ele>
        <time>2022-08-11T09:53:54Z</time>
      </trkpt>
      <trkpt lat="44.88503" lon="0.78663">
        <ele>107.5</ele>
        <time>2022-08-11T09:53:58Z</time>
      </trkpt>
      <trkpt lat="44.88503" lon="0.7867">
        <ele>108.5</ele>
        <time>2022-08-11T09:54:04Z</time>
      </trkpt>
      <trkpt lat="44.88504" lon="0.78676">
        <ele>109.5</ele>
        <time>2022-08-11T09:54:10Z</time>
      </trkpt>
      <trkpt lat="44.88505" lon="0.78683">
        <ele>108.5</ele>
        <time>2022-08-11T09:54:16Z</time>
      </trkpt>
      <trkpt lat="44.88507" lon="0.7869">
        <ele>108.5</ele>
        <time>2022-08-11T09:54:21Z</time>
      </trkpt>
      <trkpt lat="44.88507" lon="0.78696">
        <ele>106.5</ele>
        <time>2022-08-11T09:54:26Z</time>
      </trkpt>
      <trkpt lat="44.8851" lon="0.78702">
        <ele>110.5</ele>
        <time>2022-08-11T09:54:35Z</time>
      </trkpt>
      <trkpt lat="44.88513" lon="0.78707">
        <ele>110.5</ele>
        <time>2022-08-11T09:54:39Z</time>
      </trkpt>
      <trkpt lat="44.88517" lon="0.78711">
        <ele>111.5</ele>
        <time>2022-08-11T09:54:43Z</time>
      </trkpt>
      <trkpt lat="44.8852" lon="0.78717">
        <ele>114.5</ele>
        <time>2022-08-11T09:54:48Z</time>
      </trkpt>
      <trkpt lat="44.88524" lon="0.78724">
        <ele>112.5</ele>
        <time>2022-08-11T09:54:51Z</time>
      </trkpt>
      <trkpt lat="44.88527" lon="0.78731">
        <ele>111.5</ele>
        <time>2022-08-11T09:54:55Z</time>
      </trkpt>
      <trkpt lat="44.8853" lon="0.78735">
        <ele>111.5</ele>
        <time>2022-08-11T09:54:59Z</time>
      </trkpt>
      <trkpt lat="44.88532" lon="0.78741">
        <ele>110.5</ele>
        <time>2022-08-11T09:55:02Z</time>
      </trkpt>
      <trkpt lat="44.88533" lon="0.78748">
        <ele>110.5</ele>
        <time>2022-08-11T09:55:06Z</time>
      </trkpt>
      <trkpt lat="44.88537" lon="0.78755">
        <ele>110.5</ele>
        <time>2022-08-11T09:55:11Z</time>
      </trkpt>
      <trkpt lat="44.88541" lon="0.78758">
        <ele>111.5</ele>
        <time>2022-08-11T09:55:14Z</time>
      </trkpt>
      <trkpt lat="44.88545" lon="0.78764">
        <ele>112.5</ele>
        <time>2022-08-11T09:55:18Z</time>
      </trkpt>
      <trkpt lat="44.88549" lon="0.78769">
        <ele>112.5</ele>
        <time>2022-08-11T09:55:23Z</time>
      </trkpt>
      <trkpt lat="44.88553" lon="0.78774">
        <ele>113.5</ele>
        <time>2022-08-11T09:55:26Z</time>
      </trkpt>
      <trkpt lat="44.88557" lon="0.78778">
        <ele>113.5</ele>
        <time>2022-08-11T09:55:29Z</time>
      </trkpt>
      <trkpt lat="44.88561" lon="0.78783">
        <ele>114.5</ele>
        <time>2022-08-11T09:55:33Z</time>
      </trkpt>
      <trkpt lat="44.88566" lon="0.78786">
        <ele>115.5</ele>
        <time>2022-08-11T09:55:39Z</time>
      </trkpt>
      <trkpt lat="44.88569" lon="0.78792">
        <ele>116.5</ele>
        <time>2022-08-11T09:55:42Z</time>
      </trkpt>
      <trkpt lat="44.88573" lon="0.78796">
        <ele>115.5</ele>
        <time>2022-08-11T09:55:49Z</time>
      </trkpt>
      <trkpt lat="44.88577" lon="0.788">
        <ele>115.5</ele>
        <time>2022-08-11T09:55:53Z</time>
      </trkpt>
      <trkpt lat="44.88579" lon="0.78807">
        <ele>115.5</ele>
        <time>2022-08-11T09:56:07Z</time>
      </trkpt>
      <trkpt lat="44.88581" lon="0.78813">
        <ele>115.5</ele>
        <time>2022-08-11T09:56:09Z</time>
      </trkpt>
      <trkpt lat="44.88584" lon="0.78819">
        <ele>116.5</ele>
        <time>2022-08-11T09:56:13Z</time>
      </trkpt>
      <trkpt lat="44.88586" lon="0.78827">
        <ele>117.5</ele>
        <time>2022-08-11T09:56:18Z</time>
      </trkpt>
      <trkpt lat="44.88588" lon="0.78833">
        <ele>117.5</ele>
        <time>2022-08-11T09:56:23Z</time>
      </trkpt>
      <trkpt lat="44.88588" lon="0.7884">
        <ele>117.5</ele>
        <time>2022-08-11T09:56:27Z</time>
      </trkpt>
      <trkpt lat="44.88588" lon="0.78847">
        <ele>117.5</ele>
        <time>2022-08-11T09:56:32Z</time>
      </trkpt>
      <trkpt lat="44.8859" lon="0.78855">
        <ele>118.5</ele>
        <time>2022-08-11T09:56:36Z</time>
      </trkpt>
      <trkpt lat="44.88593" lon="0.7886">
        <ele>118.5</ele>
        <time>2022-08-11T09:56:47Z</time>
      </trkpt>
      <trkpt lat="44.88593" lon="0.78867">
        <ele>118.5</ele>
        <time>2022-08-11T09:56:54Z</time>
      </trkpt>
      <trkpt lat="44.88593" lon="0.78873">
        <ele>119.5</ele>
        <time>2022-08-11T09:56:59Z</time>
      </trkpt>
      <trkpt lat="44.88592" lon="0.78881">
        <ele>118.5</ele>
        <time>2022-08-11T09:57:05Z</time>
      </trkpt>
      <trkpt lat="44.88591" lon="0.78888">
        <ele>118.5</ele>
        <time>2022-08-11T09:57:12Z</time>
      </trkpt>
      <trkpt lat="44.88591" lon="0.78895">
        <ele>118.5</ele>
        <time>2022-08-11T09:57:17Z</time>
      </trkpt>
      <trkpt lat="44.88592" lon="0.78902">
        <ele>116.5</ele>
        <time>2022-08-11T09:57:20Z</time>
      </trkpt>
      <trkpt lat="44.88592" lon="0.78911">
        <ele>116.5</ele>
        <time>2022-08-11T09:57:25Z</time>
      </trkpt>
      <trkpt lat="44.88592" lon="0.78918">
        <ele>116.5</ele>
        <time>2022-08-11T09:57:30Z</time>
      </trkpt>
      <trkpt lat="44.88593" lon="0.78925">
        <ele>117.5</ele>
        <time>2022-08-11T09:57:35Z</time>
      </trkpt>
      <trkpt lat="44.88594" lon="0.78932">
        <ele>118.5</ele>
        <time>2022-08-11T09:57:38Z</time>
      </trkpt>
      <trkpt lat="44.88595" lon="0.78939">
        <ele>117.5</ele>
        <time>2022-08-11T09:57:42Z</time>
      </trkpt>
      <trkpt lat="44.88599" lon="0.78946">
        <ele>118.5</ele>
        <time>2022-08-11T09:57:47Z</time>
      </trkpt>
      <trkpt lat="44.88602" lon="0.78953">
        <ele>118.5</ele>
        <time>2022-08-11T09:57:50Z</time>
      </trkpt>
      <trkpt lat="44.88603" lon="0.78961">
        <ele>118.5</ele>
        <time>2022-08-11T09:57:54Z</time>
      </trkpt>
      <trkpt lat="44.88605" lon="0.78968">
        <ele>119.5</ele>
        <time>2022-08-11T09:57:57Z</time>
      </trkpt>
      <trkpt lat="44.88605" lon="0.78976">
        <ele>119.5</ele>
        <time>2022-08-11T09:58:01Z</time>
      </trkpt>
      <trkpt lat="44.88606" lon="0.78983">
        <ele>119.5</ele>
        <time>2022-08-11T09:58:04Z</time>
      </trkpt>
      <trkpt lat="44.88605" lon="0.78991">
        <ele>119.5</ele>
        <time>2022-08-11T09:58:09Z</time>
      </trkpt>
      <trkpt lat="44.88604" lon="0.78999">
        <ele>119.5</ele>
        <time>2022-08-11T09:58:12Z</time>
      </trkpt>
      <trkpt lat="44.88605" lon="0.79006">
        <ele>118.5</ele>
        <time>2022-08-11T09:58:15Z</time>
      </trkpt>
      <trkpt lat="44.88605" lon="0.79015">
        <ele>117.5</ele>
        <time>2022-08-11T09:58:18Z</time>
      </trkpt>
      <trkpt lat="44.88604" lon="0.79022">
        <ele>116.5</ele>
        <time>2022-08-11T09:58:20Z</time>
      </trkpt>
      <trkpt lat="44.88604" lon="0.79031">
        <ele>115.5</ele>
        <time>2022-08-11T09:58:22Z</time>
      </trkpt>
      <trkpt lat="44.88604" lon="0.7904">
        <ele>113.5</ele>
        <time>2022-08-11T09:58:24Z</time>
      </trkpt>
      <trkpt lat="44.88603" lon="0.7905">
        <ele>113.5</ele>
        <time>2022-08-11T09:58:26Z</time>
      </trkpt>
      <trkpt lat="44.88602" lon="0.79062">
        <ele>112.5</ele>
        <time>2022-08-11T09:58:28Z</time>
      </trkpt>
      <trkpt lat="44.88601" lon="0.7907">
        <ele>113.5</ele>
        <time>2022-08-11T09:58:29Z</time>
      </trkpt>
      <trkpt lat="44.886" lon="0.79078">
        <ele>114.5</ele>
        <time>2022-08-11T09:58:30Z</time>
      </trkpt>
      <trkpt lat="44.88599" lon="0.79085">
        <ele>114.5</ele>
        <time>2022-08-11T09:58:31Z</time>
      </trkpt>
      <trkpt lat="44.88599" lon="0.79093">
        <ele>114.5</ele>
        <time>2022-08-11T09:58:32Z</time>
      </trkpt>
      <trkpt lat="44.88598" lon="0.79105">
        <ele>114.5</ele>
        <time>2022-08-11T09:58:34Z</time>
      </trkpt>
      <trkpt lat="44.88598" lon="0.79116">
        <ele>114.5</ele>
        <time>2022-08-11T09:58:36Z</time>
      </trkpt>
      <trkpt lat="44.88597" lon="0.79128">
        <ele>115.5</ele>
        <time>2022-08-11T09:58:38Z</time>
      </trkpt>
      <trkpt lat="44.88597" lon="0.79135">
        <ele>116.5</ele>
        <time>2022-08-11T09:58:39Z</time>
      </trkpt>
      <trkpt lat="44.88597" lon="0.79143">
        <ele>117.5</ele>
        <time>2022-08-11T09:58:40Z</time>
      </trkpt>
      <trkpt lat="44.88596" lon="0.79154">
        <ele>116.5</ele>
        <time>2022-08-11T09:58:42Z</time>
      </trkpt>
      <trkpt lat="44.88596" lon="0.79163">
        <ele>116.5</ele>
        <time>2022-08-11T09:58:44Z</time>
      </trkpt>
      <trkpt lat="44.88595" lon="0.79172">
        <ele>116.5</ele>
        <time>2022-08-11T09:58:46Z</time>
      </trkpt>
      <trkpt lat="44.88595" lon="0.79179">
        <ele>116.5</ele>
        <time>2022-08-11T09:58:48Z</time>
      </trkpt>
      <trkpt lat="44.88594" lon="0.79187">
        <ele>116.5</ele>
        <time>2022-08-11T09:58:50Z</time>
      </trkpt>
      <trkpt lat="44.88593" lon="0.79196">
        <ele>116.5</ele>
        <time>2022-08-11T09:58:52Z</time>
      </trkpt>
      <trkpt lat="44.88592" lon="0.79205">
        <ele>115.5</ele>
        <time>2022-08-11T09:58:54Z</time>
      </trkpt>
      <trkpt lat="44.8859" lon="0.79212">
        <ele>115.5</ele>
        <time>2022-08-11T09:58:56Z</time>
      </trkpt>
      <trkpt lat="44.88589" lon="0.79221">
        <ele>114.5</ele>
        <time>2022-08-11T09:58:58Z</time>
      </trkpt>
      <trkpt lat="44.88587" lon="0.79228">
        <ele>114.5</ele>
        <time>2022-08-11T09:59:00Z</time>
      </trkpt>
      <trkpt lat="44.88585" lon="0.79236">
        <ele>114.5</ele>
        <time>2022-08-11T09:59:02Z</time>
      </trkpt>
      <trkpt lat="44.88583" lon="0.79244">
        <ele>115.5</ele>
        <time>2022-08-11T09:59:05Z</time>
      </trkpt>
      <trkpt lat="44.88582" lon="0.79252">
        <ele>115.5</ele>
        <time>2022-08-11T09:59:09Z</time>
      </trkpt>
      <trkpt lat="44.8858" lon="0.79259">
        <ele>116.5</ele>
        <time>2022-08-11T09:59:12Z</time>
      </trkpt>
      <trkpt lat="44.88578" lon="0.79266">
        <ele>118.5</ele>
        <time>2022-08-11T09:59:32Z</time>
      </trkpt>
      <trkpt lat="44.88573" lon="0.79271">
        <ele>119.5</ele>
        <time>2022-08-11T09:59:35Z</time>
      </trkpt>
      <trkpt lat="44.88569" lon="0.79273">
        <ele>120.5</ele>
        <time>2022-08-11T09:59:37Z</time>
      </trkpt>
      <trkpt lat="44.88564" lon="0.79276">
        <ele>121.5</ele>
        <time>2022-08-11T09:59:39Z</time>
      </trkpt>
      <trkpt lat="44.8856" lon="0.79282">
        <ele>121.5</ele>
        <time>2022-08-11T09:59:41Z</time>
      </trkpt>
      <trkpt lat="44.88558" lon="0.79289">
        <ele>121.5</ele>
        <time>2022-08-11T09:59:43Z</time>
      </trkpt>
      <trkpt lat="44.88559" lon="0.79296">
        <ele>121.5</ele>
        <time>2022-08-11T09:59:47Z</time>
      </trkpt>
      <trkpt lat="44.88558" lon="0.79304">
        <ele>123.5</ele>
        <time>2022-08-11T09:59:55Z</time>
      </trkpt>
      <trkpt lat="44.88557" lon="0.7931">
        <ele>127.5</ele>
        <time>2022-08-11T10:00:05Z</time>
      </trkpt>
      <trkpt lat="44.88556" lon="0.79317">
        <ele>131.5</ele>
        <time>2022-08-11T10:00:21Z</time>
      </trkpt>
      <trkpt lat="44.88559" lon="0.79323">
        <ele>129.5</ele>
        <time>2022-08-11T10:00:24Z</time>
      </trkpt>
      <trkpt lat="44.8856" lon="0.79334">
        <ele>127.5</ele>
        <time>2022-08-11T10:00:27Z</time>
      </trkpt>
      <trkpt lat="44.88551" lon="0.79349">
        <ele>128.5</ele>
        <time>2022-08-11T10:00:30Z</time>
      </trkpt>
      <trkpt lat="44.88547" lon="0.79354">
        <ele>126.5</ele>
        <time>2022-08-11T10:00:31Z</time>
      </trkpt>
      <trkpt lat="44.88544" lon="0.79364">
        <ele>124.5</ele>
        <time>2022-08-11T10:00:33Z</time>
      </trkpt>
      <trkpt lat="44.88544" lon="0.79371">
        <ele>123.5</ele>
        <time>2022-08-11T10:00:34Z</time>
      </trkpt>
      <trkpt lat="44.88544" lon="0.79378">
        <ele>123.5</ele>
        <time>2022-08-11T10:00:35Z</time>
      </trkpt>
      <trkpt lat="44.88544" lon="0.79385">
        <ele>121.5</ele>
        <time>2022-08-11T10:00:36Z</time>
      </trkpt>
      <trkpt lat="44.88544" lon="0.79391">
        <ele>121.5</ele>
        <time>2022-08-11T10:00:37Z</time>
      </trkpt>
      <trkpt lat="44.88543" lon="0.79398">
        <ele>119.5</ele>
        <time>2022-08-11T10:00:38Z</time>
      </trkpt>
      <trkpt lat="44.88541" lon="0.79405">
        <ele>119.5</ele>
        <time>2022-08-11T10:00:39Z</time>
      </trkpt>
      <trkpt lat="44.88539" lon="0.79414">
        <ele>117.5</ele>
        <time>2022-08-11T10:00:40Z</time>
      </trkpt>
      <trkpt lat="44.88538" lon="0.79423">
        <ele>116.5</ele>
        <time>2022-08-11T10:00:41Z</time>
      </trkpt>
      <trkpt lat="44.88538" lon="0.79434">
        <ele>115.5</ele>
        <time>2022-08-11T10:00:42Z</time>
      </trkpt>
      <trkpt lat="44.88536" lon="0.79444">
        <ele>114.5</ele>
        <time>2022-08-11T10:00:43Z</time>
      </trkpt>
      <trkpt lat="44.88534" lon="0.79454">
        <ele>114.5</ele>
        <time>2022-08-11T10:00:44Z</time>
      </trkpt>
      <trkpt lat="44.88533" lon="0.79465">
        <ele>114.5</ele>
        <time>2022-08-11T10:00:45Z</time>
      </trkpt>
      <trkpt lat="44.88531" lon="0.79475">
        <ele>113.5</ele>
        <time>2022-08-11T10:00:46Z</time>
      </trkpt>
      <trkpt lat="44.88531" lon="0.79486">
        <ele>113.5</ele>
        <time>2022-08-11T10:00:47Z</time>
      </trkpt>
      <trkpt lat="44.8853" lon="0.79497">
        <ele>113.5</ele>
        <time>2022-08-11T10:00:48Z</time>
      </trkpt>
      <trkpt lat="44.88529" lon="0.79508">
        <ele>112.5</ele>
        <time>2022-08-11T10:00:49Z</time>
      </trkpt>
      <trkpt lat="44.88529" lon="0.79518">
        <ele>112.5</ele>
        <time>2022-08-11T10:00:50Z</time>
      </trkpt>
      <trkpt lat="44.88529" lon="0.79528">
        <ele>112.5</ele>
        <time>2022-08-11T10:00:51Z</time>
      </trkpt>
      <trkpt lat="44.88529" lon="0.79537">
        <ele>112.5</ele>
        <time>2022-08-11T10:00:52Z</time>
      </trkpt>
      <trkpt lat="44.8853" lon="0.79546">
        <ele>111.5</ele>
        <time>2022-08-11T10:00:53Z</time>
      </trkpt>
      <trkpt lat="44.88532" lon="0.79555">
        <ele>111.5</ele>
        <time>2022-08-11T10:00:54Z</time>
      </trkpt>
      <trkpt lat="44.88534" lon="0.79564">
        <ele>111.5</ele>
        <time>2022-08-11T10:00:55Z</time>
      </trkpt>
      <trkpt lat="44.88537" lon="0.79573">
        <ele>110.5</ele>
        <time>2022-08-11T10:00:56Z</time>
      </trkpt>
      <trkpt lat="44.8854" lon="0.79582">
        <ele>110.5</ele>
        <time>2022-08-11T10:00:57Z</time>
      </trkpt>
      <trkpt lat="44.88542" lon="0.79591">
        <ele>109.5</ele>
        <time>2022-08-11T10:00:58Z</time>
      </trkpt>
      <trkpt lat="44.88544" lon="0.796">
        <ele>108.5</ele>
        <time>2022-08-11T10:00:59Z</time>
      </trkpt>
      <trkpt lat="44.88546" lon="0.79607">
        <ele>108.5</ele>
        <time>2022-08-11T10:01:00Z</time>
      </trkpt>
      <trkpt lat="44.88548" lon="0.79616">
        <ele>107.5</ele>
        <time>2022-08-11T10:01:02Z</time>
      </trkpt>
      <trkpt lat="44.88551" lon="0.79623">
        <ele>108.5</ele>
        <time>2022-08-11T10:01:05Z</time>
      </trkpt>
      <trkpt lat="44.88552" lon="0.7963">
        <ele>109.5</ele>
        <time>2022-08-11T10:01:08Z</time>
      </trkpt>
      <trkpt lat="44.88552" lon="0.79637">
        <ele>110.5</ele>
        <time>2022-08-11T10:01:11Z</time>
      </trkpt>
      <trkpt lat="44.88554" lon="0.79644">
        <ele>113.5</ele>
        <time>2022-08-11T10:01:15Z</time>
      </trkpt>
      <trkpt lat="44.88554" lon="0.7965">
        <ele>116.5</ele>
        <time>2022-08-11T10:01:28Z</time>
      </trkpt>
      <trkpt lat="44.88558" lon="0.79653">
        <ele>118.5</ele>
        <time>2022-08-11T10:01:33Z</time>
      </trkpt>
      <trkpt lat="44.88563" lon="0.79651">
        <ele>118.5</ele>
        <time>2022-08-11T10:01:37Z</time>
      </trkpt>
      <trkpt lat="44.88569" lon="0.7965">
        <ele>119.5</ele>
        <time>2022-08-11T10:01:40Z</time>
      </trkpt>
      <trkpt lat="44.88574" lon="0.79647">
        <ele>119.5</ele>
        <time>2022-08-11T10:01:43Z</time>
      </trkpt>
      <trkpt lat="44.8858" lon="0.79645">
        <ele>118.5</ele>
        <time>2022-08-11T10:01:45Z</time>
      </trkpt>
      <trkpt lat="44.88585" lon="0.79642">
        <ele>118.5</ele>
        <time>2022-08-11T10:01:47Z</time>
      </trkpt>
      <trkpt lat="44.8859" lon="0.79638">
        <ele>118.5</ele>
        <time>2022-08-11T10:01:49Z</time>
      </trkpt>
      <trkpt lat="44.88594" lon="0.79635">
        <ele>118.5</ele>
        <time>2022-08-11T10:01:51Z</time>
      </trkpt>
      <trkpt lat="44.886" lon="0.79631">
        <ele>118.5</ele>
        <time>2022-08-11T10:01:53Z</time>
      </trkpt>
      <trkpt lat="44.88605" lon="0.79626">
        <ele>117.5</ele>
        <time>2022-08-11T10:01:55Z</time>
      </trkpt>
      <trkpt lat="44.88608" lon="0.7962">
        <ele>116.5</ele>
        <time>2022-08-11T10:01:57Z</time>
      </trkpt>
      <trkpt lat="44.88608" lon="0.79612">
        <ele>115.5</ele>
        <time>2022-08-11T10:01:59Z</time>
      </trkpt>
      <trkpt lat="44.88608" lon="0.79604">
        <ele>115.5</ele>
        <time>2022-08-11T10:02:01Z</time>
      </trkpt>
      <trkpt lat="44.88609" lon="0.79594">
        <ele>114.5</ele>
        <time>2022-08-11T10:02:03Z</time>
      </trkpt>
      <trkpt lat="44.88612" lon="0.79587">
        <ele>113.5</ele>
        <time>2022-08-11T10:02:05Z</time>
      </trkpt>
      <trkpt lat="44.88616" lon="0.79583">
        <ele>112.5</ele>
        <time>2022-08-11T10:02:07Z</time>
      </trkpt>
      <trkpt lat="44.88621" lon="0.79584">
        <ele>111.5</ele>
        <time>2022-08-11T10:02:09Z</time>
      </trkpt>
      <trkpt lat="44.88624" lon="0.79592">
        <ele>111.5</ele>
        <time>2022-08-11T10:02:11Z</time>
      </trkpt>
      <trkpt lat="44.88629" lon="0.79598">
        <ele>110.5</ele>
        <time>2022-08-11T10:02:13Z</time>
      </trkpt>
      <trkpt lat="44.88637" lon="0.796">
        <ele>109.5</ele>
        <time>2022-08-11T10:02:15Z</time>
      </trkpt>
      <trkpt lat="44.88643" lon="0.79604">
        <ele>108.5</ele>
        <time>2022-08-11T10:02:17Z</time>
      </trkpt>
      <trkpt lat="44.88648" lon="0.79607">
        <ele>108.5</ele>
        <time>2022-08-11T10:02:18Z</time>
      </trkpt>
      <trkpt lat="44.88656" lon="0.79612">
        <ele>108.5</ele>
        <time>2022-08-11T10:02:20Z</time>
      </trkpt>
      <trkpt lat="44.88662" lon="0.79616">
        <ele>107.5</ele>
        <time>2022-08-11T10:02:22Z</time>
      </trkpt>
      <trkpt lat="44.88667" lon="0.79621">
        <ele>104.5</ele>
        <time>2022-08-11T10:02:25Z</time>
      </trkpt>
      <trkpt lat="44.88671" lon="0.79626">
        <ele>102.5</ele>
        <time>2022-08-11T10:02:28Z</time>
      </trkpt>
      <trkpt lat="44.88676" lon="0.7963">
        <ele>100.5</ele>
        <time>2022-08-11T10:02:30Z</time>
      </trkpt>
      <trkpt lat="44.88682" lon="0.79635">
        <ele>99.5</ele>
        <time>2022-08-11T10:02:32Z</time>
      </trkpt>
      <trkpt lat="44.88693" lon="0.79641">
        <ele>96.5</ele>
        <time>2022-08-11T10:02:35Z</time>
      </trkpt>
      <trkpt lat="44.887" lon="0.79645">
        <ele>94.5</ele>
        <time>2022-08-11T10:02:37Z</time>
      </trkpt>
      <trkpt lat="44.88707" lon="0.79648">
        <ele>92.5</ele>
        <time>2022-08-11T10:02:39Z</time>
      </trkpt>
      <trkpt lat="44.88713" lon="0.79646">
        <ele>91.5</ele>
        <time>2022-08-11T10:02:41Z</time>
      </trkpt>
      <trkpt lat="44.88719" lon="0.79644">
        <ele>90.5</ele>
        <time>2022-08-11T10:02:44Z</time>
      </trkpt>
      <trkpt lat="44.88725" lon="0.79643">
        <ele>89.5</ele>
        <time>2022-08-11T10:02:47Z</time>
      </trkpt>
      <trkpt lat="44.88731" lon="0.79644">
        <ele>90.5</ele>
        <time>2022-08-11T10:02:50Z</time>
      </trkpt>
      <trkpt lat="44.88737" lon="0.79645">
        <ele>90.5</ele>
        <time>2022-08-11T10:02:53Z</time>
      </trkpt>
      <trkpt lat="44.88743" lon="0.79645">
        <ele>90.5</ele>
        <time>2022-08-11T10:02:57Z</time>
      </trkpt>
      <trkpt lat="44.88748" lon="0.79646">
        <ele>90.5</ele>
        <time>2022-08-11T10:03:00Z</time>
      </trkpt>
      <trkpt lat="44.88755" lon="0.79649">
        <ele>90.5</ele>
        <time>2022-08-11T10:03:05Z</time>
      </trkpt>
      <trkpt lat="44.8876" lon="0.7965">
        <ele>91.5</ele>
        <time>2022-08-11T10:03:07Z</time>
      </trkpt>
      <trkpt lat="44.88764" lon="0.79652">
        <ele>91.5</ele>
        <time>2022-08-11T10:03:09Z</time>
      </trkpt>
      <trkpt lat="44.88769" lon="0.79654">
        <ele>92.5</ele>
        <time>2022-08-11T10:03:12Z</time>
      </trkpt>
      <trkpt lat="44.88774" lon="0.79654">
        <ele>93.5</ele>
        <time>2022-08-11T10:03:16Z</time>
      </trkpt>
      <trkpt lat="44.8878" lon="0.79654">
        <ele>94.5</ele>
        <time>2022-08-11T10:03:22Z</time>
      </trkpt>
      <trkpt lat="44.88785" lon="0.79653">
        <ele>95.5</ele>
        <time>2022-08-11T10:03:26Z</time>
      </trkpt>
      <trkpt lat="44.8879" lon="0.79654">
        <ele>95.5</ele>
        <time>2022-08-11T10:03:36Z</time>
      </trkpt>
      <trkpt lat="44.88795" lon="0.79656">
        <ele>95.5</ele>
        <time>2022-08-11T10:03:47Z</time>
      </trkpt>
      <trkpt lat="44.888" lon="0.79661">
        <ele>95.5</ele>
        <time>2022-08-11T10:03:50Z</time>
      </trkpt>
      <trkpt lat="44.88805" lon="0.79666">
        <ele>95.5</ele>
        <time>2022-08-11T10:03:53Z</time>
      </trkpt>
      <trkpt lat="44.88808" lon="0.79671">
        <ele>95.5</ele>
        <time>2022-08-11T10:03:56Z</time>
      </trkpt>
      <trkpt lat="44.88812" lon="0.79675">
        <ele>95.5</ele>
        <time>2022-08-11T10:04:00Z</time>
      </trkpt>
      <trkpt lat="44.88818" lon="0.79679">
        <ele>94.5</ele>
        <time>2022-08-11T10:04:06Z</time>
      </trkpt>
      <trkpt lat="44.88821" lon="0.79683">
        <ele>93.5</ele>
        <time>2022-08-11T10:04:10Z</time>
      </trkpt>
      <trkpt lat="44.88826" lon="0.79689">
        <ele>93.5</ele>
        <time>2022-08-11T10:04:16Z</time>
      </trkpt>
      <trkpt lat="44.8883" lon="0.79692">
        <ele>92.5</ele>
        <time>2022-08-11T10:04:19Z</time>
      </trkpt>
      <trkpt lat="44.88834" lon="0.79695">
        <ele>93.5</ele>
        <time>2022-08-11T10:04:23Z</time>
      </trkpt>
      <trkpt lat="44.88839" lon="0.79699">
        <ele>93.5</ele>
        <time>2022-08-11T10:04:28Z</time>
      </trkpt>
      <trkpt lat="44.88844" lon="0.79703">
        <ele>94.5</ele>
        <time>2022-08-11T10:04:31Z</time>
      </trkpt>
      <trkpt lat="44.88848" lon="0.79707">
        <ele>95.5</ele>
        <time>2022-08-11T10:04:34Z</time>
      </trkpt>
      <trkpt lat="44.88853" lon="0.79711">
        <ele>96.5</ele>
        <time>2022-08-11T10:04:38Z</time>
      </trkpt>
      <trkpt lat="44.88857" lon="0.79714">
        <ele>99.5</ele>
        <time>2022-08-11T10:04:43Z</time>
      </trkpt>
      <trkpt lat="44.88862" lon="0.79719">
        <ele>99.5</ele>
        <time>2022-08-11T10:04:48Z</time>
      </trkpt>
      <trkpt lat="44.88867" lon="0.79722">
        <ele>99.5</ele>
        <time>2022-08-11T10:04:51Z</time>
      </trkpt>
      <trkpt lat="44.88871" lon="0.79723">
        <ele>99.5</ele>
        <time>2022-08-11T10:04:54Z</time>
      </trkpt>
      <trkpt lat="44.88876" lon="0.79723">
        <ele>99.5</ele>
        <time>2022-08-11T10:04:59Z</time>
      </trkpt>
      <trkpt lat="44.88881" lon="0.79721">
        <ele>100.5</ele>
        <time>2022-08-11T10:05:04Z</time>
      </trkpt>
      <trkpt lat="44.88887" lon="0.79721">
        <ele>101.5</ele>
        <time>2022-08-11T10:05:09Z</time>
      </trkpt>
      <trkpt lat="44.88891" lon="0.79718">
        <ele>101.5</ele>
        <time>2022-08-11T10:05:12Z</time>
      </trkpt>
      <trkpt lat="44.88895" lon="0.79714">
        <ele>102.5</ele>
        <time>2022-08-11T10:05:15Z</time>
      </trkpt>
      <trkpt lat="44.889" lon="0.79713">
        <ele>103.5</ele>
        <time>2022-08-11T10:05:18Z</time>
      </trkpt>
      <trkpt lat="44.88904" lon="0.7971">
        <ele>103.5</ele>
        <time>2022-08-11T10:05:21Z</time>
      </trkpt>
      <trkpt lat="44.8891" lon="0.79707">
        <ele>104.5</ele>
        <time>2022-08-11T10:05:24Z</time>
      </trkpt>
      <trkpt lat="44.88916" lon="0.79707">
        <ele>105.5</ele>
        <time>2022-08-11T10:05:28Z</time>
      </trkpt>
      <trkpt lat="44.88921" lon="0.79707">
        <ele>104.5</ele>
        <time>2022-08-11T10:05:30Z</time>
      </trkpt>
      <trkpt lat="44.88927" lon="0.79706">
        <ele>105.5</ele>
        <time>2022-08-11T10:05:32Z</time>
      </trkpt>
      <trkpt lat="44.88933" lon="0.79703">
        <ele>104.5</ele>
        <time>2022-08-11T10:05:34Z</time>
      </trkpt>
      <trkpt lat="44.88937" lon="0.79698">
        <ele>105.5</ele>
        <time>2022-08-11T10:05:36Z</time>
      </trkpt>
      <trkpt lat="44.8894" lon="0.79693">
        <ele>104.5</ele>
        <time>2022-08-11T10:05:39Z</time>
      </trkpt>
      <trkpt lat="44.88944" lon="0.79685">
        <ele>104.5</ele>
        <time>2022-08-11T10:05:42Z</time>
      </trkpt>
      <trkpt lat="44.88947" lon="0.79679">
        <ele>104.5</ele>
        <time>2022-08-11T10:05:44Z</time>
      </trkpt>
      <trkpt lat="44.88951" lon="0.79672">
        <ele>104.5</ele>
        <time>2022-08-11T10:05:46Z</time>
      </trkpt>
      <trkpt lat="44.88956" lon="0.79669">
        <ele>104.5</ele>
        <time>2022-08-11T10:05:48Z</time>
      </trkpt>
      <trkpt lat="44.88961" lon="0.79667">
        <ele>104.5</ele>
        <time>2022-08-11T10:05:50Z</time>
      </trkpt>
      <trkpt lat="44.88966" lon="0.79664">
        <ele>103.5</ele>
        <time>2022-08-11T10:05:52Z</time>
      </trkpt>
      <trkpt lat="44.88971" lon="0.7966">
        <ele>103.5</ele>
        <time>2022-08-11T10:05:54Z</time>
      </trkpt>
      <trkpt lat="44.88975" lon="0.79652">
        <ele>100.5</ele>
        <time>2022-08-11T10:05:57Z</time>
      </trkpt>
      <trkpt lat="44.88978" lon="0.79646">
        <ele>99.5</ele>
        <time>2022-08-11T10:05:59Z</time>
      </trkpt>
      <trkpt lat="44.88981" lon="0.7964">
        <ele>98.5</ele>
        <time>2022-08-11T10:06:01Z</time>
      </trkpt>
      <trkpt lat="44.88986" lon="0.79634">
        <ele>96.5</ele>
        <time>2022-08-11T10:06:03Z</time>
      </trkpt>
      <trkpt lat="44.8899" lon="0.79629">
        <ele>95.5</ele>
        <time>2022-08-11T10:06:05Z</time>
      </trkpt>
      <trkpt lat="44.88994" lon="0.79622">
        <ele>94.5</ele>
        <time>2022-08-11T10:06:07Z</time>
      </trkpt>
      <trkpt lat="44.88998" lon="0.79614">
        <ele>93.5</ele>
        <time>2022-08-11T10:06:09Z</time>
      </trkpt>
      <trkpt lat="44.89001" lon="0.79609">
        <ele>94.5</ele>
        <time>2022-08-11T10:06:10Z</time>
      </trkpt>
      <trkpt lat="44.89006" lon="0.79603">
        <ele>92.5</ele>
        <time>2022-08-11T10:06:11Z</time>
      </trkpt>
      <trkpt lat="44.89012" lon="0.79597">
        <ele>92.5</ele>
        <time>2022-08-11T10:06:12Z</time>
      </trkpt>
      <trkpt lat="44.89017" lon="0.79591">
        <ele>90.5</ele>
        <time>2022-08-11T10:06:13Z</time>
      </trkpt>
      <trkpt lat="44.89022" lon="0.79585">
        <ele>90.5</ele>
        <time>2022-08-11T10:06:14Z</time>
      </trkpt>
      <trkpt lat="44.89026" lon="0.79578">
        <ele>89.5</ele>
        <time>2022-08-11T10:06:15Z</time>
      </trkpt>
      <trkpt lat="44.89031" lon="0.79572">
        <ele>89.5</ele>
        <time>2022-08-11T10:06:16Z</time>
      </trkpt>
      <trkpt lat="44.89035" lon="0.79566">
        <ele>88.5</ele>
        <time>2022-08-11T10:06:17Z</time>
      </trkpt>
      <trkpt lat="44.8904" lon="0.79559">
        <ele>88.5</ele>
        <time>2022-08-11T10:06:18Z</time>
      </trkpt>
      <trkpt lat="44.89044" lon="0.79553">
        <ele>87.5</ele>
        <time>2022-08-11T10:06:19Z</time>
      </trkpt>
      <trkpt lat="44.89049" lon="0.79547">
        <ele>88.5</ele>
        <time>2022-08-11T10:06:20Z</time>
      </trkpt>
      <trkpt lat="44.89052" lon="0.79543">
        <ele>87.5</ele>
        <time>2022-08-11T10:06:21Z</time>
      </trkpt>
      <trkpt lat="44.89057" lon="0.79534">
        <ele>88.5</ele>
        <time>2022-08-11T10:06:23Z</time>
      </trkpt>
      <trkpt lat="44.89061" lon="0.79525">
        <ele>88.5</ele>
        <time>2022-08-11T10:06:25Z</time>
      </trkpt>
      <trkpt lat="44.89066" lon="0.79515">
        <ele>88.5</ele>
        <time>2022-08-11T10:06:27Z</time>
      </trkpt>
      <trkpt lat="44.89069" lon="0.7951">
        <ele>88.5</ele>
        <time>2022-08-11T10:06:28Z</time>
      </trkpt>
      <trkpt lat="44.89077" lon="0.79499">
        <ele>88.5</ele>
        <time>2022-08-11T10:06:30Z</time>
      </trkpt>
      <trkpt lat="44.89083" lon="0.79493">
        <ele>88.5</ele>
        <time>2022-08-11T10:06:31Z</time>
      </trkpt>
      <trkpt lat="44.89087" lon="0.79488">
        <ele>88.5</ele>
        <time>2022-08-11T10:06:32Z</time>
      </trkpt>
      <trkpt lat="44.89092" lon="0.79485">
        <ele>88.5</ele>
        <time>2022-08-11T10:06:33Z</time>
      </trkpt>
      <trkpt lat="44.89099" lon="0.79478">
        <ele>89.5</ele>
        <time>2022-08-11T10:06:35Z</time>
      </trkpt>
      <trkpt lat="44.89105" lon="0.79474">
        <ele>89.5</ele>
        <time>2022-08-11T10:06:37Z</time>
      </trkpt>
      <trkpt lat="44.89111" lon="0.79472">
        <ele>90.5</ele>
        <time>2022-08-11T10:06:39Z</time>
      </trkpt>
      <trkpt lat="44.89117" lon="0.79471">
        <ele>90.5</ele>
        <time>2022-08-11T10:06:41Z</time>
      </trkpt>
      <trkpt lat="44.89124" lon="0.79468">
        <ele>91.5</ele>
        <time>2022-08-11T10:06:43Z</time>
      </trkpt>
      <trkpt lat="44.89129" lon="0.79471">
        <ele>93.5</ele>
        <time>2022-08-11T10:06:47Z</time>
      </trkpt>
      <trkpt lat="44.89133" lon="0.79476">
        <ele>93.5</ele>
        <time>2022-08-11T10:06:49Z</time>
      </trkpt>
      <trkpt lat="44.89139" lon="0.79479">
        <ele>93.5</ele>
        <time>2022-08-11T10:06:51Z</time>
      </trkpt>
      <trkpt lat="44.89146" lon="0.79484">
        <ele>92.5</ele>
        <time>2022-08-11T10:06:53Z</time>
      </trkpt>
      <trkpt lat="44.89154" lon="0.79487">
        <ele>92.5</ele>
        <time>2022-08-11T10:06:55Z</time>
      </trkpt>
      <trkpt lat="44.8916" lon="0.79489">
        <ele>92.5</ele>
        <time>2022-08-11T10:06:57Z</time>
      </trkpt>
      <trkpt lat="44.89166" lon="0.79491">
        <ele>92.5</ele>
        <time>2022-08-11T10:06:59Z</time>
      </trkpt>
      <trkpt lat="44.89172" lon="0.79491">
        <ele>93.5</ele>
        <time>2022-08-11T10:07:01Z</time>
      </trkpt>
      <trkpt lat="44.89176" lon="0.79494">
        <ele>93.5</ele>
        <time>2022-08-11T10:07:03Z</time>
      </trkpt>
      <trkpt lat="44.8918" lon="0.79497">
        <ele>93.5</ele>
        <time>2022-08-11T10:07:05Z</time>
      </trkpt>
      <trkpt lat="44.89185" lon="0.79499">
        <ele>94.5</ele>
        <time>2022-08-11T10:07:07Z</time>
      </trkpt>
      <trkpt lat="44.89191" lon="0.79503">
        <ele>94.5</ele>
        <time>2022-08-11T10:07:09Z</time>
      </trkpt>
      <trkpt lat="44.89197" lon="0.79503">
        <ele>96.5</ele>
        <time>2022-08-11T10:07:12Z</time>
      </trkpt>
      <trkpt lat="44.89203" lon="0.795">
        <ele>97.5</ele>
        <time>2022-08-11T10:07:16Z</time>
      </trkpt>
      <trkpt lat="44.89207" lon="0.79496">
        <ele>98.5</ele>
        <time>2022-08-11T10:07:18Z</time>
      </trkpt>
      <trkpt lat="44.89212" lon="0.79495">
        <ele>97.5</ele>
        <time>2022-08-11T10:07:20Z</time>
      </trkpt>
      <trkpt lat="44.89217" lon="0.79493">
        <ele>98.5</ele>
        <time>2022-08-11T10:07:23Z</time>
      </trkpt>
      <trkpt lat="44.89219" lon="0.79486">
        <ele>98.5</ele>
        <time>2022-08-11T10:07:25Z</time>
      </trkpt>
      <trkpt lat="44.89221" lon="0.7948">
        <ele>100.5</ele>
        <time>2022-08-11T10:07:27Z</time>
      </trkpt>
      <trkpt lat="44.89225" lon="0.79474">
        <ele>100.5</ele>
        <time>2022-08-11T10:07:30Z</time>
      </trkpt>
      <trkpt lat="44.89227" lon="0.79468">
        <ele>101.5</ele>
        <time>2022-08-11T10:07:33Z</time>
      </trkpt>
      <trkpt lat="44.89231" lon="0.79462">
        <ele>100.5</ele>
        <time>2022-08-11T10:07:36Z</time>
      </trkpt>
      <trkpt lat="44.89234" lon="0.79453">
        <ele>99.5</ele>
        <time>2022-08-11T10:07:39Z</time>
      </trkpt>
      <trkpt lat="44.89239" lon="0.79451">
        <ele>98.5</ele>
        <time>2022-08-11T10:07:41Z</time>
      </trkpt>
      <trkpt lat="44.89244" lon="0.79449">
        <ele>97.5</ele>
        <time>2022-08-11T10:07:43Z</time>
      </trkpt>
      <trkpt lat="44.89249" lon="0.79447">
        <ele>95.5</ele>
        <time>2022-08-11T10:07:45Z</time>
      </trkpt>
      <trkpt lat="44.89255" lon="0.79444">
        <ele>93.5</ele>
        <time>2022-08-11T10:07:47Z</time>
      </trkpt>
      <trkpt lat="44.8926" lon="0.79442">
        <ele>93.5</ele>
        <time>2022-08-11T10:07:49Z</time>
      </trkpt>
      <trkpt lat="44.89265" lon="0.79438">
        <ele>93.5</ele>
        <time>2022-08-11T10:07:51Z</time>
      </trkpt>
      <trkpt lat="44.8927" lon="0.79433">
        <ele>92.5</ele>
        <time>2022-08-11T10:07:53Z</time>
      </trkpt>
      <trkpt lat="44.89275" lon="0.79428">
        <ele>90.5</ele>
        <time>2022-08-11T10:07:55Z</time>
      </trkpt>
      <trkpt lat="44.8928" lon="0.79424">
        <ele>90.5</ele>
        <time>2022-08-11T10:07:57Z</time>
      </trkpt>
      <trkpt lat="44.89284" lon="0.79423">
        <ele>89.5</ele>
        <time>2022-08-11T10:07:59Z</time>
      </trkpt>
      <trkpt lat="44.89289" lon="0.79422">
        <ele>89.5</ele>
        <time>2022-08-11T10:08:02Z</time>
      </trkpt>
      <trkpt lat="44.89295" lon="0.79421">
        <ele>88.5</ele>
        <time>2022-08-11T10:08:05Z</time>
      </trkpt>
      <trkpt lat="44.89299" lon="0.79418">
        <ele>89.5</ele>
        <time>2022-08-11T10:08:10Z</time>
      </trkpt>
      <trkpt lat="44.89306" lon="0.79416">
        <ele>90.5</ele>
        <time>2022-08-11T10:08:13Z</time>
      </trkpt>
      <trkpt lat="44.8931" lon="0.79414">
        <ele>91.5</ele>
        <time>2022-08-11T10:08:15Z</time>
      </trkpt>
      <trkpt lat="44.89315" lon="0.79406">
        <ele>90.5</ele>
        <time>2022-08-11T10:08:18Z</time>
      </trkpt>
      <trkpt lat="44.89322" lon="0.79398">
        <ele>87.5</ele>
        <time>2022-08-11T10:08:20Z</time>
      </trkpt>
      <trkpt lat="44.89326" lon="0.79395">
        <ele>86.5</ele>
        <time>2022-08-11T10:08:21Z</time>
      </trkpt>
      <trkpt lat="44.89333" lon="0.79389">
        <ele>84.5</ele>
        <time>2022-08-11T10:08:23Z</time>
      </trkpt>
      <trkpt lat="44.89337" lon="0.79387">
        <ele>84.5</ele>
        <time>2022-08-11T10:08:24Z</time>
      </trkpt>
      <trkpt lat="44.89342" lon="0.79386">
        <ele>84.5</ele>
        <time>2022-08-11T10:08:25Z</time>
      </trkpt>
      <trkpt lat="44.89347" lon="0.79386">
        <ele>84.5</ele>
        <time>2022-08-11T10:08:26Z</time>
      </trkpt>
      <trkpt lat="44.89354" lon="0.79388">
        <ele>84.5</ele>
        <time>2022-08-11T10:08:28Z</time>
      </trkpt>
      <trkpt lat="44.89359" lon="0.79389">
        <ele>85.5</ele>
        <time>2022-08-11T10:08:30Z</time>
      </trkpt>
      <trkpt lat="44.89364" lon="0.79386">
        <ele>86.5</ele>
        <time>2022-08-11T10:08:32Z</time>
      </trkpt>
      <trkpt lat="44.8937" lon="0.79384">
        <ele>87.5</ele>
        <time>2022-08-11T10:08:33Z</time>
      </trkpt>
      <trkpt lat="44.89376" lon="0.79382">
        <ele>88.5</ele>
        <time>2022-08-11T10:08:49Z</time>
      </trkpt>
      <trkpt lat="44.8938" lon="0.79382">
        <ele>89.5</ele>
        <time>2022-08-11T10:08:51Z</time>
      </trkpt>
      <trkpt lat="44.89385" lon="0.7938">
        <ele>89.5</ele>
        <time>2022-08-11T10:09:11Z</time>
      </trkpt>
      <trkpt lat="44.89389" lon="0.79378">
        <ele>92.5</ele>
        <time>2022-08-11T10:09:21Z</time>
      </trkpt>
      <trkpt lat="44.89395" lon="0.79381">
        <ele>93.5</ele>
        <time>2022-08-11T10:09:24Z</time>
      </trkpt>
      <trkpt lat="44.894" lon="0.79383">
        <ele>93.5</ele>
        <time>2022-08-11T10:09:26Z</time>
      </trkpt>
      <trkpt lat="44.89406" lon="0.79383">
        <ele>94.5</ele>
        <time>2022-08-11T10:09:29Z</time>
      </trkpt>
      <trkpt lat="44.89411" lon="0.79381">
        <ele>94.5</ele>
        <time>2022-08-11T10:09:32Z</time>
      </trkpt>
      <trkpt lat="44.89416" lon="0.79379">
        <ele>93.5</ele>
        <time>2022-08-11T10:09:35Z</time>
      </trkpt>
      <trkpt lat="44.89422" lon="0.79378">
        <ele>93.5</ele>
        <time>2022-08-11T10:09:38Z</time>
      </trkpt>
      <trkpt lat="44.89428" lon="0.79377">
        <ele>94.5</ele>
        <time>2022-08-11T10:09:41Z</time>
      </trkpt>
      <trkpt lat="44.89433" lon="0.79377">
        <ele>93.5</ele>
        <time>2022-08-11T10:09:43Z</time>
      </trkpt>
      <trkpt lat="44.89439" lon="0.79375">
        <ele>93.5</ele>
        <time>2022-08-11T10:09:45Z</time>
      </trkpt>
      <trkpt lat="44.89445" lon="0.79375">
        <ele>92.5</ele>
        <time>2022-08-11T10:09:47Z</time>
      </trkpt>
      <trkpt lat="44.89452" lon="0.79373">
        <ele>93.5</ele>
        <time>2022-08-11T10:09:49Z</time>
      </trkpt>
      <trkpt lat="44.89458" lon="0.79371">
        <ele>92.5</ele>
        <time>2022-08-11T10:09:51Z</time>
      </trkpt>
      <trkpt lat="44.89465" lon="0.79369">
        <ele>92.5</ele>
        <time>2022-08-11T10:09:53Z</time>
      </trkpt>
      <trkpt lat="44.89471" lon="0.79367">
        <ele>91.5</ele>
        <time>2022-08-11T10:09:55Z</time>
      </trkpt>
      <trkpt lat="44.89477" lon="0.79366">
        <ele>90.5</ele>
        <time>2022-08-11T10:09:57Z</time>
      </trkpt>
      <trkpt lat="44.89483" lon="0.79364">
        <ele>89.5</ele>
        <time>2022-08-11T10:09:59Z</time>
      </trkpt>
      <trkpt lat="44.8949" lon="0.79365">
        <ele>89.5</ele>
        <time>2022-08-11T10:10:01Z</time>
      </trkpt>
      <trkpt lat="44.89496" lon="0.79368">
        <ele>87.5</ele>
        <time>2022-08-11T10:10:03Z</time>
      </trkpt>
      <trkpt lat="44.89501" lon="0.7937">
        <ele>86.5</ele>
        <time>2022-08-11T10:10:04Z</time>
      </trkpt>
      <trkpt lat="44.89507" lon="0.79374">
        <ele>85.5</ele>
        <time>2022-08-11T10:10:05Z</time>
      </trkpt>
      <trkpt lat="44.89512" lon="0.79378">
        <ele>84.5</ele>
        <time>2022-08-11T10:10:06Z</time>
      </trkpt>
      <trkpt lat="44.89517" lon="0.79382">
        <ele>85.5</ele>
        <time>2022-08-11T10:10:08Z</time>
      </trkpt>
      <trkpt lat="44.89521" lon="0.79389">
        <ele>85.5</ele>
        <time>2022-08-11T10:10:11Z</time>
      </trkpt>
      <trkpt lat="44.89526" lon="0.79395">
        <ele>88.5</ele>
        <time>2022-08-11T10:10:13Z</time>
      </trkpt>
      <trkpt lat="44.89531" lon="0.79404">
        <ele>88.5</ele>
        <time>2022-08-11T10:10:15Z</time>
      </trkpt>
      <trkpt lat="44.89536" lon="0.79411">
        <ele>89.5</ele>
        <time>2022-08-11T10:10:17Z</time>
      </trkpt>
      <trkpt lat="44.89542" lon="0.79415">
        <ele>90.5</ele>
        <time>2022-08-11T10:10:19Z</time>
      </trkpt>
      <trkpt lat="44.89549" lon="0.79416">
        <ele>90.5</ele>
        <time>2022-08-11T10:10:21Z</time>
      </trkpt>
      <trkpt lat="44.89555" lon="0.79415">
        <ele>91.5</ele>
        <time>2022-08-11T10:10:23Z</time>
      </trkpt>
      <trkpt lat="44.8956" lon="0.79413">
        <ele>91.5</ele>
        <time>2022-08-11T10:10:25Z</time>
      </trkpt>
      <trkpt lat="44.89565" lon="0.79408">
        <ele>90.5</ele>
        <time>2022-08-11T10:10:28Z</time>
      </trkpt>
      <trkpt lat="44.89569" lon="0.79404">
        <ele>90.5</ele>
        <time>2022-08-11T10:10:31Z</time>
      </trkpt>
      <trkpt lat="44.89574" lon="0.79402">
        <ele>91.5</ele>
        <time>2022-08-11T10:10:35Z</time>
      </trkpt>
      <trkpt lat="44.8958" lon="0.79403">
        <ele>94.5</ele>
        <time>2022-08-11T10:10:44Z</time>
      </trkpt>
      <trkpt lat="44.89585" lon="0.79402">
        <ele>96.5</ele>
        <time>2022-08-11T10:10:46Z</time>
      </trkpt>
      <trkpt lat="44.8959" lon="0.79402">
        <ele>99.5</ele>
        <time>2022-08-11T10:10:49Z</time>
      </trkpt>
      <trkpt lat="44.89595" lon="0.79403">
        <ele>101.5</ele>
        <time>2022-08-11T10:10:54Z</time>
      </trkpt>
      <trkpt lat="44.896" lon="0.79405">
        <ele>104.5</ele>
        <time>2022-08-11T10:10:58Z</time>
      </trkpt>
      <trkpt lat="44.89605" lon="0.79405">
        <ele>110.5</ele>
        <time>2022-08-11T10:11:19Z</time>
      </trkpt>
      <trkpt lat="44.89609" lon="0.79409">
        <ele>113.5</ele>
        <time>2022-08-11T10:11:51Z</time>
      </trkpt>
      <trkpt lat="44.89613" lon="0.79415">
        <ele>112.5</ele>
        <time>2022-08-11T10:12:11Z</time>
      </trkpt>
      <trkpt lat="44.89616" lon="0.79419">
        <ele>114.5</ele>
        <time>2022-08-11T10:12:18Z</time>
      </trkpt>
      <trkpt lat="44.89619" lon="0.79425">
        <ele>114.5</ele>
        <time>2022-08-11T10:12:23Z</time>
      </trkpt>
      <trkpt lat="44.89623" lon="0.7943">
        <ele>114.5</ele>
        <time>2022-08-11T10:12:26Z</time>
      </trkpt>
      <trkpt lat="44.89626" lon="0.79436">
        <ele>114.5</ele>
        <time>2022-08-11T10:12:30Z</time>
      </trkpt>
      <trkpt lat="44.8963" lon="0.7944">
        <ele>115.5</ele>
        <time>2022-08-11T10:12:34Z</time>
      </trkpt>
      <trkpt lat="44.89633" lon="0.79445">
        <ele>115.5</ele>
        <time>2022-08-11T10:12:40Z</time>
      </trkpt>
      <trkpt lat="44.89637" lon="0.7945">
        <ele>116.5</ele>
        <time>2022-08-11T10:13:26Z</time>
      </trkpt>
      <trkpt lat="44.89641" lon="0.79453">
        <ele>116.5</ele>
        <time>2022-08-11T10:13:29Z</time>
      </trkpt>
      <trkpt lat="44.89646" lon="0.79456">
        <ele>116.5</ele>
        <time>2022-08-11T10:13:33Z</time>
      </trkpt>
      <trkpt lat="44.89651" lon="0.79457">
        <ele>118.5</ele>
        <time>2022-08-11T10:13:37Z</time>
      </trkpt>
      <trkpt lat="44.89656" lon="0.79461">
        <ele>118.5</ele>
        <time>2022-08-11T10:13:42Z</time>
      </trkpt>
      <trkpt lat="44.8966" lon="0.79466">
        <ele>115.5</ele>
        <time>2022-08-11T10:13:46Z</time>
      </trkpt>
      <trkpt lat="44.89664" lon="0.79469">
        <ele>117.5</ele>
        <time>2022-08-11T10:13:51Z</time>
      </trkpt>
      <trkpt lat="44.89669" lon="0.79469">
        <ele>120.5</ele>
        <time>2022-08-11T10:13:57Z</time>
      </trkpt>
      <trkpt lat="44.89674" lon="0.7947">
        <ele>127.5</ele>
        <time>2022-08-11T10:14:12Z</time>
      </trkpt>
      <trkpt lat="44.89677" lon="0.79476">
        <ele>127.5</ele>
        <time>2022-08-11T10:14:20Z</time>
      </trkpt>
      <trkpt lat="44.8968" lon="0.79481">
        <ele>126.5</ele>
        <time>2022-08-11T10:14:26Z</time>
      </trkpt>
      <trkpt lat="44.89685" lon="0.79485">
        <ele>126.5</ele>
        <time>2022-08-11T10:14:32Z</time>
      </trkpt>
      <trkpt lat="44.89689" lon="0.79488">
        <ele>128.5</ele>
        <time>2022-08-11T10:14:38Z</time>
      </trkpt>
      <trkpt lat="44.89693" lon="0.79494">
        <ele>128.5</ele>
        <time>2022-08-11T10:14:44Z</time>
      </trkpt>
      <trkpt lat="44.89698" lon="0.79498">
        <ele>128.5</ele>
        <time>2022-08-11T10:14:48Z</time>
      </trkpt>
      <trkpt lat="44.89701" lon="0.79503">
        <ele>128.5</ele>
        <time>2022-08-11T10:14:55Z</time>
      </trkpt>
      <trkpt lat="44.89705" lon="0.79508">
        <ele>130.5</ele>
        <time>2022-08-11T10:15:05Z</time>
      </trkpt>
      <trkpt lat="44.89708" lon="0.79513">
        <ele>130.5</ele>
        <time>2022-08-11T10:15:10Z</time>
      </trkpt>
      <trkpt lat="44.89713" lon="0.79515">
        <ele>131.5</ele>
        <time>2022-08-11T10:15:28Z</time>
      </trkpt>
      <trkpt lat="44.89717" lon="0.79519">
        <ele>131.5</ele>
        <time>2022-08-11T10:15:32Z</time>
      </trkpt>
      <trkpt lat="44.89722" lon="0.79522">
        <ele>132.5</ele>
        <time>2022-08-11T10:15:36Z</time>
      </trkpt>
      <trkpt lat="44.89726" lon="0.79528">
        <ele>133.5</ele>
        <time>2022-08-11T10:15:40Z</time>
      </trkpt>
      <trkpt lat="44.89729" lon="0.79533">
        <ele>134.5</ele>
        <time>2022-08-11T10:15:44Z</time>
      </trkpt>
      <trkpt lat="44.89732" lon="0.79539">
        <ele>133.5</ele>
        <time>2022-08-11T10:15:48Z</time>
      </trkpt>
      <trkpt lat="44.89736" lon="0.79542">
        <ele>133.5</ele>
        <time>2022-08-11T10:15:54Z</time>
      </trkpt>
      <trkpt lat="44.8974" lon="0.79546">
        <ele>134.5</ele>
        <time>2022-08-11T10:15:57Z</time>
      </trkpt>
      <trkpt lat="44.89744" lon="0.7955">
        <ele>134.5</ele>
        <time>2022-08-11T10:16:00Z</time>
      </trkpt>
      <trkpt lat="44.89748" lon="0.79558">
        <ele>134.5</ele>
        <time>2022-08-11T10:16:05Z</time>
      </trkpt>
      <trkpt lat="44.89753" lon="0.79563">
        <ele>135.5</ele>
        <time>2022-08-11T10:16:09Z</time>
      </trkpt>
      <trkpt lat="44.89757" lon="0.79568">
        <ele>136.5</ele>
        <time>2022-08-11T10:16:12Z</time>
      </trkpt>
      <trkpt lat="44.89761" lon="0.79573">
        <ele>136.5</ele>
        <time>2022-08-11T10:16:16Z</time>
      </trkpt>
      <trkpt lat="44.89765" lon="0.79578">
        <ele>137.5</ele>
        <time>2022-08-11T10:16:20Z</time>
      </trkpt>
      <trkpt lat="44.89768" lon="0.79582">
        <ele>137.5</ele>
        <time>2022-08-11T10:16:25Z</time>
      </trkpt>
      <trkpt lat="44.89772" lon="0.79588">
        <ele>137.5</ele>
        <time>2022-08-11T10:16:29Z</time>
      </trkpt>
      <trkpt lat="44.89775" lon="0.79593">
        <ele>138.5</ele>
        <time>2022-08-11T10:16:33Z</time>
      </trkpt>
      <trkpt lat="44.89778" lon="0.79598">
        <ele>139.5</ele>
        <time>2022-08-11T10:16:37Z</time>
      </trkpt>
      <trkpt lat="44.89782" lon="0.79602">
        <ele>140.5</ele>
        <time>2022-08-11T10:16:44Z</time>
      </trkpt>
      <trkpt lat="44.89786" lon="0.79607">
        <ele>142.5</ele>
        <time>2022-08-11T10:16:48Z</time>
      </trkpt>
      <trkpt lat="44.89789" lon="0.79612">
        <ele>143.5</ele>
        <time>2022-08-11T10:16:53Z</time>
      </trkpt>
      <trkpt lat="44.89791" lon="0.79617">
        <ele>142.5</ele>
        <time>2022-08-11T10:16:58Z</time>
      </trkpt>
      <trkpt lat="44.89795" lon="0.79623">
        <ele>144.5</ele>
        <time>2022-08-11T10:17:04Z</time>
      </trkpt>
      <trkpt lat="44.89799" lon="0.79628">
        <ele>144.5</ele>
        <time>2022-08-11T10:17:09Z</time>
      </trkpt>
      <trkpt lat="44.89801" lon="0.79634">
        <ele>145.5</ele>
        <time>2022-08-11T10:17:15Z</time>
      </trkpt>
      <trkpt lat="44.89805" lon="0.7964">
        <ele>145.5</ele>
        <time>2022-08-11T10:17:21Z</time>
      </trkpt>
      <trkpt lat="44.89809" lon="0.79646">
        <ele>146.5</ele>
        <time>2022-08-11T10:17:25Z</time>
      </trkpt>
      <trkpt lat="44.89813" lon="0.7965">
        <ele>147.5</ele>
        <time>2022-08-11T10:17:30Z</time>
      </trkpt>
      <trkpt lat="44.89817" lon="0.79656">
        <ele>148.5</ele>
        <time>2022-08-11T10:17:36Z</time>
      </trkpt>
      <trkpt lat="44.89821" lon="0.79661">
        <ele>148.5</ele>
        <time>2022-08-11T10:17:40Z</time>
      </trkpt>
      <trkpt lat="44.89825" lon="0.79667">
        <ele>150.5</ele>
        <time>2022-08-11T10:17:43Z</time>
      </trkpt>
      <trkpt lat="44.89829" lon="0.79671">
        <ele>150.5</ele>
        <time>2022-08-11T10:17:46Z</time>
      </trkpt>
      <trkpt lat="44.89833" lon="0.79674">
        <ele>151.5</ele>
        <time>2022-08-11T10:17:50Z</time>
      </trkpt>
      <trkpt lat="44.89837" lon="0.79678">
        <ele>152.5</ele>
        <time>2022-08-11T10:17:57Z</time>
      </trkpt>
      <trkpt lat="44.8984" lon="0.79684">
        <ele>150.5</ele>
        <time>2022-08-11T10:18:00Z</time>
      </trkpt>
      <trkpt lat="44.89845" lon="0.79688">
        <ele>150.5</ele>
        <time>2022-08-11T10:18:05Z</time>
      </trkpt>
      <trkpt lat="44.8985" lon="0.79691">
        <ele>149.5</ele>
        <time>2022-08-11T10:18:10Z</time>
      </trkpt>
      <trkpt lat="44.89853" lon="0.79696">
        <ele>149.5</ele>
        <time>2022-08-11T10:18:15Z</time>
      </trkpt>
      <trkpt lat="44.89857" lon="0.79699">
        <ele>147.5</ele>
        <time>2022-08-11T10:18:24Z</time>
      </trkpt>
      <trkpt lat="44.89861" lon="0.79703">
        <ele>148.5</ele>
        <time>2022-08-11T10:18:41Z</time>
      </trkpt>
      <trkpt lat="44.89864" lon="0.79709">
        <ele>145.5</ele>
        <time>2022-08-11T10:18:48Z</time>
      </trkpt>
      <trkpt lat="44.89868" lon="0.79714">
        <ele>145.5</ele>
        <time>2022-08-11T10:18:54Z</time>
      </trkpt>
      <trkpt lat="44.89873" lon="0.79717">
        <ele>144.5</ele>
        <time>2022-08-11T10:18:59Z</time>
      </trkpt>
      <trkpt lat="44.89877" lon="0.79723">
        <ele>144.5</ele>
        <time>2022-08-11T10:19:03Z</time>
      </trkpt>
      <trkpt lat="44.89881" lon="0.79728">
        <ele>144.5</ele>
        <time>2022-08-11T10:19:10Z</time>
      </trkpt>
      <trkpt lat="44.89884" lon="0.79734">
        <ele>144.5</ele>
        <time>2022-08-11T10:19:14Z</time>
      </trkpt>
      <trkpt lat="44.89888" lon="0.79739">
        <ele>146.5</ele>
        <time>2022-08-11T10:19:21Z</time>
      </trkpt>
      <trkpt lat="44.89892" lon="0.79744">
        <ele>147.5</ele>
        <time>2022-08-11T10:19:25Z</time>
      </trkpt>
      <trkpt lat="44.89896" lon="0.79749">
        <ele>148.5</ele>
        <time>2022-08-11T10:19:30Z</time>
      </trkpt>
      <trkpt lat="44.89899" lon="0.79754">
        <ele>150.5</ele>
        <time>2022-08-11T10:19:34Z</time>
      </trkpt>
      <trkpt lat="44.89902" lon="0.7976">
        <ele>153.5</ele>
        <time>2022-08-11T10:19:38Z</time>
      </trkpt>
      <trkpt lat="44.89905" lon="0.79766">
        <ele>154.5</ele>
        <time>2022-08-11T10:19:42Z</time>
      </trkpt>
      <trkpt lat="44.89909" lon="0.7977">
        <ele>156.5</ele>
        <time>2022-08-11T10:19:46Z</time>
      </trkpt>
      <trkpt lat="44.89913" lon="0.79775">
        <ele>158.5</ele>
        <time>2022-08-11T10:19:50Z</time>
      </trkpt>
      <trkpt lat="44.89915" lon="0.79781">
        <ele>162.5</ele>
        <time>2022-08-11T10:19:54Z</time>
      </trkpt>
      <trkpt lat="44.89918" lon="0.79787">
        <ele>164.5</ele>
        <time>2022-08-11T10:19:59Z</time>
      </trkpt>
      <trkpt lat="44.8992" lon="0.79794">
        <ele>164.5</ele>
        <time>2022-08-11T10:20:04Z</time>
      </trkpt>
      <trkpt lat="44.89921" lon="0.79802">
        <ele>164.5</ele>
        <time>2022-08-11T10:20:09Z</time>
      </trkpt>
      <trkpt lat="44.89924" lon="0.79808">
        <ele>164.5</ele>
        <time>2022-08-11T10:20:13Z</time>
      </trkpt>
      <trkpt lat="44.89927" lon="0.79812">
        <ele>166.5</ele>
        <time>2022-08-11T10:20:18Z</time>
      </trkpt>
      <trkpt lat="44.89931" lon="0.79818">
        <ele>167.5</ele>
        <time>2022-08-11T10:20:39Z</time>
      </trkpt>
      <trkpt lat="44.89936" lon="0.79823">
        <ele>168.5</ele>
        <time>2022-08-11T10:20:43Z</time>
      </trkpt>
      <trkpt lat="44.8994" lon="0.79827">
        <ele>168.5</ele>
        <time>2022-08-11T10:20:46Z</time>
      </trkpt>
      <trkpt lat="44.89944" lon="0.79831">
        <ele>170.5</ele>
        <time>2022-08-11T10:20:49Z</time>
      </trkpt>
      <trkpt lat="44.89948" lon="0.79835">
        <ele>170.5</ele>
        <time>2022-08-11T10:20:52Z</time>
      </trkpt>
      <trkpt lat="44.89954" lon="0.79841">
        <ele>170.5</ele>
        <time>2022-08-11T10:20:55Z</time>
      </trkpt>
      <trkpt lat="44.89959" lon="0.79846">
        <ele>170.5</ele>
        <time>2022-08-11T10:20:58Z</time>
      </trkpt>
      <trkpt lat="44.89964" lon="0.7985">
        <ele>170.5</ele>
        <time>2022-08-11T10:21:01Z</time>
      </trkpt>
      <trkpt lat="44.89969" lon="0.79854">
        <ele>170.5</ele>
        <time>2022-08-11T10:21:04Z</time>
      </trkpt>
      <trkpt lat="44.89974" lon="0.79857">
        <ele>170.5</ele>
        <time>2022-08-11T10:21:07Z</time>
      </trkpt>
      <trkpt lat="44.89979" lon="0.79862">
        <ele>170.5</ele>
        <time>2022-08-11T10:21:10Z</time>
      </trkpt>
      <trkpt lat="44.89981" lon="0.7987">
        <ele>170.5</ele>
        <time>2022-08-11T10:21:13Z</time>
      </trkpt>
      <trkpt lat="44.89979" lon="0.79878">
        <ele>170.5</ele>
        <time>2022-08-11T10:21:16Z</time>
      </trkpt>
      <trkpt lat="44.89976" lon="0.79884">
        <ele>169.5</ele>
        <time>2022-08-11T10:21:18Z</time>
      </trkpt>
      <trkpt lat="44.89973" lon="0.79891">
        <ele>169.5</ele>
        <time>2022-08-11T10:21:20Z</time>
      </trkpt>
      <trkpt lat="44.89969" lon="0.79899">
        <ele>169.5</ele>
        <time>2022-08-11T10:21:22Z</time>
      </trkpt>
      <trkpt lat="44.89965" lon="0.79909">
        <ele>169.5</ele>
        <time>2022-08-11T10:21:24Z</time>
      </trkpt>
      <trkpt lat="44.8996" lon="0.79919">
        <ele>170.5</ele>
        <time>2022-08-11T10:21:26Z</time>
      </trkpt>
      <trkpt lat="44.89957" lon="0.79925">
        <ele>170.5</ele>
        <time>2022-08-11T10:21:27Z</time>
      </trkpt>
      <trkpt lat="44.89954" lon="0.7993">
        <ele>169.5</ele>
        <time>2022-08-11T10:21:28Z</time>
      </trkpt>
      <trkpt lat="44.89951" lon="0.79936">
        <ele>169.5</ele>
        <time>2022-08-11T10:21:29Z</time>
      </trkpt>
      <trkpt lat="44.89948" lon="0.79941">
        <ele>169.5</ele>
        <time>2022-08-11T10:21:30Z</time>
      </trkpt>
      <trkpt lat="44.89945" lon="0.79946">
        <ele>168.5</ele>
        <time>2022-08-11T10:21:31Z</time>
      </trkpt>
      <trkpt lat="44.89942" lon="0.79953">
        <ele>168.5</ele>
        <time>2022-08-11T10:21:32Z</time>
      </trkpt>
      <trkpt lat="44.89938" lon="0.79959">
        <ele>168.5</ele>
        <time>2022-08-11T10:21:33Z</time>
      </trkpt>
      <trkpt lat="44.89934" lon="0.79965">
        <ele>168.5</ele>
        <time>2022-08-11T10:21:34Z</time>
      </trkpt>
      <trkpt lat="44.89931" lon="0.79972">
        <ele>168.5</ele>
        <time>2022-08-11T10:21:35Z</time>
      </trkpt>
      <trkpt lat="44.89927" lon="0.79978">
        <ele>169.5</ele>
        <time>2022-08-11T10:21:36Z</time>
      </trkpt>
      <trkpt lat="44.89924" lon="0.79985">
        <ele>169.5</ele>
        <time>2022-08-11T10:21:37Z</time>
      </trkpt>
      <trkpt lat="44.8992" lon="0.79991">
        <ele>169.5</ele>
        <time>2022-08-11T10:21:38Z</time>
      </trkpt>
      <trkpt lat="44.89916" lon="0.79998">
        <ele>169.5</ele>
        <time>2022-08-11T10:21:39Z</time>
      </trkpt>
      <trkpt lat="44.89912" lon="0.80005">
        <ele>169.5</ele>
        <time>2022-08-11T10:21:40Z</time>
      </trkpt>
      <trkpt lat="44.89908" lon="0.80011">
        <ele>169.5</ele>
        <time>2022-08-11T10:21:41Z</time>
      </trkpt>
      <trkpt lat="44.89904" lon="0.80017">
        <ele>169.5</ele>
        <time>2022-08-11T10:21:42Z</time>
      </trkpt>
      <trkpt lat="44.899" lon="0.80023">
        <ele>169.5</ele>
        <time>2022-08-11T10:21:43Z</time>
      </trkpt>
      <trkpt lat="44.89896" lon="0.8003">
        <ele>169.5</ele>
        <time>2022-08-11T10:21:44Z</time>
      </trkpt>
      <trkpt lat="44.89892" lon="0.80036">
        <ele>169.5</ele>
        <time>2022-08-11T10:21:45Z</time>
      </trkpt>
      <trkpt lat="44.89887" lon="0.80043">
        <ele>169.5</ele>
        <time>2022-08-11T10:21:46Z</time>
      </trkpt>
      <trkpt lat="44.89883" lon="0.8005">
        <ele>169.5</ele>
        <time>2022-08-11T10:21:47Z</time>
      </trkpt>
      <trkpt lat="44.89879" lon="0.80057">
        <ele>169.5</ele>
        <time>2022-08-11T10:21:48Z</time>
      </trkpt>
      <trkpt lat="44.89875" lon="0.80063">
        <ele>169.5</ele>
        <time>2022-08-11T10:21:49Z</time>
      </trkpt>
      <trkpt lat="44.89872" lon="0.8007">
        <ele>169.5</ele>
        <time>2022-08-11T10:21:50Z</time>
      </trkpt>
      <trkpt lat="44.89869" lon="0.80075">
        <ele>169.5</ele>
        <time>2022-08-11T10:21:51Z</time>
      </trkpt>
      <trkpt lat="44.89865" lon="0.8008">
        <ele>169.5</ele>
        <time>2022-08-11T10:21:52Z</time>
      </trkpt>
      <trkpt lat="44.89862" lon="0.80085">
        <ele>169.5</ele>
        <time>2022-08-11T10:21:53Z</time>
      </trkpt>
      <trkpt lat="44.89858" lon="0.8009">
        <ele>169.5</ele>
        <time>2022-08-11T10:21:54Z</time>
      </trkpt>
      <trkpt lat="44.89855" lon="0.80095">
        <ele>169.5</ele>
        <time>2022-08-11T10:21:55Z</time>
      </trkpt>
      <trkpt lat="44.89851" lon="0.80101">
        <ele>168.5</ele>
        <time>2022-08-11T10:21:56Z</time>
      </trkpt>
      <trkpt lat="44.89848" lon="0.80107">
        <ele>167.5</ele>
        <time>2022-08-11T10:21:57Z</time>
      </trkpt>
      <trkpt lat="44.89844" lon="0.80112">
        <ele>167.5</ele>
        <time>2022-08-11T10:21:58Z</time>
      </trkpt>
      <trkpt lat="44.8984" lon="0.80118">
        <ele>166.5</ele>
        <time>2022-08-11T10:21:59Z</time>
      </trkpt>
      <trkpt lat="44.89837" lon="0.80123">
        <ele>165.5</ele>
        <time>2022-08-11T10:22:00Z</time>
      </trkpt>
      <trkpt lat="44.89834" lon="0.80129">
        <ele>164.5</ele>
        <time>2022-08-11T10:22:01Z</time>
      </trkpt>
      <trkpt lat="44.8983" lon="0.80136">
        <ele>164.5</ele>
        <time>2022-08-11T10:22:02Z</time>
      </trkpt>
      <trkpt lat="44.89826" lon="0.80142">
        <ele>164.5</ele>
        <time>2022-08-11T10:22:03Z</time>
      </trkpt>
      <trkpt lat="44.89823" lon="0.80147">
        <ele>163.5</ele>
        <time>2022-08-11T10:22:04Z</time>
      </trkpt>
      <trkpt lat="44.89819" lon="0.80153">
        <ele>163.5</ele>
        <time>2022-08-11T10:22:05Z</time>
      </trkpt>
      <trkpt lat="44.89816" lon="0.80158">
        <ele>162.5</ele>
        <time>2022-08-11T10:22:06Z</time>
      </trkpt>
      <trkpt lat="44.89812" lon="0.80164">
        <ele>162.5</ele>
        <time>2022-08-11T10:22:07Z</time>
      </trkpt>
      <trkpt lat="44.89809" lon="0.8017">
        <ele>162.5</ele>
        <time>2022-08-11T10:22:08Z</time>
      </trkpt>
      <trkpt lat="44.89806" lon="0.80176">
        <ele>161.5</ele>
        <time>2022-08-11T10:22:09Z</time>
      </trkpt>
      <trkpt lat="44.89804" lon="0.80182">
        <ele>161.5</ele>
        <time>2022-08-11T10:22:10Z</time>
      </trkpt>
      <trkpt lat="44.89801" lon="0.80189">
        <ele>161.5</ele>
        <time>2022-08-11T10:22:11Z</time>
      </trkpt>
      <trkpt lat="44.89798" lon="0.80195">
        <ele>161.5</ele>
        <time>2022-08-11T10:22:12Z</time>
      </trkpt>
      <trkpt lat="44.89797" lon="0.80201">
        <ele>160.5</ele>
        <time>2022-08-11T10:22:13Z</time>
      </trkpt>
      <trkpt lat="44.89795" lon="0.80208">
        <ele>160.5</ele>
        <time>2022-08-11T10:22:14Z</time>
      </trkpt>
      <trkpt lat="44.89793" lon="0.80215">
        <ele>160.5</ele>
        <time>2022-08-11T10:22:15Z</time>
      </trkpt>
      <trkpt lat="44.89791" lon="0.80222">
        <ele>160.5</ele>
        <time>2022-08-11T10:22:16Z</time>
      </trkpt>
      <trkpt lat="44.8979" lon="0.80229">
        <ele>159.5</ele>
        <time>2022-08-11T10:22:17Z</time>
      </trkpt>
      <trkpt lat="44.89788" lon="0.80237">
        <ele>158.5</ele>
        <time>2022-08-11T10:22:18Z</time>
      </trkpt>
      <trkpt lat="44.89787" lon="0.80246">
        <ele>158.5</ele>
        <time>2022-08-11T10:22:19Z</time>
      </trkpt>
      <trkpt lat="44.89786" lon="0.80255">
        <ele>158.5</ele>
        <time>2022-08-11T10:22:20Z</time>
      </trkpt>
      <trkpt lat="44.89785" lon="0.80265">
        <ele>157.5</ele>
        <time>2022-08-11T10:22:21Z</time>
      </trkpt>
      <trkpt lat="44.89784" lon="0.80275">
        <ele>157.5</ele>
        <time>2022-08-11T10:22:22Z</time>
      </trkpt>
      <trkpt lat="44.89783" lon="0.80284">
        <ele>157.5</ele>
        <time>2022-08-11T10:22:23Z</time>
      </trkpt>
      <trkpt lat="44.89783" lon="0.80293">
        <ele>156.5</ele>
        <time>2022-08-11T10:22:24Z</time>
      </trkpt>
      <trkpt lat="44.89783" lon="0.80303">
        <ele>156.5</ele>
        <time>2022-08-11T10:22:25Z</time>
      </trkpt>
      <trkpt lat="44.89784" lon="0.80312">
        <ele>155.5</ele>
        <time>2022-08-11T10:22:26Z</time>
      </trkpt>
      <trkpt lat="44.89784" lon="0.80321">
        <ele>155.5</ele>
        <time>2022-08-11T10:22:27Z</time>
      </trkpt>
      <trkpt lat="44.89785" lon="0.8033">
        <ele>154.5</ele>
        <time>2022-08-11T10:22:29Z</time>
      </trkpt>
      <trkpt lat="44.89785" lon="0.80338">
        <ele>154.5</ele>
        <time>2022-08-11T10:22:32Z</time>
      </trkpt>
      <trkpt lat="44.89785" lon="0.80345">
        <ele>154.5</ele>
        <time>2022-08-11T10:22:35Z</time>
      </trkpt>
      <trkpt lat="44.89787" lon="0.80351">
        <ele>153.5</ele>
        <time>2022-08-11T10:23:51Z</time>
      </trkpt>
      <trkpt lat="44.89787" lon="0.8036">
        <ele>152.5</ele>
        <time>2022-08-11T10:23:54Z</time>
      </trkpt>
      <trkpt lat="44.89786" lon="0.8037">
        <ele>152.5</ele>
        <time>2022-08-11T10:23:56Z</time>
      </trkpt>
      <trkpt lat="44.89784" lon="0.80382">
        <ele>153.5</ele>
        <time>2022-08-11T10:23:58Z</time>
      </trkpt>
      <trkpt lat="44.89783" lon="0.80388">
        <ele>153.5</ele>
        <time>2022-08-11T10:23:59Z</time>
      </trkpt>
      <trkpt lat="44.89782" lon="0.80395">
        <ele>153.5</ele>
        <time>2022-08-11T10:24:00Z</time>
      </trkpt>
      <trkpt lat="44.89781" lon="0.80403">
        <ele>154.5</ele>
        <time>2022-08-11T10:24:01Z</time>
      </trkpt>
      <trkpt lat="44.8978" lon="0.8041">
        <ele>155.5</ele>
        <time>2022-08-11T10:24:02Z</time>
      </trkpt>
      <trkpt lat="44.89779" lon="0.80418">
        <ele>155.5</ele>
        <time>2022-08-11T10:24:03Z</time>
      </trkpt>
      <trkpt lat="44.89778" lon="0.80424">
        <ele>154.5</ele>
        <time>2022-08-11T10:24:04Z</time>
      </trkpt>
      <trkpt lat="44.89777" lon="0.80431">
        <ele>154.5</ele>
        <time>2022-08-11T10:24:05Z</time>
      </trkpt>
      <trkpt lat="44.89776" lon="0.80437">
        <ele>154.5</ele>
        <time>2022-08-11T10:24:06Z</time>
      </trkpt>
      <trkpt lat="44.89775" lon="0.80444">
        <ele>154.5</ele>
        <time>2022-08-11T10:24:07Z</time>
      </trkpt>
      <trkpt lat="44.89774" lon="0.80456">
        <ele>154.5</ele>
        <time>2022-08-11T10:24:09Z</time>
      </trkpt>
      <trkpt lat="44.89772" lon="0.80463">
        <ele>154.5</ele>
        <time>2022-08-11T10:24:10Z</time>
      </trkpt>
      <trkpt lat="44.89771" lon="0.8047">
        <ele>154.5</ele>
        <time>2022-08-11T10:24:11Z</time>
      </trkpt>
      <trkpt lat="44.8977" lon="0.80477">
        <ele>155.5</ele>
        <time>2022-08-11T10:24:12Z</time>
      </trkpt>
      <trkpt lat="44.89768" lon="0.80484">
        <ele>155.5</ele>
        <time>2022-08-11T10:24:13Z</time>
      </trkpt>
      <trkpt lat="44.89767" lon="0.80491">
        <ele>155.5</ele>
        <time>2022-08-11T10:24:14Z</time>
      </trkpt>
      <trkpt lat="44.89766" lon="0.80498">
        <ele>155.5</ele>
        <time>2022-08-11T10:24:15Z</time>
      </trkpt>
      <trkpt lat="44.89765" lon="0.80505">
        <ele>155.5</ele>
        <time>2022-08-11T10:24:16Z</time>
      </trkpt>
      <trkpt lat="44.89763" lon="0.80513">
        <ele>155.5</ele>
        <time>2022-08-11T10:24:17Z</time>
      </trkpt>
      <trkpt lat="44.89762" lon="0.8052">
        <ele>154.5</ele>
        <time>2022-08-11T10:24:18Z</time>
      </trkpt>
      <trkpt lat="44.8976" lon="0.80526">
        <ele>154.5</ele>
        <time>2022-08-11T10:24:19Z</time>
      </trkpt>
      <trkpt lat="44.89758" lon="0.80532">
        <ele>154.5</ele>
        <time>2022-08-11T10:24:20Z</time>
      </trkpt>
      <trkpt lat="44.89753" lon="0.80542">
        <ele>154.5</ele>
        <time>2022-08-11T10:24:22Z</time>
      </trkpt>
      <trkpt lat="44.89747" lon="0.80552">
        <ele>154.5</ele>
        <time>2022-08-11T10:24:24Z</time>
      </trkpt>
      <trkpt lat="44.89744" lon="0.80557">
        <ele>154.5</ele>
        <time>2022-08-11T10:24:25Z</time>
      </trkpt>
      <trkpt lat="44.8974" lon="0.80562">
        <ele>154.5</ele>
        <time>2022-08-11T10:24:26Z</time>
      </trkpt>
      <trkpt lat="44.89737" lon="0.80567">
        <ele>154.5</ele>
        <time>2022-08-11T10:24:27Z</time>
      </trkpt>
      <trkpt lat="44.89733" lon="0.80572">
        <ele>154.5</ele>
        <time>2022-08-11T10:24:28Z</time>
      </trkpt>
      <trkpt lat="44.89729" lon="0.80577">
        <ele>154.5</ele>
        <time>2022-08-11T10:24:29Z</time>
      </trkpt>
      <trkpt lat="44.89725" lon="0.80582">
        <ele>154.5</ele>
        <time>2022-08-11T10:24:30Z</time>
      </trkpt>
      <trkpt lat="44.89721" lon="0.80587">
        <ele>154.5</ele>
        <time>2022-08-11T10:24:31Z</time>
      </trkpt>
      <trkpt lat="44.89718" lon="0.80592">
        <ele>155.5</ele>
        <time>2022-08-11T10:24:32Z</time>
      </trkpt>
      <trkpt lat="44.89714" lon="0.80598">
        <ele>154.5</ele>
        <time>2022-08-11T10:24:33Z</time>
      </trkpt>
      <trkpt lat="44.8971" lon="0.80603">
        <ele>154.5</ele>
        <time>2022-08-11T10:24:34Z</time>
      </trkpt>
      <trkpt lat="44.89707" lon="0.80608">
        <ele>154.5</ele>
        <time>2022-08-11T10:24:35Z</time>
      </trkpt>
      <trkpt lat="44.89702" lon="0.80617">
        <ele>153.5</ele>
        <time>2022-08-11T10:24:37Z</time>
      </trkpt>
      <trkpt lat="44.89704" lon="0.80624">
        <ele>152.5</ele>
        <time>2022-08-11T10:24:39Z</time>
      </trkpt>
      <trkpt lat="44.89707" lon="0.80632">
        <ele>152.5</ele>
        <time>2022-08-11T10:24:41Z</time>
      </trkpt>
      <trkpt lat="44.89711" lon="0.80639">
        <ele>151.5</ele>
        <time>2022-08-11T10:24:43Z</time>
      </trkpt>
      <trkpt lat="44.89713" lon="0.80648">
        <ele>151.5</ele>
        <time>2022-08-11T10:24:45Z</time>
      </trkpt>
      <trkpt lat="44.89716" lon="0.80659">
        <ele>150.5</ele>
        <time>2022-08-11T10:24:47Z</time>
      </trkpt>
      <trkpt lat="44.89718" lon="0.80665">
        <ele>150.5</ele>
        <time>2022-08-11T10:24:48Z</time>
      </trkpt>
      <trkpt lat="44.8972" lon="0.80672">
        <ele>149.5</ele>
        <time>2022-08-11T10:24:49Z</time>
      </trkpt>
      <trkpt lat="44.89723" lon="0.80678">
        <ele>149.5</ele>
        <time>2022-08-11T10:24:50Z</time>
      </trkpt>
      <trkpt lat="44.89725" lon="0.80685">
        <ele>148.5</ele>
        <time>2022-08-11T10:24:51Z</time>
      </trkpt>
      <trkpt lat="44.89728" lon="0.80692">
        <ele>147.5</ele>
        <time>2022-08-11T10:24:52Z</time>
      </trkpt>
      <trkpt lat="44.89731" lon="0.80699">
        <ele>147.5</ele>
        <time>2022-08-11T10:24:53Z</time>
      </trkpt>
      <trkpt lat="44.89734" lon="0.80707">
        <ele>146.5</ele>
        <time>2022-08-11T10:24:54Z</time>
      </trkpt>
      <trkpt lat="44.89736" lon="0.80714">
        <ele>146.5</ele>
        <time>2022-08-11T10:24:55Z</time>
      </trkpt>
      <trkpt lat="44.89738" lon="0.8072">
        <ele>146.5</ele>
        <time>2022-08-11T10:24:56Z</time>
      </trkpt>
      <trkpt lat="44.8974" lon="0.80727">
        <ele>146.5</ele>
        <time>2022-08-11T10:24:57Z</time>
      </trkpt>
      <trkpt lat="44.89742" lon="0.80733">
        <ele>147.5</ele>
        <time>2022-08-11T10:24:58Z</time>
      </trkpt>
      <trkpt lat="44.89744" lon="0.8074">
        <ele>148.5</ele>
        <time>2022-08-11T10:24:59Z</time>
      </trkpt>
      <trkpt lat="44.89747" lon="0.80747">
        <ele>148.5</ele>
        <time>2022-08-11T10:25:00Z</time>
      </trkpt>
      <trkpt lat="44.89749" lon="0.80753">
        <ele>148.5</ele>
        <time>2022-08-11T10:25:01Z</time>
      </trkpt>
      <trkpt lat="44.89751" lon="0.80759">
        <ele>148.5</ele>
        <time>2022-08-11T10:25:02Z</time>
      </trkpt>
      <trkpt lat="44.89756" lon="0.80771">
        <ele>148.5</ele>
        <time>2022-08-11T10:25:04Z</time>
      </trkpt>
      <trkpt lat="44.89759" lon="0.80777">
        <ele>148.5</ele>
        <time>2022-08-11T10:25:05Z</time>
      </trkpt>
      <trkpt lat="44.89762" lon="0.80782">
        <ele>148.5</ele>
        <time>2022-08-11T10:25:06Z</time>
      </trkpt>
      <trkpt lat="44.89765" lon="0.80787">
        <ele>148.5</ele>
        <time>2022-08-11T10:25:07Z</time>
      </trkpt>
      <trkpt lat="44.89771" lon="0.80795">
        <ele>147.5</ele>
        <time>2022-08-11T10:25:09Z</time>
      </trkpt>
      <trkpt lat="44.89775" lon="0.80803">
        <ele>147.5</ele>
        <time>2022-08-11T10:25:11Z</time>
      </trkpt>
      <trkpt lat="44.89779" lon="0.80812">
        <ele>146.5</ele>
        <time>2022-08-11T10:25:13Z</time>
      </trkpt>
      <trkpt lat="44.89783" lon="0.80823">
        <ele>146.5</ele>
        <time>2022-08-11T10:25:15Z</time>
      </trkpt>
      <trkpt lat="44.89785" lon="0.8083">
        <ele>145.5</ele>
        <time>2022-08-11T10:25:16Z</time>
      </trkpt>
      <trkpt lat="44.89789" lon="0.80839">
        <ele>144.5</ele>
        <time>2022-08-11T10:25:18Z</time>
      </trkpt>
      <trkpt lat="44.89792" lon="0.80846">
        <ele>143.5</ele>
        <time>2022-08-11T10:25:21Z</time>
      </trkpt>
      <trkpt lat="44.89792" lon="0.80853">
        <ele>142.5</ele>
        <time>2022-08-11T10:25:24Z</time>
      </trkpt>
      <trkpt lat="44.89792" lon="0.8086">
        <ele>142.5</ele>
        <time>2022-08-11T10:25:44Z</time>
      </trkpt>
      <trkpt lat="44.89792" lon="0.80868">
        <ele>142.5</ele>
        <time>2022-08-11T10:25:46Z</time>
      </trkpt>
      <trkpt lat="44.89793" lon="0.80881">
        <ele>143.5</ele>
        <time>2022-08-11T10:25:48Z</time>
      </trkpt>
      <trkpt lat="44.89794" lon="0.80889">
        <ele>143.5</ele>
        <time>2022-08-11T10:25:49Z</time>
      </trkpt>
      <trkpt lat="44.89796" lon="0.809">
        <ele>143.5</ele>
        <time>2022-08-11T10:25:51Z</time>
      </trkpt>
      <trkpt lat="44.89795" lon="0.80912">
        <ele>141.5</ele>
        <time>2022-08-11T10:25:53Z</time>
      </trkpt>
      <trkpt lat="44.89793" lon="0.80918">
        <ele>140.5</ele>
        <time>2022-08-11T10:25:54Z</time>
      </trkpt>
      <trkpt lat="44.8979" lon="0.80923">
        <ele>140.5</ele>
        <time>2022-08-11T10:25:55Z</time>
      </trkpt>
      <trkpt lat="44.89786" lon="0.80927">
        <ele>140.5</ele>
        <time>2022-08-11T10:25:56Z</time>
      </trkpt>
      <trkpt lat="44.89779" lon="0.80931">
        <ele>139.5</ele>
        <time>2022-08-11T10:25:58Z</time>
      </trkpt>
      <trkpt lat="44.89775" lon="0.80938">
        <ele>139.5</ele>
        <time>2022-08-11T10:26:00Z</time>
      </trkpt>
      <trkpt lat="44.89771" lon="0.80948">
        <ele>138.5</ele>
        <time>2022-08-11T10:26:02Z</time>
      </trkpt>
      <trkpt lat="44.89768" lon="0.80954">
        <ele>138.5</ele>
        <time>2022-08-11T10:26:03Z</time>
      </trkpt>
      <trkpt lat="44.89763" lon="0.80962">
        <ele>137.5</ele>
        <time>2022-08-11T10:26:05Z</time>
      </trkpt>
      <trkpt lat="44.89759" lon="0.8097">
        <ele>137.5</ele>
        <time>2022-08-11T10:26:07Z</time>
      </trkpt>
      <trkpt lat="44.89753" lon="0.80979">
        <ele>136.5</ele>
        <time>2022-08-11T10:26:09Z</time>
      </trkpt>
      <trkpt lat="44.89749" lon="0.80984">
        <ele>136.5</ele>
        <time>2022-08-11T10:26:10Z</time>
      </trkpt>
      <trkpt lat="44.89746" lon="0.80991">
        <ele>137.5</ele>
        <time>2022-08-11T10:26:11Z</time>
      </trkpt>
      <trkpt lat="44.89742" lon="0.80998">
        <ele>137.5</ele>
        <time>2022-08-11T10:26:12Z</time>
      </trkpt>
      <trkpt lat="44.89738" lon="0.81006">
        <ele>138.5</ele>
        <time>2022-08-11T10:26:13Z</time>
      </trkpt>
      <trkpt lat="44.89734" lon="0.81013">
        <ele>138.5</ele>
        <time>2022-08-11T10:26:14Z</time>
      </trkpt>
      <trkpt lat="44.89731" lon="0.81019">
        <ele>138.5</ele>
        <time>2022-08-11T10:26:15Z</time>
      </trkpt>
      <trkpt lat="44.89726" lon="0.81024">
        <ele>139.5</ele>
        <time>2022-08-11T10:26:16Z</time>
      </trkpt>
      <trkpt lat="44.89722" lon="0.81027">
        <ele>138.5</ele>
        <time>2022-08-11T10:26:17Z</time>
      </trkpt>
      <trkpt lat="44.89715" lon="0.81033">
        <ele>138.5</ele>
        <time>2022-08-11T10:26:19Z</time>
      </trkpt>
      <trkpt lat="44.89712" lon="0.81038">
        <ele>138.5</ele>
        <time>2022-08-11T10:26:20Z</time>
      </trkpt>
      <trkpt lat="44.89709" lon="0.81045">
        <ele>138.5</ele>
        <time>2022-08-11T10:26:21Z</time>
      </trkpt>
      <trkpt lat="44.89708" lon="0.81053">
        <ele>138.5</ele>
        <time>2022-08-11T10:26:22Z</time>
      </trkpt>
      <trkpt lat="44.89707" lon="0.81061">
        <ele>137.5</ele>
        <time>2022-08-11T10:26:23Z</time>
      </trkpt>
      <trkpt lat="44.89706" lon="0.81067">
        <ele>137.5</ele>
        <time>2022-08-11T10:26:24Z</time>
      </trkpt>
      <trkpt lat="44.89705" lon="0.81078">
        <ele>136.5</ele>
        <time>2022-08-11T10:26:26Z</time>
      </trkpt>
      <trkpt lat="44.89705" lon="0.81089">
        <ele>135.5</ele>
        <time>2022-08-11T10:26:28Z</time>
      </trkpt>
      <trkpt lat="44.89705" lon="0.81101">
        <ele>135.5</ele>
        <time>2022-08-11T10:26:30Z</time>
      </trkpt>
      <trkpt lat="44.89707" lon="0.81111">
        <ele>134.5</ele>
        <time>2022-08-11T10:26:32Z</time>
      </trkpt>
      <trkpt lat="44.89709" lon="0.81119">
        <ele>134.5</ele>
        <time>2022-08-11T10:26:34Z</time>
      </trkpt>
      <trkpt lat="44.89711" lon="0.81127">
        <ele>134.5</ele>
        <time>2022-08-11T10:26:36Z</time>
      </trkpt>
      <trkpt lat="44.89711" lon="0.81134">
        <ele>134.5</ele>
        <time>2022-08-11T10:26:37Z</time>
      </trkpt>
      <trkpt lat="44.89711" lon="0.81142">
        <ele>133.5</ele>
        <time>2022-08-11T10:26:38Z</time>
      </trkpt>
      <trkpt lat="44.89711" lon="0.8115">
        <ele>133.5</ele>
        <time>2022-08-11T10:26:39Z</time>
      </trkpt>
      <trkpt lat="44.89711" lon="0.81157">
        <ele>133.5</ele>
        <time>2022-08-11T10:26:40Z</time>
      </trkpt>
      <trkpt lat="44.89711" lon="0.81165">
        <ele>132.5</ele>
        <time>2022-08-11T10:26:41Z</time>
      </trkpt>
      <trkpt lat="44.89711" lon="0.81172">
        <ele>131.5</ele>
        <time>2022-08-11T10:26:42Z</time>
      </trkpt>
      <trkpt lat="44.89712" lon="0.81178">
        <ele>131.5</ele>
        <time>2022-08-11T10:26:43Z</time>
      </trkpt>
      <trkpt lat="44.89715" lon="0.81189">
        <ele>131.5</ele>
        <time>2022-08-11T10:26:45Z</time>
      </trkpt>
      <trkpt lat="44.89719" lon="0.81198">
        <ele>130.5</ele>
        <time>2022-08-11T10:26:47Z</time>
      </trkpt>
      <trkpt lat="44.89721" lon="0.81205">
        <ele>129.5</ele>
        <time>2022-08-11T10:26:49Z</time>
      </trkpt>
      <trkpt lat="44.89722" lon="0.81214">
        <ele>128.5</ele>
        <time>2022-08-11T10:26:51Z</time>
      </trkpt>
      <trkpt lat="44.89724" lon="0.81225">
        <ele>128.5</ele>
        <time>2022-08-11T10:26:53Z</time>
      </trkpt>
      <trkpt lat="44.89725" lon="0.81234">
        <ele>127.5</ele>
        <time>2022-08-11T10:26:55Z</time>
      </trkpt>
      <trkpt lat="44.89726" lon="0.81244">
        <ele>126.5</ele>
        <time>2022-08-11T10:26:57Z</time>
      </trkpt>
      <trkpt lat="44.89728" lon="0.81253">
        <ele>125.5</ele>
        <time>2022-08-11T10:26:59Z</time>
      </trkpt>
      <trkpt lat="44.89729" lon="0.81262">
        <ele>124.5</ele>
        <time>2022-08-11T10:27:01Z</time>
      </trkpt>
      <trkpt lat="44.89732" lon="0.81276">
        <ele>124.5</ele>
        <time>2022-08-11T10:27:03Z</time>
      </trkpt>
      <trkpt lat="44.89734" lon="0.81284">
        <ele>123.5</ele>
        <time>2022-08-11T10:27:04Z</time>
      </trkpt>
      <trkpt lat="44.89736" lon="0.81292">
        <ele>122.5</ele>
        <time>2022-08-11T10:27:05Z</time>
      </trkpt>
      <trkpt lat="44.89737" lon="0.813">
        <ele>121.5</ele>
        <time>2022-08-11T10:27:06Z</time>
      </trkpt>
      <trkpt lat="44.89736" lon="0.81307">
        <ele>120.5</ele>
        <time>2022-08-11T10:27:07Z</time>
      </trkpt>
      <trkpt lat="44.89735" lon="0.81315">
        <ele>120.5</ele>
        <time>2022-08-11T10:27:08Z</time>
      </trkpt>
      <trkpt lat="44.89732" lon="0.81322">
        <ele>120.5</ele>
        <time>2022-08-11T10:27:09Z</time>
      </trkpt>
      <trkpt lat="44.8973" lon="0.81329">
        <ele>119.5</ele>
        <time>2022-08-11T10:27:10Z</time>
      </trkpt>
      <trkpt lat="44.89728" lon="0.81338">
        <ele>118.5</ele>
        <time>2022-08-11T10:27:11Z</time>
      </trkpt>
      <trkpt lat="44.89727" lon="0.81345">
        <ele>118.5</ele>
        <time>2022-08-11T10:27:12Z</time>
      </trkpt>
      <trkpt lat="44.89725" lon="0.81351">
        <ele>117.5</ele>
        <time>2022-08-11T10:27:13Z</time>
      </trkpt>
      <trkpt lat="44.89722" lon="0.81357">
        <ele>117.5</ele>
        <time>2022-08-11T10:27:14Z</time>
      </trkpt>
      <trkpt lat="44.89719" lon="0.81362">
        <ele>116.5</ele>
        <time>2022-08-11T10:27:15Z</time>
      </trkpt>
      <trkpt lat="44.89713" lon="0.81372">
        <ele>114.5</ele>
        <time>2022-08-11T10:27:17Z</time>
      </trkpt>
      <trkpt lat="44.89709" lon="0.81375">
        <ele>114.5</ele>
        <time>2022-08-11T10:27:18Z</time>
      </trkpt>
      <trkpt lat="44.89706" lon="0.81379">
        <ele>113.5</ele>
        <time>2022-08-11T10:27:19Z</time>
      </trkpt>
      <trkpt lat="44.89702" lon="0.81383">
        <ele>113.5</ele>
        <time>2022-08-11T10:27:20Z</time>
      </trkpt>
      <trkpt lat="44.89698" lon="0.81387">
        <ele>112.5</ele>
        <time>2022-08-11T10:27:21Z</time>
      </trkpt>
      <trkpt lat="44.89692" lon="0.81396">
        <ele>111.5</ele>
        <time>2022-08-11T10:27:23Z</time>
      </trkpt>
      <trkpt lat="44.8969" lon="0.81404">
        <ele>111.5</ele>
        <time>2022-08-11T10:27:25Z</time>
      </trkpt>
      <trkpt lat="44.89692" lon="0.81414">
        <ele>111.5</ele>
        <time>2022-08-11T10:27:27Z</time>
      </trkpt>
      <trkpt lat="44.89696" lon="0.81422">
        <ele>110.5</ele>
        <time>2022-08-11T10:27:29Z</time>
      </trkpt>
      <trkpt lat="44.897" lon="0.81429">
        <ele>110.5</ele>
        <time>2022-08-11T10:27:31Z</time>
      </trkpt>
      <trkpt lat="44.89701" lon="0.81436">
        <ele>108.5</ele>
        <time>2022-08-11T10:27:33Z</time>
      </trkpt>
      <trkpt lat="44.897" lon="0.81443">
        <ele>108.5</ele>
        <time>2022-08-11T10:27:35Z</time>
      </trkpt>
      <trkpt lat="44.89695" lon="0.81451">
        <ele>107.5</ele>
        <time>2022-08-11T10:27:37Z</time>
      </trkpt>
      <trkpt lat="44.89689" lon="0.81461">
        <ele>106.5</ele>
        <time>2022-08-11T10:27:39Z</time>
      </trkpt>
      <trkpt lat="44.89686" lon="0.81469">
        <ele>105.5</ele>
        <time>2022-08-11T10:27:40Z</time>
      </trkpt>
      <trkpt lat="44.8968" lon="0.81477">
        <ele>105.5</ele>
        <time>2022-08-11T10:27:41Z</time>
      </trkpt>
      <trkpt lat="44.89674" lon="0.81483">
        <ele>105.5</ele>
        <time>2022-08-11T10:27:42Z</time>
      </trkpt>
      <trkpt lat="44.89669" lon="0.81488">
        <ele>104.5</ele>
        <time>2022-08-11T10:27:43Z</time>
      </trkpt>
      <trkpt lat="44.89666" lon="0.81494">
        <ele>105.5</ele>
        <time>2022-08-11T10:27:44Z</time>
      </trkpt>
      <trkpt lat="44.89662" lon="0.81503">
        <ele>104.5</ele>
        <time>2022-08-11T10:27:46Z</time>
      </trkpt>
      <trkpt lat="44.89661" lon="0.8151">
        <ele>102.5</ele>
        <time>2022-08-11T10:28:05Z</time>
      </trkpt>
      <trkpt lat="44.89658" lon="0.81516">
        <ele>101.5</ele>
        <time>2022-08-11T10:29:03Z</time>
      </trkpt>
      <trkpt lat="44.89655" lon="0.8152">
        <ele>100.5</ele>
        <time>2022-08-11T10:29:08Z</time>
      </trkpt>
      <trkpt lat="44.89652" lon="0.81526">
        <ele>99.5</ele>
        <time>2022-08-11T10:29:14Z</time>
      </trkpt>
      <trkpt lat="44.8965" lon="0.81532">
        <ele>98.5</ele>
        <time>2022-08-11T10:29:20Z</time>
      </trkpt>
      <trkpt lat="44.89649" lon="0.81539">
        <ele>97.5</ele>
        <time>2022-08-11T10:29:58Z</time>
      </trkpt>
      <trkpt lat="44.89646" lon="0.81546">
        <ele>97.5</ele>
        <time>2022-08-11T10:30:05Z</time>
      </trkpt>
      <trkpt lat="44.89643" lon="0.8155">
        <ele>97.5</ele>
        <time>2022-08-11T10:30:11Z</time>
      </trkpt>
      <trkpt lat="44.8964" lon="0.81555">
        <ele>97.5</ele>
        <time>2022-08-11T10:30:16Z</time>
      </trkpt>
      <trkpt lat="44.89637" lon="0.8156">
        <ele>98.5</ele>
        <time>2022-08-11T10:30:21Z</time>
      </trkpt>
      <trkpt lat="44.89633" lon="0.81565">
        <ele>99.5</ele>
        <time>2022-08-11T10:30:27Z</time>
      </trkpt>
      <trkpt lat="44.89629" lon="0.81572">
        <ele>101.5</ele>
        <time>2022-08-11T10:30:33Z</time>
      </trkpt>
      <trkpt lat="44.89626" lon="0.81578">
        <ele>101.5</ele>
        <time>2022-08-11T10:30:39Z</time>
      </trkpt>
      <trkpt lat="44.89624" lon="0.81584">
        <ele>101.5</ele>
        <time>2022-08-11T10:30:43Z</time>
      </trkpt>
      <trkpt lat="44.89622" lon="0.8159">
        <ele>102.5</ele>
        <time>2022-08-11T10:30:49Z</time>
      </trkpt>
      <trkpt lat="44.89618" lon="0.81593">
        <ele>104.5</ele>
        <time>2022-08-11T10:30:58Z</time>
      </trkpt>
      <trkpt lat="44.89612" lon="0.81598">
        <ele>108.5</ele>
        <time>2022-08-11T10:31:04Z</time>
      </trkpt>
      <trkpt lat="44.89608" lon="0.81603">
        <ele>109.5</ele>
        <time>2022-08-11T10:31:07Z</time>
      </trkpt>
      <trkpt lat="44.89606" lon="0.81608">
        <ele>110.5</ele>
        <time>2022-08-11T10:31:12Z</time>
      </trkpt>
      <trkpt lat="44.89603" lon="0.81614">
        <ele>111.5</ele>
        <time>2022-08-11T10:31:18Z</time>
      </trkpt>
      <trkpt lat="44.89599" lon="0.81619">
        <ele>112.5</ele>
        <time>2022-08-11T10:31:24Z</time>
      </trkpt>
      <trkpt lat="44.89595" lon="0.81623">
        <ele>112.5</ele>
        <time>2022-08-11T10:31:29Z</time>
      </trkpt>
      <trkpt lat="44.89591" lon="0.81628">
        <ele>114.5</ele>
        <time>2022-08-11T10:31:37Z</time>
      </trkpt>
      <trkpt lat="44.89587" lon="0.81631">
        <ele>114.5</ele>
        <time>2022-08-11T10:31:42Z</time>
      </trkpt>
      <trkpt lat="44.89584" lon="0.81637">
        <ele>114.5</ele>
        <time>2022-08-11T10:31:45Z</time>
      </trkpt>
      <trkpt lat="44.8958" lon="0.81642">
        <ele>115.5</ele>
        <time>2022-08-11T10:31:49Z</time>
      </trkpt>
      <trkpt lat="44.89577" lon="0.81648">
        <ele>116.5</ele>
        <time>2022-08-11T10:31:55Z</time>
      </trkpt>
      <trkpt lat="44.89575" lon="0.81655">
        <ele>116.5</ele>
        <time>2022-08-11T10:32:02Z</time>
      </trkpt>
      <trkpt lat="44.89572" lon="0.8166">
        <ele>116.5</ele>
        <time>2022-08-11T10:32:05Z</time>
      </trkpt>
      <trkpt lat="44.89568" lon="0.81665">
        <ele>116.5</ele>
        <time>2022-08-11T10:32:08Z</time>
      </trkpt>
      <trkpt lat="44.89564" lon="0.81671">
        <ele>116.5</ele>
        <time>2022-08-11T10:32:11Z</time>
      </trkpt>
      <trkpt lat="44.89559" lon="0.81675">
        <ele>116.5</ele>
        <time>2022-08-11T10:32:14Z</time>
      </trkpt>
      <trkpt lat="44.89554" lon="0.81679">
        <ele>115.5</ele>
        <time>2022-08-11T10:32:17Z</time>
      </trkpt>
      <trkpt lat="44.89549" lon="0.81684">
        <ele>115.5</ele>
        <time>2022-08-11T10:32:20Z</time>
      </trkpt>
      <trkpt lat="44.89544" lon="0.8169">
        <ele>115.5</ele>
        <time>2022-08-11T10:32:23Z</time>
      </trkpt>
      <trkpt lat="44.8954" lon="0.81697">
        <ele>115.5</ele>
        <time>2022-08-11T10:32:26Z</time>
      </trkpt>
      <trkpt lat="44.89536" lon="0.81704">
        <ele>114.5</ele>
        <time>2022-08-11T10:32:28Z</time>
      </trkpt>
      <trkpt lat="44.89531" lon="0.81712">
        <ele>114.5</ele>
        <time>2022-08-11T10:32:30Z</time>
      </trkpt>
      <trkpt lat="44.89528" lon="0.81719">
        <ele>113.5</ele>
        <time>2022-08-11T10:32:32Z</time>
      </trkpt>
      <trkpt lat="44.89524" lon="0.81725">
        <ele>112.5</ele>
        <time>2022-08-11T10:32:34Z</time>
      </trkpt>
      <trkpt lat="44.89518" lon="0.81728">
        <ele>113.5</ele>
        <time>2022-08-11T10:32:36Z</time>
      </trkpt>
      <trkpt lat="44.8951" lon="0.81731">
        <ele>112.5</ele>
        <time>2022-08-11T10:32:38Z</time>
      </trkpt>
      <trkpt lat="44.89505" lon="0.81734">
        <ele>112.5</ele>
        <time>2022-08-11T10:32:39Z</time>
      </trkpt>
      <trkpt lat="44.89499" lon="0.81738">
        <ele>112.5</ele>
        <time>2022-08-11T10:32:40Z</time>
      </trkpt>
      <trkpt lat="44.89494" lon="0.81742">
        <ele>112.5</ele>
        <time>2022-08-11T10:32:41Z</time>
      </trkpt>
      <trkpt lat="44.89488" lon="0.81747">
        <ele>111.5</ele>
        <time>2022-08-11T10:32:42Z</time>
      </trkpt>
      <trkpt lat="44.89483" lon="0.81752">
        <ele>111.5</ele>
        <time>2022-08-11T10:32:43Z</time>
      </trkpt>
      <trkpt lat="44.89477" lon="0.81758">
        <ele>110.5</ele>
        <time>2022-08-11T10:32:44Z</time>
      </trkpt>
      <trkpt lat="44.89469" lon="0.81764">
        <ele>111.5</ele>
        <time>2022-08-11T10:32:45Z</time>
      </trkpt>
      <trkpt lat="44.89462" lon="0.8177">
        <ele>111.5</ele>
        <time>2022-08-11T10:32:46Z</time>
      </trkpt>
      <trkpt lat="44.89454" lon="0.81775">
        <ele>111.5</ele>
        <time>2022-08-11T10:32:47Z</time>
      </trkpt>
      <trkpt lat="44.89447" lon="0.81781">
        <ele>111.5</ele>
        <time>2022-08-11T10:32:48Z</time>
      </trkpt>
      <trkpt lat="44.89441" lon="0.81785">
        <ele>110.5</ele>
        <time>2022-08-11T10:32:49Z</time>
      </trkpt>
      <trkpt lat="44.89435" lon="0.81791">
        <ele>110.5</ele>
        <time>2022-08-11T10:32:50Z</time>
      </trkpt>
      <trkpt lat="44.89429" lon="0.81797">
        <ele>110.5</ele>
        <time>2022-08-11T10:32:51Z</time>
      </trkpt>
      <trkpt lat="44.89424" lon="0.81804">
        <ele>110.5</ele>
        <time>2022-08-11T10:32:52Z</time>
      </trkpt>
      <trkpt lat="44.89419" lon="0.81811">
        <ele>110.5</ele>
        <time>2022-08-11T10:32:53Z</time>
      </trkpt>
      <trkpt lat="44.89413" lon="0.81817">
        <ele>110.5</ele>
        <time>2022-08-11T10:32:54Z</time>
      </trkpt>
      <trkpt lat="44.89408" lon="0.81824">
        <ele>110.5</ele>
        <time>2022-08-11T10:32:55Z</time>
      </trkpt>
      <trkpt lat="44.89402" lon="0.8183">
        <ele>111.5</ele>
        <time>2022-08-11T10:32:56Z</time>
      </trkpt>
      <trkpt lat="44.89396" lon="0.81837">
        <ele>110.5</ele>
        <time>2022-08-11T10:32:57Z</time>
      </trkpt>
      <trkpt lat="44.89389" lon="0.81843">
        <ele>110.5</ele>
        <time>2022-08-11T10:32:58Z</time>
      </trkpt>
      <trkpt lat="44.89382" lon="0.81849">
        <ele>110.5</ele>
        <time>2022-08-11T10:32:59Z</time>
      </trkpt>
      <trkpt lat="44.89375" lon="0.81855">
        <ele>109.5</ele>
        <time>2022-08-11T10:33:00Z</time>
      </trkpt>
      <trkpt lat="44.89367" lon="0.81861">
        <ele>109.5</ele>
        <time>2022-08-11T10:33:01Z</time>
      </trkpt>
      <trkpt lat="44.89359" lon="0.81867">
        <ele>109.5</ele>
        <time>2022-08-11T10:33:02Z</time>
      </trkpt>
      <trkpt lat="44.89352" lon="0.81873">
        <ele>109.5</ele>
        <time>2022-08-11T10:33:03Z</time>
      </trkpt>
      <trkpt lat="44.89344" lon="0.8188">
        <ele>109.5</ele>
        <time>2022-08-11T10:33:04Z</time>
      </trkpt>
      <trkpt lat="44.89337" lon="0.81885">
        <ele>109.5</ele>
        <time>2022-08-11T10:33:05Z</time>
      </trkpt>
      <trkpt lat="44.8933" lon="0.81891">
        <ele>109.5</ele>
        <time>2022-08-11T10:33:06Z</time>
      </trkpt>
      <trkpt lat="44.89324" lon="0.81897">
        <ele>109.5</ele>
        <time>2022-08-11T10:33:07Z</time>
      </trkpt>
      <trkpt lat="44.89318" lon="0.81902">
        <ele>109.5</ele>
        <time>2022-08-11T10:33:08Z</time>
      </trkpt>
      <trkpt lat="44.89313" lon="0.81906">
        <ele>109.5</ele>
        <time>2022-08-11T10:33:09Z</time>
      </trkpt>
      <trkpt lat="44.89308" lon="0.81911">
        <ele>109.5</ele>
        <time>2022-08-11T10:33:10Z</time>
      </trkpt>
      <trkpt lat="44.89304" lon="0.81914">
        <ele>109.5</ele>
        <time>2022-08-11T10:33:11Z</time>
      </trkpt>
      <trkpt lat="44.89297" lon="0.81919">
        <ele>109.5</ele>
        <time>2022-08-11T10:33:13Z</time>
      </trkpt>
      <trkpt lat="44.89291" lon="0.81922">
        <ele>109.5</ele>
        <time>2022-08-11T10:33:15Z</time>
      </trkpt>
      <trkpt lat="44.89287" lon="0.81924">
        <ele>108.5</ele>
        <time>2022-08-11T10:33:17Z</time>
      </trkpt>
      <trkpt lat="44.8928" lon="0.81926">
        <ele>107.5</ele>
        <time>2022-08-11T10:33:20Z</time>
      </trkpt>
      <trkpt lat="44.89275" lon="0.8193">
        <ele>108.5</ele>
        <time>2022-08-11T10:33:23Z</time>
      </trkpt>
      <trkpt lat="44.89272" lon="0.81934">
        <ele>108.5</ele>
        <time>2022-08-11T10:33:26Z</time>
      </trkpt>
      <trkpt lat="44.89268" lon="0.81939">
        <ele>108.5</ele>
        <time>2022-08-11T10:33:30Z</time>
      </trkpt>
      <trkpt lat="44.89263" lon="0.81943">
        <ele>107.5</ele>
        <time>2022-08-11T10:33:33Z</time>
      </trkpt>
      <trkpt lat="44.89259" lon="0.81943">
        <ele>106.5</ele>
        <time>2022-08-11T10:33:36Z</time>
      </trkpt>
      <trkpt lat="44.89253" lon="0.81945">
        <ele>107.5</ele>
        <time>2022-08-11T10:33:40Z</time>
      </trkpt>
      <trkpt lat="44.89249" lon="0.81948">
        <ele>107.5</ele>
        <time>2022-08-11T10:33:43Z</time>
      </trkpt>
      <trkpt lat="44.89244" lon="0.81952">
        <ele>107.5</ele>
        <time>2022-08-11T10:33:47Z</time>
      </trkpt>
      <trkpt lat="44.89238" lon="0.81954">
        <ele>107.5</ele>
        <time>2022-08-11T10:33:50Z</time>
      </trkpt>
      <trkpt lat="44.89233" lon="0.81956">
        <ele>107.5</ele>
        <time>2022-08-11T10:33:53Z</time>
      </trkpt>
      <trkpt lat="44.89228" lon="0.81958">
        <ele>107.5</ele>
        <time>2022-08-11T10:33:56Z</time>
      </trkpt>
      <trkpt lat="44.89223" lon="0.8196">
        <ele>107.5</ele>
        <time>2022-08-11T10:33:59Z</time>
      </trkpt>
      <trkpt lat="44.89219" lon="0.81965">
        <ele>106.5</ele>
        <time>2022-08-11T10:34:03Z</time>
      </trkpt>
      <trkpt lat="44.89216" lon="0.8197">
        <ele>106.5</ele>
        <time>2022-08-11T10:34:08Z</time>
      </trkpt>
      <trkpt lat="44.89211" lon="0.81975">
        <ele>106.5</ele>
        <time>2022-08-11T10:34:11Z</time>
      </trkpt>
      <trkpt lat="44.89208" lon="0.81979">
        <ele>106.5</ele>
        <time>2022-08-11T10:34:14Z</time>
      </trkpt>
      <trkpt lat="44.89203" lon="0.81983">
        <ele>106.5</ele>
        <time>2022-08-11T10:34:18Z</time>
      </trkpt>
      <trkpt lat="44.892" lon="0.81988">
        <ele>106.5</ele>
        <time>2022-08-11T10:34:22Z</time>
      </trkpt>
      <trkpt lat="44.89196" lon="0.81994">
        <ele>106.5</ele>
        <time>2022-08-11T10:34:27Z</time>
      </trkpt>
      <trkpt lat="44.89191" lon="0.81998">
        <ele>107.5</ele>
        <time>2022-08-11T10:34:32Z</time>
      </trkpt>
      <trkpt lat="44.89187" lon="0.82001">
        <ele>108.5</ele>
        <time>2022-08-11T10:34:36Z</time>
      </trkpt>
      <trkpt lat="44.89182" lon="0.82004">
        <ele>108.5</ele>
        <time>2022-08-11T10:34:40Z</time>
      </trkpt>
      <trkpt lat="44.89176" lon="0.82008">
        <ele>110.5</ele>
        <time>2022-08-11T10:34:45Z</time>
      </trkpt>
      <trkpt lat="44.89171" lon="0.82011">
        <ele>112.5</ele>
        <time>2022-08-11T10:34:50Z</time>
      </trkpt>
      <trkpt lat="44.89167" lon="0.82014">
        <ele>113.5</ele>
        <time>2022-08-11T10:34:53Z</time>
      </trkpt>
      <trkpt lat="44.89161" lon="0.82015">
        <ele>111.5</ele>
        <time>2022-08-11T10:34:58Z</time>
      </trkpt>
      <trkpt lat="44.89156" lon="0.82017">
        <ele>113.5</ele>
        <time>2022-08-11T10:35:03Z</time>
      </trkpt>
      <trkpt lat="44.8915" lon="0.82019">
        <ele>114.5</ele>
        <time>2022-08-11T10:35:08Z</time>
      </trkpt>
      <trkpt lat="44.89146" lon="0.82022">
        <ele>113.5</ele>
        <time>2022-08-11T10:35:11Z</time>
      </trkpt>
      <trkpt lat="44.89141" lon="0.82026">
        <ele>115.5</ele>
        <time>2022-08-11T10:35:15Z</time>
      </trkpt>
      <trkpt lat="44.89137" lon="0.82029">
        <ele>114.5</ele>
        <time>2022-08-11T10:35:19Z</time>
      </trkpt>
      <trkpt lat="44.89132" lon="0.8203">
        <ele>114.5</ele>
        <time>2022-08-11T10:35:23Z</time>
      </trkpt>
      <trkpt lat="44.89128" lon="0.82034">
        <ele>115.5</ele>
        <time>2022-08-11T10:35:28Z</time>
      </trkpt>
      <trkpt lat="44.89124" lon="0.82037">
        <ele>116.5</ele>
        <time>2022-08-11T10:35:32Z</time>
      </trkpt>
      <trkpt lat="44.89119" lon="0.8204">
        <ele>115.5</ele>
        <time>2022-08-11T10:35:36Z</time>
      </trkpt>
      <trkpt lat="44.89113" lon="0.8204">
        <ele>117.5</ele>
        <time>2022-08-11T10:35:40Z</time>
      </trkpt>
      <trkpt lat="44.89108" lon="0.8204">
        <ele>118.5</ele>
        <time>2022-08-11T10:35:44Z</time>
      </trkpt>
      <trkpt lat="44.89103" lon="0.82039">
        <ele>119.5</ele>
        <time>2022-08-11T10:35:48Z</time>
      </trkpt>
      <trkpt lat="44.89097" lon="0.82036">
        <ele>119.5</ele>
        <time>2022-08-11T10:35:52Z</time>
      </trkpt>
      <trkpt lat="44.89093" lon="0.82034">
        <ele>119.5</ele>
        <time>2022-08-11T10:35:55Z</time>
      </trkpt>
      <trkpt lat="44.89088" lon="0.82033">
        <ele>118.5</ele>
        <time>2022-08-11T10:35:58Z</time>
      </trkpt>
      <trkpt lat="44.89083" lon="0.82035">
        <ele>119.5</ele>
        <time>2022-08-11T10:36:02Z</time>
      </trkpt>
      <trkpt lat="44.89078" lon="0.82036">
        <ele>119.5</ele>
        <time>2022-08-11T10:36:05Z</time>
      </trkpt>
      <trkpt lat="44.89073" lon="0.82038">
        <ele>120.5</ele>
        <time>2022-08-11T10:36:09Z</time>
      </trkpt>
      <trkpt lat="44.89069" lon="0.82039">
        <ele>122.5</ele>
        <time>2022-08-11T10:36:26Z</time>
      </trkpt>
      <trkpt lat="44.89062" lon="0.8204">
        <ele>122.5</ele>
        <time>2022-08-11T10:36:31Z</time>
      </trkpt>
      <trkpt lat="44.89057" lon="0.82041">
        <ele>123.5</ele>
        <time>2022-08-11T10:36:34Z</time>
      </trkpt>
      <trkpt lat="44.89052" lon="0.82041">
        <ele>123.5</ele>
        <time>2022-08-11T10:36:39Z</time>
      </trkpt>
      <trkpt lat="44.89047" lon="0.82041">
        <ele>122.5</ele>
        <time>2022-08-11T10:36:43Z</time>
      </trkpt>
      <trkpt lat="44.89042" lon="0.82042">
        <ele>122.5</ele>
        <time>2022-08-11T10:36:47Z</time>
      </trkpt>
      <trkpt lat="44.89037" lon="0.82045">
        <ele>123.5</ele>
        <time>2022-08-11T10:36:51Z</time>
      </trkpt>
      <trkpt lat="44.8903" lon="0.82047">
        <ele>123.5</ele>
        <time>2022-08-11T10:36:56Z</time>
      </trkpt>
      <trkpt lat="44.89024" lon="0.82048">
        <ele>124.5</ele>
        <time>2022-08-11T10:36:59Z</time>
      </trkpt>
      <trkpt lat="44.89019" lon="0.82049">
        <ele>123.5</ele>
        <time>2022-08-11T10:37:02Z</time>
      </trkpt>
      <trkpt lat="44.89013" lon="0.82051">
        <ele>123.5</ele>
        <time>2022-08-11T10:37:06Z</time>
      </trkpt>
      <trkpt lat="44.89009" lon="0.82054">
        <ele>123.5</ele>
        <time>2022-08-11T10:37:09Z</time>
      </trkpt>
      <trkpt lat="44.89003" lon="0.82056">
        <ele>123.5</ele>
        <time>2022-08-11T10:37:13Z</time>
      </trkpt>
      <trkpt lat="44.88998" lon="0.82057">
        <ele>124.5</ele>
        <time>2022-08-11T10:37:16Z</time>
      </trkpt>
      <trkpt lat="44.88993" lon="0.82059">
        <ele>123.5</ele>
        <time>2022-08-11T10:37:18Z</time>
      </trkpt>
      <trkpt lat="44.88988" lon="0.8206">
        <ele>123.5</ele>
        <time>2022-08-11T10:37:20Z</time>
      </trkpt>
      <trkpt lat="44.88983" lon="0.82062">
        <ele>122.5</ele>
        <time>2022-08-11T10:37:22Z</time>
      </trkpt>
      <trkpt lat="44.88978" lon="0.82065">
        <ele>121.5</ele>
        <time>2022-08-11T10:37:24Z</time>
      </trkpt>
      <trkpt lat="44.88972" lon="0.82069">
        <ele>121.5</ele>
        <time>2022-08-11T10:37:26Z</time>
      </trkpt>
      <trkpt lat="44.88966" lon="0.82073">
        <ele>121.5</ele>
        <time>2022-08-11T10:37:28Z</time>
      </trkpt>
      <trkpt lat="44.88959" lon="0.82078">
        <ele>121.5</ele>
        <time>2022-08-11T10:37:30Z</time>
      </trkpt>
      <trkpt lat="44.88953" lon="0.82082">
        <ele>120.5</ele>
        <time>2022-08-11T10:37:31Z</time>
      </trkpt>
      <trkpt lat="44.88947" lon="0.82087">
        <ele>120.5</ele>
        <time>2022-08-11T10:37:32Z</time>
      </trkpt>
      <trkpt lat="44.88941" lon="0.82093">
        <ele>120.5</ele>
        <time>2022-08-11T10:37:33Z</time>
      </trkpt>
      <trkpt lat="44.88934" lon="0.82098">
        <ele>120.5</ele>
        <time>2022-08-11T10:37:34Z</time>
      </trkpt>
      <trkpt lat="44.88927" lon="0.82102">
        <ele>121.5</ele>
        <time>2022-08-11T10:37:35Z</time>
      </trkpt>
      <trkpt lat="44.88919" lon="0.82107">
        <ele>121.5</ele>
        <time>2022-08-11T10:37:36Z</time>
      </trkpt>
      <trkpt lat="44.88913" lon="0.82113">
        <ele>122.5</ele>
        <time>2022-08-11T10:37:37Z</time>
      </trkpt>
      <trkpt lat="44.88908" lon="0.82117">
        <ele>122.5</ele>
        <time>2022-08-11T10:37:38Z</time>
      </trkpt>
      <trkpt lat="44.88904" lon="0.82121">
        <ele>122.5</ele>
        <time>2022-08-11T10:37:39Z</time>
      </trkpt>
      <trkpt lat="44.88899" lon="0.82126">
        <ele>123.5</ele>
        <time>2022-08-11T10:37:40Z</time>
      </trkpt>
      <trkpt lat="44.88894" lon="0.82131">
        <ele>124.5</ele>
        <time>2022-08-11T10:37:41Z</time>
      </trkpt>
      <trkpt lat="44.88889" lon="0.82135">
        <ele>125.5</ele>
        <time>2022-08-11T10:37:42Z</time>
      </trkpt>
      <trkpt lat="44.88883" lon="0.82139">
        <ele>125.5</ele>
        <time>2022-08-11T10:37:43Z</time>
      </trkpt>
      <trkpt lat="44.88878" lon="0.82142">
        <ele>126.5</ele>
        <time>2022-08-11T10:37:44Z</time>
      </trkpt>
      <trkpt lat="44.88873" lon="0.82144">
        <ele>126.5</ele>
        <time>2022-08-11T10:37:45Z</time>
      </trkpt>
      <trkpt lat="44.88869" lon="0.82147">
        <ele>125.5</ele>
        <time>2022-08-11T10:37:46Z</time>
      </trkpt>
      <trkpt lat="44.88865" lon="0.8215">
        <ele>125.5</ele>
        <time>2022-08-11T10:37:47Z</time>
      </trkpt>
      <trkpt lat="44.8886" lon="0.82154">
        <ele>124.5</ele>
        <time>2022-08-11T10:37:48Z</time>
      </trkpt>
      <trkpt lat="44.88857" lon="0.82159">
        <ele>124.5</ele>
        <time>2022-08-11T10:37:49Z</time>
      </trkpt>
      <trkpt lat="44.88853" lon="0.82164">
        <ele>123.5</ele>
        <time>2022-08-11T10:37:50Z</time>
      </trkpt>
      <trkpt lat="44.88849" lon="0.8217">
        <ele>123.5</ele>
        <time>2022-08-11T10:37:51Z</time>
      </trkpt>
      <trkpt lat="44.88845" lon="0.82176">
        <ele>122.5</ele>
        <time>2022-08-11T10:37:52Z</time>
      </trkpt>
      <trkpt lat="44.8884" lon="0.82182">
        <ele>122.5</ele>
        <time>2022-08-11T10:37:53Z</time>
      </trkpt>
      <trkpt lat="44.88835" lon="0.8219">
        <ele>122.5</ele>
        <time>2022-08-11T10:37:54Z</time>
      </trkpt>
      <trkpt lat="44.8883" lon="0.82197">
        <ele>122.5</ele>
        <time>2022-08-11T10:37:55Z</time>
      </trkpt>
      <trkpt lat="44.88825" lon="0.82204">
        <ele>122.5</ele>
        <time>2022-08-11T10:37:56Z</time>
      </trkpt>
      <trkpt lat="44.8882" lon="0.8221">
        <ele>121.5</ele>
        <time>2022-08-11T10:37:57Z</time>
      </trkpt>
      <trkpt lat="44.88815" lon="0.82217">
        <ele>121.5</ele>
        <time>2022-08-11T10:37:58Z</time>
      </trkpt>
      <trkpt lat="44.88809" lon="0.82223">
        <ele>121.5</ele>
        <time>2022-08-11T10:37:59Z</time>
      </trkpt>
      <trkpt lat="44.88804" lon="0.82229">
        <ele>120.5</ele>
        <time>2022-08-11T10:38:00Z</time>
      </trkpt>
      <trkpt lat="44.88799" lon="0.82236">
        <ele>120.5</ele>
        <time>2022-08-11T10:38:01Z</time>
      </trkpt>
      <trkpt lat="44.88794" lon="0.82241">
        <ele>120.5</ele>
        <time>2022-08-11T10:38:02Z</time>
      </trkpt>
      <trkpt lat="44.8879" lon="0.82247">
        <ele>120.5</ele>
        <time>2022-08-11T10:38:03Z</time>
      </trkpt>
      <trkpt lat="44.88786" lon="0.82253">
        <ele>119.5</ele>
        <time>2022-08-11T10:38:04Z</time>
      </trkpt>
      <trkpt lat="44.88782" lon="0.8226">
        <ele>120.5</ele>
        <time>2022-08-11T10:38:05Z</time>
      </trkpt>
      <trkpt lat="44.88779" lon="0.82266">
        <ele>120.5</ele>
        <time>2022-08-11T10:38:06Z</time>
      </trkpt>
      <trkpt lat="44.88775" lon="0.82272">
        <ele>120.5</ele>
        <time>2022-08-11T10:38:07Z</time>
      </trkpt>
      <trkpt lat="44.88771" lon="0.82278">
        <ele>120.5</ele>
        <time>2022-08-11T10:38:08Z</time>
      </trkpt>
      <trkpt lat="44.88768" lon="0.82283">
        <ele>121.5</ele>
        <time>2022-08-11T10:38:09Z</time>
      </trkpt>
      <trkpt lat="44.88762" lon="0.8229">
        <ele>122.5</ele>
        <time>2022-08-11T10:38:11Z</time>
      </trkpt>
      <trkpt lat="44.88756" lon="0.82298">
        <ele>121.5</ele>
        <time>2022-08-11T10:38:13Z</time>
      </trkpt>
      <trkpt lat="44.88752" lon="0.82305">
        <ele>121.5</ele>
        <time>2022-08-11T10:38:15Z</time>
      </trkpt>
      <trkpt lat="44.88749" lon="0.82311">
        <ele>121.5</ele>
        <time>2022-08-11T10:38:17Z</time>
      </trkpt>
      <trkpt lat="44.88746" lon="0.82318">
        <ele>120.5</ele>
        <time>2022-08-11T10:38:20Z</time>
      </trkpt>
      <trkpt lat="44.88745" lon="0.82324">
        <ele>119.5</ele>
        <time>2022-08-11T10:38:22Z</time>
      </trkpt>
      <trkpt lat="44.88743" lon="0.8233">
        <ele>119.5</ele>
        <time>2022-08-11T10:38:24Z</time>
      </trkpt>
      <trkpt lat="44.88741" lon="0.82337">
        <ele>118.5</ele>
        <time>2022-08-11T10:38:26Z</time>
      </trkpt>
      <trkpt lat="44.88738" lon="0.82345">
        <ele>118.5</ele>
        <time>2022-08-11T10:38:28Z</time>
      </trkpt>
      <trkpt lat="44.88735" lon="0.82353">
        <ele>118.5</ele>
        <time>2022-08-11T10:38:30Z</time>
      </trkpt>
      <trkpt lat="44.88733" lon="0.82359">
        <ele>117.5</ele>
        <time>2022-08-11T10:38:32Z</time>
      </trkpt>
      <trkpt lat="44.88734" lon="0.82353">
        <ele>120.5</ele>
        <time>2022-08-11T10:38:50Z</time>
      </trkpt>
      <trkpt lat="44.88729" lon="0.82351">
        <ele>119.5</ele>
        <time>2022-08-11T10:38:54Z</time>
      </trkpt>
      <trkpt lat="44.88723" lon="0.82353">
        <ele>119.5</ele>
        <time>2022-08-11T10:38:57Z</time>
      </trkpt>
      <trkpt lat="44.88718" lon="0.82356">
        <ele>119.5</ele>
        <time>2022-08-11T10:39:00Z</time>
      </trkpt>
      <trkpt lat="44.88721" lon="0.82352">
        <ele>119.5</ele>
        <time>2022-08-11T10:40:16Z</time>
      </trkpt>
      <trkpt lat="44.88726" lon="0.82348">
        <ele>120.5</ele>
        <time>2022-08-11T10:40:21Z</time>
      </trkpt>
      <trkpt lat="44.88732" lon="0.82349">
        <ele>122.5</ele>
        <time>2022-08-11T10:40:27Z</time>
      </trkpt>
      <trkpt lat="44.88734" lon="0.82355">
        <ele>122.5</ele>
        <time>2022-08-11T10:40:31Z</time>
      </trkpt>
      <trkpt lat="44.88733" lon="0.82362">
        <ele>120.5</ele>
        <time>2022-08-11T10:40:34Z</time>
      </trkpt>
      <trkpt lat="44.88732" lon="0.82369">
        <ele>119.5</ele>
        <time>2022-08-11T10:40:37Z</time>
      </trkpt>
      <trkpt lat="44.88731" lon="0.82376">
        <ele>119.5</ele>
        <time>2022-08-11T10:40:39Z</time>
      </trkpt>
      <trkpt lat="44.88729" lon="0.82382">
        <ele>118.5</ele>
        <time>2022-08-11T10:40:41Z</time>
      </trkpt>
      <trkpt lat="44.88728" lon="0.82388">
        <ele>117.5</ele>
        <time>2022-08-11T10:40:44Z</time>
      </trkpt>
      <trkpt lat="44.88726" lon="0.82395">
        <ele>117.5</ele>
        <time>2022-08-11T10:40:47Z</time>
      </trkpt>
      <trkpt lat="44.88725" lon="0.82402">
        <ele>117.5</ele>
        <time>2022-08-11T10:40:51Z</time>
      </trkpt>
      <trkpt lat="44.88724" lon="0.8241">
        <ele>117.5</ele>
        <time>2022-08-11T10:40:55Z</time>
      </trkpt>
      <trkpt lat="44.88722" lon="0.82416">
        <ele>117.5</ele>
        <time>2022-08-11T10:40:58Z</time>
      </trkpt>
      <trkpt lat="44.8872" lon="0.82424">
        <ele>118.5</ele>
        <time>2022-08-11T10:41:02Z</time>
      </trkpt>
      <trkpt lat="44.88718" lon="0.82432">
        <ele>118.5</ele>
        <time>2022-08-11T10:41:06Z</time>
      </trkpt>
      <trkpt lat="44.88716" lon="0.82439">
        <ele>118.5</ele>
        <time>2022-08-11T10:41:09Z</time>
      </trkpt>
      <trkpt lat="44.88715" lon="0.82447">
        <ele>119.5</ele>
        <time>2022-08-11T10:41:16Z</time>
      </trkpt>
      <trkpt lat="44.88714" lon="0.82453">
        <ele>119.5</ele>
        <time>2022-08-11T10:41:19Z</time>
      </trkpt>
      <trkpt lat="44.88713" lon="0.8246">
        <ele>119.5</ele>
        <time>2022-08-11T10:41:22Z</time>
      </trkpt>
      <trkpt lat="44.88711" lon="0.82466">
        <ele>118.5</ele>
        <time>2022-08-11T10:41:25Z</time>
      </trkpt>
      <trkpt lat="44.88709" lon="0.82473">
        <ele>119.5</ele>
        <time>2022-08-11T10:41:29Z</time>
      </trkpt>
      <trkpt lat="44.88707" lon="0.82481">
        <ele>119.5</ele>
        <time>2022-08-11T10:41:33Z</time>
      </trkpt>
      <trkpt lat="44.88705" lon="0.82487">
        <ele>120.5</ele>
        <time>2022-08-11T10:41:36Z</time>
      </trkpt>
      <trkpt lat="44.88701" lon="0.82493">
        <ele>120.5</ele>
        <time>2022-08-11T10:41:39Z</time>
      </trkpt>
      <trkpt lat="44.88698" lon="0.825">
        <ele>120.5</ele>
        <time>2022-08-11T10:41:43Z</time>
      </trkpt>
      <trkpt lat="44.88695" lon="0.82506">
        <ele>120.5</ele>
        <time>2022-08-11T10:41:45Z</time>
      </trkpt>
      <trkpt lat="44.88691" lon="0.82513">
        <ele>119.5</ele>
        <time>2022-08-11T10:41:47Z</time>
      </trkpt>
      <trkpt lat="44.88688" lon="0.8252">
        <ele>119.5</ele>
        <time>2022-08-11T10:41:49Z</time>
      </trkpt>
      <trkpt lat="44.88684" lon="0.82527">
        <ele>119.5</ele>
        <time>2022-08-11T10:41:51Z</time>
      </trkpt>
      <trkpt lat="44.8868" lon="0.82534">
        <ele>119.5</ele>
        <time>2022-08-11T10:41:53Z</time>
      </trkpt>
      <trkpt lat="44.88678" lon="0.82541">
        <ele>119.5</ele>
        <time>2022-08-11T10:41:55Z</time>
      </trkpt>
      <trkpt lat="44.88674" lon="0.82545">
        <ele>120.5</ele>
        <time>2022-08-11T10:41:57Z</time>
      </trkpt>
      <trkpt lat="44.88671" lon="0.82551">
        <ele>120.5</ele>
        <time>2022-08-11T10:42:04Z</time>
      </trkpt>
      <trkpt lat="44.88671" lon="0.82559">
        <ele>121.5</ele>
        <time>2022-08-11T10:42:30Z</time>
      </trkpt>
      <trkpt lat="44.88669" lon="0.82565">
        <ele>121.5</ele>
        <time>2022-08-11T10:42:32Z</time>
      </trkpt>
      <trkpt lat="44.88667" lon="0.82572">
        <ele>121.5</ele>
        <time>2022-08-11T10:42:34Z</time>
      </trkpt>
      <trkpt lat="44.88665" lon="0.82579">
        <ele>121.5</ele>
        <time>2022-08-11T10:42:36Z</time>
      </trkpt>
      <trkpt lat="44.88664" lon="0.82585">
        <ele>121.5</ele>
        <time>2022-08-11T10:42:38Z</time>
      </trkpt>
      <trkpt lat="44.88663" lon="0.82592">
        <ele>121.5</ele>
        <time>2022-08-11T10:42:40Z</time>
      </trkpt>
      <trkpt lat="44.88662" lon="0.82598">
        <ele>121.5</ele>
        <time>2022-08-11T10:42:42Z</time>
      </trkpt>
      <trkpt lat="44.88659" lon="0.82604">
        <ele>121.5</ele>
        <time>2022-08-11T10:42:44Z</time>
      </trkpt>
      <trkpt lat="44.88657" lon="0.82613">
        <ele>121.5</ele>
        <time>2022-08-11T10:42:47Z</time>
      </trkpt>
      <trkpt lat="44.88655" lon="0.82619">
        <ele>120.5</ele>
        <time>2022-08-11T10:42:49Z</time>
      </trkpt>
      <trkpt lat="44.88654" lon="0.82625">
        <ele>121.5</ele>
        <time>2022-08-11T10:42:51Z</time>
      </trkpt>
      <trkpt lat="44.88653" lon="0.82633">
        <ele>121.5</ele>
        <time>2022-08-11T10:42:54Z</time>
      </trkpt>
      <trkpt lat="44.88652" lon="0.82641">
        <ele>121.5</ele>
        <time>2022-08-11T10:42:57Z</time>
      </trkpt>
      <trkpt lat="44.88649" lon="0.82649">
        <ele>121.5</ele>
        <time>2022-08-11T10:43:00Z</time>
      </trkpt>
      <trkpt lat="44.88647" lon="0.82654">
        <ele>121.5</ele>
        <time>2022-08-11T10:43:02Z</time>
      </trkpt>
      <trkpt lat="44.88643" lon="0.82661">
        <ele>121.5</ele>
        <time>2022-08-11T10:43:05Z</time>
      </trkpt>
      <trkpt lat="44.88641" lon="0.82668">
        <ele>122.5</ele>
        <time>2022-08-11T10:43:08Z</time>
      </trkpt>
      <trkpt lat="44.88639" lon="0.82675">
        <ele>122.5</ele>
        <time>2022-08-11T10:43:11Z</time>
      </trkpt>
      <trkpt lat="44.88634" lon="0.82684">
        <ele>122.5</ele>
        <time>2022-08-11T10:43:16Z</time>
      </trkpt>
      <trkpt lat="44.88633" lon="0.82691">
        <ele>123.5</ele>
        <time>2022-08-11T10:43:19Z</time>
      </trkpt>
      <trkpt lat="44.8863" lon="0.82698">
        <ele>123.5</ele>
        <time>2022-08-11T10:43:25Z</time>
      </trkpt>
      <trkpt lat="44.88628" lon="0.82704">
        <ele>123.5</ele>
        <time>2022-08-11T10:43:28Z</time>
      </trkpt>
      <trkpt lat="44.88626" lon="0.82712">
        <ele>123.5</ele>
        <time>2022-08-11T10:43:31Z</time>
      </trkpt>
      <trkpt lat="44.88622" lon="0.82719">
        <ele>124.5</ele>
        <time>2022-08-11T10:43:34Z</time>
      </trkpt>
      <trkpt lat="44.88617" lon="0.82724">
        <ele>125.5</ele>
        <time>2022-08-11T10:43:37Z</time>
      </trkpt>
      <trkpt lat="44.88613" lon="0.82728">
        <ele>126.5</ele>
        <time>2022-08-11T10:43:40Z</time>
      </trkpt>
      <trkpt lat="44.88613" lon="0.82735">
        <ele>136.5</ele>
        <time>2022-08-11T10:44:19Z</time>
      </trkpt>
      <trkpt lat="44.88612" lon="0.82742">
        <ele>138.5</ele>
        <time>2022-08-11T10:44:33Z</time>
      </trkpt>
      <trkpt lat="44.8861" lon="0.82735">
        <ele>138.5</ele>
        <time>2022-08-11T10:44:44Z</time>
      </trkpt>
      <trkpt lat="44.88609" lon="0.82742">
        <ele>137.5</ele>
        <time>2022-08-11T10:45:30Z</time>
      </trkpt>
      <trkpt lat="44.88608" lon="0.82749">
        <ele>138.5</ele>
        <time>2022-08-11T10:45:35Z</time>
      </trkpt>
      <trkpt lat="44.88606" lon="0.82757">
        <ele>137.5</ele>
        <time>2022-08-11T10:45:39Z</time>
      </trkpt>
      <trkpt lat="44.88604" lon="0.82763">
        <ele>137.5</ele>
        <time>2022-08-11T10:45:41Z</time>
      </trkpt>
      <trkpt lat="44.88602" lon="0.82771">
        <ele>137.5</ele>
        <time>2022-08-11T10:45:43Z</time>
      </trkpt>
      <trkpt lat="44.88599" lon="0.82779">
        <ele>138.5</ele>
        <time>2022-08-11T10:45:45Z</time>
      </trkpt>
      <trkpt lat="44.88592" lon="0.8279">
        <ele>136.5</ele>
        <time>2022-08-11T10:45:47Z</time>
      </trkpt>
      <trkpt lat="44.88587" lon="0.82795">
        <ele>134.5</ele>
        <time>2022-08-11T10:45:48Z</time>
      </trkpt>
      <trkpt lat="44.88582" lon="0.82802">
        <ele>133.5</ele>
        <time>2022-08-11T10:45:49Z</time>
      </trkpt>
      <trkpt lat="44.88577" lon="0.82809">
        <ele>132.5</ele>
        <time>2022-08-11T10:45:50Z</time>
      </trkpt>
      <trkpt lat="44.88572" lon="0.82816">
        <ele>131.5</ele>
        <time>2022-08-11T10:45:51Z</time>
      </trkpt>
      <trkpt lat="44.88568" lon="0.82823">
        <ele>131.5</ele>
        <time>2022-08-11T10:45:52Z</time>
      </trkpt>
      <trkpt lat="44.88563" lon="0.82831">
        <ele>131.5</ele>
        <time>2022-08-11T10:45:53Z</time>
      </trkpt>
      <trkpt lat="44.88559" lon="0.82839">
        <ele>131.5</ele>
        <time>2022-08-11T10:45:54Z</time>
      </trkpt>
      <trkpt lat="44.88554" lon="0.82848">
        <ele>131.5</ele>
        <time>2022-08-11T10:45:55Z</time>
      </trkpt>
      <trkpt lat="44.8855" lon="0.82857">
        <ele>132.5</ele>
        <time>2022-08-11T10:45:56Z</time>
      </trkpt>
      <trkpt lat="44.88546" lon="0.82866">
        <ele>132.5</ele>
        <time>2022-08-11T10:45:57Z</time>
      </trkpt>
      <trkpt lat="44.88542" lon="0.82875">
        <ele>132.5</ele>
        <time>2022-08-11T10:45:58Z</time>
      </trkpt>
      <trkpt lat="44.88537" lon="0.82883">
        <ele>132.5</ele>
        <time>2022-08-11T10:45:59Z</time>
      </trkpt>
      <trkpt lat="44.88533" lon="0.8289">
        <ele>132.5</ele>
        <time>2022-08-11T10:46:00Z</time>
      </trkpt>
      <trkpt lat="44.88529" lon="0.82897">
        <ele>131.5</ele>
        <time>2022-08-11T10:46:01Z</time>
      </trkpt>
      <trkpt lat="44.88525" lon="0.82904">
        <ele>130.5</ele>
        <time>2022-08-11T10:46:02Z</time>
      </trkpt>
      <trkpt lat="44.88522" lon="0.82911">
        <ele>130.5</ele>
        <time>2022-08-11T10:46:03Z</time>
      </trkpt>
      <trkpt lat="44.88517" lon="0.82918">
        <ele>129.5</ele>
        <time>2022-08-11T10:46:04Z</time>
      </trkpt>
      <trkpt lat="44.88513" lon="0.82924">
        <ele>128.5</ele>
        <time>2022-08-11T10:46:05Z</time>
      </trkpt>
      <trkpt lat="44.8851" lon="0.8293">
        <ele>127.5</ele>
        <time>2022-08-11T10:46:06Z</time>
      </trkpt>
      <trkpt lat="44.88506" lon="0.82935">
        <ele>126.5</ele>
        <time>2022-08-11T10:46:07Z</time>
      </trkpt>
      <trkpt lat="44.88502" lon="0.8294">
        <ele>126.5</ele>
        <time>2022-08-11T10:46:08Z</time>
      </trkpt>
      <trkpt lat="44.88496" lon="0.82948">
        <ele>124.5</ele>
        <time>2022-08-11T10:46:10Z</time>
      </trkpt>
      <trkpt lat="44.88491" lon="0.82955">
        <ele>124.5</ele>
        <time>2022-08-11T10:46:12Z</time>
      </trkpt>
      <trkpt lat="44.88486" lon="0.82963">
        <ele>124.5</ele>
        <time>2022-08-11T10:46:14Z</time>
      </trkpt>
      <trkpt lat="44.88482" lon="0.82975">
        <ele>124.5</ele>
        <time>2022-08-11T10:46:16Z</time>
      </trkpt>
      <trkpt lat="44.88482" lon="0.82983">
        <ele>123.5</ele>
        <time>2022-08-11T10:46:17Z</time>
      </trkpt>
      <trkpt lat="44.88482" lon="0.82989">
        <ele>123.5</ele>
        <time>2022-08-11T10:46:18Z</time>
      </trkpt>
      <trkpt lat="44.88485" lon="0.82999">
        <ele>123.5</ele>
        <time>2022-08-11T10:46:20Z</time>
      </trkpt>
      <trkpt lat="44.8849" lon="0.83003">
        <ele>122.5</ele>
        <time>2022-08-11T10:46:22Z</time>
      </trkpt>
      <trkpt lat="44.88496" lon="0.83007">
        <ele>122.5</ele>
        <time>2022-08-11T10:46:24Z</time>
      </trkpt>
      <trkpt lat="44.885" lon="0.83013">
        <ele>121.5</ele>
        <time>2022-08-11T10:46:26Z</time>
      </trkpt>
      <trkpt lat="44.88504" lon="0.83021">
        <ele>121.5</ele>
        <time>2022-08-11T10:46:28Z</time>
      </trkpt>
      <trkpt lat="44.88508" lon="0.8303">
        <ele>120.5</ele>
        <time>2022-08-11T10:46:30Z</time>
      </trkpt>
      <trkpt lat="44.88512" lon="0.83042">
        <ele>120.5</ele>
        <time>2022-08-11T10:46:32Z</time>
      </trkpt>
      <trkpt lat="44.88514" lon="0.83049">
        <ele>119.5</ele>
        <time>2022-08-11T10:46:33Z</time>
      </trkpt>
      <trkpt lat="44.88515" lon="0.83057">
        <ele>120.5</ele>
        <time>2022-08-11T10:46:34Z</time>
      </trkpt>
      <trkpt lat="44.88517" lon="0.83064">
        <ele>120.5</ele>
        <time>2022-08-11T10:46:35Z</time>
      </trkpt>
      <trkpt lat="44.88518" lon="0.83072">
        <ele>119.5</ele>
        <time>2022-08-11T10:46:36Z</time>
      </trkpt>
      <trkpt lat="44.88518" lon="0.8308">
        <ele>119.5</ele>
        <time>2022-08-11T10:46:37Z</time>
      </trkpt>
      <trkpt lat="44.8852" lon="0.83087">
        <ele>118.5</ele>
        <time>2022-08-11T10:46:38Z</time>
      </trkpt>
      <trkpt lat="44.88521" lon="0.83095">
        <ele>118.5</ele>
        <time>2022-08-11T10:46:39Z</time>
      </trkpt>
      <trkpt lat="44.88523" lon="0.83101">
        <ele>117.5</ele>
        <time>2022-08-11T10:46:40Z</time>
      </trkpt>
      <trkpt lat="44.88525" lon="0.83107">
        <ele>117.5</ele>
        <time>2022-08-11T10:46:41Z</time>
      </trkpt>
      <trkpt lat="44.88527" lon="0.83114">
        <ele>117.5</ele>
        <time>2022-08-11T10:46:42Z</time>
      </trkpt>
      <trkpt lat="44.88527" lon="0.83123">
        <ele>117.5</ele>
        <time>2022-08-11T10:46:43Z</time>
      </trkpt>
      <trkpt lat="44.88529" lon="0.8313">
        <ele>116.5</ele>
        <time>2022-08-11T10:46:44Z</time>
      </trkpt>
      <trkpt lat="44.88529" lon="0.83136">
        <ele>116.5</ele>
        <time>2022-08-11T10:46:45Z</time>
      </trkpt>
      <trkpt lat="44.88531" lon="0.83146">
        <ele>115.5</ele>
        <time>2022-08-11T10:46:47Z</time>
      </trkpt>
      <trkpt lat="44.88533" lon="0.83154">
        <ele>115.5</ele>
        <time>2022-08-11T10:46:48Z</time>
      </trkpt>
      <trkpt lat="44.88534" lon="0.83161">
        <ele>115.5</ele>
        <time>2022-08-11T10:46:49Z</time>
      </trkpt>
      <trkpt lat="44.88536" lon="0.83168">
        <ele>115.5</ele>
        <time>2022-08-11T10:46:50Z</time>
      </trkpt>
      <trkpt lat="44.88537" lon="0.83177">
        <ele>114.5</ele>
        <time>2022-08-11T10:46:52Z</time>
      </trkpt>
      <trkpt lat="44.88538" lon="0.83185">
        <ele>113.5</ele>
        <time>2022-08-11T10:46:54Z</time>
      </trkpt>
      <trkpt lat="44.88541" lon="0.83193">
        <ele>112.5</ele>
        <time>2022-08-11T10:46:56Z</time>
      </trkpt>
      <trkpt lat="44.88544" lon="0.832">
        <ele>111.5</ele>
        <time>2022-08-11T10:46:58Z</time>
      </trkpt>
      <trkpt lat="44.88545" lon="0.83209">
        <ele>111.5</ele>
        <time>2022-08-11T10:47:01Z</time>
      </trkpt>
      <trkpt lat="44.88546" lon="0.83218">
        <ele>110.5</ele>
        <time>2022-08-11T10:47:04Z</time>
      </trkpt>
      <trkpt lat="44.88547" lon="0.83226">
        <ele>109.5</ele>
        <time>2022-08-11T10:47:06Z</time>
      </trkpt>
      <trkpt lat="44.88547" lon="0.83234">
        <ele>108.5</ele>
        <time>2022-08-11T10:47:08Z</time>
      </trkpt>
      <trkpt lat="44.88547" lon="0.83243">
        <ele>108.5</ele>
        <time>2022-08-11T10:47:10Z</time>
      </trkpt>
      <trkpt lat="44.88548" lon="0.83251">
        <ele>107.5</ele>
        <time>2022-08-11T10:47:13Z</time>
      </trkpt>
      <trkpt lat="44.88546" lon="0.83258">
        <ele>105.5</ele>
        <time>2022-08-11T10:47:32Z</time>
      </trkpt>
      <trkpt lat="44.88542" lon="0.83262">
        <ele>103.5</ele>
        <time>2022-08-11T10:48:01Z</time>
      </trkpt>
      <trkpt lat="44.88537" lon="0.83265">
        <ele>103.5</ele>
        <time>2022-08-11T10:48:07Z</time>
      </trkpt>
      <trkpt lat="44.88531" lon="0.83268">
        <ele>104.5</ele>
        <time>2022-08-11T10:48:10Z</time>
      </trkpt>
      <trkpt lat="44.88526" lon="0.8327">
        <ele>103.5</ele>
        <time>2022-08-11T10:48:13Z</time>
      </trkpt>
      <trkpt lat="44.88521" lon="0.83272">
        <ele>102.5</ele>
        <time>2022-08-11T10:48:16Z</time>
      </trkpt>
      <trkpt lat="44.88516" lon="0.83277">
        <ele>102.5</ele>
        <time>2022-08-11T10:48:20Z</time>
      </trkpt>
      <trkpt lat="44.88512" lon="0.83281">
        <ele>101.5</ele>
        <time>2022-08-11T10:48:23Z</time>
      </trkpt>
      <trkpt lat="44.88507" lon="0.83285">
        <ele>101.5</ele>
        <time>2022-08-11T10:48:26Z</time>
      </trkpt>
      <trkpt lat="44.88503" lon="0.83289">
        <ele>102.5</ele>
        <time>2022-08-11T10:48:29Z</time>
      </trkpt>
      <trkpt lat="44.88497" lon="0.83292">
        <ele>103.5</ele>
        <time>2022-08-11T10:48:32Z</time>
      </trkpt>
      <trkpt lat="44.88492" lon="0.83294">
        <ele>104.5</ele>
        <time>2022-08-11T10:48:35Z</time>
      </trkpt>
      <trkpt lat="44.88486" lon="0.83294">
        <ele>104.5</ele>
        <time>2022-08-11T10:48:38Z</time>
      </trkpt>
      <trkpt lat="44.88481" lon="0.83294">
        <ele>105.5</ele>
        <time>2022-08-11T10:48:41Z</time>
      </trkpt>
      <trkpt lat="44.88475" lon="0.83294">
        <ele>106.5</ele>
        <time>2022-08-11T10:48:44Z</time>
      </trkpt>
      <trkpt lat="44.8847" lon="0.83294">
        <ele>106.5</ele>
        <time>2022-08-11T10:48:46Z</time>
      </trkpt>
      <trkpt lat="44.88465" lon="0.83295">
        <ele>107.5</ele>
        <time>2022-08-11T10:48:48Z</time>
      </trkpt>
      <trkpt lat="44.8846" lon="0.83297">
        <ele>107.5</ele>
        <time>2022-08-11T10:48:50Z</time>
      </trkpt>
      <trkpt lat="44.88455" lon="0.83303">
        <ele>107.5</ele>
        <time>2022-08-11T10:48:52Z</time>
      </trkpt>
      <trkpt lat="44.88452" lon="0.83311">
        <ele>107.5</ele>
        <time>2022-08-11T10:48:54Z</time>
      </trkpt>
      <trkpt lat="44.88449" lon="0.8332">
        <ele>106.5</ele>
        <time>2022-08-11T10:48:56Z</time>
      </trkpt>
      <trkpt lat="44.88445" lon="0.83329">
        <ele>107.5</ele>
        <time>2022-08-11T10:48:58Z</time>
      </trkpt>
      <trkpt lat="44.88441" lon="0.83337">
        <ele>107.5</ele>
        <time>2022-08-11T10:49:00Z</time>
      </trkpt>
      <trkpt lat="44.88437" lon="0.83348">
        <ele>111.5</ele>
        <time>2022-08-11T10:49:02Z</time>
      </trkpt>
      <trkpt lat="44.88434" lon="0.83356">
        <ele>110.5</ele>
        <time>2022-08-11T10:49:04Z</time>
      </trkpt>
      <trkpt lat="44.88431" lon="0.83362">
        <ele>110.5</ele>
        <time>2022-08-11T10:49:06Z</time>
      </trkpt>
      <trkpt lat="44.88428" lon="0.83368">
        <ele>110.5</ele>
        <time>2022-08-11T10:49:09Z</time>
      </trkpt>
      <trkpt lat="44.88426" lon="0.83373">
        <ele>110.5</ele>
        <time>2022-08-11T10:49:11Z</time>
      </trkpt>
      <trkpt lat="44.88422" lon="0.83381">
        <ele>110.5</ele>
        <time>2022-08-11T10:49:14Z</time>
      </trkpt>
      <trkpt lat="44.88418" lon="0.83388">
        <ele>109.5</ele>
        <time>2022-08-11T10:49:17Z</time>
      </trkpt>
      <trkpt lat="44.88415" lon="0.83395">
        <ele>108.5</ele>
        <time>2022-08-11T10:49:20Z</time>
      </trkpt>
      <trkpt lat="44.88413" lon="0.83402">
        <ele>108.5</ele>
        <time>2022-08-11T10:49:22Z</time>
      </trkpt>
      <trkpt lat="44.88409" lon="0.83408">
        <ele>108.5</ele>
        <time>2022-08-11T10:49:24Z</time>
      </trkpt>
      <trkpt lat="44.88407" lon="0.83414">
        <ele>108.5</ele>
        <time>2022-08-11T10:49:26Z</time>
      </trkpt>
      <trkpt lat="44.88404" lon="0.8342">
        <ele>107.5</ele>
        <time>2022-08-11T10:49:28Z</time>
      </trkpt>
      <trkpt lat="44.884" lon="0.83424">
        <ele>107.5</ele>
        <time>2022-08-11T10:49:30Z</time>
      </trkpt>
      <trkpt lat="44.88395" lon="0.83429">
        <ele>106.5</ele>
        <time>2022-08-11T10:49:32Z</time>
      </trkpt>
      <trkpt lat="44.88389" lon="0.83433">
        <ele>106.5</ele>
        <time>2022-08-11T10:49:34Z</time>
      </trkpt>
      <trkpt lat="44.88384" lon="0.83436">
        <ele>106.5</ele>
        <time>2022-08-11T10:49:36Z</time>
      </trkpt>
      <trkpt lat="44.88379" lon="0.8344">
        <ele>106.5</ele>
        <time>2022-08-11T10:49:38Z</time>
      </trkpt>
      <trkpt lat="44.88375" lon="0.83445">
        <ele>106.5</ele>
        <time>2022-08-11T10:49:40Z</time>
      </trkpt>
      <trkpt lat="44.8837" lon="0.8345">
        <ele>106.5</ele>
        <time>2022-08-11T10:49:42Z</time>
      </trkpt>
      <trkpt lat="44.88365" lon="0.83454">
        <ele>106.5</ele>
        <time>2022-08-11T10:49:44Z</time>
      </trkpt>
      <trkpt lat="44.8836" lon="0.83458">
        <ele>106.5</ele>
        <time>2022-08-11T10:49:46Z</time>
      </trkpt>
      <trkpt lat="44.88355" lon="0.83462">
        <ele>106.5</ele>
        <time>2022-08-11T10:49:48Z</time>
      </trkpt>
      <trkpt lat="44.8835" lon="0.83464">
        <ele>106.5</ele>
        <time>2022-08-11T10:49:50Z</time>
      </trkpt>
      <trkpt lat="44.88346" lon="0.83467">
        <ele>107.5</ele>
        <time>2022-08-11T10:49:52Z</time>
      </trkpt>
      <trkpt lat="44.88341" lon="0.8347">
        <ele>107.5</ele>
        <time>2022-08-11T10:49:55Z</time>
      </trkpt>
      <trkpt lat="44.88336" lon="0.83473">
        <ele>107.5</ele>
        <time>2022-08-11T10:49:59Z</time>
      </trkpt>
      <trkpt lat="44.88332" lon="0.83477">
        <ele>107.5</ele>
        <time>2022-08-11T10:50:01Z</time>
      </trkpt>
      <trkpt lat="44.88328" lon="0.8348">
        <ele>107.5</ele>
        <time>2022-08-11T10:50:03Z</time>
      </trkpt>
      <trkpt lat="44.88323" lon="0.83483">
        <ele>108.5</ele>
        <time>2022-08-11T10:50:05Z</time>
      </trkpt>
      <trkpt lat="44.88318" lon="0.83487">
        <ele>108.5</ele>
        <time>2022-08-11T10:50:07Z</time>
      </trkpt>
      <trkpt lat="44.88313" lon="0.8349">
        <ele>107.5</ele>
        <time>2022-08-11T10:50:09Z</time>
      </trkpt>
      <trkpt lat="44.88308" lon="0.83494">
        <ele>107.5</ele>
        <time>2022-08-11T10:50:11Z</time>
      </trkpt>
      <trkpt lat="44.88304" lon="0.83496">
        <ele>107.5</ele>
        <time>2022-08-11T10:50:13Z</time>
      </trkpt>
      <trkpt lat="44.88299" lon="0.83499">
        <ele>107.5</ele>
        <time>2022-08-11T10:50:15Z</time>
      </trkpt>
      <trkpt lat="44.88294" lon="0.835">
        <ele>107.5</ele>
        <time>2022-08-11T10:50:17Z</time>
      </trkpt>
      <trkpt lat="44.8829" lon="0.83502">
        <ele>106.5</ele>
        <time>2022-08-11T10:50:19Z</time>
      </trkpt>
      <trkpt lat="44.88285" lon="0.83505">
        <ele>105.5</ele>
        <time>2022-08-11T10:50:21Z</time>
      </trkpt>
      <trkpt lat="44.8828" lon="0.83507">
        <ele>105.5</ele>
        <time>2022-08-11T10:50:23Z</time>
      </trkpt>
      <trkpt lat="44.88275" lon="0.83509">
        <ele>104.5</ele>
        <time>2022-08-11T10:50:25Z</time>
      </trkpt>
      <trkpt lat="44.88269" lon="0.83513">
        <ele>105.5</ele>
        <time>2022-08-11T10:50:27Z</time>
      </trkpt>
      <trkpt lat="44.88262" lon="0.83516">
        <ele>105.5</ele>
        <time>2022-08-11T10:50:29Z</time>
      </trkpt>
      <trkpt lat="44.88257" lon="0.8352">
        <ele>105.5</ele>
        <time>2022-08-11T10:50:31Z</time>
      </trkpt>
      <trkpt lat="44.88251" lon="0.83524">
        <ele>104.5</ele>
        <time>2022-08-11T10:50:33Z</time>
      </trkpt>
      <trkpt lat="44.88245" lon="0.83526">
        <ele>103.5</ele>
        <time>2022-08-11T10:50:35Z</time>
      </trkpt>
      <trkpt lat="44.88238" lon="0.83529">
        <ele>103.5</ele>
        <time>2022-08-11T10:50:37Z</time>
      </trkpt>
      <trkpt lat="44.88231" lon="0.83532">
        <ele>102.5</ele>
        <time>2022-08-11T10:50:39Z</time>
      </trkpt>
      <trkpt lat="44.88223" lon="0.83536">
        <ele>101.5</ele>
        <time>2022-08-11T10:50:41Z</time>
      </trkpt>
      <trkpt lat="44.88218" lon="0.83538">
        <ele>100.5</ele>
        <time>2022-08-11T10:50:42Z</time>
      </trkpt>
      <trkpt lat="44.88214" lon="0.83541">
        <ele>99.5</ele>
        <time>2022-08-11T10:50:43Z</time>
      </trkpt>
      <trkpt lat="44.8821" lon="0.83544">
        <ele>99.5</ele>
        <time>2022-08-11T10:50:44Z</time>
      </trkpt>
      <trkpt lat="44.88205" lon="0.83547">
        <ele>99.5</ele>
        <time>2022-08-11T10:50:45Z</time>
      </trkpt>
      <trkpt lat="44.88201" lon="0.83551">
        <ele>99.5</ele>
        <time>2022-08-11T10:50:46Z</time>
      </trkpt>
      <trkpt lat="44.88197" lon="0.83554">
        <ele>98.5</ele>
        <time>2022-08-11T10:50:47Z</time>
      </trkpt>
      <trkpt lat="44.88192" lon="0.83559">
        <ele>98.5</ele>
        <time>2022-08-11T10:50:48Z</time>
      </trkpt>
      <trkpt lat="44.88187" lon="0.83564">
        <ele>97.5</ele>
        <time>2022-08-11T10:50:49Z</time>
      </trkpt>
      <trkpt lat="44.88182" lon="0.83569">
        <ele>97.5</ele>
        <time>2022-08-11T10:50:50Z</time>
      </trkpt>
      <trkpt lat="44.88178" lon="0.83573">
        <ele>98.5</ele>
        <time>2022-08-11T10:50:51Z</time>
      </trkpt>
      <trkpt lat="44.88173" lon="0.83576">
        <ele>98.5</ele>
        <time>2022-08-11T10:50:52Z</time>
      </trkpt>
      <trkpt lat="44.88168" lon="0.83579">
        <ele>98.5</ele>
        <time>2022-08-11T10:50:53Z</time>
      </trkpt>
      <trkpt lat="44.88163" lon="0.83582">
        <ele>99.5</ele>
        <time>2022-08-11T10:50:54Z</time>
      </trkpt>
      <trkpt lat="44.88158" lon="0.83584">
        <ele>99.5</ele>
        <time>2022-08-11T10:50:55Z</time>
      </trkpt>
      <trkpt lat="44.88152" lon="0.83587">
        <ele>100.5</ele>
        <time>2022-08-11T10:50:57Z</time>
      </trkpt>
      <trkpt lat="44.88147" lon="0.83588">
        <ele>103.5</ele>
        <time>2022-08-11T10:51:03Z</time>
      </trkpt>
      <trkpt lat="44.88143" lon="0.8359">
        <ele>107.5</ele>
        <time>2022-08-11T10:51:17Z</time>
      </trkpt>
      <trkpt lat="44.88138" lon="0.83594">
        <ele>107.5</ele>
        <time>2022-08-11T10:51:20Z</time>
      </trkpt>
      <trkpt lat="44.88134" lon="0.83598">
        <ele>107.5</ele>
        <time>2022-08-11T10:51:22Z</time>
      </trkpt>
      <trkpt lat="44.88125" lon="0.83605">
        <ele>107.5</ele>
        <time>2022-08-11T10:51:24Z</time>
      </trkpt>
      <trkpt lat="44.8812" lon="0.8361">
        <ele>107.5</ele>
        <time>2022-08-11T10:51:25Z</time>
      </trkpt>
      <trkpt lat="44.88115" lon="0.83614">
        <ele>106.5</ele>
        <time>2022-08-11T10:51:26Z</time>
      </trkpt>
      <trkpt lat="44.88109" lon="0.83619">
        <ele>106.5</ele>
        <time>2022-08-11T10:51:27Z</time>
      </trkpt>
      <trkpt lat="44.88104" lon="0.83624">
        <ele>106.5</ele>
        <time>2022-08-11T10:51:28Z</time>
      </trkpt>
      <trkpt lat="44.88098" lon="0.8363">
        <ele>106.5</ele>
        <time>2022-08-11T10:51:29Z</time>
      </trkpt>
      <trkpt lat="44.88091" lon="0.83636">
        <ele>105.5</ele>
        <time>2022-08-11T10:51:30Z</time>
      </trkpt>
      <trkpt lat="44.88084" lon="0.83642">
        <ele>105.5</ele>
        <time>2022-08-11T10:51:31Z</time>
      </trkpt>
      <trkpt lat="44.88077" lon="0.83648">
        <ele>105.5</ele>
        <time>2022-08-11T10:51:32Z</time>
      </trkpt>
      <trkpt lat="44.8807" lon="0.83653">
        <ele>105.5</ele>
        <time>2022-08-11T10:51:33Z</time>
      </trkpt>
      <trkpt lat="44.88064" lon="0.83659">
        <ele>105.5</ele>
        <time>2022-08-11T10:51:34Z</time>
      </trkpt>
      <trkpt lat="44.88054" lon="0.83668">
        <ele>105.5</ele>
        <time>2022-08-11T10:51:36Z</time>
      </trkpt>
      <trkpt lat="44.88049" lon="0.83672">
        <ele>105.5</ele>
        <time>2022-08-11T10:51:37Z</time>
      </trkpt>
      <trkpt lat="44.88045" lon="0.83677">
        <ele>104.5</ele>
        <time>2022-08-11T10:51:38Z</time>
      </trkpt>
      <trkpt lat="44.88041" lon="0.83681">
        <ele>104.5</ele>
        <time>2022-08-11T10:51:39Z</time>
      </trkpt>
      <trkpt lat="44.88037" lon="0.83686">
        <ele>104.5</ele>
        <time>2022-08-11T10:51:40Z</time>
      </trkpt>
      <trkpt lat="44.88033" lon="0.83692">
        <ele>104.5</ele>
        <time>2022-08-11T10:51:41Z</time>
      </trkpt>
      <trkpt lat="44.88029" lon="0.83699">
        <ele>104.5</ele>
        <time>2022-08-11T10:51:42Z</time>
      </trkpt>
      <trkpt lat="44.88026" lon="0.83705">
        <ele>104.5</ele>
        <time>2022-08-11T10:51:43Z</time>
      </trkpt>
      <trkpt lat="44.88024" lon="0.83712">
        <ele>105.5</ele>
        <time>2022-08-11T10:51:44Z</time>
      </trkpt>
      <trkpt lat="44.88022" lon="0.83719">
        <ele>104.5</ele>
        <time>2022-08-11T10:51:45Z</time>
      </trkpt>
      <trkpt lat="44.88019" lon="0.83726">
        <ele>104.5</ele>
        <time>2022-08-11T10:51:46Z</time>
      </trkpt>
      <trkpt lat="44.88016" lon="0.83732">
        <ele>105.5</ele>
        <time>2022-08-11T10:51:47Z</time>
      </trkpt>
      <trkpt lat="44.88011" lon="0.83736">
        <ele>104.5</ele>
        <time>2022-08-11T10:51:48Z</time>
      </trkpt>
      <trkpt lat="44.88007" lon="0.83738">
        <ele>104.5</ele>
        <time>2022-08-11T10:51:49Z</time>
      </trkpt>
      <trkpt lat="44.88001" lon="0.83738">
        <ele>103.5</ele>
        <time>2022-08-11T10:51:50Z</time>
      </trkpt>
      <trkpt lat="44.87995" lon="0.83738">
        <ele>103.5</ele>
        <time>2022-08-11T10:51:51Z</time>
      </trkpt>
      <trkpt lat="44.87989" lon="0.83739">
        <ele>102.5</ele>
        <time>2022-08-11T10:51:52Z</time>
      </trkpt>
      <trkpt lat="44.87983" lon="0.83738">
        <ele>101.5</ele>
        <time>2022-08-11T10:51:53Z</time>
      </trkpt>
      <trkpt lat="44.87976" lon="0.83738">
        <ele>101.5</ele>
        <time>2022-08-11T10:51:54Z</time>
      </trkpt>
      <trkpt lat="44.8797" lon="0.83736">
        <ele>101.5</ele>
        <time>2022-08-11T10:51:55Z</time>
      </trkpt>
      <trkpt lat="44.87963" lon="0.83734">
        <ele>100.5</ele>
        <time>2022-08-11T10:51:56Z</time>
      </trkpt>
      <trkpt lat="44.87957" lon="0.83731">
        <ele>100.5</ele>
        <time>2022-08-11T10:51:57Z</time>
      </trkpt>
      <trkpt lat="44.87951" lon="0.83728">
        <ele>100.5</ele>
        <time>2022-08-11T10:51:58Z</time>
      </trkpt>
      <trkpt lat="44.87945" lon="0.83724">
        <ele>100.5</ele>
        <time>2022-08-11T10:51:59Z</time>
      </trkpt>
      <trkpt lat="44.8794" lon="0.83718">
        <ele>99.5</ele>
        <time>2022-08-11T10:52:00Z</time>
      </trkpt>
      <trkpt lat="44.87934" lon="0.83713">
        <ele>99.5</ele>
        <time>2022-08-11T10:52:01Z</time>
      </trkpt>
      <trkpt lat="44.87929" lon="0.83708">
        <ele>99.5</ele>
        <time>2022-08-11T10:52:02Z</time>
      </trkpt>
      <trkpt lat="44.87923" lon="0.83704">
        <ele>99.5</ele>
        <time>2022-08-11T10:52:03Z</time>
      </trkpt>
      <trkpt lat="44.87919" lon="0.837">
        <ele>98.5</ele>
        <time>2022-08-11T10:52:04Z</time>
      </trkpt>
      <trkpt lat="44.87911" lon="0.83694">
        <ele>98.5</ele>
        <time>2022-08-11T10:52:06Z</time>
      </trkpt>
      <trkpt lat="44.87907" lon="0.8369">
        <ele>98.5</ele>
        <time>2022-08-11T10:52:07Z</time>
      </trkpt>
      <trkpt lat="44.87903" lon="0.83687">
        <ele>98.5</ele>
        <time>2022-08-11T10:52:08Z</time>
      </trkpt>
      <trkpt lat="44.87898" lon="0.83683">
        <ele>98.5</ele>
        <time>2022-08-11T10:52:09Z</time>
      </trkpt>
      <trkpt lat="44.87894" lon="0.8368">
        <ele>97.5</ele>
        <time>2022-08-11T10:52:10Z</time>
      </trkpt>
      <trkpt lat="44.87889" lon="0.83675">
        <ele>97.5</ele>
        <time>2022-08-11T10:52:11Z</time>
      </trkpt>
      <trkpt lat="44.87884" lon="0.83669">
        <ele>96.5</ele>
        <time>2022-08-11T10:52:12Z</time>
      </trkpt>
      <trkpt lat="44.87879" lon="0.83662">
        <ele>97.5</ele>
        <time>2022-08-11T10:52:13Z</time>
      </trkpt>
      <trkpt lat="44.87873" lon="0.83656">
        <ele>97.5</ele>
        <time>2022-08-11T10:52:14Z</time>
      </trkpt>
      <trkpt lat="44.87867" lon="0.83649">
        <ele>96.5</ele>
        <time>2022-08-11T10:52:15Z</time>
      </trkpt>
      <trkpt lat="44.87862" lon="0.83642">
        <ele>96.5</ele>
        <time>2022-08-11T10:52:16Z</time>
      </trkpt>
      <trkpt lat="44.87856" lon="0.83635">
        <ele>95.5</ele>
        <time>2022-08-11T10:52:17Z</time>
      </trkpt>
      <trkpt lat="44.87851" lon="0.83629">
        <ele>94.5</ele>
        <time>2022-08-11T10:52:18Z</time>
      </trkpt>
      <trkpt lat="44.87847" lon="0.83623">
        <ele>93.5</ele>
        <time>2022-08-11T10:52:19Z</time>
      </trkpt>
      <trkpt lat="44.87842" lon="0.83617">
        <ele>92.5</ele>
        <time>2022-08-11T10:52:20Z</time>
      </trkpt>
      <trkpt lat="44.87838" lon="0.83612">
        <ele>92.5</ele>
        <time>2022-08-11T10:52:21Z</time>
      </trkpt>
      <trkpt lat="44.87833" lon="0.83608">
        <ele>91.5</ele>
        <time>2022-08-11T10:52:22Z</time>
      </trkpt>
      <trkpt lat="44.87828" lon="0.83603">
        <ele>90.5</ele>
        <time>2022-08-11T10:52:23Z</time>
      </trkpt>
      <trkpt lat="44.87822" lon="0.836">
        <ele>90.5</ele>
        <time>2022-08-11T10:52:24Z</time>
      </trkpt>
      <trkpt lat="44.87816" lon="0.83596">
        <ele>89.5</ele>
        <time>2022-08-11T10:52:25Z</time>
      </trkpt>
      <trkpt lat="44.87811" lon="0.83592">
        <ele>88.5</ele>
        <time>2022-08-11T10:52:26Z</time>
      </trkpt>
      <trkpt lat="44.87806" lon="0.83588">
        <ele>86.5</ele>
        <time>2022-08-11T10:52:27Z</time>
      </trkpt>
      <trkpt lat="44.878" lon="0.83583">
        <ele>84.5</ele>
        <time>2022-08-11T10:52:28Z</time>
      </trkpt>
      <trkpt lat="44.87794" lon="0.83579">
        <ele>84.5</ele>
        <time>2022-08-11T10:52:29Z</time>
      </trkpt>
      <trkpt lat="44.87788" lon="0.83574">
        <ele>82.5</ele>
        <time>2022-08-11T10:52:30Z</time>
      </trkpt>
      <trkpt lat="44.87782" lon="0.83569">
        <ele>81.5</ele>
        <time>2022-08-11T10:52:31Z</time>
      </trkpt>
      <trkpt lat="44.87775" lon="0.83565">
        <ele>78.5</ele>
        <time>2022-08-11T10:52:32Z</time>
      </trkpt>
      <trkpt lat="44.87769" lon="0.83561">
        <ele>78.5</ele>
        <time>2022-08-11T10:52:33Z</time>
      </trkpt>
      <trkpt lat="44.87763" lon="0.83557">
        <ele>77.5</ele>
        <time>2022-08-11T10:52:34Z</time>
      </trkpt>
      <trkpt lat="44.87753" lon="0.83559">
        <ele>76.5</ele>
        <time>2022-08-11T10:52:36Z</time>
      </trkpt>
      <trkpt lat="44.87748" lon="0.83564">
        <ele>75.5</ele>
        <time>2022-08-11T10:52:37Z</time>
      </trkpt>
      <trkpt lat="44.87743" lon="0.83571">
        <ele>75.5</ele>
        <time>2022-08-11T10:52:38Z</time>
      </trkpt>
      <trkpt lat="44.87738" lon="0.8358">
        <ele>74.5</ele>
        <time>2022-08-11T10:52:39Z</time>
      </trkpt>
      <trkpt lat="44.87734" lon="0.83588">
        <ele>74.5</ele>
        <time>2022-08-11T10:52:40Z</time>
      </trkpt>
      <trkpt lat="44.87732" lon="0.83598">
        <ele>74.5</ele>
        <time>2022-08-11T10:52:41Z</time>
      </trkpt>
      <trkpt lat="44.87732" lon="0.83609">
        <ele>72.5</ele>
        <time>2022-08-11T10:52:42Z</time>
      </trkpt>
      <trkpt lat="44.87733" lon="0.8362">
        <ele>71.5</ele>
        <time>2022-08-11T10:52:43Z</time>
      </trkpt>
      <trkpt lat="44.87735" lon="0.83629">
        <ele>71.5</ele>
        <time>2022-08-11T10:52:44Z</time>
      </trkpt>
      <trkpt lat="44.87736" lon="0.83636">
        <ele>71.5</ele>
        <time>2022-08-11T10:52:45Z</time>
      </trkpt>
      <trkpt lat="44.87738" lon="0.83644">
        <ele>70.5</ele>
        <time>2022-08-11T10:52:46Z</time>
      </trkpt>
      <trkpt lat="44.8774" lon="0.83652">
        <ele>70.5</ele>
        <time>2022-08-11T10:52:47Z</time>
      </trkpt>
      <trkpt lat="44.87742" lon="0.83659">
        <ele>70.5</ele>
        <time>2022-08-11T10:52:48Z</time>
      </trkpt>
      <trkpt lat="44.87744" lon="0.83666">
        <ele>70.5</ele>
        <time>2022-08-11T10:52:49Z</time>
      </trkpt>
      <trkpt lat="44.87745" lon="0.83673">
        <ele>69.5</ele>
        <time>2022-08-11T10:52:50Z</time>
      </trkpt>
      <trkpt lat="44.87747" lon="0.8368">
        <ele>69.5</ele>
        <time>2022-08-11T10:52:51Z</time>
      </trkpt>
      <trkpt lat="44.87751" lon="0.8369">
        <ele>68.5</ele>
        <time>2022-08-11T10:52:53Z</time>
      </trkpt>
      <trkpt lat="44.87754" lon="0.83695">
        <ele>67.5</ele>
        <time>2022-08-11T10:52:54Z</time>
      </trkpt>
      <trkpt lat="44.87757" lon="0.83701">
        <ele>67.5</ele>
        <time>2022-08-11T10:52:55Z</time>
      </trkpt>
      <trkpt lat="44.87759" lon="0.83707">
        <ele>67.5</ele>
        <time>2022-08-11T10:52:56Z</time>
      </trkpt>
      <trkpt lat="44.87761" lon="0.83714">
        <ele>67.5</ele>
        <time>2022-08-11T10:52:57Z</time>
      </trkpt>
      <trkpt lat="44.87762" lon="0.83723">
        <ele>66.5</ele>
        <time>2022-08-11T10:52:59Z</time>
      </trkpt>
      <trkpt lat="44.87755" lon="0.83721">
        <ele>65.5</ele>
        <time>2022-08-11T10:53:02Z</time>
      </trkpt>
      <trkpt lat="44.8775" lon="0.83713">
        <ele>63.5</ele>
        <time>2022-08-11T10:53:03Z</time>
      </trkpt>
      <trkpt lat="44.87744" lon="0.83705">
        <ele>62.5</ele>
        <time>2022-08-11T10:53:04Z</time>
      </trkpt>
      <trkpt lat="44.87737" lon="0.83696">
        <ele>61.5</ele>
        <time>2022-08-11T10:53:05Z</time>
      </trkpt>
      <trkpt lat="44.87729" lon="0.83686">
        <ele>61.5</ele>
        <time>2022-08-11T10:53:06Z</time>
      </trkpt>
      <trkpt lat="44.87721" lon="0.83677">
        <ele>59.5</ele>
        <time>2022-08-11T10:53:07Z</time>
      </trkpt>
      <trkpt lat="44.87715" lon="0.83668">
        <ele>58.5</ele>
        <time>2022-08-11T10:53:08Z</time>
      </trkpt>
      <trkpt lat="44.8771" lon="0.8366">
        <ele>58.5</ele>
        <time>2022-08-11T10:53:09Z</time>
      </trkpt>
      <trkpt lat="44.87706" lon="0.83652">
        <ele>56.5</ele>
        <time>2022-08-11T10:53:10Z</time>
      </trkpt>
      <trkpt lat="44.87703" lon="0.83644">
        <ele>55.5</ele>
        <time>2022-08-11T10:53:11Z</time>
      </trkpt>
      <trkpt lat="44.87701" lon="0.83638">
        <ele>55.5</ele>
        <time>2022-08-11T10:53:12Z</time>
      </trkpt>
      <trkpt lat="44.87696" lon="0.83631">
        <ele>55.5</ele>
        <time>2022-08-11T10:53:14Z</time>
      </trkpt>
      <trkpt lat="44.87693" lon="0.83625">
        <ele>55.5</ele>
        <time>2022-08-11T10:53:16Z</time>
      </trkpt>
      <trkpt lat="44.87689" lon="0.83621">
        <ele>53.5</ele>
        <time>2022-08-11T10:53:50Z</time>
      </trkpt>
      <trkpt lat="44.87688" lon="0.83614">
        <ele>44.5</ele>
        <time>2022-08-11T10:55:45Z</time>
      </trkpt>
      <trkpt lat="44.87686" lon="0.83604">
        <ele>43.5</ele>
        <time>2022-08-11T10:55:48Z</time>
      </trkpt>
      <trkpt lat="44.87683" lon="0.83592">
        <ele>44.5</ele>
        <time>2022-08-11T10:55:50Z</time>
      </trkpt>
      <trkpt lat="44.8768" lon="0.83581">
        <ele>44.5</ele>
        <time>2022-08-11T10:55:52Z</time>
      </trkpt>
      <trkpt lat="44.87678" lon="0.83575">
        <ele>45.5</ele>
        <time>2022-08-11T10:55:53Z</time>
      </trkpt>
      <trkpt lat="44.87674" lon="0.83563">
        <ele>45.5</ele>
        <time>2022-08-11T10:55:55Z</time>
      </trkpt>
      <trkpt lat="44.87673" lon="0.83557">
        <ele>45.5</ele>
        <time>2022-08-11T10:55:56Z</time>
      </trkpt>
      <trkpt lat="44.8767" lon="0.8355">
        <ele>45.5</ele>
        <time>2022-08-11T10:55:57Z</time>
      </trkpt>
      <trkpt lat="44.87668" lon="0.83544">
        <ele>46.5</ele>
        <time>2022-08-11T10:55:58Z</time>
      </trkpt>
      <trkpt lat="44.87666" lon="0.83537">
        <ele>47.5</ele>
        <time>2022-08-11T10:55:59Z</time>
      </trkpt>
      <trkpt lat="44.87665" lon="0.83531">
        <ele>48.5</ele>
        <time>2022-08-11T10:56:00Z</time>
      </trkpt>
      <trkpt lat="44.87663" lon="0.83524">
        <ele>48.5</ele>
        <time>2022-08-11T10:56:01Z</time>
      </trkpt>
      <trkpt lat="44.87661" lon="0.83517">
        <ele>48.5</ele>
        <time>2022-08-11T10:56:02Z</time>
      </trkpt>
      <trkpt lat="44.8766" lon="0.8351">
        <ele>49.5</ele>
        <time>2022-08-11T10:56:03Z</time>
      </trkpt>
      <trkpt lat="44.87658" lon="0.83503">
        <ele>49.5</ele>
        <time>2022-08-11T10:56:04Z</time>
      </trkpt>
      <trkpt lat="44.87656" lon="0.83495">
        <ele>49.5</ele>
        <time>2022-08-11T10:56:05Z</time>
      </trkpt>
      <trkpt lat="44.87654" lon="0.83488">
        <ele>49.5</ele>
        <time>2022-08-11T10:56:06Z</time>
      </trkpt>
      <trkpt lat="44.87653" lon="0.8348">
        <ele>49.5</ele>
        <time>2022-08-11T10:56:07Z</time>
      </trkpt>
      <trkpt lat="44.87651" lon="0.83473">
        <ele>50.5</ele>
        <time>2022-08-11T10:56:08Z</time>
      </trkpt>
      <trkpt lat="44.8765" lon="0.83465">
        <ele>50.5</ele>
        <time>2022-08-11T10:56:09Z</time>
      </trkpt>
      <trkpt lat="44.87649" lon="0.83458">
        <ele>51.5</ele>
        <time>2022-08-11T10:56:10Z</time>
      </trkpt>
      <trkpt lat="44.87647" lon="0.8345">
        <ele>51.5</ele>
        <time>2022-08-11T10:56:11Z</time>
      </trkpt>
      <trkpt lat="44.87646" lon="0.83443">
        <ele>51.5</ele>
        <time>2022-08-11T10:56:12Z</time>
      </trkpt>
      <trkpt lat="44.87645" lon="0.83436">
        <ele>51.5</ele>
        <time>2022-08-11T10:56:13Z</time>
      </trkpt>
      <trkpt lat="44.87643" lon="0.83429">
        <ele>51.5</ele>
        <time>2022-08-11T10:56:14Z</time>
      </trkpt>
      <trkpt lat="44.87642" lon="0.83421">
        <ele>51.5</ele>
        <time>2022-08-11T10:56:15Z</time>
      </trkpt>
      <trkpt lat="44.87641" lon="0.83414">
        <ele>51.5</ele>
        <time>2022-08-11T10:56:16Z</time>
      </trkpt>
      <trkpt lat="44.8764" lon="0.83407">
        <ele>51.5</ele>
        <time>2022-08-11T10:56:17Z</time>
      </trkpt>
      <trkpt lat="44.87639" lon="0.834">
        <ele>51.5</ele>
        <time>2022-08-11T10:56:18Z</time>
      </trkpt>
      <trkpt lat="44.87638" lon="0.83393">
        <ele>51.5</ele>
        <time>2022-08-11T10:56:19Z</time>
      </trkpt>
      <trkpt lat="44.87637" lon="0.83385">
        <ele>52.5</ele>
        <time>2022-08-11T10:56:20Z</time>
      </trkpt>
      <trkpt lat="44.87637" lon="0.83379">
        <ele>52.5</ele>
        <time>2022-08-11T10:56:21Z</time>
      </trkpt>
      <trkpt lat="44.87636" lon="0.83373">
        <ele>52.5</ele>
        <time>2022-08-11T10:56:22Z</time>
      </trkpt>
      <trkpt lat="44.87635" lon="0.83365">
        <ele>52.5</ele>
        <time>2022-08-11T10:56:23Z</time>
      </trkpt>
      <trkpt lat="44.87634" lon="0.83359">
        <ele>51.5</ele>
        <time>2022-08-11T10:56:24Z</time>
      </trkpt>
      <trkpt lat="44.87633" lon="0.83352">
        <ele>52.5</ele>
        <time>2022-08-11T10:56:25Z</time>
      </trkpt>
      <trkpt lat="44.87632" lon="0.83345">
        <ele>51.5</ele>
        <time>2022-08-11T10:56:26Z</time>
      </trkpt>
      <trkpt lat="44.87632" lon="0.83338">
        <ele>51.5</ele>
        <time>2022-08-11T10:56:27Z</time>
      </trkpt>
      <trkpt lat="44.87631" lon="0.83331">
        <ele>51.5</ele>
        <time>2022-08-11T10:56:28Z</time>
      </trkpt>
      <trkpt lat="44.87631" lon="0.83324">
        <ele>51.5</ele>
        <time>2022-08-11T10:56:29Z</time>
      </trkpt>
      <trkpt lat="44.8763" lon="0.83317">
        <ele>51.5</ele>
        <time>2022-08-11T10:56:30Z</time>
      </trkpt>
      <trkpt lat="44.87629" lon="0.83311">
        <ele>51.5</ele>
        <time>2022-08-11T10:56:31Z</time>
      </trkpt>
      <trkpt lat="44.87627" lon="0.83298">
        <ele>50.5</ele>
        <time>2022-08-11T10:56:33Z</time>
      </trkpt>
      <trkpt lat="44.87627" lon="0.83291">
        <ele>49.5</ele>
        <time>2022-08-11T10:56:34Z</time>
      </trkpt>
      <trkpt lat="44.87626" lon="0.83283">
        <ele>49.5</ele>
        <time>2022-08-11T10:56:35Z</time>
      </trkpt>
      <trkpt lat="44.87625" lon="0.83275">
        <ele>49.5</ele>
        <time>2022-08-11T10:56:36Z</time>
      </trkpt>
      <trkpt lat="44.87625" lon="0.83268">
        <ele>49.5</ele>
        <time>2022-08-11T10:56:37Z</time>
      </trkpt>
      <trkpt lat="44.87624" lon="0.83261">
        <ele>49.5</ele>
        <time>2022-08-11T10:56:38Z</time>
      </trkpt>
      <trkpt lat="44.87624" lon="0.83254">
        <ele>48.5</ele>
        <time>2022-08-11T10:56:39Z</time>
      </trkpt>
      <trkpt lat="44.87624" lon="0.83246">
        <ele>48.5</ele>
        <time>2022-08-11T10:56:40Z</time>
      </trkpt>
      <trkpt lat="44.87623" lon="0.83239">
        <ele>49.5</ele>
        <time>2022-08-11T10:56:41Z</time>
      </trkpt>
      <trkpt lat="44.87623" lon="0.83232">
        <ele>48.5</ele>
        <time>2022-08-11T10:56:42Z</time>
      </trkpt>
      <trkpt lat="44.87622" lon="0.83225">
        <ele>49.5</ele>
        <time>2022-08-11T10:56:43Z</time>
      </trkpt>
      <trkpt lat="44.87621" lon="0.83217">
        <ele>49.5</ele>
        <time>2022-08-11T10:56:44Z</time>
      </trkpt>
      <trkpt lat="44.87621" lon="0.8321">
        <ele>48.5</ele>
        <time>2022-08-11T10:56:45Z</time>
      </trkpt>
      <trkpt lat="44.8762" lon="0.83203">
        <ele>49.5</ele>
        <time>2022-08-11T10:56:46Z</time>
      </trkpt>
      <trkpt lat="44.8762" lon="0.83196">
        <ele>49.5</ele>
        <time>2022-08-11T10:56:47Z</time>
      </trkpt>
      <trkpt lat="44.8762" lon="0.83189">
        <ele>49.5</ele>
        <time>2022-08-11T10:56:48Z</time>
      </trkpt>
      <trkpt lat="44.8762" lon="0.83182">
        <ele>49.5</ele>
        <time>2022-08-11T10:56:49Z</time>
      </trkpt>
      <trkpt lat="44.87619" lon="0.83174">
        <ele>49.5</ele>
        <time>2022-08-11T10:56:50Z</time>
      </trkpt>
      <trkpt lat="44.87619" lon="0.83167">
        <ele>49.5</ele>
        <time>2022-08-11T10:56:51Z</time>
      </trkpt>
      <trkpt lat="44.87619" lon="0.83156">
        <ele>49.5</ele>
        <time>2022-08-11T10:56:53Z</time>
      </trkpt>
      <trkpt lat="44.87619" lon="0.83147">
        <ele>47.5</ele>
        <time>2022-08-11T10:56:55Z</time>
      </trkpt>
      <trkpt lat="44.87619" lon="0.83138">
        <ele>47.5</ele>
        <time>2022-08-11T10:56:57Z</time>
      </trkpt>
      <trkpt lat="44.87619" lon="0.83127">
        <ele>47.5</ele>
        <time>2022-08-11T10:56:59Z</time>
      </trkpt>
      <trkpt lat="44.87618" lon="0.83116">
        <ele>47.5</ele>
        <time>2022-08-11T10:57:01Z</time>
      </trkpt>
      <trkpt lat="44.87618" lon="0.83106">
        <ele>46.5</ele>
        <time>2022-08-11T10:57:03Z</time>
      </trkpt>
      <trkpt lat="44.87618" lon="0.83096">
        <ele>47.5</ele>
        <time>2022-08-11T10:57:05Z</time>
      </trkpt>
      <trkpt lat="44.87618" lon="0.83086">
        <ele>47.5</ele>
        <time>2022-08-11T10:57:07Z</time>
      </trkpt>
      <trkpt lat="44.87615" lon="0.8308">
        <ele>46.5</ele>
        <time>2022-08-11T10:57:10Z</time>
      </trkpt>
      <trkpt lat="44.87612" lon="0.83074">
        <ele>45.5</ele>
        <time>2022-08-11T10:57:12Z</time>
      </trkpt>
      <trkpt lat="44.87609" lon="0.83067">
        <ele>45.5</ele>
        <time>2022-08-11T10:57:14Z</time>
      </trkpt>
      <trkpt lat="44.87602" lon="0.8306">
        <ele>45.5</ele>
        <time>2022-08-11T10:57:16Z</time>
      </trkpt>
      <trkpt lat="44.87597" lon="0.83057">
        <ele>45.5</ele>
        <time>2022-08-11T10:57:18Z</time>
      </trkpt>
      <trkpt lat="44.87592" lon="0.83056">
        <ele>44.5</ele>
        <time>2022-08-11T10:57:20Z</time>
      </trkpt>
      <trkpt lat="44.87586" lon="0.83053">
        <ele>44.5</ele>
        <time>2022-08-11T10:57:22Z</time>
      </trkpt>
      <trkpt lat="44.8758" lon="0.8305">
        <ele>44.5</ele>
        <time>2022-08-11T10:57:24Z</time>
      </trkpt>
      <trkpt lat="44.87575" lon="0.83049">
        <ele>44.5</ele>
        <time>2022-08-11T10:57:26Z</time>
      </trkpt>
      <trkpt lat="44.87569" lon="0.83052">
        <ele>44.5</ele>
        <time>2022-08-11T10:57:29Z</time>
      </trkpt>
      <trkpt lat="44.87568" lon="0.8306">
        <ele>43.5</ele>
        <time>2022-08-11T10:57:32Z</time>
      </trkpt>
      <trkpt lat="44.87566" lon="0.83067">
        <ele>43.5</ele>
        <time>2022-08-11T10:57:35Z</time>
      </trkpt>
      <trkpt lat="44.87563" lon="0.83072">
        <ele>43.5</ele>
        <time>2022-08-11T10:57:38Z</time>
      </trkpt>
      <trkpt lat="44.87563" lon="0.83079">
        <ele>42.5</ele>
        <time>2022-08-11T10:57:42Z</time>
      </trkpt>
      <trkpt lat="44.87567" lon="0.83084">
        <ele>38.5</ele>
        <time>2022-08-11T10:57:46Z</time>
      </trkpt>
      <trkpt lat="44.87564" lon="0.83077">
        <ele>46.5</ele>
        <time>2022-08-11T10:58:17Z</time>
      </trkpt>
      <trkpt lat="44.87566" lon="0.8307">
        <ele>46.5</ele>
        <time>2022-08-11T10:58:19Z</time>
      </trkpt>
      <trkpt lat="44.87568" lon="0.83064">
        <ele>44.5</ele>
        <time>2022-08-11T10:58:21Z</time>
      </trkpt>
      <trkpt lat="44.8757" lon="0.83058">
        <ele>43.5</ele>
        <time>2022-08-11T10:58:25Z</time>
      </trkpt>
      <trkpt lat="44.87571" lon="0.83052">
        <ele>42.5</ele>
        <time>2022-08-11T10:58:31Z</time>
      </trkpt>
      <trkpt lat="44.87577" lon="0.8305">
        <ele>44.5</ele>
        <time>2022-08-11T10:58:33Z</time>
      </trkpt>
      <trkpt lat="44.87581" lon="0.83052">
        <ele>44.5</ele>
        <time>2022-08-11T10:58:35Z</time>
      </trkpt>
      <trkpt lat="44.87588" lon="0.83054">
        <ele>44.5</ele>
        <time>2022-08-11T10:58:38Z</time>
      </trkpt>
      <trkpt lat="44.87593" lon="0.83056">
        <ele>44.5</ele>
        <time>2022-08-11T10:58:40Z</time>
      </trkpt>
      <trkpt lat="44.87598" lon="0.83059">
        <ele>43.5</ele>
        <time>2022-08-11T10:58:42Z</time>
      </trkpt>
      <trkpt lat="44.87603" lon="0.83063">
        <ele>42.5</ele>
        <time>2022-08-11T10:58:45Z</time>
      </trkpt>
      <trkpt lat="44.87607" lon="0.83067">
        <ele>42.5</ele>
        <time>2022-08-11T10:58:47Z</time>
      </trkpt>
      <trkpt lat="44.87612" lon="0.83071">
        <ele>40.5</ele>
        <time>2022-08-11T10:58:49Z</time>
      </trkpt>
      <trkpt lat="44.87617" lon="0.83072">
        <ele>40.5</ele>
        <time>2022-08-11T10:58:51Z</time>
      </trkpt>
      <trkpt lat="44.87624" lon="0.83072">
        <ele>39.5</ele>
        <time>2022-08-11T10:58:54Z</time>
      </trkpt>
      <trkpt lat="44.87629" lon="0.83071">
        <ele>37.5</ele>
        <time>2022-08-11T10:58:57Z</time>
      </trkpt>
      <trkpt lat="44.87635" lon="0.83071">
        <ele>38.5</ele>
        <time>2022-08-11T10:59:00Z</time>
      </trkpt>
      <trkpt lat="44.8764" lon="0.83075">
        <ele>38.5</ele>
        <time>2022-08-11T10:59:04Z</time>
      </trkpt>
      <trkpt lat="44.87645" lon="0.83074">
        <ele>37.5</ele>
        <time>2022-08-11T10:59:07Z</time>
      </trkpt>
      <trkpt lat="44.87651" lon="0.83075">
        <ele>37.5</ele>
        <time>2022-08-11T10:59:09Z</time>
      </trkpt>
      <trkpt lat="44.87657" lon="0.83077">
        <ele>36.5</ele>
        <time>2022-08-11T10:59:11Z</time>
      </trkpt>
      <trkpt lat="44.87663" lon="0.83077">
        <ele>35.5</ele>
        <time>2022-08-11T10:59:13Z</time>
      </trkpt>
      <trkpt lat="44.87669" lon="0.83082">
        <ele>35.5</ele>
        <time>2022-08-11T10:59:15Z</time>
      </trkpt>
      <trkpt lat="44.87676" lon="0.83084">
        <ele>35.5</ele>
        <time>2022-08-11T10:59:17Z</time>
      </trkpt>
      <trkpt lat="44.87684" lon="0.83084">
        <ele>35.5</ele>
        <time>2022-08-11T10:59:19Z</time>
      </trkpt>
      <trkpt lat="44.87692" lon="0.83084">
        <ele>35.5</ele>
        <time>2022-08-11T10:59:21Z</time>
      </trkpt>
      <trkpt lat="44.87699" lon="0.83081">
        <ele>35.5</ele>
        <time>2022-08-11T10:59:23Z</time>
      </trkpt>
      <trkpt lat="44.87707" lon="0.83079">
        <ele>36.5</ele>
        <time>2022-08-11T10:59:25Z</time>
      </trkpt>
      <trkpt lat="44.87716" lon="0.83076">
        <ele>37.5</ele>
        <time>2022-08-11T10:59:27Z</time>
      </trkpt>
      <trkpt lat="44.8772" lon="0.83075">
        <ele>37.5</ele>
        <time>2022-08-11T10:59:28Z</time>
      </trkpt>
      <trkpt lat="44.87725" lon="0.83074">
        <ele>38.5</ele>
        <time>2022-08-11T10:59:29Z</time>
      </trkpt>
      <trkpt lat="44.8773" lon="0.83072">
        <ele>38.5</ele>
        <time>2022-08-11T10:59:30Z</time>
      </trkpt>
      <trkpt lat="44.87734" lon="0.8307">
        <ele>39.5</ele>
        <time>2022-08-11T10:59:31Z</time>
      </trkpt>
      <trkpt lat="44.87742" lon="0.83065">
        <ele>40.5</ele>
        <time>2022-08-11T10:59:33Z</time>
      </trkpt>
      <trkpt lat="44.87748" lon="0.8306">
        <ele>40.5</ele>
        <time>2022-08-11T10:59:35Z</time>
      </trkpt>
      <trkpt lat="44.87754" lon="0.83052">
        <ele>40.5</ele>
        <time>2022-08-11T10:59:37Z</time>
      </trkpt>
      <trkpt lat="44.8776" lon="0.83043">
        <ele>41.5</ele>
        <time>2022-08-11T10:59:39Z</time>
      </trkpt>
      <trkpt lat="44.87762" lon="0.83034">
        <ele>43.5</ele>
        <time>2022-08-11T10:59:41Z</time>
      </trkpt>
      <trkpt lat="44.87763" lon="0.83023">
        <ele>44.5</ele>
        <time>2022-08-11T10:59:43Z</time>
      </trkpt>
      <trkpt lat="44.87764" lon="0.83011">
        <ele>45.5</ele>
        <time>2022-08-11T10:59:45Z</time>
      </trkpt>
      <trkpt lat="44.87764" lon="0.83005">
        <ele>46.5</ele>
        <time>2022-08-11T10:59:46Z</time>
      </trkpt>
      <trkpt lat="44.87763" lon="0.82998">
        <ele>46.5</ele>
        <time>2022-08-11T10:59:47Z</time>
      </trkpt>
      <trkpt lat="44.87763" lon="0.82991">
        <ele>47.5</ele>
        <time>2022-08-11T10:59:48Z</time>
      </trkpt>
      <trkpt lat="44.87762" lon="0.82985">
        <ele>47.5</ele>
        <time>2022-08-11T10:59:49Z</time>
      </trkpt>
      <trkpt lat="44.87761" lon="0.82972">
        <ele>48.5</ele>
        <time>2022-08-11T10:59:51Z</time>
      </trkpt>
      <trkpt lat="44.8776" lon="0.82966">
        <ele>49.5</ele>
        <time>2022-08-11T10:59:52Z</time>
      </trkpt>
      <trkpt lat="44.87758" lon="0.82954">
        <ele>49.5</ele>
        <time>2022-08-11T10:59:54Z</time>
      </trkpt>
      <trkpt lat="44.87756" lon="0.82943">
        <ele>49.5</ele>
        <time>2022-08-11T10:59:56Z</time>
      </trkpt>
      <trkpt lat="44.87755" lon="0.82932">
        <ele>49.5</ele>
        <time>2022-08-11T10:59:58Z</time>
      </trkpt>
      <trkpt lat="44.87754" lon="0.82921">
        <ele>49.5</ele>
        <time>2022-08-11T11:00:00Z</time>
      </trkpt>
      <trkpt lat="44.87752" lon="0.82911">
        <ele>49.5</ele>
        <time>2022-08-11T11:00:02Z</time>
      </trkpt>
      <trkpt lat="44.87752" lon="0.82901">
        <ele>49.5</ele>
        <time>2022-08-11T11:00:04Z</time>
      </trkpt>
      <trkpt lat="44.87751" lon="0.82891">
        <ele>49.5</ele>
        <time>2022-08-11T11:00:06Z</time>
      </trkpt>
      <trkpt lat="44.87752" lon="0.82882">
        <ele>48.5</ele>
        <time>2022-08-11T11:00:08Z</time>
      </trkpt>
      <trkpt lat="44.87754" lon="0.82872">
        <ele>48.5</ele>
        <time>2022-08-11T11:00:10Z</time>
      </trkpt>
      <trkpt lat="44.87756" lon="0.82864">
        <ele>49.5</ele>
        <time>2022-08-11T11:00:12Z</time>
      </trkpt>
      <trkpt lat="44.87759" lon="0.82856">
        <ele>49.5</ele>
        <time>2022-08-11T11:00:14Z</time>
      </trkpt>
      <trkpt lat="44.87763" lon="0.8285">
        <ele>48.5</ele>
        <time>2022-08-11T11:00:16Z</time>
      </trkpt>
      <trkpt lat="44.87767" lon="0.82843">
        <ele>48.5</ele>
        <time>2022-08-11T11:00:18Z</time>
      </trkpt>
      <trkpt lat="44.8777" lon="0.82838">
        <ele>48.5</ele>
        <time>2022-08-11T11:00:20Z</time>
      </trkpt>
      <trkpt lat="44.87774" lon="0.82832">
        <ele>48.5</ele>
        <time>2022-08-11T11:00:24Z</time>
      </trkpt>
      <trkpt lat="44.87779" lon="0.8283">
        <ele>48.5</ele>
        <time>2022-08-11T11:00:27Z</time>
      </trkpt>
      <trkpt lat="44.87783" lon="0.82826">
        <ele>47.5</ele>
        <time>2022-08-11T11:00:30Z</time>
      </trkpt>
      <trkpt lat="44.87776" lon="0.82828">
        <ele>47.5</ele>
        <time>2022-08-11T11:00:33Z</time>
      </trkpt>
      <trkpt lat="44.8777" lon="0.82832">
        <ele>47.5</ele>
        <time>2022-08-11T11:00:35Z</time>
      </trkpt>
      <trkpt lat="44.87766" lon="0.82838">
        <ele>47.5</ele>
        <time>2022-08-11T11:00:37Z</time>
      </trkpt>
      <trkpt lat="44.87763" lon="0.82844">
        <ele>47.5</ele>
        <time>2022-08-11T11:00:39Z</time>
      </trkpt>
      <trkpt lat="44.8776" lon="0.82852">
        <ele>47.5</ele>
        <time>2022-08-11T11:00:41Z</time>
      </trkpt>
      <trkpt lat="44.87758" lon="0.8286">
        <ele>47.5</ele>
        <time>2022-08-11T11:00:43Z</time>
      </trkpt>
      <trkpt lat="44.87755" lon="0.82869">
        <ele>47.5</ele>
        <time>2022-08-11T11:00:45Z</time>
      </trkpt>
      <trkpt lat="44.87754" lon="0.82877">
        <ele>47.5</ele>
        <time>2022-08-11T11:00:47Z</time>
      </trkpt>
      <trkpt lat="44.87753" lon="0.82888">
        <ele>46.5</ele>
        <time>2022-08-11T11:00:49Z</time>
      </trkpt>
      <trkpt lat="44.87753" lon="0.82898">
        <ele>46.5</ele>
        <time>2022-08-11T11:00:51Z</time>
      </trkpt>
      <trkpt lat="44.87753" lon="0.82908">
        <ele>45.5</ele>
        <time>2022-08-11T11:00:53Z</time>
      </trkpt>
      <trkpt lat="44.87755" lon="0.82918">
        <ele>44.5</ele>
        <time>2022-08-11T11:00:55Z</time>
      </trkpt>
      <trkpt lat="44.87759" lon="0.82924">
        <ele>44.5</ele>
        <time>2022-08-11T11:00:57Z</time>
      </trkpt>
      <trkpt lat="44.87765" lon="0.82925">
        <ele>43.5</ele>
        <time>2022-08-11T11:00:59Z</time>
      </trkpt>
      <trkpt lat="44.87769" lon="0.82921">
        <ele>43.5</ele>
        <time>2022-08-11T11:01:02Z</time>
      </trkpt>
      <trkpt lat="44.87773" lon="0.82917">
        <ele>43.5</ele>
        <time>2022-08-11T11:01:05Z</time>
      </trkpt>
      <trkpt lat="44.87771" lon="0.82911">
        <ele>46.5</ele>
        <time>2022-08-11T11:02:06Z</time>
      </trkpt>
      <trkpt lat="44.87775" lon="0.82915">
        <ele>42.5</ele>
        <time>2022-08-11T11:02:38Z</time>
      </trkpt>
      <trkpt lat="44.87771" lon="0.82912">
        <ele>41.5</ele>
        <time>2022-08-11T11:02:56Z</time>
      </trkpt>
      <trkpt lat="44.87768" lon="0.82917">
        <ele>56.5</ele>
        <time>2022-08-11T11:10:01Z</time>
      </trkpt>
      <trkpt lat="44.87789" lon="0.82913">
        <ele>57.5</ele>
        <time>2022-08-11T12:04:30Z</time>
      </trkpt>
      <trkpt lat="44.8779" lon="0.8292">
        <ele>49.5</ele>
        <time>2022-08-11T12:06:56Z</time>
      </trkpt>
      <trkpt lat="44.87786" lon="0.82918">
        <ele>47.5</ele>
        <time>2022-08-11T12:07:47Z</time>
      </trkpt>
      <trkpt lat="44.87781" lon="0.82921">
        <ele>45.5</ele>
        <time>2022-08-11T12:07:51Z</time>
      </trkpt>
      <trkpt lat="44.87776" lon="0.82924">
        <ele>45.5</ele>
        <time>2022-08-11T12:07:54Z</time>
      </trkpt>
      <trkpt lat="44.87772" lon="0.82926">
        <ele>44.5</ele>
        <time>2022-08-11T12:07:56Z</time>
      </trkpt>
      <trkpt lat="44.87767" lon="0.82929">
        <ele>44.5</ele>
        <time>2022-08-11T12:07:58Z</time>
      </trkpt>
      <trkpt lat="44.87763" lon="0.82932">
        <ele>44.5</ele>
        <time>2022-08-11T12:08:00Z</time>
      </trkpt>
      <trkpt lat="44.87759" lon="0.82938">
        <ele>44.5</ele>
        <time>2022-08-11T12:08:02Z</time>
      </trkpt>
      <trkpt lat="44.87759" lon="0.82947">
        <ele>45.5</ele>
        <time>2022-08-11T12:08:04Z</time>
      </trkpt>
      <trkpt lat="44.8776" lon="0.82955">
        <ele>46.5</ele>
        <time>2022-08-11T12:08:07Z</time>
      </trkpt>
      <trkpt lat="44.87759" lon="0.82963">
        <ele>47.5</ele>
        <time>2022-08-11T12:08:09Z</time>
      </trkpt>
      <trkpt lat="44.87759" lon="0.8297">
        <ele>47.5</ele>
        <time>2022-08-11T12:08:12Z</time>
      </trkpt>
      <trkpt lat="44.87758" lon="0.82977">
        <ele>48.5</ele>
        <time>2022-08-11T12:08:30Z</time>
      </trkpt>
      <trkpt lat="44.87759" lon="0.82986">
        <ele>48.5</ele>
        <time>2022-08-11T12:08:33Z</time>
      </trkpt>
      <trkpt lat="44.87761" lon="0.82994">
        <ele>48.5</ele>
        <time>2022-08-11T12:08:35Z</time>
      </trkpt>
      <trkpt lat="44.87763" lon="0.83003">
        <ele>48.5</ele>
        <time>2022-08-11T12:08:37Z</time>
      </trkpt>
      <trkpt lat="44.87764" lon="0.83012">
        <ele>48.5</ele>
        <time>2022-08-11T12:08:39Z</time>
      </trkpt>
      <trkpt lat="44.87765" lon="0.83021">
        <ele>48.5</ele>
        <time>2022-08-11T12:08:41Z</time>
      </trkpt>
      <trkpt lat="44.87765" lon="0.83031">
        <ele>48.5</ele>
        <time>2022-08-11T12:08:43Z</time>
      </trkpt>
      <trkpt lat="44.87764" lon="0.83042">
        <ele>48.5</ele>
        <time>2022-08-11T12:08:45Z</time>
      </trkpt>
      <trkpt lat="44.87762" lon="0.83052">
        <ele>47.5</ele>
        <time>2022-08-11T12:08:47Z</time>
      </trkpt>
      <trkpt lat="44.87758" lon="0.83061">
        <ele>46.5</ele>
        <time>2022-08-11T12:08:49Z</time>
      </trkpt>
      <trkpt lat="44.87753" lon="0.83067">
        <ele>45.5</ele>
        <time>2022-08-11T12:08:51Z</time>
      </trkpt>
      <trkpt lat="44.87756" lon="0.83074">
        <ele>45.5</ele>
        <time>2022-08-11T12:08:56Z</time>
      </trkpt>
      <trkpt lat="44.8776" lon="0.83078">
        <ele>45.5</ele>
        <time>2022-08-11T12:08:58Z</time>
      </trkpt>
      <trkpt lat="44.87764" lon="0.83084">
        <ele>46.5</ele>
        <time>2022-08-11T12:09:00Z</time>
      </trkpt>
      <trkpt lat="44.87767" lon="0.8309">
        <ele>46.5</ele>
        <time>2022-08-11T12:09:02Z</time>
      </trkpt>
      <trkpt lat="44.8777" lon="0.83096">
        <ele>47.5</ele>
        <time>2022-08-11T12:09:04Z</time>
      </trkpt>
      <trkpt lat="44.87773" lon="0.83106">
        <ele>47.5</ele>
        <time>2022-08-11T12:09:07Z</time>
      </trkpt>
      <trkpt lat="44.87772" lon="0.83115">
        <ele>47.5</ele>
        <time>2022-08-11T12:09:09Z</time>
      </trkpt>
      <trkpt lat="44.87771" lon="0.83128">
        <ele>48.5</ele>
        <time>2022-08-11T12:09:12Z</time>
      </trkpt>
      <trkpt lat="44.87771" lon="0.83137">
        <ele>48.5</ele>
        <time>2022-08-11T12:09:14Z</time>
      </trkpt>
      <trkpt lat="44.87772" lon="0.83146">
        <ele>49.5</ele>
        <time>2022-08-11T12:09:16Z</time>
      </trkpt>
      <trkpt lat="44.87773" lon="0.83154">
        <ele>48.5</ele>
        <time>2022-08-11T12:09:18Z</time>
      </trkpt>
      <trkpt lat="44.87774" lon="0.8316">
        <ele>49.5</ele>
        <time>2022-08-11T12:09:20Z</time>
      </trkpt>
      <trkpt lat="44.87773" lon="0.83168">
        <ele>49.5</ele>
        <time>2022-08-11T12:09:23Z</time>
      </trkpt>
      <trkpt lat="44.87775" lon="0.83161">
        <ele>49.5</ele>
        <time>2022-08-11T12:09:28Z</time>
      </trkpt>
      <trkpt lat="44.87775" lon="0.83153">
        <ele>49.5</ele>
        <time>2022-08-11T12:09:30Z</time>
      </trkpt>
      <trkpt lat="44.87776" lon="0.83143">
        <ele>50.5</ele>
        <time>2022-08-11T12:09:32Z</time>
      </trkpt>
      <trkpt lat="44.87777" lon="0.83134">
        <ele>51.5</ele>
        <time>2022-08-11T12:09:34Z</time>
      </trkpt>
      <trkpt lat="44.87777" lon="0.83126">
        <ele>51.5</ele>
        <time>2022-08-11T12:09:36Z</time>
      </trkpt>
      <trkpt lat="44.87777" lon="0.83118">
        <ele>51.5</ele>
        <time>2022-08-11T12:09:38Z</time>
      </trkpt>
      <trkpt lat="44.87777" lon="0.83109">
        <ele>51.5</ele>
        <time>2022-08-11T12:09:40Z</time>
      </trkpt>
      <trkpt lat="44.87775" lon="0.83099">
        <ele>51.5</ele>
        <time>2022-08-11T12:09:43Z</time>
      </trkpt>
      <trkpt lat="44.87772" lon="0.8309">
        <ele>49.5</ele>
        <time>2022-08-11T12:09:45Z</time>
      </trkpt>
      <trkpt lat="44.87769" lon="0.8308">
        <ele>48.5</ele>
        <time>2022-08-11T12:09:47Z</time>
      </trkpt>
      <trkpt lat="44.87766" lon="0.83071">
        <ele>46.5</ele>
        <time>2022-08-11T12:09:49Z</time>
      </trkpt>
      <trkpt lat="44.87762" lon="0.83067">
        <ele>45.5</ele>
        <time>2022-08-11T12:09:51Z</time>
      </trkpt>
      <trkpt lat="44.87756" lon="0.83068">
        <ele>43.5</ele>
        <time>2022-08-11T12:09:53Z</time>
      </trkpt>
      <trkpt lat="44.87749" lon="0.8307">
        <ele>42.5</ele>
        <time>2022-08-11T12:09:55Z</time>
      </trkpt>
      <trkpt lat="44.87741" lon="0.83074">
        <ele>41.5</ele>
        <time>2022-08-11T12:09:57Z</time>
      </trkpt>
      <trkpt lat="44.87737" lon="0.83076">
        <ele>43.5</ele>
        <time>2022-08-11T12:09:58Z</time>
      </trkpt>
      <trkpt lat="44.87732" lon="0.83078">
        <ele>43.5</ele>
        <time>2022-08-11T12:09:59Z</time>
      </trkpt>
      <trkpt lat="44.87725" lon="0.83084">
        <ele>43.5</ele>
        <time>2022-08-11T12:10:01Z</time>
      </trkpt>
      <trkpt lat="44.87717" lon="0.83089">
        <ele>44.5</ele>
        <time>2022-08-11T12:10:03Z</time>
      </trkpt>
      <trkpt lat="44.8771" lon="0.8309">
        <ele>43.5</ele>
        <time>2022-08-11T12:10:05Z</time>
      </trkpt>
      <trkpt lat="44.87702" lon="0.83089">
        <ele>42.5</ele>
        <time>2022-08-11T12:10:07Z</time>
      </trkpt>
      <trkpt lat="44.87693" lon="0.83087">
        <ele>41.5</ele>
        <time>2022-08-11T12:10:09Z</time>
      </trkpt>
      <trkpt lat="44.87686" lon="0.83085">
        <ele>40.5</ele>
        <time>2022-08-11T12:10:11Z</time>
      </trkpt>
      <trkpt lat="44.87679" lon="0.83085">
        <ele>40.5</ele>
        <time>2022-08-11T12:10:13Z</time>
      </trkpt>
      <trkpt lat="44.8767" lon="0.83085">
        <ele>39.5</ele>
        <time>2022-08-11T12:10:15Z</time>
      </trkpt>
      <trkpt lat="44.87662" lon="0.83084">
        <ele>38.5</ele>
        <time>2022-08-11T12:10:17Z</time>
      </trkpt>
      <trkpt lat="44.87654" lon="0.83083">
        <ele>36.5</ele>
        <time>2022-08-11T12:10:19Z</time>
      </trkpt>
      <trkpt lat="44.87646" lon="0.83082">
        <ele>34.5</ele>
        <time>2022-08-11T12:10:21Z</time>
      </trkpt>
      <trkpt lat="44.87639" lon="0.83081">
        <ele>33.5</ele>
        <time>2022-08-11T12:10:23Z</time>
      </trkpt>
      <trkpt lat="44.87633" lon="0.8308">
        <ele>32.5</ele>
        <time>2022-08-11T12:10:25Z</time>
      </trkpt>
      <trkpt lat="44.87627" lon="0.83078">
        <ele>31.5</ele>
        <time>2022-08-11T12:10:27Z</time>
      </trkpt>
      <trkpt lat="44.87622" lon="0.83077">
        <ele>30.5</ele>
        <time>2022-08-11T12:10:29Z</time>
      </trkpt>
      <trkpt lat="44.87618" lon="0.8308">
        <ele>29.5</ele>
        <time>2022-08-11T12:10:31Z</time>
      </trkpt>
      <trkpt lat="44.87617" lon="0.83089">
        <ele>30.5</ele>
        <time>2022-08-11T12:10:33Z</time>
      </trkpt>
      <trkpt lat="44.87617" lon="0.83097">
        <ele>30.5</ele>
        <time>2022-08-11T12:10:35Z</time>
      </trkpt>
      <trkpt lat="44.87618" lon="0.83107">
        <ele>30.5</ele>
        <time>2022-08-11T12:10:37Z</time>
      </trkpt>
      <trkpt lat="44.87619" lon="0.83118">
        <ele>31.5</ele>
        <time>2022-08-11T12:10:39Z</time>
      </trkpt>
      <trkpt lat="44.87619" lon="0.83131">
        <ele>32.5</ele>
        <time>2022-08-11T12:10:41Z</time>
      </trkpt>
      <trkpt lat="44.8762" lon="0.83137">
        <ele>32.5</ele>
        <time>2022-08-11T12:10:42Z</time>
      </trkpt>
      <trkpt lat="44.8762" lon="0.83144">
        <ele>33.5</ele>
        <time>2022-08-11T12:10:43Z</time>
      </trkpt>
      <trkpt lat="44.8762" lon="0.83152">
        <ele>34.5</ele>
        <time>2022-08-11T12:10:44Z</time>
      </trkpt>
      <trkpt lat="44.87619" lon="0.83159">
        <ele>36.5</ele>
        <time>2022-08-11T12:10:45Z</time>
      </trkpt>
      <trkpt lat="44.87618" lon="0.83167">
        <ele>37.5</ele>
        <time>2022-08-11T12:10:46Z</time>
      </trkpt>
      <trkpt lat="44.87618" lon="0.83175">
        <ele>39.5</ele>
        <time>2022-08-11T12:10:47Z</time>
      </trkpt>
      <trkpt lat="44.87618" lon="0.83183">
        <ele>39.5</ele>
        <time>2022-08-11T12:10:48Z</time>
      </trkpt>
      <trkpt lat="44.87619" lon="0.83191">
        <ele>40.5</ele>
        <time>2022-08-11T12:10:49Z</time>
      </trkpt>
      <trkpt lat="44.87619" lon="0.83197">
        <ele>40.5</ele>
        <time>2022-08-11T12:10:50Z</time>
      </trkpt>
      <trkpt lat="44.8762" lon="0.83204">
        <ele>40.5</ele>
        <time>2022-08-11T12:10:51Z</time>
      </trkpt>
      <trkpt lat="44.8762" lon="0.83211">
        <ele>41.5</ele>
        <time>2022-08-11T12:10:52Z</time>
      </trkpt>
      <trkpt lat="44.87621" lon="0.83219">
        <ele>41.5</ele>
        <time>2022-08-11T12:10:53Z</time>
      </trkpt>
      <trkpt lat="44.87621" lon="0.83225">
        <ele>41.5</ele>
        <time>2022-08-11T12:10:54Z</time>
      </trkpt>
      <trkpt lat="44.87622" lon="0.83238">
        <ele>41.5</ele>
        <time>2022-08-11T12:10:56Z</time>
      </trkpt>
      <trkpt lat="44.87623" lon="0.83245">
        <ele>41.5</ele>
        <time>2022-08-11T12:10:57Z</time>
      </trkpt>
      <trkpt lat="44.87623" lon="0.83251">
        <ele>40.5</ele>
        <time>2022-08-11T12:10:58Z</time>
      </trkpt>
      <trkpt lat="44.87624" lon="0.83264">
        <ele>40.5</ele>
        <time>2022-08-11T12:11:00Z</time>
      </trkpt>
      <trkpt lat="44.87626" lon="0.83275">
        <ele>41.5</ele>
        <time>2022-08-11T12:11:02Z</time>
      </trkpt>
      <trkpt lat="44.87627" lon="0.83286">
        <ele>42.5</ele>
        <time>2022-08-11T12:11:04Z</time>
      </trkpt>
      <trkpt lat="44.87629" lon="0.83296">
        <ele>42.5</ele>
        <time>2022-08-11T12:11:06Z</time>
      </trkpt>
      <trkpt lat="44.8763" lon="0.83307">
        <ele>43.5</ele>
        <time>2022-08-11T12:11:08Z</time>
      </trkpt>
      <trkpt lat="44.8763" lon="0.83317">
        <ele>43.5</ele>
        <time>2022-08-11T12:11:10Z</time>
      </trkpt>
      <trkpt lat="44.87631" lon="0.83326">
        <ele>43.5</ele>
        <time>2022-08-11T12:11:12Z</time>
      </trkpt>
      <trkpt lat="44.87632" lon="0.83335">
        <ele>43.5</ele>
        <time>2022-08-11T12:11:14Z</time>
      </trkpt>
      <trkpt lat="44.87632" lon="0.83345">
        <ele>43.5</ele>
        <time>2022-08-11T12:11:16Z</time>
      </trkpt>
      <trkpt lat="44.87632" lon="0.83355">
        <ele>43.5</ele>
        <time>2022-08-11T12:11:18Z</time>
      </trkpt>
      <trkpt lat="44.87633" lon="0.83366">
        <ele>44.5</ele>
        <time>2022-08-11T12:11:20Z</time>
      </trkpt>
      <trkpt lat="44.87634" lon="0.83377">
        <ele>44.5</ele>
        <time>2022-08-11T12:11:22Z</time>
      </trkpt>
      <trkpt lat="44.87636" lon="0.83388">
        <ele>44.5</ele>
        <time>2022-08-11T12:11:24Z</time>
      </trkpt>
      <trkpt lat="44.87637" lon="0.83398">
        <ele>45.5</ele>
        <time>2022-08-11T12:11:26Z</time>
      </trkpt>
      <trkpt lat="44.87638" lon="0.83408">
        <ele>45.5</ele>
        <time>2022-08-11T12:11:28Z</time>
      </trkpt>
      <trkpt lat="44.87639" lon="0.83418">
        <ele>45.5</ele>
        <time>2022-08-11T12:11:30Z</time>
      </trkpt>
      <trkpt lat="44.87641" lon="0.83429">
        <ele>45.5</ele>
        <time>2022-08-11T12:11:32Z</time>
      </trkpt>
      <trkpt lat="44.87643" lon="0.83439">
        <ele>45.5</ele>
        <time>2022-08-11T12:11:34Z</time>
      </trkpt>
      <trkpt lat="44.87645" lon="0.83449">
        <ele>45.5</ele>
        <time>2022-08-11T12:11:36Z</time>
      </trkpt>
      <trkpt lat="44.87647" lon="0.8346">
        <ele>45.5</ele>
        <time>2022-08-11T12:11:38Z</time>
      </trkpt>
      <trkpt lat="44.8765" lon="0.83472">
        <ele>45.5</ele>
        <time>2022-08-11T12:11:40Z</time>
      </trkpt>
      <trkpt lat="44.87652" lon="0.83483">
        <ele>45.5</ele>
        <time>2022-08-11T12:11:42Z</time>
      </trkpt>
      <trkpt lat="44.87655" lon="0.83495">
        <ele>45.5</ele>
        <time>2022-08-11T12:11:44Z</time>
      </trkpt>
      <trkpt lat="44.87658" lon="0.83506">
        <ele>45.5</ele>
        <time>2022-08-11T12:11:46Z</time>
      </trkpt>
      <trkpt lat="44.87659" lon="0.83517">
        <ele>45.5</ele>
        <time>2022-08-11T12:11:48Z</time>
      </trkpt>
      <trkpt lat="44.87659" lon="0.83529">
        <ele>44.5</ele>
        <time>2022-08-11T12:11:50Z</time>
      </trkpt>
      <trkpt lat="44.87661" lon="0.83535">
        <ele>44.5</ele>
        <time>2022-08-11T12:11:51Z</time>
      </trkpt>
      <trkpt lat="44.87663" lon="0.83542">
        <ele>43.5</ele>
        <time>2022-08-11T12:11:52Z</time>
      </trkpt>
      <trkpt lat="44.87665" lon="0.83553">
        <ele>43.5</ele>
        <time>2022-08-11T12:11:54Z</time>
      </trkpt>
      <trkpt lat="44.87667" lon="0.83563">
        <ele>44.5</ele>
        <time>2022-08-11T12:11:56Z</time>
      </trkpt>
      <trkpt lat="44.87669" lon="0.83572">
        <ele>44.5</ele>
        <time>2022-08-11T12:11:58Z</time>
      </trkpt>
      <trkpt lat="44.87672" lon="0.83582">
        <ele>45.5</ele>
        <time>2022-08-11T12:12:00Z</time>
      </trkpt>
      <trkpt lat="44.87675" lon="0.83593">
        <ele>44.5</ele>
        <time>2022-08-11T12:12:02Z</time>
      </trkpt>
      <trkpt lat="44.87679" lon="0.83603">
        <ele>44.5</ele>
        <time>2022-08-11T12:12:04Z</time>
      </trkpt>
      <trkpt lat="44.87684" lon="0.83617">
        <ele>45.5</ele>
        <time>2022-08-11T12:12:07Z</time>
      </trkpt>
      <trkpt lat="44.87687" lon="0.83626">
        <ele>45.5</ele>
        <time>2022-08-11T12:12:09Z</time>
      </trkpt>
      <trkpt lat="44.8769" lon="0.83635">
        <ele>45.5</ele>
        <time>2022-08-11T12:12:11Z</time>
      </trkpt>
      <trkpt lat="44.87693" lon="0.83646">
        <ele>45.5</ele>
        <time>2022-08-11T12:12:13Z</time>
      </trkpt>
      <trkpt lat="44.87695" lon="0.83656">
        <ele>44.5</ele>
        <time>2022-08-11T12:12:15Z</time>
      </trkpt>
      <trkpt lat="44.87698" lon="0.83666">
        <ele>44.5</ele>
        <time>2022-08-11T12:12:17Z</time>
      </trkpt>
      <trkpt lat="44.87702" lon="0.83675">
        <ele>44.5</ele>
        <time>2022-08-11T12:12:19Z</time>
      </trkpt>
      <trkpt lat="44.87705" lon="0.83685">
        <ele>46.5</ele>
        <time>2022-08-11T12:12:21Z</time>
      </trkpt>
      <trkpt lat="44.87708" lon="0.83693">
        <ele>48.5</ele>
        <time>2022-08-11T12:12:23Z</time>
      </trkpt>
      <trkpt lat="44.87714" lon="0.83708">
        <ele>50.5</ele>
        <time>2022-08-11T12:12:26Z</time>
      </trkpt>
      <trkpt lat="44.87718" lon="0.83718">
        <ele>52.5</ele>
        <time>2022-08-11T12:12:28Z</time>
      </trkpt>
      <trkpt lat="44.8772" lon="0.83723">
        <ele>52.5</ele>
        <time>2022-08-11T12:12:29Z</time>
      </trkpt>
      <trkpt lat="44.87723" lon="0.83728">
        <ele>52.5</ele>
        <time>2022-08-11T12:12:30Z</time>
      </trkpt>
      <trkpt lat="44.87728" lon="0.83736">
        <ele>53.5</ele>
        <time>2022-08-11T12:12:32Z</time>
      </trkpt>
      <trkpt lat="44.87732" lon="0.83744">
        <ele>53.5</ele>
        <time>2022-08-11T12:12:34Z</time>
      </trkpt>
      <trkpt lat="44.87736" lon="0.8375">
        <ele>54.5</ele>
        <time>2022-08-11T12:12:36Z</time>
      </trkpt>
      <trkpt lat="44.8774" lon="0.83758">
        <ele>54.5</ele>
        <time>2022-08-11T12:12:38Z</time>
      </trkpt>
      <trkpt lat="44.87745" lon="0.83765">
        <ele>55.5</ele>
        <time>2022-08-11T12:12:40Z</time>
      </trkpt>
      <trkpt lat="44.87751" lon="0.83771">
        <ele>54.5</ele>
        <time>2022-08-11T12:12:42Z</time>
      </trkpt>
      <trkpt lat="44.87757" lon="0.83779">
        <ele>54.5</ele>
        <time>2022-08-11T12:12:44Z</time>
      </trkpt>
      <trkpt lat="44.87761" lon="0.83786">
        <ele>55.5</ele>
        <time>2022-08-11T12:12:46Z</time>
      </trkpt>
      <trkpt lat="44.87767" lon="0.83792">
        <ele>55.5</ele>
        <time>2022-08-11T12:12:48Z</time>
      </trkpt>
      <trkpt lat="44.8777" lon="0.83797">
        <ele>55.5</ele>
        <time>2022-08-11T12:12:49Z</time>
      </trkpt>
      <trkpt lat="44.87775" lon="0.83806">
        <ele>56.5</ele>
        <time>2022-08-11T12:12:51Z</time>
      </trkpt>
      <trkpt lat="44.87782" lon="0.83813">
        <ele>56.5</ele>
        <time>2022-08-11T12:12:53Z</time>
      </trkpt>
      <trkpt lat="44.87789" lon="0.8382">
        <ele>56.5</ele>
        <time>2022-08-11T12:12:55Z</time>
      </trkpt>
      <trkpt lat="44.87793" lon="0.83824">
        <ele>56.5</ele>
        <time>2022-08-11T12:12:56Z</time>
      </trkpt>
      <trkpt lat="44.878" lon="0.83831">
        <ele>56.5</ele>
        <time>2022-08-11T12:12:58Z</time>
      </trkpt>
      <trkpt lat="44.87804" lon="0.83834">
        <ele>56.5</ele>
        <time>2022-08-11T12:12:59Z</time>
      </trkpt>
      <trkpt lat="44.87808" lon="0.83838">
        <ele>57.5</ele>
        <time>2022-08-11T12:13:00Z</time>
      </trkpt>
      <trkpt lat="44.87812" lon="0.83841">
        <ele>57.5</ele>
        <time>2022-08-11T12:13:01Z</time>
      </trkpt>
      <trkpt lat="44.87816" lon="0.83845">
        <ele>57.5</ele>
        <time>2022-08-11T12:13:02Z</time>
      </trkpt>
      <trkpt lat="44.8782" lon="0.83848">
        <ele>57.5</ele>
        <time>2022-08-11T12:13:03Z</time>
      </trkpt>
      <trkpt lat="44.87824" lon="0.83852">
        <ele>58.5</ele>
        <time>2022-08-11T12:13:04Z</time>
      </trkpt>
      <trkpt lat="44.87832" lon="0.83859">
        <ele>58.5</ele>
        <time>2022-08-11T12:13:06Z</time>
      </trkpt>
      <trkpt lat="44.87839" lon="0.83865">
        <ele>58.5</ele>
        <time>2022-08-11T12:13:08Z</time>
      </trkpt>
      <trkpt lat="44.87847" lon="0.83871">
        <ele>58.5</ele>
        <time>2022-08-11T12:13:10Z</time>
      </trkpt>
      <trkpt lat="44.87852" lon="0.83875">
        <ele>58.5</ele>
        <time>2022-08-11T12:13:11Z</time>
      </trkpt>
      <trkpt lat="44.87856" lon="0.83878">
        <ele>58.5</ele>
        <time>2022-08-11T12:13:12Z</time>
      </trkpt>
      <trkpt lat="44.87861" lon="0.8388">
        <ele>58.5</ele>
        <time>2022-08-11T12:13:13Z</time>
      </trkpt>
      <trkpt lat="44.87865" lon="0.83883">
        <ele>58.5</ele>
        <time>2022-08-11T12:13:14Z</time>
      </trkpt>
      <trkpt lat="44.87869" lon="0.83886">
        <ele>58.5</ele>
        <time>2022-08-11T12:13:15Z</time>
      </trkpt>
      <trkpt lat="44.87877" lon="0.83891">
        <ele>58.5</ele>
        <time>2022-08-11T12:13:17Z</time>
      </trkpt>
      <trkpt lat="44.87885" lon="0.83894">
        <ele>58.5</ele>
        <time>2022-08-11T12:13:19Z</time>
      </trkpt>
      <trkpt lat="44.8789" lon="0.83896">
        <ele>58.5</ele>
        <time>2022-08-11T12:13:20Z</time>
      </trkpt>
      <trkpt lat="44.87898" lon="0.839">
        <ele>57.5</ele>
        <time>2022-08-11T12:13:22Z</time>
      </trkpt>
      <trkpt lat="44.87903" lon="0.83901">
        <ele>57.5</ele>
        <time>2022-08-11T12:13:23Z</time>
      </trkpt>
      <trkpt lat="44.87907" lon="0.83903">
        <ele>57.5</ele>
        <time>2022-08-11T12:13:24Z</time>
      </trkpt>
      <trkpt lat="44.87912" lon="0.83905">
        <ele>57.5</ele>
        <time>2022-08-11T12:13:25Z</time>
      </trkpt>
      <trkpt lat="44.87917" lon="0.83906">
        <ele>58.5</ele>
        <time>2022-08-11T12:13:26Z</time>
      </trkpt>
      <trkpt lat="44.87921" lon="0.83908">
        <ele>57.5</ele>
        <time>2022-08-11T12:13:27Z</time>
      </trkpt>
      <trkpt lat="44.87926" lon="0.8391">
        <ele>57.5</ele>
        <time>2022-08-11T12:13:28Z</time>
      </trkpt>
      <trkpt lat="44.87931" lon="0.83911">
        <ele>57.5</ele>
        <time>2022-08-11T12:13:29Z</time>
      </trkpt>
      <trkpt lat="44.87936" lon="0.83912">
        <ele>57.5</ele>
        <time>2022-08-11T12:13:30Z</time>
      </trkpt>
      <trkpt lat="44.87941" lon="0.83913">
        <ele>57.5</ele>
        <time>2022-08-11T12:13:31Z</time>
      </trkpt>
      <trkpt lat="44.87946" lon="0.83914">
        <ele>57.5</ele>
        <time>2022-08-11T12:13:32Z</time>
      </trkpt>
      <trkpt lat="44.87951" lon="0.83916">
        <ele>57.5</ele>
        <time>2022-08-11T12:13:33Z</time>
      </trkpt>
      <trkpt lat="44.87956" lon="0.83917">
        <ele>57.5</ele>
        <time>2022-08-11T12:13:34Z</time>
      </trkpt>
      <trkpt lat="44.87964" lon="0.83919">
        <ele>57.5</ele>
        <time>2022-08-11T12:13:36Z</time>
      </trkpt>
      <trkpt lat="44.87972" lon="0.8392">
        <ele>57.5</ele>
        <time>2022-08-11T12:13:38Z</time>
      </trkpt>
      <trkpt lat="44.87981" lon="0.83921">
        <ele>58.5</ele>
        <time>2022-08-11T12:13:40Z</time>
      </trkpt>
      <trkpt lat="44.87989" lon="0.83922">
        <ele>58.5</ele>
        <time>2022-08-11T12:13:42Z</time>
      </trkpt>
      <trkpt lat="44.87994" lon="0.83922">
        <ele>58.5</ele>
        <time>2022-08-11T12:13:43Z</time>
      </trkpt>
      <trkpt lat="44.87999" lon="0.83922">
        <ele>58.5</ele>
        <time>2022-08-11T12:13:44Z</time>
      </trkpt>
      <trkpt lat="44.88003" lon="0.83923">
        <ele>58.5</ele>
        <time>2022-08-11T12:13:45Z</time>
      </trkpt>
      <trkpt lat="44.88013" lon="0.83924">
        <ele>58.5</ele>
        <time>2022-08-11T12:13:47Z</time>
      </trkpt>
      <trkpt lat="44.88017" lon="0.83925">
        <ele>58.5</ele>
        <time>2022-08-11T12:13:48Z</time>
      </trkpt>
      <trkpt lat="44.88022" lon="0.83925">
        <ele>58.5</ele>
        <time>2022-08-11T12:13:49Z</time>
      </trkpt>
      <trkpt lat="44.88027" lon="0.83925">
        <ele>58.5</ele>
        <time>2022-08-11T12:13:50Z</time>
      </trkpt>
      <trkpt lat="44.88036" lon="0.83926">
        <ele>57.5</ele>
        <time>2022-08-11T12:13:52Z</time>
      </trkpt>
      <trkpt lat="44.88041" lon="0.83926">
        <ele>57.5</ele>
        <time>2022-08-11T12:13:53Z</time>
      </trkpt>
      <trkpt lat="44.88046" lon="0.83926">
        <ele>58.5</ele>
        <time>2022-08-11T12:13:54Z</time>
      </trkpt>
      <trkpt lat="44.88051" lon="0.83925">
        <ele>58.5</ele>
        <time>2022-08-11T12:13:55Z</time>
      </trkpt>
      <trkpt lat="44.88055" lon="0.83925">
        <ele>58.5</ele>
        <time>2022-08-11T12:13:56Z</time>
      </trkpt>
      <trkpt lat="44.88061" lon="0.83926">
        <ele>58.5</ele>
        <time>2022-08-11T12:13:57Z</time>
      </trkpt>
      <trkpt lat="44.88066" lon="0.83926">
        <ele>58.5</ele>
        <time>2022-08-11T12:13:58Z</time>
      </trkpt>
      <trkpt lat="44.88071" lon="0.83926">
        <ele>58.5</ele>
        <time>2022-08-11T12:13:59Z</time>
      </trkpt>
      <trkpt lat="44.88076" lon="0.83927">
        <ele>57.5</ele>
        <time>2022-08-11T12:14:00Z</time>
      </trkpt>
      <trkpt lat="44.88081" lon="0.83927">
        <ele>58.5</ele>
        <time>2022-08-11T12:14:01Z</time>
      </trkpt>
      <trkpt lat="44.88087" lon="0.83927">
        <ele>57.5</ele>
        <time>2022-08-11T12:14:02Z</time>
      </trkpt>
      <trkpt lat="44.88092" lon="0.83927">
        <ele>57.5</ele>
        <time>2022-08-11T12:14:03Z</time>
      </trkpt>
      <trkpt lat="44.88097" lon="0.83926">
        <ele>57.5</ele>
        <time>2022-08-11T12:14:04Z</time>
      </trkpt>
      <trkpt lat="44.88102" lon="0.83926">
        <ele>57.5</ele>
        <time>2022-08-11T12:14:05Z</time>
      </trkpt>
      <trkpt lat="44.88107" lon="0.83926">
        <ele>58.5</ele>
        <time>2022-08-11T12:14:06Z</time>
      </trkpt>
      <trkpt lat="44.88112" lon="0.83927">
        <ele>58.5</ele>
        <time>2022-08-11T12:14:07Z</time>
      </trkpt>
      <trkpt lat="44.88117" lon="0.83927">
        <ele>58.5</ele>
        <time>2022-08-11T12:14:08Z</time>
      </trkpt>
      <trkpt lat="44.88122" lon="0.83928">
        <ele>58.5</ele>
        <time>2022-08-11T12:14:09Z</time>
      </trkpt>
      <trkpt lat="44.88128" lon="0.83928">
        <ele>58.5</ele>
        <time>2022-08-11T12:14:10Z</time>
      </trkpt>
      <trkpt lat="44.88133" lon="0.83928">
        <ele>58.5</ele>
        <time>2022-08-11T12:14:11Z</time>
      </trkpt>
      <trkpt lat="44.88138" lon="0.83929">
        <ele>58.5</ele>
        <time>2022-08-11T12:14:12Z</time>
      </trkpt>
      <trkpt lat="44.88143" lon="0.83929">
        <ele>59.5</ele>
        <time>2022-08-11T12:14:13Z</time>
      </trkpt>
      <trkpt lat="44.88147" lon="0.8393">
        <ele>59.5</ele>
        <time>2022-08-11T12:14:14Z</time>
      </trkpt>
      <trkpt lat="44.88152" lon="0.8393">
        <ele>59.5</ele>
        <time>2022-08-11T12:14:15Z</time>
      </trkpt>
      <trkpt lat="44.88157" lon="0.8393">
        <ele>59.5</ele>
        <time>2022-08-11T12:14:16Z</time>
      </trkpt>
      <trkpt lat="44.88161" lon="0.8393">
        <ele>59.5</ele>
        <time>2022-08-11T12:14:17Z</time>
      </trkpt>
      <trkpt lat="44.8817" lon="0.83931">
        <ele>59.5</ele>
        <time>2022-08-11T12:14:19Z</time>
      </trkpt>
      <trkpt lat="44.88178" lon="0.83935">
        <ele>59.5</ele>
        <time>2022-08-11T12:14:21Z</time>
      </trkpt>
      <trkpt lat="44.88182" lon="0.83939">
        <ele>59.5</ele>
        <time>2022-08-11T12:14:22Z</time>
      </trkpt>
      <trkpt lat="44.88185" lon="0.83945">
        <ele>59.5</ele>
        <time>2022-08-11T12:14:23Z</time>
      </trkpt>
      <trkpt lat="44.88189" lon="0.8395">
        <ele>60.5</ele>
        <time>2022-08-11T12:14:24Z</time>
      </trkpt>
      <trkpt lat="44.88193" lon="0.83956">
        <ele>59.5</ele>
        <time>2022-08-11T12:14:25Z</time>
      </trkpt>
      <trkpt lat="44.88197" lon="0.83961">
        <ele>60.5</ele>
        <time>2022-08-11T12:14:26Z</time>
      </trkpt>
      <trkpt lat="44.882" lon="0.83967">
        <ele>60.5</ele>
        <time>2022-08-11T12:14:27Z</time>
      </trkpt>
      <trkpt lat="44.88203" lon="0.83973">
        <ele>61.5</ele>
        <time>2022-08-11T12:14:28Z</time>
      </trkpt>
      <trkpt lat="44.88206" lon="0.83979">
        <ele>62.5</ele>
        <time>2022-08-11T12:14:29Z</time>
      </trkpt>
      <trkpt lat="44.8821" lon="0.83984">
        <ele>62.5</ele>
        <time>2022-08-11T12:14:30Z</time>
      </trkpt>
      <trkpt lat="44.88213" lon="0.83989">
        <ele>62.5</ele>
        <time>2022-08-11T12:14:31Z</time>
      </trkpt>
      <trkpt lat="44.88219" lon="0.83998">
        <ele>63.5</ele>
        <time>2022-08-11T12:14:33Z</time>
      </trkpt>
      <trkpt lat="44.88224" lon="0.84007">
        <ele>63.5</ele>
        <time>2022-08-11T12:14:35Z</time>
      </trkpt>
      <trkpt lat="44.88229" lon="0.84015">
        <ele>63.5</ele>
        <time>2022-08-11T12:14:37Z</time>
      </trkpt>
      <trkpt lat="44.88236" lon="0.84024">
        <ele>63.5</ele>
        <time>2022-08-11T12:14:39Z</time>
      </trkpt>
      <trkpt lat="44.88242" lon="0.84031">
        <ele>62.5</ele>
        <time>2022-08-11T12:14:41Z</time>
      </trkpt>
      <trkpt lat="44.88247" lon="0.84037">
        <ele>62.5</ele>
        <time>2022-08-11T12:14:43Z</time>
      </trkpt>
      <trkpt lat="44.88251" lon="0.8404">
        <ele>61.5</ele>
        <time>2022-08-11T12:14:45Z</time>
      </trkpt>
      <trkpt lat="44.88256" lon="0.84038">
        <ele>60.5</ele>
        <time>2022-08-11T12:14:48Z</time>
      </trkpt>
      <trkpt lat="44.8826" lon="0.84036">
        <ele>58.5</ele>
        <time>2022-08-11T12:16:01Z</time>
      </trkpt>
      <trkpt lat="44.88265" lon="0.84039">
        <ele>56.5</ele>
        <time>2022-08-11T12:17:31Z</time>
      </trkpt>
      <trkpt lat="44.88261" lon="0.84035">
        <ele>55.5</ele>
        <time>2022-08-11T12:19:16Z</time>
      </trkpt>
      <trkpt lat="44.88265" lon="0.84038">
        <ele>54.5</ele>
        <time>2022-08-11T12:19:53Z</time>
      </trkpt>
      <trkpt lat="44.88272" lon="0.84039">
        <ele>52.5</ele>
        <time>2022-08-11T12:19:56Z</time>
      </trkpt>
      <trkpt lat="44.88278" lon="0.84038">
        <ele>51.5</ele>
        <time>2022-08-11T12:19:58Z</time>
      </trkpt>
      <trkpt lat="44.88284" lon="0.84038">
        <ele>50.5</ele>
        <time>2022-08-11T12:20:00Z</time>
      </trkpt>
      <trkpt lat="44.88288" lon="0.84044">
        <ele>49.5</ele>
        <time>2022-08-11T12:20:02Z</time>
      </trkpt>
      <trkpt lat="44.8829" lon="0.84052">
        <ele>50.5</ele>
        <time>2022-08-11T12:20:04Z</time>
      </trkpt>
      <trkpt lat="44.8829" lon="0.84059">
        <ele>50.5</ele>
        <time>2022-08-11T12:20:06Z</time>
      </trkpt>
      <trkpt lat="44.8829" lon="0.84067">
        <ele>51.5</ele>
        <time>2022-08-11T12:20:08Z</time>
      </trkpt>
      <trkpt lat="44.88289" lon="0.84074">
        <ele>51.5</ele>
        <time>2022-08-11T12:20:10Z</time>
      </trkpt>
      <trkpt lat="44.88288" lon="0.84081">
        <ele>51.5</ele>
        <time>2022-08-11T12:20:12Z</time>
      </trkpt>
      <trkpt lat="44.88288" lon="0.84088">
        <ele>52.5</ele>
        <time>2022-08-11T12:20:14Z</time>
      </trkpt>
      <trkpt lat="44.88289" lon="0.84095">
        <ele>51.5</ele>
        <time>2022-08-11T12:20:16Z</time>
      </trkpt>
      <trkpt lat="44.88289" lon="0.84102">
        <ele>51.5</ele>
        <time>2022-08-11T12:20:19Z</time>
      </trkpt>
      <trkpt lat="44.88288" lon="0.84109">
        <ele>52.5</ele>
        <time>2022-08-11T12:20:22Z</time>
      </trkpt>
      <trkpt lat="44.88288" lon="0.84117">
        <ele>53.5</ele>
        <time>2022-08-11T12:20:25Z</time>
      </trkpt>
      <trkpt lat="44.88288" lon="0.84124">
        <ele>54.5</ele>
        <time>2022-08-11T12:20:29Z</time>
      </trkpt>
      <trkpt lat="44.8829" lon="0.84131">
        <ele>54.5</ele>
        <time>2022-08-11T12:20:33Z</time>
      </trkpt>
      <trkpt lat="44.88294" lon="0.84136">
        <ele>55.5</ele>
        <time>2022-08-11T12:20:38Z</time>
      </trkpt>
      <trkpt lat="44.88296" lon="0.84143">
        <ele>57.5</ele>
        <time>2022-08-11T12:20:43Z</time>
      </trkpt>
      <trkpt lat="44.88299" lon="0.8415">
        <ele>57.5</ele>
        <time>2022-08-11T12:20:48Z</time>
      </trkpt>
      <trkpt lat="44.88304" lon="0.84157">
        <ele>56.5</ele>
        <time>2022-08-11T12:20:52Z</time>
      </trkpt>
      <trkpt lat="44.88306" lon="0.84163">
        <ele>57.5</ele>
        <time>2022-08-11T12:20:56Z</time>
      </trkpt>
      <trkpt lat="44.88308" lon="0.8417">
        <ele>57.5</ele>
        <time>2022-08-11T12:20:59Z</time>
      </trkpt>
      <trkpt lat="44.88311" lon="0.84176">
        <ele>55.5</ele>
        <time>2022-08-11T12:21:03Z</time>
      </trkpt>
      <trkpt lat="44.88314" lon="0.84183">
        <ele>56.5</ele>
        <time>2022-08-11T12:21:07Z</time>
      </trkpt>
      <trkpt lat="44.88317" lon="0.84191">
        <ele>54.5</ele>
        <time>2022-08-11T12:21:12Z</time>
      </trkpt>
      <trkpt lat="44.88319" lon="0.84198">
        <ele>55.5</ele>
        <time>2022-08-11T12:21:16Z</time>
      </trkpt>
      <trkpt lat="44.88321" lon="0.84206">
        <ele>54.5</ele>
        <time>2022-08-11T12:21:20Z</time>
      </trkpt>
      <trkpt lat="44.88323" lon="0.84214">
        <ele>54.5</ele>
        <time>2022-08-11T12:21:23Z</time>
      </trkpt>
      <trkpt lat="44.88324" lon="0.84221">
        <ele>54.5</ele>
        <time>2022-08-11T12:21:25Z</time>
      </trkpt>
      <trkpt lat="44.88324" lon="0.84228">
        <ele>54.5</ele>
        <time>2022-08-11T12:21:27Z</time>
      </trkpt>
      <trkpt lat="44.88326" lon="0.84237">
        <ele>54.5</ele>
        <time>2022-08-11T12:21:29Z</time>
      </trkpt>
      <trkpt lat="44.88328" lon="0.84247">
        <ele>54.5</ele>
        <time>2022-08-11T12:21:31Z</time>
      </trkpt>
      <trkpt lat="44.88329" lon="0.84258">
        <ele>53.5</ele>
        <time>2022-08-11T12:21:33Z</time>
      </trkpt>
      <trkpt lat="44.8833" lon="0.8427">
        <ele>53.5</ele>
        <time>2022-08-11T12:21:35Z</time>
      </trkpt>
      <trkpt lat="44.88331" lon="0.8428">
        <ele>52.5</ele>
        <time>2022-08-11T12:21:37Z</time>
      </trkpt>
      <trkpt lat="44.88332" lon="0.84288">
        <ele>50.5</ele>
        <time>2022-08-11T12:21:39Z</time>
      </trkpt>
      <trkpt lat="44.88334" lon="0.84294">
        <ele>50.5</ele>
        <time>2022-08-11T12:21:41Z</time>
      </trkpt>
      <trkpt lat="44.88335" lon="0.84303">
        <ele>49.5</ele>
        <time>2022-08-11T12:21:44Z</time>
      </trkpt>
      <trkpt lat="44.88337" lon="0.8431">
        <ele>49.5</ele>
        <time>2022-08-11T12:21:47Z</time>
      </trkpt>
      <trkpt lat="44.88339" lon="0.84318">
        <ele>50.5</ele>
        <time>2022-08-11T12:21:50Z</time>
      </trkpt>
      <trkpt lat="44.88341" lon="0.84326">
        <ele>50.5</ele>
        <time>2022-08-11T12:21:54Z</time>
      </trkpt>
      <trkpt lat="44.88342" lon="0.84333">
        <ele>50.5</ele>
        <time>2022-08-11T12:21:58Z</time>
      </trkpt>
      <trkpt lat="44.88342" lon="0.8434">
        <ele>50.5</ele>
        <time>2022-08-11T12:22:02Z</time>
      </trkpt>
      <trkpt lat="44.88343" lon="0.84349">
        <ele>51.5</ele>
        <time>2022-08-11T12:22:05Z</time>
      </trkpt>
      <trkpt lat="44.88344" lon="0.84356">
        <ele>52.5</ele>
        <time>2022-08-11T12:22:08Z</time>
      </trkpt>
      <trkpt lat="44.88344" lon="0.84366">
        <ele>53.5</ele>
        <time>2022-08-11T12:22:12Z</time>
      </trkpt>
      <trkpt lat="44.88343" lon="0.84373">
        <ele>54.5</ele>
        <time>2022-08-11T12:22:16Z</time>
      </trkpt>
      <trkpt lat="44.88342" lon="0.84381">
        <ele>55.5</ele>
        <time>2022-08-11T12:22:19Z</time>
      </trkpt>
      <trkpt lat="44.88342" lon="0.84387">
        <ele>57.5</ele>
        <time>2022-08-11T12:22:22Z</time>
      </trkpt>
      <trkpt lat="44.88341" lon="0.84394">
        <ele>58.5</ele>
        <time>2022-08-11T12:22:25Z</time>
      </trkpt>
      <trkpt lat="44.88341" lon="0.84402">
        <ele>60.5</ele>
        <time>2022-08-11T12:22:30Z</time>
      </trkpt>
      <trkpt lat="44.8834" lon="0.84409">
        <ele>61.5</ele>
        <time>2022-08-11T12:22:34Z</time>
      </trkpt>
      <trkpt lat="44.88339" lon="0.84417">
        <ele>61.5</ele>
        <time>2022-08-11T12:22:39Z</time>
      </trkpt>
      <trkpt lat="44.88339" lon="0.84424">
        <ele>60.5</ele>
        <time>2022-08-11T12:22:43Z</time>
      </trkpt>
      <trkpt lat="44.88338" lon="0.84432">
        <ele>61.5</ele>
        <time>2022-08-11T12:22:48Z</time>
      </trkpt>
      <trkpt lat="44.88337" lon="0.8444">
        <ele>63.5</ele>
        <time>2022-08-11T12:22:52Z</time>
      </trkpt>
      <trkpt lat="44.88334" lon="0.84445">
        <ele>63.5</ele>
        <time>2022-08-11T12:23:00Z</time>
      </trkpt>
      <trkpt lat="44.8833" lon="0.8445">
        <ele>66.5</ele>
        <time>2022-08-11T12:23:12Z</time>
      </trkpt>
      <trkpt lat="44.88326" lon="0.84453">
        <ele>67.5</ele>
        <time>2022-08-11T12:23:20Z</time>
      </trkpt>
      <trkpt lat="44.88322" lon="0.84457">
        <ele>68.5</ele>
        <time>2022-08-11T12:23:28Z</time>
      </trkpt>
      <trkpt lat="44.88318" lon="0.8446">
        <ele>69.5</ele>
        <time>2022-08-11T12:23:33Z</time>
      </trkpt>
      <trkpt lat="44.88313" lon="0.84462">
        <ele>69.5</ele>
        <time>2022-08-11T12:23:38Z</time>
      </trkpt>
      <trkpt lat="44.88308" lon="0.84463">
        <ele>67.5</ele>
        <time>2022-08-11T12:23:43Z</time>
      </trkpt>
      <trkpt lat="44.88303" lon="0.84461">
        <ele>65.5</ele>
        <time>2022-08-11T12:24:10Z</time>
      </trkpt>
      <trkpt lat="44.88298" lon="0.8446">
        <ele>67.5</ele>
        <time>2022-08-11T12:24:15Z</time>
      </trkpt>
      <trkpt lat="44.88294" lon="0.8446">
        <ele>68.5</ele>
        <time>2022-08-11T12:24:19Z</time>
      </trkpt>
      <trkpt lat="44.88289" lon="0.84459">
        <ele>69.5</ele>
        <time>2022-08-11T12:24:25Z</time>
      </trkpt>
      <trkpt lat="44.88284" lon="0.8446">
        <ele>69.5</ele>
        <time>2022-08-11T12:24:30Z</time>
      </trkpt>
      <trkpt lat="44.88279" lon="0.8446">
        <ele>67.5</ele>
        <time>2022-08-11T12:24:34Z</time>
      </trkpt>
      <trkpt lat="44.88273" lon="0.84461">
        <ele>68.5</ele>
        <time>2022-08-11T12:24:39Z</time>
      </trkpt>
      <trkpt lat="44.8827" lon="0.84457">
        <ele>70.5</ele>
        <time>2022-08-11T12:24:45Z</time>
      </trkpt>
      <trkpt lat="44.88265" lon="0.84452">
        <ele>73.5</ele>
        <time>2022-08-11T12:24:51Z</time>
      </trkpt>
      <trkpt lat="44.88261" lon="0.8445">
        <ele>74.5</ele>
        <time>2022-08-11T12:24:54Z</time>
      </trkpt>
      <trkpt lat="44.88256" lon="0.84448">
        <ele>75.5</ele>
        <time>2022-08-11T12:24:58Z</time>
      </trkpt>
      <trkpt lat="44.8825" lon="0.84449">
        <ele>75.5</ele>
        <time>2022-08-11T12:25:02Z</time>
      </trkpt>
      <trkpt lat="44.88245" lon="0.84448">
        <ele>75.5</ele>
        <time>2022-08-11T12:25:06Z</time>
      </trkpt>
      <trkpt lat="44.88241" lon="0.84444">
        <ele>75.5</ele>
        <time>2022-08-11T12:25:09Z</time>
      </trkpt>
      <trkpt lat="44.88236" lon="0.8444">
        <ele>74.5</ele>
        <time>2022-08-11T12:25:12Z</time>
      </trkpt>
      <trkpt lat="44.8823" lon="0.84436">
        <ele>74.5</ele>
        <time>2022-08-11T12:25:15Z</time>
      </trkpt>
      <trkpt lat="44.88226" lon="0.84433">
        <ele>74.5</ele>
        <time>2022-08-11T12:25:17Z</time>
      </trkpt>
      <trkpt lat="44.8822" lon="0.84431">
        <ele>76.5</ele>
        <time>2022-08-11T12:25:20Z</time>
      </trkpt>
      <trkpt lat="44.88214" lon="0.84427">
        <ele>77.5</ele>
        <time>2022-08-11T12:25:23Z</time>
      </trkpt>
      <trkpt lat="44.8821" lon="0.84424">
        <ele>77.5</ele>
        <time>2022-08-11T12:25:26Z</time>
      </trkpt>
      <trkpt lat="44.88204" lon="0.84421">
        <ele>79.5</ele>
        <time>2022-08-11T12:25:29Z</time>
      </trkpt>
      <trkpt lat="44.88199" lon="0.84418">
        <ele>78.5</ele>
        <time>2022-08-11T12:25:32Z</time>
      </trkpt>
      <trkpt lat="44.88195" lon="0.84416">
        <ele>79.5</ele>
        <time>2022-08-11T12:25:35Z</time>
      </trkpt>
      <trkpt lat="44.88189" lon="0.84414">
        <ele>80.5</ele>
        <time>2022-08-11T12:25:38Z</time>
      </trkpt>
      <trkpt lat="44.88183" lon="0.8441">
        <ele>81.5</ele>
        <time>2022-08-11T12:25:41Z</time>
      </trkpt>
      <trkpt lat="44.88177" lon="0.84408">
        <ele>83.5</ele>
        <time>2022-08-11T12:25:44Z</time>
      </trkpt>
      <trkpt lat="44.88171" lon="0.84406">
        <ele>83.5</ele>
        <time>2022-08-11T12:25:47Z</time>
      </trkpt>
      <trkpt lat="44.88165" lon="0.84407">
        <ele>83.5</ele>
        <time>2022-08-11T12:25:50Z</time>
      </trkpt>
      <trkpt lat="44.8816" lon="0.84409">
        <ele>83.5</ele>
        <time>2022-08-11T12:25:53Z</time>
      </trkpt>
      <trkpt lat="44.88155" lon="0.84411">
        <ele>84.5</ele>
        <time>2022-08-11T12:25:56Z</time>
      </trkpt>
      <trkpt lat="44.8815" lon="0.84413">
        <ele>84.5</ele>
        <time>2022-08-11T12:25:59Z</time>
      </trkpt>
      <trkpt lat="44.88145" lon="0.84418">
        <ele>84.5</ele>
        <time>2022-08-11T12:26:02Z</time>
      </trkpt>
      <trkpt lat="44.88141" lon="0.84422">
        <ele>85.5</ele>
        <time>2022-08-11T12:26:04Z</time>
      </trkpt>
      <trkpt lat="44.88137" lon="0.84426">
        <ele>85.5</ele>
        <time>2022-08-11T12:26:06Z</time>
      </trkpt>
      <trkpt lat="44.88131" lon="0.84431">
        <ele>85.5</ele>
        <time>2022-08-11T12:26:09Z</time>
      </trkpt>
      <trkpt lat="44.88126" lon="0.84435">
        <ele>85.5</ele>
        <time>2022-08-11T12:26:12Z</time>
      </trkpt>
      <trkpt lat="44.88122" lon="0.84439">
        <ele>85.5</ele>
        <time>2022-08-11T12:26:14Z</time>
      </trkpt>
      <trkpt lat="44.88118" lon="0.84443">
        <ele>86.5</ele>
        <time>2022-08-11T12:26:16Z</time>
      </trkpt>
      <trkpt lat="44.88115" lon="0.84449">
        <ele>86.5</ele>
        <time>2022-08-11T12:26:18Z</time>
      </trkpt>
      <trkpt lat="44.88111" lon="0.84452">
        <ele>86.5</ele>
        <time>2022-08-11T12:26:20Z</time>
      </trkpt>
      <trkpt lat="44.88106" lon="0.84457">
        <ele>87.5</ele>
        <time>2022-08-11T12:26:22Z</time>
      </trkpt>
      <trkpt lat="44.88101" lon="0.8446">
        <ele>87.5</ele>
        <time>2022-08-11T12:26:24Z</time>
      </trkpt>
      <trkpt lat="44.88095" lon="0.84464">
        <ele>87.5</ele>
        <time>2022-08-11T12:26:26Z</time>
      </trkpt>
      <trkpt lat="44.88092" lon="0.84469">
        <ele>88.5</ele>
        <time>2022-08-11T12:26:28Z</time>
      </trkpt>
      <trkpt lat="44.88087" lon="0.84474">
        <ele>88.5</ele>
        <time>2022-08-11T12:26:30Z</time>
      </trkpt>
      <trkpt lat="44.88082" lon="0.84479">
        <ele>88.5</ele>
        <time>2022-08-11T12:26:32Z</time>
      </trkpt>
      <trkpt lat="44.88079" lon="0.84484">
        <ele>88.5</ele>
        <time>2022-08-11T12:26:34Z</time>
      </trkpt>
      <trkpt lat="44.88077" lon="0.84492">
        <ele>88.5</ele>
        <time>2022-08-11T12:26:36Z</time>
      </trkpt>
      <trkpt lat="44.88075" lon="0.845">
        <ele>89.5</ele>
        <time>2022-08-11T12:26:38Z</time>
      </trkpt>
      <trkpt lat="44.88073" lon="0.84509">
        <ele>90.5</ele>
        <time>2022-08-11T12:26:40Z</time>
      </trkpt>
      <trkpt lat="44.88071" lon="0.84517">
        <ele>90.5</ele>
        <time>2022-08-11T12:26:42Z</time>
      </trkpt>
      <trkpt lat="44.8807" lon="0.84524">
        <ele>90.5</ele>
        <time>2022-08-11T12:26:44Z</time>
      </trkpt>
      <trkpt lat="44.8807" lon="0.84532">
        <ele>92.5</ele>
        <time>2022-08-11T12:26:46Z</time>
      </trkpt>
      <trkpt lat="44.8807" lon="0.8454">
        <ele>93.5</ele>
        <time>2022-08-11T12:26:48Z</time>
      </trkpt>
      <trkpt lat="44.88069" lon="0.84548">
        <ele>94.5</ele>
        <time>2022-08-11T12:26:50Z</time>
      </trkpt>
      <trkpt lat="44.88068" lon="0.84556">
        <ele>95.5</ele>
        <time>2022-08-11T12:26:52Z</time>
      </trkpt>
      <trkpt lat="44.88068" lon="0.84565">
        <ele>95.5</ele>
        <time>2022-08-11T12:26:54Z</time>
      </trkpt>
      <trkpt lat="44.88067" lon="0.84574">
        <ele>95.5</ele>
        <time>2022-08-11T12:26:56Z</time>
      </trkpt>
      <trkpt lat="44.88067" lon="0.84584">
        <ele>96.5</ele>
        <time>2022-08-11T12:26:58Z</time>
      </trkpt>
      <trkpt lat="44.88067" lon="0.84594">
        <ele>97.5</ele>
        <time>2022-08-11T12:27:00Z</time>
      </trkpt>
      <trkpt lat="44.88067" lon="0.84605">
        <ele>97.5</ele>
        <time>2022-08-11T12:27:02Z</time>
      </trkpt>
      <trkpt lat="44.88068" lon="0.84612">
        <ele>98.5</ele>
        <time>2022-08-11T12:27:03Z</time>
      </trkpt>
      <trkpt lat="44.88069" lon="0.8462">
        <ele>98.5</ele>
        <time>2022-08-11T12:27:04Z</time>
      </trkpt>
      <trkpt lat="44.8807" lon="0.84627">
        <ele>98.5</ele>
        <time>2022-08-11T12:27:05Z</time>
      </trkpt>
      <trkpt lat="44.8807" lon="0.84634">
        <ele>98.5</ele>
        <time>2022-08-11T12:27:06Z</time>
      </trkpt>
      <trkpt lat="44.8807" lon="0.84642">
        <ele>97.5</ele>
        <time>2022-08-11T12:27:07Z</time>
      </trkpt>
      <trkpt lat="44.88071" lon="0.8465">
        <ele>96.5</ele>
        <time>2022-08-11T12:27:08Z</time>
      </trkpt>
      <trkpt lat="44.88072" lon="0.84657">
        <ele>96.5</ele>
        <time>2022-08-11T12:27:09Z</time>
      </trkpt>
      <trkpt lat="44.88073" lon="0.84664">
        <ele>95.5</ele>
        <time>2022-08-11T12:27:10Z</time>
      </trkpt>
      <trkpt lat="44.88074" lon="0.84671">
        <ele>94.5</ele>
        <time>2022-08-11T12:27:11Z</time>
      </trkpt>
      <trkpt lat="44.88076" lon="0.84678">
        <ele>94.5</ele>
        <time>2022-08-11T12:27:12Z</time>
      </trkpt>
      <trkpt lat="44.88078" lon="0.84686">
        <ele>94.5</ele>
        <time>2022-08-11T12:27:13Z</time>
      </trkpt>
      <trkpt lat="44.8808" lon="0.84693">
        <ele>94.5</ele>
        <time>2022-08-11T12:27:14Z</time>
      </trkpt>
      <trkpt lat="44.88083" lon="0.84701">
        <ele>93.5</ele>
        <time>2022-08-11T12:27:15Z</time>
      </trkpt>
      <trkpt lat="44.88086" lon="0.84709">
        <ele>93.5</ele>
        <time>2022-08-11T12:27:16Z</time>
      </trkpt>
      <trkpt lat="44.88089" lon="0.84717">
        <ele>93.5</ele>
        <time>2022-08-11T12:27:17Z</time>
      </trkpt>
      <trkpt lat="44.88092" lon="0.84726">
        <ele>93.5</ele>
        <time>2022-08-11T12:27:18Z</time>
      </trkpt>
      <trkpt lat="44.88094" lon="0.84735">
        <ele>92.5</ele>
        <time>2022-08-11T12:27:19Z</time>
      </trkpt>
      <trkpt lat="44.88097" lon="0.84744">
        <ele>92.5</ele>
        <time>2022-08-11T12:27:20Z</time>
      </trkpt>
      <trkpt lat="44.88101" lon="0.84752">
        <ele>91.5</ele>
        <time>2022-08-11T12:27:21Z</time>
      </trkpt>
      <trkpt lat="44.88106" lon="0.8476">
        <ele>91.5</ele>
        <time>2022-08-11T12:27:22Z</time>
      </trkpt>
      <trkpt lat="44.88111" lon="0.84768">
        <ele>91.5</ele>
        <time>2022-08-11T12:27:23Z</time>
      </trkpt>
      <trkpt lat="44.88115" lon="0.84775">
        <ele>91.5</ele>
        <time>2022-08-11T12:27:24Z</time>
      </trkpt>
      <trkpt lat="44.88119" lon="0.84782">
        <ele>91.5</ele>
        <time>2022-08-11T12:27:25Z</time>
      </trkpt>
      <trkpt lat="44.88123" lon="0.84789">
        <ele>91.5</ele>
        <time>2022-08-11T12:27:26Z</time>
      </trkpt>
      <trkpt lat="44.88127" lon="0.84796">
        <ele>91.5</ele>
        <time>2022-08-11T12:27:27Z</time>
      </trkpt>
      <trkpt lat="44.88132" lon="0.84803">
        <ele>91.5</ele>
        <time>2022-08-11T12:27:28Z</time>
      </trkpt>
      <trkpt lat="44.88137" lon="0.84809">
        <ele>91.5</ele>
        <time>2022-08-11T12:27:29Z</time>
      </trkpt>
      <trkpt lat="44.88143" lon="0.84815">
        <ele>91.5</ele>
        <time>2022-08-11T12:27:30Z</time>
      </trkpt>
      <trkpt lat="44.88147" lon="0.84823">
        <ele>91.5</ele>
        <time>2022-08-11T12:27:31Z</time>
      </trkpt>
      <trkpt lat="44.88152" lon="0.84831">
        <ele>91.5</ele>
        <time>2022-08-11T12:27:32Z</time>
      </trkpt>
      <trkpt lat="44.88157" lon="0.84838">
        <ele>91.5</ele>
        <time>2022-08-11T12:27:33Z</time>
      </trkpt>
      <trkpt lat="44.88162" lon="0.84842">
        <ele>90.5</ele>
        <time>2022-08-11T12:27:34Z</time>
      </trkpt>
      <trkpt lat="44.88168" lon="0.84844">
        <ele>90.5</ele>
        <time>2022-08-11T12:27:35Z</time>
      </trkpt>
      <trkpt lat="44.88173" lon="0.84845">
        <ele>90.5</ele>
        <time>2022-08-11T12:27:36Z</time>
      </trkpt>
      <trkpt lat="44.88177" lon="0.84846">
        <ele>89.5</ele>
        <time>2022-08-11T12:27:37Z</time>
      </trkpt>
      <trkpt lat="44.88182" lon="0.84847">
        <ele>89.5</ele>
        <time>2022-08-11T12:27:39Z</time>
      </trkpt>
      <trkpt lat="44.88186" lon="0.84852">
        <ele>89.5</ele>
        <time>2022-08-11T12:27:42Z</time>
      </trkpt>
      <trkpt lat="44.88189" lon="0.84858">
        <ele>88.5</ele>
        <time>2022-08-11T12:27:46Z</time>
      </trkpt>
      <trkpt lat="44.88192" lon="0.84865">
        <ele>89.5</ele>
        <time>2022-08-11T12:27:55Z</time>
      </trkpt>
      <trkpt lat="44.88195" lon="0.84872">
        <ele>89.5</ele>
        <time>2022-08-11T12:28:01Z</time>
      </trkpt>
      <trkpt lat="44.88198" lon="0.84878">
        <ele>90.5</ele>
        <time>2022-08-11T12:28:04Z</time>
      </trkpt>
      <trkpt lat="44.882" lon="0.84886">
        <ele>90.5</ele>
        <time>2022-08-11T12:28:08Z</time>
      </trkpt>
      <trkpt lat="44.88202" lon="0.84893">
        <ele>90.5</ele>
        <time>2022-08-11T12:28:11Z</time>
      </trkpt>
      <trkpt lat="44.88203" lon="0.84899">
        <ele>91.5</ele>
        <time>2022-08-11T12:28:14Z</time>
      </trkpt>
      <trkpt lat="44.88203" lon="0.84908">
        <ele>91.5</ele>
        <time>2022-08-11T12:28:18Z</time>
      </trkpt>
      <trkpt lat="44.88204" lon="0.84916">
        <ele>91.5</ele>
        <time>2022-08-11T12:28:22Z</time>
      </trkpt>
      <trkpt lat="44.88204" lon="0.84924">
        <ele>91.5</ele>
        <time>2022-08-11T12:28:26Z</time>
      </trkpt>
      <trkpt lat="44.88205" lon="0.8493">
        <ele>92.5</ele>
        <time>2022-08-11T12:28:29Z</time>
      </trkpt>
      <trkpt lat="44.88206" lon="0.84938">
        <ele>92.4</ele>
        <time>2022-08-11T12:28:32Z</time>
      </trkpt>
      <trkpt lat="44.88205" lon="0.84946">
        <ele>92.4</ele>
        <time>2022-08-11T12:28:36Z</time>
      </trkpt>
      <trkpt lat="44.88206" lon="0.84953">
        <ele>93.4</ele>
        <time>2022-08-11T12:28:39Z</time>
      </trkpt>
      <trkpt lat="44.88206" lon="0.84959">
        <ele>94.4</ele>
        <time>2022-08-11T12:28:42Z</time>
      </trkpt>
      <trkpt lat="44.88206" lon="0.84968">
        <ele>94.4</ele>
        <time>2022-08-11T12:28:46Z</time>
      </trkpt>
      <trkpt lat="44.88208" lon="0.84974">
        <ele>95.4</ele>
        <time>2022-08-11T12:28:49Z</time>
      </trkpt>
      <trkpt lat="44.88207" lon="0.84983">
        <ele>95.4</ele>
        <time>2022-08-11T12:28:53Z</time>
      </trkpt>
      <trkpt lat="44.88207" lon="0.8499">
        <ele>95.4</ele>
        <time>2022-08-11T12:28:56Z</time>
      </trkpt>
      <trkpt lat="44.88206" lon="0.84999">
        <ele>96.4</ele>
        <time>2022-08-11T12:28:59Z</time>
      </trkpt>
      <trkpt lat="44.88205" lon="0.85009">
        <ele>96.4</ele>
        <time>2022-08-11T12:29:02Z</time>
      </trkpt>
      <trkpt lat="44.88205" lon="0.85016">
        <ele>96.4</ele>
        <time>2022-08-11T12:29:04Z</time>
      </trkpt>
      <trkpt lat="44.88205" lon="0.85024">
        <ele>96.4</ele>
        <time>2022-08-11T12:29:06Z</time>
      </trkpt>
      <trkpt lat="44.88205" lon="0.85031">
        <ele>96.4</ele>
        <time>2022-08-11T12:29:08Z</time>
      </trkpt>
      <trkpt lat="44.88205" lon="0.85039">
        <ele>97.4</ele>
        <time>2022-08-11T12:29:10Z</time>
      </trkpt>
      <trkpt lat="44.88205" lon="0.85046">
        <ele>97.4</ele>
        <time>2022-08-11T12:29:12Z</time>
      </trkpt>
      <trkpt lat="44.88205" lon="0.85054">
        <ele>98.4</ele>
        <time>2022-08-11T12:29:14Z</time>
      </trkpt>
      <trkpt lat="44.88205" lon="0.85062">
        <ele>98.4</ele>
        <time>2022-08-11T12:29:16Z</time>
      </trkpt>
      <trkpt lat="44.88205" lon="0.8507">
        <ele>99.4</ele>
        <time>2022-08-11T12:29:18Z</time>
      </trkpt>
      <trkpt lat="44.88206" lon="0.85078">
        <ele>99.4</ele>
        <time>2022-08-11T12:29:20Z</time>
      </trkpt>
      <trkpt lat="44.88206" lon="0.85085">
        <ele>99.4</ele>
        <time>2022-08-11T12:29:22Z</time>
      </trkpt>
      <trkpt lat="44.88208" lon="0.85092">
        <ele>99.4</ele>
        <time>2022-08-11T12:29:24Z</time>
      </trkpt>
      <trkpt lat="44.8821" lon="0.85099">
        <ele>100.4</ele>
        <time>2022-08-11T12:29:26Z</time>
      </trkpt>
      <trkpt lat="44.88211" lon="0.85106">
        <ele>100.4</ele>
        <time>2022-08-11T12:29:28Z</time>
      </trkpt>
      <trkpt lat="44.88212" lon="0.85113">
        <ele>101.4</ele>
        <time>2022-08-11T12:29:30Z</time>
      </trkpt>
      <trkpt lat="44.88212" lon="0.85121">
        <ele>102.4</ele>
        <time>2022-08-11T12:29:33Z</time>
      </trkpt>
      <trkpt lat="44.88213" lon="0.85129">
        <ele>104.4</ele>
        <time>2022-08-11T12:29:37Z</time>
      </trkpt>
      <trkpt lat="44.88215" lon="0.85135">
        <ele>103.4</ele>
        <time>2022-08-11T12:29:42Z</time>
      </trkpt>
      <trkpt lat="44.88218" lon="0.85144">
        <ele>104.4</ele>
        <time>2022-08-11T12:29:47Z</time>
      </trkpt>
      <trkpt lat="44.8822" lon="0.85152">
        <ele>106.4</ele>
        <time>2022-08-11T12:29:50Z</time>
      </trkpt>
      <trkpt lat="44.8822" lon="0.8516">
        <ele>106.4</ele>
        <time>2022-08-11T12:29:55Z</time>
      </trkpt>
      <trkpt lat="44.88218" lon="0.85169">
        <ele>105.4</ele>
        <time>2022-08-11T12:30:00Z</time>
      </trkpt>
      <trkpt lat="44.88216" lon="0.85175">
        <ele>106.4</ele>
        <time>2022-08-11T12:30:03Z</time>
      </trkpt>
      <trkpt lat="44.88214" lon="0.85183">
        <ele>106.4</ele>
        <time>2022-08-11T12:30:07Z</time>
      </trkpt>
      <trkpt lat="44.88213" lon="0.8519">
        <ele>107.4</ele>
        <time>2022-08-11T12:30:09Z</time>
      </trkpt>
      <trkpt lat="44.8821" lon="0.85195">
        <ele>107.4</ele>
        <time>2022-08-11T12:30:11Z</time>
      </trkpt>
      <trkpt lat="44.88208" lon="0.85201">
        <ele>106.4</ele>
        <time>2022-08-11T12:30:13Z</time>
      </trkpt>
      <trkpt lat="44.88205" lon="0.85209">
        <ele>107.4</ele>
        <time>2022-08-11T12:30:16Z</time>
      </trkpt>
      <trkpt lat="44.88203" lon="0.85214">
        <ele>107.4</ele>
        <time>2022-08-11T12:30:18Z</time>
      </trkpt>
      <trkpt lat="44.88201" lon="0.8522">
        <ele>107.4</ele>
        <time>2022-08-11T12:30:20Z</time>
      </trkpt>
      <trkpt lat="44.88198" lon="0.85227">
        <ele>107.4</ele>
        <time>2022-08-11T12:30:22Z</time>
      </trkpt>
      <trkpt lat="44.88195" lon="0.85234">
        <ele>107.4</ele>
        <time>2022-08-11T12:30:24Z</time>
      </trkpt>
      <trkpt lat="44.88192" lon="0.85241">
        <ele>108.4</ele>
        <time>2022-08-11T12:30:26Z</time>
      </trkpt>
      <trkpt lat="44.88189" lon="0.85249">
        <ele>108.4</ele>
        <time>2022-08-11T12:30:28Z</time>
      </trkpt>
      <trkpt lat="44.88187" lon="0.85257">
        <ele>108.4</ele>
        <time>2022-08-11T12:30:30Z</time>
      </trkpt>
      <trkpt lat="44.88186" lon="0.85265">
        <ele>108.4</ele>
        <time>2022-08-11T12:30:32Z</time>
      </trkpt>
      <trkpt lat="44.88183" lon="0.85273">
        <ele>109.4</ele>
        <time>2022-08-11T12:30:34Z</time>
      </trkpt>
      <trkpt lat="44.88182" lon="0.85282">
        <ele>110.4</ele>
        <time>2022-08-11T12:30:36Z</time>
      </trkpt>
      <trkpt lat="44.8818" lon="0.8529">
        <ele>110.4</ele>
        <time>2022-08-11T12:30:38Z</time>
      </trkpt>
      <trkpt lat="44.88179" lon="0.85298">
        <ele>110.4</ele>
        <time>2022-08-11T12:30:40Z</time>
      </trkpt>
      <trkpt lat="44.88178" lon="0.85305">
        <ele>110.4</ele>
        <time>2022-08-11T12:30:42Z</time>
      </trkpt>
      <trkpt lat="44.88176" lon="0.85314">
        <ele>110.4</ele>
        <time>2022-08-11T12:30:44Z</time>
      </trkpt>
      <trkpt lat="44.88174" lon="0.85323">
        <ele>111.4</ele>
        <time>2022-08-11T12:30:46Z</time>
      </trkpt>
      <trkpt lat="44.88173" lon="0.85332">
        <ele>111.4</ele>
        <time>2022-08-11T12:30:48Z</time>
      </trkpt>
      <trkpt lat="44.88171" lon="0.85341">
        <ele>112.4</ele>
        <time>2022-08-11T12:30:50Z</time>
      </trkpt>
      <trkpt lat="44.88169" lon="0.8535">
        <ele>112.4</ele>
        <time>2022-08-11T12:30:52Z</time>
      </trkpt>
      <trkpt lat="44.88167" lon="0.85358">
        <ele>113.4</ele>
        <time>2022-08-11T12:30:54Z</time>
      </trkpt>
      <trkpt lat="44.88166" lon="0.85365">
        <ele>113.4</ele>
        <time>2022-08-11T12:30:56Z</time>
      </trkpt>
      <trkpt lat="44.88164" lon="0.85372">
        <ele>114.4</ele>
        <time>2022-08-11T12:30:58Z</time>
      </trkpt>
      <trkpt lat="44.88162" lon="0.8538">
        <ele>114.4</ele>
        <time>2022-08-11T12:31:00Z</time>
      </trkpt>
      <trkpt lat="44.88159" lon="0.85388">
        <ele>114.4</ele>
        <time>2022-08-11T12:31:02Z</time>
      </trkpt>
      <trkpt lat="44.88157" lon="0.85395">
        <ele>114.4</ele>
        <time>2022-08-11T12:31:04Z</time>
      </trkpt>
      <trkpt lat="44.88156" lon="0.85403">
        <ele>115.4</ele>
        <time>2022-08-11T12:31:06Z</time>
      </trkpt>
      <trkpt lat="44.88154" lon="0.8541">
        <ele>115.4</ele>
        <time>2022-08-11T12:31:08Z</time>
      </trkpt>
      <trkpt lat="44.88153" lon="0.85418">
        <ele>115.4</ele>
        <time>2022-08-11T12:31:10Z</time>
      </trkpt>
      <trkpt lat="44.88152" lon="0.85427">
        <ele>114.4</ele>
        <time>2022-08-11T12:31:12Z</time>
      </trkpt>
      <trkpt lat="44.88149" lon="0.85435">
        <ele>114.4</ele>
        <time>2022-08-11T12:31:14Z</time>
      </trkpt>
      <trkpt lat="44.88146" lon="0.85443">
        <ele>114.4</ele>
        <time>2022-08-11T12:31:16Z</time>
      </trkpt>
      <trkpt lat="44.88144" lon="0.85451">
        <ele>115.4</ele>
        <time>2022-08-11T12:31:18Z</time>
      </trkpt>
      <trkpt lat="44.88143" lon="0.85459">
        <ele>115.4</ele>
        <time>2022-08-11T12:31:20Z</time>
      </trkpt>
      <trkpt lat="44.88142" lon="0.85468">
        <ele>115.4</ele>
        <time>2022-08-11T12:31:22Z</time>
      </trkpt>
      <trkpt lat="44.88142" lon="0.85477">
        <ele>115.4</ele>
        <time>2022-08-11T12:31:24Z</time>
      </trkpt>
      <trkpt lat="44.88142" lon="0.85487">
        <ele>116.4</ele>
        <time>2022-08-11T12:31:26Z</time>
      </trkpt>
      <trkpt lat="44.88142" lon="0.85496">
        <ele>116.4</ele>
        <time>2022-08-11T12:31:28Z</time>
      </trkpt>
      <trkpt lat="44.88141" lon="0.85506">
        <ele>116.4</ele>
        <time>2022-08-11T12:31:30Z</time>
      </trkpt>
      <trkpt lat="44.8814" lon="0.85515">
        <ele>116.4</ele>
        <time>2022-08-11T12:31:32Z</time>
      </trkpt>
      <trkpt lat="44.88138" lon="0.85525">
        <ele>116.4</ele>
        <time>2022-08-11T12:31:34Z</time>
      </trkpt>
      <trkpt lat="44.88137" lon="0.85534">
        <ele>116.4</ele>
        <time>2022-08-11T12:31:36Z</time>
      </trkpt>
      <trkpt lat="44.88137" lon="0.85542">
        <ele>115.4</ele>
        <time>2022-08-11T12:31:38Z</time>
      </trkpt>
      <trkpt lat="44.88135" lon="0.85551">
        <ele>116.4</ele>
        <time>2022-08-11T12:31:40Z</time>
      </trkpt>
      <trkpt lat="44.88133" lon="0.85558">
        <ele>116.4</ele>
        <time>2022-08-11T12:31:42Z</time>
      </trkpt>
      <trkpt lat="44.88132" lon="0.85567">
        <ele>116.4</ele>
        <time>2022-08-11T12:31:44Z</time>
      </trkpt>
      <trkpt lat="44.8813" lon="0.85575">
        <ele>116.4</ele>
        <time>2022-08-11T12:31:46Z</time>
      </trkpt>
      <trkpt lat="44.88129" lon="0.85584">
        <ele>116.4</ele>
        <time>2022-08-11T12:31:48Z</time>
      </trkpt>
      <trkpt lat="44.88127" lon="0.85592">
        <ele>116.4</ele>
        <time>2022-08-11T12:31:50Z</time>
      </trkpt>
      <trkpt lat="44.88126" lon="0.85599">
        <ele>116.4</ele>
        <time>2022-08-11T12:31:52Z</time>
      </trkpt>
      <trkpt lat="44.88125" lon="0.85607">
        <ele>115.4</ele>
        <time>2022-08-11T12:31:54Z</time>
      </trkpt>
      <trkpt lat="44.88124" lon="0.85616">
        <ele>115.4</ele>
        <time>2022-08-11T12:31:56Z</time>
      </trkpt>
      <trkpt lat="44.88123" lon="0.85623">
        <ele>116.4</ele>
        <time>2022-08-11T12:31:58Z</time>
      </trkpt>
      <trkpt lat="44.8812" lon="0.8563">
        <ele>116.4</ele>
        <time>2022-08-11T12:32:00Z</time>
      </trkpt>
      <trkpt lat="44.88117" lon="0.85637">
        <ele>117.4</ele>
        <time>2022-08-11T12:32:03Z</time>
      </trkpt>
      <trkpt lat="44.88111" lon="0.85641">
        <ele>117.4</ele>
        <time>2022-08-11T12:32:06Z</time>
      </trkpt>
      <trkpt lat="44.88106" lon="0.85643">
        <ele>118.4</ele>
        <time>2022-08-11T12:32:08Z</time>
      </trkpt>
      <trkpt lat="44.88101" lon="0.85645">
        <ele>118.4</ele>
        <time>2022-08-11T12:32:10Z</time>
      </trkpt>
      <trkpt lat="44.88095" lon="0.85646">
        <ele>117.4</ele>
        <time>2022-08-11T12:32:12Z</time>
      </trkpt>
      <trkpt lat="44.88091" lon="0.85647">
        <ele>118.4</ele>
        <time>2022-08-11T12:32:14Z</time>
      </trkpt>
      <trkpt lat="44.88085" lon="0.8565">
        <ele>118.4</ele>
        <time>2022-08-11T12:32:17Z</time>
      </trkpt>
      <trkpt lat="44.8808" lon="0.8565">
        <ele>119.4</ele>
        <time>2022-08-11T12:32:21Z</time>
      </trkpt>
      <trkpt lat="44.88075" lon="0.85654">
        <ele>123.4</ele>
        <time>2022-08-11T12:32:56Z</time>
      </trkpt>
      <trkpt lat="44.88071" lon="0.85655">
        <ele>123.4</ele>
        <time>2022-08-11T12:32:59Z</time>
      </trkpt>
      <trkpt lat="44.88065" lon="0.85657">
        <ele>123.4</ele>
        <time>2022-08-11T12:33:01Z</time>
      </trkpt>
      <trkpt lat="44.8806" lon="0.85657">
        <ele>124.4</ele>
        <time>2022-08-11T12:33:03Z</time>
      </trkpt>
      <trkpt lat="44.88054" lon="0.85657">
        <ele>124.4</ele>
        <time>2022-08-11T12:33:05Z</time>
      </trkpt>
      <trkpt lat="44.88048" lon="0.85657">
        <ele>124.4</ele>
        <time>2022-08-11T12:33:07Z</time>
      </trkpt>
      <trkpt lat="44.88042" lon="0.85658">
        <ele>124.4</ele>
        <time>2022-08-11T12:33:09Z</time>
      </trkpt>
      <trkpt lat="44.88037" lon="0.85662">
        <ele>124.4</ele>
        <time>2022-08-11T12:33:11Z</time>
      </trkpt>
      <trkpt lat="44.88035" lon="0.85671">
        <ele>124.4</ele>
        <time>2022-08-11T12:33:13Z</time>
      </trkpt>
      <trkpt lat="44.88036" lon="0.85681">
        <ele>124.4</ele>
        <time>2022-08-11T12:33:15Z</time>
      </trkpt>
      <trkpt lat="44.88038" lon="0.85692">
        <ele>123.4</ele>
        <time>2022-08-11T12:33:17Z</time>
      </trkpt>
      <trkpt lat="44.88041" lon="0.85703">
        <ele>121.4</ele>
        <time>2022-08-11T12:33:19Z</time>
      </trkpt>
      <trkpt lat="44.88044" lon="0.85713">
        <ele>120.4</ele>
        <time>2022-08-11T12:33:21Z</time>
      </trkpt>
      <trkpt lat="44.88047" lon="0.85724">
        <ele>119.4</ele>
        <time>2022-08-11T12:33:23Z</time>
      </trkpt>
      <trkpt lat="44.88048" lon="0.8573">
        <ele>119.4</ele>
        <time>2022-08-11T12:33:24Z</time>
      </trkpt>
      <trkpt lat="44.8805" lon="0.85737">
        <ele>119.4</ele>
        <time>2022-08-11T12:33:25Z</time>
      </trkpt>
      <trkpt lat="44.88052" lon="0.85743">
        <ele>119.4</ele>
        <time>2022-08-11T12:33:26Z</time>
      </trkpt>
      <trkpt lat="44.88054" lon="0.85754">
        <ele>118.4</ele>
        <time>2022-08-11T12:33:28Z</time>
      </trkpt>
      <trkpt lat="44.88058" lon="0.85766">
        <ele>118.4</ele>
        <time>2022-08-11T12:33:30Z</time>
      </trkpt>
      <trkpt lat="44.8806" lon="0.85772">
        <ele>119.4</ele>
        <time>2022-08-11T12:33:31Z</time>
      </trkpt>
      <trkpt lat="44.88062" lon="0.85778">
        <ele>119.4</ele>
        <time>2022-08-11T12:33:32Z</time>
      </trkpt>
      <trkpt lat="44.88066" lon="0.8579">
        <ele>119.4</ele>
        <time>2022-08-11T12:33:34Z</time>
      </trkpt>
      <trkpt lat="44.88069" lon="0.85801">
        <ele>119.4</ele>
        <time>2022-08-11T12:33:36Z</time>
      </trkpt>
      <trkpt lat="44.88072" lon="0.85812">
        <ele>120.4</ele>
        <time>2022-08-11T12:33:38Z</time>
      </trkpt>
      <trkpt lat="44.88073" lon="0.85819">
        <ele>119.4</ele>
        <time>2022-08-11T12:33:39Z</time>
      </trkpt>
      <trkpt lat="44.88075" lon="0.85825">
        <ele>119.4</ele>
        <time>2022-08-11T12:33:40Z</time>
      </trkpt>
      <trkpt lat="44.88077" lon="0.85831">
        <ele>119.4</ele>
        <time>2022-08-11T12:33:41Z</time>
      </trkpt>
      <trkpt lat="44.8808" lon="0.85842">
        <ele>120.4</ele>
        <time>2022-08-11T12:33:43Z</time>
      </trkpt>
      <trkpt lat="44.88081" lon="0.85849">
        <ele>120.4</ele>
        <time>2022-08-11T12:33:44Z</time>
      </trkpt>
      <trkpt lat="44.88082" lon="0.85856">
        <ele>120.4</ele>
        <time>2022-08-11T12:33:45Z</time>
      </trkpt>
      <trkpt lat="44.88082" lon="0.85862">
        <ele>120.4</ele>
        <time>2022-08-11T12:33:46Z</time>
      </trkpt>
      <trkpt lat="44.88082" lon="0.85869">
        <ele>120.4</ele>
        <time>2022-08-11T12:33:47Z</time>
      </trkpt>
      <trkpt lat="44.88082" lon="0.85876">
        <ele>120.4</ele>
        <time>2022-08-11T12:33:48Z</time>
      </trkpt>
      <trkpt lat="44.88083" lon="0.85884">
        <ele>120.4</ele>
        <time>2022-08-11T12:33:49Z</time>
      </trkpt>
      <trkpt lat="44.88085" lon="0.85891">
        <ele>120.4</ele>
        <time>2022-08-11T12:33:50Z</time>
      </trkpt>
      <trkpt lat="44.88086" lon="0.85898">
        <ele>120.4</ele>
        <time>2022-08-11T12:33:51Z</time>
      </trkpt>
      <trkpt lat="44.88088" lon="0.85905">
        <ele>119.4</ele>
        <time>2022-08-11T12:33:52Z</time>
      </trkpt>
      <trkpt lat="44.8809" lon="0.85913">
        <ele>118.4</ele>
        <time>2022-08-11T12:33:53Z</time>
      </trkpt>
      <trkpt lat="44.88092" lon="0.8592">
        <ele>118.4</ele>
        <time>2022-08-11T12:33:54Z</time>
      </trkpt>
      <trkpt lat="44.88095" lon="0.85928">
        <ele>118.4</ele>
        <time>2022-08-11T12:33:55Z</time>
      </trkpt>
      <trkpt lat="44.88097" lon="0.85936">
        <ele>119.4</ele>
        <time>2022-08-11T12:33:56Z</time>
      </trkpt>
      <trkpt lat="44.88099" lon="0.85945">
        <ele>119.4</ele>
        <time>2022-08-11T12:33:57Z</time>
      </trkpt>
      <trkpt lat="44.88101" lon="0.85953">
        <ele>119.4</ele>
        <time>2022-08-11T12:33:58Z</time>
      </trkpt>
      <trkpt lat="44.88103" lon="0.85962">
        <ele>119.4</ele>
        <time>2022-08-11T12:33:59Z</time>
      </trkpt>
      <trkpt lat="44.88104" lon="0.85972">
        <ele>118.4</ele>
        <time>2022-08-11T12:34:00Z</time>
      </trkpt>
      <trkpt lat="44.88105" lon="0.85981">
        <ele>118.4</ele>
        <time>2022-08-11T12:34:01Z</time>
      </trkpt>
      <trkpt lat="44.88106" lon="0.85991">
        <ele>117.4</ele>
        <time>2022-08-11T12:34:02Z</time>
      </trkpt>
      <trkpt lat="44.88108" lon="0.86001">
        <ele>117.4</ele>
        <time>2022-08-11T12:34:03Z</time>
      </trkpt>
      <trkpt lat="44.88111" lon="0.86012">
        <ele>116.4</ele>
        <time>2022-08-11T12:34:04Z</time>
      </trkpt>
      <trkpt lat="44.88115" lon="0.86022">
        <ele>116.4</ele>
        <time>2022-08-11T12:34:05Z</time>
      </trkpt>
      <trkpt lat="44.88122" lon="0.86043">
        <ele>114.4</ele>
        <time>2022-08-11T12:34:07Z</time>
      </trkpt>
      <trkpt lat="44.88126" lon="0.86052">
        <ele>113.4</ele>
        <time>2022-08-11T12:34:08Z</time>
      </trkpt>
      <trkpt lat="44.88131" lon="0.86061">
        <ele>113.4</ele>
        <time>2022-08-11T12:34:09Z</time>
      </trkpt>
      <trkpt lat="44.88134" lon="0.8607">
        <ele>112.4</ele>
        <time>2022-08-11T12:34:10Z</time>
      </trkpt>
      <trkpt lat="44.88138" lon="0.86076">
        <ele>112.4</ele>
        <time>2022-08-11T12:34:11Z</time>
      </trkpt>
      <trkpt lat="44.88142" lon="0.86082">
        <ele>112.4</ele>
        <time>2022-08-11T12:34:12Z</time>
      </trkpt>
      <trkpt lat="44.88146" lon="0.86087">
        <ele>112.4</ele>
        <time>2022-08-11T12:34:13Z</time>
      </trkpt>
      <trkpt lat="44.88151" lon="0.86092">
        <ele>112.4</ele>
        <time>2022-08-11T12:34:14Z</time>
      </trkpt>
      <trkpt lat="44.88156" lon="0.86096">
        <ele>111.4</ele>
        <time>2022-08-11T12:34:15Z</time>
      </trkpt>
      <trkpt lat="44.88162" lon="0.86101">
        <ele>111.4</ele>
        <time>2022-08-11T12:34:16Z</time>
      </trkpt>
      <trkpt lat="44.88168" lon="0.86106">
        <ele>111.4</ele>
        <time>2022-08-11T12:34:17Z</time>
      </trkpt>
      <trkpt lat="44.88173" lon="0.86112">
        <ele>111.4</ele>
        <time>2022-08-11T12:34:18Z</time>
      </trkpt>
      <trkpt lat="44.88179" lon="0.86119">
        <ele>111.4</ele>
        <time>2022-08-11T12:34:19Z</time>
      </trkpt>
      <trkpt lat="44.88185" lon="0.86127">
        <ele>111.4</ele>
        <time>2022-08-11T12:34:20Z</time>
      </trkpt>
      <trkpt lat="44.88191" lon="0.86135">
        <ele>111.4</ele>
        <time>2022-08-11T12:34:21Z</time>
      </trkpt>
      <trkpt lat="44.88197" lon="0.86144">
        <ele>111.4</ele>
        <time>2022-08-11T12:34:22Z</time>
      </trkpt>
      <trkpt lat="44.88203" lon="0.86152">
        <ele>111.4</ele>
        <time>2022-08-11T12:34:23Z</time>
      </trkpt>
      <trkpt lat="44.88207" lon="0.86159">
        <ele>111.4</ele>
        <time>2022-08-11T12:34:24Z</time>
      </trkpt>
      <trkpt lat="44.88211" lon="0.86163">
        <ele>110.4</ele>
        <time>2022-08-11T12:34:25Z</time>
      </trkpt>
      <trkpt lat="44.88216" lon="0.86165">
        <ele>110.4</ele>
        <time>2022-08-11T12:34:26Z</time>
      </trkpt>
      <trkpt lat="44.88222" lon="0.86166">
        <ele>109.4</ele>
        <time>2022-08-11T12:34:27Z</time>
      </trkpt>
      <trkpt lat="44.88228" lon="0.86166">
        <ele>109.4</ele>
        <time>2022-08-11T12:34:28Z</time>
      </trkpt>
      <trkpt lat="44.88234" lon="0.86167">
        <ele>108.4</ele>
        <time>2022-08-11T12:34:29Z</time>
      </trkpt>
      <trkpt lat="44.88241" lon="0.86167">
        <ele>107.4</ele>
        <time>2022-08-11T12:34:30Z</time>
      </trkpt>
      <trkpt lat="44.88249" lon="0.86168">
        <ele>107.4</ele>
        <time>2022-08-11T12:34:31Z</time>
      </trkpt>
      <trkpt lat="44.88258" lon="0.86168">
        <ele>106.4</ele>
        <time>2022-08-11T12:34:32Z</time>
      </trkpt>
      <trkpt lat="44.88266" lon="0.86168">
        <ele>106.4</ele>
        <time>2022-08-11T12:34:33Z</time>
      </trkpt>
      <trkpt lat="44.88274" lon="0.86169">
        <ele>105.4</ele>
        <time>2022-08-11T12:34:34Z</time>
      </trkpt>
      <trkpt lat="44.88282" lon="0.86169">
        <ele>105.4</ele>
        <time>2022-08-11T12:34:35Z</time>
      </trkpt>
      <trkpt lat="44.8829" lon="0.86169">
        <ele>104.4</ele>
        <time>2022-08-11T12:34:36Z</time>
      </trkpt>
      <trkpt lat="44.88298" lon="0.8617">
        <ele>104.4</ele>
        <time>2022-08-11T12:34:37Z</time>
      </trkpt>
      <trkpt lat="44.88306" lon="0.8617">
        <ele>103.4</ele>
        <time>2022-08-11T12:34:38Z</time>
      </trkpt>
      <trkpt lat="44.88314" lon="0.86171">
        <ele>103.4</ele>
        <time>2022-08-11T12:34:39Z</time>
      </trkpt>
      <trkpt lat="44.88321" lon="0.86171">
        <ele>103.4</ele>
        <time>2022-08-11T12:34:40Z</time>
      </trkpt>
      <trkpt lat="44.88328" lon="0.86171">
        <ele>102.4</ele>
        <time>2022-08-11T12:34:41Z</time>
      </trkpt>
      <trkpt lat="44.88334" lon="0.86171">
        <ele>101.4</ele>
        <time>2022-08-11T12:34:42Z</time>
      </trkpt>
      <trkpt lat="44.8834" lon="0.86171">
        <ele>100.4</ele>
        <time>2022-08-11T12:34:43Z</time>
      </trkpt>
      <trkpt lat="44.88345" lon="0.86171">
        <ele>100.4</ele>
        <time>2022-08-11T12:34:44Z</time>
      </trkpt>
      <trkpt lat="44.88353" lon="0.86169">
        <ele>98.4</ele>
        <time>2022-08-11T12:34:46Z</time>
      </trkpt>
      <trkpt lat="44.88358" lon="0.86167">
        <ele>98.4</ele>
        <time>2022-08-11T12:34:47Z</time>
      </trkpt>
      <trkpt lat="44.88363" lon="0.86165">
        <ele>97.4</ele>
        <time>2022-08-11T12:34:48Z</time>
      </trkpt>
      <trkpt lat="44.88368" lon="0.86164">
        <ele>97.4</ele>
        <time>2022-08-11T12:34:49Z</time>
      </trkpt>
      <trkpt lat="44.88374" lon="0.86164">
        <ele>97.4</ele>
        <time>2022-08-11T12:34:51Z</time>
      </trkpt>
      <trkpt lat="44.88379" lon="0.86166">
        <ele>96.4</ele>
        <time>2022-08-11T12:34:53Z</time>
      </trkpt>
      <trkpt lat="44.88384" lon="0.86174">
        <ele>96.4</ele>
        <time>2022-08-11T12:34:55Z</time>
      </trkpt>
      <trkpt lat="44.88387" lon="0.8618">
        <ele>95.4</ele>
        <time>2022-08-11T12:34:56Z</time>
      </trkpt>
      <trkpt lat="44.8839" lon="0.86185">
        <ele>95.4</ele>
        <time>2022-08-11T12:34:57Z</time>
      </trkpt>
      <trkpt lat="44.88394" lon="0.8619">
        <ele>95.4</ele>
        <time>2022-08-11T12:34:58Z</time>
      </trkpt>
      <trkpt lat="44.88398" lon="0.86193">
        <ele>94.4</ele>
        <time>2022-08-11T12:34:59Z</time>
      </trkpt>
      <trkpt lat="44.88403" lon="0.86193">
        <ele>93.4</ele>
        <time>2022-08-11T12:35:00Z</time>
      </trkpt>
      <trkpt lat="44.88408" lon="0.86194">
        <ele>93.4</ele>
        <time>2022-08-11T12:35:01Z</time>
      </trkpt>
      <trkpt lat="44.88416" lon="0.86194">
        <ele>92.4</ele>
        <time>2022-08-11T12:35:03Z</time>
      </trkpt>
      <trkpt lat="44.88421" lon="0.86192">
        <ele>91.4</ele>
        <time>2022-08-11T12:35:05Z</time>
      </trkpt>
      <trkpt lat="44.88427" lon="0.8619">
        <ele>90.4</ele>
        <time>2022-08-11T12:35:08Z</time>
      </trkpt>
      <trkpt lat="44.88432" lon="0.86189">
        <ele>89.4</ele>
        <time>2022-08-11T12:35:10Z</time>
      </trkpt>
      <trkpt lat="44.88438" lon="0.8619">
        <ele>89.4</ele>
        <time>2022-08-11T12:35:12Z</time>
      </trkpt>
      <trkpt lat="44.88443" lon="0.86192">
        <ele>89.4</ele>
        <time>2022-08-11T12:35:14Z</time>
      </trkpt>
      <trkpt lat="44.88449" lon="0.86197">
        <ele>89.4</ele>
        <time>2022-08-11T12:35:16Z</time>
      </trkpt>
      <trkpt lat="44.88453" lon="0.86201">
        <ele>88.4</ele>
        <time>2022-08-11T12:35:17Z</time>
      </trkpt>
      <trkpt lat="44.88458" lon="0.86206">
        <ele>87.4</ele>
        <time>2022-08-11T12:35:18Z</time>
      </trkpt>
      <trkpt lat="44.88464" lon="0.86213">
        <ele>86.4</ele>
        <time>2022-08-11T12:35:20Z</time>
      </trkpt>
      <trkpt lat="44.8847" lon="0.86218">
        <ele>85.4</ele>
        <time>2022-08-11T12:35:22Z</time>
      </trkpt>
      <trkpt lat="44.88474" lon="0.86221">
        <ele>84.4</ele>
        <time>2022-08-11T12:35:24Z</time>
      </trkpt>
      <trkpt lat="44.88478" lon="0.86226">
        <ele>83.4</ele>
        <time>2022-08-11T12:35:26Z</time>
      </trkpt>
      <trkpt lat="44.88483" lon="0.86233">
        <ele>82.4</ele>
        <time>2022-08-11T12:35:28Z</time>
      </trkpt>
      <trkpt lat="44.88489" lon="0.86243">
        <ele>81.4</ele>
        <time>2022-08-11T12:35:30Z</time>
      </trkpt>
      <trkpt lat="44.88494" lon="0.8625">
        <ele>80.4</ele>
        <time>2022-08-11T12:35:32Z</time>
      </trkpt>
      <trkpt lat="44.88498" lon="0.86256">
        <ele>79.4</ele>
        <time>2022-08-11T12:35:34Z</time>
      </trkpt>
      <trkpt lat="44.88501" lon="0.86263">
        <ele>78.4</ele>
        <time>2022-08-11T12:35:36Z</time>
      </trkpt>
      <trkpt lat="44.88504" lon="0.86272">
        <ele>78.4</ele>
        <time>2022-08-11T12:35:38Z</time>
      </trkpt>
      <trkpt lat="44.88508" lon="0.86278">
        <ele>77.4</ele>
        <time>2022-08-11T12:35:40Z</time>
      </trkpt>
      <trkpt lat="44.88513" lon="0.86291">
        <ele>75.4</ele>
        <time>2022-08-11T12:35:43Z</time>
      </trkpt>
      <trkpt lat="44.88514" lon="0.863">
        <ele>74.4</ele>
        <time>2022-08-11T12:35:45Z</time>
      </trkpt>
      <trkpt lat="44.88517" lon="0.86312">
        <ele>73.4</ele>
        <time>2022-08-11T12:35:47Z</time>
      </trkpt>
      <trkpt lat="44.88519" lon="0.86318">
        <ele>73.4</ele>
        <time>2022-08-11T12:35:48Z</time>
      </trkpt>
      <trkpt lat="44.88521" lon="0.86323">
        <ele>72.4</ele>
        <time>2022-08-11T12:35:49Z</time>
      </trkpt>
      <trkpt lat="44.88523" lon="0.86333">
        <ele>72.4</ele>
        <time>2022-08-11T12:35:51Z</time>
      </trkpt>
      <trkpt lat="44.88524" lon="0.86343">
        <ele>71.4</ele>
        <time>2022-08-11T12:35:53Z</time>
      </trkpt>
      <trkpt lat="44.88525" lon="0.86353">
        <ele>70.4</ele>
        <time>2022-08-11T12:35:55Z</time>
      </trkpt>
      <trkpt lat="44.8853" lon="0.86362">
        <ele>69.4</ele>
        <time>2022-08-11T12:35:57Z</time>
      </trkpt>
      <trkpt lat="44.88537" lon="0.86366">
        <ele>68.4</ele>
        <time>2022-08-11T12:35:59Z</time>
      </trkpt>
      <trkpt lat="44.8854" lon="0.86374">
        <ele>68.4</ele>
        <time>2022-08-11T12:36:03Z</time>
      </trkpt>
      <trkpt lat="44.88544" lon="0.86381">
        <ele>68.4</ele>
        <time>2022-08-11T12:36:05Z</time>
      </trkpt>
      <trkpt lat="44.8855" lon="0.86393">
        <ele>66.4</ele>
        <time>2022-08-11T12:36:07Z</time>
      </trkpt>
      <trkpt lat="44.88553" lon="0.864">
        <ele>64.4</ele>
        <time>2022-08-11T12:36:08Z</time>
      </trkpt>
      <trkpt lat="44.88556" lon="0.86408">
        <ele>63.4</ele>
        <time>2022-08-11T12:36:09Z</time>
      </trkpt>
      <trkpt lat="44.88559" lon="0.86416">
        <ele>62.4</ele>
        <time>2022-08-11T12:36:10Z</time>
      </trkpt>
      <trkpt lat="44.88563" lon="0.86424">
        <ele>60.4</ele>
        <time>2022-08-11T12:36:11Z</time>
      </trkpt>
      <trkpt lat="44.88567" lon="0.86431">
        <ele>60.4</ele>
        <time>2022-08-11T12:36:12Z</time>
      </trkpt>
      <trkpt lat="44.88572" lon="0.86439">
        <ele>60.4</ele>
        <time>2022-08-11T12:36:13Z</time>
      </trkpt>
      <trkpt lat="44.88576" lon="0.86447">
        <ele>59.4</ele>
        <time>2022-08-11T12:36:14Z</time>
      </trkpt>
      <trkpt lat="44.8858" lon="0.86453">
        <ele>57.4</ele>
        <time>2022-08-11T12:36:15Z</time>
      </trkpt>
      <trkpt lat="44.88583" lon="0.8646">
        <ele>57.4</ele>
        <time>2022-08-11T12:36:16Z</time>
      </trkpt>
      <trkpt lat="44.88586" lon="0.86467">
        <ele>56.4</ele>
        <time>2022-08-11T12:36:17Z</time>
      </trkpt>
      <trkpt lat="44.88589" lon="0.86473">
        <ele>55.4</ele>
        <time>2022-08-11T12:36:18Z</time>
      </trkpt>
      <trkpt lat="44.88592" lon="0.8648">
        <ele>55.4</ele>
        <time>2022-08-11T12:36:19Z</time>
      </trkpt>
      <trkpt lat="44.88595" lon="0.86486">
        <ele>54.4</ele>
        <time>2022-08-11T12:36:20Z</time>
      </trkpt>
      <trkpt lat="44.88598" lon="0.86491">
        <ele>54.4</ele>
        <time>2022-08-11T12:36:21Z</time>
      </trkpt>
      <trkpt lat="44.88603" lon="0.86502">
        <ele>53.4</ele>
        <time>2022-08-11T12:36:23Z</time>
      </trkpt>
      <trkpt lat="44.88608" lon="0.86513">
        <ele>53.4</ele>
        <time>2022-08-11T12:36:25Z</time>
      </trkpt>
      <trkpt lat="44.88612" lon="0.8652">
        <ele>52.4</ele>
        <time>2022-08-11T12:36:27Z</time>
      </trkpt>
      <trkpt lat="44.88616" lon="0.86527">
        <ele>52.4</ele>
        <time>2022-08-11T12:36:29Z</time>
      </trkpt>
      <trkpt lat="44.88619" lon="0.86534">
        <ele>52.4</ele>
        <time>2022-08-11T12:36:31Z</time>
      </trkpt>
      <trkpt lat="44.88622" lon="0.86541">
        <ele>51.4</ele>
        <time>2022-08-11T12:36:33Z</time>
      </trkpt>
      <trkpt lat="44.88625" lon="0.86547">
        <ele>51.4</ele>
        <time>2022-08-11T12:36:35Z</time>
      </trkpt>
      <trkpt lat="44.88627" lon="0.86555">
        <ele>51.4</ele>
        <time>2022-08-11T12:36:38Z</time>
      </trkpt>
      <trkpt lat="44.88628" lon="0.86561">
        <ele>51.4</ele>
        <time>2022-08-11T12:36:41Z</time>
      </trkpt>
      <trkpt lat="44.8863" lon="0.86567">
        <ele>52.4</ele>
        <time>2022-08-11T12:36:44Z</time>
      </trkpt>
      <trkpt lat="44.8863" lon="0.86574">
        <ele>53.4</ele>
        <time>2022-08-11T12:36:48Z</time>
      </trkpt>
      <trkpt lat="44.8863" lon="0.86583">
        <ele>54.4</ele>
        <time>2022-08-11T12:36:52Z</time>
      </trkpt>
      <trkpt lat="44.88627" lon="0.8659">
        <ele>55.4</ele>
        <time>2022-08-11T12:36:55Z</time>
      </trkpt>
      <trkpt lat="44.88624" lon="0.86595">
        <ele>56.4</ele>
        <time>2022-08-11T12:36:59Z</time>
      </trkpt>
      <trkpt lat="44.8862" lon="0.86597">
        <ele>56.4</ele>
        <time>2022-08-11T12:37:03Z</time>
      </trkpt>
      <trkpt lat="44.88616" lon="0.866">
        <ele>56.4</ele>
        <time>2022-08-11T12:37:06Z</time>
      </trkpt>
      <trkpt lat="44.88611" lon="0.86601">
        <ele>57.4</ele>
        <time>2022-08-11T12:37:09Z</time>
      </trkpt>
      <trkpt lat="44.88606" lon="0.86603">
        <ele>57.4</ele>
        <time>2022-08-11T12:37:13Z</time>
      </trkpt>
      <trkpt lat="44.88601" lon="0.86606">
        <ele>58.4</ele>
        <time>2022-08-11T12:37:17Z</time>
      </trkpt>
      <trkpt lat="44.88595" lon="0.86608">
        <ele>58.4</ele>
        <time>2022-08-11T12:37:21Z</time>
      </trkpt>
      <trkpt lat="44.88591" lon="0.86609">
        <ele>58.4</ele>
        <time>2022-08-11T12:37:25Z</time>
      </trkpt>
      <trkpt lat="44.88586" lon="0.86613">
        <ele>57.4</ele>
        <time>2022-08-11T12:37:29Z</time>
      </trkpt>
      <trkpt lat="44.8858" lon="0.86616">
        <ele>57.4</ele>
        <time>2022-08-11T12:37:33Z</time>
      </trkpt>
      <trkpt lat="44.88575" lon="0.8662">
        <ele>56.4</ele>
        <time>2022-08-11T12:37:36Z</time>
      </trkpt>
      <trkpt lat="44.88571" lon="0.86623">
        <ele>57.4</ele>
        <time>2022-08-11T12:37:40Z</time>
      </trkpt>
      <trkpt lat="44.88567" lon="0.86626">
        <ele>57.4</ele>
        <time>2022-08-11T12:37:43Z</time>
      </trkpt>
      <trkpt lat="44.88562" lon="0.86628">
        <ele>58.4</ele>
        <time>2022-08-11T12:37:46Z</time>
      </trkpt>
      <trkpt lat="44.88558" lon="0.8663">
        <ele>58.4</ele>
        <time>2022-08-11T12:37:50Z</time>
      </trkpt>
      <trkpt lat="44.88553" lon="0.86633">
        <ele>61.4</ele>
        <time>2022-08-11T12:37:53Z</time>
      </trkpt>
      <trkpt lat="44.88549" lon="0.86637">
        <ele>61.4</ele>
        <time>2022-08-11T12:37:57Z</time>
      </trkpt>
      <trkpt lat="44.88545" lon="0.86638">
        <ele>61.4</ele>
        <time>2022-08-11T12:38:00Z</time>
      </trkpt>
      <trkpt lat="44.8854" lon="0.86641">
        <ele>61.4</ele>
        <time>2022-08-11T12:38:03Z</time>
      </trkpt>
      <trkpt lat="44.88537" lon="0.86647">
        <ele>62.4</ele>
        <time>2022-08-11T12:38:06Z</time>
      </trkpt>
      <trkpt lat="44.88533" lon="0.86653">
        <ele>63.4</ele>
        <time>2022-08-11T12:38:10Z</time>
      </trkpt>
      <trkpt lat="44.8853" lon="0.86659">
        <ele>64.4</ele>
        <time>2022-08-11T12:38:13Z</time>
      </trkpt>
      <trkpt lat="44.88527" lon="0.86665">
        <ele>64.4</ele>
        <time>2022-08-11T12:38:16Z</time>
      </trkpt>
      <trkpt lat="44.88523" lon="0.86669">
        <ele>65.4</ele>
        <time>2022-08-11T12:38:19Z</time>
      </trkpt>
      <trkpt lat="44.88519" lon="0.86674">
        <ele>66.4</ele>
        <time>2022-08-11T12:38:23Z</time>
      </trkpt>
      <trkpt lat="44.88514" lon="0.86679">
        <ele>66.4</ele>
        <time>2022-08-11T12:38:27Z</time>
      </trkpt>
      <trkpt lat="44.88509" lon="0.86683">
        <ele>66.4</ele>
        <time>2022-08-11T12:38:30Z</time>
      </trkpt>
      <trkpt lat="44.88505" lon="0.86687">
        <ele>67.4</ele>
        <time>2022-08-11T12:38:33Z</time>
      </trkpt>
      <trkpt lat="44.88501" lon="0.86693">
        <ele>66.4</ele>
        <time>2022-08-11T12:38:37Z</time>
      </trkpt>
      <trkpt lat="44.88498" lon="0.86697">
        <ele>66.4</ele>
        <time>2022-08-11T12:38:40Z</time>
      </trkpt>
      <trkpt lat="44.88494" lon="0.86702">
        <ele>66.4</ele>
        <time>2022-08-11T12:38:43Z</time>
      </trkpt>
      <trkpt lat="44.8849" lon="0.86707">
        <ele>65.4</ele>
        <time>2022-08-11T12:38:46Z</time>
      </trkpt>
      <trkpt lat="44.88487" lon="0.86713">
        <ele>67.4</ele>
        <time>2022-08-11T12:38:49Z</time>
      </trkpt>
      <trkpt lat="44.88483" lon="0.86717">
        <ele>67.4</ele>
        <time>2022-08-11T12:38:52Z</time>
      </trkpt>
      <trkpt lat="44.88479" lon="0.86721">
        <ele>67.4</ele>
        <time>2022-08-11T12:38:55Z</time>
      </trkpt>
      <trkpt lat="44.88475" lon="0.86728">
        <ele>67.4</ele>
        <time>2022-08-11T12:38:59Z</time>
      </trkpt>
      <trkpt lat="44.88472" lon="0.86734">
        <ele>68.4</ele>
        <time>2022-08-11T12:39:03Z</time>
      </trkpt>
      <trkpt lat="44.88468" lon="0.86738">
        <ele>67.4</ele>
        <time>2022-08-11T12:39:06Z</time>
      </trkpt>
      <trkpt lat="44.88464" lon="0.86743">
        <ele>67.4</ele>
        <time>2022-08-11T12:39:10Z</time>
      </trkpt>
      <trkpt lat="44.8846" lon="0.86748">
        <ele>67.4</ele>
        <time>2022-08-11T12:39:14Z</time>
      </trkpt>
      <trkpt lat="44.88456" lon="0.86753">
        <ele>67.4</ele>
        <time>2022-08-11T12:39:17Z</time>
      </trkpt>
      <trkpt lat="44.88451" lon="0.86758">
        <ele>67.4</ele>
        <time>2022-08-11T12:39:20Z</time>
      </trkpt>
      <trkpt lat="44.88448" lon="0.86763">
        <ele>68.4</ele>
        <time>2022-08-11T12:39:23Z</time>
      </trkpt>
      <trkpt lat="44.88444" lon="0.86768">
        <ele>68.4</ele>
        <time>2022-08-11T12:39:26Z</time>
      </trkpt>
      <trkpt lat="44.88439" lon="0.86772">
        <ele>68.4</ele>
        <time>2022-08-11T12:39:30Z</time>
      </trkpt>
      <trkpt lat="44.88434" lon="0.86776">
        <ele>68.4</ele>
        <time>2022-08-11T12:39:34Z</time>
      </trkpt>
      <trkpt lat="44.88429" lon="0.86781">
        <ele>69.4</ele>
        <time>2022-08-11T12:39:38Z</time>
      </trkpt>
      <trkpt lat="44.88424" lon="0.86787">
        <ele>70.4</ele>
        <time>2022-08-11T12:39:42Z</time>
      </trkpt>
      <trkpt lat="44.8842" lon="0.8679">
        <ele>70.4</ele>
        <time>2022-08-11T12:39:46Z</time>
      </trkpt>
      <trkpt lat="44.88415" lon="0.86792">
        <ele>71.4</ele>
        <time>2022-08-11T12:39:50Z</time>
      </trkpt>
      <trkpt lat="44.88411" lon="0.86796">
        <ele>72.4</ele>
        <time>2022-08-11T12:39:54Z</time>
      </trkpt>
      <trkpt lat="44.88406" lon="0.86802">
        <ele>71.4</ele>
        <time>2022-08-11T12:39:57Z</time>
      </trkpt>
      <trkpt lat="44.88403" lon="0.86807">
        <ele>71.4</ele>
        <time>2022-08-11T12:40:00Z</time>
      </trkpt>
      <trkpt lat="44.88397" lon="0.8681">
        <ele>70.4</ele>
        <time>2022-08-11T12:40:03Z</time>
      </trkpt>
      <trkpt lat="44.88393" lon="0.86815">
        <ele>70.4</ele>
        <time>2022-08-11T12:40:07Z</time>
      </trkpt>
      <trkpt lat="44.8839" lon="0.86819">
        <ele>72.4</ele>
        <time>2022-08-11T12:40:11Z</time>
      </trkpt>
      <trkpt lat="44.88386" lon="0.86823">
        <ele>72.4</ele>
        <time>2022-08-11T12:40:14Z</time>
      </trkpt>
      <trkpt lat="44.88382" lon="0.86827">
        <ele>72.4</ele>
        <time>2022-08-11T12:40:17Z</time>
      </trkpt>
      <trkpt lat="44.88379" lon="0.86833">
        <ele>74.4</ele>
        <time>2022-08-11T12:40:20Z</time>
      </trkpt>
      <trkpt lat="44.88375" lon="0.86838">
        <ele>74.4</ele>
        <time>2022-08-11T12:40:23Z</time>
      </trkpt>
      <trkpt lat="44.88372" lon="0.86842">
        <ele>74.4</ele>
        <time>2022-08-11T12:40:26Z</time>
      </trkpt>
      <trkpt lat="44.88368" lon="0.86847">
        <ele>75.4</ele>
        <time>2022-08-11T12:40:30Z</time>
      </trkpt>
      <trkpt lat="44.88365" lon="0.86853">
        <ele>76.4</ele>
        <time>2022-08-11T12:40:33Z</time>
      </trkpt>
      <trkpt lat="44.8836" lon="0.86857">
        <ele>76.4</ele>
        <time>2022-08-11T12:40:36Z</time>
      </trkpt>
      <trkpt lat="44.88357" lon="0.86861">
        <ele>75.4</ele>
        <time>2022-08-11T12:40:39Z</time>
      </trkpt>
      <trkpt lat="44.88354" lon="0.86866">
        <ele>75.4</ele>
        <time>2022-08-11T12:40:42Z</time>
      </trkpt>
      <trkpt lat="44.8835" lon="0.8687">
        <ele>77.4</ele>
        <time>2022-08-11T12:40:45Z</time>
      </trkpt>
      <trkpt lat="44.88346" lon="0.86875">
        <ele>78.4</ele>
        <time>2022-08-11T12:40:48Z</time>
      </trkpt>
      <trkpt lat="44.88341" lon="0.8688">
        <ele>80.4</ele>
        <time>2022-08-11T12:40:51Z</time>
      </trkpt>
      <trkpt lat="44.88336" lon="0.86884">
        <ele>81.4</ele>
        <time>2022-08-11T12:40:55Z</time>
      </trkpt>
      <trkpt lat="44.88332" lon="0.86889">
        <ele>83.4</ele>
        <time>2022-08-11T12:41:01Z</time>
      </trkpt>
      <trkpt lat="44.88328" lon="0.86892">
        <ele>84.4</ele>
        <time>2022-08-11T12:41:04Z</time>
      </trkpt>
      <trkpt lat="44.88324" lon="0.86897">
        <ele>85.4</ele>
        <time>2022-08-11T12:41:08Z</time>
      </trkpt>
      <trkpt lat="44.8832" lon="0.86902">
        <ele>85.4</ele>
        <time>2022-08-11T12:41:11Z</time>
      </trkpt>
      <trkpt lat="44.88316" lon="0.86905">
        <ele>86.4</ele>
        <time>2022-08-11T12:41:14Z</time>
      </trkpt>
      <trkpt lat="44.88311" lon="0.8691">
        <ele>87.4</ele>
        <time>2022-08-11T12:41:18Z</time>
      </trkpt>
      <trkpt lat="44.88307" lon="0.86914">
        <ele>88.4</ele>
        <time>2022-08-11T12:41:21Z</time>
      </trkpt>
      <trkpt lat="44.88303" lon="0.86919">
        <ele>89.4</ele>
        <time>2022-08-11T12:41:25Z</time>
      </trkpt>
      <trkpt lat="44.88299" lon="0.86922">
        <ele>94.4</ele>
        <time>2022-08-11T12:42:16Z</time>
      </trkpt>
      <trkpt lat="44.88295" lon="0.86927">
        <ele>95.4</ele>
        <time>2022-08-11T12:42:20Z</time>
      </trkpt>
      <trkpt lat="44.88293" lon="0.86932">
        <ele>95.4</ele>
        <time>2022-08-11T12:42:23Z</time>
      </trkpt>
      <trkpt lat="44.88288" lon="0.86937">
        <ele>96.4</ele>
        <time>2022-08-11T12:42:27Z</time>
      </trkpt>
      <trkpt lat="44.88285" lon="0.86943">
        <ele>96.4</ele>
        <time>2022-08-11T12:42:30Z</time>
      </trkpt>
      <trkpt lat="44.88282" lon="0.8695">
        <ele>97.4</ele>
        <time>2022-08-11T12:42:34Z</time>
      </trkpt>
      <trkpt lat="44.8828" lon="0.86956">
        <ele>97.4</ele>
        <time>2022-08-11T12:42:37Z</time>
      </trkpt>
      <trkpt lat="44.88278" lon="0.86963">
        <ele>98.4</ele>
        <time>2022-08-11T12:42:41Z</time>
      </trkpt>
      <trkpt lat="44.88278" lon="0.86971">
        <ele>98.4</ele>
        <time>2022-08-11T12:42:45Z</time>
      </trkpt>
      <trkpt lat="44.88279" lon="0.86978">
        <ele>98.4</ele>
        <time>2022-08-11T12:42:48Z</time>
      </trkpt>
      <trkpt lat="44.8828" lon="0.86985">
        <ele>99.4</ele>
        <time>2022-08-11T12:42:51Z</time>
      </trkpt>
      <trkpt lat="44.88282" lon="0.86992">
        <ele>99.4</ele>
        <time>2022-08-11T12:42:54Z</time>
      </trkpt>
      <trkpt lat="44.88284" lon="0.86998">
        <ele>98.4</ele>
        <time>2022-08-11T12:42:57Z</time>
      </trkpt>
      <trkpt lat="44.88286" lon="0.87005">
        <ele>98.4</ele>
        <time>2022-08-11T12:43:00Z</time>
      </trkpt>
      <trkpt lat="44.88288" lon="0.87012">
        <ele>99.4</ele>
        <time>2022-08-11T12:43:04Z</time>
      </trkpt>
      <trkpt lat="44.8829" lon="0.87018">
        <ele>99.4</ele>
        <time>2022-08-11T12:43:08Z</time>
      </trkpt>
      <trkpt lat="44.88293" lon="0.87024">
        <ele>98.4</ele>
        <time>2022-08-11T12:43:12Z</time>
      </trkpt>
      <trkpt lat="44.88296" lon="0.8703">
        <ele>98.4</ele>
        <time>2022-08-11T12:43:16Z</time>
      </trkpt>
      <trkpt lat="44.88299" lon="0.87037">
        <ele>97.4</ele>
        <time>2022-08-11T12:43:20Z</time>
      </trkpt>
      <trkpt lat="44.88303" lon="0.87042">
        <ele>96.4</ele>
        <time>2022-08-11T12:43:24Z</time>
      </trkpt>
      <trkpt lat="44.88306" lon="0.87048">
        <ele>96.4</ele>
        <time>2022-08-11T12:43:28Z</time>
      </trkpt>
      <trkpt lat="44.88308" lon="0.87056">
        <ele>97.4</ele>
        <time>2022-08-11T12:43:32Z</time>
      </trkpt>
      <trkpt lat="44.88311" lon="0.87061">
        <ele>97.4</ele>
        <time>2022-08-11T12:43:35Z</time>
      </trkpt>
      <trkpt lat="44.88314" lon="0.87066">
        <ele>98.4</ele>
        <time>2022-08-11T12:43:38Z</time>
      </trkpt>
      <trkpt lat="44.88316" lon="0.87072">
        <ele>98.4</ele>
        <time>2022-08-11T12:43:41Z</time>
      </trkpt>
      <trkpt lat="44.88318" lon="0.87079">
        <ele>98.4</ele>
        <time>2022-08-11T12:43:45Z</time>
      </trkpt>
      <trkpt lat="44.88322" lon="0.87086">
        <ele>98.4</ele>
        <time>2022-08-11T12:43:49Z</time>
      </trkpt>
      <trkpt lat="44.88326" lon="0.87093">
        <ele>99.4</ele>
        <time>2022-08-11T12:43:53Z</time>
      </trkpt>
      <trkpt lat="44.88328" lon="0.871">
        <ele>99.4</ele>
        <time>2022-08-11T12:43:57Z</time>
      </trkpt>
      <trkpt lat="44.88332" lon="0.87106">
        <ele>100.4</ele>
        <time>2022-08-11T12:44:01Z</time>
      </trkpt>
      <trkpt lat="44.88335" lon="0.87113">
        <ele>101.4</ele>
        <time>2022-08-11T12:44:05Z</time>
      </trkpt>
      <trkpt lat="44.88336" lon="0.8712">
        <ele>101.4</ele>
        <time>2022-08-11T12:44:09Z</time>
      </trkpt>
      <trkpt lat="44.88338" lon="0.87127">
        <ele>101.4</ele>
        <time>2022-08-11T12:44:12Z</time>
      </trkpt>
      <trkpt lat="44.8834" lon="0.87133">
        <ele>101.4</ele>
        <time>2022-08-11T12:44:15Z</time>
      </trkpt>
      <trkpt lat="44.88343" lon="0.87141">
        <ele>101.4</ele>
        <time>2022-08-11T12:44:18Z</time>
      </trkpt>
      <trkpt lat="44.88346" lon="0.87147">
        <ele>103.4</ele>
        <time>2022-08-11T12:44:21Z</time>
      </trkpt>
      <trkpt lat="44.88348" lon="0.87153">
        <ele>104.4</ele>
        <time>2022-08-11T12:44:23Z</time>
      </trkpt>
      <trkpt lat="44.88351" lon="0.87159">
        <ele>105.4</ele>
        <time>2022-08-11T12:44:25Z</time>
      </trkpt>
      <trkpt lat="44.88353" lon="0.87166">
        <ele>105.4</ele>
        <time>2022-08-11T12:44:27Z</time>
      </trkpt>
      <trkpt lat="44.88356" lon="0.87175">
        <ele>106.4</ele>
        <time>2022-08-11T12:44:29Z</time>
      </trkpt>
      <trkpt lat="44.88358" lon="0.87184">
        <ele>107.4</ele>
        <time>2022-08-11T12:44:31Z</time>
      </trkpt>
      <trkpt lat="44.88361" lon="0.87193">
        <ele>108.4</ele>
        <time>2022-08-11T12:44:33Z</time>
      </trkpt>
      <trkpt lat="44.88363" lon="0.87201">
        <ele>108.4</ele>
        <time>2022-08-11T12:44:35Z</time>
      </trkpt>
      <trkpt lat="44.88364" lon="0.87209">
        <ele>110.4</ele>
        <time>2022-08-11T12:44:37Z</time>
      </trkpt>
      <trkpt lat="44.88366" lon="0.87219">
        <ele>109.4</ele>
        <time>2022-08-11T12:44:39Z</time>
      </trkpt>
      <trkpt lat="44.88369" lon="0.87231">
        <ele>109.4</ele>
        <time>2022-08-11T12:44:41Z</time>
      </trkpt>
      <trkpt lat="44.88371" lon="0.87239">
        <ele>109.4</ele>
        <time>2022-08-11T12:44:42Z</time>
      </trkpt>
      <trkpt lat="44.88373" lon="0.87247">
        <ele>109.4</ele>
        <time>2022-08-11T12:44:43Z</time>
      </trkpt>
      <trkpt lat="44.88374" lon="0.87255">
        <ele>109.4</ele>
        <time>2022-08-11T12:44:44Z</time>
      </trkpt>
      <trkpt lat="44.88375" lon="0.87263">
        <ele>109.4</ele>
        <time>2022-08-11T12:44:45Z</time>
      </trkpt>
      <trkpt lat="44.88376" lon="0.87272">
        <ele>108.4</ele>
        <time>2022-08-11T12:44:46Z</time>
      </trkpt>
      <trkpt lat="44.88377" lon="0.87281">
        <ele>108.4</ele>
        <time>2022-08-11T12:44:47Z</time>
      </trkpt>
      <trkpt lat="44.88378" lon="0.8729">
        <ele>107.4</ele>
        <time>2022-08-11T12:44:48Z</time>
      </trkpt>
      <trkpt lat="44.88379" lon="0.873">
        <ele>107.4</ele>
        <time>2022-08-11T12:44:49Z</time>
      </trkpt>
      <trkpt lat="44.88381" lon="0.8731">
        <ele>107.4</ele>
        <time>2022-08-11T12:44:50Z</time>
      </trkpt>
      <trkpt lat="44.88382" lon="0.87321">
        <ele>106.4</ele>
        <time>2022-08-11T12:44:51Z</time>
      </trkpt>
      <trkpt lat="44.88384" lon="0.87332">
        <ele>106.4</ele>
        <time>2022-08-11T12:44:52Z</time>
      </trkpt>
      <trkpt lat="44.88385" lon="0.87343">
        <ele>106.4</ele>
        <time>2022-08-11T12:44:53Z</time>
      </trkpt>
      <trkpt lat="44.88387" lon="0.87354">
        <ele>105.4</ele>
        <time>2022-08-11T12:44:54Z</time>
      </trkpt>
      <trkpt lat="44.8839" lon="0.87366">
        <ele>104.4</ele>
        <time>2022-08-11T12:44:55Z</time>
      </trkpt>
      <trkpt lat="44.88393" lon="0.87377">
        <ele>103.4</ele>
        <time>2022-08-11T12:44:56Z</time>
      </trkpt>
      <trkpt lat="44.88397" lon="0.87387">
        <ele>103.4</ele>
        <time>2022-08-11T12:44:57Z</time>
      </trkpt>
      <trkpt lat="44.884" lon="0.87399">
        <ele>102.4</ele>
        <time>2022-08-11T12:44:58Z</time>
      </trkpt>
      <trkpt lat="44.88403" lon="0.8741">
        <ele>101.4</ele>
        <time>2022-08-11T12:44:59Z</time>
      </trkpt>
      <trkpt lat="44.88405" lon="0.87422">
        <ele>101.4</ele>
        <time>2022-08-11T12:45:00Z</time>
      </trkpt>
      <trkpt lat="44.88406" lon="0.87433">
        <ele>100.4</ele>
        <time>2022-08-11T12:45:01Z</time>
      </trkpt>
      <trkpt lat="44.88406" lon="0.87445">
        <ele>100.4</ele>
        <time>2022-08-11T12:45:02Z</time>
      </trkpt>
      <trkpt lat="44.88405" lon="0.87456">
        <ele>100.4</ele>
        <time>2022-08-11T12:45:03Z</time>
      </trkpt>
      <trkpt lat="44.88404" lon="0.87466">
        <ele>100.4</ele>
        <time>2022-08-11T12:45:04Z</time>
      </trkpt>
      <trkpt lat="44.88403" lon="0.87474">
        <ele>101.4</ele>
        <time>2022-08-11T12:45:05Z</time>
      </trkpt>
      <trkpt lat="44.88402" lon="0.87481">
        <ele>102.4</ele>
        <time>2022-08-11T12:45:06Z</time>
      </trkpt>
      <trkpt lat="44.88401" lon="0.87488">
        <ele>101.4</ele>
        <time>2022-08-11T12:45:07Z</time>
      </trkpt>
      <trkpt lat="44.88401" lon="0.87501">
        <ele>101.4</ele>
        <time>2022-08-11T12:45:09Z</time>
      </trkpt>
      <trkpt lat="44.88402" lon="0.87509">
        <ele>101.4</ele>
        <time>2022-08-11T12:45:11Z</time>
      </trkpt>
      <trkpt lat="44.88403" lon="0.87518">
        <ele>101.4</ele>
        <time>2022-08-11T12:45:13Z</time>
      </trkpt>
      <trkpt lat="44.88404" lon="0.87526">
        <ele>101.4</ele>
        <time>2022-08-11T12:45:15Z</time>
      </trkpt>
      <trkpt lat="44.88405" lon="0.87535">
        <ele>102.4</ele>
        <time>2022-08-11T12:45:17Z</time>
      </trkpt>
      <trkpt lat="44.88406" lon="0.87543">
        <ele>102.4</ele>
        <time>2022-08-11T12:45:19Z</time>
      </trkpt>
      <trkpt lat="44.88407" lon="0.87551">
        <ele>102.4</ele>
        <time>2022-08-11T12:45:21Z</time>
      </trkpt>
      <trkpt lat="44.8841" lon="0.87558">
        <ele>102.4</ele>
        <time>2022-08-11T12:45:23Z</time>
      </trkpt>
      <trkpt lat="44.88412" lon="0.87566">
        <ele>102.4</ele>
        <time>2022-08-11T12:45:25Z</time>
      </trkpt>
      <trkpt lat="44.88415" lon="0.87574">
        <ele>102.4</ele>
        <time>2022-08-11T12:45:27Z</time>
      </trkpt>
      <trkpt lat="44.88417" lon="0.87582">
        <ele>101.4</ele>
        <time>2022-08-11T12:45:29Z</time>
      </trkpt>
      <trkpt lat="44.88421" lon="0.87594">
        <ele>101.4</ele>
        <time>2022-08-11T12:45:32Z</time>
      </trkpt>
      <trkpt lat="44.88423" lon="0.87602">
        <ele>102.4</ele>
        <time>2022-08-11T12:45:34Z</time>
      </trkpt>
      <trkpt lat="44.88425" lon="0.8761">
        <ele>102.4</ele>
        <time>2022-08-11T12:45:36Z</time>
      </trkpt>
      <trkpt lat="44.88428" lon="0.87615">
        <ele>102.4</ele>
        <time>2022-08-11T12:45:38Z</time>
      </trkpt>
      <trkpt lat="44.88432" lon="0.87621">
        <ele>102.4</ele>
        <time>2022-08-11T12:45:41Z</time>
      </trkpt>
      <trkpt lat="44.88432" lon="0.87628">
        <ele>102.4</ele>
        <time>2022-08-11T12:45:49Z</time>
      </trkpt>
      <trkpt lat="44.8843" lon="0.87634">
        <ele>103.4</ele>
        <time>2022-08-11T12:45:51Z</time>
      </trkpt>
      <trkpt lat="44.88429" lon="0.87645">
        <ele>103.4</ele>
        <time>2022-08-11T12:45:54Z</time>
      </trkpt>
      <trkpt lat="44.88428" lon="0.87655">
        <ele>104.4</ele>
        <time>2022-08-11T12:45:56Z</time>
      </trkpt>
      <trkpt lat="44.88428" lon="0.87665">
        <ele>105.4</ele>
        <time>2022-08-11T12:45:58Z</time>
      </trkpt>
      <trkpt lat="44.88427" lon="0.87676">
        <ele>105.4</ele>
        <time>2022-08-11T12:46:00Z</time>
      </trkpt>
      <trkpt lat="44.88426" lon="0.87684">
        <ele>105.4</ele>
        <time>2022-08-11T12:46:02Z</time>
      </trkpt>
      <trkpt lat="44.88424" lon="0.87693">
        <ele>106.4</ele>
        <time>2022-08-11T12:46:04Z</time>
      </trkpt>
      <trkpt lat="44.88423" lon="0.87701">
        <ele>106.4</ele>
        <time>2022-08-11T12:46:06Z</time>
      </trkpt>
      <trkpt lat="44.88422" lon="0.87709">
        <ele>106.4</ele>
        <time>2022-08-11T12:46:08Z</time>
      </trkpt>
      <trkpt lat="44.88421" lon="0.87717">
        <ele>106.4</ele>
        <time>2022-08-11T12:46:10Z</time>
      </trkpt>
      <trkpt lat="44.8842" lon="0.87724">
        <ele>106.4</ele>
        <time>2022-08-11T12:46:12Z</time>
      </trkpt>
      <trkpt lat="44.88419" lon="0.87731">
        <ele>107.4</ele>
        <time>2022-08-11T12:46:14Z</time>
      </trkpt>
      <trkpt lat="44.88418" lon="0.87741">
        <ele>107.4</ele>
        <time>2022-08-11T12:46:17Z</time>
      </trkpt>
      <trkpt lat="44.88418" lon="0.87748">
        <ele>108.4</ele>
        <time>2022-08-11T12:46:20Z</time>
      </trkpt>
      <trkpt lat="44.88418" lon="0.87755">
        <ele>108.4</ele>
        <time>2022-08-11T12:46:23Z</time>
      </trkpt>
      <trkpt lat="44.88416" lon="0.87763">
        <ele>109.4</ele>
        <time>2022-08-11T12:46:27Z</time>
      </trkpt>
      <trkpt lat="44.88416" lon="0.87771">
        <ele>109.4</ele>
        <time>2022-08-11T12:46:31Z</time>
      </trkpt>
      <trkpt lat="44.88416" lon="0.87777">
        <ele>109.4</ele>
        <time>2022-08-11T12:46:34Z</time>
      </trkpt>
      <trkpt lat="44.88415" lon="0.87784">
        <ele>109.4</ele>
        <time>2022-08-11T12:46:37Z</time>
      </trkpt>
      <trkpt lat="44.88415" lon="0.87792">
        <ele>110.4</ele>
        <time>2022-08-11T12:46:41Z</time>
      </trkpt>
      <trkpt lat="44.88415" lon="0.878">
        <ele>110.4</ele>
        <time>2022-08-11T12:46:46Z</time>
      </trkpt>
      <trkpt lat="44.88414" lon="0.87808">
        <ele>111.4</ele>
        <time>2022-08-11T12:46:50Z</time>
      </trkpt>
      <trkpt lat="44.88414" lon="0.87815">
        <ele>112.4</ele>
        <time>2022-08-11T12:46:53Z</time>
      </trkpt>
      <trkpt lat="44.88414" lon="0.87823">
        <ele>112.4</ele>
        <time>2022-08-11T12:46:56Z</time>
      </trkpt>
      <trkpt lat="44.88415" lon="0.87829">
        <ele>113.4</ele>
        <time>2022-08-11T12:46:59Z</time>
      </trkpt>
      <trkpt lat="44.88415" lon="0.87837">
        <ele>113.4</ele>
        <time>2022-08-11T12:47:02Z</time>
      </trkpt>
      <trkpt lat="44.88414" lon="0.87845">
        <ele>114.4</ele>
        <time>2022-08-11T12:47:05Z</time>
      </trkpt>
      <trkpt lat="44.88414" lon="0.87851">
        <ele>115.4</ele>
        <time>2022-08-11T12:47:08Z</time>
      </trkpt>
      <trkpt lat="44.88414" lon="0.87858">
        <ele>115.4</ele>
        <time>2022-08-11T12:47:11Z</time>
      </trkpt>
      <trkpt lat="44.88414" lon="0.87865">
        <ele>115.4</ele>
        <time>2022-08-11T12:47:14Z</time>
      </trkpt>
      <trkpt lat="44.88414" lon="0.87872">
        <ele>116.4</ele>
        <time>2022-08-11T12:47:17Z</time>
      </trkpt>
      <trkpt lat="44.88414" lon="0.87878">
        <ele>118.4</ele>
        <time>2022-08-11T12:47:20Z</time>
      </trkpt>
      <trkpt lat="44.88413" lon="0.87886">
        <ele>119.4</ele>
        <time>2022-08-11T12:47:24Z</time>
      </trkpt>
      <trkpt lat="44.88413" lon="0.87894">
        <ele>119.4</ele>
        <time>2022-08-11T12:47:28Z</time>
      </trkpt>
      <trkpt lat="44.88413" lon="0.87901">
        <ele>120.4</ele>
        <time>2022-08-11T12:47:31Z</time>
      </trkpt>
      <trkpt lat="44.88412" lon="0.87908">
        <ele>121.4</ele>
        <time>2022-08-11T12:47:35Z</time>
      </trkpt>
      <trkpt lat="44.88412" lon="0.87917">
        <ele>123.4</ele>
        <time>2022-08-11T12:47:39Z</time>
      </trkpt>
      <trkpt lat="44.88411" lon="0.87924">
        <ele>123.4</ele>
        <time>2022-08-11T12:47:42Z</time>
      </trkpt>
      <trkpt lat="44.88411" lon="0.87932">
        <ele>123.4</ele>
        <time>2022-08-11T12:47:45Z</time>
      </trkpt>
      <trkpt lat="44.8841" lon="0.87938">
        <ele>124.4</ele>
        <time>2022-08-11T12:47:48Z</time>
      </trkpt>
      <trkpt lat="44.88409" lon="0.87945">
        <ele>124.4</ele>
        <time>2022-08-11T12:47:51Z</time>
      </trkpt>
      <trkpt lat="44.88409" lon="0.87953">
        <ele>125.4</ele>
        <time>2022-08-11T12:47:55Z</time>
      </trkpt>
      <trkpt lat="44.88413" lon="0.87958">
        <ele>124.4</ele>
        <time>2022-08-11T12:47:59Z</time>
      </trkpt>
      <trkpt lat="44.88419" lon="0.87958">
        <ele>124.4</ele>
        <time>2022-08-11T12:48:02Z</time>
      </trkpt>
      <trkpt lat="44.88426" lon="0.87958">
        <ele>125.4</ele>
        <time>2022-08-11T12:48:05Z</time>
      </trkpt>
      <trkpt lat="44.88431" lon="0.87959">
        <ele>125.4</ele>
        <time>2022-08-11T12:48:07Z</time>
      </trkpt>
      <trkpt lat="44.88438" lon="0.87959">
        <ele>124.4</ele>
        <time>2022-08-11T12:48:09Z</time>
      </trkpt>
      <trkpt lat="44.88445" lon="0.8796">
        <ele>124.4</ele>
        <time>2022-08-11T12:48:11Z</time>
      </trkpt>
      <trkpt lat="44.88453" lon="0.87962">
        <ele>124.4</ele>
        <time>2022-08-11T12:48:13Z</time>
      </trkpt>
      <trkpt lat="44.88458" lon="0.87963">
        <ele>123.4</ele>
        <time>2022-08-11T12:48:14Z</time>
      </trkpt>
      <trkpt lat="44.88463" lon="0.87964">
        <ele>123.4</ele>
        <time>2022-08-11T12:48:15Z</time>
      </trkpt>
      <trkpt lat="44.88468" lon="0.87965">
        <ele>122.4</ele>
        <time>2022-08-11T12:48:16Z</time>
      </trkpt>
      <trkpt lat="44.88472" lon="0.87965">
        <ele>122.4</ele>
        <time>2022-08-11T12:48:17Z</time>
      </trkpt>
      <trkpt lat="44.88477" lon="0.87965">
        <ele>122.4</ele>
        <time>2022-08-11T12:48:18Z</time>
      </trkpt>
      <trkpt lat="44.88482" lon="0.87965">
        <ele>122.4</ele>
        <time>2022-08-11T12:48:19Z</time>
      </trkpt>
      <trkpt lat="44.8849" lon="0.87966">
        <ele>121.4</ele>
        <time>2022-08-11T12:48:21Z</time>
      </trkpt>
      <trkpt lat="44.88495" lon="0.87967">
        <ele>121.4</ele>
        <time>2022-08-11T12:48:22Z</time>
      </trkpt>
      <trkpt lat="44.88499" lon="0.87968">
        <ele>121.4</ele>
        <time>2022-08-11T12:48:23Z</time>
      </trkpt>
      <trkpt lat="44.88507" lon="0.87971">
        <ele>121.4</ele>
        <time>2022-08-11T12:48:25Z</time>
      </trkpt>
      <trkpt lat="44.88514" lon="0.87973">
        <ele>121.4</ele>
        <time>2022-08-11T12:48:27Z</time>
      </trkpt>
      <trkpt lat="44.88523" lon="0.87974">
        <ele>123.4</ele>
        <time>2022-08-11T12:48:29Z</time>
      </trkpt>
      <trkpt lat="44.88527" lon="0.87974">
        <ele>124.4</ele>
        <time>2022-08-11T12:48:30Z</time>
      </trkpt>
      <trkpt lat="44.88532" lon="0.87975">
        <ele>123.4</ele>
        <time>2022-08-11T12:48:31Z</time>
      </trkpt>
      <trkpt lat="44.88537" lon="0.87976">
        <ele>123.4</ele>
        <time>2022-08-11T12:48:32Z</time>
      </trkpt>
      <trkpt lat="44.88542" lon="0.87976">
        <ele>123.4</ele>
        <time>2022-08-11T12:48:33Z</time>
      </trkpt>
      <trkpt lat="44.88547" lon="0.87977">
        <ele>123.4</ele>
        <time>2022-08-11T12:48:34Z</time>
      </trkpt>
      <trkpt lat="44.88552" lon="0.87977">
        <ele>123.4</ele>
        <time>2022-08-11T12:48:35Z</time>
      </trkpt>
      <trkpt lat="44.88557" lon="0.87978">
        <ele>123.4</ele>
        <time>2022-08-11T12:48:36Z</time>
      </trkpt>
      <trkpt lat="44.88566" lon="0.87979">
        <ele>123.4</ele>
        <time>2022-08-11T12:48:38Z</time>
      </trkpt>
      <trkpt lat="44.8857" lon="0.8798">
        <ele>123.4</ele>
        <time>2022-08-11T12:48:39Z</time>
      </trkpt>
      <trkpt lat="44.88575" lon="0.8798">
        <ele>122.4</ele>
        <time>2022-08-11T12:48:40Z</time>
      </trkpt>
      <trkpt lat="44.88584" lon="0.87981">
        <ele>122.4</ele>
        <time>2022-08-11T12:48:42Z</time>
      </trkpt>
      <trkpt lat="44.88591" lon="0.87981">
        <ele>122.4</ele>
        <time>2022-08-11T12:48:44Z</time>
      </trkpt>
      <trkpt lat="44.88597" lon="0.87981">
        <ele>123.4</ele>
        <time>2022-08-11T12:48:46Z</time>
      </trkpt>
      <trkpt lat="44.88603" lon="0.87981">
        <ele>123.4</ele>
        <time>2022-08-11T12:48:48Z</time>
      </trkpt>
      <trkpt lat="44.88608" lon="0.87982">
        <ele>123.4</ele>
        <time>2022-08-11T12:48:50Z</time>
      </trkpt>
      <trkpt lat="44.88613" lon="0.87984">
        <ele>123.4</ele>
        <time>2022-08-11T12:48:52Z</time>
      </trkpt>
      <trkpt lat="44.88618" lon="0.87987">
        <ele>123.4</ele>
        <time>2022-08-11T12:48:54Z</time>
      </trkpt>
      <trkpt lat="44.88622" lon="0.87993">
        <ele>123.4</ele>
        <time>2022-08-11T12:48:56Z</time>
      </trkpt>
      <trkpt lat="44.88622" lon="0.88003">
        <ele>122.4</ele>
        <time>2022-08-11T12:48:58Z</time>
      </trkpt>
      <trkpt lat="44.88622" lon="0.8801">
        <ele>121.4</ele>
        <time>2022-08-11T12:48:59Z</time>
      </trkpt>
      <trkpt lat="44.88622" lon="0.88018">
        <ele>120.4</ele>
        <time>2022-08-11T12:49:00Z</time>
      </trkpt>
      <trkpt lat="44.88621" lon="0.88025">
        <ele>120.4</ele>
        <time>2022-08-11T12:49:01Z</time>
      </trkpt>
      <trkpt lat="44.88619" lon="0.88033">
        <ele>119.4</ele>
        <time>2022-08-11T12:49:02Z</time>
      </trkpt>
      <trkpt lat="44.88619" lon="0.88041">
        <ele>118.4</ele>
        <time>2022-08-11T12:49:03Z</time>
      </trkpt>
      <trkpt lat="44.88617" lon="0.88051">
        <ele>118.4</ele>
        <time>2022-08-11T12:49:04Z</time>
      </trkpt>
      <trkpt lat="44.88616" lon="0.88061">
        <ele>118.4</ele>
        <time>2022-08-11T12:49:05Z</time>
      </trkpt>
      <trkpt lat="44.88615" lon="0.88073">
        <ele>118.4</ele>
        <time>2022-08-11T12:49:06Z</time>
      </trkpt>
      <trkpt lat="44.88613" lon="0.88084">
        <ele>118.4</ele>
        <time>2022-08-11T12:49:07Z</time>
      </trkpt>
      <trkpt lat="44.88611" lon="0.88094">
        <ele>118.4</ele>
        <time>2022-08-11T12:49:08Z</time>
      </trkpt>
      <trkpt lat="44.88609" lon="0.88104">
        <ele>117.4</ele>
        <time>2022-08-11T12:49:09Z</time>
      </trkpt>
      <trkpt lat="44.88609" lon="0.88112">
        <ele>117.4</ele>
        <time>2022-08-11T12:49:10Z</time>
      </trkpt>
      <trkpt lat="44.88609" lon="0.8812">
        <ele>117.4</ele>
        <time>2022-08-11T12:49:11Z</time>
      </trkpt>
      <trkpt lat="44.88612" lon="0.88126">
        <ele>117.4</ele>
        <time>2022-08-11T12:49:12Z</time>
      </trkpt>
      <trkpt lat="44.88617" lon="0.88129">
        <ele>118.4</ele>
        <time>2022-08-11T12:49:13Z</time>
      </trkpt>
      <trkpt lat="44.88623" lon="0.88128">
        <ele>117.4</ele>
        <time>2022-08-11T12:49:14Z</time>
      </trkpt>
      <trkpt lat="44.88629" lon="0.88127">
        <ele>118.4</ele>
        <time>2022-08-11T12:49:15Z</time>
      </trkpt>
      <trkpt lat="44.88634" lon="0.88126">
        <ele>117.4</ele>
        <time>2022-08-11T12:49:16Z</time>
      </trkpt>
      <trkpt lat="44.8864" lon="0.88124">
        <ele>118.4</ele>
        <time>2022-08-11T12:49:18Z</time>
      </trkpt>
      <trkpt lat="44.88645" lon="0.88122">
        <ele>119.4</ele>
        <time>2022-08-11T12:49:21Z</time>
      </trkpt>
      <trkpt lat="44.88649" lon="0.88119">
        <ele>120.4</ele>
        <time>2022-08-11T12:49:26Z</time>
      </trkpt>
      <trkpt lat="44.88655" lon="0.88117">
        <ele>121.4</ele>
        <time>2022-08-11T12:49:30Z</time>
      </trkpt>
      <trkpt lat="44.8866" lon="0.88116">
        <ele>122.4</ele>
        <time>2022-08-11T12:49:34Z</time>
      </trkpt>
      <trkpt lat="44.88665" lon="0.88116">
        <ele>123.4</ele>
        <time>2022-08-11T12:49:37Z</time>
      </trkpt>
      <trkpt lat="44.88671" lon="0.88116">
        <ele>123.4</ele>
        <time>2022-08-11T12:49:43Z</time>
      </trkpt>
      <trkpt lat="44.88676" lon="0.88117">
        <ele>125.4</ele>
        <time>2022-08-11T12:49:47Z</time>
      </trkpt>
      <trkpt lat="44.88681" lon="0.88118">
        <ele>126.4</ele>
        <time>2022-08-11T12:49:51Z</time>
      </trkpt>
      <trkpt lat="44.88686" lon="0.8812">
        <ele>126.4</ele>
        <time>2022-08-11T12:49:56Z</time>
      </trkpt>
      <trkpt lat="44.88691" lon="0.88124">
        <ele>127.4</ele>
        <time>2022-08-11T12:50:00Z</time>
      </trkpt>
      <trkpt lat="44.88696" lon="0.88126">
        <ele>127.4</ele>
        <time>2022-08-11T12:50:03Z</time>
      </trkpt>
      <trkpt lat="44.88701" lon="0.88127">
        <ele>127.4</ele>
        <time>2022-08-11T12:50:06Z</time>
      </trkpt>
      <trkpt lat="44.88706" lon="0.88127">
        <ele>129.4</ele>
        <time>2022-08-11T12:50:09Z</time>
      </trkpt>
      <trkpt lat="44.88711" lon="0.88128">
        <ele>130.4</ele>
        <time>2022-08-11T12:50:12Z</time>
      </trkpt>
      <trkpt lat="44.88716" lon="0.88129">
        <ele>131.4</ele>
        <time>2022-08-11T12:50:15Z</time>
      </trkpt>
      <trkpt lat="44.88722" lon="0.88127">
        <ele>131.4</ele>
        <time>2022-08-11T12:50:19Z</time>
      </trkpt>
      <trkpt lat="44.88727" lon="0.88127">
        <ele>132.4</ele>
        <time>2022-08-11T12:50:22Z</time>
      </trkpt>
      <trkpt lat="44.88732" lon="0.88127">
        <ele>132.4</ele>
        <time>2022-08-11T12:50:25Z</time>
      </trkpt>
      <trkpt lat="44.88737" lon="0.88126">
        <ele>133.4</ele>
        <time>2022-08-11T12:50:28Z</time>
      </trkpt>
      <trkpt lat="44.88743" lon="0.88126">
        <ele>133.4</ele>
        <time>2022-08-11T12:50:31Z</time>
      </trkpt>
      <trkpt lat="44.88748" lon="0.88126">
        <ele>135.4</ele>
        <time>2022-08-11T12:50:34Z</time>
      </trkpt>
      <trkpt lat="44.88754" lon="0.88125">
        <ele>137.4</ele>
        <time>2022-08-11T12:50:37Z</time>
      </trkpt>
      <trkpt lat="44.8876" lon="0.88125">
        <ele>137.4</ele>
        <time>2022-08-11T12:50:40Z</time>
      </trkpt>
      <trkpt lat="44.88764" lon="0.88124">
        <ele>137.4</ele>
        <time>2022-08-11T12:50:43Z</time>
      </trkpt>
      <trkpt lat="44.88769" lon="0.88123">
        <ele>135.4</ele>
        <time>2022-08-11T12:51:10Z</time>
      </trkpt>
      <trkpt lat="44.88775" lon="0.8812">
        <ele>134.4</ele>
        <time>2022-08-11T12:51:13Z</time>
      </trkpt>
      <trkpt lat="44.8878" lon="0.88116">
        <ele>132.4</ele>
        <time>2022-08-11T12:51:15Z</time>
      </trkpt>
      <trkpt lat="44.88786" lon="0.88112">
        <ele>131.4</ele>
        <time>2022-08-11T12:51:17Z</time>
      </trkpt>
      <trkpt lat="44.88793" lon="0.88108">
        <ele>131.4</ele>
        <time>2022-08-11T12:51:19Z</time>
      </trkpt>
      <trkpt lat="44.88798" lon="0.88106">
        <ele>129.4</ele>
        <time>2022-08-11T12:51:20Z</time>
      </trkpt>
      <trkpt lat="44.88804" lon="0.88104">
        <ele>128.4</ele>
        <time>2022-08-11T12:51:21Z</time>
      </trkpt>
      <trkpt lat="44.8881" lon="0.88102">
        <ele>128.4</ele>
        <time>2022-08-11T12:51:22Z</time>
      </trkpt>
      <trkpt lat="44.88816" lon="0.88101">
        <ele>128.4</ele>
        <time>2022-08-11T12:51:23Z</time>
      </trkpt>
      <trkpt lat="44.88822" lon="0.88099">
        <ele>128.4</ele>
        <time>2022-08-11T12:51:24Z</time>
      </trkpt>
      <trkpt lat="44.88829" lon="0.88097">
        <ele>128.4</ele>
        <time>2022-08-11T12:51:25Z</time>
      </trkpt>
      <trkpt lat="44.88836" lon="0.88096">
        <ele>128.4</ele>
        <time>2022-08-11T12:51:26Z</time>
      </trkpt>
      <trkpt lat="44.88842" lon="0.88094">
        <ele>128.4</ele>
        <time>2022-08-11T12:51:27Z</time>
      </trkpt>
      <trkpt lat="44.88848" lon="0.88091">
        <ele>128.4</ele>
        <time>2022-08-11T12:51:28Z</time>
      </trkpt>
      <trkpt lat="44.88853" lon="0.88089">
        <ele>127.4</ele>
        <time>2022-08-11T12:51:29Z</time>
      </trkpt>
      <trkpt lat="44.88859" lon="0.88086">
        <ele>127.4</ele>
        <time>2022-08-11T12:51:30Z</time>
      </trkpt>
      <trkpt lat="44.88863" lon="0.88083">
        <ele>127.4</ele>
        <time>2022-08-11T12:51:31Z</time>
      </trkpt>
      <trkpt lat="44.88868" lon="0.88079">
        <ele>126.4</ele>
        <time>2022-08-11T12:51:32Z</time>
      </trkpt>
      <trkpt lat="44.88874" lon="0.88075">
        <ele>126.4</ele>
        <time>2022-08-11T12:51:33Z</time>
      </trkpt>
      <trkpt lat="44.8888" lon="0.88069">
        <ele>125.4</ele>
        <time>2022-08-11T12:51:34Z</time>
      </trkpt>
      <trkpt lat="44.88886" lon="0.88064">
        <ele>125.4</ele>
        <time>2022-08-11T12:51:35Z</time>
      </trkpt>
      <trkpt lat="44.88893" lon="0.88059">
        <ele>125.4</ele>
        <time>2022-08-11T12:51:36Z</time>
      </trkpt>
      <trkpt lat="44.88898" lon="0.88053">
        <ele>125.4</ele>
        <time>2022-08-11T12:51:37Z</time>
      </trkpt>
      <trkpt lat="44.88904" lon="0.88047">
        <ele>125.4</ele>
        <time>2022-08-11T12:51:38Z</time>
      </trkpt>
      <trkpt lat="44.88909" lon="0.88043">
        <ele>126.4</ele>
        <time>2022-08-11T12:51:39Z</time>
      </trkpt>
      <trkpt lat="44.88915" lon="0.88037">
        <ele>125.4</ele>
        <time>2022-08-11T12:51:41Z</time>
      </trkpt>
      <trkpt lat="44.88919" lon="0.88036">
        <ele>125.4</ele>
        <time>2022-08-11T12:51:43Z</time>
      </trkpt>
      <trkpt lat="44.88924" lon="0.88039">
        <ele>125.4</ele>
        <time>2022-08-11T12:51:46Z</time>
      </trkpt>
      <trkpt lat="44.88927" lon="0.88044">
        <ele>124.4</ele>
        <time>2022-08-11T12:51:48Z</time>
      </trkpt>
      <trkpt lat="44.8893" lon="0.88051">
        <ele>124.4</ele>
        <time>2022-08-11T12:51:50Z</time>
      </trkpt>
      <trkpt lat="44.88933" lon="0.88061">
        <ele>124.4</ele>
        <time>2022-08-11T12:51:52Z</time>
      </trkpt>
      <trkpt lat="44.88936" lon="0.88067">
        <ele>123.4</ele>
        <time>2022-08-11T12:51:53Z</time>
      </trkpt>
      <trkpt lat="44.88939" lon="0.88075">
        <ele>122.4</ele>
        <time>2022-08-11T12:51:54Z</time>
      </trkpt>
      <trkpt lat="44.88942" lon="0.88083">
        <ele>121.4</ele>
        <time>2022-08-11T12:51:55Z</time>
      </trkpt>
      <trkpt lat="44.88945" lon="0.88093">
        <ele>121.4</ele>
        <time>2022-08-11T12:51:56Z</time>
      </trkpt>
      <trkpt lat="44.88948" lon="0.88103">
        <ele>120.4</ele>
        <time>2022-08-11T12:51:57Z</time>
      </trkpt>
      <trkpt lat="44.8895" lon="0.88113">
        <ele>119.4</ele>
        <time>2022-08-11T12:51:58Z</time>
      </trkpt>
      <trkpt lat="44.88953" lon="0.88122">
        <ele>118.4</ele>
        <time>2022-08-11T12:51:59Z</time>
      </trkpt>
      <trkpt lat="44.88956" lon="0.88133">
        <ele>117.4</ele>
        <time>2022-08-11T12:52:00Z</time>
      </trkpt>
      <trkpt lat="44.8896" lon="0.88144">
        <ele>116.4</ele>
        <time>2022-08-11T12:52:01Z</time>
      </trkpt>
      <trkpt lat="44.88963" lon="0.88156">
        <ele>116.4</ele>
        <time>2022-08-11T12:52:02Z</time>
      </trkpt>
      <trkpt lat="44.88966" lon="0.88168">
        <ele>115.4</ele>
        <time>2022-08-11T12:52:03Z</time>
      </trkpt>
      <trkpt lat="44.8897" lon="0.8818">
        <ele>115.4</ele>
        <time>2022-08-11T12:52:04Z</time>
      </trkpt>
      <trkpt lat="44.88973" lon="0.88191">
        <ele>114.4</ele>
        <time>2022-08-11T12:52:05Z</time>
      </trkpt>
      <trkpt lat="44.88977" lon="0.88201">
        <ele>114.4</ele>
        <time>2022-08-11T12:52:06Z</time>
      </trkpt>
      <trkpt lat="44.88979" lon="0.88209">
        <ele>114.4</ele>
        <time>2022-08-11T12:52:07Z</time>
      </trkpt>
      <trkpt lat="44.88982" lon="0.88216">
        <ele>113.4</ele>
        <time>2022-08-11T12:52:08Z</time>
      </trkpt>
      <trkpt lat="44.88984" lon="0.88224">
        <ele>113.4</ele>
        <time>2022-08-11T12:52:10Z</time>
      </trkpt>
      <trkpt lat="44.88987" lon="0.88231">
        <ele>112.4</ele>
        <time>2022-08-11T12:52:15Z</time>
      </trkpt>
      <trkpt lat="44.88985" lon="0.88239">
        <ele>112.4</ele>
        <time>2022-08-11T12:52:17Z</time>
      </trkpt>
      <trkpt lat="44.88982" lon="0.88249">
        <ele>112.4</ele>
        <time>2022-08-11T12:52:19Z</time>
      </trkpt>
      <trkpt lat="44.88978" lon="0.88261">
        <ele>113.4</ele>
        <time>2022-08-11T12:52:21Z</time>
      </trkpt>
      <trkpt lat="44.88977" lon="0.88267">
        <ele>113.4</ele>
        <time>2022-08-11T12:52:22Z</time>
      </trkpt>
      <trkpt lat="44.88974" lon="0.88273">
        <ele>113.4</ele>
        <time>2022-08-11T12:52:23Z</time>
      </trkpt>
      <trkpt lat="44.88972" lon="0.8828">
        <ele>113.4</ele>
        <time>2022-08-11T12:52:24Z</time>
      </trkpt>
      <trkpt lat="44.8897" lon="0.88287">
        <ele>112.4</ele>
        <time>2022-08-11T12:52:25Z</time>
      </trkpt>
      <trkpt lat="44.88967" lon="0.88294">
        <ele>112.4</ele>
        <time>2022-08-11T12:52:26Z</time>
      </trkpt>
      <trkpt lat="44.88964" lon="0.88302">
        <ele>112.4</ele>
        <time>2022-08-11T12:52:27Z</time>
      </trkpt>
      <trkpt lat="44.8896" lon="0.8831">
        <ele>111.4</ele>
        <time>2022-08-11T12:52:28Z</time>
      </trkpt>
      <trkpt lat="44.88957" lon="0.88318">
        <ele>111.4</ele>
        <time>2022-08-11T12:52:29Z</time>
      </trkpt>
      <trkpt lat="44.88954" lon="0.88327">
        <ele>110.4</ele>
        <time>2022-08-11T12:52:30Z</time>
      </trkpt>
      <trkpt lat="44.88951" lon="0.88336">
        <ele>109.4</ele>
        <time>2022-08-11T12:52:31Z</time>
      </trkpt>
      <trkpt lat="44.88948" lon="0.88345">
        <ele>109.4</ele>
        <time>2022-08-11T12:52:32Z</time>
      </trkpt>
      <trkpt lat="44.88945" lon="0.88356">
        <ele>108.4</ele>
        <time>2022-08-11T12:52:33Z</time>
      </trkpt>
      <trkpt lat="44.88941" lon="0.88367">
        <ele>107.4</ele>
        <time>2022-08-11T12:52:34Z</time>
      </trkpt>
      <trkpt lat="44.88938" lon="0.88379">
        <ele>106.4</ele>
        <time>2022-08-11T12:52:35Z</time>
      </trkpt>
      <trkpt lat="44.88934" lon="0.88391">
        <ele>105.4</ele>
        <time>2022-08-11T12:52:36Z</time>
      </trkpt>
      <trkpt lat="44.88929" lon="0.88403">
        <ele>104.4</ele>
        <time>2022-08-11T12:52:37Z</time>
      </trkpt>
      <trkpt lat="44.88925" lon="0.88414">
        <ele>104.4</ele>
        <time>2022-08-11T12:52:38Z</time>
      </trkpt>
      <trkpt lat="44.88922" lon="0.88424">
        <ele>103.4</ele>
        <time>2022-08-11T12:52:39Z</time>
      </trkpt>
      <trkpt lat="44.8892" lon="0.88432">
        <ele>103.4</ele>
        <time>2022-08-11T12:52:40Z</time>
      </trkpt>
      <trkpt lat="44.88917" lon="0.88439">
        <ele>103.4</ele>
        <time>2022-08-11T12:52:41Z</time>
      </trkpt>
      <trkpt lat="44.88911" lon="0.88447">
        <ele>103.4</ele>
        <time>2022-08-11T12:52:43Z</time>
      </trkpt>
      <trkpt lat="44.88907" lon="0.8845">
        <ele>102.4</ele>
        <time>2022-08-11T12:52:45Z</time>
      </trkpt>
      <trkpt lat="44.88902" lon="0.88451">
        <ele>102.4</ele>
        <time>2022-08-11T12:52:47Z</time>
      </trkpt>
      <trkpt lat="44.88895" lon="0.88452">
        <ele>101.4</ele>
        <time>2022-08-11T12:52:49Z</time>
      </trkpt>
      <trkpt lat="44.8889" lon="0.88454">
        <ele>101.4</ele>
        <time>2022-08-11T12:52:50Z</time>
      </trkpt>
      <trkpt lat="44.88884" lon="0.88455">
        <ele>100.4</ele>
        <time>2022-08-11T12:52:51Z</time>
      </trkpt>
      <trkpt lat="44.88878" lon="0.88457">
        <ele>100.4</ele>
        <time>2022-08-11T12:52:52Z</time>
      </trkpt>
      <trkpt lat="44.88871" lon="0.8846">
        <ele>99.4</ele>
        <time>2022-08-11T12:52:53Z</time>
      </trkpt>
      <trkpt lat="44.88864" lon="0.88466">
        <ele>98.4</ele>
        <time>2022-08-11T12:52:54Z</time>
      </trkpt>
      <trkpt lat="44.88856" lon="0.88474">
        <ele>98.4</ele>
        <time>2022-08-11T12:52:55Z</time>
      </trkpt>
      <trkpt lat="44.88848" lon="0.88481">
        <ele>97.4</ele>
        <time>2022-08-11T12:52:56Z</time>
      </trkpt>
      <trkpt lat="44.88839" lon="0.8849">
        <ele>96.4</ele>
        <time>2022-08-11T12:52:57Z</time>
      </trkpt>
      <trkpt lat="44.8883" lon="0.88498">
        <ele>96.4</ele>
        <time>2022-08-11T12:52:58Z</time>
      </trkpt>
      <trkpt lat="44.88821" lon="0.88508">
        <ele>95.4</ele>
        <time>2022-08-11T12:52:59Z</time>
      </trkpt>
      <trkpt lat="44.88813" lon="0.88518">
        <ele>94.4</ele>
        <time>2022-08-11T12:53:00Z</time>
      </trkpt>
      <trkpt lat="44.88805" lon="0.88529">
        <ele>93.4</ele>
        <time>2022-08-11T12:53:01Z</time>
      </trkpt>
      <trkpt lat="44.88796" lon="0.8854">
        <ele>91.4</ele>
        <time>2022-08-11T12:53:02Z</time>
      </trkpt>
      <trkpt lat="44.88788" lon="0.88551">
        <ele>89.4</ele>
        <time>2022-08-11T12:53:03Z</time>
      </trkpt>
      <trkpt lat="44.88779" lon="0.88563">
        <ele>88.4</ele>
        <time>2022-08-11T12:53:04Z</time>
      </trkpt>
      <trkpt lat="44.8877" lon="0.88576">
        <ele>86.4</ele>
        <time>2022-08-11T12:53:05Z</time>
      </trkpt>
      <trkpt lat="44.88763" lon="0.88589">
        <ele>85.4</ele>
        <time>2022-08-11T12:53:06Z</time>
      </trkpt>
      <trkpt lat="44.88755" lon="0.88603">
        <ele>83.4</ele>
        <time>2022-08-11T12:53:07Z</time>
      </trkpt>
      <trkpt lat="44.88749" lon="0.88618">
        <ele>82.4</ele>
        <time>2022-08-11T12:53:08Z</time>
      </trkpt>
      <trkpt lat="44.88742" lon="0.88633">
        <ele>81.4</ele>
        <time>2022-08-11T12:53:09Z</time>
      </trkpt>
      <trkpt lat="44.88736" lon="0.88647">
        <ele>81.4</ele>
        <time>2022-08-11T12:53:10Z</time>
      </trkpt>
      <trkpt lat="44.88731" lon="0.88661">
        <ele>81.4</ele>
        <time>2022-08-11T12:53:11Z</time>
      </trkpt>
      <trkpt lat="44.88726" lon="0.88673">
        <ele>80.4</ele>
        <time>2022-08-11T12:53:12Z</time>
      </trkpt>
      <trkpt lat="44.88721" lon="0.88685">
        <ele>80.4</ele>
        <time>2022-08-11T12:53:13Z</time>
      </trkpt>
      <trkpt lat="44.88716" lon="0.88695">
        <ele>79.4</ele>
        <time>2022-08-11T12:53:14Z</time>
      </trkpt>
      <trkpt lat="44.88709" lon="0.88703">
        <ele>77.4</ele>
        <time>2022-08-11T12:53:15Z</time>
      </trkpt>
      <trkpt lat="44.88701" lon="0.88708">
        <ele>76.4</ele>
        <time>2022-08-11T12:53:16Z</time>
      </trkpt>
      <trkpt lat="44.88692" lon="0.88713">
        <ele>75.4</ele>
        <time>2022-08-11T12:53:17Z</time>
      </trkpt>
      <trkpt lat="44.88683" lon="0.88716">
        <ele>74.4</ele>
        <time>2022-08-11T12:53:18Z</time>
      </trkpt>
      <trkpt lat="44.88672" lon="0.8872">
        <ele>73.4</ele>
        <time>2022-08-11T12:53:19Z</time>
      </trkpt>
      <trkpt lat="44.88662" lon="0.88723">
        <ele>72.4</ele>
        <time>2022-08-11T12:53:20Z</time>
      </trkpt>
      <trkpt lat="44.88652" lon="0.88726">
        <ele>70.4</ele>
        <time>2022-08-11T12:53:21Z</time>
      </trkpt>
      <trkpt lat="44.88643" lon="0.8873">
        <ele>70.4</ele>
        <time>2022-08-11T12:53:22Z</time>
      </trkpt>
      <trkpt lat="44.88634" lon="0.88735">
        <ele>69.4</ele>
        <time>2022-08-11T12:53:23Z</time>
      </trkpt>
      <trkpt lat="44.88627" lon="0.88738">
        <ele>69.4</ele>
        <time>2022-08-11T12:53:24Z</time>
      </trkpt>
      <trkpt lat="44.8862" lon="0.8874">
        <ele>68.4</ele>
        <time>2022-08-11T12:53:25Z</time>
      </trkpt>
      <trkpt lat="44.88615" lon="0.88742">
        <ele>67.4</ele>
        <time>2022-08-11T12:53:26Z</time>
      </trkpt>
      <trkpt lat="44.8861" lon="0.88747">
        <ele>67.4</ele>
        <time>2022-08-11T12:53:27Z</time>
      </trkpt>
      <trkpt lat="44.88606" lon="0.88753">
        <ele>66.4</ele>
        <time>2022-08-11T12:53:28Z</time>
      </trkpt>
      <trkpt lat="44.88602" lon="0.88763">
        <ele>66.4</ele>
        <time>2022-08-11T12:53:29Z</time>
      </trkpt>
      <trkpt lat="44.886" lon="0.88774">
        <ele>65.4</ele>
        <time>2022-08-11T12:53:30Z</time>
      </trkpt>
      <trkpt lat="44.88599" lon="0.88784">
        <ele>64.4</ele>
        <time>2022-08-11T12:53:31Z</time>
      </trkpt>
      <trkpt lat="44.88597" lon="0.88794">
        <ele>63.4</ele>
        <time>2022-08-11T12:53:32Z</time>
      </trkpt>
      <trkpt lat="44.88596" lon="0.88802">
        <ele>63.4</ele>
        <time>2022-08-11T12:53:33Z</time>
      </trkpt>
      <trkpt lat="44.88593" lon="0.8881">
        <ele>63.4</ele>
        <time>2022-08-11T12:53:34Z</time>
      </trkpt>
      <trkpt lat="44.8859" lon="0.88816">
        <ele>62.4</ele>
        <time>2022-08-11T12:53:35Z</time>
      </trkpt>
      <trkpt lat="44.88585" lon="0.8882">
        <ele>62.4</ele>
        <time>2022-08-11T12:53:36Z</time>
      </trkpt>
      <trkpt lat="44.88579" lon="0.88823">
        <ele>62.4</ele>
        <time>2022-08-11T12:53:37Z</time>
      </trkpt>
      <trkpt lat="44.88573" lon="0.88825">
        <ele>62.4</ele>
        <time>2022-08-11T12:53:38Z</time>
      </trkpt>
      <trkpt lat="44.88568" lon="0.88827">
        <ele>62.4</ele>
        <time>2022-08-11T12:53:39Z</time>
      </trkpt>
      <trkpt lat="44.88563" lon="0.88828">
        <ele>61.4</ele>
        <time>2022-08-11T12:53:41Z</time>
      </trkpt>
      <trkpt lat="44.88557" lon="0.88827">
        <ele>61.4</ele>
        <time>2022-08-11T12:53:44Z</time>
      </trkpt>
      <trkpt lat="44.88552" lon="0.88827">
        <ele>61.4</ele>
        <time>2022-08-11T12:53:46Z</time>
      </trkpt>
      <trkpt lat="44.88547" lon="0.88825">
        <ele>61.4</ele>
        <time>2022-08-11T12:53:48Z</time>
      </trkpt>
      <trkpt lat="44.8854" lon="0.88822">
        <ele>60.4</ele>
        <time>2022-08-11T12:53:50Z</time>
      </trkpt>
      <trkpt lat="44.88532" lon="0.88819">
        <ele>60.4</ele>
        <time>2022-08-11T12:53:52Z</time>
      </trkpt>
      <trkpt lat="44.88523" lon="0.88817">
        <ele>59.4</ele>
        <time>2022-08-11T12:53:54Z</time>
      </trkpt>
      <trkpt lat="44.88516" lon="0.88815">
        <ele>58.4</ele>
        <time>2022-08-11T12:53:56Z</time>
      </trkpt>
      <trkpt lat="44.88507" lon="0.88812">
        <ele>57.4</ele>
        <time>2022-08-11T12:53:58Z</time>
      </trkpt>
      <trkpt lat="44.88499" lon="0.8881">
        <ele>57.4</ele>
        <time>2022-08-11T12:54:00Z</time>
      </trkpt>
      <trkpt lat="44.88494" lon="0.88809">
        <ele>57.4</ele>
        <time>2022-08-11T12:54:01Z</time>
      </trkpt>
      <trkpt lat="44.88489" lon="0.88807">
        <ele>56.4</ele>
        <time>2022-08-11T12:54:02Z</time>
      </trkpt>
      <trkpt lat="44.88485" lon="0.88806">
        <ele>56.4</ele>
        <time>2022-08-11T12:54:03Z</time>
      </trkpt>
      <trkpt lat="44.8848" lon="0.88805">
        <ele>56.4</ele>
        <time>2022-08-11T12:54:04Z</time>
      </trkpt>
      <trkpt lat="44.88475" lon="0.88803">
        <ele>56.4</ele>
        <time>2022-08-11T12:54:05Z</time>
      </trkpt>
      <trkpt lat="44.88469" lon="0.88802">
        <ele>56.4</ele>
        <time>2022-08-11T12:54:06Z</time>
      </trkpt>
      <trkpt lat="44.88464" lon="0.88801">
        <ele>56.4</ele>
        <time>2022-08-11T12:54:07Z</time>
      </trkpt>
      <trkpt lat="44.88458" lon="0.88801">
        <ele>56.4</ele>
        <time>2022-08-11T12:54:08Z</time>
      </trkpt>
      <trkpt lat="44.88452" lon="0.888">
        <ele>56.4</ele>
        <time>2022-08-11T12:54:09Z</time>
      </trkpt>
      <trkpt lat="44.88446" lon="0.88798">
        <ele>56.4</ele>
        <time>2022-08-11T12:54:10Z</time>
      </trkpt>
      <trkpt lat="44.8844" lon="0.88797">
        <ele>56.4</ele>
        <time>2022-08-11T12:54:11Z</time>
      </trkpt>
      <trkpt lat="44.88433" lon="0.88796">
        <ele>56.4</ele>
        <time>2022-08-11T12:54:12Z</time>
      </trkpt>
      <trkpt lat="44.88428" lon="0.88796">
        <ele>56.4</ele>
        <time>2022-08-11T12:54:13Z</time>
      </trkpt>
      <trkpt lat="44.8842" lon="0.88795">
        <ele>56.4</ele>
        <time>2022-08-11T12:54:15Z</time>
      </trkpt>
      <trkpt lat="44.88411" lon="0.88794">
        <ele>57.4</ele>
        <time>2022-08-11T12:54:17Z</time>
      </trkpt>
      <trkpt lat="44.88407" lon="0.88792">
        <ele>57.4</ele>
        <time>2022-08-11T12:54:18Z</time>
      </trkpt>
      <trkpt lat="44.88402" lon="0.88791">
        <ele>57.4</ele>
        <time>2022-08-11T12:54:19Z</time>
      </trkpt>
      <trkpt lat="44.88398" lon="0.88791">
        <ele>57.4</ele>
        <time>2022-08-11T12:54:20Z</time>
      </trkpt>
      <trkpt lat="44.88389" lon="0.8879">
        <ele>58.4</ele>
        <time>2022-08-11T12:54:22Z</time>
      </trkpt>
      <trkpt lat="44.88384" lon="0.8879">
        <ele>58.4</ele>
        <time>2022-08-11T12:54:23Z</time>
      </trkpt>
      <trkpt lat="44.88377" lon="0.88788">
        <ele>57.4</ele>
        <time>2022-08-11T12:54:25Z</time>
      </trkpt>
      <trkpt lat="44.88372" lon="0.88788">
        <ele>58.4</ele>
        <time>2022-08-11T12:55:06Z</time>
      </trkpt>
      <trkpt lat="44.88367" lon="0.88788">
        <ele>58.4</ele>
        <time>2022-08-11T12:55:08Z</time>
      </trkpt>
      <trkpt lat="44.8836" lon="0.88788">
        <ele>58.4</ele>
        <time>2022-08-11T12:55:10Z</time>
      </trkpt>
      <trkpt lat="44.88352" lon="0.88788">
        <ele>57.4</ele>
        <time>2022-08-11T12:55:12Z</time>
      </trkpt>
      <trkpt lat="44.88344" lon="0.88786">
        <ele>57.4</ele>
        <time>2022-08-11T12:55:14Z</time>
      </trkpt>
      <trkpt lat="44.88339" lon="0.88785">
        <ele>57.4</ele>
        <time>2022-08-11T12:55:15Z</time>
      </trkpt>
      <trkpt lat="44.8833" lon="0.88785">
        <ele>57.4</ele>
        <time>2022-08-11T12:55:17Z</time>
      </trkpt>
      <trkpt lat="44.88322" lon="0.88788">
        <ele>57.4</ele>
        <time>2022-08-11T12:55:19Z</time>
      </trkpt>
      <trkpt lat="44.88318" lon="0.8879">
        <ele>57.4</ele>
        <time>2022-08-11T12:55:20Z</time>
      </trkpt>
      <trkpt lat="44.88313" lon="0.88792">
        <ele>58.4</ele>
        <time>2022-08-11T12:55:21Z</time>
      </trkpt>
      <trkpt lat="44.88308" lon="0.88795">
        <ele>58.4</ele>
        <time>2022-08-11T12:55:22Z</time>
      </trkpt>
      <trkpt lat="44.88302" lon="0.88797">
        <ele>59.4</ele>
        <time>2022-08-11T12:55:23Z</time>
      </trkpt>
      <trkpt lat="44.88296" lon="0.88801">
        <ele>58.4</ele>
        <time>2022-08-11T12:55:24Z</time>
      </trkpt>
      <trkpt lat="44.88291" lon="0.88804">
        <ele>58.4</ele>
        <time>2022-08-11T12:55:25Z</time>
      </trkpt>
      <trkpt lat="44.88286" lon="0.88807">
        <ele>58.4</ele>
        <time>2022-08-11T12:55:26Z</time>
      </trkpt>
      <trkpt lat="44.88279" lon="0.88811">
        <ele>57.4</ele>
        <time>2022-08-11T12:55:28Z</time>
      </trkpt>
      <trkpt lat="44.88275" lon="0.88817">
        <ele>57.4</ele>
        <time>2022-08-11T12:55:30Z</time>
      </trkpt>
      <trkpt lat="44.88274" lon="0.88826">
        <ele>56.4</ele>
        <time>2022-08-11T12:55:32Z</time>
      </trkpt>
      <trkpt lat="44.88274" lon="0.88837">
        <ele>53.4</ele>
        <time>2022-08-11T12:55:34Z</time>
      </trkpt>
      <trkpt lat="44.88273" lon="0.88849">
        <ele>51.4</ele>
        <time>2022-08-11T12:55:36Z</time>
      </trkpt>
      <trkpt lat="44.88272" lon="0.88861">
        <ele>50.4</ele>
        <time>2022-08-11T12:55:38Z</time>
      </trkpt>
      <trkpt lat="44.88272" lon="0.88871">
        <ele>49.4</ele>
        <time>2022-08-11T12:55:40Z</time>
      </trkpt>
      <trkpt lat="44.88271" lon="0.88879">
        <ele>49.4</ele>
        <time>2022-08-11T12:55:42Z</time>
      </trkpt>
      <trkpt lat="44.88272" lon="0.88886">
        <ele>49.4</ele>
        <time>2022-08-11T12:55:44Z</time>
      </trkpt>
      <trkpt lat="44.88273" lon="0.88893">
        <ele>49.4</ele>
        <time>2022-08-11T12:55:46Z</time>
      </trkpt>
      <trkpt lat="44.88274" lon="0.889">
        <ele>49.4</ele>
        <time>2022-08-11T12:55:48Z</time>
      </trkpt>
      <trkpt lat="44.88275" lon="0.88907">
        <ele>49.4</ele>
        <time>2022-08-11T12:55:50Z</time>
      </trkpt>
      <trkpt lat="44.88277" lon="0.88914">
        <ele>49.4</ele>
        <time>2022-08-11T12:55:52Z</time>
      </trkpt>
      <trkpt lat="44.88279" lon="0.8892">
        <ele>49.4</ele>
        <time>2022-08-11T12:55:54Z</time>
      </trkpt>
      <trkpt lat="44.88281" lon="0.88926">
        <ele>49.4</ele>
        <time>2022-08-11T12:55:56Z</time>
      </trkpt>
      <trkpt lat="44.88284" lon="0.88932">
        <ele>49.4</ele>
        <time>2022-08-11T12:55:58Z</time>
      </trkpt>
      <trkpt lat="44.88287" lon="0.88938">
        <ele>48.4</ele>
        <time>2022-08-11T12:56:00Z</time>
      </trkpt>
      <trkpt lat="44.88291" lon="0.88945">
        <ele>48.4</ele>
        <time>2022-08-11T12:56:02Z</time>
      </trkpt>
      <trkpt lat="44.88295" lon="0.88951">
        <ele>47.4</ele>
        <time>2022-08-11T12:56:04Z</time>
      </trkpt>
      <trkpt lat="44.88297" lon="0.88958">
        <ele>47.4</ele>
        <time>2022-08-11T12:56:06Z</time>
      </trkpt>
      <trkpt lat="44.88297" lon="0.88966">
        <ele>47.4</ele>
        <time>2022-08-11T12:56:08Z</time>
      </trkpt>
      <trkpt lat="44.88295" lon="0.88974">
        <ele>47.4</ele>
        <time>2022-08-11T12:56:10Z</time>
      </trkpt>
      <trkpt lat="44.88289" lon="0.8898">
        <ele>47.4</ele>
        <time>2022-08-11T12:56:12Z</time>
      </trkpt>
      <trkpt lat="44.88286" lon="0.88986">
        <ele>48.4</ele>
        <time>2022-08-11T12:56:14Z</time>
      </trkpt>
      <trkpt lat="44.8828" lon="0.88991">
        <ele>48.4</ele>
        <time>2022-08-11T12:56:16Z</time>
      </trkpt>
      <trkpt lat="44.88275" lon="0.88996">
        <ele>48.4</ele>
        <time>2022-08-11T12:56:18Z</time>
      </trkpt>
      <trkpt lat="44.8827" lon="0.89003">
        <ele>48.4</ele>
        <time>2022-08-11T12:56:20Z</time>
      </trkpt>
      <trkpt lat="44.88267" lon="0.89009">
        <ele>48.4</ele>
        <time>2022-08-11T12:56:22Z</time>
      </trkpt>
      <trkpt lat="44.88268" lon="0.89016">
        <ele>48.4</ele>
        <time>2022-08-11T12:56:25Z</time>
      </trkpt>
      <trkpt lat="44.88273" lon="0.89014">
        <ele>48.4</ele>
        <time>2022-08-11T12:56:28Z</time>
      </trkpt>
      <trkpt lat="44.88276" lon="0.89008">
        <ele>47.4</ele>
        <time>2022-08-11T12:56:30Z</time>
      </trkpt>
      <trkpt lat="44.8828" lon="0.89003">
        <ele>47.4</ele>
        <time>2022-08-11T12:56:32Z</time>
      </trkpt>
      <trkpt lat="44.88284" lon="0.89002">
        <ele>47.4</ele>
        <time>2022-08-11T12:56:34Z</time>
      </trkpt>
      <trkpt lat="44.88287" lon="0.89009">
        <ele>47.4</ele>
        <time>2022-08-11T12:56:38Z</time>
      </trkpt>
      <trkpt lat="44.88289" lon="0.89016">
        <ele>47.4</ele>
        <time>2022-08-11T12:56:44Z</time>
      </trkpt>
      <trkpt lat="44.88289" lon="0.89024">
        <ele>47.4</ele>
        <time>2022-08-11T12:56:49Z</time>
      </trkpt>
      <trkpt lat="44.88288" lon="0.89032">
        <ele>47.4</ele>
        <time>2022-08-11T12:56:53Z</time>
      </trkpt>
      <trkpt lat="44.88285" lon="0.89038">
        <ele>47.4</ele>
        <time>2022-08-11T12:56:57Z</time>
      </trkpt>
      <trkpt lat="44.88283" lon="0.89043">
        <ele>48.4</ele>
        <time>2022-08-11T12:57:04Z</time>
      </trkpt>
      <trkpt lat="44.88278" lon="0.89048">
        <ele>48.4</ele>
        <time>2022-08-11T12:57:09Z</time>
      </trkpt>
      <trkpt lat="44.88273" lon="0.89051">
        <ele>50.4</ele>
        <time>2022-08-11T12:57:17Z</time>
      </trkpt>
      <trkpt lat="44.88269" lon="0.89054">
        <ele>51.4</ele>
        <time>2022-08-11T12:57:25Z</time>
      </trkpt>
      <trkpt lat="44.88264" lon="0.89055">
        <ele>51.4</ele>
        <time>2022-08-11T12:57:28Z</time>
      </trkpt>
      <trkpt lat="44.88258" lon="0.89056">
        <ele>52.4</ele>
        <time>2022-08-11T12:57:31Z</time>
      </trkpt>
      <trkpt lat="44.88251" lon="0.89057">
        <ele>51.4</ele>
        <time>2022-08-11T12:57:34Z</time>
      </trkpt>
      <trkpt lat="44.88245" lon="0.89058">
        <ele>51.4</ele>
        <time>2022-08-11T12:57:36Z</time>
      </trkpt>
      <trkpt lat="44.88239" lon="0.89059">
        <ele>51.4</ele>
        <time>2022-08-11T12:57:38Z</time>
      </trkpt>
      <trkpt lat="44.88233" lon="0.89059">
        <ele>50.4</ele>
        <time>2022-08-11T12:57:40Z</time>
      </trkpt>
      <trkpt lat="44.88225" lon="0.8906">
        <ele>50.4</ele>
        <time>2022-08-11T12:57:42Z</time>
      </trkpt>
      <trkpt lat="44.88218" lon="0.89061">
        <ele>51.4</ele>
        <time>2022-08-11T12:57:44Z</time>
      </trkpt>
      <trkpt lat="44.88211" lon="0.89061">
        <ele>52.4</ele>
        <time>2022-08-11T12:57:46Z</time>
      </trkpt>
      <trkpt lat="44.88204" lon="0.89062">
        <ele>52.4</ele>
        <time>2022-08-11T12:57:48Z</time>
      </trkpt>
      <trkpt lat="44.88197" lon="0.89064">
        <ele>52.4</ele>
        <time>2022-08-11T12:57:50Z</time>
      </trkpt>
      <trkpt lat="44.88189" lon="0.89064">
        <ele>52.4</ele>
        <time>2022-08-11T12:57:52Z</time>
      </trkpt>
      <trkpt lat="44.88181" lon="0.89065">
        <ele>52.4</ele>
        <time>2022-08-11T12:57:54Z</time>
      </trkpt>
      <trkpt lat="44.88175" lon="0.89065">
        <ele>53.4</ele>
        <time>2022-08-11T12:57:56Z</time>
      </trkpt>
      <trkpt lat="44.88167" lon="0.89066">
        <ele>53.4</ele>
        <time>2022-08-11T12:57:58Z</time>
      </trkpt>
      <trkpt lat="44.8816" lon="0.89067">
        <ele>53.4</ele>
        <time>2022-08-11T12:58:00Z</time>
      </trkpt>
      <trkpt lat="44.88154" lon="0.89069">
        <ele>52.4</ele>
        <time>2022-08-11T12:58:02Z</time>
      </trkpt>
      <trkpt lat="44.88146" lon="0.8907">
        <ele>52.4</ele>
        <time>2022-08-11T12:58:04Z</time>
      </trkpt>
      <trkpt lat="44.88139" lon="0.89068">
        <ele>52.4</ele>
        <time>2022-08-11T12:58:06Z</time>
      </trkpt>
      <trkpt lat="44.88133" lon="0.89064">
        <ele>52.4</ele>
        <time>2022-08-11T12:58:08Z</time>
      </trkpt>
      <trkpt lat="44.8813" lon="0.89055">
        <ele>51.4</ele>
        <time>2022-08-11T12:58:10Z</time>
      </trkpt>
      <trkpt lat="44.88128" lon="0.89045">
        <ele>51.4</ele>
        <time>2022-08-11T12:58:12Z</time>
      </trkpt>
      <trkpt lat="44.88126" lon="0.89036">
        <ele>51.4</ele>
        <time>2022-08-11T12:58:14Z</time>
      </trkpt>
      <trkpt lat="44.88123" lon="0.89027">
        <ele>50.4</ele>
        <time>2022-08-11T12:58:16Z</time>
      </trkpt>
      <trkpt lat="44.88119" lon="0.89017">
        <ele>50.4</ele>
        <time>2022-08-11T12:58:18Z</time>
      </trkpt>
      <trkpt lat="44.88115" lon="0.89006">
        <ele>49.4</ele>
        <time>2022-08-11T12:58:20Z</time>
      </trkpt>
      <trkpt lat="44.88113" lon="0.89001">
        <ele>49.4</ele>
        <time>2022-08-11T12:58:21Z</time>
      </trkpt>
      <trkpt lat="44.88112" lon="0.88994">
        <ele>49.4</ele>
        <time>2022-08-11T12:58:22Z</time>
      </trkpt>
      <trkpt lat="44.8811" lon="0.88988">
        <ele>49.4</ele>
        <time>2022-08-11T12:58:23Z</time>
      </trkpt>
      <trkpt lat="44.88107" lon="0.88977">
        <ele>49.4</ele>
        <time>2022-08-11T12:58:25Z</time>
      </trkpt>
      <trkpt lat="44.88104" lon="0.88966">
        <ele>49.4</ele>
        <time>2022-08-11T12:58:27Z</time>
      </trkpt>
      <trkpt lat="44.88101" lon="0.88955">
        <ele>51.4</ele>
        <time>2022-08-11T12:58:29Z</time>
      </trkpt>
      <trkpt lat="44.88097" lon="0.8895">
        <ele>53.4</ele>
        <time>2022-08-11T12:59:25Z</time>
      </trkpt>
      <trkpt lat="44.88093" lon="0.88952">
        <ele>53.4</ele>
        <time>2022-08-11T12:59:33Z</time>
      </trkpt>
      <trkpt lat="44.88097" lon="0.88949">
        <ele>53.4</ele>
        <time>2022-08-11T13:00:28Z</time>
      </trkpt>
      <trkpt lat="44.88096" lon="0.88942">
        <ele>53.4</ele>
        <time>2022-08-11T13:00:32Z</time>
      </trkpt>
      <trkpt lat="44.88094" lon="0.88934">
        <ele>52.4</ele>
        <time>2022-08-11T13:00:35Z</time>
      </trkpt>
      <trkpt lat="44.88091" lon="0.88927">
        <ele>51.4</ele>
        <time>2022-08-11T13:00:37Z</time>
      </trkpt>
      <trkpt lat="44.88089" lon="0.88919">
        <ele>51.4</ele>
        <time>2022-08-11T13:00:39Z</time>
      </trkpt>
      <trkpt lat="44.88086" lon="0.8891">
        <ele>51.4</ele>
        <time>2022-08-11T13:00:41Z</time>
      </trkpt>
      <trkpt lat="44.88082" lon="0.88899">
        <ele>51.4</ele>
        <time>2022-08-11T13:00:43Z</time>
      </trkpt>
      <trkpt lat="44.88078" lon="0.88888">
        <ele>51.4</ele>
        <time>2022-08-11T13:00:45Z</time>
      </trkpt>
      <trkpt lat="44.88075" lon="0.88876">
        <ele>51.4</ele>
        <time>2022-08-11T13:00:47Z</time>
      </trkpt>
      <trkpt lat="44.88074" lon="0.88869">
        <ele>51.4</ele>
        <time>2022-08-11T13:00:48Z</time>
      </trkpt>
      <trkpt lat="44.88072" lon="0.88863">
        <ele>51.4</ele>
        <time>2022-08-11T13:00:49Z</time>
      </trkpt>
      <trkpt lat="44.8807" lon="0.88857">
        <ele>52.4</ele>
        <time>2022-08-11T13:00:50Z</time>
      </trkpt>
      <trkpt lat="44.88067" lon="0.88845">
        <ele>53.4</ele>
        <time>2022-08-11T13:00:52Z</time>
      </trkpt>
      <trkpt lat="44.88065" lon="0.88839">
        <ele>52.4</ele>
        <time>2022-08-11T13:00:53Z</time>
      </trkpt>
      <trkpt lat="44.88061" lon="0.88828">
        <ele>53.4</ele>
        <time>2022-08-11T13:00:55Z</time>
      </trkpt>
      <trkpt lat="44.88057" lon="0.88818">
        <ele>53.4</ele>
        <time>2022-08-11T13:00:57Z</time>
      </trkpt>
      <trkpt lat="44.88054" lon="0.88813">
        <ele>53.4</ele>
        <time>2022-08-11T13:00:58Z</time>
      </trkpt>
      <trkpt lat="44.88052" lon="0.88807">
        <ele>52.4</ele>
        <time>2022-08-11T13:00:59Z</time>
      </trkpt>
      <trkpt lat="44.8805" lon="0.888">
        <ele>52.4</ele>
        <time>2022-08-11T13:01:00Z</time>
      </trkpt>
      <trkpt lat="44.88048" lon="0.88792">
        <ele>52.4</ele>
        <time>2022-08-11T13:01:01Z</time>
      </trkpt>
      <trkpt lat="44.88042" lon="0.88779">
        <ele>53.4</ele>
        <time>2022-08-11T13:01:03Z</time>
      </trkpt>
      <trkpt lat="44.8804" lon="0.88771">
        <ele>53.4</ele>
        <time>2022-08-11T13:01:04Z</time>
      </trkpt>
      <trkpt lat="44.88037" lon="0.88762">
        <ele>53.4</ele>
        <time>2022-08-11T13:01:05Z</time>
      </trkpt>
      <trkpt lat="44.88033" lon="0.88752">
        <ele>53.4</ele>
        <time>2022-08-11T13:01:06Z</time>
      </trkpt>
      <trkpt lat="44.88029" lon="0.88743">
        <ele>52.4</ele>
        <time>2022-08-11T13:01:07Z</time>
      </trkpt>
      <trkpt lat="44.88026" lon="0.88735">
        <ele>52.4</ele>
        <time>2022-08-11T13:01:08Z</time>
      </trkpt>
      <trkpt lat="44.88023" lon="0.88729">
        <ele>52.4</ele>
        <time>2022-08-11T13:01:09Z</time>
      </trkpt>
      <trkpt lat="44.88019" lon="0.88719">
        <ele>51.4</ele>
        <time>2022-08-11T13:01:11Z</time>
      </trkpt>
      <trkpt lat="44.88015" lon="0.88712">
        <ele>51.4</ele>
        <time>2022-08-11T13:01:13Z</time>
      </trkpt>
      <trkpt lat="44.88012" lon="0.88708">
        <ele>51.4</ele>
        <time>2022-08-11T13:01:15Z</time>
      </trkpt>
      <trkpt lat="44.88006" lon="0.88708">
        <ele>51.4</ele>
        <time>2022-08-11T13:01:19Z</time>
      </trkpt>
      <trkpt lat="44.88007" lon="0.88717">
        <ele>51.4</ele>
        <time>2022-08-11T13:01:22Z</time>
      </trkpt>
      <trkpt lat="44.88008" lon="0.88727">
        <ele>50.4</ele>
        <time>2022-08-11T13:01:26Z</time>
      </trkpt>
      <trkpt lat="44.88011" lon="0.88733">
        <ele>50.4</ele>
        <time>2022-08-11T13:01:28Z</time>
      </trkpt>
      <trkpt lat="44.88013" lon="0.88742">
        <ele>50.4</ele>
        <time>2022-08-11T13:01:30Z</time>
      </trkpt>
      <trkpt lat="44.88014" lon="0.88758">
        <ele>49.4</ele>
        <time>2022-08-11T13:01:33Z</time>
      </trkpt>
      <trkpt lat="44.88015" lon="0.88771">
        <ele>47.4</ele>
        <time>2022-08-11T13:01:35Z</time>
      </trkpt>
      <trkpt lat="44.88017" lon="0.88783">
        <ele>46.4</ele>
        <time>2022-08-11T13:01:37Z</time>
      </trkpt>
      <trkpt lat="44.88019" lon="0.88794">
        <ele>45.4</ele>
        <time>2022-08-11T13:01:39Z</time>
      </trkpt>
      <trkpt lat="44.8802" lon="0.88805">
        <ele>44.4</ele>
        <time>2022-08-11T13:01:41Z</time>
      </trkpt>
      <trkpt lat="44.88022" lon="0.88817">
        <ele>43.4</ele>
        <time>2022-08-11T13:01:43Z</time>
      </trkpt>
      <trkpt lat="44.88024" lon="0.88824">
        <ele>43.4</ele>
        <time>2022-08-11T13:01:44Z</time>
      </trkpt>
      <trkpt lat="44.88025" lon="0.88831">
        <ele>42.4</ele>
        <time>2022-08-11T13:01:45Z</time>
      </trkpt>
      <trkpt lat="44.88025" lon="0.88843">
        <ele>42.4</ele>
        <time>2022-08-11T13:01:47Z</time>
      </trkpt>
      <trkpt lat="44.88025" lon="0.88854">
        <ele>41.4</ele>
        <time>2022-08-11T13:01:49Z</time>
      </trkpt>
      <trkpt lat="44.88025" lon="0.88866">
        <ele>41.4</ele>
        <time>2022-08-11T13:01:51Z</time>
      </trkpt>
      <trkpt lat="44.88024" lon="0.88878">
        <ele>40.4</ele>
        <time>2022-08-11T13:01:53Z</time>
      </trkpt>
      <trkpt lat="44.88024" lon="0.88893">
        <ele>41.4</ele>
        <time>2022-08-11T13:01:56Z</time>
      </trkpt>
      <trkpt lat="44.88023" lon="0.88902">
        <ele>42.4</ele>
        <time>2022-08-11T13:01:58Z</time>
      </trkpt>
      <trkpt lat="44.88022" lon="0.8891">
        <ele>42.4</ele>
        <time>2022-08-11T13:02:00Z</time>
      </trkpt>
      <trkpt lat="44.88023" lon="0.88919">
        <ele>42.4</ele>
        <time>2022-08-11T13:02:02Z</time>
      </trkpt>
      <trkpt lat="44.88023" lon="0.88926">
        <ele>42.4</ele>
        <time>2022-08-11T13:02:04Z</time>
      </trkpt>
      <trkpt lat="44.88023" lon="0.88933">
        <ele>42.4</ele>
        <time>2022-08-11T13:02:06Z</time>
      </trkpt>
      <trkpt lat="44.88022" lon="0.8894">
        <ele>42.4</ele>
        <time>2022-08-11T13:02:09Z</time>
      </trkpt>
      <trkpt lat="44.88019" lon="0.88945">
        <ele>42.4</ele>
        <time>2022-08-11T13:02:18Z</time>
      </trkpt>
      <trkpt lat="44.88019" lon="0.88952">
        <ele>43.4</ele>
        <time>2022-08-11T13:02:31Z</time>
      </trkpt>
      <trkpt lat="44.8802" lon="0.88959">
        <ele>45.4</ele>
        <time>2022-08-11T13:03:11Z</time>
      </trkpt>
      <trkpt lat="44.88018" lon="0.88965">
        <ele>51.4</ele>
        <time>2022-08-11T13:03:15Z</time>
      </trkpt>
      <trkpt lat="44.88013" lon="0.88968">
        <ele>50.4</ele>
        <time>2022-08-11T13:03:27Z</time>
      </trkpt>
      <trkpt lat="44.88008" lon="0.88969">
        <ele>48.4</ele>
        <time>2022-08-11T13:03:36Z</time>
      </trkpt>
      <trkpt lat="44.88003" lon="0.88971">
        <ele>49.4</ele>
        <time>2022-08-11T13:03:42Z</time>
      </trkpt>
      <trkpt lat="44.88" lon="0.88975">
        <ele>45.4</ele>
        <time>2022-08-11T13:03:55Z</time>
      </trkpt>
      <trkpt lat="44.87995" lon="0.88979">
        <ele>45.4</ele>
        <time>2022-08-11T13:03:58Z</time>
      </trkpt>
      <trkpt lat="44.87991" lon="0.88981">
        <ele>44.4</ele>
        <time>2022-08-11T13:04:01Z</time>
      </trkpt>
      <trkpt lat="44.87987" lon="0.88986">
        <ele>44.4</ele>
        <time>2022-08-11T13:04:05Z</time>
      </trkpt>
      <trkpt lat="44.88281" lon="0.8901">
        <ele>44.4</ele>
        <time>2022-08-11T14:50:35Z</time>
      </trkpt>
      <trkpt lat="44.88286" lon="0.89011">
        <ele>38.4</ele>
        <time>2022-08-11T14:53:48Z</time>
      </trkpt>
      <trkpt lat="44.8829" lon="0.89015">
        <ele>39.4</ele>
        <time>2022-08-11T14:53:53Z</time>
      </trkpt>
      <trkpt lat="44.88291" lon="0.89022">
        <ele>39.4</ele>
        <time>2022-08-11T14:53:58Z</time>
      </trkpt>
      <trkpt lat="44.88292" lon="0.89028">
        <ele>38.4</ele>
        <time>2022-08-11T14:54:03Z</time>
      </trkpt>
      <trkpt lat="44.8829" lon="0.89035">
        <ele>41.4</ele>
        <time>2022-08-11T14:54:09Z</time>
      </trkpt>
      <trkpt lat="44.88287" lon="0.8904">
        <ele>42.4</ele>
        <time>2022-08-11T14:54:14Z</time>
      </trkpt>
      <trkpt lat="44.88285" lon="0.89047">
        <ele>44.4</ele>
        <time>2022-08-11T14:54:22Z</time>
      </trkpt>
      <trkpt lat="44.88283" lon="0.89052">
        <ele>45.4</ele>
        <time>2022-08-11T14:54:27Z</time>
      </trkpt>
      <trkpt lat="44.88278" lon="0.89055">
        <ele>47.4</ele>
        <time>2022-08-11T14:54:32Z</time>
      </trkpt>
      <trkpt lat="44.88273" lon="0.89055">
        <ele>51.4</ele>
        <time>2022-08-11T14:54:38Z</time>
      </trkpt>
      <trkpt lat="44.88268" lon="0.89054">
        <ele>54.4</ele>
        <time>2022-08-11T14:54:49Z</time>
      </trkpt>
      <trkpt lat="44.88263" lon="0.89055">
        <ele>55.4</ele>
        <time>2022-08-11T14:54:53Z</time>
      </trkpt>
      <trkpt lat="44.88257" lon="0.89057">
        <ele>55.4</ele>
        <time>2022-08-11T14:54:56Z</time>
      </trkpt>
      <trkpt lat="44.88251" lon="0.89057">
        <ele>56.4</ele>
        <time>2022-08-11T14:54:58Z</time>
      </trkpt>
      <trkpt lat="44.88245" lon="0.89057">
        <ele>57.4</ele>
        <time>2022-08-11T14:55:00Z</time>
      </trkpt>
      <trkpt lat="44.88239" lon="0.89058">
        <ele>58.4</ele>
        <time>2022-08-11T14:55:02Z</time>
      </trkpt>
      <trkpt lat="44.88232" lon="0.89059">
        <ele>58.4</ele>
        <time>2022-08-11T14:55:04Z</time>
      </trkpt>
      <trkpt lat="44.88225" lon="0.89059">
        <ele>58.4</ele>
        <time>2022-08-11T14:55:06Z</time>
      </trkpt>
      <trkpt lat="44.88217" lon="0.8906">
        <ele>57.4</ele>
        <time>2022-08-11T14:55:08Z</time>
      </trkpt>
      <trkpt lat="44.88209" lon="0.89062">
        <ele>56.4</ele>
        <time>2022-08-11T14:55:10Z</time>
      </trkpt>
      <trkpt lat="44.88201" lon="0.89063">
        <ele>56.4</ele>
        <time>2022-08-11T14:55:12Z</time>
      </trkpt>
      <trkpt lat="44.88192" lon="0.89064">
        <ele>55.4</ele>
        <time>2022-08-11T14:55:14Z</time>
      </trkpt>
      <trkpt lat="44.88185" lon="0.89066">
        <ele>55.4</ele>
        <time>2022-08-11T14:55:16Z</time>
      </trkpt>
      <trkpt lat="44.88177" lon="0.89067">
        <ele>55.4</ele>
        <time>2022-08-11T14:55:18Z</time>
      </trkpt>
      <trkpt lat="44.88169" lon="0.89067">
        <ele>55.4</ele>
        <time>2022-08-11T14:55:20Z</time>
      </trkpt>
      <trkpt lat="44.88161" lon="0.89068">
        <ele>54.4</ele>
        <time>2022-08-11T14:55:22Z</time>
      </trkpt>
      <trkpt lat="44.88156" lon="0.89068">
        <ele>55.4</ele>
        <time>2022-08-11T14:55:23Z</time>
      </trkpt>
      <trkpt lat="44.88151" lon="0.89069">
        <ele>55.4</ele>
        <time>2022-08-11T14:55:24Z</time>
      </trkpt>
      <trkpt lat="44.88146" lon="0.8907">
        <ele>55.4</ele>
        <time>2022-08-11T14:55:25Z</time>
      </trkpt>
      <trkpt lat="44.88142" lon="0.89071">
        <ele>55.4</ele>
        <time>2022-08-11T14:55:26Z</time>
      </trkpt>
      <trkpt lat="44.88134" lon="0.89073">
        <ele>55.4</ele>
        <time>2022-08-11T14:55:28Z</time>
      </trkpt>
      <trkpt lat="44.88125" lon="0.89076">
        <ele>55.4</ele>
        <time>2022-08-11T14:55:30Z</time>
      </trkpt>
      <trkpt lat="44.8812" lon="0.89079">
        <ele>54.4</ele>
        <time>2022-08-11T14:55:31Z</time>
      </trkpt>
      <trkpt lat="44.88111" lon="0.89084">
        <ele>54.4</ele>
        <time>2022-08-11T14:55:33Z</time>
      </trkpt>
      <trkpt lat="44.88106" lon="0.89087">
        <ele>54.4</ele>
        <time>2022-08-11T14:55:34Z</time>
      </trkpt>
      <trkpt lat="44.881" lon="0.8909">
        <ele>54.4</ele>
        <time>2022-08-11T14:55:35Z</time>
      </trkpt>
      <trkpt lat="44.88094" lon="0.89092">
        <ele>54.4</ele>
        <time>2022-08-11T14:55:36Z</time>
      </trkpt>
      <trkpt lat="44.88087" lon="0.89094">
        <ele>54.4</ele>
        <time>2022-08-11T14:55:37Z</time>
      </trkpt>
      <trkpt lat="44.88082" lon="0.89097">
        <ele>54.4</ele>
        <time>2022-08-11T14:55:38Z</time>
      </trkpt>
      <trkpt lat="44.88076" lon="0.89099">
        <ele>53.4</ele>
        <time>2022-08-11T14:55:39Z</time>
      </trkpt>
      <trkpt lat="44.88071" lon="0.89101">
        <ele>53.4</ele>
        <time>2022-08-11T14:55:40Z</time>
      </trkpt>
      <trkpt lat="44.88064" lon="0.89104">
        <ele>53.4</ele>
        <time>2022-08-11T14:55:41Z</time>
      </trkpt>
      <trkpt lat="44.88049" lon="0.8911">
        <ele>52.4</ele>
        <time>2022-08-11T14:55:43Z</time>
      </trkpt>
      <trkpt lat="44.88041" lon="0.89113">
        <ele>52.4</ele>
        <time>2022-08-11T14:55:44Z</time>
      </trkpt>
      <trkpt lat="44.88033" lon="0.89116">
        <ele>52.4</ele>
        <time>2022-08-11T14:55:45Z</time>
      </trkpt>
      <trkpt lat="44.88026" lon="0.8912">
        <ele>52.4</ele>
        <time>2022-08-11T14:55:46Z</time>
      </trkpt>
      <trkpt lat="44.88018" lon="0.89125">
        <ele>51.4</ele>
        <time>2022-08-11T14:55:47Z</time>
      </trkpt>
      <trkpt lat="44.8801" lon="0.8913">
        <ele>50.4</ele>
        <time>2022-08-11T14:55:48Z</time>
      </trkpt>
      <trkpt lat="44.88002" lon="0.89134">
        <ele>50.4</ele>
        <time>2022-08-11T14:55:49Z</time>
      </trkpt>
      <trkpt lat="44.87993" lon="0.89138">
        <ele>50.4</ele>
        <time>2022-08-11T14:55:50Z</time>
      </trkpt>
      <trkpt lat="44.87985" lon="0.89142">
        <ele>50.4</ele>
        <time>2022-08-11T14:55:51Z</time>
      </trkpt>
      <trkpt lat="44.87978" lon="0.89145">
        <ele>50.4</ele>
        <time>2022-08-11T14:55:52Z</time>
      </trkpt>
      <trkpt lat="44.8797" lon="0.89149">
        <ele>50.4</ele>
        <time>2022-08-11T14:55:53Z</time>
      </trkpt>
      <trkpt lat="44.87953" lon="0.89154">
        <ele>52.4</ele>
        <time>2022-08-11T14:55:55Z</time>
      </trkpt>
      <trkpt lat="44.87945" lon="0.89157">
        <ele>52.4</ele>
        <time>2022-08-11T14:55:56Z</time>
      </trkpt>
      <trkpt lat="44.87937" lon="0.89159">
        <ele>52.4</ele>
        <time>2022-08-11T14:55:57Z</time>
      </trkpt>
      <trkpt lat="44.87931" lon="0.89162">
        <ele>52.4</ele>
        <time>2022-08-11T14:55:58Z</time>
      </trkpt>
      <trkpt lat="44.87925" lon="0.89164">
        <ele>51.4</ele>
        <time>2022-08-11T14:55:59Z</time>
      </trkpt>
      <trkpt lat="44.87918" lon="0.89167">
        <ele>50.4</ele>
        <time>2022-08-11T14:56:00Z</time>
      </trkpt>
      <trkpt lat="44.87912" lon="0.89169">
        <ele>50.4</ele>
        <time>2022-08-11T14:56:01Z</time>
      </trkpt>
      <trkpt lat="44.87907" lon="0.89171">
        <ele>49.4</ele>
        <time>2022-08-11T14:56:02Z</time>
      </trkpt>
      <trkpt lat="44.87902" lon="0.89173">
        <ele>48.4</ele>
        <time>2022-08-11T14:56:03Z</time>
      </trkpt>
      <trkpt lat="44.87897" lon="0.89175">
        <ele>49.4</ele>
        <time>2022-08-11T14:56:04Z</time>
      </trkpt>
      <trkpt lat="44.87892" lon="0.89176">
        <ele>49.4</ele>
        <time>2022-08-11T14:56:05Z</time>
      </trkpt>
      <trkpt lat="44.87886" lon="0.89177">
        <ele>49.4</ele>
        <time>2022-08-11T14:56:06Z</time>
      </trkpt>
      <trkpt lat="44.87881" lon="0.89179">
        <ele>49.4</ele>
        <time>2022-08-11T14:56:07Z</time>
      </trkpt>
      <trkpt lat="44.87871" lon="0.89181">
        <ele>48.4</ele>
        <time>2022-08-11T14:56:09Z</time>
      </trkpt>
      <trkpt lat="44.87866" lon="0.89182">
        <ele>48.4</ele>
        <time>2022-08-11T14:56:10Z</time>
      </trkpt>
      <trkpt lat="44.8786" lon="0.89183">
        <ele>48.4</ele>
        <time>2022-08-11T14:56:11Z</time>
      </trkpt>
      <trkpt lat="44.87855" lon="0.89184">
        <ele>48.4</ele>
        <time>2022-08-11T14:56:12Z</time>
      </trkpt>
      <trkpt lat="44.8785" lon="0.89185">
        <ele>48.4</ele>
        <time>2022-08-11T14:56:13Z</time>
      </trkpt>
      <trkpt lat="44.87844" lon="0.89186">
        <ele>48.4</ele>
        <time>2022-08-11T14:56:14Z</time>
      </trkpt>
      <trkpt lat="44.87839" lon="0.89187">
        <ele>48.4</ele>
        <time>2022-08-11T14:56:15Z</time>
      </trkpt>
      <trkpt lat="44.87834" lon="0.89187">
        <ele>48.4</ele>
        <time>2022-08-11T14:56:16Z</time>
      </trkpt>
      <trkpt lat="44.87829" lon="0.89188">
        <ele>48.4</ele>
        <time>2022-08-11T14:56:17Z</time>
      </trkpt>
      <trkpt lat="44.87823" lon="0.89189">
        <ele>47.4</ele>
        <time>2022-08-11T14:56:18Z</time>
      </trkpt>
      <trkpt lat="44.87817" lon="0.8919">
        <ele>47.4</ele>
        <time>2022-08-11T14:56:19Z</time>
      </trkpt>
      <trkpt lat="44.87811" lon="0.89192">
        <ele>47.4</ele>
        <time>2022-08-11T14:56:20Z</time>
      </trkpt>
      <trkpt lat="44.87805" lon="0.89194">
        <ele>48.4</ele>
        <time>2022-08-11T14:56:21Z</time>
      </trkpt>
      <trkpt lat="44.87799" lon="0.89196">
        <ele>48.4</ele>
        <time>2022-08-11T14:56:22Z</time>
      </trkpt>
      <trkpt lat="44.87794" lon="0.89198">
        <ele>48.4</ele>
        <time>2022-08-11T14:56:23Z</time>
      </trkpt>
      <trkpt lat="44.87788" lon="0.89201">
        <ele>48.4</ele>
        <time>2022-08-11T14:56:24Z</time>
      </trkpt>
      <trkpt lat="44.87784" lon="0.89203">
        <ele>48.4</ele>
        <time>2022-08-11T14:56:25Z</time>
      </trkpt>
      <trkpt lat="44.87779" lon="0.89205">
        <ele>48.4</ele>
        <time>2022-08-11T14:56:26Z</time>
      </trkpt>
      <trkpt lat="44.87775" lon="0.89208">
        <ele>48.4</ele>
        <time>2022-08-11T14:56:27Z</time>
      </trkpt>
      <trkpt lat="44.87769" lon="0.8921">
        <ele>48.4</ele>
        <time>2022-08-11T14:56:28Z</time>
      </trkpt>
      <trkpt lat="44.87764" lon="0.89213">
        <ele>48.4</ele>
        <time>2022-08-11T14:56:29Z</time>
      </trkpt>
      <trkpt lat="44.87758" lon="0.89216">
        <ele>48.4</ele>
        <time>2022-08-11T14:56:30Z</time>
      </trkpt>
      <trkpt lat="44.87753" lon="0.89219">
        <ele>48.4</ele>
        <time>2022-08-11T14:56:31Z</time>
      </trkpt>
      <trkpt lat="44.87747" lon="0.89222">
        <ele>48.4</ele>
        <time>2022-08-11T14:56:32Z</time>
      </trkpt>
      <trkpt lat="44.87742" lon="0.89224">
        <ele>47.4</ele>
        <time>2022-08-11T14:56:33Z</time>
      </trkpt>
      <trkpt lat="44.87731" lon="0.89229">
        <ele>48.4</ele>
        <time>2022-08-11T14:56:35Z</time>
      </trkpt>
      <trkpt lat="44.87725" lon="0.89231">
        <ele>48.4</ele>
        <time>2022-08-11T14:56:36Z</time>
      </trkpt>
      <trkpt lat="44.8772" lon="0.89234">
        <ele>48.4</ele>
        <time>2022-08-11T14:56:37Z</time>
      </trkpt>
      <trkpt lat="44.87714" lon="0.89237">
        <ele>48.4</ele>
        <time>2022-08-11T14:56:38Z</time>
      </trkpt>
      <trkpt lat="44.87709" lon="0.8924">
        <ele>48.4</ele>
        <time>2022-08-11T14:56:39Z</time>
      </trkpt>
      <trkpt lat="44.87703" lon="0.89243">
        <ele>48.4</ele>
        <time>2022-08-11T14:56:40Z</time>
      </trkpt>
      <trkpt lat="44.87698" lon="0.89246">
        <ele>47.4</ele>
        <time>2022-08-11T14:56:41Z</time>
      </trkpt>
      <trkpt lat="44.87693" lon="0.8925">
        <ele>47.4</ele>
        <time>2022-08-11T14:56:42Z</time>
      </trkpt>
      <trkpt lat="44.87688" lon="0.89254">
        <ele>47.4</ele>
        <time>2022-08-11T14:56:43Z</time>
      </trkpt>
      <trkpt lat="44.87683" lon="0.89257">
        <ele>47.4</ele>
        <time>2022-08-11T14:56:44Z</time>
      </trkpt>
      <trkpt lat="44.87678" lon="0.8926">
        <ele>47.4</ele>
        <time>2022-08-11T14:56:45Z</time>
      </trkpt>
      <trkpt lat="44.87673" lon="0.89263">
        <ele>47.4</ele>
        <time>2022-08-11T14:56:46Z</time>
      </trkpt>
      <trkpt lat="44.87669" lon="0.89266">
        <ele>47.4</ele>
        <time>2022-08-11T14:56:47Z</time>
      </trkpt>
      <trkpt lat="44.87665" lon="0.89268">
        <ele>47.4</ele>
        <time>2022-08-11T14:56:48Z</time>
      </trkpt>
      <trkpt lat="44.87657" lon="0.89274">
        <ele>47.4</ele>
        <time>2022-08-11T14:56:50Z</time>
      </trkpt>
      <trkpt lat="44.8765" lon="0.8928">
        <ele>48.4</ele>
        <time>2022-08-11T14:56:52Z</time>
      </trkpt>
      <trkpt lat="44.87642" lon="0.89286">
        <ele>48.4</ele>
        <time>2022-08-11T14:56:54Z</time>
      </trkpt>
      <trkpt lat="44.87634" lon="0.89293">
        <ele>48.4</ele>
        <time>2022-08-11T14:56:56Z</time>
      </trkpt>
      <trkpt lat="44.8763" lon="0.89297">
        <ele>48.4</ele>
        <time>2022-08-11T14:56:57Z</time>
      </trkpt>
      <trkpt lat="44.87622" lon="0.89304">
        <ele>48.4</ele>
        <time>2022-08-11T14:56:59Z</time>
      </trkpt>
      <trkpt lat="44.87618" lon="0.89308">
        <ele>48.4</ele>
        <time>2022-08-11T14:57:00Z</time>
      </trkpt>
      <trkpt lat="44.87614" lon="0.89311">
        <ele>48.4</ele>
        <time>2022-08-11T14:57:01Z</time>
      </trkpt>
      <trkpt lat="44.87607" lon="0.89318">
        <ele>48.4</ele>
        <time>2022-08-11T14:57:03Z</time>
      </trkpt>
      <trkpt lat="44.87603" lon="0.89321">
        <ele>48.4</ele>
        <time>2022-08-11T14:57:04Z</time>
      </trkpt>
      <trkpt lat="44.87599" lon="0.89325">
        <ele>48.4</ele>
        <time>2022-08-11T14:57:05Z</time>
      </trkpt>
      <trkpt lat="44.87594" lon="0.89328">
        <ele>48.4</ele>
        <time>2022-08-11T14:57:06Z</time>
      </trkpt>
      <trkpt lat="44.8759" lon="0.89332">
        <ele>48.4</ele>
        <time>2022-08-11T14:57:07Z</time>
      </trkpt>
      <trkpt lat="44.87586" lon="0.89336">
        <ele>48.4</ele>
        <time>2022-08-11T14:57:08Z</time>
      </trkpt>
      <trkpt lat="44.87583" lon="0.8934">
        <ele>48.4</ele>
        <time>2022-08-11T14:57:09Z</time>
      </trkpt>
      <trkpt lat="44.87579" lon="0.89345">
        <ele>48.4</ele>
        <time>2022-08-11T14:57:10Z</time>
      </trkpt>
      <trkpt lat="44.87575" lon="0.89349">
        <ele>49.4</ele>
        <time>2022-08-11T14:57:11Z</time>
      </trkpt>
      <trkpt lat="44.8757" lon="0.89353">
        <ele>49.4</ele>
        <time>2022-08-11T14:57:12Z</time>
      </trkpt>
      <trkpt lat="44.87566" lon="0.89357">
        <ele>49.4</ele>
        <time>2022-08-11T14:57:13Z</time>
      </trkpt>
      <trkpt lat="44.87562" lon="0.89361">
        <ele>49.4</ele>
        <time>2022-08-11T14:57:14Z</time>
      </trkpt>
      <trkpt lat="44.87559" lon="0.89365">
        <ele>49.4</ele>
        <time>2022-08-11T14:57:15Z</time>
      </trkpt>
      <trkpt lat="44.87555" lon="0.89369">
        <ele>49.4</ele>
        <time>2022-08-11T14:57:16Z</time>
      </trkpt>
      <trkpt lat="44.87551" lon="0.89373">
        <ele>49.4</ele>
        <time>2022-08-11T14:57:17Z</time>
      </trkpt>
      <trkpt lat="44.87547" lon="0.89377">
        <ele>49.4</ele>
        <time>2022-08-11T14:57:18Z</time>
      </trkpt>
      <trkpt lat="44.87543" lon="0.89382">
        <ele>49.4</ele>
        <time>2022-08-11T14:57:19Z</time>
      </trkpt>
      <trkpt lat="44.8754" lon="0.89388">
        <ele>49.4</ele>
        <time>2022-08-11T14:57:20Z</time>
      </trkpt>
      <trkpt lat="44.87537" lon="0.89393">
        <ele>49.4</ele>
        <time>2022-08-11T14:57:21Z</time>
      </trkpt>
      <trkpt lat="44.87533" lon="0.89397">
        <ele>50.4</ele>
        <time>2022-08-11T14:57:22Z</time>
      </trkpt>
      <trkpt lat="44.87529" lon="0.89401">
        <ele>50.4</ele>
        <time>2022-08-11T14:57:23Z</time>
      </trkpt>
      <trkpt lat="44.87525" lon="0.89405">
        <ele>50.4</ele>
        <time>2022-08-11T14:57:24Z</time>
      </trkpt>
      <trkpt lat="44.8752" lon="0.89409">
        <ele>50.4</ele>
        <time>2022-08-11T14:57:25Z</time>
      </trkpt>
      <trkpt lat="44.87516" lon="0.89414">
        <ele>50.4</ele>
        <time>2022-08-11T14:57:26Z</time>
      </trkpt>
      <trkpt lat="44.87512" lon="0.89421">
        <ele>50.4</ele>
        <time>2022-08-11T14:57:27Z</time>
      </trkpt>
      <trkpt lat="44.87508" lon="0.89426">
        <ele>51.4</ele>
        <time>2022-08-11T14:57:28Z</time>
      </trkpt>
      <trkpt lat="44.87504" lon="0.89432">
        <ele>51.4</ele>
        <time>2022-08-11T14:57:29Z</time>
      </trkpt>
      <trkpt lat="44.87501" lon="0.89437">
        <ele>51.4</ele>
        <time>2022-08-11T14:57:30Z</time>
      </trkpt>
      <trkpt lat="44.87497" lon="0.89442">
        <ele>50.4</ele>
        <time>2022-08-11T14:57:31Z</time>
      </trkpt>
      <trkpt lat="44.87493" lon="0.89447">
        <ele>50.4</ele>
        <time>2022-08-11T14:57:32Z</time>
      </trkpt>
      <trkpt lat="44.87489" lon="0.89452">
        <ele>51.4</ele>
        <time>2022-08-11T14:57:33Z</time>
      </trkpt>
      <trkpt lat="44.87481" lon="0.89463">
        <ele>51.4</ele>
        <time>2022-08-11T14:57:35Z</time>
      </trkpt>
      <trkpt lat="44.87477" lon="0.89468">
        <ele>51.4</ele>
        <time>2022-08-11T14:57:36Z</time>
      </trkpt>
      <trkpt lat="44.87473" lon="0.89474">
        <ele>51.4</ele>
        <time>2022-08-11T14:57:37Z</time>
      </trkpt>
      <trkpt lat="44.8747" lon="0.89479">
        <ele>51.4</ele>
        <time>2022-08-11T14:57:38Z</time>
      </trkpt>
      <trkpt lat="44.87466" lon="0.89484">
        <ele>51.4</ele>
        <time>2022-08-11T14:57:39Z</time>
      </trkpt>
      <trkpt lat="44.87462" lon="0.89489">
        <ele>51.4</ele>
        <time>2022-08-11T14:57:40Z</time>
      </trkpt>
      <trkpt lat="44.87458" lon="0.89494">
        <ele>52.4</ele>
        <time>2022-08-11T14:57:41Z</time>
      </trkpt>
      <trkpt lat="44.87454" lon="0.89499">
        <ele>52.4</ele>
        <time>2022-08-11T14:57:42Z</time>
      </trkpt>
      <trkpt lat="44.8745" lon="0.89504">
        <ele>52.4</ele>
        <time>2022-08-11T14:57:43Z</time>
      </trkpt>
      <trkpt lat="44.87446" lon="0.89509">
        <ele>52.4</ele>
        <time>2022-08-11T14:57:44Z</time>
      </trkpt>
      <trkpt lat="44.87441" lon="0.89515">
        <ele>53.4</ele>
        <time>2022-08-11T14:57:45Z</time>
      </trkpt>
      <trkpt lat="44.87437" lon="0.8952">
        <ele>53.4</ele>
        <time>2022-08-11T14:57:46Z</time>
      </trkpt>
      <trkpt lat="44.87433" lon="0.89525">
        <ele>53.4</ele>
        <time>2022-08-11T14:57:47Z</time>
      </trkpt>
      <trkpt lat="44.87429" lon="0.8953">
        <ele>53.4</ele>
        <time>2022-08-11T14:57:48Z</time>
      </trkpt>
      <trkpt lat="44.87425" lon="0.89535">
        <ele>53.4</ele>
        <time>2022-08-11T14:57:49Z</time>
      </trkpt>
      <trkpt lat="44.87421" lon="0.8954">
        <ele>53.4</ele>
        <time>2022-08-11T14:57:50Z</time>
      </trkpt>
      <trkpt lat="44.87417" lon="0.89545">
        <ele>54.4</ele>
        <time>2022-08-11T14:57:51Z</time>
      </trkpt>
      <trkpt lat="44.87413" lon="0.89551">
        <ele>54.4</ele>
        <time>2022-08-11T14:57:52Z</time>
      </trkpt>
      <trkpt lat="44.87409" lon="0.89556">
        <ele>54.4</ele>
        <time>2022-08-11T14:57:53Z</time>
      </trkpt>
      <trkpt lat="44.87405" lon="0.8956">
        <ele>53.4</ele>
        <time>2022-08-11T14:57:54Z</time>
      </trkpt>
      <trkpt lat="44.87401" lon="0.89565">
        <ele>53.4</ele>
        <time>2022-08-11T14:57:55Z</time>
      </trkpt>
      <trkpt lat="44.87397" lon="0.8957">
        <ele>54.4</ele>
        <time>2022-08-11T14:57:56Z</time>
      </trkpt>
      <trkpt lat="44.87393" lon="0.89574">
        <ele>53.4</ele>
        <time>2022-08-11T14:57:57Z</time>
      </trkpt>
      <trkpt lat="44.8739" lon="0.89579">
        <ele>54.4</ele>
        <time>2022-08-11T14:57:58Z</time>
      </trkpt>
      <trkpt lat="44.87386" lon="0.89584">
        <ele>54.4</ele>
        <time>2022-08-11T14:57:59Z</time>
      </trkpt>
      <trkpt lat="44.87383" lon="0.89588">
        <ele>54.4</ele>
        <time>2022-08-11T14:58:00Z</time>
      </trkpt>
      <trkpt lat="44.87379" lon="0.89593">
        <ele>54.4</ele>
        <time>2022-08-11T14:58:01Z</time>
      </trkpt>
      <trkpt lat="44.87375" lon="0.89598">
        <ele>54.4</ele>
        <time>2022-08-11T14:58:02Z</time>
      </trkpt>
      <trkpt lat="44.8737" lon="0.89603">
        <ele>54.4</ele>
        <time>2022-08-11T14:58:03Z</time>
      </trkpt>
      <trkpt lat="44.87366" lon="0.89608">
        <ele>55.4</ele>
        <time>2022-08-11T14:58:04Z</time>
      </trkpt>
      <trkpt lat="44.87362" lon="0.89613">
        <ele>55.4</ele>
        <time>2022-08-11T14:58:05Z</time>
      </trkpt>
      <trkpt lat="44.87359" lon="0.89618">
        <ele>55.4</ele>
        <time>2022-08-11T14:58:06Z</time>
      </trkpt>
      <trkpt lat="44.87355" lon="0.89623">
        <ele>55.4</ele>
        <time>2022-08-11T14:58:07Z</time>
      </trkpt>
      <trkpt lat="44.87351" lon="0.89628">
        <ele>55.4</ele>
        <time>2022-08-11T14:58:08Z</time>
      </trkpt>
      <trkpt lat="44.87344" lon="0.89636">
        <ele>55.4</ele>
        <time>2022-08-11T14:58:10Z</time>
      </trkpt>
      <trkpt lat="44.8734" lon="0.89641">
        <ele>54.4</ele>
        <time>2022-08-11T14:58:11Z</time>
      </trkpt>
      <trkpt lat="44.87336" lon="0.89646">
        <ele>54.4</ele>
        <time>2022-08-11T14:58:12Z</time>
      </trkpt>
      <trkpt lat="44.87332" lon="0.8965">
        <ele>54.4</ele>
        <time>2022-08-11T14:58:13Z</time>
      </trkpt>
      <trkpt lat="44.87329" lon="0.89655">
        <ele>55.4</ele>
        <time>2022-08-11T14:58:14Z</time>
      </trkpt>
      <trkpt lat="44.87325" lon="0.8966">
        <ele>55.4</ele>
        <time>2022-08-11T14:58:15Z</time>
      </trkpt>
      <trkpt lat="44.87321" lon="0.89665">
        <ele>55.4</ele>
        <time>2022-08-11T14:58:16Z</time>
      </trkpt>
      <trkpt lat="44.87317" lon="0.89669">
        <ele>55.4</ele>
        <time>2022-08-11T14:58:17Z</time>
      </trkpt>
      <trkpt lat="44.87314" lon="0.89674">
        <ele>55.4</ele>
        <time>2022-08-11T14:58:18Z</time>
      </trkpt>
      <trkpt lat="44.8731" lon="0.89679">
        <ele>55.4</ele>
        <time>2022-08-11T14:58:19Z</time>
      </trkpt>
      <trkpt lat="44.87306" lon="0.89684">
        <ele>55.4</ele>
        <time>2022-08-11T14:58:20Z</time>
      </trkpt>
      <trkpt lat="44.87302" lon="0.89688">
        <ele>55.4</ele>
        <time>2022-08-11T14:58:21Z</time>
      </trkpt>
      <trkpt lat="44.87299" lon="0.89694">
        <ele>55.4</ele>
        <time>2022-08-11T14:58:22Z</time>
      </trkpt>
      <trkpt lat="44.87296" lon="0.89699">
        <ele>56.4</ele>
        <time>2022-08-11T14:58:23Z</time>
      </trkpt>
      <trkpt lat="44.8729" lon="0.89709">
        <ele>56.4</ele>
        <time>2022-08-11T14:58:25Z</time>
      </trkpt>
      <trkpt lat="44.87287" lon="0.89715">
        <ele>55.4</ele>
        <time>2022-08-11T14:58:26Z</time>
      </trkpt>
      <trkpt lat="44.87284" lon="0.8972">
        <ele>55.4</ele>
        <time>2022-08-11T14:58:27Z</time>
      </trkpt>
      <trkpt lat="44.87282" lon="0.89726">
        <ele>55.4</ele>
        <time>2022-08-11T14:58:28Z</time>
      </trkpt>
      <trkpt lat="44.87279" lon="0.89733">
        <ele>55.4</ele>
        <time>2022-08-11T14:58:29Z</time>
      </trkpt>
      <trkpt lat="44.87278" lon="0.89739">
        <ele>55.4</ele>
        <time>2022-08-11T14:58:30Z</time>
      </trkpt>
      <trkpt lat="44.87275" lon="0.89745">
        <ele>55.4</ele>
        <time>2022-08-11T14:58:31Z</time>
      </trkpt>
      <trkpt lat="44.87273" lon="0.89752">
        <ele>55.4</ele>
        <time>2022-08-11T14:58:32Z</time>
      </trkpt>
      <trkpt lat="44.87272" lon="0.89759">
        <ele>55.4</ele>
        <time>2022-08-11T14:58:33Z</time>
      </trkpt>
      <trkpt lat="44.8727" lon="0.89765">
        <ele>55.4</ele>
        <time>2022-08-11T14:58:34Z</time>
      </trkpt>
      <trkpt lat="44.87268" lon="0.89771">
        <ele>56.4</ele>
        <time>2022-08-11T14:58:35Z</time>
      </trkpt>
      <trkpt lat="44.87263" lon="0.89783">
        <ele>56.4</ele>
        <time>2022-08-11T14:58:37Z</time>
      </trkpt>
      <trkpt lat="44.8726" lon="0.89788">
        <ele>56.4</ele>
        <time>2022-08-11T14:58:38Z</time>
      </trkpt>
      <trkpt lat="44.87257" lon="0.89794">
        <ele>56.4</ele>
        <time>2022-08-11T14:58:39Z</time>
      </trkpt>
      <trkpt lat="44.87254" lon="0.898">
        <ele>56.4</ele>
        <time>2022-08-11T14:58:40Z</time>
      </trkpt>
      <trkpt lat="44.87249" lon="0.89809">
        <ele>57.4</ele>
        <time>2022-08-11T14:58:42Z</time>
      </trkpt>
      <trkpt lat="44.87245" lon="0.89817">
        <ele>57.4</ele>
        <time>2022-08-11T14:58:44Z</time>
      </trkpt>
      <trkpt lat="44.87242" lon="0.89823">
        <ele>57.4</ele>
        <time>2022-08-11T14:58:46Z</time>
      </trkpt>
      <trkpt lat="44.87239" lon="0.89829">
        <ele>57.4</ele>
        <time>2022-08-11T14:58:48Z</time>
      </trkpt>
      <trkpt lat="44.87236" lon="0.89836">
        <ele>57.4</ele>
        <time>2022-08-11T14:58:50Z</time>
      </trkpt>
      <trkpt lat="44.87233" lon="0.89842">
        <ele>58.4</ele>
        <time>2022-08-11T14:58:52Z</time>
      </trkpt>
      <trkpt lat="44.87229" lon="0.89847">
        <ele>58.4</ele>
        <time>2022-08-11T14:58:54Z</time>
      </trkpt>
      <trkpt lat="44.87225" lon="0.89853">
        <ele>58.4</ele>
        <time>2022-08-11T14:58:56Z</time>
      </trkpt>
      <trkpt lat="44.87222" lon="0.89859">
        <ele>59.4</ele>
        <time>2022-08-11T14:58:58Z</time>
      </trkpt>
      <trkpt lat="44.87219" lon="0.89865">
        <ele>59.4</ele>
        <time>2022-08-11T14:59:00Z</time>
      </trkpt>
      <trkpt lat="44.87216" lon="0.89871">
        <ele>60.4</ele>
        <time>2022-08-11T14:59:02Z</time>
      </trkpt>
      <trkpt lat="44.87213" lon="0.89877">
        <ele>60.4</ele>
        <time>2022-08-11T14:59:04Z</time>
      </trkpt>
      <trkpt lat="44.87209" lon="0.89885">
        <ele>61.4</ele>
        <time>2022-08-11T14:59:06Z</time>
      </trkpt>
      <trkpt lat="44.87206" lon="0.8989">
        <ele>61.4</ele>
        <time>2022-08-11T14:59:08Z</time>
      </trkpt>
      <trkpt lat="44.87202" lon="0.89896">
        <ele>61.4</ele>
        <time>2022-08-11T14:59:10Z</time>
      </trkpt>
      <trkpt lat="44.87199" lon="0.89902">
        <ele>61.4</ele>
        <time>2022-08-11T14:59:12Z</time>
      </trkpt>
      <trkpt lat="44.87196" lon="0.89907">
        <ele>61.4</ele>
        <time>2022-08-11T14:59:14Z</time>
      </trkpt>
      <trkpt lat="44.87192" lon="0.89914">
        <ele>61.4</ele>
        <time>2022-08-11T14:59:16Z</time>
      </trkpt>
      <trkpt lat="44.87187" lon="0.8992">
        <ele>61.4</ele>
        <time>2022-08-11T14:59:18Z</time>
      </trkpt>
      <trkpt lat="44.87182" lon="0.89923">
        <ele>61.4</ele>
        <time>2022-08-11T14:59:20Z</time>
      </trkpt>
      <trkpt lat="44.87178" lon="0.89926">
        <ele>62.4</ele>
        <time>2022-08-11T14:59:22Z</time>
      </trkpt>
      <trkpt lat="44.87174" lon="0.8993">
        <ele>62.4</ele>
        <time>2022-08-11T14:59:44Z</time>
      </trkpt>
      <trkpt lat="44.87169" lon="0.89933">
        <ele>65.4</ele>
        <time>2022-08-11T14:59:52Z</time>
      </trkpt>
      <trkpt lat="44.87165" lon="0.89936">
        <ele>65.4</ele>
        <time>2022-08-11T14:59:54Z</time>
      </trkpt>
      <trkpt lat="44.87161" lon="0.8994">
        <ele>66.4</ele>
        <time>2022-08-11T14:59:56Z</time>
      </trkpt>
      <trkpt lat="44.87156" lon="0.89942">
        <ele>65.4</ele>
        <time>2022-08-11T14:59:58Z</time>
      </trkpt>
      <trkpt lat="44.8715" lon="0.89941">
        <ele>65.4</ele>
        <time>2022-08-11T15:00:01Z</time>
      </trkpt>
      <trkpt lat="44.87144" lon="0.89944">
        <ele>65.4</ele>
        <time>2022-08-11T15:00:05Z</time>
      </trkpt>
      <trkpt lat="44.87141" lon="0.89952">
        <ele>66.4</ele>
        <time>2022-08-11T15:00:08Z</time>
      </trkpt>
      <trkpt lat="44.87139" lon="0.89959">
        <ele>66.4</ele>
        <time>2022-08-11T15:00:10Z</time>
      </trkpt>
      <trkpt lat="44.87139" lon="0.89965">
        <ele>65.4</ele>
        <time>2022-08-11T15:00:14Z</time>
      </trkpt>
      <trkpt lat="44.87139" lon="0.89972">
        <ele>65.4</ele>
        <time>2022-08-11T15:00:18Z</time>
      </trkpt>
      <trkpt lat="44.87138" lon="0.89979">
        <ele>64.4</ele>
        <time>2022-08-11T15:00:21Z</time>
      </trkpt>
      <trkpt lat="44.87138" lon="0.89985">
        <ele>64.4</ele>
        <time>2022-08-11T15:00:24Z</time>
      </trkpt>
      <trkpt lat="44.87138" lon="0.89992">
        <ele>64.4</ele>
        <time>2022-08-11T15:00:27Z</time>
      </trkpt>
      <trkpt lat="44.87137" lon="0.89999">
        <ele>64.4</ele>
        <time>2022-08-11T15:00:30Z</time>
      </trkpt>
      <trkpt lat="44.87135" lon="0.90006">
        <ele>64.4</ele>
        <time>2022-08-11T15:00:33Z</time>
      </trkpt>
      <trkpt lat="44.87136" lon="0.90013">
        <ele>64.4</ele>
        <time>2022-08-11T15:00:35Z</time>
      </trkpt>
      <trkpt lat="44.87136" lon="0.90021">
        <ele>63.4</ele>
        <time>2022-08-11T15:00:38Z</time>
      </trkpt>
      <trkpt lat="44.87135" lon="0.90028">
        <ele>63.4</ele>
        <time>2022-08-11T15:00:41Z</time>
      </trkpt>
      <trkpt lat="44.87135" lon="0.90036">
        <ele>63.4</ele>
        <time>2022-08-11T15:00:45Z</time>
      </trkpt>
      <trkpt lat="44.87136" lon="0.90043">
        <ele>63.4</ele>
        <time>2022-08-11T15:00:48Z</time>
      </trkpt>
      <trkpt lat="44.87136" lon="0.90052">
        <ele>62.4</ele>
        <time>2022-08-11T15:00:52Z</time>
      </trkpt>
      <trkpt lat="44.87136" lon="0.90059">
        <ele>62.4</ele>
        <time>2022-08-11T15:00:55Z</time>
      </trkpt>
      <trkpt lat="44.87136" lon="0.90067">
        <ele>61.4</ele>
        <time>2022-08-11T15:00:58Z</time>
      </trkpt>
      <trkpt lat="44.87136" lon="0.90074">
        <ele>62.4</ele>
        <time>2022-08-11T15:01:01Z</time>
      </trkpt>
      <trkpt lat="44.87137" lon="0.90085">
        <ele>62.4</ele>
        <time>2022-08-11T15:01:05Z</time>
      </trkpt>
      <trkpt lat="44.87137" lon="0.90093">
        <ele>64.4</ele>
        <time>2022-08-11T15:01:08Z</time>
      </trkpt>
      <trkpt lat="44.87137" lon="0.90102">
        <ele>64.4</ele>
        <time>2022-08-11T15:01:11Z</time>
      </trkpt>
      <trkpt lat="44.87136" lon="0.9011">
        <ele>66.4</ele>
        <time>2022-08-11T15:01:14Z</time>
      </trkpt>
      <trkpt lat="44.87136" lon="0.90117">
        <ele>67.4</ele>
        <time>2022-08-11T15:01:17Z</time>
      </trkpt>
      <trkpt lat="44.87136" lon="0.90125">
        <ele>68.4</ele>
        <time>2022-08-11T15:01:20Z</time>
      </trkpt>
      <trkpt lat="44.87136" lon="0.90132">
        <ele>68.4</ele>
        <time>2022-08-11T15:01:23Z</time>
      </trkpt>
      <trkpt lat="44.87136" lon="0.90139">
        <ele>68.4</ele>
        <time>2022-08-11T15:01:27Z</time>
      </trkpt>
      <trkpt lat="44.87136" lon="0.90147">
        <ele>70.4</ele>
        <time>2022-08-11T15:01:31Z</time>
      </trkpt>
      <trkpt lat="44.87136" lon="0.90154">
        <ele>70.4</ele>
        <time>2022-08-11T15:01:34Z</time>
      </trkpt>
      <trkpt lat="44.87137" lon="0.9016">
        <ele>70.4</ele>
        <time>2022-08-11T15:01:37Z</time>
      </trkpt>
      <trkpt lat="44.87137" lon="0.90167">
        <ele>70.4</ele>
        <time>2022-08-11T15:01:42Z</time>
      </trkpt>
      <trkpt lat="44.87137" lon="0.90175">
        <ele>69.4</ele>
        <time>2022-08-11T15:01:46Z</time>
      </trkpt>
      <trkpt lat="44.87136" lon="0.90181">
        <ele>70.4</ele>
        <time>2022-08-11T15:01:54Z</time>
      </trkpt>
      <trkpt lat="44.87136" lon="0.9019">
        <ele>71.4</ele>
        <time>2022-08-11T15:02:00Z</time>
      </trkpt>
      <trkpt lat="44.87135" lon="0.90197">
        <ele>70.4</ele>
        <time>2022-08-11T15:02:05Z</time>
      </trkpt>
      <trkpt lat="44.87135" lon="0.90206">
        <ele>68.4</ele>
        <time>2022-08-11T15:02:09Z</time>
      </trkpt>
      <trkpt lat="44.87136" lon="0.90212">
        <ele>67.4</ele>
        <time>2022-08-11T15:02:13Z</time>
      </trkpt>
      <trkpt lat="44.87137" lon="0.90221">
        <ele>68.4</ele>
        <time>2022-08-11T15:02:16Z</time>
      </trkpt>
      <trkpt lat="44.87137" lon="0.90227">
        <ele>69.4</ele>
        <time>2022-08-11T15:02:20Z</time>
      </trkpt>
      <trkpt lat="44.87137" lon="0.90235">
        <ele>69.4</ele>
        <time>2022-08-11T15:02:24Z</time>
      </trkpt>
      <trkpt lat="44.87137" lon="0.90241">
        <ele>69.4</ele>
        <time>2022-08-11T15:02:29Z</time>
      </trkpt>
      <trkpt lat="44.87137" lon="0.90248">
        <ele>70.4</ele>
        <time>2022-08-11T15:02:34Z</time>
      </trkpt>
      <trkpt lat="44.87138" lon="0.90255">
        <ele>70.4</ele>
        <time>2022-08-11T15:02:37Z</time>
      </trkpt>
      <trkpt lat="44.87135" lon="0.90261">
        <ele>72.4</ele>
        <time>2022-08-11T15:02:42Z</time>
      </trkpt>
      <trkpt lat="44.87135" lon="0.90272">
        <ele>73.4</ele>
        <time>2022-08-11T15:02:48Z</time>
      </trkpt>
      <trkpt lat="44.87134" lon="0.90278">
        <ele>74.4</ele>
        <time>2022-08-11T15:02:53Z</time>
      </trkpt>
      <trkpt lat="44.87133" lon="0.90284">
        <ele>75.4</ele>
        <time>2022-08-11T15:02:57Z</time>
      </trkpt>
      <trkpt lat="44.87129" lon="0.90291">
        <ele>76.4</ele>
        <time>2022-08-11T15:03:02Z</time>
      </trkpt>
      <trkpt lat="44.87127" lon="0.90296">
        <ele>76.4</ele>
        <time>2022-08-11T15:03:06Z</time>
      </trkpt>
      <trkpt lat="44.87124" lon="0.90303">
        <ele>77.4</ele>
        <time>2022-08-11T15:03:10Z</time>
      </trkpt>
      <trkpt lat="44.87119" lon="0.90307">
        <ele>78.4</ele>
        <time>2022-08-11T15:03:16Z</time>
      </trkpt>
      <trkpt lat="44.87116" lon="0.90311">
        <ele>80.4</ele>
        <time>2022-08-11T15:03:21Z</time>
      </trkpt>
      <trkpt lat="44.87113" lon="0.90316">
        <ele>81.4</ele>
        <time>2022-08-11T15:03:26Z</time>
      </trkpt>
      <trkpt lat="44.87108" lon="0.90321">
        <ele>82.4</ele>
        <time>2022-08-11T15:03:30Z</time>
      </trkpt>
      <trkpt lat="44.87106" lon="0.90327">
        <ele>82.4</ele>
        <time>2022-08-11T15:03:34Z</time>
      </trkpt>
      <trkpt lat="44.87102" lon="0.90334">
        <ele>83.4</ele>
        <time>2022-08-11T15:03:37Z</time>
      </trkpt>
      <trkpt lat="44.87098" lon="0.90341">
        <ele>84.4</ele>
        <time>2022-08-11T15:03:42Z</time>
      </trkpt>
      <trkpt lat="44.87095" lon="0.90348">
        <ele>84.4</ele>
        <time>2022-08-11T15:03:45Z</time>
      </trkpt>
      <trkpt lat="44.87092" lon="0.90355">
        <ele>85.4</ele>
        <time>2022-08-11T15:03:49Z</time>
      </trkpt>
      <trkpt lat="44.8709" lon="0.90361">
        <ele>87.4</ele>
        <time>2022-08-11T15:03:52Z</time>
      </trkpt>
      <trkpt lat="44.87087" lon="0.90367">
        <ele>88.4</ele>
        <time>2022-08-11T15:03:55Z</time>
      </trkpt>
      <trkpt lat="44.87082" lon="0.90373">
        <ele>90.4</ele>
        <time>2022-08-11T15:04:00Z</time>
      </trkpt>
      <trkpt lat="44.87079" lon="0.90378">
        <ele>91.4</ele>
        <time>2022-08-11T15:04:04Z</time>
      </trkpt>
      <trkpt lat="44.87075" lon="0.90384">
        <ele>92.4</ele>
        <time>2022-08-11T15:04:08Z</time>
      </trkpt>
      <trkpt lat="44.87071" lon="0.90388">
        <ele>93.4</ele>
        <time>2022-08-11T15:04:12Z</time>
      </trkpt>
      <trkpt lat="44.87068" lon="0.90394">
        <ele>93.4</ele>
        <time>2022-08-11T15:04:15Z</time>
      </trkpt>
      <trkpt lat="44.87064" lon="0.904">
        <ele>94.4</ele>
        <time>2022-08-11T15:04:20Z</time>
      </trkpt>
      <trkpt lat="44.87059" lon="0.90407">
        <ele>95.4</ele>
        <time>2022-08-11T15:04:23Z</time>
      </trkpt>
      <trkpt lat="44.87056" lon="0.90412">
        <ele>95.4</ele>
        <time>2022-08-11T15:04:26Z</time>
      </trkpt>
      <trkpt lat="44.87052" lon="0.90419">
        <ele>96.4</ele>
        <time>2022-08-11T15:04:31Z</time>
      </trkpt>
      <trkpt lat="44.87049" lon="0.90426">
        <ele>95.4</ele>
        <time>2022-08-11T15:04:35Z</time>
      </trkpt>
      <trkpt lat="44.87046" lon="0.90431">
        <ele>96.4</ele>
        <time>2022-08-11T15:04:40Z</time>
      </trkpt>
      <trkpt lat="44.87043" lon="0.90438">
        <ele>97.4</ele>
        <time>2022-08-11T15:04:44Z</time>
      </trkpt>
      <trkpt lat="44.87039" lon="0.90443">
        <ele>98.4</ele>
        <time>2022-08-11T15:04:49Z</time>
      </trkpt>
      <trkpt lat="44.87034" lon="0.90448">
        <ele>99.4</ele>
        <time>2022-08-11T15:04:54Z</time>
      </trkpt>
      <trkpt lat="44.87031" lon="0.90454">
        <ele>100.4</ele>
        <time>2022-08-11T15:05:00Z</time>
      </trkpt>
      <trkpt lat="44.87028" lon="0.90459">
        <ele>102.4</ele>
        <time>2022-08-11T15:05:03Z</time>
      </trkpt>
      <trkpt lat="44.87027" lon="0.90466">
        <ele>103.4</ele>
        <time>2022-08-11T15:05:07Z</time>
      </trkpt>
      <trkpt lat="44.87025" lon="0.90472">
        <ele>104.4</ele>
        <time>2022-08-11T15:05:11Z</time>
      </trkpt>
      <trkpt lat="44.87021" lon="0.90477">
        <ele>104.4</ele>
        <time>2022-08-11T15:05:17Z</time>
      </trkpt>
      <trkpt lat="44.87018" lon="0.90482">
        <ele>104.4</ele>
        <time>2022-08-11T15:05:22Z</time>
      </trkpt>
      <trkpt lat="44.87015" lon="0.90488">
        <ele>105.4</ele>
        <time>2022-08-11T15:05:26Z</time>
      </trkpt>
      <trkpt lat="44.87013" lon="0.90494">
        <ele>106.4</ele>
        <time>2022-08-11T15:05:29Z</time>
      </trkpt>
      <trkpt lat="44.87011" lon="0.905">
        <ele>107.4</ele>
        <time>2022-08-11T15:05:33Z</time>
      </trkpt>
      <trkpt lat="44.87008" lon="0.90506">
        <ele>107.4</ele>
        <time>2022-08-11T15:05:36Z</time>
      </trkpt>
      <trkpt lat="44.87005" lon="0.90512">
        <ele>110.4</ele>
        <time>2022-08-11T15:05:42Z</time>
      </trkpt>
      <trkpt lat="44.87002" lon="0.90517">
        <ele>111.4</ele>
        <time>2022-08-11T15:05:45Z</time>
      </trkpt>
      <trkpt lat="44.86998" lon="0.90523">
        <ele>113.4</ele>
        <time>2022-08-11T15:05:51Z</time>
      </trkpt>
      <trkpt lat="44.86995" lon="0.90528">
        <ele>113.4</ele>
        <time>2022-08-11T15:05:56Z</time>
      </trkpt>
      <trkpt lat="44.86991" lon="0.90534">
        <ele>114.4</ele>
        <time>2022-08-11T15:06:00Z</time>
      </trkpt>
      <trkpt lat="44.86988" lon="0.90538">
        <ele>114.4</ele>
        <time>2022-08-11T15:06:03Z</time>
      </trkpt>
      <trkpt lat="44.86985" lon="0.90543">
        <ele>115.4</ele>
        <time>2022-08-11T15:06:06Z</time>
      </trkpt>
      <trkpt lat="44.86981" lon="0.90548">
        <ele>114.4</ele>
        <time>2022-08-11T15:06:10Z</time>
      </trkpt>
      <trkpt lat="44.86977" lon="0.90554">
        <ele>114.4</ele>
        <time>2022-08-11T15:06:14Z</time>
      </trkpt>
      <trkpt lat="44.86974" lon="0.90561">
        <ele>115.4</ele>
        <time>2022-08-11T15:06:18Z</time>
      </trkpt>
      <trkpt lat="44.86971" lon="0.90567">
        <ele>115.4</ele>
        <time>2022-08-11T15:06:22Z</time>
      </trkpt>
      <trkpt lat="44.86967" lon="0.90572">
        <ele>116.4</ele>
        <time>2022-08-11T15:06:26Z</time>
      </trkpt>
      <trkpt lat="44.86964" lon="0.90577">
        <ele>118.4</ele>
        <time>2022-08-11T15:06:32Z</time>
      </trkpt>
      <trkpt lat="44.86962" lon="0.90584">
        <ele>119.4</ele>
        <time>2022-08-11T15:06:36Z</time>
      </trkpt>
      <trkpt lat="44.8696" lon="0.90589">
        <ele>120.4</ele>
        <time>2022-08-11T15:06:39Z</time>
      </trkpt>
      <trkpt lat="44.86957" lon="0.90596">
        <ele>122.4</ele>
        <time>2022-08-11T15:06:45Z</time>
      </trkpt>
      <trkpt lat="44.86953" lon="0.90603">
        <ele>122.4</ele>
        <time>2022-08-11T15:06:49Z</time>
      </trkpt>
      <trkpt lat="44.86951" lon="0.90608">
        <ele>123.4</ele>
        <time>2022-08-11T15:06:52Z</time>
      </trkpt>
      <trkpt lat="44.86949" lon="0.90615">
        <ele>123.4</ele>
        <time>2022-08-11T15:06:57Z</time>
      </trkpt>
      <trkpt lat="44.86946" lon="0.90619">
        <ele>123.4</ele>
        <time>2022-08-11T15:07:02Z</time>
      </trkpt>
      <trkpt lat="44.86942" lon="0.90626">
        <ele>124.4</ele>
        <time>2022-08-11T15:07:08Z</time>
      </trkpt>
      <trkpt lat="44.86939" lon="0.90631">
        <ele>126.4</ele>
        <time>2022-08-11T15:07:13Z</time>
      </trkpt>
      <trkpt lat="44.86934" lon="0.90637">
        <ele>127.4</ele>
        <time>2022-08-11T15:07:18Z</time>
      </trkpt>
      <trkpt lat="44.8693" lon="0.90643">
        <ele>127.4</ele>
        <time>2022-08-11T15:07:22Z</time>
      </trkpt>
      <trkpt lat="44.86927" lon="0.90647">
        <ele>129.4</ele>
        <time>2022-08-11T15:07:27Z</time>
      </trkpt>
      <trkpt lat="44.86924" lon="0.90654">
        <ele>128.4</ele>
        <time>2022-08-11T15:07:32Z</time>
      </trkpt>
      <trkpt lat="44.86922" lon="0.90661">
        <ele>130.4</ele>
        <time>2022-08-11T15:07:36Z</time>
      </trkpt>
      <trkpt lat="44.86919" lon="0.90668">
        <ele>130.4</ele>
        <time>2022-08-11T15:07:40Z</time>
      </trkpt>
      <trkpt lat="44.86917" lon="0.90673">
        <ele>129.4</ele>
        <time>2022-08-11T15:07:43Z</time>
      </trkpt>
      <trkpt lat="44.86914" lon="0.90679">
        <ele>128.4</ele>
        <time>2022-08-11T15:07:47Z</time>
      </trkpt>
      <trkpt lat="44.86911" lon="0.90684">
        <ele>130.4</ele>
        <time>2022-08-11T15:07:51Z</time>
      </trkpt>
      <trkpt lat="44.86907" lon="0.90691">
        <ele>130.4</ele>
        <time>2022-08-11T15:07:56Z</time>
      </trkpt>
      <trkpt lat="44.86903" lon="0.90698">
        <ele>131.4</ele>
        <time>2022-08-11T15:08:01Z</time>
      </trkpt>
      <trkpt lat="44.86902" lon="0.90704">
        <ele>132.4</ele>
        <time>2022-08-11T15:08:06Z</time>
      </trkpt>
      <trkpt lat="44.86899" lon="0.9071">
        <ele>133.4</ele>
        <time>2022-08-11T15:08:10Z</time>
      </trkpt>
      <trkpt lat="44.86896" lon="0.90717">
        <ele>134.4</ele>
        <time>2022-08-11T15:08:14Z</time>
      </trkpt>
      <trkpt lat="44.86893" lon="0.90724">
        <ele>136.4</ele>
        <time>2022-08-11T15:08:18Z</time>
      </trkpt>
      <trkpt lat="44.86889" lon="0.9073">
        <ele>137.4</ele>
        <time>2022-08-11T15:08:23Z</time>
      </trkpt>
      <trkpt lat="44.86886" lon="0.90733">
        <ele>136.4</ele>
        <time>2022-08-11T15:08:28Z</time>
      </trkpt>
      <trkpt lat="44.86885" lon="0.9074">
        <ele>136.4</ele>
        <time>2022-08-11T15:08:33Z</time>
      </trkpt>
      <trkpt lat="44.86884" lon="0.90747">
        <ele>137.4</ele>
        <time>2022-08-11T15:08:37Z</time>
      </trkpt>
      <trkpt lat="44.86882" lon="0.90754">
        <ele>137.4</ele>
        <time>2022-08-11T15:08:41Z</time>
      </trkpt>
      <trkpt lat="44.8688" lon="0.90761">
        <ele>138.4</ele>
        <time>2022-08-11T15:08:45Z</time>
      </trkpt>
      <trkpt lat="44.86883" lon="0.90767">
        <ele>142.4</ele>
        <time>2022-08-11T15:09:10Z</time>
      </trkpt>
      <trkpt lat="44.8688" lon="0.90773">
        <ele>146.4</ele>
        <time>2022-08-11T15:09:31Z</time>
      </trkpt>
      <trkpt lat="44.86885" lon="0.90773">
        <ele>151.4</ele>
        <time>2022-08-11T15:10:33Z</time>
      </trkpt>
      <trkpt lat="44.86884" lon="0.9078">
        <ele>153.4</ele>
        <time>2022-08-11T15:10:56Z</time>
      </trkpt>
      <trkpt lat="44.86882" lon="0.90786">
        <ele>153.4</ele>
        <time>2022-08-11T15:11:03Z</time>
      </trkpt>
      <trkpt lat="44.86879" lon="0.90792">
        <ele>151.4</ele>
        <time>2022-08-11T15:11:16Z</time>
      </trkpt>
      <trkpt lat="44.86879" lon="0.90799">
        <ele>149.4</ele>
        <time>2022-08-11T15:11:24Z</time>
      </trkpt>
      <trkpt lat="44.86879" lon="0.90806">
        <ele>149.4</ele>
        <time>2022-08-11T15:11:29Z</time>
      </trkpt>
      <trkpt lat="44.86878" lon="0.90812">
        <ele>148.4</ele>
        <time>2022-08-11T15:11:33Z</time>
      </trkpt>
      <trkpt lat="44.86875" lon="0.90819">
        <ele>147.4</ele>
        <time>2022-08-11T15:11:37Z</time>
      </trkpt>
      <trkpt lat="44.86873" lon="0.90825">
        <ele>147.4</ele>
        <time>2022-08-11T15:11:41Z</time>
      </trkpt>
      <trkpt lat="44.86872" lon="0.90832">
        <ele>146.4</ele>
        <time>2022-08-11T15:11:45Z</time>
      </trkpt>
      <trkpt lat="44.86872" lon="0.90841">
        <ele>146.4</ele>
        <time>2022-08-11T15:11:51Z</time>
      </trkpt>
      <trkpt lat="44.86874" lon="0.90848">
        <ele>148.4</ele>
        <time>2022-08-11T15:11:57Z</time>
      </trkpt>
      <trkpt lat="44.86876" lon="0.90853">
        <ele>149.4</ele>
        <time>2022-08-11T15:12:02Z</time>
      </trkpt>
      <trkpt lat="44.86879" lon="0.90859">
        <ele>148.4</ele>
        <time>2022-08-11T15:12:08Z</time>
      </trkpt>
      <trkpt lat="44.86882" lon="0.90865">
        <ele>149.4</ele>
        <time>2022-08-11T15:12:13Z</time>
      </trkpt>
      <trkpt lat="44.86886" lon="0.90869">
        <ele>150.4</ele>
        <time>2022-08-11T15:12:18Z</time>
      </trkpt>
      <trkpt lat="44.8689" lon="0.90873">
        <ele>149.4</ele>
        <time>2022-08-11T15:12:22Z</time>
      </trkpt>
      <trkpt lat="44.86893" lon="0.90879">
        <ele>149.4</ele>
        <time>2022-08-11T15:12:27Z</time>
      </trkpt>
      <trkpt lat="44.86895" lon="0.90885">
        <ele>152.4</ele>
        <time>2022-08-11T15:13:15Z</time>
      </trkpt>
      <trkpt lat="44.86899" lon="0.90887">
        <ele>154.4</ele>
        <time>2022-08-11T15:14:02Z</time>
      </trkpt>
      <trkpt lat="44.86889" lon="0.90892">
        <ele>153.4</ele>
        <time>2022-08-11T15:14:11Z</time>
      </trkpt>
      <trkpt lat="44.86884" lon="0.90893">
        <ele>153.4</ele>
        <time>2022-08-11T15:14:12Z</time>
      </trkpt>
      <trkpt lat="44.86876" lon="0.90896">
        <ele>152.4</ele>
        <time>2022-08-11T15:14:14Z</time>
      </trkpt>
      <trkpt lat="44.86867" lon="0.90901">
        <ele>152.4</ele>
        <time>2022-08-11T15:14:16Z</time>
      </trkpt>
      <trkpt lat="44.8686" lon="0.90904">
        <ele>151.4</ele>
        <time>2022-08-11T15:14:18Z</time>
      </trkpt>
      <trkpt lat="44.86855" lon="0.90906">
        <ele>151.4</ele>
        <time>2022-08-11T15:14:20Z</time>
      </trkpt>
      <trkpt lat="44.86849" lon="0.90909">
        <ele>150.4</ele>
        <time>2022-08-11T15:14:22Z</time>
      </trkpt>
      <trkpt lat="44.86844" lon="0.90912">
        <ele>148.4</ele>
        <time>2022-08-11T15:14:25Z</time>
      </trkpt>
      <trkpt lat="44.86838" lon="0.90916">
        <ele>147.4</ele>
        <time>2022-08-11T15:14:27Z</time>
      </trkpt>
      <trkpt lat="44.86828" lon="0.90921">
        <ele>147.4</ele>
        <time>2022-08-11T15:14:30Z</time>
      </trkpt>
      <trkpt lat="44.86821" lon="0.90924">
        <ele>147.4</ele>
        <time>2022-08-11T15:14:32Z</time>
      </trkpt>
      <trkpt lat="44.86813" lon="0.90928">
        <ele>147.4</ele>
        <time>2022-08-11T15:14:34Z</time>
      </trkpt>
      <trkpt lat="44.86805" lon="0.90932">
        <ele>148.4</ele>
        <time>2022-08-11T15:14:36Z</time>
      </trkpt>
      <trkpt lat="44.86798" lon="0.90936">
        <ele>148.4</ele>
        <time>2022-08-11T15:14:38Z</time>
      </trkpt>
      <trkpt lat="44.86791" lon="0.90942">
        <ele>148.4</ele>
        <time>2022-08-11T15:14:40Z</time>
      </trkpt>
      <trkpt lat="44.86783" lon="0.90946">
        <ele>147.4</ele>
        <time>2022-08-11T15:14:42Z</time>
      </trkpt>
      <trkpt lat="44.86776" lon="0.9095">
        <ele>147.4</ele>
        <time>2022-08-11T15:14:44Z</time>
      </trkpt>
      <trkpt lat="44.86767" lon="0.90953">
        <ele>147.4</ele>
        <time>2022-08-11T15:14:46Z</time>
      </trkpt>
      <trkpt lat="44.86759" lon="0.90956">
        <ele>146.4</ele>
        <time>2022-08-11T15:14:48Z</time>
      </trkpt>
      <trkpt lat="44.86754" lon="0.90958">
        <ele>147.4</ele>
        <time>2022-08-11T15:14:49Z</time>
      </trkpt>
      <trkpt lat="44.86748" lon="0.9096">
        <ele>147.4</ele>
        <time>2022-08-11T15:14:50Z</time>
      </trkpt>
      <trkpt lat="44.86742" lon="0.9096">
        <ele>146.4</ele>
        <time>2022-08-11T15:14:51Z</time>
      </trkpt>
      <trkpt lat="44.86736" lon="0.9096">
        <ele>146.4</ele>
        <time>2022-08-11T15:14:52Z</time>
      </trkpt>
      <trkpt lat="44.8673" lon="0.9096">
        <ele>146.4</ele>
        <time>2022-08-11T15:14:53Z</time>
      </trkpt>
      <trkpt lat="44.86725" lon="0.9096">
        <ele>146.4</ele>
        <time>2022-08-11T15:14:54Z</time>
      </trkpt>
      <trkpt lat="44.86719" lon="0.90956">
        <ele>146.4</ele>
        <time>2022-08-11T15:14:56Z</time>
      </trkpt>
      <trkpt lat="44.86713" lon="0.90954">
        <ele>145.4</ele>
        <time>2022-08-11T15:14:58Z</time>
      </trkpt>
      <trkpt lat="44.86708" lon="0.90953">
        <ele>145.4</ele>
        <time>2022-08-11T15:14:59Z</time>
      </trkpt>
      <trkpt lat="44.86704" lon="0.90954">
        <ele>145.4</ele>
        <time>2022-08-11T15:15:00Z</time>
      </trkpt>
      <trkpt lat="44.86695" lon="0.90963">
        <ele>144.4</ele>
        <time>2022-08-11T15:15:02Z</time>
      </trkpt>
      <trkpt lat="44.86691" lon="0.90971">
        <ele>143.4</ele>
        <time>2022-08-11T15:15:03Z</time>
      </trkpt>
      <trkpt lat="44.86687" lon="0.9098">
        <ele>141.4</ele>
        <time>2022-08-11T15:15:04Z</time>
      </trkpt>
      <trkpt lat="44.86684" lon="0.90987">
        <ele>140.4</ele>
        <time>2022-08-11T15:15:05Z</time>
      </trkpt>
      <trkpt lat="44.86681" lon="0.90993">
        <ele>140.4</ele>
        <time>2022-08-11T15:15:06Z</time>
      </trkpt>
      <trkpt lat="44.86677" lon="0.90999">
        <ele>139.4</ele>
        <time>2022-08-11T15:15:07Z</time>
      </trkpt>
      <trkpt lat="44.86674" lon="0.91004">
        <ele>138.4</ele>
        <time>2022-08-11T15:15:08Z</time>
      </trkpt>
      <trkpt lat="44.86671" lon="0.9101">
        <ele>138.4</ele>
        <time>2022-08-11T15:15:09Z</time>
      </trkpt>
      <trkpt lat="44.86666" lon="0.91017">
        <ele>138.4</ele>
        <time>2022-08-11T15:15:11Z</time>
      </trkpt>
      <trkpt lat="44.86662" lon="0.91024">
        <ele>139.4</ele>
        <time>2022-08-11T15:15:13Z</time>
      </trkpt>
      <trkpt lat="44.86657" lon="0.91025">
        <ele>138.4</ele>
        <time>2022-08-11T15:15:14Z</time>
      </trkpt>
      <trkpt lat="44.86652" lon="0.91025">
        <ele>138.4</ele>
        <time>2022-08-11T15:15:15Z</time>
      </trkpt>
      <trkpt lat="44.86647" lon="0.91024">
        <ele>137.4</ele>
        <time>2022-08-11T15:15:16Z</time>
      </trkpt>
      <trkpt lat="44.86643" lon="0.91024">
        <ele>137.4</ele>
        <time>2022-08-11T15:15:17Z</time>
      </trkpt>
      <trkpt lat="44.86637" lon="0.91023">
        <ele>137.4</ele>
        <time>2022-08-11T15:15:19Z</time>
      </trkpt>
      <trkpt lat="44.86631" lon="0.91027">
        <ele>136.4</ele>
        <time>2022-08-11T15:15:22Z</time>
      </trkpt>
      <trkpt lat="44.86627" lon="0.9103">
        <ele>135.4</ele>
        <time>2022-08-11T15:15:26Z</time>
      </trkpt>
      <trkpt lat="44.86626" lon="0.91037">
        <ele>135.4</ele>
        <time>2022-08-11T15:15:37Z</time>
      </trkpt>
      <trkpt lat="44.86622" lon="0.91042">
        <ele>138.4</ele>
        <time>2022-08-11T15:17:53Z</time>
      </trkpt>
      <trkpt lat="44.86619" lon="0.91049">
        <ele>137.4</ele>
        <time>2022-08-11T15:17:56Z</time>
      </trkpt>
      <trkpt lat="44.86614" lon="0.91054">
        <ele>136.4</ele>
        <time>2022-08-11T15:17:58Z</time>
      </trkpt>
      <trkpt lat="44.8661" lon="0.91059">
        <ele>135.4</ele>
        <time>2022-08-11T15:18:00Z</time>
      </trkpt>
      <trkpt lat="44.86606" lon="0.91066">
        <ele>135.4</ele>
        <time>2022-08-11T15:18:02Z</time>
      </trkpt>
      <trkpt lat="44.86601" lon="0.91071">
        <ele>134.4</ele>
        <time>2022-08-11T15:18:04Z</time>
      </trkpt>
      <trkpt lat="44.86595" lon="0.91077">
        <ele>132.4</ele>
        <time>2022-08-11T15:18:06Z</time>
      </trkpt>
      <trkpt lat="44.8659" lon="0.91082">
        <ele>132.4</ele>
        <time>2022-08-11T15:18:08Z</time>
      </trkpt>
      <trkpt lat="44.86587" lon="0.91087">
        <ele>131.4</ele>
        <time>2022-08-11T15:18:10Z</time>
      </trkpt>
      <trkpt lat="44.86584" lon="0.91092">
        <ele>129.4</ele>
        <time>2022-08-11T15:18:12Z</time>
      </trkpt>
      <trkpt lat="44.86579" lon="0.91099">
        <ele>127.4</ele>
        <time>2022-08-11T15:18:14Z</time>
      </trkpt>
      <trkpt lat="44.86575" lon="0.91107">
        <ele>125.4</ele>
        <time>2022-08-11T15:18:16Z</time>
      </trkpt>
      <trkpt lat="44.86572" lon="0.91112">
        <ele>124.4</ele>
        <time>2022-08-11T15:18:17Z</time>
      </trkpt>
      <trkpt lat="44.86568" lon="0.91119">
        <ele>122.4</ele>
        <time>2022-08-11T15:18:18Z</time>
      </trkpt>
      <trkpt lat="44.86563" lon="0.91128">
        <ele>120.4</ele>
        <time>2022-08-11T15:18:20Z</time>
      </trkpt>
      <trkpt lat="44.86557" lon="0.91137">
        <ele>118.4</ele>
        <time>2022-08-11T15:18:22Z</time>
      </trkpt>
      <trkpt lat="44.86554" lon="0.91142">
        <ele>117.4</ele>
        <time>2022-08-11T15:18:23Z</time>
      </trkpt>
      <trkpt lat="44.86551" lon="0.91148">
        <ele>115.4</ele>
        <time>2022-08-11T15:18:24Z</time>
      </trkpt>
      <trkpt lat="44.86547" lon="0.91153">
        <ele>113.4</ele>
        <time>2022-08-11T15:18:25Z</time>
      </trkpt>
      <trkpt lat="44.86543" lon="0.91158">
        <ele>111.4</ele>
        <time>2022-08-11T15:18:26Z</time>
      </trkpt>
      <trkpt lat="44.86539" lon="0.91162">
        <ele>111.4</ele>
        <time>2022-08-11T15:18:28Z</time>
      </trkpt>
      <trkpt lat="44.86535" lon="0.91168">
        <ele>109.4</ele>
        <time>2022-08-11T15:18:32Z</time>
      </trkpt>
      <trkpt lat="44.86531" lon="0.91171">
        <ele>108.4</ele>
        <time>2022-08-11T15:18:35Z</time>
      </trkpt>
      <trkpt lat="44.86527" lon="0.91177">
        <ele>107.4</ele>
        <time>2022-08-11T15:18:38Z</time>
      </trkpt>
      <trkpt lat="44.86525" lon="0.91183">
        <ele>104.4</ele>
        <time>2022-08-11T15:18:42Z</time>
      </trkpt>
      <trkpt lat="44.86523" lon="0.9119">
        <ele>103.4</ele>
        <time>2022-08-11T15:19:26Z</time>
      </trkpt>
      <trkpt lat="44.86529" lon="0.91193">
        <ele>103.4</ele>
        <time>2022-08-11T15:20:31Z</time>
      </trkpt>
      <trkpt lat="44.86534" lon="0.91196">
        <ele>103.4</ele>
        <time>2022-08-11T15:20:34Z</time>
      </trkpt>
      <trkpt lat="44.86539" lon="0.91199">
        <ele>103.4</ele>
        <time>2022-08-11T15:20:38Z</time>
      </trkpt>
      <trkpt lat="44.86544" lon="0.91202">
        <ele>102.4</ele>
        <time>2022-08-11T15:20:41Z</time>
      </trkpt>
      <trkpt lat="44.86549" lon="0.91206">
        <ele>102.4</ele>
        <time>2022-08-11T15:20:45Z</time>
      </trkpt>
      <trkpt lat="44.86553" lon="0.91211">
        <ele>101.4</ele>
        <time>2022-08-11T15:20:49Z</time>
      </trkpt>
      <trkpt lat="44.86557" lon="0.91214">
        <ele>100.4</ele>
        <time>2022-08-11T15:20:51Z</time>
      </trkpt>
      <trkpt lat="44.86563" lon="0.91218">
        <ele>100.4</ele>
        <time>2022-08-11T15:20:54Z</time>
      </trkpt>
      <trkpt lat="44.86568" lon="0.91222">
        <ele>99.4</ele>
        <time>2022-08-11T15:20:57Z</time>
      </trkpt>
      <trkpt lat="44.86573" lon="0.91228">
        <ele>98.4</ele>
        <time>2022-08-11T15:21:00Z</time>
      </trkpt>
      <trkpt lat="44.86577" lon="0.91233">
        <ele>98.4</ele>
        <time>2022-08-11T15:21:02Z</time>
      </trkpt>
      <trkpt lat="44.86582" lon="0.91238">
        <ele>97.4</ele>
        <time>2022-08-11T15:21:05Z</time>
      </trkpt>
      <trkpt lat="44.86586" lon="0.91243">
        <ele>97.4</ele>
        <time>2022-08-11T15:21:07Z</time>
      </trkpt>
      <trkpt lat="44.86591" lon="0.91247">
        <ele>97.4</ele>
        <time>2022-08-11T15:21:09Z</time>
      </trkpt>
      <trkpt lat="44.86595" lon="0.91251">
        <ele>97.4</ele>
        <time>2022-08-11T15:21:11Z</time>
      </trkpt>
      <trkpt lat="44.866" lon="0.91255">
        <ele>96.4</ele>
        <time>2022-08-11T15:21:14Z</time>
      </trkpt>
      <trkpt lat="44.86604" lon="0.91258">
        <ele>95.4</ele>
        <time>2022-08-11T15:21:17Z</time>
      </trkpt>
      <trkpt lat="44.86608" lon="0.9126">
        <ele>95.4</ele>
        <time>2022-08-11T15:21:19Z</time>
      </trkpt>
      <trkpt lat="44.86613" lon="0.91263">
        <ele>95.4</ele>
        <time>2022-08-11T15:21:21Z</time>
      </trkpt>
      <trkpt lat="44.8662" lon="0.91266">
        <ele>94.4</ele>
        <time>2022-08-11T15:21:23Z</time>
      </trkpt>
      <trkpt lat="44.86626" lon="0.91269">
        <ele>94.4</ele>
        <time>2022-08-11T15:21:25Z</time>
      </trkpt>
      <trkpt lat="44.86632" lon="0.91273">
        <ele>93.4</ele>
        <time>2022-08-11T15:21:27Z</time>
      </trkpt>
      <trkpt lat="44.86637" lon="0.91275">
        <ele>93.4</ele>
        <time>2022-08-11T15:21:29Z</time>
      </trkpt>
      <trkpt lat="44.86643" lon="0.91278">
        <ele>93.4</ele>
        <time>2022-08-11T15:21:31Z</time>
      </trkpt>
      <trkpt lat="44.86649" lon="0.91281">
        <ele>93.4</ele>
        <time>2022-08-11T15:21:33Z</time>
      </trkpt>
      <trkpt lat="44.86654" lon="0.91282">
        <ele>94.4</ele>
        <time>2022-08-11T15:21:35Z</time>
      </trkpt>
      <trkpt lat="44.86659" lon="0.91283">
        <ele>93.4</ele>
        <time>2022-08-11T15:21:37Z</time>
      </trkpt>
      <trkpt lat="44.86664" lon="0.91286">
        <ele>93.4</ele>
        <time>2022-08-11T15:21:39Z</time>
      </trkpt>
      <trkpt lat="44.86668" lon="0.91287">
        <ele>92.4</ele>
        <time>2022-08-11T15:21:41Z</time>
      </trkpt>
      <trkpt lat="44.86674" lon="0.91288">
        <ele>92.4</ele>
        <time>2022-08-11T15:21:43Z</time>
      </trkpt>
      <trkpt lat="44.8668" lon="0.91288">
        <ele>92.4</ele>
        <time>2022-08-11T15:21:46Z</time>
      </trkpt>
      <trkpt lat="44.86684" lon="0.9129">
        <ele>90.4</ele>
        <time>2022-08-11T15:21:51Z</time>
      </trkpt>
      <trkpt lat="44.86688" lon="0.9129">
        <ele>94.4</ele>
        <time>2022-08-11T15:22:13Z</time>
      </trkpt>
      <trkpt lat="44.86694" lon="0.91294">
        <ele>94.4</ele>
        <time>2022-08-11T15:22:19Z</time>
      </trkpt>
      <trkpt lat="44.867" lon="0.91299">
        <ele>94.4</ele>
        <time>2022-08-11T15:22:21Z</time>
      </trkpt>
      <trkpt lat="44.86707" lon="0.91303">
        <ele>94.4</ele>
        <time>2022-08-11T15:22:23Z</time>
      </trkpt>
      <trkpt lat="44.86719" lon="0.91307">
        <ele>94.4</ele>
        <time>2022-08-11T15:22:26Z</time>
      </trkpt>
      <trkpt lat="44.86726" lon="0.91308">
        <ele>94.4</ele>
        <time>2022-08-11T15:22:28Z</time>
      </trkpt>
      <trkpt lat="44.86732" lon="0.91311">
        <ele>94.4</ele>
        <time>2022-08-11T15:22:30Z</time>
      </trkpt>
      <trkpt lat="44.86737" lon="0.91314">
        <ele>95.4</ele>
        <time>2022-08-11T15:22:32Z</time>
      </trkpt>
      <trkpt lat="44.86743" lon="0.91318">
        <ele>95.4</ele>
        <time>2022-08-11T15:22:34Z</time>
      </trkpt>
      <trkpt lat="44.86748" lon="0.91321">
        <ele>96.4</ele>
        <time>2022-08-11T15:22:36Z</time>
      </trkpt>
      <trkpt lat="44.86754" lon="0.91325">
        <ele>96.4</ele>
        <time>2022-08-11T15:22:38Z</time>
      </trkpt>
      <trkpt lat="44.86762" lon="0.91336">
        <ele>97.4</ele>
        <time>2022-08-11T15:22:41Z</time>
      </trkpt>
      <trkpt lat="44.86767" lon="0.91345">
        <ele>98.4</ele>
        <time>2022-08-11T15:22:43Z</time>
      </trkpt>
      <trkpt lat="44.86771" lon="0.91358">
        <ele>98.4</ele>
        <time>2022-08-11T15:22:46Z</time>
      </trkpt>
      <trkpt lat="44.86775" lon="0.91363">
        <ele>100.4</ele>
        <time>2022-08-11T15:22:47Z</time>
      </trkpt>
      <trkpt lat="44.86777" lon="0.91368">
        <ele>101.4</ele>
        <time>2022-08-11T15:22:48Z</time>
      </trkpt>
      <trkpt lat="44.86781" lon="0.91374">
        <ele>102.4</ele>
        <time>2022-08-11T15:22:49Z</time>
      </trkpt>
      <trkpt lat="44.86784" lon="0.91386">
        <ele>102.4</ele>
        <time>2022-08-11T15:22:51Z</time>
      </trkpt>
      <trkpt lat="44.86787" lon="0.91392">
        <ele>103.4</ele>
        <time>2022-08-11T15:22:52Z</time>
      </trkpt>
      <trkpt lat="44.8679" lon="0.91397">
        <ele>103.4</ele>
        <time>2022-08-11T15:22:53Z</time>
      </trkpt>
      <trkpt lat="44.86793" lon="0.91402">
        <ele>104.4</ele>
        <time>2022-08-11T15:22:54Z</time>
      </trkpt>
      <trkpt lat="44.86798" lon="0.9141">
        <ele>103.4</ele>
        <time>2022-08-11T15:22:56Z</time>
      </trkpt>
      <trkpt lat="44.86802" lon="0.91417">
        <ele>104.4</ele>
        <time>2022-08-11T15:22:58Z</time>
      </trkpt>
      <trkpt lat="44.86806" lon="0.9143">
        <ele>104.4</ele>
        <time>2022-08-11T15:23:01Z</time>
      </trkpt>
      <trkpt lat="44.86808" lon="0.91439">
        <ele>104.4</ele>
        <time>2022-08-11T15:23:03Z</time>
      </trkpt>
      <trkpt lat="44.86811" lon="0.91446">
        <ele>104.4</ele>
        <time>2022-08-11T15:23:05Z</time>
      </trkpt>
      <trkpt lat="44.86814" lon="0.91455">
        <ele>104.4</ele>
        <time>2022-08-11T15:23:07Z</time>
      </trkpt>
      <trkpt lat="44.86817" lon="0.91465">
        <ele>104.4</ele>
        <time>2022-08-11T15:23:09Z</time>
      </trkpt>
      <trkpt lat="44.8682" lon="0.91474">
        <ele>104.4</ele>
        <time>2022-08-11T15:23:11Z</time>
      </trkpt>
      <trkpt lat="44.86824" lon="0.91483">
        <ele>104.4</ele>
        <time>2022-08-11T15:23:13Z</time>
      </trkpt>
      <trkpt lat="44.86826" lon="0.91491">
        <ele>104.4</ele>
        <time>2022-08-11T15:23:15Z</time>
      </trkpt>
      <trkpt lat="44.86828" lon="0.91498">
        <ele>104.4</ele>
        <time>2022-08-11T15:23:17Z</time>
      </trkpt>
      <trkpt lat="44.86828" lon="0.91505">
        <ele>104.4</ele>
        <time>2022-08-11T15:23:19Z</time>
      </trkpt>
      <trkpt lat="44.86829" lon="0.91512">
        <ele>104.4</ele>
        <time>2022-08-11T15:23:21Z</time>
      </trkpt>
      <trkpt lat="44.86832" lon="0.91521">
        <ele>104.4</ele>
        <time>2022-08-11T15:23:24Z</time>
      </trkpt>
      <trkpt lat="44.86834" lon="0.91528">
        <ele>104.4</ele>
        <time>2022-08-11T15:23:26Z</time>
      </trkpt>
      <trkpt lat="44.86838" lon="0.91536">
        <ele>104.4</ele>
        <time>2022-08-11T15:23:28Z</time>
      </trkpt>
      <trkpt lat="44.8684" lon="0.91542">
        <ele>103.4</ele>
        <time>2022-08-11T15:23:30Z</time>
      </trkpt>
      <trkpt lat="44.86841" lon="0.91549">
        <ele>103.4</ele>
        <time>2022-08-11T15:23:32Z</time>
      </trkpt>
      <trkpt lat="44.8684" lon="0.91557">
        <ele>103.4</ele>
        <time>2022-08-11T15:23:34Z</time>
      </trkpt>
      <trkpt lat="44.86839" lon="0.91566">
        <ele>103.4</ele>
        <time>2022-08-11T15:23:36Z</time>
      </trkpt>
      <trkpt lat="44.86836" lon="0.91575">
        <ele>103.4</ele>
        <time>2022-08-11T15:23:38Z</time>
      </trkpt>
      <trkpt lat="44.86834" lon="0.91583">
        <ele>103.4</ele>
        <time>2022-08-11T15:23:40Z</time>
      </trkpt>
      <trkpt lat="44.86833" lon="0.91591">
        <ele>103.4</ele>
        <time>2022-08-11T15:23:42Z</time>
      </trkpt>
      <trkpt lat="44.86831" lon="0.91598">
        <ele>103.4</ele>
        <time>2022-08-11T15:23:44Z</time>
      </trkpt>
      <trkpt lat="44.86829" lon="0.91604">
        <ele>103.4</ele>
        <time>2022-08-11T15:23:46Z</time>
      </trkpt>
      <trkpt lat="44.86828" lon="0.9161">
        <ele>103.4</ele>
        <time>2022-08-11T15:23:48Z</time>
      </trkpt>
      <trkpt lat="44.86825" lon="0.91617">
        <ele>103.4</ele>
        <time>2022-08-11T15:23:50Z</time>
      </trkpt>
      <trkpt lat="44.86823" lon="0.91625">
        <ele>103.4</ele>
        <time>2022-08-11T15:23:52Z</time>
      </trkpt>
      <trkpt lat="44.86824" lon="0.91632">
        <ele>102.4</ele>
        <time>2022-08-11T15:23:55Z</time>
      </trkpt>
      <trkpt lat="44.86826" lon="0.91638">
        <ele>102.4</ele>
        <time>2022-08-11T15:23:58Z</time>
      </trkpt>
      <trkpt lat="44.86829" lon="0.91647">
        <ele>100.4</ele>
        <time>2022-08-11T15:24:03Z</time>
      </trkpt>
      <trkpt lat="44.86831" lon="0.91653">
        <ele>101.4</ele>
        <time>2022-08-11T15:24:06Z</time>
      </trkpt>
      <trkpt lat="44.86835" lon="0.91658">
        <ele>101.4</ele>
        <time>2022-08-11T15:24:11Z</time>
      </trkpt>
      <trkpt lat="44.86838" lon="0.91665">
        <ele>100.4</ele>
        <time>2022-08-11T15:24:14Z</time>
      </trkpt>
      <trkpt lat="44.8684" lon="0.91671">
        <ele>101.4</ele>
        <time>2022-08-11T15:24:18Z</time>
      </trkpt>
      <trkpt lat="44.86843" lon="0.91676">
        <ele>102.4</ele>
        <time>2022-08-11T15:24:23Z</time>
      </trkpt>
      <trkpt lat="44.86845" lon="0.91682">
        <ele>102.4</ele>
        <time>2022-08-11T15:24:26Z</time>
      </trkpt>
      <trkpt lat="44.86848" lon="0.91687">
        <ele>103.4</ele>
        <time>2022-08-11T15:24:30Z</time>
      </trkpt>
      <trkpt lat="44.86851" lon="0.91693">
        <ele>103.4</ele>
        <time>2022-08-11T15:24:34Z</time>
      </trkpt>
      <trkpt lat="44.86855" lon="0.917">
        <ele>105.4</ele>
        <time>2022-08-11T15:24:41Z</time>
      </trkpt>
      <trkpt lat="44.86857" lon="0.91707">
        <ele>105.4</ele>
        <time>2022-08-11T15:24:45Z</time>
      </trkpt>
      <trkpt lat="44.86861" lon="0.91715">
        <ele>106.4</ele>
        <time>2022-08-11T15:24:50Z</time>
      </trkpt>
      <trkpt lat="44.86864" lon="0.91722">
        <ele>106.4</ele>
        <time>2022-08-11T15:24:53Z</time>
      </trkpt>
      <trkpt lat="44.86866" lon="0.91728">
        <ele>107.4</ele>
        <time>2022-08-11T15:24:56Z</time>
      </trkpt>
      <trkpt lat="44.86869" lon="0.91734">
        <ele>107.4</ele>
        <time>2022-08-11T15:24:59Z</time>
      </trkpt>
      <trkpt lat="44.86872" lon="0.9174">
        <ele>108.4</ele>
        <time>2022-08-11T15:25:02Z</time>
      </trkpt>
      <trkpt lat="44.86876" lon="0.91748">
        <ele>110.4</ele>
        <time>2022-08-11T15:25:06Z</time>
      </trkpt>
      <trkpt lat="44.86879" lon="0.91754">
        <ele>111.4</ele>
        <time>2022-08-11T15:25:09Z</time>
      </trkpt>
      <trkpt lat="44.86883" lon="0.91759">
        <ele>112.4</ele>
        <time>2022-08-11T15:25:12Z</time>
      </trkpt>
      <trkpt lat="44.86886" lon="0.91766">
        <ele>113.4</ele>
        <time>2022-08-11T15:25:15Z</time>
      </trkpt>
      <trkpt lat="44.8689" lon="0.91773">
        <ele>114.4</ele>
        <time>2022-08-11T15:25:18Z</time>
      </trkpt>
      <trkpt lat="44.86893" lon="0.91777">
        <ele>115.4</ele>
        <time>2022-08-11T15:25:20Z</time>
      </trkpt>
      <trkpt lat="44.86898" lon="0.91784">
        <ele>116.4</ele>
        <time>2022-08-11T15:25:23Z</time>
      </trkpt>
      <trkpt lat="44.86902" lon="0.91791">
        <ele>116.4</ele>
        <time>2022-08-11T15:25:26Z</time>
      </trkpt>
      <trkpt lat="44.86905" lon="0.91796">
        <ele>116.4</ele>
        <time>2022-08-11T15:25:29Z</time>
      </trkpt>
      <trkpt lat="44.86909" lon="0.91803">
        <ele>116.4</ele>
        <time>2022-08-11T15:25:32Z</time>
      </trkpt>
      <trkpt lat="44.86915" lon="0.91807">
        <ele>116.4</ele>
        <time>2022-08-11T15:25:35Z</time>
      </trkpt>
      <trkpt lat="44.8692" lon="0.91812">
        <ele>116.4</ele>
        <time>2022-08-11T15:25:38Z</time>
      </trkpt>
      <trkpt lat="44.86924" lon="0.91817">
        <ele>117.4</ele>
        <time>2022-08-11T15:25:41Z</time>
      </trkpt>
      <trkpt lat="44.86928" lon="0.91822">
        <ele>117.4</ele>
        <time>2022-08-11T15:25:44Z</time>
      </trkpt>
      <trkpt lat="44.86934" lon="0.91826">
        <ele>117.4</ele>
        <time>2022-08-11T15:25:50Z</time>
      </trkpt>
      <trkpt lat="44.86937" lon="0.91831">
        <ele>118.4</ele>
        <time>2022-08-11T15:25:52Z</time>
      </trkpt>
      <trkpt lat="44.86941" lon="0.91837">
        <ele>118.4</ele>
        <time>2022-08-11T15:25:54Z</time>
      </trkpt>
      <trkpt lat="44.86946" lon="0.91841">
        <ele>117.4</ele>
        <time>2022-08-11T15:25:56Z</time>
      </trkpt>
      <trkpt lat="44.86951" lon="0.91846">
        <ele>117.4</ele>
        <time>2022-08-11T15:25:59Z</time>
      </trkpt>
      <trkpt lat="44.86956" lon="0.91849">
        <ele>117.4</ele>
        <time>2022-08-11T15:26:01Z</time>
      </trkpt>
      <trkpt lat="44.8696" lon="0.91853">
        <ele>118.4</ele>
        <time>2022-08-11T15:26:03Z</time>
      </trkpt>
      <trkpt lat="44.86964" lon="0.91858">
        <ele>118.4</ele>
        <time>2022-08-11T15:26:06Z</time>
      </trkpt>
      <trkpt lat="44.86968" lon="0.91864">
        <ele>117.4</ele>
        <time>2022-08-11T15:26:10Z</time>
      </trkpt>
      <trkpt lat="44.86972" lon="0.91869">
        <ele>117.4</ele>
        <time>2022-08-11T15:26:13Z</time>
      </trkpt>
      <trkpt lat="44.86976" lon="0.91874">
        <ele>117.4</ele>
        <time>2022-08-11T15:26:15Z</time>
      </trkpt>
      <trkpt lat="44.8698" lon="0.91879">
        <ele>118.4</ele>
        <time>2022-08-11T15:26:17Z</time>
      </trkpt>
      <trkpt lat="44.86985" lon="0.91883">
        <ele>117.4</ele>
        <time>2022-08-11T15:26:20Z</time>
      </trkpt>
      <trkpt lat="44.86989" lon="0.91888">
        <ele>116.4</ele>
        <time>2022-08-11T15:26:23Z</time>
      </trkpt>
      <trkpt lat="44.86993" lon="0.91892">
        <ele>116.4</ele>
        <time>2022-08-11T15:26:25Z</time>
      </trkpt>
      <trkpt lat="44.86998" lon="0.91896">
        <ele>115.4</ele>
        <time>2022-08-11T15:26:27Z</time>
      </trkpt>
      <trkpt lat="44.87002" lon="0.919">
        <ele>115.4</ele>
        <time>2022-08-11T15:26:29Z</time>
      </trkpt>
      <trkpt lat="44.87005" lon="0.91905">
        <ele>114.4</ele>
        <time>2022-08-11T15:26:31Z</time>
      </trkpt>
      <trkpt lat="44.87009" lon="0.91909">
        <ele>114.4</ele>
        <time>2022-08-11T15:26:33Z</time>
      </trkpt>
      <trkpt lat="44.87015" lon="0.91914">
        <ele>112.4</ele>
        <time>2022-08-11T15:26:36Z</time>
      </trkpt>
      <trkpt lat="44.87018" lon="0.91919">
        <ele>110.4</ele>
        <time>2022-08-11T15:26:38Z</time>
      </trkpt>
      <trkpt lat="44.87023" lon="0.91925">
        <ele>110.4</ele>
        <time>2022-08-11T15:26:41Z</time>
      </trkpt>
      <trkpt lat="44.87028" lon="0.9193">
        <ele>107.4</ele>
        <time>2022-08-11T15:26:44Z</time>
      </trkpt>
      <trkpt lat="44.87032" lon="0.91934">
        <ele>105.4</ele>
        <time>2022-08-11T15:26:46Z</time>
      </trkpt>
      <trkpt lat="44.87035" lon="0.91939">
        <ele>104.4</ele>
        <time>2022-08-11T15:26:48Z</time>
      </trkpt>
      <trkpt lat="44.87038" lon="0.91944">
        <ele>103.4</ele>
        <time>2022-08-11T15:26:50Z</time>
      </trkpt>
      <trkpt lat="44.87042" lon="0.91948">
        <ele>103.4</ele>
        <time>2022-08-11T15:26:52Z</time>
      </trkpt>
      <trkpt lat="44.87046" lon="0.91954">
        <ele>102.4</ele>
        <time>2022-08-11T15:26:54Z</time>
      </trkpt>
      <trkpt lat="44.87049" lon="0.91959">
        <ele>102.4</ele>
        <time>2022-08-11T15:26:56Z</time>
      </trkpt>
      <trkpt lat="44.87053" lon="0.91963">
        <ele>101.4</ele>
        <time>2022-08-11T15:26:58Z</time>
      </trkpt>
      <trkpt lat="44.87058" lon="0.91969">
        <ele>100.4</ele>
        <time>2022-08-11T15:27:01Z</time>
      </trkpt>
      <trkpt lat="44.87061" lon="0.91977">
        <ele>99.4</ele>
        <time>2022-08-11T15:27:06Z</time>
      </trkpt>
      <trkpt lat="44.87063" lon="0.91983">
        <ele>98.4</ele>
        <time>2022-08-11T15:27:08Z</time>
      </trkpt>
      <trkpt lat="44.87066" lon="0.91989">
        <ele>97.4</ele>
        <time>2022-08-11T15:27:11Z</time>
      </trkpt>
      <trkpt lat="44.8707" lon="0.91993">
        <ele>95.4</ele>
        <time>2022-08-11T15:27:14Z</time>
      </trkpt>
      <trkpt lat="44.87073" lon="0.92001">
        <ele>95.4</ele>
        <time>2022-08-11T15:27:19Z</time>
      </trkpt>
      <trkpt lat="44.87075" lon="0.92007">
        <ele>96.4</ele>
        <time>2022-08-11T15:27:22Z</time>
      </trkpt>
      <trkpt lat="44.87075" lon="0.92016">
        <ele>95.4</ele>
        <time>2022-08-11T15:27:26Z</time>
      </trkpt>
      <trkpt lat="44.87079" lon="0.92024">
        <ele>95.4</ele>
        <time>2022-08-11T15:27:32Z</time>
      </trkpt>
      <trkpt lat="44.87082" lon="0.9203">
        <ele>95.4</ele>
        <time>2022-08-11T15:27:35Z</time>
      </trkpt>
      <trkpt lat="44.87085" lon="0.92036">
        <ele>95.4</ele>
        <time>2022-08-11T15:27:39Z</time>
      </trkpt>
      <trkpt lat="44.87089" lon="0.92041">
        <ele>96.4</ele>
        <time>2022-08-11T15:27:43Z</time>
      </trkpt>
      <trkpt lat="44.8709" lon="0.92048">
        <ele>96.4</ele>
        <time>2022-08-11T15:27:46Z</time>
      </trkpt>
      <trkpt lat="44.87093" lon="0.92055">
        <ele>98.4</ele>
        <time>2022-08-11T15:27:51Z</time>
      </trkpt>
      <trkpt lat="44.87096" lon="0.92062">
        <ele>99.4</ele>
        <time>2022-08-11T15:27:56Z</time>
      </trkpt>
      <trkpt lat="44.87097" lon="0.92068">
        <ele>102.4</ele>
        <time>2022-08-11T15:28:02Z</time>
      </trkpt>
      <trkpt lat="44.871" lon="0.92074">
        <ele>104.4</ele>
        <time>2022-08-11T15:28:08Z</time>
      </trkpt>
      <trkpt lat="44.87104" lon="0.92078">
        <ele>105.4</ele>
        <time>2022-08-11T15:28:14Z</time>
      </trkpt>
      <trkpt lat="44.87111" lon="0.9208">
        <ele>106.4</ele>
        <time>2022-08-11T15:28:20Z</time>
      </trkpt>
      <trkpt lat="44.87116" lon="0.92082">
        <ele>108.4</ele>
        <time>2022-08-11T15:28:23Z</time>
      </trkpt>
      <trkpt lat="44.87121" lon="0.92083">
        <ele>109.4</ele>
        <time>2022-08-11T15:28:29Z</time>
      </trkpt>
      <trkpt lat="44.87125" lon="0.92083">
        <ele>110.4</ele>
        <time>2022-08-11T15:28:35Z</time>
      </trkpt>
      <trkpt lat="44.87131" lon="0.92083">
        <ele>112.4</ele>
        <time>2022-08-11T15:28:41Z</time>
      </trkpt>
      <trkpt lat="44.87137" lon="0.92082">
        <ele>113.4</ele>
        <time>2022-08-11T15:28:46Z</time>
      </trkpt>
      <trkpt lat="44.87142" lon="0.92085">
        <ele>114.4</ele>
        <time>2022-08-11T15:28:53Z</time>
      </trkpt>
      <trkpt lat="44.87146" lon="0.92085">
        <ele>117.4</ele>
        <time>2022-08-11T15:29:01Z</time>
      </trkpt>
      <trkpt lat="44.87151" lon="0.92085">
        <ele>118.4</ele>
        <time>2022-08-11T15:29:08Z</time>
      </trkpt>
      <trkpt lat="44.87157" lon="0.92086">
        <ele>119.4</ele>
        <time>2022-08-11T15:29:13Z</time>
      </trkpt>
      <trkpt lat="44.87163" lon="0.92086">
        <ele>119.4</ele>
        <time>2022-08-11T15:29:19Z</time>
      </trkpt>
      <trkpt lat="44.87168" lon="0.92087">
        <ele>120.4</ele>
        <time>2022-08-11T15:29:26Z</time>
      </trkpt>
      <trkpt lat="44.87173" lon="0.92089">
        <ele>121.4</ele>
        <time>2022-08-11T15:29:32Z</time>
      </trkpt>
      <trkpt lat="44.87179" lon="0.92089">
        <ele>123.4</ele>
        <time>2022-08-11T15:29:36Z</time>
      </trkpt>
      <trkpt lat="44.87184" lon="0.9209">
        <ele>124.4</ele>
        <time>2022-08-11T15:29:41Z</time>
      </trkpt>
      <trkpt lat="44.87189" lon="0.92089">
        <ele>126.4</ele>
        <time>2022-08-11T15:29:47Z</time>
      </trkpt>
      <trkpt lat="44.87193" lon="0.92087">
        <ele>128.4</ele>
        <time>2022-08-11T15:29:55Z</time>
      </trkpt>
      <trkpt lat="44.87198" lon="0.92087">
        <ele>130.4</ele>
        <time>2022-08-11T15:29:58Z</time>
      </trkpt>
      <trkpt lat="44.87203" lon="0.92087">
        <ele>132.4</ele>
        <time>2022-08-11T15:30:02Z</time>
      </trkpt>
      <trkpt lat="44.87208" lon="0.92086">
        <ele>134.4</ele>
        <time>2022-08-11T15:30:08Z</time>
      </trkpt>
      <trkpt lat="44.87213" lon="0.92087">
        <ele>137.4</ele>
        <time>2022-08-11T15:30:15Z</time>
      </trkpt>
      <trkpt lat="44.87218" lon="0.92088">
        <ele>138.4</ele>
        <time>2022-08-11T15:30:21Z</time>
      </trkpt>
      <trkpt lat="44.87223" lon="0.92089">
        <ele>141.4</ele>
        <time>2022-08-11T15:30:27Z</time>
      </trkpt>
      <trkpt lat="44.87228" lon="0.92089">
        <ele>143.4</ele>
        <time>2022-08-11T15:30:33Z</time>
      </trkpt>
      <trkpt lat="44.87232" lon="0.92089">
        <ele>144.4</ele>
        <time>2022-08-11T15:30:37Z</time>
      </trkpt>
      <trkpt lat="44.87236" lon="0.92094">
        <ele>144.4</ele>
        <time>2022-08-11T15:30:44Z</time>
      </trkpt>
      <trkpt lat="44.8724" lon="0.92096">
        <ele>144.4</ele>
        <time>2022-08-11T15:30:51Z</time>
      </trkpt>
      <trkpt lat="44.87245" lon="0.92097">
        <ele>145.4</ele>
        <time>2022-08-11T15:30:57Z</time>
      </trkpt>
      <trkpt lat="44.8725" lon="0.921">
        <ele>144.4</ele>
        <time>2022-08-11T15:31:01Z</time>
      </trkpt>
      <trkpt lat="44.87256" lon="0.92102">
        <ele>144.4</ele>
        <time>2022-08-11T15:31:04Z</time>
      </trkpt>
      <trkpt lat="44.8726" lon="0.92105">
        <ele>143.4</ele>
        <time>2022-08-11T15:31:08Z</time>
      </trkpt>
      <trkpt lat="44.87264" lon="0.92109">
        <ele>140.4</ele>
        <time>2022-08-11T15:31:13Z</time>
      </trkpt>
      <trkpt lat="44.87269" lon="0.92114">
        <ele>143.4</ele>
        <time>2022-08-11T15:31:21Z</time>
      </trkpt>
      <trkpt lat="44.87275" lon="0.92116">
        <ele>143.4</ele>
        <time>2022-08-11T15:31:35Z</time>
      </trkpt>
      <trkpt lat="44.8728" lon="0.92118">
        <ele>144.4</ele>
        <time>2022-08-11T15:31:41Z</time>
      </trkpt>
      <trkpt lat="44.87285" lon="0.9212">
        <ele>144.4</ele>
        <time>2022-08-11T15:31:45Z</time>
      </trkpt>
      <trkpt lat="44.87289" lon="0.92127">
        <ele>145.4</ele>
        <time>2022-08-11T15:31:48Z</time>
      </trkpt>
      <trkpt lat="44.87293" lon="0.92132">
        <ele>145.4</ele>
        <time>2022-08-11T15:31:50Z</time>
      </trkpt>
      <trkpt lat="44.87298" lon="0.92137">
        <ele>145.4</ele>
        <time>2022-08-11T15:31:52Z</time>
      </trkpt>
      <trkpt lat="44.87301" lon="0.92142">
        <ele>145.4</ele>
        <time>2022-08-11T15:31:54Z</time>
      </trkpt>
      <trkpt lat="44.87304" lon="0.92148">
        <ele>145.4</ele>
        <time>2022-08-11T15:31:56Z</time>
      </trkpt>
      <trkpt lat="44.87307" lon="0.92155">
        <ele>145.4</ele>
        <time>2022-08-11T15:31:58Z</time>
      </trkpt>
      <trkpt lat="44.87311" lon="0.92163">
        <ele>145.4</ele>
        <time>2022-08-11T15:32:00Z</time>
      </trkpt>
      <trkpt lat="44.87314" lon="0.92172">
        <ele>145.4</ele>
        <time>2022-08-11T15:32:02Z</time>
      </trkpt>
      <trkpt lat="44.87316" lon="0.9218">
        <ele>146.4</ele>
        <time>2022-08-11T15:32:04Z</time>
      </trkpt>
      <trkpt lat="44.87318" lon="0.92187">
        <ele>147.4</ele>
        <time>2022-08-11T15:32:06Z</time>
      </trkpt>
      <trkpt lat="44.87319" lon="0.92194">
        <ele>147.4</ele>
        <time>2022-08-11T15:32:08Z</time>
      </trkpt>
      <trkpt lat="44.8732" lon="0.92201">
        <ele>148.4</ele>
        <time>2022-08-11T15:32:10Z</time>
      </trkpt>
      <trkpt lat="44.87321" lon="0.92209">
        <ele>148.4</ele>
        <time>2022-08-11T15:32:12Z</time>
      </trkpt>
      <trkpt lat="44.87322" lon="0.92215">
        <ele>149.4</ele>
        <time>2022-08-11T15:32:14Z</time>
      </trkpt>
      <trkpt lat="44.87322" lon="0.92224">
        <ele>150.4</ele>
        <time>2022-08-11T15:32:17Z</time>
      </trkpt>
      <trkpt lat="44.87323" lon="0.92233">
        <ele>152.4</ele>
        <time>2022-08-11T15:32:20Z</time>
      </trkpt>
      <trkpt lat="44.87325" lon="0.9224">
        <ele>153.4</ele>
        <time>2022-08-11T15:32:22Z</time>
      </trkpt>
      <trkpt lat="44.87326" lon="0.92247">
        <ele>153.4</ele>
        <time>2022-08-11T15:32:24Z</time>
      </trkpt>
      <trkpt lat="44.87328" lon="0.92254">
        <ele>153.4</ele>
        <time>2022-08-11T15:32:26Z</time>
      </trkpt>
      <trkpt lat="44.8733" lon="0.92261">
        <ele>153.4</ele>
        <time>2022-08-11T15:32:29Z</time>
      </trkpt>
      <trkpt lat="44.87332" lon="0.92269">
        <ele>153.4</ele>
        <time>2022-08-11T15:32:32Z</time>
      </trkpt>
      <trkpt lat="44.87334" lon="0.92278">
        <ele>153.4</ele>
        <time>2022-08-11T15:32:35Z</time>
      </trkpt>
      <trkpt lat="44.87335" lon="0.92285">
        <ele>153.4</ele>
        <time>2022-08-11T15:32:37Z</time>
      </trkpt>
      <trkpt lat="44.87336" lon="0.92292">
        <ele>153.4</ele>
        <time>2022-08-11T15:32:39Z</time>
      </trkpt>
      <trkpt lat="44.87336" lon="0.92301">
        <ele>153.4</ele>
        <time>2022-08-11T15:32:42Z</time>
      </trkpt>
      <trkpt lat="44.87337" lon="0.92308">
        <ele>153.4</ele>
        <time>2022-08-11T15:32:44Z</time>
      </trkpt>
      <trkpt lat="44.87337" lon="0.92316">
        <ele>152.4</ele>
        <time>2022-08-11T15:32:46Z</time>
      </trkpt>
      <trkpt lat="44.87336" lon="0.92323">
        <ele>152.4</ele>
        <time>2022-08-11T15:32:48Z</time>
      </trkpt>
      <trkpt lat="44.87335" lon="0.9233">
        <ele>151.4</ele>
        <time>2022-08-11T15:32:50Z</time>
      </trkpt>
      <trkpt lat="44.87334" lon="0.92337">
        <ele>151.4</ele>
        <time>2022-08-11T15:32:52Z</time>
      </trkpt>
      <trkpt lat="44.87333" lon="0.92343">
        <ele>151.4</ele>
        <time>2022-08-11T15:32:54Z</time>
      </trkpt>
      <trkpt lat="44.87333" lon="0.92349">
        <ele>150.4</ele>
        <time>2022-08-11T15:32:56Z</time>
      </trkpt>
      <trkpt lat="44.87331" lon="0.92358">
        <ele>150.4</ele>
        <time>2022-08-11T15:32:59Z</time>
      </trkpt>
      <trkpt lat="44.8733" lon="0.92364">
        <ele>149.4</ele>
        <time>2022-08-11T15:33:01Z</time>
      </trkpt>
      <trkpt lat="44.87328" lon="0.9237">
        <ele>149.4</ele>
        <time>2022-08-11T15:33:03Z</time>
      </trkpt>
      <trkpt lat="44.87326" lon="0.92377">
        <ele>150.4</ele>
        <time>2022-08-11T15:33:05Z</time>
      </trkpt>
      <trkpt lat="44.87326" lon="0.92383">
        <ele>150.4</ele>
        <time>2022-08-11T15:33:07Z</time>
      </trkpt>
      <trkpt lat="44.87324" lon="0.9239">
        <ele>149.4</ele>
        <time>2022-08-11T15:33:09Z</time>
      </trkpt>
      <trkpt lat="44.87322" lon="0.92397">
        <ele>149.4</ele>
        <time>2022-08-11T15:33:11Z</time>
      </trkpt>
      <trkpt lat="44.87321" lon="0.92404">
        <ele>149.4</ele>
        <time>2022-08-11T15:33:13Z</time>
      </trkpt>
      <trkpt lat="44.87319" lon="0.9241">
        <ele>150.4</ele>
        <time>2022-08-11T15:33:15Z</time>
      </trkpt>
      <trkpt lat="44.87318" lon="0.92418">
        <ele>150.4</ele>
        <time>2022-08-11T15:33:18Z</time>
      </trkpt>
      <trkpt lat="44.87316" lon="0.92427">
        <ele>151.4</ele>
        <time>2022-08-11T15:33:21Z</time>
      </trkpt>
      <trkpt lat="44.87314" lon="0.92433">
        <ele>149.4</ele>
        <time>2022-08-11T15:33:24Z</time>
      </trkpt>
      <trkpt lat="44.87308" lon="0.92437">
        <ele>143.4</ele>
        <time>2022-08-11T15:33:27Z</time>
      </trkpt>
      <trkpt lat="44.87306" lon="0.92444">
        <ele>143.4</ele>
        <time>2022-08-11T15:33:29Z</time>
      </trkpt>
      <trkpt lat="44.87305" lon="0.92451">
        <ele>144.4</ele>
        <time>2022-08-11T15:33:31Z</time>
      </trkpt>
      <trkpt lat="44.87305" lon="0.92459">
        <ele>144.4</ele>
        <time>2022-08-11T15:33:33Z</time>
      </trkpt>
      <trkpt lat="44.87304" lon="0.92468">
        <ele>144.4</ele>
        <time>2022-08-11T15:33:35Z</time>
      </trkpt>
      <trkpt lat="44.87302" lon="0.92477">
        <ele>144.4</ele>
        <time>2022-08-11T15:33:37Z</time>
      </trkpt>
      <trkpt lat="44.87301" lon="0.92485">
        <ele>146.4</ele>
        <time>2022-08-11T15:33:39Z</time>
      </trkpt>
      <trkpt lat="44.873" lon="0.92493">
        <ele>146.4</ele>
        <time>2022-08-11T15:33:41Z</time>
      </trkpt>
      <trkpt lat="44.87299" lon="0.92502">
        <ele>147.4</ele>
        <time>2022-08-11T15:33:43Z</time>
      </trkpt>
      <trkpt lat="44.87298" lon="0.92512">
        <ele>147.4</ele>
        <time>2022-08-11T15:33:45Z</time>
      </trkpt>
      <trkpt lat="44.87297" lon="0.9252">
        <ele>148.4</ele>
        <time>2022-08-11T15:33:47Z</time>
      </trkpt>
      <trkpt lat="44.87299" lon="0.92527">
        <ele>152.4</ele>
        <time>2022-08-11T15:33:54Z</time>
      </trkpt>
      <trkpt lat="44.87297" lon="0.92535">
        <ele>160.4</ele>
        <time>2022-08-11T15:34:11Z</time>
      </trkpt>
      <trkpt lat="44.87295" lon="0.92541">
        <ele>164.4</ele>
        <time>2022-08-11T15:34:21Z</time>
      </trkpt>
      <trkpt lat="44.87295" lon="0.92548">
        <ele>170.4</ele>
        <time>2022-08-11T15:34:36Z</time>
      </trkpt>
      <trkpt lat="44.87296" lon="0.92557">
        <ele>170.4</ele>
        <time>2022-08-11T15:34:39Z</time>
      </trkpt>
      <trkpt lat="44.87296" lon="0.92564">
        <ele>170.4</ele>
        <time>2022-08-11T15:34:41Z</time>
      </trkpt>
      <trkpt lat="44.87296" lon="0.9257">
        <ele>171.4</ele>
        <time>2022-08-11T15:34:43Z</time>
      </trkpt>
      <trkpt lat="44.87296" lon="0.92563">
        <ele>170.4</ele>
        <time>2022-08-11T15:34:55Z</time>
      </trkpt>
      <trkpt lat="44.87301" lon="0.92558">
        <ele>169.4</ele>
        <time>2022-08-11T15:34:58Z</time>
      </trkpt>
      <trkpt lat="44.87298" lon="0.92566">
        <ele>167.4</ele>
        <time>2022-08-11T15:35:24Z</time>
      </trkpt>
      <trkpt lat="44.87298" lon="0.92574">
        <ele>167.4</ele>
        <time>2022-08-11T15:35:26Z</time>
      </trkpt>
      <trkpt lat="44.87298" lon="0.92583">
        <ele>166.4</ele>
        <time>2022-08-11T15:35:28Z</time>
      </trkpt>
      <trkpt lat="44.87299" lon="0.92595">
        <ele>166.4</ele>
        <time>2022-08-11T15:35:30Z</time>
      </trkpt>
      <trkpt lat="44.87301" lon="0.92608">
        <ele>166.4</ele>
        <time>2022-08-11T15:35:32Z</time>
      </trkpt>
      <trkpt lat="44.87301" lon="0.92619">
        <ele>167.4</ele>
        <time>2022-08-11T15:35:34Z</time>
      </trkpt>
      <trkpt lat="44.87301" lon="0.92628">
        <ele>167.4</ele>
        <time>2022-08-11T15:35:36Z</time>
      </trkpt>
      <trkpt lat="44.87299" lon="0.9264">
        <ele>166.4</ele>
        <time>2022-08-11T15:35:39Z</time>
      </trkpt>
      <trkpt lat="44.87297" lon="0.92647">
        <ele>167.4</ele>
        <time>2022-08-11T15:35:41Z</time>
      </trkpt>
      <trkpt lat="44.87295" lon="0.92653">
        <ele>166.4</ele>
        <time>2022-08-11T15:35:43Z</time>
      </trkpt>
      <trkpt lat="44.87292" lon="0.9266">
        <ele>165.4</ele>
        <time>2022-08-11T15:35:46Z</time>
      </trkpt>
      <trkpt lat="44.87288" lon="0.92668">
        <ele>165.4</ele>
        <time>2022-08-11T15:35:49Z</time>
      </trkpt>
      <trkpt lat="44.87284" lon="0.92675">
        <ele>165.4</ele>
        <time>2022-08-11T15:35:52Z</time>
      </trkpt>
      <trkpt lat="44.8728" lon="0.92677">
        <ele>164.4</ele>
        <time>2022-08-11T15:35:54Z</time>
      </trkpt>
      <trkpt lat="44.87274" lon="0.92678">
        <ele>165.4</ele>
        <time>2022-08-11T15:35:57Z</time>
      </trkpt>
      <trkpt lat="44.87269" lon="0.92676">
        <ele>164.4</ele>
        <time>2022-08-11T15:36:00Z</time>
      </trkpt>
      <trkpt lat="44.87263" lon="0.92676">
        <ele>164.4</ele>
        <time>2022-08-11T15:36:03Z</time>
      </trkpt>
      <trkpt lat="44.87258" lon="0.92677">
        <ele>163.4</ele>
        <time>2022-08-11T15:36:06Z</time>
      </trkpt>
      <trkpt lat="44.87253" lon="0.92683">
        <ele>163.4</ele>
        <time>2022-08-11T15:36:08Z</time>
      </trkpt>
      <trkpt lat="44.87251" lon="0.92694">
        <ele>162.4</ele>
        <time>2022-08-11T15:36:11Z</time>
      </trkpt>
      <trkpt lat="44.8725" lon="0.927">
        <ele>162.4</ele>
        <time>2022-08-11T15:36:13Z</time>
      </trkpt>
      <trkpt lat="44.87249" lon="0.92707">
        <ele>162.4</ele>
        <time>2022-08-11T15:36:15Z</time>
      </trkpt>
      <trkpt lat="44.87249" lon="0.92713">
        <ele>163.4</ele>
        <time>2022-08-11T15:36:17Z</time>
      </trkpt>
      <trkpt lat="44.8725" lon="0.9272">
        <ele>163.4</ele>
        <time>2022-08-11T15:36:19Z</time>
      </trkpt>
      <trkpt lat="44.87255" lon="0.92723">
        <ele>164.4</ele>
        <time>2022-08-11T15:36:22Z</time>
      </trkpt>
      <trkpt lat="44.87261" lon="0.92725">
        <ele>166.4</ele>
        <time>2022-08-11T15:36:25Z</time>
      </trkpt>
      <trkpt lat="44.87265" lon="0.92727">
        <ele>165.4</ele>
        <time>2022-08-11T15:36:28Z</time>
      </trkpt>
      <trkpt lat="44.87259" lon="0.92725">
        <ele>166.4</ele>
        <time>2022-08-11T15:36:37Z</time>
      </trkpt>
      <trkpt lat="44.87253" lon="0.92727">
        <ele>166.4</ele>
        <time>2022-08-11T15:36:39Z</time>
      </trkpt>
      <trkpt lat="44.87247" lon="0.92732">
        <ele>167.4</ele>
        <time>2022-08-11T15:36:41Z</time>
      </trkpt>
      <trkpt lat="44.87246" lon="0.92742">
        <ele>167.4</ele>
        <time>2022-08-11T15:36:43Z</time>
      </trkpt>
      <trkpt lat="44.87246" lon="0.92751">
        <ele>167.4</ele>
        <time>2022-08-11T15:36:45Z</time>
      </trkpt>
      <trkpt lat="44.87244" lon="0.92759">
        <ele>168.4</ele>
        <time>2022-08-11T15:36:47Z</time>
      </trkpt>
      <trkpt lat="44.87243" lon="0.92768">
        <ele>169.4</ele>
        <time>2022-08-11T15:36:49Z</time>
      </trkpt>
      <trkpt lat="44.87242" lon="0.92778">
        <ele>168.4</ele>
        <time>2022-08-11T15:36:51Z</time>
      </trkpt>
      <trkpt lat="44.87241" lon="0.92787">
        <ele>169.4</ele>
        <time>2022-08-11T15:36:53Z</time>
      </trkpt>
      <trkpt lat="44.87241" lon="0.92794">
        <ele>168.4</ele>
        <time>2022-08-11T15:36:55Z</time>
      </trkpt>
      <trkpt lat="44.87241" lon="0.92801">
        <ele>169.4</ele>
        <time>2022-08-11T15:36:57Z</time>
      </trkpt>
      <trkpt lat="44.8724" lon="0.92808">
        <ele>168.4</ele>
        <time>2022-08-11T15:36:59Z</time>
      </trkpt>
      <trkpt lat="44.87238" lon="0.92816">
        <ele>168.4</ele>
        <time>2022-08-11T15:37:01Z</time>
      </trkpt>
      <trkpt lat="44.87238" lon="0.92824">
        <ele>168.4</ele>
        <time>2022-08-11T15:37:03Z</time>
      </trkpt>
      <trkpt lat="44.8724" lon="0.92832">
        <ele>168.4</ele>
        <time>2022-08-11T15:37:05Z</time>
      </trkpt>
      <trkpt lat="44.87242" lon="0.92838">
        <ele>168.4</ele>
        <time>2022-08-11T15:37:07Z</time>
      </trkpt>
      <trkpt lat="44.87244" lon="0.92847">
        <ele>168.4</ele>
        <time>2022-08-11T15:37:10Z</time>
      </trkpt>
      <trkpt lat="44.87245" lon="0.92853">
        <ele>169.4</ele>
        <time>2022-08-11T15:37:12Z</time>
      </trkpt>
      <trkpt lat="44.87245" lon="0.92863">
        <ele>170.4</ele>
        <time>2022-08-11T15:37:15Z</time>
      </trkpt>
      <trkpt lat="44.87244" lon="0.92869">
        <ele>170.4</ele>
        <time>2022-08-11T15:37:17Z</time>
      </trkpt>
      <trkpt lat="44.87242" lon="0.92877">
        <ele>170.4</ele>
        <time>2022-08-11T15:37:20Z</time>
      </trkpt>
      <trkpt lat="44.87241" lon="0.92884">
        <ele>170.4</ele>
        <time>2022-08-11T15:37:23Z</time>
      </trkpt>
      <trkpt lat="44.87244" lon="0.92889">
        <ele>170.4</ele>
        <time>2022-08-11T15:37:26Z</time>
      </trkpt>
      <trkpt lat="44.87246" lon="0.92895">
        <ele>170.4</ele>
        <time>2022-08-11T15:37:29Z</time>
      </trkpt>
      <trkpt lat="44.8725" lon="0.92891">
        <ele>171.4</ele>
        <time>2022-08-11T15:37:33Z</time>
      </trkpt>
      <trkpt lat="44.87251" lon="0.92884">
        <ele>170.4</ele>
        <time>2022-08-11T15:37:36Z</time>
      </trkpt>
      <trkpt lat="44.87252" lon="0.92874">
        <ele>170.4</ele>
        <time>2022-08-11T15:37:39Z</time>
      </trkpt>
      <trkpt lat="44.87254" lon="0.92868">
        <ele>168.4</ele>
        <time>2022-08-11T15:37:57Z</time>
      </trkpt>
      <trkpt lat="44.87251" lon="0.92874">
        <ele>173.4</ele>
        <time>2022-08-11T15:44:14Z</time>
      </trkpt>
      <trkpt lat="44.8725" lon="0.92881">
        <ele>173.4</ele>
        <time>2022-08-11T15:44:23Z</time>
      </trkpt>
      <trkpt lat="44.87249" lon="0.92872">
        <ele>172.4</ele>
        <time>2022-08-11T15:44:33Z</time>
      </trkpt>
      <trkpt lat="44.8725" lon="0.92862">
        <ele>171.4</ele>
        <time>2022-08-11T15:44:35Z</time>
      </trkpt>
      <trkpt lat="44.87248" lon="0.92856">
        <ele>170.4</ele>
        <time>2022-08-11T15:44:37Z</time>
      </trkpt>
      <trkpt lat="44.87242" lon="0.92856">
        <ele>170.4</ele>
        <time>2022-08-11T15:44:39Z</time>
      </trkpt>
      <trkpt lat="44.87239" lon="0.92861">
        <ele>170.4</ele>
        <time>2022-08-11T15:44:41Z</time>
      </trkpt>
      <trkpt lat="44.87238" lon="0.92869">
        <ele>171.4</ele>
        <time>2022-08-11T15:44:43Z</time>
      </trkpt>
      <trkpt lat="44.87237" lon="0.92876">
        <ele>171.4</ele>
        <time>2022-08-11T15:44:46Z</time>
      </trkpt>
      <trkpt lat="44.87235" lon="0.92882">
        <ele>171.4</ele>
        <time>2022-08-11T15:44:49Z</time>
      </trkpt>
      <trkpt lat="44.87233" lon="0.92891">
        <ele>171.4</ele>
        <time>2022-08-11T15:44:52Z</time>
      </trkpt>
      <trkpt lat="44.87232" lon="0.929">
        <ele>171.4</ele>
        <time>2022-08-11T15:45:09Z</time>
      </trkpt>
      <trkpt lat="44.87232" lon="0.92909">
        <ele>171.4</ele>
        <time>2022-08-11T15:45:12Z</time>
      </trkpt>
      <trkpt lat="44.87231" lon="0.92915">
        <ele>171.4</ele>
        <time>2022-08-11T15:45:14Z</time>
      </trkpt>
      <trkpt lat="44.87231" lon="0.92921">
        <ele>171.4</ele>
        <time>2022-08-11T15:45:16Z</time>
      </trkpt>
      <trkpt lat="44.8723" lon="0.92931">
        <ele>171.4</ele>
        <time>2022-08-11T15:45:19Z</time>
      </trkpt>
      <trkpt lat="44.87227" lon="0.92939">
        <ele>170.4</ele>
        <time>2022-08-11T15:45:22Z</time>
      </trkpt>
      <trkpt lat="44.87227" lon="0.92945">
        <ele>170.4</ele>
        <time>2022-08-11T15:45:24Z</time>
      </trkpt>
      <trkpt lat="44.87226" lon="0.92954">
        <ele>171.4</ele>
        <time>2022-08-11T15:45:27Z</time>
      </trkpt>
      <trkpt lat="44.87225" lon="0.92962">
        <ele>171.4</ele>
        <time>2022-08-11T15:45:30Z</time>
      </trkpt>
      <trkpt lat="44.87224" lon="0.92969">
        <ele>171.4</ele>
        <time>2022-08-11T15:45:33Z</time>
      </trkpt>
      <trkpt lat="44.87223" lon="0.92976">
        <ele>172.4</ele>
        <time>2022-08-11T15:45:36Z</time>
      </trkpt>
      <trkpt lat="44.87223" lon="0.92985">
        <ele>172.4</ele>
        <time>2022-08-11T15:45:39Z</time>
      </trkpt>
      <trkpt lat="44.87223" lon="0.92994">
        <ele>172.4</ele>
        <time>2022-08-11T15:45:42Z</time>
      </trkpt>
      <trkpt lat="44.87224" lon="0.93002">
        <ele>173.4</ele>
        <time>2022-08-11T15:45:45Z</time>
      </trkpt>
      <trkpt lat="44.87225" lon="0.9301">
        <ele>173.4</ele>
        <time>2022-08-11T15:45:48Z</time>
      </trkpt>
      <trkpt lat="44.87225" lon="0.93018">
        <ele>173.4</ele>
        <time>2022-08-11T15:45:51Z</time>
      </trkpt>
      <trkpt lat="44.87227" lon="0.93025">
        <ele>173.4</ele>
        <time>2022-08-11T15:45:53Z</time>
      </trkpt>
      <trkpt lat="44.87228" lon="0.93031">
        <ele>173.4</ele>
        <time>2022-08-11T15:45:55Z</time>
      </trkpt>
      <trkpt lat="44.87229" lon="0.93038">
        <ele>174.4</ele>
        <time>2022-08-11T15:45:57Z</time>
      </trkpt>
      <trkpt lat="44.87231" lon="0.93047">
        <ele>175.4</ele>
        <time>2022-08-11T15:46:00Z</time>
      </trkpt>
      <trkpt lat="44.87232" lon="0.93053">
        <ele>175.4</ele>
        <time>2022-08-11T15:46:02Z</time>
      </trkpt>
      <trkpt lat="44.87234" lon="0.9306">
        <ele>175.4</ele>
        <time>2022-08-11T15:46:04Z</time>
      </trkpt>
      <trkpt lat="44.87237" lon="0.93067">
        <ele>175.4</ele>
        <time>2022-08-11T15:46:06Z</time>
      </trkpt>
      <trkpt lat="44.87239" lon="0.93076">
        <ele>176.4</ele>
        <time>2022-08-11T15:46:08Z</time>
      </trkpt>
      <trkpt lat="44.87243" lon="0.93085">
        <ele>176.4</ele>
        <time>2022-08-11T15:46:10Z</time>
      </trkpt>
      <trkpt lat="44.87246" lon="0.93093">
        <ele>175.4</ele>
        <time>2022-08-11T15:46:12Z</time>
      </trkpt>
      <trkpt lat="44.8725" lon="0.93101">
        <ele>175.4</ele>
        <time>2022-08-11T15:46:14Z</time>
      </trkpt>
      <trkpt lat="44.87257" lon="0.9311">
        <ele>175.4</ele>
        <time>2022-08-11T15:46:16Z</time>
      </trkpt>
      <trkpt lat="44.87261" lon="0.93114">
        <ele>174.4</ele>
        <time>2022-08-11T15:46:17Z</time>
      </trkpt>
      <trkpt lat="44.87265" lon="0.93118">
        <ele>175.4</ele>
        <time>2022-08-11T15:46:18Z</time>
      </trkpt>
      <trkpt lat="44.8727" lon="0.93122">
        <ele>175.4</ele>
        <time>2022-08-11T15:46:19Z</time>
      </trkpt>
      <trkpt lat="44.87275" lon="0.93125">
        <ele>175.4</ele>
        <time>2022-08-11T15:46:20Z</time>
      </trkpt>
      <trkpt lat="44.87281" lon="0.93127">
        <ele>174.4</ele>
        <time>2022-08-11T15:46:21Z</time>
      </trkpt>
      <trkpt lat="44.87287" lon="0.93128">
        <ele>172.4</ele>
        <time>2022-08-11T15:46:22Z</time>
      </trkpt>
      <trkpt lat="44.87294" lon="0.93129">
        <ele>171.4</ele>
        <time>2022-08-11T15:46:23Z</time>
      </trkpt>
      <trkpt lat="44.87301" lon="0.9313">
        <ele>171.4</ele>
        <time>2022-08-11T15:46:24Z</time>
      </trkpt>
      <trkpt lat="44.87308" lon="0.93131">
        <ele>171.4</ele>
        <time>2022-08-11T15:46:25Z</time>
      </trkpt>
      <trkpt lat="44.87314" lon="0.93132">
        <ele>170.4</ele>
        <time>2022-08-11T15:46:26Z</time>
      </trkpt>
      <trkpt lat="44.87322" lon="0.93133">
        <ele>169.4</ele>
        <time>2022-08-11T15:46:27Z</time>
      </trkpt>
      <trkpt lat="44.87329" lon="0.93135">
        <ele>168.4</ele>
        <time>2022-08-11T15:46:28Z</time>
      </trkpt>
      <trkpt lat="44.87336" lon="0.9314">
        <ele>168.4</ele>
        <time>2022-08-11T15:46:29Z</time>
      </trkpt>
      <trkpt lat="44.87344" lon="0.93147">
        <ele>168.4</ele>
        <time>2022-08-11T15:46:30Z</time>
      </trkpt>
      <trkpt lat="44.87351" lon="0.93155">
        <ele>167.4</ele>
        <time>2022-08-11T15:46:31Z</time>
      </trkpt>
      <trkpt lat="44.87358" lon="0.93164">
        <ele>167.4</ele>
        <time>2022-08-11T15:46:32Z</time>
      </trkpt>
      <trkpt lat="44.87365" lon="0.93173">
        <ele>167.4</ele>
        <time>2022-08-11T15:46:33Z</time>
      </trkpt>
      <trkpt lat="44.8737" lon="0.93181">
        <ele>167.4</ele>
        <time>2022-08-11T15:46:34Z</time>
      </trkpt>
      <trkpt lat="44.87375" lon="0.9319">
        <ele>166.4</ele>
        <time>2022-08-11T15:46:35Z</time>
      </trkpt>
      <trkpt lat="44.87379" lon="0.93198">
        <ele>166.4</ele>
        <time>2022-08-11T15:46:36Z</time>
      </trkpt>
      <trkpt lat="44.87382" lon="0.93204">
        <ele>166.4</ele>
        <time>2022-08-11T15:46:37Z</time>
      </trkpt>
      <trkpt lat="44.87385" lon="0.9321">
        <ele>166.4</ele>
        <time>2022-08-11T15:46:38Z</time>
      </trkpt>
      <trkpt lat="44.87388" lon="0.93221">
        <ele>164.4</ele>
        <time>2022-08-11T15:46:40Z</time>
      </trkpt>
      <trkpt lat="44.87391" lon="0.93231">
        <ele>164.4</ele>
        <time>2022-08-11T15:46:42Z</time>
      </trkpt>
      <trkpt lat="44.87394" lon="0.93241">
        <ele>164.4</ele>
        <time>2022-08-11T15:46:44Z</time>
      </trkpt>
      <trkpt lat="44.87396" lon="0.93248">
        <ele>164.4</ele>
        <time>2022-08-11T15:46:46Z</time>
      </trkpt>
      <trkpt lat="44.874" lon="0.93251">
        <ele>163.4</ele>
        <time>2022-08-11T15:46:51Z</time>
      </trkpt>
      <trkpt lat="44.87399" lon="0.93258">
        <ele>161.4</ele>
        <time>2022-08-11T15:47:09Z</time>
      </trkpt>
      <trkpt lat="44.87399" lon="0.93266">
        <ele>161.4</ele>
        <time>2022-08-11T15:48:04Z</time>
      </trkpt>
      <trkpt lat="44.87398" lon="0.93272">
        <ele>161.4</ele>
        <time>2022-08-11T15:48:06Z</time>
      </trkpt>
      <trkpt lat="44.87397" lon="0.9328">
        <ele>160.4</ele>
        <time>2022-08-11T15:48:08Z</time>
      </trkpt>
      <trkpt lat="44.87398" lon="0.93289">
        <ele>159.4</ele>
        <time>2022-08-11T15:48:10Z</time>
      </trkpt>
      <trkpt lat="44.87397" lon="0.93298">
        <ele>159.4</ele>
        <time>2022-08-11T15:48:12Z</time>
      </trkpt>
      <trkpt lat="44.87396" lon="0.93308">
        <ele>159.4</ele>
        <time>2022-08-11T15:48:14Z</time>
      </trkpt>
      <trkpt lat="44.87398" lon="0.93319">
        <ele>159.4</ele>
        <time>2022-08-11T15:48:16Z</time>
      </trkpt>
      <trkpt lat="44.87399" lon="0.93329">
        <ele>160.4</ele>
        <time>2022-08-11T15:48:18Z</time>
      </trkpt>
      <trkpt lat="44.87399" lon="0.93339">
        <ele>159.4</ele>
        <time>2022-08-11T15:48:20Z</time>
      </trkpt>
      <trkpt lat="44.87399" lon="0.93349">
        <ele>159.4</ele>
        <time>2022-08-11T15:48:22Z</time>
      </trkpt>
      <trkpt lat="44.87398" lon="0.93361">
        <ele>158.4</ele>
        <time>2022-08-11T15:48:24Z</time>
      </trkpt>
      <trkpt lat="44.87396" lon="0.93374">
        <ele>157.4</ele>
        <time>2022-08-11T15:48:26Z</time>
      </trkpt>
      <trkpt lat="44.87396" lon="0.93385">
        <ele>157.4</ele>
        <time>2022-08-11T15:48:28Z</time>
      </trkpt>
      <trkpt lat="44.87396" lon="0.93397">
        <ele>156.4</ele>
        <time>2022-08-11T15:48:30Z</time>
      </trkpt>
      <trkpt lat="44.87395" lon="0.93404">
        <ele>156.4</ele>
        <time>2022-08-11T15:48:31Z</time>
      </trkpt>
      <trkpt lat="44.87395" lon="0.93411">
        <ele>155.4</ele>
        <time>2022-08-11T15:48:32Z</time>
      </trkpt>
      <trkpt lat="44.87396" lon="0.93418">
        <ele>155.4</ele>
        <time>2022-08-11T15:48:33Z</time>
      </trkpt>
      <trkpt lat="44.87396" lon="0.93425">
        <ele>155.4</ele>
        <time>2022-08-11T15:48:34Z</time>
      </trkpt>
      <trkpt lat="44.87396" lon="0.93431">
        <ele>155.4</ele>
        <time>2022-08-11T15:48:35Z</time>
      </trkpt>
      <trkpt lat="44.87395" lon="0.93438">
        <ele>156.4</ele>
        <time>2022-08-11T15:48:36Z</time>
      </trkpt>
      <trkpt lat="44.87395" lon="0.93445">
        <ele>156.4</ele>
        <time>2022-08-11T15:48:37Z</time>
      </trkpt>
      <trkpt lat="44.87396" lon="0.93452">
        <ele>156.4</ele>
        <time>2022-08-11T15:48:38Z</time>
      </trkpt>
      <trkpt lat="44.87396" lon="0.93458">
        <ele>156.4</ele>
        <time>2022-08-11T15:48:39Z</time>
      </trkpt>
      <trkpt lat="44.87396" lon="0.93472">
        <ele>157.4</ele>
        <time>2022-08-11T15:48:41Z</time>
      </trkpt>
      <trkpt lat="44.87396" lon="0.9348">
        <ele>156.4</ele>
        <time>2022-08-11T15:48:42Z</time>
      </trkpt>
      <trkpt lat="44.87395" lon="0.93487">
        <ele>156.4</ele>
        <time>2022-08-11T15:48:43Z</time>
      </trkpt>
      <trkpt lat="44.87395" lon="0.93494">
        <ele>157.4</ele>
        <time>2022-08-11T15:48:44Z</time>
      </trkpt>
      <trkpt lat="44.87395" lon="0.93502">
        <ele>157.4</ele>
        <time>2022-08-11T15:48:45Z</time>
      </trkpt>
      <trkpt lat="44.87395" lon="0.93511">
        <ele>156.4</ele>
        <time>2022-08-11T15:48:46Z</time>
      </trkpt>
      <trkpt lat="44.87395" lon="0.93522">
        <ele>155.4</ele>
        <time>2022-08-11T15:48:47Z</time>
      </trkpt>
      <trkpt lat="44.87395" lon="0.93533">
        <ele>154.4</ele>
        <time>2022-08-11T15:48:48Z</time>
      </trkpt>
      <trkpt lat="44.87396" lon="0.93545">
        <ele>153.4</ele>
        <time>2022-08-11T15:48:49Z</time>
      </trkpt>
      <trkpt lat="44.87398" lon="0.93557">
        <ele>153.4</ele>
        <time>2022-08-11T15:48:50Z</time>
      </trkpt>
      <trkpt lat="44.87401" lon="0.93571">
        <ele>152.4</ele>
        <time>2022-08-11T15:48:51Z</time>
      </trkpt>
      <trkpt lat="44.87403" lon="0.93583">
        <ele>152.4</ele>
        <time>2022-08-11T15:48:52Z</time>
      </trkpt>
      <trkpt lat="44.87404" lon="0.93596">
        <ele>152.4</ele>
        <time>2022-08-11T15:48:53Z</time>
      </trkpt>
      <trkpt lat="44.87405" lon="0.93608">
        <ele>152.4</ele>
        <time>2022-08-11T15:48:54Z</time>
      </trkpt>
      <trkpt lat="44.87406" lon="0.9362">
        <ele>152.4</ele>
        <time>2022-08-11T15:48:55Z</time>
      </trkpt>
      <trkpt lat="44.87405" lon="0.93631">
        <ele>151.4</ele>
        <time>2022-08-11T15:48:56Z</time>
      </trkpt>
      <trkpt lat="44.87404" lon="0.93641">
        <ele>151.4</ele>
        <time>2022-08-11T15:48:57Z</time>
      </trkpt>
      <trkpt lat="44.87403" lon="0.93649">
        <ele>151.4</ele>
        <time>2022-08-11T15:48:58Z</time>
      </trkpt>
      <trkpt lat="44.87403" lon="0.93656">
        <ele>151.4</ele>
        <time>2022-08-11T15:48:59Z</time>
      </trkpt>
      <trkpt lat="44.87402" lon="0.93667">
        <ele>151.4</ele>
        <time>2022-08-11T15:49:01Z</time>
      </trkpt>
      <trkpt lat="44.87402" lon="0.93676">
        <ele>150.4</ele>
        <time>2022-08-11T15:49:03Z</time>
      </trkpt>
      <trkpt lat="44.87401" lon="0.93683">
        <ele>150.4</ele>
        <time>2022-08-11T15:49:05Z</time>
      </trkpt>
      <trkpt lat="44.87399" lon="0.9369">
        <ele>151.4</ele>
        <time>2022-08-11T15:49:08Z</time>
      </trkpt>
      <trkpt lat="44.87398" lon="0.93698">
        <ele>151.4</ele>
        <time>2022-08-11T15:49:12Z</time>
      </trkpt>
      <trkpt lat="44.87398" lon="0.93708">
        <ele>151.4</ele>
        <time>2022-08-11T15:49:16Z</time>
      </trkpt>
      <trkpt lat="44.87398" lon="0.93716">
        <ele>151.4</ele>
        <time>2022-08-11T15:49:19Z</time>
      </trkpt>
      <trkpt lat="44.87397" lon="0.93723">
        <ele>152.4</ele>
        <time>2022-08-11T15:49:23Z</time>
      </trkpt>
      <trkpt lat="44.87396" lon="0.9373">
        <ele>152.4</ele>
        <time>2022-08-11T15:49:26Z</time>
      </trkpt>
      <trkpt lat="44.87396" lon="0.93737">
        <ele>152.4</ele>
        <time>2022-08-11T15:49:29Z</time>
      </trkpt>
      <trkpt lat="44.87394" lon="0.93744">
        <ele>152.4</ele>
        <time>2022-08-11T15:49:32Z</time>
      </trkpt>
      <trkpt lat="44.87394" lon="0.93751">
        <ele>153.4</ele>
        <time>2022-08-11T15:49:36Z</time>
      </trkpt>
      <trkpt lat="44.87394" lon="0.93757">
        <ele>154.4</ele>
        <time>2022-08-11T15:49:40Z</time>
      </trkpt>
      <trkpt lat="44.87394" lon="0.93764">
        <ele>155.4</ele>
        <time>2022-08-11T15:49:46Z</time>
      </trkpt>
      <trkpt lat="44.87394" lon="0.93771">
        <ele>154.4</ele>
        <time>2022-08-11T15:49:49Z</time>
      </trkpt>
      <trkpt lat="44.87393" lon="0.93778">
        <ele>154.4</ele>
        <time>2022-08-11T15:49:52Z</time>
      </trkpt>
      <trkpt lat="44.87391" lon="0.93785">
        <ele>154.4</ele>
        <time>2022-08-11T15:49:57Z</time>
      </trkpt>
      <trkpt lat="44.87388" lon="0.93793">
        <ele>154.4</ele>
        <time>2022-08-11T15:50:01Z</time>
      </trkpt>
      <trkpt lat="44.87386" lon="0.938">
        <ele>155.4</ele>
        <time>2022-08-11T15:50:05Z</time>
      </trkpt>
      <trkpt lat="44.87384" lon="0.93806">
        <ele>155.4</ele>
        <time>2022-08-11T15:50:08Z</time>
      </trkpt>
      <trkpt lat="44.87382" lon="0.93813">
        <ele>156.4</ele>
        <time>2022-08-11T15:50:12Z</time>
      </trkpt>
      <trkpt lat="44.8738" lon="0.9382">
        <ele>157.4</ele>
        <time>2022-08-11T15:50:18Z</time>
      </trkpt>
      <trkpt lat="44.87378" lon="0.93826">
        <ele>157.4</ele>
        <time>2022-08-11T15:50:21Z</time>
      </trkpt>
      <trkpt lat="44.87375" lon="0.93832">
        <ele>160.4</ele>
        <time>2022-08-11T15:50:25Z</time>
      </trkpt>
      <trkpt lat="44.87372" lon="0.93837">
        <ele>161.4</ele>
        <time>2022-08-11T15:50:31Z</time>
      </trkpt>
      <trkpt lat="44.87369" lon="0.93842">
        <ele>161.4</ele>
        <time>2022-08-11T15:50:35Z</time>
      </trkpt>
      <trkpt lat="44.87365" lon="0.93847">
        <ele>162.4</ele>
        <time>2022-08-11T15:50:40Z</time>
      </trkpt>
      <trkpt lat="44.87362" lon="0.93854">
        <ele>163.4</ele>
        <time>2022-08-11T15:50:45Z</time>
      </trkpt>
      <trkpt lat="44.8736" lon="0.9386">
        <ele>166.4</ele>
        <time>2022-08-11T15:50:50Z</time>
      </trkpt>
      <trkpt lat="44.87357" lon="0.93868">
        <ele>166.4</ele>
        <time>2022-08-11T15:50:54Z</time>
      </trkpt>
      <trkpt lat="44.87354" lon="0.93872">
        <ele>167.4</ele>
        <time>2022-08-11T15:50:59Z</time>
      </trkpt>
      <trkpt lat="44.8735" lon="0.93877">
        <ele>165.4</ele>
        <time>2022-08-11T15:51:07Z</time>
      </trkpt>
      <trkpt lat="44.87347" lon="0.93882">
        <ele>167.4</ele>
        <time>2022-08-11T15:51:16Z</time>
      </trkpt>
      <trkpt lat="44.87344" lon="0.93887">
        <ele>168.4</ele>
        <time>2022-08-11T15:51:20Z</time>
      </trkpt>
      <trkpt lat="44.8734" lon="0.93893">
        <ele>169.4</ele>
        <time>2022-08-11T15:51:29Z</time>
      </trkpt>
      <trkpt lat="44.87339" lon="0.939">
        <ele>171.4</ele>
        <time>2022-08-11T15:51:36Z</time>
      </trkpt>
      <trkpt lat="44.87336" lon="0.93907">
        <ele>174.4</ele>
        <time>2022-08-11T15:51:43Z</time>
      </trkpt>
      <trkpt lat="44.87334" lon="0.93912">
        <ele>177.4</ele>
        <time>2022-08-11T15:51:49Z</time>
      </trkpt>
      <trkpt lat="44.87333" lon="0.93918">
        <ele>179.4</ele>
        <time>2022-08-11T15:51:55Z</time>
      </trkpt>
      <trkpt lat="44.87332" lon="0.93925">
        <ele>179.4</ele>
        <time>2022-08-11T15:51:59Z</time>
      </trkpt>
      <trkpt lat="44.8733" lon="0.93931">
        <ele>181.4</ele>
        <time>2022-08-11T15:52:06Z</time>
      </trkpt>
      <trkpt lat="44.87327" lon="0.93938">
        <ele>181.4</ele>
        <time>2022-08-11T15:52:12Z</time>
      </trkpt>
      <trkpt lat="44.87326" lon="0.93945">
        <ele>182.4</ele>
        <time>2022-08-11T15:52:19Z</time>
      </trkpt>
      <trkpt lat="44.87328" lon="0.93952">
        <ele>182.4</ele>
        <time>2022-08-11T15:52:25Z</time>
      </trkpt>
      <trkpt lat="44.87331" lon="0.93958">
        <ele>183.4</ele>
        <time>2022-08-11T15:52:28Z</time>
      </trkpt>
      <trkpt lat="44.87335" lon="0.93961">
        <ele>182.4</ele>
        <time>2022-08-11T15:52:31Z</time>
      </trkpt>
      <trkpt lat="44.87339" lon="0.93966">
        <ele>182.4</ele>
        <time>2022-08-11T15:52:35Z</time>
      </trkpt>
      <trkpt lat="44.87342" lon="0.93971">
        <ele>181.4</ele>
        <time>2022-08-11T15:52:38Z</time>
      </trkpt>
      <trkpt lat="44.87348" lon="0.93973">
        <ele>180.4</ele>
        <time>2022-08-11T15:52:43Z</time>
      </trkpt>
      <trkpt lat="44.87353" lon="0.93974">
        <ele>180.4</ele>
        <time>2022-08-11T15:52:52Z</time>
      </trkpt>
      <trkpt lat="44.87357" lon="0.93978">
        <ele>183.4</ele>
        <time>2022-08-11T15:53:02Z</time>
      </trkpt>
      <trkpt lat="44.87361" lon="0.93982">
        <ele>184.4</ele>
        <time>2022-08-11T15:53:19Z</time>
      </trkpt>
      <trkpt lat="44.87365" lon="0.93985">
        <ele>184.4</ele>
        <time>2022-08-11T15:53:37Z</time>
      </trkpt>
      <trkpt lat="44.87368" lon="0.93991">
        <ele>186.4</ele>
        <time>2022-08-11T15:53:59Z</time>
      </trkpt>
      <trkpt lat="44.87371" lon="0.93994">
        <ele>186.4</ele>
        <time>2022-08-11T15:54:03Z</time>
      </trkpt>
      <trkpt lat="44.87377" lon="0.93995">
        <ele>186.4</ele>
        <time>2022-08-11T15:54:07Z</time>
      </trkpt>
      <trkpt lat="44.87383" lon="0.93996">
        <ele>186.4</ele>
        <time>2022-08-11T15:54:10Z</time>
      </trkpt>
      <trkpt lat="44.87388" lon="0.93996">
        <ele>186.4</ele>
        <time>2022-08-11T15:54:14Z</time>
      </trkpt>
      <trkpt lat="44.87393" lon="0.93997">
        <ele>186.4</ele>
        <time>2022-08-11T15:54:17Z</time>
      </trkpt>
      <trkpt lat="44.87398" lon="0.93998">
        <ele>186.4</ele>
        <time>2022-08-11T15:54:20Z</time>
      </trkpt>
      <trkpt lat="44.87404" lon="0.93999">
        <ele>186.4</ele>
        <time>2022-08-11T15:54:23Z</time>
      </trkpt>
      <trkpt lat="44.87408" lon="0.94002">
        <ele>185.4</ele>
        <time>2022-08-11T15:54:26Z</time>
      </trkpt>
      <trkpt lat="44.87413" lon="0.94003">
        <ele>186.4</ele>
        <time>2022-08-11T15:54:29Z</time>
      </trkpt>
      <trkpt lat="44.87418" lon="0.94002">
        <ele>186.4</ele>
        <time>2022-08-11T15:54:32Z</time>
      </trkpt>
      <trkpt lat="44.87423" lon="0.94002">
        <ele>185.4</ele>
        <time>2022-08-11T15:54:35Z</time>
      </trkpt>
      <trkpt lat="44.87429" lon="0.94">
        <ele>185.4</ele>
        <time>2022-08-11T15:54:38Z</time>
      </trkpt>
      <trkpt lat="44.87433" lon="0.94">
        <ele>184.4</ele>
        <time>2022-08-11T15:54:40Z</time>
      </trkpt>
      <trkpt lat="44.87438" lon="0.94001">
        <ele>184.4</ele>
        <time>2022-08-11T15:54:42Z</time>
      </trkpt>
      <trkpt lat="44.87444" lon="0.94002">
        <ele>184.4</ele>
        <time>2022-08-11T15:54:45Z</time>
      </trkpt>
      <trkpt lat="44.87449" lon="0.94002">
        <ele>186.4</ele>
        <time>2022-08-11T15:54:48Z</time>
      </trkpt>
      <trkpt lat="44.87455" lon="0.94002">
        <ele>191.4</ele>
        <time>2022-08-11T15:54:51Z</time>
      </trkpt>
      <trkpt lat="44.8746" lon="0.94002">
        <ele>190.4</ele>
        <time>2022-08-11T15:54:54Z</time>
      </trkpt>
      <trkpt lat="44.87465" lon="0.94002">
        <ele>188.4</ele>
        <time>2022-08-11T15:54:58Z</time>
      </trkpt>
      <trkpt lat="44.87471" lon="0.94">
        <ele>187.4</ele>
        <time>2022-08-11T15:55:01Z</time>
      </trkpt>
      <trkpt lat="44.87476" lon="0.94002">
        <ele>185.4</ele>
        <time>2022-08-11T15:55:04Z</time>
      </trkpt>
      <trkpt lat="44.87481" lon="0.94004">
        <ele>185.4</ele>
        <time>2022-08-11T15:55:06Z</time>
      </trkpt>
      <trkpt lat="44.87486" lon="0.94005">
        <ele>184.4</ele>
        <time>2022-08-11T15:55:08Z</time>
      </trkpt>
      <trkpt lat="44.8749" lon="0.94009">
        <ele>183.4</ele>
        <time>2022-08-11T15:55:10Z</time>
      </trkpt>
      <trkpt lat="44.87494" lon="0.94014">
        <ele>181.4</ele>
        <time>2022-08-11T15:55:12Z</time>
      </trkpt>
      <trkpt lat="44.87499" lon="0.94019">
        <ele>179.4</ele>
        <time>2022-08-11T15:55:14Z</time>
      </trkpt>
      <trkpt lat="44.87503" lon="0.94023">
        <ele>178.4</ele>
        <time>2022-08-11T15:55:16Z</time>
      </trkpt>
      <trkpt lat="44.87507" lon="0.94027">
        <ele>177.4</ele>
        <time>2022-08-11T15:55:18Z</time>
      </trkpt>
      <trkpt lat="44.87511" lon="0.94033">
        <ele>175.4</ele>
        <time>2022-08-11T15:55:20Z</time>
      </trkpt>
      <trkpt lat="44.87514" lon="0.94039">
        <ele>173.4</ele>
        <time>2022-08-11T15:55:22Z</time>
      </trkpt>
      <trkpt lat="44.87517" lon="0.94044">
        <ele>172.4</ele>
        <time>2022-08-11T15:55:24Z</time>
      </trkpt>
      <trkpt lat="44.8752" lon="0.94049">
        <ele>172.4</ele>
        <time>2022-08-11T15:55:26Z</time>
      </trkpt>
      <trkpt lat="44.87525" lon="0.94055">
        <ele>171.4</ele>
        <time>2022-08-11T15:55:28Z</time>
      </trkpt>
      <trkpt lat="44.8753" lon="0.94061">
        <ele>171.4</ele>
        <time>2022-08-11T15:55:30Z</time>
      </trkpt>
      <trkpt lat="44.87535" lon="0.94068">
        <ele>170.4</ele>
        <time>2022-08-11T15:55:32Z</time>
      </trkpt>
      <trkpt lat="44.87541" lon="0.94074">
        <ele>169.4</ele>
        <time>2022-08-11T15:55:34Z</time>
      </trkpt>
      <trkpt lat="44.87547" lon="0.9408">
        <ele>169.4</ele>
        <time>2022-08-11T15:55:36Z</time>
      </trkpt>
      <trkpt lat="44.87552" lon="0.94086">
        <ele>168.4</ele>
        <time>2022-08-11T15:55:38Z</time>
      </trkpt>
      <trkpt lat="44.87556" lon="0.94093">
        <ele>168.4</ele>
        <time>2022-08-11T15:55:40Z</time>
      </trkpt>
      <trkpt lat="44.87559" lon="0.941">
        <ele>168.4</ele>
        <time>2022-08-11T15:55:42Z</time>
      </trkpt>
      <trkpt lat="44.87562" lon="0.94106">
        <ele>168.4</ele>
        <time>2022-08-11T15:55:44Z</time>
      </trkpt>
      <trkpt lat="44.87564" lon="0.94112">
        <ele>168.4</ele>
        <time>2022-08-11T15:55:46Z</time>
      </trkpt>
      <trkpt lat="44.87567" lon="0.94118">
        <ele>168.4</ele>
        <time>2022-08-11T15:55:48Z</time>
      </trkpt>
      <trkpt lat="44.87571" lon="0.94123">
        <ele>168.4</ele>
        <time>2022-08-11T15:55:50Z</time>
      </trkpt>
      <trkpt lat="44.87576" lon="0.94128">
        <ele>168.4</ele>
        <time>2022-08-11T15:55:52Z</time>
      </trkpt>
      <trkpt lat="44.87579" lon="0.94134">
        <ele>169.4</ele>
        <time>2022-08-11T15:55:54Z</time>
      </trkpt>
      <trkpt lat="44.87582" lon="0.94139">
        <ele>168.4</ele>
        <time>2022-08-11T15:55:56Z</time>
      </trkpt>
      <trkpt lat="44.87586" lon="0.94146">
        <ele>168.4</ele>
        <time>2022-08-11T15:55:59Z</time>
      </trkpt>
      <trkpt lat="44.8759" lon="0.94153">
        <ele>168.4</ele>
        <time>2022-08-11T15:56:02Z</time>
      </trkpt>
      <trkpt lat="44.87593" lon="0.94159">
        <ele>168.4</ele>
        <time>2022-08-11T15:56:04Z</time>
      </trkpt>
      <trkpt lat="44.87596" lon="0.94164">
        <ele>169.4</ele>
        <time>2022-08-11T15:56:06Z</time>
      </trkpt>
      <trkpt lat="44.87599" lon="0.94169">
        <ele>168.4</ele>
        <time>2022-08-11T15:56:08Z</time>
      </trkpt>
      <trkpt lat="44.87604" lon="0.94173">
        <ele>167.4</ele>
        <time>2022-08-11T15:56:10Z</time>
      </trkpt>
      <trkpt lat="44.87608" lon="0.94178">
        <ele>168.4</ele>
        <time>2022-08-11T15:56:12Z</time>
      </trkpt>
      <trkpt lat="44.87612" lon="0.94182">
        <ele>168.4</ele>
        <time>2022-08-11T15:56:14Z</time>
      </trkpt>
      <trkpt lat="44.87616" lon="0.94189">
        <ele>168.4</ele>
        <time>2022-08-11T15:56:17Z</time>
      </trkpt>
      <trkpt lat="44.87618" lon="0.94196">
        <ele>169.4</ele>
        <time>2022-08-11T15:56:20Z</time>
      </trkpt>
      <trkpt lat="44.87622" lon="0.94203">
        <ele>170.4</ele>
        <time>2022-08-11T15:56:23Z</time>
      </trkpt>
      <trkpt lat="44.87626" lon="0.94208">
        <ele>171.4</ele>
        <time>2022-08-11T15:56:25Z</time>
      </trkpt>
      <trkpt lat="44.8763" lon="0.94213">
        <ele>171.4</ele>
        <time>2022-08-11T15:56:27Z</time>
      </trkpt>
      <trkpt lat="44.87633" lon="0.94217">
        <ele>171.4</ele>
        <time>2022-08-11T15:56:29Z</time>
      </trkpt>
      <trkpt lat="44.87635" lon="0.94223">
        <ele>171.4</ele>
        <time>2022-08-11T15:56:31Z</time>
      </trkpt>
      <trkpt lat="44.87636" lon="0.94229">
        <ele>171.4</ele>
        <time>2022-08-11T15:56:33Z</time>
      </trkpt>
      <trkpt lat="44.87634" lon="0.94237">
        <ele>172.4</ele>
        <time>2022-08-11T15:56:35Z</time>
      </trkpt>
      <trkpt lat="44.87633" lon="0.94246">
        <ele>172.4</ele>
        <time>2022-08-11T15:56:37Z</time>
      </trkpt>
      <trkpt lat="44.87632" lon="0.94253">
        <ele>172.4</ele>
        <time>2022-08-11T15:56:39Z</time>
      </trkpt>
      <trkpt lat="44.87633" lon="0.94261">
        <ele>172.4</ele>
        <time>2022-08-11T15:56:42Z</time>
      </trkpt>
      <trkpt lat="44.87637" lon="0.94267">
        <ele>172.4</ele>
        <time>2022-08-11T15:56:45Z</time>
      </trkpt>
      <trkpt lat="44.87642" lon="0.9427">
        <ele>172.4</ele>
        <time>2022-08-11T15:56:49Z</time>
      </trkpt>
      <trkpt lat="44.87646" lon="0.94274">
        <ele>174.4</ele>
        <time>2022-08-11T15:57:01Z</time>
      </trkpt>
      <trkpt lat="44.87652" lon="0.94281">
        <ele>174.4</ele>
        <time>2022-08-11T15:57:04Z</time>
      </trkpt>
      <trkpt lat="44.87655" lon="0.94288">
        <ele>174.4</ele>
        <time>2022-08-11T15:57:06Z</time>
      </trkpt>
      <trkpt lat="44.87659" lon="0.94294">
        <ele>175.4</ele>
        <time>2022-08-11T15:57:08Z</time>
      </trkpt>
      <trkpt lat="44.87663" lon="0.94301">
        <ele>176.4</ele>
        <time>2022-08-11T15:57:10Z</time>
      </trkpt>
      <trkpt lat="44.87667" lon="0.94308">
        <ele>176.4</ele>
        <time>2022-08-11T15:57:12Z</time>
      </trkpt>
      <trkpt lat="44.87672" lon="0.94314">
        <ele>177.4</ele>
        <time>2022-08-11T15:57:14Z</time>
      </trkpt>
      <trkpt lat="44.87677" lon="0.9432">
        <ele>177.4</ele>
        <time>2022-08-11T15:57:16Z</time>
      </trkpt>
      <trkpt lat="44.87683" lon="0.94327">
        <ele>178.4</ele>
        <time>2022-08-11T15:57:18Z</time>
      </trkpt>
      <trkpt lat="44.87689" lon="0.94333">
        <ele>177.4</ele>
        <time>2022-08-11T15:57:20Z</time>
      </trkpt>
      <trkpt lat="44.87695" lon="0.94338">
        <ele>178.4</ele>
        <time>2022-08-11T15:57:22Z</time>
      </trkpt>
      <trkpt lat="44.87701" lon="0.94342">
        <ele>178.4</ele>
        <time>2022-08-11T15:57:24Z</time>
      </trkpt>
      <trkpt lat="44.87707" lon="0.94347">
        <ele>179.4</ele>
        <time>2022-08-11T15:57:26Z</time>
      </trkpt>
      <trkpt lat="44.8771" lon="0.94351">
        <ele>179.4</ele>
        <time>2022-08-11T15:57:27Z</time>
      </trkpt>
      <trkpt lat="44.87716" lon="0.94354">
        <ele>180.4</ele>
        <time>2022-08-11T15:57:28Z</time>
      </trkpt>
      <trkpt lat="44.87723" lon="0.94357">
        <ele>181.4</ele>
        <time>2022-08-11T15:57:29Z</time>
      </trkpt>
      <trkpt lat="44.87731" lon="0.94359">
        <ele>184.4</ele>
        <time>2022-08-11T15:57:30Z</time>
      </trkpt>
      <trkpt lat="44.8774" lon="0.94364">
        <ele>185.4</ele>
        <time>2022-08-11T15:57:32Z</time>
      </trkpt>
      <trkpt lat="44.87747" lon="0.94369">
        <ele>185.4</ele>
        <time>2022-08-11T15:57:34Z</time>
      </trkpt>
      <trkpt lat="44.87753" lon="0.94374">
        <ele>185.4</ele>
        <time>2022-08-11T15:57:36Z</time>
      </trkpt>
      <trkpt lat="44.87759" lon="0.94378">
        <ele>186.4</ele>
        <time>2022-08-11T15:57:38Z</time>
      </trkpt>
      <trkpt lat="44.87766" lon="0.94382">
        <ele>186.4</ele>
        <time>2022-08-11T15:57:40Z</time>
      </trkpt>
      <trkpt lat="44.87773" lon="0.94385">
        <ele>186.4</ele>
        <time>2022-08-11T15:57:42Z</time>
      </trkpt>
      <trkpt lat="44.8778" lon="0.94391">
        <ele>187.4</ele>
        <time>2022-08-11T15:57:44Z</time>
      </trkpt>
      <trkpt lat="44.87785" lon="0.94395">
        <ele>187.4</ele>
        <time>2022-08-11T15:57:46Z</time>
      </trkpt>
      <trkpt lat="44.87791" lon="0.94399">
        <ele>186.4</ele>
        <time>2022-08-11T15:57:48Z</time>
      </trkpt>
      <trkpt lat="44.87799" lon="0.94403">
        <ele>186.4</ele>
        <time>2022-08-11T15:57:50Z</time>
      </trkpt>
      <trkpt lat="44.87806" lon="0.94406">
        <ele>187.4</ele>
        <time>2022-08-11T15:57:52Z</time>
      </trkpt>
      <trkpt lat="44.87811" lon="0.94409">
        <ele>186.4</ele>
        <time>2022-08-11T15:57:54Z</time>
      </trkpt>
      <trkpt lat="44.87816" lon="0.94413">
        <ele>188.4</ele>
        <time>2022-08-11T15:57:56Z</time>
      </trkpt>
      <trkpt lat="44.87821" lon="0.94416">
        <ele>188.4</ele>
        <time>2022-08-11T15:57:58Z</time>
      </trkpt>
      <trkpt lat="44.87826" lon="0.9442">
        <ele>189.4</ele>
        <time>2022-08-11T15:58:00Z</time>
      </trkpt>
      <trkpt lat="44.87831" lon="0.94423">
        <ele>189.4</ele>
        <time>2022-08-11T15:58:02Z</time>
      </trkpt>
      <trkpt lat="44.87836" lon="0.94427">
        <ele>189.4</ele>
        <time>2022-08-11T15:58:04Z</time>
      </trkpt>
      <trkpt lat="44.87841" lon="0.94431">
        <ele>189.4</ele>
        <time>2022-08-11T15:58:06Z</time>
      </trkpt>
      <trkpt lat="44.87847" lon="0.94435">
        <ele>189.4</ele>
        <time>2022-08-11T15:58:08Z</time>
      </trkpt>
      <trkpt lat="44.87852" lon="0.9444">
        <ele>189.4</ele>
        <time>2022-08-11T15:58:10Z</time>
      </trkpt>
      <trkpt lat="44.87856" lon="0.94445">
        <ele>190.4</ele>
        <time>2022-08-11T15:58:12Z</time>
      </trkpt>
      <trkpt lat="44.87861" lon="0.9445">
        <ele>190.4</ele>
        <time>2022-08-11T15:58:14Z</time>
      </trkpt>
      <trkpt lat="44.87866" lon="0.94454">
        <ele>190.4</ele>
        <time>2022-08-11T15:58:16Z</time>
      </trkpt>
      <trkpt lat="44.87871" lon="0.94459">
        <ele>191.4</ele>
        <time>2022-08-11T15:58:18Z</time>
      </trkpt>
      <trkpt lat="44.87876" lon="0.94463">
        <ele>191.4</ele>
        <time>2022-08-11T15:58:20Z</time>
      </trkpt>
      <trkpt lat="44.8788" lon="0.94466">
        <ele>192.4</ele>
        <time>2022-08-11T15:58:22Z</time>
      </trkpt>
      <trkpt lat="44.87885" lon="0.94471">
        <ele>194.4</ele>
        <time>2022-08-11T15:58:25Z</time>
      </trkpt>
      <trkpt lat="44.8789" lon="0.94478">
        <ele>195.4</ele>
        <time>2022-08-11T15:58:28Z</time>
      </trkpt>
      <trkpt lat="44.87892" lon="0.94484">
        <ele>195.4</ele>
        <time>2022-08-11T15:58:30Z</time>
      </trkpt>
      <trkpt lat="44.87896" lon="0.94489">
        <ele>195.4</ele>
        <time>2022-08-11T15:58:34Z</time>
      </trkpt>
      <trkpt lat="44.87902" lon="0.94494">
        <ele>196.4</ele>
        <time>2022-08-11T15:58:37Z</time>
      </trkpt>
      <trkpt lat="44.87907" lon="0.94499">
        <ele>196.4</ele>
        <time>2022-08-11T15:58:40Z</time>
      </trkpt>
      <trkpt lat="44.87913" lon="0.94502">
        <ele>196.4</ele>
        <time>2022-08-11T15:58:43Z</time>
      </trkpt>
      <trkpt lat="44.87918" lon="0.94506">
        <ele>197.4</ele>
        <time>2022-08-11T15:58:46Z</time>
      </trkpt>
      <trkpt lat="44.87922" lon="0.94509">
        <ele>198.4</ele>
        <time>2022-08-11T15:58:49Z</time>
      </trkpt>
      <trkpt lat="44.87926" lon="0.94515">
        <ele>198.4</ele>
        <time>2022-08-11T15:58:53Z</time>
      </trkpt>
      <trkpt lat="44.87931" lon="0.9452">
        <ele>200.4</ele>
        <time>2022-08-11T15:58:57Z</time>
      </trkpt>
      <trkpt lat="44.87936" lon="0.94526">
        <ele>200.4</ele>
        <time>2022-08-11T15:59:00Z</time>
      </trkpt>
      <trkpt lat="44.87938" lon="0.94532">
        <ele>200.4</ele>
        <time>2022-08-11T15:59:03Z</time>
      </trkpt>
      <trkpt lat="44.87939" lon="0.94539">
        <ele>201.4</ele>
        <time>2022-08-11T15:59:07Z</time>
      </trkpt>
      <trkpt lat="44.87942" lon="0.94546">
        <ele>202.4</ele>
        <time>2022-08-11T15:59:11Z</time>
      </trkpt>
      <trkpt lat="44.87947" lon="0.94552">
        <ele>203.4</ele>
        <time>2022-08-11T15:59:14Z</time>
      </trkpt>
      <trkpt lat="44.87951" lon="0.94558">
        <ele>204.4</ele>
        <time>2022-08-11T15:59:17Z</time>
      </trkpt>
      <trkpt lat="44.87954" lon="0.94564">
        <ele>203.4</ele>
        <time>2022-08-11T15:59:20Z</time>
      </trkpt>
      <trkpt lat="44.87958" lon="0.9457">
        <ele>203.4</ele>
        <time>2022-08-11T15:59:23Z</time>
      </trkpt>
      <trkpt lat="44.87961" lon="0.94576">
        <ele>204.4</ele>
        <time>2022-08-11T15:59:26Z</time>
      </trkpt>
      <trkpt lat="44.87964" lon="0.94582">
        <ele>205.4</ele>
        <time>2022-08-11T15:59:29Z</time>
      </trkpt>
      <trkpt lat="44.87967" lon="0.94588">
        <ele>206.4</ele>
        <time>2022-08-11T15:59:32Z</time>
      </trkpt>
      <trkpt lat="44.87969" lon="0.94594">
        <ele>207.4</ele>
        <time>2022-08-11T15:59:35Z</time>
      </trkpt>
      <trkpt lat="44.87971" lon="0.94601">
        <ele>208.4</ele>
        <time>2022-08-11T15:59:38Z</time>
      </trkpt>
      <trkpt lat="44.87972" lon="0.94608">
        <ele>208.4</ele>
        <time>2022-08-11T15:59:41Z</time>
      </trkpt>
      <trkpt lat="44.87974" lon="0.94614">
        <ele>210.4</ele>
        <time>2022-08-11T15:59:44Z</time>
      </trkpt>
      <trkpt lat="44.87975" lon="0.9462">
        <ele>210.4</ele>
        <time>2022-08-11T15:59:47Z</time>
      </trkpt>
      <trkpt lat="44.87976" lon="0.94627">
        <ele>211.4</ele>
        <time>2022-08-11T15:59:50Z</time>
      </trkpt>
      <trkpt lat="44.87978" lon="0.94633">
        <ele>213.4</ele>
        <time>2022-08-11T15:59:53Z</time>
      </trkpt>
      <trkpt lat="44.87979" lon="0.9464">
        <ele>214.4</ele>
        <time>2022-08-11T15:59:57Z</time>
      </trkpt>
      <trkpt lat="44.87978" lon="0.94647">
        <ele>215.4</ele>
        <time>2022-08-11T16:00:00Z</time>
      </trkpt>
      <trkpt lat="44.87975" lon="0.94653">
        <ele>215.4</ele>
        <time>2022-08-11T16:00:03Z</time>
      </trkpt>
      <trkpt lat="44.87971" lon="0.94659">
        <ele>217.4</ele>
        <time>2022-08-11T16:00:06Z</time>
      </trkpt>
      <trkpt lat="44.87967" lon="0.94664">
        <ele>218.4</ele>
        <time>2022-08-11T16:00:08Z</time>
      </trkpt>
      <trkpt lat="44.87963" lon="0.94669">
        <ele>219.4</ele>
        <time>2022-08-11T16:00:10Z</time>
      </trkpt>
      <trkpt lat="44.8796" lon="0.94673">
        <ele>220.4</ele>
        <time>2022-08-11T16:00:12Z</time>
      </trkpt>
      <trkpt lat="44.87955" lon="0.9468">
        <ele>220.4</ele>
        <time>2022-08-11T16:00:15Z</time>
      </trkpt>
      <trkpt lat="44.8795" lon="0.9468">
        <ele>220.4</ele>
        <time>2022-08-11T16:00:18Z</time>
      </trkpt>
      <trkpt lat="44.8795" lon="0.94674">
        <ele>219.4</ele>
        <time>2022-08-11T16:00:32Z</time>
      </trkpt>
      <trkpt lat="44.87951" lon="0.94681">
        <ele>222.4</ele>
        <time>2022-08-11T16:01:37Z</time>
      </trkpt>
      <trkpt lat="44.87956" lon="0.9468">
        <ele>218.4</ele>
        <time>2022-08-11T16:02:13Z</time>
      </trkpt>
      <trkpt lat="44.87962" lon="0.94679">
        <ele>219.4</ele>
        <time>2022-08-11T16:02:16Z</time>
      </trkpt>
      <trkpt lat="44.87966" lon="0.94675">
        <ele>218.4</ele>
        <time>2022-08-11T16:02:19Z</time>
      </trkpt>
      <trkpt lat="44.8797" lon="0.9467">
        <ele>219.4</ele>
        <time>2022-08-11T16:02:23Z</time>
      </trkpt>
      <trkpt lat="44.87973" lon="0.94675">
        <ele>220.4</ele>
        <time>2022-08-11T16:02:32Z</time>
      </trkpt>
      <trkpt lat="44.87973" lon="0.94681">
        <ele>220.4</ele>
        <time>2022-08-11T16:02:37Z</time>
      </trkpt>
      <trkpt lat="44.87973" lon="0.94688">
        <ele>220.4</ele>
        <time>2022-08-11T16:02:41Z</time>
      </trkpt>
      <trkpt lat="44.87976" lon="0.94695">
        <ele>221.4</ele>
        <time>2022-08-11T16:02:45Z</time>
      </trkpt>
      <trkpt lat="44.87976" lon="0.94703">
        <ele>222.4</ele>
        <time>2022-08-11T16:02:48Z</time>
      </trkpt>
      <trkpt lat="44.87974" lon="0.94709">
        <ele>224.4</ele>
        <time>2022-08-11T16:02:56Z</time>
      </trkpt>
      <trkpt lat="44.87972" lon="0.94716">
        <ele>228.4</ele>
        <time>2022-08-11T16:03:12Z</time>
      </trkpt>
      <trkpt lat="44.87973" lon="0.94722">
        <ele>230.4</ele>
        <time>2022-08-11T16:06:45Z</time>
      </trkpt>
      <trkpt lat="44.87975" lon="0.94717">
        <ele>226.4</ele>
        <time>2022-08-11T16:07:02Z</time>
      </trkpt>
      <trkpt lat="44.87973" lon="0.94711">
        <ele>226.4</ele>
        <time>2022-08-11T16:08:51Z</time>
      </trkpt>
      <trkpt lat="44.87978" lon="0.94712">
        <ele>226.4</ele>
        <time>2022-08-11T16:18:53Z</time>
      </trkpt>
      <trkpt lat="44.87982" lon="0.94712">
        <ele>227.4</ele>
        <time>2022-08-11T16:19:03Z</time>
      </trkpt>
      <trkpt lat="44.87987" lon="0.94711">
        <ele>227.4</ele>
        <time>2022-08-11T16:19:06Z</time>
      </trkpt>
      <trkpt lat="44.87994" lon="0.9471">
        <ele>226.4</ele>
        <time>2022-08-11T16:19:09Z</time>
      </trkpt>
      <trkpt lat="44.87999" lon="0.9471">
        <ele>225.4</ele>
        <time>2022-08-11T16:19:12Z</time>
      </trkpt>
      <trkpt lat="44.88005" lon="0.9471">
        <ele>225.4</ele>
        <time>2022-08-11T16:19:16Z</time>
      </trkpt>
      <trkpt lat="44.88008" lon="0.94717">
        <ele>226.4</ele>
        <time>2022-08-11T16:19:20Z</time>
      </trkpt>
      <trkpt lat="44.8801" lon="0.94725">
        <ele>228.4</ele>
        <time>2022-08-11T16:19:23Z</time>
      </trkpt>
      <trkpt lat="44.88012" lon="0.94731">
        <ele>229.4</ele>
        <time>2022-08-11T16:19:49Z</time>
      </trkpt>
      <trkpt lat="44.88014" lon="0.94738">
        <ele>232.4</ele>
        <time>2022-08-11T16:20:01Z</time>
      </trkpt>
      <trkpt lat="44.88017" lon="0.94743">
        <ele>232.4</ele>
        <time>2022-08-11T16:20:04Z</time>
      </trkpt>
      <trkpt lat="44.8802" lon="0.94749">
        <ele>232.4</ele>
        <time>2022-08-11T16:20:07Z</time>
      </trkpt>
      <trkpt lat="44.88015" lon="0.94754">
        <ele>231.4</ele>
        <time>2022-08-11T16:20:42Z</time>
      </trkpt>
      <trkpt lat="44.8801" lon="0.9476">
        <ele>230.4</ele>
        <time>2022-08-11T16:20:45Z</time>
      </trkpt>
      <trkpt lat="44.88004" lon="0.94766">
        <ele>230.4</ele>
        <time>2022-08-11T16:20:48Z</time>
      </trkpt>
      <trkpt lat="44.87998" lon="0.94767">
        <ele>229.4</ele>
        <time>2022-08-11T16:20:50Z</time>
      </trkpt>
      <trkpt lat="44.87992" lon="0.94767">
        <ele>229.4</ele>
        <time>2022-08-11T16:20:53Z</time>
      </trkpt>
      <trkpt lat="44.87987" lon="0.94764">
        <ele>229.4</ele>
        <time>2022-08-11T16:20:56Z</time>
      </trkpt>
      <trkpt lat="44.87982" lon="0.94765">
        <ele>229.4</ele>
        <time>2022-08-11T16:21:01Z</time>
      </trkpt>
      <trkpt lat="44.87979" lon="0.94772">
        <ele>229.4</ele>
        <time>2022-08-11T16:21:04Z</time>
      </trkpt>
      <trkpt lat="44.87976" lon="0.94779">
        <ele>229.4</ele>
        <time>2022-08-11T16:21:06Z</time>
      </trkpt>
      <trkpt lat="44.87973" lon="0.94786">
        <ele>230.4</ele>
        <time>2022-08-11T16:21:08Z</time>
      </trkpt>
      <trkpt lat="44.8797" lon="0.94792">
        <ele>230.4</ele>
        <time>2022-08-11T16:21:10Z</time>
      </trkpt>
      <trkpt lat="44.87966" lon="0.94805">
        <ele>229.4</ele>
        <time>2022-08-11T16:21:13Z</time>
      </trkpt>
      <trkpt lat="44.87963" lon="0.94813">
        <ele>227.4</ele>
        <time>2022-08-11T16:21:15Z</time>
      </trkpt>
      <trkpt lat="44.87961" lon="0.94821">
        <ele>226.4</ele>
        <time>2022-08-11T16:21:17Z</time>
      </trkpt>
      <trkpt lat="44.87959" lon="0.9483">
        <ele>225.4</ele>
        <time>2022-08-11T16:21:19Z</time>
      </trkpt>
      <trkpt lat="44.87957" lon="0.94839">
        <ele>224.4</ele>
        <time>2022-08-11T16:21:21Z</time>
      </trkpt>
      <trkpt lat="44.87955" lon="0.94847">
        <ele>223.4</ele>
        <time>2022-08-11T16:21:23Z</time>
      </trkpt>
      <trkpt lat="44.87953" lon="0.94856">
        <ele>223.4</ele>
        <time>2022-08-11T16:21:25Z</time>
      </trkpt>
      <trkpt lat="44.8795" lon="0.94866">
        <ele>223.4</ele>
        <time>2022-08-11T16:21:27Z</time>
      </trkpt>
      <trkpt lat="44.87947" lon="0.94876">
        <ele>223.4</ele>
        <time>2022-08-11T16:21:29Z</time>
      </trkpt>
      <trkpt lat="44.87944" lon="0.94882">
        <ele>224.4</ele>
        <time>2022-08-11T16:21:30Z</time>
      </trkpt>
      <trkpt lat="44.87942" lon="0.94889">
        <ele>223.4</ele>
        <time>2022-08-11T16:21:31Z</time>
      </trkpt>
      <trkpt lat="44.87939" lon="0.94895">
        <ele>222.4</ele>
        <time>2022-08-11T16:21:32Z</time>
      </trkpt>
      <trkpt lat="44.87936" lon="0.94903">
        <ele>221.4</ele>
        <time>2022-08-11T16:21:33Z</time>
      </trkpt>
      <trkpt lat="44.87933" lon="0.9491">
        <ele>220.4</ele>
        <time>2022-08-11T16:21:34Z</time>
      </trkpt>
      <trkpt lat="44.87931" lon="0.94918">
        <ele>220.4</ele>
        <time>2022-08-11T16:21:35Z</time>
      </trkpt>
      <trkpt lat="44.87928" lon="0.94925">
        <ele>220.4</ele>
        <time>2022-08-11T16:21:36Z</time>
      </trkpt>
      <trkpt lat="44.87924" lon="0.94938">
        <ele>218.4</ele>
        <time>2022-08-11T16:21:38Z</time>
      </trkpt>
      <trkpt lat="44.87922" lon="0.94945">
        <ele>218.4</ele>
        <time>2022-08-11T16:21:39Z</time>
      </trkpt>
      <trkpt lat="44.87919" lon="0.94956">
        <ele>217.4</ele>
        <time>2022-08-11T16:21:41Z</time>
      </trkpt>
      <trkpt lat="44.87918" lon="0.94962">
        <ele>217.4</ele>
        <time>2022-08-11T16:21:42Z</time>
      </trkpt>
      <trkpt lat="44.87916" lon="0.94969">
        <ele>217.4</ele>
        <time>2022-08-11T16:21:43Z</time>
      </trkpt>
      <trkpt lat="44.87913" lon="0.9498">
        <ele>216.4</ele>
        <time>2022-08-11T16:21:45Z</time>
      </trkpt>
      <trkpt lat="44.87911" lon="0.94994">
        <ele>215.4</ele>
        <time>2022-08-11T16:21:48Z</time>
      </trkpt>
      <trkpt lat="44.87912" lon="0.95001">
        <ele>214.4</ele>
        <time>2022-08-11T16:21:49Z</time>
      </trkpt>
      <trkpt lat="44.87912" lon="0.95011">
        <ele>213.4</ele>
        <time>2022-08-11T16:21:50Z</time>
      </trkpt>
      <trkpt lat="44.87912" lon="0.95022">
        <ele>210.4</ele>
        <time>2022-08-11T16:21:51Z</time>
      </trkpt>
      <trkpt lat="44.87913" lon="0.95032">
        <ele>209.4</ele>
        <time>2022-08-11T16:21:52Z</time>
      </trkpt>
      <trkpt lat="44.87914" lon="0.95043">
        <ele>208.4</ele>
        <time>2022-08-11T16:21:53Z</time>
      </trkpt>
      <trkpt lat="44.87914" lon="0.95055">
        <ele>208.4</ele>
        <time>2022-08-11T16:21:54Z</time>
      </trkpt>
      <trkpt lat="44.87912" lon="0.95067">
        <ele>207.4</ele>
        <time>2022-08-11T16:21:55Z</time>
      </trkpt>
      <trkpt lat="44.87908" lon="0.9508">
        <ele>207.4</ele>
        <time>2022-08-11T16:21:56Z</time>
      </trkpt>
      <trkpt lat="44.87904" lon="0.95093">
        <ele>206.4</ele>
        <time>2022-08-11T16:21:57Z</time>
      </trkpt>
      <trkpt lat="44.87901" lon="0.95106">
        <ele>206.4</ele>
        <time>2022-08-11T16:21:58Z</time>
      </trkpt>
      <trkpt lat="44.87897" lon="0.9512">
        <ele>206.4</ele>
        <time>2022-08-11T16:21:59Z</time>
      </trkpt>
      <trkpt lat="44.87894" lon="0.95132">
        <ele>205.4</ele>
        <time>2022-08-11T16:22:00Z</time>
      </trkpt>
      <trkpt lat="44.87891" lon="0.95145">
        <ele>205.4</ele>
        <time>2022-08-11T16:22:01Z</time>
      </trkpt>
      <trkpt lat="44.87888" lon="0.95157">
        <ele>205.4</ele>
        <time>2022-08-11T16:22:02Z</time>
      </trkpt>
      <trkpt lat="44.87885" lon="0.95168">
        <ele>205.4</ele>
        <time>2022-08-11T16:22:03Z</time>
      </trkpt>
      <trkpt lat="44.87882" lon="0.95177">
        <ele>204.4</ele>
        <time>2022-08-11T16:22:04Z</time>
      </trkpt>
      <trkpt lat="44.8788" lon="0.95185">
        <ele>204.4</ele>
        <time>2022-08-11T16:22:05Z</time>
      </trkpt>
      <trkpt lat="44.87879" lon="0.95193">
        <ele>204.4</ele>
        <time>2022-08-11T16:22:06Z</time>
      </trkpt>
      <trkpt lat="44.87877" lon="0.95199">
        <ele>204.4</ele>
        <time>2022-08-11T16:22:07Z</time>
      </trkpt>
      <trkpt lat="44.87876" lon="0.95205">
        <ele>204.4</ele>
        <time>2022-08-11T16:22:08Z</time>
      </trkpt>
      <trkpt lat="44.87872" lon="0.95215">
        <ele>202.4</ele>
        <time>2022-08-11T16:22:10Z</time>
      </trkpt>
      <trkpt lat="44.8787" lon="0.95221">
        <ele>201.4</ele>
        <time>2022-08-11T16:22:12Z</time>
      </trkpt>
      <trkpt lat="44.87868" lon="0.95229">
        <ele>200.4</ele>
        <time>2022-08-11T16:22:15Z</time>
      </trkpt>
      <trkpt lat="44.87866" lon="0.95238">
        <ele>200.4</ele>
        <time>2022-08-11T16:22:18Z</time>
      </trkpt>
      <trkpt lat="44.87863" lon="0.95246">
        <ele>200.4</ele>
        <time>2022-08-11T16:22:21Z</time>
      </trkpt>
      <trkpt lat="44.87861" lon="0.95252">
        <ele>200.4</ele>
        <time>2022-08-11T16:22:23Z</time>
      </trkpt>
      <trkpt lat="44.87859" lon="0.9526">
        <ele>200.4</ele>
        <time>2022-08-11T16:22:25Z</time>
      </trkpt>
      <trkpt lat="44.87858" lon="0.95266">
        <ele>200.4</ele>
        <time>2022-08-11T16:22:27Z</time>
      </trkpt>
      <trkpt lat="44.87856" lon="0.95273">
        <ele>200.4</ele>
        <time>2022-08-11T16:22:30Z</time>
      </trkpt>
      <trkpt lat="44.87856" lon="0.9528">
        <ele>200.4</ele>
        <time>2022-08-11T16:22:33Z</time>
      </trkpt>
      <trkpt lat="44.87854" lon="0.95287">
        <ele>201.4</ele>
        <time>2022-08-11T16:22:37Z</time>
      </trkpt>
      <trkpt lat="44.87851" lon="0.95295">
        <ele>201.4</ele>
        <time>2022-08-11T16:22:40Z</time>
      </trkpt>
      <trkpt lat="44.87849" lon="0.95305">
        <ele>200.4</ele>
        <time>2022-08-11T16:22:43Z</time>
      </trkpt>
      <trkpt lat="44.87847" lon="0.95313">
        <ele>200.4</ele>
        <time>2022-08-11T16:22:47Z</time>
      </trkpt>
      <trkpt lat="44.87844" lon="0.95321">
        <ele>200.4</ele>
        <time>2022-08-11T16:22:49Z</time>
      </trkpt>
      <trkpt lat="44.87841" lon="0.9533">
        <ele>201.4</ele>
        <time>2022-08-11T16:22:51Z</time>
      </trkpt>
      <trkpt lat="44.87839" lon="0.95339">
        <ele>201.4</ele>
        <time>2022-08-11T16:22:53Z</time>
      </trkpt>
      <trkpt lat="44.87836" lon="0.95347">
        <ele>201.4</ele>
        <time>2022-08-11T16:22:55Z</time>
      </trkpt>
      <trkpt lat="44.87833" lon="0.95353">
        <ele>202.4</ele>
        <time>2022-08-11T16:22:57Z</time>
      </trkpt>
      <trkpt lat="44.87832" lon="0.95361">
        <ele>204.4</ele>
        <time>2022-08-11T16:23:23Z</time>
      </trkpt>
      <trkpt lat="44.8783" lon="0.95366">
        <ele>205.4</ele>
        <time>2022-08-11T16:23:34Z</time>
      </trkpt>
      <trkpt lat="44.87833" lon="0.95371">
        <ele>198.4</ele>
        <time>2022-08-11T16:23:47Z</time>
      </trkpt>
      <trkpt lat="44.87838" lon="0.95373">
        <ele>198.4</ele>
        <time>2022-08-11T16:23:52Z</time>
      </trkpt>
      <trkpt lat="44.87844" lon="0.95372">
        <ele>199.4</ele>
        <time>2022-08-11T16:23:57Z</time>
      </trkpt>
      <trkpt lat="44.87849" lon="0.9537">
        <ele>199.4</ele>
        <time>2022-08-11T16:24:03Z</time>
      </trkpt>
      <trkpt lat="44.87853" lon="0.95368">
        <ele>197.4</ele>
        <time>2022-08-11T16:24:07Z</time>
      </trkpt>
      <trkpt lat="44.87858" lon="0.95365">
        <ele>198.4</ele>
        <time>2022-08-11T16:24:11Z</time>
      </trkpt>
      <trkpt lat="44.87863" lon="0.95364">
        <ele>197.4</ele>
        <time>2022-08-11T16:24:15Z</time>
      </trkpt>
      <trkpt lat="44.87869" lon="0.95363">
        <ele>196.4</ele>
        <time>2022-08-11T16:24:19Z</time>
      </trkpt>
      <trkpt lat="44.87873" lon="0.95362">
        <ele>197.4</ele>
        <time>2022-08-11T16:24:22Z</time>
      </trkpt>
      <trkpt lat="44.87878" lon="0.95363">
        <ele>197.4</ele>
        <time>2022-08-11T16:24:26Z</time>
      </trkpt>
      <trkpt lat="44.87883" lon="0.95365">
        <ele>197.4</ele>
        <time>2022-08-11T16:24:29Z</time>
      </trkpt>
      <trkpt lat="44.87887" lon="0.95368">
        <ele>196.4</ele>
        <time>2022-08-11T16:24:32Z</time>
      </trkpt>
      <trkpt lat="44.87892" lon="0.95372">
        <ele>197.4</ele>
        <time>2022-08-11T16:24:35Z</time>
      </trkpt>
      <trkpt lat="44.87896" lon="0.95375">
        <ele>199.4</ele>
        <time>2022-08-11T16:24:37Z</time>
      </trkpt>
      <trkpt lat="44.87902" lon="0.95378">
        <ele>202.4</ele>
        <time>2022-08-11T16:24:40Z</time>
      </trkpt>
      <trkpt lat="44.87907" lon="0.95384">
        <ele>205.4</ele>
        <time>2022-08-11T16:24:43Z</time>
      </trkpt>
      <trkpt lat="44.87911" lon="0.9539">
        <ele>205.4</ele>
        <time>2022-08-11T16:24:46Z</time>
      </trkpt>
      <trkpt lat="44.87914" lon="0.95397">
        <ele>207.4</ele>
        <time>2022-08-11T16:24:49Z</time>
      </trkpt>
      <trkpt lat="44.87917" lon="0.95403">
        <ele>208.4</ele>
        <time>2022-08-11T16:24:52Z</time>
      </trkpt>
      <trkpt lat="44.8792" lon="0.9541">
        <ele>209.4</ele>
        <time>2022-08-11T16:24:55Z</time>
      </trkpt>
      <trkpt lat="44.87922" lon="0.95419">
        <ele>209.4</ele>
        <time>2022-08-11T16:24:58Z</time>
      </trkpt>
      <trkpt lat="44.87924" lon="0.95428">
        <ele>209.4</ele>
        <time>2022-08-11T16:25:01Z</time>
      </trkpt>
      <trkpt lat="44.87926" lon="0.95435">
        <ele>210.4</ele>
        <time>2022-08-11T16:25:04Z</time>
      </trkpt>
      <trkpt lat="44.87928" lon="0.95441">
        <ele>210.4</ele>
        <time>2022-08-11T16:25:06Z</time>
      </trkpt>
      <trkpt lat="44.8793" lon="0.95448">
        <ele>210.4</ele>
        <time>2022-08-11T16:25:08Z</time>
      </trkpt>
      <trkpt lat="44.87932" lon="0.95456">
        <ele>209.4</ele>
        <time>2022-08-11T16:25:10Z</time>
      </trkpt>
      <trkpt lat="44.87935" lon="0.95463">
        <ele>209.4</ele>
        <time>2022-08-11T16:25:12Z</time>
      </trkpt>
      <trkpt lat="44.87938" lon="0.95472">
        <ele>208.4</ele>
        <time>2022-08-11T16:25:14Z</time>
      </trkpt>
      <trkpt lat="44.87942" lon="0.95482">
        <ele>207.4</ele>
        <time>2022-08-11T16:25:16Z</time>
      </trkpt>
      <trkpt lat="44.87945" lon="0.95487">
        <ele>208.4</ele>
        <time>2022-08-11T16:25:17Z</time>
      </trkpt>
      <trkpt lat="44.87948" lon="0.95494">
        <ele>208.4</ele>
        <time>2022-08-11T16:25:18Z</time>
      </trkpt>
      <trkpt lat="44.87952" lon="0.95499">
        <ele>209.4</ele>
        <time>2022-08-11T16:25:19Z</time>
      </trkpt>
      <trkpt lat="44.87955" lon="0.95505">
        <ele>210.4</ele>
        <time>2022-08-11T16:25:20Z</time>
      </trkpt>
      <trkpt lat="44.87959" lon="0.95509">
        <ele>210.4</ele>
        <time>2022-08-11T16:25:21Z</time>
      </trkpt>
      <trkpt lat="44.87965" lon="0.95517">
        <ele>211.4</ele>
        <time>2022-08-11T16:25:23Z</time>
      </trkpt>
      <trkpt lat="44.8797" lon="0.95524">
        <ele>212.4</ele>
        <time>2022-08-11T16:25:25Z</time>
      </trkpt>
      <trkpt lat="44.87975" lon="0.95529">
        <ele>212.4</ele>
        <time>2022-08-11T16:25:27Z</time>
      </trkpt>
      <trkpt lat="44.87979" lon="0.95537">
        <ele>212.4</ele>
        <time>2022-08-11T16:25:30Z</time>
      </trkpt>
      <trkpt lat="44.87981" lon="0.95543">
        <ele>211.4</ele>
        <time>2022-08-11T16:25:32Z</time>
      </trkpt>
      <trkpt lat="44.87985" lon="0.95549">
        <ele>209.4</ele>
        <time>2022-08-11T16:25:34Z</time>
      </trkpt>
      <trkpt lat="44.87989" lon="0.95557">
        <ele>207.4</ele>
        <time>2022-08-11T16:25:36Z</time>
      </trkpt>
      <trkpt lat="44.87995" lon="0.95566">
        <ele>207.4</ele>
        <time>2022-08-11T16:25:38Z</time>
      </trkpt>
      <trkpt lat="44.88" lon="0.95576">
        <ele>206.4</ele>
        <time>2022-08-11T16:25:40Z</time>
      </trkpt>
      <trkpt lat="44.88004" lon="0.95586">
        <ele>206.4</ele>
        <time>2022-08-11T16:25:42Z</time>
      </trkpt>
      <trkpt lat="44.88007" lon="0.95596">
        <ele>206.4</ele>
        <time>2022-08-11T16:25:44Z</time>
      </trkpt>
      <trkpt lat="44.88009" lon="0.95608">
        <ele>204.4</ele>
        <time>2022-08-11T16:25:46Z</time>
      </trkpt>
      <trkpt lat="44.88011" lon="0.95615">
        <ele>204.4</ele>
        <time>2022-08-11T16:25:47Z</time>
      </trkpt>
      <trkpt lat="44.88012" lon="0.95622">
        <ele>203.4</ele>
        <time>2022-08-11T16:25:48Z</time>
      </trkpt>
      <trkpt lat="44.88012" lon="0.95631">
        <ele>201.4</ele>
        <time>2022-08-11T16:25:49Z</time>
      </trkpt>
      <trkpt lat="44.88013" lon="0.95639">
        <ele>201.4</ele>
        <time>2022-08-11T16:25:50Z</time>
      </trkpt>
      <trkpt lat="44.88015" lon="0.95647">
        <ele>201.4</ele>
        <time>2022-08-11T16:25:51Z</time>
      </trkpt>
      <trkpt lat="44.88018" lon="0.9566">
        <ele>200.4</ele>
        <time>2022-08-11T16:25:53Z</time>
      </trkpt>
      <trkpt lat="44.8802" lon="0.95668">
        <ele>199.4</ele>
        <time>2022-08-11T16:25:54Z</time>
      </trkpt>
      <trkpt lat="44.88021" lon="0.95677">
        <ele>199.4</ele>
        <time>2022-08-11T16:25:56Z</time>
      </trkpt>
      <trkpt lat="44.88024" lon="0.95683">
        <ele>199.4</ele>
        <time>2022-08-11T16:25:58Z</time>
      </trkpt>
      <trkpt lat="44.88028" lon="0.95687">
        <ele>201.4</ele>
        <time>2022-08-11T16:26:00Z</time>
      </trkpt>
      <trkpt lat="44.8803" lon="0.95696">
        <ele>201.4</ele>
        <time>2022-08-11T16:26:03Z</time>
      </trkpt>
      <trkpt lat="44.8803" lon="0.95703">
        <ele>201.4</ele>
        <time>2022-08-11T16:26:05Z</time>
      </trkpt>
      <trkpt lat="44.8803" lon="0.95716">
        <ele>202.4</ele>
        <time>2022-08-11T16:26:07Z</time>
      </trkpt>
      <trkpt lat="44.8803" lon="0.95729">
        <ele>203.4</ele>
        <time>2022-08-11T16:26:09Z</time>
      </trkpt>
      <trkpt lat="44.88026" lon="0.95741">
        <ele>203.4</ele>
        <time>2022-08-11T16:26:11Z</time>
      </trkpt>
      <trkpt lat="44.88022" lon="0.95746">
        <ele>203.4</ele>
        <time>2022-08-11T16:26:12Z</time>
      </trkpt>
      <trkpt lat="44.88017" lon="0.95752">
        <ele>203.4</ele>
        <time>2022-08-11T16:26:13Z</time>
      </trkpt>
      <trkpt lat="44.88013" lon="0.95758">
        <ele>202.4</ele>
        <time>2022-08-11T16:26:14Z</time>
      </trkpt>
      <trkpt lat="44.8801" lon="0.95762">
        <ele>202.4</ele>
        <time>2022-08-11T16:26:15Z</time>
      </trkpt>
      <trkpt lat="44.88001" lon="0.95776">
        <ele>203.4</ele>
        <time>2022-08-11T16:26:18Z</time>
      </trkpt>
      <trkpt lat="44.87998" lon="0.95782">
        <ele>203.4</ele>
        <time>2022-08-11T16:26:19Z</time>
      </trkpt>
      <trkpt lat="44.87996" lon="0.95789">
        <ele>203.4</ele>
        <time>2022-08-11T16:26:20Z</time>
      </trkpt>
      <trkpt lat="44.87997" lon="0.95796">
        <ele>203.4</ele>
        <time>2022-08-11T16:26:21Z</time>
      </trkpt>
      <trkpt lat="44.87999" lon="0.95806">
        <ele>202.4</ele>
        <time>2022-08-11T16:26:23Z</time>
      </trkpt>
      <trkpt lat="44.88002" lon="0.95814">
        <ele>202.4</ele>
        <time>2022-08-11T16:26:25Z</time>
      </trkpt>
      <trkpt lat="44.88004" lon="0.95821">
        <ele>201.4</ele>
        <time>2022-08-11T16:26:29Z</time>
      </trkpt>
      <trkpt lat="44.88006" lon="0.95828">
        <ele>198.4</ele>
        <time>2022-08-11T16:26:48Z</time>
      </trkpt>
      <trkpt lat="44.88004" lon="0.95835">
        <ele>198.4</ele>
        <time>2022-08-11T16:27:00Z</time>
      </trkpt>
      <trkpt lat="44.88001" lon="0.9584">
        <ele>198.4</ele>
        <time>2022-08-11T16:27:08Z</time>
      </trkpt>
      <trkpt lat="44.87995" lon="0.95839">
        <ele>198.4</ele>
        <time>2022-08-11T16:27:11Z</time>
      </trkpt>
      <trkpt lat="44.87988" lon="0.95837">
        <ele>199.4</ele>
        <time>2022-08-11T16:27:13Z</time>
      </trkpt>
      <trkpt lat="44.87984" lon="0.95835">
        <ele>200.4</ele>
        <time>2022-08-11T16:27:14Z</time>
      </trkpt>
      <trkpt lat="44.87975" lon="0.95831">
        <ele>200.4</ele>
        <time>2022-08-11T16:27:16Z</time>
      </trkpt>
      <trkpt lat="44.87971" lon="0.95828">
        <ele>200.4</ele>
        <time>2022-08-11T16:27:17Z</time>
      </trkpt>
      <trkpt lat="44.87966" lon="0.95826">
        <ele>200.4</ele>
        <time>2022-08-11T16:27:18Z</time>
      </trkpt>
      <trkpt lat="44.87961" lon="0.95826">
        <ele>201.4</ele>
        <time>2022-08-11T16:27:19Z</time>
      </trkpt>
      <trkpt lat="44.87956" lon="0.95826">
        <ele>200.4</ele>
        <time>2022-08-11T16:27:20Z</time>
      </trkpt>
      <trkpt lat="44.8795" lon="0.95826">
        <ele>200.4</ele>
        <time>2022-08-11T16:27:21Z</time>
      </trkpt>
      <trkpt lat="44.87938" lon="0.95826">
        <ele>200.4</ele>
        <time>2022-08-11T16:27:23Z</time>
      </trkpt>
      <trkpt lat="44.87932" lon="0.95827">
        <ele>200.4</ele>
        <time>2022-08-11T16:27:24Z</time>
      </trkpt>
      <trkpt lat="44.87925" lon="0.95827">
        <ele>200.4</ele>
        <time>2022-08-11T16:27:25Z</time>
      </trkpt>
      <trkpt lat="44.87919" lon="0.95827">
        <ele>200.4</ele>
        <time>2022-08-11T16:27:26Z</time>
      </trkpt>
      <trkpt lat="44.87912" lon="0.95829">
        <ele>199.4</ele>
        <time>2022-08-11T16:27:27Z</time>
      </trkpt>
      <trkpt lat="44.87907" lon="0.95833">
        <ele>199.4</ele>
        <time>2022-08-11T16:27:28Z</time>
      </trkpt>
      <trkpt lat="44.87903" lon="0.95839">
        <ele>200.4</ele>
        <time>2022-08-11T16:27:29Z</time>
      </trkpt>
      <trkpt lat="44.879" lon="0.95846">
        <ele>200.4</ele>
        <time>2022-08-11T16:27:30Z</time>
      </trkpt>
      <trkpt lat="44.87899" lon="0.95855">
        <ele>200.4</ele>
        <time>2022-08-11T16:27:31Z</time>
      </trkpt>
      <trkpt lat="44.87897" lon="0.95864">
        <ele>201.4</ele>
        <time>2022-08-11T16:27:32Z</time>
      </trkpt>
      <trkpt lat="44.87895" lon="0.95872">
        <ele>202.4</ele>
        <time>2022-08-11T16:27:33Z</time>
      </trkpt>
      <trkpt lat="44.87891" lon="0.9588">
        <ele>203.4</ele>
        <time>2022-08-11T16:27:34Z</time>
      </trkpt>
      <trkpt lat="44.87888" lon="0.95887">
        <ele>203.4</ele>
        <time>2022-08-11T16:27:35Z</time>
      </trkpt>
      <trkpt lat="44.87884" lon="0.95893">
        <ele>203.4</ele>
        <time>2022-08-11T16:27:36Z</time>
      </trkpt>
      <trkpt lat="44.87874" lon="0.95906">
        <ele>204.4</ele>
        <time>2022-08-11T16:27:38Z</time>
      </trkpt>
      <trkpt lat="44.87868" lon="0.95914">
        <ele>205.4</ele>
        <time>2022-08-11T16:27:39Z</time>
      </trkpt>
      <trkpt lat="44.87862" lon="0.95921">
        <ele>206.4</ele>
        <time>2022-08-11T16:27:40Z</time>
      </trkpt>
      <trkpt lat="44.87858" lon="0.95927">
        <ele>207.4</ele>
        <time>2022-08-11T16:27:41Z</time>
      </trkpt>
      <trkpt lat="44.87855" lon="0.95932">
        <ele>207.4</ele>
        <time>2022-08-11T16:27:42Z</time>
      </trkpt>
      <trkpt lat="44.8785" lon="0.95942">
        <ele>206.4</ele>
        <time>2022-08-11T16:27:44Z</time>
      </trkpt>
      <trkpt lat="44.87848" lon="0.9595">
        <ele>206.4</ele>
        <time>2022-08-11T16:27:46Z</time>
      </trkpt>
      <trkpt lat="44.87847" lon="0.95959">
        <ele>205.4</ele>
        <time>2022-08-11T16:27:48Z</time>
      </trkpt>
      <trkpt lat="44.87846" lon="0.95968">
        <ele>204.4</ele>
        <time>2022-08-11T16:27:50Z</time>
      </trkpt>
      <trkpt lat="44.87845" lon="0.95978">
        <ele>203.4</ele>
        <time>2022-08-11T16:27:52Z</time>
      </trkpt>
      <trkpt lat="44.87844" lon="0.95988">
        <ele>201.4</ele>
        <time>2022-08-11T16:27:54Z</time>
      </trkpt>
      <trkpt lat="44.87842" lon="0.95998">
        <ele>200.4</ele>
        <time>2022-08-11T16:27:56Z</time>
      </trkpt>
      <trkpt lat="44.87837" lon="0.96007">
        <ele>200.4</ele>
        <time>2022-08-11T16:27:58Z</time>
      </trkpt>
      <trkpt lat="44.87832" lon="0.96015">
        <ele>200.4</ele>
        <time>2022-08-11T16:28:00Z</time>
      </trkpt>
      <trkpt lat="44.87826" lon="0.96023">
        <ele>199.4</ele>
        <time>2022-08-11T16:28:02Z</time>
      </trkpt>
      <trkpt lat="44.87822" lon="0.96027">
        <ele>199.4</ele>
        <time>2022-08-11T16:28:03Z</time>
      </trkpt>
      <trkpt lat="44.87818" lon="0.96031">
        <ele>198.4</ele>
        <time>2022-08-11T16:28:04Z</time>
      </trkpt>
      <trkpt lat="44.87813" lon="0.96034">
        <ele>198.4</ele>
        <time>2022-08-11T16:28:05Z</time>
      </trkpt>
      <trkpt lat="44.87808" lon="0.96038">
        <ele>198.4</ele>
        <time>2022-08-11T16:28:06Z</time>
      </trkpt>
      <trkpt lat="44.87803" lon="0.96041">
        <ele>197.4</ele>
        <time>2022-08-11T16:28:07Z</time>
      </trkpt>
      <trkpt lat="44.87798" lon="0.96042">
        <ele>197.4</ele>
        <time>2022-08-11T16:28:08Z</time>
      </trkpt>
      <trkpt lat="44.87793" lon="0.96044">
        <ele>196.4</ele>
        <time>2022-08-11T16:28:09Z</time>
      </trkpt>
      <trkpt lat="44.87788" lon="0.96046">
        <ele>195.4</ele>
        <time>2022-08-11T16:28:10Z</time>
      </trkpt>
      <trkpt lat="44.87779" lon="0.9605">
        <ele>195.4</ele>
        <time>2022-08-11T16:28:12Z</time>
      </trkpt>
      <trkpt lat="44.87772" lon="0.96054">
        <ele>194.4</ele>
        <time>2022-08-11T16:28:14Z</time>
      </trkpt>
      <trkpt lat="44.87766" lon="0.96058">
        <ele>194.4</ele>
        <time>2022-08-11T16:28:16Z</time>
      </trkpt>
      <trkpt lat="44.8776" lon="0.96062">
        <ele>194.4</ele>
        <time>2022-08-11T16:28:18Z</time>
      </trkpt>
      <trkpt lat="44.87755" lon="0.96064">
        <ele>193.4</ele>
        <time>2022-08-11T16:28:20Z</time>
      </trkpt>
      <trkpt lat="44.8775" lon="0.96067">
        <ele>193.4</ele>
        <time>2022-08-11T16:28:22Z</time>
      </trkpt>
      <trkpt lat="44.87745" lon="0.96071">
        <ele>193.4</ele>
        <time>2022-08-11T16:28:24Z</time>
      </trkpt>
      <trkpt lat="44.87742" lon="0.96077">
        <ele>194.4</ele>
        <time>2022-08-11T16:28:27Z</time>
      </trkpt>
      <trkpt lat="44.87738" lon="0.96082">
        <ele>193.4</ele>
        <time>2022-08-11T16:28:30Z</time>
      </trkpt>
      <trkpt lat="44.87734" lon="0.96086">
        <ele>194.4</ele>
        <time>2022-08-11T16:28:34Z</time>
      </trkpt>
      <trkpt lat="44.87729" lon="0.9609">
        <ele>194.4</ele>
        <time>2022-08-11T16:28:37Z</time>
      </trkpt>
      <trkpt lat="44.87724" lon="0.96096">
        <ele>194.4</ele>
        <time>2022-08-11T16:28:50Z</time>
      </trkpt>
      <trkpt lat="44.8772" lon="0.96101">
        <ele>194.4</ele>
        <time>2022-08-11T16:28:53Z</time>
      </trkpt>
      <trkpt lat="44.87718" lon="0.96108">
        <ele>194.4</ele>
        <time>2022-08-11T16:28:59Z</time>
      </trkpt>
      <trkpt lat="44.87716" lon="0.96114">
        <ele>193.4</ele>
        <time>2022-08-11T16:29:02Z</time>
      </trkpt>
      <trkpt lat="44.87713" lon="0.96122">
        <ele>193.4</ele>
        <time>2022-08-11T16:29:05Z</time>
      </trkpt>
      <trkpt lat="44.87711" lon="0.9613">
        <ele>193.4</ele>
        <time>2022-08-11T16:29:11Z</time>
      </trkpt>
      <trkpt lat="44.87709" lon="0.96137">
        <ele>193.4</ele>
        <time>2022-08-11T16:29:13Z</time>
      </trkpt>
      <trkpt lat="44.87706" lon="0.96143">
        <ele>190.4</ele>
        <time>2022-08-11T16:29:16Z</time>
      </trkpt>
      <trkpt lat="44.87702" lon="0.9615">
        <ele>191.4</ele>
        <time>2022-08-11T16:29:21Z</time>
      </trkpt>
      <trkpt lat="44.87697" lon="0.96159">
        <ele>191.4</ele>
        <time>2022-08-11T16:29:26Z</time>
      </trkpt>
      <trkpt lat="44.87695" lon="0.96165">
        <ele>190.4</ele>
        <time>2022-08-11T16:29:28Z</time>
      </trkpt>
      <trkpt lat="44.87691" lon="0.96172">
        <ele>189.4</ele>
        <time>2022-08-11T16:29:32Z</time>
      </trkpt>
      <trkpt lat="44.87687" lon="0.96179">
        <ele>189.4</ele>
        <time>2022-08-11T16:29:34Z</time>
      </trkpt>
      <trkpt lat="44.87683" lon="0.96187">
        <ele>187.4</ele>
        <time>2022-08-11T16:29:38Z</time>
      </trkpt>
      <trkpt lat="44.8768" lon="0.96196">
        <ele>187.4</ele>
        <time>2022-08-11T16:29:40Z</time>
      </trkpt>
      <trkpt lat="44.87677" lon="0.96201">
        <ele>188.4</ele>
        <time>2022-08-11T16:29:42Z</time>
      </trkpt>
      <trkpt lat="44.87674" lon="0.96209">
        <ele>188.4</ele>
        <time>2022-08-11T16:29:45Z</time>
      </trkpt>
      <trkpt lat="44.87673" lon="0.96216">
        <ele>189.4</ele>
        <time>2022-08-11T16:29:48Z</time>
      </trkpt>
      <trkpt lat="44.8767" lon="0.96224">
        <ele>188.4</ele>
        <time>2022-08-11T16:29:53Z</time>
      </trkpt>
      <trkpt lat="44.87667" lon="0.96232">
        <ele>188.4</ele>
        <time>2022-08-11T16:29:58Z</time>
      </trkpt>
      <trkpt lat="44.87666" lon="0.96238">
        <ele>187.4</ele>
        <time>2022-08-11T16:30:00Z</time>
      </trkpt>
      <trkpt lat="44.87664" lon="0.96246">
        <ele>188.4</ele>
        <time>2022-08-11T16:30:05Z</time>
      </trkpt>
      <trkpt lat="44.87661" lon="0.96254">
        <ele>189.4</ele>
        <time>2022-08-11T16:30:10Z</time>
      </trkpt>
      <trkpt lat="44.8766" lon="0.96261">
        <ele>189.4</ele>
        <time>2022-08-11T16:30:13Z</time>
      </trkpt>
      <trkpt lat="44.87658" lon="0.96267">
        <ele>189.4</ele>
        <time>2022-08-11T16:30:17Z</time>
      </trkpt>
      <trkpt lat="44.87656" lon="0.96274">
        <ele>189.4</ele>
        <time>2022-08-11T16:30:20Z</time>
      </trkpt>
      <trkpt lat="44.87654" lon="0.96281">
        <ele>189.4</ele>
        <time>2022-08-11T16:30:23Z</time>
      </trkpt>
      <trkpt lat="44.87652" lon="0.96288">
        <ele>189.4</ele>
        <time>2022-08-11T16:30:27Z</time>
      </trkpt>
      <trkpt lat="44.8765" lon="0.96296">
        <ele>190.4</ele>
        <time>2022-08-11T16:30:30Z</time>
      </trkpt>
      <trkpt lat="44.87647" lon="0.96303">
        <ele>191.4</ele>
        <time>2022-08-11T16:30:33Z</time>
      </trkpt>
      <trkpt lat="44.87644" lon="0.96308">
        <ele>191.4</ele>
        <time>2022-08-11T16:30:36Z</time>
      </trkpt>
      <trkpt lat="44.87641" lon="0.96315">
        <ele>192.4</ele>
        <time>2022-08-11T16:30:39Z</time>
      </trkpt>
      <trkpt lat="44.87638" lon="0.96321">
        <ele>193.4</ele>
        <time>2022-08-11T16:30:43Z</time>
      </trkpt>
      <trkpt lat="44.87636" lon="0.96328">
        <ele>193.4</ele>
        <time>2022-08-11T16:30:46Z</time>
      </trkpt>
      <trkpt lat="44.87633" lon="0.96335">
        <ele>193.4</ele>
        <time>2022-08-11T16:30:49Z</time>
      </trkpt>
      <trkpt lat="44.87631" lon="0.96342">
        <ele>199.4</ele>
        <time>2022-08-11T16:30:57Z</time>
      </trkpt>
      <trkpt lat="44.87629" lon="0.96349">
        <ele>204.4</ele>
        <time>2022-08-11T16:31:08Z</time>
      </trkpt>
      <trkpt lat="44.87629" lon="0.96357">
        <ele>203.4</ele>
        <time>2022-08-11T16:31:17Z</time>
      </trkpt>
      <trkpt lat="44.87627" lon="0.96365">
        <ele>203.4</ele>
        <time>2022-08-11T16:31:21Z</time>
      </trkpt>
      <trkpt lat="44.87627" lon="0.96374">
        <ele>203.4</ele>
        <time>2022-08-11T16:31:24Z</time>
      </trkpt>
      <trkpt lat="44.87631" lon="0.96382">
        <ele>202.4</ele>
        <time>2022-08-11T16:31:29Z</time>
      </trkpt>
      <trkpt lat="44.87633" lon="0.96389">
        <ele>202.4</ele>
        <time>2022-08-11T16:31:31Z</time>
      </trkpt>
      <trkpt lat="44.87635" lon="0.96396">
        <ele>201.4</ele>
        <time>2022-08-11T16:31:34Z</time>
      </trkpt>
      <trkpt lat="44.87637" lon="0.96403">
        <ele>201.4</ele>
        <time>2022-08-11T16:31:39Z</time>
      </trkpt>
      <trkpt lat="44.87637" lon="0.96412">
        <ele>202.4</ele>
        <time>2022-08-11T16:31:44Z</time>
      </trkpt>
      <trkpt lat="44.87637" lon="0.96419">
        <ele>203.4</ele>
        <time>2022-08-11T16:31:46Z</time>
      </trkpt>
      <trkpt lat="44.87638" lon="0.96426">
        <ele>205.4</ele>
        <time>2022-08-11T16:31:49Z</time>
      </trkpt>
      <trkpt lat="44.87639" lon="0.96434">
        <ele>206.4</ele>
        <time>2022-08-11T16:31:53Z</time>
      </trkpt>
      <trkpt lat="44.8764" lon="0.9644">
        <ele>207.4</ele>
        <time>2022-08-11T16:31:56Z</time>
      </trkpt>
      <trkpt lat="44.87641" lon="0.96447">
        <ele>208.4</ele>
        <time>2022-08-11T16:31:59Z</time>
      </trkpt>
      <trkpt lat="44.87641" lon="0.96454">
        <ele>211.4</ele>
        <time>2022-08-11T16:32:03Z</time>
      </trkpt>
      <trkpt lat="44.87642" lon="0.96464">
        <ele>211.4</ele>
        <time>2022-08-11T16:32:08Z</time>
      </trkpt>
      <trkpt lat="44.87646" lon="0.96471">
        <ele>212.4</ele>
        <time>2022-08-11T16:32:11Z</time>
      </trkpt>
      <trkpt lat="44.8765" lon="0.96474">
        <ele>213.4</ele>
        <time>2022-08-11T16:32:13Z</time>
      </trkpt>
      <trkpt lat="44.87654" lon="0.96479">
        <ele>215.4</ele>
        <time>2022-08-11T16:32:15Z</time>
      </trkpt>
      <trkpt lat="44.87658" lon="0.96484">
        <ele>216.4</ele>
        <time>2022-08-11T16:32:17Z</time>
      </trkpt>
      <trkpt lat="44.87663" lon="0.96489">
        <ele>217.4</ele>
        <time>2022-08-11T16:32:19Z</time>
      </trkpt>
      <trkpt lat="44.87668" lon="0.96495">
        <ele>217.4</ele>
        <time>2022-08-11T16:32:21Z</time>
      </trkpt>
      <trkpt lat="44.87674" lon="0.96502">
        <ele>217.4</ele>
        <time>2022-08-11T16:32:23Z</time>
      </trkpt>
      <trkpt lat="44.87678" lon="0.96507">
        <ele>216.4</ele>
        <time>2022-08-11T16:32:24Z</time>
      </trkpt>
      <trkpt lat="44.87682" lon="0.96512">
        <ele>216.4</ele>
        <time>2022-08-11T16:32:25Z</time>
      </trkpt>
      <trkpt lat="44.87687" lon="0.96516">
        <ele>217.4</ele>
        <time>2022-08-11T16:32:26Z</time>
      </trkpt>
      <trkpt lat="44.87692" lon="0.96519">
        <ele>218.4</ele>
        <time>2022-08-11T16:32:27Z</time>
      </trkpt>
      <trkpt lat="44.87698" lon="0.96519">
        <ele>218.4</ele>
        <time>2022-08-11T16:32:28Z</time>
      </trkpt>
      <trkpt lat="44.87704" lon="0.96519">
        <ele>219.4</ele>
        <time>2022-08-11T16:32:29Z</time>
      </trkpt>
      <trkpt lat="44.87709" lon="0.96518">
        <ele>220.4</ele>
        <time>2022-08-11T16:32:30Z</time>
      </trkpt>
      <trkpt lat="44.87716" lon="0.96518">
        <ele>220.4</ele>
        <time>2022-08-11T16:32:32Z</time>
      </trkpt>
      <trkpt lat="44.87721" lon="0.96517">
        <ele>220.4</ele>
        <time>2022-08-11T16:32:34Z</time>
      </trkpt>
      <trkpt lat="44.87727" lon="0.96516">
        <ele>221.4</ele>
        <time>2022-08-11T16:32:37Z</time>
      </trkpt>
      <trkpt lat="44.87731" lon="0.96515">
        <ele>220.4</ele>
        <time>2022-08-11T16:32:41Z</time>
      </trkpt>
      <trkpt lat="44.87737" lon="0.96517">
        <ele>220.4</ele>
        <time>2022-08-11T16:32:45Z</time>
      </trkpt>
      <trkpt lat="44.87742" lon="0.96515">
        <ele>219.4</ele>
        <time>2022-08-11T16:32:48Z</time>
      </trkpt>
      <trkpt lat="44.87747" lon="0.96513">
        <ele>219.4</ele>
        <time>2022-08-11T16:32:51Z</time>
      </trkpt>
      <trkpt lat="44.87752" lon="0.96512">
        <ele>218.4</ele>
        <time>2022-08-11T16:32:54Z</time>
      </trkpt>
      <trkpt lat="44.87756" lon="0.96508">
        <ele>218.4</ele>
        <time>2022-08-11T16:33:01Z</time>
      </trkpt>
      <trkpt lat="44.87762" lon="0.96506">
        <ele>216.4</ele>
        <time>2022-08-11T16:33:05Z</time>
      </trkpt>
      <trkpt lat="44.87767" lon="0.96503">
        <ele>215.4</ele>
        <time>2022-08-11T16:33:07Z</time>
      </trkpt>
      <trkpt lat="44.87774" lon="0.965">
        <ele>214.4</ele>
        <time>2022-08-11T16:33:09Z</time>
      </trkpt>
      <trkpt lat="44.8778" lon="0.96498">
        <ele>214.4</ele>
        <time>2022-08-11T16:33:11Z</time>
      </trkpt>
      <trkpt lat="44.87786" lon="0.96496">
        <ele>213.4</ele>
        <time>2022-08-11T16:33:13Z</time>
      </trkpt>
      <trkpt lat="44.87792" lon="0.96493">
        <ele>213.4</ele>
        <time>2022-08-11T16:33:15Z</time>
      </trkpt>
      <trkpt lat="44.87799" lon="0.9649">
        <ele>213.4</ele>
        <time>2022-08-11T16:33:17Z</time>
      </trkpt>
      <trkpt lat="44.87804" lon="0.96489">
        <ele>212.4</ele>
        <time>2022-08-11T16:33:19Z</time>
      </trkpt>
      <trkpt lat="44.87808" lon="0.96487">
        <ele>212.4</ele>
        <time>2022-08-11T16:33:21Z</time>
      </trkpt>
      <trkpt lat="44.87814" lon="0.96485">
        <ele>212.4</ele>
        <time>2022-08-11T16:33:24Z</time>
      </trkpt>
      <trkpt lat="44.8781" lon="0.96489">
        <ele>216.4</ele>
        <time>2022-08-11T16:33:37Z</time>
      </trkpt>
      <trkpt lat="44.87804" lon="0.96492">
        <ele>217.4</ele>
        <time>2022-08-11T16:33:39Z</time>
      </trkpt>
      <trkpt lat="44.87799" lon="0.96495">
        <ele>218.4</ele>
        <time>2022-08-11T16:33:41Z</time>
      </trkpt>
      <trkpt lat="44.87793" lon="0.96499">
        <ele>219.4</ele>
        <time>2022-08-11T16:33:43Z</time>
      </trkpt>
      <trkpt lat="44.87787" lon="0.96502">
        <ele>219.4</ele>
        <time>2022-08-11T16:33:45Z</time>
      </trkpt>
      <trkpt lat="44.8778" lon="0.96506">
        <ele>220.4</ele>
        <time>2022-08-11T16:33:47Z</time>
      </trkpt>
      <trkpt lat="44.87774" lon="0.96509">
        <ele>220.4</ele>
        <time>2022-08-11T16:33:49Z</time>
      </trkpt>
      <trkpt lat="44.87767" lon="0.96513">
        <ele>221.4</ele>
        <time>2022-08-11T16:33:51Z</time>
      </trkpt>
      <trkpt lat="44.87761" lon="0.96515">
        <ele>223.4</ele>
        <time>2022-08-11T16:33:53Z</time>
      </trkpt>
      <trkpt lat="44.87754" lon="0.96515">
        <ele>222.4</ele>
        <time>2022-08-11T16:33:55Z</time>
      </trkpt>
      <trkpt lat="44.87746" lon="0.96515">
        <ele>222.4</ele>
        <time>2022-08-11T16:33:57Z</time>
      </trkpt>
      <trkpt lat="44.87739" lon="0.96514">
        <ele>222.4</ele>
        <time>2022-08-11T16:33:59Z</time>
      </trkpt>
      <trkpt lat="44.87732" lon="0.96513">
        <ele>222.4</ele>
        <time>2022-08-11T16:34:01Z</time>
      </trkpt>
      <trkpt lat="44.87725" lon="0.96513">
        <ele>221.4</ele>
        <time>2022-08-11T16:34:03Z</time>
      </trkpt>
      <trkpt lat="44.87716" lon="0.96514">
        <ele>223.4</ele>
        <time>2022-08-11T16:34:05Z</time>
      </trkpt>
      <trkpt lat="44.87711" lon="0.96515">
        <ele>225.4</ele>
        <time>2022-08-11T16:34:06Z</time>
      </trkpt>
      <trkpt lat="44.87707" lon="0.96517">
        <ele>225.4</ele>
        <time>2022-08-11T16:34:07Z</time>
      </trkpt>
      <trkpt lat="44.87702" lon="0.96519">
        <ele>225.4</ele>
        <time>2022-08-11T16:34:08Z</time>
      </trkpt>
      <trkpt lat="44.87698" lon="0.9652">
        <ele>225.4</ele>
        <time>2022-08-11T16:34:09Z</time>
      </trkpt>
      <trkpt lat="44.87691" lon="0.96522">
        <ele>226.4</ele>
        <time>2022-08-11T16:34:11Z</time>
      </trkpt>
      <trkpt lat="44.87686" lon="0.96527">
        <ele>225.4</ele>
        <time>2022-08-11T16:34:13Z</time>
      </trkpt>
      <trkpt lat="44.87683" lon="0.96536">
        <ele>224.4</ele>
        <time>2022-08-11T16:34:15Z</time>
      </trkpt>
      <trkpt lat="44.87683" lon="0.96543">
        <ele>224.4</ele>
        <time>2022-08-11T16:34:16Z</time>
      </trkpt>
      <trkpt lat="44.87683" lon="0.9655">
        <ele>223.4</ele>
        <time>2022-08-11T16:34:17Z</time>
      </trkpt>
      <trkpt lat="44.87683" lon="0.96558">
        <ele>222.4</ele>
        <time>2022-08-11T16:34:18Z</time>
      </trkpt>
      <trkpt lat="44.87684" lon="0.96569">
        <ele>221.4</ele>
        <time>2022-08-11T16:34:20Z</time>
      </trkpt>
      <trkpt lat="44.87684" lon="0.96579">
        <ele>219.4</ele>
        <time>2022-08-11T16:34:22Z</time>
      </trkpt>
      <trkpt lat="44.87683" lon="0.9659">
        <ele>217.4</ele>
        <time>2022-08-11T16:34:24Z</time>
      </trkpt>
      <trkpt lat="44.87682" lon="0.96602">
        <ele>216.4</ele>
        <time>2022-08-11T16:34:26Z</time>
      </trkpt>
      <trkpt lat="44.87681" lon="0.96614">
        <ele>216.4</ele>
        <time>2022-08-11T16:34:28Z</time>
      </trkpt>
      <trkpt lat="44.87679" lon="0.96622">
        <ele>215.4</ele>
        <time>2022-08-11T16:34:30Z</time>
      </trkpt>
      <trkpt lat="44.87679" lon="0.96629">
        <ele>214.4</ele>
        <time>2022-08-11T16:34:32Z</time>
      </trkpt>
      <trkpt lat="44.87677" lon="0.96636">
        <ele>214.4</ele>
        <time>2022-08-11T16:34:34Z</time>
      </trkpt>
      <trkpt lat="44.87673" lon="0.96644">
        <ele>214.4</ele>
        <time>2022-08-11T16:34:36Z</time>
      </trkpt>
      <trkpt lat="44.87666" lon="0.96652">
        <ele>212.4</ele>
        <time>2022-08-11T16:34:38Z</time>
      </trkpt>
      <trkpt lat="44.87662" lon="0.96657">
        <ele>212.4</ele>
        <time>2022-08-11T16:34:39Z</time>
      </trkpt>
      <trkpt lat="44.87658" lon="0.96662">
        <ele>211.4</ele>
        <time>2022-08-11T16:34:41Z</time>
      </trkpt>
      <trkpt lat="44.87653" lon="0.96665">
        <ele>209.4</ele>
        <time>2022-08-11T16:35:28Z</time>
      </trkpt>
      <trkpt lat="44.87646" lon="0.96672">
        <ele>206.4</ele>
        <time>2022-08-11T16:35:31Z</time>
      </trkpt>
      <trkpt lat="44.87642" lon="0.96678">
        <ele>205.4</ele>
        <time>2022-08-11T16:35:33Z</time>
      </trkpt>
      <trkpt lat="44.87637" lon="0.96685">
        <ele>205.4</ele>
        <time>2022-08-11T16:35:35Z</time>
      </trkpt>
      <trkpt lat="44.8763" lon="0.96695">
        <ele>204.4</ele>
        <time>2022-08-11T16:35:38Z</time>
      </trkpt>
      <trkpt lat="44.87626" lon="0.96701">
        <ele>204.4</ele>
        <time>2022-08-11T16:35:40Z</time>
      </trkpt>
      <trkpt lat="44.8762" lon="0.9671">
        <ele>205.4</ele>
        <time>2022-08-11T16:35:42Z</time>
      </trkpt>
      <trkpt lat="44.87615" lon="0.96719">
        <ele>206.4</ele>
        <time>2022-08-11T16:35:44Z</time>
      </trkpt>
      <trkpt lat="44.8761" lon="0.96727">
        <ele>206.4</ele>
        <time>2022-08-11T16:35:46Z</time>
      </trkpt>
      <trkpt lat="44.87607" lon="0.96736">
        <ele>206.4</ele>
        <time>2022-08-11T16:35:48Z</time>
      </trkpt>
      <trkpt lat="44.87603" lon="0.96745">
        <ele>206.4</ele>
        <time>2022-08-11T16:35:50Z</time>
      </trkpt>
      <trkpt lat="44.87601" lon="0.96751">
        <ele>206.4</ele>
        <time>2022-08-11T16:35:52Z</time>
      </trkpt>
      <trkpt lat="44.87597" lon="0.96758">
        <ele>206.4</ele>
        <time>2022-08-11T16:35:54Z</time>
      </trkpt>
      <trkpt lat="44.87594" lon="0.96763">
        <ele>206.4</ele>
        <time>2022-08-11T16:35:56Z</time>
      </trkpt>
      <trkpt lat="44.8759" lon="0.96769">
        <ele>206.4</ele>
        <time>2022-08-11T16:35:59Z</time>
      </trkpt>
      <trkpt lat="44.87587" lon="0.96775">
        <ele>206.4</ele>
        <time>2022-08-11T16:36:04Z</time>
      </trkpt>
      <trkpt lat="44.87584" lon="0.96781">
        <ele>206.4</ele>
        <time>2022-08-11T16:36:06Z</time>
      </trkpt>
      <trkpt lat="44.8758" lon="0.96787">
        <ele>207.4</ele>
        <time>2022-08-11T16:36:08Z</time>
      </trkpt>
      <trkpt lat="44.87577" lon="0.96793">
        <ele>206.4</ele>
        <time>2022-08-11T16:36:10Z</time>
      </trkpt>
      <trkpt lat="44.87572" lon="0.96799">
        <ele>206.4</ele>
        <time>2022-08-11T16:36:13Z</time>
      </trkpt>
      <trkpt lat="44.8757" lon="0.96805">
        <ele>206.4</ele>
        <time>2022-08-11T16:36:18Z</time>
      </trkpt>
      <trkpt lat="44.87568" lon="0.96811">
        <ele>206.4</ele>
        <time>2022-08-11T16:36:20Z</time>
      </trkpt>
      <trkpt lat="44.87568" lon="0.9682">
        <ele>206.4</ele>
        <time>2022-08-11T16:36:27Z</time>
      </trkpt>
      <trkpt lat="44.87568" lon="0.96829">
        <ele>205.4</ele>
        <time>2022-08-11T16:36:30Z</time>
      </trkpt>
      <trkpt lat="44.87568" lon="0.96839">
        <ele>205.4</ele>
        <time>2022-08-11T16:36:33Z</time>
      </trkpt>
      <trkpt lat="44.87566" lon="0.96848">
        <ele>205.4</ele>
        <time>2022-08-11T16:36:36Z</time>
      </trkpt>
      <trkpt lat="44.87567" lon="0.96856">
        <ele>204.4</ele>
        <time>2022-08-11T16:36:40Z</time>
      </trkpt>
      <trkpt lat="44.87567" lon="0.96865">
        <ele>203.4</ele>
        <time>2022-08-11T16:36:42Z</time>
      </trkpt>
      <trkpt lat="44.87566" lon="0.96873">
        <ele>202.4</ele>
        <time>2022-08-11T16:36:44Z</time>
      </trkpt>
      <trkpt lat="44.87566" lon="0.9688">
        <ele>201.4</ele>
        <time>2022-08-11T16:36:46Z</time>
      </trkpt>
      <trkpt lat="44.87567" lon="0.96886">
        <ele>200.4</ele>
        <time>2022-08-11T16:36:48Z</time>
      </trkpt>
      <trkpt lat="44.87567" lon="0.96893">
        <ele>200.4</ele>
        <time>2022-08-11T16:36:51Z</time>
      </trkpt>
      <trkpt lat="44.87566" lon="0.96901">
        <ele>201.4</ele>
        <time>2022-08-11T16:36:55Z</time>
      </trkpt>
      <trkpt lat="44.87564" lon="0.96914">
        <ele>204.4</ele>
        <time>2022-08-11T16:36:58Z</time>
      </trkpt>
      <trkpt lat="44.87562" lon="0.96923">
        <ele>210.4</ele>
        <time>2022-08-11T16:37:08Z</time>
      </trkpt>
      <trkpt lat="44.87561" lon="0.9693">
        <ele>212.4</ele>
        <time>2022-08-11T16:37:15Z</time>
      </trkpt>
      <trkpt lat="44.87557" lon="0.96933">
        <ele>214.4</ele>
        <time>2022-08-11T16:37:54Z</time>
      </trkpt>
      <trkpt lat="44.87555" lon="0.96939">
        <ele>221.4</ele>
        <time>2022-08-11T16:38:23Z</time>
      </trkpt>
      <trkpt lat="44.87551" lon="0.96942">
        <ele>227.4</ele>
        <time>2022-08-11T16:38:45Z</time>
      </trkpt>
      <trkpt lat="44.87546" lon="0.96946">
        <ele>231.4</ele>
        <time>2022-08-11T16:39:57Z</time>
      </trkpt>
      <trkpt lat="44.87542" lon="0.96953">
        <ele>227.4</ele>
        <time>2022-08-11T16:40:00Z</time>
      </trkpt>
      <trkpt lat="44.87542" lon="0.96963">
        <ele>226.4</ele>
        <time>2022-08-11T16:40:02Z</time>
      </trkpt>
      <trkpt lat="44.87542" lon="0.96973">
        <ele>224.4</ele>
        <time>2022-08-11T16:40:04Z</time>
      </trkpt>
      <trkpt lat="44.87541" lon="0.96984">
        <ele>223.4</ele>
        <time>2022-08-11T16:40:06Z</time>
      </trkpt>
      <trkpt lat="44.8754" lon="0.96998">
        <ele>222.4</ele>
        <time>2022-08-11T16:40:08Z</time>
      </trkpt>
      <trkpt lat="44.87539" lon="0.97006">
        <ele>221.4</ele>
        <time>2022-08-11T16:40:09Z</time>
      </trkpt>
      <trkpt lat="44.87538" lon="0.97012">
        <ele>220.4</ele>
        <time>2022-08-11T16:40:10Z</time>
      </trkpt>
      <trkpt lat="44.87535" lon="0.97025">
        <ele>221.4</ele>
        <time>2022-08-11T16:40:12Z</time>
      </trkpt>
      <trkpt lat="44.87534" lon="0.97032">
        <ele>220.4</ele>
        <time>2022-08-11T16:40:13Z</time>
      </trkpt>
      <trkpt lat="44.87532" lon="0.97039">
        <ele>220.4</ele>
        <time>2022-08-11T16:40:14Z</time>
      </trkpt>
      <trkpt lat="44.87531" lon="0.97046">
        <ele>220.4</ele>
        <time>2022-08-11T16:40:15Z</time>
      </trkpt>
      <trkpt lat="44.87529" lon="0.97052">
        <ele>220.4</ele>
        <time>2022-08-11T16:40:16Z</time>
      </trkpt>
      <trkpt lat="44.87527" lon="0.97059">
        <ele>220.4</ele>
        <time>2022-08-11T16:40:17Z</time>
      </trkpt>
      <trkpt lat="44.87526" lon="0.97066">
        <ele>220.4</ele>
        <time>2022-08-11T16:40:18Z</time>
      </trkpt>
      <trkpt lat="44.87525" lon="0.97072">
        <ele>220.4</ele>
        <time>2022-08-11T16:40:19Z</time>
      </trkpt>
      <trkpt lat="44.87522" lon="0.97081">
        <ele>220.4</ele>
        <time>2022-08-11T16:40:21Z</time>
      </trkpt>
      <trkpt lat="44.87522" lon="0.97088">
        <ele>222.4</ele>
        <time>2022-08-11T16:40:52Z</time>
      </trkpt>
      <trkpt lat="44.87516" lon="0.97092">
        <ele>223.4</ele>
        <time>2022-08-11T16:41:03Z</time>
      </trkpt>
      <trkpt lat="44.87512" lon="0.97096">
        <ele>223.4</ele>
        <time>2022-08-11T16:41:05Z</time>
      </trkpt>
      <trkpt lat="44.87505" lon="0.971">
        <ele>222.4</ele>
        <time>2022-08-11T16:41:07Z</time>
      </trkpt>
      <trkpt lat="44.87501" lon="0.971">
        <ele>222.4</ele>
        <time>2022-08-11T16:41:08Z</time>
      </trkpt>
      <trkpt lat="44.87495" lon="0.971">
        <ele>221.4</ele>
        <time>2022-08-11T16:41:09Z</time>
      </trkpt>
      <trkpt lat="44.87489" lon="0.97101">
        <ele>220.4</ele>
        <time>2022-08-11T16:41:10Z</time>
      </trkpt>
      <trkpt lat="44.87482" lon="0.97103">
        <ele>220.4</ele>
        <time>2022-08-11T16:41:11Z</time>
      </trkpt>
      <trkpt lat="44.87475" lon="0.97104">
        <ele>219.4</ele>
        <time>2022-08-11T16:41:12Z</time>
      </trkpt>
      <trkpt lat="44.87467" lon="0.97104">
        <ele>218.4</ele>
        <time>2022-08-11T16:41:13Z</time>
      </trkpt>
      <trkpt lat="44.87461" lon="0.97104">
        <ele>217.4</ele>
        <time>2022-08-11T16:41:14Z</time>
      </trkpt>
      <trkpt lat="44.87453" lon="0.97105">
        <ele>216.4</ele>
        <time>2022-08-11T16:41:15Z</time>
      </trkpt>
      <trkpt lat="44.87446" lon="0.97107">
        <ele>215.4</ele>
        <time>2022-08-11T16:41:16Z</time>
      </trkpt>
      <trkpt lat="44.87438" lon="0.97109">
        <ele>214.4</ele>
        <time>2022-08-11T16:41:17Z</time>
      </trkpt>
      <trkpt lat="44.8743" lon="0.97112">
        <ele>213.4</ele>
        <time>2022-08-11T16:41:18Z</time>
      </trkpt>
      <trkpt lat="44.87421" lon="0.97116">
        <ele>212.4</ele>
        <time>2022-08-11T16:41:19Z</time>
      </trkpt>
      <trkpt lat="44.87412" lon="0.97119">
        <ele>211.4</ele>
        <time>2022-08-11T16:41:20Z</time>
      </trkpt>
      <trkpt lat="44.87403" lon="0.97121">
        <ele>209.4</ele>
        <time>2022-08-11T16:41:21Z</time>
      </trkpt>
      <trkpt lat="44.87394" lon="0.97123">
        <ele>209.4</ele>
        <time>2022-08-11T16:41:22Z</time>
      </trkpt>
      <trkpt lat="44.87386" lon="0.97125">
        <ele>208.4</ele>
        <time>2022-08-11T16:41:23Z</time>
      </trkpt>
      <trkpt lat="44.87378" lon="0.97126">
        <ele>207.4</ele>
        <time>2022-08-11T16:41:24Z</time>
      </trkpt>
      <trkpt lat="44.87371" lon="0.97126">
        <ele>206.4</ele>
        <time>2022-08-11T16:41:25Z</time>
      </trkpt>
      <trkpt lat="44.87363" lon="0.97126">
        <ele>205.4</ele>
        <time>2022-08-11T16:41:26Z</time>
      </trkpt>
      <trkpt lat="44.87355" lon="0.97125">
        <ele>205.4</ele>
        <time>2022-08-11T16:41:27Z</time>
      </trkpt>
      <trkpt lat="44.87347" lon="0.97124">
        <ele>205.4</ele>
        <time>2022-08-11T16:41:28Z</time>
      </trkpt>
      <trkpt lat="44.87338" lon="0.97123">
        <ele>205.4</ele>
        <time>2022-08-11T16:41:29Z</time>
      </trkpt>
      <trkpt lat="44.87331" lon="0.97121">
        <ele>204.4</ele>
        <time>2022-08-11T16:41:30Z</time>
      </trkpt>
      <trkpt lat="44.87323" lon="0.97118">
        <ele>204.4</ele>
        <time>2022-08-11T16:41:31Z</time>
      </trkpt>
      <trkpt lat="44.87316" lon="0.97114">
        <ele>204.4</ele>
        <time>2022-08-11T16:41:32Z</time>
      </trkpt>
      <trkpt lat="44.87309" lon="0.97108">
        <ele>204.4</ele>
        <time>2022-08-11T16:41:33Z</time>
      </trkpt>
      <trkpt lat="44.873" lon="0.97103">
        <ele>202.4</ele>
        <time>2022-08-11T16:41:34Z</time>
      </trkpt>
      <trkpt lat="44.87291" lon="0.97099">
        <ele>202.4</ele>
        <time>2022-08-11T16:41:35Z</time>
      </trkpt>
      <trkpt lat="44.87283" lon="0.97097">
        <ele>201.4</ele>
        <time>2022-08-11T16:41:36Z</time>
      </trkpt>
      <trkpt lat="44.87276" lon="0.97095">
        <ele>200.4</ele>
        <time>2022-08-11T16:41:37Z</time>
      </trkpt>
      <trkpt lat="44.87269" lon="0.97095">
        <ele>200.4</ele>
        <time>2022-08-11T16:41:38Z</time>
      </trkpt>
      <trkpt lat="44.87264" lon="0.97095">
        <ele>198.4</ele>
        <time>2022-08-11T16:41:39Z</time>
      </trkpt>
      <trkpt lat="44.87259" lon="0.97096">
        <ele>197.4</ele>
        <time>2022-08-11T16:41:40Z</time>
      </trkpt>
      <trkpt lat="44.87253" lon="0.97105">
        <ele>194.4</ele>
        <time>2022-08-11T16:41:42Z</time>
      </trkpt>
      <trkpt lat="44.87252" lon="0.97113">
        <ele>190.4</ele>
        <time>2022-08-11T16:41:43Z</time>
      </trkpt>
      <trkpt lat="44.8725" lon="0.97123">
        <ele>188.4</ele>
        <time>2022-08-11T16:41:44Z</time>
      </trkpt>
      <trkpt lat="44.87249" lon="0.97133">
        <ele>187.4</ele>
        <time>2022-08-11T16:41:45Z</time>
      </trkpt>
      <trkpt lat="44.87248" lon="0.97143">
        <ele>186.4</ele>
        <time>2022-08-11T16:41:46Z</time>
      </trkpt>
      <trkpt lat="44.87245" lon="0.9715">
        <ele>185.4</ele>
        <time>2022-08-11T16:41:47Z</time>
      </trkpt>
      <trkpt lat="44.87241" lon="0.97156">
        <ele>184.4</ele>
        <time>2022-08-11T16:41:48Z</time>
      </trkpt>
      <trkpt lat="44.87236" lon="0.97158">
        <ele>184.4</ele>
        <time>2022-08-11T16:41:49Z</time>
      </trkpt>
      <trkpt lat="44.87229" lon="0.97159">
        <ele>183.4</ele>
        <time>2022-08-11T16:41:50Z</time>
      </trkpt>
      <trkpt lat="44.87222" lon="0.9716">
        <ele>183.4</ele>
        <time>2022-08-11T16:41:51Z</time>
      </trkpt>
      <trkpt lat="44.87215" lon="0.9716">
        <ele>182.4</ele>
        <time>2022-08-11T16:41:52Z</time>
      </trkpt>
      <trkpt lat="44.87207" lon="0.97161">
        <ele>182.4</ele>
        <time>2022-08-11T16:41:53Z</time>
      </trkpt>
      <trkpt lat="44.87199" lon="0.97162">
        <ele>182.4</ele>
        <time>2022-08-11T16:41:54Z</time>
      </trkpt>
      <trkpt lat="44.87191" lon="0.97163">
        <ele>182.4</ele>
        <time>2022-08-11T16:41:55Z</time>
      </trkpt>
      <trkpt lat="44.87183" lon="0.97163">
        <ele>182.4</ele>
        <time>2022-08-11T16:41:56Z</time>
      </trkpt>
      <trkpt lat="44.87176" lon="0.97163">
        <ele>182.4</ele>
        <time>2022-08-11T16:41:57Z</time>
      </trkpt>
      <trkpt lat="44.87168" lon="0.97163">
        <ele>181.4</ele>
        <time>2022-08-11T16:41:58Z</time>
      </trkpt>
      <trkpt lat="44.87161" lon="0.97163">
        <ele>180.4</ele>
        <time>2022-08-11T16:41:59Z</time>
      </trkpt>
      <trkpt lat="44.87154" lon="0.97163">
        <ele>180.4</ele>
        <time>2022-08-11T16:42:00Z</time>
      </trkpt>
      <trkpt lat="44.87146" lon="0.97163">
        <ele>180.4</ele>
        <time>2022-08-11T16:42:01Z</time>
      </trkpt>
      <trkpt lat="44.87138" lon="0.97164">
        <ele>179.4</ele>
        <time>2022-08-11T16:42:02Z</time>
      </trkpt>
      <trkpt lat="44.8713" lon="0.97164">
        <ele>179.4</ele>
        <time>2022-08-11T16:42:03Z</time>
      </trkpt>
      <trkpt lat="44.87123" lon="0.97164">
        <ele>178.4</ele>
        <time>2022-08-11T16:42:04Z</time>
      </trkpt>
      <trkpt lat="44.87115" lon="0.97165">
        <ele>177.4</ele>
        <time>2022-08-11T16:42:05Z</time>
      </trkpt>
      <trkpt lat="44.87107" lon="0.97165">
        <ele>176.4</ele>
        <time>2022-08-11T16:42:06Z</time>
      </trkpt>
      <trkpt lat="44.871" lon="0.97166">
        <ele>176.4</ele>
        <time>2022-08-11T16:42:07Z</time>
      </trkpt>
      <trkpt lat="44.87094" lon="0.97167">
        <ele>175.4</ele>
        <time>2022-08-11T16:42:08Z</time>
      </trkpt>
      <trkpt lat="44.87087" lon="0.97168">
        <ele>175.4</ele>
        <time>2022-08-11T16:42:09Z</time>
      </trkpt>
      <trkpt lat="44.87082" lon="0.97169">
        <ele>174.4</ele>
        <time>2022-08-11T16:42:10Z</time>
      </trkpt>
      <trkpt lat="44.87076" lon="0.97172">
        <ele>173.4</ele>
        <time>2022-08-11T16:42:11Z</time>
      </trkpt>
      <trkpt lat="44.87071" lon="0.97177">
        <ele>173.4</ele>
        <time>2022-08-11T16:42:12Z</time>
      </trkpt>
      <trkpt lat="44.87065" lon="0.97184">
        <ele>172.4</ele>
        <time>2022-08-11T16:42:13Z</time>
      </trkpt>
      <trkpt lat="44.87059" lon="0.97189">
        <ele>172.4</ele>
        <time>2022-08-11T16:42:14Z</time>
      </trkpt>
      <trkpt lat="44.87052" lon="0.97191">
        <ele>172.4</ele>
        <time>2022-08-11T16:42:15Z</time>
      </trkpt>
      <trkpt lat="44.87045" lon="0.97191">
        <ele>171.4</ele>
        <time>2022-08-11T16:42:16Z</time>
      </trkpt>
      <trkpt lat="44.87037" lon="0.9719">
        <ele>171.4</ele>
        <time>2022-08-11T16:42:17Z</time>
      </trkpt>
      <trkpt lat="44.87029" lon="0.97188">
        <ele>171.4</ele>
        <time>2022-08-11T16:42:18Z</time>
      </trkpt>
      <trkpt lat="44.87022" lon="0.97186">
        <ele>170.4</ele>
        <time>2022-08-11T16:42:19Z</time>
      </trkpt>
      <trkpt lat="44.87015" lon="0.97183">
        <ele>169.4</ele>
        <time>2022-08-11T16:42:20Z</time>
      </trkpt>
      <trkpt lat="44.87008" lon="0.9718">
        <ele>169.4</ele>
        <time>2022-08-11T16:42:21Z</time>
      </trkpt>
      <trkpt lat="44.87001" lon="0.97177">
        <ele>169.4</ele>
        <time>2022-08-11T16:42:22Z</time>
      </trkpt>
      <trkpt lat="44.86995" lon="0.97174">
        <ele>169.4</ele>
        <time>2022-08-11T16:42:23Z</time>
      </trkpt>
      <trkpt lat="44.86989" lon="0.97169">
        <ele>170.4</ele>
        <time>2022-08-11T16:42:24Z</time>
      </trkpt>
      <trkpt lat="44.86983" lon="0.97164">
        <ele>170.4</ele>
        <time>2022-08-11T16:42:25Z</time>
      </trkpt>
      <trkpt lat="44.86979" lon="0.9716">
        <ele>171.4</ele>
        <time>2022-08-11T16:42:26Z</time>
      </trkpt>
      <trkpt lat="44.86974" lon="0.97155">
        <ele>172.4</ele>
        <time>2022-08-11T16:42:28Z</time>
      </trkpt>
      <trkpt lat="44.86971" lon="0.97161">
        <ele>169.4</ele>
        <time>2022-08-11T16:43:02Z</time>
      </trkpt>
      <trkpt lat="44.86969" lon="0.97174">
        <ele>167.4</ele>
        <time>2022-08-11T16:43:04Z</time>
      </trkpt>
      <trkpt lat="44.86966" lon="0.97191">
        <ele>165.4</ele>
        <time>2022-08-11T16:43:06Z</time>
      </trkpt>
      <trkpt lat="44.86965" lon="0.97199">
        <ele>165.4</ele>
        <time>2022-08-11T16:43:07Z</time>
      </trkpt>
      <trkpt lat="44.86963" lon="0.97211">
        <ele>163.4</ele>
        <time>2022-08-11T16:43:09Z</time>
      </trkpt>
      <trkpt lat="44.86965" lon="0.97219">
        <ele>163.4</ele>
        <time>2022-08-11T16:43:11Z</time>
      </trkpt>
      <trkpt lat="44.86969" lon="0.97224">
        <ele>162.4</ele>
        <time>2022-08-11T16:43:13Z</time>
      </trkpt>
      <trkpt lat="44.86973" lon="0.97223">
        <ele>162.4</ele>
        <time>2022-08-11T16:43:16Z</time>
      </trkpt>
      <trkpt lat="44.86976" lon="0.97215">
        <ele>162.4</ele>
        <time>2022-08-11T16:43:19Z</time>
      </trkpt>
      <trkpt lat="44.86976" lon="0.97208">
        <ele>162.4</ele>
        <time>2022-08-11T16:43:21Z</time>
      </trkpt>
      <trkpt lat="44.86976" lon="0.972">
        <ele>163.4</ele>
        <time>2022-08-11T16:43:24Z</time>
      </trkpt>
      <trkpt lat="44.86977" lon="0.97193">
        <ele>164.4</ele>
        <time>2022-08-11T16:43:27Z</time>
      </trkpt>
      <trkpt lat="44.86977" lon="0.97185">
        <ele>164.4</ele>
        <time>2022-08-11T16:43:31Z</time>
      </trkpt>
      <trkpt lat="44.86978" lon="0.97179">
        <ele>164.4</ele>
        <time>2022-08-11T16:43:34Z</time>
      </trkpt>
      <trkpt lat="44.86981" lon="0.97173">
        <ele>165.4</ele>
        <time>2022-08-11T16:43:37Z</time>
      </trkpt>
      <trkpt lat="44.86986" lon="0.97171">
        <ele>166.4</ele>
        <time>2022-08-11T16:43:40Z</time>
      </trkpt>
      <trkpt lat="44.86991" lon="0.97173">
        <ele>165.4</ele>
        <time>2022-08-11T16:43:44Z</time>
      </trkpt>
      <trkpt lat="44.86996" lon="0.97174">
        <ele>165.4</ele>
        <time>2022-08-11T16:43:47Z</time>
      </trkpt>
      <trkpt lat="44.87001" lon="0.97176">
        <ele>164.4</ele>
        <time>2022-08-11T16:43:50Z</time>
      </trkpt>
      <trkpt lat="44.87006" lon="0.97179">
        <ele>164.4</ele>
        <time>2022-08-11T16:43:53Z</time>
      </trkpt>
      <trkpt lat="44.87011" lon="0.97183">
        <ele>163.4</ele>
        <time>2022-08-11T16:43:56Z</time>
      </trkpt>
      <trkpt lat="44.87016" lon="0.97186">
        <ele>163.4</ele>
        <time>2022-08-11T16:43:59Z</time>
      </trkpt>
      <trkpt lat="44.87021" lon="0.97187">
        <ele>162.4</ele>
        <time>2022-08-11T16:44:02Z</time>
      </trkpt>
      <trkpt lat="44.87026" lon="0.9719">
        <ele>162.4</ele>
        <time>2022-08-11T16:44:05Z</time>
      </trkpt>
      <trkpt lat="44.87032" lon="0.97192">
        <ele>161.4</ele>
        <time>2022-08-11T16:44:08Z</time>
      </trkpt>
      <trkpt lat="44.87037" lon="0.97193">
        <ele>162.4</ele>
        <time>2022-08-11T16:44:10Z</time>
      </trkpt>
      <trkpt lat="44.87043" lon="0.97192">
        <ele>162.4</ele>
        <time>2022-08-11T16:44:13Z</time>
      </trkpt>
      <trkpt lat="44.87048" lon="0.97192">
        <ele>162.4</ele>
        <time>2022-08-11T16:44:16Z</time>
      </trkpt>
      <trkpt lat="44.87053" lon="0.97191">
        <ele>163.4</ele>
        <time>2022-08-11T16:44:19Z</time>
      </trkpt>
      <trkpt lat="44.87059" lon="0.97187">
        <ele>162.4</ele>
        <time>2022-08-11T16:44:22Z</time>
      </trkpt>
      <trkpt lat="44.87064" lon="0.97185">
        <ele>162.4</ele>
        <time>2022-08-11T16:44:25Z</time>
      </trkpt>
      <trkpt lat="44.87069" lon="0.97182">
        <ele>161.4</ele>
        <time>2022-08-11T16:44:28Z</time>
      </trkpt>
      <trkpt lat="44.87073" lon="0.97178">
        <ele>161.4</ele>
        <time>2022-08-11T16:44:31Z</time>
      </trkpt>
      <trkpt lat="44.87078" lon="0.97175">
        <ele>162.4</ele>
        <time>2022-08-11T16:44:35Z</time>
      </trkpt>
      <trkpt lat="44.87084" lon="0.97172">
        <ele>164.4</ele>
        <time>2022-08-11T16:44:39Z</time>
      </trkpt>
      <trkpt lat="44.87089" lon="0.97172">
        <ele>168.4</ele>
        <time>2022-08-11T16:44:44Z</time>
      </trkpt>
      <trkpt lat="44.87095" lon="0.9717">
        <ele>167.4</ele>
        <time>2022-08-11T16:44:48Z</time>
      </trkpt>
      <trkpt lat="44.87101" lon="0.97171">
        <ele>168.4</ele>
        <time>2022-08-11T16:44:51Z</time>
      </trkpt>
      <trkpt lat="44.87105" lon="0.97171">
        <ele>169.4</ele>
        <time>2022-08-11T16:44:54Z</time>
      </trkpt>
      <trkpt lat="44.8711" lon="0.9717">
        <ele>170.4</ele>
        <time>2022-08-11T16:44:57Z</time>
      </trkpt>
      <trkpt lat="44.87116" lon="0.97168">
        <ele>169.4</ele>
        <time>2022-08-11T16:45:01Z</time>
      </trkpt>
      <trkpt lat="44.87122" lon="0.97168">
        <ele>169.4</ele>
        <time>2022-08-11T16:45:05Z</time>
      </trkpt>
      <trkpt lat="44.87127" lon="0.97168">
        <ele>169.4</ele>
        <time>2022-08-11T16:45:09Z</time>
      </trkpt>
      <trkpt lat="44.87132" lon="0.97165">
        <ele>170.4</ele>
        <time>2022-08-11T16:45:13Z</time>
      </trkpt>
      <trkpt lat="44.87137" lon="0.97164">
        <ele>170.4</ele>
        <time>2022-08-11T16:45:56Z</time>
      </trkpt>
      <trkpt lat="44.87143" lon="0.97163">
        <ele>170.4</ele>
        <time>2022-08-11T16:46:01Z</time>
      </trkpt>
      <trkpt lat="44.87148" lon="0.97164">
        <ele>171.4</ele>
        <time>2022-08-11T16:46:05Z</time>
      </trkpt>
      <trkpt lat="44.87154" lon="0.97165">
        <ele>172.4</ele>
        <time>2022-08-11T16:46:09Z</time>
      </trkpt>
      <trkpt lat="44.87159" lon="0.97165">
        <ele>173.4</ele>
        <time>2022-08-11T16:46:13Z</time>
      </trkpt>
      <trkpt lat="44.87165" lon="0.97163">
        <ele>172.4</ele>
        <time>2022-08-11T16:46:18Z</time>
      </trkpt>
      <trkpt lat="44.8717" lon="0.97164">
        <ele>174.4</ele>
        <time>2022-08-11T16:46:21Z</time>
      </trkpt>
      <trkpt lat="44.87176" lon="0.97164">
        <ele>174.4</ele>
        <time>2022-08-11T16:46:25Z</time>
      </trkpt>
      <trkpt lat="44.8718" lon="0.97166">
        <ele>173.4</ele>
        <time>2022-08-11T16:46:28Z</time>
      </trkpt>
      <trkpt lat="44.87185" lon="0.97165">
        <ele>173.4</ele>
        <time>2022-08-11T16:46:31Z</time>
      </trkpt>
      <trkpt lat="44.8719" lon="0.97164">
        <ele>174.4</ele>
        <time>2022-08-11T16:46:35Z</time>
      </trkpt>
      <trkpt lat="44.87196" lon="0.97165">
        <ele>174.4</ele>
        <time>2022-08-11T16:46:39Z</time>
      </trkpt>
      <trkpt lat="44.872" lon="0.97164">
        <ele>174.4</ele>
        <time>2022-08-11T16:46:42Z</time>
      </trkpt>
      <trkpt lat="44.87205" lon="0.97163">
        <ele>174.4</ele>
        <time>2022-08-11T16:46:46Z</time>
      </trkpt>
      <trkpt lat="44.8721" lon="0.97163">
        <ele>175.4</ele>
        <time>2022-08-11T16:46:50Z</time>
      </trkpt>
      <trkpt lat="44.87216" lon="0.97162">
        <ele>175.4</ele>
        <time>2022-08-11T16:46:55Z</time>
      </trkpt>
      <trkpt lat="44.8722" lon="0.97162">
        <ele>176.4</ele>
        <time>2022-08-11T16:46:58Z</time>
      </trkpt>
      <trkpt lat="44.87226" lon="0.97159">
        <ele>175.4</ele>
        <time>2022-08-11T16:47:03Z</time>
      </trkpt>
      <trkpt lat="44.87231" lon="0.97158">
        <ele>175.4</ele>
        <time>2022-08-11T16:47:08Z</time>
      </trkpt>
      <trkpt lat="44.87236" lon="0.9716">
        <ele>174.4</ele>
        <time>2022-08-11T16:47:13Z</time>
      </trkpt>
      <trkpt lat="44.87234" lon="0.97153">
        <ele>177.4</ele>
        <time>2022-08-11T16:47:46Z</time>
      </trkpt>
      <trkpt lat="44.87229" lon="0.97153">
        <ele>177.4</ele>
        <time>2022-08-11T16:47:49Z</time>
      </trkpt>
      <trkpt lat="44.87224" lon="0.97153">
        <ele>178.4</ele>
        <time>2022-08-11T16:47:51Z</time>
      </trkpt>
      <trkpt lat="44.87217" lon="0.97154">
        <ele>180.4</ele>
        <time>2022-08-11T16:47:53Z</time>
      </trkpt>
      <trkpt lat="44.8721" lon="0.97155">
        <ele>180.4</ele>
        <time>2022-08-11T16:47:55Z</time>
      </trkpt>
      <trkpt lat="44.87202" lon="0.97155">
        <ele>181.4</ele>
        <time>2022-08-11T16:47:57Z</time>
      </trkpt>
      <trkpt lat="44.87194" lon="0.97155">
        <ele>181.4</ele>
        <time>2022-08-11T16:47:59Z</time>
      </trkpt>
      <trkpt lat="44.87189" lon="0.97155">
        <ele>181.4</ele>
        <time>2022-08-11T16:48:00Z</time>
      </trkpt>
      <trkpt lat="44.87184" lon="0.97156">
        <ele>181.4</ele>
        <time>2022-08-11T16:48:01Z</time>
      </trkpt>
      <trkpt lat="44.87179" lon="0.97156">
        <ele>180.4</ele>
        <time>2022-08-11T16:48:02Z</time>
      </trkpt>
      <trkpt lat="44.87173" lon="0.97156">
        <ele>180.4</ele>
        <time>2022-08-11T16:48:03Z</time>
      </trkpt>
      <trkpt lat="44.87167" lon="0.97157">
        <ele>180.4</ele>
        <time>2022-08-11T16:48:04Z</time>
      </trkpt>
      <trkpt lat="44.87161" lon="0.97157">
        <ele>180.4</ele>
        <time>2022-08-11T16:48:05Z</time>
      </trkpt>
      <trkpt lat="44.87155" lon="0.97157">
        <ele>180.4</ele>
        <time>2022-08-11T16:48:06Z</time>
      </trkpt>
      <trkpt lat="44.87149" lon="0.97157">
        <ele>179.4</ele>
        <time>2022-08-11T16:48:07Z</time>
      </trkpt>
      <trkpt lat="44.87143" lon="0.97157">
        <ele>179.4</ele>
        <time>2022-08-11T16:48:08Z</time>
      </trkpt>
      <trkpt lat="44.87137" lon="0.97157">
        <ele>179.4</ele>
        <time>2022-08-11T16:48:09Z</time>
      </trkpt>
      <trkpt lat="44.8713" lon="0.97158">
        <ele>179.4</ele>
        <time>2022-08-11T16:48:10Z</time>
      </trkpt>
      <trkpt lat="44.87124" lon="0.97157">
        <ele>179.4</ele>
        <time>2022-08-11T16:48:11Z</time>
      </trkpt>
      <trkpt lat="44.87118" lon="0.97157">
        <ele>178.4</ele>
        <time>2022-08-11T16:48:12Z</time>
      </trkpt>
      <trkpt lat="44.87111" lon="0.97157">
        <ele>178.4</ele>
        <time>2022-08-11T16:48:13Z</time>
      </trkpt>
      <trkpt lat="44.87105" lon="0.97157">
        <ele>177.4</ele>
        <time>2022-08-11T16:48:14Z</time>
      </trkpt>
      <trkpt lat="44.87099" lon="0.97158">
        <ele>177.4</ele>
        <time>2022-08-11T16:48:15Z</time>
      </trkpt>
      <trkpt lat="44.87092" lon="0.97158">
        <ele>177.4</ele>
        <time>2022-08-11T16:48:16Z</time>
      </trkpt>
      <trkpt lat="44.8708" lon="0.97159">
        <ele>178.4</ele>
        <time>2022-08-11T16:48:18Z</time>
      </trkpt>
      <trkpt lat="44.87074" lon="0.97159">
        <ele>177.4</ele>
        <time>2022-08-11T16:48:19Z</time>
      </trkpt>
      <trkpt lat="44.87069" lon="0.97159">
        <ele>177.4</ele>
        <time>2022-08-11T16:48:20Z</time>
      </trkpt>
      <trkpt lat="44.87063" lon="0.97158">
        <ele>177.4</ele>
        <time>2022-08-11T16:48:21Z</time>
      </trkpt>
      <trkpt lat="44.87053" lon="0.97155">
        <ele>177.4</ele>
        <time>2022-08-11T16:48:23Z</time>
      </trkpt>
      <trkpt lat="44.87049" lon="0.97154">
        <ele>177.4</ele>
        <time>2022-08-11T16:48:24Z</time>
      </trkpt>
      <trkpt lat="44.87041" lon="0.97151">
        <ele>176.4</ele>
        <time>2022-08-11T16:48:26Z</time>
      </trkpt>
      <trkpt lat="44.87032" lon="0.97149">
        <ele>176.4</ele>
        <time>2022-08-11T16:48:28Z</time>
      </trkpt>
      <trkpt lat="44.87024" lon="0.97147">
        <ele>175.4</ele>
        <time>2022-08-11T16:48:30Z</time>
      </trkpt>
      <trkpt lat="44.87016" lon="0.97143">
        <ele>175.4</ele>
        <time>2022-08-11T16:48:32Z</time>
      </trkpt>
      <trkpt lat="44.87008" lon="0.97139">
        <ele>175.4</ele>
        <time>2022-08-11T16:48:34Z</time>
      </trkpt>
      <trkpt lat="44.87003" lon="0.97137">
        <ele>175.4</ele>
        <time>2022-08-11T16:48:35Z</time>
      </trkpt>
      <trkpt lat="44.86995" lon="0.97133">
        <ele>175.4</ele>
        <time>2022-08-11T16:48:37Z</time>
      </trkpt>
      <trkpt lat="44.86987" lon="0.9713">
        <ele>176.4</ele>
        <time>2022-08-11T16:48:39Z</time>
      </trkpt>
      <trkpt lat="44.86981" lon="0.97129">
        <ele>176.4</ele>
        <time>2022-08-11T16:48:41Z</time>
      </trkpt>
      <trkpt lat="44.86977" lon="0.97131">
        <ele>175.4</ele>
        <time>2022-08-11T16:48:47Z</time>
      </trkpt>
      <trkpt lat="44.86971" lon="0.97133">
        <ele>174.4</ele>
        <time>2022-08-11T16:48:51Z</time>
      </trkpt>
      <trkpt lat="44.86967" lon="0.97133">
        <ele>173.4</ele>
        <time>2022-08-11T16:48:53Z</time>
      </trkpt>
      <trkpt lat="44.86958" lon="0.97131">
        <ele>173.4</ele>
        <time>2022-08-11T16:48:55Z</time>
      </trkpt>
      <trkpt lat="44.86953" lon="0.97129">
        <ele>173.4</ele>
        <time>2022-08-11T16:48:56Z</time>
      </trkpt>
      <trkpt lat="44.86942" lon="0.97124">
        <ele>172.4</ele>
        <time>2022-08-11T16:48:58Z</time>
      </trkpt>
      <trkpt lat="44.86937" lon="0.97121">
        <ele>172.4</ele>
        <time>2022-08-11T16:48:59Z</time>
      </trkpt>
      <trkpt lat="44.86933" lon="0.97119">
        <ele>172.4</ele>
        <time>2022-08-11T16:49:00Z</time>
      </trkpt>
      <trkpt lat="44.86925" lon="0.97114">
        <ele>172.4</ele>
        <time>2022-08-11T16:49:02Z</time>
      </trkpt>
      <trkpt lat="44.86919" lon="0.97108">
        <ele>172.4</ele>
        <time>2022-08-11T16:49:04Z</time>
      </trkpt>
      <trkpt lat="44.86915" lon="0.97104">
        <ele>173.4</ele>
        <time>2022-08-11T16:49:05Z</time>
      </trkpt>
      <trkpt lat="44.86908" lon="0.97099">
        <ele>174.4</ele>
        <time>2022-08-11T16:49:07Z</time>
      </trkpt>
      <trkpt lat="44.86902" lon="0.97097">
        <ele>174.4</ele>
        <time>2022-08-11T16:49:10Z</time>
      </trkpt>
      <trkpt lat="44.86903" lon="0.9709">
        <ele>172.4</ele>
        <time>2022-08-11T16:49:16Z</time>
      </trkpt>
      <trkpt lat="44.86906" lon="0.97082">
        <ele>172.4</ele>
        <time>2022-08-11T16:49:19Z</time>
      </trkpt>
      <trkpt lat="44.86906" lon="0.97075">
        <ele>171.4</ele>
        <time>2022-08-11T16:49:22Z</time>
      </trkpt>
      <trkpt lat="44.86906" lon="0.97066">
        <ele>170.4</ele>
        <time>2022-08-11T16:49:26Z</time>
      </trkpt>
      <trkpt lat="44.86905" lon="0.97058">
        <ele>170.4</ele>
        <time>2022-08-11T16:49:32Z</time>
      </trkpt>
      <trkpt lat="44.86906" lon="0.97049">
        <ele>170.4</ele>
        <time>2022-08-11T16:49:35Z</time>
      </trkpt>
      <trkpt lat="44.86909" lon="0.97039">
        <ele>170.4</ele>
        <time>2022-08-11T16:49:38Z</time>
      </trkpt>
      <trkpt lat="44.86909" lon="0.97031">
        <ele>170.4</ele>
        <time>2022-08-11T16:49:40Z</time>
      </trkpt>
      <trkpt lat="44.86907" lon="0.97025">
        <ele>169.4</ele>
        <time>2022-08-11T16:49:42Z</time>
      </trkpt>
      <trkpt lat="44.86903" lon="0.9702">
        <ele>169.4</ele>
        <time>2022-08-11T16:49:44Z</time>
      </trkpt>
      <trkpt lat="44.86899" lon="0.97015">
        <ele>169.4</ele>
        <time>2022-08-11T16:49:46Z</time>
      </trkpt>
      <trkpt lat="44.86895" lon="0.97009">
        <ele>168.4</ele>
        <time>2022-08-11T16:49:48Z</time>
      </trkpt>
      <trkpt lat="44.86893" lon="0.97002">
        <ele>168.4</ele>
        <time>2022-08-11T16:49:50Z</time>
      </trkpt>
      <trkpt lat="44.8689" lon="0.96996">
        <ele>168.4</ele>
        <time>2022-08-11T16:49:53Z</time>
      </trkpt>
      <trkpt lat="44.86887" lon="0.9699">
        <ele>168.4</ele>
        <time>2022-08-11T16:49:58Z</time>
      </trkpt>
      <trkpt lat="44.86885" lon="0.96984">
        <ele>168.4</ele>
        <time>2022-08-11T16:50:00Z</time>
      </trkpt>
      <trkpt lat="44.86882" lon="0.96979">
        <ele>168.4</ele>
        <time>2022-08-11T16:50:04Z</time>
      </trkpt>
      <trkpt lat="44.86881" lon="0.96973">
        <ele>168.4</ele>
        <time>2022-08-11T16:50:06Z</time>
      </trkpt>
      <trkpt lat="44.8688" lon="0.96964">
        <ele>168.4</ele>
        <time>2022-08-11T16:50:09Z</time>
      </trkpt>
      <trkpt lat="44.86879" lon="0.96955">
        <ele>166.4</ele>
        <time>2022-08-11T16:50:12Z</time>
      </trkpt>
      <trkpt lat="44.86881" lon="0.96947">
        <ele>167.4</ele>
        <time>2022-08-11T16:50:15Z</time>
      </trkpt>
      <trkpt lat="44.86881" lon="0.9694">
        <ele>166.4</ele>
        <time>2022-08-11T16:50:18Z</time>
      </trkpt>
      <trkpt lat="44.86876" lon="0.96939">
        <ele>163.4</ele>
        <time>2022-08-11T16:50:24Z</time>
      </trkpt>
      <trkpt lat="44.8687" lon="0.9694">
        <ele>163.4</ele>
        <time>2022-08-11T16:50:27Z</time>
      </trkpt>
      <trkpt lat="44.86865" lon="0.96942">
        <ele>161.4</ele>
        <time>2022-08-11T16:50:29Z</time>
      </trkpt>
      <trkpt lat="44.8686" lon="0.96942">
        <ele>159.4</ele>
        <time>2022-08-11T16:50:35Z</time>
      </trkpt>
      <trkpt lat="44.86858" lon="0.96948">
        <ele>164.4</ele>
        <time>2022-08-11T16:50:56Z</time>
      </trkpt>
      <trkpt lat="44.86862" lon="0.96952">
        <ele>163.4</ele>
        <time>2022-08-11T16:54:01Z</time>
      </trkpt>
      <trkpt lat="44.86866" lon="0.96959">
        <ele>162.4</ele>
        <time>2022-08-11T16:54:03Z</time>
      </trkpt>
      <trkpt lat="44.86872" lon="0.9697">
        <ele>161.4</ele>
        <time>2022-08-11T16:54:05Z</time>
      </trkpt>
      <trkpt lat="44.86876" lon="0.96977">
        <ele>160.4</ele>
        <time>2022-08-11T16:54:06Z</time>
      </trkpt>
      <trkpt lat="44.8688" lon="0.96984">
        <ele>158.4</ele>
        <time>2022-08-11T16:54:07Z</time>
      </trkpt>
      <trkpt lat="44.86884" lon="0.9699">
        <ele>157.4</ele>
        <time>2022-08-11T16:54:08Z</time>
      </trkpt>
      <trkpt lat="44.86888" lon="0.96996">
        <ele>157.4</ele>
        <time>2022-08-11T16:54:09Z</time>
      </trkpt>
      <trkpt lat="44.86891" lon="0.97001">
        <ele>157.4</ele>
        <time>2022-08-11T16:54:10Z</time>
      </trkpt>
      <trkpt lat="44.86895" lon="0.97003">
        <ele>157.4</ele>
        <time>2022-08-11T16:54:12Z</time>
      </trkpt>
      <trkpt lat="44.86899" lon="0.96999">
        <ele>157.4</ele>
        <time>2022-08-11T16:54:15Z</time>
      </trkpt>
      <trkpt lat="44.86904" lon="0.97003">
        <ele>158.4</ele>
        <time>2022-08-11T16:54:20Z</time>
      </trkpt>
      <trkpt lat="44.86906" lon="0.97009">
        <ele>157.4</ele>
        <time>2022-08-11T16:54:23Z</time>
      </trkpt>
      <trkpt lat="44.86907" lon="0.97016">
        <ele>156.4</ele>
        <time>2022-08-11T16:54:26Z</time>
      </trkpt>
      <trkpt lat="44.86908" lon="0.97022">
        <ele>156.4</ele>
        <time>2022-08-11T16:54:30Z</time>
      </trkpt>
      <trkpt lat="44.86909" lon="0.97029">
        <ele>155.4</ele>
        <time>2022-08-11T16:54:33Z</time>
      </trkpt>
      <trkpt lat="44.86911" lon="0.97036">
        <ele>154.4</ele>
        <time>2022-08-11T16:54:39Z</time>
      </trkpt>
      <trkpt lat="44.86913" lon="0.97043">
        <ele>153.4</ele>
        <time>2022-08-11T16:54:42Z</time>
      </trkpt>
      <trkpt lat="44.86912" lon="0.97051">
        <ele>152.4</ele>
        <time>2022-08-11T16:54:45Z</time>
      </trkpt>
      <trkpt lat="44.8691" lon="0.97059">
        <ele>152.4</ele>
        <time>2022-08-11T16:54:47Z</time>
      </trkpt>
      <trkpt lat="44.86908" lon="0.97066">
        <ele>151.4</ele>
        <time>2022-08-11T16:54:49Z</time>
      </trkpt>
      <trkpt lat="44.86906" lon="0.97072">
        <ele>151.4</ele>
        <time>2022-08-11T16:54:51Z</time>
      </trkpt>
      <trkpt lat="44.86904" lon="0.9708">
        <ele>151.4</ele>
        <time>2022-08-11T16:54:53Z</time>
      </trkpt>
      <trkpt lat="44.86903" lon="0.9709">
        <ele>150.4</ele>
        <time>2022-08-11T16:54:55Z</time>
      </trkpt>
      <trkpt lat="44.86902" lon="0.97098">
        <ele>149.4</ele>
        <time>2022-08-11T16:54:57Z</time>
      </trkpt>
      <trkpt lat="44.86902" lon="0.97107">
        <ele>147.4</ele>
        <time>2022-08-11T16:54:59Z</time>
      </trkpt>
      <trkpt lat="44.86903" lon="0.97115">
        <ele>145.4</ele>
        <time>2022-08-11T16:55:01Z</time>
      </trkpt>
      <trkpt lat="44.86904" lon="0.97123">
        <ele>143.4</ele>
        <time>2022-08-11T16:55:03Z</time>
      </trkpt>
      <trkpt lat="44.86905" lon="0.97132">
        <ele>141.4</ele>
        <time>2022-08-11T16:55:05Z</time>
      </trkpt>
      <trkpt lat="44.86904" lon="0.9714">
        <ele>140.4</ele>
        <time>2022-08-11T16:55:07Z</time>
      </trkpt>
      <trkpt lat="44.86904" lon="0.97147">
        <ele>139.4</ele>
        <time>2022-08-11T16:55:09Z</time>
      </trkpt>
      <trkpt lat="44.86904" lon="0.97157">
        <ele>137.4</ele>
        <time>2022-08-11T16:55:12Z</time>
      </trkpt>
      <trkpt lat="44.86904" lon="0.97164">
        <ele>136.4</ele>
        <time>2022-08-11T16:55:14Z</time>
      </trkpt>
      <trkpt lat="44.86904" lon="0.97172">
        <ele>136.4</ele>
        <time>2022-08-11T16:55:16Z</time>
      </trkpt>
      <trkpt lat="44.86903" lon="0.9718">
        <ele>135.4</ele>
        <time>2022-08-11T16:55:18Z</time>
      </trkpt>
      <trkpt lat="44.86901" lon="0.97186">
        <ele>134.4</ele>
        <time>2022-08-11T16:55:20Z</time>
      </trkpt>
      <trkpt lat="44.86899" lon="0.97195">
        <ele>133.4</ele>
        <time>2022-08-11T16:55:23Z</time>
      </trkpt>
      <trkpt lat="44.86896" lon="0.97202">
        <ele>132.4</ele>
        <time>2022-08-11T16:55:25Z</time>
      </trkpt>
      <trkpt lat="44.86896" lon="0.97209">
        <ele>131.4</ele>
        <time>2022-08-11T16:55:27Z</time>
      </trkpt>
      <trkpt lat="44.86895" lon="0.97217">
        <ele>131.4</ele>
        <time>2022-08-11T16:55:29Z</time>
      </trkpt>
      <trkpt lat="44.86894" lon="0.97224">
        <ele>130.4</ele>
        <time>2022-08-11T16:55:31Z</time>
      </trkpt>
      <trkpt lat="44.86894" lon="0.97231">
        <ele>129.4</ele>
        <time>2022-08-11T16:55:33Z</time>
      </trkpt>
      <trkpt lat="44.86894" lon="0.9724">
        <ele>129.4</ele>
        <time>2022-08-11T16:55:36Z</time>
      </trkpt>
      <trkpt lat="44.86896" lon="0.9725">
        <ele>129.4</ele>
        <time>2022-08-11T16:55:39Z</time>
      </trkpt>
      <trkpt lat="44.86897" lon="0.97257">
        <ele>128.4</ele>
        <time>2022-08-11T16:55:41Z</time>
      </trkpt>
      <trkpt lat="44.86898" lon="0.97263">
        <ele>128.4</ele>
        <time>2022-08-11T16:55:43Z</time>
      </trkpt>
      <trkpt lat="44.86898" lon="0.97269">
        <ele>128.4</ele>
        <time>2022-08-11T16:55:45Z</time>
      </trkpt>
      <trkpt lat="44.869" lon="0.97278">
        <ele>129.4</ele>
        <time>2022-08-11T16:55:48Z</time>
      </trkpt>
      <trkpt lat="44.869" lon="0.97287">
        <ele>129.4</ele>
        <time>2022-08-11T16:55:51Z</time>
      </trkpt>
      <trkpt lat="44.86902" lon="0.97294">
        <ele>127.4</ele>
        <time>2022-08-11T16:55:53Z</time>
      </trkpt>
      <trkpt lat="44.86901" lon="0.97303">
        <ele>125.4</ele>
        <time>2022-08-11T16:55:55Z</time>
      </trkpt>
      <trkpt lat="44.869" lon="0.97314">
        <ele>124.4</ele>
        <time>2022-08-11T16:55:57Z</time>
      </trkpt>
      <trkpt lat="44.869" lon="0.97325">
        <ele>128.4</ele>
        <time>2022-08-11T16:55:59Z</time>
      </trkpt>
      <trkpt lat="44.869" lon="0.97334">
        <ele>127.4</ele>
        <time>2022-08-11T16:56:01Z</time>
      </trkpt>
      <trkpt lat="44.86899" lon="0.97341">
        <ele>127.4</ele>
        <time>2022-08-11T16:56:03Z</time>
      </trkpt>
      <trkpt lat="44.86897" lon="0.97347">
        <ele>127.4</ele>
        <time>2022-08-11T16:56:05Z</time>
      </trkpt>
      <trkpt lat="44.86894" lon="0.97354">
        <ele>128.4</ele>
        <time>2022-08-11T16:56:07Z</time>
      </trkpt>
      <trkpt lat="44.86891" lon="0.97361">
        <ele>129.4</ele>
        <time>2022-08-11T16:56:09Z</time>
      </trkpt>
      <trkpt lat="44.86887" lon="0.97369">
        <ele>130.4</ele>
        <time>2022-08-11T16:56:11Z</time>
      </trkpt>
      <trkpt lat="44.86887" lon="0.97376">
        <ele>130.4</ele>
        <time>2022-08-11T16:56:13Z</time>
      </trkpt>
      <trkpt lat="44.86887" lon="0.97385">
        <ele>130.4</ele>
        <time>2022-08-11T16:56:15Z</time>
      </trkpt>
      <trkpt lat="44.86886" lon="0.97393">
        <ele>130.4</ele>
        <time>2022-08-11T16:56:17Z</time>
      </trkpt>
      <trkpt lat="44.86885" lon="0.974">
        <ele>131.4</ele>
        <time>2022-08-11T16:56:19Z</time>
      </trkpt>
      <trkpt lat="44.86884" lon="0.97407">
        <ele>132.4</ele>
        <time>2022-08-11T16:56:21Z</time>
      </trkpt>
      <trkpt lat="44.86883" lon="0.97415">
        <ele>133.4</ele>
        <time>2022-08-11T16:56:23Z</time>
      </trkpt>
      <trkpt lat="44.86881" lon="0.97422">
        <ele>134.4</ele>
        <time>2022-08-11T16:56:25Z</time>
      </trkpt>
      <trkpt lat="44.86879" lon="0.97433">
        <ele>136.4</ele>
        <time>2022-08-11T16:56:28Z</time>
      </trkpt>
      <trkpt lat="44.86878" lon="0.97441">
        <ele>136.4</ele>
        <time>2022-08-11T16:56:30Z</time>
      </trkpt>
      <trkpt lat="44.86876" lon="0.97448">
        <ele>138.4</ele>
        <time>2022-08-11T16:56:32Z</time>
      </trkpt>
      <trkpt lat="44.86876" lon="0.97454">
        <ele>139.4</ele>
        <time>2022-08-11T16:56:34Z</time>
      </trkpt>
      <trkpt lat="44.86875" lon="0.97461">
        <ele>140.4</ele>
        <time>2022-08-11T16:56:36Z</time>
      </trkpt>
      <trkpt lat="44.86873" lon="0.97469">
        <ele>141.4</ele>
        <time>2022-08-11T16:56:38Z</time>
      </trkpt>
      <trkpt lat="44.8687" lon="0.97475">
        <ele>141.4</ele>
        <time>2022-08-11T16:56:40Z</time>
      </trkpt>
      <trkpt lat="44.86869" lon="0.97481">
        <ele>142.4</ele>
        <time>2022-08-11T16:56:42Z</time>
      </trkpt>
      <trkpt lat="44.86868" lon="0.97488">
        <ele>143.4</ele>
        <time>2022-08-11T16:56:44Z</time>
      </trkpt>
      <trkpt lat="44.86866" lon="0.97494">
        <ele>144.4</ele>
        <time>2022-08-11T16:56:46Z</time>
      </trkpt>
      <trkpt lat="44.86864" lon="0.97501">
        <ele>144.4</ele>
        <time>2022-08-11T16:56:48Z</time>
      </trkpt>
      <trkpt lat="44.86862" lon="0.97507">
        <ele>145.4</ele>
        <time>2022-08-11T16:56:50Z</time>
      </trkpt>
      <trkpt lat="44.86859" lon="0.97515">
        <ele>146.4</ele>
        <time>2022-08-11T16:56:52Z</time>
      </trkpt>
      <trkpt lat="44.86857" lon="0.97521">
        <ele>146.4</ele>
        <time>2022-08-11T16:56:54Z</time>
      </trkpt>
      <trkpt lat="44.86855" lon="0.97528">
        <ele>146.4</ele>
        <time>2022-08-11T16:56:56Z</time>
      </trkpt>
      <trkpt lat="44.86852" lon="0.97537">
        <ele>147.4</ele>
        <time>2022-08-11T16:56:59Z</time>
      </trkpt>
      <trkpt lat="44.86851" lon="0.97544">
        <ele>149.4</ele>
        <time>2022-08-11T16:57:01Z</time>
      </trkpt>
      <trkpt lat="44.86848" lon="0.9755">
        <ele>150.4</ele>
        <time>2022-08-11T16:57:03Z</time>
      </trkpt>
      <trkpt lat="44.86846" lon="0.97556">
        <ele>150.4</ele>
        <time>2022-08-11T16:57:05Z</time>
      </trkpt>
      <trkpt lat="44.86842" lon="0.97565">
        <ele>151.4</ele>
        <time>2022-08-11T16:57:08Z</time>
      </trkpt>
      <trkpt lat="44.8684" lon="0.97571">
        <ele>151.4</ele>
        <time>2022-08-11T16:57:10Z</time>
      </trkpt>
      <trkpt lat="44.86838" lon="0.97579">
        <ele>153.4</ele>
        <time>2022-08-11T16:57:13Z</time>
      </trkpt>
      <trkpt lat="44.86836" lon="0.97585">
        <ele>154.4</ele>
        <time>2022-08-11T16:57:15Z</time>
      </trkpt>
      <trkpt lat="44.86834" lon="0.97592">
        <ele>154.4</ele>
        <time>2022-08-11T16:57:17Z</time>
      </trkpt>
      <trkpt lat="44.86832" lon="0.97598">
        <ele>155.4</ele>
        <time>2022-08-11T16:57:19Z</time>
      </trkpt>
      <trkpt lat="44.8683" lon="0.97607">
        <ele>156.4</ele>
        <time>2022-08-11T16:57:22Z</time>
      </trkpt>
      <trkpt lat="44.86828" lon="0.97613">
        <ele>157.4</ele>
        <time>2022-08-11T16:57:24Z</time>
      </trkpt>
      <trkpt lat="44.86826" lon="0.9762">
        <ele>157.4</ele>
        <time>2022-08-11T16:57:27Z</time>
      </trkpt>
      <trkpt lat="44.86824" lon="0.97627">
        <ele>158.4</ele>
        <time>2022-08-11T16:57:30Z</time>
      </trkpt>
      <trkpt lat="44.86822" lon="0.97635">
        <ele>158.4</ele>
        <time>2022-08-11T16:57:33Z</time>
      </trkpt>
      <trkpt lat="44.86821" lon="0.97643">
        <ele>158.4</ele>
        <time>2022-08-11T16:57:36Z</time>
      </trkpt>
      <trkpt lat="44.86821" lon="0.97649">
        <ele>158.4</ele>
        <time>2022-08-11T16:57:39Z</time>
      </trkpt>
      <trkpt lat="44.86821" lon="0.97656">
        <ele>158.4</ele>
        <time>2022-08-11T16:57:42Z</time>
      </trkpt>
      <trkpt lat="44.86821" lon="0.97663">
        <ele>159.4</ele>
        <time>2022-08-11T16:57:45Z</time>
      </trkpt>
      <trkpt lat="44.86821" lon="0.97671">
        <ele>161.4</ele>
        <time>2022-08-11T16:57:48Z</time>
      </trkpt>
      <trkpt lat="44.86822" lon="0.97678">
        <ele>162.4</ele>
        <time>2022-08-11T16:57:51Z</time>
      </trkpt>
      <trkpt lat="44.86822" lon="0.97686">
        <ele>163.4</ele>
        <time>2022-08-11T16:57:54Z</time>
      </trkpt>
      <trkpt lat="44.86821" lon="0.97694">
        <ele>164.4</ele>
        <time>2022-08-11T16:57:57Z</time>
      </trkpt>
      <trkpt lat="44.86821" lon="0.977">
        <ele>164.4</ele>
        <time>2022-08-11T16:58:00Z</time>
      </trkpt>
      <trkpt lat="44.86821" lon="0.97708">
        <ele>165.4</ele>
        <time>2022-08-11T16:58:03Z</time>
      </trkpt>
      <trkpt lat="44.8682" lon="0.97714">
        <ele>166.4</ele>
        <time>2022-08-11T16:58:06Z</time>
      </trkpt>
      <trkpt lat="44.8682" lon="0.97721">
        <ele>166.4</ele>
        <time>2022-08-11T16:58:09Z</time>
      </trkpt>
      <trkpt lat="44.8682" lon="0.97729">
        <ele>168.4</ele>
        <time>2022-08-11T16:58:13Z</time>
      </trkpt>
      <trkpt lat="44.8682" lon="0.97735">
        <ele>168.4</ele>
        <time>2022-08-11T16:58:16Z</time>
      </trkpt>
      <trkpt lat="44.86821" lon="0.97742">
        <ele>169.4</ele>
        <time>2022-08-11T16:58:19Z</time>
      </trkpt>
      <trkpt lat="44.86821" lon="0.9775">
        <ele>169.4</ele>
        <time>2022-08-11T16:58:23Z</time>
      </trkpt>
      <trkpt lat="44.8682" lon="0.97759">
        <ele>170.4</ele>
        <time>2022-08-11T16:58:27Z</time>
      </trkpt>
      <trkpt lat="44.8682" lon="0.97766">
        <ele>168.4</ele>
        <time>2022-08-11T16:58:30Z</time>
      </trkpt>
      <trkpt lat="44.86819" lon="0.97774">
        <ele>168.4</ele>
        <time>2022-08-11T16:58:33Z</time>
      </trkpt>
      <trkpt lat="44.86817" lon="0.97781">
        <ele>168.4</ele>
        <time>2022-08-11T16:58:36Z</time>
      </trkpt>
      <trkpt lat="44.86812" lon="0.97785">
        <ele>169.4</ele>
        <time>2022-08-11T16:58:39Z</time>
      </trkpt>
      <trkpt lat="44.86807" lon="0.97784">
        <ele>169.4</ele>
        <time>2022-08-11T16:58:41Z</time>
      </trkpt>
      <trkpt lat="44.86801" lon="0.97782">
        <ele>171.4</ele>
        <time>2022-08-11T16:58:43Z</time>
      </trkpt>
      <trkpt lat="44.86798" lon="0.97778">
        <ele>171.4</ele>
        <time>2022-08-11T16:58:45Z</time>
      </trkpt>
      <trkpt lat="44.86793" lon="0.97778">
        <ele>172.4</ele>
        <time>2022-08-11T16:58:48Z</time>
      </trkpt>
      <trkpt lat="44.86787" lon="0.97777">
        <ele>172.4</ele>
        <time>2022-08-11T16:58:51Z</time>
      </trkpt>
      <trkpt lat="44.86782" lon="0.97779">
        <ele>173.4</ele>
        <time>2022-08-11T16:58:53Z</time>
      </trkpt>
      <trkpt lat="44.86777" lon="0.9778">
        <ele>173.4</ele>
        <time>2022-08-11T16:58:55Z</time>
      </trkpt>
      <trkpt lat="44.8677" lon="0.97782">
        <ele>174.4</ele>
        <time>2022-08-11T16:58:58Z</time>
      </trkpt>
      <trkpt lat="44.86765" lon="0.97784">
        <ele>176.4</ele>
        <time>2022-08-11T16:59:01Z</time>
      </trkpt>
      <trkpt lat="44.86759" lon="0.97786">
        <ele>177.4</ele>
        <time>2022-08-11T16:59:04Z</time>
      </trkpt>
      <trkpt lat="44.86753" lon="0.97787">
        <ele>178.4</ele>
        <time>2022-08-11T16:59:07Z</time>
      </trkpt>
      <trkpt lat="44.86748" lon="0.97788">
        <ele>179.4</ele>
        <time>2022-08-11T16:59:10Z</time>
      </trkpt>
      <trkpt lat="44.86743" lon="0.9779">
        <ele>180.4</ele>
        <time>2022-08-11T16:59:13Z</time>
      </trkpt>
      <trkpt lat="44.86738" lon="0.97791">
        <ele>181.4</ele>
        <time>2022-08-11T16:59:16Z</time>
      </trkpt>
      <trkpt lat="44.86733" lon="0.97792">
        <ele>182.4</ele>
        <time>2022-08-11T16:59:19Z</time>
      </trkpt>
      <trkpt lat="44.86729" lon="0.97794">
        <ele>183.4</ele>
        <time>2022-08-11T16:59:22Z</time>
      </trkpt>
      <trkpt lat="44.86723" lon="0.97795">
        <ele>184.4</ele>
        <time>2022-08-11T16:59:26Z</time>
      </trkpt>
      <trkpt lat="44.86718" lon="0.97796">
        <ele>185.4</ele>
        <time>2022-08-11T16:59:30Z</time>
      </trkpt>
      <trkpt lat="44.86713" lon="0.97798">
        <ele>185.4</ele>
        <time>2022-08-11T16:59:34Z</time>
      </trkpt>
      <trkpt lat="44.86708" lon="0.97799">
        <ele>185.4</ele>
        <time>2022-08-11T16:59:38Z</time>
      </trkpt>
      <trkpt lat="44.86702" lon="0.978">
        <ele>186.4</ele>
        <time>2022-08-11T16:59:42Z</time>
      </trkpt>
      <trkpt lat="44.86697" lon="0.97802">
        <ele>187.4</ele>
        <time>2022-08-11T16:59:46Z</time>
      </trkpt>
      <trkpt lat="44.86691" lon="0.97803">
        <ele>190.4</ele>
        <time>2022-08-11T16:59:50Z</time>
      </trkpt>
      <trkpt lat="44.86687" lon="0.97806">
        <ele>189.4</ele>
        <time>2022-08-11T16:59:53Z</time>
      </trkpt>
      <trkpt lat="44.86682" lon="0.97807">
        <ele>189.4</ele>
        <time>2022-08-11T16:59:57Z</time>
      </trkpt>
      <trkpt lat="44.86677" lon="0.97804">
        <ele>188.4</ele>
        <time>2022-08-11T17:00:02Z</time>
      </trkpt>
      <trkpt lat="44.86675" lon="0.97798">
        <ele>188.4</ele>
        <time>2022-08-11T17:00:07Z</time>
      </trkpt>
      <trkpt lat="44.8667" lon="0.97795">
        <ele>189.4</ele>
        <time>2022-08-11T17:00:39Z</time>
      </trkpt>
      <trkpt lat="44.86667" lon="0.9779">
        <ele>188.4</ele>
        <time>2022-08-11T17:00:43Z</time>
      </trkpt>
      <trkpt lat="44.86663" lon="0.97783">
        <ele>188.4</ele>
        <time>2022-08-11T17:00:46Z</time>
      </trkpt>
      <trkpt lat="44.8666" lon="0.97775">
        <ele>187.4</ele>
        <time>2022-08-11T17:00:49Z</time>
      </trkpt>
      <trkpt lat="44.86659" lon="0.97769">
        <ele>187.4</ele>
        <time>2022-08-11T17:00:51Z</time>
      </trkpt>
      <trkpt lat="44.86656" lon="0.97761">
        <ele>187.4</ele>
        <time>2022-08-11T17:00:53Z</time>
      </trkpt>
      <trkpt lat="44.86655" lon="0.97753">
        <ele>187.4</ele>
        <time>2022-08-11T17:00:55Z</time>
      </trkpt>
      <trkpt lat="44.86653" lon="0.97747">
        <ele>186.4</ele>
        <time>2022-08-11T17:00:57Z</time>
      </trkpt>
      <trkpt lat="44.8665" lon="0.97739">
        <ele>186.4</ele>
        <time>2022-08-11T17:01:00Z</time>
      </trkpt>
      <trkpt lat="44.86647" lon="0.9773">
        <ele>183.4</ele>
        <time>2022-08-11T17:01:03Z</time>
      </trkpt>
      <trkpt lat="44.86644" lon="0.97723">
        <ele>182.4</ele>
        <time>2022-08-11T17:01:05Z</time>
      </trkpt>
      <trkpt lat="44.86642" lon="0.97716">
        <ele>182.4</ele>
        <time>2022-08-11T17:01:07Z</time>
      </trkpt>
      <trkpt lat="44.8664" lon="0.97709">
        <ele>182.4</ele>
        <time>2022-08-11T17:01:09Z</time>
      </trkpt>
      <trkpt lat="44.86638" lon="0.97701">
        <ele>182.4</ele>
        <time>2022-08-11T17:01:11Z</time>
      </trkpt>
      <trkpt lat="44.86637" lon="0.97695">
        <ele>182.4</ele>
        <time>2022-08-11T17:01:13Z</time>
      </trkpt>
      <trkpt lat="44.86636" lon="0.97688">
        <ele>182.4</ele>
        <time>2022-08-11T17:01:16Z</time>
      </trkpt>
      <trkpt lat="44.86636" lon="0.97681">
        <ele>182.4</ele>
        <time>2022-08-11T17:01:19Z</time>
      </trkpt>
      <trkpt lat="44.86635" lon="0.97673">
        <ele>182.4</ele>
        <time>2022-08-11T17:01:21Z</time>
      </trkpt>
      <trkpt lat="44.86635" lon="0.97665">
        <ele>183.4</ele>
        <time>2022-08-11T17:01:23Z</time>
      </trkpt>
      <trkpt lat="44.86635" lon="0.97658">
        <ele>182.4</ele>
        <time>2022-08-11T17:01:25Z</time>
      </trkpt>
      <trkpt lat="44.86635" lon="0.97651">
        <ele>182.4</ele>
        <time>2022-08-11T17:01:27Z</time>
      </trkpt>
      <trkpt lat="44.86634" lon="0.97643">
        <ele>182.4</ele>
        <time>2022-08-11T17:01:29Z</time>
      </trkpt>
      <trkpt lat="44.86635" lon="0.97636">
        <ele>182.4</ele>
        <time>2022-08-11T17:01:31Z</time>
      </trkpt>
      <trkpt lat="44.86635" lon="0.97628">
        <ele>181.4</ele>
        <time>2022-08-11T17:01:34Z</time>
      </trkpt>
      <trkpt lat="44.86635" lon="0.97621">
        <ele>180.4</ele>
        <time>2022-08-11T17:01:37Z</time>
      </trkpt>
      <trkpt lat="44.86636" lon="0.97612">
        <ele>179.4</ele>
        <time>2022-08-11T17:01:40Z</time>
      </trkpt>
      <trkpt lat="44.86637" lon="0.97605">
        <ele>178.4</ele>
        <time>2022-08-11T17:01:43Z</time>
      </trkpt>
      <trkpt lat="44.86639" lon="0.97597">
        <ele>177.4</ele>
        <time>2022-08-11T17:01:46Z</time>
      </trkpt>
      <trkpt lat="44.8664" lon="0.97587">
        <ele>177.4</ele>
        <time>2022-08-11T17:01:49Z</time>
      </trkpt>
      <trkpt lat="44.8664" lon="0.9758">
        <ele>176.4</ele>
        <time>2022-08-11T17:01:52Z</time>
      </trkpt>
      <trkpt lat="44.8664" lon="0.9757">
        <ele>176.4</ele>
        <time>2022-08-11T17:01:55Z</time>
      </trkpt>
      <trkpt lat="44.8664" lon="0.97562">
        <ele>175.4</ele>
        <time>2022-08-11T17:01:57Z</time>
      </trkpt>
      <trkpt lat="44.8664" lon="0.97554">
        <ele>175.4</ele>
        <time>2022-08-11T17:01:59Z</time>
      </trkpt>
      <trkpt lat="44.86639" lon="0.97547">
        <ele>177.4</ele>
        <time>2022-08-11T17:02:01Z</time>
      </trkpt>
      <trkpt lat="44.86637" lon="0.97539">
        <ele>178.4</ele>
        <time>2022-08-11T17:02:03Z</time>
      </trkpt>
      <trkpt lat="44.86634" lon="0.97532">
        <ele>178.4</ele>
        <time>2022-08-11T17:02:06Z</time>
      </trkpt>
      <trkpt lat="44.86633" lon="0.97523">
        <ele>179.4</ele>
        <time>2022-08-11T17:02:07Z</time>
      </trkpt>
      <trkpt lat="44.86631" lon="0.97516">
        <ele>180.4</ele>
        <time>2022-08-11T17:02:09Z</time>
      </trkpt>
      <trkpt lat="44.86628" lon="0.97509">
        <ele>181.4</ele>
        <time>2022-08-11T17:02:11Z</time>
      </trkpt>
      <trkpt lat="44.86624" lon="0.97502">
        <ele>182.4</ele>
        <time>2022-08-11T17:02:13Z</time>
      </trkpt>
      <trkpt lat="44.8662" lon="0.97495">
        <ele>184.4</ele>
        <time>2022-08-11T17:02:15Z</time>
      </trkpt>
      <trkpt lat="44.86616" lon="0.97485">
        <ele>187.4</ele>
        <time>2022-08-11T17:02:18Z</time>
      </trkpt>
      <trkpt lat="44.86612" lon="0.97477">
        <ele>188.4</ele>
        <time>2022-08-11T17:02:20Z</time>
      </trkpt>
      <trkpt lat="44.86607" lon="0.97467">
        <ele>190.4</ele>
        <time>2022-08-11T17:02:23Z</time>
      </trkpt>
      <trkpt lat="44.86604" lon="0.97461">
        <ele>191.4</ele>
        <time>2022-08-11T17:02:25Z</time>
      </trkpt>
      <trkpt lat="44.86599" lon="0.97453">
        <ele>192.4</ele>
        <time>2022-08-11T17:02:28Z</time>
      </trkpt>
      <trkpt lat="44.86595" lon="0.97449">
        <ele>192.4</ele>
        <time>2022-08-11T17:02:30Z</time>
      </trkpt>
      <trkpt lat="44.86591" lon="0.97445">
        <ele>192.4</ele>
        <time>2022-08-11T17:02:32Z</time>
      </trkpt>
      <trkpt lat="44.86587" lon="0.9744">
        <ele>193.4</ele>
        <time>2022-08-11T17:02:34Z</time>
      </trkpt>
      <trkpt lat="44.86583" lon="0.97435">
        <ele>193.4</ele>
        <time>2022-08-11T17:02:36Z</time>
      </trkpt>
      <trkpt lat="44.86579" lon="0.97432">
        <ele>193.4</ele>
        <time>2022-08-11T17:02:38Z</time>
      </trkpt>
      <trkpt lat="44.86575" lon="0.97429">
        <ele>192.4</ele>
        <time>2022-08-11T17:02:40Z</time>
      </trkpt>
      <trkpt lat="44.86568" lon="0.97427">
        <ele>192.4</ele>
        <time>2022-08-11T17:02:43Z</time>
      </trkpt>
      <trkpt lat="44.86563" lon="0.97426">
        <ele>192.4</ele>
        <time>2022-08-11T17:02:45Z</time>
      </trkpt>
      <trkpt lat="44.86559" lon="0.97424">
        <ele>194.4</ele>
        <time>2022-08-11T17:02:47Z</time>
      </trkpt>
      <trkpt lat="44.86552" lon="0.97424">
        <ele>197.4</ele>
        <time>2022-08-11T17:02:50Z</time>
      </trkpt>
      <trkpt lat="44.86546" lon="0.97425">
        <ele>198.4</ele>
        <time>2022-08-11T17:02:53Z</time>
      </trkpt>
      <trkpt lat="44.86541" lon="0.9743">
        <ele>199.4</ele>
        <time>2022-08-11T17:02:56Z</time>
      </trkpt>
      <trkpt lat="44.8654" lon="0.97437">
        <ele>200.4</ele>
        <time>2022-08-11T17:02:59Z</time>
      </trkpt>
      <trkpt lat="44.86539" lon="0.97446">
        <ele>199.4</ele>
        <time>2022-08-11T17:03:02Z</time>
      </trkpt>
      <trkpt lat="44.86538" lon="0.97454">
        <ele>199.4</ele>
        <time>2022-08-11T17:03:05Z</time>
      </trkpt>
      <trkpt lat="44.86536" lon="0.97464">
        <ele>199.4</ele>
        <time>2022-08-11T17:03:08Z</time>
      </trkpt>
      <trkpt lat="44.86535" lon="0.97471">
        <ele>199.4</ele>
        <time>2022-08-11T17:03:10Z</time>
      </trkpt>
      <trkpt lat="44.86533" lon="0.97479">
        <ele>198.4</ele>
        <time>2022-08-11T17:03:13Z</time>
      </trkpt>
      <trkpt lat="44.86533" lon="0.97486">
        <ele>198.4</ele>
        <time>2022-08-11T17:03:16Z</time>
      </trkpt>
      <trkpt lat="44.86531" lon="0.97493">
        <ele>198.4</ele>
        <time>2022-08-11T17:03:19Z</time>
      </trkpt>
      <trkpt lat="44.8653" lon="0.975">
        <ele>199.4</ele>
        <time>2022-08-11T17:03:23Z</time>
      </trkpt>
      <trkpt lat="44.8653" lon="0.97506">
        <ele>198.4</ele>
        <time>2022-08-11T17:03:25Z</time>
      </trkpt>
      <trkpt lat="44.8653" lon="0.97513">
        <ele>197.4</ele>
        <time>2022-08-11T17:03:28Z</time>
      </trkpt>
      <trkpt lat="44.8653" lon="0.97522">
        <ele>197.4</ele>
        <time>2022-08-11T17:03:32Z</time>
      </trkpt>
      <trkpt lat="44.86528" lon="0.97529">
        <ele>196.4</ele>
        <time>2022-08-11T17:03:35Z</time>
      </trkpt>
      <trkpt lat="44.86525" lon="0.97537">
        <ele>196.4</ele>
        <time>2022-08-11T17:03:38Z</time>
      </trkpt>
      <trkpt lat="44.86522" lon="0.97543">
        <ele>196.4</ele>
        <time>2022-08-11T17:03:40Z</time>
      </trkpt>
      <trkpt lat="44.86519" lon="0.97551">
        <ele>198.4</ele>
        <time>2022-08-11T17:03:43Z</time>
      </trkpt>
      <trkpt lat="44.86516" lon="0.97558">
        <ele>199.4</ele>
        <time>2022-08-11T17:03:46Z</time>
      </trkpt>
      <trkpt lat="44.86513" lon="0.97565">
        <ele>202.4</ele>
        <time>2022-08-11T17:03:49Z</time>
      </trkpt>
      <trkpt lat="44.86509" lon="0.97575">
        <ele>202.4</ele>
        <time>2022-08-11T17:03:53Z</time>
      </trkpt>
      <trkpt lat="44.86507" lon="0.9758">
        <ele>202.4</ele>
        <time>2022-08-11T17:03:55Z</time>
      </trkpt>
      <trkpt lat="44.86504" lon="0.97588">
        <ele>203.4</ele>
        <time>2022-08-11T17:03:57Z</time>
      </trkpt>
      <trkpt lat="44.86501" lon="0.97596">
        <ele>202.4</ele>
        <time>2022-08-11T17:03:59Z</time>
      </trkpt>
      <trkpt lat="44.86499" lon="0.97604">
        <ele>203.4</ele>
        <time>2022-08-11T17:04:01Z</time>
      </trkpt>
      <trkpt lat="44.86496" lon="0.97612">
        <ele>202.4</ele>
        <time>2022-08-11T17:04:03Z</time>
      </trkpt>
      <trkpt lat="44.86492" lon="0.9762">
        <ele>202.4</ele>
        <time>2022-08-11T17:04:05Z</time>
      </trkpt>
      <trkpt lat="44.8649" lon="0.97629">
        <ele>203.4</ele>
        <time>2022-08-11T17:04:07Z</time>
      </trkpt>
      <trkpt lat="44.86486" lon="0.97638">
        <ele>203.4</ele>
        <time>2022-08-11T17:04:09Z</time>
      </trkpt>
      <trkpt lat="44.86483" lon="0.97648">
        <ele>205.4</ele>
        <time>2022-08-11T17:04:11Z</time>
      </trkpt>
      <trkpt lat="44.86479" lon="0.97659">
        <ele>206.4</ele>
        <time>2022-08-11T17:04:13Z</time>
      </trkpt>
      <trkpt lat="44.86476" lon="0.97665">
        <ele>206.4</ele>
        <time>2022-08-11T17:04:14Z</time>
      </trkpt>
      <trkpt lat="44.86473" lon="0.9767">
        <ele>206.4</ele>
        <time>2022-08-11T17:04:15Z</time>
      </trkpt>
      <trkpt lat="44.8647" lon="0.97676">
        <ele>206.4</ele>
        <time>2022-08-11T17:04:16Z</time>
      </trkpt>
      <trkpt lat="44.86468" lon="0.97682">
        <ele>206.4</ele>
        <time>2022-08-11T17:04:17Z</time>
      </trkpt>
      <trkpt lat="44.86466" lon="0.97687">
        <ele>206.4</ele>
        <time>2022-08-11T17:04:18Z</time>
      </trkpt>
      <trkpt lat="44.86464" lon="0.97693">
        <ele>206.4</ele>
        <time>2022-08-11T17:04:19Z</time>
      </trkpt>
      <trkpt lat="44.86461" lon="0.97699">
        <ele>206.4</ele>
        <time>2022-08-11T17:04:20Z</time>
      </trkpt>
      <trkpt lat="44.86457" lon="0.97708">
        <ele>206.4</ele>
        <time>2022-08-11T17:04:22Z</time>
      </trkpt>
      <trkpt lat="44.86455" lon="0.97718">
        <ele>206.4</ele>
        <time>2022-08-11T17:04:24Z</time>
      </trkpt>
      <trkpt lat="44.86456" lon="0.97727">
        <ele>206.4</ele>
        <time>2022-08-11T17:04:26Z</time>
      </trkpt>
      <trkpt lat="44.86456" lon="0.97736">
        <ele>205.4</ele>
        <time>2022-08-11T17:04:29Z</time>
      </trkpt>
      <trkpt lat="44.86458" lon="0.97748">
        <ele>204.4</ele>
        <time>2022-08-11T17:04:33Z</time>
      </trkpt>
      <trkpt lat="44.86459" lon="0.97754">
        <ele>204.4</ele>
        <time>2022-08-11T17:04:35Z</time>
      </trkpt>
      <trkpt lat="44.86461" lon="0.97764">
        <ele>204.4</ele>
        <time>2022-08-11T17:04:38Z</time>
      </trkpt>
      <trkpt lat="44.86463" lon="0.9777">
        <ele>204.4</ele>
        <time>2022-08-11T17:04:40Z</time>
      </trkpt>
      <trkpt lat="44.86466" lon="0.9778">
        <ele>205.4</ele>
        <time>2022-08-11T17:04:43Z</time>
      </trkpt>
      <trkpt lat="44.86467" lon="0.97786">
        <ele>204.4</ele>
        <time>2022-08-11T17:04:45Z</time>
      </trkpt>
      <trkpt lat="44.86469" lon="0.97793">
        <ele>204.4</ele>
        <time>2022-08-11T17:04:47Z</time>
      </trkpt>
      <trkpt lat="44.86471" lon="0.97801">
        <ele>204.4</ele>
        <time>2022-08-11T17:04:49Z</time>
      </trkpt>
      <trkpt lat="44.86473" lon="0.97809">
        <ele>204.4</ele>
        <time>2022-08-11T17:04:51Z</time>
      </trkpt>
      <trkpt lat="44.86476" lon="0.97817">
        <ele>205.4</ele>
        <time>2022-08-11T17:04:53Z</time>
      </trkpt>
      <trkpt lat="44.86478" lon="0.97826">
        <ele>205.4</ele>
        <time>2022-08-11T17:04:55Z</time>
      </trkpt>
      <trkpt lat="44.86481" lon="0.97834">
        <ele>205.4</ele>
        <time>2022-08-11T17:04:57Z</time>
      </trkpt>
      <trkpt lat="44.86484" lon="0.97843">
        <ele>205.4</ele>
        <time>2022-08-11T17:04:59Z</time>
      </trkpt>
      <trkpt lat="44.86486" lon="0.97852">
        <ele>205.4</ele>
        <time>2022-08-11T17:05:01Z</time>
      </trkpt>
      <trkpt lat="44.86488" lon="0.97861">
        <ele>205.4</ele>
        <time>2022-08-11T17:05:03Z</time>
      </trkpt>
      <trkpt lat="44.8649" lon="0.97869">
        <ele>205.4</ele>
        <time>2022-08-11T17:05:05Z</time>
      </trkpt>
      <trkpt lat="44.86493" lon="0.97877">
        <ele>205.4</ele>
        <time>2022-08-11T17:05:07Z</time>
      </trkpt>
      <trkpt lat="44.86495" lon="0.97884">
        <ele>204.4</ele>
        <time>2022-08-11T17:05:09Z</time>
      </trkpt>
      <trkpt lat="44.86496" lon="0.97891">
        <ele>204.4</ele>
        <time>2022-08-11T17:05:12Z</time>
      </trkpt>
      <trkpt lat="44.865" lon="0.97895">
        <ele>202.4</ele>
        <time>2022-08-11T17:05:38Z</time>
      </trkpt>
      <trkpt lat="44.86504" lon="0.97895">
        <ele>206.4</ele>
        <time>2022-08-11T17:05:48Z</time>
      </trkpt>
      <trkpt lat="44.865" lon="0.97899">
        <ele>209.4</ele>
        <time>2022-08-11T17:10:00Z</time>
      </trkpt>
      <trkpt lat="44.865" lon="0.97907">
        <ele>210.4</ele>
        <time>2022-08-11T17:11:55Z</time>
      </trkpt>
      <trkpt lat="44.86503" lon="0.97912">
        <ele>209.4</ele>
        <time>2022-08-11T17:11:57Z</time>
      </trkpt>
      <trkpt lat="44.86506" lon="0.97917">
        <ele>208.4</ele>
        <time>2022-08-11T17:11:59Z</time>
      </trkpt>
      <trkpt lat="44.86508" lon="0.97925">
        <ele>208.4</ele>
        <time>2022-08-11T17:12:02Z</time>
      </trkpt>
      <trkpt lat="44.8651" lon="0.97932">
        <ele>208.4</ele>
        <time>2022-08-11T17:12:04Z</time>
      </trkpt>
      <trkpt lat="44.86512" lon="0.97938">
        <ele>208.4</ele>
        <time>2022-08-11T17:12:06Z</time>
      </trkpt>
      <trkpt lat="44.86515" lon="0.97946">
        <ele>207.4</ele>
        <time>2022-08-11T17:12:09Z</time>
      </trkpt>
      <trkpt lat="44.86519" lon="0.97956">
        <ele>206.4</ele>
        <time>2022-08-11T17:12:13Z</time>
      </trkpt>
      <trkpt lat="44.86522" lon="0.97964">
        <ele>205.4</ele>
        <time>2022-08-11T17:12:16Z</time>
      </trkpt>
      <trkpt lat="44.86524" lon="0.9797">
        <ele>204.4</ele>
        <time>2022-08-11T17:12:18Z</time>
      </trkpt>
      <trkpt lat="44.86525" lon="0.97978">
        <ele>204.4</ele>
        <time>2022-08-11T17:12:20Z</time>
      </trkpt>
      <trkpt lat="44.86527" lon="0.97984">
        <ele>203.4</ele>
        <time>2022-08-11T17:12:22Z</time>
      </trkpt>
      <trkpt lat="44.86528" lon="0.97993">
        <ele>203.4</ele>
        <time>2022-08-11T17:12:25Z</time>
      </trkpt>
      <trkpt lat="44.86531" lon="0.98002">
        <ele>203.4</ele>
        <time>2022-08-11T17:12:28Z</time>
      </trkpt>
      <trkpt lat="44.86533" lon="0.98009">
        <ele>201.4</ele>
        <time>2022-08-11T17:12:30Z</time>
      </trkpt>
      <trkpt lat="44.86534" lon="0.98015">
        <ele>202.4</ele>
        <time>2022-08-11T17:12:32Z</time>
      </trkpt>
      <trkpt lat="44.86536" lon="0.98022">
        <ele>202.4</ele>
        <time>2022-08-11T17:12:34Z</time>
      </trkpt>
      <trkpt lat="44.86537" lon="0.9803">
        <ele>202.4</ele>
        <time>2022-08-11T17:12:37Z</time>
      </trkpt>
      <trkpt lat="44.86535" lon="0.98036">
        <ele>202.4</ele>
        <time>2022-08-11T17:12:40Z</time>
      </trkpt>
      <trkpt lat="44.86536" lon="0.9805">
        <ele>201.4</ele>
        <time>2022-08-11T17:12:44Z</time>
      </trkpt>
      <trkpt lat="44.86538" lon="0.98058">
        <ele>201.4</ele>
        <time>2022-08-11T17:12:46Z</time>
      </trkpt>
      <trkpt lat="44.86541" lon="0.98066">
        <ele>202.4</ele>
        <time>2022-08-11T17:12:48Z</time>
      </trkpt>
      <trkpt lat="44.86542" lon="0.98073">
        <ele>202.4</ele>
        <time>2022-08-11T17:12:50Z</time>
      </trkpt>
      <trkpt lat="44.86543" lon="0.9808">
        <ele>203.4</ele>
        <time>2022-08-11T17:12:52Z</time>
      </trkpt>
      <trkpt lat="44.86543" lon="0.98088">
        <ele>202.4</ele>
        <time>2022-08-11T17:12:54Z</time>
      </trkpt>
      <trkpt lat="44.86544" lon="0.98094">
        <ele>203.4</ele>
        <time>2022-08-11T17:12:56Z</time>
      </trkpt>
      <trkpt lat="44.86546" lon="0.98101">
        <ele>203.4</ele>
        <time>2022-08-11T17:12:59Z</time>
      </trkpt>
      <trkpt lat="44.86549" lon="0.98108">
        <ele>205.4</ele>
        <time>2022-08-11T17:13:02Z</time>
      </trkpt>
      <trkpt lat="44.86552" lon="0.98115">
        <ele>204.4</ele>
        <time>2022-08-11T17:13:05Z</time>
      </trkpt>
      <trkpt lat="44.86555" lon="0.98124">
        <ele>203.4</ele>
        <time>2022-08-11T17:13:08Z</time>
      </trkpt>
      <trkpt lat="44.86558" lon="0.98134">
        <ele>202.4</ele>
        <time>2022-08-11T17:13:12Z</time>
      </trkpt>
      <trkpt lat="44.86562" lon="0.98141">
        <ele>203.4</ele>
        <time>2022-08-11T17:13:15Z</time>
      </trkpt>
      <trkpt lat="44.86563" lon="0.98148">
        <ele>204.4</ele>
        <time>2022-08-11T17:13:18Z</time>
      </trkpt>
      <trkpt lat="44.86565" lon="0.98155">
        <ele>206.4</ele>
        <time>2022-08-11T17:13:21Z</time>
      </trkpt>
      <trkpt lat="44.86567" lon="0.98161">
        <ele>205.4</ele>
        <time>2022-08-11T17:13:23Z</time>
      </trkpt>
      <trkpt lat="44.86569" lon="0.98169">
        <ele>206.4</ele>
        <time>2022-08-11T17:13:26Z</time>
      </trkpt>
      <trkpt lat="44.86572" lon="0.98175">
        <ele>206.4</ele>
        <time>2022-08-11T17:13:29Z</time>
      </trkpt>
      <trkpt lat="44.86578" lon="0.98183">
        <ele>210.4</ele>
        <time>2022-08-11T17:13:33Z</time>
      </trkpt>
      <trkpt lat="44.86581" lon="0.98189">
        <ele>211.4</ele>
        <time>2022-08-11T17:13:36Z</time>
      </trkpt>
      <trkpt lat="44.86584" lon="0.98196">
        <ele>211.4</ele>
        <time>2022-08-11T17:13:39Z</time>
      </trkpt>
      <trkpt lat="44.86588" lon="0.98202">
        <ele>211.4</ele>
        <time>2022-08-11T17:13:42Z</time>
      </trkpt>
      <trkpt lat="44.8659" lon="0.9821">
        <ele>209.4</ele>
        <time>2022-08-11T17:13:45Z</time>
      </trkpt>
      <trkpt lat="44.86593" lon="0.98218">
        <ele>209.4</ele>
        <time>2022-08-11T17:13:47Z</time>
      </trkpt>
      <trkpt lat="44.86598" lon="0.98226">
        <ele>208.4</ele>
        <time>2022-08-11T17:13:49Z</time>
      </trkpt>
      <trkpt lat="44.86601" lon="0.98231">
        <ele>208.4</ele>
        <time>2022-08-11T17:13:50Z</time>
      </trkpt>
      <trkpt lat="44.86605" lon="0.98236">
        <ele>208.4</ele>
        <time>2022-08-11T17:13:51Z</time>
      </trkpt>
      <trkpt lat="44.86616" lon="0.98244">
        <ele>211.4</ele>
        <time>2022-08-11T17:13:54Z</time>
      </trkpt>
      <trkpt lat="44.8662" lon="0.98248">
        <ele>212.4</ele>
        <time>2022-08-11T17:13:55Z</time>
      </trkpt>
      <trkpt lat="44.86625" lon="0.98252">
        <ele>211.4</ele>
        <time>2022-08-11T17:13:56Z</time>
      </trkpt>
      <trkpt lat="44.86629" lon="0.98257">
        <ele>212.4</ele>
        <time>2022-08-11T17:13:57Z</time>
      </trkpt>
      <trkpt lat="44.86635" lon="0.98261">
        <ele>213.4</ele>
        <time>2022-08-11T17:13:58Z</time>
      </trkpt>
      <trkpt lat="44.86642" lon="0.98266">
        <ele>213.4</ele>
        <time>2022-08-11T17:13:59Z</time>
      </trkpt>
      <trkpt lat="44.86649" lon="0.9827">
        <ele>212.4</ele>
        <time>2022-08-11T17:14:00Z</time>
      </trkpt>
      <trkpt lat="44.86657" lon="0.98275">
        <ele>212.4</ele>
        <time>2022-08-11T17:14:01Z</time>
      </trkpt>
      <trkpt lat="44.86663" lon="0.98279">
        <ele>213.4</ele>
        <time>2022-08-11T17:14:02Z</time>
      </trkpt>
      <trkpt lat="44.86671" lon="0.98283">
        <ele>213.4</ele>
        <time>2022-08-11T17:14:03Z</time>
      </trkpt>
      <trkpt lat="44.86678" lon="0.98287">
        <ele>212.4</ele>
        <time>2022-08-11T17:14:04Z</time>
      </trkpt>
      <trkpt lat="44.86685" lon="0.98292">
        <ele>212.4</ele>
        <time>2022-08-11T17:14:05Z</time>
      </trkpt>
      <trkpt lat="44.867" lon="0.98299">
        <ele>212.4</ele>
        <time>2022-08-11T17:14:07Z</time>
      </trkpt>
      <trkpt lat="44.86708" lon="0.98306">
        <ele>212.4</ele>
        <time>2022-08-11T17:14:08Z</time>
      </trkpt>
      <trkpt lat="44.86715" lon="0.98312">
        <ele>213.4</ele>
        <time>2022-08-11T17:14:09Z</time>
      </trkpt>
      <trkpt lat="44.86723" lon="0.98318">
        <ele>213.4</ele>
        <time>2022-08-11T17:14:10Z</time>
      </trkpt>
      <trkpt lat="44.86731" lon="0.98324">
        <ele>214.4</ele>
        <time>2022-08-11T17:14:11Z</time>
      </trkpt>
      <trkpt lat="44.86738" lon="0.98329">
        <ele>214.4</ele>
        <time>2022-08-11T17:14:12Z</time>
      </trkpt>
      <trkpt lat="44.86745" lon="0.98334">
        <ele>214.4</ele>
        <time>2022-08-11T17:14:13Z</time>
      </trkpt>
      <trkpt lat="44.86751" lon="0.9834">
        <ele>214.4</ele>
        <time>2022-08-11T17:14:14Z</time>
      </trkpt>
      <trkpt lat="44.86757" lon="0.98345">
        <ele>214.4</ele>
        <time>2022-08-11T17:14:15Z</time>
      </trkpt>
      <trkpt lat="44.86763" lon="0.98351">
        <ele>214.4</ele>
        <time>2022-08-11T17:14:16Z</time>
      </trkpt>
      <trkpt lat="44.86768" lon="0.98354">
        <ele>214.4</ele>
        <time>2022-08-11T17:14:17Z</time>
      </trkpt>
      <trkpt lat="44.86772" lon="0.98358">
        <ele>214.4</ele>
        <time>2022-08-11T17:14:18Z</time>
      </trkpt>
      <trkpt lat="44.86777" lon="0.98361">
        <ele>214.4</ele>
        <time>2022-08-11T17:14:19Z</time>
      </trkpt>
      <trkpt lat="44.86782" lon="0.98364">
        <ele>215.4</ele>
        <time>2022-08-11T17:14:20Z</time>
      </trkpt>
      <trkpt lat="44.8679" lon="0.98368">
        <ele>215.4</ele>
        <time>2022-08-11T17:14:22Z</time>
      </trkpt>
      <trkpt lat="44.86798" lon="0.98371">
        <ele>215.4</ele>
        <time>2022-08-11T17:14:24Z</time>
      </trkpt>
      <trkpt lat="44.86805" lon="0.98374">
        <ele>215.4</ele>
        <time>2022-08-11T17:14:26Z</time>
      </trkpt>
      <trkpt lat="44.86812" lon="0.98377">
        <ele>216.4</ele>
        <time>2022-08-11T17:14:28Z</time>
      </trkpt>
      <trkpt lat="44.8682" lon="0.9838">
        <ele>215.4</ele>
        <time>2022-08-11T17:14:30Z</time>
      </trkpt>
      <trkpt lat="44.86826" lon="0.98383">
        <ele>214.4</ele>
        <time>2022-08-11T17:14:32Z</time>
      </trkpt>
      <trkpt lat="44.86833" lon="0.98385">
        <ele>214.4</ele>
        <time>2022-08-11T17:14:34Z</time>
      </trkpt>
      <trkpt lat="44.86838" lon="0.98388">
        <ele>214.4</ele>
        <time>2022-08-11T17:14:36Z</time>
      </trkpt>
      <trkpt lat="44.86843" lon="0.98391">
        <ele>214.4</ele>
        <time>2022-08-11T17:14:38Z</time>
      </trkpt>
      <trkpt lat="44.86848" lon="0.98395">
        <ele>214.4</ele>
        <time>2022-08-11T17:14:40Z</time>
      </trkpt>
      <trkpt lat="44.86853" lon="0.98397">
        <ele>214.4</ele>
        <time>2022-08-11T17:14:42Z</time>
      </trkpt>
      <trkpt lat="44.86858" lon="0.984">
        <ele>214.4</ele>
        <time>2022-08-11T17:14:44Z</time>
      </trkpt>
      <trkpt lat="44.86863" lon="0.98404">
        <ele>214.4</ele>
        <time>2022-08-11T17:14:46Z</time>
      </trkpt>
      <trkpt lat="44.86868" lon="0.98407">
        <ele>213.4</ele>
        <time>2022-08-11T17:14:48Z</time>
      </trkpt>
      <trkpt lat="44.86872" lon="0.98411">
        <ele>213.4</ele>
        <time>2022-08-11T17:14:50Z</time>
      </trkpt>
      <trkpt lat="44.86877" lon="0.98414">
        <ele>214.4</ele>
        <time>2022-08-11T17:14:52Z</time>
      </trkpt>
      <trkpt lat="44.86882" lon="0.98418">
        <ele>213.4</ele>
        <time>2022-08-11T17:14:55Z</time>
      </trkpt>
      <trkpt lat="44.86887" lon="0.98421">
        <ele>214.4</ele>
        <time>2022-08-11T17:14:57Z</time>
      </trkpt>
      <trkpt lat="44.86893" lon="0.98425">
        <ele>214.4</ele>
        <time>2022-08-11T17:15:00Z</time>
      </trkpt>
      <trkpt lat="44.86899" lon="0.98429">
        <ele>215.4</ele>
        <time>2022-08-11T17:15:03Z</time>
      </trkpt>
      <trkpt lat="44.86904" lon="0.98433">
        <ele>215.4</ele>
        <time>2022-08-11T17:15:06Z</time>
      </trkpt>
      <trkpt lat="44.8691" lon="0.98436">
        <ele>215.4</ele>
        <time>2022-08-11T17:15:09Z</time>
      </trkpt>
      <trkpt lat="44.86915" lon="0.98439">
        <ele>216.4</ele>
        <time>2022-08-11T17:15:11Z</time>
      </trkpt>
      <trkpt lat="44.86923" lon="0.98443">
        <ele>215.4</ele>
        <time>2022-08-11T17:15:14Z</time>
      </trkpt>
      <trkpt lat="44.86928" lon="0.98445">
        <ele>215.4</ele>
        <time>2022-08-11T17:15:16Z</time>
      </trkpt>
      <trkpt lat="44.86935" lon="0.98448">
        <ele>215.4</ele>
        <time>2022-08-11T17:15:19Z</time>
      </trkpt>
      <trkpt lat="44.8694" lon="0.9845">
        <ele>215.4</ele>
        <time>2022-08-11T17:15:21Z</time>
      </trkpt>
      <trkpt lat="44.86944" lon="0.98454">
        <ele>215.4</ele>
        <time>2022-08-11T17:15:23Z</time>
      </trkpt>
      <trkpt lat="44.86949" lon="0.98457">
        <ele>216.4</ele>
        <time>2022-08-11T17:15:25Z</time>
      </trkpt>
      <trkpt lat="44.86953" lon="0.9846">
        <ele>216.4</ele>
        <time>2022-08-11T17:15:27Z</time>
      </trkpt>
      <trkpt lat="44.86959" lon="0.98464">
        <ele>217.4</ele>
        <time>2022-08-11T17:15:30Z</time>
      </trkpt>
      <trkpt lat="44.86964" lon="0.98468">
        <ele>217.4</ele>
        <time>2022-08-11T17:15:32Z</time>
      </trkpt>
      <trkpt lat="44.86968" lon="0.98474">
        <ele>216.4</ele>
        <time>2022-08-11T17:15:35Z</time>
      </trkpt>
      <trkpt lat="44.86973" lon="0.98478">
        <ele>214.4</ele>
        <time>2022-08-11T17:15:39Z</time>
      </trkpt>
      <trkpt lat="44.86979" lon="0.98478">
        <ele>215.4</ele>
        <time>2022-08-11T17:15:42Z</time>
      </trkpt>
      <trkpt lat="44.86983" lon="0.98484">
        <ele>214.4</ele>
        <time>2022-08-11T17:15:46Z</time>
      </trkpt>
      <trkpt lat="44.86987" lon="0.98487">
        <ele>215.4</ele>
        <time>2022-08-11T17:15:51Z</time>
      </trkpt>
      <trkpt lat="44.86991" lon="0.98492">
        <ele>218.4</ele>
        <time>2022-08-11T17:15:58Z</time>
      </trkpt>
      <trkpt lat="44.86996" lon="0.98495">
        <ele>218.4</ele>
        <time>2022-08-11T17:16:03Z</time>
      </trkpt>
      <trkpt lat="44.87" lon="0.98493">
        <ele>217.4</ele>
        <time>2022-08-11T17:16:09Z</time>
      </trkpt>
      <trkpt lat="44.87005" lon="0.9849">
        <ele>224.4</ele>
        <time>2022-08-11T17:18:22Z</time>
      </trkpt>
      <trkpt lat="44.8701" lon="0.98495">
        <ele>223.4</ele>
        <time>2022-08-11T17:18:29Z</time>
      </trkpt>
      <trkpt lat="44.87013" lon="0.98499">
        <ele>223.4</ele>
        <time>2022-08-11T17:18:32Z</time>
      </trkpt>
      <trkpt lat="44.87018" lon="0.98506">
        <ele>224.4</ele>
        <time>2022-08-11T17:18:35Z</time>
      </trkpt>
      <trkpt lat="44.87023" lon="0.9851">
        <ele>224.4</ele>
        <time>2022-08-11T17:18:37Z</time>
      </trkpt>
      <trkpt lat="44.87028" lon="0.98514">
        <ele>224.4</ele>
        <time>2022-08-11T17:18:39Z</time>
      </trkpt>
      <trkpt lat="44.87033" lon="0.9852">
        <ele>224.4</ele>
        <time>2022-08-11T17:18:41Z</time>
      </trkpt>
      <trkpt lat="44.87038" lon="0.98526">
        <ele>224.4</ele>
        <time>2022-08-11T17:18:43Z</time>
      </trkpt>
      <trkpt lat="44.87043" lon="0.98532">
        <ele>223.4</ele>
        <time>2022-08-11T17:18:45Z</time>
      </trkpt>
      <trkpt lat="44.87047" lon="0.98538">
        <ele>223.4</ele>
        <time>2022-08-11T17:18:47Z</time>
      </trkpt>
      <trkpt lat="44.87051" lon="0.98544">
        <ele>223.4</ele>
        <time>2022-08-11T17:18:49Z</time>
      </trkpt>
      <trkpt lat="44.87055" lon="0.98552">
        <ele>223.4</ele>
        <time>2022-08-11T17:18:51Z</time>
      </trkpt>
      <trkpt lat="44.87058" lon="0.98558">
        <ele>223.4</ele>
        <time>2022-08-11T17:18:53Z</time>
      </trkpt>
      <trkpt lat="44.87061" lon="0.98565">
        <ele>224.4</ele>
        <time>2022-08-11T17:18:55Z</time>
      </trkpt>
      <trkpt lat="44.87064" lon="0.98571">
        <ele>224.4</ele>
        <time>2022-08-11T17:18:57Z</time>
      </trkpt>
      <trkpt lat="44.87066" lon="0.98577">
        <ele>224.4</ele>
        <time>2022-08-11T17:18:59Z</time>
      </trkpt>
      <trkpt lat="44.87067" lon="0.98584">
        <ele>224.4</ele>
        <time>2022-08-11T17:19:02Z</time>
      </trkpt>
      <trkpt lat="44.87071" lon="0.9859">
        <ele>225.4</ele>
        <time>2022-08-11T17:19:07Z</time>
      </trkpt>
      <trkpt lat="44.87072" lon="0.98581">
        <ele>225.4</ele>
        <time>2022-08-11T17:19:19Z</time>
      </trkpt>
      <trkpt lat="44.8707" lon="0.98573">
        <ele>225.4</ele>
        <time>2022-08-11T17:19:21Z</time>
      </trkpt>
      <trkpt lat="44.87066" lon="0.98563">
        <ele>225.4</ele>
        <time>2022-08-11T17:19:23Z</time>
      </trkpt>
      <trkpt lat="44.87061" lon="0.98555">
        <ele>226.4</ele>
        <time>2022-08-11T17:19:25Z</time>
      </trkpt>
      <trkpt lat="44.87056" lon="0.98547">
        <ele>226.4</ele>
        <time>2022-08-11T17:19:27Z</time>
      </trkpt>
      <trkpt lat="44.87054" lon="0.98541">
        <ele>225.4</ele>
        <time>2022-08-11T17:19:30Z</time>
      </trkpt>
      <trkpt lat="44.87057" lon="0.98553">
        <ele>225.4</ele>
        <time>2022-08-11T17:19:44Z</time>
      </trkpt>
      <trkpt lat="44.87061" lon="0.98562">
        <ele>225.4</ele>
        <time>2022-08-11T17:19:46Z</time>
      </trkpt>
      <trkpt lat="44.87065" lon="0.9857">
        <ele>226.4</ele>
        <time>2022-08-11T17:19:48Z</time>
      </trkpt>
      <trkpt lat="44.87068" lon="0.98578">
        <ele>225.4</ele>
        <time>2022-08-11T17:19:50Z</time>
      </trkpt>
      <trkpt lat="44.8707" lon="0.98585">
        <ele>225.4</ele>
        <time>2022-08-11T17:19:52Z</time>
      </trkpt>
      <trkpt lat="44.87072" lon="0.98592">
        <ele>226.4</ele>
        <time>2022-08-11T17:19:54Z</time>
      </trkpt>
      <trkpt lat="44.87076" lon="0.986">
        <ele>226.4</ele>
        <time>2022-08-11T17:19:56Z</time>
      </trkpt>
      <trkpt lat="44.87083" lon="0.98612">
        <ele>226.4</ele>
        <time>2022-08-11T17:19:59Z</time>
      </trkpt>
      <trkpt lat="44.87088" lon="0.9862">
        <ele>225.4</ele>
        <time>2022-08-11T17:20:01Z</time>
      </trkpt>
      <trkpt lat="44.87091" lon="0.98627">
        <ele>225.4</ele>
        <time>2022-08-11T17:20:03Z</time>
      </trkpt>
      <trkpt lat="44.87094" lon="0.98633">
        <ele>225.4</ele>
        <time>2022-08-11T17:20:05Z</time>
      </trkpt>
      <trkpt lat="44.87096" lon="0.98641">
        <ele>226.4</ele>
        <time>2022-08-11T17:20:07Z</time>
      </trkpt>
      <trkpt lat="44.871" lon="0.98648">
        <ele>227.4</ele>
        <time>2022-08-11T17:20:09Z</time>
      </trkpt>
      <trkpt lat="44.87104" lon="0.98657">
        <ele>226.4</ele>
        <time>2022-08-11T17:20:11Z</time>
      </trkpt>
      <trkpt lat="44.87109" lon="0.98667">
        <ele>226.4</ele>
        <time>2022-08-11T17:20:13Z</time>
      </trkpt>
      <trkpt lat="44.87113" lon="0.98673">
        <ele>226.4</ele>
        <time>2022-08-11T17:20:14Z</time>
      </trkpt>
      <trkpt lat="44.87116" lon="0.98679">
        <ele>226.4</ele>
        <time>2022-08-11T17:20:15Z</time>
      </trkpt>
      <trkpt lat="44.87121" lon="0.98688">
        <ele>225.4</ele>
        <time>2022-08-11T17:20:17Z</time>
      </trkpt>
      <trkpt lat="44.87127" lon="0.98696">
        <ele>225.4</ele>
        <time>2022-08-11T17:20:19Z</time>
      </trkpt>
      <trkpt lat="44.87131" lon="0.98705">
        <ele>225.4</ele>
        <time>2022-08-11T17:20:21Z</time>
      </trkpt>
      <trkpt lat="44.87133" lon="0.98717">
        <ele>225.4</ele>
        <time>2022-08-11T17:20:23Z</time>
      </trkpt>
      <trkpt lat="44.87135" lon="0.98723">
        <ele>225.4</ele>
        <time>2022-08-11T17:20:24Z</time>
      </trkpt>
      <trkpt lat="44.87137" lon="0.98729">
        <ele>224.4</ele>
        <time>2022-08-11T17:20:25Z</time>
      </trkpt>
      <trkpt lat="44.87139" lon="0.98736">
        <ele>224.4</ele>
        <time>2022-08-11T17:20:26Z</time>
      </trkpt>
      <trkpt lat="44.87142" lon="0.98741">
        <ele>223.4</ele>
        <time>2022-08-11T17:20:27Z</time>
      </trkpt>
      <trkpt lat="44.87145" lon="0.98753">
        <ele>223.4</ele>
        <time>2022-08-11T17:20:29Z</time>
      </trkpt>
      <trkpt lat="44.87148" lon="0.98759">
        <ele>223.4</ele>
        <time>2022-08-11T17:20:30Z</time>
      </trkpt>
      <trkpt lat="44.8715" lon="0.98765">
        <ele>223.4</ele>
        <time>2022-08-11T17:20:31Z</time>
      </trkpt>
      <trkpt lat="44.87152" lon="0.98771">
        <ele>222.4</ele>
        <time>2022-08-11T17:20:32Z</time>
      </trkpt>
      <trkpt lat="44.87155" lon="0.98777">
        <ele>222.4</ele>
        <time>2022-08-11T17:20:33Z</time>
      </trkpt>
      <trkpt lat="44.87158" lon="0.98782">
        <ele>223.4</ele>
        <time>2022-08-11T17:20:34Z</time>
      </trkpt>
      <trkpt lat="44.87162" lon="0.98792">
        <ele>222.4</ele>
        <time>2022-08-11T17:20:36Z</time>
      </trkpt>
      <trkpt lat="44.87166" lon="0.98803">
        <ele>223.4</ele>
        <time>2022-08-11T17:20:38Z</time>
      </trkpt>
      <trkpt lat="44.87169" lon="0.98814">
        <ele>223.4</ele>
        <time>2022-08-11T17:20:40Z</time>
      </trkpt>
      <trkpt lat="44.87172" lon="0.98825">
        <ele>223.4</ele>
        <time>2022-08-11T17:20:42Z</time>
      </trkpt>
      <trkpt lat="44.87175" lon="0.98835">
        <ele>223.4</ele>
        <time>2022-08-11T17:20:44Z</time>
      </trkpt>
      <trkpt lat="44.87178" lon="0.98844">
        <ele>223.4</ele>
        <time>2022-08-11T17:20:46Z</time>
      </trkpt>
      <trkpt lat="44.87182" lon="0.98856">
        <ele>222.4</ele>
        <time>2022-08-11T17:20:48Z</time>
      </trkpt>
      <trkpt lat="44.87185" lon="0.98864">
        <ele>222.4</ele>
        <time>2022-08-11T17:20:49Z</time>
      </trkpt>
      <trkpt lat="44.87189" lon="0.98874">
        <ele>221.4</ele>
        <time>2022-08-11T17:20:50Z</time>
      </trkpt>
      <trkpt lat="44.87192" lon="0.98884">
        <ele>220.4</ele>
        <time>2022-08-11T17:20:51Z</time>
      </trkpt>
      <trkpt lat="44.87197" lon="0.98895">
        <ele>220.4</ele>
        <time>2022-08-11T17:20:52Z</time>
      </trkpt>
      <trkpt lat="44.87201" lon="0.98906">
        <ele>220.4</ele>
        <time>2022-08-11T17:20:53Z</time>
      </trkpt>
      <trkpt lat="44.87206" lon="0.98919">
        <ele>220.4</ele>
        <time>2022-08-11T17:20:54Z</time>
      </trkpt>
      <trkpt lat="44.8721" lon="0.98932">
        <ele>221.4</ele>
        <time>2022-08-11T17:20:55Z</time>
      </trkpt>
      <trkpt lat="44.87218" lon="0.98957">
        <ele>222.4</ele>
        <time>2022-08-11T17:20:57Z</time>
      </trkpt>
      <trkpt lat="44.87223" lon="0.98981">
        <ele>221.4</ele>
        <time>2022-08-11T17:20:59Z</time>
      </trkpt>
      <trkpt lat="44.87226" lon="0.98994">
        <ele>221.4</ele>
        <time>2022-08-11T17:21:00Z</time>
      </trkpt>
      <trkpt lat="44.87229" lon="0.99008">
        <ele>221.4</ele>
        <time>2022-08-11T17:21:01Z</time>
      </trkpt>
      <trkpt lat="44.87233" lon="0.99021">
        <ele>220.4</ele>
        <time>2022-08-11T17:21:02Z</time>
      </trkpt>
      <trkpt lat="44.8724" lon="0.99045">
        <ele>221.4</ele>
        <time>2022-08-11T17:21:04Z</time>
      </trkpt>
      <trkpt lat="44.87244" lon="0.99056">
        <ele>221.4</ele>
        <time>2022-08-11T17:21:05Z</time>
      </trkpt>
      <trkpt lat="44.87248" lon="0.99066">
        <ele>221.4</ele>
        <time>2022-08-11T17:21:06Z</time>
      </trkpt>
      <trkpt lat="44.87254" lon="0.99075">
        <ele>221.4</ele>
        <time>2022-08-11T17:21:07Z</time>
      </trkpt>
      <trkpt lat="44.87259" lon="0.99085">
        <ele>222.4</ele>
        <time>2022-08-11T17:21:08Z</time>
      </trkpt>
      <trkpt lat="44.87263" lon="0.99093">
        <ele>223.4</ele>
        <time>2022-08-11T17:21:09Z</time>
      </trkpt>
      <trkpt lat="44.87266" lon="0.99101">
        <ele>223.4</ele>
        <time>2022-08-11T17:21:10Z</time>
      </trkpt>
      <trkpt lat="44.87269" lon="0.9911">
        <ele>222.4</ele>
        <time>2022-08-11T17:21:11Z</time>
      </trkpt>
      <trkpt lat="44.87272" lon="0.99118">
        <ele>222.4</ele>
        <time>2022-08-11T17:21:12Z</time>
      </trkpt>
      <trkpt lat="44.87274" lon="0.99126">
        <ele>222.4</ele>
        <time>2022-08-11T17:21:13Z</time>
      </trkpt>
      <trkpt lat="44.87276" lon="0.99134">
        <ele>223.4</ele>
        <time>2022-08-11T17:21:14Z</time>
      </trkpt>
      <trkpt lat="44.87279" lon="0.99141">
        <ele>224.4</ele>
        <time>2022-08-11T17:21:15Z</time>
      </trkpt>
      <trkpt lat="44.87281" lon="0.99148">
        <ele>223.4</ele>
        <time>2022-08-11T17:21:16Z</time>
      </trkpt>
      <trkpt lat="44.87283" lon="0.99155">
        <ele>223.4</ele>
        <time>2022-08-11T17:21:17Z</time>
      </trkpt>
      <trkpt lat="44.87285" lon="0.99162">
        <ele>223.4</ele>
        <time>2022-08-11T17:21:18Z</time>
      </trkpt>
      <trkpt lat="44.87286" lon="0.99168">
        <ele>223.4</ele>
        <time>2022-08-11T17:21:19Z</time>
      </trkpt>
      <trkpt lat="44.87288" lon="0.99174">
        <ele>223.4</ele>
        <time>2022-08-11T17:21:20Z</time>
      </trkpt>
      <trkpt lat="44.87289" lon="0.99181">
        <ele>223.4</ele>
        <time>2022-08-11T17:21:21Z</time>
      </trkpt>
      <trkpt lat="44.87291" lon="0.99187">
        <ele>223.4</ele>
        <time>2022-08-11T17:21:22Z</time>
      </trkpt>
      <trkpt lat="44.87296" lon="0.99198">
        <ele>223.4</ele>
        <time>2022-08-11T17:21:24Z</time>
      </trkpt>
      <trkpt lat="44.87301" lon="0.99206">
        <ele>223.4</ele>
        <time>2022-08-11T17:21:26Z</time>
      </trkpt>
      <trkpt lat="44.87305" lon="0.99214">
        <ele>223.4</ele>
        <time>2022-08-11T17:21:28Z</time>
      </trkpt>
      <trkpt lat="44.87307" lon="0.9922">
        <ele>224.4</ele>
        <time>2022-08-11T17:21:30Z</time>
      </trkpt>
      <trkpt lat="44.8731" lon="0.99229">
        <ele>224.4</ele>
        <time>2022-08-11T17:21:33Z</time>
      </trkpt>
      <trkpt lat="44.87313" lon="0.99234">
        <ele>223.4</ele>
        <time>2022-08-11T17:21:35Z</time>
      </trkpt>
      <trkpt lat="44.87316" lon="0.99241">
        <ele>223.4</ele>
        <time>2022-08-11T17:21:38Z</time>
      </trkpt>
      <trkpt lat="44.87319" lon="0.99248">
        <ele>222.4</ele>
        <time>2022-08-11T17:21:41Z</time>
      </trkpt>
      <trkpt lat="44.87322" lon="0.99256">
        <ele>222.4</ele>
        <time>2022-08-11T17:21:44Z</time>
      </trkpt>
      <trkpt lat="44.87326" lon="0.99263">
        <ele>222.4</ele>
        <time>2022-08-11T17:21:46Z</time>
      </trkpt>
      <trkpt lat="44.8733" lon="0.99271">
        <ele>221.4</ele>
        <time>2022-08-11T17:21:48Z</time>
      </trkpt>
      <trkpt lat="44.87334" lon="0.99281">
        <ele>221.4</ele>
        <time>2022-08-11T17:21:50Z</time>
      </trkpt>
      <trkpt lat="44.87338" lon="0.99286">
        <ele>221.4</ele>
        <time>2022-08-11T17:21:51Z</time>
      </trkpt>
      <trkpt lat="44.87341" lon="0.99293">
        <ele>221.4</ele>
        <time>2022-08-11T17:21:52Z</time>
      </trkpt>
      <trkpt lat="44.87343" lon="0.99298">
        <ele>221.4</ele>
        <time>2022-08-11T17:21:53Z</time>
      </trkpt>
      <trkpt lat="44.87347" lon="0.99303">
        <ele>221.4</ele>
        <time>2022-08-11T17:21:54Z</time>
      </trkpt>
      <trkpt lat="44.87352" lon="0.99313">
        <ele>222.4</ele>
        <time>2022-08-11T17:21:56Z</time>
      </trkpt>
      <trkpt lat="44.87356" lon="0.99319">
        <ele>222.4</ele>
        <time>2022-08-11T17:21:57Z</time>
      </trkpt>
      <trkpt lat="44.87359" lon="0.99326">
        <ele>221.4</ele>
        <time>2022-08-11T17:21:58Z</time>
      </trkpt>
      <trkpt lat="44.87363" lon="0.99332">
        <ele>221.4</ele>
        <time>2022-08-11T17:21:59Z</time>
      </trkpt>
      <trkpt lat="44.87365" lon="0.99338">
        <ele>221.4</ele>
        <time>2022-08-11T17:22:00Z</time>
      </trkpt>
      <trkpt lat="44.87367" lon="0.99345">
        <ele>222.4</ele>
        <time>2022-08-11T17:22:01Z</time>
      </trkpt>
      <trkpt lat="44.8737" lon="0.99351">
        <ele>223.4</ele>
        <time>2022-08-11T17:22:02Z</time>
      </trkpt>
      <trkpt lat="44.87372" lon="0.99357">
        <ele>223.4</ele>
        <time>2022-08-11T17:22:03Z</time>
      </trkpt>
      <trkpt lat="44.87374" lon="0.99363">
        <ele>223.4</ele>
        <time>2022-08-11T17:22:04Z</time>
      </trkpt>
      <trkpt lat="44.87376" lon="0.9937">
        <ele>223.4</ele>
        <time>2022-08-11T17:22:05Z</time>
      </trkpt>
      <trkpt lat="44.87378" lon="0.99377">
        <ele>222.4</ele>
        <time>2022-08-11T17:22:06Z</time>
      </trkpt>
      <trkpt lat="44.87379" lon="0.99383">
        <ele>222.4</ele>
        <time>2022-08-11T17:22:07Z</time>
      </trkpt>
      <trkpt lat="44.87382" lon="0.99396">
        <ele>222.4</ele>
        <time>2022-08-11T17:22:09Z</time>
      </trkpt>
      <trkpt lat="44.87382" lon="0.99403">
        <ele>222.4</ele>
        <time>2022-08-11T17:22:10Z</time>
      </trkpt>
      <trkpt lat="44.87384" lon="0.99416">
        <ele>222.4</ele>
        <time>2022-08-11T17:22:12Z</time>
      </trkpt>
      <trkpt lat="44.87386" lon="0.9943">
        <ele>221.4</ele>
        <time>2022-08-11T17:22:14Z</time>
      </trkpt>
      <trkpt lat="44.8739" lon="0.99446">
        <ele>221.4</ele>
        <time>2022-08-11T17:22:17Z</time>
      </trkpt>
      <trkpt lat="44.87394" lon="0.99459">
        <ele>221.4</ele>
        <time>2022-08-11T17:22:19Z</time>
      </trkpt>
      <trkpt lat="44.87396" lon="0.99465">
        <ele>221.4</ele>
        <time>2022-08-11T17:22:20Z</time>
      </trkpt>
      <trkpt lat="44.87398" lon="0.99472">
        <ele>221.4</ele>
        <time>2022-08-11T17:22:21Z</time>
      </trkpt>
      <trkpt lat="44.874" lon="0.99478">
        <ele>220.4</ele>
        <time>2022-08-11T17:22:22Z</time>
      </trkpt>
      <trkpt lat="44.87405" lon="0.99493">
        <ele>220.4</ele>
        <time>2022-08-11T17:22:24Z</time>
      </trkpt>
      <trkpt lat="44.87409" lon="0.99501">
        <ele>219.4</ele>
        <time>2022-08-11T17:22:25Z</time>
      </trkpt>
      <trkpt lat="44.87412" lon="0.99509">
        <ele>218.4</ele>
        <time>2022-08-11T17:22:26Z</time>
      </trkpt>
      <trkpt lat="44.87416" lon="0.99516">
        <ele>218.4</ele>
        <time>2022-08-11T17:22:27Z</time>
      </trkpt>
      <trkpt lat="44.8742" lon="0.99523">
        <ele>217.4</ele>
        <time>2022-08-11T17:22:28Z</time>
      </trkpt>
      <trkpt lat="44.87425" lon="0.99531">
        <ele>216.4</ele>
        <time>2022-08-11T17:22:29Z</time>
      </trkpt>
      <trkpt lat="44.87429" lon="0.99539">
        <ele>216.4</ele>
        <time>2022-08-11T17:22:30Z</time>
      </trkpt>
      <trkpt lat="44.87433" lon="0.99548">
        <ele>215.4</ele>
        <time>2022-08-11T17:22:31Z</time>
      </trkpt>
      <trkpt lat="44.87436" lon="0.99557">
        <ele>214.4</ele>
        <time>2022-08-11T17:22:32Z</time>
      </trkpt>
      <trkpt lat="44.87438" lon="0.99568">
        <ele>214.4</ele>
        <time>2022-08-11T17:22:33Z</time>
      </trkpt>
      <trkpt lat="44.8744" lon="0.99578">
        <ele>213.4</ele>
        <time>2022-08-11T17:22:34Z</time>
      </trkpt>
      <trkpt lat="44.87442" lon="0.99588">
        <ele>212.4</ele>
        <time>2022-08-11T17:22:35Z</time>
      </trkpt>
      <trkpt lat="44.87442" lon="0.996">
        <ele>211.4</ele>
        <time>2022-08-11T17:22:36Z</time>
      </trkpt>
      <trkpt lat="44.87443" lon="0.99613">
        <ele>211.4</ele>
        <time>2022-08-11T17:22:37Z</time>
      </trkpt>
      <trkpt lat="44.87443" lon="0.99625">
        <ele>210.4</ele>
        <time>2022-08-11T17:22:38Z</time>
      </trkpt>
      <trkpt lat="44.87443" lon="0.99635">
        <ele>209.4</ele>
        <time>2022-08-11T17:22:39Z</time>
      </trkpt>
      <trkpt lat="44.87443" lon="0.99642">
        <ele>209.4</ele>
        <time>2022-08-11T17:22:40Z</time>
      </trkpt>
      <trkpt lat="44.87444" lon="0.99653">
        <ele>208.4</ele>
        <time>2022-08-11T17:22:42Z</time>
      </trkpt>
      <trkpt lat="44.87443" lon="0.99666">
        <ele>208.4</ele>
        <time>2022-08-11T17:22:44Z</time>
      </trkpt>
      <trkpt lat="44.87443" lon="0.99674">
        <ele>207.4</ele>
        <time>2022-08-11T17:22:45Z</time>
      </trkpt>
      <trkpt lat="44.87442" lon="0.99684">
        <ele>207.4</ele>
        <time>2022-08-11T17:22:46Z</time>
      </trkpt>
      <trkpt lat="44.87442" lon="0.99694">
        <ele>207.4</ele>
        <time>2022-08-11T17:22:47Z</time>
      </trkpt>
      <trkpt lat="44.8744" lon="0.99717">
        <ele>206.4</ele>
        <time>2022-08-11T17:22:49Z</time>
      </trkpt>
      <trkpt lat="44.87439" lon="0.99729">
        <ele>206.4</ele>
        <time>2022-08-11T17:22:50Z</time>
      </trkpt>
      <trkpt lat="44.87438" lon="0.99742">
        <ele>206.4</ele>
        <time>2022-08-11T17:22:51Z</time>
      </trkpt>
      <trkpt lat="44.87437" lon="0.99754">
        <ele>206.4</ele>
        <time>2022-08-11T17:22:52Z</time>
      </trkpt>
      <trkpt lat="44.87437" lon="0.99766">
        <ele>206.4</ele>
        <time>2022-08-11T17:22:53Z</time>
      </trkpt>
      <trkpt lat="44.87437" lon="0.99777">
        <ele>205.4</ele>
        <time>2022-08-11T17:22:54Z</time>
      </trkpt>
      <trkpt lat="44.87437" lon="0.99788">
        <ele>205.4</ele>
        <time>2022-08-11T17:22:55Z</time>
      </trkpt>
      <trkpt lat="44.87438" lon="0.99799">
        <ele>205.4</ele>
        <time>2022-08-11T17:22:56Z</time>
      </trkpt>
      <trkpt lat="44.87438" lon="0.99811">
        <ele>205.4</ele>
        <time>2022-08-11T17:22:57Z</time>
      </trkpt>
      <trkpt lat="44.87438" lon="0.99823">
        <ele>205.4</ele>
        <time>2022-08-11T17:22:58Z</time>
      </trkpt>
      <trkpt lat="44.87439" lon="0.99835">
        <ele>205.4</ele>
        <time>2022-08-11T17:22:59Z</time>
      </trkpt>
      <trkpt lat="44.87441" lon="0.99846">
        <ele>204.4</ele>
        <time>2022-08-11T17:23:00Z</time>
      </trkpt>
      <trkpt lat="44.87442" lon="0.99857">
        <ele>205.4</ele>
        <time>2022-08-11T17:23:01Z</time>
      </trkpt>
      <trkpt lat="44.87445" lon="0.99868">
        <ele>205.4</ele>
        <time>2022-08-11T17:23:02Z</time>
      </trkpt>
      <trkpt lat="44.87451" lon="0.99887">
        <ele>204.4</ele>
        <time>2022-08-11T17:23:04Z</time>
      </trkpt>
      <trkpt lat="44.87454" lon="0.99895">
        <ele>204.4</ele>
        <time>2022-08-11T17:23:05Z</time>
      </trkpt>
      <trkpt lat="44.87458" lon="0.99901">
        <ele>203.4</ele>
        <time>2022-08-11T17:23:06Z</time>
      </trkpt>
      <trkpt lat="44.87462" lon="0.9991">
        <ele>204.4</ele>
        <time>2022-08-11T17:23:08Z</time>
      </trkpt>
      <trkpt lat="44.87464" lon="0.99916">
        <ele>204.4</ele>
        <time>2022-08-11T17:23:10Z</time>
      </trkpt>
      <trkpt lat="44.87463" lon="0.99909">
        <ele>204.4</ele>
        <time>2022-08-11T17:25:10Z</time>
      </trkpt>
      <trkpt lat="44.8746" lon="0.99904">
        <ele>204.4</ele>
        <time>2022-08-11T17:25:12Z</time>
      </trkpt>
      <trkpt lat="44.87458" lon="0.99897">
        <ele>203.4</ele>
        <time>2022-08-11T17:25:14Z</time>
      </trkpt>
      <trkpt lat="44.87456" lon="0.99888">
        <ele>201.4</ele>
        <time>2022-08-11T17:25:16Z</time>
      </trkpt>
      <trkpt lat="44.87453" lon="0.99878">
        <ele>201.4</ele>
        <time>2022-08-11T17:25:18Z</time>
      </trkpt>
      <trkpt lat="44.87451" lon="0.99871">
        <ele>201.4</ele>
        <time>2022-08-11T17:25:19Z</time>
      </trkpt>
      <trkpt lat="44.87447" lon="0.99862">
        <ele>201.4</ele>
        <time>2022-08-11T17:25:21Z</time>
      </trkpt>
      <trkpt lat="44.87444" lon="0.99853">
        <ele>200.4</ele>
        <time>2022-08-11T17:25:23Z</time>
      </trkpt>
      <trkpt lat="44.87443" lon="0.99844">
        <ele>200.4</ele>
        <time>2022-08-11T17:25:25Z</time>
      </trkpt>
      <trkpt lat="44.87442" lon="0.99836">
        <ele>200.4</ele>
        <time>2022-08-11T17:25:27Z</time>
      </trkpt>
      <trkpt lat="44.8744" lon="0.99827">
        <ele>199.4</ele>
        <time>2022-08-11T17:25:29Z</time>
      </trkpt>
      <trkpt lat="44.8744" lon="0.99819">
        <ele>198.4</ele>
        <time>2022-08-11T17:25:31Z</time>
      </trkpt>
      <trkpt lat="44.8744" lon="0.99811">
        <ele>198.4</ele>
        <time>2022-08-11T17:25:33Z</time>
      </trkpt>
      <trkpt lat="44.87441" lon="0.99802">
        <ele>198.4</ele>
        <time>2022-08-11T17:25:35Z</time>
      </trkpt>
      <trkpt lat="44.87441" lon="0.99792">
        <ele>198.4</ele>
        <time>2022-08-11T17:25:37Z</time>
      </trkpt>
      <trkpt lat="44.87442" lon="0.99782">
        <ele>197.4</ele>
        <time>2022-08-11T17:25:39Z</time>
      </trkpt>
      <trkpt lat="44.87442" lon="0.99771">
        <ele>196.4</ele>
        <time>2022-08-11T17:25:41Z</time>
      </trkpt>
      <trkpt lat="44.87441" lon="0.9975">
        <ele>196.4</ele>
        <time>2022-08-11T17:25:44Z</time>
      </trkpt>
      <trkpt lat="44.87441" lon="0.99744">
        <ele>196.4</ele>
        <time>2022-08-11T17:25:45Z</time>
      </trkpt>
      <trkpt lat="44.87441" lon="0.99731">
        <ele>196.4</ele>
        <time>2022-08-11T17:25:47Z</time>
      </trkpt>
      <trkpt lat="44.8744" lon="0.9972">
        <ele>197.4</ele>
        <time>2022-08-11T17:25:49Z</time>
      </trkpt>
      <trkpt lat="44.8744" lon="0.99709">
        <ele>197.4</ele>
        <time>2022-08-11T17:25:51Z</time>
      </trkpt>
      <trkpt lat="44.8744" lon="0.99694">
        <ele>198.4</ele>
        <time>2022-08-11T17:25:54Z</time>
      </trkpt>
      <trkpt lat="44.87441" lon="0.99686">
        <ele>198.4</ele>
        <time>2022-08-11T17:25:56Z</time>
      </trkpt>
      <trkpt lat="44.87442" lon="0.99673">
        <ele>199.4</ele>
        <time>2022-08-11T17:25:59Z</time>
      </trkpt>
      <trkpt lat="44.87442" lon="0.99666">
        <ele>199.4</ele>
        <time>2022-08-11T17:26:01Z</time>
      </trkpt>
      <trkpt lat="44.87441" lon="0.99658">
        <ele>199.4</ele>
        <time>2022-08-11T17:26:03Z</time>
      </trkpt>
      <trkpt lat="44.87441" lon="0.99651">
        <ele>199.4</ele>
        <time>2022-08-11T17:26:05Z</time>
      </trkpt>
      <trkpt lat="44.87442" lon="0.99642">
        <ele>199.4</ele>
        <time>2022-08-11T17:26:07Z</time>
      </trkpt>
      <trkpt lat="44.87443" lon="0.99635">
        <ele>200.4</ele>
        <time>2022-08-11T17:26:09Z</time>
      </trkpt>
      <trkpt lat="44.87444" lon="0.99628">
        <ele>200.4</ele>
        <time>2022-08-11T17:26:11Z</time>
      </trkpt>
      <trkpt lat="44.87444" lon="0.99619">
        <ele>201.4</ele>
        <time>2022-08-11T17:26:14Z</time>
      </trkpt>
      <trkpt lat="44.87444" lon="0.99611">
        <ele>202.4</ele>
        <time>2022-08-11T17:26:17Z</time>
      </trkpt>
      <trkpt lat="44.87444" lon="0.99603">
        <ele>202.4</ele>
        <time>2022-08-11T17:26:20Z</time>
      </trkpt>
      <trkpt lat="44.87445" lon="0.99594">
        <ele>202.4</ele>
        <time>2022-08-11T17:26:23Z</time>
      </trkpt>
      <trkpt lat="44.87444" lon="0.99587">
        <ele>203.4</ele>
        <time>2022-08-11T17:26:25Z</time>
      </trkpt>
      <trkpt lat="44.87443" lon="0.99578">
        <ele>203.4</ele>
        <time>2022-08-11T17:26:28Z</time>
      </trkpt>
      <trkpt lat="44.87441" lon="0.99569">
        <ele>204.4</ele>
        <time>2022-08-11T17:26:31Z</time>
      </trkpt>
      <trkpt lat="44.87439" lon="0.99563">
        <ele>204.4</ele>
        <time>2022-08-11T17:26:33Z</time>
      </trkpt>
      <trkpt lat="44.87437" lon="0.99556">
        <ele>204.4</ele>
        <time>2022-08-11T17:26:35Z</time>
      </trkpt>
      <trkpt lat="44.87435" lon="0.99548">
        <ele>205.4</ele>
        <time>2022-08-11T17:26:37Z</time>
      </trkpt>
      <trkpt lat="44.87432" lon="0.9954">
        <ele>205.4</ele>
        <time>2022-08-11T17:26:39Z</time>
      </trkpt>
      <trkpt lat="44.87429" lon="0.99533">
        <ele>206.4</ele>
        <time>2022-08-11T17:26:41Z</time>
      </trkpt>
      <trkpt lat="44.87425" lon="0.99525">
        <ele>207.4</ele>
        <time>2022-08-11T17:26:43Z</time>
      </trkpt>
      <trkpt lat="44.87422" lon="0.99517">
        <ele>208.4</ele>
        <time>2022-08-11T17:26:45Z</time>
      </trkpt>
      <trkpt lat="44.87419" lon="0.9951">
        <ele>209.4</ele>
        <time>2022-08-11T17:26:47Z</time>
      </trkpt>
      <trkpt lat="44.87416" lon="0.99502">
        <ele>209.4</ele>
        <time>2022-08-11T17:26:49Z</time>
      </trkpt>
      <trkpt lat="44.87413" lon="0.99495">
        <ele>210.4</ele>
        <time>2022-08-11T17:26:51Z</time>
      </trkpt>
      <trkpt lat="44.87409" lon="0.99486">
        <ele>212.4</ele>
        <time>2022-08-11T17:26:54Z</time>
      </trkpt>
      <trkpt lat="44.87406" lon="0.99481">
        <ele>212.4</ele>
        <time>2022-08-11T17:26:56Z</time>
      </trkpt>
      <trkpt lat="44.87403" lon="0.99475">
        <ele>213.4</ele>
        <time>2022-08-11T17:26:58Z</time>
      </trkpt>
      <trkpt lat="44.874" lon="0.99469">
        <ele>214.4</ele>
        <time>2022-08-11T17:27:00Z</time>
      </trkpt>
      <trkpt lat="44.87397" lon="0.99461">
        <ele>214.4</ele>
        <time>2022-08-11T17:27:03Z</time>
      </trkpt>
      <trkpt lat="44.87395" lon="0.99456">
        <ele>214.4</ele>
        <time>2022-08-11T17:27:05Z</time>
      </trkpt>
      <trkpt lat="44.87393" lon="0.99448">
        <ele>214.4</ele>
        <time>2022-08-11T17:27:07Z</time>
      </trkpt>
      <trkpt lat="44.87391" lon="0.9944">
        <ele>214.4</ele>
        <time>2022-08-11T17:27:09Z</time>
      </trkpt>
      <trkpt lat="44.8739" lon="0.9943">
        <ele>216.4</ele>
        <time>2022-08-11T17:27:11Z</time>
      </trkpt>
      <trkpt lat="44.87388" lon="0.99421">
        <ele>216.4</ele>
        <time>2022-08-11T17:27:13Z</time>
      </trkpt>
      <trkpt lat="44.87386" lon="0.99409">
        <ele>216.4</ele>
        <time>2022-08-11T17:27:15Z</time>
      </trkpt>
      <trkpt lat="44.87385" lon="0.99398">
        <ele>215.4</ele>
        <time>2022-08-11T17:27:17Z</time>
      </trkpt>
      <trkpt lat="44.87383" lon="0.99388">
        <ele>215.4</ele>
        <time>2022-08-11T17:27:19Z</time>
      </trkpt>
      <trkpt lat="44.8738" lon="0.99378">
        <ele>215.4</ele>
        <time>2022-08-11T17:27:21Z</time>
      </trkpt>
      <trkpt lat="44.87377" lon="0.99369">
        <ele>215.4</ele>
        <time>2022-08-11T17:27:23Z</time>
      </trkpt>
      <trkpt lat="44.87375" lon="0.9936">
        <ele>215.4</ele>
        <time>2022-08-11T17:27:25Z</time>
      </trkpt>
      <trkpt lat="44.87372" lon="0.99351">
        <ele>215.4</ele>
        <time>2022-08-11T17:27:27Z</time>
      </trkpt>
      <trkpt lat="44.87369" lon="0.99341">
        <ele>214.4</ele>
        <time>2022-08-11T17:27:29Z</time>
      </trkpt>
      <trkpt lat="44.87365" lon="0.99332">
        <ele>215.4</ele>
        <time>2022-08-11T17:27:31Z</time>
      </trkpt>
      <trkpt lat="44.87359" lon="0.99323">
        <ele>215.4</ele>
        <time>2022-08-11T17:27:33Z</time>
      </trkpt>
      <trkpt lat="44.87354" lon="0.99319">
        <ele>214.4</ele>
        <time>2022-08-11T17:27:34Z</time>
      </trkpt>
      <trkpt lat="44.87348" lon="0.99315">
        <ele>214.4</ele>
        <time>2022-08-11T17:27:35Z</time>
      </trkpt>
      <trkpt lat="44.87342" lon="0.99312">
        <ele>215.4</ele>
        <time>2022-08-11T17:27:36Z</time>
      </trkpt>
      <trkpt lat="44.87336" lon="0.99309">
        <ele>215.4</ele>
        <time>2022-08-11T17:27:37Z</time>
      </trkpt>
      <trkpt lat="44.87331" lon="0.99306">
        <ele>216.4</ele>
        <time>2022-08-11T17:27:38Z</time>
      </trkpt>
      <trkpt lat="44.87327" lon="0.99304">
        <ele>217.4</ele>
        <time>2022-08-11T17:27:39Z</time>
      </trkpt>
      <trkpt lat="44.87322" lon="0.99301">
        <ele>218.4</ele>
        <time>2022-08-11T17:27:40Z</time>
      </trkpt>
      <trkpt lat="44.87317" lon="0.99298">
        <ele>219.4</ele>
        <time>2022-08-11T17:27:41Z</time>
      </trkpt>
      <trkpt lat="44.87313" lon="0.99296">
        <ele>219.4</ele>
        <time>2022-08-11T17:27:42Z</time>
      </trkpt>
      <trkpt lat="44.87305" lon="0.99292">
        <ele>219.4</ele>
        <time>2022-08-11T17:27:44Z</time>
      </trkpt>
      <trkpt lat="44.873" lon="0.99289">
        <ele>218.4</ele>
        <time>2022-08-11T17:27:45Z</time>
      </trkpt>
      <trkpt lat="44.87296" lon="0.99286">
        <ele>217.4</ele>
        <time>2022-08-11T17:27:46Z</time>
      </trkpt>
      <trkpt lat="44.87291" lon="0.99284">
        <ele>217.4</ele>
        <time>2022-08-11T17:27:47Z</time>
      </trkpt>
      <trkpt lat="44.87286" lon="0.99281">
        <ele>218.4</ele>
        <time>2022-08-11T17:27:48Z</time>
      </trkpt>
      <trkpt lat="44.87281" lon="0.99278">
        <ele>218.4</ele>
        <time>2022-08-11T17:27:49Z</time>
      </trkpt>
      <trkpt lat="44.87275" lon="0.99274">
        <ele>217.4</ele>
        <time>2022-08-11T17:27:50Z</time>
      </trkpt>
      <trkpt lat="44.87269" lon="0.9927">
        <ele>217.4</ele>
        <time>2022-08-11T17:27:51Z</time>
      </trkpt>
      <trkpt lat="44.87264" lon="0.99266">
        <ele>217.4</ele>
        <time>2022-08-11T17:27:52Z</time>
      </trkpt>
      <trkpt lat="44.87258" lon="0.99263">
        <ele>216.4</ele>
        <time>2022-08-11T17:27:53Z</time>
      </trkpt>
      <trkpt lat="44.87252" lon="0.99259">
        <ele>216.4</ele>
        <time>2022-08-11T17:27:54Z</time>
      </trkpt>
      <trkpt lat="44.87246" lon="0.99256">
        <ele>216.4</ele>
        <time>2022-08-11T17:27:55Z</time>
      </trkpt>
      <trkpt lat="44.87241" lon="0.99254">
        <ele>216.4</ele>
        <time>2022-08-11T17:27:56Z</time>
      </trkpt>
      <trkpt lat="44.87236" lon="0.99252">
        <ele>216.4</ele>
        <time>2022-08-11T17:27:57Z</time>
      </trkpt>
      <trkpt lat="44.87231" lon="0.9925">
        <ele>216.4</ele>
        <time>2022-08-11T17:27:58Z</time>
      </trkpt>
      <trkpt lat="44.87227" lon="0.99249">
        <ele>216.4</ele>
        <time>2022-08-11T17:27:59Z</time>
      </trkpt>
      <trkpt lat="44.87219" lon="0.99247">
        <ele>217.4</ele>
        <time>2022-08-11T17:28:01Z</time>
      </trkpt>
      <trkpt lat="44.87212" lon="0.99247">
        <ele>217.4</ele>
        <time>2022-08-11T17:28:03Z</time>
      </trkpt>
      <trkpt lat="44.87204" lon="0.99247">
        <ele>217.4</ele>
        <time>2022-08-11T17:28:05Z</time>
      </trkpt>
      <trkpt lat="44.87195" lon="0.99249">
        <ele>217.4</ele>
        <time>2022-08-11T17:28:07Z</time>
      </trkpt>
      <trkpt lat="44.87187" lon="0.99252">
        <ele>217.4</ele>
        <time>2022-08-11T17:28:09Z</time>
      </trkpt>
      <trkpt lat="44.87178" lon="0.99255">
        <ele>217.4</ele>
        <time>2022-08-11T17:28:11Z</time>
      </trkpt>
      <trkpt lat="44.87174" lon="0.99257">
        <ele>218.4</ele>
        <time>2022-08-11T17:28:12Z</time>
      </trkpt>
      <trkpt lat="44.87165" lon="0.99262">
        <ele>218.4</ele>
        <time>2022-08-11T17:28:14Z</time>
      </trkpt>
      <trkpt lat="44.87161" lon="0.99264">
        <ele>218.4</ele>
        <time>2022-08-11T17:28:15Z</time>
      </trkpt>
      <trkpt lat="44.87156" lon="0.99266">
        <ele>219.4</ele>
        <time>2022-08-11T17:28:16Z</time>
      </trkpt>
      <trkpt lat="44.87152" lon="0.99269">
        <ele>218.4</ele>
        <time>2022-08-11T17:28:17Z</time>
      </trkpt>
      <trkpt lat="44.87147" lon="0.99271">
        <ele>218.4</ele>
        <time>2022-08-11T17:28:18Z</time>
      </trkpt>
      <trkpt lat="44.87142" lon="0.99273">
        <ele>218.4</ele>
        <time>2022-08-11T17:28:19Z</time>
      </trkpt>
      <trkpt lat="44.87137" lon="0.99275">
        <ele>218.4</ele>
        <time>2022-08-11T17:28:20Z</time>
      </trkpt>
      <trkpt lat="44.87132" lon="0.99278">
        <ele>218.4</ele>
        <time>2022-08-11T17:28:21Z</time>
      </trkpt>
      <trkpt lat="44.87127" lon="0.9928">
        <ele>217.4</ele>
        <time>2022-08-11T17:28:22Z</time>
      </trkpt>
      <trkpt lat="44.87122" lon="0.99283">
        <ele>217.4</ele>
        <time>2022-08-11T17:28:23Z</time>
      </trkpt>
      <trkpt lat="44.87117" lon="0.99285">
        <ele>218.4</ele>
        <time>2022-08-11T17:28:24Z</time>
      </trkpt>
      <trkpt lat="44.87112" lon="0.99288">
        <ele>218.4</ele>
        <time>2022-08-11T17:28:25Z</time>
      </trkpt>
      <trkpt lat="44.87108" lon="0.9929">
        <ele>218.4</ele>
        <time>2022-08-11T17:28:26Z</time>
      </trkpt>
      <trkpt lat="44.87103" lon="0.99292">
        <ele>217.4</ele>
        <time>2022-08-11T17:28:27Z</time>
      </trkpt>
      <trkpt lat="44.87098" lon="0.99294">
        <ele>217.4</ele>
        <time>2022-08-11T17:28:28Z</time>
      </trkpt>
      <trkpt lat="44.87094" lon="0.99296">
        <ele>216.4</ele>
        <time>2022-08-11T17:28:29Z</time>
      </trkpt>
      <trkpt lat="44.87089" lon="0.99297">
        <ele>216.4</ele>
        <time>2022-08-11T17:28:30Z</time>
      </trkpt>
      <trkpt lat="44.87084" lon="0.99299">
        <ele>216.4</ele>
        <time>2022-08-11T17:28:31Z</time>
      </trkpt>
      <trkpt lat="44.87079" lon="0.99301">
        <ele>216.4</ele>
        <time>2022-08-11T17:28:32Z</time>
      </trkpt>
      <trkpt lat="44.87074" lon="0.99303">
        <ele>216.4</ele>
        <time>2022-08-11T17:28:33Z</time>
      </trkpt>
      <trkpt lat="44.87068" lon="0.99306">
        <ele>216.4</ele>
        <time>2022-08-11T17:28:34Z</time>
      </trkpt>
      <trkpt lat="44.87063" lon="0.99309">
        <ele>216.4</ele>
        <time>2022-08-11T17:28:35Z</time>
      </trkpt>
      <trkpt lat="44.87059" lon="0.99311">
        <ele>216.4</ele>
        <time>2022-08-11T17:28:36Z</time>
      </trkpt>
      <trkpt lat="44.87054" lon="0.99313">
        <ele>217.4</ele>
        <time>2022-08-11T17:28:37Z</time>
      </trkpt>
      <trkpt lat="44.87049" lon="0.99314">
        <ele>217.4</ele>
        <time>2022-08-11T17:28:38Z</time>
      </trkpt>
      <trkpt lat="44.87045" lon="0.99315">
        <ele>217.4</ele>
        <time>2022-08-11T17:28:39Z</time>
      </trkpt>
      <trkpt lat="44.8704" lon="0.99317">
        <ele>216.4</ele>
        <time>2022-08-11T17:28:40Z</time>
      </trkpt>
      <trkpt lat="44.87035" lon="0.99318">
        <ele>216.4</ele>
        <time>2022-08-11T17:28:41Z</time>
      </trkpt>
      <trkpt lat="44.8703" lon="0.9932">
        <ele>216.4</ele>
        <time>2022-08-11T17:28:42Z</time>
      </trkpt>
      <trkpt lat="44.87025" lon="0.99322">
        <ele>216.4</ele>
        <time>2022-08-11T17:28:43Z</time>
      </trkpt>
      <trkpt lat="44.8702" lon="0.99324">
        <ele>216.4</ele>
        <time>2022-08-11T17:28:44Z</time>
      </trkpt>
      <trkpt lat="44.87016" lon="0.99327">
        <ele>215.4</ele>
        <time>2022-08-11T17:28:45Z</time>
      </trkpt>
      <trkpt lat="44.87011" lon="0.99329">
        <ele>214.4</ele>
        <time>2022-08-11T17:28:46Z</time>
      </trkpt>
      <trkpt lat="44.87007" lon="0.99331">
        <ele>214.4</ele>
        <time>2022-08-11T17:28:47Z</time>
      </trkpt>
      <trkpt lat="44.87" lon="0.99334">
        <ele>214.4</ele>
        <time>2022-08-11T17:28:49Z</time>
      </trkpt>
      <trkpt lat="44.86993" lon="0.99336">
        <ele>214.4</ele>
        <time>2022-08-11T17:28:51Z</time>
      </trkpt>
      <trkpt lat="44.86987" lon="0.99339">
        <ele>214.4</ele>
        <time>2022-08-11T17:28:53Z</time>
      </trkpt>
      <trkpt lat="44.86981" lon="0.99342">
        <ele>215.4</ele>
        <time>2022-08-11T17:28:55Z</time>
      </trkpt>
      <trkpt lat="44.86976" lon="0.99346">
        <ele>215.4</ele>
        <time>2022-08-11T17:28:57Z</time>
      </trkpt>
      <trkpt lat="44.8697" lon="0.9935">
        <ele>215.4</ele>
        <time>2022-08-11T17:28:59Z</time>
      </trkpt>
      <trkpt lat="44.86964" lon="0.99355">
        <ele>214.4</ele>
        <time>2022-08-11T17:29:01Z</time>
      </trkpt>
      <trkpt lat="44.86956" lon="0.9936">
        <ele>215.4</ele>
        <time>2022-08-11T17:29:03Z</time>
      </trkpt>
      <trkpt lat="44.86952" lon="0.99363">
        <ele>215.4</ele>
        <time>2022-08-11T17:29:04Z</time>
      </trkpt>
      <trkpt lat="44.86948" lon="0.99367">
        <ele>215.4</ele>
        <time>2022-08-11T17:29:05Z</time>
      </trkpt>
      <trkpt lat="44.86944" lon="0.9937">
        <ele>215.4</ele>
        <time>2022-08-11T17:29:06Z</time>
      </trkpt>
      <trkpt lat="44.86939" lon="0.99373">
        <ele>215.4</ele>
        <time>2022-08-11T17:29:07Z</time>
      </trkpt>
      <trkpt lat="44.86934" lon="0.99376">
        <ele>215.4</ele>
        <time>2022-08-11T17:29:08Z</time>
      </trkpt>
      <trkpt lat="44.86926" lon="0.99383">
        <ele>215.4</ele>
        <time>2022-08-11T17:29:10Z</time>
      </trkpt>
      <trkpt lat="44.86919" lon="0.9939">
        <ele>213.4</ele>
        <time>2022-08-11T17:29:12Z</time>
      </trkpt>
      <trkpt lat="44.86914" lon="0.99393">
        <ele>213.4</ele>
        <time>2022-08-11T17:29:13Z</time>
      </trkpt>
      <trkpt lat="44.8691" lon="0.99396">
        <ele>213.4</ele>
        <time>2022-08-11T17:29:14Z</time>
      </trkpt>
      <trkpt lat="44.86906" lon="0.994">
        <ele>213.4</ele>
        <time>2022-08-11T17:29:15Z</time>
      </trkpt>
      <trkpt lat="44.86902" lon="0.99404">
        <ele>213.4</ele>
        <time>2022-08-11T17:29:16Z</time>
      </trkpt>
      <trkpt lat="44.86897" lon="0.99407">
        <ele>212.4</ele>
        <time>2022-08-11T17:29:17Z</time>
      </trkpt>
      <trkpt lat="44.86892" lon="0.9941">
        <ele>212.4</ele>
        <time>2022-08-11T17:29:18Z</time>
      </trkpt>
      <trkpt lat="44.86888" lon="0.99413">
        <ele>213.4</ele>
        <time>2022-08-11T17:29:19Z</time>
      </trkpt>
      <trkpt lat="44.86883" lon="0.99417">
        <ele>212.4</ele>
        <time>2022-08-11T17:29:20Z</time>
      </trkpt>
      <trkpt lat="44.86878" lon="0.9942">
        <ele>212.4</ele>
        <time>2022-08-11T17:29:21Z</time>
      </trkpt>
      <trkpt lat="44.86873" lon="0.99422">
        <ele>212.4</ele>
        <time>2022-08-11T17:29:22Z</time>
      </trkpt>
      <trkpt lat="44.86869" lon="0.99425">
        <ele>212.4</ele>
        <time>2022-08-11T17:29:23Z</time>
      </trkpt>
      <trkpt lat="44.86864" lon="0.99428">
        <ele>212.4</ele>
        <time>2022-08-11T17:29:24Z</time>
      </trkpt>
      <trkpt lat="44.86859" lon="0.99429">
        <ele>212.4</ele>
        <time>2022-08-11T17:29:25Z</time>
      </trkpt>
      <trkpt lat="44.86849" lon="0.99433">
        <ele>212.4</ele>
        <time>2022-08-11T17:29:27Z</time>
      </trkpt>
      <trkpt lat="44.86844" lon="0.99434">
        <ele>212.4</ele>
        <time>2022-08-11T17:29:28Z</time>
      </trkpt>
      <trkpt lat="44.86835" lon="0.99434">
        <ele>213.4</ele>
        <time>2022-08-11T17:29:30Z</time>
      </trkpt>
      <trkpt lat="44.86827" lon="0.99435">
        <ele>213.4</ele>
        <time>2022-08-11T17:29:32Z</time>
      </trkpt>
      <trkpt lat="44.86819" lon="0.99434">
        <ele>213.4</ele>
        <time>2022-08-11T17:29:34Z</time>
      </trkpt>
      <trkpt lat="44.86815" lon="0.99433">
        <ele>213.4</ele>
        <time>2022-08-11T17:29:35Z</time>
      </trkpt>
      <trkpt lat="44.8681" lon="0.99433">
        <ele>213.4</ele>
        <time>2022-08-11T17:29:36Z</time>
      </trkpt>
      <trkpt lat="44.86806" lon="0.99433">
        <ele>212.4</ele>
        <time>2022-08-11T17:29:37Z</time>
      </trkpt>
      <trkpt lat="44.86797" lon="0.99434">
        <ele>212.4</ele>
        <time>2022-08-11T17:29:39Z</time>
      </trkpt>
      <trkpt lat="44.8679" lon="0.99434">
        <ele>212.4</ele>
        <time>2022-08-11T17:29:41Z</time>
      </trkpt>
      <trkpt lat="44.86782" lon="0.99434">
        <ele>213.4</ele>
        <time>2022-08-11T17:29:43Z</time>
      </trkpt>
      <trkpt lat="44.86775" lon="0.99434">
        <ele>213.4</ele>
        <time>2022-08-11T17:29:45Z</time>
      </trkpt>
      <trkpt lat="44.86768" lon="0.99434">
        <ele>212.4</ele>
        <time>2022-08-11T17:29:47Z</time>
      </trkpt>
      <trkpt lat="44.86762" lon="0.99435">
        <ele>212.4</ele>
        <time>2022-08-11T17:29:49Z</time>
      </trkpt>
      <trkpt lat="44.86757" lon="0.99436">
        <ele>212.4</ele>
        <time>2022-08-11T17:29:51Z</time>
      </trkpt>
      <trkpt lat="44.86748" lon="0.99442">
        <ele>212.4</ele>
        <time>2022-08-11T17:29:54Z</time>
      </trkpt>
      <trkpt lat="44.8674" lon="0.99447">
        <ele>211.4</ele>
        <time>2022-08-11T17:29:56Z</time>
      </trkpt>
      <trkpt lat="44.86735" lon="0.99451">
        <ele>212.4</ele>
        <time>2022-08-11T17:29:57Z</time>
      </trkpt>
      <trkpt lat="44.8673" lon="0.99453">
        <ele>212.4</ele>
        <time>2022-08-11T17:29:58Z</time>
      </trkpt>
      <trkpt lat="44.86723" lon="0.99457">
        <ele>212.4</ele>
        <time>2022-08-11T17:30:00Z</time>
      </trkpt>
      <trkpt lat="44.86717" lon="0.99461">
        <ele>213.4</ele>
        <time>2022-08-11T17:30:02Z</time>
      </trkpt>
      <trkpt lat="44.86711" lon="0.99465">
        <ele>213.4</ele>
        <time>2022-08-11T17:30:04Z</time>
      </trkpt>
      <trkpt lat="44.86705" lon="0.99469">
        <ele>213.4</ele>
        <time>2022-08-11T17:30:06Z</time>
      </trkpt>
      <trkpt lat="44.86695" lon="0.99476">
        <ele>214.4</ele>
        <time>2022-08-11T17:30:09Z</time>
      </trkpt>
      <trkpt lat="44.86687" lon="0.9948">
        <ele>214.4</ele>
        <time>2022-08-11T17:30:11Z</time>
      </trkpt>
      <trkpt lat="44.86679" lon="0.99485">
        <ele>216.4</ele>
        <time>2022-08-11T17:30:13Z</time>
      </trkpt>
      <trkpt lat="44.86674" lon="0.99487">
        <ele>216.4</ele>
        <time>2022-08-11T17:30:14Z</time>
      </trkpt>
      <trkpt lat="44.86666" lon="0.99492">
        <ele>217.4</ele>
        <time>2022-08-11T17:30:16Z</time>
      </trkpt>
      <trkpt lat="44.86662" lon="0.99496">
        <ele>217.4</ele>
        <time>2022-08-11T17:30:17Z</time>
      </trkpt>
      <trkpt lat="44.86658" lon="0.99499">
        <ele>217.4</ele>
        <time>2022-08-11T17:30:18Z</time>
      </trkpt>
      <trkpt lat="44.86654" lon="0.99504">
        <ele>217.4</ele>
        <time>2022-08-11T17:30:19Z</time>
      </trkpt>
      <trkpt lat="44.8665" lon="0.99508">
        <ele>217.4</ele>
        <time>2022-08-11T17:30:20Z</time>
      </trkpt>
      <trkpt lat="44.86646" lon="0.99512">
        <ele>217.4</ele>
        <time>2022-08-11T17:30:21Z</time>
      </trkpt>
      <trkpt lat="44.86639" lon="0.99519">
        <ele>216.4</ele>
        <time>2022-08-11T17:30:23Z</time>
      </trkpt>
      <trkpt lat="44.86635" lon="0.99523">
        <ele>216.4</ele>
        <time>2022-08-11T17:30:24Z</time>
      </trkpt>
      <trkpt lat="44.86632" lon="0.99528">
        <ele>216.4</ele>
        <time>2022-08-11T17:30:25Z</time>
      </trkpt>
      <trkpt lat="44.86629" lon="0.99533">
        <ele>215.4</ele>
        <time>2022-08-11T17:30:26Z</time>
      </trkpt>
      <trkpt lat="44.86625" lon="0.99538">
        <ele>215.4</ele>
        <time>2022-08-11T17:30:27Z</time>
      </trkpt>
      <trkpt lat="44.86621" lon="0.99544">
        <ele>215.4</ele>
        <time>2022-08-11T17:30:28Z</time>
      </trkpt>
      <trkpt lat="44.86618" lon="0.9955">
        <ele>215.4</ele>
        <time>2022-08-11T17:30:29Z</time>
      </trkpt>
      <trkpt lat="44.86615" lon="0.99556">
        <ele>216.4</ele>
        <time>2022-08-11T17:30:30Z</time>
      </trkpt>
      <trkpt lat="44.8661" lon="0.99564">
        <ele>216.4</ele>
        <time>2022-08-11T17:30:32Z</time>
      </trkpt>
      <trkpt lat="44.86605" lon="0.99571">
        <ele>216.4</ele>
        <time>2022-08-11T17:30:34Z</time>
      </trkpt>
      <trkpt lat="44.86598" lon="0.9958">
        <ele>216.4</ele>
        <time>2022-08-11T17:30:36Z</time>
      </trkpt>
      <trkpt lat="44.86595" lon="0.99585">
        <ele>216.4</ele>
        <time>2022-08-11T17:30:37Z</time>
      </trkpt>
      <trkpt lat="44.86589" lon="0.99594">
        <ele>216.4</ele>
        <time>2022-08-11T17:30:39Z</time>
      </trkpt>
      <trkpt lat="44.86586" lon="0.99599">
        <ele>215.4</ele>
        <time>2022-08-11T17:30:40Z</time>
      </trkpt>
      <trkpt lat="44.86582" lon="0.99604">
        <ele>215.4</ele>
        <time>2022-08-11T17:30:41Z</time>
      </trkpt>
      <trkpt lat="44.86578" lon="0.99609">
        <ele>215.4</ele>
        <time>2022-08-11T17:30:42Z</time>
      </trkpt>
      <trkpt lat="44.8657" lon="0.99618">
        <ele>216.4</ele>
        <time>2022-08-11T17:30:44Z</time>
      </trkpt>
      <trkpt lat="44.86565" lon="0.99625">
        <ele>216.4</ele>
        <time>2022-08-11T17:30:46Z</time>
      </trkpt>
      <trkpt lat="44.86558" lon="0.99631">
        <ele>215.4</ele>
        <time>2022-08-11T17:30:48Z</time>
      </trkpt>
      <trkpt lat="44.86553" lon="0.99635">
        <ele>216.4</ele>
        <time>2022-08-11T17:30:49Z</time>
      </trkpt>
      <trkpt lat="44.86548" lon="0.99639">
        <ele>215.4</ele>
        <time>2022-08-11T17:30:50Z</time>
      </trkpt>
      <trkpt lat="44.86544" lon="0.99643">
        <ele>214.4</ele>
        <time>2022-08-11T17:30:51Z</time>
      </trkpt>
      <trkpt lat="44.86539" lon="0.99647">
        <ele>214.4</ele>
        <time>2022-08-11T17:30:52Z</time>
      </trkpt>
      <trkpt lat="44.86533" lon="0.99651">
        <ele>214.4</ele>
        <time>2022-08-11T17:30:53Z</time>
      </trkpt>
      <trkpt lat="44.86527" lon="0.99654">
        <ele>214.4</ele>
        <time>2022-08-11T17:30:54Z</time>
      </trkpt>
      <trkpt lat="44.86522" lon="0.99658">
        <ele>214.4</ele>
        <time>2022-08-11T17:30:55Z</time>
      </trkpt>
      <trkpt lat="44.86515" lon="0.99661">
        <ele>214.4</ele>
        <time>2022-08-11T17:30:56Z</time>
      </trkpt>
      <trkpt lat="44.86508" lon="0.99664">
        <ele>214.4</ele>
        <time>2022-08-11T17:30:57Z</time>
      </trkpt>
      <trkpt lat="44.86501" lon="0.99667">
        <ele>214.4</ele>
        <time>2022-08-11T17:30:58Z</time>
      </trkpt>
      <trkpt lat="44.86494" lon="0.99669">
        <ele>214.4</ele>
        <time>2022-08-11T17:30:59Z</time>
      </trkpt>
      <trkpt lat="44.86486" lon="0.99672">
        <ele>214.4</ele>
        <time>2022-08-11T17:31:00Z</time>
      </trkpt>
      <trkpt lat="44.86479" lon="0.99675">
        <ele>213.4</ele>
        <time>2022-08-11T17:31:01Z</time>
      </trkpt>
      <trkpt lat="44.86472" lon="0.99678">
        <ele>213.4</ele>
        <time>2022-08-11T17:31:02Z</time>
      </trkpt>
      <trkpt lat="44.86465" lon="0.99681">
        <ele>213.4</ele>
        <time>2022-08-11T17:31:03Z</time>
      </trkpt>
      <trkpt lat="44.86458" lon="0.99685">
        <ele>213.4</ele>
        <time>2022-08-11T17:31:04Z</time>
      </trkpt>
      <trkpt lat="44.8645" lon="0.99688">
        <ele>212.4</ele>
        <time>2022-08-11T17:31:05Z</time>
      </trkpt>
      <trkpt lat="44.86442" lon="0.99691">
        <ele>212.4</ele>
        <time>2022-08-11T17:31:06Z</time>
      </trkpt>
      <trkpt lat="44.86433" lon="0.99695">
        <ele>211.4</ele>
        <time>2022-08-11T17:31:07Z</time>
      </trkpt>
      <trkpt lat="44.86424" lon="0.99698">
        <ele>211.4</ele>
        <time>2022-08-11T17:31:08Z</time>
      </trkpt>
      <trkpt lat="44.86415" lon="0.99701">
        <ele>211.4</ele>
        <time>2022-08-11T17:31:09Z</time>
      </trkpt>
      <trkpt lat="44.86407" lon="0.99704">
        <ele>211.4</ele>
        <time>2022-08-11T17:31:10Z</time>
      </trkpt>
      <trkpt lat="44.86398" lon="0.99708">
        <ele>211.4</ele>
        <time>2022-08-11T17:31:11Z</time>
      </trkpt>
      <trkpt lat="44.86389" lon="0.99711">
        <ele>210.4</ele>
        <time>2022-08-11T17:31:12Z</time>
      </trkpt>
      <trkpt lat="44.86381" lon="0.99714">
        <ele>210.4</ele>
        <time>2022-08-11T17:31:13Z</time>
      </trkpt>
      <trkpt lat="44.86373" lon="0.99718">
        <ele>210.4</ele>
        <time>2022-08-11T17:31:14Z</time>
      </trkpt>
      <trkpt lat="44.86365" lon="0.99723">
        <ele>209.4</ele>
        <time>2022-08-11T17:31:15Z</time>
      </trkpt>
      <trkpt lat="44.86357" lon="0.99728">
        <ele>209.4</ele>
        <time>2022-08-11T17:31:16Z</time>
      </trkpt>
      <trkpt lat="44.86351" lon="0.99733">
        <ele>209.4</ele>
        <time>2022-08-11T17:31:17Z</time>
      </trkpt>
      <trkpt lat="44.86344" lon="0.99739">
        <ele>210.4</ele>
        <time>2022-08-11T17:31:18Z</time>
      </trkpt>
      <trkpt lat="44.86338" lon="0.99745">
        <ele>210.4</ele>
        <time>2022-08-11T17:31:19Z</time>
      </trkpt>
      <trkpt lat="44.86333" lon="0.99752">
        <ele>210.4</ele>
        <time>2022-08-11T17:31:20Z</time>
      </trkpt>
      <trkpt lat="44.86328" lon="0.99759">
        <ele>211.4</ele>
        <time>2022-08-11T17:31:21Z</time>
      </trkpt>
      <trkpt lat="44.86323" lon="0.99766">
        <ele>211.4</ele>
        <time>2022-08-11T17:31:22Z</time>
      </trkpt>
      <trkpt lat="44.86319" lon="0.99773">
        <ele>211.4</ele>
        <time>2022-08-11T17:31:23Z</time>
      </trkpt>
      <trkpt lat="44.86315" lon="0.9978">
        <ele>211.4</ele>
        <time>2022-08-11T17:31:24Z</time>
      </trkpt>
      <trkpt lat="44.86311" lon="0.99787">
        <ele>211.4</ele>
        <time>2022-08-11T17:31:25Z</time>
      </trkpt>
      <trkpt lat="44.86308" lon="0.99793">
        <ele>211.4</ele>
        <time>2022-08-11T17:31:26Z</time>
      </trkpt>
      <trkpt lat="44.86305" lon="0.99801">
        <ele>211.4</ele>
        <time>2022-08-11T17:31:27Z</time>
      </trkpt>
      <trkpt lat="44.86302" lon="0.99808">
        <ele>211.4</ele>
        <time>2022-08-11T17:31:28Z</time>
      </trkpt>
      <trkpt lat="44.86299" lon="0.99816">
        <ele>211.4</ele>
        <time>2022-08-11T17:31:29Z</time>
      </trkpt>
      <trkpt lat="44.86297" lon="0.99824">
        <ele>210.4</ele>
        <time>2022-08-11T17:31:30Z</time>
      </trkpt>
      <trkpt lat="44.86294" lon="0.99832">
        <ele>210.4</ele>
        <time>2022-08-11T17:31:31Z</time>
      </trkpt>
      <trkpt lat="44.86293" lon="0.99841">
        <ele>210.4</ele>
        <time>2022-08-11T17:31:32Z</time>
      </trkpt>
      <trkpt lat="44.86291" lon="0.99849">
        <ele>210.4</ele>
        <time>2022-08-11T17:31:33Z</time>
      </trkpt>
      <trkpt lat="44.8629" lon="0.99858">
        <ele>209.4</ele>
        <time>2022-08-11T17:31:34Z</time>
      </trkpt>
      <trkpt lat="44.86288" lon="0.99867">
        <ele>209.4</ele>
        <time>2022-08-11T17:31:35Z</time>
      </trkpt>
      <trkpt lat="44.86286" lon="0.99877">
        <ele>208.4</ele>
        <time>2022-08-11T17:31:36Z</time>
      </trkpt>
      <trkpt lat="44.86285" lon="0.99885">
        <ele>208.4</ele>
        <time>2022-08-11T17:31:37Z</time>
      </trkpt>
      <trkpt lat="44.86282" lon="0.99892">
        <ele>208.4</ele>
        <time>2022-08-11T17:31:38Z</time>
      </trkpt>
      <trkpt lat="44.8628" lon="0.999">
        <ele>207.4</ele>
        <time>2022-08-11T17:31:39Z</time>
      </trkpt>
      <trkpt lat="44.86276" lon="0.99906">
        <ele>207.4</ele>
        <time>2022-08-11T17:31:40Z</time>
      </trkpt>
      <trkpt lat="44.86273" lon="0.99914">
        <ele>207.4</ele>
        <time>2022-08-11T17:31:41Z</time>
      </trkpt>
      <trkpt lat="44.86269" lon="0.99921">
        <ele>206.4</ele>
        <time>2022-08-11T17:31:42Z</time>
      </trkpt>
      <trkpt lat="44.86266" lon="0.99929">
        <ele>206.4</ele>
        <time>2022-08-11T17:31:43Z</time>
      </trkpt>
      <trkpt lat="44.86263" lon="0.99937">
        <ele>205.4</ele>
        <time>2022-08-11T17:31:44Z</time>
      </trkpt>
      <trkpt lat="44.8626" lon="0.99946">
        <ele>205.4</ele>
        <time>2022-08-11T17:31:45Z</time>
      </trkpt>
      <trkpt lat="44.86257" lon="0.99954">
        <ele>205.4</ele>
        <time>2022-08-11T17:31:46Z</time>
      </trkpt>
      <trkpt lat="44.86254" lon="0.99963">
        <ele>205.4</ele>
        <time>2022-08-11T17:31:47Z</time>
      </trkpt>
      <trkpt lat="44.86247" lon="0.99979">
        <ele>204.4</ele>
        <time>2022-08-11T17:31:49Z</time>
      </trkpt>
      <trkpt lat="44.86243" lon="0.99987">
        <ele>204.4</ele>
        <time>2022-08-11T17:31:50Z</time>
      </trkpt>
      <trkpt lat="44.86239" lon="0.99995">
        <ele>204.4</ele>
        <time>2022-08-11T17:31:51Z</time>
      </trkpt>
      <trkpt lat="44.8623" lon="1.00008">
        <ele>203.4</ele>
        <time>2022-08-11T17:31:53Z</time>
      </trkpt>
      <trkpt lat="44.86225" lon="1.00014">
        <ele>203.4</ele>
        <time>2022-08-11T17:31:54Z</time>
      </trkpt>
      <trkpt lat="44.8622" lon="1.00021">
        <ele>203.4</ele>
        <time>2022-08-11T17:31:55Z</time>
      </trkpt>
      <trkpt lat="44.86215" lon="1.00027">
        <ele>203.4</ele>
        <time>2022-08-11T17:31:56Z</time>
      </trkpt>
      <trkpt lat="44.8621" lon="1.00034">
        <ele>202.4</ele>
        <time>2022-08-11T17:31:57Z</time>
      </trkpt>
      <trkpt lat="44.862" lon="1.00047">
        <ele>202.4</ele>
        <time>2022-08-11T17:31:59Z</time>
      </trkpt>
      <trkpt lat="44.86195" lon="1.00054">
        <ele>203.4</ele>
        <time>2022-08-11T17:32:00Z</time>
      </trkpt>
      <trkpt lat="44.86189" lon="1.00061">
        <ele>203.4</ele>
        <time>2022-08-11T17:32:01Z</time>
      </trkpt>
      <trkpt lat="44.86184" lon="1.00069">
        <ele>202.4</ele>
        <time>2022-08-11T17:32:02Z</time>
      </trkpt>
      <trkpt lat="44.86179" lon="1.00077">
        <ele>202.4</ele>
        <time>2022-08-11T17:32:03Z</time>
      </trkpt>
      <trkpt lat="44.86174" lon="1.00084">
        <ele>202.4</ele>
        <time>2022-08-11T17:32:04Z</time>
      </trkpt>
      <trkpt lat="44.86169" lon="1.0009">
        <ele>203.4</ele>
        <time>2022-08-11T17:32:05Z</time>
      </trkpt>
      <trkpt lat="44.86164" lon="1.00096">
        <ele>204.4</ele>
        <time>2022-08-11T17:32:06Z</time>
      </trkpt>
      <trkpt lat="44.86159" lon="1.00102">
        <ele>205.4</ele>
        <time>2022-08-11T17:32:07Z</time>
      </trkpt>
      <trkpt lat="44.86155" lon="1.00108">
        <ele>206.4</ele>
        <time>2022-08-11T17:32:08Z</time>
      </trkpt>
      <trkpt lat="44.8615" lon="1.00114">
        <ele>206.4</ele>
        <time>2022-08-11T17:32:09Z</time>
      </trkpt>
      <trkpt lat="44.86146" lon="1.0012">
        <ele>206.4</ele>
        <time>2022-08-11T17:32:10Z</time>
      </trkpt>
      <trkpt lat="44.86143" lon="1.00126">
        <ele>206.4</ele>
        <time>2022-08-11T17:32:11Z</time>
      </trkpt>
      <trkpt lat="44.86139" lon="1.00132">
        <ele>206.4</ele>
        <time>2022-08-11T17:32:12Z</time>
      </trkpt>
      <trkpt lat="44.86136" lon="1.00138">
        <ele>205.4</ele>
        <time>2022-08-11T17:32:13Z</time>
      </trkpt>
      <trkpt lat="44.86134" lon="1.00144">
        <ele>205.4</ele>
        <time>2022-08-11T17:32:14Z</time>
      </trkpt>
      <trkpt lat="44.86131" lon="1.00149">
        <ele>205.4</ele>
        <time>2022-08-11T17:32:15Z</time>
      </trkpt>
      <trkpt lat="44.86128" lon="1.00154">
        <ele>205.4</ele>
        <time>2022-08-11T17:32:16Z</time>
      </trkpt>
      <trkpt lat="44.86124" lon="1.00162">
        <ele>205.4</ele>
        <time>2022-08-11T17:32:18Z</time>
      </trkpt>
      <trkpt lat="44.86121" lon="1.00167">
        <ele>206.4</ele>
        <time>2022-08-11T17:32:20Z</time>
      </trkpt>
      <trkpt lat="44.86119" lon="1.00173">
        <ele>206.4</ele>
        <time>2022-08-11T17:32:24Z</time>
      </trkpt>
      <trkpt lat="44.86118" lon="1.00181">
        <ele>205.4</ele>
        <time>2022-08-11T17:32:27Z</time>
      </trkpt>
      <trkpt lat="44.86118" lon="1.00188">
        <ele>205.4</ele>
        <time>2022-08-11T17:32:29Z</time>
      </trkpt>
      <trkpt lat="44.86118" lon="1.00195">
        <ele>205.4</ele>
        <time>2022-08-11T17:32:31Z</time>
      </trkpt>
      <trkpt lat="44.86116" lon="1.00202">
        <ele>204.4</ele>
        <time>2022-08-11T17:32:33Z</time>
      </trkpt>
      <trkpt lat="44.86114" lon="1.0021">
        <ele>204.4</ele>
        <time>2022-08-11T17:32:35Z</time>
      </trkpt>
      <trkpt lat="44.86112" lon="1.00218">
        <ele>204.4</ele>
        <time>2022-08-11T17:32:37Z</time>
      </trkpt>
      <trkpt lat="44.86109" lon="1.00226">
        <ele>204.4</ele>
        <time>2022-08-11T17:32:39Z</time>
      </trkpt>
      <trkpt lat="44.86107" lon="1.00235">
        <ele>203.4</ele>
        <time>2022-08-11T17:32:41Z</time>
      </trkpt>
      <trkpt lat="44.86105" lon="1.00246">
        <ele>203.4</ele>
        <time>2022-08-11T17:32:43Z</time>
      </trkpt>
      <trkpt lat="44.86104" lon="1.00257">
        <ele>203.4</ele>
        <time>2022-08-11T17:32:45Z</time>
      </trkpt>
      <trkpt lat="44.86102" lon="1.00266">
        <ele>203.4</ele>
        <time>2022-08-11T17:32:47Z</time>
      </trkpt>
      <trkpt lat="44.861" lon="1.00277">
        <ele>203.4</ele>
        <time>2022-08-11T17:32:49Z</time>
      </trkpt>
      <trkpt lat="44.86098" lon="1.00284">
        <ele>203.4</ele>
        <time>2022-08-11T17:32:50Z</time>
      </trkpt>
      <trkpt lat="44.86096" lon="1.00291">
        <ele>202.4</ele>
        <time>2022-08-11T17:32:51Z</time>
      </trkpt>
      <trkpt lat="44.86095" lon="1.00298">
        <ele>202.4</ele>
        <time>2022-08-11T17:32:52Z</time>
      </trkpt>
      <trkpt lat="44.86094" lon="1.00304">
        <ele>202.4</ele>
        <time>2022-08-11T17:32:53Z</time>
      </trkpt>
      <trkpt lat="44.86093" lon="1.00311">
        <ele>201.4</ele>
        <time>2022-08-11T17:32:54Z</time>
      </trkpt>
      <trkpt lat="44.86092" lon="1.00318">
        <ele>201.4</ele>
        <time>2022-08-11T17:32:55Z</time>
      </trkpt>
      <trkpt lat="44.86091" lon="1.00325">
        <ele>201.4</ele>
        <time>2022-08-11T17:32:56Z</time>
      </trkpt>
      <trkpt lat="44.8609" lon="1.00331">
        <ele>201.4</ele>
        <time>2022-08-11T17:32:57Z</time>
      </trkpt>
      <trkpt lat="44.86089" lon="1.00338">
        <ele>200.4</ele>
        <time>2022-08-11T17:32:58Z</time>
      </trkpt>
      <trkpt lat="44.86088" lon="1.0035">
        <ele>200.4</ele>
        <time>2022-08-11T17:33:00Z</time>
      </trkpt>
      <trkpt lat="44.86088" lon="1.00357">
        <ele>200.4</ele>
        <time>2022-08-11T17:33:01Z</time>
      </trkpt>
      <trkpt lat="44.86088" lon="1.00364">
        <ele>200.4</ele>
        <time>2022-08-11T17:33:02Z</time>
      </trkpt>
      <trkpt lat="44.86087" lon="1.00371">
        <ele>200.4</ele>
        <time>2022-08-11T17:33:03Z</time>
      </trkpt>
      <trkpt lat="44.86086" lon="1.00378">
        <ele>201.4</ele>
        <time>2022-08-11T17:33:04Z</time>
      </trkpt>
      <trkpt lat="44.86086" lon="1.00386">
        <ele>200.4</ele>
        <time>2022-08-11T17:33:05Z</time>
      </trkpt>
      <trkpt lat="44.86087" lon="1.00394">
        <ele>200.4</ele>
        <time>2022-08-11T17:33:06Z</time>
      </trkpt>
      <trkpt lat="44.86087" lon="1.00402">
        <ele>200.4</ele>
        <time>2022-08-11T17:33:07Z</time>
      </trkpt>
      <trkpt lat="44.86086" lon="1.0041">
        <ele>200.4</ele>
        <time>2022-08-11T17:33:08Z</time>
      </trkpt>
      <trkpt lat="44.86085" lon="1.00418">
        <ele>199.4</ele>
        <time>2022-08-11T17:33:09Z</time>
      </trkpt>
      <trkpt lat="44.86083" lon="1.00426">
        <ele>199.4</ele>
        <time>2022-08-11T17:33:10Z</time>
      </trkpt>
      <trkpt lat="44.86081" lon="1.00435">
        <ele>198.4</ele>
        <time>2022-08-11T17:33:11Z</time>
      </trkpt>
      <trkpt lat="44.8608" lon="1.00444">
        <ele>197.4</ele>
        <time>2022-08-11T17:33:12Z</time>
      </trkpt>
      <trkpt lat="44.86078" lon="1.00454">
        <ele>197.4</ele>
        <time>2022-08-11T17:33:13Z</time>
      </trkpt>
      <trkpt lat="44.86076" lon="1.00463">
        <ele>197.4</ele>
        <time>2022-08-11T17:33:14Z</time>
      </trkpt>
      <trkpt lat="44.86073" lon="1.00473">
        <ele>196.4</ele>
        <time>2022-08-11T17:33:15Z</time>
      </trkpt>
      <trkpt lat="44.8607" lon="1.00483">
        <ele>196.4</ele>
        <time>2022-08-11T17:33:16Z</time>
      </trkpt>
      <trkpt lat="44.86066" lon="1.00493">
        <ele>195.4</ele>
        <time>2022-08-11T17:33:17Z</time>
      </trkpt>
      <trkpt lat="44.86061" lon="1.00503">
        <ele>195.4</ele>
        <time>2022-08-11T17:33:18Z</time>
      </trkpt>
      <trkpt lat="44.86055" lon="1.00513">
        <ele>195.4</ele>
        <time>2022-08-11T17:33:19Z</time>
      </trkpt>
      <trkpt lat="44.86049" lon="1.00521">
        <ele>195.4</ele>
        <time>2022-08-11T17:33:20Z</time>
      </trkpt>
      <trkpt lat="44.86042" lon="1.00529">
        <ele>194.4</ele>
        <time>2022-08-11T17:33:21Z</time>
      </trkpt>
      <trkpt lat="44.86036" lon="1.00536">
        <ele>193.4</ele>
        <time>2022-08-11T17:33:22Z</time>
      </trkpt>
      <trkpt lat="44.8603" lon="1.00543">
        <ele>193.4</ele>
        <time>2022-08-11T17:33:23Z</time>
      </trkpt>
      <trkpt lat="44.86023" lon="1.0055">
        <ele>192.4</ele>
        <time>2022-08-11T17:33:24Z</time>
      </trkpt>
      <trkpt lat="44.86016" lon="1.00556">
        <ele>191.4</ele>
        <time>2022-08-11T17:33:25Z</time>
      </trkpt>
      <trkpt lat="44.86008" lon="1.0056">
        <ele>191.4</ele>
        <time>2022-08-11T17:33:26Z</time>
      </trkpt>
      <trkpt lat="44.86" lon="1.00565">
        <ele>190.4</ele>
        <time>2022-08-11T17:33:27Z</time>
      </trkpt>
      <trkpt lat="44.85993" lon="1.00569">
        <ele>189.4</ele>
        <time>2022-08-11T17:33:28Z</time>
      </trkpt>
      <trkpt lat="44.85984" lon="1.00572">
        <ele>187.4</ele>
        <time>2022-08-11T17:33:29Z</time>
      </trkpt>
      <trkpt lat="44.85975" lon="1.00577">
        <ele>187.4</ele>
        <time>2022-08-11T17:33:30Z</time>
      </trkpt>
      <trkpt lat="44.85965" lon="1.00583">
        <ele>187.4</ele>
        <time>2022-08-11T17:33:31Z</time>
      </trkpt>
      <trkpt lat="44.85956" lon="1.00589">
        <ele>186.4</ele>
        <time>2022-08-11T17:33:32Z</time>
      </trkpt>
      <trkpt lat="44.85947" lon="1.00594">
        <ele>186.4</ele>
        <time>2022-08-11T17:33:33Z</time>
      </trkpt>
      <trkpt lat="44.85938" lon="1.00598">
        <ele>186.4</ele>
        <time>2022-08-11T17:33:34Z</time>
      </trkpt>
      <trkpt lat="44.85929" lon="1.00603">
        <ele>185.4</ele>
        <time>2022-08-11T17:33:35Z</time>
      </trkpt>
      <trkpt lat="44.8592" lon="1.00608">
        <ele>185.4</ele>
        <time>2022-08-11T17:33:36Z</time>
      </trkpt>
      <trkpt lat="44.85911" lon="1.00613">
        <ele>184.4</ele>
        <time>2022-08-11T17:33:37Z</time>
      </trkpt>
      <trkpt lat="44.85903" lon="1.00618">
        <ele>184.4</ele>
        <time>2022-08-11T17:33:38Z</time>
      </trkpt>
      <trkpt lat="44.85893" lon="1.00623">
        <ele>184.4</ele>
        <time>2022-08-11T17:33:39Z</time>
      </trkpt>
      <trkpt lat="44.85885" lon="1.00628">
        <ele>184.4</ele>
        <time>2022-08-11T17:33:40Z</time>
      </trkpt>
      <trkpt lat="44.85876" lon="1.00632">
        <ele>183.4</ele>
        <time>2022-08-11T17:33:41Z</time>
      </trkpt>
      <trkpt lat="44.85868" lon="1.00637">
        <ele>183.4</ele>
        <time>2022-08-11T17:33:42Z</time>
      </trkpt>
      <trkpt lat="44.85861" lon="1.00642">
        <ele>182.4</ele>
        <time>2022-08-11T17:33:43Z</time>
      </trkpt>
      <trkpt lat="44.85853" lon="1.00646">
        <ele>182.4</ele>
        <time>2022-08-11T17:33:44Z</time>
      </trkpt>
      <trkpt lat="44.85846" lon="1.00651">
        <ele>182.4</ele>
        <time>2022-08-11T17:33:45Z</time>
      </trkpt>
      <trkpt lat="44.8584" lon="1.00655">
        <ele>182.4</ele>
        <time>2022-08-11T17:33:46Z</time>
      </trkpt>
      <trkpt lat="44.85835" lon="1.00659">
        <ele>182.4</ele>
        <time>2022-08-11T17:33:47Z</time>
      </trkpt>
      <trkpt lat="44.85828" lon="1.00664">
        <ele>183.4</ele>
        <time>2022-08-11T17:33:49Z</time>
      </trkpt>
      <trkpt lat="44.85831" lon="1.00659">
        <ele>190.4</ele>
        <time>2022-08-11T17:34:48Z</time>
      </trkpt>
      <trkpt lat="44.85828" lon="1.00665">
        <ele>192.4</ele>
        <time>2022-08-11T17:35:13Z</time>
      </trkpt>
      <trkpt lat="44.85824" lon="1.00669">
        <ele>192.4</ele>
        <time>2022-08-11T17:35:15Z</time>
      </trkpt>
      <trkpt lat="44.85819" lon="1.00675">
        <ele>192.4</ele>
        <time>2022-08-11T17:35:17Z</time>
      </trkpt>
      <trkpt lat="44.85815" lon="1.00681">
        <ele>192.4</ele>
        <time>2022-08-11T17:35:19Z</time>
      </trkpt>
      <trkpt lat="44.8581" lon="1.00688">
        <ele>192.4</ele>
        <time>2022-08-11T17:35:21Z</time>
      </trkpt>
      <trkpt lat="44.85805" lon="1.00694">
        <ele>192.4</ele>
        <time>2022-08-11T17:35:23Z</time>
      </trkpt>
      <trkpt lat="44.858" lon="1.00701">
        <ele>191.4</ele>
        <time>2022-08-11T17:35:25Z</time>
      </trkpt>
      <trkpt lat="44.85793" lon="1.00707">
        <ele>190.4</ele>
        <time>2022-08-11T17:35:27Z</time>
      </trkpt>
      <trkpt lat="44.85787" lon="1.00715">
        <ele>189.4</ele>
        <time>2022-08-11T17:35:29Z</time>
      </trkpt>
      <trkpt lat="44.8578" lon="1.00723">
        <ele>188.4</ele>
        <time>2022-08-11T17:35:31Z</time>
      </trkpt>
      <trkpt lat="44.85774" lon="1.0073">
        <ele>188.4</ele>
        <time>2022-08-11T17:35:33Z</time>
      </trkpt>
      <trkpt lat="44.85767" lon="1.00737">
        <ele>188.4</ele>
        <time>2022-08-11T17:35:35Z</time>
      </trkpt>
      <trkpt lat="44.85761" lon="1.00744">
        <ele>187.4</ele>
        <time>2022-08-11T17:35:37Z</time>
      </trkpt>
      <trkpt lat="44.85756" lon="1.00752">
        <ele>187.4</ele>
        <time>2022-08-11T17:35:39Z</time>
      </trkpt>
      <trkpt lat="44.85751" lon="1.0076">
        <ele>187.4</ele>
        <time>2022-08-11T17:35:41Z</time>
      </trkpt>
      <trkpt lat="44.85744" lon="1.00768">
        <ele>188.4</ele>
        <time>2022-08-11T17:35:43Z</time>
      </trkpt>
      <trkpt lat="44.85738" lon="1.00775">
        <ele>188.4</ele>
        <time>2022-08-11T17:35:45Z</time>
      </trkpt>
      <trkpt lat="44.85732" lon="1.00782">
        <ele>187.4</ele>
        <time>2022-08-11T17:35:47Z</time>
      </trkpt>
      <trkpt lat="44.85726" lon="1.00789">
        <ele>188.4</ele>
        <time>2022-08-11T17:35:49Z</time>
      </trkpt>
      <trkpt lat="44.8572" lon="1.00795">
        <ele>188.4</ele>
        <time>2022-08-11T17:35:51Z</time>
      </trkpt>
      <trkpt lat="44.85714" lon="1.00803">
        <ele>188.4</ele>
        <time>2022-08-11T17:35:53Z</time>
      </trkpt>
      <trkpt lat="44.85709" lon="1.00808">
        <ele>188.4</ele>
        <time>2022-08-11T17:35:55Z</time>
      </trkpt>
      <trkpt lat="44.85703" lon="1.00815">
        <ele>187.4</ele>
        <time>2022-08-11T17:35:57Z</time>
      </trkpt>
      <trkpt lat="44.85698" lon="1.00821">
        <ele>187.4</ele>
        <time>2022-08-11T17:35:59Z</time>
      </trkpt>
      <trkpt lat="44.85693" lon="1.00828">
        <ele>187.4</ele>
        <time>2022-08-11T17:36:01Z</time>
      </trkpt>
      <trkpt lat="44.85689" lon="1.00834">
        <ele>187.4</ele>
        <time>2022-08-11T17:36:03Z</time>
      </trkpt>
      <trkpt lat="44.85684" lon="1.00841">
        <ele>186.4</ele>
        <time>2022-08-11T17:36:05Z</time>
      </trkpt>
      <trkpt lat="44.85678" lon="1.00849">
        <ele>186.4</ele>
        <time>2022-08-11T17:36:07Z</time>
      </trkpt>
      <trkpt lat="44.85672" lon="1.00857">
        <ele>186.4</ele>
        <time>2022-08-11T17:36:09Z</time>
      </trkpt>
      <trkpt lat="44.85666" lon="1.00866">
        <ele>186.4</ele>
        <time>2022-08-11T17:36:11Z</time>
      </trkpt>
      <trkpt lat="44.85663" lon="1.00871">
        <ele>187.4</ele>
        <time>2022-08-11T17:36:12Z</time>
      </trkpt>
      <trkpt lat="44.85657" lon="1.00879">
        <ele>187.4</ele>
        <time>2022-08-11T17:36:14Z</time>
      </trkpt>
      <trkpt lat="44.85652" lon="1.00886">
        <ele>186.4</ele>
        <time>2022-08-11T17:36:16Z</time>
      </trkpt>
      <trkpt lat="44.85647" lon="1.00893">
        <ele>186.4</ele>
        <time>2022-08-11T17:36:18Z</time>
      </trkpt>
      <trkpt lat="44.85642" lon="1.009">
        <ele>186.4</ele>
        <time>2022-08-11T17:36:20Z</time>
      </trkpt>
      <trkpt lat="44.85637" lon="1.00907">
        <ele>186.4</ele>
        <time>2022-08-11T17:36:22Z</time>
      </trkpt>
      <trkpt lat="44.85633" lon="1.00915">
        <ele>186.4</ele>
        <time>2022-08-11T17:36:24Z</time>
      </trkpt>
      <trkpt lat="44.85628" lon="1.00922">
        <ele>186.4</ele>
        <time>2022-08-11T17:36:26Z</time>
      </trkpt>
      <trkpt lat="44.85622" lon="1.00931">
        <ele>186.4</ele>
        <time>2022-08-11T17:36:29Z</time>
      </trkpt>
      <trkpt lat="44.85617" lon="1.00936">
        <ele>187.4</ele>
        <time>2022-08-11T17:36:31Z</time>
      </trkpt>
      <trkpt lat="44.85611" lon="1.00941">
        <ele>187.4</ele>
        <time>2022-08-11T17:36:33Z</time>
      </trkpt>
      <trkpt lat="44.85606" lon="1.00942">
        <ele>188.4</ele>
        <time>2022-08-11T17:36:35Z</time>
      </trkpt>
      <trkpt lat="44.85601" lon="1.00942">
        <ele>188.4</ele>
        <time>2022-08-11T17:36:37Z</time>
      </trkpt>
      <trkpt lat="44.85595" lon="1.0094">
        <ele>188.4</ele>
        <time>2022-08-11T17:36:39Z</time>
      </trkpt>
      <trkpt lat="44.85588" lon="1.00936">
        <ele>189.4</ele>
        <time>2022-08-11T17:36:41Z</time>
      </trkpt>
      <trkpt lat="44.85578" lon="1.00933">
        <ele>190.4</ele>
        <time>2022-08-11T17:36:43Z</time>
      </trkpt>
      <trkpt lat="44.85573" lon="1.00932">
        <ele>192.4</ele>
        <time>2022-08-11T17:36:44Z</time>
      </trkpt>
      <trkpt lat="44.85566" lon="1.00929">
        <ele>192.4</ele>
        <time>2022-08-11T17:36:46Z</time>
      </trkpt>
      <trkpt lat="44.85561" lon="1.00927">
        <ele>194.4</ele>
        <time>2022-08-11T17:36:48Z</time>
      </trkpt>
      <trkpt lat="44.85565" lon="1.00929">
        <ele>197.4</ele>
        <time>2022-08-11T17:37:22Z</time>
      </trkpt>
      <trkpt lat="44.85571" lon="1.00932">
        <ele>197.4</ele>
        <time>2022-08-11T17:37:26Z</time>
      </trkpt>
      <trkpt lat="44.85574" lon="1.00936">
        <ele>197.4</ele>
        <time>2022-08-11T17:37:29Z</time>
      </trkpt>
      <trkpt lat="44.85578" lon="1.00939">
        <ele>196.4</ele>
        <time>2022-08-11T17:37:33Z</time>
      </trkpt>
      <trkpt lat="44.85584" lon="1.00943">
        <ele>195.4</ele>
        <time>2022-08-11T17:37:39Z</time>
      </trkpt>
      <trkpt lat="44.85588" lon="1.00948">
        <ele>196.4</ele>
        <time>2022-08-11T17:37:43Z</time>
      </trkpt>
      <trkpt lat="44.85593" lon="1.00953">
        <ele>197.4</ele>
        <time>2022-08-11T17:37:47Z</time>
      </trkpt>
      <trkpt lat="44.85595" lon="1.0096">
        <ele>197.4</ele>
        <time>2022-08-11T17:37:52Z</time>
      </trkpt>
      <trkpt lat="44.85593" lon="1.00968">
        <ele>197.4</ele>
        <time>2022-08-11T17:38:00Z</time>
      </trkpt>
      <trkpt lat="44.8559" lon="1.00975">
        <ele>197.4</ele>
        <time>2022-08-11T17:38:03Z</time>
      </trkpt>
      <trkpt lat="44.85588" lon="1.00982">
        <ele>196.4</ele>
        <time>2022-08-11T17:38:06Z</time>
      </trkpt>
      <trkpt lat="44.85587" lon="1.0099">
        <ele>197.4</ele>
        <time>2022-08-11T17:38:26Z</time>
      </trkpt>
      <trkpt lat="44.85587" lon="1.00997">
        <ele>197.4</ele>
        <time>2022-08-11T17:38:28Z</time>
      </trkpt>
      <trkpt lat="44.85586" lon="1.01007">
        <ele>196.4</ele>
        <time>2022-08-11T17:38:30Z</time>
      </trkpt>
      <trkpt lat="44.85585" lon="1.01018">
        <ele>194.4</ele>
        <time>2022-08-11T17:38:32Z</time>
      </trkpt>
      <trkpt lat="44.85583" lon="1.01027">
        <ele>192.4</ele>
        <time>2022-08-11T17:38:34Z</time>
      </trkpt>
      <trkpt lat="44.85579" lon="1.01035">
        <ele>190.4</ele>
        <time>2022-08-11T17:38:37Z</time>
      </trkpt>
      <trkpt lat="44.85577" lon="1.01041">
        <ele>187.4</ele>
        <time>2022-08-11T17:38:40Z</time>
      </trkpt>
      <trkpt lat="44.85578" lon="1.01048">
        <ele>187.4</ele>
        <time>2022-08-11T17:38:43Z</time>
      </trkpt>
      <trkpt lat="44.85576" lon="1.01057">
        <ele>186.4</ele>
        <time>2022-08-11T17:38:47Z</time>
      </trkpt>
      <trkpt lat="44.85572" lon="1.01062">
        <ele>183.4</ele>
        <time>2022-08-11T17:38:50Z</time>
      </trkpt>
      <trkpt lat="44.85567" lon="1.01068">
        <ele>184.4</ele>
        <time>2022-08-11T17:39:04Z</time>
      </trkpt>
      <trkpt lat="44.85563" lon="1.01073">
        <ele>184.4</ele>
        <time>2022-08-11T17:39:07Z</time>
      </trkpt>
      <trkpt lat="44.85559" lon="1.01078">
        <ele>183.4</ele>
        <time>2022-08-11T17:39:09Z</time>
      </trkpt>
      <trkpt lat="44.85553" lon="1.01085">
        <ele>182.4</ele>
        <time>2022-08-11T17:39:11Z</time>
      </trkpt>
      <trkpt lat="44.85545" lon="1.01095">
        <ele>180.4</ele>
        <time>2022-08-11T17:39:14Z</time>
      </trkpt>
      <trkpt lat="44.8554" lon="1.01104">
        <ele>179.4</ele>
        <time>2022-08-11T17:39:16Z</time>
      </trkpt>
      <trkpt lat="44.85536" lon="1.01116">
        <ele>177.4</ele>
        <time>2022-08-11T17:39:18Z</time>
      </trkpt>
      <trkpt lat="44.85532" lon="1.01124">
        <ele>174.4</ele>
        <time>2022-08-11T17:39:20Z</time>
      </trkpt>
      <trkpt lat="44.85528" lon="1.01128">
        <ele>174.4</ele>
        <time>2022-08-11T17:39:22Z</time>
      </trkpt>
      <trkpt lat="44.85523" lon="1.01131">
        <ele>173.4</ele>
        <time>2022-08-11T17:39:24Z</time>
      </trkpt>
      <trkpt lat="44.85519" lon="1.01137">
        <ele>172.4</ele>
        <time>2022-08-11T17:39:26Z</time>
      </trkpt>
      <trkpt lat="44.85513" lon="1.01145">
        <ele>171.4</ele>
        <time>2022-08-11T17:39:28Z</time>
      </trkpt>
      <trkpt lat="44.85507" lon="1.01151">
        <ele>171.4</ele>
        <time>2022-08-11T17:39:30Z</time>
      </trkpt>
      <trkpt lat="44.85501" lon="1.01156">
        <ele>171.4</ele>
        <time>2022-08-11T17:39:32Z</time>
      </trkpt>
      <trkpt lat="44.85495" lon="1.01162">
        <ele>171.4</ele>
        <time>2022-08-11T17:39:34Z</time>
      </trkpt>
      <trkpt lat="44.85488" lon="1.01168">
        <ele>169.4</ele>
        <time>2022-08-11T17:39:36Z</time>
      </trkpt>
      <trkpt lat="44.85481" lon="1.01174">
        <ele>169.4</ele>
        <time>2022-08-11T17:39:38Z</time>
      </trkpt>
      <trkpt lat="44.85475" lon="1.01181">
        <ele>168.4</ele>
        <time>2022-08-11T17:39:40Z</time>
      </trkpt>
      <trkpt lat="44.85469" lon="1.01187">
        <ele>168.4</ele>
        <time>2022-08-11T17:39:42Z</time>
      </trkpt>
      <trkpt lat="44.85463" lon="1.01193">
        <ele>167.4</ele>
        <time>2022-08-11T17:39:44Z</time>
      </trkpt>
      <trkpt lat="44.85456" lon="1.01199">
        <ele>165.4</ele>
        <time>2022-08-11T17:39:46Z</time>
      </trkpt>
      <trkpt lat="44.85448" lon="1.01208">
        <ele>161.4</ele>
        <time>2022-08-11T17:39:48Z</time>
      </trkpt>
      <trkpt lat="44.85442" lon="1.01213">
        <ele>159.4</ele>
        <time>2022-08-11T17:39:49Z</time>
      </trkpt>
      <trkpt lat="44.85436" lon="1.01218">
        <ele>157.4</ele>
        <time>2022-08-11T17:39:50Z</time>
      </trkpt>
      <trkpt lat="44.85431" lon="1.01223">
        <ele>155.4</ele>
        <time>2022-08-11T17:39:51Z</time>
      </trkpt>
      <trkpt lat="44.85422" lon="1.01233">
        <ele>152.4</ele>
        <time>2022-08-11T17:39:53Z</time>
      </trkpt>
      <trkpt lat="44.85418" lon="1.01238">
        <ele>151.4</ele>
        <time>2022-08-11T17:39:54Z</time>
      </trkpt>
      <trkpt lat="44.85413" lon="1.01244">
        <ele>150.4</ele>
        <time>2022-08-11T17:39:55Z</time>
      </trkpt>
      <trkpt lat="44.85409" lon="1.0125">
        <ele>149.4</ele>
        <time>2022-08-11T17:39:56Z</time>
      </trkpt>
      <trkpt lat="44.85403" lon="1.01255">
        <ele>148.4</ele>
        <time>2022-08-11T17:39:57Z</time>
      </trkpt>
      <trkpt lat="44.85398" lon="1.0126">
        <ele>147.4</ele>
        <time>2022-08-11T17:39:58Z</time>
      </trkpt>
      <trkpt lat="44.85393" lon="1.01265">
        <ele>147.4</ele>
        <time>2022-08-11T17:39:59Z</time>
      </trkpt>
      <trkpt lat="44.85386" lon="1.01271">
        <ele>146.4</ele>
        <time>2022-08-11T17:40:00Z</time>
      </trkpt>
      <trkpt lat="44.8538" lon="1.01277">
        <ele>146.4</ele>
        <time>2022-08-11T17:40:01Z</time>
      </trkpt>
      <trkpt lat="44.85375" lon="1.01281">
        <ele>145.4</ele>
        <time>2022-08-11T17:40:02Z</time>
      </trkpt>
      <trkpt lat="44.85366" lon="1.01291">
        <ele>144.4</ele>
        <time>2022-08-11T17:40:04Z</time>
      </trkpt>
      <trkpt lat="44.85362" lon="1.01296">
        <ele>143.4</ele>
        <time>2022-08-11T17:40:05Z</time>
      </trkpt>
      <trkpt lat="44.85357" lon="1.01301">
        <ele>142.4</ele>
        <time>2022-08-11T17:40:06Z</time>
      </trkpt>
      <trkpt lat="44.85351" lon="1.01309">
        <ele>142.4</ele>
        <time>2022-08-11T17:40:08Z</time>
      </trkpt>
      <trkpt lat="44.85346" lon="1.01315">
        <ele>142.4</ele>
        <time>2022-08-11T17:40:09Z</time>
      </trkpt>
      <trkpt lat="44.8534" lon="1.01324">
        <ele>140.4</ele>
        <time>2022-08-11T17:40:11Z</time>
      </trkpt>
      <trkpt lat="44.8533" lon="1.01337">
        <ele>140.4</ele>
        <time>2022-08-11T17:40:14Z</time>
      </trkpt>
      <trkpt lat="44.85326" lon="1.01341">
        <ele>140.4</ele>
        <time>2022-08-11T17:40:15Z</time>
      </trkpt>
      <trkpt lat="44.85321" lon="1.01345">
        <ele>140.4</ele>
        <time>2022-08-11T17:40:16Z</time>
      </trkpt>
      <trkpt lat="44.85314" lon="1.0135">
        <ele>140.4</ele>
        <time>2022-08-11T17:40:17Z</time>
      </trkpt>
      <trkpt lat="44.85308" lon="1.01355">
        <ele>140.4</ele>
        <time>2022-08-11T17:40:18Z</time>
      </trkpt>
      <trkpt lat="44.85301" lon="1.0136">
        <ele>140.4</ele>
        <time>2022-08-11T17:40:20Z</time>
      </trkpt>
      <trkpt lat="44.85296" lon="1.01361">
        <ele>140.4</ele>
        <time>2022-08-11T17:40:22Z</time>
      </trkpt>
      <trkpt lat="44.85293" lon="1.01368">
        <ele>142.4</ele>
        <time>2022-08-11T17:40:52Z</time>
      </trkpt>
      <trkpt lat="44.85293" lon="1.01374">
        <ele>142.4</ele>
        <time>2022-08-11T17:40:54Z</time>
      </trkpt>
      <trkpt lat="44.85293" lon="1.01381">
        <ele>142.4</ele>
        <time>2022-08-11T17:40:56Z</time>
      </trkpt>
      <trkpt lat="44.85292" lon="1.01388">
        <ele>142.4</ele>
        <time>2022-08-11T17:40:58Z</time>
      </trkpt>
      <trkpt lat="44.8529" lon="1.01396">
        <ele>143.4</ele>
        <time>2022-08-11T17:41:00Z</time>
      </trkpt>
      <trkpt lat="44.85287" lon="1.01405">
        <ele>143.4</ele>
        <time>2022-08-11T17:41:02Z</time>
      </trkpt>
      <trkpt lat="44.8528" lon="1.01415">
        <ele>142.4</ele>
        <time>2022-08-11T17:41:04Z</time>
      </trkpt>
      <trkpt lat="44.85277" lon="1.01421">
        <ele>142.4</ele>
        <time>2022-08-11T17:41:05Z</time>
      </trkpt>
      <trkpt lat="44.85273" lon="1.01426">
        <ele>142.4</ele>
        <time>2022-08-11T17:41:06Z</time>
      </trkpt>
      <trkpt lat="44.8527" lon="1.01432">
        <ele>142.4</ele>
        <time>2022-08-11T17:41:07Z</time>
      </trkpt>
      <trkpt lat="44.85264" lon="1.01441">
        <ele>141.4</ele>
        <time>2022-08-11T17:41:09Z</time>
      </trkpt>
      <trkpt lat="44.8526" lon="1.01446">
        <ele>141.4</ele>
        <time>2022-08-11T17:41:10Z</time>
      </trkpt>
      <trkpt lat="44.85257" lon="1.01451">
        <ele>141.4</ele>
        <time>2022-08-11T17:41:11Z</time>
      </trkpt>
      <trkpt lat="44.85254" lon="1.01456">
        <ele>141.4</ele>
        <time>2022-08-11T17:41:12Z</time>
      </trkpt>
      <trkpt lat="44.85251" lon="1.01462">
        <ele>141.4</ele>
        <time>2022-08-11T17:41:13Z</time>
      </trkpt>
      <trkpt lat="44.85248" lon="1.01468">
        <ele>141.4</ele>
        <time>2022-08-11T17:41:14Z</time>
      </trkpt>
      <trkpt lat="44.85245" lon="1.01473">
        <ele>141.4</ele>
        <time>2022-08-11T17:41:15Z</time>
      </trkpt>
      <trkpt lat="44.85241" lon="1.0148">
        <ele>141.4</ele>
        <time>2022-08-11T17:41:17Z</time>
      </trkpt>
      <trkpt lat="44.85237" lon="1.01485">
        <ele>140.4</ele>
        <time>2022-08-11T17:41:19Z</time>
      </trkpt>
      <trkpt lat="44.85234" lon="1.0149">
        <ele>139.4</ele>
        <time>2022-08-11T17:41:21Z</time>
      </trkpt>
      <trkpt lat="44.85231" lon="1.01498">
        <ele>139.4</ele>
        <time>2022-08-11T17:41:24Z</time>
      </trkpt>
      <trkpt lat="44.85229" lon="1.01504">
        <ele>138.4</ele>
        <time>2022-08-11T17:41:26Z</time>
      </trkpt>
      <trkpt lat="44.85226" lon="1.0151">
        <ele>138.4</ele>
        <time>2022-08-11T17:41:28Z</time>
      </trkpt>
      <trkpt lat="44.85222" lon="1.01517">
        <ele>137.4</ele>
        <time>2022-08-11T17:41:30Z</time>
      </trkpt>
      <trkpt lat="44.85219" lon="1.01522">
        <ele>137.4</ele>
        <time>2022-08-11T17:41:32Z</time>
      </trkpt>
      <trkpt lat="44.85214" lon="1.01527">
        <ele>136.4</ele>
        <time>2022-08-11T17:41:35Z</time>
      </trkpt>
      <trkpt lat="44.85211" lon="1.01532">
        <ele>136.4</ele>
        <time>2022-08-11T17:41:37Z</time>
      </trkpt>
      <trkpt lat="44.85207" lon="1.0154">
        <ele>136.4</ele>
        <time>2022-08-11T17:41:40Z</time>
      </trkpt>
      <trkpt lat="44.85204" lon="1.01545">
        <ele>136.4</ele>
        <time>2022-08-11T17:41:43Z</time>
      </trkpt>
      <trkpt lat="44.85199" lon="1.01549">
        <ele>137.4</ele>
        <time>2022-08-11T17:41:47Z</time>
      </trkpt>
      <trkpt lat="44.85198" lon="1.01555">
        <ele>138.4</ele>
        <time>2022-08-11T17:41:57Z</time>
      </trkpt>
      <trkpt lat="44.85195" lon="1.01561">
        <ele>139.4</ele>
        <time>2022-08-11T17:42:09Z</time>
      </trkpt>
      <trkpt lat="44.85199" lon="1.01555">
        <ele>140.4</ele>
        <time>2022-08-11T17:44:47Z</time>
      </trkpt>
      <trkpt lat="44.85203" lon="1.0155">
        <ele>138.4</ele>
        <time>2022-08-11T17:44:50Z</time>
      </trkpt>
      <trkpt lat="44.85206" lon="1.01544">
        <ele>137.4</ele>
        <time>2022-08-11T17:44:52Z</time>
      </trkpt>
      <trkpt lat="44.85208" lon="1.01539">
        <ele>136.4</ele>
        <time>2022-08-11T17:44:54Z</time>
      </trkpt>
      <trkpt lat="44.85212" lon="1.01534">
        <ele>134.4</ele>
        <time>2022-08-11T17:44:57Z</time>
      </trkpt>
      <trkpt lat="44.85214" lon="1.0154">
        <ele>133.4</ele>
        <time>2022-08-11T17:45:01Z</time>
      </trkpt>
      <trkpt lat="44.85213" lon="1.0155">
        <ele>132.4</ele>
        <time>2022-08-11T17:45:04Z</time>
      </trkpt>
      <trkpt lat="44.85213" lon="1.01556">
        <ele>131.4</ele>
        <time>2022-08-11T17:45:06Z</time>
      </trkpt>
      <trkpt lat="44.85213" lon="1.01563">
        <ele>131.4</ele>
        <time>2022-08-11T17:45:08Z</time>
      </trkpt>
      <trkpt lat="44.85211" lon="1.01571">
        <ele>130.4</ele>
        <time>2022-08-11T17:45:10Z</time>
      </trkpt>
      <trkpt lat="44.8521" lon="1.01581">
        <ele>130.4</ele>
        <time>2022-08-11T17:45:12Z</time>
      </trkpt>
      <trkpt lat="44.85209" lon="1.01592">
        <ele>130.4</ele>
        <time>2022-08-11T17:45:14Z</time>
      </trkpt>
      <trkpt lat="44.85208" lon="1.01599">
        <ele>130.4</ele>
        <time>2022-08-11T17:45:15Z</time>
      </trkpt>
      <trkpt lat="44.85207" lon="1.01606">
        <ele>130.4</ele>
        <time>2022-08-11T17:45:16Z</time>
      </trkpt>
      <trkpt lat="44.85205" lon="1.01614">
        <ele>129.4</ele>
        <time>2022-08-11T17:45:17Z</time>
      </trkpt>
      <trkpt lat="44.85204" lon="1.01621">
        <ele>129.4</ele>
        <time>2022-08-11T17:45:18Z</time>
      </trkpt>
      <trkpt lat="44.85201" lon="1.01628">
        <ele>128.4</ele>
        <time>2022-08-11T17:45:19Z</time>
      </trkpt>
      <trkpt lat="44.85199" lon="1.01635">
        <ele>127.4</ele>
        <time>2022-08-11T17:45:20Z</time>
      </trkpt>
      <trkpt lat="44.85197" lon="1.01642">
        <ele>126.4</ele>
        <time>2022-08-11T17:45:21Z</time>
      </trkpt>
      <trkpt lat="44.85195" lon="1.01649">
        <ele>126.4</ele>
        <time>2022-08-11T17:45:22Z</time>
      </trkpt>
      <trkpt lat="44.85193" lon="1.01655">
        <ele>126.4</ele>
        <time>2022-08-11T17:45:23Z</time>
      </trkpt>
      <trkpt lat="44.85191" lon="1.01662">
        <ele>125.4</ele>
        <time>2022-08-11T17:45:24Z</time>
      </trkpt>
      <trkpt lat="44.8519" lon="1.01669">
        <ele>124.4</ele>
        <time>2022-08-11T17:45:25Z</time>
      </trkpt>
      <trkpt lat="44.85188" lon="1.01675">
        <ele>124.4</ele>
        <time>2022-08-11T17:45:26Z</time>
      </trkpt>
      <trkpt lat="44.85185" lon="1.01687">
        <ele>124.4</ele>
        <time>2022-08-11T17:45:28Z</time>
      </trkpt>
      <trkpt lat="44.85183" lon="1.01693">
        <ele>124.4</ele>
        <time>2022-08-11T17:45:29Z</time>
      </trkpt>
      <trkpt lat="44.85181" lon="1.01701">
        <ele>124.4</ele>
        <time>2022-08-11T17:45:30Z</time>
      </trkpt>
      <trkpt lat="44.85179" lon="1.01708">
        <ele>124.4</ele>
        <time>2022-08-11T17:45:31Z</time>
      </trkpt>
      <trkpt lat="44.85177" lon="1.01716">
        <ele>123.4</ele>
        <time>2022-08-11T17:45:32Z</time>
      </trkpt>
      <trkpt lat="44.85174" lon="1.01722">
        <ele>123.4</ele>
        <time>2022-08-11T17:45:33Z</time>
      </trkpt>
      <trkpt lat="44.85171" lon="1.01729">
        <ele>122.4</ele>
        <time>2022-08-11T17:45:34Z</time>
      </trkpt>
      <trkpt lat="44.85169" lon="1.01734">
        <ele>122.4</ele>
        <time>2022-08-11T17:45:35Z</time>
      </trkpt>
      <trkpt lat="44.85165" lon="1.01744">
        <ele>121.4</ele>
        <time>2022-08-11T17:45:37Z</time>
      </trkpt>
      <trkpt lat="44.85161" lon="1.01752">
        <ele>120.4</ele>
        <time>2022-08-11T17:45:39Z</time>
      </trkpt>
      <trkpt lat="44.85157" lon="1.01759">
        <ele>120.4</ele>
        <time>2022-08-11T17:45:41Z</time>
      </trkpt>
      <trkpt lat="44.85153" lon="1.01766">
        <ele>120.4</ele>
        <time>2022-08-11T17:45:43Z</time>
      </trkpt>
      <trkpt lat="44.85148" lon="1.01774">
        <ele>120.4</ele>
        <time>2022-08-11T17:45:45Z</time>
      </trkpt>
      <trkpt lat="44.85144" lon="1.01783">
        <ele>120.4</ele>
        <time>2022-08-11T17:45:47Z</time>
      </trkpt>
      <trkpt lat="44.85141" lon="1.01791">
        <ele>120.4</ele>
        <time>2022-08-11T17:45:49Z</time>
      </trkpt>
      <trkpt lat="44.85137" lon="1.01798">
        <ele>120.4</ele>
        <time>2022-08-11T17:45:51Z</time>
      </trkpt>
      <trkpt lat="44.85133" lon="1.01804">
        <ele>119.4</ele>
        <time>2022-08-11T17:45:53Z</time>
      </trkpt>
      <trkpt lat="44.85128" lon="1.01808">
        <ele>119.4</ele>
        <time>2022-08-11T17:45:55Z</time>
      </trkpt>
      <trkpt lat="44.85126" lon="1.01814">
        <ele>119.4</ele>
        <time>2022-08-11T17:46:00Z</time>
      </trkpt>
      <trkpt lat="44.85126" lon="1.01821">
        <ele>120.4</ele>
        <time>2022-08-11T17:46:13Z</time>
      </trkpt>
      <trkpt lat="44.85124" lon="1.01828">
        <ele>123.4</ele>
        <time>2022-08-11T17:46:16Z</time>
      </trkpt>
      <trkpt lat="44.85119" lon="1.01832">
        <ele>124.4</ele>
        <time>2022-08-11T17:46:45Z</time>
      </trkpt>
      <trkpt lat="44.85113" lon="1.01831">
        <ele>125.4</ele>
        <time>2022-08-11T17:46:49Z</time>
      </trkpt>
      <trkpt lat="44.85118" lon="1.0183">
        <ele>124.4</ele>
        <time>2022-08-11T17:47:08Z</time>
      </trkpt>
      <trkpt lat="44.85122" lon="1.01827">
        <ele>124.4</ele>
        <time>2022-08-11T17:47:10Z</time>
      </trkpt>
      <trkpt lat="44.85128" lon="1.01821">
        <ele>123.4</ele>
        <time>2022-08-11T17:47:12Z</time>
      </trkpt>
      <trkpt lat="44.85135" lon="1.01814">
        <ele>122.4</ele>
        <time>2022-08-11T17:47:14Z</time>
      </trkpt>
      <trkpt lat="44.85139" lon="1.0181">
        <ele>121.4</ele>
        <time>2022-08-11T17:47:15Z</time>
      </trkpt>
      <trkpt lat="44.85144" lon="1.01807">
        <ele>121.4</ele>
        <time>2022-08-11T17:47:16Z</time>
      </trkpt>
      <trkpt lat="44.85148" lon="1.01802">
        <ele>121.4</ele>
        <time>2022-08-11T17:47:17Z</time>
      </trkpt>
      <trkpt lat="44.85152" lon="1.01797">
        <ele>121.4</ele>
        <time>2022-08-11T17:47:18Z</time>
      </trkpt>
      <trkpt lat="44.85156" lon="1.01791">
        <ele>120.4</ele>
        <time>2022-08-11T17:47:19Z</time>
      </trkpt>
      <trkpt lat="44.8516" lon="1.01785">
        <ele>120.4</ele>
        <time>2022-08-11T17:47:20Z</time>
      </trkpt>
      <trkpt lat="44.85164" lon="1.01778">
        <ele>119.4</ele>
        <time>2022-08-11T17:47:21Z</time>
      </trkpt>
      <trkpt lat="44.85169" lon="1.01772">
        <ele>119.4</ele>
        <time>2022-08-11T17:47:22Z</time>
      </trkpt>
      <trkpt lat="44.85173" lon="1.01765">
        <ele>118.4</ele>
        <time>2022-08-11T17:47:23Z</time>
      </trkpt>
      <trkpt lat="44.85178" lon="1.01759">
        <ele>118.4</ele>
        <time>2022-08-11T17:47:24Z</time>
      </trkpt>
      <trkpt lat="44.85182" lon="1.01752">
        <ele>117.4</ele>
        <time>2022-08-11T17:47:25Z</time>
      </trkpt>
      <trkpt lat="44.85187" lon="1.01746">
        <ele>117.4</ele>
        <time>2022-08-11T17:47:26Z</time>
      </trkpt>
      <trkpt lat="44.85192" lon="1.01738">
        <ele>117.4</ele>
        <time>2022-08-11T17:47:27Z</time>
      </trkpt>
      <trkpt lat="44.85197" lon="1.01729">
        <ele>116.4</ele>
        <time>2022-08-11T17:47:28Z</time>
      </trkpt>
      <trkpt lat="44.85202" lon="1.0172">
        <ele>116.4</ele>
        <time>2022-08-11T17:47:29Z</time>
      </trkpt>
      <trkpt lat="44.85207" lon="1.01709">
        <ele>115.4</ele>
        <time>2022-08-11T17:47:30Z</time>
      </trkpt>
      <trkpt lat="44.85212" lon="1.01699">
        <ele>115.4</ele>
        <time>2022-08-11T17:47:31Z</time>
      </trkpt>
      <trkpt lat="44.85216" lon="1.01687">
        <ele>115.4</ele>
        <time>2022-08-11T17:47:32Z</time>
      </trkpt>
      <trkpt lat="44.85219" lon="1.01676">
        <ele>114.4</ele>
        <time>2022-08-11T17:47:33Z</time>
      </trkpt>
      <trkpt lat="44.85223" lon="1.01667">
        <ele>114.4</ele>
        <time>2022-08-11T17:47:34Z</time>
      </trkpt>
      <trkpt lat="44.85227" lon="1.01658">
        <ele>114.4</ele>
        <time>2022-08-11T17:47:35Z</time>
      </trkpt>
      <trkpt lat="44.85231" lon="1.0165">
        <ele>114.4</ele>
        <time>2022-08-11T17:47:36Z</time>
      </trkpt>
      <trkpt lat="44.85235" lon="1.01642">
        <ele>114.4</ele>
        <time>2022-08-11T17:47:37Z</time>
      </trkpt>
      <trkpt lat="44.8524" lon="1.01633">
        <ele>113.4</ele>
        <time>2022-08-11T17:47:38Z</time>
      </trkpt>
      <trkpt lat="44.85244" lon="1.01624">
        <ele>112.4</ele>
        <time>2022-08-11T17:47:39Z</time>
      </trkpt>
      <trkpt lat="44.85249" lon="1.01614">
        <ele>111.4</ele>
        <time>2022-08-11T17:47:40Z</time>
      </trkpt>
      <trkpt lat="44.85255" lon="1.01604">
        <ele>111.4</ele>
        <time>2022-08-11T17:47:41Z</time>
      </trkpt>
      <trkpt lat="44.8526" lon="1.01593">
        <ele>111.4</ele>
        <time>2022-08-11T17:47:42Z</time>
      </trkpt>
      <trkpt lat="44.85265" lon="1.01582">
        <ele>111.4</ele>
        <time>2022-08-11T17:47:43Z</time>
      </trkpt>
      <trkpt lat="44.85269" lon="1.0157">
        <ele>111.4</ele>
        <time>2022-08-11T17:47:44Z</time>
      </trkpt>
      <trkpt lat="44.85275" lon="1.01559">
        <ele>111.4</ele>
        <time>2022-08-11T17:47:45Z</time>
      </trkpt>
      <trkpt lat="44.85281" lon="1.01549">
        <ele>111.4</ele>
        <time>2022-08-11T17:47:46Z</time>
      </trkpt>
      <trkpt lat="44.85289" lon="1.01538">
        <ele>111.4</ele>
        <time>2022-08-11T17:47:47Z</time>
      </trkpt>
      <trkpt lat="44.85296" lon="1.01528">
        <ele>111.4</ele>
        <time>2022-08-11T17:47:48Z</time>
      </trkpt>
      <trkpt lat="44.85304" lon="1.01518">
        <ele>111.4</ele>
        <time>2022-08-11T17:47:49Z</time>
      </trkpt>
      <trkpt lat="44.85312" lon="1.01508">
        <ele>110.4</ele>
        <time>2022-08-11T17:47:50Z</time>
      </trkpt>
      <trkpt lat="44.8532" lon="1.015">
        <ele>110.4</ele>
        <time>2022-08-11T17:47:51Z</time>
      </trkpt>
      <trkpt lat="44.85327" lon="1.01491">
        <ele>109.4</ele>
        <time>2022-08-11T17:47:52Z</time>
      </trkpt>
      <trkpt lat="44.85335" lon="1.01483">
        <ele>108.4</ele>
        <time>2022-08-11T17:47:53Z</time>
      </trkpt>
      <trkpt lat="44.85343" lon="1.01475">
        <ele>108.4</ele>
        <time>2022-08-11T17:47:54Z</time>
      </trkpt>
      <trkpt lat="44.85351" lon="1.01467">
        <ele>107.4</ele>
        <time>2022-08-11T17:47:55Z</time>
      </trkpt>
      <trkpt lat="44.8536" lon="1.01459">
        <ele>107.4</ele>
        <time>2022-08-11T17:47:56Z</time>
      </trkpt>
      <trkpt lat="44.8537" lon="1.01451">
        <ele>107.4</ele>
        <time>2022-08-11T17:47:57Z</time>
      </trkpt>
      <trkpt lat="44.8538" lon="1.01443">
        <ele>106.4</ele>
        <time>2022-08-11T17:47:58Z</time>
      </trkpt>
      <trkpt lat="44.85389" lon="1.01436">
        <ele>106.4</ele>
        <time>2022-08-11T17:47:59Z</time>
      </trkpt>
      <trkpt lat="44.85399" lon="1.0143">
        <ele>105.4</ele>
        <time>2022-08-11T17:48:00Z</time>
      </trkpt>
      <trkpt lat="44.85407" lon="1.01425">
        <ele>105.4</ele>
        <time>2022-08-11T17:48:01Z</time>
      </trkpt>
      <trkpt lat="44.85416" lon="1.0142">
        <ele>105.4</ele>
        <time>2022-08-11T17:48:02Z</time>
      </trkpt>
      <trkpt lat="44.85423" lon="1.01416">
        <ele>105.4</ele>
        <time>2022-08-11T17:48:03Z</time>
      </trkpt>
      <trkpt lat="44.85431" lon="1.01412">
        <ele>104.4</ele>
        <time>2022-08-11T17:48:04Z</time>
      </trkpt>
      <trkpt lat="44.85438" lon="1.01409">
        <ele>103.4</ele>
        <time>2022-08-11T17:48:05Z</time>
      </trkpt>
      <trkpt lat="44.85443" lon="1.01409">
        <ele>104.4</ele>
        <time>2022-08-11T17:48:06Z</time>
      </trkpt>
      <trkpt lat="44.8545" lon="1.01408">
        <ele>103.4</ele>
        <time>2022-08-11T17:48:08Z</time>
      </trkpt>
      <trkpt lat="44.85442" lon="1.0141">
        <ele>100.4</ele>
        <time>2022-08-11T17:48:12Z</time>
      </trkpt>
      <trkpt lat="44.85434" lon="1.01411">
        <ele>100.4</ele>
        <time>2022-08-11T17:48:14Z</time>
      </trkpt>
      <trkpt lat="44.85426" lon="1.01413">
        <ele>99.4</ele>
        <time>2022-08-11T17:48:16Z</time>
      </trkpt>
      <trkpt lat="44.85418" lon="1.01416">
        <ele>99.4</ele>
        <time>2022-08-11T17:48:18Z</time>
      </trkpt>
      <trkpt lat="44.85414" lon="1.0142">
        <ele>98.4</ele>
        <time>2022-08-11T17:48:19Z</time>
      </trkpt>
      <trkpt lat="44.85411" lon="1.01423">
        <ele>97.4</ele>
        <time>2022-08-11T17:48:20Z</time>
      </trkpt>
      <trkpt lat="44.85404" lon="1.01431">
        <ele>96.4</ele>
        <time>2022-08-11T17:48:22Z</time>
      </trkpt>
      <trkpt lat="44.854" lon="1.01435">
        <ele>96.4</ele>
        <time>2022-08-11T17:48:23Z</time>
      </trkpt>
      <trkpt lat="44.85396" lon="1.01439">
        <ele>96.4</ele>
        <time>2022-08-11T17:48:24Z</time>
      </trkpt>
      <trkpt lat="44.85392" lon="1.01444">
        <ele>94.4</ele>
        <time>2022-08-11T17:48:25Z</time>
      </trkpt>
      <trkpt lat="44.85388" lon="1.01448">
        <ele>93.4</ele>
        <time>2022-08-11T17:48:26Z</time>
      </trkpt>
      <trkpt lat="44.85385" lon="1.01453">
        <ele>92.4</ele>
        <time>2022-08-11T17:48:27Z</time>
      </trkpt>
      <trkpt lat="44.85378" lon="1.01462">
        <ele>91.4</ele>
        <time>2022-08-11T17:48:29Z</time>
      </trkpt>
      <trkpt lat="44.85372" lon="1.0147">
        <ele>90.4</ele>
        <time>2022-08-11T17:48:31Z</time>
      </trkpt>
      <trkpt lat="44.85365" lon="1.01478">
        <ele>89.4</ele>
        <time>2022-08-11T17:48:33Z</time>
      </trkpt>
      <trkpt lat="44.8536" lon="1.01487">
        <ele>88.4</ele>
        <time>2022-08-11T17:48:35Z</time>
      </trkpt>
      <trkpt lat="44.85355" lon="1.01497">
        <ele>88.4</ele>
        <time>2022-08-11T17:48:37Z</time>
      </trkpt>
      <trkpt lat="44.85352" lon="1.01503">
        <ele>87.4</ele>
        <time>2022-08-11T17:48:38Z</time>
      </trkpt>
      <trkpt lat="44.85349" lon="1.01509">
        <ele>87.4</ele>
        <time>2022-08-11T17:48:39Z</time>
      </trkpt>
      <trkpt lat="44.85347" lon="1.01515">
        <ele>87.4</ele>
        <time>2022-08-11T17:48:40Z</time>
      </trkpt>
      <trkpt lat="44.85342" lon="1.01526">
        <ele>87.4</ele>
        <time>2022-08-11T17:48:42Z</time>
      </trkpt>
      <trkpt lat="44.85339" lon="1.01532">
        <ele>86.4</ele>
        <time>2022-08-11T17:48:43Z</time>
      </trkpt>
      <trkpt lat="44.85337" lon="1.01539">
        <ele>86.4</ele>
        <time>2022-08-11T17:48:44Z</time>
      </trkpt>
      <trkpt lat="44.85334" lon="1.01546">
        <ele>86.4</ele>
        <time>2022-08-11T17:48:45Z</time>
      </trkpt>
      <trkpt lat="44.85329" lon="1.01557">
        <ele>85.4</ele>
        <time>2022-08-11T17:48:47Z</time>
      </trkpt>
      <trkpt lat="44.85324" lon="1.01567">
        <ele>85.4</ele>
        <time>2022-08-11T17:48:49Z</time>
      </trkpt>
      <trkpt lat="44.85321" lon="1.01572">
        <ele>85.4</ele>
        <time>2022-08-11T17:48:50Z</time>
      </trkpt>
      <trkpt lat="44.85318" lon="1.01578">
        <ele>85.4</ele>
        <time>2022-08-11T17:48:51Z</time>
      </trkpt>
      <trkpt lat="44.85315" lon="1.01585">
        <ele>84.4</ele>
        <time>2022-08-11T17:48:52Z</time>
      </trkpt>
      <trkpt lat="44.85313" lon="1.0159">
        <ele>84.4</ele>
        <time>2022-08-11T17:48:53Z</time>
      </trkpt>
      <trkpt lat="44.85308" lon="1.01598">
        <ele>83.4</ele>
        <time>2022-08-11T17:48:55Z</time>
      </trkpt>
      <trkpt lat="44.85305" lon="1.01606">
        <ele>83.4</ele>
        <time>2022-08-11T17:48:57Z</time>
      </trkpt>
      <trkpt lat="44.85301" lon="1.01617">
        <ele>82.4</ele>
        <time>2022-08-11T17:48:59Z</time>
      </trkpt>
      <trkpt lat="44.853" lon="1.01623">
        <ele>82.4</ele>
        <time>2022-08-11T17:49:00Z</time>
      </trkpt>
      <trkpt lat="44.85298" lon="1.01629">
        <ele>82.4</ele>
        <time>2022-08-11T17:49:01Z</time>
      </trkpt>
      <trkpt lat="44.85296" lon="1.01635">
        <ele>81.4</ele>
        <time>2022-08-11T17:49:02Z</time>
      </trkpt>
      <trkpt lat="44.85294" lon="1.01642">
        <ele>81.4</ele>
        <time>2022-08-11T17:49:03Z</time>
      </trkpt>
      <trkpt lat="44.85292" lon="1.01648">
        <ele>80.4</ele>
        <time>2022-08-11T17:49:04Z</time>
      </trkpt>
      <trkpt lat="44.85292" lon="1.01655">
        <ele>80.4</ele>
        <time>2022-08-11T17:49:05Z</time>
      </trkpt>
      <trkpt lat="44.8529" lon="1.01668">
        <ele>79.4</ele>
        <time>2022-08-11T17:49:07Z</time>
      </trkpt>
      <trkpt lat="44.85289" lon="1.01675">
        <ele>79.4</ele>
        <time>2022-08-11T17:49:08Z</time>
      </trkpt>
      <trkpt lat="44.85287" lon="1.01682">
        <ele>79.4</ele>
        <time>2022-08-11T17:49:09Z</time>
      </trkpt>
      <trkpt lat="44.85285" lon="1.01688">
        <ele>78.4</ele>
        <time>2022-08-11T17:49:10Z</time>
      </trkpt>
      <trkpt lat="44.85283" lon="1.01695">
        <ele>78.4</ele>
        <time>2022-08-11T17:49:11Z</time>
      </trkpt>
      <trkpt lat="44.85281" lon="1.01702">
        <ele>78.4</ele>
        <time>2022-08-11T17:49:12Z</time>
      </trkpt>
      <trkpt lat="44.85279" lon="1.01711">
        <ele>77.4</ele>
        <time>2022-08-11T17:49:13Z</time>
      </trkpt>
      <trkpt lat="44.85277" lon="1.0172">
        <ele>76.4</ele>
        <time>2022-08-11T17:49:14Z</time>
      </trkpt>
      <trkpt lat="44.85274" lon="1.01727">
        <ele>76.4</ele>
        <time>2022-08-11T17:49:15Z</time>
      </trkpt>
      <trkpt lat="44.85271" lon="1.01733">
        <ele>75.4</ele>
        <time>2022-08-11T17:49:16Z</time>
      </trkpt>
      <trkpt lat="44.85268" lon="1.01739">
        <ele>75.4</ele>
        <time>2022-08-11T17:49:17Z</time>
      </trkpt>
      <trkpt lat="44.85266" lon="1.01745">
        <ele>74.4</ele>
        <time>2022-08-11T17:49:18Z</time>
      </trkpt>
      <trkpt lat="44.85265" lon="1.01752">
        <ele>74.4</ele>
        <time>2022-08-11T17:49:19Z</time>
      </trkpt>
      <trkpt lat="44.85264" lon="1.01762">
        <ele>73.4</ele>
        <time>2022-08-11T17:49:20Z</time>
      </trkpt>
      <trkpt lat="44.85264" lon="1.0177">
        <ele>73.4</ele>
        <time>2022-08-11T17:49:21Z</time>
      </trkpt>
      <trkpt lat="44.85264" lon="1.01778">
        <ele>73.4</ele>
        <time>2022-08-11T17:49:22Z</time>
      </trkpt>
      <trkpt lat="44.85264" lon="1.01787">
        <ele>72.4</ele>
        <time>2022-08-11T17:49:23Z</time>
      </trkpt>
      <trkpt lat="44.85264" lon="1.01794">
        <ele>71.4</ele>
        <time>2022-08-11T17:49:24Z</time>
      </trkpt>
      <trkpt lat="44.85263" lon="1.01801">
        <ele>71.4</ele>
        <time>2022-08-11T17:49:25Z</time>
      </trkpt>
      <trkpt lat="44.85263" lon="1.01807">
        <ele>70.4</ele>
        <time>2022-08-11T17:49:26Z</time>
      </trkpt>
      <trkpt lat="44.85262" lon="1.01814">
        <ele>69.4</ele>
        <time>2022-08-11T17:49:27Z</time>
      </trkpt>
      <trkpt lat="44.8526" lon="1.0182">
        <ele>68.4</ele>
        <time>2022-08-11T17:49:28Z</time>
      </trkpt>
      <trkpt lat="44.85258" lon="1.01827">
        <ele>67.4</ele>
        <time>2022-08-11T17:49:29Z</time>
      </trkpt>
      <trkpt lat="44.85257" lon="1.01833">
        <ele>67.4</ele>
        <time>2022-08-11T17:49:30Z</time>
      </trkpt>
      <trkpt lat="44.85254" lon="1.01839">
        <ele>67.4</ele>
        <time>2022-08-11T17:49:31Z</time>
      </trkpt>
      <trkpt lat="44.85252" lon="1.01845">
        <ele>66.4</ele>
        <time>2022-08-11T17:49:32Z</time>
      </trkpt>
      <trkpt lat="44.85248" lon="1.01851">
        <ele>66.4</ele>
        <time>2022-08-11T17:49:33Z</time>
      </trkpt>
      <trkpt lat="44.85243" lon="1.01857">
        <ele>64.4</ele>
        <time>2022-08-11T17:49:34Z</time>
      </trkpt>
      <trkpt lat="44.85238" lon="1.01864">
        <ele>62.4</ele>
        <time>2022-08-11T17:49:35Z</time>
      </trkpt>
      <trkpt lat="44.85235" lon="1.01871">
        <ele>62.4</ele>
        <time>2022-08-11T17:49:36Z</time>
      </trkpt>
      <trkpt lat="44.85232" lon="1.01877">
        <ele>61.4</ele>
        <time>2022-08-11T17:49:37Z</time>
      </trkpt>
      <trkpt lat="44.85232" lon="1.01885">
        <ele>60.4</ele>
        <time>2022-08-11T17:49:38Z</time>
      </trkpt>
      <trkpt lat="44.85233" lon="1.01892">
        <ele>59.4</ele>
        <time>2022-08-11T17:49:39Z</time>
      </trkpt>
      <trkpt lat="44.85238" lon="1.01896">
        <ele>58.4</ele>
        <time>2022-08-11T17:49:40Z</time>
      </trkpt>
      <trkpt lat="44.85242" lon="1.01899">
        <ele>57.4</ele>
        <time>2022-08-11T17:49:41Z</time>
      </trkpt>
      <trkpt lat="44.85246" lon="1.01903">
        <ele>57.4</ele>
        <time>2022-08-11T17:49:43Z</time>
      </trkpt>
      <trkpt lat="44.8525" lon="1.01906">
        <ele>57.4</ele>
        <time>2022-08-11T17:49:47Z</time>
      </trkpt>
      <trkpt lat="44.85256" lon="1.01904">
        <ele>58.4</ele>
        <time>2022-08-11T17:49:51Z</time>
      </trkpt>
      <trkpt lat="44.85261" lon="1.019">
        <ele>59.4</ele>
        <time>2022-08-11T17:49:54Z</time>
      </trkpt>
      <trkpt lat="44.85263" lon="1.01892">
        <ele>59.4</ele>
        <time>2022-08-11T17:49:57Z</time>
      </trkpt>
      <trkpt lat="44.85264" lon="1.01886">
        <ele>59.4</ele>
        <time>2022-08-11T17:49:59Z</time>
      </trkpt>
      <trkpt lat="44.85264" lon="1.01876">
        <ele>58.4</ele>
        <time>2022-08-11T17:50:01Z</time>
      </trkpt>
      <trkpt lat="44.85265" lon="1.01869">
        <ele>58.4</ele>
        <time>2022-08-11T17:50:02Z</time>
      </trkpt>
      <trkpt lat="44.85265" lon="1.01862">
        <ele>57.4</ele>
        <time>2022-08-11T17:50:03Z</time>
      </trkpt>
      <trkpt lat="44.85265" lon="1.01854">
        <ele>57.4</ele>
        <time>2022-08-11T17:50:04Z</time>
      </trkpt>
      <trkpt lat="44.85266" lon="1.01846">
        <ele>56.4</ele>
        <time>2022-08-11T17:50:05Z</time>
      </trkpt>
      <trkpt lat="44.85267" lon="1.01839">
        <ele>55.4</ele>
        <time>2022-08-11T17:50:06Z</time>
      </trkpt>
      <trkpt lat="44.85268" lon="1.01833">
        <ele>54.4</ele>
        <time>2022-08-11T17:50:07Z</time>
      </trkpt>
      <trkpt lat="44.85269" lon="1.01826">
        <ele>53.4</ele>
        <time>2022-08-11T17:50:08Z</time>
      </trkpt>
      <trkpt lat="44.8527" lon="1.01819">
        <ele>53.4</ele>
        <time>2022-08-11T17:50:09Z</time>
      </trkpt>
      <trkpt lat="44.85271" lon="1.01812">
        <ele>52.4</ele>
        <time>2022-08-11T17:50:10Z</time>
      </trkpt>
      <trkpt lat="44.85273" lon="1.01801">
        <ele>51.4</ele>
        <time>2022-08-11T17:50:12Z</time>
      </trkpt>
      <trkpt lat="44.85274" lon="1.01794">
        <ele>50.4</ele>
        <time>2022-08-11T17:50:14Z</time>
      </trkpt>
      <trkpt lat="44.85278" lon="1.01788">
        <ele>50.4</ele>
        <time>2022-08-11T17:50:19Z</time>
      </trkpt>
      <trkpt lat="44.85282" lon="1.01785">
        <ele>50.4</ele>
        <time>2022-08-11T17:50:23Z</time>
      </trkpt>
      <trkpt lat="44.85286" lon="1.01779">
        <ele>49.4</ele>
        <time>2022-08-11T17:50:28Z</time>
      </trkpt>
      <trkpt lat="44.8529" lon="1.01773">
        <ele>49.4</ele>
        <time>2022-08-11T17:50:31Z</time>
      </trkpt>
      <trkpt lat="44.85294" lon="1.01767">
        <ele>49.4</ele>
        <time>2022-08-11T17:50:33Z</time>
      </trkpt>
      <trkpt lat="44.853" lon="1.01765">
        <ele>48.4</ele>
        <time>2022-08-11T17:50:36Z</time>
      </trkpt>
      <trkpt lat="44.85308" lon="1.01773">
        <ele>49.4</ele>
        <time>2022-08-11T17:50:39Z</time>
      </trkpt>
      <trkpt lat="44.85308" lon="1.0178">
        <ele>49.4</ele>
        <time>2022-08-11T17:50:41Z</time>
      </trkpt>
      <trkpt lat="44.85312" lon="1.01788">
        <ele>49.4</ele>
        <time>2022-08-11T17:50:44Z</time>
      </trkpt>
      <trkpt lat="44.85315" lon="1.01795">
        <ele>49.4</ele>
        <time>2022-08-11T17:50:46Z</time>
      </trkpt>
      <trkpt lat="44.85317" lon="1.01805">
        <ele>49.4</ele>
        <time>2022-08-11T17:50:48Z</time>
      </trkpt>
      <trkpt lat="44.85321" lon="1.01815">
        <ele>49.4</ele>
        <time>2022-08-11T17:50:50Z</time>
      </trkpt>
      <trkpt lat="44.85324" lon="1.01823">
        <ele>49.4</ele>
        <time>2022-08-11T17:50:52Z</time>
      </trkpt>
      <trkpt lat="44.85326" lon="1.01831">
        <ele>48.4</ele>
        <time>2022-08-11T17:50:54Z</time>
      </trkpt>
      <trkpt lat="44.85328" lon="1.01841">
        <ele>47.4</ele>
        <time>2022-08-11T17:50:56Z</time>
      </trkpt>
      <trkpt lat="44.85327" lon="1.01852">
        <ele>46.4</ele>
        <time>2022-08-11T17:50:58Z</time>
      </trkpt>
      <trkpt lat="44.85325" lon="1.01858">
        <ele>46.4</ele>
        <time>2022-08-11T17:50:59Z</time>
      </trkpt>
      <trkpt lat="44.85324" lon="1.01866">
        <ele>45.4</ele>
        <time>2022-08-11T17:51:00Z</time>
      </trkpt>
      <trkpt lat="44.85324" lon="1.01874">
        <ele>44.4</ele>
        <time>2022-08-11T17:51:01Z</time>
      </trkpt>
      <trkpt lat="44.85322" lon="1.01883">
        <ele>44.4</ele>
        <time>2022-08-11T17:51:02Z</time>
      </trkpt>
      <trkpt lat="44.85319" lon="1.01891">
        <ele>43.4</ele>
        <time>2022-08-11T17:51:03Z</time>
      </trkpt>
      <trkpt lat="44.85316" lon="1.01899">
        <ele>42.4</ele>
        <time>2022-08-11T17:51:04Z</time>
      </trkpt>
      <trkpt lat="44.85313" lon="1.01906">
        <ele>42.4</ele>
        <time>2022-08-11T17:51:05Z</time>
      </trkpt>
      <trkpt lat="44.8531" lon="1.01912">
        <ele>40.4</ele>
        <time>2022-08-11T17:51:06Z</time>
      </trkpt>
      <trkpt lat="44.85308" lon="1.01918">
        <ele>40.4</ele>
        <time>2022-08-11T17:51:07Z</time>
      </trkpt>
      <trkpt lat="44.85304" lon="1.01929">
        <ele>40.4</ele>
        <time>2022-08-11T17:51:09Z</time>
      </trkpt>
      <trkpt lat="44.85304" lon="1.01938">
        <ele>39.4</ele>
        <time>2022-08-11T17:51:11Z</time>
      </trkpt>
      <trkpt lat="44.85305" lon="1.01947">
        <ele>38.4</ele>
        <time>2022-08-11T17:51:14Z</time>
      </trkpt>
      <trkpt lat="44.85307" lon="1.01954">
        <ele>38.4</ele>
        <time>2022-08-11T17:51:16Z</time>
      </trkpt>
      <trkpt lat="44.8531" lon="1.0196">
        <ele>38.4</ele>
        <time>2022-08-11T17:51:18Z</time>
      </trkpt>
      <trkpt lat="44.85315" lon="1.01964">
        <ele>38.4</ele>
        <time>2022-08-11T17:51:20Z</time>
      </trkpt>
      <trkpt lat="44.85321" lon="1.01966">
        <ele>38.4</ele>
        <time>2022-08-11T17:51:22Z</time>
      </trkpt>
      <trkpt lat="44.85326" lon="1.01967">
        <ele>39.4</ele>
        <time>2022-08-11T17:51:24Z</time>
      </trkpt>
      <trkpt lat="44.85332" lon="1.01971">
        <ele>39.4</ele>
        <time>2022-08-11T17:51:26Z</time>
      </trkpt>
      <trkpt lat="44.85338" lon="1.01975">
        <ele>39.4</ele>
        <time>2022-08-11T17:51:28Z</time>
      </trkpt>
      <trkpt lat="44.85345" lon="1.01976">
        <ele>39.4</ele>
        <time>2022-08-11T17:51:30Z</time>
      </trkpt>
      <trkpt lat="44.85353" lon="1.01978">
        <ele>40.4</ele>
        <time>2022-08-11T17:51:32Z</time>
      </trkpt>
      <trkpt lat="44.85359" lon="1.01981">
        <ele>40.4</ele>
        <time>2022-08-11T17:51:34Z</time>
      </trkpt>
      <trkpt lat="44.85366" lon="1.01984">
        <ele>41.4</ele>
        <time>2022-08-11T17:51:36Z</time>
      </trkpt>
      <trkpt lat="44.85373" lon="1.01987">
        <ele>41.4</ele>
        <time>2022-08-11T17:51:38Z</time>
      </trkpt>
      <trkpt lat="44.8538" lon="1.01989">
        <ele>41.4</ele>
        <time>2022-08-11T17:51:40Z</time>
      </trkpt>
      <trkpt lat="44.85389" lon="1.01991">
        <ele>42.4</ele>
        <time>2022-08-11T17:51:42Z</time>
      </trkpt>
      <trkpt lat="44.85394" lon="1.01993">
        <ele>42.4</ele>
        <time>2022-08-11T17:51:43Z</time>
      </trkpt>
      <trkpt lat="44.85398" lon="1.01995">
        <ele>43.4</ele>
        <time>2022-08-11T17:51:44Z</time>
      </trkpt>
      <trkpt lat="44.85408" lon="1.01997">
        <ele>44.4</ele>
        <time>2022-08-11T17:51:46Z</time>
      </trkpt>
      <trkpt lat="44.85413" lon="1.01999">
        <ele>44.4</ele>
        <time>2022-08-11T17:51:47Z</time>
      </trkpt>
      <trkpt lat="44.85418" lon="1.02002">
        <ele>44.4</ele>
        <time>2022-08-11T17:51:48Z</time>
      </trkpt>
      <trkpt lat="44.85422" lon="1.02004">
        <ele>45.4</ele>
        <time>2022-08-11T17:51:49Z</time>
      </trkpt>
      <trkpt lat="44.85427" lon="1.02005">
        <ele>45.4</ele>
        <time>2022-08-11T17:51:50Z</time>
      </trkpt>
      <trkpt lat="44.85435" lon="1.02007">
        <ele>45.4</ele>
        <time>2022-08-11T17:51:52Z</time>
      </trkpt>
      <trkpt lat="44.85443" lon="1.02009">
        <ele>46.4</ele>
        <time>2022-08-11T17:51:54Z</time>
      </trkpt>
      <trkpt lat="44.85452" lon="1.02013">
        <ele>47.4</ele>
        <time>2022-08-11T17:51:56Z</time>
      </trkpt>
      <trkpt lat="44.85458" lon="1.02015">
        <ele>47.4</ele>
        <time>2022-08-11T17:51:57Z</time>
      </trkpt>
      <trkpt lat="44.85463" lon="1.02017">
        <ele>48.4</ele>
        <time>2022-08-11T17:51:58Z</time>
      </trkpt>
      <trkpt lat="44.85469" lon="1.02019">
        <ele>48.4</ele>
        <time>2022-08-11T17:51:59Z</time>
      </trkpt>
      <trkpt lat="44.85474" lon="1.02022">
        <ele>48.4</ele>
        <time>2022-08-11T17:52:00Z</time>
      </trkpt>
      <trkpt lat="44.85479" lon="1.02024">
        <ele>49.4</ele>
        <time>2022-08-11T17:52:01Z</time>
      </trkpt>
      <trkpt lat="44.85484" lon="1.02026">
        <ele>48.4</ele>
        <time>2022-08-11T17:52:02Z</time>
      </trkpt>
      <trkpt lat="44.85489" lon="1.02028">
        <ele>48.4</ele>
        <time>2022-08-11T17:52:03Z</time>
      </trkpt>
      <trkpt lat="44.85494" lon="1.02029">
        <ele>48.4</ele>
        <time>2022-08-11T17:52:04Z</time>
      </trkpt>
      <trkpt lat="44.85499" lon="1.02031">
        <ele>49.4</ele>
        <time>2022-08-11T17:52:05Z</time>
      </trkpt>
      <trkpt lat="44.85504" lon="1.02034">
        <ele>49.4</ele>
        <time>2022-08-11T17:52:06Z</time>
      </trkpt>
      <trkpt lat="44.85509" lon="1.02037">
        <ele>49.4</ele>
        <time>2022-08-11T17:52:07Z</time>
      </trkpt>
      <trkpt lat="44.85514" lon="1.0204">
        <ele>49.4</ele>
        <time>2022-08-11T17:52:08Z</time>
      </trkpt>
      <trkpt lat="44.85518" lon="1.02042">
        <ele>49.4</ele>
        <time>2022-08-11T17:52:09Z</time>
      </trkpt>
      <trkpt lat="44.85526" lon="1.02047">
        <ele>49.4</ele>
        <time>2022-08-11T17:52:11Z</time>
      </trkpt>
      <trkpt lat="44.85532" lon="1.02052">
        <ele>49.4</ele>
        <time>2022-08-11T17:52:13Z</time>
      </trkpt>
      <trkpt lat="44.85539" lon="1.02058">
        <ele>49.4</ele>
        <time>2022-08-11T17:52:15Z</time>
      </trkpt>
      <trkpt lat="44.85546" lon="1.02064">
        <ele>50.4</ele>
        <time>2022-08-11T17:52:17Z</time>
      </trkpt>
      <trkpt lat="44.85551" lon="1.02068">
        <ele>50.4</ele>
        <time>2022-08-11T17:52:18Z</time>
      </trkpt>
      <trkpt lat="44.85558" lon="1.02075">
        <ele>51.4</ele>
        <time>2022-08-11T17:52:20Z</time>
      </trkpt>
      <trkpt lat="44.85561" lon="1.02079">
        <ele>52.4</ele>
        <time>2022-08-11T17:52:21Z</time>
      </trkpt>
      <trkpt lat="44.85566" lon="1.02083">
        <ele>53.4</ele>
        <time>2022-08-11T17:52:22Z</time>
      </trkpt>
      <trkpt lat="44.8557" lon="1.02087">
        <ele>53.4</ele>
        <time>2022-08-11T17:52:23Z</time>
      </trkpt>
      <trkpt lat="44.85574" lon="1.02091">
        <ele>54.4</ele>
        <time>2022-08-11T17:52:24Z</time>
      </trkpt>
      <trkpt lat="44.85579" lon="1.02095">
        <ele>54.4</ele>
        <time>2022-08-11T17:52:25Z</time>
      </trkpt>
      <trkpt lat="44.85583" lon="1.02098">
        <ele>54.4</ele>
        <time>2022-08-11T17:52:26Z</time>
      </trkpt>
      <trkpt lat="44.85587" lon="1.02102">
        <ele>55.4</ele>
        <time>2022-08-11T17:52:27Z</time>
      </trkpt>
      <trkpt lat="44.85591" lon="1.02105">
        <ele>55.4</ele>
        <time>2022-08-11T17:52:28Z</time>
      </trkpt>
      <trkpt lat="44.85595" lon="1.02109">
        <ele>56.4</ele>
        <time>2022-08-11T17:52:29Z</time>
      </trkpt>
      <trkpt lat="44.85599" lon="1.02112">
        <ele>57.4</ele>
        <time>2022-08-11T17:52:30Z</time>
      </trkpt>
      <trkpt lat="44.85604" lon="1.02117">
        <ele>57.4</ele>
        <time>2022-08-11T17:52:31Z</time>
      </trkpt>
      <trkpt lat="44.85608" lon="1.02122">
        <ele>57.4</ele>
        <time>2022-08-11T17:52:32Z</time>
      </trkpt>
      <trkpt lat="44.85619" lon="1.02132">
        <ele>58.4</ele>
        <time>2022-08-11T17:52:34Z</time>
      </trkpt>
      <trkpt lat="44.85624" lon="1.02136">
        <ele>58.4</ele>
        <time>2022-08-11T17:52:35Z</time>
      </trkpt>
      <trkpt lat="44.8563" lon="1.02141">
        <ele>58.4</ele>
        <time>2022-08-11T17:52:36Z</time>
      </trkpt>
      <trkpt lat="44.85635" lon="1.02145">
        <ele>59.4</ele>
        <time>2022-08-11T17:52:37Z</time>
      </trkpt>
      <trkpt lat="44.85646" lon="1.02153">
        <ele>59.4</ele>
        <time>2022-08-11T17:52:39Z</time>
      </trkpt>
      <trkpt lat="44.85652" lon="1.02158">
        <ele>59.4</ele>
        <time>2022-08-11T17:52:40Z</time>
      </trkpt>
      <trkpt lat="44.85657" lon="1.02163">
        <ele>58.4</ele>
        <time>2022-08-11T17:52:41Z</time>
      </trkpt>
      <trkpt lat="44.85663" lon="1.02167">
        <ele>58.4</ele>
        <time>2022-08-11T17:52:42Z</time>
      </trkpt>
      <trkpt lat="44.85673" lon="1.02173">
        <ele>59.4</ele>
        <time>2022-08-11T17:52:44Z</time>
      </trkpt>
      <trkpt lat="44.85678" lon="1.02176">
        <ele>59.4</ele>
        <time>2022-08-11T17:52:45Z</time>
      </trkpt>
      <trkpt lat="44.85683" lon="1.02179">
        <ele>59.4</ele>
        <time>2022-08-11T17:52:46Z</time>
      </trkpt>
      <trkpt lat="44.85688" lon="1.02182">
        <ele>59.4</ele>
        <time>2022-08-11T17:52:47Z</time>
      </trkpt>
      <trkpt lat="44.85694" lon="1.02185">
        <ele>59.4</ele>
        <time>2022-08-11T17:52:48Z</time>
      </trkpt>
      <trkpt lat="44.857" lon="1.02189">
        <ele>59.4</ele>
        <time>2022-08-11T17:52:49Z</time>
      </trkpt>
      <trkpt lat="44.85706" lon="1.02192">
        <ele>59.4</ele>
        <time>2022-08-11T17:52:50Z</time>
      </trkpt>
      <trkpt lat="44.85713" lon="1.02195">
        <ele>59.4</ele>
        <time>2022-08-11T17:52:51Z</time>
      </trkpt>
      <trkpt lat="44.8572" lon="1.02197">
        <ele>59.4</ele>
        <time>2022-08-11T17:52:52Z</time>
      </trkpt>
      <trkpt lat="44.85726" lon="1.02199">
        <ele>59.4</ele>
        <time>2022-08-11T17:52:53Z</time>
      </trkpt>
      <trkpt lat="44.85732" lon="1.02202">
        <ele>59.4</ele>
        <time>2022-08-11T17:52:54Z</time>
      </trkpt>
      <trkpt lat="44.85738" lon="1.02204">
        <ele>59.4</ele>
        <time>2022-08-11T17:52:55Z</time>
      </trkpt>
      <trkpt lat="44.85744" lon="1.02207">
        <ele>59.4</ele>
        <time>2022-08-11T17:52:56Z</time>
      </trkpt>
      <trkpt lat="44.8575" lon="1.0221">
        <ele>60.4</ele>
        <time>2022-08-11T17:52:57Z</time>
      </trkpt>
      <trkpt lat="44.85755" lon="1.02213">
        <ele>60.4</ele>
        <time>2022-08-11T17:52:58Z</time>
      </trkpt>
      <trkpt lat="44.85761" lon="1.02216">
        <ele>60.4</ele>
        <time>2022-08-11T17:52:59Z</time>
      </trkpt>
      <trkpt lat="44.85768" lon="1.02219">
        <ele>60.4</ele>
        <time>2022-08-11T17:53:00Z</time>
      </trkpt>
      <trkpt lat="44.85774" lon="1.02221">
        <ele>61.4</ele>
        <time>2022-08-11T17:53:01Z</time>
      </trkpt>
      <trkpt lat="44.8578" lon="1.02224">
        <ele>61.4</ele>
        <time>2022-08-11T17:53:02Z</time>
      </trkpt>
      <trkpt lat="44.85786" lon="1.02227">
        <ele>61.4</ele>
        <time>2022-08-11T17:53:03Z</time>
      </trkpt>
      <trkpt lat="44.85792" lon="1.0223">
        <ele>61.4</ele>
        <time>2022-08-11T17:53:04Z</time>
      </trkpt>
      <trkpt lat="44.85797" lon="1.02233">
        <ele>61.4</ele>
        <time>2022-08-11T17:53:05Z</time>
      </trkpt>
      <trkpt lat="44.85802" lon="1.02236">
        <ele>62.4</ele>
        <time>2022-08-11T17:53:06Z</time>
      </trkpt>
      <trkpt lat="44.85808" lon="1.02238">
        <ele>62.4</ele>
        <time>2022-08-11T17:53:07Z</time>
      </trkpt>
      <trkpt lat="44.85821" lon="1.02244">
        <ele>62.4</ele>
        <time>2022-08-11T17:53:09Z</time>
      </trkpt>
      <trkpt lat="44.85827" lon="1.02246">
        <ele>61.4</ele>
        <time>2022-08-11T17:53:10Z</time>
      </trkpt>
      <trkpt lat="44.85832" lon="1.02249">
        <ele>62.4</ele>
        <time>2022-08-11T17:53:11Z</time>
      </trkpt>
      <trkpt lat="44.85838" lon="1.02251">
        <ele>62.4</ele>
        <time>2022-08-11T17:53:12Z</time>
      </trkpt>
      <trkpt lat="44.85843" lon="1.02254">
        <ele>62.4</ele>
        <time>2022-08-11T17:53:13Z</time>
      </trkpt>
      <trkpt lat="44.85848" lon="1.02257">
        <ele>62.4</ele>
        <time>2022-08-11T17:53:14Z</time>
      </trkpt>
      <trkpt lat="44.85853" lon="1.02259">
        <ele>62.4</ele>
        <time>2022-08-11T17:53:15Z</time>
      </trkpt>
      <trkpt lat="44.85859" lon="1.02262">
        <ele>62.4</ele>
        <time>2022-08-11T17:53:16Z</time>
      </trkpt>
      <trkpt lat="44.85864" lon="1.02264">
        <ele>62.4</ele>
        <time>2022-08-11T17:53:17Z</time>
      </trkpt>
      <trkpt lat="44.85874" lon="1.02269">
        <ele>62.4</ele>
        <time>2022-08-11T17:53:19Z</time>
      </trkpt>
      <trkpt lat="44.85879" lon="1.02271">
        <ele>62.4</ele>
        <time>2022-08-11T17:53:20Z</time>
      </trkpt>
      <trkpt lat="44.85888" lon="1.02276">
        <ele>62.4</ele>
        <time>2022-08-11T17:53:22Z</time>
      </trkpt>
      <trkpt lat="44.85893" lon="1.02278">
        <ele>62.4</ele>
        <time>2022-08-11T17:53:23Z</time>
      </trkpt>
      <trkpt lat="44.85899" lon="1.02281">
        <ele>62.4</ele>
        <time>2022-08-11T17:53:24Z</time>
      </trkpt>
      <trkpt lat="44.85904" lon="1.02283">
        <ele>62.4</ele>
        <time>2022-08-11T17:53:25Z</time>
      </trkpt>
      <trkpt lat="44.8591" lon="1.02286">
        <ele>62.4</ele>
        <time>2022-08-11T17:53:26Z</time>
      </trkpt>
      <trkpt lat="44.85916" lon="1.02288">
        <ele>61.4</ele>
        <time>2022-08-11T17:53:27Z</time>
      </trkpt>
      <trkpt lat="44.85921" lon="1.02291">
        <ele>62.4</ele>
        <time>2022-08-11T17:53:28Z</time>
      </trkpt>
      <trkpt lat="44.85927" lon="1.02294">
        <ele>62.4</ele>
        <time>2022-08-11T17:53:29Z</time>
      </trkpt>
      <trkpt lat="44.85933" lon="1.02297">
        <ele>62.4</ele>
        <time>2022-08-11T17:53:30Z</time>
      </trkpt>
      <trkpt lat="44.85939" lon="1.02299">
        <ele>62.4</ele>
        <time>2022-08-11T17:53:31Z</time>
      </trkpt>
      <trkpt lat="44.85945" lon="1.02302">
        <ele>62.4</ele>
        <time>2022-08-11T17:53:32Z</time>
      </trkpt>
      <trkpt lat="44.85957" lon="1.02306">
        <ele>62.4</ele>
        <time>2022-08-11T17:53:34Z</time>
      </trkpt>
      <trkpt lat="44.85962" lon="1.02309">
        <ele>62.4</ele>
        <time>2022-08-11T17:53:35Z</time>
      </trkpt>
      <trkpt lat="44.85969" lon="1.02311">
        <ele>62.4</ele>
        <time>2022-08-11T17:53:36Z</time>
      </trkpt>
      <trkpt lat="44.85975" lon="1.02314">
        <ele>62.4</ele>
        <time>2022-08-11T17:53:37Z</time>
      </trkpt>
      <trkpt lat="44.8598" lon="1.02317">
        <ele>61.4</ele>
        <time>2022-08-11T17:53:38Z</time>
      </trkpt>
      <trkpt lat="44.85986" lon="1.0232">
        <ele>61.4</ele>
        <time>2022-08-11T17:53:39Z</time>
      </trkpt>
      <trkpt lat="44.85992" lon="1.02324">
        <ele>61.4</ele>
        <time>2022-08-11T17:53:40Z</time>
      </trkpt>
      <trkpt lat="44.85998" lon="1.02326">
        <ele>61.4</ele>
        <time>2022-08-11T17:53:41Z</time>
      </trkpt>
      <trkpt lat="44.86004" lon="1.02329">
        <ele>61.4</ele>
        <time>2022-08-11T17:53:42Z</time>
      </trkpt>
      <trkpt lat="44.8601" lon="1.02332">
        <ele>61.4</ele>
        <time>2022-08-11T17:53:43Z</time>
      </trkpt>
      <trkpt lat="44.86016" lon="1.02335">
        <ele>61.4</ele>
        <time>2022-08-11T17:53:44Z</time>
      </trkpt>
      <trkpt lat="44.86023" lon="1.02337">
        <ele>61.4</ele>
        <time>2022-08-11T17:53:45Z</time>
      </trkpt>
      <trkpt lat="44.86029" lon="1.0234">
        <ele>61.4</ele>
        <time>2022-08-11T17:53:46Z</time>
      </trkpt>
      <trkpt lat="44.86035" lon="1.02343">
        <ele>61.4</ele>
        <time>2022-08-11T17:53:47Z</time>
      </trkpt>
      <trkpt lat="44.8604" lon="1.02346">
        <ele>61.4</ele>
        <time>2022-08-11T17:53:48Z</time>
      </trkpt>
      <trkpt lat="44.86047" lon="1.02349">
        <ele>61.4</ele>
        <time>2022-08-11T17:53:49Z</time>
      </trkpt>
      <trkpt lat="44.86053" lon="1.02352">
        <ele>61.4</ele>
        <time>2022-08-11T17:53:50Z</time>
      </trkpt>
      <trkpt lat="44.8606" lon="1.02355">
        <ele>61.4</ele>
        <time>2022-08-11T17:53:51Z</time>
      </trkpt>
      <trkpt lat="44.86066" lon="1.02358">
        <ele>61.4</ele>
        <time>2022-08-11T17:53:52Z</time>
      </trkpt>
      <trkpt lat="44.86072" lon="1.0236">
        <ele>62.4</ele>
        <time>2022-08-11T17:53:53Z</time>
      </trkpt>
      <trkpt lat="44.86078" lon="1.02363">
        <ele>61.4</ele>
        <time>2022-08-11T17:53:54Z</time>
      </trkpt>
      <trkpt lat="44.86084" lon="1.02366">
        <ele>62.4</ele>
        <time>2022-08-11T17:53:55Z</time>
      </trkpt>
      <trkpt lat="44.8609" lon="1.02369">
        <ele>62.4</ele>
        <time>2022-08-11T17:53:56Z</time>
      </trkpt>
      <trkpt lat="44.86095" lon="1.02373">
        <ele>62.4</ele>
        <time>2022-08-11T17:53:57Z</time>
      </trkpt>
      <trkpt lat="44.86101" lon="1.02376">
        <ele>62.4</ele>
        <time>2022-08-11T17:53:58Z</time>
      </trkpt>
      <trkpt lat="44.86107" lon="1.02379">
        <ele>62.4</ele>
        <time>2022-08-11T17:53:59Z</time>
      </trkpt>
      <trkpt lat="44.86113" lon="1.02382">
        <ele>62.4</ele>
        <time>2022-08-11T17:54:00Z</time>
      </trkpt>
      <trkpt lat="44.8612" lon="1.02385">
        <ele>63.4</ele>
        <time>2022-08-11T17:54:01Z</time>
      </trkpt>
      <trkpt lat="44.86126" lon="1.02388">
        <ele>63.4</ele>
        <time>2022-08-11T17:54:02Z</time>
      </trkpt>
      <trkpt lat="44.86132" lon="1.02391">
        <ele>63.4</ele>
        <time>2022-08-11T17:54:03Z</time>
      </trkpt>
      <trkpt lat="44.86138" lon="1.02393">
        <ele>63.4</ele>
        <time>2022-08-11T17:54:04Z</time>
      </trkpt>
      <trkpt lat="44.86144" lon="1.02396">
        <ele>64.4</ele>
        <time>2022-08-11T17:54:05Z</time>
      </trkpt>
      <trkpt lat="44.8615" lon="1.02399">
        <ele>64.4</ele>
        <time>2022-08-11T17:54:06Z</time>
      </trkpt>
      <trkpt lat="44.86156" lon="1.02401">
        <ele>64.4</ele>
        <time>2022-08-11T17:54:07Z</time>
      </trkpt>
      <trkpt lat="44.86162" lon="1.02404">
        <ele>64.4</ele>
        <time>2022-08-11T17:54:08Z</time>
      </trkpt>
      <trkpt lat="44.86174" lon="1.02411">
        <ele>65.4</ele>
        <time>2022-08-11T17:54:10Z</time>
      </trkpt>
      <trkpt lat="44.86179" lon="1.02413">
        <ele>64.4</ele>
        <time>2022-08-11T17:54:11Z</time>
      </trkpt>
      <trkpt lat="44.86185" lon="1.02416">
        <ele>64.4</ele>
        <time>2022-08-11T17:54:12Z</time>
      </trkpt>
      <trkpt lat="44.86198" lon="1.02422">
        <ele>65.4</ele>
        <time>2022-08-11T17:54:14Z</time>
      </trkpt>
      <trkpt lat="44.86204" lon="1.02424">
        <ele>64.4</ele>
        <time>2022-08-11T17:54:15Z</time>
      </trkpt>
      <trkpt lat="44.86216" lon="1.02429">
        <ele>65.4</ele>
        <time>2022-08-11T17:54:17Z</time>
      </trkpt>
      <trkpt lat="44.86222" lon="1.02432">
        <ele>65.4</ele>
        <time>2022-08-11T17:54:18Z</time>
      </trkpt>
      <trkpt lat="44.86228" lon="1.02435">
        <ele>66.4</ele>
        <time>2022-08-11T17:54:19Z</time>
      </trkpt>
      <trkpt lat="44.86234" lon="1.02438">
        <ele>65.4</ele>
        <time>2022-08-11T17:54:20Z</time>
      </trkpt>
      <trkpt lat="44.8624" lon="1.02441">
        <ele>65.4</ele>
        <time>2022-08-11T17:54:21Z</time>
      </trkpt>
      <trkpt lat="44.86245" lon="1.02443">
        <ele>65.4</ele>
        <time>2022-08-11T17:54:22Z</time>
      </trkpt>
      <trkpt lat="44.86251" lon="1.02446">
        <ele>65.4</ele>
        <time>2022-08-11T17:54:23Z</time>
      </trkpt>
      <trkpt lat="44.86262" lon="1.0245">
        <ele>65.4</ele>
        <time>2022-08-11T17:54:25Z</time>
      </trkpt>
      <trkpt lat="44.86268" lon="1.02452">
        <ele>64.4</ele>
        <time>2022-08-11T17:54:26Z</time>
      </trkpt>
      <trkpt lat="44.86273" lon="1.02455">
        <ele>64.4</ele>
        <time>2022-08-11T17:54:27Z</time>
      </trkpt>
      <trkpt lat="44.86278" lon="1.02458">
        <ele>64.4</ele>
        <time>2022-08-11T17:54:28Z</time>
      </trkpt>
      <trkpt lat="44.86283" lon="1.02461">
        <ele>64.4</ele>
        <time>2022-08-11T17:54:29Z</time>
      </trkpt>
      <trkpt lat="44.86288" lon="1.02464">
        <ele>64.4</ele>
        <time>2022-08-11T17:54:30Z</time>
      </trkpt>
      <trkpt lat="44.86294" lon="1.02467">
        <ele>64.4</ele>
        <time>2022-08-11T17:54:31Z</time>
      </trkpt>
      <trkpt lat="44.863" lon="1.0247">
        <ele>64.4</ele>
        <time>2022-08-11T17:54:32Z</time>
      </trkpt>
      <trkpt lat="44.86305" lon="1.02473">
        <ele>64.4</ele>
        <time>2022-08-11T17:54:33Z</time>
      </trkpt>
      <trkpt lat="44.86311" lon="1.02475">
        <ele>64.4</ele>
        <time>2022-08-11T17:54:34Z</time>
      </trkpt>
      <trkpt lat="44.86317" lon="1.02478">
        <ele>64.4</ele>
        <time>2022-08-11T17:54:35Z</time>
      </trkpt>
      <trkpt lat="44.86324" lon="1.02481">
        <ele>64.4</ele>
        <time>2022-08-11T17:54:36Z</time>
      </trkpt>
      <trkpt lat="44.8633" lon="1.02485">
        <ele>64.4</ele>
        <time>2022-08-11T17:54:37Z</time>
      </trkpt>
      <trkpt lat="44.86336" lon="1.02489">
        <ele>64.4</ele>
        <time>2022-08-11T17:54:38Z</time>
      </trkpt>
      <trkpt lat="44.86342" lon="1.02493">
        <ele>64.4</ele>
        <time>2022-08-11T17:54:39Z</time>
      </trkpt>
      <trkpt lat="44.86349" lon="1.02497">
        <ele>64.4</ele>
        <time>2022-08-11T17:54:40Z</time>
      </trkpt>
      <trkpt lat="44.86354" lon="1.025">
        <ele>64.4</ele>
        <time>2022-08-11T17:54:41Z</time>
      </trkpt>
      <trkpt lat="44.86361" lon="1.02503">
        <ele>64.4</ele>
        <time>2022-08-11T17:54:42Z</time>
      </trkpt>
      <trkpt lat="44.86368" lon="1.02507">
        <ele>64.4</ele>
        <time>2022-08-11T17:54:43Z</time>
      </trkpt>
      <trkpt lat="44.86381" lon="1.02514">
        <ele>64.4</ele>
        <time>2022-08-11T17:54:45Z</time>
      </trkpt>
      <trkpt lat="44.86387" lon="1.02518">
        <ele>64.4</ele>
        <time>2022-08-11T17:54:46Z</time>
      </trkpt>
      <trkpt lat="44.86393" lon="1.02522">
        <ele>63.4</ele>
        <time>2022-08-11T17:54:47Z</time>
      </trkpt>
      <trkpt lat="44.86398" lon="1.02526">
        <ele>63.4</ele>
        <time>2022-08-11T17:54:48Z</time>
      </trkpt>
      <trkpt lat="44.8641" lon="1.02535">
        <ele>63.4</ele>
        <time>2022-08-11T17:54:50Z</time>
      </trkpt>
      <trkpt lat="44.86415" lon="1.02539">
        <ele>62.4</ele>
        <time>2022-08-11T17:54:51Z</time>
      </trkpt>
      <trkpt lat="44.86421" lon="1.02544">
        <ele>63.4</ele>
        <time>2022-08-11T17:54:52Z</time>
      </trkpt>
      <trkpt lat="44.86426" lon="1.02549">
        <ele>63.4</ele>
        <time>2022-08-11T17:54:53Z</time>
      </trkpt>
      <trkpt lat="44.86431" lon="1.02553">
        <ele>63.4</ele>
        <time>2022-08-11T17:54:54Z</time>
      </trkpt>
      <trkpt lat="44.86437" lon="1.02558">
        <ele>63.4</ele>
        <time>2022-08-11T17:54:55Z</time>
      </trkpt>
      <trkpt lat="44.86442" lon="1.02563">
        <ele>63.4</ele>
        <time>2022-08-11T17:54:56Z</time>
      </trkpt>
      <trkpt lat="44.86447" lon="1.02568">
        <ele>63.4</ele>
        <time>2022-08-11T17:54:57Z</time>
      </trkpt>
      <trkpt lat="44.86452" lon="1.02574">
        <ele>63.4</ele>
        <time>2022-08-11T17:54:58Z</time>
      </trkpt>
      <trkpt lat="44.86457" lon="1.02579">
        <ele>63.4</ele>
        <time>2022-08-11T17:54:59Z</time>
      </trkpt>
      <trkpt lat="44.86461" lon="1.02584">
        <ele>63.4</ele>
        <time>2022-08-11T17:55:00Z</time>
      </trkpt>
      <trkpt lat="44.86466" lon="1.02591">
        <ele>63.4</ele>
        <time>2022-08-11T17:55:01Z</time>
      </trkpt>
      <trkpt lat="44.8647" lon="1.02598">
        <ele>64.4</ele>
        <time>2022-08-11T17:55:02Z</time>
      </trkpt>
      <trkpt lat="44.86476" lon="1.02605">
        <ele>64.4</ele>
        <time>2022-08-11T17:55:03Z</time>
      </trkpt>
      <trkpt lat="44.8648" lon="1.02611">
        <ele>64.4</ele>
        <time>2022-08-11T17:55:04Z</time>
      </trkpt>
      <trkpt lat="44.86484" lon="1.02617">
        <ele>64.4</ele>
        <time>2022-08-11T17:55:05Z</time>
      </trkpt>
      <trkpt lat="44.86489" lon="1.02624">
        <ele>64.4</ele>
        <time>2022-08-11T17:55:06Z</time>
      </trkpt>
      <trkpt lat="44.86494" lon="1.02631">
        <ele>65.4</ele>
        <time>2022-08-11T17:55:07Z</time>
      </trkpt>
      <trkpt lat="44.86499" lon="1.02638">
        <ele>66.4</ele>
        <time>2022-08-11T17:55:08Z</time>
      </trkpt>
      <trkpt lat="44.86504" lon="1.02644">
        <ele>66.4</ele>
        <time>2022-08-11T17:55:09Z</time>
      </trkpt>
      <trkpt lat="44.86509" lon="1.02651">
        <ele>65.4</ele>
        <time>2022-08-11T17:55:10Z</time>
      </trkpt>
      <trkpt lat="44.86514" lon="1.02659">
        <ele>65.4</ele>
        <time>2022-08-11T17:55:11Z</time>
      </trkpt>
      <trkpt lat="44.86518" lon="1.02666">
        <ele>65.4</ele>
        <time>2022-08-11T17:55:12Z</time>
      </trkpt>
      <trkpt lat="44.86523" lon="1.02672">
        <ele>65.4</ele>
        <time>2022-08-11T17:55:13Z</time>
      </trkpt>
      <trkpt lat="44.86527" lon="1.02679">
        <ele>66.4</ele>
        <time>2022-08-11T17:55:14Z</time>
      </trkpt>
      <trkpt lat="44.86532" lon="1.02686">
        <ele>65.4</ele>
        <time>2022-08-11T17:55:15Z</time>
      </trkpt>
      <trkpt lat="44.86536" lon="1.02694">
        <ele>65.4</ele>
        <time>2022-08-11T17:55:16Z</time>
      </trkpt>
      <trkpt lat="44.8654" lon="1.02701">
        <ele>65.4</ele>
        <time>2022-08-11T17:55:17Z</time>
      </trkpt>
      <trkpt lat="44.86545" lon="1.02709">
        <ele>65.4</ele>
        <time>2022-08-11T17:55:18Z</time>
      </trkpt>
      <trkpt lat="44.86553" lon="1.02725">
        <ele>64.4</ele>
        <time>2022-08-11T17:55:20Z</time>
      </trkpt>
      <trkpt lat="44.86556" lon="1.02734">
        <ele>64.4</ele>
        <time>2022-08-11T17:55:21Z</time>
      </trkpt>
      <trkpt lat="44.86559" lon="1.02742">
        <ele>63.4</ele>
        <time>2022-08-11T17:55:22Z</time>
      </trkpt>
      <trkpt lat="44.86563" lon="1.0275">
        <ele>63.4</ele>
        <time>2022-08-11T17:55:23Z</time>
      </trkpt>
      <trkpt lat="44.86566" lon="1.02758">
        <ele>63.4</ele>
        <time>2022-08-11T17:55:24Z</time>
      </trkpt>
      <trkpt lat="44.8657" lon="1.02766">
        <ele>63.4</ele>
        <time>2022-08-11T17:55:25Z</time>
      </trkpt>
      <trkpt lat="44.86575" lon="1.02774">
        <ele>61.4</ele>
        <time>2022-08-11T17:55:26Z</time>
      </trkpt>
      <trkpt lat="44.86579" lon="1.02782">
        <ele>61.4</ele>
        <time>2022-08-11T17:55:27Z</time>
      </trkpt>
      <trkpt lat="44.86583" lon="1.02789">
        <ele>60.4</ele>
        <time>2022-08-11T17:55:28Z</time>
      </trkpt>
      <trkpt lat="44.86586" lon="1.02797">
        <ele>59.4</ele>
        <time>2022-08-11T17:55:29Z</time>
      </trkpt>
      <trkpt lat="44.8659" lon="1.02804">
        <ele>59.4</ele>
        <time>2022-08-11T17:55:30Z</time>
      </trkpt>
      <trkpt lat="44.86593" lon="1.02812">
        <ele>58.4</ele>
        <time>2022-08-11T17:55:31Z</time>
      </trkpt>
      <trkpt lat="44.86596" lon="1.0282">
        <ele>58.4</ele>
        <time>2022-08-11T17:55:32Z</time>
      </trkpt>
      <trkpt lat="44.86599" lon="1.02827">
        <ele>59.4</ele>
        <time>2022-08-11T17:55:33Z</time>
      </trkpt>
      <trkpt lat="44.86602" lon="1.02835">
        <ele>58.4</ele>
        <time>2022-08-11T17:55:34Z</time>
      </trkpt>
      <trkpt lat="44.86605" lon="1.02842">
        <ele>58.4</ele>
        <time>2022-08-11T17:55:35Z</time>
      </trkpt>
      <trkpt lat="44.86608" lon="1.02849">
        <ele>58.4</ele>
        <time>2022-08-11T17:55:36Z</time>
      </trkpt>
      <trkpt lat="44.86611" lon="1.02856">
        <ele>58.4</ele>
        <time>2022-08-11T17:55:37Z</time>
      </trkpt>
      <trkpt lat="44.86614" lon="1.02863">
        <ele>58.4</ele>
        <time>2022-08-11T17:55:38Z</time>
      </trkpt>
      <trkpt lat="44.86616" lon="1.0287">
        <ele>58.4</ele>
        <time>2022-08-11T17:55:39Z</time>
      </trkpt>
      <trkpt lat="44.86619" lon="1.02876">
        <ele>58.4</ele>
        <time>2022-08-11T17:55:40Z</time>
      </trkpt>
      <trkpt lat="44.86621" lon="1.02882">
        <ele>58.4</ele>
        <time>2022-08-11T17:55:41Z</time>
      </trkpt>
      <trkpt lat="44.86624" lon="1.02888">
        <ele>58.4</ele>
        <time>2022-08-11T17:55:42Z</time>
      </trkpt>
      <trkpt lat="44.86626" lon="1.02895">
        <ele>58.4</ele>
        <time>2022-08-11T17:55:43Z</time>
      </trkpt>
      <trkpt lat="44.86628" lon="1.02901">
        <ele>58.4</ele>
        <time>2022-08-11T17:55:44Z</time>
      </trkpt>
      <trkpt lat="44.86631" lon="1.02908">
        <ele>59.4</ele>
        <time>2022-08-11T17:55:45Z</time>
      </trkpt>
      <trkpt lat="44.86633" lon="1.02914">
        <ele>59.4</ele>
        <time>2022-08-11T17:55:46Z</time>
      </trkpt>
      <trkpt lat="44.86636" lon="1.02921">
        <ele>59.4</ele>
        <time>2022-08-11T17:55:47Z</time>
      </trkpt>
      <trkpt lat="44.86638" lon="1.02928">
        <ele>58.4</ele>
        <time>2022-08-11T17:55:48Z</time>
      </trkpt>
      <trkpt lat="44.8664" lon="1.02935">
        <ele>58.4</ele>
        <time>2022-08-11T17:55:49Z</time>
      </trkpt>
      <trkpt lat="44.86642" lon="1.02942">
        <ele>59.4</ele>
        <time>2022-08-11T17:55:50Z</time>
      </trkpt>
      <trkpt lat="44.86645" lon="1.02948">
        <ele>59.4</ele>
        <time>2022-08-11T17:55:51Z</time>
      </trkpt>
      <trkpt lat="44.86648" lon="1.02955">
        <ele>59.4</ele>
        <time>2022-08-11T17:55:52Z</time>
      </trkpt>
      <trkpt lat="44.8665" lon="1.02963">
        <ele>60.4</ele>
        <time>2022-08-11T17:55:53Z</time>
      </trkpt>
      <trkpt lat="44.86653" lon="1.0297">
        <ele>59.4</ele>
        <time>2022-08-11T17:55:54Z</time>
      </trkpt>
      <trkpt lat="44.86657" lon="1.02978">
        <ele>59.4</ele>
        <time>2022-08-11T17:55:55Z</time>
      </trkpt>
      <trkpt lat="44.8666" lon="1.02985">
        <ele>60.4</ele>
        <time>2022-08-11T17:55:56Z</time>
      </trkpt>
      <trkpt lat="44.86662" lon="1.02992">
        <ele>60.4</ele>
        <time>2022-08-11T17:55:57Z</time>
      </trkpt>
      <trkpt lat="44.86665" lon="1.03">
        <ele>60.4</ele>
        <time>2022-08-11T17:55:58Z</time>
      </trkpt>
      <trkpt lat="44.86666" lon="1.03007">
        <ele>60.4</ele>
        <time>2022-08-11T17:55:59Z</time>
      </trkpt>
      <trkpt lat="44.86669" lon="1.03014">
        <ele>60.4</ele>
        <time>2022-08-11T17:56:00Z</time>
      </trkpt>
      <trkpt lat="44.86671" lon="1.03021">
        <ele>61.4</ele>
        <time>2022-08-11T17:56:01Z</time>
      </trkpt>
      <trkpt lat="44.86674" lon="1.03029">
        <ele>61.4</ele>
        <time>2022-08-11T17:56:02Z</time>
      </trkpt>
      <trkpt lat="44.86677" lon="1.03036">
        <ele>61.4</ele>
        <time>2022-08-11T17:56:03Z</time>
      </trkpt>
      <trkpt lat="44.86679" lon="1.03044">
        <ele>62.4</ele>
        <time>2022-08-11T17:56:04Z</time>
      </trkpt>
      <trkpt lat="44.86682" lon="1.03051">
        <ele>62.4</ele>
        <time>2022-08-11T17:56:05Z</time>
      </trkpt>
      <trkpt lat="44.86685" lon="1.03058">
        <ele>62.4</ele>
        <time>2022-08-11T17:56:06Z</time>
      </trkpt>
      <trkpt lat="44.86688" lon="1.03065">
        <ele>62.4</ele>
        <time>2022-08-11T17:56:07Z</time>
      </trkpt>
      <trkpt lat="44.86691" lon="1.03072">
        <ele>62.4</ele>
        <time>2022-08-11T17:56:08Z</time>
      </trkpt>
      <trkpt lat="44.86694" lon="1.03079">
        <ele>63.4</ele>
        <time>2022-08-11T17:56:09Z</time>
      </trkpt>
      <trkpt lat="44.86697" lon="1.03087">
        <ele>62.4</ele>
        <time>2022-08-11T17:56:10Z</time>
      </trkpt>
      <trkpt lat="44.867" lon="1.03094">
        <ele>62.4</ele>
        <time>2022-08-11T17:56:11Z</time>
      </trkpt>
      <trkpt lat="44.86702" lon="1.03102">
        <ele>62.4</ele>
        <time>2022-08-11T17:56:12Z</time>
      </trkpt>
      <trkpt lat="44.86706" lon="1.03109">
        <ele>62.4</ele>
        <time>2022-08-11T17:56:13Z</time>
      </trkpt>
      <trkpt lat="44.86709" lon="1.03117">
        <ele>61.4</ele>
        <time>2022-08-11T17:56:14Z</time>
      </trkpt>
      <trkpt lat="44.86712" lon="1.03124">
        <ele>61.4</ele>
        <time>2022-08-11T17:56:15Z</time>
      </trkpt>
      <trkpt lat="44.86714" lon="1.03131">
        <ele>61.4</ele>
        <time>2022-08-11T17:56:16Z</time>
      </trkpt>
      <trkpt lat="44.86717" lon="1.03138">
        <ele>61.4</ele>
        <time>2022-08-11T17:56:17Z</time>
      </trkpt>
      <trkpt lat="44.86719" lon="1.03146">
        <ele>61.4</ele>
        <time>2022-08-11T17:56:18Z</time>
      </trkpt>
      <trkpt lat="44.86722" lon="1.03154">
        <ele>61.4</ele>
        <time>2022-08-11T17:56:19Z</time>
      </trkpt>
      <trkpt lat="44.86725" lon="1.03161">
        <ele>60.4</ele>
        <time>2022-08-11T17:56:20Z</time>
      </trkpt>
      <trkpt lat="44.86728" lon="1.03169">
        <ele>60.4</ele>
        <time>2022-08-11T17:56:21Z</time>
      </trkpt>
      <trkpt lat="44.86731" lon="1.03175">
        <ele>60.4</ele>
        <time>2022-08-11T17:56:22Z</time>
      </trkpt>
      <trkpt lat="44.86736" lon="1.0319">
        <ele>60.4</ele>
        <time>2022-08-11T17:56:24Z</time>
      </trkpt>
      <trkpt lat="44.86739" lon="1.03197">
        <ele>60.4</ele>
        <time>2022-08-11T17:56:25Z</time>
      </trkpt>
      <trkpt lat="44.86742" lon="1.03205">
        <ele>61.4</ele>
        <time>2022-08-11T17:56:26Z</time>
      </trkpt>
      <trkpt lat="44.86744" lon="1.03212">
        <ele>61.4</ele>
        <time>2022-08-11T17:56:27Z</time>
      </trkpt>
      <trkpt lat="44.86747" lon="1.03219">
        <ele>61.4</ele>
        <time>2022-08-11T17:56:28Z</time>
      </trkpt>
      <trkpt lat="44.86753" lon="1.03233">
        <ele>61.4</ele>
        <time>2022-08-11T17:56:30Z</time>
      </trkpt>
      <trkpt lat="44.86755" lon="1.03241">
        <ele>61.4</ele>
        <time>2022-08-11T17:56:31Z</time>
      </trkpt>
      <trkpt lat="44.86758" lon="1.03248">
        <ele>61.4</ele>
        <time>2022-08-11T17:56:32Z</time>
      </trkpt>
      <trkpt lat="44.86761" lon="1.03255">
        <ele>61.4</ele>
        <time>2022-08-11T17:56:33Z</time>
      </trkpt>
      <trkpt lat="44.86764" lon="1.03262">
        <ele>61.4</ele>
        <time>2022-08-11T17:56:34Z</time>
      </trkpt>
      <trkpt lat="44.86767" lon="1.0327">
        <ele>61.4</ele>
        <time>2022-08-11T17:56:35Z</time>
      </trkpt>
      <trkpt lat="44.86769" lon="1.03277">
        <ele>61.4</ele>
        <time>2022-08-11T17:56:36Z</time>
      </trkpt>
      <trkpt lat="44.86772" lon="1.03284">
        <ele>61.4</ele>
        <time>2022-08-11T17:56:37Z</time>
      </trkpt>
      <trkpt lat="44.86775" lon="1.03291">
        <ele>61.4</ele>
        <time>2022-08-11T17:56:38Z</time>
      </trkpt>
      <trkpt lat="44.86778" lon="1.03297">
        <ele>61.4</ele>
        <time>2022-08-11T17:56:39Z</time>
      </trkpt>
      <trkpt lat="44.8678" lon="1.03303">
        <ele>61.4</ele>
        <time>2022-08-11T17:56:40Z</time>
      </trkpt>
      <trkpt lat="44.86782" lon="1.03309">
        <ele>61.4</ele>
        <time>2022-08-11T17:56:41Z</time>
      </trkpt>
      <trkpt lat="44.86784" lon="1.03316">
        <ele>61.4</ele>
        <time>2022-08-11T17:56:42Z</time>
      </trkpt>
      <trkpt lat="44.86786" lon="1.03322">
        <ele>61.4</ele>
        <time>2022-08-11T17:56:43Z</time>
      </trkpt>
      <trkpt lat="44.86788" lon="1.03328">
        <ele>61.4</ele>
        <time>2022-08-11T17:56:44Z</time>
      </trkpt>
      <trkpt lat="44.8679" lon="1.03334">
        <ele>61.4</ele>
        <time>2022-08-11T17:56:45Z</time>
      </trkpt>
      <trkpt lat="44.86794" lon="1.0334">
        <ele>61.4</ele>
        <time>2022-08-11T17:56:46Z</time>
      </trkpt>
      <trkpt lat="44.86797" lon="1.03347">
        <ele>61.4</ele>
        <time>2022-08-11T17:56:47Z</time>
      </trkpt>
      <trkpt lat="44.86799" lon="1.03353">
        <ele>60.4</ele>
        <time>2022-08-11T17:56:48Z</time>
      </trkpt>
      <trkpt lat="44.86802" lon="1.03359">
        <ele>60.4</ele>
        <time>2022-08-11T17:56:49Z</time>
      </trkpt>
      <trkpt lat="44.86804" lon="1.03366">
        <ele>60.4</ele>
        <time>2022-08-11T17:56:50Z</time>
      </trkpt>
      <trkpt lat="44.86807" lon="1.03372">
        <ele>60.4</ele>
        <time>2022-08-11T17:56:51Z</time>
      </trkpt>
      <trkpt lat="44.8681" lon="1.03379">
        <ele>60.4</ele>
        <time>2022-08-11T17:56:52Z</time>
      </trkpt>
      <trkpt lat="44.86812" lon="1.03385">
        <ele>60.4</ele>
        <time>2022-08-11T17:56:53Z</time>
      </trkpt>
      <trkpt lat="44.86814" lon="1.03391">
        <ele>60.4</ele>
        <time>2022-08-11T17:56:54Z</time>
      </trkpt>
      <trkpt lat="44.86816" lon="1.03398">
        <ele>60.4</ele>
        <time>2022-08-11T17:56:55Z</time>
      </trkpt>
      <trkpt lat="44.8682" lon="1.03407">
        <ele>61.4</ele>
        <time>2022-08-11T17:56:57Z</time>
      </trkpt>
      <trkpt lat="44.86824" lon="1.03417">
        <ele>61.4</ele>
        <time>2022-08-11T17:56:59Z</time>
      </trkpt>
      <trkpt lat="44.86824" lon="1.03429">
        <ele>61.4</ele>
        <time>2022-08-11T17:57:01Z</time>
      </trkpt>
      <trkpt lat="44.86826" lon="1.03435">
        <ele>62.4</ele>
        <time>2022-08-11T17:57:02Z</time>
      </trkpt>
      <trkpt lat="44.86827" lon="1.03442">
        <ele>62.4</ele>
        <time>2022-08-11T17:57:03Z</time>
      </trkpt>
      <trkpt lat="44.8683" lon="1.03454">
        <ele>62.4</ele>
        <time>2022-08-11T17:57:05Z</time>
      </trkpt>
      <trkpt lat="44.86832" lon="1.03461">
        <ele>61.4</ele>
        <time>2022-08-11T17:57:06Z</time>
      </trkpt>
      <trkpt lat="44.86835" lon="1.03467">
        <ele>61.4</ele>
        <time>2022-08-11T17:57:07Z</time>
      </trkpt>
      <trkpt lat="44.86838" lon="1.03474">
        <ele>61.4</ele>
        <time>2022-08-11T17:57:08Z</time>
      </trkpt>
      <trkpt lat="44.86845" lon="1.03488">
        <ele>61.4</ele>
        <time>2022-08-11T17:57:10Z</time>
      </trkpt>
      <trkpt lat="44.86848" lon="1.03495">
        <ele>61.4</ele>
        <time>2022-08-11T17:57:11Z</time>
      </trkpt>
      <trkpt lat="44.86851" lon="1.03501">
        <ele>61.4</ele>
        <time>2022-08-11T17:57:12Z</time>
      </trkpt>
      <trkpt lat="44.86854" lon="1.03507">
        <ele>61.4</ele>
        <time>2022-08-11T17:57:13Z</time>
      </trkpt>
      <trkpt lat="44.86856" lon="1.03513">
        <ele>61.4</ele>
        <time>2022-08-11T17:57:14Z</time>
      </trkpt>
      <trkpt lat="44.86858" lon="1.0352">
        <ele>60.4</ele>
        <time>2022-08-11T17:57:15Z</time>
      </trkpt>
      <trkpt lat="44.86861" lon="1.03527">
        <ele>60.4</ele>
        <time>2022-08-11T17:57:16Z</time>
      </trkpt>
      <trkpt lat="44.86863" lon="1.03534">
        <ele>60.4</ele>
        <time>2022-08-11T17:57:17Z</time>
      </trkpt>
      <trkpt lat="44.86866" lon="1.03541">
        <ele>60.4</ele>
        <time>2022-08-11T17:57:18Z</time>
      </trkpt>
      <trkpt lat="44.86868" lon="1.03548">
        <ele>60.4</ele>
        <time>2022-08-11T17:57:19Z</time>
      </trkpt>
      <trkpt lat="44.86871" lon="1.03556">
        <ele>61.4</ele>
        <time>2022-08-11T17:57:20Z</time>
      </trkpt>
      <trkpt lat="44.86874" lon="1.03563">
        <ele>61.4</ele>
        <time>2022-08-11T17:57:21Z</time>
      </trkpt>
      <trkpt lat="44.86876" lon="1.03571">
        <ele>62.4</ele>
        <time>2022-08-11T17:57:22Z</time>
      </trkpt>
      <trkpt lat="44.86878" lon="1.03578">
        <ele>61.4</ele>
        <time>2022-08-11T17:57:23Z</time>
      </trkpt>
      <trkpt lat="44.86881" lon="1.03585">
        <ele>61.4</ele>
        <time>2022-08-11T17:57:24Z</time>
      </trkpt>
      <trkpt lat="44.86883" lon="1.03592">
        <ele>61.4</ele>
        <time>2022-08-11T17:57:25Z</time>
      </trkpt>
      <trkpt lat="44.86884" lon="1.03599">
        <ele>61.4</ele>
        <time>2022-08-11T17:57:26Z</time>
      </trkpt>
      <trkpt lat="44.86886" lon="1.03606">
        <ele>61.4</ele>
        <time>2022-08-11T17:57:27Z</time>
      </trkpt>
      <trkpt lat="44.86888" lon="1.03614">
        <ele>61.4</ele>
        <time>2022-08-11T17:57:28Z</time>
      </trkpt>
      <trkpt lat="44.8689" lon="1.03622">
        <ele>62.4</ele>
        <time>2022-08-11T17:57:29Z</time>
      </trkpt>
      <trkpt lat="44.86892" lon="1.0363">
        <ele>62.4</ele>
        <time>2022-08-11T17:57:30Z</time>
      </trkpt>
      <trkpt lat="44.86894" lon="1.03638">
        <ele>62.4</ele>
        <time>2022-08-11T17:57:31Z</time>
      </trkpt>
      <trkpt lat="44.86896" lon="1.03646">
        <ele>62.4</ele>
        <time>2022-08-11T17:57:32Z</time>
      </trkpt>
      <trkpt lat="44.86898" lon="1.03654">
        <ele>63.4</ele>
        <time>2022-08-11T17:57:33Z</time>
      </trkpt>
      <trkpt lat="44.86899" lon="1.03661">
        <ele>63.4</ele>
        <time>2022-08-11T17:57:34Z</time>
      </trkpt>
      <trkpt lat="44.86901" lon="1.03667">
        <ele>63.4</ele>
        <time>2022-08-11T17:57:35Z</time>
      </trkpt>
      <trkpt lat="44.86903" lon="1.03673">
        <ele>63.4</ele>
        <time>2022-08-11T17:57:36Z</time>
      </trkpt>
      <trkpt lat="44.86904" lon="1.0368">
        <ele>63.4</ele>
        <time>2022-08-11T17:57:37Z</time>
      </trkpt>
      <trkpt lat="44.86905" lon="1.03687">
        <ele>63.4</ele>
        <time>2022-08-11T17:57:38Z</time>
      </trkpt>
      <trkpt lat="44.86907" lon="1.03693">
        <ele>64.4</ele>
        <time>2022-08-11T17:57:39Z</time>
      </trkpt>
      <trkpt lat="44.86908" lon="1.037">
        <ele>64.4</ele>
        <time>2022-08-11T17:57:40Z</time>
      </trkpt>
      <trkpt lat="44.86909" lon="1.03706">
        <ele>64.4</ele>
        <time>2022-08-11T17:57:41Z</time>
      </trkpt>
      <trkpt lat="44.8691" lon="1.03713">
        <ele>64.4</ele>
        <time>2022-08-11T17:57:42Z</time>
      </trkpt>
      <trkpt lat="44.86912" lon="1.0372">
        <ele>64.4</ele>
        <time>2022-08-11T17:57:43Z</time>
      </trkpt>
      <trkpt lat="44.86913" lon="1.03727">
        <ele>64.4</ele>
        <time>2022-08-11T17:57:44Z</time>
      </trkpt>
      <trkpt lat="44.86914" lon="1.03734">
        <ele>64.4</ele>
        <time>2022-08-11T17:57:45Z</time>
      </trkpt>
      <trkpt lat="44.86916" lon="1.03741">
        <ele>64.4</ele>
        <time>2022-08-11T17:57:46Z</time>
      </trkpt>
      <trkpt lat="44.86917" lon="1.03748">
        <ele>64.4</ele>
        <time>2022-08-11T17:57:47Z</time>
      </trkpt>
      <trkpt lat="44.86918" lon="1.03756">
        <ele>64.4</ele>
        <time>2022-08-11T17:57:48Z</time>
      </trkpt>
      <trkpt lat="44.8692" lon="1.03763">
        <ele>65.4</ele>
        <time>2022-08-11T17:57:49Z</time>
      </trkpt>
      <trkpt lat="44.86922" lon="1.03771">
        <ele>65.4</ele>
        <time>2022-08-11T17:57:50Z</time>
      </trkpt>
      <trkpt lat="44.86924" lon="1.03779">
        <ele>65.4</ele>
        <time>2022-08-11T17:57:51Z</time>
      </trkpt>
      <trkpt lat="44.86925" lon="1.03787">
        <ele>65.4</ele>
        <time>2022-08-11T17:57:52Z</time>
      </trkpt>
      <trkpt lat="44.86927" lon="1.03794">
        <ele>65.4</ele>
        <time>2022-08-11T17:57:53Z</time>
      </trkpt>
      <trkpt lat="44.86929" lon="1.03802">
        <ele>65.4</ele>
        <time>2022-08-11T17:57:54Z</time>
      </trkpt>
      <trkpt lat="44.86931" lon="1.03809">
        <ele>65.4</ele>
        <time>2022-08-11T17:57:55Z</time>
      </trkpt>
      <trkpt lat="44.86932" lon="1.03817">
        <ele>65.4</ele>
        <time>2022-08-11T17:57:56Z</time>
      </trkpt>
      <trkpt lat="44.86934" lon="1.03824">
        <ele>65.4</ele>
        <time>2022-08-11T17:57:57Z</time>
      </trkpt>
      <trkpt lat="44.86936" lon="1.03831">
        <ele>64.4</ele>
        <time>2022-08-11T17:57:58Z</time>
      </trkpt>
      <trkpt lat="44.86937" lon="1.03838">
        <ele>64.4</ele>
        <time>2022-08-11T17:57:59Z</time>
      </trkpt>
      <trkpt lat="44.86938" lon="1.03845">
        <ele>64.4</ele>
        <time>2022-08-11T17:58:00Z</time>
      </trkpt>
      <trkpt lat="44.86939" lon="1.03852">
        <ele>64.4</ele>
        <time>2022-08-11T17:58:01Z</time>
      </trkpt>
      <trkpt lat="44.86939" lon="1.03859">
        <ele>64.4</ele>
        <time>2022-08-11T17:58:02Z</time>
      </trkpt>
      <trkpt lat="44.8694" lon="1.03866">
        <ele>64.4</ele>
        <time>2022-08-11T17:58:03Z</time>
      </trkpt>
      <trkpt lat="44.8694" lon="1.03873">
        <ele>64.4</ele>
        <time>2022-08-11T17:58:04Z</time>
      </trkpt>
      <trkpt lat="44.86941" lon="1.0388">
        <ele>64.4</ele>
        <time>2022-08-11T17:58:05Z</time>
      </trkpt>
      <trkpt lat="44.86941" lon="1.03887">
        <ele>64.4</ele>
        <time>2022-08-11T17:58:06Z</time>
      </trkpt>
      <trkpt lat="44.86941" lon="1.03894">
        <ele>63.4</ele>
        <time>2022-08-11T17:58:07Z</time>
      </trkpt>
      <trkpt lat="44.86941" lon="1.03901">
        <ele>63.4</ele>
        <time>2022-08-11T17:58:08Z</time>
      </trkpt>
      <trkpt lat="44.86941" lon="1.03907">
        <ele>63.4</ele>
        <time>2022-08-11T17:58:09Z</time>
      </trkpt>
      <trkpt lat="44.86941" lon="1.03914">
        <ele>63.4</ele>
        <time>2022-08-11T17:58:10Z</time>
      </trkpt>
      <trkpt lat="44.86942" lon="1.03921">
        <ele>62.4</ele>
        <time>2022-08-11T17:58:11Z</time>
      </trkpt>
      <trkpt lat="44.86941" lon="1.03929">
        <ele>62.4</ele>
        <time>2022-08-11T17:58:12Z</time>
      </trkpt>
      <trkpt lat="44.86941" lon="1.03936">
        <ele>62.4</ele>
        <time>2022-08-11T17:58:13Z</time>
      </trkpt>
      <trkpt lat="44.86941" lon="1.03943">
        <ele>62.4</ele>
        <time>2022-08-11T17:58:14Z</time>
      </trkpt>
      <trkpt lat="44.86941" lon="1.03951">
        <ele>61.4</ele>
        <time>2022-08-11T17:58:15Z</time>
      </trkpt>
      <trkpt lat="44.86941" lon="1.03959">
        <ele>60.4</ele>
        <time>2022-08-11T17:58:16Z</time>
      </trkpt>
      <trkpt lat="44.86941" lon="1.03967">
        <ele>60.4</ele>
        <time>2022-08-11T17:58:17Z</time>
      </trkpt>
      <trkpt lat="44.86941" lon="1.03974">
        <ele>60.4</ele>
        <time>2022-08-11T17:58:18Z</time>
      </trkpt>
      <trkpt lat="44.86941" lon="1.03982">
        <ele>59.4</ele>
        <time>2022-08-11T17:58:19Z</time>
      </trkpt>
      <trkpt lat="44.8694" lon="1.0399">
        <ele>59.4</ele>
        <time>2022-08-11T17:58:20Z</time>
      </trkpt>
      <trkpt lat="44.8694" lon="1.03997">
        <ele>60.4</ele>
        <time>2022-08-11T17:58:21Z</time>
      </trkpt>
      <trkpt lat="44.8694" lon="1.04003">
        <ele>60.4</ele>
        <time>2022-08-11T17:58:22Z</time>
      </trkpt>
      <trkpt lat="44.8694" lon="1.04016">
        <ele>60.4</ele>
        <time>2022-08-11T17:58:24Z</time>
      </trkpt>
      <trkpt lat="44.86941" lon="1.04026">
        <ele>60.4</ele>
        <time>2022-08-11T17:58:26Z</time>
      </trkpt>
      <trkpt lat="44.86942" lon="1.04034">
        <ele>60.4</ele>
        <time>2022-08-11T17:58:28Z</time>
      </trkpt>
      <trkpt lat="44.86944" lon="1.04044">
        <ele>60.4</ele>
        <time>2022-08-11T17:58:30Z</time>
      </trkpt>
      <trkpt lat="44.86945" lon="1.04053">
        <ele>60.4</ele>
        <time>2022-08-11T17:58:32Z</time>
      </trkpt>
      <trkpt lat="44.86947" lon="1.04065">
        <ele>60.4</ele>
        <time>2022-08-11T17:58:34Z</time>
      </trkpt>
      <trkpt lat="44.86948" lon="1.04071">
        <ele>60.4</ele>
        <time>2022-08-11T17:58:35Z</time>
      </trkpt>
      <trkpt lat="44.86949" lon="1.04077">
        <ele>60.4</ele>
        <time>2022-08-11T17:58:36Z</time>
      </trkpt>
      <trkpt lat="44.86952" lon="1.04088">
        <ele>60.4</ele>
        <time>2022-08-11T17:58:38Z</time>
      </trkpt>
      <trkpt lat="44.86954" lon="1.04099">
        <ele>59.4</ele>
        <time>2022-08-11T17:58:40Z</time>
      </trkpt>
      <trkpt lat="44.86956" lon="1.04108">
        <ele>59.4</ele>
        <time>2022-08-11T17:58:42Z</time>
      </trkpt>
      <trkpt lat="44.86958" lon="1.04116">
        <ele>58.4</ele>
        <time>2022-08-11T17:58:44Z</time>
      </trkpt>
      <trkpt lat="44.8696" lon="1.04124">
        <ele>58.4</ele>
        <time>2022-08-11T17:58:46Z</time>
      </trkpt>
      <trkpt lat="44.86961" lon="1.04131">
        <ele>58.4</ele>
        <time>2022-08-11T17:58:48Z</time>
      </trkpt>
      <trkpt lat="44.86962" lon="1.04138">
        <ele>58.4</ele>
        <time>2022-08-11T17:58:50Z</time>
      </trkpt>
      <trkpt lat="44.86962" lon="1.04147">
        <ele>58.4</ele>
        <time>2022-08-11T17:58:52Z</time>
      </trkpt>
      <trkpt lat="44.8696" lon="1.04156">
        <ele>58.4</ele>
        <time>2022-08-11T17:58:54Z</time>
      </trkpt>
      <trkpt lat="44.86958" lon="1.04166">
        <ele>58.4</ele>
        <time>2022-08-11T17:58:56Z</time>
      </trkpt>
      <trkpt lat="44.86956" lon="1.04176">
        <ele>58.4</ele>
        <time>2022-08-11T17:58:58Z</time>
      </trkpt>
      <trkpt lat="44.86953" lon="1.04187">
        <ele>58.4</ele>
        <time>2022-08-11T17:59:00Z</time>
      </trkpt>
      <trkpt lat="44.86951" lon="1.04196">
        <ele>58.4</ele>
        <time>2022-08-11T17:59:02Z</time>
      </trkpt>
      <trkpt lat="44.8695" lon="1.04205">
        <ele>58.4</ele>
        <time>2022-08-11T17:59:04Z</time>
      </trkpt>
      <trkpt lat="44.86951" lon="1.04212">
        <ele>57.4</ele>
        <time>2022-08-11T17:59:08Z</time>
      </trkpt>
      <trkpt lat="44.8695" lon="1.04218">
        <ele>60.4</ele>
        <time>2022-08-11T17:59:20Z</time>
      </trkpt>
      <trkpt lat="44.8695" lon="1.04226">
        <ele>67.4</ele>
        <time>2022-08-11T18:00:02Z</time>
      </trkpt>
      <trkpt lat="44.86955" lon="1.04231">
        <ele>69.4</ele>
        <time>2022-08-11T18:00:09Z</time>
      </trkpt>
      <trkpt lat="44.86954" lon="1.04238">
        <ele>68.4</ele>
        <time>2022-08-11T18:00:15Z</time>
      </trkpt>
      <trkpt lat="44.86952" lon="1.04246">
        <ele>67.4</ele>
        <time>2022-08-11T18:00:18Z</time>
      </trkpt>
      <trkpt lat="44.8695" lon="1.04253">
        <ele>67.4</ele>
        <time>2022-08-11T18:00:20Z</time>
      </trkpt>
      <trkpt lat="44.86949" lon="1.04261">
        <ele>66.4</ele>
        <time>2022-08-11T18:00:22Z</time>
      </trkpt>
      <trkpt lat="44.86947" lon="1.04269">
        <ele>66.4</ele>
        <time>2022-08-11T18:00:24Z</time>
      </trkpt>
      <trkpt lat="44.86946" lon="1.04277">
        <ele>65.4</ele>
        <time>2022-08-11T18:00:26Z</time>
      </trkpt>
      <trkpt lat="44.86944" lon="1.04285">
        <ele>64.4</ele>
        <time>2022-08-11T18:00:28Z</time>
      </trkpt>
      <trkpt lat="44.86943" lon="1.04294">
        <ele>63.4</ele>
        <time>2022-08-11T18:00:30Z</time>
      </trkpt>
      <trkpt lat="44.86941" lon="1.04302">
        <ele>62.4</ele>
        <time>2022-08-11T18:00:32Z</time>
      </trkpt>
      <trkpt lat="44.8694" lon="1.0431">
        <ele>61.4</ele>
        <time>2022-08-11T18:00:34Z</time>
      </trkpt>
      <trkpt lat="44.8694" lon="1.04317">
        <ele>59.4</ele>
        <time>2022-08-11T18:00:36Z</time>
      </trkpt>
      <trkpt lat="44.86939" lon="1.04325">
        <ele>60.4</ele>
        <time>2022-08-11T18:00:38Z</time>
      </trkpt>
      <trkpt lat="44.86937" lon="1.04334">
        <ele>59.4</ele>
        <time>2022-08-11T18:00:41Z</time>
      </trkpt>
      <trkpt lat="44.86938" lon="1.04343">
        <ele>58.4</ele>
        <time>2022-08-11T18:00:43Z</time>
      </trkpt>
      <trkpt lat="44.86937" lon="1.0435">
        <ele>58.4</ele>
        <time>2022-08-11T18:00:45Z</time>
      </trkpt>
      <trkpt lat="44.86936" lon="1.04356">
        <ele>58.4</ele>
        <time>2022-08-11T18:00:49Z</time>
      </trkpt>
      <trkpt lat="44.86931" lon="1.04358">
        <ele>60.4</ele>
        <time>2022-08-11T18:00:54Z</time>
      </trkpt>
      <trkpt lat="44.86927" lon="1.04364">
        <ele>59.4</ele>
        <time>2022-08-11T18:00:58Z</time>
      </trkpt>
      <trkpt lat="44.86924" lon="1.04368">
        <ele>60.4</ele>
        <time>2022-08-11T18:01:07Z</time>
      </trkpt>
      <trkpt lat="44.86919" lon="1.04371">
        <ele>62.4</ele>
        <time>2022-08-11T18:01:42Z</time>
      </trkpt>
      <trkpt lat="44.86916" lon="1.04376">
        <ele>63.4</ele>
        <time>2022-08-11T18:02:01Z</time>
      </trkpt>
      <trkpt lat="44.8692" lon="1.0438">
        <ele>65.4</ele>
        <time>2022-08-11T18:02:11Z</time>
      </trkpt>
      <trkpt lat="44.86921" lon="1.04387">
        <ele>69.4</ele>
        <time>2022-08-11T18:02:26Z</time>
      </trkpt>
      <trkpt lat="44.86923" lon="1.04394">
        <ele>69.4</ele>
        <time>2022-08-11T18:02:31Z</time>
      </trkpt>
      <trkpt lat="44.86918" lon="1.04393">
        <ele>70.4</ele>
        <time>2022-08-11T18:03:10Z</time>
      </trkpt>
      <trkpt lat="44.86923" lon="1.04397">
        <ele>68.4</ele>
        <time>2022-08-11T18:03:28Z</time>
      </trkpt>
      <trkpt lat="44.86928" lon="1.04397">
        <ele>67.4</ele>
        <time>2022-08-11T18:03:34Z</time>
      </trkpt>
      <trkpt lat="44.86931" lon="1.04402">
        <ele>68.4</ele>
        <time>2022-08-11T18:03:42Z</time>
      </trkpt>
      <trkpt lat="44.86936" lon="1.04402">
        <ele>68.4</ele>
        <time>2022-08-11T18:03:48Z</time>
      </trkpt>
      <trkpt lat="44.8694" lon="1.04403">
        <ele>69.4</ele>
        <time>2022-08-11T18:03:51Z</time>
      </trkpt>
      <trkpt lat="44.86945" lon="1.04404">
        <ele>71.4</ele>
        <time>2022-08-11T18:03:55Z</time>
      </trkpt>
      <trkpt lat="44.86951" lon="1.04406">
        <ele>69.4</ele>
        <time>2022-08-11T18:03:59Z</time>
      </trkpt>
      <trkpt lat="44.86953" lon="1.04412">
        <ele>70.4</ele>
        <time>2022-08-11T18:04:05Z</time>
      </trkpt>
      <trkpt lat="44.86957" lon="1.04417">
        <ele>70.4</ele>
        <time>2022-08-11T18:04:10Z</time>
      </trkpt>
      <trkpt lat="44.86961" lon="1.04418">
        <ele>70.4</ele>
        <time>2022-08-11T18:04:14Z</time>
      </trkpt>
      <trkpt lat="44.86967" lon="1.04418">
        <ele>74.4</ele>
        <time>2022-08-11T18:04:22Z</time>
      </trkpt>
      <trkpt lat="44.86972" lon="1.04422">
        <ele>73.4</ele>
        <time>2022-08-11T18:04:27Z</time>
      </trkpt>
      <trkpt lat="44.86975" lon="1.04426">
        <ele>77.4</ele>
        <time>2022-08-11T18:04:33Z</time>
      </trkpt>
      <trkpt lat="44.86981" lon="1.04426">
        <ele>78.4</ele>
        <time>2022-08-11T18:04:44Z</time>
      </trkpt>
      <trkpt lat="44.86986" lon="1.04424">
        <ele>78.4</ele>
        <time>2022-08-11T18:04:49Z</time>
      </trkpt>
      <trkpt lat="44.86991" lon="1.04424">
        <ele>79.4</ele>
        <time>2022-08-11T18:04:55Z</time>
      </trkpt>
      <trkpt lat="44.86994" lon="1.0443">
        <ele>82.4</ele>
        <time>2022-08-11T18:05:28Z</time>
      </trkpt>
      <trkpt lat="44.86995" lon="1.04437">
        <ele>82.4</ele>
        <time>2022-08-11T18:05:32Z</time>
      </trkpt>
      <trkpt lat="44.86999" lon="1.04434">
        <ele>84.4</ele>
        <time>2022-08-11T18:05:42Z</time>
      </trkpt>
      <trkpt lat="44.87001" lon="1.04427">
        <ele>84.4</ele>
        <time>2022-08-11T18:05:46Z</time>
      </trkpt>
      <trkpt lat="44.87002" lon="1.0442">
        <ele>83.4</ele>
        <time>2022-08-11T18:05:50Z</time>
      </trkpt>
      <trkpt lat="44.87004" lon="1.04414">
        <ele>85.4</ele>
        <time>2022-08-11T18:05:55Z</time>
      </trkpt>
      <trkpt lat="44.87004" lon="1.04406">
        <ele>85.4</ele>
        <time>2022-08-11T18:06:00Z</time>
      </trkpt>
      <trkpt lat="44.87004" lon="1.044">
        <ele>86.4</ele>
        <time>2022-08-11T18:06:05Z</time>
      </trkpt>
      <trkpt lat="44.87004" lon="1.04393">
        <ele>86.4</ele>
        <time>2022-08-11T18:06:11Z</time>
      </trkpt>
      <trkpt lat="44.87001" lon="1.04387">
        <ele>88.4</ele>
        <time>2022-08-11T18:06:17Z</time>
      </trkpt>
      <trkpt lat="44.87001" lon="1.0438">
        <ele>98.4</ele>
        <time>2022-08-11T18:06:36Z</time>
      </trkpt>
      <trkpt lat="44.87001" lon="1.04374">
        <ele>95.4</ele>
        <time>2022-08-11T18:08:55Z</time>
      </trkpt>
      <trkpt lat="44.87001" lon="1.04365">
        <ele>95.4</ele>
        <time>2022-08-11T18:09:04Z</time>
      </trkpt>
      <trkpt lat="44.87001" lon="1.04358">
        <ele>95.4</ele>
        <time>2022-08-11T18:09:06Z</time>
      </trkpt>
      <trkpt lat="44.86999" lon="1.04349">
        <ele>95.4</ele>
        <time>2022-08-11T18:09:08Z</time>
      </trkpt>
      <trkpt lat="44.86997" lon="1.04342">
        <ele>94.4</ele>
        <time>2022-08-11T18:09:10Z</time>
      </trkpt>
      <trkpt lat="44.86995" lon="1.04334">
        <ele>94.4</ele>
        <time>2022-08-11T18:09:12Z</time>
      </trkpt>
      <trkpt lat="44.86995" lon="1.04327">
        <ele>93.4</ele>
        <time>2022-08-11T18:09:14Z</time>
      </trkpt>
      <trkpt lat="44.86995" lon="1.04318">
        <ele>94.4</ele>
        <time>2022-08-11T18:09:16Z</time>
      </trkpt>
      <trkpt lat="44.86995" lon="1.04309">
        <ele>94.4</ele>
        <time>2022-08-11T18:09:18Z</time>
      </trkpt>
      <trkpt lat="44.86995" lon="1.04301">
        <ele>93.4</ele>
        <time>2022-08-11T18:09:20Z</time>
      </trkpt>
      <trkpt lat="44.86994" lon="1.04294">
        <ele>93.4</ele>
        <time>2022-08-11T18:09:22Z</time>
      </trkpt>
      <trkpt lat="44.86996" lon="1.04287">
        <ele>94.4</ele>
        <time>2022-08-11T18:09:26Z</time>
      </trkpt>
      <trkpt lat="44.86999" lon="1.0428">
        <ele>94.4</ele>
        <time>2022-08-11T18:09:31Z</time>
      </trkpt>
      <trkpt lat="44.87003" lon="1.04274">
        <ele>95.4</ele>
        <time>2022-08-11T18:09:34Z</time>
      </trkpt>
      <trkpt lat="44.87009" lon="1.04268">
        <ele>95.4</ele>
        <time>2022-08-11T18:09:37Z</time>
      </trkpt>
      <trkpt lat="44.87012" lon="1.04261">
        <ele>95.4</ele>
        <time>2022-08-11T18:09:39Z</time>
      </trkpt>
      <trkpt lat="44.87014" lon="1.04252">
        <ele>94.4</ele>
        <time>2022-08-11T18:09:41Z</time>
      </trkpt>
      <trkpt lat="44.87014" lon="1.04244">
        <ele>93.4</ele>
        <time>2022-08-11T18:09:43Z</time>
      </trkpt>
      <trkpt lat="44.87014" lon="1.04236">
        <ele>92.4</ele>
        <time>2022-08-11T18:09:45Z</time>
      </trkpt>
      <trkpt lat="44.87015" lon="1.0423">
        <ele>91.4</ele>
        <time>2022-08-11T18:09:47Z</time>
      </trkpt>
      <trkpt lat="44.87012" lon="1.04225">
        <ele>90.4</ele>
        <time>2022-08-11T18:09:49Z</time>
      </trkpt>
      <trkpt lat="44.87007" lon="1.04222">
        <ele>89.4</ele>
        <time>2022-08-11T18:09:52Z</time>
      </trkpt>
      <trkpt lat="44.87003" lon="1.04219">
        <ele>85.4</ele>
        <time>2022-08-11T18:10:08Z</time>
      </trkpt>
      <trkpt lat="44.86995" lon="1.04216">
        <ele>84.4</ele>
        <time>2022-08-11T18:10:10Z</time>
      </trkpt>
      <trkpt lat="44.86987" lon="1.04214">
        <ele>84.4</ele>
        <time>2022-08-11T18:10:12Z</time>
      </trkpt>
      <trkpt lat="44.86981" lon="1.04213">
        <ele>83.4</ele>
        <time>2022-08-11T18:10:14Z</time>
      </trkpt>
      <trkpt lat="44.86976" lon="1.04214">
        <ele>82.4</ele>
        <time>2022-08-11T18:10:17Z</time>
      </trkpt>
      <trkpt lat="44.86972" lon="1.04219">
        <ele>82.4</ele>
        <time>2022-08-11T18:10:20Z</time>
      </trkpt>
      <trkpt lat="44.86964" lon="1.04225">
        <ele>81.4</ele>
        <time>2022-08-11T18:10:22Z</time>
      </trkpt>
      <trkpt lat="44.86959" lon="1.04227">
        <ele>80.4</ele>
        <time>2022-08-11T18:10:23Z</time>
      </trkpt>
      <trkpt lat="44.86952" lon="1.04229">
        <ele>80.4</ele>
        <time>2022-08-11T18:10:25Z</time>
      </trkpt>
      <trkpt lat="44.86947" lon="1.04229">
        <ele>79.4</ele>
        <time>2022-08-11T18:10:28Z</time>
      </trkpt>
      <trkpt lat="44.86944" lon="1.04225">
        <ele>77.4</ele>
        <time>2022-08-11T18:10:32Z</time>
      </trkpt>
      <trkpt lat="44.86942" lon="1.04231">
        <ele>71.4</ele>
        <time>2022-08-11T18:11:30Z</time>
      </trkpt>
      <trkpt lat="44.86939" lon="1.04226">
        <ele>69.4</ele>
        <time>2022-08-11T18:12:26Z</time>
      </trkpt>
      <trkpt lat="44.86934" lon="1.04229">
        <ele>66.4</ele>
        <time>2022-08-11T18:12:35Z</time>
      </trkpt>
      <trkpt lat="44.86933" lon="1.04222">
        <ele>66.4</ele>
        <time>2022-08-11T18:12:53Z</time>
      </trkpt>
      <trkpt lat="44.86932" lon="1.04214">
        <ele>65.4</ele>
        <time>2022-08-11T18:12:57Z</time>
      </trkpt>
      <trkpt lat="44.86937" lon="1.04211">
        <ele>64.4</ele>
        <time>2022-08-11T18:13:15Z</time>
      </trkpt>
      <trkpt lat="44.86932" lon="1.04212">
        <ele>65.4</ele>
        <time>2022-08-11T18:13:33Z</time>
      </trkpt>
      <trkpt lat="44.86928" lon="1.04216">
        <ele>65.4</ele>
        <time>2022-08-11T18:13:38Z</time>
      </trkpt>
      <trkpt lat="44.86927" lon="1.04223">
        <ele>65.4</ele>
        <time>2022-08-11T18:13:52Z</time>
      </trkpt>
      <trkpt lat="44.86929" lon="1.04217">
        <ele>64.4</ele>
        <time>2022-08-11T18:14:18Z</time>
      </trkpt>
      <trkpt lat="44.85187" lon="1.0443">
        <ele>62.4</ele>
        <time>2022-08-12T07:07:37Z</time>
      </trkpt>
      <trkpt lat="44.85192" lon="1.0443">
        <ele>62.4</ele>
        <time>2022-08-12T07:07:37Z</time>
      </trkpt>
      <trkpt lat="44.85193" lon="1.04437">
        <ele>62.4</ele>
        <time>2022-08-12T07:07:39Z</time>
      </trkpt>
      <trkpt lat="44.85191" lon="1.0443">
        <ele>57.4</ele>
        <time>2022-08-12T07:08:46Z</time>
      </trkpt>
      <trkpt lat="44.85193" lon="1.04425">
        <ele>49.4</ele>
        <time>2022-08-12T07:08:56Z</time>
      </trkpt>
      <trkpt lat="44.85189" lon="1.04428">
        <ele>43.4</ele>
        <time>2022-08-12T07:09:50Z</time>
      </trkpt>
      <trkpt lat="44.85187" lon="1.04434">
        <ele>43.4</ele>
        <time>2022-08-12T07:10:08Z</time>
      </trkpt>
      <trkpt lat="44.85183" lon="1.04434">
        <ele>55.4</ele>
        <time>2022-08-12T07:12:33Z</time>
      </trkpt>
      <trkpt lat="44.85178" lon="1.04433">
        <ele>56.4</ele>
        <time>2022-08-12T07:12:42Z</time>
      </trkpt>
      <trkpt lat="44.85174" lon="1.04435">
        <ele>53.4</ele>
        <time>2022-08-12T07:12:48Z</time>
      </trkpt>
      <trkpt lat="44.85174" lon="1.04442">
        <ele>52.4</ele>
        <time>2022-08-12T07:13:49Z</time>
      </trkpt>
      <trkpt lat="44.85173" lon="1.0445">
        <ele>54.4</ele>
        <time>2022-08-12T07:15:15Z</time>
      </trkpt>
      <trkpt lat="44.8517" lon="1.04458">
        <ele>53.4</ele>
        <time>2022-08-12T07:15:18Z</time>
      </trkpt>
      <trkpt lat="44.85168" lon="1.04464">
        <ele>53.4</ele>
        <time>2022-08-12T07:15:20Z</time>
      </trkpt>
      <trkpt lat="44.85167" lon="1.04473">
        <ele>52.4</ele>
        <time>2022-08-12T07:15:22Z</time>
      </trkpt>
      <trkpt lat="44.85164" lon="1.04482">
        <ele>53.4</ele>
        <time>2022-08-12T07:15:24Z</time>
      </trkpt>
      <trkpt lat="44.85162" lon="1.0449">
        <ele>53.4</ele>
        <time>2022-08-12T07:15:26Z</time>
      </trkpt>
      <trkpt lat="44.85159" lon="1.045">
        <ele>54.4</ele>
        <time>2022-08-12T07:15:28Z</time>
      </trkpt>
      <trkpt lat="44.85156" lon="1.04509">
        <ele>54.4</ele>
        <time>2022-08-12T07:15:30Z</time>
      </trkpt>
      <trkpt lat="44.85153" lon="1.04518">
        <ele>54.4</ele>
        <time>2022-08-12T07:15:32Z</time>
      </trkpt>
      <trkpt lat="44.8515" lon="1.04527">
        <ele>54.4</ele>
        <time>2022-08-12T07:15:34Z</time>
      </trkpt>
      <trkpt lat="44.85146" lon="1.04536">
        <ele>54.4</ele>
        <time>2022-08-12T07:15:36Z</time>
      </trkpt>
      <trkpt lat="44.85141" lon="1.04545">
        <ele>54.4</ele>
        <time>2022-08-12T07:15:38Z</time>
      </trkpt>
      <trkpt lat="44.85137" lon="1.04554">
        <ele>54.4</ele>
        <time>2022-08-12T07:15:40Z</time>
      </trkpt>
      <trkpt lat="44.85133" lon="1.04563">
        <ele>55.4</ele>
        <time>2022-08-12T07:15:42Z</time>
      </trkpt>
      <trkpt lat="44.85129" lon="1.04571">
        <ele>55.4</ele>
        <time>2022-08-12T07:15:44Z</time>
      </trkpt>
      <trkpt lat="44.85125" lon="1.04579">
        <ele>55.4</ele>
        <time>2022-08-12T07:15:46Z</time>
      </trkpt>
      <trkpt lat="44.8512" lon="1.04588">
        <ele>55.4</ele>
        <time>2022-08-12T07:15:48Z</time>
      </trkpt>
      <trkpt lat="44.85115" lon="1.04597">
        <ele>55.4</ele>
        <time>2022-08-12T07:15:50Z</time>
      </trkpt>
      <trkpt lat="44.85111" lon="1.04604">
        <ele>55.4</ele>
        <time>2022-08-12T07:15:52Z</time>
      </trkpt>
      <trkpt lat="44.85107" lon="1.04612">
        <ele>55.4</ele>
        <time>2022-08-12T07:15:54Z</time>
      </trkpt>
      <trkpt lat="44.85102" lon="1.0462">
        <ele>55.4</ele>
        <time>2022-08-12T07:15:56Z</time>
      </trkpt>
      <trkpt lat="44.85098" lon="1.04628">
        <ele>54.4</ele>
        <time>2022-08-12T07:15:58Z</time>
      </trkpt>
      <trkpt lat="44.8509" lon="1.04638">
        <ele>55.4</ele>
        <time>2022-08-12T07:16:01Z</time>
      </trkpt>
      <trkpt lat="44.85085" lon="1.04644">
        <ele>54.4</ele>
        <time>2022-08-12T07:16:03Z</time>
      </trkpt>
      <trkpt lat="44.85081" lon="1.04652">
        <ele>54.4</ele>
        <time>2022-08-12T07:16:05Z</time>
      </trkpt>
      <trkpt lat="44.85079" lon="1.04659">
        <ele>54.4</ele>
        <time>2022-08-12T07:16:07Z</time>
      </trkpt>
      <trkpt lat="44.85074" lon="1.04666">
        <ele>54.4</ele>
        <time>2022-08-12T07:16:09Z</time>
      </trkpt>
      <trkpt lat="44.85069" lon="1.04674">
        <ele>53.4</ele>
        <time>2022-08-12T07:16:11Z</time>
      </trkpt>
      <trkpt lat="44.85065" lon="1.04681">
        <ele>53.4</ele>
        <time>2022-08-12T07:16:13Z</time>
      </trkpt>
      <trkpt lat="44.85061" lon="1.04689">
        <ele>53.4</ele>
        <time>2022-08-12T07:16:15Z</time>
      </trkpt>
      <trkpt lat="44.85057" lon="1.04695">
        <ele>53.4</ele>
        <time>2022-08-12T07:16:17Z</time>
      </trkpt>
      <trkpt lat="44.85052" lon="1.04701">
        <ele>53.4</ele>
        <time>2022-08-12T07:16:19Z</time>
      </trkpt>
      <trkpt lat="44.85047" lon="1.04707">
        <ele>54.4</ele>
        <time>2022-08-12T07:16:21Z</time>
      </trkpt>
      <trkpt lat="44.85043" lon="1.04716">
        <ele>55.4</ele>
        <time>2022-08-12T07:16:23Z</time>
      </trkpt>
      <trkpt lat="44.8504" lon="1.04723">
        <ele>55.4</ele>
        <time>2022-08-12T07:16:25Z</time>
      </trkpt>
      <trkpt lat="44.85035" lon="1.04731">
        <ele>54.4</ele>
        <time>2022-08-12T07:16:27Z</time>
      </trkpt>
      <trkpt lat="44.85029" lon="1.04738">
        <ele>54.4</ele>
        <time>2022-08-12T07:16:29Z</time>
      </trkpt>
      <trkpt lat="44.85025" lon="1.04747">
        <ele>55.4</ele>
        <time>2022-08-12T07:16:31Z</time>
      </trkpt>
      <trkpt lat="44.8502" lon="1.04755">
        <ele>57.4</ele>
        <time>2022-08-12T07:16:33Z</time>
      </trkpt>
      <trkpt lat="44.85012" lon="1.04769">
        <ele>58.4</ele>
        <time>2022-08-12T07:16:36Z</time>
      </trkpt>
      <trkpt lat="44.8501" lon="1.04775">
        <ele>58.4</ele>
        <time>2022-08-12T07:16:37Z</time>
      </trkpt>
      <trkpt lat="44.85005" lon="1.04783">
        <ele>58.4</ele>
        <time>2022-08-12T07:16:39Z</time>
      </trkpt>
      <trkpt lat="44.84999" lon="1.04791">
        <ele>59.4</ele>
        <time>2022-08-12T07:16:41Z</time>
      </trkpt>
      <trkpt lat="44.84994" lon="1.04801">
        <ele>59.4</ele>
        <time>2022-08-12T07:16:43Z</time>
      </trkpt>
      <trkpt lat="44.84991" lon="1.04807">
        <ele>59.4</ele>
        <time>2022-08-12T07:16:44Z</time>
      </trkpt>
      <trkpt lat="44.84987" lon="1.04812">
        <ele>59.4</ele>
        <time>2022-08-12T07:16:45Z</time>
      </trkpt>
      <trkpt lat="44.84984" lon="1.04818">
        <ele>59.4</ele>
        <time>2022-08-12T07:16:46Z</time>
      </trkpt>
      <trkpt lat="44.84981" lon="1.04823">
        <ele>59.4</ele>
        <time>2022-08-12T07:16:47Z</time>
      </trkpt>
      <trkpt lat="44.84978" lon="1.04829">
        <ele>59.4</ele>
        <time>2022-08-12T07:16:48Z</time>
      </trkpt>
      <trkpt lat="44.84975" lon="1.04834">
        <ele>59.4</ele>
        <time>2022-08-12T07:16:49Z</time>
      </trkpt>
      <trkpt lat="44.84972" lon="1.04839">
        <ele>59.4</ele>
        <time>2022-08-12T07:16:50Z</time>
      </trkpt>
      <trkpt lat="44.8497" lon="1.04844">
        <ele>58.4</ele>
        <time>2022-08-12T07:16:51Z</time>
      </trkpt>
      <trkpt lat="44.84967" lon="1.0485">
        <ele>58.4</ele>
        <time>2022-08-12T07:16:52Z</time>
      </trkpt>
      <trkpt lat="44.84963" lon="1.04855">
        <ele>58.4</ele>
        <time>2022-08-12T07:16:54Z</time>
      </trkpt>
      <trkpt lat="44.84959" lon="1.04861">
        <ele>56.4</ele>
        <time>2022-08-12T07:17:15Z</time>
      </trkpt>
      <trkpt lat="44.84955" lon="1.04868">
        <ele>56.4</ele>
        <time>2022-08-12T07:17:18Z</time>
      </trkpt>
      <trkpt lat="44.84951" lon="1.04876">
        <ele>55.4</ele>
        <time>2022-08-12T07:17:20Z</time>
      </trkpt>
      <trkpt lat="44.84946" lon="1.04886">
        <ele>55.4</ele>
        <time>2022-08-12T07:17:22Z</time>
      </trkpt>
      <trkpt lat="44.84942" lon="1.04895">
        <ele>56.4</ele>
        <time>2022-08-12T07:17:24Z</time>
      </trkpt>
      <trkpt lat="44.84937" lon="1.04902">
        <ele>57.4</ele>
        <time>2022-08-12T07:17:26Z</time>
      </trkpt>
      <trkpt lat="44.84931" lon="1.04911">
        <ele>58.4</ele>
        <time>2022-08-12T07:17:28Z</time>
      </trkpt>
      <trkpt lat="44.84929" lon="1.04917">
        <ele>58.4</ele>
        <time>2022-08-12T07:17:29Z</time>
      </trkpt>
      <trkpt lat="44.84924" lon="1.04927">
        <ele>59.4</ele>
        <time>2022-08-12T07:17:31Z</time>
      </trkpt>
      <trkpt lat="44.84918" lon="1.04937">
        <ele>59.4</ele>
        <time>2022-08-12T07:17:33Z</time>
      </trkpt>
      <trkpt lat="44.84916" lon="1.04942">
        <ele>59.4</ele>
        <time>2022-08-12T07:17:34Z</time>
      </trkpt>
      <trkpt lat="44.84911" lon="1.04949">
        <ele>60.4</ele>
        <time>2022-08-12T07:17:36Z</time>
      </trkpt>
      <trkpt lat="44.84904" lon="1.04966">
        <ele>60.4</ele>
        <time>2022-08-12T07:17:39Z</time>
      </trkpt>
      <trkpt lat="44.849" lon="1.04975">
        <ele>60.4</ele>
        <time>2022-08-12T07:17:41Z</time>
      </trkpt>
      <trkpt lat="44.84895" lon="1.04985">
        <ele>61.4</ele>
        <time>2022-08-12T07:17:43Z</time>
      </trkpt>
      <trkpt lat="44.8489" lon="1.04993">
        <ele>61.4</ele>
        <time>2022-08-12T07:17:45Z</time>
      </trkpt>
      <trkpt lat="44.84884" lon="1.05003">
        <ele>62.4</ele>
        <time>2022-08-12T07:17:47Z</time>
      </trkpt>
      <trkpt lat="44.84881" lon="1.05008">
        <ele>62.4</ele>
        <time>2022-08-12T07:17:48Z</time>
      </trkpt>
      <trkpt lat="44.84878" lon="1.05013">
        <ele>63.4</ele>
        <time>2022-08-12T07:17:49Z</time>
      </trkpt>
      <trkpt lat="44.84874" lon="1.05021">
        <ele>63.4</ele>
        <time>2022-08-12T07:17:51Z</time>
      </trkpt>
      <trkpt lat="44.84871" lon="1.05026">
        <ele>63.4</ele>
        <time>2022-08-12T07:17:52Z</time>
      </trkpt>
      <trkpt lat="44.84868" lon="1.05032">
        <ele>64.4</ele>
        <time>2022-08-12T07:17:53Z</time>
      </trkpt>
      <trkpt lat="44.84862" lon="1.05042">
        <ele>64.4</ele>
        <time>2022-08-12T07:17:55Z</time>
      </trkpt>
      <trkpt lat="44.8486" lon="1.05047">
        <ele>64.4</ele>
        <time>2022-08-12T07:17:56Z</time>
      </trkpt>
      <trkpt lat="44.84857" lon="1.05052">
        <ele>64.4</ele>
        <time>2022-08-12T07:17:57Z</time>
      </trkpt>
      <trkpt lat="44.84852" lon="1.05063">
        <ele>64.4</ele>
        <time>2022-08-12T07:17:59Z</time>
      </trkpt>
      <trkpt lat="44.84849" lon="1.05068">
        <ele>65.4</ele>
        <time>2022-08-12T07:18:00Z</time>
      </trkpt>
      <trkpt lat="44.84846" lon="1.05073">
        <ele>65.4</ele>
        <time>2022-08-12T07:18:01Z</time>
      </trkpt>
      <trkpt lat="44.84843" lon="1.05079">
        <ele>65.4</ele>
        <time>2022-08-12T07:18:02Z</time>
      </trkpt>
      <trkpt lat="44.8484" lon="1.05084">
        <ele>65.4</ele>
        <time>2022-08-12T07:18:03Z</time>
      </trkpt>
      <trkpt lat="44.84834" lon="1.05094">
        <ele>64.4</ele>
        <time>2022-08-12T07:18:05Z</time>
      </trkpt>
      <trkpt lat="44.84831" lon="1.051">
        <ele>64.4</ele>
        <time>2022-08-12T07:18:06Z</time>
      </trkpt>
      <trkpt lat="44.84825" lon="1.05107">
        <ele>63.4</ele>
        <time>2022-08-12T07:18:08Z</time>
      </trkpt>
      <trkpt lat="44.84826" lon="1.05101">
        <ele>58.4</ele>
        <time>2022-08-12T07:18:20Z</time>
      </trkpt>
      <trkpt lat="44.84829" lon="1.05095">
        <ele>58.4</ele>
        <time>2022-08-12T07:18:24Z</time>
      </trkpt>
      <trkpt lat="44.84825" lon="1.05098">
        <ele>59.4</ele>
        <time>2022-08-12T07:18:50Z</time>
      </trkpt>
      <trkpt lat="44.84821" lon="1.05094">
        <ele>51.4</ele>
        <time>2022-08-12T07:24:18Z</time>
      </trkpt>
      <trkpt lat="44.84822" lon="1.051">
        <ele>49.4</ele>
        <time>2022-08-12T07:24:47Z</time>
      </trkpt>
      <trkpt lat="44.84822" lon="1.05108">
        <ele>50.4</ele>
        <time>2022-08-12T07:24:53Z</time>
      </trkpt>
      <trkpt lat="44.8482" lon="1.05114">
        <ele>54.4</ele>
        <time>2022-08-12T07:25:12Z</time>
      </trkpt>
      <trkpt lat="44.84822" lon="1.05108">
        <ele>54.4</ele>
        <time>2022-08-12T07:25:18Z</time>
      </trkpt>
      <trkpt lat="44.84816" lon="1.05113">
        <ele>54.4</ele>
        <time>2022-08-12T07:25:41Z</time>
      </trkpt>
      <trkpt lat="44.84811" lon="1.05121">
        <ele>56.4</ele>
        <time>2022-08-12T07:25:43Z</time>
      </trkpt>
      <trkpt lat="44.84807" lon="1.05129">
        <ele>56.4</ele>
        <time>2022-08-12T07:25:45Z</time>
      </trkpt>
      <trkpt lat="44.84802" lon="1.05139">
        <ele>57.4</ele>
        <time>2022-08-12T07:25:47Z</time>
      </trkpt>
      <trkpt lat="44.84798" lon="1.05147">
        <ele>59.4</ele>
        <time>2022-08-12T07:25:49Z</time>
      </trkpt>
      <trkpt lat="44.84794" lon="1.05157">
        <ele>60.4</ele>
        <time>2022-08-12T07:25:51Z</time>
      </trkpt>
      <trkpt lat="44.84789" lon="1.05167">
        <ele>60.4</ele>
        <time>2022-08-12T07:25:53Z</time>
      </trkpt>
      <trkpt lat="44.84785" lon="1.05177">
        <ele>60.4</ele>
        <time>2022-08-12T07:25:55Z</time>
      </trkpt>
      <trkpt lat="44.8478" lon="1.05186">
        <ele>60.4</ele>
        <time>2022-08-12T07:25:57Z</time>
      </trkpt>
      <trkpt lat="44.84774" lon="1.05194">
        <ele>60.4</ele>
        <time>2022-08-12T07:25:59Z</time>
      </trkpt>
      <trkpt lat="44.84771" lon="1.05202">
        <ele>60.4</ele>
        <time>2022-08-12T07:26:01Z</time>
      </trkpt>
      <trkpt lat="44.84766" lon="1.0521">
        <ele>59.4</ele>
        <time>2022-08-12T07:26:03Z</time>
      </trkpt>
      <trkpt lat="44.84762" lon="1.05216">
        <ele>59.4</ele>
        <time>2022-08-12T07:26:05Z</time>
      </trkpt>
      <trkpt lat="44.8476" lon="1.05223">
        <ele>59.4</ele>
        <time>2022-08-12T07:26:24Z</time>
      </trkpt>
      <trkpt lat="44.84756" lon="1.05226">
        <ele>59.4</ele>
        <time>2022-08-12T07:26:27Z</time>
      </trkpt>
      <trkpt lat="44.84752" lon="1.05233">
        <ele>58.4</ele>
        <time>2022-08-12T07:26:30Z</time>
      </trkpt>
      <trkpt lat="44.84747" lon="1.05239">
        <ele>59.4</ele>
        <time>2022-08-12T07:26:32Z</time>
      </trkpt>
      <trkpt lat="44.84742" lon="1.05244">
        <ele>59.4</ele>
        <time>2022-08-12T07:26:34Z</time>
      </trkpt>
      <trkpt lat="44.84739" lon="1.0525">
        <ele>58.4</ele>
        <time>2022-08-12T07:26:36Z</time>
      </trkpt>
      <trkpt lat="44.84734" lon="1.05258">
        <ele>57.4</ele>
        <time>2022-08-12T07:26:38Z</time>
      </trkpt>
      <trkpt lat="44.84728" lon="1.05268">
        <ele>55.4</ele>
        <time>2022-08-12T07:26:40Z</time>
      </trkpt>
      <trkpt lat="44.84723" lon="1.05278">
        <ele>54.4</ele>
        <time>2022-08-12T07:26:42Z</time>
      </trkpt>
      <trkpt lat="44.84719" lon="1.05288">
        <ele>55.4</ele>
        <time>2022-08-12T07:26:44Z</time>
      </trkpt>
      <trkpt lat="44.84714" lon="1.05298">
        <ele>56.4</ele>
        <time>2022-08-12T07:26:46Z</time>
      </trkpt>
      <trkpt lat="44.8471" lon="1.05309">
        <ele>56.4</ele>
        <time>2022-08-12T07:26:48Z</time>
      </trkpt>
      <trkpt lat="44.84706" lon="1.05314">
        <ele>57.4</ele>
        <time>2022-08-12T07:26:49Z</time>
      </trkpt>
      <trkpt lat="44.847" lon="1.05322">
        <ele>57.4</ele>
        <time>2022-08-12T07:26:51Z</time>
      </trkpt>
      <trkpt lat="44.84697" lon="1.05327">
        <ele>56.4</ele>
        <time>2022-08-12T07:26:52Z</time>
      </trkpt>
      <trkpt lat="44.84693" lon="1.05331">
        <ele>55.4</ele>
        <time>2022-08-12T07:26:53Z</time>
      </trkpt>
      <trkpt lat="44.84689" lon="1.05335">
        <ele>55.4</ele>
        <time>2022-08-12T07:26:54Z</time>
      </trkpt>
      <trkpt lat="44.84684" lon="1.05342">
        <ele>55.4</ele>
        <time>2022-08-12T07:26:56Z</time>
      </trkpt>
      <trkpt lat="44.84679" lon="1.05347">
        <ele>55.4</ele>
        <time>2022-08-12T07:26:58Z</time>
      </trkpt>
      <trkpt lat="44.84674" lon="1.05353">
        <ele>55.4</ele>
        <time>2022-08-12T07:27:00Z</time>
      </trkpt>
      <trkpt lat="44.8467" lon="1.05359">
        <ele>55.4</ele>
        <time>2022-08-12T07:27:02Z</time>
      </trkpt>
      <trkpt lat="44.84665" lon="1.05365">
        <ele>54.4</ele>
        <time>2022-08-12T07:27:04Z</time>
      </trkpt>
      <trkpt lat="44.8466" lon="1.05371">
        <ele>54.4</ele>
        <time>2022-08-12T07:27:06Z</time>
      </trkpt>
      <trkpt lat="44.84654" lon="1.05376">
        <ele>53.4</ele>
        <time>2022-08-12T07:27:08Z</time>
      </trkpt>
      <trkpt lat="44.84649" lon="1.05381">
        <ele>53.4</ele>
        <time>2022-08-12T07:27:10Z</time>
      </trkpt>
      <trkpt lat="44.84643" lon="1.05385">
        <ele>52.4</ele>
        <time>2022-08-12T07:27:12Z</time>
      </trkpt>
      <trkpt lat="44.84636" lon="1.0539">
        <ele>51.4</ele>
        <time>2022-08-12T07:27:14Z</time>
      </trkpt>
      <trkpt lat="44.84625" lon="1.05397">
        <ele>50.4</ele>
        <time>2022-08-12T07:27:17Z</time>
      </trkpt>
      <trkpt lat="44.84622" lon="1.05406">
        <ele>50.4</ele>
        <time>2022-08-12T07:27:19Z</time>
      </trkpt>
      <trkpt lat="44.8462" lon="1.05412">
        <ele>49.4</ele>
        <time>2022-08-12T07:27:20Z</time>
      </trkpt>
      <trkpt lat="44.84617" lon="1.05418">
        <ele>49.4</ele>
        <time>2022-08-12T07:27:21Z</time>
      </trkpt>
      <trkpt lat="44.84614" lon="1.05423">
        <ele>49.4</ele>
        <time>2022-08-12T07:27:22Z</time>
      </trkpt>
      <trkpt lat="44.84611" lon="1.05429">
        <ele>49.4</ele>
        <time>2022-08-12T07:27:23Z</time>
      </trkpt>
      <trkpt lat="44.84608" lon="1.05434">
        <ele>49.4</ele>
        <time>2022-08-12T07:27:24Z</time>
      </trkpt>
      <trkpt lat="44.84604" lon="1.05441">
        <ele>50.4</ele>
        <time>2022-08-12T07:27:25Z</time>
      </trkpt>
      <trkpt lat="44.846" lon="1.05449">
        <ele>51.4</ele>
        <time>2022-08-12T07:27:26Z</time>
      </trkpt>
      <trkpt lat="44.84597" lon="1.05456">
        <ele>53.4</ele>
        <time>2022-08-12T07:27:27Z</time>
      </trkpt>
      <trkpt lat="44.84593" lon="1.05463">
        <ele>55.4</ele>
        <time>2022-08-12T07:27:28Z</time>
      </trkpt>
      <trkpt lat="44.8459" lon="1.05467">
        <ele>56.4</ele>
        <time>2022-08-12T07:27:29Z</time>
      </trkpt>
      <trkpt lat="44.84583" lon="1.05475">
        <ele>56.4</ele>
        <time>2022-08-12T07:27:31Z</time>
      </trkpt>
      <trkpt lat="44.84577" lon="1.05483">
        <ele>59.4</ele>
        <time>2022-08-12T07:27:33Z</time>
      </trkpt>
      <trkpt lat="44.84571" lon="1.05488">
        <ele>60.4</ele>
        <time>2022-08-12T07:27:35Z</time>
      </trkpt>
      <trkpt lat="44.84565" lon="1.05487">
        <ele>60.4</ele>
        <time>2022-08-12T07:27:37Z</time>
      </trkpt>
      <trkpt lat="44.8456" lon="1.05485">
        <ele>61.4</ele>
        <time>2022-08-12T07:27:39Z</time>
      </trkpt>
      <trkpt lat="44.84553" lon="1.05479">
        <ele>61.4</ele>
        <time>2022-08-12T07:27:42Z</time>
      </trkpt>
      <trkpt lat="44.84549" lon="1.05476">
        <ele>61.4</ele>
        <time>2022-08-12T07:27:44Z</time>
      </trkpt>
      <trkpt lat="44.84544" lon="1.05473">
        <ele>61.4</ele>
        <time>2022-08-12T07:27:46Z</time>
      </trkpt>
      <trkpt lat="44.84538" lon="1.0547">
        <ele>61.4</ele>
        <time>2022-08-12T07:27:49Z</time>
      </trkpt>
      <trkpt lat="44.84534" lon="1.05468">
        <ele>62.4</ele>
        <time>2022-08-12T07:27:51Z</time>
      </trkpt>
      <trkpt lat="44.84529" lon="1.05467">
        <ele>62.4</ele>
        <time>2022-08-12T07:27:53Z</time>
      </trkpt>
      <trkpt lat="44.84523" lon="1.05467">
        <ele>63.4</ele>
        <time>2022-08-12T07:27:56Z</time>
      </trkpt>
      <trkpt lat="44.84518" lon="1.05468">
        <ele>63.4</ele>
        <time>2022-08-12T07:27:59Z</time>
      </trkpt>
      <trkpt lat="44.84521" lon="1.05475">
        <ele>63.4</ele>
        <time>2022-08-12T07:28:03Z</time>
      </trkpt>
      <trkpt lat="44.8452" lon="1.05488">
        <ele>63.4</ele>
        <time>2022-08-12T07:28:07Z</time>
      </trkpt>
      <trkpt lat="44.84518" lon="1.05496">
        <ele>63.4</ele>
        <time>2022-08-12T07:28:09Z</time>
      </trkpt>
      <trkpt lat="44.84515" lon="1.0551">
        <ele>62.4</ele>
        <time>2022-08-12T07:28:12Z</time>
      </trkpt>
      <trkpt lat="44.84513" lon="1.05519">
        <ele>61.4</ele>
        <time>2022-08-12T07:28:14Z</time>
      </trkpt>
      <trkpt lat="44.84509" lon="1.05529">
        <ele>60.4</ele>
        <time>2022-08-12T07:28:16Z</time>
      </trkpt>
      <trkpt lat="44.84505" lon="1.05537">
        <ele>59.4</ele>
        <time>2022-08-12T07:28:18Z</time>
      </trkpt>
      <trkpt lat="44.84501" lon="1.05544">
        <ele>57.4</ele>
        <time>2022-08-12T07:28:20Z</time>
      </trkpt>
      <trkpt lat="44.84497" lon="1.05551">
        <ele>57.4</ele>
        <time>2022-08-12T07:28:22Z</time>
      </trkpt>
      <trkpt lat="44.84493" lon="1.05554">
        <ele>56.4</ele>
        <time>2022-08-12T07:28:24Z</time>
      </trkpt>
      <trkpt lat="44.84489" lon="1.0556">
        <ele>56.4</ele>
        <time>2022-08-12T07:28:26Z</time>
      </trkpt>
      <trkpt lat="44.84486" lon="1.05565">
        <ele>55.4</ele>
        <time>2022-08-12T07:28:28Z</time>
      </trkpt>
      <trkpt lat="44.84482" lon="1.0557">
        <ele>54.4</ele>
        <time>2022-08-12T07:28:31Z</time>
      </trkpt>
      <trkpt lat="44.84479" lon="1.05575">
        <ele>54.4</ele>
        <time>2022-08-12T07:28:33Z</time>
      </trkpt>
      <trkpt lat="44.84477" lon="1.05581">
        <ele>54.4</ele>
        <time>2022-08-12T07:28:35Z</time>
      </trkpt>
      <trkpt lat="44.84478" lon="1.05574">
        <ele>62.4</ele>
        <time>2022-08-12T07:28:58Z</time>
      </trkpt>
      <trkpt lat="44.84481" lon="1.05567">
        <ele>64.4</ele>
        <time>2022-08-12T07:29:06Z</time>
      </trkpt>
      <trkpt lat="44.84485" lon="1.05562">
        <ele>62.4</ele>
        <time>2022-08-12T07:29:09Z</time>
      </trkpt>
      <trkpt lat="44.84489" lon="1.05557">
        <ele>63.4</ele>
        <time>2022-08-12T07:29:11Z</time>
      </trkpt>
      <trkpt lat="44.84493" lon="1.0555">
        <ele>61.4</ele>
        <time>2022-08-12T07:29:14Z</time>
      </trkpt>
      <trkpt lat="44.84497" lon="1.05539">
        <ele>60.4</ele>
        <time>2022-08-12T07:29:17Z</time>
      </trkpt>
      <trkpt lat="44.845" lon="1.05534">
        <ele>61.4</ele>
        <time>2022-08-12T07:29:19Z</time>
      </trkpt>
      <trkpt lat="44.84504" lon="1.05524">
        <ele>59.4</ele>
        <time>2022-08-12T07:29:22Z</time>
      </trkpt>
      <trkpt lat="44.84506" lon="1.05517">
        <ele>59.4</ele>
        <time>2022-08-12T07:29:24Z</time>
      </trkpt>
      <trkpt lat="44.84508" lon="1.0551">
        <ele>58.4</ele>
        <time>2022-08-12T07:29:26Z</time>
      </trkpt>
      <trkpt lat="44.84511" lon="1.05504">
        <ele>58.4</ele>
        <time>2022-08-12T07:29:28Z</time>
      </trkpt>
      <trkpt lat="44.84514" lon="1.05497">
        <ele>58.4</ele>
        <time>2022-08-12T07:29:30Z</time>
      </trkpt>
      <trkpt lat="44.84517" lon="1.05491">
        <ele>58.4</ele>
        <time>2022-08-12T07:29:32Z</time>
      </trkpt>
      <trkpt lat="44.8452" lon="1.05484">
        <ele>59.4</ele>
        <time>2022-08-12T07:29:34Z</time>
      </trkpt>
      <trkpt lat="44.84521" lon="1.05475">
        <ele>59.4</ele>
        <time>2022-08-12T07:29:36Z</time>
      </trkpt>
      <trkpt lat="44.84517" lon="1.0547">
        <ele>60.4</ele>
        <time>2022-08-12T07:29:39Z</time>
      </trkpt>
      <trkpt lat="44.84513" lon="1.05467">
        <ele>62.4</ele>
        <time>2022-08-12T07:29:42Z</time>
      </trkpt>
      <trkpt lat="44.84508" lon="1.05463">
        <ele>62.4</ele>
        <time>2022-08-12T07:29:45Z</time>
      </trkpt>
      <trkpt lat="44.84504" lon="1.0546">
        <ele>62.4</ele>
        <time>2022-08-12T07:29:48Z</time>
      </trkpt>
      <trkpt lat="44.84498" lon="1.05457">
        <ele>62.4</ele>
        <time>2022-08-12T07:29:52Z</time>
      </trkpt>
      <trkpt lat="44.84494" lon="1.05456">
        <ele>62.4</ele>
        <time>2022-08-12T07:29:55Z</time>
      </trkpt>
      <trkpt lat="44.84488" lon="1.05454">
        <ele>63.4</ele>
        <time>2022-08-12T07:29:59Z</time>
      </trkpt>
      <trkpt lat="44.84483" lon="1.05452">
        <ele>64.4</ele>
        <time>2022-08-12T07:30:02Z</time>
      </trkpt>
      <trkpt lat="44.84477" lon="1.0545">
        <ele>65.4</ele>
        <time>2022-08-12T07:30:05Z</time>
      </trkpt>
      <trkpt lat="44.84471" lon="1.05448">
        <ele>66.4</ele>
        <time>2022-08-12T07:30:08Z</time>
      </trkpt>
      <trkpt lat="44.84465" lon="1.05445">
        <ele>66.4</ele>
        <time>2022-08-12T07:30:11Z</time>
      </trkpt>
      <trkpt lat="44.8446" lon="1.05445">
        <ele>68.4</ele>
        <time>2022-08-12T07:30:14Z</time>
      </trkpt>
      <trkpt lat="44.84454" lon="1.05446">
        <ele>69.4</ele>
        <time>2022-08-12T07:30:18Z</time>
      </trkpt>
      <trkpt lat="44.8445" lon="1.05446">
        <ele>70.4</ele>
        <time>2022-08-12T07:30:21Z</time>
      </trkpt>
      <trkpt lat="44.84445" lon="1.05444">
        <ele>71.4</ele>
        <time>2022-08-12T07:30:25Z</time>
      </trkpt>
      <trkpt lat="44.8444" lon="1.05445">
        <ele>71.4</ele>
        <time>2022-08-12T07:30:29Z</time>
      </trkpt>
      <trkpt lat="44.84435" lon="1.05446">
        <ele>72.4</ele>
        <time>2022-08-12T07:30:33Z</time>
      </trkpt>
      <trkpt lat="44.84429" lon="1.05446">
        <ele>74.4</ele>
        <time>2022-08-12T07:30:37Z</time>
      </trkpt>
      <trkpt lat="44.84424" lon="1.05444">
        <ele>75.4</ele>
        <time>2022-08-12T07:30:40Z</time>
      </trkpt>
      <trkpt lat="44.84419" lon="1.05443">
        <ele>75.4</ele>
        <time>2022-08-12T07:30:44Z</time>
      </trkpt>
      <trkpt lat="44.84414" lon="1.05442">
        <ele>76.4</ele>
        <time>2022-08-12T07:30:48Z</time>
      </trkpt>
      <trkpt lat="44.84409" lon="1.0544">
        <ele>76.4</ele>
        <time>2022-08-12T07:30:51Z</time>
      </trkpt>
      <trkpt lat="44.84404" lon="1.05437">
        <ele>77.4</ele>
        <time>2022-08-12T07:30:54Z</time>
      </trkpt>
      <trkpt lat="44.84397" lon="1.05435">
        <ele>78.4</ele>
        <time>2022-08-12T07:30:57Z</time>
      </trkpt>
      <trkpt lat="44.84391" lon="1.05435">
        <ele>78.4</ele>
        <time>2022-08-12T07:31:00Z</time>
      </trkpt>
      <trkpt lat="44.84385" lon="1.05434">
        <ele>78.4</ele>
        <time>2022-08-12T07:31:02Z</time>
      </trkpt>
      <trkpt lat="44.8438" lon="1.05433">
        <ele>78.4</ele>
        <time>2022-08-12T07:31:04Z</time>
      </trkpt>
      <trkpt lat="44.84372" lon="1.05432">
        <ele>78.4</ele>
        <time>2022-08-12T07:31:07Z</time>
      </trkpt>
      <trkpt lat="44.84366" lon="1.05431">
        <ele>78.4</ele>
        <time>2022-08-12T07:31:09Z</time>
      </trkpt>
      <trkpt lat="44.84361" lon="1.05429">
        <ele>78.4</ele>
        <time>2022-08-12T07:31:11Z</time>
      </trkpt>
      <trkpt lat="44.84356" lon="1.05425">
        <ele>78.4</ele>
        <time>2022-08-12T07:31:13Z</time>
      </trkpt>
      <trkpt lat="44.8435" lon="1.05422">
        <ele>78.4</ele>
        <time>2022-08-12T07:31:15Z</time>
      </trkpt>
      <trkpt lat="44.84345" lon="1.05417">
        <ele>80.4</ele>
        <time>2022-08-12T07:31:17Z</time>
      </trkpt>
      <trkpt lat="44.8434" lon="1.05414">
        <ele>79.4</ele>
        <time>2022-08-12T07:31:19Z</time>
      </trkpt>
      <trkpt lat="44.84336" lon="1.05412">
        <ele>79.4</ele>
        <time>2022-08-12T07:31:21Z</time>
      </trkpt>
      <trkpt lat="44.84331" lon="1.05409">
        <ele>80.4</ele>
        <time>2022-08-12T07:31:23Z</time>
      </trkpt>
      <trkpt lat="44.84326" lon="1.05406">
        <ele>80.4</ele>
        <time>2022-08-12T07:31:25Z</time>
      </trkpt>
      <trkpt lat="44.8432" lon="1.05403">
        <ele>80.4</ele>
        <time>2022-08-12T07:31:27Z</time>
      </trkpt>
      <trkpt lat="44.84315" lon="1.054">
        <ele>80.4</ele>
        <time>2022-08-12T07:31:29Z</time>
      </trkpt>
      <trkpt lat="44.8431" lon="1.05396">
        <ele>81.4</ele>
        <time>2022-08-12T07:31:31Z</time>
      </trkpt>
      <trkpt lat="44.84305" lon="1.05393">
        <ele>80.4</ele>
        <time>2022-08-12T07:31:33Z</time>
      </trkpt>
      <trkpt lat="44.84301" lon="1.0539">
        <ele>81.4</ele>
        <time>2022-08-12T07:31:35Z</time>
      </trkpt>
      <trkpt lat="44.84296" lon="1.05386">
        <ele>82.4</ele>
        <time>2022-08-12T07:31:37Z</time>
      </trkpt>
      <trkpt lat="44.84291" lon="1.05384">
        <ele>83.4</ele>
        <time>2022-08-12T07:31:39Z</time>
      </trkpt>
      <trkpt lat="44.84286" lon="1.05381">
        <ele>84.4</ele>
        <time>2022-08-12T07:31:41Z</time>
      </trkpt>
      <trkpt lat="44.8428" lon="1.05378">
        <ele>84.4</ele>
        <time>2022-08-12T07:31:43Z</time>
      </trkpt>
      <trkpt lat="44.84276" lon="1.05375">
        <ele>84.4</ele>
        <time>2022-08-12T07:31:45Z</time>
      </trkpt>
      <trkpt lat="44.84271" lon="1.05373">
        <ele>84.4</ele>
        <time>2022-08-12T07:31:47Z</time>
      </trkpt>
      <trkpt lat="44.84266" lon="1.0537">
        <ele>84.4</ele>
        <time>2022-08-12T07:31:49Z</time>
      </trkpt>
      <trkpt lat="44.84261" lon="1.05368">
        <ele>84.4</ele>
        <time>2022-08-12T07:31:51Z</time>
      </trkpt>
      <trkpt lat="44.84256" lon="1.05367">
        <ele>84.4</ele>
        <time>2022-08-12T07:31:53Z</time>
      </trkpt>
      <trkpt lat="44.84251" lon="1.05365">
        <ele>84.4</ele>
        <time>2022-08-12T07:31:55Z</time>
      </trkpt>
      <trkpt lat="44.84246" lon="1.05364">
        <ele>84.4</ele>
        <time>2022-08-12T07:31:57Z</time>
      </trkpt>
      <trkpt lat="44.84241" lon="1.05363">
        <ele>85.4</ele>
        <time>2022-08-12T07:31:59Z</time>
      </trkpt>
      <trkpt lat="44.84236" lon="1.05361">
        <ele>86.4</ele>
        <time>2022-08-12T07:32:01Z</time>
      </trkpt>
      <trkpt lat="44.8423" lon="1.05359">
        <ele>86.4</ele>
        <time>2022-08-12T07:32:03Z</time>
      </trkpt>
      <trkpt lat="44.84224" lon="1.05358">
        <ele>86.4</ele>
        <time>2022-08-12T07:32:05Z</time>
      </trkpt>
      <trkpt lat="44.84219" lon="1.05356">
        <ele>87.4</ele>
        <time>2022-08-12T07:32:07Z</time>
      </trkpt>
      <trkpt lat="44.84214" lon="1.05354">
        <ele>87.4</ele>
        <time>2022-08-12T07:32:09Z</time>
      </trkpt>
      <trkpt lat="44.84206" lon="1.05354">
        <ele>87.4</ele>
        <time>2022-08-12T07:32:12Z</time>
      </trkpt>
      <trkpt lat="44.84198" lon="1.05354">
        <ele>87.4</ele>
        <time>2022-08-12T07:32:14Z</time>
      </trkpt>
      <trkpt lat="44.84189" lon="1.05354">
        <ele>88.4</ele>
        <time>2022-08-12T07:32:17Z</time>
      </trkpt>
      <trkpt lat="44.84183" lon="1.05355">
        <ele>89.4</ele>
        <time>2022-08-12T07:32:19Z</time>
      </trkpt>
      <trkpt lat="44.84178" lon="1.05356">
        <ele>90.4</ele>
        <time>2022-08-12T07:32:21Z</time>
      </trkpt>
      <trkpt lat="44.84172" lon="1.05356">
        <ele>91.4</ele>
        <time>2022-08-12T07:32:23Z</time>
      </trkpt>
      <trkpt lat="44.84166" lon="1.05357">
        <ele>91.4</ele>
        <time>2022-08-12T07:32:25Z</time>
      </trkpt>
      <trkpt lat="44.84161" lon="1.05357">
        <ele>92.4</ele>
        <time>2022-08-12T07:32:27Z</time>
      </trkpt>
      <trkpt lat="44.84155" lon="1.05358">
        <ele>92.4</ele>
        <time>2022-08-12T07:32:29Z</time>
      </trkpt>
      <trkpt lat="44.84149" lon="1.05361">
        <ele>92.4</ele>
        <time>2022-08-12T07:32:31Z</time>
      </trkpt>
      <trkpt lat="44.84145" lon="1.05363">
        <ele>92.4</ele>
        <time>2022-08-12T07:32:33Z</time>
      </trkpt>
      <trkpt lat="44.8414" lon="1.05365">
        <ele>93.4</ele>
        <time>2022-08-12T07:32:35Z</time>
      </trkpt>
      <trkpt lat="44.84134" lon="1.05368">
        <ele>93.4</ele>
        <time>2022-08-12T07:32:38Z</time>
      </trkpt>
      <trkpt lat="44.84129" lon="1.0537">
        <ele>93.4</ele>
        <time>2022-08-12T07:32:40Z</time>
      </trkpt>
      <trkpt lat="44.84124" lon="1.05374">
        <ele>92.4</ele>
        <time>2022-08-12T07:32:43Z</time>
      </trkpt>
      <trkpt lat="44.8412" lon="1.05378">
        <ele>92.4</ele>
        <time>2022-08-12T07:32:45Z</time>
      </trkpt>
      <trkpt lat="44.84116" lon="1.0538">
        <ele>92.4</ele>
        <time>2022-08-12T07:32:47Z</time>
      </trkpt>
      <trkpt lat="44.84111" lon="1.05381">
        <ele>92.4</ele>
        <time>2022-08-12T07:32:49Z</time>
      </trkpt>
      <trkpt lat="44.84105" lon="1.05384">
        <ele>93.4</ele>
        <time>2022-08-12T07:32:52Z</time>
      </trkpt>
      <trkpt lat="44.841" lon="1.05388">
        <ele>92.4</ele>
        <time>2022-08-12T07:32:55Z</time>
      </trkpt>
      <trkpt lat="44.84094" lon="1.05392">
        <ele>93.4</ele>
        <time>2022-08-12T07:32:58Z</time>
      </trkpt>
      <trkpt lat="44.8409" lon="1.05396">
        <ele>92.4</ele>
        <time>2022-08-12T07:33:00Z</time>
      </trkpt>
      <trkpt lat="44.84085" lon="1.05399">
        <ele>92.4</ele>
        <time>2022-08-12T07:33:02Z</time>
      </trkpt>
      <trkpt lat="44.84081" lon="1.05402">
        <ele>91.4</ele>
        <time>2022-08-12T07:33:04Z</time>
      </trkpt>
      <trkpt lat="44.84075" lon="1.05406">
        <ele>91.4</ele>
        <time>2022-08-12T07:33:06Z</time>
      </trkpt>
      <trkpt lat="44.84069" lon="1.05411">
        <ele>90.4</ele>
        <time>2022-08-12T07:33:08Z</time>
      </trkpt>
      <trkpt lat="44.84063" lon="1.05416">
        <ele>91.4</ele>
        <time>2022-08-12T07:33:10Z</time>
      </trkpt>
      <trkpt lat="44.84056" lon="1.05421">
        <ele>92.4</ele>
        <time>2022-08-12T07:33:12Z</time>
      </trkpt>
      <trkpt lat="44.8405" lon="1.05427">
        <ele>92.4</ele>
        <time>2022-08-12T07:33:14Z</time>
      </trkpt>
      <trkpt lat="44.84041" lon="1.05436">
        <ele>93.4</ele>
        <time>2022-08-12T07:33:17Z</time>
      </trkpt>
      <trkpt lat="44.84036" lon="1.05442">
        <ele>94.4</ele>
        <time>2022-08-12T07:33:19Z</time>
      </trkpt>
      <trkpt lat="44.84032" lon="1.05449">
        <ele>95.4</ele>
        <time>2022-08-12T07:33:21Z</time>
      </trkpt>
      <trkpt lat="44.84028" lon="1.05456">
        <ele>96.4</ele>
        <time>2022-08-12T07:33:23Z</time>
      </trkpt>
      <trkpt lat="44.84026" lon="1.05462">
        <ele>97.4</ele>
        <time>2022-08-12T07:33:25Z</time>
      </trkpt>
      <trkpt lat="44.84022" lon="1.05469">
        <ele>98.4</ele>
        <time>2022-08-12T07:33:27Z</time>
      </trkpt>
      <trkpt lat="44.84018" lon="1.05474">
        <ele>99.4</ele>
        <time>2022-08-12T07:33:29Z</time>
      </trkpt>
      <trkpt lat="44.84014" lon="1.0548">
        <ele>99.4</ele>
        <time>2022-08-12T07:33:31Z</time>
      </trkpt>
      <trkpt lat="44.84011" lon="1.05485">
        <ele>99.4</ele>
        <time>2022-08-12T07:33:33Z</time>
      </trkpt>
      <trkpt lat="44.84007" lon="1.05492">
        <ele>98.4</ele>
        <time>2022-08-12T07:33:35Z</time>
      </trkpt>
      <trkpt lat="44.84003" lon="1.05498">
        <ele>97.4</ele>
        <time>2022-08-12T07:33:37Z</time>
      </trkpt>
      <trkpt lat="44.83999" lon="1.05503">
        <ele>96.4</ele>
        <time>2022-08-12T07:33:39Z</time>
      </trkpt>
      <trkpt lat="44.83997" lon="1.05509">
        <ele>96.4</ele>
        <time>2022-08-12T07:33:41Z</time>
      </trkpt>
      <trkpt lat="44.83993" lon="1.05514">
        <ele>96.4</ele>
        <time>2022-08-12T07:33:44Z</time>
      </trkpt>
      <trkpt lat="44.8399" lon="1.0552">
        <ele>97.4</ele>
        <time>2022-08-12T07:33:46Z</time>
      </trkpt>
      <trkpt lat="44.83985" lon="1.05527">
        <ele>97.4</ele>
        <time>2022-08-12T07:33:49Z</time>
      </trkpt>
      <trkpt lat="44.83982" lon="1.05533">
        <ele>98.4</ele>
        <time>2022-08-12T07:33:51Z</time>
      </trkpt>
      <trkpt lat="44.83979" lon="1.05539">
        <ele>98.4</ele>
        <time>2022-08-12T07:33:53Z</time>
      </trkpt>
      <trkpt lat="44.83976" lon="1.05547">
        <ele>99.4</ele>
        <time>2022-08-12T07:33:56Z</time>
      </trkpt>
      <trkpt lat="44.83971" lon="1.05553">
        <ele>99.4</ele>
        <time>2022-08-12T07:33:59Z</time>
      </trkpt>
      <trkpt lat="44.83967" lon="1.0556">
        <ele>101.4</ele>
        <time>2022-08-12T07:34:02Z</time>
      </trkpt>
      <trkpt lat="44.83964" lon="1.05565">
        <ele>99.4</ele>
        <time>2022-08-12T07:34:04Z</time>
      </trkpt>
      <trkpt lat="44.83958" lon="1.05571">
        <ele>99.4</ele>
        <time>2022-08-12T07:34:07Z</time>
      </trkpt>
      <trkpt lat="44.83954" lon="1.05578">
        <ele>99.4</ele>
        <time>2022-08-12T07:34:10Z</time>
      </trkpt>
      <trkpt lat="44.8395" lon="1.05584">
        <ele>99.4</ele>
        <time>2022-08-12T07:34:13Z</time>
      </trkpt>
      <trkpt lat="44.83945" lon="1.05589">
        <ele>98.4</ele>
        <time>2022-08-12T07:34:16Z</time>
      </trkpt>
      <trkpt lat="44.83939" lon="1.05593">
        <ele>97.4</ele>
        <time>2022-08-12T07:34:19Z</time>
      </trkpt>
      <trkpt lat="44.83934" lon="1.05593">
        <ele>96.4</ele>
        <time>2022-08-12T07:34:21Z</time>
      </trkpt>
      <trkpt lat="44.83929" lon="1.05594">
        <ele>96.4</ele>
        <time>2022-08-12T07:34:23Z</time>
      </trkpt>
      <trkpt lat="44.83923" lon="1.05594">
        <ele>96.4</ele>
        <time>2022-08-12T07:34:25Z</time>
      </trkpt>
      <trkpt lat="44.83918" lon="1.05596">
        <ele>97.4</ele>
        <time>2022-08-12T07:34:27Z</time>
      </trkpt>
      <trkpt lat="44.83912" lon="1.05598">
        <ele>97.4</ele>
        <time>2022-08-12T07:34:29Z</time>
      </trkpt>
      <trkpt lat="44.83907" lon="1.056">
        <ele>97.4</ele>
        <time>2022-08-12T07:34:31Z</time>
      </trkpt>
      <trkpt lat="44.83901" lon="1.05602">
        <ele>98.4</ele>
        <time>2022-08-12T07:34:33Z</time>
      </trkpt>
      <trkpt lat="44.83895" lon="1.05605">
        <ele>99.4</ele>
        <time>2022-08-12T07:34:35Z</time>
      </trkpt>
      <trkpt lat="44.8389" lon="1.05607">
        <ele>100.4</ele>
        <time>2022-08-12T07:34:37Z</time>
      </trkpt>
      <trkpt lat="44.83885" lon="1.05611">
        <ele>101.4</ele>
        <time>2022-08-12T07:34:39Z</time>
      </trkpt>
      <trkpt lat="44.83881" lon="1.05614">
        <ele>102.4</ele>
        <time>2022-08-12T07:34:41Z</time>
      </trkpt>
      <trkpt lat="44.83876" lon="1.05616">
        <ele>103.4</ele>
        <time>2022-08-12T07:34:43Z</time>
      </trkpt>
      <trkpt lat="44.83872" lon="1.05619">
        <ele>104.4</ele>
        <time>2022-08-12T07:34:45Z</time>
      </trkpt>
      <trkpt lat="44.83868" lon="1.05622">
        <ele>106.4</ele>
        <time>2022-08-12T07:34:48Z</time>
      </trkpt>
      <trkpt lat="44.83863" lon="1.05625">
        <ele>108.4</ele>
        <time>2022-08-12T07:34:51Z</time>
      </trkpt>
      <trkpt lat="44.83858" lon="1.05628">
        <ele>109.4</ele>
        <time>2022-08-12T07:34:54Z</time>
      </trkpt>
      <trkpt lat="44.83854" lon="1.05631">
        <ele>110.4</ele>
        <time>2022-08-12T07:34:56Z</time>
      </trkpt>
      <trkpt lat="44.83848" lon="1.05635">
        <ele>110.4</ele>
        <time>2022-08-12T07:34:59Z</time>
      </trkpt>
      <trkpt lat="44.83843" lon="1.05637">
        <ele>111.4</ele>
        <time>2022-08-12T07:35:02Z</time>
      </trkpt>
      <trkpt lat="44.83838" lon="1.05642">
        <ele>111.4</ele>
        <time>2022-08-12T07:35:05Z</time>
      </trkpt>
      <trkpt lat="44.83834" lon="1.05647">
        <ele>112.4</ele>
        <time>2022-08-12T07:35:08Z</time>
      </trkpt>
      <trkpt lat="44.83829" lon="1.0565">
        <ele>113.4</ele>
        <time>2022-08-12T07:35:11Z</time>
      </trkpt>
      <trkpt lat="44.83823" lon="1.05652">
        <ele>113.4</ele>
        <time>2022-08-12T07:35:14Z</time>
      </trkpt>
      <trkpt lat="44.83819" lon="1.05655">
        <ele>114.4</ele>
        <time>2022-08-12T07:35:16Z</time>
      </trkpt>
      <trkpt lat="44.83814" lon="1.05659">
        <ele>115.4</ele>
        <time>2022-08-12T07:35:19Z</time>
      </trkpt>
      <trkpt lat="44.8381" lon="1.05664">
        <ele>115.4</ele>
        <time>2022-08-12T07:35:23Z</time>
      </trkpt>
      <trkpt lat="44.83808" lon="1.05669">
        <ele>124.4</ele>
        <time>2022-08-12T07:36:22Z</time>
      </trkpt>
      <trkpt lat="44.83804" lon="1.05674">
        <ele>122.4</ele>
        <time>2022-08-12T07:36:32Z</time>
      </trkpt>
      <trkpt lat="44.838" lon="1.05677">
        <ele>117.4</ele>
        <time>2022-08-12T07:36:47Z</time>
      </trkpt>
      <trkpt lat="44.83796" lon="1.05681">
        <ele>116.4</ele>
        <time>2022-08-12T07:36:50Z</time>
      </trkpt>
      <trkpt lat="44.83791" lon="1.05686">
        <ele>114.4</ele>
        <time>2022-08-12T07:36:53Z</time>
      </trkpt>
      <trkpt lat="44.83787" lon="1.05697">
        <ele>112.4</ele>
        <time>2022-08-12T07:36:57Z</time>
      </trkpt>
      <trkpt lat="44.83782" lon="1.057">
        <ele>112.4</ele>
        <time>2022-08-12T07:37:00Z</time>
      </trkpt>
      <trkpt lat="44.83778" lon="1.05704">
        <ele>113.4</ele>
        <time>2022-08-12T07:37:03Z</time>
      </trkpt>
      <trkpt lat="44.83774" lon="1.0571">
        <ele>112.4</ele>
        <time>2022-08-12T07:37:06Z</time>
      </trkpt>
      <trkpt lat="44.8377" lon="1.05716">
        <ele>112.4</ele>
        <time>2022-08-12T07:37:09Z</time>
      </trkpt>
      <trkpt lat="44.83766" lon="1.05722">
        <ele>112.4</ele>
        <time>2022-08-12T07:37:12Z</time>
      </trkpt>
      <trkpt lat="44.83762" lon="1.05726">
        <ele>112.4</ele>
        <time>2022-08-12T07:37:14Z</time>
      </trkpt>
      <trkpt lat="44.83758" lon="1.05734">
        <ele>112.4</ele>
        <time>2022-08-12T07:37:17Z</time>
      </trkpt>
      <trkpt lat="44.83755" lon="1.05739">
        <ele>113.4</ele>
        <time>2022-08-12T07:37:20Z</time>
      </trkpt>
      <trkpt lat="44.8375" lon="1.05742">
        <ele>114.4</ele>
        <time>2022-08-12T07:37:23Z</time>
      </trkpt>
      <trkpt lat="44.83746" lon="1.05747">
        <ele>113.4</ele>
        <time>2022-08-12T07:37:26Z</time>
      </trkpt>
      <trkpt lat="44.83742" lon="1.05751">
        <ele>114.4</ele>
        <time>2022-08-12T07:37:28Z</time>
      </trkpt>
      <trkpt lat="44.83738" lon="1.05756">
        <ele>116.4</ele>
        <time>2022-08-12T07:37:31Z</time>
      </trkpt>
      <trkpt lat="44.83734" lon="1.05759">
        <ele>117.4</ele>
        <time>2022-08-12T07:37:34Z</time>
      </trkpt>
      <trkpt lat="44.8373" lon="1.05763">
        <ele>117.4</ele>
        <time>2022-08-12T07:37:37Z</time>
      </trkpt>
      <trkpt lat="44.83724" lon="1.05768">
        <ele>121.4</ele>
        <time>2022-08-12T07:38:06Z</time>
      </trkpt>
      <trkpt lat="44.83719" lon="1.05772">
        <ele>122.4</ele>
        <time>2022-08-12T07:38:09Z</time>
      </trkpt>
      <trkpt lat="44.83715" lon="1.05774">
        <ele>123.4</ele>
        <time>2022-08-12T07:38:11Z</time>
      </trkpt>
      <trkpt lat="44.83709" lon="1.05778">
        <ele>123.4</ele>
        <time>2022-08-12T07:38:14Z</time>
      </trkpt>
      <trkpt lat="44.83705" lon="1.0578">
        <ele>123.4</ele>
        <time>2022-08-12T07:38:16Z</time>
      </trkpt>
      <trkpt lat="44.83699" lon="1.05783">
        <ele>123.4</ele>
        <time>2022-08-12T07:38:19Z</time>
      </trkpt>
      <trkpt lat="44.83695" lon="1.05787">
        <ele>124.4</ele>
        <time>2022-08-12T07:38:22Z</time>
      </trkpt>
      <trkpt lat="44.83692" lon="1.05792">
        <ele>124.4</ele>
        <time>2022-08-12T07:38:24Z</time>
      </trkpt>
      <trkpt lat="44.83689" lon="1.05798">
        <ele>125.4</ele>
        <time>2022-08-12T07:38:26Z</time>
      </trkpt>
      <trkpt lat="44.83686" lon="1.05804">
        <ele>125.4</ele>
        <time>2022-08-12T07:38:28Z</time>
      </trkpt>
      <trkpt lat="44.83683" lon="1.05812">
        <ele>125.4</ele>
        <time>2022-08-12T07:38:32Z</time>
      </trkpt>
      <trkpt lat="44.8368" lon="1.0582">
        <ele>126.4</ele>
        <time>2022-08-12T07:38:35Z</time>
      </trkpt>
      <trkpt lat="44.83677" lon="1.05828">
        <ele>126.4</ele>
        <time>2022-08-12T07:38:38Z</time>
      </trkpt>
      <trkpt lat="44.83675" lon="1.05834">
        <ele>128.4</ele>
        <time>2022-08-12T07:38:41Z</time>
      </trkpt>
      <trkpt lat="44.83672" lon="1.05839">
        <ele>128.4</ele>
        <time>2022-08-12T07:38:44Z</time>
      </trkpt>
      <trkpt lat="44.83669" lon="1.05845">
        <ele>128.4</ele>
        <time>2022-08-12T07:38:47Z</time>
      </trkpt>
      <trkpt lat="44.83666" lon="1.05852">
        <ele>128.4</ele>
        <time>2022-08-12T07:38:50Z</time>
      </trkpt>
      <trkpt lat="44.83662" lon="1.05858">
        <ele>129.4</ele>
        <time>2022-08-12T07:38:53Z</time>
      </trkpt>
      <trkpt lat="44.83658" lon="1.05863">
        <ele>129.4</ele>
        <time>2022-08-12T07:38:56Z</time>
      </trkpt>
      <trkpt lat="44.83654" lon="1.05868">
        <ele>130.4</ele>
        <time>2022-08-12T07:38:59Z</time>
      </trkpt>
      <trkpt lat="44.83652" lon="1.05875">
        <ele>131.4</ele>
        <time>2022-08-12T07:39:02Z</time>
      </trkpt>
      <trkpt lat="44.8365" lon="1.05883">
        <ele>130.4</ele>
        <time>2022-08-12T07:39:06Z</time>
      </trkpt>
      <trkpt lat="44.83648" lon="1.05889">
        <ele>130.4</ele>
        <time>2022-08-12T07:39:09Z</time>
      </trkpt>
      <trkpt lat="44.83646" lon="1.05897">
        <ele>132.4</ele>
        <time>2022-08-12T07:39:13Z</time>
      </trkpt>
      <trkpt lat="44.83643" lon="1.05904">
        <ele>134.4</ele>
        <time>2022-08-12T07:39:16Z</time>
      </trkpt>
      <trkpt lat="44.83638" lon="1.05911">
        <ele>130.4</ele>
        <time>2022-08-12T07:39:20Z</time>
      </trkpt>
      <trkpt lat="44.83635" lon="1.05918">
        <ele>130.4</ele>
        <time>2022-08-12T07:39:24Z</time>
      </trkpt>
      <trkpt lat="44.83632" lon="1.05925">
        <ele>132.4</ele>
        <time>2022-08-12T07:39:28Z</time>
      </trkpt>
      <trkpt lat="44.83629" lon="1.05931">
        <ele>132.4</ele>
        <time>2022-08-12T07:39:31Z</time>
      </trkpt>
      <trkpt lat="44.83627" lon="1.05938">
        <ele>131.4</ele>
        <time>2022-08-12T07:39:35Z</time>
      </trkpt>
      <trkpt lat="44.83623" lon="1.05945">
        <ele>130.4</ele>
        <time>2022-08-12T07:39:38Z</time>
      </trkpt>
      <trkpt lat="44.83619" lon="1.05951">
        <ele>130.4</ele>
        <time>2022-08-12T07:39:41Z</time>
      </trkpt>
      <trkpt lat="44.83616" lon="1.05958">
        <ele>130.4</ele>
        <time>2022-08-12T07:39:44Z</time>
      </trkpt>
      <trkpt lat="44.83613" lon="1.05965">
        <ele>131.4</ele>
        <time>2022-08-12T07:39:48Z</time>
      </trkpt>
      <trkpt lat="44.83609" lon="1.05971">
        <ele>132.4</ele>
        <time>2022-08-12T07:39:51Z</time>
      </trkpt>
      <trkpt lat="44.83606" lon="1.05978">
        <ele>133.4</ele>
        <time>2022-08-12T07:39:54Z</time>
      </trkpt>
      <trkpt lat="44.83603" lon="1.05984">
        <ele>134.4</ele>
        <time>2022-08-12T07:39:57Z</time>
      </trkpt>
      <trkpt lat="44.83601" lon="1.0599">
        <ele>134.4</ele>
        <time>2022-08-12T07:40:00Z</time>
      </trkpt>
      <trkpt lat="44.83597" lon="1.05996">
        <ele>135.4</ele>
        <time>2022-08-12T07:40:04Z</time>
      </trkpt>
      <trkpt lat="44.83594" lon="1.06002">
        <ele>136.4</ele>
        <time>2022-08-12T07:40:07Z</time>
      </trkpt>
      <trkpt lat="44.83592" lon="1.06009">
        <ele>137.4</ele>
        <time>2022-08-12T07:40:10Z</time>
      </trkpt>
      <trkpt lat="44.83589" lon="1.06014">
        <ele>138.4</ele>
        <time>2022-08-12T07:40:13Z</time>
      </trkpt>
      <trkpt lat="44.83584" lon="1.06021">
        <ele>139.4</ele>
        <time>2022-08-12T07:40:17Z</time>
      </trkpt>
      <trkpt lat="44.83582" lon="1.06027">
        <ele>139.4</ele>
        <time>2022-08-12T07:40:20Z</time>
      </trkpt>
      <trkpt lat="44.8358" lon="1.06033">
        <ele>139.4</ele>
        <time>2022-08-12T07:40:24Z</time>
      </trkpt>
      <trkpt lat="44.83578" lon="1.06041">
        <ele>139.4</ele>
        <time>2022-08-12T07:40:28Z</time>
      </trkpt>
      <trkpt lat="44.83579" lon="1.06047">
        <ele>138.4</ele>
        <time>2022-08-12T07:40:31Z</time>
      </trkpt>
      <trkpt lat="44.83577" lon="1.06054">
        <ele>139.4</ele>
        <time>2022-08-12T07:40:37Z</time>
      </trkpt>
      <trkpt lat="44.83579" lon="1.06063">
        <ele>139.4</ele>
        <time>2022-08-12T07:40:42Z</time>
      </trkpt>
      <trkpt lat="44.83579" lon="1.06069">
        <ele>140.4</ele>
        <time>2022-08-12T07:40:46Z</time>
      </trkpt>
      <trkpt lat="44.83579" lon="1.06077">
        <ele>140.4</ele>
        <time>2022-08-12T07:40:50Z</time>
      </trkpt>
      <trkpt lat="44.83579" lon="1.06083">
        <ele>141.4</ele>
        <time>2022-08-12T07:40:54Z</time>
      </trkpt>
      <trkpt lat="44.83579" lon="1.0609">
        <ele>143.4</ele>
        <time>2022-08-12T07:40:58Z</time>
      </trkpt>
      <trkpt lat="44.8358" lon="1.06097">
        <ele>142.4</ele>
        <time>2022-08-12T07:41:01Z</time>
      </trkpt>
      <trkpt lat="44.83581" lon="1.06103">
        <ele>142.4</ele>
        <time>2022-08-12T07:41:04Z</time>
      </trkpt>
      <trkpt lat="44.8358" lon="1.06111">
        <ele>142.4</ele>
        <time>2022-08-12T07:41:08Z</time>
      </trkpt>
      <trkpt lat="44.8358" lon="1.06118">
        <ele>144.4</ele>
        <time>2022-08-12T07:41:12Z</time>
      </trkpt>
      <trkpt lat="44.83579" lon="1.06124">
        <ele>145.4</ele>
        <time>2022-08-12T07:41:18Z</time>
      </trkpt>
      <trkpt lat="44.8358" lon="1.06131">
        <ele>147.4</ele>
        <time>2022-08-12T07:41:23Z</time>
      </trkpt>
      <trkpt lat="44.8358" lon="1.06139">
        <ele>147.4</ele>
        <time>2022-08-12T07:41:27Z</time>
      </trkpt>
      <trkpt lat="44.83581" lon="1.06146">
        <ele>147.4</ele>
        <time>2022-08-12T07:41:31Z</time>
      </trkpt>
      <trkpt lat="44.83583" lon="1.06153">
        <ele>147.4</ele>
        <time>2022-08-12T07:41:35Z</time>
      </trkpt>
      <trkpt lat="44.83583" lon="1.0616">
        <ele>149.4</ele>
        <time>2022-08-12T07:41:39Z</time>
      </trkpt>
      <trkpt lat="44.83583" lon="1.06167">
        <ele>151.4</ele>
        <time>2022-08-12T07:41:44Z</time>
      </trkpt>
      <trkpt lat="44.83583" lon="1.06174">
        <ele>151.4</ele>
        <time>2022-08-12T07:41:49Z</time>
      </trkpt>
      <trkpt lat="44.83584" lon="1.06182">
        <ele>152.4</ele>
        <time>2022-08-12T07:41:54Z</time>
      </trkpt>
      <trkpt lat="44.83585" lon="1.06188">
        <ele>153.4</ele>
        <time>2022-08-12T07:41:57Z</time>
      </trkpt>
      <trkpt lat="44.83581" lon="1.06193">
        <ele>157.4</ele>
        <time>2022-08-12T07:42:04Z</time>
      </trkpt>
      <trkpt lat="44.8358" lon="1.06199">
        <ele>162.4</ele>
        <time>2022-08-12T07:42:10Z</time>
      </trkpt>
      <trkpt lat="44.8358" lon="1.06206">
        <ele>164.4</ele>
        <time>2022-08-12T07:42:16Z</time>
      </trkpt>
      <trkpt lat="44.8358" lon="1.06212">
        <ele>163.4</ele>
        <time>2022-08-12T07:42:22Z</time>
      </trkpt>
      <trkpt lat="44.83579" lon="1.06219">
        <ele>162.4</ele>
        <time>2022-08-12T07:42:26Z</time>
      </trkpt>
      <trkpt lat="44.8358" lon="1.06226">
        <ele>164.4</ele>
        <time>2022-08-12T07:42:32Z</time>
      </trkpt>
      <trkpt lat="44.8358" lon="1.06234">
        <ele>163.4</ele>
        <time>2022-08-12T07:42:37Z</time>
      </trkpt>
      <trkpt lat="44.8358" lon="1.0624">
        <ele>164.4</ele>
        <time>2022-08-12T07:42:41Z</time>
      </trkpt>
      <trkpt lat="44.83583" lon="1.06246">
        <ele>166.4</ele>
        <time>2022-08-12T07:42:46Z</time>
      </trkpt>
      <trkpt lat="44.83584" lon="1.06253">
        <ele>168.4</ele>
        <time>2022-08-12T07:42:51Z</time>
      </trkpt>
      <trkpt lat="44.83586" lon="1.06259">
        <ele>169.4</ele>
        <time>2022-08-12T07:42:56Z</time>
      </trkpt>
      <trkpt lat="44.83591" lon="1.06258">
        <ele>170.4</ele>
        <time>2022-08-12T07:43:12Z</time>
      </trkpt>
      <trkpt lat="44.83595" lon="1.06252">
        <ele>169.4</ele>
        <time>2022-08-12T07:43:16Z</time>
      </trkpt>
      <trkpt lat="44.83599" lon="1.06249">
        <ele>169.4</ele>
        <time>2022-08-12T07:43:18Z</time>
      </trkpt>
      <trkpt lat="44.83604" lon="1.06247">
        <ele>168.4</ele>
        <time>2022-08-12T07:43:21Z</time>
      </trkpt>
      <trkpt lat="44.83609" lon="1.06246">
        <ele>169.4</ele>
        <time>2022-08-12T07:43:24Z</time>
      </trkpt>
      <trkpt lat="44.83614" lon="1.06244">
        <ele>168.4</ele>
        <time>2022-08-12T07:43:27Z</time>
      </trkpt>
      <trkpt lat="44.83619" lon="1.0624">
        <ele>168.4</ele>
        <time>2022-08-12T07:43:30Z</time>
      </trkpt>
      <trkpt lat="44.83624" lon="1.06235">
        <ele>166.4</ele>
        <time>2022-08-12T07:43:33Z</time>
      </trkpt>
      <trkpt lat="44.83629" lon="1.06232">
        <ele>166.4</ele>
        <time>2022-08-12T07:43:36Z</time>
      </trkpt>
      <trkpt lat="44.83634" lon="1.0623">
        <ele>166.4</ele>
        <time>2022-08-12T07:43:40Z</time>
      </trkpt>
      <trkpt lat="44.83638" lon="1.06227">
        <ele>165.4</ele>
        <time>2022-08-12T07:43:42Z</time>
      </trkpt>
      <trkpt lat="44.83644" lon="1.06224">
        <ele>164.4</ele>
        <time>2022-08-12T07:43:45Z</time>
      </trkpt>
      <trkpt lat="44.83648" lon="1.06221">
        <ele>163.4</ele>
        <time>2022-08-12T07:43:50Z</time>
      </trkpt>
      <trkpt lat="44.83644" lon="1.06217">
        <ele>164.4</ele>
        <time>2022-08-12T07:43:54Z</time>
      </trkpt>
      <trkpt lat="44.83641" lon="1.06223">
        <ele>162.4</ele>
        <time>2022-08-12T07:43:56Z</time>
      </trkpt>
      <trkpt lat="44.83637" lon="1.06229">
        <ele>162.4</ele>
        <time>2022-08-12T07:43:58Z</time>
      </trkpt>
      <trkpt lat="44.83633" lon="1.06233">
        <ele>162.4</ele>
        <time>2022-08-12T07:44:00Z</time>
      </trkpt>
      <trkpt lat="44.83628" lon="1.06237">
        <ele>162.4</ele>
        <time>2022-08-12T07:44:02Z</time>
      </trkpt>
      <trkpt lat="44.83622" lon="1.06241">
        <ele>162.4</ele>
        <time>2022-08-12T07:44:04Z</time>
      </trkpt>
      <trkpt lat="44.83613" lon="1.06246">
        <ele>162.4</ele>
        <time>2022-08-12T07:44:07Z</time>
      </trkpt>
      <trkpt lat="44.83608" lon="1.06249">
        <ele>162.4</ele>
        <time>2022-08-12T07:44:10Z</time>
      </trkpt>
      <trkpt lat="44.83603" lon="1.06252">
        <ele>163.4</ele>
        <time>2022-08-12T07:44:12Z</time>
      </trkpt>
      <trkpt lat="44.83597" lon="1.06254">
        <ele>163.4</ele>
        <time>2022-08-12T07:44:14Z</time>
      </trkpt>
      <trkpt lat="44.83593" lon="1.06259">
        <ele>164.4</ele>
        <time>2022-08-12T07:44:16Z</time>
      </trkpt>
      <trkpt lat="44.8359" lon="1.06268">
        <ele>164.4</ele>
        <time>2022-08-12T07:44:18Z</time>
      </trkpt>
      <trkpt lat="44.83587" lon="1.06275">
        <ele>164.4</ele>
        <time>2022-08-12T07:44:20Z</time>
      </trkpt>
      <trkpt lat="44.83585" lon="1.06282">
        <ele>164.4</ele>
        <time>2022-08-12T07:44:22Z</time>
      </trkpt>
      <trkpt lat="44.83584" lon="1.0629">
        <ele>164.4</ele>
        <time>2022-08-12T07:44:24Z</time>
      </trkpt>
      <trkpt lat="44.83582" lon="1.06303">
        <ele>165.4</ele>
        <time>2022-08-12T07:44:27Z</time>
      </trkpt>
      <trkpt lat="44.83581" lon="1.06312">
        <ele>165.4</ele>
        <time>2022-08-12T07:44:29Z</time>
      </trkpt>
      <trkpt lat="44.8358" lon="1.06322">
        <ele>165.4</ele>
        <time>2022-08-12T07:44:31Z</time>
      </trkpt>
      <trkpt lat="44.83579" lon="1.06331">
        <ele>165.4</ele>
        <time>2022-08-12T07:44:33Z</time>
      </trkpt>
      <trkpt lat="44.83578" lon="1.0634">
        <ele>164.4</ele>
        <time>2022-08-12T07:44:35Z</time>
      </trkpt>
      <trkpt lat="44.83576" lon="1.0635">
        <ele>165.4</ele>
        <time>2022-08-12T07:44:37Z</time>
      </trkpt>
      <trkpt lat="44.83574" lon="1.0636">
        <ele>165.4</ele>
        <time>2022-08-12T07:44:39Z</time>
      </trkpt>
      <trkpt lat="44.83573" lon="1.06368">
        <ele>165.4</ele>
        <time>2022-08-12T07:44:41Z</time>
      </trkpt>
      <trkpt lat="44.83573" lon="1.06378">
        <ele>165.4</ele>
        <time>2022-08-12T07:44:43Z</time>
      </trkpt>
      <trkpt lat="44.83573" lon="1.06386">
        <ele>165.4</ele>
        <time>2022-08-12T07:44:45Z</time>
      </trkpt>
      <trkpt lat="44.83573" lon="1.06394">
        <ele>164.4</ele>
        <time>2022-08-12T07:44:47Z</time>
      </trkpt>
      <trkpt lat="44.83572" lon="1.06404">
        <ele>164.4</ele>
        <time>2022-08-12T07:44:49Z</time>
      </trkpt>
      <trkpt lat="44.8357" lon="1.06415">
        <ele>164.4</ele>
        <time>2022-08-12T07:44:51Z</time>
      </trkpt>
      <trkpt lat="44.83566" lon="1.06419">
        <ele>162.4</ele>
        <time>2022-08-12T07:44:57Z</time>
      </trkpt>
      <trkpt lat="44.83564" lon="1.06425">
        <ele>162.4</ele>
        <time>2022-08-12T07:45:59Z</time>
      </trkpt>
      <trkpt lat="44.83565" lon="1.06441">
        <ele>159.4</ele>
        <time>2022-08-12T07:46:02Z</time>
      </trkpt>
      <trkpt lat="44.83566" lon="1.06448">
        <ele>159.4</ele>
        <time>2022-08-12T07:46:03Z</time>
      </trkpt>
      <trkpt lat="44.83566" lon="1.06454">
        <ele>158.4</ele>
        <time>2022-08-12T07:46:04Z</time>
      </trkpt>
      <trkpt lat="44.83565" lon="1.06462">
        <ele>158.4</ele>
        <time>2022-08-12T07:46:05Z</time>
      </trkpt>
      <trkpt lat="44.83565" lon="1.06475">
        <ele>158.4</ele>
        <time>2022-08-12T07:46:07Z</time>
      </trkpt>
      <trkpt lat="44.83565" lon="1.06482">
        <ele>159.4</ele>
        <time>2022-08-12T07:46:08Z</time>
      </trkpt>
      <trkpt lat="44.83564" lon="1.06489">
        <ele>159.4</ele>
        <time>2022-08-12T07:46:09Z</time>
      </trkpt>
      <trkpt lat="44.83562" lon="1.06496">
        <ele>158.4</ele>
        <time>2022-08-12T07:46:10Z</time>
      </trkpt>
      <trkpt lat="44.8356" lon="1.06503">
        <ele>158.4</ele>
        <time>2022-08-12T07:46:11Z</time>
      </trkpt>
      <trkpt lat="44.83559" lon="1.0651">
        <ele>158.4</ele>
        <time>2022-08-12T07:46:12Z</time>
      </trkpt>
      <trkpt lat="44.83557" lon="1.06518">
        <ele>158.4</ele>
        <time>2022-08-12T07:46:14Z</time>
      </trkpt>
      <trkpt lat="44.83554" lon="1.06526">
        <ele>158.4</ele>
        <time>2022-08-12T07:46:17Z</time>
      </trkpt>
      <trkpt lat="44.83552" lon="1.06535">
        <ele>157.4</ele>
        <time>2022-08-12T07:46:20Z</time>
      </trkpt>
      <trkpt lat="44.8355" lon="1.06542">
        <ele>157.4</ele>
        <time>2022-08-12T07:46:22Z</time>
      </trkpt>
      <trkpt lat="44.83548" lon="1.06551">
        <ele>156.4</ele>
        <time>2022-08-12T07:46:24Z</time>
      </trkpt>
      <trkpt lat="44.83545" lon="1.06559">
        <ele>155.4</ele>
        <time>2022-08-12T07:46:26Z</time>
      </trkpt>
      <trkpt lat="44.8354" lon="1.0657">
        <ele>152.4</ele>
        <time>2022-08-12T07:46:28Z</time>
      </trkpt>
      <trkpt lat="44.83537" lon="1.06577">
        <ele>151.4</ele>
        <time>2022-08-12T07:46:29Z</time>
      </trkpt>
      <trkpt lat="44.83531" lon="1.06596">
        <ele>149.4</ele>
        <time>2022-08-12T07:46:31Z</time>
      </trkpt>
      <trkpt lat="44.83528" lon="1.06604">
        <ele>148.4</ele>
        <time>2022-08-12T07:46:32Z</time>
      </trkpt>
      <trkpt lat="44.83526" lon="1.06613">
        <ele>147.4</ele>
        <time>2022-08-12T07:46:33Z</time>
      </trkpt>
      <trkpt lat="44.83524" lon="1.06621">
        <ele>147.4</ele>
        <time>2022-08-12T07:46:34Z</time>
      </trkpt>
      <trkpt lat="44.83523" lon="1.06629">
        <ele>146.4</ele>
        <time>2022-08-12T07:46:35Z</time>
      </trkpt>
      <trkpt lat="44.83523" lon="1.06638">
        <ele>146.4</ele>
        <time>2022-08-12T07:46:36Z</time>
      </trkpt>
      <trkpt lat="44.83523" lon="1.06648">
        <ele>146.4</ele>
        <time>2022-08-12T07:46:37Z</time>
      </trkpt>
      <trkpt lat="44.83522" lon="1.06658">
        <ele>143.4</ele>
        <time>2022-08-12T07:46:38Z</time>
      </trkpt>
      <trkpt lat="44.83522" lon="1.06668">
        <ele>141.4</ele>
        <time>2022-08-12T07:46:39Z</time>
      </trkpt>
      <trkpt lat="44.83521" lon="1.06677">
        <ele>141.4</ele>
        <time>2022-08-12T07:46:40Z</time>
      </trkpt>
      <trkpt lat="44.83521" lon="1.06683">
        <ele>141.4</ele>
        <time>2022-08-12T07:46:44Z</time>
      </trkpt>
      <trkpt lat="44.83522" lon="1.06689">
        <ele>141.4</ele>
        <time>2022-08-12T07:46:50Z</time>
      </trkpt>
      <trkpt lat="44.83526" lon="1.06693">
        <ele>143.4</ele>
        <time>2022-08-12T07:48:05Z</time>
      </trkpt>
      <trkpt lat="44.83526" lon="1.067">
        <ele>140.4</ele>
        <time>2022-08-12T07:48:12Z</time>
      </trkpt>
      <trkpt lat="44.83527" lon="1.06713">
        <ele>138.4</ele>
        <time>2022-08-12T07:48:14Z</time>
      </trkpt>
      <trkpt lat="44.83527" lon="1.06721">
        <ele>137.4</ele>
        <time>2022-08-12T07:48:15Z</time>
      </trkpt>
      <trkpt lat="44.83527" lon="1.06728">
        <ele>136.4</ele>
        <time>2022-08-12T07:48:16Z</time>
      </trkpt>
      <trkpt lat="44.83526" lon="1.06734">
        <ele>135.4</ele>
        <time>2022-08-12T07:48:17Z</time>
      </trkpt>
      <trkpt lat="44.83526" lon="1.06741">
        <ele>134.4</ele>
        <time>2022-08-12T07:48:18Z</time>
      </trkpt>
      <trkpt lat="44.83527" lon="1.06752">
        <ele>135.4</ele>
        <time>2022-08-12T07:48:20Z</time>
      </trkpt>
      <trkpt lat="44.83526" lon="1.06762">
        <ele>134.4</ele>
        <time>2022-08-12T07:48:22Z</time>
      </trkpt>
      <trkpt lat="44.83524" lon="1.06772">
        <ele>133.4</ele>
        <time>2022-08-12T07:48:24Z</time>
      </trkpt>
      <trkpt lat="44.83522" lon="1.06784">
        <ele>132.4</ele>
        <time>2022-08-12T07:48:26Z</time>
      </trkpt>
      <trkpt lat="44.83521" lon="1.06791">
        <ele>132.4</ele>
        <time>2022-08-12T07:48:27Z</time>
      </trkpt>
      <trkpt lat="44.8352" lon="1.06798">
        <ele>131.4</ele>
        <time>2022-08-12T07:48:28Z</time>
      </trkpt>
      <trkpt lat="44.83518" lon="1.0681">
        <ele>131.4</ele>
        <time>2022-08-12T07:48:30Z</time>
      </trkpt>
      <trkpt lat="44.83516" lon="1.06819">
        <ele>130.4</ele>
        <time>2022-08-12T07:48:31Z</time>
      </trkpt>
      <trkpt lat="44.83514" lon="1.06827">
        <ele>130.4</ele>
        <time>2022-08-12T07:48:32Z</time>
      </trkpt>
      <trkpt lat="44.83511" lon="1.06838">
        <ele>129.4</ele>
        <time>2022-08-12T07:48:34Z</time>
      </trkpt>
      <trkpt lat="44.8351" lon="1.06845">
        <ele>129.4</ele>
        <time>2022-08-12T07:48:35Z</time>
      </trkpt>
      <trkpt lat="44.83509" lon="1.06859">
        <ele>127.4</ele>
        <time>2022-08-12T07:48:37Z</time>
      </trkpt>
      <trkpt lat="44.83509" lon="1.06865">
        <ele>127.4</ele>
        <time>2022-08-12T07:48:38Z</time>
      </trkpt>
      <trkpt lat="44.83508" lon="1.06877">
        <ele>127.4</ele>
        <time>2022-08-12T07:48:40Z</time>
      </trkpt>
      <trkpt lat="44.83506" lon="1.06883">
        <ele>126.4</ele>
        <time>2022-08-12T07:48:41Z</time>
      </trkpt>
      <trkpt lat="44.83503" lon="1.06893">
        <ele>125.4</ele>
        <time>2022-08-12T07:48:43Z</time>
      </trkpt>
      <trkpt lat="44.83501" lon="1.06906">
        <ele>124.4</ele>
        <time>2022-08-12T07:48:45Z</time>
      </trkpt>
      <trkpt lat="44.83499" lon="1.06914">
        <ele>122.4</ele>
        <time>2022-08-12T07:48:46Z</time>
      </trkpt>
      <trkpt lat="44.83496" lon="1.06921">
        <ele>121.4</ele>
        <time>2022-08-12T07:48:47Z</time>
      </trkpt>
      <trkpt lat="44.83493" lon="1.06928">
        <ele>120.4</ele>
        <time>2022-08-12T07:48:48Z</time>
      </trkpt>
      <trkpt lat="44.8349" lon="1.06935">
        <ele>120.4</ele>
        <time>2022-08-12T07:48:49Z</time>
      </trkpt>
      <trkpt lat="44.83487" lon="1.06942">
        <ele>119.4</ele>
        <time>2022-08-12T07:48:50Z</time>
      </trkpt>
      <trkpt lat="44.83485" lon="1.06949">
        <ele>118.4</ele>
        <time>2022-08-12T07:48:51Z</time>
      </trkpt>
      <trkpt lat="44.83482" lon="1.06956">
        <ele>117.4</ele>
        <time>2022-08-12T07:48:52Z</time>
      </trkpt>
      <trkpt lat="44.8348" lon="1.06962">
        <ele>117.4</ele>
        <time>2022-08-12T07:48:53Z</time>
      </trkpt>
      <trkpt lat="44.83477" lon="1.06968">
        <ele>116.4</ele>
        <time>2022-08-12T07:48:54Z</time>
      </trkpt>
      <trkpt lat="44.83473" lon="1.06979">
        <ele>114.4</ele>
        <time>2022-08-12T07:48:56Z</time>
      </trkpt>
      <trkpt lat="44.83471" lon="1.06985">
        <ele>113.4</ele>
        <time>2022-08-12T07:48:57Z</time>
      </trkpt>
      <trkpt lat="44.83468" lon="1.06991">
        <ele>113.4</ele>
        <time>2022-08-12T07:48:58Z</time>
      </trkpt>
      <trkpt lat="44.83465" lon="1.06996">
        <ele>111.4</ele>
        <time>2022-08-12T07:48:59Z</time>
      </trkpt>
      <trkpt lat="44.83461" lon="1.07005">
        <ele>110.4</ele>
        <time>2022-08-12T07:49:01Z</time>
      </trkpt>
      <trkpt lat="44.83459" lon="1.07011">
        <ele>109.4</ele>
        <time>2022-08-12T07:49:02Z</time>
      </trkpt>
      <trkpt lat="44.83454" lon="1.0702">
        <ele>108.4</ele>
        <time>2022-08-12T07:49:04Z</time>
      </trkpt>
      <trkpt lat="44.83449" lon="1.07028">
        <ele>107.4</ele>
        <time>2022-08-12T07:49:06Z</time>
      </trkpt>
      <trkpt lat="44.83444" lon="1.07035">
        <ele>106.4</ele>
        <time>2022-08-12T07:49:08Z</time>
      </trkpt>
      <trkpt lat="44.8344" lon="1.07041">
        <ele>105.4</ele>
        <time>2022-08-12T07:49:09Z</time>
      </trkpt>
      <trkpt lat="44.83437" lon="1.07048">
        <ele>104.4</ele>
        <time>2022-08-12T07:49:10Z</time>
      </trkpt>
      <trkpt lat="44.8343" lon="1.07061">
        <ele>103.4</ele>
        <time>2022-08-12T07:49:12Z</time>
      </trkpt>
      <trkpt lat="44.83427" lon="1.07067">
        <ele>101.4</ele>
        <time>2022-08-12T07:49:13Z</time>
      </trkpt>
      <trkpt lat="44.83424" lon="1.07075">
        <ele>99.4</ele>
        <time>2022-08-12T07:49:14Z</time>
      </trkpt>
      <trkpt lat="44.83419" lon="1.07083">
        <ele>98.4</ele>
        <time>2022-08-12T07:49:15Z</time>
      </trkpt>
      <trkpt lat="44.83415" lon="1.07089">
        <ele>96.4</ele>
        <time>2022-08-12T07:49:16Z</time>
      </trkpt>
      <trkpt lat="44.83412" lon="1.07095">
        <ele>95.4</ele>
        <time>2022-08-12T07:49:17Z</time>
      </trkpt>
      <trkpt lat="44.83408" lon="1.07102">
        <ele>93.4</ele>
        <time>2022-08-12T07:49:19Z</time>
      </trkpt>
      <trkpt lat="44.83405" lon="1.07106">
        <ele>86.4</ele>
        <time>2022-08-12T07:50:03Z</time>
      </trkpt>
      <trkpt lat="44.83404" lon="1.07113">
        <ele>85.4</ele>
        <time>2022-08-12T07:50:07Z</time>
      </trkpt>
      <trkpt lat="44.83403" lon="1.0712">
        <ele>82.4</ele>
        <time>2022-08-12T07:50:49Z</time>
      </trkpt>
      <trkpt lat="44.83402" lon="1.07129">
        <ele>80.4</ele>
        <time>2022-08-12T07:50:51Z</time>
      </trkpt>
      <trkpt lat="44.83403" lon="1.07136">
        <ele>78.4</ele>
        <time>2022-08-12T07:50:52Z</time>
      </trkpt>
      <trkpt lat="44.83403" lon="1.07143">
        <ele>78.4</ele>
        <time>2022-08-12T07:50:53Z</time>
      </trkpt>
      <trkpt lat="44.83404" lon="1.07154">
        <ele>77.4</ele>
        <time>2022-08-12T07:50:55Z</time>
      </trkpt>
      <trkpt lat="44.83404" lon="1.07165">
        <ele>76.4</ele>
        <time>2022-08-12T07:50:57Z</time>
      </trkpt>
      <trkpt lat="44.83403" lon="1.07176">
        <ele>74.4</ele>
        <time>2022-08-12T07:50:59Z</time>
      </trkpt>
      <trkpt lat="44.83402" lon="1.07185">
        <ele>73.4</ele>
        <time>2022-08-12T07:51:01Z</time>
      </trkpt>
      <trkpt lat="44.83399" lon="1.07197">
        <ele>72.4</ele>
        <time>2022-08-12T07:51:03Z</time>
      </trkpt>
      <trkpt lat="44.83395" lon="1.07207">
        <ele>71.4</ele>
        <time>2022-08-12T07:51:05Z</time>
      </trkpt>
      <trkpt lat="44.83391" lon="1.07213">
        <ele>70.4</ele>
        <time>2022-08-12T07:51:07Z</time>
      </trkpt>
      <trkpt lat="44.83391" lon="1.07222">
        <ele>70.4</ele>
        <time>2022-08-12T07:51:12Z</time>
      </trkpt>
      <trkpt lat="44.83388" lon="1.07229">
        <ele>70.4</ele>
        <time>2022-08-12T07:51:15Z</time>
      </trkpt>
      <trkpt lat="44.83388" lon="1.07236">
        <ele>69.4</ele>
        <time>2022-08-12T07:51:17Z</time>
      </trkpt>
      <trkpt lat="44.83387" lon="1.07245">
        <ele>68.4</ele>
        <time>2022-08-12T07:51:20Z</time>
      </trkpt>
      <trkpt lat="44.83385" lon="1.0725">
        <ele>68.4</ele>
        <time>2022-08-12T07:51:22Z</time>
      </trkpt>
      <trkpt lat="44.83381" lon="1.07257">
        <ele>68.4</ele>
        <time>2022-08-12T07:51:25Z</time>
      </trkpt>
      <trkpt lat="44.83387" lon="1.07258">
        <ele>64.4</ele>
        <time>2022-08-12T07:52:09Z</time>
      </trkpt>
      <trkpt lat="44.83387" lon="1.07265">
        <ele>64.4</ele>
        <time>2022-08-12T07:52:36Z</time>
      </trkpt>
      <trkpt lat="44.8339" lon="1.07272">
        <ele>64.4</ele>
        <time>2022-08-12T07:52:42Z</time>
      </trkpt>
      <trkpt lat="44.83392" lon="1.07279">
        <ele>67.4</ele>
        <time>2022-08-12T07:52:48Z</time>
      </trkpt>
      <trkpt lat="44.83394" lon="1.07285">
        <ele>63.4</ele>
        <time>2022-08-12T07:53:05Z</time>
      </trkpt>
      <trkpt lat="44.83396" lon="1.0729">
        <ele>66.4</ele>
        <time>2022-08-12T07:53:18Z</time>
      </trkpt>
      <trkpt lat="44.83397" lon="1.07298">
        <ele>68.4</ele>
        <time>2022-08-12T07:53:24Z</time>
      </trkpt>
      <trkpt lat="44.83397" lon="1.07305">
        <ele>68.4</ele>
        <time>2022-08-12T07:53:28Z</time>
      </trkpt>
      <trkpt lat="44.83396" lon="1.07312">
        <ele>67.4</ele>
        <time>2022-08-12T07:53:32Z</time>
      </trkpt>
      <trkpt lat="44.83393" lon="1.07317">
        <ele>68.4</ele>
        <time>2022-08-12T07:53:38Z</time>
      </trkpt>
      <trkpt lat="44.83388" lon="1.07316">
        <ele>67.4</ele>
        <time>2022-08-12T07:53:42Z</time>
      </trkpt>
      <trkpt lat="44.83384" lon="1.07313">
        <ele>71.4</ele>
        <time>2022-08-12T08:02:03Z</time>
      </trkpt>
      <trkpt lat="44.8339" lon="1.07313">
        <ele>69.4</ele>
        <time>2022-08-12T08:06:27Z</time>
      </trkpt>
      <trkpt lat="44.83395" lon="1.07312">
        <ele>69.4</ele>
        <time>2022-08-12T08:06:30Z</time>
      </trkpt>
      <trkpt lat="44.834" lon="1.0731">
        <ele>69.4</ele>
        <time>2022-08-12T08:06:33Z</time>
      </trkpt>
      <trkpt lat="44.83405" lon="1.07307">
        <ele>69.4</ele>
        <time>2022-08-12T08:06:36Z</time>
      </trkpt>
      <trkpt lat="44.8341" lon="1.07304">
        <ele>68.4</ele>
        <time>2022-08-12T08:06:39Z</time>
      </trkpt>
      <trkpt lat="44.83416" lon="1.073">
        <ele>68.4</ele>
        <time>2022-08-12T08:06:42Z</time>
      </trkpt>
      <trkpt lat="44.83422" lon="1.07295">
        <ele>68.4</ele>
        <time>2022-08-12T08:06:45Z</time>
      </trkpt>
      <trkpt lat="44.83426" lon="1.07291">
        <ele>68.4</ele>
        <time>2022-08-12T08:06:47Z</time>
      </trkpt>
      <trkpt lat="44.8343" lon="1.07285">
        <ele>68.4</ele>
        <time>2022-08-12T08:06:49Z</time>
      </trkpt>
      <trkpt lat="44.83435" lon="1.07279">
        <ele>67.4</ele>
        <time>2022-08-12T08:06:51Z</time>
      </trkpt>
      <trkpt lat="44.83443" lon="1.07275">
        <ele>67.4</ele>
        <time>2022-08-12T08:06:53Z</time>
      </trkpt>
      <trkpt lat="44.83451" lon="1.07276">
        <ele>66.4</ele>
        <time>2022-08-12T08:06:55Z</time>
      </trkpt>
      <trkpt lat="44.83456" lon="1.07277">
        <ele>66.4</ele>
        <time>2022-08-12T08:06:57Z</time>
      </trkpt>
      <trkpt lat="44.83461" lon="1.07279">
        <ele>64.4</ele>
        <time>2022-08-12T08:07:00Z</time>
      </trkpt>
      <trkpt lat="44.83465" lon="1.07281">
        <ele>64.4</ele>
        <time>2022-08-12T08:07:03Z</time>
      </trkpt>
      <trkpt lat="44.83462" lon="1.07277">
        <ele>64.4</ele>
        <time>2022-08-12T08:07:08Z</time>
      </trkpt>
      <trkpt lat="44.83455" lon="1.07277">
        <ele>65.4</ele>
        <time>2022-08-12T08:07:10Z</time>
      </trkpt>
      <trkpt lat="44.83449" lon="1.07276">
        <ele>65.4</ele>
        <time>2022-08-12T08:07:12Z</time>
      </trkpt>
      <trkpt lat="44.83443" lon="1.07276">
        <ele>65.4</ele>
        <time>2022-08-12T08:07:14Z</time>
      </trkpt>
      <trkpt lat="44.83437" lon="1.07276">
        <ele>65.4</ele>
        <time>2022-08-12T08:07:16Z</time>
      </trkpt>
      <trkpt lat="44.83432" lon="1.07275">
        <ele>66.4</ele>
        <time>2022-08-12T08:07:18Z</time>
      </trkpt>
      <trkpt lat="44.83427" lon="1.07274">
        <ele>66.4</ele>
        <time>2022-08-12T08:07:20Z</time>
      </trkpt>
      <trkpt lat="44.83422" lon="1.07272">
        <ele>65.4</ele>
        <time>2022-08-12T08:07:22Z</time>
      </trkpt>
      <trkpt lat="44.83416" lon="1.07268">
        <ele>66.4</ele>
        <time>2022-08-12T08:07:25Z</time>
      </trkpt>
      <trkpt lat="44.83411" lon="1.07264">
        <ele>66.4</ele>
        <time>2022-08-12T08:07:28Z</time>
      </trkpt>
      <trkpt lat="44.83407" lon="1.07258">
        <ele>66.4</ele>
        <time>2022-08-12T08:07:31Z</time>
      </trkpt>
      <trkpt lat="44.83404" lon="1.07252">
        <ele>67.4</ele>
        <time>2022-08-12T08:07:33Z</time>
      </trkpt>
      <trkpt lat="44.83401" lon="1.07246">
        <ele>68.4</ele>
        <time>2022-08-12T08:07:36Z</time>
      </trkpt>
      <trkpt lat="44.83395" lon="1.07244">
        <ele>69.4</ele>
        <time>2022-08-12T08:07:39Z</time>
      </trkpt>
      <trkpt lat="44.83391" lon="1.07247">
        <ele>69.4</ele>
        <time>2022-08-12T08:07:41Z</time>
      </trkpt>
      <trkpt lat="44.83386" lon="1.0725">
        <ele>69.4</ele>
        <time>2022-08-12T08:07:43Z</time>
      </trkpt>
      <trkpt lat="44.83381" lon="1.07251">
        <ele>70.4</ele>
        <time>2022-08-12T08:07:45Z</time>
      </trkpt>
      <trkpt lat="44.83374" lon="1.07254">
        <ele>70.4</ele>
        <time>2022-08-12T08:07:48Z</time>
      </trkpt>
      <trkpt lat="44.83368" lon="1.07257">
        <ele>71.4</ele>
        <time>2022-08-12T08:07:51Z</time>
      </trkpt>
      <trkpt lat="44.83363" lon="1.0726">
        <ele>72.4</ele>
        <time>2022-08-12T08:07:54Z</time>
      </trkpt>
      <trkpt lat="44.83357" lon="1.07263">
        <ele>73.4</ele>
        <time>2022-08-12T08:07:57Z</time>
      </trkpt>
      <trkpt lat="44.83353" lon="1.07265">
        <ele>73.4</ele>
        <time>2022-08-12T08:07:59Z</time>
      </trkpt>
      <trkpt lat="44.83348" lon="1.07267">
        <ele>74.4</ele>
        <time>2022-08-12T08:08:02Z</time>
      </trkpt>
      <trkpt lat="44.83343" lon="1.07265">
        <ele>76.4</ele>
        <time>2022-08-12T08:08:08Z</time>
      </trkpt>
      <trkpt lat="44.83341" lon="1.07259">
        <ele>77.4</ele>
        <time>2022-08-12T08:08:11Z</time>
      </trkpt>
      <trkpt lat="44.83338" lon="1.07253">
        <ele>77.4</ele>
        <time>2022-08-12T08:08:15Z</time>
      </trkpt>
      <trkpt lat="44.83335" lon="1.07247">
        <ele>75.4</ele>
        <time>2022-08-12T08:08:18Z</time>
      </trkpt>
      <trkpt lat="44.83332" lon="1.07242">
        <ele>73.4</ele>
        <time>2022-08-12T08:08:21Z</time>
      </trkpt>
      <trkpt lat="44.83328" lon="1.07238">
        <ele>74.4</ele>
        <time>2022-08-12T08:08:24Z</time>
      </trkpt>
      <trkpt lat="44.83326" lon="1.07232">
        <ele>76.4</ele>
        <time>2022-08-12T08:08:27Z</time>
      </trkpt>
      <trkpt lat="44.83323" lon="1.07226">
        <ele>77.4</ele>
        <time>2022-08-12T08:08:30Z</time>
      </trkpt>
      <trkpt lat="44.8332" lon="1.07221">
        <ele>77.4</ele>
        <time>2022-08-12T08:08:33Z</time>
      </trkpt>
      <trkpt lat="44.83318" lon="1.07216">
        <ele>77.4</ele>
        <time>2022-08-12T08:08:36Z</time>
      </trkpt>
      <trkpt lat="44.83316" lon="1.0721">
        <ele>78.4</ele>
        <time>2022-08-12T08:08:39Z</time>
      </trkpt>
      <trkpt lat="44.83314" lon="1.07203">
        <ele>78.4</ele>
        <time>2022-08-12T08:08:42Z</time>
      </trkpt>
      <trkpt lat="44.8331" lon="1.07198">
        <ele>80.4</ele>
        <time>2022-08-12T08:08:45Z</time>
      </trkpt>
      <trkpt lat="44.83308" lon="1.07192">
        <ele>79.4</ele>
        <time>2022-08-12T08:08:48Z</time>
      </trkpt>
      <trkpt lat="44.83304" lon="1.07189">
        <ele>79.4</ele>
        <time>2022-08-12T08:08:51Z</time>
      </trkpt>
      <trkpt lat="44.83299" lon="1.07187">
        <ele>82.4</ele>
        <time>2022-08-12T08:08:55Z</time>
      </trkpt>
      <trkpt lat="44.83295" lon="1.07182">
        <ele>84.4</ele>
        <time>2022-08-12T08:08:59Z</time>
      </trkpt>
      <trkpt lat="44.83291" lon="1.07179">
        <ele>84.4</ele>
        <time>2022-08-12T08:09:03Z</time>
      </trkpt>
      <trkpt lat="44.83286" lon="1.07177">
        <ele>85.4</ele>
        <time>2022-08-12T08:09:07Z</time>
      </trkpt>
      <trkpt lat="44.83282" lon="1.07174">
        <ele>85.4</ele>
        <time>2022-08-12T08:09:12Z</time>
      </trkpt>
      <trkpt lat="44.83285" lon="1.07178">
        <ele>84.4</ele>
        <time>2022-08-12T08:09:17Z</time>
      </trkpt>
      <trkpt lat="44.83282" lon="1.07174">
        <ele>82.4</ele>
        <time>2022-08-12T08:09:56Z</time>
      </trkpt>
      <trkpt lat="44.83277" lon="1.07172">
        <ele>83.4</ele>
        <time>2022-08-12T08:10:00Z</time>
      </trkpt>
      <trkpt lat="44.83272" lon="1.0717">
        <ele>83.4</ele>
        <time>2022-08-12T08:10:04Z</time>
      </trkpt>
      <trkpt lat="44.83267" lon="1.07167">
        <ele>83.4</ele>
        <time>2022-08-12T08:10:08Z</time>
      </trkpt>
      <trkpt lat="44.83263" lon="1.07165">
        <ele>84.4</ele>
        <time>2022-08-12T08:10:12Z</time>
      </trkpt>
      <trkpt lat="44.83258" lon="1.07164">
        <ele>84.4</ele>
        <time>2022-08-12T08:10:15Z</time>
      </trkpt>
      <trkpt lat="44.83253" lon="1.07161">
        <ele>86.4</ele>
        <time>2022-08-12T08:10:19Z</time>
      </trkpt>
      <trkpt lat="44.83248" lon="1.07161">
        <ele>86.4</ele>
        <time>2022-08-12T08:10:24Z</time>
      </trkpt>
      <trkpt lat="44.83242" lon="1.07157">
        <ele>86.4</ele>
        <time>2022-08-12T08:10:28Z</time>
      </trkpt>
      <trkpt lat="44.83238" lon="1.07154">
        <ele>86.4</ele>
        <time>2022-08-12T08:10:32Z</time>
      </trkpt>
      <trkpt lat="44.83233" lon="1.07151">
        <ele>86.4</ele>
        <time>2022-08-12T08:10:36Z</time>
      </trkpt>
      <trkpt lat="44.83227" lon="1.0715">
        <ele>86.4</ele>
        <time>2022-08-12T08:10:40Z</time>
      </trkpt>
      <trkpt lat="44.83222" lon="1.07149">
        <ele>86.4</ele>
        <time>2022-08-12T08:10:44Z</time>
      </trkpt>
      <trkpt lat="44.83217" lon="1.07149">
        <ele>87.4</ele>
        <time>2022-08-12T08:10:48Z</time>
      </trkpt>
      <trkpt lat="44.83211" lon="1.07147">
        <ele>87.4</ele>
        <time>2022-08-12T08:10:52Z</time>
      </trkpt>
      <trkpt lat="44.83205" lon="1.07145">
        <ele>88.4</ele>
        <time>2022-08-12T08:10:56Z</time>
      </trkpt>
      <trkpt lat="44.83201" lon="1.07143">
        <ele>89.4</ele>
        <time>2022-08-12T08:11:00Z</time>
      </trkpt>
      <trkpt lat="44.83196" lon="1.0714">
        <ele>89.4</ele>
        <time>2022-08-12T08:11:04Z</time>
      </trkpt>
      <trkpt lat="44.8319" lon="1.0714">
        <ele>90.4</ele>
        <time>2022-08-12T08:11:08Z</time>
      </trkpt>
      <trkpt lat="44.83186" lon="1.07137">
        <ele>92.4</ele>
        <time>2022-08-12T08:11:12Z</time>
      </trkpt>
      <trkpt lat="44.83181" lon="1.07134">
        <ele>94.4</ele>
        <time>2022-08-12T08:11:16Z</time>
      </trkpt>
      <trkpt lat="44.83175" lon="1.07132">
        <ele>95.4</ele>
        <time>2022-08-12T08:11:20Z</time>
      </trkpt>
      <trkpt lat="44.8317" lon="1.0713">
        <ele>96.4</ele>
        <time>2022-08-12T08:11:24Z</time>
      </trkpt>
      <trkpt lat="44.83165" lon="1.07128">
        <ele>98.4</ele>
        <time>2022-08-12T08:11:28Z</time>
      </trkpt>
      <trkpt lat="44.8316" lon="1.07126">
        <ele>97.4</ele>
        <time>2022-08-12T08:11:33Z</time>
      </trkpt>
      <trkpt lat="44.83155" lon="1.07125">
        <ele>97.4</ele>
        <time>2022-08-12T08:11:36Z</time>
      </trkpt>
      <trkpt lat="44.8315" lon="1.07124">
        <ele>98.4</ele>
        <time>2022-08-12T08:11:39Z</time>
      </trkpt>
      <trkpt lat="44.83146" lon="1.07121">
        <ele>98.4</ele>
        <time>2022-08-12T08:11:44Z</time>
      </trkpt>
      <trkpt lat="44.83141" lon="1.0712">
        <ele>98.4</ele>
        <time>2022-08-12T08:11:47Z</time>
      </trkpt>
      <trkpt lat="44.83137" lon="1.07118">
        <ele>99.4</ele>
        <time>2022-08-12T08:11:50Z</time>
      </trkpt>
      <trkpt lat="44.83132" lon="1.07117">
        <ele>99.4</ele>
        <time>2022-08-12T08:11:54Z</time>
      </trkpt>
      <trkpt lat="44.83127" lon="1.07114">
        <ele>99.4</ele>
        <time>2022-08-12T08:11:59Z</time>
      </trkpt>
      <trkpt lat="44.83123" lon="1.0711">
        <ele>99.4</ele>
        <time>2022-08-12T08:12:03Z</time>
      </trkpt>
      <trkpt lat="44.83116" lon="1.07107">
        <ele>100.4</ele>
        <time>2022-08-12T08:12:08Z</time>
      </trkpt>
      <trkpt lat="44.83112" lon="1.07104">
        <ele>100.4</ele>
        <time>2022-08-12T08:12:12Z</time>
      </trkpt>
      <trkpt lat="44.83108" lon="1.071">
        <ele>101.4</ele>
        <time>2022-08-12T08:12:16Z</time>
      </trkpt>
      <trkpt lat="44.83104" lon="1.07097">
        <ele>104.4</ele>
        <time>2022-08-12T08:12:20Z</time>
      </trkpt>
      <trkpt lat="44.831" lon="1.07094">
        <ele>105.4</ele>
        <time>2022-08-12T08:12:25Z</time>
      </trkpt>
      <trkpt lat="44.83095" lon="1.0709">
        <ele>105.4</ele>
        <time>2022-08-12T08:12:29Z</time>
      </trkpt>
      <trkpt lat="44.8309" lon="1.07088">
        <ele>107.4</ele>
        <time>2022-08-12T08:12:33Z</time>
      </trkpt>
      <trkpt lat="44.83086" lon="1.07085">
        <ele>110.4</ele>
        <time>2022-08-12T08:12:37Z</time>
      </trkpt>
      <trkpt lat="44.83082" lon="1.07081">
        <ele>109.4</ele>
        <time>2022-08-12T08:12:42Z</time>
      </trkpt>
      <trkpt lat="44.83077" lon="1.07078">
        <ele>110.4</ele>
        <time>2022-08-12T08:12:46Z</time>
      </trkpt>
      <trkpt lat="44.83072" lon="1.07074">
        <ele>111.4</ele>
        <time>2022-08-12T08:12:50Z</time>
      </trkpt>
      <trkpt lat="44.83067" lon="1.07071">
        <ele>112.4</ele>
        <time>2022-08-12T08:12:54Z</time>
      </trkpt>
      <trkpt lat="44.83062" lon="1.07069">
        <ele>114.4</ele>
        <time>2022-08-12T08:12:58Z</time>
      </trkpt>
      <trkpt lat="44.83057" lon="1.07068">
        <ele>116.4</ele>
        <time>2022-08-12T08:13:03Z</time>
      </trkpt>
      <trkpt lat="44.83053" lon="1.0707">
        <ele>118.4</ele>
        <time>2022-08-12T08:13:08Z</time>
      </trkpt>
      <trkpt lat="44.83048" lon="1.07073">
        <ele>121.4</ele>
        <time>2022-08-12T08:13:14Z</time>
      </trkpt>
      <trkpt lat="44.83045" lon="1.07078">
        <ele>122.4</ele>
        <time>2022-08-12T08:13:18Z</time>
      </trkpt>
      <trkpt lat="44.83041" lon="1.07085">
        <ele>122.4</ele>
        <time>2022-08-12T08:13:23Z</time>
      </trkpt>
      <trkpt lat="44.8304" lon="1.07093">
        <ele>123.4</ele>
        <time>2022-08-12T08:13:27Z</time>
      </trkpt>
      <trkpt lat="44.83038" lon="1.07099">
        <ele>124.4</ele>
        <time>2022-08-12T08:13:31Z</time>
      </trkpt>
      <trkpt lat="44.83036" lon="1.07105">
        <ele>124.4</ele>
        <time>2022-08-12T08:13:34Z</time>
      </trkpt>
      <trkpt lat="44.83035" lon="1.07112">
        <ele>123.4</ele>
        <time>2022-08-12T08:13:38Z</time>
      </trkpt>
      <trkpt lat="44.83033" lon="1.07118">
        <ele>124.4</ele>
        <time>2022-08-12T08:13:42Z</time>
      </trkpt>
      <trkpt lat="44.83031" lon="1.07124">
        <ele>125.4</ele>
        <time>2022-08-12T08:13:46Z</time>
      </trkpt>
      <trkpt lat="44.8303" lon="1.07131">
        <ele>124.4</ele>
        <time>2022-08-12T08:13:50Z</time>
      </trkpt>
      <trkpt lat="44.83029" lon="1.07138">
        <ele>124.4</ele>
        <time>2022-08-12T08:13:54Z</time>
      </trkpt>
      <trkpt lat="44.83029" lon="1.07146">
        <ele>124.4</ele>
        <time>2022-08-12T08:13:58Z</time>
      </trkpt>
      <trkpt lat="44.83029" lon="1.07152">
        <ele>123.4</ele>
        <time>2022-08-12T08:14:02Z</time>
      </trkpt>
      <trkpt lat="44.83027" lon="1.0716">
        <ele>124.4</ele>
        <time>2022-08-12T08:14:07Z</time>
      </trkpt>
      <trkpt lat="44.83028" lon="1.07167">
        <ele>125.4</ele>
        <time>2022-08-12T08:14:11Z</time>
      </trkpt>
      <trkpt lat="44.83027" lon="1.07174">
        <ele>124.4</ele>
        <time>2022-08-12T08:14:14Z</time>
      </trkpt>
      <trkpt lat="44.83028" lon="1.0718">
        <ele>124.4</ele>
        <time>2022-08-12T08:14:18Z</time>
      </trkpt>
      <trkpt lat="44.8303" lon="1.07188">
        <ele>126.4</ele>
        <time>2022-08-12T08:14:22Z</time>
      </trkpt>
      <trkpt lat="44.83029" lon="1.07195">
        <ele>126.4</ele>
        <time>2022-08-12T08:14:26Z</time>
      </trkpt>
      <trkpt lat="44.8303" lon="1.07202">
        <ele>126.4</ele>
        <time>2022-08-12T08:14:30Z</time>
      </trkpt>
      <trkpt lat="44.83029" lon="1.07209">
        <ele>127.4</ele>
        <time>2022-08-12T08:14:34Z</time>
      </trkpt>
      <trkpt lat="44.83028" lon="1.07216">
        <ele>130.4</ele>
        <time>2022-08-12T08:14:39Z</time>
      </trkpt>
      <trkpt lat="44.83027" lon="1.07223">
        <ele>132.4</ele>
        <time>2022-08-12T08:14:43Z</time>
      </trkpt>
      <trkpt lat="44.83026" lon="1.0723">
        <ele>133.4</ele>
        <time>2022-08-12T08:14:47Z</time>
      </trkpt>
      <trkpt lat="44.83023" lon="1.07235">
        <ele>142.4</ele>
        <time>2022-08-12T08:15:28Z</time>
      </trkpt>
      <trkpt lat="44.83021" lon="1.07241">
        <ele>143.4</ele>
        <time>2022-08-12T08:15:36Z</time>
      </trkpt>
      <trkpt lat="44.83021" lon="1.07249">
        <ele>143.4</ele>
        <time>2022-08-12T08:15:40Z</time>
      </trkpt>
      <trkpt lat="44.83018" lon="1.07256">
        <ele>145.4</ele>
        <time>2022-08-12T08:15:45Z</time>
      </trkpt>
      <trkpt lat="44.83015" lon="1.0726">
        <ele>146.4</ele>
        <time>2022-08-12T08:15:49Z</time>
      </trkpt>
      <trkpt lat="44.83011" lon="1.07266">
        <ele>146.4</ele>
        <time>2022-08-12T08:15:53Z</time>
      </trkpt>
      <trkpt lat="44.83009" lon="1.07272">
        <ele>146.4</ele>
        <time>2022-08-12T08:15:57Z</time>
      </trkpt>
      <trkpt lat="44.83006" lon="1.07277">
        <ele>147.4</ele>
        <time>2022-08-12T08:16:01Z</time>
      </trkpt>
      <trkpt lat="44.83002" lon="1.07282">
        <ele>146.4</ele>
        <time>2022-08-12T08:16:05Z</time>
      </trkpt>
      <trkpt lat="44.82998" lon="1.07287">
        <ele>147.4</ele>
        <time>2022-08-12T08:16:09Z</time>
      </trkpt>
      <trkpt lat="44.82994" lon="1.07292">
        <ele>147.4</ele>
        <time>2022-08-12T08:16:13Z</time>
      </trkpt>
      <trkpt lat="44.82989" lon="1.07297">
        <ele>146.4</ele>
        <time>2022-08-12T08:16:17Z</time>
      </trkpt>
      <trkpt lat="44.82986" lon="1.07301">
        <ele>145.4</ele>
        <time>2022-08-12T08:16:21Z</time>
      </trkpt>
      <trkpt lat="44.82982" lon="1.07307">
        <ele>145.4</ele>
        <time>2022-08-12T08:16:25Z</time>
      </trkpt>
      <trkpt lat="44.82977" lon="1.0731">
        <ele>146.4</ele>
        <time>2022-08-12T08:16:28Z</time>
      </trkpt>
      <trkpt lat="44.82972" lon="1.07314">
        <ele>145.4</ele>
        <time>2022-08-12T08:16:33Z</time>
      </trkpt>
      <trkpt lat="44.82968" lon="1.07319">
        <ele>145.4</ele>
        <time>2022-08-12T08:16:36Z</time>
      </trkpt>
      <trkpt lat="44.82963" lon="1.07322">
        <ele>145.4</ele>
        <time>2022-08-12T08:16:40Z</time>
      </trkpt>
      <trkpt lat="44.82958" lon="1.07326">
        <ele>145.4</ele>
        <time>2022-08-12T08:16:44Z</time>
      </trkpt>
      <trkpt lat="44.82953" lon="1.0733">
        <ele>144.4</ele>
        <time>2022-08-12T08:16:47Z</time>
      </trkpt>
      <trkpt lat="44.82949" lon="1.07332">
        <ele>143.4</ele>
        <time>2022-08-12T08:16:51Z</time>
      </trkpt>
      <trkpt lat="44.82944" lon="1.07334">
        <ele>143.4</ele>
        <time>2022-08-12T08:16:55Z</time>
      </trkpt>
      <trkpt lat="44.82939" lon="1.07337">
        <ele>144.4</ele>
        <time>2022-08-12T08:16:59Z</time>
      </trkpt>
      <trkpt lat="44.82934" lon="1.07339">
        <ele>144.4</ele>
        <time>2022-08-12T08:17:03Z</time>
      </trkpt>
      <trkpt lat="44.82929" lon="1.07342">
        <ele>146.4</ele>
        <time>2022-08-12T08:17:07Z</time>
      </trkpt>
      <trkpt lat="44.82924" lon="1.07344">
        <ele>146.4</ele>
        <time>2022-08-12T08:17:11Z</time>
      </trkpt>
      <trkpt lat="44.82918" lon="1.07344">
        <ele>146.4</ele>
        <time>2022-08-12T08:17:15Z</time>
      </trkpt>
      <trkpt lat="44.82914" lon="1.0734">
        <ele>147.4</ele>
        <time>2022-08-12T08:17:20Z</time>
      </trkpt>
      <trkpt lat="44.82911" lon="1.07333">
        <ele>147.4</ele>
        <time>2022-08-12T08:17:25Z</time>
      </trkpt>
      <trkpt lat="44.82909" lon="1.07326">
        <ele>146.4</ele>
        <time>2022-08-12T08:17:28Z</time>
      </trkpt>
      <trkpt lat="44.82908" lon="1.0732">
        <ele>146.4</ele>
        <time>2022-08-12T08:17:31Z</time>
      </trkpt>
      <trkpt lat="44.82907" lon="1.07312">
        <ele>147.4</ele>
        <time>2022-08-12T08:17:35Z</time>
      </trkpt>
      <trkpt lat="44.82907" lon="1.07304">
        <ele>147.4</ele>
        <time>2022-08-12T08:17:39Z</time>
      </trkpt>
      <trkpt lat="44.82909" lon="1.07298">
        <ele>148.4</ele>
        <time>2022-08-12T08:17:42Z</time>
      </trkpt>
      <trkpt lat="44.82909" lon="1.0729">
        <ele>148.4</ele>
        <time>2022-08-12T08:17:46Z</time>
      </trkpt>
      <trkpt lat="44.8291" lon="1.07282">
        <ele>149.4</ele>
        <time>2022-08-12T08:17:50Z</time>
      </trkpt>
      <trkpt lat="44.82908" lon="1.07276">
        <ele>150.4</ele>
        <time>2022-08-12T08:17:55Z</time>
      </trkpt>
      <trkpt lat="44.82903" lon="1.07274">
        <ele>152.4</ele>
        <time>2022-08-12T08:18:00Z</time>
      </trkpt>
      <trkpt lat="44.82898" lon="1.07276">
        <ele>150.4</ele>
        <time>2022-08-12T08:18:05Z</time>
      </trkpt>
      <trkpt lat="44.82893" lon="1.07272">
        <ele>152.4</ele>
        <time>2022-08-12T08:18:09Z</time>
      </trkpt>
      <trkpt lat="44.82888" lon="1.0727">
        <ele>153.4</ele>
        <time>2022-08-12T08:18:13Z</time>
      </trkpt>
      <trkpt lat="44.82884" lon="1.0727">
        <ele>154.4</ele>
        <time>2022-08-12T08:18:16Z</time>
      </trkpt>
      <trkpt lat="44.82879" lon="1.0727">
        <ele>154.4</ele>
        <time>2022-08-12T08:18:20Z</time>
      </trkpt>
      <trkpt lat="44.82874" lon="1.0727">
        <ele>154.4</ele>
        <time>2022-08-12T08:18:23Z</time>
      </trkpt>
      <trkpt lat="44.82868" lon="1.0727">
        <ele>156.4</ele>
        <time>2022-08-12T08:18:27Z</time>
      </trkpt>
      <trkpt lat="44.82864" lon="1.07269">
        <ele>157.4</ele>
        <time>2022-08-12T08:18:30Z</time>
      </trkpt>
      <trkpt lat="44.82858" lon="1.07267">
        <ele>158.4</ele>
        <time>2022-08-12T08:18:34Z</time>
      </trkpt>
      <trkpt lat="44.82853" lon="1.07266">
        <ele>160.4</ele>
        <time>2022-08-12T08:18:38Z</time>
      </trkpt>
      <trkpt lat="44.82847" lon="1.07265">
        <ele>160.4</ele>
        <time>2022-08-12T08:18:42Z</time>
      </trkpt>
      <trkpt lat="44.82841" lon="1.07263">
        <ele>159.4</ele>
        <time>2022-08-12T08:18:46Z</time>
      </trkpt>
      <trkpt lat="44.82836" lon="1.07262">
        <ele>161.4</ele>
        <time>2022-08-12T08:18:49Z</time>
      </trkpt>
      <trkpt lat="44.82831" lon="1.0726">
        <ele>161.4</ele>
        <time>2022-08-12T08:18:53Z</time>
      </trkpt>
      <trkpt lat="44.82826" lon="1.07258">
        <ele>162.4</ele>
        <time>2022-08-12T08:18:57Z</time>
      </trkpt>
      <trkpt lat="44.8282" lon="1.07256">
        <ele>163.4</ele>
        <time>2022-08-12T08:19:01Z</time>
      </trkpt>
      <trkpt lat="44.82814" lon="1.07254">
        <ele>164.4</ele>
        <time>2022-08-12T08:19:05Z</time>
      </trkpt>
      <trkpt lat="44.82809" lon="1.07252">
        <ele>165.4</ele>
        <time>2022-08-12T08:19:09Z</time>
      </trkpt>
      <trkpt lat="44.82804" lon="1.07251">
        <ele>165.4</ele>
        <time>2022-08-12T08:19:13Z</time>
      </trkpt>
      <trkpt lat="44.82799" lon="1.07248">
        <ele>163.4</ele>
        <time>2022-08-12T08:19:17Z</time>
      </trkpt>
      <trkpt lat="44.82795" lon="1.07245">
        <ele>163.4</ele>
        <time>2022-08-12T08:19:20Z</time>
      </trkpt>
      <trkpt lat="44.82789" lon="1.07242">
        <ele>163.4</ele>
        <time>2022-08-12T08:19:24Z</time>
      </trkpt>
      <trkpt lat="44.82785" lon="1.07237">
        <ele>165.4</ele>
        <time>2022-08-12T08:19:28Z</time>
      </trkpt>
      <trkpt lat="44.82781" lon="1.07232">
        <ele>165.4</ele>
        <time>2022-08-12T08:19:32Z</time>
      </trkpt>
      <trkpt lat="44.82776" lon="1.07227">
        <ele>165.4</ele>
        <time>2022-08-12T08:19:36Z</time>
      </trkpt>
      <trkpt lat="44.82772" lon="1.07224">
        <ele>166.4</ele>
        <time>2022-08-12T08:19:39Z</time>
      </trkpt>
      <trkpt lat="44.82768" lon="1.0722">
        <ele>167.4</ele>
        <time>2022-08-12T08:19:43Z</time>
      </trkpt>
      <trkpt lat="44.82762" lon="1.07217">
        <ele>168.4</ele>
        <time>2022-08-12T08:19:47Z</time>
      </trkpt>
      <trkpt lat="44.82758" lon="1.07215">
        <ele>169.4</ele>
        <time>2022-08-12T08:19:51Z</time>
      </trkpt>
      <trkpt lat="44.82753" lon="1.07212">
        <ele>170.4</ele>
        <time>2022-08-12T08:19:55Z</time>
      </trkpt>
      <trkpt lat="44.82747" lon="1.0721">
        <ele>171.4</ele>
        <time>2022-08-12T08:19:59Z</time>
      </trkpt>
      <trkpt lat="44.82742" lon="1.07208">
        <ele>171.4</ele>
        <time>2022-08-12T08:20:03Z</time>
      </trkpt>
      <trkpt lat="44.82738" lon="1.07208">
        <ele>172.4</ele>
        <time>2022-08-12T08:20:07Z</time>
      </trkpt>
      <trkpt lat="44.82733" lon="1.07208">
        <ele>173.4</ele>
        <time>2022-08-12T08:20:11Z</time>
      </trkpt>
      <trkpt lat="44.82727" lon="1.07208">
        <ele>172.4</ele>
        <time>2022-08-12T08:20:15Z</time>
      </trkpt>
      <trkpt lat="44.82722" lon="1.07209">
        <ele>173.4</ele>
        <time>2022-08-12T08:20:18Z</time>
      </trkpt>
      <trkpt lat="44.82716" lon="1.07211">
        <ele>173.4</ele>
        <time>2022-08-12T08:20:23Z</time>
      </trkpt>
      <trkpt lat="44.82711" lon="1.07212">
        <ele>173.4</ele>
        <time>2022-08-12T08:20:27Z</time>
      </trkpt>
      <trkpt lat="44.82706" lon="1.07212">
        <ele>173.4</ele>
        <time>2022-08-12T08:20:31Z</time>
      </trkpt>
      <trkpt lat="44.82701" lon="1.07213">
        <ele>173.4</ele>
        <time>2022-08-12T08:20:35Z</time>
      </trkpt>
      <trkpt lat="44.82696" lon="1.07214">
        <ele>172.4</ele>
        <time>2022-08-12T08:20:39Z</time>
      </trkpt>
      <trkpt lat="44.82691" lon="1.07213">
        <ele>173.4</ele>
        <time>2022-08-12T08:20:45Z</time>
      </trkpt>
      <trkpt lat="44.82686" lon="1.07213">
        <ele>174.4</ele>
        <time>2022-08-12T08:20:49Z</time>
      </trkpt>
      <trkpt lat="44.82681" lon="1.07214">
        <ele>177.4</ele>
        <time>2022-08-12T08:20:54Z</time>
      </trkpt>
      <trkpt lat="44.82676" lon="1.07215">
        <ele>178.4</ele>
        <time>2022-08-12T08:20:58Z</time>
      </trkpt>
      <trkpt lat="44.8267" lon="1.07218">
        <ele>177.4</ele>
        <time>2022-08-12T08:21:03Z</time>
      </trkpt>
      <trkpt lat="44.82665" lon="1.07215">
        <ele>181.4</ele>
        <time>2022-08-12T08:21:39Z</time>
      </trkpt>
      <trkpt lat="44.8266" lon="1.07214">
        <ele>185.4</ele>
        <time>2022-08-12T08:21:45Z</time>
      </trkpt>
      <trkpt lat="44.82655" lon="1.07213">
        <ele>186.4</ele>
        <time>2022-08-12T08:21:50Z</time>
      </trkpt>
      <trkpt lat="44.8265" lon="1.07209">
        <ele>185.4</ele>
        <time>2022-08-12T08:21:54Z</time>
      </trkpt>
      <trkpt lat="44.82645" lon="1.07207">
        <ele>186.4</ele>
        <time>2022-08-12T08:21:59Z</time>
      </trkpt>
      <trkpt lat="44.8264" lon="1.07206">
        <ele>187.4</ele>
        <time>2022-08-12T08:22:05Z</time>
      </trkpt>
      <trkpt lat="44.82636" lon="1.07203">
        <ele>188.4</ele>
        <time>2022-08-12T08:22:11Z</time>
      </trkpt>
      <trkpt lat="44.82631" lon="1.072">
        <ele>189.4</ele>
        <time>2022-08-12T08:22:18Z</time>
      </trkpt>
      <trkpt lat="44.82627" lon="1.07196">
        <ele>188.4</ele>
        <time>2022-08-12T08:22:24Z</time>
      </trkpt>
      <trkpt lat="44.82623" lon="1.07193">
        <ele>188.4</ele>
        <time>2022-08-12T08:22:29Z</time>
      </trkpt>
      <trkpt lat="44.82618" lon="1.07191">
        <ele>189.4</ele>
        <time>2022-08-12T08:22:32Z</time>
      </trkpt>
      <trkpt lat="44.82613" lon="1.07189">
        <ele>189.4</ele>
        <time>2022-08-12T08:22:36Z</time>
      </trkpt>
      <trkpt lat="44.82611" lon="1.07195">
        <ele>191.4</ele>
        <time>2022-08-12T08:22:43Z</time>
      </trkpt>
      <trkpt lat="44.82611" lon="1.07204">
        <ele>191.4</ele>
        <time>2022-08-12T08:22:48Z</time>
      </trkpt>
      <trkpt lat="44.82612" lon="1.0721">
        <ele>190.4</ele>
        <time>2022-08-12T08:22:50Z</time>
      </trkpt>
      <trkpt lat="44.82613" lon="1.07217">
        <ele>189.4</ele>
        <time>2022-08-12T08:22:52Z</time>
      </trkpt>
      <trkpt lat="44.82613" lon="1.07224">
        <ele>188.4</ele>
        <time>2022-08-12T08:22:54Z</time>
      </trkpt>
      <trkpt lat="44.8261" lon="1.07231">
        <ele>188.4</ele>
        <time>2022-08-12T08:22:56Z</time>
      </trkpt>
      <trkpt lat="44.82608" lon="1.07239">
        <ele>187.4</ele>
        <time>2022-08-12T08:22:59Z</time>
      </trkpt>
      <trkpt lat="44.82606" lon="1.07247">
        <ele>187.4</ele>
        <time>2022-08-12T08:23:02Z</time>
      </trkpt>
      <trkpt lat="44.82603" lon="1.07255">
        <ele>187.4</ele>
        <time>2022-08-12T08:23:05Z</time>
      </trkpt>
      <trkpt lat="44.82602" lon="1.07261">
        <ele>187.4</ele>
        <time>2022-08-12T08:23:07Z</time>
      </trkpt>
      <trkpt lat="44.826" lon="1.07267">
        <ele>186.4</ele>
        <time>2022-08-12T08:23:09Z</time>
      </trkpt>
      <trkpt lat="44.82597" lon="1.07274">
        <ele>185.4</ele>
        <time>2022-08-12T08:23:12Z</time>
      </trkpt>
      <trkpt lat="44.82594" lon="1.0728">
        <ele>185.4</ele>
        <time>2022-08-12T08:23:14Z</time>
      </trkpt>
      <trkpt lat="44.82591" lon="1.07288">
        <ele>185.4</ele>
        <time>2022-08-12T08:23:17Z</time>
      </trkpt>
      <trkpt lat="44.82589" lon="1.07295">
        <ele>186.4</ele>
        <time>2022-08-12T08:23:19Z</time>
      </trkpt>
      <trkpt lat="44.82586" lon="1.07301">
        <ele>186.4</ele>
        <time>2022-08-12T08:23:21Z</time>
      </trkpt>
      <trkpt lat="44.82583" lon="1.07307">
        <ele>186.4</ele>
        <time>2022-08-12T08:23:23Z</time>
      </trkpt>
      <trkpt lat="44.82581" lon="1.07314">
        <ele>186.4</ele>
        <time>2022-08-12T08:23:25Z</time>
      </trkpt>
      <trkpt lat="44.82576" lon="1.07324">
        <ele>186.4</ele>
        <time>2022-08-12T08:23:28Z</time>
      </trkpt>
      <trkpt lat="44.82572" lon="1.07332">
        <ele>183.4</ele>
        <time>2022-08-12T08:23:31Z</time>
      </trkpt>
      <trkpt lat="44.8257" lon="1.07338">
        <ele>183.4</ele>
        <time>2022-08-12T08:23:33Z</time>
      </trkpt>
      <trkpt lat="44.82566" lon="1.07346">
        <ele>182.4</ele>
        <time>2022-08-12T08:23:36Z</time>
      </trkpt>
      <trkpt lat="44.82562" lon="1.07352">
        <ele>182.4</ele>
        <time>2022-08-12T08:23:39Z</time>
      </trkpt>
      <trkpt lat="44.8256" lon="1.07358">
        <ele>181.4</ele>
        <time>2022-08-12T08:23:41Z</time>
      </trkpt>
      <trkpt lat="44.82556" lon="1.07363">
        <ele>181.4</ele>
        <time>2022-08-12T08:23:43Z</time>
      </trkpt>
      <trkpt lat="44.82553" lon="1.07368">
        <ele>180.4</ele>
        <time>2022-08-12T08:23:45Z</time>
      </trkpt>
      <trkpt lat="44.82552" lon="1.07375">
        <ele>181.4</ele>
        <time>2022-08-12T08:23:48Z</time>
      </trkpt>
      <trkpt lat="44.8255" lon="1.07381">
        <ele>182.4</ele>
        <time>2022-08-12T08:23:50Z</time>
      </trkpt>
      <trkpt lat="44.82548" lon="1.07392">
        <ele>182.4</ele>
        <time>2022-08-12T08:23:53Z</time>
      </trkpt>
      <trkpt lat="44.82545" lon="1.07399">
        <ele>182.4</ele>
        <time>2022-08-12T08:23:55Z</time>
      </trkpt>
      <trkpt lat="44.82541" lon="1.07406">
        <ele>182.4</ele>
        <time>2022-08-12T08:23:57Z</time>
      </trkpt>
      <trkpt lat="44.82537" lon="1.07414">
        <ele>181.4</ele>
        <time>2022-08-12T08:23:59Z</time>
      </trkpt>
      <trkpt lat="44.82533" lon="1.07422">
        <ele>181.4</ele>
        <time>2022-08-12T08:24:01Z</time>
      </trkpt>
      <trkpt lat="44.82532" lon="1.07429">
        <ele>182.4</ele>
        <time>2022-08-12T08:24:03Z</time>
      </trkpt>
      <trkpt lat="44.8253" lon="1.07437">
        <ele>182.4</ele>
        <time>2022-08-12T08:24:05Z</time>
      </trkpt>
      <trkpt lat="44.82528" lon="1.07445">
        <ele>183.4</ele>
        <time>2022-08-12T08:24:07Z</time>
      </trkpt>
      <trkpt lat="44.82525" lon="1.07452">
        <ele>183.4</ele>
        <time>2022-08-12T08:24:09Z</time>
      </trkpt>
      <trkpt lat="44.82524" lon="1.07459">
        <ele>183.4</ele>
        <time>2022-08-12T08:24:11Z</time>
      </trkpt>
      <trkpt lat="44.82523" lon="1.07465">
        <ele>181.4</ele>
        <time>2022-08-12T08:24:21Z</time>
      </trkpt>
      <trkpt lat="44.82521" lon="1.07475">
        <ele>181.4</ele>
        <time>2022-08-12T08:24:25Z</time>
      </trkpt>
      <trkpt lat="44.82519" lon="1.07483">
        <ele>181.4</ele>
        <time>2022-08-12T08:24:27Z</time>
      </trkpt>
      <trkpt lat="44.82517" lon="1.07489">
        <ele>182.4</ele>
        <time>2022-08-12T08:24:29Z</time>
      </trkpt>
      <trkpt lat="44.82515" lon="1.07496">
        <ele>182.4</ele>
        <time>2022-08-12T08:24:31Z</time>
      </trkpt>
      <trkpt lat="44.82513" lon="1.07505">
        <ele>183.4</ele>
        <time>2022-08-12T08:24:33Z</time>
      </trkpt>
      <trkpt lat="44.82511" lon="1.07511">
        <ele>184.4</ele>
        <time>2022-08-12T08:24:35Z</time>
      </trkpt>
      <trkpt lat="44.82508" lon="1.07519">
        <ele>186.4</ele>
        <time>2022-08-12T08:24:39Z</time>
      </trkpt>
      <trkpt lat="44.82504" lon="1.07525">
        <ele>186.4</ele>
        <time>2022-08-12T08:24:45Z</time>
      </trkpt>
      <trkpt lat="44.825" lon="1.07528">
        <ele>187.4</ele>
        <time>2022-08-12T08:24:49Z</time>
      </trkpt>
      <trkpt lat="44.82496" lon="1.07534">
        <ele>190.4</ele>
        <time>2022-08-12T08:24:54Z</time>
      </trkpt>
      <trkpt lat="44.82492" lon="1.07536">
        <ele>195.4</ele>
        <time>2022-08-12T08:24:59Z</time>
      </trkpt>
      <trkpt lat="44.82487" lon="1.07539">
        <ele>200.4</ele>
        <time>2022-08-12T08:25:13Z</time>
      </trkpt>
      <trkpt lat="44.82483" lon="1.07541">
        <ele>200.4</ele>
        <time>2022-08-12T08:28:01Z</time>
      </trkpt>
      <trkpt lat="44.82479" lon="1.07537">
        <ele>202.4</ele>
        <time>2022-08-12T08:28:07Z</time>
      </trkpt>
      <trkpt lat="44.82474" lon="1.07534">
        <ele>205.4</ele>
        <time>2022-08-12T08:28:14Z</time>
      </trkpt>
      <trkpt lat="44.82469" lon="1.07531">
        <ele>203.4</ele>
        <time>2022-08-12T08:28:18Z</time>
      </trkpt>
      <trkpt lat="44.82465" lon="1.07528">
        <ele>202.4</ele>
        <time>2022-08-12T08:28:23Z</time>
      </trkpt>
      <trkpt lat="44.8246" lon="1.07526">
        <ele>202.4</ele>
        <time>2022-08-12T08:28:29Z</time>
      </trkpt>
      <trkpt lat="44.82456" lon="1.07525">
        <ele>202.4</ele>
        <time>2022-08-12T08:28:33Z</time>
      </trkpt>
      <trkpt lat="44.8245" lon="1.07523">
        <ele>201.4</ele>
        <time>2022-08-12T08:28:38Z</time>
      </trkpt>
      <trkpt lat="44.82448" lon="1.07529">
        <ele>202.4</ele>
        <time>2022-08-12T08:28:53Z</time>
      </trkpt>
      <trkpt lat="44.82447" lon="1.07535">
        <ele>202.4</ele>
        <time>2022-08-12T08:28:56Z</time>
      </trkpt>
      <trkpt lat="44.82444" lon="1.07543">
        <ele>203.4</ele>
        <time>2022-08-12T08:28:59Z</time>
      </trkpt>
      <trkpt lat="44.82442" lon="1.07552">
        <ele>204.4</ele>
        <time>2022-08-12T08:29:02Z</time>
      </trkpt>
      <trkpt lat="44.8244" lon="1.07557">
        <ele>204.4</ele>
        <time>2022-08-12T08:29:04Z</time>
      </trkpt>
      <trkpt lat="44.82438" lon="1.07564">
        <ele>203.4</ele>
        <time>2022-08-12T08:29:06Z</time>
      </trkpt>
      <trkpt lat="44.82435" lon="1.0757">
        <ele>203.4</ele>
        <time>2022-08-12T08:29:08Z</time>
      </trkpt>
      <trkpt lat="44.82432" lon="1.07577">
        <ele>203.4</ele>
        <time>2022-08-12T08:29:11Z</time>
      </trkpt>
      <trkpt lat="44.8243" lon="1.07584">
        <ele>204.4</ele>
        <time>2022-08-12T08:29:14Z</time>
      </trkpt>
      <trkpt lat="44.82427" lon="1.07593">
        <ele>205.4</ele>
        <time>2022-08-12T08:29:18Z</time>
      </trkpt>
      <trkpt lat="44.82425" lon="1.07601">
        <ele>206.4</ele>
        <time>2022-08-12T08:29:21Z</time>
      </trkpt>
      <trkpt lat="44.82423" lon="1.07608">
        <ele>205.4</ele>
        <time>2022-08-12T08:29:24Z</time>
      </trkpt>
      <trkpt lat="44.82423" lon="1.07617">
        <ele>204.4</ele>
        <time>2022-08-12T08:29:26Z</time>
      </trkpt>
      <trkpt lat="44.82423" lon="1.07627">
        <ele>204.4</ele>
        <time>2022-08-12T08:29:28Z</time>
      </trkpt>
      <trkpt lat="44.82422" lon="1.07639">
        <ele>203.4</ele>
        <time>2022-08-12T08:29:30Z</time>
      </trkpt>
      <trkpt lat="44.82419" lon="1.07647">
        <ele>202.4</ele>
        <time>2022-08-12T08:29:31Z</time>
      </trkpt>
      <trkpt lat="44.82416" lon="1.07654">
        <ele>202.4</ele>
        <time>2022-08-12T08:29:32Z</time>
      </trkpt>
      <trkpt lat="44.82414" lon="1.07661">
        <ele>202.4</ele>
        <time>2022-08-12T08:29:33Z</time>
      </trkpt>
      <trkpt lat="44.82411" lon="1.07667">
        <ele>200.4</ele>
        <time>2022-08-12T08:29:34Z</time>
      </trkpt>
      <trkpt lat="44.82408" lon="1.07673">
        <ele>200.4</ele>
        <time>2022-08-12T08:29:35Z</time>
      </trkpt>
      <trkpt lat="44.82406" lon="1.0768">
        <ele>201.4</ele>
        <time>2022-08-12T08:29:36Z</time>
      </trkpt>
      <trkpt lat="44.82404" lon="1.07686">
        <ele>201.4</ele>
        <time>2022-08-12T08:29:37Z</time>
      </trkpt>
      <trkpt lat="44.82403" lon="1.07693">
        <ele>200.4</ele>
        <time>2022-08-12T08:29:38Z</time>
      </trkpt>
      <trkpt lat="44.82402" lon="1.07701">
        <ele>200.4</ele>
        <time>2022-08-12T08:29:39Z</time>
      </trkpt>
      <trkpt lat="44.82401" lon="1.07708">
        <ele>201.4</ele>
        <time>2022-08-12T08:29:40Z</time>
      </trkpt>
      <trkpt lat="44.824" lon="1.07716">
        <ele>201.4</ele>
        <time>2022-08-12T08:29:41Z</time>
      </trkpt>
      <trkpt lat="44.82398" lon="1.07723">
        <ele>201.4</ele>
        <time>2022-08-12T08:29:42Z</time>
      </trkpt>
      <trkpt lat="44.82396" lon="1.07731">
        <ele>201.4</ele>
        <time>2022-08-12T08:29:43Z</time>
      </trkpt>
      <trkpt lat="44.82394" lon="1.07739">
        <ele>201.4</ele>
        <time>2022-08-12T08:29:44Z</time>
      </trkpt>
      <trkpt lat="44.82392" lon="1.07747">
        <ele>201.4</ele>
        <time>2022-08-12T08:29:45Z</time>
      </trkpt>
      <trkpt lat="44.8239" lon="1.07758">
        <ele>201.4</ele>
        <time>2022-08-12T08:29:47Z</time>
      </trkpt>
      <trkpt lat="44.82387" lon="1.07765">
        <ele>200.4</ele>
        <time>2022-08-12T08:29:48Z</time>
      </trkpt>
      <trkpt lat="44.82383" lon="1.07773">
        <ele>199.4</ele>
        <time>2022-08-12T08:29:49Z</time>
      </trkpt>
      <trkpt lat="44.8238" lon="1.07781">
        <ele>199.4</ele>
        <time>2022-08-12T08:29:50Z</time>
      </trkpt>
      <trkpt lat="44.82376" lon="1.07788">
        <ele>198.4</ele>
        <time>2022-08-12T08:29:51Z</time>
      </trkpt>
      <trkpt lat="44.82373" lon="1.07797">
        <ele>198.4</ele>
        <time>2022-08-12T08:29:52Z</time>
      </trkpt>
      <trkpt lat="44.82371" lon="1.07805">
        <ele>197.4</ele>
        <time>2022-08-12T08:29:53Z</time>
      </trkpt>
      <trkpt lat="44.8237" lon="1.07811">
        <ele>196.4</ele>
        <time>2022-08-12T08:29:54Z</time>
      </trkpt>
      <trkpt lat="44.8237" lon="1.07819">
        <ele>196.4</ele>
        <time>2022-08-12T08:29:55Z</time>
      </trkpt>
      <trkpt lat="44.82372" lon="1.07829">
        <ele>196.4</ele>
        <time>2022-08-12T08:29:56Z</time>
      </trkpt>
      <trkpt lat="44.82374" lon="1.07835">
        <ele>196.4</ele>
        <time>2022-08-12T08:29:57Z</time>
      </trkpt>
      <trkpt lat="44.82377" lon="1.0784">
        <ele>196.4</ele>
        <time>2022-08-12T08:29:58Z</time>
      </trkpt>
      <trkpt lat="44.82381" lon="1.07849">
        <ele>195.4</ele>
        <time>2022-08-12T08:30:00Z</time>
      </trkpt>
      <trkpt lat="44.82385" lon="1.07859">
        <ele>194.4</ele>
        <time>2022-08-12T08:30:02Z</time>
      </trkpt>
      <trkpt lat="44.82387" lon="1.07865">
        <ele>193.4</ele>
        <time>2022-08-12T08:30:03Z</time>
      </trkpt>
      <trkpt lat="44.82389" lon="1.07872">
        <ele>193.4</ele>
        <time>2022-08-12T08:30:04Z</time>
      </trkpt>
      <trkpt lat="44.82393" lon="1.07881">
        <ele>192.4</ele>
        <time>2022-08-12T08:30:06Z</time>
      </trkpt>
      <trkpt lat="44.82395" lon="1.07887">
        <ele>190.4</ele>
        <time>2022-08-12T08:30:11Z</time>
      </trkpt>
      <trkpt lat="44.82401" lon="1.07895">
        <ele>188.4</ele>
        <time>2022-08-12T08:30:23Z</time>
      </trkpt>
      <trkpt lat="44.82406" lon="1.07902">
        <ele>187.4</ele>
        <time>2022-08-12T08:30:25Z</time>
      </trkpt>
      <trkpt lat="44.82409" lon="1.0791">
        <ele>186.4</ele>
        <time>2022-08-12T08:30:27Z</time>
      </trkpt>
      <trkpt lat="44.82413" lon="1.0792">
        <ele>185.4</ele>
        <time>2022-08-12T08:30:29Z</time>
      </trkpt>
      <trkpt lat="44.82417" lon="1.07927">
        <ele>185.4</ele>
        <time>2022-08-12T08:30:30Z</time>
      </trkpt>
      <trkpt lat="44.82421" lon="1.07932">
        <ele>184.4</ele>
        <time>2022-08-12T08:30:31Z</time>
      </trkpt>
      <trkpt lat="44.82425" lon="1.07937">
        <ele>184.4</ele>
        <time>2022-08-12T08:30:32Z</time>
      </trkpt>
      <trkpt lat="44.82428" lon="1.07943">
        <ele>185.4</ele>
        <time>2022-08-12T08:30:33Z</time>
      </trkpt>
      <trkpt lat="44.8243" lon="1.0795">
        <ele>185.4</ele>
        <time>2022-08-12T08:30:34Z</time>
      </trkpt>
      <trkpt lat="44.82431" lon="1.07958">
        <ele>185.4</ele>
        <time>2022-08-12T08:30:35Z</time>
      </trkpt>
      <trkpt lat="44.82431" lon="1.07965">
        <ele>185.4</ele>
        <time>2022-08-12T08:30:36Z</time>
      </trkpt>
      <trkpt lat="44.82431" lon="1.07973">
        <ele>185.4</ele>
        <time>2022-08-12T08:30:37Z</time>
      </trkpt>
      <trkpt lat="44.82429" lon="1.07981">
        <ele>184.4</ele>
        <time>2022-08-12T08:30:38Z</time>
      </trkpt>
      <trkpt lat="44.82426" lon="1.07988">
        <ele>183.4</ele>
        <time>2022-08-12T08:30:39Z</time>
      </trkpt>
      <trkpt lat="44.82423" lon="1.07993">
        <ele>183.4</ele>
        <time>2022-08-12T08:30:40Z</time>
      </trkpt>
      <trkpt lat="44.82419" lon="1.07998">
        <ele>182.4</ele>
        <time>2022-08-12T08:30:41Z</time>
      </trkpt>
      <trkpt lat="44.82415" lon="1.08002">
        <ele>182.4</ele>
        <time>2022-08-12T08:30:42Z</time>
      </trkpt>
      <trkpt lat="44.82409" lon="1.08012">
        <ele>181.4</ele>
        <time>2022-08-12T08:30:44Z</time>
      </trkpt>
      <trkpt lat="44.82407" lon="1.08018">
        <ele>181.4</ele>
        <time>2022-08-12T08:30:45Z</time>
      </trkpt>
      <trkpt lat="44.82405" lon="1.08025">
        <ele>180.4</ele>
        <time>2022-08-12T08:30:46Z</time>
      </trkpt>
      <trkpt lat="44.82402" lon="1.08035">
        <ele>180.4</ele>
        <time>2022-08-12T08:30:48Z</time>
      </trkpt>
      <trkpt lat="44.824" lon="1.08043">
        <ele>180.4</ele>
        <time>2022-08-12T08:30:50Z</time>
      </trkpt>
      <trkpt lat="44.82401" lon="1.08052">
        <ele>179.4</ele>
        <time>2022-08-12T08:30:52Z</time>
      </trkpt>
      <trkpt lat="44.82401" lon="1.08059">
        <ele>178.4</ele>
        <time>2022-08-12T08:30:54Z</time>
      </trkpt>
      <trkpt lat="44.824" lon="1.08069">
        <ele>178.4</ele>
        <time>2022-08-12T08:30:56Z</time>
      </trkpt>
      <trkpt lat="44.82398" lon="1.08081">
        <ele>177.4</ele>
        <time>2022-08-12T08:30:58Z</time>
      </trkpt>
      <trkpt lat="44.82397" lon="1.08094">
        <ele>176.4</ele>
        <time>2022-08-12T08:31:00Z</time>
      </trkpt>
      <trkpt lat="44.82397" lon="1.08105">
        <ele>175.4</ele>
        <time>2022-08-12T08:31:02Z</time>
      </trkpt>
      <trkpt lat="44.82397" lon="1.08118">
        <ele>173.4</ele>
        <time>2022-08-12T08:31:04Z</time>
      </trkpt>
      <trkpt lat="44.82396" lon="1.08125">
        <ele>172.4</ele>
        <time>2022-08-12T08:31:05Z</time>
      </trkpt>
      <trkpt lat="44.82395" lon="1.08132">
        <ele>171.4</ele>
        <time>2022-08-12T08:31:06Z</time>
      </trkpt>
      <trkpt lat="44.82392" lon="1.08141">
        <ele>170.4</ele>
        <time>2022-08-12T08:31:08Z</time>
      </trkpt>
      <trkpt lat="44.82393" lon="1.08153">
        <ele>169.4</ele>
        <time>2022-08-12T08:31:10Z</time>
      </trkpt>
      <trkpt lat="44.82394" lon="1.0816">
        <ele>168.4</ele>
        <time>2022-08-12T08:31:11Z</time>
      </trkpt>
      <trkpt lat="44.82394" lon="1.08167">
        <ele>166.4</ele>
        <time>2022-08-12T08:31:12Z</time>
      </trkpt>
      <trkpt lat="44.82394" lon="1.08178">
        <ele>164.4</ele>
        <time>2022-08-12T08:31:14Z</time>
      </trkpt>
      <trkpt lat="44.82394" lon="1.08191">
        <ele>162.4</ele>
        <time>2022-08-12T08:31:16Z</time>
      </trkpt>
      <trkpt lat="44.82395" lon="1.08203">
        <ele>161.4</ele>
        <time>2022-08-12T08:31:18Z</time>
      </trkpt>
      <trkpt lat="44.82397" lon="1.08215">
        <ele>160.4</ele>
        <time>2022-08-12T08:31:20Z</time>
      </trkpt>
      <trkpt lat="44.82396" lon="1.08227">
        <ele>158.4</ele>
        <time>2022-08-12T08:31:22Z</time>
      </trkpt>
      <trkpt lat="44.82394" lon="1.08234">
        <ele>157.4</ele>
        <time>2022-08-12T08:31:23Z</time>
      </trkpt>
      <trkpt lat="44.82393" lon="1.0824">
        <ele>156.4</ele>
        <time>2022-08-12T08:31:24Z</time>
      </trkpt>
      <trkpt lat="44.82392" lon="1.08247">
        <ele>155.4</ele>
        <time>2022-08-12T08:31:25Z</time>
      </trkpt>
      <trkpt lat="44.82391" lon="1.08254">
        <ele>154.4</ele>
        <time>2022-08-12T08:31:26Z</time>
      </trkpt>
      <trkpt lat="44.8239" lon="1.08262">
        <ele>154.4</ele>
        <time>2022-08-12T08:31:27Z</time>
      </trkpt>
      <trkpt lat="44.82389" lon="1.08268">
        <ele>152.4</ele>
        <time>2022-08-12T08:31:28Z</time>
      </trkpt>
      <trkpt lat="44.82387" lon="1.08275">
        <ele>151.4</ele>
        <time>2022-08-12T08:31:29Z</time>
      </trkpt>
      <trkpt lat="44.82386" lon="1.08281">
        <ele>151.4</ele>
        <time>2022-08-12T08:31:30Z</time>
      </trkpt>
      <trkpt lat="44.82385" lon="1.08288">
        <ele>151.4</ele>
        <time>2022-08-12T08:31:31Z</time>
      </trkpt>
      <trkpt lat="44.82384" lon="1.08295">
        <ele>150.4</ele>
        <time>2022-08-12T08:31:32Z</time>
      </trkpt>
      <trkpt lat="44.82383" lon="1.08302">
        <ele>149.4</ele>
        <time>2022-08-12T08:31:33Z</time>
      </trkpt>
      <trkpt lat="44.82382" lon="1.08308">
        <ele>148.4</ele>
        <time>2022-08-12T08:31:34Z</time>
      </trkpt>
      <trkpt lat="44.82379" lon="1.08314">
        <ele>147.4</ele>
        <time>2022-08-12T08:31:35Z</time>
      </trkpt>
      <trkpt lat="44.82374" lon="1.08326">
        <ele>146.4</ele>
        <time>2022-08-12T08:31:37Z</time>
      </trkpt>
      <trkpt lat="44.82371" lon="1.08331">
        <ele>145.4</ele>
        <time>2022-08-12T08:31:38Z</time>
      </trkpt>
      <trkpt lat="44.82368" lon="1.08336">
        <ele>144.4</ele>
        <time>2022-08-12T08:31:39Z</time>
      </trkpt>
      <trkpt lat="44.82365" lon="1.08341">
        <ele>143.4</ele>
        <time>2022-08-12T08:31:40Z</time>
      </trkpt>
      <trkpt lat="44.82362" lon="1.08346">
        <ele>143.4</ele>
        <time>2022-08-12T08:31:41Z</time>
      </trkpt>
      <trkpt lat="44.82359" lon="1.08352">
        <ele>142.4</ele>
        <time>2022-08-12T08:31:42Z</time>
      </trkpt>
      <trkpt lat="44.82354" lon="1.08357">
        <ele>142.4</ele>
        <time>2022-08-12T08:31:43Z</time>
      </trkpt>
      <trkpt lat="44.82349" lon="1.08363">
        <ele>141.4</ele>
        <time>2022-08-12T08:31:44Z</time>
      </trkpt>
      <trkpt lat="44.82345" lon="1.08368">
        <ele>141.4</ele>
        <time>2022-08-12T08:31:45Z</time>
      </trkpt>
      <trkpt lat="44.8234" lon="1.08374">
        <ele>140.4</ele>
        <time>2022-08-12T08:31:46Z</time>
      </trkpt>
      <trkpt lat="44.82336" lon="1.08379">
        <ele>139.4</ele>
        <time>2022-08-12T08:31:47Z</time>
      </trkpt>
      <trkpt lat="44.82332" lon="1.08384">
        <ele>139.4</ele>
        <time>2022-08-12T08:31:48Z</time>
      </trkpt>
      <trkpt lat="44.82329" lon="1.08388">
        <ele>138.4</ele>
        <time>2022-08-12T08:31:49Z</time>
      </trkpt>
      <trkpt lat="44.82326" lon="1.08393">
        <ele>136.4</ele>
        <time>2022-08-12T08:31:50Z</time>
      </trkpt>
      <trkpt lat="44.82321" lon="1.084">
        <ele>135.4</ele>
        <time>2022-08-12T08:31:52Z</time>
      </trkpt>
      <trkpt lat="44.82323" lon="1.08392">
        <ele>133.4</ele>
        <time>2022-08-12T08:32:56Z</time>
      </trkpt>
      <trkpt lat="44.82325" lon="1.08386">
        <ele>131.4</ele>
        <time>2022-08-12T08:33:01Z</time>
      </trkpt>
      <trkpt lat="44.8233" lon="1.08381">
        <ele>130.4</ele>
        <time>2022-08-12T08:33:06Z</time>
      </trkpt>
      <trkpt lat="44.82332" lon="1.08376">
        <ele>129.4</ele>
        <time>2022-08-12T08:33:10Z</time>
      </trkpt>
      <trkpt lat="44.82336" lon="1.08371">
        <ele>132.4</ele>
        <time>2022-08-12T08:33:16Z</time>
      </trkpt>
      <trkpt lat="44.82339" lon="1.08366">
        <ele>132.4</ele>
        <time>2022-08-12T08:33:22Z</time>
      </trkpt>
      <trkpt lat="44.82341" lon="1.0836">
        <ele>132.4</ele>
        <time>2022-08-12T08:33:26Z</time>
      </trkpt>
      <trkpt lat="44.82345" lon="1.08354">
        <ele>131.4</ele>
        <time>2022-08-12T08:33:30Z</time>
      </trkpt>
      <trkpt lat="44.82348" lon="1.08349">
        <ele>131.4</ele>
        <time>2022-08-12T08:33:34Z</time>
      </trkpt>
      <trkpt lat="44.82353" lon="1.08346">
        <ele>131.4</ele>
        <time>2022-08-12T08:33:38Z</time>
      </trkpt>
      <trkpt lat="44.82356" lon="1.0834">
        <ele>131.4</ele>
        <time>2022-08-12T08:33:43Z</time>
      </trkpt>
      <trkpt lat="44.82358" lon="1.08335">
        <ele>131.4</ele>
        <time>2022-08-12T08:33:47Z</time>
      </trkpt>
      <trkpt lat="44.82361" lon="1.08329">
        <ele>130.4</ele>
        <time>2022-08-12T08:33:52Z</time>
      </trkpt>
      <trkpt lat="44.82366" lon="1.08324">
        <ele>129.4</ele>
        <time>2022-08-12T08:33:57Z</time>
      </trkpt>
      <trkpt lat="44.82368" lon="1.08319">
        <ele>130.4</ele>
        <time>2022-08-12T08:34:03Z</time>
      </trkpt>
      <trkpt lat="44.82372" lon="1.08313">
        <ele>131.4</ele>
        <time>2022-08-12T08:34:11Z</time>
      </trkpt>
      <trkpt lat="44.82374" lon="1.08307">
        <ele>132.4</ele>
        <time>2022-08-12T08:34:16Z</time>
      </trkpt>
      <trkpt lat="44.82377" lon="1.08302">
        <ele>132.4</ele>
        <time>2022-08-12T08:34:20Z</time>
      </trkpt>
      <trkpt lat="44.82379" lon="1.08296">
        <ele>132.4</ele>
        <time>2022-08-12T08:34:26Z</time>
      </trkpt>
      <trkpt lat="44.82382" lon="1.0829">
        <ele>131.4</ele>
        <time>2022-08-12T08:34:30Z</time>
      </trkpt>
      <trkpt lat="44.82384" lon="1.08283">
        <ele>135.4</ele>
        <time>2022-08-12T08:34:36Z</time>
      </trkpt>
      <trkpt lat="44.82385" lon="1.08276">
        <ele>137.4</ele>
        <time>2022-08-12T08:34:42Z</time>
      </trkpt>
      <trkpt lat="44.82386" lon="1.08269">
        <ele>138.4</ele>
        <time>2022-08-12T08:34:52Z</time>
      </trkpt>
      <trkpt lat="44.82387" lon="1.08262">
        <ele>142.4</ele>
        <time>2022-08-12T08:34:59Z</time>
      </trkpt>
      <trkpt lat="44.8239" lon="1.08257">
        <ele>146.4</ele>
        <time>2022-08-12T08:35:04Z</time>
      </trkpt>
      <trkpt lat="44.82392" lon="1.08251">
        <ele>151.4</ele>
        <time>2022-08-12T08:35:11Z</time>
      </trkpt>
      <trkpt lat="44.82394" lon="1.08245">
        <ele>153.4</ele>
        <time>2022-08-12T08:35:16Z</time>
      </trkpt>
      <trkpt lat="44.82395" lon="1.08238">
        <ele>154.4</ele>
        <time>2022-08-12T08:35:23Z</time>
      </trkpt>
      <trkpt lat="44.82394" lon="1.08232">
        <ele>154.4</ele>
        <time>2022-08-12T08:35:28Z</time>
      </trkpt>
      <trkpt lat="44.82395" lon="1.08225">
        <ele>154.4</ele>
        <time>2022-08-12T08:35:34Z</time>
      </trkpt>
      <trkpt lat="44.82397" lon="1.08218">
        <ele>156.4</ele>
        <time>2022-08-12T08:35:40Z</time>
      </trkpt>
      <trkpt lat="44.82397" lon="1.08212">
        <ele>154.4</ele>
        <time>2022-08-12T08:35:46Z</time>
      </trkpt>
      <trkpt lat="44.82396" lon="1.08205">
        <ele>153.4</ele>
        <time>2022-08-12T08:35:52Z</time>
      </trkpt>
      <trkpt lat="44.82393" lon="1.08199">
        <ele>153.4</ele>
        <time>2022-08-12T08:35:57Z</time>
      </trkpt>
      <trkpt lat="44.82397" lon="1.08194">
        <ele>152.4</ele>
        <time>2022-08-12T08:36:09Z</time>
      </trkpt>
      <trkpt lat="44.82396" lon="1.08188">
        <ele>152.4</ele>
        <time>2022-08-12T08:36:17Z</time>
      </trkpt>
      <trkpt lat="44.82393" lon="1.08183">
        <ele>152.4</ele>
        <time>2022-08-12T08:36:20Z</time>
      </trkpt>
      <trkpt lat="44.82392" lon="1.08176">
        <ele>154.4</ele>
        <time>2022-08-12T08:36:24Z</time>
      </trkpt>
      <trkpt lat="44.82392" lon="1.08169">
        <ele>157.4</ele>
        <time>2022-08-12T08:36:28Z</time>
      </trkpt>
      <trkpt lat="44.82393" lon="1.08162">
        <ele>159.4</ele>
        <time>2022-08-12T08:36:34Z</time>
      </trkpt>
      <trkpt lat="44.82391" lon="1.08155">
        <ele>160.4</ele>
        <time>2022-08-12T08:36:38Z</time>
      </trkpt>
      <trkpt lat="44.8239" lon="1.08148">
        <ele>162.4</ele>
        <time>2022-08-12T08:36:42Z</time>
      </trkpt>
      <trkpt lat="44.82389" lon="1.0814">
        <ele>164.4</ele>
        <time>2022-08-12T08:36:46Z</time>
      </trkpt>
      <trkpt lat="44.82389" lon="1.08134">
        <ele>166.4</ele>
        <time>2022-08-12T08:36:51Z</time>
      </trkpt>
      <trkpt lat="44.82392" lon="1.08129">
        <ele>165.4</ele>
        <time>2022-08-12T08:36:54Z</time>
      </trkpt>
      <trkpt lat="44.82395" lon="1.08123">
        <ele>165.4</ele>
        <time>2022-08-12T08:36:58Z</time>
      </trkpt>
      <trkpt lat="44.82397" lon="1.08116">
        <ele>166.4</ele>
        <time>2022-08-12T08:37:02Z</time>
      </trkpt>
      <trkpt lat="44.82397" lon="1.08109">
        <ele>166.4</ele>
        <time>2022-08-12T08:37:06Z</time>
      </trkpt>
      <trkpt lat="44.82396" lon="1.08102">
        <ele>166.4</ele>
        <time>2022-08-12T08:37:11Z</time>
      </trkpt>
      <trkpt lat="44.82395" lon="1.08095">
        <ele>167.4</ele>
        <time>2022-08-12T08:37:15Z</time>
      </trkpt>
      <trkpt lat="44.82395" lon="1.08088">
        <ele>168.4</ele>
        <time>2022-08-12T08:37:19Z</time>
      </trkpt>
      <trkpt lat="44.82396" lon="1.08082">
        <ele>169.4</ele>
        <time>2022-08-12T08:37:23Z</time>
      </trkpt>
      <trkpt lat="44.82395" lon="1.08075">
        <ele>170.4</ele>
        <time>2022-08-12T08:37:28Z</time>
      </trkpt>
      <trkpt lat="44.82397" lon="1.08069">
        <ele>170.4</ele>
        <time>2022-08-12T08:37:32Z</time>
      </trkpt>
      <trkpt lat="44.82399" lon="1.08062">
        <ele>170.4</ele>
        <time>2022-08-12T08:37:36Z</time>
      </trkpt>
      <trkpt lat="44.82399" lon="1.08056">
        <ele>172.4</ele>
        <time>2022-08-12T08:37:40Z</time>
      </trkpt>
      <trkpt lat="44.82396" lon="1.0805">
        <ele>175.4</ele>
        <time>2022-08-12T08:37:47Z</time>
      </trkpt>
      <trkpt lat="44.82395" lon="1.08043">
        <ele>175.4</ele>
        <time>2022-08-12T08:37:50Z</time>
      </trkpt>
      <trkpt lat="44.82394" lon="1.08036">
        <ele>177.4</ele>
        <time>2022-08-12T08:37:54Z</time>
      </trkpt>
      <trkpt lat="44.82396" lon="1.08028">
        <ele>177.4</ele>
        <time>2022-08-12T08:37:59Z</time>
      </trkpt>
      <trkpt lat="44.82399" lon="1.08023">
        <ele>178.4</ele>
        <time>2022-08-12T08:38:03Z</time>
      </trkpt>
      <trkpt lat="44.82402" lon="1.08018">
        <ele>177.4</ele>
        <time>2022-08-12T08:38:07Z</time>
      </trkpt>
      <trkpt lat="44.82404" lon="1.08011">
        <ele>177.4</ele>
        <time>2022-08-12T08:38:10Z</time>
      </trkpt>
      <trkpt lat="44.82408" lon="1.08005">
        <ele>178.4</ele>
        <time>2022-08-12T08:38:14Z</time>
      </trkpt>
      <trkpt lat="44.82411" lon="1.08">
        <ele>178.4</ele>
        <time>2022-08-12T08:38:18Z</time>
      </trkpt>
      <trkpt lat="44.82414" lon="1.07995">
        <ele>180.4</ele>
        <time>2022-08-12T08:38:22Z</time>
      </trkpt>
      <trkpt lat="44.82418" lon="1.07991">
        <ele>180.4</ele>
        <time>2022-08-12T08:38:25Z</time>
      </trkpt>
      <trkpt lat="44.82421" lon="1.07986">
        <ele>182.4</ele>
        <time>2022-08-12T08:38:29Z</time>
      </trkpt>
      <trkpt lat="44.82425" lon="1.0798">
        <ele>182.4</ele>
        <time>2022-08-12T08:38:33Z</time>
      </trkpt>
      <trkpt lat="44.82428" lon="1.07973">
        <ele>181.4</ele>
        <time>2022-08-12T08:38:37Z</time>
      </trkpt>
      <trkpt lat="44.82431" lon="1.07966">
        <ele>182.4</ele>
        <time>2022-08-12T08:38:41Z</time>
      </trkpt>
      <trkpt lat="44.8243" lon="1.0796">
        <ele>181.4</ele>
        <time>2022-08-12T08:38:44Z</time>
      </trkpt>
      <trkpt lat="44.82429" lon="1.07952">
        <ele>182.4</ele>
        <time>2022-08-12T08:38:48Z</time>
      </trkpt>
      <trkpt lat="44.82428" lon="1.07945">
        <ele>183.4</ele>
        <time>2022-08-12T08:38:52Z</time>
      </trkpt>
      <trkpt lat="44.82426" lon="1.07938">
        <ele>184.4</ele>
        <time>2022-08-12T08:38:57Z</time>
      </trkpt>
      <trkpt lat="44.82422" lon="1.07933">
        <ele>185.4</ele>
        <time>2022-08-12T08:39:01Z</time>
      </trkpt>
      <trkpt lat="44.82419" lon="1.07927">
        <ele>185.4</ele>
        <time>2022-08-12T08:39:05Z</time>
      </trkpt>
      <trkpt lat="44.82417" lon="1.07922">
        <ele>184.4</ele>
        <time>2022-08-12T08:39:09Z</time>
      </trkpt>
      <trkpt lat="44.82414" lon="1.07915">
        <ele>184.4</ele>
        <time>2022-08-12T08:39:13Z</time>
      </trkpt>
      <trkpt lat="44.82411" lon="1.07909">
        <ele>184.4</ele>
        <time>2022-08-12T08:39:17Z</time>
      </trkpt>
      <trkpt lat="44.82409" lon="1.07902">
        <ele>185.4</ele>
        <time>2022-08-12T08:39:21Z</time>
      </trkpt>
      <trkpt lat="44.82405" lon="1.07898">
        <ele>185.4</ele>
        <time>2022-08-12T08:39:25Z</time>
      </trkpt>
      <trkpt lat="44.82401" lon="1.07895">
        <ele>185.4</ele>
        <time>2022-08-12T08:39:29Z</time>
      </trkpt>
      <trkpt lat="44.82397" lon="1.0789">
        <ele>185.4</ele>
        <time>2022-08-12T08:39:33Z</time>
      </trkpt>
      <trkpt lat="44.82394" lon="1.07884">
        <ele>186.4</ele>
        <time>2022-08-12T08:39:37Z</time>
      </trkpt>
      <trkpt lat="44.82391" lon="1.07878">
        <ele>186.4</ele>
        <time>2022-08-12T08:39:41Z</time>
      </trkpt>
      <trkpt lat="44.82388" lon="1.07871">
        <ele>187.4</ele>
        <time>2022-08-12T08:39:45Z</time>
      </trkpt>
      <trkpt lat="44.82385" lon="1.07866">
        <ele>188.4</ele>
        <time>2022-08-12T08:39:49Z</time>
      </trkpt>
      <trkpt lat="44.82382" lon="1.07862">
        <ele>187.4</ele>
        <time>2022-08-12T08:39:53Z</time>
      </trkpt>
      <trkpt lat="44.82378" lon="1.07856">
        <ele>187.4</ele>
        <time>2022-08-12T08:39:57Z</time>
      </trkpt>
      <trkpt lat="44.82374" lon="1.07853">
        <ele>188.4</ele>
        <time>2022-08-12T08:40:01Z</time>
      </trkpt>
      <trkpt lat="44.82369" lon="1.07849">
        <ele>189.4</ele>
        <time>2022-08-12T08:40:05Z</time>
      </trkpt>
      <trkpt lat="44.82366" lon="1.07844">
        <ele>189.4</ele>
        <time>2022-08-12T08:40:10Z</time>
      </trkpt>
      <trkpt lat="44.82364" lon="1.07836">
        <ele>190.4</ele>
        <time>2022-08-12T08:40:14Z</time>
      </trkpt>
      <trkpt lat="44.82364" lon="1.0783">
        <ele>191.4</ele>
        <time>2022-08-12T08:40:19Z</time>
      </trkpt>
      <trkpt lat="44.82364" lon="1.07822">
        <ele>192.4</ele>
        <time>2022-08-12T08:40:22Z</time>
      </trkpt>
      <trkpt lat="44.82364" lon="1.07816">
        <ele>192.4</ele>
        <time>2022-08-12T08:40:25Z</time>
      </trkpt>
      <trkpt lat="44.82365" lon="1.07808">
        <ele>193.4</ele>
        <time>2022-08-12T08:40:28Z</time>
      </trkpt>
      <trkpt lat="44.82367" lon="1.07801">
        <ele>194.4</ele>
        <time>2022-08-12T08:40:32Z</time>
      </trkpt>
      <trkpt lat="44.82369" lon="1.07794">
        <ele>196.4</ele>
        <time>2022-08-12T08:40:36Z</time>
      </trkpt>
      <trkpt lat="44.82372" lon="1.07788">
        <ele>197.4</ele>
        <time>2022-08-12T08:40:40Z</time>
      </trkpt>
      <trkpt lat="44.82375" lon="1.0778">
        <ele>198.4</ele>
        <time>2022-08-12T08:40:44Z</time>
      </trkpt>
      <trkpt lat="44.82377" lon="1.07774">
        <ele>199.4</ele>
        <time>2022-08-12T08:40:47Z</time>
      </trkpt>
      <trkpt lat="44.8238" lon="1.07767">
        <ele>200.4</ele>
        <time>2022-08-12T08:40:51Z</time>
      </trkpt>
      <trkpt lat="44.82382" lon="1.07761">
        <ele>199.4</ele>
        <time>2022-08-12T08:40:55Z</time>
      </trkpt>
      <trkpt lat="44.82382" lon="1.07753">
        <ele>200.4</ele>
        <time>2022-08-12T08:40:58Z</time>
      </trkpt>
      <trkpt lat="44.82383" lon="1.07747">
        <ele>199.4</ele>
        <time>2022-08-12T08:41:01Z</time>
      </trkpt>
      <trkpt lat="44.82383" lon="1.0774">
        <ele>199.4</ele>
        <time>2022-08-12T08:41:05Z</time>
      </trkpt>
      <trkpt lat="44.82385" lon="1.07732">
        <ele>198.4</ele>
        <time>2022-08-12T08:41:09Z</time>
      </trkpt>
      <trkpt lat="44.82386" lon="1.07724">
        <ele>198.4</ele>
        <time>2022-08-12T08:41:13Z</time>
      </trkpt>
      <trkpt lat="44.82389" lon="1.07718">
        <ele>199.4</ele>
        <time>2022-08-12T08:41:17Z</time>
      </trkpt>
      <trkpt lat="44.82391" lon="1.07712">
        <ele>198.4</ele>
        <time>2022-08-12T08:41:20Z</time>
      </trkpt>
      <trkpt lat="44.82393" lon="1.07706">
        <ele>198.4</ele>
        <time>2022-08-12T08:41:23Z</time>
      </trkpt>
      <trkpt lat="44.82396" lon="1.077">
        <ele>198.4</ele>
        <time>2022-08-12T08:41:26Z</time>
      </trkpt>
      <trkpt lat="44.82397" lon="1.07693">
        <ele>198.4</ele>
        <time>2022-08-12T08:41:29Z</time>
      </trkpt>
      <trkpt lat="44.824" lon="1.07686">
        <ele>199.4</ele>
        <time>2022-08-12T08:41:33Z</time>
      </trkpt>
      <trkpt lat="44.82403" lon="1.0768">
        <ele>199.4</ele>
        <time>2022-08-12T08:41:37Z</time>
      </trkpt>
      <trkpt lat="44.82403" lon="1.07672">
        <ele>199.4</ele>
        <time>2022-08-12T08:41:47Z</time>
      </trkpt>
      <trkpt lat="44.82407" lon="1.07667">
        <ele>199.4</ele>
        <time>2022-08-12T08:41:57Z</time>
      </trkpt>
      <trkpt lat="44.82412" lon="1.07666">
        <ele>198.4</ele>
        <time>2022-08-12T08:42:08Z</time>
      </trkpt>
      <trkpt lat="44.82407" lon="1.07663">
        <ele>201.4</ele>
        <time>2022-08-12T08:42:20Z</time>
      </trkpt>
      <trkpt lat="44.82403" lon="1.07659">
        <ele>203.4</ele>
        <time>2022-08-12T08:42:28Z</time>
      </trkpt>
      <trkpt lat="44.82401" lon="1.07654">
        <ele>205.4</ele>
        <time>2022-08-12T08:42:38Z</time>
      </trkpt>
      <trkpt lat="44.82396" lon="1.07651">
        <ele>203.4</ele>
        <time>2022-08-12T08:42:44Z</time>
      </trkpt>
      <trkpt lat="44.82392" lon="1.07648">
        <ele>205.4</ele>
        <time>2022-08-12T08:42:50Z</time>
      </trkpt>
      <trkpt lat="44.82388" lon="1.07643">
        <ele>208.4</ele>
        <time>2022-08-12T08:42:56Z</time>
      </trkpt>
      <trkpt lat="44.82384" lon="1.07638">
        <ele>209.4</ele>
        <time>2022-08-12T08:43:03Z</time>
      </trkpt>
      <trkpt lat="44.82379" lon="1.07634">
        <ele>210.4</ele>
        <time>2022-08-12T08:43:09Z</time>
      </trkpt>
      <trkpt lat="44.82375" lon="1.07631">
        <ele>211.4</ele>
        <time>2022-08-12T08:43:14Z</time>
      </trkpt>
      <trkpt lat="44.82371" lon="1.07627">
        <ele>219.4</ele>
        <time>2022-08-12T08:43:32Z</time>
      </trkpt>
      <trkpt lat="44.82367" lon="1.07623">
        <ele>219.4</ele>
        <time>2022-08-12T08:43:38Z</time>
      </trkpt>
      <trkpt lat="44.82363" lon="1.0762">
        <ele>217.4</ele>
        <time>2022-08-12T08:43:42Z</time>
      </trkpt>
      <trkpt lat="44.82358" lon="1.07619">
        <ele>213.4</ele>
        <time>2022-08-12T08:43:47Z</time>
      </trkpt>
      <trkpt lat="44.82353" lon="1.07617">
        <ele>214.4</ele>
        <time>2022-08-12T08:43:53Z</time>
      </trkpt>
      <trkpt lat="44.82348" lon="1.07617">
        <ele>215.4</ele>
        <time>2022-08-12T08:43:58Z</time>
      </trkpt>
      <trkpt lat="44.82344" lon="1.07618">
        <ele>218.4</ele>
        <time>2022-08-12T08:44:03Z</time>
      </trkpt>
      <trkpt lat="44.82339" lon="1.07619">
        <ele>220.4</ele>
        <time>2022-08-12T08:44:10Z</time>
      </trkpt>
      <trkpt lat="44.82337" lon="1.07625">
        <ele>218.4</ele>
        <time>2022-08-12T08:44:37Z</time>
      </trkpt>
      <trkpt lat="44.82334" lon="1.07631">
        <ele>220.4</ele>
        <time>2022-08-12T08:44:41Z</time>
      </trkpt>
      <trkpt lat="44.8233" lon="1.07636">
        <ele>219.4</ele>
        <time>2022-08-12T08:44:44Z</time>
      </trkpt>
      <trkpt lat="44.82325" lon="1.07642">
        <ele>220.4</ele>
        <time>2022-08-12T08:44:47Z</time>
      </trkpt>
      <trkpt lat="44.82321" lon="1.07647">
        <ele>220.4</ele>
        <time>2022-08-12T08:44:50Z</time>
      </trkpt>
      <trkpt lat="44.82316" lon="1.07653">
        <ele>221.4</ele>
        <time>2022-08-12T08:44:53Z</time>
      </trkpt>
      <trkpt lat="44.82311" lon="1.07658">
        <ele>222.4</ele>
        <time>2022-08-12T08:44:56Z</time>
      </trkpt>
      <trkpt lat="44.82306" lon="1.0766">
        <ele>222.4</ele>
        <time>2022-08-12T08:48:02Z</time>
      </trkpt>
      <trkpt lat="44.82301" lon="1.07664">
        <ele>224.4</ele>
        <time>2022-08-12T08:48:06Z</time>
      </trkpt>
      <trkpt lat="44.82295" lon="1.07669">
        <ele>224.4</ele>
        <time>2022-08-12T08:48:09Z</time>
      </trkpt>
      <trkpt lat="44.8229" lon="1.07672">
        <ele>225.4</ele>
        <time>2022-08-12T08:48:11Z</time>
      </trkpt>
      <trkpt lat="44.82285" lon="1.07675">
        <ele>225.4</ele>
        <time>2022-08-12T08:48:13Z</time>
      </trkpt>
      <trkpt lat="44.82279" lon="1.07678">
        <ele>226.4</ele>
        <time>2022-08-12T08:48:15Z</time>
      </trkpt>
      <trkpt lat="44.82273" lon="1.0768">
        <ele>226.4</ele>
        <time>2022-08-12T08:48:17Z</time>
      </trkpt>
      <trkpt lat="44.82267" lon="1.07681">
        <ele>225.4</ele>
        <time>2022-08-12T08:48:19Z</time>
      </trkpt>
      <trkpt lat="44.82261" lon="1.07682">
        <ele>225.4</ele>
        <time>2022-08-12T08:48:21Z</time>
      </trkpt>
      <trkpt lat="44.82254" lon="1.07682">
        <ele>224.4</ele>
        <time>2022-08-12T08:48:23Z</time>
      </trkpt>
      <trkpt lat="44.82247" lon="1.07683">
        <ele>224.4</ele>
        <time>2022-08-12T08:48:25Z</time>
      </trkpt>
      <trkpt lat="44.82241" lon="1.07685">
        <ele>223.4</ele>
        <time>2022-08-12T08:48:27Z</time>
      </trkpt>
      <trkpt lat="44.82234" lon="1.07686">
        <ele>223.4</ele>
        <time>2022-08-12T08:48:29Z</time>
      </trkpt>
      <trkpt lat="44.82227" lon="1.07687">
        <ele>222.4</ele>
        <time>2022-08-12T08:48:31Z</time>
      </trkpt>
      <trkpt lat="44.8222" lon="1.07688">
        <ele>222.4</ele>
        <time>2022-08-12T08:48:33Z</time>
      </trkpt>
      <trkpt lat="44.82212" lon="1.07691">
        <ele>220.4</ele>
        <time>2022-08-12T08:48:35Z</time>
      </trkpt>
      <trkpt lat="44.82204" lon="1.07696">
        <ele>217.4</ele>
        <time>2022-08-12T08:48:37Z</time>
      </trkpt>
      <trkpt lat="44.82197" lon="1.07701">
        <ele>215.4</ele>
        <time>2022-08-12T08:48:39Z</time>
      </trkpt>
      <trkpt lat="44.82188" lon="1.07705">
        <ele>213.4</ele>
        <time>2022-08-12T08:48:41Z</time>
      </trkpt>
      <trkpt lat="44.82181" lon="1.07709">
        <ele>213.4</ele>
        <time>2022-08-12T08:48:43Z</time>
      </trkpt>
      <trkpt lat="44.82173" lon="1.07716">
        <ele>213.4</ele>
        <time>2022-08-12T08:48:45Z</time>
      </trkpt>
      <trkpt lat="44.82166" lon="1.07722">
        <ele>213.4</ele>
        <time>2022-08-12T08:48:47Z</time>
      </trkpt>
      <trkpt lat="44.82159" lon="1.07728">
        <ele>213.4</ele>
        <time>2022-08-12T08:48:49Z</time>
      </trkpt>
      <trkpt lat="44.82156" lon="1.07732">
        <ele>213.4</ele>
        <time>2022-08-12T08:48:50Z</time>
      </trkpt>
      <trkpt lat="44.82152" lon="1.07737">
        <ele>214.4</ele>
        <time>2022-08-12T08:48:51Z</time>
      </trkpt>
      <trkpt lat="44.82148" lon="1.07741">
        <ele>214.4</ele>
        <time>2022-08-12T08:48:52Z</time>
      </trkpt>
      <trkpt lat="44.82141" lon="1.07747">
        <ele>214.4</ele>
        <time>2022-08-12T08:48:54Z</time>
      </trkpt>
      <trkpt lat="44.82137" lon="1.0775">
        <ele>214.4</ele>
        <time>2022-08-12T08:48:55Z</time>
      </trkpt>
      <trkpt lat="44.82133" lon="1.07753">
        <ele>213.4</ele>
        <time>2022-08-12T08:48:56Z</time>
      </trkpt>
      <trkpt lat="44.82129" lon="1.07757">
        <ele>213.4</ele>
        <time>2022-08-12T08:48:57Z</time>
      </trkpt>
      <trkpt lat="44.82125" lon="1.07761">
        <ele>212.4</ele>
        <time>2022-08-12T08:48:58Z</time>
      </trkpt>
      <trkpt lat="44.82118" lon="1.07767">
        <ele>213.4</ele>
        <time>2022-08-12T08:49:00Z</time>
      </trkpt>
      <trkpt lat="44.82111" lon="1.07775">
        <ele>213.4</ele>
        <time>2022-08-12T08:49:02Z</time>
      </trkpt>
      <trkpt lat="44.82108" lon="1.07779">
        <ele>213.4</ele>
        <time>2022-08-12T08:49:03Z</time>
      </trkpt>
      <trkpt lat="44.821" lon="1.07785">
        <ele>212.4</ele>
        <time>2022-08-12T08:49:05Z</time>
      </trkpt>
      <trkpt lat="44.82096" lon="1.07789">
        <ele>212.4</ele>
        <time>2022-08-12T08:49:06Z</time>
      </trkpt>
      <trkpt lat="44.82088" lon="1.07794">
        <ele>212.4</ele>
        <time>2022-08-12T08:49:08Z</time>
      </trkpt>
      <trkpt lat="44.82079" lon="1.07796">
        <ele>212.4</ele>
        <time>2022-08-12T08:49:10Z</time>
      </trkpt>
      <trkpt lat="44.82075" lon="1.07798">
        <ele>212.4</ele>
        <time>2022-08-12T08:49:11Z</time>
      </trkpt>
      <trkpt lat="44.8207" lon="1.07799">
        <ele>212.4</ele>
        <time>2022-08-12T08:49:12Z</time>
      </trkpt>
      <trkpt lat="44.82066" lon="1.07801">
        <ele>212.4</ele>
        <time>2022-08-12T08:49:13Z</time>
      </trkpt>
      <trkpt lat="44.82061" lon="1.07802">
        <ele>211.4</ele>
        <time>2022-08-12T08:49:14Z</time>
      </trkpt>
      <trkpt lat="44.82056" lon="1.07804">
        <ele>211.4</ele>
        <time>2022-08-12T08:49:15Z</time>
      </trkpt>
      <trkpt lat="44.82052" lon="1.07806">
        <ele>211.4</ele>
        <time>2022-08-12T08:49:16Z</time>
      </trkpt>
      <trkpt lat="44.82043" lon="1.07811">
        <ele>211.4</ele>
        <time>2022-08-12T08:49:18Z</time>
      </trkpt>
      <trkpt lat="44.82039" lon="1.07814">
        <ele>211.4</ele>
        <time>2022-08-12T08:49:19Z</time>
      </trkpt>
      <trkpt lat="44.82035" lon="1.07818">
        <ele>211.4</ele>
        <time>2022-08-12T08:49:20Z</time>
      </trkpt>
      <trkpt lat="44.8203" lon="1.07828">
        <ele>211.4</ele>
        <time>2022-08-12T08:49:22Z</time>
      </trkpt>
      <trkpt lat="44.82027" lon="1.07834">
        <ele>211.4</ele>
        <time>2022-08-12T08:49:23Z</time>
      </trkpt>
      <trkpt lat="44.82025" lon="1.07839">
        <ele>212.4</ele>
        <time>2022-08-12T08:49:24Z</time>
      </trkpt>
      <trkpt lat="44.82023" lon="1.07846">
        <ele>212.4</ele>
        <time>2022-08-12T08:49:25Z</time>
      </trkpt>
      <trkpt lat="44.82021" lon="1.07852">
        <ele>212.4</ele>
        <time>2022-08-12T08:49:26Z</time>
      </trkpt>
      <trkpt lat="44.8202" lon="1.07859">
        <ele>212.4</ele>
        <time>2022-08-12T08:49:27Z</time>
      </trkpt>
      <trkpt lat="44.82018" lon="1.07866">
        <ele>212.4</ele>
        <time>2022-08-12T08:49:28Z</time>
      </trkpt>
      <trkpt lat="44.82017" lon="1.07873">
        <ele>212.4</ele>
        <time>2022-08-12T08:49:29Z</time>
      </trkpt>
      <trkpt lat="44.82015" lon="1.0788">
        <ele>212.4</ele>
        <time>2022-08-12T08:49:30Z</time>
      </trkpt>
      <trkpt lat="44.82014" lon="1.07887">
        <ele>213.4</ele>
        <time>2022-08-12T08:49:31Z</time>
      </trkpt>
      <trkpt lat="44.82012" lon="1.07894">
        <ele>213.4</ele>
        <time>2022-08-12T08:49:32Z</time>
      </trkpt>
      <trkpt lat="44.82011" lon="1.07901">
        <ele>213.4</ele>
        <time>2022-08-12T08:49:33Z</time>
      </trkpt>
      <trkpt lat="44.82009" lon="1.07908">
        <ele>214.4</ele>
        <time>2022-08-12T08:49:34Z</time>
      </trkpt>
      <trkpt lat="44.82007" lon="1.07914">
        <ele>214.4</ele>
        <time>2022-08-12T08:49:35Z</time>
      </trkpt>
      <trkpt lat="44.82005" lon="1.07921">
        <ele>215.4</ele>
        <time>2022-08-12T08:49:36Z</time>
      </trkpt>
      <trkpt lat="44.82003" lon="1.07928">
        <ele>215.4</ele>
        <time>2022-08-12T08:49:37Z</time>
      </trkpt>
      <trkpt lat="44.82" lon="1.07936">
        <ele>215.4</ele>
        <time>2022-08-12T08:49:38Z</time>
      </trkpt>
      <trkpt lat="44.81998" lon="1.07944">
        <ele>216.4</ele>
        <time>2022-08-12T08:49:39Z</time>
      </trkpt>
      <trkpt lat="44.81995" lon="1.07951">
        <ele>215.4</ele>
        <time>2022-08-12T08:49:40Z</time>
      </trkpt>
      <trkpt lat="44.81992" lon="1.07959">
        <ele>215.4</ele>
        <time>2022-08-12T08:49:41Z</time>
      </trkpt>
      <trkpt lat="44.8199" lon="1.07966">
        <ele>215.4</ele>
        <time>2022-08-12T08:49:42Z</time>
      </trkpt>
      <trkpt lat="44.81988" lon="1.07974">
        <ele>215.4</ele>
        <time>2022-08-12T08:49:43Z</time>
      </trkpt>
      <trkpt lat="44.81985" lon="1.0798">
        <ele>215.4</ele>
        <time>2022-08-12T08:49:44Z</time>
      </trkpt>
      <trkpt lat="44.81982" lon="1.07988">
        <ele>214.4</ele>
        <time>2022-08-12T08:49:45Z</time>
      </trkpt>
      <trkpt lat="44.81979" lon="1.07995">
        <ele>213.4</ele>
        <time>2022-08-12T08:49:46Z</time>
      </trkpt>
      <trkpt lat="44.81976" lon="1.08003">
        <ele>212.4</ele>
        <time>2022-08-12T08:49:47Z</time>
      </trkpt>
      <trkpt lat="44.81972" lon="1.0801">
        <ele>211.4</ele>
        <time>2022-08-12T08:49:48Z</time>
      </trkpt>
      <trkpt lat="44.81968" lon="1.08017">
        <ele>210.4</ele>
        <time>2022-08-12T08:49:49Z</time>
      </trkpt>
      <trkpt lat="44.81963" lon="1.08023">
        <ele>210.4</ele>
        <time>2022-08-12T08:49:50Z</time>
      </trkpt>
      <trkpt lat="44.81958" lon="1.08029">
        <ele>209.4</ele>
        <time>2022-08-12T08:49:51Z</time>
      </trkpt>
      <trkpt lat="44.81949" lon="1.08041">
        <ele>208.4</ele>
        <time>2022-08-12T08:49:53Z</time>
      </trkpt>
      <trkpt lat="44.81944" lon="1.08047">
        <ele>209.4</ele>
        <time>2022-08-12T08:49:54Z</time>
      </trkpt>
      <trkpt lat="44.81939" lon="1.08053">
        <ele>208.4</ele>
        <time>2022-08-12T08:49:55Z</time>
      </trkpt>
      <trkpt lat="44.81934" lon="1.08059">
        <ele>208.4</ele>
        <time>2022-08-12T08:49:56Z</time>
      </trkpt>
      <trkpt lat="44.8193" lon="1.08064">
        <ele>208.4</ele>
        <time>2022-08-12T08:49:57Z</time>
      </trkpt>
      <trkpt lat="44.81925" lon="1.0807">
        <ele>207.4</ele>
        <time>2022-08-12T08:49:58Z</time>
      </trkpt>
      <trkpt lat="44.81921" lon="1.08075">
        <ele>207.4</ele>
        <time>2022-08-12T08:49:59Z</time>
      </trkpt>
      <trkpt lat="44.81916" lon="1.08081">
        <ele>208.4</ele>
        <time>2022-08-12T08:50:00Z</time>
      </trkpt>
      <trkpt lat="44.81911" lon="1.08088">
        <ele>208.4</ele>
        <time>2022-08-12T08:50:01Z</time>
      </trkpt>
      <trkpt lat="44.81907" lon="1.08094">
        <ele>208.4</ele>
        <time>2022-08-12T08:50:02Z</time>
      </trkpt>
      <trkpt lat="44.81902" lon="1.081">
        <ele>208.4</ele>
        <time>2022-08-12T08:50:03Z</time>
      </trkpt>
      <trkpt lat="44.81896" lon="1.08104">
        <ele>207.4</ele>
        <time>2022-08-12T08:50:04Z</time>
      </trkpt>
      <trkpt lat="44.8189" lon="1.08109">
        <ele>207.4</ele>
        <time>2022-08-12T08:50:05Z</time>
      </trkpt>
      <trkpt lat="44.81884" lon="1.08113">
        <ele>206.4</ele>
        <time>2022-08-12T08:50:06Z</time>
      </trkpt>
      <trkpt lat="44.81879" lon="1.08117">
        <ele>206.4</ele>
        <time>2022-08-12T08:50:07Z</time>
      </trkpt>
      <trkpt lat="44.81873" lon="1.08121">
        <ele>206.4</ele>
        <time>2022-08-12T08:50:08Z</time>
      </trkpt>
      <trkpt lat="44.81868" lon="1.08122">
        <ele>206.4</ele>
        <time>2022-08-12T08:50:09Z</time>
      </trkpt>
      <trkpt lat="44.81863" lon="1.08124">
        <ele>206.4</ele>
        <time>2022-08-12T08:50:10Z</time>
      </trkpt>
      <trkpt lat="44.81858" lon="1.08124">
        <ele>206.4</ele>
        <time>2022-08-12T08:50:11Z</time>
      </trkpt>
      <trkpt lat="44.81853" lon="1.08125">
        <ele>206.4</ele>
        <time>2022-08-12T08:50:12Z</time>
      </trkpt>
      <trkpt lat="44.81847" lon="1.08126">
        <ele>206.4</ele>
        <time>2022-08-12T08:50:13Z</time>
      </trkpt>
      <trkpt lat="44.81842" lon="1.08126">
        <ele>206.4</ele>
        <time>2022-08-12T08:50:14Z</time>
      </trkpt>
      <trkpt lat="44.81836" lon="1.08126">
        <ele>205.4</ele>
        <time>2022-08-12T08:50:15Z</time>
      </trkpt>
      <trkpt lat="44.81831" lon="1.08126">
        <ele>205.4</ele>
        <time>2022-08-12T08:50:16Z</time>
      </trkpt>
      <trkpt lat="44.81826" lon="1.08126">
        <ele>205.4</ele>
        <time>2022-08-12T08:50:17Z</time>
      </trkpt>
      <trkpt lat="44.8182" lon="1.08126">
        <ele>205.4</ele>
        <time>2022-08-12T08:50:18Z</time>
      </trkpt>
      <trkpt lat="44.81815" lon="1.08126">
        <ele>205.4</ele>
        <time>2022-08-12T08:50:19Z</time>
      </trkpt>
      <trkpt lat="44.8181" lon="1.08126">
        <ele>205.4</ele>
        <time>2022-08-12T08:50:20Z</time>
      </trkpt>
      <trkpt lat="44.81804" lon="1.08127">
        <ele>205.4</ele>
        <time>2022-08-12T08:50:21Z</time>
      </trkpt>
      <trkpt lat="44.81793" lon="1.08128">
        <ele>205.4</ele>
        <time>2022-08-12T08:50:23Z</time>
      </trkpt>
      <trkpt lat="44.81788" lon="1.08128">
        <ele>205.4</ele>
        <time>2022-08-12T08:50:24Z</time>
      </trkpt>
      <trkpt lat="44.81783" lon="1.08128">
        <ele>205.4</ele>
        <time>2022-08-12T08:50:25Z</time>
      </trkpt>
      <trkpt lat="44.81778" lon="1.08129">
        <ele>205.4</ele>
        <time>2022-08-12T08:50:26Z</time>
      </trkpt>
      <trkpt lat="44.81772" lon="1.08129">
        <ele>206.4</ele>
        <time>2022-08-12T08:50:27Z</time>
      </trkpt>
      <trkpt lat="44.81768" lon="1.0813">
        <ele>206.4</ele>
        <time>2022-08-12T08:50:28Z</time>
      </trkpt>
      <trkpt lat="44.81763" lon="1.08131">
        <ele>206.4</ele>
        <time>2022-08-12T08:50:29Z</time>
      </trkpt>
      <trkpt lat="44.81758" lon="1.08131">
        <ele>206.4</ele>
        <time>2022-08-12T08:50:30Z</time>
      </trkpt>
      <trkpt lat="44.81753" lon="1.08131">
        <ele>207.4</ele>
        <time>2022-08-12T08:50:31Z</time>
      </trkpt>
      <trkpt lat="44.81748" lon="1.08131">
        <ele>208.4</ele>
        <time>2022-08-12T08:50:32Z</time>
      </trkpt>
      <trkpt lat="44.81744" lon="1.08132">
        <ele>208.4</ele>
        <time>2022-08-12T08:50:33Z</time>
      </trkpt>
      <trkpt lat="44.81739" lon="1.08133">
        <ele>208.4</ele>
        <time>2022-08-12T08:50:34Z</time>
      </trkpt>
      <trkpt lat="44.81733" lon="1.08134">
        <ele>208.4</ele>
        <time>2022-08-12T08:50:35Z</time>
      </trkpt>
      <trkpt lat="44.81728" lon="1.08135">
        <ele>207.4</ele>
        <time>2022-08-12T08:50:36Z</time>
      </trkpt>
      <trkpt lat="44.81723" lon="1.08136">
        <ele>207.4</ele>
        <time>2022-08-12T08:50:37Z</time>
      </trkpt>
      <trkpt lat="44.81715" lon="1.08138">
        <ele>207.4</ele>
        <time>2022-08-12T08:50:39Z</time>
      </trkpt>
      <trkpt lat="44.81707" lon="1.0814">
        <ele>208.4</ele>
        <time>2022-08-12T08:50:41Z</time>
      </trkpt>
      <trkpt lat="44.81702" lon="1.08142">
        <ele>208.4</ele>
        <time>2022-08-12T08:50:42Z</time>
      </trkpt>
      <trkpt lat="44.81698" lon="1.08144">
        <ele>208.4</ele>
        <time>2022-08-12T08:50:43Z</time>
      </trkpt>
      <trkpt lat="44.81693" lon="1.08145">
        <ele>208.4</ele>
        <time>2022-08-12T08:50:44Z</time>
      </trkpt>
      <trkpt lat="44.81688" lon="1.08147">
        <ele>208.4</ele>
        <time>2022-08-12T08:50:45Z</time>
      </trkpt>
      <trkpt lat="44.8168" lon="1.08149">
        <ele>208.4</ele>
        <time>2022-08-12T08:50:47Z</time>
      </trkpt>
      <trkpt lat="44.81672" lon="1.0815">
        <ele>208.4</ele>
        <time>2022-08-12T08:50:49Z</time>
      </trkpt>
      <trkpt lat="44.81667" lon="1.08151">
        <ele>207.4</ele>
        <time>2022-08-12T08:50:50Z</time>
      </trkpt>
      <trkpt lat="44.81659" lon="1.08152">
        <ele>208.4</ele>
        <time>2022-08-12T08:50:52Z</time>
      </trkpt>
      <trkpt lat="44.81651" lon="1.08152">
        <ele>210.4</ele>
        <time>2022-08-12T08:50:54Z</time>
      </trkpt>
      <trkpt lat="44.81643" lon="1.08154">
        <ele>211.4</ele>
        <time>2022-08-12T08:50:56Z</time>
      </trkpt>
      <trkpt lat="44.81635" lon="1.08155">
        <ele>211.4</ele>
        <time>2022-08-12T08:50:58Z</time>
      </trkpt>
      <trkpt lat="44.81629" lon="1.08155">
        <ele>212.4</ele>
        <time>2022-08-12T08:51:00Z</time>
      </trkpt>
      <trkpt lat="44.81623" lon="1.08157">
        <ele>212.4</ele>
        <time>2022-08-12T08:51:02Z</time>
      </trkpt>
      <trkpt lat="44.81616" lon="1.08158">
        <ele>213.4</ele>
        <time>2022-08-12T08:51:04Z</time>
      </trkpt>
      <trkpt lat="44.8161" lon="1.08159">
        <ele>213.4</ele>
        <time>2022-08-12T08:51:06Z</time>
      </trkpt>
      <trkpt lat="44.81603" lon="1.0816">
        <ele>213.4</ele>
        <time>2022-08-12T08:51:08Z</time>
      </trkpt>
      <trkpt lat="44.81598" lon="1.08161">
        <ele>213.4</ele>
        <time>2022-08-12T08:51:10Z</time>
      </trkpt>
      <trkpt lat="44.81591" lon="1.08163">
        <ele>213.4</ele>
        <time>2022-08-12T08:51:12Z</time>
      </trkpt>
      <trkpt lat="44.81585" lon="1.08165">
        <ele>213.4</ele>
        <time>2022-08-12T08:51:14Z</time>
      </trkpt>
      <trkpt lat="44.81578" lon="1.0817">
        <ele>213.4</ele>
        <time>2022-08-12T08:51:16Z</time>
      </trkpt>
      <trkpt lat="44.81571" lon="1.08174">
        <ele>213.4</ele>
        <time>2022-08-12T08:51:18Z</time>
      </trkpt>
      <trkpt lat="44.81563" lon="1.0818">
        <ele>212.4</ele>
        <time>2022-08-12T08:51:20Z</time>
      </trkpt>
      <trkpt lat="44.81558" lon="1.08184">
        <ele>212.4</ele>
        <time>2022-08-12T08:51:21Z</time>
      </trkpt>
      <trkpt lat="44.81554" lon="1.08187">
        <ele>212.4</ele>
        <time>2022-08-12T08:51:22Z</time>
      </trkpt>
      <trkpt lat="44.8155" lon="1.0819">
        <ele>212.4</ele>
        <time>2022-08-12T08:51:23Z</time>
      </trkpt>
      <trkpt lat="44.81542" lon="1.08196">
        <ele>212.4</ele>
        <time>2022-08-12T08:51:25Z</time>
      </trkpt>
      <trkpt lat="44.81534" lon="1.08201">
        <ele>212.4</ele>
        <time>2022-08-12T08:51:27Z</time>
      </trkpt>
      <trkpt lat="44.81529" lon="1.08204">
        <ele>212.4</ele>
        <time>2022-08-12T08:51:28Z</time>
      </trkpt>
      <trkpt lat="44.81525" lon="1.08206">
        <ele>212.4</ele>
        <time>2022-08-12T08:51:29Z</time>
      </trkpt>
      <trkpt lat="44.81516" lon="1.08208">
        <ele>212.4</ele>
        <time>2022-08-12T08:51:31Z</time>
      </trkpt>
      <trkpt lat="44.81507" lon="1.0821">
        <ele>211.4</ele>
        <time>2022-08-12T08:51:33Z</time>
      </trkpt>
      <trkpt lat="44.81499" lon="1.08211">
        <ele>211.4</ele>
        <time>2022-08-12T08:51:35Z</time>
      </trkpt>
      <trkpt lat="44.81491" lon="1.08209">
        <ele>211.4</ele>
        <time>2022-08-12T08:51:37Z</time>
      </trkpt>
      <trkpt lat="44.81483" lon="1.08208">
        <ele>211.4</ele>
        <time>2022-08-12T08:51:39Z</time>
      </trkpt>
      <trkpt lat="44.81479" lon="1.08215">
        <ele>210.4</ele>
        <time>2022-08-12T08:51:41Z</time>
      </trkpt>
      <trkpt lat="44.8148" lon="1.0823">
        <ele>211.4</ele>
        <time>2022-08-12T08:51:43Z</time>
      </trkpt>
      <trkpt lat="44.81482" lon="1.08239">
        <ele>211.4</ele>
        <time>2022-08-12T08:51:44Z</time>
      </trkpt>
      <trkpt lat="44.81485" lon="1.08247">
        <ele>211.4</ele>
        <time>2022-08-12T08:51:45Z</time>
      </trkpt>
      <trkpt lat="44.81488" lon="1.08256">
        <ele>212.4</ele>
        <time>2022-08-12T08:51:46Z</time>
      </trkpt>
      <trkpt lat="44.8149" lon="1.08265">
        <ele>211.4</ele>
        <time>2022-08-12T08:51:47Z</time>
      </trkpt>
      <trkpt lat="44.81493" lon="1.08274">
        <ele>211.4</ele>
        <time>2022-08-12T08:51:48Z</time>
      </trkpt>
      <trkpt lat="44.81495" lon="1.08284">
        <ele>211.4</ele>
        <time>2022-08-12T08:51:49Z</time>
      </trkpt>
      <trkpt lat="44.81498" lon="1.08293">
        <ele>212.4</ele>
        <time>2022-08-12T08:51:50Z</time>
      </trkpt>
      <trkpt lat="44.81501" lon="1.08303">
        <ele>211.4</ele>
        <time>2022-08-12T08:51:51Z</time>
      </trkpt>
      <trkpt lat="44.81504" lon="1.08313">
        <ele>211.4</ele>
        <time>2022-08-12T08:51:52Z</time>
      </trkpt>
      <trkpt lat="44.81508" lon="1.08324">
        <ele>210.4</ele>
        <time>2022-08-12T08:51:53Z</time>
      </trkpt>
      <trkpt lat="44.81511" lon="1.08336">
        <ele>210.4</ele>
        <time>2022-08-12T08:51:54Z</time>
      </trkpt>
      <trkpt lat="44.81515" lon="1.08348">
        <ele>209.4</ele>
        <time>2022-08-12T08:51:55Z</time>
      </trkpt>
      <trkpt lat="44.81517" lon="1.08359">
        <ele>208.4</ele>
        <time>2022-08-12T08:51:56Z</time>
      </trkpt>
      <trkpt lat="44.81519" lon="1.0837">
        <ele>208.4</ele>
        <time>2022-08-12T08:51:57Z</time>
      </trkpt>
      <trkpt lat="44.81522" lon="1.08382">
        <ele>208.4</ele>
        <time>2022-08-12T08:51:58Z</time>
      </trkpt>
      <trkpt lat="44.81523" lon="1.08393">
        <ele>208.4</ele>
        <time>2022-08-12T08:51:59Z</time>
      </trkpt>
      <trkpt lat="44.81524" lon="1.08404">
        <ele>207.4</ele>
        <time>2022-08-12T08:52:00Z</time>
      </trkpt>
      <trkpt lat="44.81525" lon="1.08412">
        <ele>207.4</ele>
        <time>2022-08-12T08:52:01Z</time>
      </trkpt>
      <trkpt lat="44.81526" lon="1.08419">
        <ele>207.4</ele>
        <time>2022-08-12T08:52:02Z</time>
      </trkpt>
      <trkpt lat="44.81526" lon="1.08426">
        <ele>207.4</ele>
        <time>2022-08-12T08:52:03Z</time>
      </trkpt>
      <trkpt lat="44.81528" lon="1.08434">
        <ele>207.4</ele>
        <time>2022-08-12T08:52:04Z</time>
      </trkpt>
      <trkpt lat="44.8153" lon="1.08441">
        <ele>208.4</ele>
        <time>2022-08-12T08:52:05Z</time>
      </trkpt>
      <trkpt lat="44.81533" lon="1.08447">
        <ele>208.4</ele>
        <time>2022-08-12T08:52:06Z</time>
      </trkpt>
      <trkpt lat="44.81535" lon="1.08452">
        <ele>208.4</ele>
        <time>2022-08-12T08:52:07Z</time>
      </trkpt>
      <trkpt lat="44.81539" lon="1.0846">
        <ele>207.4</ele>
        <time>2022-08-12T08:52:09Z</time>
      </trkpt>
      <trkpt lat="44.81541" lon="1.08466">
        <ele>206.4</ele>
        <time>2022-08-12T08:52:11Z</time>
      </trkpt>
      <trkpt lat="44.81542" lon="1.08473">
        <ele>205.4</ele>
        <time>2022-08-12T08:52:14Z</time>
      </trkpt>
      <trkpt lat="44.81542" lon="1.0848">
        <ele>204.4</ele>
        <time>2022-08-12T08:52:17Z</time>
      </trkpt>
      <trkpt lat="44.8154" lon="1.08488">
        <ele>203.4</ele>
        <time>2022-08-12T08:52:19Z</time>
      </trkpt>
      <trkpt lat="44.81535" lon="1.08497">
        <ele>202.4</ele>
        <time>2022-08-12T08:52:21Z</time>
      </trkpt>
      <trkpt lat="44.8153" lon="1.08507">
        <ele>200.4</ele>
        <time>2022-08-12T08:52:23Z</time>
      </trkpt>
      <trkpt lat="44.81526" lon="1.08518">
        <ele>199.4</ele>
        <time>2022-08-12T08:52:25Z</time>
      </trkpt>
      <trkpt lat="44.81523" lon="1.08526">
        <ele>198.4</ele>
        <time>2022-08-12T08:52:26Z</time>
      </trkpt>
      <trkpt lat="44.8152" lon="1.08533">
        <ele>198.4</ele>
        <time>2022-08-12T08:52:27Z</time>
      </trkpt>
      <trkpt lat="44.81518" lon="1.08541">
        <ele>198.4</ele>
        <time>2022-08-12T08:52:28Z</time>
      </trkpt>
      <trkpt lat="44.81515" lon="1.08549">
        <ele>198.4</ele>
        <time>2022-08-12T08:52:29Z</time>
      </trkpt>
      <trkpt lat="44.81512" lon="1.08557">
        <ele>197.4</ele>
        <time>2022-08-12T08:52:30Z</time>
      </trkpt>
      <trkpt lat="44.81507" lon="1.08564">
        <ele>197.4</ele>
        <time>2022-08-12T08:52:31Z</time>
      </trkpt>
      <trkpt lat="44.81503" lon="1.08572">
        <ele>196.4</ele>
        <time>2022-08-12T08:52:32Z</time>
      </trkpt>
      <trkpt lat="44.81498" lon="1.08579">
        <ele>195.4</ele>
        <time>2022-08-12T08:52:33Z</time>
      </trkpt>
      <trkpt lat="44.81495" lon="1.08585">
        <ele>194.4</ele>
        <time>2022-08-12T08:52:34Z</time>
      </trkpt>
      <trkpt lat="44.8149" lon="1.08591">
        <ele>193.4</ele>
        <time>2022-08-12T08:52:35Z</time>
      </trkpt>
      <trkpt lat="44.81485" lon="1.08596">
        <ele>193.4</ele>
        <time>2022-08-12T08:52:36Z</time>
      </trkpt>
      <trkpt lat="44.81479" lon="1.086">
        <ele>192.4</ele>
        <time>2022-08-12T08:52:37Z</time>
      </trkpt>
      <trkpt lat="44.81473" lon="1.08605">
        <ele>191.4</ele>
        <time>2022-08-12T08:52:38Z</time>
      </trkpt>
      <trkpt lat="44.81468" lon="1.0861">
        <ele>189.4</ele>
        <time>2022-08-12T08:52:39Z</time>
      </trkpt>
      <trkpt lat="44.81461" lon="1.08615">
        <ele>188.4</ele>
        <time>2022-08-12T08:52:40Z</time>
      </trkpt>
      <trkpt lat="44.81456" lon="1.08619">
        <ele>187.4</ele>
        <time>2022-08-12T08:52:41Z</time>
      </trkpt>
      <trkpt lat="44.8145" lon="1.08624">
        <ele>186.4</ele>
        <time>2022-08-12T08:52:42Z</time>
      </trkpt>
      <trkpt lat="44.81446" lon="1.08629">
        <ele>185.4</ele>
        <time>2022-08-12T08:52:43Z</time>
      </trkpt>
      <trkpt lat="44.81442" lon="1.08636">
        <ele>184.4</ele>
        <time>2022-08-12T08:52:44Z</time>
      </trkpt>
      <trkpt lat="44.8144" lon="1.08645">
        <ele>184.4</ele>
        <time>2022-08-12T08:52:45Z</time>
      </trkpt>
      <trkpt lat="44.8144" lon="1.08655">
        <ele>183.4</ele>
        <time>2022-08-12T08:52:46Z</time>
      </trkpt>
      <trkpt lat="44.8144" lon="1.08665">
        <ele>183.4</ele>
        <time>2022-08-12T08:52:47Z</time>
      </trkpt>
      <trkpt lat="44.81439" lon="1.08675">
        <ele>183.4</ele>
        <time>2022-08-12T08:52:48Z</time>
      </trkpt>
      <trkpt lat="44.81438" lon="1.08684">
        <ele>183.4</ele>
        <time>2022-08-12T08:52:49Z</time>
      </trkpt>
      <trkpt lat="44.81435" lon="1.08692">
        <ele>183.4</ele>
        <time>2022-08-12T08:52:50Z</time>
      </trkpt>
      <trkpt lat="44.81431" lon="1.08699">
        <ele>183.4</ele>
        <time>2022-08-12T08:52:51Z</time>
      </trkpt>
      <trkpt lat="44.81427" lon="1.08707">
        <ele>182.4</ele>
        <time>2022-08-12T08:52:52Z</time>
      </trkpt>
      <trkpt lat="44.81423" lon="1.08714">
        <ele>182.4</ele>
        <time>2022-08-12T08:52:53Z</time>
      </trkpt>
      <trkpt lat="44.81419" lon="1.0872">
        <ele>182.4</ele>
        <time>2022-08-12T08:52:54Z</time>
      </trkpt>
      <trkpt lat="44.81415" lon="1.08724">
        <ele>182.4</ele>
        <time>2022-08-12T08:52:55Z</time>
      </trkpt>
      <trkpt lat="44.81409" lon="1.08727">
        <ele>182.4</ele>
        <time>2022-08-12T08:52:57Z</time>
      </trkpt>
      <trkpt lat="44.81404" lon="1.08733">
        <ele>181.4</ele>
        <time>2022-08-12T08:53:26Z</time>
      </trkpt>
      <trkpt lat="44.81401" lon="1.08738">
        <ele>181.4</ele>
        <time>2022-08-12T08:53:28Z</time>
      </trkpt>
      <trkpt lat="44.81396" lon="1.08746">
        <ele>181.4</ele>
        <time>2022-08-12T08:53:30Z</time>
      </trkpt>
      <trkpt lat="44.81392" lon="1.08755">
        <ele>180.4</ele>
        <time>2022-08-12T08:53:32Z</time>
      </trkpt>
      <trkpt lat="44.81389" lon="1.08764">
        <ele>179.4</ele>
        <time>2022-08-12T08:53:34Z</time>
      </trkpt>
      <trkpt lat="44.81386" lon="1.08774">
        <ele>178.4</ele>
        <time>2022-08-12T08:53:36Z</time>
      </trkpt>
      <trkpt lat="44.81384" lon="1.08787">
        <ele>177.4</ele>
        <time>2022-08-12T08:53:38Z</time>
      </trkpt>
      <trkpt lat="44.81383" lon="1.08793">
        <ele>177.4</ele>
        <time>2022-08-12T08:53:39Z</time>
      </trkpt>
      <trkpt lat="44.81383" lon="1.08801">
        <ele>176.4</ele>
        <time>2022-08-12T08:53:40Z</time>
      </trkpt>
      <trkpt lat="44.81381" lon="1.08809">
        <ele>175.4</ele>
        <time>2022-08-12T08:53:41Z</time>
      </trkpt>
      <trkpt lat="44.81379" lon="1.08817">
        <ele>174.4</ele>
        <time>2022-08-12T08:53:42Z</time>
      </trkpt>
      <trkpt lat="44.81377" lon="1.08826">
        <ele>172.4</ele>
        <time>2022-08-12T08:53:43Z</time>
      </trkpt>
      <trkpt lat="44.81374" lon="1.08835">
        <ele>171.4</ele>
        <time>2022-08-12T08:53:44Z</time>
      </trkpt>
      <trkpt lat="44.81373" lon="1.08844">
        <ele>170.4</ele>
        <time>2022-08-12T08:53:45Z</time>
      </trkpt>
      <trkpt lat="44.81371" lon="1.08853">
        <ele>169.4</ele>
        <time>2022-08-12T08:53:46Z</time>
      </trkpt>
      <trkpt lat="44.81368" lon="1.08861">
        <ele>168.4</ele>
        <time>2022-08-12T08:53:47Z</time>
      </trkpt>
      <trkpt lat="44.81366" lon="1.08869">
        <ele>167.4</ele>
        <time>2022-08-12T08:53:48Z</time>
      </trkpt>
      <trkpt lat="44.81363" lon="1.08877">
        <ele>166.4</ele>
        <time>2022-08-12T08:53:49Z</time>
      </trkpt>
      <trkpt lat="44.81361" lon="1.08885">
        <ele>166.4</ele>
        <time>2022-08-12T08:53:50Z</time>
      </trkpt>
      <trkpt lat="44.81359" lon="1.08891">
        <ele>165.4</ele>
        <time>2022-08-12T08:53:51Z</time>
      </trkpt>
      <trkpt lat="44.81355" lon="1.08904">
        <ele>164.4</ele>
        <time>2022-08-12T08:53:53Z</time>
      </trkpt>
      <trkpt lat="44.81353" lon="1.08911">
        <ele>163.4</ele>
        <time>2022-08-12T08:53:54Z</time>
      </trkpt>
      <trkpt lat="44.81351" lon="1.08918">
        <ele>163.4</ele>
        <time>2022-08-12T08:53:55Z</time>
      </trkpt>
      <trkpt lat="44.81349" lon="1.08924">
        <ele>162.4</ele>
        <time>2022-08-12T08:53:56Z</time>
      </trkpt>
      <trkpt lat="44.81346" lon="1.08935">
        <ele>162.4</ele>
        <time>2022-08-12T08:53:58Z</time>
      </trkpt>
      <trkpt lat="44.81344" lon="1.08943">
        <ele>161.4</ele>
        <time>2022-08-12T08:53:59Z</time>
      </trkpt>
      <trkpt lat="44.81341" lon="1.0895">
        <ele>161.4</ele>
        <time>2022-08-12T08:54:00Z</time>
      </trkpt>
      <trkpt lat="44.81338" lon="1.08957">
        <ele>160.4</ele>
        <time>2022-08-12T08:54:01Z</time>
      </trkpt>
      <trkpt lat="44.81335" lon="1.08964">
        <ele>160.4</ele>
        <time>2022-08-12T08:54:02Z</time>
      </trkpt>
      <trkpt lat="44.81331" lon="1.08971">
        <ele>159.4</ele>
        <time>2022-08-12T08:54:03Z</time>
      </trkpt>
      <trkpt lat="44.8133" lon="1.08978">
        <ele>158.4</ele>
        <time>2022-08-12T08:54:04Z</time>
      </trkpt>
      <trkpt lat="44.81331" lon="1.08985">
        <ele>159.4</ele>
        <time>2022-08-12T08:54:05Z</time>
      </trkpt>
      <trkpt lat="44.81333" lon="1.08992">
        <ele>158.4</ele>
        <time>2022-08-12T08:54:06Z</time>
      </trkpt>
      <trkpt lat="44.81339" lon="1.09001">
        <ele>158.4</ele>
        <time>2022-08-12T08:54:08Z</time>
      </trkpt>
      <trkpt lat="44.81344" lon="1.0901">
        <ele>158.4</ele>
        <time>2022-08-12T08:54:10Z</time>
      </trkpt>
      <trkpt lat="44.81349" lon="1.0902">
        <ele>157.4</ele>
        <time>2022-08-12T08:54:12Z</time>
      </trkpt>
      <trkpt lat="44.81352" lon="1.09026">
        <ele>157.4</ele>
        <time>2022-08-12T08:54:13Z</time>
      </trkpt>
      <trkpt lat="44.81355" lon="1.09033">
        <ele>156.4</ele>
        <time>2022-08-12T08:54:14Z</time>
      </trkpt>
      <trkpt lat="44.81355" lon="1.0904">
        <ele>156.4</ele>
        <time>2022-08-12T08:54:15Z</time>
      </trkpt>
      <trkpt lat="44.81354" lon="1.09047">
        <ele>155.4</ele>
        <time>2022-08-12T08:54:16Z</time>
      </trkpt>
      <trkpt lat="44.81352" lon="1.09053">
        <ele>153.4</ele>
        <time>2022-08-12T08:54:17Z</time>
      </trkpt>
      <trkpt lat="44.81348" lon="1.09058">
        <ele>152.4</ele>
        <time>2022-08-12T08:54:18Z</time>
      </trkpt>
      <trkpt lat="44.8134" lon="1.0906">
        <ele>150.4</ele>
        <time>2022-08-12T08:54:20Z</time>
      </trkpt>
      <trkpt lat="44.81335" lon="1.0906">
        <ele>149.4</ele>
        <time>2022-08-12T08:54:21Z</time>
      </trkpt>
      <trkpt lat="44.81328" lon="1.09056">
        <ele>147.4</ele>
        <time>2022-08-12T08:54:23Z</time>
      </trkpt>
      <trkpt lat="44.81324" lon="1.0905">
        <ele>147.4</ele>
        <time>2022-08-12T08:54:24Z</time>
      </trkpt>
      <trkpt lat="44.8132" lon="1.09046">
        <ele>145.4</ele>
        <time>2022-08-12T08:54:25Z</time>
      </trkpt>
      <trkpt lat="44.81314" lon="1.0904">
        <ele>146.4</ele>
        <time>2022-08-12T08:54:27Z</time>
      </trkpt>
      <trkpt lat="44.81309" lon="1.09032">
        <ele>145.4</ele>
        <time>2022-08-12T08:54:29Z</time>
      </trkpt>
      <trkpt lat="44.81306" lon="1.09028">
        <ele>144.4</ele>
        <time>2022-08-12T08:54:30Z</time>
      </trkpt>
      <trkpt lat="44.81302" lon="1.09024">
        <ele>143.4</ele>
        <time>2022-08-12T08:54:31Z</time>
      </trkpt>
      <trkpt lat="44.81295" lon="1.0902">
        <ele>143.4</ele>
        <time>2022-08-12T08:54:33Z</time>
      </trkpt>
      <trkpt lat="44.81291" lon="1.09025">
        <ele>143.4</ele>
        <time>2022-08-12T08:54:36Z</time>
      </trkpt>
      <trkpt lat="44.81294" lon="1.09035">
        <ele>142.4</ele>
        <time>2022-08-12T08:54:38Z</time>
      </trkpt>
      <trkpt lat="44.81296" lon="1.09041">
        <ele>142.4</ele>
        <time>2022-08-12T08:54:39Z</time>
      </trkpt>
      <trkpt lat="44.81297" lon="1.09048">
        <ele>141.4</ele>
        <time>2022-08-12T08:54:40Z</time>
      </trkpt>
      <trkpt lat="44.81297" lon="1.09054">
        <ele>139.4</ele>
        <time>2022-08-12T08:54:41Z</time>
      </trkpt>
      <trkpt lat="44.81296" lon="1.09061">
        <ele>137.4</ele>
        <time>2022-08-12T08:54:42Z</time>
      </trkpt>
      <trkpt lat="44.81294" lon="1.09071">
        <ele>136.4</ele>
        <time>2022-08-12T08:54:44Z</time>
      </trkpt>
      <trkpt lat="44.8129" lon="1.0908">
        <ele>135.4</ele>
        <time>2022-08-12T08:54:46Z</time>
      </trkpt>
      <trkpt lat="44.81288" lon="1.09091">
        <ele>133.4</ele>
        <time>2022-08-12T08:54:48Z</time>
      </trkpt>
      <trkpt lat="44.81285" lon="1.09101">
        <ele>133.4</ele>
        <time>2022-08-12T08:54:50Z</time>
      </trkpt>
      <trkpt lat="44.81281" lon="1.09111">
        <ele>132.4</ele>
        <time>2022-08-12T08:54:52Z</time>
      </trkpt>
      <trkpt lat="44.81277" lon="1.09121">
        <ele>131.4</ele>
        <time>2022-08-12T08:54:54Z</time>
      </trkpt>
      <trkpt lat="44.81274" lon="1.09126">
        <ele>130.4</ele>
        <time>2022-08-12T08:54:55Z</time>
      </trkpt>
      <trkpt lat="44.8127" lon="1.09132">
        <ele>130.4</ele>
        <time>2022-08-12T08:54:56Z</time>
      </trkpt>
      <trkpt lat="44.81267" lon="1.09137">
        <ele>128.4</ele>
        <time>2022-08-12T08:54:57Z</time>
      </trkpt>
      <trkpt lat="44.8126" lon="1.09145">
        <ele>126.4</ele>
        <time>2022-08-12T08:54:59Z</time>
      </trkpt>
      <trkpt lat="44.81257" lon="1.0915">
        <ele>125.4</ele>
        <time>2022-08-12T08:55:00Z</time>
      </trkpt>
      <trkpt lat="44.81253" lon="1.09158">
        <ele>125.4</ele>
        <time>2022-08-12T08:55:02Z</time>
      </trkpt>
      <trkpt lat="44.8125" lon="1.0917">
        <ele>124.4</ele>
        <time>2022-08-12T08:55:04Z</time>
      </trkpt>
      <trkpt lat="44.81249" lon="1.0918">
        <ele>123.4</ele>
        <time>2022-08-12T08:55:06Z</time>
      </trkpt>
      <trkpt lat="44.81249" lon="1.09192">
        <ele>123.4</ele>
        <time>2022-08-12T08:55:08Z</time>
      </trkpt>
      <trkpt lat="44.81249" lon="1.092">
        <ele>123.4</ele>
        <time>2022-08-12T08:55:09Z</time>
      </trkpt>
      <trkpt lat="44.81249" lon="1.09209">
        <ele>123.4</ele>
        <time>2022-08-12T08:55:10Z</time>
      </trkpt>
      <trkpt lat="44.8125" lon="1.0922">
        <ele>123.4</ele>
        <time>2022-08-12T08:55:11Z</time>
      </trkpt>
      <trkpt lat="44.81249" lon="1.09229">
        <ele>123.4</ele>
        <time>2022-08-12T08:55:12Z</time>
      </trkpt>
      <trkpt lat="44.81248" lon="1.0924">
        <ele>123.4</ele>
        <time>2022-08-12T08:55:13Z</time>
      </trkpt>
      <trkpt lat="44.81247" lon="1.0925">
        <ele>123.4</ele>
        <time>2022-08-12T08:55:14Z</time>
      </trkpt>
      <trkpt lat="44.81247" lon="1.0926">
        <ele>123.4</ele>
        <time>2022-08-12T08:55:15Z</time>
      </trkpt>
      <trkpt lat="44.81246" lon="1.09269">
        <ele>121.4</ele>
        <time>2022-08-12T08:55:16Z</time>
      </trkpt>
      <trkpt lat="44.81247" lon="1.09279">
        <ele>121.4</ele>
        <time>2022-08-12T08:55:17Z</time>
      </trkpt>
      <trkpt lat="44.81247" lon="1.09289">
        <ele>119.4</ele>
        <time>2022-08-12T08:55:18Z</time>
      </trkpt>
      <trkpt lat="44.81247" lon="1.09298">
        <ele>118.4</ele>
        <time>2022-08-12T08:55:19Z</time>
      </trkpt>
      <trkpt lat="44.81247" lon="1.09307">
        <ele>117.4</ele>
        <time>2022-08-12T08:55:20Z</time>
      </trkpt>
      <trkpt lat="44.81246" lon="1.09316">
        <ele>116.4</ele>
        <time>2022-08-12T08:55:21Z</time>
      </trkpt>
      <trkpt lat="44.81245" lon="1.09324">
        <ele>115.4</ele>
        <time>2022-08-12T08:55:22Z</time>
      </trkpt>
      <trkpt lat="44.81244" lon="1.09332">
        <ele>115.4</ele>
        <time>2022-08-12T08:55:23Z</time>
      </trkpt>
      <trkpt lat="44.81244" lon="1.09338">
        <ele>114.4</ele>
        <time>2022-08-12T08:55:24Z</time>
      </trkpt>
      <trkpt lat="44.81242" lon="1.09348">
        <ele>113.4</ele>
        <time>2022-08-12T08:55:26Z</time>
      </trkpt>
      <trkpt lat="44.81241" lon="1.09359">
        <ele>111.4</ele>
        <time>2022-08-12T08:55:28Z</time>
      </trkpt>
      <trkpt lat="44.81243" lon="1.09365">
        <ele>110.4</ele>
        <time>2022-08-12T08:55:29Z</time>
      </trkpt>
      <trkpt lat="44.81246" lon="1.09372">
        <ele>109.4</ele>
        <time>2022-08-12T08:55:30Z</time>
      </trkpt>
      <trkpt lat="44.81251" lon="1.09374">
        <ele>108.4</ele>
        <time>2022-08-12T08:55:31Z</time>
      </trkpt>
      <trkpt lat="44.8126" lon="1.09378">
        <ele>107.4</ele>
        <time>2022-08-12T08:55:33Z</time>
      </trkpt>
      <trkpt lat="44.81266" lon="1.09382">
        <ele>105.4</ele>
        <time>2022-08-12T08:55:35Z</time>
      </trkpt>
      <trkpt lat="44.8127" lon="1.09385">
        <ele>102.4</ele>
        <time>2022-08-12T08:55:41Z</time>
      </trkpt>
      <trkpt lat="44.81276" lon="1.09389">
        <ele>102.4</ele>
        <time>2022-08-12T08:56:28Z</time>
      </trkpt>
      <trkpt lat="44.81282" lon="1.09389">
        <ele>101.4</ele>
        <time>2022-08-12T08:56:30Z</time>
      </trkpt>
      <trkpt lat="44.81288" lon="1.09389">
        <ele>100.4</ele>
        <time>2022-08-12T08:56:32Z</time>
      </trkpt>
      <trkpt lat="44.81295" lon="1.09389">
        <ele>99.4</ele>
        <time>2022-08-12T08:56:34Z</time>
      </trkpt>
      <trkpt lat="44.81301" lon="1.09388">
        <ele>98.4</ele>
        <time>2022-08-12T08:56:36Z</time>
      </trkpt>
      <trkpt lat="44.81309" lon="1.09389">
        <ele>97.4</ele>
        <time>2022-08-12T08:56:38Z</time>
      </trkpt>
      <trkpt lat="44.81314" lon="1.09389">
        <ele>98.4</ele>
        <time>2022-08-12T08:56:39Z</time>
      </trkpt>
      <trkpt lat="44.81318" lon="1.09388">
        <ele>98.4</ele>
        <time>2022-08-12T08:56:40Z</time>
      </trkpt>
      <trkpt lat="44.81328" lon="1.09386">
        <ele>98.4</ele>
        <time>2022-08-12T08:56:42Z</time>
      </trkpt>
      <trkpt lat="44.81334" lon="1.09385">
        <ele>98.4</ele>
        <time>2022-08-12T08:56:43Z</time>
      </trkpt>
      <trkpt lat="44.81338" lon="1.09385">
        <ele>98.4</ele>
        <time>2022-08-12T08:56:44Z</time>
      </trkpt>
      <trkpt lat="44.81347" lon="1.09384">
        <ele>99.4</ele>
        <time>2022-08-12T08:56:46Z</time>
      </trkpt>
      <trkpt lat="44.81355" lon="1.09382">
        <ele>99.4</ele>
        <time>2022-08-12T08:56:48Z</time>
      </trkpt>
      <trkpt lat="44.81363" lon="1.0938">
        <ele>98.4</ele>
        <time>2022-08-12T08:56:50Z</time>
      </trkpt>
      <trkpt lat="44.8137" lon="1.0938">
        <ele>97.4</ele>
        <time>2022-08-12T08:56:52Z</time>
      </trkpt>
      <trkpt lat="44.81377" lon="1.09379">
        <ele>97.4</ele>
        <time>2022-08-12T08:56:54Z</time>
      </trkpt>
      <trkpt lat="44.81383" lon="1.0938">
        <ele>96.4</ele>
        <time>2022-08-12T08:56:55Z</time>
      </trkpt>
      <trkpt lat="44.81388" lon="1.09381">
        <ele>97.4</ele>
        <time>2022-08-12T08:56:56Z</time>
      </trkpt>
      <trkpt lat="44.81393" lon="1.09383">
        <ele>97.4</ele>
        <time>2022-08-12T08:56:57Z</time>
      </trkpt>
      <trkpt lat="44.81397" lon="1.09391">
        <ele>98.4</ele>
        <time>2022-08-12T08:56:58Z</time>
      </trkpt>
      <trkpt lat="44.81399" lon="1.094">
        <ele>97.4</ele>
        <time>2022-08-12T08:56:59Z</time>
      </trkpt>
      <trkpt lat="44.81399" lon="1.0941">
        <ele>97.4</ele>
        <time>2022-08-12T08:57:00Z</time>
      </trkpt>
      <trkpt lat="44.81399" lon="1.09419">
        <ele>97.4</ele>
        <time>2022-08-12T08:57:01Z</time>
      </trkpt>
      <trkpt lat="44.81398" lon="1.09426">
        <ele>98.4</ele>
        <time>2022-08-12T08:57:02Z</time>
      </trkpt>
      <trkpt lat="44.81397" lon="1.09436">
        <ele>99.4</ele>
        <time>2022-08-12T08:57:04Z</time>
      </trkpt>
      <trkpt lat="44.81396" lon="1.09445">
        <ele>100.4</ele>
        <time>2022-08-12T08:57:06Z</time>
      </trkpt>
      <trkpt lat="44.81396" lon="1.09453">
        <ele>101.4</ele>
        <time>2022-08-12T08:57:08Z</time>
      </trkpt>
      <trkpt lat="44.81396" lon="1.0946">
        <ele>102.4</ele>
        <time>2022-08-12T08:57:10Z</time>
      </trkpt>
      <trkpt lat="44.81396" lon="1.09467">
        <ele>103.4</ele>
        <time>2022-08-12T08:57:12Z</time>
      </trkpt>
      <trkpt lat="44.81396" lon="1.09475">
        <ele>103.4</ele>
        <time>2022-08-12T08:57:14Z</time>
      </trkpt>
      <trkpt lat="44.81394" lon="1.09483">
        <ele>105.4</ele>
        <time>2022-08-12T08:57:17Z</time>
      </trkpt>
      <trkpt lat="44.81394" lon="1.0949">
        <ele>105.4</ele>
        <time>2022-08-12T08:57:21Z</time>
      </trkpt>
      <trkpt lat="44.81396" lon="1.09497">
        <ele>104.4</ele>
        <time>2022-08-12T08:57:43Z</time>
      </trkpt>
      <trkpt lat="44.81402" lon="1.09499">
        <ele>103.4</ele>
        <time>2022-08-12T08:57:46Z</time>
      </trkpt>
      <trkpt lat="44.81408" lon="1.09503">
        <ele>103.4</ele>
        <time>2022-08-12T08:57:49Z</time>
      </trkpt>
      <trkpt lat="44.81413" lon="1.09507">
        <ele>102.4</ele>
        <time>2022-08-12T08:57:51Z</time>
      </trkpt>
      <trkpt lat="44.81419" lon="1.09511">
        <ele>102.4</ele>
        <time>2022-08-12T08:57:53Z</time>
      </trkpt>
      <trkpt lat="44.81424" lon="1.09515">
        <ele>102.4</ele>
        <time>2022-08-12T08:57:55Z</time>
      </trkpt>
      <trkpt lat="44.81431" lon="1.09517">
        <ele>102.4</ele>
        <time>2022-08-12T08:57:57Z</time>
      </trkpt>
      <trkpt lat="44.81438" lon="1.09518">
        <ele>101.4</ele>
        <time>2022-08-12T08:57:59Z</time>
      </trkpt>
      <trkpt lat="44.81443" lon="1.09517">
        <ele>102.4</ele>
        <time>2022-08-12T08:58:01Z</time>
      </trkpt>
      <trkpt lat="44.81448" lon="1.09516">
        <ele>102.4</ele>
        <time>2022-08-12T08:58:03Z</time>
      </trkpt>
      <trkpt lat="44.81454" lon="1.09515">
        <ele>103.4</ele>
        <time>2022-08-12T08:58:06Z</time>
      </trkpt>
      <trkpt lat="44.81459" lon="1.09515">
        <ele>104.4</ele>
        <time>2022-08-12T08:58:10Z</time>
      </trkpt>
      <trkpt lat="44.81464" lon="1.09517">
        <ele>105.4</ele>
        <time>2022-08-12T08:58:16Z</time>
      </trkpt>
      <trkpt lat="44.81468" lon="1.09519">
        <ele>107.4</ele>
        <time>2022-08-12T08:58:28Z</time>
      </trkpt>
      <trkpt lat="44.81473" lon="1.09519">
        <ele>112.4</ele>
        <time>2022-08-12T08:58:40Z</time>
      </trkpt>
      <trkpt lat="44.81476" lon="1.09524">
        <ele>113.4</ele>
        <time>2022-08-12T08:58:49Z</time>
      </trkpt>
      <trkpt lat="44.81479" lon="1.09529">
        <ele>117.4</ele>
        <time>2022-08-12T08:58:56Z</time>
      </trkpt>
      <trkpt lat="44.81481" lon="1.09535">
        <ele>119.4</ele>
        <time>2022-08-12T08:59:04Z</time>
      </trkpt>
      <trkpt lat="44.81486" lon="1.09541">
        <ele>118.4</ele>
        <time>2022-08-12T08:59:14Z</time>
      </trkpt>
      <trkpt lat="44.81489" lon="1.09547">
        <ele>117.4</ele>
        <time>2022-08-12T08:59:19Z</time>
      </trkpt>
      <trkpt lat="44.81493" lon="1.09552">
        <ele>117.4</ele>
        <time>2022-08-12T08:59:24Z</time>
      </trkpt>
      <trkpt lat="44.81496" lon="1.09557">
        <ele>118.4</ele>
        <time>2022-08-12T08:59:30Z</time>
      </trkpt>
      <trkpt lat="44.81498" lon="1.09564">
        <ele>120.4</ele>
        <time>2022-08-12T08:59:36Z</time>
      </trkpt>
      <trkpt lat="44.815" lon="1.09571">
        <ele>123.4</ele>
        <time>2022-08-12T08:59:43Z</time>
      </trkpt>
      <trkpt lat="44.81501" lon="1.09577">
        <ele>125.4</ele>
        <time>2022-08-12T08:59:50Z</time>
      </trkpt>
      <trkpt lat="44.81505" lon="1.09584">
        <ele>128.4</ele>
        <time>2022-08-12T09:00:00Z</time>
      </trkpt>
      <trkpt lat="44.81508" lon="1.09591">
        <ele>133.4</ele>
        <time>2022-08-12T09:00:46Z</time>
      </trkpt>
      <trkpt lat="44.81509" lon="1.09597">
        <ele>132.4</ele>
        <time>2022-08-12T09:00:54Z</time>
      </trkpt>
      <trkpt lat="44.8151" lon="1.09604">
        <ele>130.4</ele>
        <time>2022-08-12T09:01:08Z</time>
      </trkpt>
      <trkpt lat="44.81513" lon="1.09609">
        <ele>133.4</ele>
        <time>2022-08-12T09:01:19Z</time>
      </trkpt>
      <trkpt lat="44.81517" lon="1.09613">
        <ele>135.4</ele>
        <time>2022-08-12T09:01:25Z</time>
      </trkpt>
      <trkpt lat="44.81521" lon="1.09618">
        <ele>137.4</ele>
        <time>2022-08-12T09:01:31Z</time>
      </trkpt>
      <trkpt lat="44.81525" lon="1.09624">
        <ele>139.4</ele>
        <time>2022-08-12T09:01:37Z</time>
      </trkpt>
      <trkpt lat="44.81528" lon="1.09629">
        <ele>140.4</ele>
        <time>2022-08-12T09:01:43Z</time>
      </trkpt>
      <trkpt lat="44.8153" lon="1.09635">
        <ele>141.4</ele>
        <time>2022-08-12T09:01:49Z</time>
      </trkpt>
      <trkpt lat="44.81534" lon="1.09641">
        <ele>142.4</ele>
        <time>2022-08-12T09:01:55Z</time>
      </trkpt>
      <trkpt lat="44.81537" lon="1.09647">
        <ele>140.4</ele>
        <time>2022-08-12T09:02:01Z</time>
      </trkpt>
      <trkpt lat="44.81538" lon="1.09653">
        <ele>140.4</ele>
        <time>2022-08-12T09:02:08Z</time>
      </trkpt>
      <trkpt lat="44.8154" lon="1.0966">
        <ele>140.4</ele>
        <time>2022-08-12T09:02:20Z</time>
      </trkpt>
      <trkpt lat="44.8154" lon="1.09666">
        <ele>139.4</ele>
        <time>2022-08-12T09:02:27Z</time>
      </trkpt>
      <trkpt lat="44.81536" lon="1.09667">
        <ele>139.4</ele>
        <time>2022-08-12T09:02:40Z</time>
      </trkpt>
      <trkpt lat="44.81531" lon="1.0967">
        <ele>143.4</ele>
        <time>2022-08-12T09:03:00Z</time>
      </trkpt>
      <trkpt lat="44.81527" lon="1.09671">
        <ele>145.4</ele>
        <time>2022-08-12T09:03:04Z</time>
      </trkpt>
      <trkpt lat="44.81521" lon="1.09674">
        <ele>148.4</ele>
        <time>2022-08-12T09:03:10Z</time>
      </trkpt>
      <trkpt lat="44.81516" lon="1.09677">
        <ele>150.4</ele>
        <time>2022-08-12T09:03:16Z</time>
      </trkpt>
      <trkpt lat="44.81512" lon="1.09678">
        <ele>151.4</ele>
        <time>2022-08-12T09:03:20Z</time>
      </trkpt>
      <trkpt lat="44.81507" lon="1.09679">
        <ele>152.4</ele>
        <time>2022-08-12T09:03:24Z</time>
      </trkpt>
      <trkpt lat="44.81502" lon="1.0968">
        <ele>154.4</ele>
        <time>2022-08-12T09:03:29Z</time>
      </trkpt>
      <trkpt lat="44.81497" lon="1.0968">
        <ele>153.4</ele>
        <time>2022-08-12T09:03:34Z</time>
      </trkpt>
      <trkpt lat="44.81491" lon="1.09681">
        <ele>152.4</ele>
        <time>2022-08-12T09:03:42Z</time>
      </trkpt>
      <trkpt lat="44.81486" lon="1.09682">
        <ele>153.4</ele>
        <time>2022-08-12T09:03:47Z</time>
      </trkpt>
      <trkpt lat="44.81482" lon="1.09684">
        <ele>156.4</ele>
        <time>2022-08-12T09:03:54Z</time>
      </trkpt>
      <trkpt lat="44.81477" lon="1.09684">
        <ele>156.4</ele>
        <time>2022-08-12T09:04:28Z</time>
      </trkpt>
      <trkpt lat="44.81473" lon="1.09688">
        <ele>154.4</ele>
        <time>2022-08-12T09:04:36Z</time>
      </trkpt>
      <trkpt lat="44.81468" lon="1.0969">
        <ele>156.4</ele>
        <time>2022-08-12T09:04:41Z</time>
      </trkpt>
      <trkpt lat="44.81464" lon="1.09693">
        <ele>156.4</ele>
        <time>2022-08-12T09:04:47Z</time>
      </trkpt>
      <trkpt lat="44.81459" lon="1.09695">
        <ele>157.4</ele>
        <time>2022-08-12T09:04:53Z</time>
      </trkpt>
      <trkpt lat="44.81454" lon="1.09698">
        <ele>156.4</ele>
        <time>2022-08-12T09:04:59Z</time>
      </trkpt>
      <trkpt lat="44.8145" lon="1.09701">
        <ele>159.4</ele>
        <time>2022-08-12T09:05:05Z</time>
      </trkpt>
      <trkpt lat="44.81446" lon="1.09706">
        <ele>159.4</ele>
        <time>2022-08-12T09:05:11Z</time>
      </trkpt>
      <trkpt lat="44.81441" lon="1.0971">
        <ele>160.4</ele>
        <time>2022-08-12T09:05:16Z</time>
      </trkpt>
      <trkpt lat="44.81437" lon="1.09715">
        <ele>161.4</ele>
        <time>2022-08-12T09:05:24Z</time>
      </trkpt>
      <trkpt lat="44.81435" lon="1.09722">
        <ele>161.4</ele>
        <time>2022-08-12T09:05:30Z</time>
      </trkpt>
      <trkpt lat="44.81432" lon="1.09727">
        <ele>160.4</ele>
        <time>2022-08-12T09:05:35Z</time>
      </trkpt>
      <trkpt lat="44.81429" lon="1.09733">
        <ele>157.4</ele>
        <time>2022-08-12T09:05:41Z</time>
      </trkpt>
      <trkpt lat="44.81428" lon="1.0974">
        <ele>156.4</ele>
        <time>2022-08-12T09:05:47Z</time>
      </trkpt>
      <trkpt lat="44.81424" lon="1.09745">
        <ele>159.4</ele>
        <time>2022-08-12T09:05:53Z</time>
      </trkpt>
      <trkpt lat="44.81422" lon="1.09751">
        <ele>162.4</ele>
        <time>2022-08-12T09:05:58Z</time>
      </trkpt>
      <trkpt lat="44.8142" lon="1.09756">
        <ele>161.4</ele>
        <time>2022-08-12T09:06:03Z</time>
      </trkpt>
      <trkpt lat="44.81418" lon="1.09763">
        <ele>163.4</ele>
        <time>2022-08-12T09:06:10Z</time>
      </trkpt>
      <trkpt lat="44.81415" lon="1.09768">
        <ele>167.4</ele>
        <time>2022-08-12T09:06:24Z</time>
      </trkpt>
      <trkpt lat="44.81414" lon="1.09775">
        <ele>166.4</ele>
        <time>2022-08-12T09:06:31Z</time>
      </trkpt>
      <trkpt lat="44.81411" lon="1.09781">
        <ele>165.4</ele>
        <time>2022-08-12T09:06:35Z</time>
      </trkpt>
      <trkpt lat="44.81409" lon="1.09787">
        <ele>164.4</ele>
        <time>2022-08-12T09:06:39Z</time>
      </trkpt>
      <trkpt lat="44.81407" lon="1.09793">
        <ele>164.4</ele>
        <time>2022-08-12T09:06:44Z</time>
      </trkpt>
      <trkpt lat="44.81406" lon="1.098">
        <ele>163.4</ele>
        <time>2022-08-12T09:06:48Z</time>
      </trkpt>
      <trkpt lat="44.81403" lon="1.09806">
        <ele>164.4</ele>
        <time>2022-08-12T09:06:53Z</time>
      </trkpt>
      <trkpt lat="44.81402" lon="1.09813">
        <ele>164.4</ele>
        <time>2022-08-12T09:06:59Z</time>
      </trkpt>
      <trkpt lat="44.81401" lon="1.09819">
        <ele>164.4</ele>
        <time>2022-08-12T09:07:18Z</time>
      </trkpt>
      <trkpt lat="44.81399" lon="1.09825">
        <ele>167.4</ele>
        <time>2022-08-12T09:07:47Z</time>
      </trkpt>
      <trkpt lat="44.81399" lon="1.09831">
        <ele>166.4</ele>
        <time>2022-08-12T09:08:01Z</time>
      </trkpt>
      <trkpt lat="44.814" lon="1.09838">
        <ele>164.4</ele>
        <time>2022-08-12T09:08:04Z</time>
      </trkpt>
      <trkpt lat="44.814" lon="1.09844">
        <ele>167.4</ele>
        <time>2022-08-12T09:08:07Z</time>
      </trkpt>
      <trkpt lat="44.81399" lon="1.09851">
        <ele>166.4</ele>
        <time>2022-08-12T09:08:10Z</time>
      </trkpt>
      <trkpt lat="44.81398" lon="1.09859">
        <ele>166.4</ele>
        <time>2022-08-12T09:08:13Z</time>
      </trkpt>
      <trkpt lat="44.81396" lon="1.09867">
        <ele>167.4</ele>
        <time>2022-08-12T09:08:16Z</time>
      </trkpt>
      <trkpt lat="44.81395" lon="1.09876">
        <ele>167.4</ele>
        <time>2022-08-12T09:08:19Z</time>
      </trkpt>
      <trkpt lat="44.81393" lon="1.09882">
        <ele>168.4</ele>
        <time>2022-08-12T09:08:21Z</time>
      </trkpt>
      <trkpt lat="44.81391" lon="1.09888">
        <ele>168.4</ele>
        <time>2022-08-12T09:08:23Z</time>
      </trkpt>
      <trkpt lat="44.8139" lon="1.09895">
        <ele>167.4</ele>
        <time>2022-08-12T09:08:25Z</time>
      </trkpt>
      <trkpt lat="44.81389" lon="1.09902">
        <ele>167.4</ele>
        <time>2022-08-12T09:08:27Z</time>
      </trkpt>
      <trkpt lat="44.81387" lon="1.09909">
        <ele>169.4</ele>
        <time>2022-08-12T09:08:29Z</time>
      </trkpt>
      <trkpt lat="44.81386" lon="1.09916">
        <ele>169.4</ele>
        <time>2022-08-12T09:08:31Z</time>
      </trkpt>
      <trkpt lat="44.81385" lon="1.09924">
        <ele>169.4</ele>
        <time>2022-08-12T09:08:33Z</time>
      </trkpt>
      <trkpt lat="44.81384" lon="1.09931">
        <ele>169.4</ele>
        <time>2022-08-12T09:08:35Z</time>
      </trkpt>
      <trkpt lat="44.81383" lon="1.09938">
        <ele>168.4</ele>
        <time>2022-08-12T09:08:37Z</time>
      </trkpt>
      <trkpt lat="44.81382" lon="1.09944">
        <ele>167.4</ele>
        <time>2022-08-12T09:08:39Z</time>
      </trkpt>
      <trkpt lat="44.81381" lon="1.09951">
        <ele>167.4</ele>
        <time>2022-08-12T09:08:41Z</time>
      </trkpt>
      <trkpt lat="44.81378" lon="1.09958">
        <ele>167.4</ele>
        <time>2022-08-12T09:08:43Z</time>
      </trkpt>
      <trkpt lat="44.81377" lon="1.09965">
        <ele>168.4</ele>
        <time>2022-08-12T09:08:45Z</time>
      </trkpt>
      <trkpt lat="44.81375" lon="1.09971">
        <ele>169.4</ele>
        <time>2022-08-12T09:08:47Z</time>
      </trkpt>
      <trkpt lat="44.81374" lon="1.09978">
        <ele>168.4</ele>
        <time>2022-08-12T09:08:50Z</time>
      </trkpt>
      <trkpt lat="44.81372" lon="1.09985">
        <ele>167.4</ele>
        <time>2022-08-12T09:08:53Z</time>
      </trkpt>
      <trkpt lat="44.81371" lon="1.09992">
        <ele>167.4</ele>
        <time>2022-08-12T09:08:56Z</time>
      </trkpt>
      <trkpt lat="44.81371" lon="1.09999">
        <ele>168.4</ele>
        <time>2022-08-12T09:08:59Z</time>
      </trkpt>
      <trkpt lat="44.8137" lon="1.10006">
        <ele>168.4</ele>
        <time>2022-08-12T09:09:02Z</time>
      </trkpt>
      <trkpt lat="44.81368" lon="1.10013">
        <ele>169.4</ele>
        <time>2022-08-12T09:09:05Z</time>
      </trkpt>
      <trkpt lat="44.81365" lon="1.10021">
        <ele>170.4</ele>
        <time>2022-08-12T09:09:08Z</time>
      </trkpt>
      <trkpt lat="44.81362" lon="1.10027">
        <ele>171.4</ele>
        <time>2022-08-12T09:09:10Z</time>
      </trkpt>
      <trkpt lat="44.81359" lon="1.10032">
        <ele>171.4</ele>
        <time>2022-08-12T09:09:12Z</time>
      </trkpt>
      <trkpt lat="44.81358" lon="1.10041">
        <ele>172.4</ele>
        <time>2022-08-12T09:09:15Z</time>
      </trkpt>
      <trkpt lat="44.81359" lon="1.10048">
        <ele>173.4</ele>
        <time>2022-08-12T09:09:17Z</time>
      </trkpt>
      <trkpt lat="44.8136" lon="1.10054">
        <ele>173.4</ele>
        <time>2022-08-12T09:09:19Z</time>
      </trkpt>
      <trkpt lat="44.81362" lon="1.10061">
        <ele>173.4</ele>
        <time>2022-08-12T09:09:21Z</time>
      </trkpt>
      <trkpt lat="44.81364" lon="1.10068">
        <ele>173.4</ele>
        <time>2022-08-12T09:09:23Z</time>
      </trkpt>
      <trkpt lat="44.81365" lon="1.10076">
        <ele>173.4</ele>
        <time>2022-08-12T09:09:25Z</time>
      </trkpt>
      <trkpt lat="44.81367" lon="1.10084">
        <ele>173.4</ele>
        <time>2022-08-12T09:09:27Z</time>
      </trkpt>
      <trkpt lat="44.81368" lon="1.10092">
        <ele>172.4</ele>
        <time>2022-08-12T09:09:29Z</time>
      </trkpt>
      <trkpt lat="44.81371" lon="1.10098">
        <ele>172.4</ele>
        <time>2022-08-12T09:09:31Z</time>
      </trkpt>
      <trkpt lat="44.81373" lon="1.10104">
        <ele>172.4</ele>
        <time>2022-08-12T09:09:33Z</time>
      </trkpt>
      <trkpt lat="44.81376" lon="1.10109">
        <ele>172.4</ele>
        <time>2022-08-12T09:09:35Z</time>
      </trkpt>
      <trkpt lat="44.8138" lon="1.10115">
        <ele>172.4</ele>
        <time>2022-08-12T09:09:37Z</time>
      </trkpt>
      <trkpt lat="44.81385" lon="1.10121">
        <ele>172.4</ele>
        <time>2022-08-12T09:09:40Z</time>
      </trkpt>
      <trkpt lat="44.81389" lon="1.10126">
        <ele>173.4</ele>
        <time>2022-08-12T09:09:43Z</time>
      </trkpt>
      <trkpt lat="44.81394" lon="1.10131">
        <ele>170.4</ele>
        <time>2022-08-12T09:09:47Z</time>
      </trkpt>
      <trkpt lat="44.81395" lon="1.10137">
        <ele>169.4</ele>
        <time>2022-08-12T09:09:50Z</time>
      </trkpt>
      <trkpt lat="44.81392" lon="1.10141">
        <ele>167.4</ele>
        <time>2022-08-12T09:10:32Z</time>
      </trkpt>
      <trkpt lat="44.81388" lon="1.10147">
        <ele>168.4</ele>
        <time>2022-08-12T09:10:35Z</time>
      </trkpt>
      <trkpt lat="44.81385" lon="1.10152">
        <ele>168.4</ele>
        <time>2022-08-12T09:10:37Z</time>
      </trkpt>
      <trkpt lat="44.81382" lon="1.10157">
        <ele>169.4</ele>
        <time>2022-08-12T09:10:39Z</time>
      </trkpt>
      <trkpt lat="44.81378" lon="1.10162">
        <ele>169.4</ele>
        <time>2022-08-12T09:10:42Z</time>
      </trkpt>
      <trkpt lat="44.81374" lon="1.1017">
        <ele>169.4</ele>
        <time>2022-08-12T09:10:45Z</time>
      </trkpt>
      <trkpt lat="44.81371" lon="1.10176">
        <ele>169.4</ele>
        <time>2022-08-12T09:10:47Z</time>
      </trkpt>
      <trkpt lat="44.81367" lon="1.10181">
        <ele>169.4</ele>
        <time>2022-08-12T09:10:50Z</time>
      </trkpt>
      <trkpt lat="44.81363" lon="1.10187">
        <ele>169.4</ele>
        <time>2022-08-12T09:10:53Z</time>
      </trkpt>
      <trkpt lat="44.81359" lon="1.10192">
        <ele>169.4</ele>
        <time>2022-08-12T09:10:55Z</time>
      </trkpt>
      <trkpt lat="44.81355" lon="1.10197">
        <ele>168.4</ele>
        <time>2022-08-12T09:10:58Z</time>
      </trkpt>
      <trkpt lat="44.81352" lon="1.10203">
        <ele>168.4</ele>
        <time>2022-08-12T09:11:01Z</time>
      </trkpt>
      <trkpt lat="44.81349" lon="1.10209">
        <ele>168.4</ele>
        <time>2022-08-12T09:11:04Z</time>
      </trkpt>
      <trkpt lat="44.81347" lon="1.10215">
        <ele>170.4</ele>
        <time>2022-08-12T09:11:07Z</time>
      </trkpt>
      <trkpt lat="44.81346" lon="1.10222">
        <ele>170.4</ele>
        <time>2022-08-12T09:11:11Z</time>
      </trkpt>
      <trkpt lat="44.81345" lon="1.1023">
        <ele>171.4</ele>
        <time>2022-08-12T09:11:14Z</time>
      </trkpt>
      <trkpt lat="44.81344" lon="1.10236">
        <ele>171.4</ele>
        <time>2022-08-12T09:11:17Z</time>
      </trkpt>
      <trkpt lat="44.81342" lon="1.10242">
        <ele>171.4</ele>
        <time>2022-08-12T09:11:20Z</time>
      </trkpt>
      <trkpt lat="44.81342" lon="1.10249">
        <ele>171.4</ele>
        <time>2022-08-12T09:11:22Z</time>
      </trkpt>
      <trkpt lat="44.81342" lon="1.10257">
        <ele>171.4</ele>
        <time>2022-08-12T09:11:24Z</time>
      </trkpt>
      <trkpt lat="44.81342" lon="1.10266">
        <ele>172.4</ele>
        <time>2022-08-12T09:11:26Z</time>
      </trkpt>
      <trkpt lat="44.81341" lon="1.10277">
        <ele>172.4</ele>
        <time>2022-08-12T09:11:29Z</time>
      </trkpt>
      <trkpt lat="44.81339" lon="1.10283">
        <ele>172.4</ele>
        <time>2022-08-12T09:11:31Z</time>
      </trkpt>
      <trkpt lat="44.81336" lon="1.10289">
        <ele>171.4</ele>
        <time>2022-08-12T09:11:35Z</time>
      </trkpt>
      <trkpt lat="44.81335" lon="1.10281">
        <ele>169.4</ele>
        <time>2022-08-12T09:12:45Z</time>
      </trkpt>
      <trkpt lat="44.81336" lon="1.10275">
        <ele>170.4</ele>
        <time>2022-08-12T09:13:13Z</time>
      </trkpt>
      <trkpt lat="44.81336" lon="1.10282">
        <ele>168.4</ele>
        <time>2022-08-12T09:13:17Z</time>
      </trkpt>
      <trkpt lat="44.81334" lon="1.10291">
        <ele>167.4</ele>
        <time>2022-08-12T09:13:19Z</time>
      </trkpt>
      <trkpt lat="44.81331" lon="1.10299">
        <ele>166.4</ele>
        <time>2022-08-12T09:13:21Z</time>
      </trkpt>
      <trkpt lat="44.81327" lon="1.10307">
        <ele>165.4</ele>
        <time>2022-08-12T09:13:23Z</time>
      </trkpt>
      <trkpt lat="44.81324" lon="1.10315">
        <ele>165.4</ele>
        <time>2022-08-12T09:13:25Z</time>
      </trkpt>
      <trkpt lat="44.8132" lon="1.10323">
        <ele>164.4</ele>
        <time>2022-08-12T09:13:27Z</time>
      </trkpt>
      <trkpt lat="44.81318" lon="1.10332">
        <ele>164.4</ele>
        <time>2022-08-12T09:13:29Z</time>
      </trkpt>
      <trkpt lat="44.81316" lon="1.10343">
        <ele>163.4</ele>
        <time>2022-08-12T09:13:31Z</time>
      </trkpt>
      <trkpt lat="44.81315" lon="1.10352">
        <ele>163.4</ele>
        <time>2022-08-12T09:13:33Z</time>
      </trkpt>
      <trkpt lat="44.81314" lon="1.10361">
        <ele>163.4</ele>
        <time>2022-08-12T09:13:35Z</time>
      </trkpt>
      <trkpt lat="44.81313" lon="1.10367">
        <ele>163.4</ele>
        <time>2022-08-12T09:13:37Z</time>
      </trkpt>
      <trkpt lat="44.81313" lon="1.10375">
        <ele>163.4</ele>
        <time>2022-08-12T09:13:40Z</time>
      </trkpt>
      <trkpt lat="44.81314" lon="1.10384">
        <ele>163.4</ele>
        <time>2022-08-12T09:13:42Z</time>
      </trkpt>
      <trkpt lat="44.81313" lon="1.10392">
        <ele>164.4</ele>
        <time>2022-08-12T09:13:44Z</time>
      </trkpt>
      <trkpt lat="44.81313" lon="1.104">
        <ele>165.4</ele>
        <time>2022-08-12T09:13:46Z</time>
      </trkpt>
      <trkpt lat="44.81313" lon="1.10409">
        <ele>165.4</ele>
        <time>2022-08-12T09:13:48Z</time>
      </trkpt>
      <trkpt lat="44.81314" lon="1.10419">
        <ele>166.4</ele>
        <time>2022-08-12T09:13:50Z</time>
      </trkpt>
      <trkpt lat="44.81314" lon="1.10428">
        <ele>165.4</ele>
        <time>2022-08-12T09:13:52Z</time>
      </trkpt>
      <trkpt lat="44.81315" lon="1.10441">
        <ele>163.4</ele>
        <time>2022-08-12T09:13:54Z</time>
      </trkpt>
      <trkpt lat="44.81315" lon="1.10447">
        <ele>163.4</ele>
        <time>2022-08-12T09:13:55Z</time>
      </trkpt>
      <trkpt lat="44.81314" lon="1.10459">
        <ele>163.4</ele>
        <time>2022-08-12T09:13:57Z</time>
      </trkpt>
      <trkpt lat="44.81314" lon="1.10471">
        <ele>162.4</ele>
        <time>2022-08-12T09:13:59Z</time>
      </trkpt>
      <trkpt lat="44.81315" lon="1.1048">
        <ele>162.4</ele>
        <time>2022-08-12T09:14:00Z</time>
      </trkpt>
      <trkpt lat="44.81317" lon="1.10491">
        <ele>162.4</ele>
        <time>2022-08-12T09:14:01Z</time>
      </trkpt>
      <trkpt lat="44.81317" lon="1.10502">
        <ele>161.4</ele>
        <time>2022-08-12T09:14:02Z</time>
      </trkpt>
      <trkpt lat="44.81318" lon="1.10513">
        <ele>160.4</ele>
        <time>2022-08-12T09:14:03Z</time>
      </trkpt>
      <trkpt lat="44.81319" lon="1.10523">
        <ele>159.4</ele>
        <time>2022-08-12T09:14:04Z</time>
      </trkpt>
      <trkpt lat="44.8132" lon="1.10533">
        <ele>158.4</ele>
        <time>2022-08-12T09:14:05Z</time>
      </trkpt>
      <trkpt lat="44.8132" lon="1.10543">
        <ele>158.4</ele>
        <time>2022-08-12T09:14:06Z</time>
      </trkpt>
      <trkpt lat="44.81321" lon="1.10552">
        <ele>156.4</ele>
        <time>2022-08-12T09:14:07Z</time>
      </trkpt>
      <trkpt lat="44.81321" lon="1.10561">
        <ele>155.4</ele>
        <time>2022-08-12T09:14:08Z</time>
      </trkpt>
      <trkpt lat="44.81322" lon="1.10571">
        <ele>154.4</ele>
        <time>2022-08-12T09:14:09Z</time>
      </trkpt>
      <trkpt lat="44.81322" lon="1.1058">
        <ele>153.4</ele>
        <time>2022-08-12T09:14:10Z</time>
      </trkpt>
      <trkpt lat="44.81323" lon="1.1059">
        <ele>152.4</ele>
        <time>2022-08-12T09:14:11Z</time>
      </trkpt>
      <trkpt lat="44.81323" lon="1.10599">
        <ele>151.4</ele>
        <time>2022-08-12T09:14:12Z</time>
      </trkpt>
      <trkpt lat="44.81323" lon="1.10609">
        <ele>149.4</ele>
        <time>2022-08-12T09:14:13Z</time>
      </trkpt>
      <trkpt lat="44.81323" lon="1.10619">
        <ele>148.4</ele>
        <time>2022-08-12T09:14:14Z</time>
      </trkpt>
      <trkpt lat="44.81322" lon="1.10627">
        <ele>148.4</ele>
        <time>2022-08-12T09:14:15Z</time>
      </trkpt>
      <trkpt lat="44.81321" lon="1.10635">
        <ele>147.4</ele>
        <time>2022-08-12T09:14:16Z</time>
      </trkpt>
      <trkpt lat="44.8132" lon="1.10645">
        <ele>148.4</ele>
        <time>2022-08-12T09:14:18Z</time>
      </trkpt>
      <trkpt lat="44.81318" lon="1.10657">
        <ele>147.4</ele>
        <time>2022-08-12T09:14:20Z</time>
      </trkpt>
      <trkpt lat="44.81317" lon="1.10665">
        <ele>147.4</ele>
        <time>2022-08-12T09:14:21Z</time>
      </trkpt>
      <trkpt lat="44.81315" lon="1.10674">
        <ele>146.4</ele>
        <time>2022-08-12T09:14:22Z</time>
      </trkpt>
      <trkpt lat="44.81313" lon="1.10684">
        <ele>146.4</ele>
        <time>2022-08-12T09:14:23Z</time>
      </trkpt>
      <trkpt lat="44.81312" lon="1.10695">
        <ele>146.4</ele>
        <time>2022-08-12T09:14:24Z</time>
      </trkpt>
      <trkpt lat="44.8131" lon="1.10705">
        <ele>145.4</ele>
        <time>2022-08-12T09:14:25Z</time>
      </trkpt>
      <trkpt lat="44.81309" lon="1.10713">
        <ele>145.4</ele>
        <time>2022-08-12T09:14:26Z</time>
      </trkpt>
      <trkpt lat="44.81308" lon="1.1072">
        <ele>145.4</ele>
        <time>2022-08-12T09:14:27Z</time>
      </trkpt>
      <trkpt lat="44.81306" lon="1.10728">
        <ele>145.4</ele>
        <time>2022-08-12T09:14:28Z</time>
      </trkpt>
      <trkpt lat="44.81305" lon="1.10736">
        <ele>145.4</ele>
        <time>2022-08-12T09:14:29Z</time>
      </trkpt>
      <trkpt lat="44.81304" lon="1.10742">
        <ele>145.4</ele>
        <time>2022-08-12T09:14:30Z</time>
      </trkpt>
      <trkpt lat="44.81303" lon="1.1075">
        <ele>145.4</ele>
        <time>2022-08-12T09:14:31Z</time>
      </trkpt>
      <trkpt lat="44.81303" lon="1.10759">
        <ele>145.4</ele>
        <time>2022-08-12T09:14:33Z</time>
      </trkpt>
      <trkpt lat="44.81307" lon="1.10764">
        <ele>143.4</ele>
        <time>2022-08-12T09:15:28Z</time>
      </trkpt>
      <trkpt lat="44.81307" lon="1.10771">
        <ele>143.4</ele>
        <time>2022-08-12T09:15:32Z</time>
      </trkpt>
      <trkpt lat="44.81308" lon="1.10778">
        <ele>143.4</ele>
        <time>2022-08-12T09:15:35Z</time>
      </trkpt>
      <trkpt lat="44.81308" lon="1.10785">
        <ele>142.4</ele>
        <time>2022-08-12T09:15:38Z</time>
      </trkpt>
      <trkpt lat="44.81308" lon="1.10791">
        <ele>142.4</ele>
        <time>2022-08-12T09:15:40Z</time>
      </trkpt>
      <trkpt lat="44.81309" lon="1.10798">
        <ele>142.4</ele>
        <time>2022-08-12T09:15:42Z</time>
      </trkpt>
      <trkpt lat="44.8131" lon="1.10806">
        <ele>142.4</ele>
        <time>2022-08-12T09:15:44Z</time>
      </trkpt>
      <trkpt lat="44.8131" lon="1.10815">
        <ele>142.4</ele>
        <time>2022-08-12T09:15:46Z</time>
      </trkpt>
      <trkpt lat="44.81311" lon="1.10823">
        <ele>142.4</ele>
        <time>2022-08-12T09:15:48Z</time>
      </trkpt>
      <trkpt lat="44.81311" lon="1.10832">
        <ele>143.4</ele>
        <time>2022-08-12T09:15:50Z</time>
      </trkpt>
      <trkpt lat="44.81312" lon="1.10839">
        <ele>144.4</ele>
        <time>2022-08-12T09:15:52Z</time>
      </trkpt>
      <trkpt lat="44.81313" lon="1.10846">
        <ele>144.4</ele>
        <time>2022-08-12T09:15:54Z</time>
      </trkpt>
      <trkpt lat="44.81314" lon="1.10853">
        <ele>145.4</ele>
        <time>2022-08-12T09:15:56Z</time>
      </trkpt>
      <trkpt lat="44.81315" lon="1.1086">
        <ele>146.4</ele>
        <time>2022-08-12T09:15:58Z</time>
      </trkpt>
      <trkpt lat="44.81315" lon="1.10867">
        <ele>146.4</ele>
        <time>2022-08-12T09:16:00Z</time>
      </trkpt>
      <trkpt lat="44.81316" lon="1.10874">
        <ele>146.4</ele>
        <time>2022-08-12T09:16:02Z</time>
      </trkpt>
      <trkpt lat="44.81316" lon="1.10881">
        <ele>147.4</ele>
        <time>2022-08-12T09:16:04Z</time>
      </trkpt>
      <trkpt lat="44.81316" lon="1.10889">
        <ele>148.4</ele>
        <time>2022-08-12T09:16:06Z</time>
      </trkpt>
      <trkpt lat="44.81316" lon="1.10896">
        <ele>148.4</ele>
        <time>2022-08-12T09:16:08Z</time>
      </trkpt>
      <trkpt lat="44.81317" lon="1.10904">
        <ele>148.4</ele>
        <time>2022-08-12T09:16:10Z</time>
      </trkpt>
      <trkpt lat="44.81317" lon="1.10911">
        <ele>148.4</ele>
        <time>2022-08-12T09:16:12Z</time>
      </trkpt>
      <trkpt lat="44.81318" lon="1.10919">
        <ele>148.4</ele>
        <time>2022-08-12T09:16:14Z</time>
      </trkpt>
      <trkpt lat="44.81318" lon="1.10926">
        <ele>149.4</ele>
        <time>2022-08-12T09:16:16Z</time>
      </trkpt>
      <trkpt lat="44.81318" lon="1.10934">
        <ele>149.4</ele>
        <time>2022-08-12T09:16:18Z</time>
      </trkpt>
      <trkpt lat="44.81318" lon="1.10942">
        <ele>150.4</ele>
        <time>2022-08-12T09:16:20Z</time>
      </trkpt>
      <trkpt lat="44.81319" lon="1.10949">
        <ele>151.4</ele>
        <time>2022-08-12T09:16:22Z</time>
      </trkpt>
      <trkpt lat="44.81319" lon="1.10957">
        <ele>151.4</ele>
        <time>2022-08-12T09:16:24Z</time>
      </trkpt>
      <trkpt lat="44.81319" lon="1.10965">
        <ele>150.4</ele>
        <time>2022-08-12T09:16:26Z</time>
      </trkpt>
      <trkpt lat="44.81319" lon="1.10972">
        <ele>151.4</ele>
        <time>2022-08-12T09:16:28Z</time>
      </trkpt>
      <trkpt lat="44.81319" lon="1.10979">
        <ele>151.4</ele>
        <time>2022-08-12T09:16:30Z</time>
      </trkpt>
      <trkpt lat="44.8132" lon="1.10986">
        <ele>150.4</ele>
        <time>2022-08-12T09:16:32Z</time>
      </trkpt>
      <trkpt lat="44.81319" lon="1.10993">
        <ele>150.4</ele>
        <time>2022-08-12T09:16:34Z</time>
      </trkpt>
      <trkpt lat="44.81319" lon="1.11">
        <ele>150.4</ele>
        <time>2022-08-12T09:16:36Z</time>
      </trkpt>
      <trkpt lat="44.81317" lon="1.11007">
        <ele>149.4</ele>
        <time>2022-08-12T09:16:38Z</time>
      </trkpt>
      <trkpt lat="44.81315" lon="1.11014">
        <ele>149.4</ele>
        <time>2022-08-12T09:16:40Z</time>
      </trkpt>
      <trkpt lat="44.81312" lon="1.11023">
        <ele>149.4</ele>
        <time>2022-08-12T09:16:42Z</time>
      </trkpt>
      <trkpt lat="44.81309" lon="1.11033">
        <ele>147.4</ele>
        <time>2022-08-12T09:16:44Z</time>
      </trkpt>
      <trkpt lat="44.81305" lon="1.11044">
        <ele>146.4</ele>
        <time>2022-08-12T09:16:46Z</time>
      </trkpt>
      <trkpt lat="44.81301" lon="1.11056">
        <ele>146.4</ele>
        <time>2022-08-12T09:16:48Z</time>
      </trkpt>
      <trkpt lat="44.81297" lon="1.11066">
        <ele>147.4</ele>
        <time>2022-08-12T09:16:50Z</time>
      </trkpt>
      <trkpt lat="44.81295" lon="1.11074">
        <ele>146.4</ele>
        <time>2022-08-12T09:16:52Z</time>
      </trkpt>
      <trkpt lat="44.81293" lon="1.11081">
        <ele>145.4</ele>
        <time>2022-08-12T09:16:54Z</time>
      </trkpt>
      <trkpt lat="44.81292" lon="1.11087">
        <ele>144.4</ele>
        <time>2022-08-12T09:16:56Z</time>
      </trkpt>
      <trkpt lat="44.81291" lon="1.11094">
        <ele>143.4</ele>
        <time>2022-08-12T09:16:59Z</time>
      </trkpt>
      <trkpt lat="44.81295" lon="1.11097">
        <ele>142.4</ele>
        <time>2022-08-12T09:17:01Z</time>
      </trkpt>
      <trkpt lat="44.81302" lon="1.11099">
        <ele>142.4</ele>
        <time>2022-08-12T09:17:03Z</time>
      </trkpt>
      <trkpt lat="44.81307" lon="1.11101">
        <ele>142.4</ele>
        <time>2022-08-12T09:17:04Z</time>
      </trkpt>
      <trkpt lat="44.81312" lon="1.11103">
        <ele>142.4</ele>
        <time>2022-08-12T09:17:05Z</time>
      </trkpt>
      <trkpt lat="44.81317" lon="1.11105">
        <ele>142.4</ele>
        <time>2022-08-12T09:17:06Z</time>
      </trkpt>
      <trkpt lat="44.81322" lon="1.11106">
        <ele>142.4</ele>
        <time>2022-08-12T09:17:07Z</time>
      </trkpt>
      <trkpt lat="44.81328" lon="1.11108">
        <ele>141.4</ele>
        <time>2022-08-12T09:17:08Z</time>
      </trkpt>
      <trkpt lat="44.81334" lon="1.1111">
        <ele>141.4</ele>
        <time>2022-08-12T09:17:09Z</time>
      </trkpt>
      <trkpt lat="44.8134" lon="1.11113">
        <ele>140.4</ele>
        <time>2022-08-12T09:17:10Z</time>
      </trkpt>
      <trkpt lat="44.81346" lon="1.11115">
        <ele>140.4</ele>
        <time>2022-08-12T09:17:11Z</time>
      </trkpt>
      <trkpt lat="44.81352" lon="1.11119">
        <ele>140.4</ele>
        <time>2022-08-12T09:17:13Z</time>
      </trkpt>
      <trkpt lat="44.81356" lon="1.11122">
        <ele>140.4</ele>
        <time>2022-08-12T09:17:16Z</time>
      </trkpt>
      <trkpt lat="44.81362" lon="1.11127">
        <ele>140.4</ele>
        <time>2022-08-12T09:17:19Z</time>
      </trkpt>
      <trkpt lat="44.81367" lon="1.1113">
        <ele>140.4</ele>
        <time>2022-08-12T09:17:21Z</time>
      </trkpt>
      <trkpt lat="44.81372" lon="1.11133">
        <ele>140.4</ele>
        <time>2022-08-12T09:17:23Z</time>
      </trkpt>
      <trkpt lat="44.81377" lon="1.11137">
        <ele>140.4</ele>
        <time>2022-08-12T09:17:25Z</time>
      </trkpt>
      <trkpt lat="44.81382" lon="1.1114">
        <ele>140.4</ele>
        <time>2022-08-12T09:17:27Z</time>
      </trkpt>
      <trkpt lat="44.81389" lon="1.11142">
        <ele>141.4</ele>
        <time>2022-08-12T09:17:29Z</time>
      </trkpt>
      <trkpt lat="44.81395" lon="1.11146">
        <ele>141.4</ele>
        <time>2022-08-12T09:17:31Z</time>
      </trkpt>
      <trkpt lat="44.81401" lon="1.11149">
        <ele>140.4</ele>
        <time>2022-08-12T09:17:33Z</time>
      </trkpt>
      <trkpt lat="44.81408" lon="1.11152">
        <ele>140.4</ele>
        <time>2022-08-12T09:17:35Z</time>
      </trkpt>
      <trkpt lat="44.81414" lon="1.11155">
        <ele>141.4</ele>
        <time>2022-08-12T09:17:37Z</time>
      </trkpt>
      <trkpt lat="44.81419" lon="1.11157">
        <ele>141.4</ele>
        <time>2022-08-12T09:17:39Z</time>
      </trkpt>
      <trkpt lat="44.81426" lon="1.11159">
        <ele>141.4</ele>
        <time>2022-08-12T09:17:41Z</time>
      </trkpt>
      <trkpt lat="44.81431" lon="1.11159">
        <ele>141.4</ele>
        <time>2022-08-12T09:17:43Z</time>
      </trkpt>
      <trkpt lat="44.81437" lon="1.1116">
        <ele>141.4</ele>
        <time>2022-08-12T09:17:45Z</time>
      </trkpt>
      <trkpt lat="44.81443" lon="1.11161">
        <ele>141.4</ele>
        <time>2022-08-12T09:17:47Z</time>
      </trkpt>
      <trkpt lat="44.81449" lon="1.11163">
        <ele>141.4</ele>
        <time>2022-08-12T09:17:49Z</time>
      </trkpt>
      <trkpt lat="44.81454" lon="1.11164">
        <ele>141.4</ele>
        <time>2022-08-12T09:17:51Z</time>
      </trkpt>
      <trkpt lat="44.8146" lon="1.11164">
        <ele>142.4</ele>
        <time>2022-08-12T09:17:53Z</time>
      </trkpt>
      <trkpt lat="44.81465" lon="1.11165">
        <ele>142.4</ele>
        <time>2022-08-12T09:17:55Z</time>
      </trkpt>
      <trkpt lat="44.81469" lon="1.11165">
        <ele>143.4</ele>
        <time>2022-08-12T09:17:57Z</time>
      </trkpt>
      <trkpt lat="44.81474" lon="1.11166">
        <ele>144.4</ele>
        <time>2022-08-12T09:17:59Z</time>
      </trkpt>
      <trkpt lat="44.81478" lon="1.11167">
        <ele>144.4</ele>
        <time>2022-08-12T09:18:01Z</time>
      </trkpt>
      <trkpt lat="44.81483" lon="1.11168">
        <ele>145.4</ele>
        <time>2022-08-12T09:18:03Z</time>
      </trkpt>
      <trkpt lat="44.81488" lon="1.1117">
        <ele>145.4</ele>
        <time>2022-08-12T09:18:05Z</time>
      </trkpt>
      <trkpt lat="44.81492" lon="1.11171">
        <ele>145.4</ele>
        <time>2022-08-12T09:18:07Z</time>
      </trkpt>
      <trkpt lat="44.81499" lon="1.11172">
        <ele>146.4</ele>
        <time>2022-08-12T09:18:10Z</time>
      </trkpt>
      <trkpt lat="44.81504" lon="1.11174">
        <ele>146.4</ele>
        <time>2022-08-12T09:18:12Z</time>
      </trkpt>
      <trkpt lat="44.8151" lon="1.11176">
        <ele>147.4</ele>
        <time>2022-08-12T09:18:15Z</time>
      </trkpt>
      <trkpt lat="44.81515" lon="1.11178">
        <ele>147.4</ele>
        <time>2022-08-12T09:18:17Z</time>
      </trkpt>
      <trkpt lat="44.8152" lon="1.1118">
        <ele>147.4</ele>
        <time>2022-08-12T09:18:19Z</time>
      </trkpt>
      <trkpt lat="44.81526" lon="1.11183">
        <ele>148.4</ele>
        <time>2022-08-12T09:18:22Z</time>
      </trkpt>
      <trkpt lat="44.81531" lon="1.11186">
        <ele>148.4</ele>
        <time>2022-08-12T09:18:24Z</time>
      </trkpt>
      <trkpt lat="44.81536" lon="1.11188">
        <ele>148.4</ele>
        <time>2022-08-12T09:18:26Z</time>
      </trkpt>
      <trkpt lat="44.81541" lon="1.11191">
        <ele>148.4</ele>
        <time>2022-08-12T09:18:28Z</time>
      </trkpt>
      <trkpt lat="44.81546" lon="1.11193">
        <ele>149.4</ele>
        <time>2022-08-12T09:18:30Z</time>
      </trkpt>
      <trkpt lat="44.81551" lon="1.11195">
        <ele>149.4</ele>
        <time>2022-08-12T09:18:32Z</time>
      </trkpt>
      <trkpt lat="44.81555" lon="1.11199">
        <ele>149.4</ele>
        <time>2022-08-12T09:18:34Z</time>
      </trkpt>
      <trkpt lat="44.8156" lon="1.11202">
        <ele>149.4</ele>
        <time>2022-08-12T09:18:36Z</time>
      </trkpt>
      <trkpt lat="44.81565" lon="1.11204">
        <ele>148.4</ele>
        <time>2022-08-12T09:18:38Z</time>
      </trkpt>
      <trkpt lat="44.8157" lon="1.11208">
        <ele>148.4</ele>
        <time>2022-08-12T09:18:40Z</time>
      </trkpt>
      <trkpt lat="44.81577" lon="1.11214">
        <ele>147.4</ele>
        <time>2022-08-12T09:18:42Z</time>
      </trkpt>
      <trkpt lat="44.81583" lon="1.11221">
        <ele>147.4</ele>
        <time>2022-08-12T09:18:44Z</time>
      </trkpt>
      <trkpt lat="44.81591" lon="1.11227">
        <ele>147.4</ele>
        <time>2022-08-12T09:18:46Z</time>
      </trkpt>
      <trkpt lat="44.81598" lon="1.11235">
        <ele>146.4</ele>
        <time>2022-08-12T09:18:48Z</time>
      </trkpt>
      <trkpt lat="44.81602" lon="1.11239">
        <ele>145.4</ele>
        <time>2022-08-12T09:18:49Z</time>
      </trkpt>
      <trkpt lat="44.81607" lon="1.11243">
        <ele>144.4</ele>
        <time>2022-08-12T09:18:50Z</time>
      </trkpt>
      <trkpt lat="44.81611" lon="1.11247">
        <ele>144.4</ele>
        <time>2022-08-12T09:18:51Z</time>
      </trkpt>
      <trkpt lat="44.81616" lon="1.11253">
        <ele>144.4</ele>
        <time>2022-08-12T09:18:52Z</time>
      </trkpt>
      <trkpt lat="44.81621" lon="1.11258">
        <ele>143.4</ele>
        <time>2022-08-12T09:18:53Z</time>
      </trkpt>
      <trkpt lat="44.81626" lon="1.11263">
        <ele>143.4</ele>
        <time>2022-08-12T09:18:54Z</time>
      </trkpt>
      <trkpt lat="44.81632" lon="1.11269">
        <ele>143.4</ele>
        <time>2022-08-12T09:18:55Z</time>
      </trkpt>
      <trkpt lat="44.81638" lon="1.11276">
        <ele>142.4</ele>
        <time>2022-08-12T09:18:56Z</time>
      </trkpt>
      <trkpt lat="44.81643" lon="1.11282">
        <ele>142.4</ele>
        <time>2022-08-12T09:18:57Z</time>
      </trkpt>
      <trkpt lat="44.8165" lon="1.11289">
        <ele>142.4</ele>
        <time>2022-08-12T09:18:58Z</time>
      </trkpt>
      <trkpt lat="44.81656" lon="1.11295">
        <ele>142.4</ele>
        <time>2022-08-12T09:18:59Z</time>
      </trkpt>
      <trkpt lat="44.81662" lon="1.11301">
        <ele>142.4</ele>
        <time>2022-08-12T09:19:00Z</time>
      </trkpt>
      <trkpt lat="44.81669" lon="1.11307">
        <ele>141.4</ele>
        <time>2022-08-12T09:19:01Z</time>
      </trkpt>
      <trkpt lat="44.81675" lon="1.11313">
        <ele>141.4</ele>
        <time>2022-08-12T09:19:02Z</time>
      </trkpt>
      <trkpt lat="44.81682" lon="1.11319">
        <ele>140.4</ele>
        <time>2022-08-12T09:19:03Z</time>
      </trkpt>
      <trkpt lat="44.8169" lon="1.11325">
        <ele>139.4</ele>
        <time>2022-08-12T09:19:04Z</time>
      </trkpt>
      <trkpt lat="44.81697" lon="1.11331">
        <ele>139.4</ele>
        <time>2022-08-12T09:19:05Z</time>
      </trkpt>
      <trkpt lat="44.81705" lon="1.11336">
        <ele>138.4</ele>
        <time>2022-08-12T09:19:06Z</time>
      </trkpt>
      <trkpt lat="44.81713" lon="1.11343">
        <ele>138.4</ele>
        <time>2022-08-12T09:19:07Z</time>
      </trkpt>
      <trkpt lat="44.8172" lon="1.1135">
        <ele>137.4</ele>
        <time>2022-08-12T09:19:08Z</time>
      </trkpt>
      <trkpt lat="44.81728" lon="1.11357">
        <ele>136.4</ele>
        <time>2022-08-12T09:19:09Z</time>
      </trkpt>
      <trkpt lat="44.81735" lon="1.11363">
        <ele>136.4</ele>
        <time>2022-08-12T09:19:10Z</time>
      </trkpt>
      <trkpt lat="44.8174" lon="1.11369">
        <ele>136.4</ele>
        <time>2022-08-12T09:19:11Z</time>
      </trkpt>
      <trkpt lat="44.81745" lon="1.11375">
        <ele>135.4</ele>
        <time>2022-08-12T09:19:12Z</time>
      </trkpt>
      <trkpt lat="44.81751" lon="1.11382">
        <ele>135.4</ele>
        <time>2022-08-12T09:19:13Z</time>
      </trkpt>
      <trkpt lat="44.81757" lon="1.11389">
        <ele>134.4</ele>
        <time>2022-08-12T09:19:14Z</time>
      </trkpt>
      <trkpt lat="44.81763" lon="1.11395">
        <ele>133.4</ele>
        <time>2022-08-12T09:19:15Z</time>
      </trkpt>
      <trkpt lat="44.8177" lon="1.11402">
        <ele>132.4</ele>
        <time>2022-08-12T09:19:16Z</time>
      </trkpt>
      <trkpt lat="44.81777" lon="1.11408">
        <ele>131.4</ele>
        <time>2022-08-12T09:19:17Z</time>
      </trkpt>
      <trkpt lat="44.81785" lon="1.11413">
        <ele>130.4</ele>
        <time>2022-08-12T09:19:18Z</time>
      </trkpt>
      <trkpt lat="44.81792" lon="1.11418">
        <ele>130.4</ele>
        <time>2022-08-12T09:19:19Z</time>
      </trkpt>
      <trkpt lat="44.81801" lon="1.11424">
        <ele>128.4</ele>
        <time>2022-08-12T09:19:20Z</time>
      </trkpt>
      <trkpt lat="44.81809" lon="1.1143">
        <ele>127.4</ele>
        <time>2022-08-12T09:19:21Z</time>
      </trkpt>
      <trkpt lat="44.81817" lon="1.11436">
        <ele>126.4</ele>
        <time>2022-08-12T09:19:22Z</time>
      </trkpt>
      <trkpt lat="44.8183" lon="1.11445">
        <ele>126.4</ele>
        <time>2022-08-12T09:19:24Z</time>
      </trkpt>
      <trkpt lat="44.81836" lon="1.1145">
        <ele>125.4</ele>
        <time>2022-08-12T09:19:25Z</time>
      </trkpt>
      <trkpt lat="44.81844" lon="1.11455">
        <ele>124.4</ele>
        <time>2022-08-12T09:19:26Z</time>
      </trkpt>
      <trkpt lat="44.81851" lon="1.1146">
        <ele>123.4</ele>
        <time>2022-08-12T09:19:27Z</time>
      </trkpt>
      <trkpt lat="44.81859" lon="1.11466">
        <ele>122.4</ele>
        <time>2022-08-12T09:19:28Z</time>
      </trkpt>
      <trkpt lat="44.81867" lon="1.11473">
        <ele>121.4</ele>
        <time>2022-08-12T09:19:29Z</time>
      </trkpt>
      <trkpt lat="44.81875" lon="1.1148">
        <ele>121.4</ele>
        <time>2022-08-12T09:19:30Z</time>
      </trkpt>
      <trkpt lat="44.81883" lon="1.11486">
        <ele>119.4</ele>
        <time>2022-08-12T09:19:31Z</time>
      </trkpt>
      <trkpt lat="44.81891" lon="1.11493">
        <ele>119.4</ele>
        <time>2022-08-12T09:19:32Z</time>
      </trkpt>
      <trkpt lat="44.81898" lon="1.11499">
        <ele>118.4</ele>
        <time>2022-08-12T09:19:33Z</time>
      </trkpt>
      <trkpt lat="44.81905" lon="1.11505">
        <ele>117.4</ele>
        <time>2022-08-12T09:19:34Z</time>
      </trkpt>
      <trkpt lat="44.81912" lon="1.11511">
        <ele>117.4</ele>
        <time>2022-08-12T09:19:35Z</time>
      </trkpt>
      <trkpt lat="44.81918" lon="1.11516">
        <ele>116.4</ele>
        <time>2022-08-12T09:19:36Z</time>
      </trkpt>
      <trkpt lat="44.81925" lon="1.11519">
        <ele>116.4</ele>
        <time>2022-08-12T09:19:37Z</time>
      </trkpt>
      <trkpt lat="44.81932" lon="1.11521">
        <ele>115.4</ele>
        <time>2022-08-12T09:19:38Z</time>
      </trkpt>
      <trkpt lat="44.81939" lon="1.11523">
        <ele>115.4</ele>
        <time>2022-08-12T09:19:39Z</time>
      </trkpt>
      <trkpt lat="44.81946" lon="1.11525">
        <ele>114.4</ele>
        <time>2022-08-12T09:19:40Z</time>
      </trkpt>
      <trkpt lat="44.81953" lon="1.11526">
        <ele>114.4</ele>
        <time>2022-08-12T09:19:41Z</time>
      </trkpt>
      <trkpt lat="44.81961" lon="1.11528">
        <ele>114.4</ele>
        <time>2022-08-12T09:19:42Z</time>
      </trkpt>
      <trkpt lat="44.81969" lon="1.11529">
        <ele>113.4</ele>
        <time>2022-08-12T09:19:43Z</time>
      </trkpt>
      <trkpt lat="44.81978" lon="1.11531">
        <ele>113.4</ele>
        <time>2022-08-12T09:19:44Z</time>
      </trkpt>
      <trkpt lat="44.81986" lon="1.11531">
        <ele>113.4</ele>
        <time>2022-08-12T09:19:45Z</time>
      </trkpt>
      <trkpt lat="44.81994" lon="1.11532">
        <ele>113.4</ele>
        <time>2022-08-12T09:19:46Z</time>
      </trkpt>
      <trkpt lat="44.82002" lon="1.11532">
        <ele>112.4</ele>
        <time>2022-08-12T09:19:47Z</time>
      </trkpt>
      <trkpt lat="44.82009" lon="1.11533">
        <ele>112.4</ele>
        <time>2022-08-12T09:19:48Z</time>
      </trkpt>
      <trkpt lat="44.82017" lon="1.11534">
        <ele>113.4</ele>
        <time>2022-08-12T09:19:49Z</time>
      </trkpt>
      <trkpt lat="44.82025" lon="1.11535">
        <ele>112.4</ele>
        <time>2022-08-12T09:19:50Z</time>
      </trkpt>
      <trkpt lat="44.82031" lon="1.11536">
        <ele>112.4</ele>
        <time>2022-08-12T09:19:51Z</time>
      </trkpt>
      <trkpt lat="44.82038" lon="1.11537">
        <ele>113.4</ele>
        <time>2022-08-12T09:19:52Z</time>
      </trkpt>
      <trkpt lat="44.82044" lon="1.11536">
        <ele>112.4</ele>
        <time>2022-08-12T09:19:53Z</time>
      </trkpt>
      <trkpt lat="44.82049" lon="1.11535">
        <ele>113.4</ele>
        <time>2022-08-12T09:19:54Z</time>
      </trkpt>
      <trkpt lat="44.82055" lon="1.11532">
        <ele>113.4</ele>
        <time>2022-08-12T09:19:55Z</time>
      </trkpt>
      <trkpt lat="44.8206" lon="1.11529">
        <ele>113.4</ele>
        <time>2022-08-12T09:19:56Z</time>
      </trkpt>
      <trkpt lat="44.82064" lon="1.11526">
        <ele>113.4</ele>
        <time>2022-08-12T09:19:57Z</time>
      </trkpt>
      <trkpt lat="44.82069" lon="1.11523">
        <ele>113.4</ele>
        <time>2022-08-12T09:19:58Z</time>
      </trkpt>
      <trkpt lat="44.82074" lon="1.1152">
        <ele>114.4</ele>
        <time>2022-08-12T09:19:59Z</time>
      </trkpt>
      <trkpt lat="44.82081" lon="1.11515">
        <ele>114.4</ele>
        <time>2022-08-12T09:20:01Z</time>
      </trkpt>
      <trkpt lat="44.82088" lon="1.1151">
        <ele>115.4</ele>
        <time>2022-08-12T09:20:03Z</time>
      </trkpt>
      <trkpt lat="44.82095" lon="1.11505">
        <ele>114.4</ele>
        <time>2022-08-12T09:20:05Z</time>
      </trkpt>
      <trkpt lat="44.82101" lon="1.115">
        <ele>114.4</ele>
        <time>2022-08-12T09:20:07Z</time>
      </trkpt>
      <trkpt lat="44.82107" lon="1.11494">
        <ele>114.4</ele>
        <time>2022-08-12T09:20:09Z</time>
      </trkpt>
      <trkpt lat="44.82115" lon="1.11489">
        <ele>114.4</ele>
        <time>2022-08-12T09:20:11Z</time>
      </trkpt>
      <trkpt lat="44.82122" lon="1.11484">
        <ele>113.4</ele>
        <time>2022-08-12T09:20:13Z</time>
      </trkpt>
      <trkpt lat="44.82129" lon="1.11478">
        <ele>113.4</ele>
        <time>2022-08-12T09:20:15Z</time>
      </trkpt>
      <trkpt lat="44.82135" lon="1.11473">
        <ele>113.4</ele>
        <time>2022-08-12T09:20:17Z</time>
      </trkpt>
      <trkpt lat="44.82142" lon="1.11468">
        <ele>114.4</ele>
        <time>2022-08-12T09:20:19Z</time>
      </trkpt>
      <trkpt lat="44.82149" lon="1.11464">
        <ele>114.4</ele>
        <time>2022-08-12T09:20:21Z</time>
      </trkpt>
      <trkpt lat="44.82157" lon="1.11461">
        <ele>113.4</ele>
        <time>2022-08-12T09:20:23Z</time>
      </trkpt>
      <trkpt lat="44.82162" lon="1.11456">
        <ele>113.4</ele>
        <time>2022-08-12T09:20:25Z</time>
      </trkpt>
      <trkpt lat="44.82169" lon="1.1145">
        <ele>114.4</ele>
        <time>2022-08-12T09:20:27Z</time>
      </trkpt>
      <trkpt lat="44.82174" lon="1.11445">
        <ele>114.4</ele>
        <time>2022-08-12T09:20:29Z</time>
      </trkpt>
      <trkpt lat="44.82181" lon="1.11439">
        <ele>114.4</ele>
        <time>2022-08-12T09:20:31Z</time>
      </trkpt>
      <trkpt lat="44.82187" lon="1.11434">
        <ele>114.4</ele>
        <time>2022-08-12T09:20:33Z</time>
      </trkpt>
      <trkpt lat="44.82192" lon="1.11429">
        <ele>114.4</ele>
        <time>2022-08-12T09:20:35Z</time>
      </trkpt>
      <trkpt lat="44.82197" lon="1.11427">
        <ele>114.4</ele>
        <time>2022-08-12T09:20:37Z</time>
      </trkpt>
      <trkpt lat="44.82201" lon="1.11425">
        <ele>113.4</ele>
        <time>2022-08-12T09:20:39Z</time>
      </trkpt>
      <trkpt lat="44.82206" lon="1.11422">
        <ele>113.4</ele>
        <time>2022-08-12T09:20:41Z</time>
      </trkpt>
      <trkpt lat="44.82211" lon="1.11421">
        <ele>113.4</ele>
        <time>2022-08-12T09:20:43Z</time>
      </trkpt>
      <trkpt lat="44.82217" lon="1.11417">
        <ele>113.4</ele>
        <time>2022-08-12T09:20:46Z</time>
      </trkpt>
      <trkpt lat="44.82222" lon="1.11414">
        <ele>112.4</ele>
        <time>2022-08-12T09:20:48Z</time>
      </trkpt>
      <trkpt lat="44.82226" lon="1.11409">
        <ele>111.4</ele>
        <time>2022-08-12T09:20:50Z</time>
      </trkpt>
      <trkpt lat="44.82231" lon="1.11407">
        <ele>110.4</ele>
        <time>2022-08-12T09:20:52Z</time>
      </trkpt>
      <trkpt lat="44.82235" lon="1.11403">
        <ele>107.4</ele>
        <time>2022-08-12T09:21:39Z</time>
      </trkpt>
      <trkpt lat="44.82236" lon="1.11397">
        <ele>105.4</ele>
        <time>2022-08-12T09:22:09Z</time>
      </trkpt>
      <trkpt lat="44.82241" lon="1.11394">
        <ele>105.4</ele>
        <time>2022-08-12T09:22:14Z</time>
      </trkpt>
      <trkpt lat="44.82246" lon="1.11392">
        <ele>104.4</ele>
        <time>2022-08-12T09:22:17Z</time>
      </trkpt>
      <trkpt lat="44.82251" lon="1.11388">
        <ele>104.4</ele>
        <time>2022-08-12T09:22:19Z</time>
      </trkpt>
      <trkpt lat="44.82256" lon="1.11385">
        <ele>104.4</ele>
        <time>2022-08-12T09:22:21Z</time>
      </trkpt>
      <trkpt lat="44.8226" lon="1.11381">
        <ele>104.4</ele>
        <time>2022-08-12T09:22:23Z</time>
      </trkpt>
      <trkpt lat="44.82265" lon="1.11377">
        <ele>104.4</ele>
        <time>2022-08-12T09:22:25Z</time>
      </trkpt>
      <trkpt lat="44.8227" lon="1.11373">
        <ele>104.4</ele>
        <time>2022-08-12T09:22:27Z</time>
      </trkpt>
      <trkpt lat="44.82274" lon="1.1137">
        <ele>103.4</ele>
        <time>2022-08-12T09:22:29Z</time>
      </trkpt>
      <trkpt lat="44.8228" lon="1.11367">
        <ele>102.4</ele>
        <time>2022-08-12T09:22:31Z</time>
      </trkpt>
      <trkpt lat="44.82285" lon="1.11363">
        <ele>100.4</ele>
        <time>2022-08-12T09:22:34Z</time>
      </trkpt>
      <trkpt lat="44.82289" lon="1.1136">
        <ele>100.4</ele>
        <time>2022-08-12T09:22:36Z</time>
      </trkpt>
      <trkpt lat="44.82294" lon="1.11357">
        <ele>99.4</ele>
        <time>2022-08-12T09:22:39Z</time>
      </trkpt>
      <trkpt lat="44.82299" lon="1.11355">
        <ele>99.4</ele>
        <time>2022-08-12T09:22:42Z</time>
      </trkpt>
      <trkpt lat="44.82304" lon="1.11353">
        <ele>99.4</ele>
        <time>2022-08-12T09:22:46Z</time>
      </trkpt>
      <trkpt lat="44.823" lon="1.11357">
        <ele>104.4</ele>
        <time>2022-08-12T09:25:16Z</time>
      </trkpt>
      <trkpt lat="44.82305" lon="1.11354">
        <ele>107.4</ele>
        <time>2022-08-12T09:28:25Z</time>
      </trkpt>
      <trkpt lat="44.8231" lon="1.11355">
        <ele>108.4</ele>
        <time>2022-08-12T09:28:27Z</time>
      </trkpt>
      <trkpt lat="44.82314" lon="1.11358">
        <ele>107.4</ele>
        <time>2022-08-12T09:28:28Z</time>
      </trkpt>
      <trkpt lat="44.82319" lon="1.11363">
        <ele>107.4</ele>
        <time>2022-08-12T09:28:29Z</time>
      </trkpt>
      <trkpt lat="44.82321" lon="1.11368">
        <ele>108.4</ele>
        <time>2022-08-12T09:28:30Z</time>
      </trkpt>
      <trkpt lat="44.82324" lon="1.11374">
        <ele>107.4</ele>
        <time>2022-08-12T09:28:31Z</time>
      </trkpt>
      <trkpt lat="44.82326" lon="1.1138">
        <ele>107.4</ele>
        <time>2022-08-12T09:28:32Z</time>
      </trkpt>
      <trkpt lat="44.82329" lon="1.1139">
        <ele>107.4</ele>
        <time>2022-08-12T09:28:34Z</time>
      </trkpt>
      <trkpt lat="44.82331" lon="1.11395">
        <ele>106.4</ele>
        <time>2022-08-12T09:28:36Z</time>
      </trkpt>
      <trkpt lat="44.82334" lon="1.11401">
        <ele>105.4</ele>
        <time>2022-08-12T09:28:38Z</time>
      </trkpt>
      <trkpt lat="44.82337" lon="1.11407">
        <ele>104.4</ele>
        <time>2022-08-12T09:28:41Z</time>
      </trkpt>
      <trkpt lat="44.82342" lon="1.11409">
        <ele>103.4</ele>
        <time>2022-08-12T09:28:47Z</time>
      </trkpt>
      <trkpt lat="44.82346" lon="1.11412">
        <ele>103.4</ele>
        <time>2022-08-12T09:28:51Z</time>
      </trkpt>
      <trkpt lat="44.82353" lon="1.11415">
        <ele>103.4</ele>
        <time>2022-08-12T09:28:54Z</time>
      </trkpt>
      <trkpt lat="44.82357" lon="1.11418">
        <ele>103.4</ele>
        <time>2022-08-12T09:28:56Z</time>
      </trkpt>
      <trkpt lat="44.82364" lon="1.11421">
        <ele>103.4</ele>
        <time>2022-08-12T09:28:58Z</time>
      </trkpt>
      <trkpt lat="44.82369" lon="1.11423">
        <ele>103.4</ele>
        <time>2022-08-12T09:28:59Z</time>
      </trkpt>
      <trkpt lat="44.82376" lon="1.11427">
        <ele>105.4</ele>
        <time>2022-08-12T09:29:01Z</time>
      </trkpt>
      <trkpt lat="44.8238" lon="1.11427">
        <ele>106.4</ele>
        <time>2022-08-12T09:29:03Z</time>
      </trkpt>
      <trkpt lat="44.82384" lon="1.11433">
        <ele>106.4</ele>
        <time>2022-08-12T09:29:05Z</time>
      </trkpt>
      <trkpt lat="44.82389" lon="1.11442">
        <ele>106.4</ele>
        <time>2022-08-12T09:29:07Z</time>
      </trkpt>
      <trkpt lat="44.82392" lon="1.11448">
        <ele>105.4</ele>
        <time>2022-08-12T09:29:08Z</time>
      </trkpt>
      <trkpt lat="44.82395" lon="1.11455">
        <ele>104.4</ele>
        <time>2022-08-12T09:29:09Z</time>
      </trkpt>
      <trkpt lat="44.82398" lon="1.11461">
        <ele>104.4</ele>
        <time>2022-08-12T09:29:10Z</time>
      </trkpt>
      <trkpt lat="44.824" lon="1.11468">
        <ele>103.4</ele>
        <time>2022-08-12T09:29:11Z</time>
      </trkpt>
      <trkpt lat="44.82403" lon="1.11473">
        <ele>102.4</ele>
        <time>2022-08-12T09:29:12Z</time>
      </trkpt>
      <trkpt lat="44.82406" lon="1.11478">
        <ele>101.4</ele>
        <time>2022-08-12T09:29:13Z</time>
      </trkpt>
      <trkpt lat="44.82409" lon="1.11483">
        <ele>100.4</ele>
        <time>2022-08-12T09:29:14Z</time>
      </trkpt>
      <trkpt lat="44.82413" lon="1.11493">
        <ele>98.4</ele>
        <time>2022-08-12T09:29:16Z</time>
      </trkpt>
      <trkpt lat="44.82417" lon="1.11503">
        <ele>97.4</ele>
        <time>2022-08-12T09:29:18Z</time>
      </trkpt>
      <trkpt lat="44.8242" lon="1.11513">
        <ele>96.4</ele>
        <time>2022-08-12T09:29:20Z</time>
      </trkpt>
      <trkpt lat="44.82422" lon="1.1152">
        <ele>95.4</ele>
        <time>2022-08-12T09:29:22Z</time>
      </trkpt>
      <trkpt lat="44.82423" lon="1.11528">
        <ele>94.4</ele>
        <time>2022-08-12T09:29:24Z</time>
      </trkpt>
      <trkpt lat="44.8242" lon="1.11538">
        <ele>92.4</ele>
        <time>2022-08-12T09:29:26Z</time>
      </trkpt>
      <trkpt lat="44.82416" lon="1.11542">
        <ele>91.4</ele>
        <time>2022-08-12T09:29:27Z</time>
      </trkpt>
      <trkpt lat="44.82412" lon="1.11546">
        <ele>91.4</ele>
        <time>2022-08-12T09:29:28Z</time>
      </trkpt>
      <trkpt lat="44.82408" lon="1.11549">
        <ele>90.4</ele>
        <time>2022-08-12T09:29:29Z</time>
      </trkpt>
      <trkpt lat="44.82403" lon="1.11552">
        <ele>90.4</ele>
        <time>2022-08-12T09:29:30Z</time>
      </trkpt>
      <trkpt lat="44.82399" lon="1.11555">
        <ele>90.4</ele>
        <time>2022-08-12T09:29:31Z</time>
      </trkpt>
      <trkpt lat="44.82392" lon="1.11559">
        <ele>89.4</ele>
        <time>2022-08-12T09:29:33Z</time>
      </trkpt>
      <trkpt lat="44.82394" lon="1.11567">
        <ele>89.4</ele>
        <time>2022-08-12T09:29:37Z</time>
      </trkpt>
      <trkpt lat="44.82399" lon="1.11573">
        <ele>89.4</ele>
        <time>2022-08-12T09:29:39Z</time>
      </trkpt>
      <trkpt lat="44.82406" lon="1.11578">
        <ele>88.4</ele>
        <time>2022-08-12T09:29:41Z</time>
      </trkpt>
      <trkpt lat="44.8241" lon="1.11582">
        <ele>88.4</ele>
        <time>2022-08-12T09:29:42Z</time>
      </trkpt>
      <trkpt lat="44.82414" lon="1.11584">
        <ele>88.4</ele>
        <time>2022-08-12T09:29:43Z</time>
      </trkpt>
      <trkpt lat="44.82419" lon="1.11587">
        <ele>87.4</ele>
        <time>2022-08-12T09:29:44Z</time>
      </trkpt>
      <trkpt lat="44.82424" lon="1.11589">
        <ele>87.4</ele>
        <time>2022-08-12T09:29:45Z</time>
      </trkpt>
      <trkpt lat="44.82429" lon="1.11591">
        <ele>87.4</ele>
        <time>2022-08-12T09:29:46Z</time>
      </trkpt>
      <trkpt lat="44.82433" lon="1.11592">
        <ele>86.4</ele>
        <time>2022-08-12T09:29:47Z</time>
      </trkpt>
      <trkpt lat="44.82438" lon="1.11593">
        <ele>86.4</ele>
        <time>2022-08-12T09:29:48Z</time>
      </trkpt>
      <trkpt lat="44.82442" lon="1.11595">
        <ele>86.4</ele>
        <time>2022-08-12T09:29:49Z</time>
      </trkpt>
      <trkpt lat="44.82449" lon="1.11597">
        <ele>84.4</ele>
        <time>2022-08-12T09:29:51Z</time>
      </trkpt>
      <trkpt lat="44.82455" lon="1.11596">
        <ele>84.4</ele>
        <time>2022-08-12T09:29:53Z</time>
      </trkpt>
      <trkpt lat="44.8246" lon="1.11595">
        <ele>84.4</ele>
        <time>2022-08-12T09:29:55Z</time>
      </trkpt>
      <trkpt lat="44.82466" lon="1.11593">
        <ele>83.4</ele>
        <time>2022-08-12T09:29:57Z</time>
      </trkpt>
      <trkpt lat="44.82472" lon="1.11592">
        <ele>82.4</ele>
        <time>2022-08-12T09:29:59Z</time>
      </trkpt>
      <trkpt lat="44.82478" lon="1.1159">
        <ele>82.4</ele>
        <time>2022-08-12T09:30:01Z</time>
      </trkpt>
      <trkpt lat="44.82484" lon="1.11588">
        <ele>82.4</ele>
        <time>2022-08-12T09:30:03Z</time>
      </trkpt>
      <trkpt lat="44.82491" lon="1.11588">
        <ele>81.4</ele>
        <time>2022-08-12T09:30:05Z</time>
      </trkpt>
      <trkpt lat="44.82499" lon="1.11588">
        <ele>79.4</ele>
        <time>2022-08-12T09:30:07Z</time>
      </trkpt>
      <trkpt lat="44.82505" lon="1.11586">
        <ele>78.4</ele>
        <time>2022-08-12T09:30:09Z</time>
      </trkpt>
      <trkpt lat="44.82511" lon="1.11584">
        <ele>78.4</ele>
        <time>2022-08-12T09:30:11Z</time>
      </trkpt>
      <trkpt lat="44.82518" lon="1.11582">
        <ele>76.4</ele>
        <time>2022-08-12T09:30:13Z</time>
      </trkpt>
      <trkpt lat="44.82524" lon="1.11582">
        <ele>75.4</ele>
        <time>2022-08-12T09:30:15Z</time>
      </trkpt>
      <trkpt lat="44.82528" lon="1.11581">
        <ele>73.4</ele>
        <time>2022-08-12T09:30:17Z</time>
      </trkpt>
      <trkpt lat="44.82534" lon="1.1158">
        <ele>71.4</ele>
        <time>2022-08-12T09:30:20Z</time>
      </trkpt>
      <trkpt lat="44.82539" lon="1.11583">
        <ele>70.4</ele>
        <time>2022-08-12T09:30:22Z</time>
      </trkpt>
      <trkpt lat="44.82549" lon="1.11589">
        <ele>68.4</ele>
        <time>2022-08-12T09:30:24Z</time>
      </trkpt>
      <trkpt lat="44.82553" lon="1.11592">
        <ele>67.4</ele>
        <time>2022-08-12T09:30:25Z</time>
      </trkpt>
      <trkpt lat="44.82557" lon="1.11595">
        <ele>65.4</ele>
        <time>2022-08-12T09:30:26Z</time>
      </trkpt>
      <trkpt lat="44.82561" lon="1.11599">
        <ele>64.4</ele>
        <time>2022-08-12T09:30:27Z</time>
      </trkpt>
      <trkpt lat="44.82565" lon="1.11602">
        <ele>64.4</ele>
        <time>2022-08-12T09:30:28Z</time>
      </trkpt>
      <trkpt lat="44.82569" lon="1.11606">
        <ele>63.4</ele>
        <time>2022-08-12T09:30:29Z</time>
      </trkpt>
      <trkpt lat="44.82575" lon="1.11615">
        <ele>61.4</ele>
        <time>2022-08-12T09:30:31Z</time>
      </trkpt>
      <trkpt lat="44.8258" lon="1.11624">
        <ele>60.4</ele>
        <time>2022-08-12T09:30:33Z</time>
      </trkpt>
      <trkpt lat="44.82584" lon="1.11631">
        <ele>60.4</ele>
        <time>2022-08-12T09:30:35Z</time>
      </trkpt>
      <trkpt lat="44.82588" lon="1.11638">
        <ele>60.4</ele>
        <time>2022-08-12T09:30:37Z</time>
      </trkpt>
      <trkpt lat="44.82593" lon="1.11645">
        <ele>60.4</ele>
        <time>2022-08-12T09:30:39Z</time>
      </trkpt>
      <trkpt lat="44.82597" lon="1.11653">
        <ele>59.4</ele>
        <time>2022-08-12T09:30:41Z</time>
      </trkpt>
      <trkpt lat="44.82604" lon="1.11661">
        <ele>58.4</ele>
        <time>2022-08-12T09:30:43Z</time>
      </trkpt>
      <trkpt lat="44.82611" lon="1.11668">
        <ele>58.4</ele>
        <time>2022-08-12T09:30:45Z</time>
      </trkpt>
      <trkpt lat="44.82616" lon="1.11676">
        <ele>58.4</ele>
        <time>2022-08-12T09:30:47Z</time>
      </trkpt>
      <trkpt lat="44.82622" lon="1.11683">
        <ele>59.4</ele>
        <time>2022-08-12T09:30:49Z</time>
      </trkpt>
      <trkpt lat="44.82628" lon="1.11689">
        <ele>59.4</ele>
        <time>2022-08-12T09:30:51Z</time>
      </trkpt>
      <trkpt lat="44.82633" lon="1.11697">
        <ele>60.4</ele>
        <time>2022-08-12T09:30:53Z</time>
      </trkpt>
      <trkpt lat="44.82637" lon="1.11707">
        <ele>61.4</ele>
        <time>2022-08-12T09:30:55Z</time>
      </trkpt>
      <trkpt lat="44.82644" lon="1.11714">
        <ele>61.4</ele>
        <time>2022-08-12T09:30:57Z</time>
      </trkpt>
      <trkpt lat="44.82649" lon="1.11721">
        <ele>62.4</ele>
        <time>2022-08-12T09:30:59Z</time>
      </trkpt>
      <trkpt lat="44.82655" lon="1.11728">
        <ele>62.4</ele>
        <time>2022-08-12T09:31:01Z</time>
      </trkpt>
      <trkpt lat="44.8266" lon="1.11734">
        <ele>62.4</ele>
        <time>2022-08-12T09:31:03Z</time>
      </trkpt>
      <trkpt lat="44.82664" lon="1.11738">
        <ele>62.4</ele>
        <time>2022-08-12T09:31:05Z</time>
      </trkpt>
      <trkpt lat="44.82668" lon="1.11743">
        <ele>62.4</ele>
        <time>2022-08-12T09:31:07Z</time>
      </trkpt>
      <trkpt lat="44.82669" lon="1.1175">
        <ele>62.4</ele>
        <time>2022-08-12T09:31:10Z</time>
      </trkpt>
      <trkpt lat="44.82663" lon="1.11752">
        <ele>63.4</ele>
        <time>2022-08-12T09:31:14Z</time>
      </trkpt>
      <trkpt lat="44.82659" lon="1.11751">
        <ele>63.4</ele>
        <time>2022-08-12T09:31:17Z</time>
      </trkpt>
      <trkpt lat="44.82654" lon="1.11749">
        <ele>64.4</ele>
        <time>2022-08-12T09:31:20Z</time>
      </trkpt>
      <trkpt lat="44.82649" lon="1.11749">
        <ele>64.4</ele>
        <time>2022-08-12T09:31:23Z</time>
      </trkpt>
      <trkpt lat="44.82643" lon="1.1175">
        <ele>65.4</ele>
        <time>2022-08-12T09:31:26Z</time>
      </trkpt>
      <trkpt lat="44.82638" lon="1.11752">
        <ele>66.4</ele>
        <time>2022-08-12T09:31:29Z</time>
      </trkpt>
      <trkpt lat="44.82634" lon="1.11758">
        <ele>65.4</ele>
        <time>2022-08-12T09:31:32Z</time>
      </trkpt>
      <trkpt lat="44.82631" lon="1.11763">
        <ele>64.4</ele>
        <time>2022-08-12T09:31:35Z</time>
      </trkpt>
      <trkpt lat="44.82628" lon="1.11767">
        <ele>64.4</ele>
        <time>2022-08-12T09:31:38Z</time>
      </trkpt>
      <trkpt lat="44.82624" lon="1.11772">
        <ele>63.4</ele>
        <time>2022-08-12T09:31:41Z</time>
      </trkpt>
      <trkpt lat="44.8262" lon="1.11776">
        <ele>63.4</ele>
        <time>2022-08-12T09:31:44Z</time>
      </trkpt>
      <trkpt lat="44.82616" lon="1.1178">
        <ele>63.4</ele>
        <time>2022-08-12T09:31:47Z</time>
      </trkpt>
      <trkpt lat="44.82612" lon="1.11785">
        <ele>64.4</ele>
        <time>2022-08-12T09:31:50Z</time>
      </trkpt>
      <trkpt lat="44.82607" lon="1.11788">
        <ele>65.4</ele>
        <time>2022-08-12T09:31:54Z</time>
      </trkpt>
      <trkpt lat="44.82603" lon="1.11792">
        <ele>65.4</ele>
        <time>2022-08-12T09:31:57Z</time>
      </trkpt>
      <trkpt lat="44.82599" lon="1.11797">
        <ele>66.4</ele>
        <time>2022-08-12T09:32:00Z</time>
      </trkpt>
      <trkpt lat="44.82596" lon="1.11802">
        <ele>66.4</ele>
        <time>2022-08-12T09:32:03Z</time>
      </trkpt>
      <trkpt lat="44.82593" lon="1.11809">
        <ele>66.4</ele>
        <time>2022-08-12T09:32:07Z</time>
      </trkpt>
      <trkpt lat="44.8259" lon="1.11814">
        <ele>66.4</ele>
        <time>2022-08-12T09:32:10Z</time>
      </trkpt>
      <trkpt lat="44.82589" lon="1.11821">
        <ele>65.4</ele>
        <time>2022-08-12T09:32:13Z</time>
      </trkpt>
      <trkpt lat="44.82588" lon="1.11827">
        <ele>65.4</ele>
        <time>2022-08-12T09:32:16Z</time>
      </trkpt>
      <trkpt lat="44.82587" lon="1.11835">
        <ele>66.4</ele>
        <time>2022-08-12T09:32:20Z</time>
      </trkpt>
      <trkpt lat="44.82585" lon="1.11843">
        <ele>66.4</ele>
        <time>2022-08-12T09:32:24Z</time>
      </trkpt>
      <trkpt lat="44.82583" lon="1.1185">
        <ele>66.4</ele>
        <time>2022-08-12T09:32:28Z</time>
      </trkpt>
      <trkpt lat="44.82582" lon="1.11857">
        <ele>65.4</ele>
        <time>2022-08-12T09:32:33Z</time>
      </trkpt>
      <trkpt lat="44.82582" lon="1.11864">
        <ele>65.4</ele>
        <time>2022-08-12T09:32:37Z</time>
      </trkpt>
      <trkpt lat="44.82582" lon="1.11872">
        <ele>66.4</ele>
        <time>2022-08-12T09:32:41Z</time>
      </trkpt>
      <trkpt lat="44.82582" lon="1.11878">
        <ele>66.4</ele>
        <time>2022-08-12T09:32:44Z</time>
      </trkpt>
      <trkpt lat="44.8258" lon="1.11885">
        <ele>66.4</ele>
        <time>2022-08-12T09:32:47Z</time>
      </trkpt>
      <trkpt lat="44.82579" lon="1.11891">
        <ele>68.4</ele>
        <time>2022-08-12T09:32:50Z</time>
      </trkpt>
      <trkpt lat="44.82577" lon="1.119">
        <ele>69.4</ele>
        <time>2022-08-12T09:32:54Z</time>
      </trkpt>
      <trkpt lat="44.82575" lon="1.11905">
        <ele>69.4</ele>
        <time>2022-08-12T09:32:57Z</time>
      </trkpt>
      <trkpt lat="44.82571" lon="1.11911">
        <ele>69.4</ele>
        <time>2022-08-12T09:33:01Z</time>
      </trkpt>
      <trkpt lat="44.82568" lon="1.11918">
        <ele>70.4</ele>
        <time>2022-08-12T09:33:05Z</time>
      </trkpt>
      <trkpt lat="44.82565" lon="1.11925">
        <ele>72.4</ele>
        <time>2022-08-12T09:33:09Z</time>
      </trkpt>
      <trkpt lat="44.82561" lon="1.11931">
        <ele>73.4</ele>
        <time>2022-08-12T09:33:13Z</time>
      </trkpt>
      <trkpt lat="44.82559" lon="1.11937">
        <ele>74.4</ele>
        <time>2022-08-12T09:33:16Z</time>
      </trkpt>
      <trkpt lat="44.82557" lon="1.11943">
        <ele>75.4</ele>
        <time>2022-08-12T09:33:19Z</time>
      </trkpt>
      <trkpt lat="44.82554" lon="1.1195">
        <ele>75.4</ele>
        <time>2022-08-12T09:33:23Z</time>
      </trkpt>
      <trkpt lat="44.82551" lon="1.11956">
        <ele>76.4</ele>
        <time>2022-08-12T09:33:27Z</time>
      </trkpt>
      <trkpt lat="44.82547" lon="1.11961">
        <ele>78.4</ele>
        <time>2022-08-12T09:33:31Z</time>
      </trkpt>
      <trkpt lat="44.82543" lon="1.11967">
        <ele>79.4</ele>
        <time>2022-08-12T09:33:35Z</time>
      </trkpt>
      <trkpt lat="44.82539" lon="1.11971">
        <ele>80.4</ele>
        <time>2022-08-12T09:33:39Z</time>
      </trkpt>
      <trkpt lat="44.82535" lon="1.11977">
        <ele>81.4</ele>
        <time>2022-08-12T09:33:43Z</time>
      </trkpt>
      <trkpt lat="44.82532" lon="1.11983">
        <ele>85.4</ele>
        <time>2022-08-12T09:33:47Z</time>
      </trkpt>
      <trkpt lat="44.82529" lon="1.11988">
        <ele>87.4</ele>
        <time>2022-08-12T09:33:51Z</time>
      </trkpt>
      <trkpt lat="44.82526" lon="1.11993">
        <ele>88.4</ele>
        <time>2022-08-12T09:33:54Z</time>
      </trkpt>
      <trkpt lat="44.82522" lon="1.11999">
        <ele>90.4</ele>
        <time>2022-08-12T09:33:58Z</time>
      </trkpt>
      <trkpt lat="44.82519" lon="1.12006">
        <ele>92.4</ele>
        <time>2022-08-12T09:34:02Z</time>
      </trkpt>
      <trkpt lat="44.82516" lon="1.12012">
        <ele>94.4</ele>
        <time>2022-08-12T09:34:06Z</time>
      </trkpt>
      <trkpt lat="44.82512" lon="1.12017">
        <ele>95.4</ele>
        <time>2022-08-12T09:34:10Z</time>
      </trkpt>
      <trkpt lat="44.82509" lon="1.12023">
        <ele>95.4</ele>
        <time>2022-08-12T09:34:14Z</time>
      </trkpt>
      <trkpt lat="44.82506" lon="1.12029">
        <ele>95.4</ele>
        <time>2022-08-12T09:34:18Z</time>
      </trkpt>
      <trkpt lat="44.82503" lon="1.12035">
        <ele>96.4</ele>
        <time>2022-08-12T09:34:22Z</time>
      </trkpt>
      <trkpt lat="44.825" lon="1.12042">
        <ele>98.4</ele>
        <time>2022-08-12T09:34:27Z</time>
      </trkpt>
      <trkpt lat="44.82498" lon="1.12049">
        <ele>99.4</ele>
        <time>2022-08-12T09:34:31Z</time>
      </trkpt>
      <trkpt lat="44.82495" lon="1.12055">
        <ele>101.4</ele>
        <time>2022-08-12T09:34:36Z</time>
      </trkpt>
      <trkpt lat="44.82492" lon="1.12062">
        <ele>102.4</ele>
        <time>2022-08-12T09:34:41Z</time>
      </trkpt>
      <trkpt lat="44.82489" lon="1.12069">
        <ele>103.4</ele>
        <time>2022-08-12T09:34:44Z</time>
      </trkpt>
      <trkpt lat="44.82487" lon="1.12076">
        <ele>104.4</ele>
        <time>2022-08-12T09:34:48Z</time>
      </trkpt>
      <trkpt lat="44.82485" lon="1.12083">
        <ele>106.4</ele>
        <time>2022-08-12T09:34:52Z</time>
      </trkpt>
      <trkpt lat="44.82483" lon="1.1209">
        <ele>107.4</ele>
        <time>2022-08-12T09:34:56Z</time>
      </trkpt>
      <trkpt lat="44.82482" lon="1.12096">
        <ele>108.4</ele>
        <time>2022-08-12T09:35:00Z</time>
      </trkpt>
      <trkpt lat="44.82479" lon="1.12102">
        <ele>109.4</ele>
        <time>2022-08-12T09:35:05Z</time>
      </trkpt>
      <trkpt lat="44.82476" lon="1.12107">
        <ele>106.4</ele>
        <time>2022-08-12T09:35:10Z</time>
      </trkpt>
      <trkpt lat="44.82473" lon="1.12102">
        <ele>105.4</ele>
        <time>2022-08-12T09:36:23Z</time>
      </trkpt>
      <trkpt lat="44.82475" lon="1.12093">
        <ele>111.4</ele>
        <time>2022-08-12T09:38:10Z</time>
      </trkpt>
      <trkpt lat="44.82477" lon="1.12085">
        <ele>109.4</ele>
        <time>2022-08-12T09:38:12Z</time>
      </trkpt>
      <trkpt lat="44.82485" lon="1.12076">
        <ele>104.4</ele>
        <time>2022-08-12T09:38:14Z</time>
      </trkpt>
      <trkpt lat="44.82488" lon="1.12071">
        <ele>103.4</ele>
        <time>2022-08-12T09:38:15Z</time>
      </trkpt>
      <trkpt lat="44.8249" lon="1.12065">
        <ele>102.4</ele>
        <time>2022-08-12T09:38:16Z</time>
      </trkpt>
      <trkpt lat="44.82491" lon="1.12059">
        <ele>101.4</ele>
        <time>2022-08-12T09:38:17Z</time>
      </trkpt>
      <trkpt lat="44.82495" lon="1.12049">
        <ele>98.4</ele>
        <time>2022-08-12T09:38:19Z</time>
      </trkpt>
      <trkpt lat="44.82499" lon="1.12038">
        <ele>96.4</ele>
        <time>2022-08-12T09:38:21Z</time>
      </trkpt>
      <trkpt lat="44.82503" lon="1.12029">
        <ele>93.4</ele>
        <time>2022-08-12T09:38:23Z</time>
      </trkpt>
      <trkpt lat="44.82506" lon="1.12024">
        <ele>92.4</ele>
        <time>2022-08-12T09:38:24Z</time>
      </trkpt>
      <trkpt lat="44.8251" lon="1.12018">
        <ele>91.4</ele>
        <time>2022-08-12T09:38:25Z</time>
      </trkpt>
      <trkpt lat="44.82513" lon="1.12011">
        <ele>91.4</ele>
        <time>2022-08-12T09:38:26Z</time>
      </trkpt>
      <trkpt lat="44.82516" lon="1.12006">
        <ele>90.4</ele>
        <time>2022-08-12T09:38:27Z</time>
      </trkpt>
      <trkpt lat="44.8252" lon="1.12001">
        <ele>89.4</ele>
        <time>2022-08-12T09:38:28Z</time>
      </trkpt>
      <trkpt lat="44.82524" lon="1.11995">
        <ele>88.4</ele>
        <time>2022-08-12T09:38:29Z</time>
      </trkpt>
      <trkpt lat="44.82528" lon="1.11988">
        <ele>88.4</ele>
        <time>2022-08-12T09:38:30Z</time>
      </trkpt>
      <trkpt lat="44.82533" lon="1.11982">
        <ele>86.4</ele>
        <time>2022-08-12T09:38:31Z</time>
      </trkpt>
      <trkpt lat="44.82537" lon="1.11976">
        <ele>86.4</ele>
        <time>2022-08-12T09:38:32Z</time>
      </trkpt>
      <trkpt lat="44.8254" lon="1.11971">
        <ele>85.4</ele>
        <time>2022-08-12T09:38:33Z</time>
      </trkpt>
      <trkpt lat="44.82546" lon="1.11963">
        <ele>84.4</ele>
        <time>2022-08-12T09:38:35Z</time>
      </trkpt>
      <trkpt lat="44.8255" lon="1.11956">
        <ele>84.4</ele>
        <time>2022-08-12T09:38:37Z</time>
      </trkpt>
      <trkpt lat="44.82554" lon="1.1195">
        <ele>84.4</ele>
        <time>2022-08-12T09:38:40Z</time>
      </trkpt>
      <trkpt lat="44.82549" lon="1.11954">
        <ele>84.4</ele>
        <time>2022-08-12T09:39:19Z</time>
      </trkpt>
      <trkpt lat="44.82544" lon="1.1196">
        <ele>82.4</ele>
        <time>2022-08-12T09:39:23Z</time>
      </trkpt>
      <trkpt lat="44.82541" lon="1.11966">
        <ele>81.4</ele>
        <time>2022-08-12T09:39:27Z</time>
      </trkpt>
      <trkpt lat="44.82537" lon="1.11971">
        <ele>81.4</ele>
        <time>2022-08-12T09:39:31Z</time>
      </trkpt>
      <trkpt lat="44.82534" lon="1.11977">
        <ele>81.4</ele>
        <time>2022-08-12T09:39:35Z</time>
      </trkpt>
      <trkpt lat="44.82529" lon="1.11982">
        <ele>81.4</ele>
        <time>2022-08-12T09:39:39Z</time>
      </trkpt>
      <trkpt lat="44.82525" lon="1.11987">
        <ele>80.4</ele>
        <time>2022-08-12T09:39:43Z</time>
      </trkpt>
      <trkpt lat="44.82521" lon="1.11994">
        <ele>81.4</ele>
        <time>2022-08-12T09:39:47Z</time>
      </trkpt>
      <trkpt lat="44.82517" lon="1.12">
        <ele>82.4</ele>
        <time>2022-08-12T09:39:51Z</time>
      </trkpt>
      <trkpt lat="44.82515" lon="1.12007">
        <ele>82.4</ele>
        <time>2022-08-12T09:39:55Z</time>
      </trkpt>
      <trkpt lat="44.82511" lon="1.12013">
        <ele>82.4</ele>
        <time>2022-08-12T09:39:59Z</time>
      </trkpt>
      <trkpt lat="44.82507" lon="1.1202">
        <ele>82.4</ele>
        <time>2022-08-12T09:40:03Z</time>
      </trkpt>
      <trkpt lat="44.82504" lon="1.12024">
        <ele>82.4</ele>
        <time>2022-08-12T09:40:06Z</time>
      </trkpt>
      <trkpt lat="44.825" lon="1.1203">
        <ele>83.4</ele>
        <time>2022-08-12T09:40:10Z</time>
      </trkpt>
      <trkpt lat="44.82496" lon="1.12034">
        <ele>83.4</ele>
        <time>2022-08-12T09:40:14Z</time>
      </trkpt>
      <trkpt lat="44.82493" lon="1.12041">
        <ele>82.4</ele>
        <time>2022-08-12T09:40:20Z</time>
      </trkpt>
      <trkpt lat="44.82492" lon="1.12049">
        <ele>83.4</ele>
        <time>2022-08-12T09:40:24Z</time>
      </trkpt>
      <trkpt lat="44.82491" lon="1.12055">
        <ele>83.4</ele>
        <time>2022-08-12T09:40:27Z</time>
      </trkpt>
      <trkpt lat="44.82489" lon="1.12061">
        <ele>83.4</ele>
        <time>2022-08-12T09:40:31Z</time>
      </trkpt>
      <trkpt lat="44.82487" lon="1.12068">
        <ele>83.4</ele>
        <time>2022-08-12T09:40:35Z</time>
      </trkpt>
      <trkpt lat="44.82484" lon="1.12076">
        <ele>83.4</ele>
        <time>2022-08-12T09:40:39Z</time>
      </trkpt>
      <trkpt lat="44.82482" lon="1.12083">
        <ele>83.4</ele>
        <time>2022-08-12T09:40:45Z</time>
      </trkpt>
      <trkpt lat="44.8248" lon="1.1209">
        <ele>86.4</ele>
        <time>2022-08-12T09:40:48Z</time>
      </trkpt>
      <trkpt lat="44.82479" lon="1.12098">
        <ele>88.4</ele>
        <time>2022-08-12T09:40:53Z</time>
      </trkpt>
      <trkpt lat="44.82476" lon="1.12104">
        <ele>90.4</ele>
        <time>2022-08-12T09:40:57Z</time>
      </trkpt>
      <trkpt lat="44.82474" lon="1.12113">
        <ele>91.4</ele>
        <time>2022-08-12T09:41:02Z</time>
      </trkpt>
      <trkpt lat="44.82471" lon="1.12121">
        <ele>91.4</ele>
        <time>2022-08-12T09:41:07Z</time>
      </trkpt>
      <trkpt lat="44.82468" lon="1.12126">
        <ele>92.4</ele>
        <time>2022-08-12T09:41:10Z</time>
      </trkpt>
      <trkpt lat="44.82465" lon="1.12135">
        <ele>93.4</ele>
        <time>2022-08-12T09:41:16Z</time>
      </trkpt>
      <trkpt lat="44.82463" lon="1.12142">
        <ele>95.4</ele>
        <time>2022-08-12T09:41:19Z</time>
      </trkpt>
      <trkpt lat="44.82459" lon="1.12147">
        <ele>96.4</ele>
        <time>2022-08-12T09:41:24Z</time>
      </trkpt>
      <trkpt lat="44.82455" lon="1.12152">
        <ele>98.4</ele>
        <time>2022-08-12T09:41:28Z</time>
      </trkpt>
      <trkpt lat="44.8245" lon="1.12152">
        <ele>100.4</ele>
        <time>2022-08-12T09:41:32Z</time>
      </trkpt>
      <trkpt lat="44.82444" lon="1.12151">
        <ele>102.4</ele>
        <time>2022-08-12T09:41:37Z</time>
      </trkpt>
      <trkpt lat="44.82438" lon="1.12152">
        <ele>103.4</ele>
        <time>2022-08-12T09:41:40Z</time>
      </trkpt>
      <trkpt lat="44.82433" lon="1.12151">
        <ele>106.4</ele>
        <time>2022-08-12T09:41:44Z</time>
      </trkpt>
      <trkpt lat="44.82428" lon="1.1215">
        <ele>107.4</ele>
        <time>2022-08-12T09:41:47Z</time>
      </trkpt>
      <trkpt lat="44.82424" lon="1.1215">
        <ele>107.4</ele>
        <time>2022-08-12T09:41:50Z</time>
      </trkpt>
      <trkpt lat="44.82418" lon="1.1215">
        <ele>108.4</ele>
        <time>2022-08-12T09:41:54Z</time>
      </trkpt>
      <trkpt lat="44.82413" lon="1.12151">
        <ele>112.4</ele>
        <time>2022-08-12T09:41:57Z</time>
      </trkpt>
      <trkpt lat="44.82408" lon="1.12152">
        <ele>113.4</ele>
        <time>2022-08-12T09:42:00Z</time>
      </trkpt>
      <trkpt lat="44.82403" lon="1.12155">
        <ele>113.4</ele>
        <time>2022-08-12T09:42:20Z</time>
      </trkpt>
      <trkpt lat="44.82397" lon="1.12153">
        <ele>115.4</ele>
        <time>2022-08-12T09:42:24Z</time>
      </trkpt>
      <trkpt lat="44.82392" lon="1.12153">
        <ele>115.4</ele>
        <time>2022-08-12T09:42:27Z</time>
      </trkpt>
      <trkpt lat="44.82387" lon="1.12153">
        <ele>117.4</ele>
        <time>2022-08-12T09:42:30Z</time>
      </trkpt>
      <trkpt lat="44.82382" lon="1.12155">
        <ele>117.4</ele>
        <time>2022-08-12T09:42:34Z</time>
      </trkpt>
      <trkpt lat="44.82376" lon="1.12156">
        <ele>117.4</ele>
        <time>2022-08-12T09:42:38Z</time>
      </trkpt>
      <trkpt lat="44.82371" lon="1.12158">
        <ele>118.4</ele>
        <time>2022-08-12T09:42:43Z</time>
      </trkpt>
      <trkpt lat="44.82366" lon="1.1216">
        <ele>119.4</ele>
        <time>2022-08-12T09:42:46Z</time>
      </trkpt>
      <trkpt lat="44.82362" lon="1.12163">
        <ele>118.4</ele>
        <time>2022-08-12T09:42:49Z</time>
      </trkpt>
      <trkpt lat="44.82357" lon="1.12167">
        <ele>114.4</ele>
        <time>2022-08-12T09:42:54Z</time>
      </trkpt>
      <trkpt lat="44.82352" lon="1.12171">
        <ele>116.4</ele>
        <time>2022-08-12T09:43:00Z</time>
      </trkpt>
      <trkpt lat="44.82347" lon="1.12174">
        <ele>119.4</ele>
        <time>2022-08-12T09:43:04Z</time>
      </trkpt>
      <trkpt lat="44.82343" lon="1.12176">
        <ele>119.4</ele>
        <time>2022-08-12T09:43:08Z</time>
      </trkpt>
      <trkpt lat="44.82337" lon="1.1218">
        <ele>120.4</ele>
        <time>2022-08-12T09:43:15Z</time>
      </trkpt>
      <trkpt lat="44.82333" lon="1.12182">
        <ele>119.4</ele>
        <time>2022-08-12T09:43:18Z</time>
      </trkpt>
      <trkpt lat="44.82328" lon="1.12183">
        <ele>120.4</ele>
        <time>2022-08-12T09:43:23Z</time>
      </trkpt>
      <trkpt lat="44.82323" lon="1.12186">
        <ele>121.4</ele>
        <time>2022-08-12T09:43:27Z</time>
      </trkpt>
      <trkpt lat="44.82317" lon="1.12188">
        <ele>121.4</ele>
        <time>2022-08-12T09:43:32Z</time>
      </trkpt>
      <trkpt lat="44.82312" lon="1.1219">
        <ele>121.4</ele>
        <time>2022-08-12T09:43:36Z</time>
      </trkpt>
      <trkpt lat="44.82307" lon="1.1219">
        <ele>121.4</ele>
        <time>2022-08-12T09:43:41Z</time>
      </trkpt>
      <trkpt lat="44.82301" lon="1.12189">
        <ele>122.4</ele>
        <time>2022-08-12T09:43:45Z</time>
      </trkpt>
      <trkpt lat="44.82296" lon="1.12188">
        <ele>123.4</ele>
        <time>2022-08-12T09:43:49Z</time>
      </trkpt>
      <trkpt lat="44.82291" lon="1.12186">
        <ele>125.4</ele>
        <time>2022-08-12T09:43:52Z</time>
      </trkpt>
      <trkpt lat="44.82287" lon="1.12183">
        <ele>125.4</ele>
        <time>2022-08-12T09:43:55Z</time>
      </trkpt>
      <trkpt lat="44.82282" lon="1.1218">
        <ele>128.4</ele>
        <time>2022-08-12T09:43:59Z</time>
      </trkpt>
      <trkpt lat="44.82277" lon="1.12176">
        <ele>130.4</ele>
        <time>2022-08-12T09:44:03Z</time>
      </trkpt>
      <trkpt lat="44.82272" lon="1.12172">
        <ele>131.4</ele>
        <time>2022-08-12T09:44:09Z</time>
      </trkpt>
      <trkpt lat="44.82267" lon="1.12169">
        <ele>134.4</ele>
        <time>2022-08-12T09:44:13Z</time>
      </trkpt>
      <trkpt lat="44.82262" lon="1.12168">
        <ele>136.4</ele>
        <time>2022-08-12T09:44:16Z</time>
      </trkpt>
      <trkpt lat="44.82257" lon="1.12168">
        <ele>137.4</ele>
        <time>2022-08-12T09:44:20Z</time>
      </trkpt>
      <trkpt lat="44.82251" lon="1.12167">
        <ele>139.4</ele>
        <time>2022-08-12T09:44:25Z</time>
      </trkpt>
      <trkpt lat="44.82246" lon="1.12167">
        <ele>140.4</ele>
        <time>2022-08-12T09:44:30Z</time>
      </trkpt>
      <trkpt lat="44.82241" lon="1.12168">
        <ele>142.4</ele>
        <time>2022-08-12T09:44:35Z</time>
      </trkpt>
      <trkpt lat="44.82236" lon="1.12168">
        <ele>143.4</ele>
        <time>2022-08-12T09:44:39Z</time>
      </trkpt>
      <trkpt lat="44.82231" lon="1.12168">
        <ele>141.4</ele>
        <time>2022-08-12T09:44:43Z</time>
      </trkpt>
      <trkpt lat="44.82226" lon="1.12166">
        <ele>150.4</ele>
        <time>2022-08-12T09:45:24Z</time>
      </trkpt>
      <trkpt lat="44.82221" lon="1.12168">
        <ele>148.4</ele>
        <time>2022-08-12T09:46:40Z</time>
      </trkpt>
      <trkpt lat="44.82215" lon="1.12169">
        <ele>147.4</ele>
        <time>2022-08-12T09:46:45Z</time>
      </trkpt>
      <trkpt lat="44.82211" lon="1.12172">
        <ele>146.4</ele>
        <time>2022-08-12T09:46:49Z</time>
      </trkpt>
      <trkpt lat="44.82206" lon="1.12175">
        <ele>146.4</ele>
        <time>2022-08-12T09:46:54Z</time>
      </trkpt>
      <trkpt lat="44.82201" lon="1.12177">
        <ele>148.4</ele>
        <time>2022-08-12T09:46:58Z</time>
      </trkpt>
      <trkpt lat="44.82196" lon="1.12177">
        <ele>151.4</ele>
        <time>2022-08-12T09:47:02Z</time>
      </trkpt>
      <trkpt lat="44.82192" lon="1.12182">
        <ele>150.4</ele>
        <time>2022-08-12T09:47:06Z</time>
      </trkpt>
      <trkpt lat="44.82187" lon="1.12183">
        <ele>150.4</ele>
        <time>2022-08-12T09:47:09Z</time>
      </trkpt>
      <trkpt lat="44.82182" lon="1.12184">
        <ele>151.4</ele>
        <time>2022-08-12T09:47:13Z</time>
      </trkpt>
      <trkpt lat="44.82177" lon="1.12187">
        <ele>151.4</ele>
        <time>2022-08-12T09:47:17Z</time>
      </trkpt>
      <trkpt lat="44.82172" lon="1.12188">
        <ele>151.4</ele>
        <time>2022-08-12T09:47:21Z</time>
      </trkpt>
      <trkpt lat="44.82168" lon="1.12191">
        <ele>150.4</ele>
        <time>2022-08-12T09:47:25Z</time>
      </trkpt>
      <trkpt lat="44.82163" lon="1.12193">
        <ele>150.4</ele>
        <time>2022-08-12T09:47:28Z</time>
      </trkpt>
      <trkpt lat="44.82159" lon="1.12197">
        <ele>151.4</ele>
        <time>2022-08-12T09:47:32Z</time>
      </trkpt>
      <trkpt lat="44.82155" lon="1.12199">
        <ele>153.4</ele>
        <time>2022-08-12T09:47:36Z</time>
      </trkpt>
      <trkpt lat="44.8215" lon="1.12203">
        <ele>153.4</ele>
        <time>2022-08-12T09:47:39Z</time>
      </trkpt>
      <trkpt lat="44.82146" lon="1.12205">
        <ele>154.4</ele>
        <time>2022-08-12T09:47:42Z</time>
      </trkpt>
      <trkpt lat="44.82141" lon="1.12208">
        <ele>155.4</ele>
        <time>2022-08-12T09:47:46Z</time>
      </trkpt>
      <trkpt lat="44.82137" lon="1.12213">
        <ele>156.4</ele>
        <time>2022-08-12T09:47:50Z</time>
      </trkpt>
      <trkpt lat="44.82133" lon="1.12215">
        <ele>156.4</ele>
        <time>2022-08-12T09:47:54Z</time>
      </trkpt>
      <trkpt lat="44.82128" lon="1.12219">
        <ele>156.4</ele>
        <time>2022-08-12T09:47:58Z</time>
      </trkpt>
      <trkpt lat="44.82123" lon="1.12224">
        <ele>157.4</ele>
        <time>2022-08-12T09:48:02Z</time>
      </trkpt>
      <trkpt lat="44.8212" lon="1.12229">
        <ele>158.4</ele>
        <time>2022-08-12T09:48:06Z</time>
      </trkpt>
      <trkpt lat="44.82116" lon="1.12235">
        <ele>159.4</ele>
        <time>2022-08-12T09:48:11Z</time>
      </trkpt>
      <trkpt lat="44.82112" lon="1.12238">
        <ele>162.4</ele>
        <time>2022-08-12T09:48:15Z</time>
      </trkpt>
      <trkpt lat="44.82108" lon="1.12242">
        <ele>161.4</ele>
        <time>2022-08-12T09:48:19Z</time>
      </trkpt>
      <trkpt lat="44.82103" lon="1.12246">
        <ele>161.4</ele>
        <time>2022-08-12T09:48:24Z</time>
      </trkpt>
      <trkpt lat="44.82098" lon="1.12249">
        <ele>162.4</ele>
        <time>2022-08-12T09:48:28Z</time>
      </trkpt>
      <trkpt lat="44.82093" lon="1.12251">
        <ele>162.4</ele>
        <time>2022-08-12T09:48:32Z</time>
      </trkpt>
      <trkpt lat="44.82089" lon="1.12253">
        <ele>162.4</ele>
        <time>2022-08-12T09:48:36Z</time>
      </trkpt>
      <trkpt lat="44.82083" lon="1.12257">
        <ele>163.4</ele>
        <time>2022-08-12T09:48:41Z</time>
      </trkpt>
      <trkpt lat="44.82079" lon="1.1226">
        <ele>165.4</ele>
        <time>2022-08-12T09:48:44Z</time>
      </trkpt>
      <trkpt lat="44.82075" lon="1.12263">
        <ele>165.4</ele>
        <time>2022-08-12T09:48:47Z</time>
      </trkpt>
      <trkpt lat="44.8207" lon="1.12266">
        <ele>166.4</ele>
        <time>2022-08-12T09:48:51Z</time>
      </trkpt>
      <trkpt lat="44.82065" lon="1.12272">
        <ele>166.4</ele>
        <time>2022-08-12T09:48:55Z</time>
      </trkpt>
      <trkpt lat="44.82061" lon="1.12275">
        <ele>166.4</ele>
        <time>2022-08-12T09:48:59Z</time>
      </trkpt>
      <trkpt lat="44.82057" lon="1.1228">
        <ele>165.4</ele>
        <time>2022-08-12T09:49:02Z</time>
      </trkpt>
      <trkpt lat="44.82054" lon="1.12286">
        <ele>165.4</ele>
        <time>2022-08-12T09:49:07Z</time>
      </trkpt>
      <trkpt lat="44.82052" lon="1.12292">
        <ele>165.4</ele>
        <time>2022-08-12T09:49:11Z</time>
      </trkpt>
      <trkpt lat="44.8205" lon="1.12299">
        <ele>164.4</ele>
        <time>2022-08-12T09:49:15Z</time>
      </trkpt>
      <trkpt lat="44.8205" lon="1.12306">
        <ele>163.4</ele>
        <time>2022-08-12T09:49:19Z</time>
      </trkpt>
      <trkpt lat="44.82048" lon="1.12315">
        <ele>160.4</ele>
        <time>2022-08-12T09:49:24Z</time>
      </trkpt>
      <trkpt lat="44.82046" lon="1.12322">
        <ele>160.4</ele>
        <time>2022-08-12T09:49:28Z</time>
      </trkpt>
      <trkpt lat="44.82043" lon="1.12327">
        <ele>160.4</ele>
        <time>2022-08-12T09:49:31Z</time>
      </trkpt>
      <trkpt lat="44.82041" lon="1.12333">
        <ele>162.4</ele>
        <time>2022-08-12T09:49:35Z</time>
      </trkpt>
      <trkpt lat="44.82039" lon="1.12341">
        <ele>162.4</ele>
        <time>2022-08-12T09:49:39Z</time>
      </trkpt>
      <trkpt lat="44.82038" lon="1.12348">
        <ele>162.4</ele>
        <time>2022-08-12T09:49:43Z</time>
      </trkpt>
      <trkpt lat="44.82037" lon="1.12356">
        <ele>162.4</ele>
        <time>2022-08-12T09:49:46Z</time>
      </trkpt>
      <trkpt lat="44.82036" lon="1.12363">
        <ele>162.4</ele>
        <time>2022-08-12T09:49:50Z</time>
      </trkpt>
      <trkpt lat="44.82033" lon="1.12369">
        <ele>163.4</ele>
        <time>2022-08-12T09:49:53Z</time>
      </trkpt>
      <trkpt lat="44.8203" lon="1.12375">
        <ele>164.4</ele>
        <time>2022-08-12T09:49:56Z</time>
      </trkpt>
      <trkpt lat="44.82028" lon="1.12382">
        <ele>163.4</ele>
        <time>2022-08-12T09:49:59Z</time>
      </trkpt>
      <trkpt lat="44.82026" lon="1.1239">
        <ele>162.4</ele>
        <time>2022-08-12T09:50:03Z</time>
      </trkpt>
      <trkpt lat="44.82026" lon="1.12398">
        <ele>164.4</ele>
        <time>2022-08-12T09:50:07Z</time>
      </trkpt>
      <trkpt lat="44.82024" lon="1.12407">
        <ele>165.4</ele>
        <time>2022-08-12T09:50:10Z</time>
      </trkpt>
      <trkpt lat="44.82024" lon="1.12416">
        <ele>164.4</ele>
        <time>2022-08-12T09:50:13Z</time>
      </trkpt>
      <trkpt lat="44.82023" lon="1.12425">
        <ele>164.4</ele>
        <time>2022-08-12T09:50:16Z</time>
      </trkpt>
      <trkpt lat="44.8202" lon="1.12433">
        <ele>162.4</ele>
        <time>2022-08-12T09:50:19Z</time>
      </trkpt>
      <trkpt lat="44.82016" lon="1.1244">
        <ele>161.4</ele>
        <time>2022-08-12T09:50:22Z</time>
      </trkpt>
      <trkpt lat="44.82013" lon="1.12447">
        <ele>161.4</ele>
        <time>2022-08-12T09:50:25Z</time>
      </trkpt>
      <trkpt lat="44.82009" lon="1.12452">
        <ele>161.4</ele>
        <time>2022-08-12T09:50:28Z</time>
      </trkpt>
      <trkpt lat="44.82004" lon="1.12454">
        <ele>161.4</ele>
        <time>2022-08-12T09:50:30Z</time>
      </trkpt>
      <trkpt lat="44.81999" lon="1.12457">
        <ele>161.4</ele>
        <time>2022-08-12T09:50:33Z</time>
      </trkpt>
      <trkpt lat="44.81994" lon="1.12459">
        <ele>163.4</ele>
        <time>2022-08-12T09:50:35Z</time>
      </trkpt>
      <trkpt lat="44.8199" lon="1.12462">
        <ele>161.4</ele>
        <time>2022-08-12T09:50:38Z</time>
      </trkpt>
      <trkpt lat="44.81985" lon="1.12463">
        <ele>161.4</ele>
        <time>2022-08-12T09:50:42Z</time>
      </trkpt>
      <trkpt lat="44.81981" lon="1.12467">
        <ele>161.4</ele>
        <time>2022-08-12T09:50:46Z</time>
      </trkpt>
      <trkpt lat="44.81978" lon="1.12471">
        <ele>162.4</ele>
        <time>2022-08-12T09:50:50Z</time>
      </trkpt>
      <trkpt lat="44.81974" lon="1.12478">
        <ele>163.4</ele>
        <time>2022-08-12T09:50:54Z</time>
      </trkpt>
      <trkpt lat="44.81972" lon="1.12485">
        <ele>165.4</ele>
        <time>2022-08-12T09:50:58Z</time>
      </trkpt>
      <trkpt lat="44.81971" lon="1.12491">
        <ele>166.4</ele>
        <time>2022-08-12T09:51:01Z</time>
      </trkpt>
      <trkpt lat="44.81972" lon="1.125">
        <ele>166.4</ele>
        <time>2022-08-12T09:51:05Z</time>
      </trkpt>
      <trkpt lat="44.81973" lon="1.12507">
        <ele>166.4</ele>
        <time>2022-08-12T09:51:09Z</time>
      </trkpt>
      <trkpt lat="44.81974" lon="1.12515">
        <ele>167.4</ele>
        <time>2022-08-12T09:51:13Z</time>
      </trkpt>
      <trkpt lat="44.81975" lon="1.12521">
        <ele>167.4</ele>
        <time>2022-08-12T09:51:16Z</time>
      </trkpt>
      <trkpt lat="44.81975" lon="1.12529">
        <ele>168.4</ele>
        <time>2022-08-12T09:51:20Z</time>
      </trkpt>
      <trkpt lat="44.81976" lon="1.12537">
        <ele>169.4</ele>
        <time>2022-08-12T09:51:24Z</time>
      </trkpt>
      <trkpt lat="44.81977" lon="1.12545">
        <ele>171.4</ele>
        <time>2022-08-12T09:51:28Z</time>
      </trkpt>
      <trkpt lat="44.81977" lon="1.12552">
        <ele>173.4</ele>
        <time>2022-08-12T09:51:32Z</time>
      </trkpt>
      <trkpt lat="44.81976" lon="1.12558">
        <ele>174.4</ele>
        <time>2022-08-12T09:51:35Z</time>
      </trkpt>
      <trkpt lat="44.81974" lon="1.12566">
        <ele>174.4</ele>
        <time>2022-08-12T09:51:39Z</time>
      </trkpt>
      <trkpt lat="44.81971" lon="1.12571">
        <ele>175.4</ele>
        <time>2022-08-12T09:51:43Z</time>
      </trkpt>
      <trkpt lat="44.81967" lon="1.12577">
        <ele>176.4</ele>
        <time>2022-08-12T09:51:48Z</time>
      </trkpt>
      <trkpt lat="44.81966" lon="1.12584">
        <ele>177.4</ele>
        <time>2022-08-12T09:51:53Z</time>
      </trkpt>
      <trkpt lat="44.81964" lon="1.12591">
        <ele>179.4</ele>
        <time>2022-08-12T09:51:57Z</time>
      </trkpt>
      <trkpt lat="44.81961" lon="1.12596">
        <ele>181.4</ele>
        <time>2022-08-12T09:52:01Z</time>
      </trkpt>
      <trkpt lat="44.81957" lon="1.12601">
        <ele>183.4</ele>
        <time>2022-08-12T09:52:05Z</time>
      </trkpt>
      <trkpt lat="44.81955" lon="1.12607">
        <ele>183.4</ele>
        <time>2022-08-12T09:52:10Z</time>
      </trkpt>
      <trkpt lat="44.81951" lon="1.12612">
        <ele>184.4</ele>
        <time>2022-08-12T09:52:14Z</time>
      </trkpt>
      <trkpt lat="44.81947" lon="1.12617">
        <ele>185.4</ele>
        <time>2022-08-12T09:52:18Z</time>
      </trkpt>
      <trkpt lat="44.81945" lon="1.12623">
        <ele>186.4</ele>
        <time>2022-08-12T09:52:22Z</time>
      </trkpt>
      <trkpt lat="44.81941" lon="1.12628">
        <ele>187.4</ele>
        <time>2022-08-12T09:52:26Z</time>
      </trkpt>
      <trkpt lat="44.81938" lon="1.12634">
        <ele>188.4</ele>
        <time>2022-08-12T09:52:30Z</time>
      </trkpt>
      <trkpt lat="44.81934" lon="1.12638">
        <ele>188.4</ele>
        <time>2022-08-12T09:52:35Z</time>
      </trkpt>
      <trkpt lat="44.81931" lon="1.12645">
        <ele>189.4</ele>
        <time>2022-08-12T09:52:40Z</time>
      </trkpt>
      <trkpt lat="44.81926" lon="1.12649">
        <ele>191.4</ele>
        <time>2022-08-12T09:52:45Z</time>
      </trkpt>
      <trkpt lat="44.81922" lon="1.12653">
        <ele>193.4</ele>
        <time>2022-08-12T09:52:49Z</time>
      </trkpt>
      <trkpt lat="44.81918" lon="1.12657">
        <ele>195.4</ele>
        <time>2022-08-12T09:52:53Z</time>
      </trkpt>
      <trkpt lat="44.81914" lon="1.12662">
        <ele>196.4</ele>
        <time>2022-08-12T09:52:57Z</time>
      </trkpt>
      <trkpt lat="44.81909" lon="1.12666">
        <ele>197.4</ele>
        <time>2022-08-12T09:53:00Z</time>
      </trkpt>
      <trkpt lat="44.81906" lon="1.12671">
        <ele>198.4</ele>
        <time>2022-08-12T09:53:04Z</time>
      </trkpt>
      <trkpt lat="44.81902" lon="1.12675">
        <ele>195.4</ele>
        <time>2022-08-12T09:53:07Z</time>
      </trkpt>
      <trkpt lat="44.81898" lon="1.1268">
        <ele>197.4</ele>
        <time>2022-08-12T09:53:10Z</time>
      </trkpt>
      <trkpt lat="44.81894" lon="1.12685">
        <ele>200.4</ele>
        <time>2022-08-12T09:53:14Z</time>
      </trkpt>
      <trkpt lat="44.81892" lon="1.12691">
        <ele>202.4</ele>
        <time>2022-08-12T09:53:17Z</time>
      </trkpt>
      <trkpt lat="44.8189" lon="1.12697">
        <ele>201.4</ele>
        <time>2022-08-12T09:53:21Z</time>
      </trkpt>
      <trkpt lat="44.8189" lon="1.12705">
        <ele>198.4</ele>
        <time>2022-08-12T09:53:25Z</time>
      </trkpt>
      <trkpt lat="44.81889" lon="1.12713">
        <ele>199.4</ele>
        <time>2022-08-12T09:53:29Z</time>
      </trkpt>
      <trkpt lat="44.81889" lon="1.12721">
        <ele>198.4</ele>
        <time>2022-08-12T09:53:33Z</time>
      </trkpt>
      <trkpt lat="44.81888" lon="1.12727">
        <ele>199.4</ele>
        <time>2022-08-12T09:53:36Z</time>
      </trkpt>
      <trkpt lat="44.81888" lon="1.12735">
        <ele>198.4</ele>
        <time>2022-08-12T09:53:40Z</time>
      </trkpt>
      <trkpt lat="44.81888" lon="1.12741">
        <ele>199.4</ele>
        <time>2022-08-12T09:53:44Z</time>
      </trkpt>
      <trkpt lat="44.81892" lon="1.12744">
        <ele>202.4</ele>
        <time>2022-08-12T09:53:48Z</time>
      </trkpt>
      <trkpt lat="44.81897" lon="1.12747">
        <ele>204.4</ele>
        <time>2022-08-12T09:53:54Z</time>
      </trkpt>
      <trkpt lat="44.81903" lon="1.12747">
        <ele>205.4</ele>
        <time>2022-08-12T09:53:59Z</time>
      </trkpt>
      <trkpt lat="44.81909" lon="1.12745">
        <ele>208.4</ele>
        <time>2022-08-12T09:54:04Z</time>
      </trkpt>
      <trkpt lat="44.81914" lon="1.12745">
        <ele>211.4</ele>
        <time>2022-08-12T09:54:09Z</time>
      </trkpt>
      <trkpt lat="44.81919" lon="1.12744">
        <ele>210.4</ele>
        <time>2022-08-12T09:54:14Z</time>
      </trkpt>
      <trkpt lat="44.81925" lon="1.12744">
        <ele>211.4</ele>
        <time>2022-08-12T09:54:18Z</time>
      </trkpt>
      <trkpt lat="44.8193" lon="1.12746">
        <ele>211.4</ele>
        <time>2022-08-12T09:54:22Z</time>
      </trkpt>
      <trkpt lat="44.81935" lon="1.12747">
        <ele>211.4</ele>
        <time>2022-08-12T09:54:25Z</time>
      </trkpt>
      <trkpt lat="44.81941" lon="1.12749">
        <ele>210.4</ele>
        <time>2022-08-12T09:54:28Z</time>
      </trkpt>
      <trkpt lat="44.81946" lon="1.12752">
        <ele>211.4</ele>
        <time>2022-08-12T09:54:32Z</time>
      </trkpt>
      <trkpt lat="44.8195" lon="1.12754">
        <ele>211.4</ele>
        <time>2022-08-12T09:54:35Z</time>
      </trkpt>
      <trkpt lat="44.81957" lon="1.12757">
        <ele>211.4</ele>
        <time>2022-08-12T09:54:38Z</time>
      </trkpt>
      <trkpt lat="44.81963" lon="1.12759">
        <ele>211.4</ele>
        <time>2022-08-12T09:54:41Z</time>
      </trkpt>
      <trkpt lat="44.81968" lon="1.12761">
        <ele>209.4</ele>
        <time>2022-08-12T09:54:43Z</time>
      </trkpt>
      <trkpt lat="44.81972" lon="1.12763">
        <ele>210.4</ele>
        <time>2022-08-12T09:54:45Z</time>
      </trkpt>
      <trkpt lat="44.81978" lon="1.12764">
        <ele>207.4</ele>
        <time>2022-08-12T09:54:48Z</time>
      </trkpt>
      <trkpt lat="44.81985" lon="1.12766">
        <ele>206.4</ele>
        <time>2022-08-12T09:54:50Z</time>
      </trkpt>
      <trkpt lat="44.81992" lon="1.12766">
        <ele>205.4</ele>
        <time>2022-08-12T09:54:52Z</time>
      </trkpt>
      <trkpt lat="44.81997" lon="1.12767">
        <ele>205.4</ele>
        <time>2022-08-12T09:54:54Z</time>
      </trkpt>
      <trkpt lat="44.82003" lon="1.12768">
        <ele>205.4</ele>
        <time>2022-08-12T09:54:56Z</time>
      </trkpt>
      <trkpt lat="44.82008" lon="1.1277">
        <ele>207.4</ele>
        <time>2022-08-12T09:54:58Z</time>
      </trkpt>
      <trkpt lat="44.82014" lon="1.12772">
        <ele>207.4</ele>
        <time>2022-08-12T09:55:00Z</time>
      </trkpt>
      <trkpt lat="44.82019" lon="1.12773">
        <ele>208.4</ele>
        <time>2022-08-12T09:55:02Z</time>
      </trkpt>
      <trkpt lat="44.82025" lon="1.12774">
        <ele>208.4</ele>
        <time>2022-08-12T09:55:04Z</time>
      </trkpt>
      <trkpt lat="44.82031" lon="1.12775">
        <ele>208.4</ele>
        <time>2022-08-12T09:55:06Z</time>
      </trkpt>
      <trkpt lat="44.82037" lon="1.12773">
        <ele>208.4</ele>
        <time>2022-08-12T09:55:08Z</time>
      </trkpt>
      <trkpt lat="44.82043" lon="1.12772">
        <ele>210.4</ele>
        <time>2022-08-12T09:55:10Z</time>
      </trkpt>
      <trkpt lat="44.82049" lon="1.12769">
        <ele>210.4</ele>
        <time>2022-08-12T09:55:12Z</time>
      </trkpt>
      <trkpt lat="44.82054" lon="1.12766">
        <ele>210.4</ele>
        <time>2022-08-12T09:55:14Z</time>
      </trkpt>
      <trkpt lat="44.82059" lon="1.12762">
        <ele>210.4</ele>
        <time>2022-08-12T09:55:16Z</time>
      </trkpt>
      <trkpt lat="44.82064" lon="1.12758">
        <ele>211.4</ele>
        <time>2022-08-12T09:55:19Z</time>
      </trkpt>
      <trkpt lat="44.82068" lon="1.12754">
        <ele>211.4</ele>
        <time>2022-08-12T09:55:22Z</time>
      </trkpt>
      <trkpt lat="44.82073" lon="1.12748">
        <ele>212.4</ele>
        <time>2022-08-12T09:55:25Z</time>
      </trkpt>
      <trkpt lat="44.82078" lon="1.12742">
        <ele>212.4</ele>
        <time>2022-08-12T09:55:28Z</time>
      </trkpt>
      <trkpt lat="44.82085" lon="1.12736">
        <ele>211.4</ele>
        <time>2022-08-12T09:55:30Z</time>
      </trkpt>
      <trkpt lat="44.82092" lon="1.12731">
        <ele>211.4</ele>
        <time>2022-08-12T09:55:32Z</time>
      </trkpt>
      <trkpt lat="44.82098" lon="1.12726">
        <ele>211.4</ele>
        <time>2022-08-12T09:55:34Z</time>
      </trkpt>
      <trkpt lat="44.82103" lon="1.12722">
        <ele>210.4</ele>
        <time>2022-08-12T09:55:36Z</time>
      </trkpt>
      <trkpt lat="44.82107" lon="1.12718">
        <ele>211.4</ele>
        <time>2022-08-12T09:55:38Z</time>
      </trkpt>
      <trkpt lat="44.82111" lon="1.12715">
        <ele>204.4</ele>
        <time>2022-08-12T09:55:45Z</time>
      </trkpt>
      <trkpt lat="44.82115" lon="1.12712">
        <ele>200.4</ele>
        <time>2022-08-12T09:57:36Z</time>
      </trkpt>
      <trkpt lat="44.8212" lon="1.12709">
        <ele>203.4</ele>
        <time>2022-08-12T09:57:44Z</time>
      </trkpt>
      <trkpt lat="44.82125" lon="1.12706">
        <ele>203.4</ele>
        <time>2022-08-12T09:57:46Z</time>
      </trkpt>
      <trkpt lat="44.82129" lon="1.12703">
        <ele>204.4</ele>
        <time>2022-08-12T09:57:48Z</time>
      </trkpt>
      <trkpt lat="44.82135" lon="1.127">
        <ele>204.4</ele>
        <time>2022-08-12T09:57:50Z</time>
      </trkpt>
      <trkpt lat="44.8214" lon="1.12698">
        <ele>204.4</ele>
        <time>2022-08-12T09:57:52Z</time>
      </trkpt>
      <trkpt lat="44.82145" lon="1.12694">
        <ele>203.4</ele>
        <time>2022-08-12T09:57:55Z</time>
      </trkpt>
      <trkpt lat="44.8215" lon="1.1269">
        <ele>203.4</ele>
        <time>2022-08-12T09:57:58Z</time>
      </trkpt>
      <trkpt lat="44.82154" lon="1.12688">
        <ele>203.4</ele>
        <time>2022-08-12T09:58:00Z</time>
      </trkpt>
      <trkpt lat="44.82159" lon="1.12684">
        <ele>204.4</ele>
        <time>2022-08-12T09:58:02Z</time>
      </trkpt>
      <trkpt lat="44.82164" lon="1.1268">
        <ele>204.4</ele>
        <time>2022-08-12T09:58:04Z</time>
      </trkpt>
      <trkpt lat="44.82168" lon="1.12675">
        <ele>204.4</ele>
        <time>2022-08-12T09:58:06Z</time>
      </trkpt>
      <trkpt lat="44.82174" lon="1.12671">
        <ele>204.4</ele>
        <time>2022-08-12T09:58:08Z</time>
      </trkpt>
      <trkpt lat="44.8218" lon="1.12667">
        <ele>205.4</ele>
        <time>2022-08-12T09:58:10Z</time>
      </trkpt>
      <trkpt lat="44.82187" lon="1.12661">
        <ele>206.4</ele>
        <time>2022-08-12T09:58:12Z</time>
      </trkpt>
      <trkpt lat="44.82193" lon="1.12655">
        <ele>206.4</ele>
        <time>2022-08-12T09:58:14Z</time>
      </trkpt>
      <trkpt lat="44.82197" lon="1.12648">
        <ele>205.4</ele>
        <time>2022-08-12T09:58:16Z</time>
      </trkpt>
      <trkpt lat="44.82202" lon="1.1264">
        <ele>205.4</ele>
        <time>2022-08-12T09:58:18Z</time>
      </trkpt>
      <trkpt lat="44.82206" lon="1.12633">
        <ele>205.4</ele>
        <time>2022-08-12T09:58:20Z</time>
      </trkpt>
      <trkpt lat="44.82209" lon="1.12624">
        <ele>205.4</ele>
        <time>2022-08-12T09:58:22Z</time>
      </trkpt>
      <trkpt lat="44.82213" lon="1.1262">
        <ele>206.4</ele>
        <time>2022-08-12T09:58:24Z</time>
      </trkpt>
      <trkpt lat="44.82218" lon="1.12618">
        <ele>207.4</ele>
        <time>2022-08-12T09:58:27Z</time>
      </trkpt>
      <trkpt lat="44.82223" lon="1.12617">
        <ele>205.4</ele>
        <time>2022-08-12T09:58:39Z</time>
      </trkpt>
      <trkpt lat="44.82225" lon="1.12625">
        <ele>204.4</ele>
        <time>2022-08-12T09:59:11Z</time>
      </trkpt>
      <trkpt lat="44.82227" lon="1.12631">
        <ele>204.4</ele>
        <time>2022-08-12T09:59:13Z</time>
      </trkpt>
      <trkpt lat="44.82232" lon="1.12638">
        <ele>205.4</ele>
        <time>2022-08-12T09:59:15Z</time>
      </trkpt>
      <trkpt lat="44.82236" lon="1.12646">
        <ele>206.4</ele>
        <time>2022-08-12T09:59:17Z</time>
      </trkpt>
      <trkpt lat="44.8224" lon="1.12655">
        <ele>206.4</ele>
        <time>2022-08-12T09:59:19Z</time>
      </trkpt>
      <trkpt lat="44.82244" lon="1.12664">
        <ele>205.4</ele>
        <time>2022-08-12T09:59:21Z</time>
      </trkpt>
      <trkpt lat="44.82246" lon="1.12673">
        <ele>206.4</ele>
        <time>2022-08-12T09:59:23Z</time>
      </trkpt>
      <trkpt lat="44.82248" lon="1.12681">
        <ele>205.4</ele>
        <time>2022-08-12T09:59:25Z</time>
      </trkpt>
      <trkpt lat="44.8225" lon="1.12689">
        <ele>207.4</ele>
        <time>2022-08-12T09:59:27Z</time>
      </trkpt>
      <trkpt lat="44.82253" lon="1.12698">
        <ele>207.4</ele>
        <time>2022-08-12T09:59:29Z</time>
      </trkpt>
      <trkpt lat="44.82257" lon="1.12707">
        <ele>207.4</ele>
        <time>2022-08-12T09:59:31Z</time>
      </trkpt>
      <trkpt lat="44.8226" lon="1.12715">
        <ele>207.4</ele>
        <time>2022-08-12T09:59:33Z</time>
      </trkpt>
      <trkpt lat="44.82262" lon="1.12723">
        <ele>206.4</ele>
        <time>2022-08-12T09:59:35Z</time>
      </trkpt>
      <trkpt lat="44.82264" lon="1.12731">
        <ele>206.4</ele>
        <time>2022-08-12T09:59:37Z</time>
      </trkpt>
      <trkpt lat="44.82266" lon="1.12739">
        <ele>206.4</ele>
        <time>2022-08-12T09:59:39Z</time>
      </trkpt>
      <trkpt lat="44.82267" lon="1.12745">
        <ele>206.4</ele>
        <time>2022-08-12T09:59:41Z</time>
      </trkpt>
      <trkpt lat="44.8227" lon="1.12752">
        <ele>205.4</ele>
        <time>2022-08-12T09:59:43Z</time>
      </trkpt>
      <trkpt lat="44.82271" lon="1.1276">
        <ele>204.4</ele>
        <time>2022-08-12T09:59:45Z</time>
      </trkpt>
      <trkpt lat="44.82273" lon="1.12769">
        <ele>204.4</ele>
        <time>2022-08-12T09:59:47Z</time>
      </trkpt>
      <trkpt lat="44.82275" lon="1.12776">
        <ele>204.4</ele>
        <time>2022-08-12T09:59:49Z</time>
      </trkpt>
      <trkpt lat="44.82275" lon="1.12784">
        <ele>203.4</ele>
        <time>2022-08-12T09:59:51Z</time>
      </trkpt>
      <trkpt lat="44.82277" lon="1.12793">
        <ele>202.4</ele>
        <time>2022-08-12T09:59:53Z</time>
      </trkpt>
      <trkpt lat="44.82279" lon="1.12802">
        <ele>202.4</ele>
        <time>2022-08-12T09:59:55Z</time>
      </trkpt>
      <trkpt lat="44.8228" lon="1.12812">
        <ele>201.4</ele>
        <time>2022-08-12T09:59:57Z</time>
      </trkpt>
      <trkpt lat="44.82282" lon="1.1282">
        <ele>201.4</ele>
        <time>2022-08-12T09:59:59Z</time>
      </trkpt>
      <trkpt lat="44.82284" lon="1.12827">
        <ele>202.4</ele>
        <time>2022-08-12T10:00:01Z</time>
      </trkpt>
      <trkpt lat="44.82286" lon="1.12835">
        <ele>203.4</ele>
        <time>2022-08-12T10:00:03Z</time>
      </trkpt>
      <trkpt lat="44.8229" lon="1.12843">
        <ele>204.4</ele>
        <time>2022-08-12T10:00:05Z</time>
      </trkpt>
      <trkpt lat="44.82293" lon="1.12853">
        <ele>205.4</ele>
        <time>2022-08-12T10:00:07Z</time>
      </trkpt>
      <trkpt lat="44.82297" lon="1.12862">
        <ele>205.4</ele>
        <time>2022-08-12T10:00:09Z</time>
      </trkpt>
      <trkpt lat="44.823" lon="1.12872">
        <ele>205.4</ele>
        <time>2022-08-12T10:00:11Z</time>
      </trkpt>
      <trkpt lat="44.82303" lon="1.12882">
        <ele>204.4</ele>
        <time>2022-08-12T10:00:13Z</time>
      </trkpt>
      <trkpt lat="44.82306" lon="1.12891">
        <ele>204.4</ele>
        <time>2022-08-12T10:00:15Z</time>
      </trkpt>
      <trkpt lat="44.82309" lon="1.12897">
        <ele>203.4</ele>
        <time>2022-08-12T10:00:17Z</time>
      </trkpt>
      <trkpt lat="44.82315" lon="1.12901">
        <ele>205.4</ele>
        <time>2022-08-12T10:00:19Z</time>
      </trkpt>
      <trkpt lat="44.8232" lon="1.129">
        <ele>206.4</ele>
        <time>2022-08-12T10:00:21Z</time>
      </trkpt>
      <trkpt lat="44.82325" lon="1.129">
        <ele>206.4</ele>
        <time>2022-08-12T10:00:23Z</time>
      </trkpt>
      <trkpt lat="44.8233" lon="1.12902">
        <ele>205.4</ele>
        <time>2022-08-12T10:01:59Z</time>
      </trkpt>
      <trkpt lat="44.82334" lon="1.12899">
        <ele>205.4</ele>
        <time>2022-08-12T10:02:03Z</time>
      </trkpt>
      <trkpt lat="44.82339" lon="1.12894">
        <ele>208.4</ele>
        <time>2022-08-12T10:02:07Z</time>
      </trkpt>
      <trkpt lat="44.82345" lon="1.1289">
        <ele>211.4</ele>
        <time>2022-08-12T10:02:10Z</time>
      </trkpt>
      <trkpt lat="44.82351" lon="1.12886">
        <ele>213.4</ele>
        <time>2022-08-12T10:02:12Z</time>
      </trkpt>
      <trkpt lat="44.82357" lon="1.12882">
        <ele>214.4</ele>
        <time>2022-08-12T10:02:14Z</time>
      </trkpt>
      <trkpt lat="44.82362" lon="1.12876">
        <ele>214.4</ele>
        <time>2022-08-12T10:02:16Z</time>
      </trkpt>
      <trkpt lat="44.82367" lon="1.1287">
        <ele>215.4</ele>
        <time>2022-08-12T10:02:18Z</time>
      </trkpt>
      <trkpt lat="44.82372" lon="1.12866">
        <ele>215.4</ele>
        <time>2022-08-12T10:02:20Z</time>
      </trkpt>
      <trkpt lat="44.82377" lon="1.12864">
        <ele>215.4</ele>
        <time>2022-08-12T10:02:22Z</time>
      </trkpt>
      <trkpt lat="44.82383" lon="1.12861">
        <ele>215.4</ele>
        <time>2022-08-12T10:02:25Z</time>
      </trkpt>
      <trkpt lat="44.82388" lon="1.1286">
        <ele>214.4</ele>
        <time>2022-08-12T10:02:27Z</time>
      </trkpt>
      <trkpt lat="44.82394" lon="1.12859">
        <ele>214.4</ele>
        <time>2022-08-12T10:02:29Z</time>
      </trkpt>
      <trkpt lat="44.82401" lon="1.12857">
        <ele>214.4</ele>
        <time>2022-08-12T10:02:31Z</time>
      </trkpt>
      <trkpt lat="44.82409" lon="1.12855">
        <ele>215.4</ele>
        <time>2022-08-12T10:02:33Z</time>
      </trkpt>
      <trkpt lat="44.82416" lon="1.12853">
        <ele>214.4</ele>
        <time>2022-08-12T10:02:35Z</time>
      </trkpt>
      <trkpt lat="44.82423" lon="1.1285">
        <ele>215.4</ele>
        <time>2022-08-12T10:02:37Z</time>
      </trkpt>
      <trkpt lat="44.8243" lon="1.12848">
        <ele>215.4</ele>
        <time>2022-08-12T10:02:39Z</time>
      </trkpt>
      <trkpt lat="44.82437" lon="1.12845">
        <ele>215.4</ele>
        <time>2022-08-12T10:02:41Z</time>
      </trkpt>
      <trkpt lat="44.82444" lon="1.12842">
        <ele>214.4</ele>
        <time>2022-08-12T10:02:43Z</time>
      </trkpt>
      <trkpt lat="44.82451" lon="1.1284">
        <ele>213.4</ele>
        <time>2022-08-12T10:02:45Z</time>
      </trkpt>
      <trkpt lat="44.82457" lon="1.12836">
        <ele>212.4</ele>
        <time>2022-08-12T10:02:47Z</time>
      </trkpt>
      <trkpt lat="44.82462" lon="1.12828">
        <ele>211.4</ele>
        <time>2022-08-12T10:02:49Z</time>
      </trkpt>
      <trkpt lat="44.82466" lon="1.12822">
        <ele>209.4</ele>
        <time>2022-08-12T10:02:51Z</time>
      </trkpt>
      <trkpt lat="44.8247" lon="1.12817">
        <ele>209.4</ele>
        <time>2022-08-12T10:02:53Z</time>
      </trkpt>
      <trkpt lat="44.82474" lon="1.12813">
        <ele>210.4</ele>
        <time>2022-08-12T10:02:55Z</time>
      </trkpt>
      <trkpt lat="44.82479" lon="1.12809">
        <ele>210.4</ele>
        <time>2022-08-12T10:02:57Z</time>
      </trkpt>
      <trkpt lat="44.82484" lon="1.12805">
        <ele>209.4</ele>
        <time>2022-08-12T10:02:59Z</time>
      </trkpt>
      <trkpt lat="44.82487" lon="1.12799">
        <ele>209.4</ele>
        <time>2022-08-12T10:03:01Z</time>
      </trkpt>
      <trkpt lat="44.8249" lon="1.12794">
        <ele>210.4</ele>
        <time>2022-08-12T10:03:03Z</time>
      </trkpt>
      <trkpt lat="44.82495" lon="1.12787">
        <ele>211.4</ele>
        <time>2022-08-12T10:03:06Z</time>
      </trkpt>
      <trkpt lat="44.82499" lon="1.12783">
        <ele>212.4</ele>
        <time>2022-08-12T10:03:08Z</time>
      </trkpt>
      <trkpt lat="44.82505" lon="1.1278">
        <ele>213.4</ele>
        <time>2022-08-12T10:03:11Z</time>
      </trkpt>
      <trkpt lat="44.82511" lon="1.12775">
        <ele>212.4</ele>
        <time>2022-08-12T10:03:14Z</time>
      </trkpt>
      <trkpt lat="44.82515" lon="1.1277">
        <ele>213.4</ele>
        <time>2022-08-12T10:03:16Z</time>
      </trkpt>
      <trkpt lat="44.82518" lon="1.12765">
        <ele>213.4</ele>
        <time>2022-08-12T10:03:18Z</time>
      </trkpt>
      <trkpt lat="44.82521" lon="1.12759">
        <ele>212.4</ele>
        <time>2022-08-12T10:03:20Z</time>
      </trkpt>
      <trkpt lat="44.82525" lon="1.12754">
        <ele>212.4</ele>
        <time>2022-08-12T10:03:22Z</time>
      </trkpt>
      <trkpt lat="44.82527" lon="1.12748">
        <ele>212.4</ele>
        <time>2022-08-12T10:03:24Z</time>
      </trkpt>
      <trkpt lat="44.8253" lon="1.12742">
        <ele>212.4</ele>
        <time>2022-08-12T10:03:26Z</time>
      </trkpt>
      <trkpt lat="44.82533" lon="1.12737">
        <ele>213.4</ele>
        <time>2022-08-12T10:03:29Z</time>
      </trkpt>
      <trkpt lat="44.82538" lon="1.12732">
        <ele>215.4</ele>
        <time>2022-08-12T10:03:32Z</time>
      </trkpt>
      <trkpt lat="44.82542" lon="1.12728">
        <ele>215.4</ele>
        <time>2022-08-12T10:03:34Z</time>
      </trkpt>
      <trkpt lat="44.82548" lon="1.12724">
        <ele>215.4</ele>
        <time>2022-08-12T10:03:37Z</time>
      </trkpt>
      <trkpt lat="44.82552" lon="1.12719">
        <ele>216.4</ele>
        <time>2022-08-12T10:03:39Z</time>
      </trkpt>
      <trkpt lat="44.82557" lon="1.12714">
        <ele>217.4</ele>
        <time>2022-08-12T10:03:41Z</time>
      </trkpt>
      <trkpt lat="44.82561" lon="1.12709">
        <ele>217.4</ele>
        <time>2022-08-12T10:03:43Z</time>
      </trkpt>
      <trkpt lat="44.82565" lon="1.12705">
        <ele>219.4</ele>
        <time>2022-08-12T10:03:45Z</time>
      </trkpt>
      <trkpt lat="44.82569" lon="1.127">
        <ele>221.4</ele>
        <time>2022-08-12T10:03:47Z</time>
      </trkpt>
      <trkpt lat="44.82573" lon="1.12697">
        <ele>220.4</ele>
        <time>2022-08-12T10:03:49Z</time>
      </trkpt>
      <trkpt lat="44.82578" lon="1.12691">
        <ele>220.4</ele>
        <time>2022-08-12T10:03:51Z</time>
      </trkpt>
      <trkpt lat="44.82584" lon="1.12685">
        <ele>219.4</ele>
        <time>2022-08-12T10:03:53Z</time>
      </trkpt>
      <trkpt lat="44.82588" lon="1.12677">
        <ele>218.4</ele>
        <time>2022-08-12T10:03:55Z</time>
      </trkpt>
      <trkpt lat="44.82592" lon="1.12669">
        <ele>218.4</ele>
        <time>2022-08-12T10:03:57Z</time>
      </trkpt>
      <trkpt lat="44.82596" lon="1.12661">
        <ele>218.4</ele>
        <time>2022-08-12T10:03:59Z</time>
      </trkpt>
      <trkpt lat="44.82601" lon="1.12655">
        <ele>218.4</ele>
        <time>2022-08-12T10:04:01Z</time>
      </trkpt>
      <trkpt lat="44.82604" lon="1.12651">
        <ele>219.4</ele>
        <time>2022-08-12T10:04:03Z</time>
      </trkpt>
      <trkpt lat="44.82608" lon="1.12645">
        <ele>219.4</ele>
        <time>2022-08-12T10:04:05Z</time>
      </trkpt>
      <trkpt lat="44.82613" lon="1.12639">
        <ele>219.4</ele>
        <time>2022-08-12T10:04:07Z</time>
      </trkpt>
      <trkpt lat="44.82617" lon="1.12636">
        <ele>217.4</ele>
        <time>2022-08-12T10:04:15Z</time>
      </trkpt>
      <trkpt lat="44.82622" lon="1.12634">
        <ele>218.4</ele>
        <time>2022-08-12T10:04:19Z</time>
      </trkpt>
      <trkpt lat="44.82625" lon="1.12627">
        <ele>218.4</ele>
        <time>2022-08-12T10:04:33Z</time>
      </trkpt>
      <trkpt lat="44.82626" lon="1.1262">
        <ele>215.4</ele>
        <time>2022-08-12T10:07:11Z</time>
      </trkpt>
      <trkpt lat="44.82623" lon="1.12614">
        <ele>213.4</ele>
        <time>2022-08-12T10:07:14Z</time>
      </trkpt>
      <trkpt lat="44.82622" lon="1.12607">
        <ele>213.4</ele>
        <time>2022-08-12T10:07:16Z</time>
      </trkpt>
      <trkpt lat="44.82622" lon="1.126">
        <ele>213.4</ele>
        <time>2022-08-12T10:07:18Z</time>
      </trkpt>
      <trkpt lat="44.82623" lon="1.12592">
        <ele>213.4</ele>
        <time>2022-08-12T10:07:20Z</time>
      </trkpt>
      <trkpt lat="44.82626" lon="1.12583">
        <ele>213.4</ele>
        <time>2022-08-12T10:07:22Z</time>
      </trkpt>
      <trkpt lat="44.82627" lon="1.12575">
        <ele>212.4</ele>
        <time>2022-08-12T10:07:24Z</time>
      </trkpt>
      <trkpt lat="44.82627" lon="1.12568">
        <ele>212.4</ele>
        <time>2022-08-12T10:07:26Z</time>
      </trkpt>
      <trkpt lat="44.82626" lon="1.12561">
        <ele>211.4</ele>
        <time>2022-08-12T10:07:28Z</time>
      </trkpt>
      <trkpt lat="44.82626" lon="1.12554">
        <ele>212.4</ele>
        <time>2022-08-12T10:07:30Z</time>
      </trkpt>
      <trkpt lat="44.82627" lon="1.12547">
        <ele>211.4</ele>
        <time>2022-08-12T10:07:32Z</time>
      </trkpt>
      <trkpt lat="44.82629" lon="1.12541">
        <ele>211.4</ele>
        <time>2022-08-12T10:07:34Z</time>
      </trkpt>
      <trkpt lat="44.8263" lon="1.12532">
        <ele>211.4</ele>
        <time>2022-08-12T10:07:36Z</time>
      </trkpt>
      <trkpt lat="44.82631" lon="1.12523">
        <ele>212.4</ele>
        <time>2022-08-12T10:07:38Z</time>
      </trkpt>
      <trkpt lat="44.82632" lon="1.12514">
        <ele>213.4</ele>
        <time>2022-08-12T10:07:40Z</time>
      </trkpt>
      <trkpt lat="44.82635" lon="1.12506">
        <ele>213.4</ele>
        <time>2022-08-12T10:07:42Z</time>
      </trkpt>
      <trkpt lat="44.82637" lon="1.12498">
        <ele>213.4</ele>
        <time>2022-08-12T10:07:44Z</time>
      </trkpt>
      <trkpt lat="44.8264" lon="1.12493">
        <ele>213.4</ele>
        <time>2022-08-12T10:07:46Z</time>
      </trkpt>
      <trkpt lat="44.82643" lon="1.12488">
        <ele>214.4</ele>
        <time>2022-08-12T10:07:49Z</time>
      </trkpt>
      <trkpt lat="44.82647" lon="1.12481">
        <ele>214.4</ele>
        <time>2022-08-12T10:07:52Z</time>
      </trkpt>
      <trkpt lat="44.8265" lon="1.12475">
        <ele>215.4</ele>
        <time>2022-08-12T10:07:55Z</time>
      </trkpt>
      <trkpt lat="44.82653" lon="1.1247">
        <ele>216.4</ele>
        <time>2022-08-12T10:07:58Z</time>
      </trkpt>
      <trkpt lat="44.82656" lon="1.12465">
        <ele>217.4</ele>
        <time>2022-08-12T10:08:02Z</time>
      </trkpt>
      <trkpt lat="44.82658" lon="1.12458">
        <ele>218.4</ele>
        <time>2022-08-12T10:08:06Z</time>
      </trkpt>
      <trkpt lat="44.8266" lon="1.12452">
        <ele>218.4</ele>
        <time>2022-08-12T10:08:10Z</time>
      </trkpt>
      <trkpt lat="44.82662" lon="1.12445">
        <ele>218.4</ele>
        <time>2022-08-12T10:08:13Z</time>
      </trkpt>
      <trkpt lat="44.82664" lon="1.12438">
        <ele>219.4</ele>
        <time>2022-08-12T10:08:16Z</time>
      </trkpt>
      <trkpt lat="44.82664" lon="1.12431">
        <ele>221.4</ele>
        <time>2022-08-12T10:08:20Z</time>
      </trkpt>
      <trkpt lat="44.82665" lon="1.12425">
        <ele>222.4</ele>
        <time>2022-08-12T10:08:23Z</time>
      </trkpt>
      <trkpt lat="44.82666" lon="1.12418">
        <ele>223.4</ele>
        <time>2022-08-12T10:08:26Z</time>
      </trkpt>
      <trkpt lat="44.82666" lon="1.12411">
        <ele>222.4</ele>
        <time>2022-08-12T10:08:29Z</time>
      </trkpt>
      <trkpt lat="44.82667" lon="1.12402">
        <ele>221.4</ele>
        <time>2022-08-12T10:08:32Z</time>
      </trkpt>
      <trkpt lat="44.82668" lon="1.12394">
        <ele>223.4</ele>
        <time>2022-08-12T10:08:35Z</time>
      </trkpt>
      <trkpt lat="44.82671" lon="1.12388">
        <ele>223.4</ele>
        <time>2022-08-12T10:08:38Z</time>
      </trkpt>
      <trkpt lat="44.82672" lon="1.12382">
        <ele>223.4</ele>
        <time>2022-08-12T10:08:40Z</time>
      </trkpt>
      <trkpt lat="44.82674" lon="1.12374">
        <ele>223.4</ele>
        <time>2022-08-12T10:08:42Z</time>
      </trkpt>
      <trkpt lat="44.82677" lon="1.12366">
        <ele>223.4</ele>
        <time>2022-08-12T10:08:44Z</time>
      </trkpt>
      <trkpt lat="44.82679" lon="1.12359">
        <ele>223.4</ele>
        <time>2022-08-12T10:08:46Z</time>
      </trkpt>
      <trkpt lat="44.82681" lon="1.12352">
        <ele>223.4</ele>
        <time>2022-08-12T10:08:48Z</time>
      </trkpt>
      <trkpt lat="44.82684" lon="1.12345">
        <ele>222.4</ele>
        <time>2022-08-12T10:08:50Z</time>
      </trkpt>
      <trkpt lat="44.8269" lon="1.12339">
        <ele>220.4</ele>
        <time>2022-08-12T10:08:52Z</time>
      </trkpt>
      <trkpt lat="44.82696" lon="1.12332">
        <ele>220.4</ele>
        <time>2022-08-12T10:08:54Z</time>
      </trkpt>
      <trkpt lat="44.82702" lon="1.1233">
        <ele>219.4</ele>
        <time>2022-08-12T10:08:56Z</time>
      </trkpt>
      <trkpt lat="44.82707" lon="1.12327">
        <ele>220.4</ele>
        <time>2022-08-12T10:08:58Z</time>
      </trkpt>
      <trkpt lat="44.82712" lon="1.12326">
        <ele>220.4</ele>
        <time>2022-08-12T10:09:00Z</time>
      </trkpt>
      <trkpt lat="44.82717" lon="1.12324">
        <ele>221.4</ele>
        <time>2022-08-12T10:09:02Z</time>
      </trkpt>
      <trkpt lat="44.82723" lon="1.12322">
        <ele>222.4</ele>
        <time>2022-08-12T10:09:05Z</time>
      </trkpt>
      <trkpt lat="44.82728" lon="1.12322">
        <ele>223.4</ele>
        <time>2022-08-12T10:09:08Z</time>
      </trkpt>
      <trkpt lat="44.82734" lon="1.12321">
        <ele>224.4</ele>
        <time>2022-08-12T10:09:12Z</time>
      </trkpt>
      <trkpt lat="44.82741" lon="1.1232">
        <ele>224.4</ele>
        <time>2022-08-12T10:09:15Z</time>
      </trkpt>
      <trkpt lat="44.82746" lon="1.1232">
        <ele>224.4</ele>
        <time>2022-08-12T10:09:17Z</time>
      </trkpt>
      <trkpt lat="44.82753" lon="1.12319">
        <ele>223.4</ele>
        <time>2022-08-12T10:09:19Z</time>
      </trkpt>
      <trkpt lat="44.8276" lon="1.12318">
        <ele>222.4</ele>
        <time>2022-08-12T10:09:21Z</time>
      </trkpt>
      <trkpt lat="44.82765" lon="1.12318">
        <ele>221.4</ele>
        <time>2022-08-12T10:09:22Z</time>
      </trkpt>
      <trkpt lat="44.82774" lon="1.12317">
        <ele>221.4</ele>
        <time>2022-08-12T10:09:24Z</time>
      </trkpt>
      <trkpt lat="44.82781" lon="1.12317">
        <ele>222.4</ele>
        <time>2022-08-12T10:09:26Z</time>
      </trkpt>
      <trkpt lat="44.82787" lon="1.12316">
        <ele>222.4</ele>
        <time>2022-08-12T10:09:28Z</time>
      </trkpt>
      <trkpt lat="44.82794" lon="1.12314">
        <ele>221.4</ele>
        <time>2022-08-12T10:09:30Z</time>
      </trkpt>
      <trkpt lat="44.82801" lon="1.12312">
        <ele>219.4</ele>
        <time>2022-08-12T10:09:32Z</time>
      </trkpt>
      <trkpt lat="44.82806" lon="1.12309">
        <ele>217.4</ele>
        <time>2022-08-12T10:09:34Z</time>
      </trkpt>
      <trkpt lat="44.82811" lon="1.12308">
        <ele>217.4</ele>
        <time>2022-08-12T10:09:47Z</time>
      </trkpt>
      <trkpt lat="44.82816" lon="1.12311">
        <ele>222.4</ele>
        <time>2022-08-12T10:11:24Z</time>
      </trkpt>
      <trkpt lat="44.8282" lon="1.12315">
        <ele>221.4</ele>
        <time>2022-08-12T10:11:29Z</time>
      </trkpt>
      <trkpt lat="44.82824" lon="1.12313">
        <ele>220.4</ele>
        <time>2022-08-12T10:11:34Z</time>
      </trkpt>
      <trkpt lat="44.82829" lon="1.12314">
        <ele>219.4</ele>
        <time>2022-08-12T10:11:40Z</time>
      </trkpt>
      <trkpt lat="44.82834" lon="1.12313">
        <ele>218.4</ele>
        <time>2022-08-12T10:11:43Z</time>
      </trkpt>
      <trkpt lat="44.8284" lon="1.12308">
        <ele>216.4</ele>
        <time>2022-08-12T10:11:46Z</time>
      </trkpt>
      <trkpt lat="44.82844" lon="1.12305">
        <ele>216.4</ele>
        <time>2022-08-12T10:11:48Z</time>
      </trkpt>
      <trkpt lat="44.82848" lon="1.12301">
        <ele>214.4</ele>
        <time>2022-08-12T10:11:58Z</time>
      </trkpt>
      <trkpt lat="44.82844" lon="1.12303">
        <ele>216.4</ele>
        <time>2022-08-12T10:12:27Z</time>
      </trkpt>
      <trkpt lat="44.82846" lon="1.12311">
        <ele>215.4</ele>
        <time>2022-08-12T10:12:32Z</time>
      </trkpt>
      <trkpt lat="44.82847" lon="1.12318">
        <ele>216.4</ele>
        <time>2022-08-12T10:12:37Z</time>
      </trkpt>
      <trkpt lat="44.82845" lon="1.12311">
        <ele>218.4</ele>
        <time>2022-08-12T10:12:52Z</time>
      </trkpt>
      <trkpt lat="44.82839" lon="1.12311">
        <ele>219.4</ele>
        <time>2022-08-12T10:12:57Z</time>
      </trkpt>
      <trkpt lat="44.82834" lon="1.12311">
        <ele>220.4</ele>
        <time>2022-08-12T10:13:03Z</time>
      </trkpt>
      <trkpt lat="44.82829" lon="1.12312">
        <ele>221.4</ele>
        <time>2022-08-12T10:13:09Z</time>
      </trkpt>
      <trkpt lat="44.82823" lon="1.12313">
        <ele>222.4</ele>
        <time>2022-08-12T10:13:13Z</time>
      </trkpt>
      <trkpt lat="44.82818" lon="1.12313">
        <ele>222.4</ele>
        <time>2022-08-12T10:13:16Z</time>
      </trkpt>
      <trkpt lat="44.82813" lon="1.12312">
        <ele>221.4</ele>
        <time>2022-08-12T10:13:20Z</time>
      </trkpt>
      <trkpt lat="44.82809" lon="1.12316">
        <ele>223.4</ele>
        <time>2022-08-12T10:13:26Z</time>
      </trkpt>
      <trkpt lat="44.82804" lon="1.12316">
        <ele>225.4</ele>
        <time>2022-08-12T10:13:36Z</time>
      </trkpt>
      <trkpt lat="44.82798" lon="1.12315">
        <ele>222.4</ele>
        <time>2022-08-12T10:13:58Z</time>
      </trkpt>
      <trkpt lat="44.82793" lon="1.12316">
        <ele>222.4</ele>
        <time>2022-08-12T10:14:00Z</time>
      </trkpt>
      <trkpt lat="44.82788" lon="1.12317">
        <ele>221.4</ele>
        <time>2022-08-12T10:14:03Z</time>
      </trkpt>
      <trkpt lat="44.82782" lon="1.12319">
        <ele>221.4</ele>
        <time>2022-08-12T10:14:08Z</time>
      </trkpt>
      <trkpt lat="44.82778" lon="1.1232">
        <ele>223.4</ele>
        <time>2022-08-12T10:14:25Z</time>
      </trkpt>
      <trkpt lat="44.82772" lon="1.1232">
        <ele>225.4</ele>
        <time>2022-08-12T10:14:28Z</time>
      </trkpt>
      <trkpt lat="44.82767" lon="1.1232">
        <ele>226.4</ele>
        <time>2022-08-12T10:14:30Z</time>
      </trkpt>
      <trkpt lat="44.82761" lon="1.12321">
        <ele>226.4</ele>
        <time>2022-08-12T10:14:33Z</time>
      </trkpt>
      <trkpt lat="44.82756" lon="1.12322">
        <ele>227.4</ele>
        <time>2022-08-12T10:14:35Z</time>
      </trkpt>
      <trkpt lat="44.82751" lon="1.12322">
        <ele>228.4</ele>
        <time>2022-08-12T10:14:37Z</time>
      </trkpt>
      <trkpt lat="44.82745" lon="1.12322">
        <ele>229.4</ele>
        <time>2022-08-12T10:14:40Z</time>
      </trkpt>
      <trkpt lat="44.82739" lon="1.12322">
        <ele>229.4</ele>
        <time>2022-08-12T10:14:42Z</time>
      </trkpt>
      <trkpt lat="44.82728" lon="1.12322">
        <ele>228.4</ele>
        <time>2022-08-12T10:14:45Z</time>
      </trkpt>
      <trkpt lat="44.82721" lon="1.12323">
        <ele>228.4</ele>
        <time>2022-08-12T10:14:47Z</time>
      </trkpt>
      <trkpt lat="44.82714" lon="1.12325">
        <ele>226.4</ele>
        <time>2022-08-12T10:14:49Z</time>
      </trkpt>
      <trkpt lat="44.82706" lon="1.12329">
        <ele>226.4</ele>
        <time>2022-08-12T10:14:51Z</time>
      </trkpt>
      <trkpt lat="44.82699" lon="1.12332">
        <ele>225.4</ele>
        <time>2022-08-12T10:14:53Z</time>
      </trkpt>
      <trkpt lat="44.82695" lon="1.12337">
        <ele>225.4</ele>
        <time>2022-08-12T10:14:55Z</time>
      </trkpt>
      <trkpt lat="44.82691" lon="1.12343">
        <ele>225.4</ele>
        <time>2022-08-12T10:14:57Z</time>
      </trkpt>
      <trkpt lat="44.82689" lon="1.1235">
        <ele>223.4</ele>
        <time>2022-08-12T10:14:59Z</time>
      </trkpt>
      <trkpt lat="44.82687" lon="1.12359">
        <ele>222.4</ele>
        <time>2022-08-12T10:15:01Z</time>
      </trkpt>
      <trkpt lat="44.82681" lon="1.1237">
        <ele>221.4</ele>
        <time>2022-08-12T10:15:03Z</time>
      </trkpt>
      <trkpt lat="44.82677" lon="1.12382">
        <ele>220.4</ele>
        <time>2022-08-12T10:15:05Z</time>
      </trkpt>
      <trkpt lat="44.82673" lon="1.12393">
        <ele>220.4</ele>
        <time>2022-08-12T10:15:07Z</time>
      </trkpt>
      <trkpt lat="44.8267" lon="1.12409">
        <ele>219.4</ele>
        <time>2022-08-12T10:15:10Z</time>
      </trkpt>
      <trkpt lat="44.82668" lon="1.12419">
        <ele>218.4</ele>
        <time>2022-08-12T10:15:12Z</time>
      </trkpt>
      <trkpt lat="44.82666" lon="1.12431">
        <ele>218.4</ele>
        <time>2022-08-12T10:15:14Z</time>
      </trkpt>
      <trkpt lat="44.82665" lon="1.12438">
        <ele>218.4</ele>
        <time>2022-08-12T10:15:15Z</time>
      </trkpt>
      <trkpt lat="44.82663" lon="1.12444">
        <ele>217.4</ele>
        <time>2022-08-12T10:15:16Z</time>
      </trkpt>
      <trkpt lat="44.82661" lon="1.12453">
        <ele>217.4</ele>
        <time>2022-08-12T10:15:18Z</time>
      </trkpt>
      <trkpt lat="44.82658" lon="1.12459">
        <ele>223.4</ele>
        <time>2022-08-12T10:15:45Z</time>
      </trkpt>
      <trkpt lat="44.82654" lon="1.12466">
        <ele>222.4</ele>
        <time>2022-08-12T10:15:49Z</time>
      </trkpt>
      <trkpt lat="44.82649" lon="1.12472">
        <ele>221.4</ele>
        <time>2022-08-12T10:15:51Z</time>
      </trkpt>
      <trkpt lat="44.82643" lon="1.1248">
        <ele>220.4</ele>
        <time>2022-08-12T10:15:53Z</time>
      </trkpt>
      <trkpt lat="44.82639" lon="1.12489">
        <ele>219.4</ele>
        <time>2022-08-12T10:15:55Z</time>
      </trkpt>
      <trkpt lat="44.82637" lon="1.12496">
        <ele>218.4</ele>
        <time>2022-08-12T10:15:56Z</time>
      </trkpt>
      <trkpt lat="44.82636" lon="1.12505">
        <ele>218.4</ele>
        <time>2022-08-12T10:15:57Z</time>
      </trkpt>
      <trkpt lat="44.82635" lon="1.12514">
        <ele>217.4</ele>
        <time>2022-08-12T10:15:58Z</time>
      </trkpt>
      <trkpt lat="44.82634" lon="1.12523">
        <ele>217.4</ele>
        <time>2022-08-12T10:15:59Z</time>
      </trkpt>
      <trkpt lat="44.82631" lon="1.12532">
        <ele>218.4</ele>
        <time>2022-08-12T10:16:00Z</time>
      </trkpt>
      <trkpt lat="44.82629" lon="1.12539">
        <ele>219.4</ele>
        <time>2022-08-12T10:16:01Z</time>
      </trkpt>
      <trkpt lat="44.82627" lon="1.12547">
        <ele>219.4</ele>
        <time>2022-08-12T10:16:02Z</time>
      </trkpt>
      <trkpt lat="44.82627" lon="1.12556">
        <ele>218.4</ele>
        <time>2022-08-12T10:16:04Z</time>
      </trkpt>
      <trkpt lat="44.82628" lon="1.12566">
        <ele>217.4</ele>
        <time>2022-08-12T10:16:06Z</time>
      </trkpt>
      <trkpt lat="44.82626" lon="1.12574">
        <ele>217.4</ele>
        <time>2022-08-12T10:16:08Z</time>
      </trkpt>
      <trkpt lat="44.82626" lon="1.12582">
        <ele>216.4</ele>
        <time>2022-08-12T10:16:10Z</time>
      </trkpt>
      <trkpt lat="44.82625" lon="1.12591">
        <ele>216.4</ele>
        <time>2022-08-12T10:16:12Z</time>
      </trkpt>
      <trkpt lat="44.82625" lon="1.126">
        <ele>216.4</ele>
        <time>2022-08-12T10:16:14Z</time>
      </trkpt>
      <trkpt lat="44.82627" lon="1.1261">
        <ele>215.4</ele>
        <time>2022-08-12T10:16:16Z</time>
      </trkpt>
      <trkpt lat="44.82624" lon="1.12621">
        <ele>215.4</ele>
        <time>2022-08-12T10:16:18Z</time>
      </trkpt>
      <trkpt lat="44.8262" lon="1.12625">
        <ele>214.4</ele>
        <time>2022-08-12T10:16:19Z</time>
      </trkpt>
      <trkpt lat="44.82614" lon="1.12631">
        <ele>214.4</ele>
        <time>2022-08-12T10:16:21Z</time>
      </trkpt>
      <trkpt lat="44.82608" lon="1.12636">
        <ele>214.4</ele>
        <time>2022-08-12T10:16:23Z</time>
      </trkpt>
      <trkpt lat="44.82605" lon="1.12644">
        <ele>214.4</ele>
        <time>2022-08-12T10:16:25Z</time>
      </trkpt>
      <trkpt lat="44.82603" lon="1.12653">
        <ele>214.4</ele>
        <time>2022-08-12T10:16:27Z</time>
      </trkpt>
      <trkpt lat="44.826" lon="1.12663">
        <ele>215.4</ele>
        <time>2022-08-12T10:16:29Z</time>
      </trkpt>
      <trkpt lat="44.82596" lon="1.12672">
        <ele>215.4</ele>
        <time>2022-08-12T10:16:31Z</time>
      </trkpt>
      <trkpt lat="44.82589" lon="1.1268">
        <ele>216.4</ele>
        <time>2022-08-12T10:16:33Z</time>
      </trkpt>
      <trkpt lat="44.82583" lon="1.12686">
        <ele>216.4</ele>
        <time>2022-08-12T10:16:35Z</time>
      </trkpt>
      <trkpt lat="44.82579" lon="1.12691">
        <ele>215.4</ele>
        <time>2022-08-12T10:16:36Z</time>
      </trkpt>
      <trkpt lat="44.82576" lon="1.12695">
        <ele>215.4</ele>
        <time>2022-08-12T10:16:37Z</time>
      </trkpt>
      <trkpt lat="44.82569" lon="1.12702">
        <ele>215.4</ele>
        <time>2022-08-12T10:16:39Z</time>
      </trkpt>
      <trkpt lat="44.82563" lon="1.12708">
        <ele>215.4</ele>
        <time>2022-08-12T10:16:41Z</time>
      </trkpt>
      <trkpt lat="44.82556" lon="1.12714">
        <ele>215.4</ele>
        <time>2022-08-12T10:16:43Z</time>
      </trkpt>
      <trkpt lat="44.82552" lon="1.12719">
        <ele>215.4</ele>
        <time>2022-08-12T10:16:44Z</time>
      </trkpt>
      <trkpt lat="44.82549" lon="1.12724">
        <ele>215.4</ele>
        <time>2022-08-12T10:16:45Z</time>
      </trkpt>
      <trkpt lat="44.82546" lon="1.12729">
        <ele>214.4</ele>
        <time>2022-08-12T10:16:46Z</time>
      </trkpt>
      <trkpt lat="44.82543" lon="1.12734">
        <ele>214.4</ele>
        <time>2022-08-12T10:16:47Z</time>
      </trkpt>
      <trkpt lat="44.82539" lon="1.1274">
        <ele>214.4</ele>
        <time>2022-08-12T10:16:48Z</time>
      </trkpt>
      <trkpt lat="44.82535" lon="1.12748">
        <ele>215.4</ele>
        <time>2022-08-12T10:16:49Z</time>
      </trkpt>
      <trkpt lat="44.8253" lon="1.12754">
        <ele>214.4</ele>
        <time>2022-08-12T10:16:50Z</time>
      </trkpt>
      <trkpt lat="44.82525" lon="1.12762">
        <ele>214.4</ele>
        <time>2022-08-12T10:16:51Z</time>
      </trkpt>
      <trkpt lat="44.82521" lon="1.12768">
        <ele>214.4</ele>
        <time>2022-08-12T10:16:52Z</time>
      </trkpt>
      <trkpt lat="44.82515" lon="1.12773">
        <ele>214.4</ele>
        <time>2022-08-12T10:16:53Z</time>
      </trkpt>
      <trkpt lat="44.8251" lon="1.12778">
        <ele>213.4</ele>
        <time>2022-08-12T10:16:54Z</time>
      </trkpt>
      <trkpt lat="44.82506" lon="1.12785">
        <ele>213.4</ele>
        <time>2022-08-12T10:16:55Z</time>
      </trkpt>
      <trkpt lat="44.82501" lon="1.12792">
        <ele>213.4</ele>
        <time>2022-08-12T10:16:56Z</time>
      </trkpt>
      <trkpt lat="44.82497" lon="1.12799">
        <ele>213.4</ele>
        <time>2022-08-12T10:16:57Z</time>
      </trkpt>
      <trkpt lat="44.82493" lon="1.12806">
        <ele>213.4</ele>
        <time>2022-08-12T10:16:58Z</time>
      </trkpt>
      <trkpt lat="44.82487" lon="1.12813">
        <ele>214.4</ele>
        <time>2022-08-12T10:16:59Z</time>
      </trkpt>
      <trkpt lat="44.82482" lon="1.1282">
        <ele>214.4</ele>
        <time>2022-08-12T10:17:00Z</time>
      </trkpt>
      <trkpt lat="44.82478" lon="1.12828">
        <ele>215.4</ele>
        <time>2022-08-12T10:17:01Z</time>
      </trkpt>
      <trkpt lat="44.82474" lon="1.12835">
        <ele>215.4</ele>
        <time>2022-08-12T10:17:02Z</time>
      </trkpt>
      <trkpt lat="44.82468" lon="1.12839">
        <ele>216.4</ele>
        <time>2022-08-12T10:17:03Z</time>
      </trkpt>
      <trkpt lat="44.82462" lon="1.12843">
        <ele>216.4</ele>
        <time>2022-08-12T10:17:04Z</time>
      </trkpt>
      <trkpt lat="44.82455" lon="1.12845">
        <ele>216.4</ele>
        <time>2022-08-12T10:17:05Z</time>
      </trkpt>
      <trkpt lat="44.82449" lon="1.12848">
        <ele>216.4</ele>
        <time>2022-08-12T10:17:06Z</time>
      </trkpt>
      <trkpt lat="44.82443" lon="1.1285">
        <ele>216.4</ele>
        <time>2022-08-12T10:17:07Z</time>
      </trkpt>
      <trkpt lat="44.82437" lon="1.12854">
        <ele>217.4</ele>
        <time>2022-08-12T10:17:08Z</time>
      </trkpt>
      <trkpt lat="44.82431" lon="1.12857">
        <ele>216.4</ele>
        <time>2022-08-12T10:17:09Z</time>
      </trkpt>
      <trkpt lat="44.82426" lon="1.12859">
        <ele>216.4</ele>
        <time>2022-08-12T10:17:10Z</time>
      </trkpt>
      <trkpt lat="44.8242" lon="1.12862">
        <ele>216.4</ele>
        <time>2022-08-12T10:17:11Z</time>
      </trkpt>
      <trkpt lat="44.82414" lon="1.12864">
        <ele>216.4</ele>
        <time>2022-08-12T10:17:12Z</time>
      </trkpt>
      <trkpt lat="44.82408" lon="1.12866">
        <ele>216.4</ele>
        <time>2022-08-12T10:17:13Z</time>
      </trkpt>
      <trkpt lat="44.82403" lon="1.12868">
        <ele>217.4</ele>
        <time>2022-08-12T10:17:14Z</time>
      </trkpt>
      <trkpt lat="44.82398" lon="1.12871">
        <ele>217.4</ele>
        <time>2022-08-12T10:17:15Z</time>
      </trkpt>
      <trkpt lat="44.82388" lon="1.12873">
        <ele>217.4</ele>
        <time>2022-08-12T10:17:17Z</time>
      </trkpt>
      <trkpt lat="44.82379" lon="1.12875">
        <ele>217.4</ele>
        <time>2022-08-12T10:17:19Z</time>
      </trkpt>
      <trkpt lat="44.82374" lon="1.12877">
        <ele>217.4</ele>
        <time>2022-08-12T10:17:20Z</time>
      </trkpt>
      <trkpt lat="44.82369" lon="1.1288">
        <ele>217.4</ele>
        <time>2022-08-12T10:17:21Z</time>
      </trkpt>
      <trkpt lat="44.82364" lon="1.12883">
        <ele>217.4</ele>
        <time>2022-08-12T10:17:22Z</time>
      </trkpt>
      <trkpt lat="44.82359" lon="1.12885">
        <ele>217.4</ele>
        <time>2022-08-12T10:17:23Z</time>
      </trkpt>
      <trkpt lat="44.82355" lon="1.12888">
        <ele>216.4</ele>
        <time>2022-08-12T10:17:24Z</time>
      </trkpt>
      <trkpt lat="44.8235" lon="1.12891">
        <ele>215.4</ele>
        <time>2022-08-12T10:17:25Z</time>
      </trkpt>
      <trkpt lat="44.82346" lon="1.12893">
        <ele>215.4</ele>
        <time>2022-08-12T10:17:26Z</time>
      </trkpt>
      <trkpt lat="44.82339" lon="1.12896">
        <ele>214.4</ele>
        <time>2022-08-12T10:17:28Z</time>
      </trkpt>
      <trkpt lat="44.82334" lon="1.12901">
        <ele>214.4</ele>
        <time>2022-08-12T10:17:30Z</time>
      </trkpt>
      <trkpt lat="44.82331" lon="1.12906">
        <ele>213.4</ele>
        <time>2022-08-12T10:17:32Z</time>
      </trkpt>
      <trkpt lat="44.82326" lon="1.1291">
        <ele>213.4</ele>
        <time>2022-08-12T10:17:34Z</time>
      </trkpt>
      <trkpt lat="44.8232" lon="1.12915">
        <ele>212.4</ele>
        <time>2022-08-12T10:17:36Z</time>
      </trkpt>
      <trkpt lat="44.82315" lon="1.12922">
        <ele>211.4</ele>
        <time>2022-08-12T10:17:37Z</time>
      </trkpt>
      <trkpt lat="44.82308" lon="1.12935">
        <ele>211.4</ele>
        <time>2022-08-12T10:17:39Z</time>
      </trkpt>
      <trkpt lat="44.82303" lon="1.12943">
        <ele>210.4</ele>
        <time>2022-08-12T10:17:41Z</time>
      </trkpt>
      <trkpt lat="44.823" lon="1.12952">
        <ele>209.4</ele>
        <time>2022-08-12T10:17:43Z</time>
      </trkpt>
      <trkpt lat="44.82297" lon="1.12959">
        <ele>208.4</ele>
        <time>2022-08-12T10:17:45Z</time>
      </trkpt>
      <trkpt lat="44.82292" lon="1.12968">
        <ele>208.4</ele>
        <time>2022-08-12T10:17:47Z</time>
      </trkpt>
      <trkpt lat="44.82289" lon="1.12974">
        <ele>208.4</ele>
        <time>2022-08-12T10:17:48Z</time>
      </trkpt>
      <trkpt lat="44.82286" lon="1.12979">
        <ele>207.4</ele>
        <time>2022-08-12T10:17:49Z</time>
      </trkpt>
      <trkpt lat="44.82283" lon="1.12985">
        <ele>207.4</ele>
        <time>2022-08-12T10:17:50Z</time>
      </trkpt>
      <trkpt lat="44.82281" lon="1.12992">
        <ele>208.4</ele>
        <time>2022-08-12T10:17:51Z</time>
      </trkpt>
      <trkpt lat="44.82279" lon="1.12998">
        <ele>208.4</ele>
        <time>2022-08-12T10:17:52Z</time>
      </trkpt>
      <trkpt lat="44.82278" lon="1.13006">
        <ele>207.4</ele>
        <time>2022-08-12T10:17:53Z</time>
      </trkpt>
      <trkpt lat="44.82278" lon="1.1302">
        <ele>206.4</ele>
        <time>2022-08-12T10:17:55Z</time>
      </trkpt>
      <trkpt lat="44.82281" lon="1.1303">
        <ele>205.4</ele>
        <time>2022-08-12T10:17:57Z</time>
      </trkpt>
      <trkpt lat="44.82287" lon="1.13038">
        <ele>205.4</ele>
        <time>2022-08-12T10:17:59Z</time>
      </trkpt>
      <trkpt lat="44.82292" lon="1.13043">
        <ele>204.4</ele>
        <time>2022-08-12T10:18:01Z</time>
      </trkpt>
      <trkpt lat="44.82295" lon="1.13049">
        <ele>204.4</ele>
        <time>2022-08-12T10:18:03Z</time>
      </trkpt>
      <trkpt lat="44.82299" lon="1.13056">
        <ele>204.4</ele>
        <time>2022-08-12T10:18:06Z</time>
      </trkpt>
      <trkpt lat="44.82301" lon="1.13062">
        <ele>204.4</ele>
        <time>2022-08-12T10:18:08Z</time>
      </trkpt>
      <trkpt lat="44.82304" lon="1.13067">
        <ele>204.4</ele>
        <time>2022-08-12T10:18:10Z</time>
      </trkpt>
      <trkpt lat="44.82306" lon="1.13074">
        <ele>204.4</ele>
        <time>2022-08-12T10:18:12Z</time>
      </trkpt>
      <trkpt lat="44.82308" lon="1.13079">
        <ele>205.4</ele>
        <time>2022-08-12T10:18:14Z</time>
      </trkpt>
      <trkpt lat="44.8231" lon="1.13086">
        <ele>204.4</ele>
        <time>2022-08-12T10:18:16Z</time>
      </trkpt>
      <trkpt lat="44.82313" lon="1.13092">
        <ele>204.4</ele>
        <time>2022-08-12T10:18:18Z</time>
      </trkpt>
      <trkpt lat="44.82316" lon="1.13099">
        <ele>204.4</ele>
        <time>2022-08-12T10:18:20Z</time>
      </trkpt>
      <trkpt lat="44.8232" lon="1.13107">
        <ele>204.4</ele>
        <time>2022-08-12T10:18:22Z</time>
      </trkpt>
      <trkpt lat="44.82323" lon="1.13114">
        <ele>204.4</ele>
        <time>2022-08-12T10:18:24Z</time>
      </trkpt>
      <trkpt lat="44.82326" lon="1.13121">
        <ele>204.4</ele>
        <time>2022-08-12T10:18:26Z</time>
      </trkpt>
      <trkpt lat="44.82328" lon="1.13128">
        <ele>203.4</ele>
        <time>2022-08-12T10:18:28Z</time>
      </trkpt>
      <trkpt lat="44.82331" lon="1.13135">
        <ele>203.4</ele>
        <time>2022-08-12T10:18:30Z</time>
      </trkpt>
      <trkpt lat="44.82335" lon="1.13138">
        <ele>203.4</ele>
        <time>2022-08-12T10:18:32Z</time>
      </trkpt>
      <trkpt lat="44.82341" lon="1.1314">
        <ele>203.4</ele>
        <time>2022-08-12T10:18:34Z</time>
      </trkpt>
      <trkpt lat="44.82347" lon="1.13142">
        <ele>203.4</ele>
        <time>2022-08-12T10:18:36Z</time>
      </trkpt>
      <trkpt lat="44.82354" lon="1.13147">
        <ele>204.4</ele>
        <time>2022-08-12T10:18:38Z</time>
      </trkpt>
      <trkpt lat="44.82359" lon="1.13152">
        <ele>204.4</ele>
        <time>2022-08-12T10:18:40Z</time>
      </trkpt>
      <trkpt lat="44.82365" lon="1.13159">
        <ele>204.4</ele>
        <time>2022-08-12T10:18:42Z</time>
      </trkpt>
      <trkpt lat="44.82372" lon="1.13165">
        <ele>204.4</ele>
        <time>2022-08-12T10:18:44Z</time>
      </trkpt>
      <trkpt lat="44.8238" lon="1.13166">
        <ele>203.4</ele>
        <time>2022-08-12T10:18:46Z</time>
      </trkpt>
      <trkpt lat="44.82384" lon="1.13165">
        <ele>203.4</ele>
        <time>2022-08-12T10:18:47Z</time>
      </trkpt>
      <trkpt lat="44.82391" lon="1.13163">
        <ele>203.4</ele>
        <time>2022-08-12T10:18:48Z</time>
      </trkpt>
      <trkpt lat="44.82398" lon="1.13163">
        <ele>203.4</ele>
        <time>2022-08-12T10:18:49Z</time>
      </trkpt>
      <trkpt lat="44.82403" lon="1.13164">
        <ele>205.4</ele>
        <time>2022-08-12T10:18:50Z</time>
      </trkpt>
      <trkpt lat="44.82406" lon="1.1317">
        <ele>204.4</ele>
        <time>2022-08-12T10:18:52Z</time>
      </trkpt>
      <trkpt lat="44.82405" lon="1.13179">
        <ele>203.4</ele>
        <time>2022-08-12T10:18:54Z</time>
      </trkpt>
      <trkpt lat="44.82403" lon="1.13189">
        <ele>202.4</ele>
        <time>2022-08-12T10:18:56Z</time>
      </trkpt>
      <trkpt lat="44.82401" lon="1.13196">
        <ele>201.4</ele>
        <time>2022-08-12T10:18:58Z</time>
      </trkpt>
      <trkpt lat="44.82401" lon="1.13204">
        <ele>200.4</ele>
        <time>2022-08-12T10:19:00Z</time>
      </trkpt>
      <trkpt lat="44.82404" lon="1.13209">
        <ele>199.4</ele>
        <time>2022-08-12T10:19:02Z</time>
      </trkpt>
      <trkpt lat="44.82409" lon="1.13212">
        <ele>198.4</ele>
        <time>2022-08-12T10:19:04Z</time>
      </trkpt>
      <trkpt lat="44.82414" lon="1.13215">
        <ele>198.4</ele>
        <time>2022-08-12T10:19:06Z</time>
      </trkpt>
      <trkpt lat="44.8242" lon="1.13218">
        <ele>197.4</ele>
        <time>2022-08-12T10:19:08Z</time>
      </trkpt>
      <trkpt lat="44.82426" lon="1.13222">
        <ele>195.4</ele>
        <time>2022-08-12T10:19:10Z</time>
      </trkpt>
      <trkpt lat="44.82432" lon="1.13227">
        <ele>194.4</ele>
        <time>2022-08-12T10:19:12Z</time>
      </trkpt>
      <trkpt lat="44.82438" lon="1.13231">
        <ele>193.4</ele>
        <time>2022-08-12T10:19:14Z</time>
      </trkpt>
      <trkpt lat="44.82443" lon="1.13232">
        <ele>193.4</ele>
        <time>2022-08-12T10:19:16Z</time>
      </trkpt>
      <trkpt lat="44.82449" lon="1.1323">
        <ele>192.4</ele>
        <time>2022-08-12T10:19:19Z</time>
      </trkpt>
      <trkpt lat="44.82456" lon="1.13228">
        <ele>191.4</ele>
        <time>2022-08-12T10:19:22Z</time>
      </trkpt>
      <trkpt lat="44.82462" lon="1.13227">
        <ele>191.4</ele>
        <time>2022-08-12T10:19:24Z</time>
      </trkpt>
      <trkpt lat="44.82471" lon="1.13221">
        <ele>190.4</ele>
        <time>2022-08-12T10:19:26Z</time>
      </trkpt>
      <trkpt lat="44.82475" lon="1.13217">
        <ele>189.4</ele>
        <time>2022-08-12T10:19:27Z</time>
      </trkpt>
      <trkpt lat="44.82479" lon="1.13213">
        <ele>188.4</ele>
        <time>2022-08-12T10:19:28Z</time>
      </trkpt>
      <trkpt lat="44.82489" lon="1.13206">
        <ele>187.4</ele>
        <time>2022-08-12T10:19:30Z</time>
      </trkpt>
      <trkpt lat="44.82497" lon="1.132">
        <ele>186.4</ele>
        <time>2022-08-12T10:19:32Z</time>
      </trkpt>
      <trkpt lat="44.82508" lon="1.13188">
        <ele>183.4</ele>
        <time>2022-08-12T10:19:35Z</time>
      </trkpt>
      <trkpt lat="44.82514" lon="1.13181">
        <ele>182.4</ele>
        <time>2022-08-12T10:19:37Z</time>
      </trkpt>
      <trkpt lat="44.8252" lon="1.13172">
        <ele>181.4</ele>
        <time>2022-08-12T10:19:39Z</time>
      </trkpt>
      <trkpt lat="44.82524" lon="1.1316">
        <ele>178.4</ele>
        <time>2022-08-12T10:19:41Z</time>
      </trkpt>
      <trkpt lat="44.82528" lon="1.13151">
        <ele>178.4</ele>
        <time>2022-08-12T10:19:43Z</time>
      </trkpt>
      <trkpt lat="44.82533" lon="1.13141">
        <ele>178.4</ele>
        <time>2022-08-12T10:19:45Z</time>
      </trkpt>
      <trkpt lat="44.82539" lon="1.13133">
        <ele>176.4</ele>
        <time>2022-08-12T10:19:47Z</time>
      </trkpt>
      <trkpt lat="44.82543" lon="1.13128">
        <ele>176.4</ele>
        <time>2022-08-12T10:19:48Z</time>
      </trkpt>
      <trkpt lat="44.82549" lon="1.1312">
        <ele>175.4</ele>
        <time>2022-08-12T10:19:50Z</time>
      </trkpt>
      <trkpt lat="44.82555" lon="1.13112">
        <ele>173.4</ele>
        <time>2022-08-12T10:19:52Z</time>
      </trkpt>
      <trkpt lat="44.82561" lon="1.13101">
        <ele>172.4</ele>
        <time>2022-08-12T10:19:54Z</time>
      </trkpt>
      <trkpt lat="44.82566" lon="1.13097">
        <ele>171.4</ele>
        <time>2022-08-12T10:19:55Z</time>
      </trkpt>
      <trkpt lat="44.82571" lon="1.13093">
        <ele>170.4</ele>
        <time>2022-08-12T10:19:56Z</time>
      </trkpt>
      <trkpt lat="44.82576" lon="1.13091">
        <ele>169.4</ele>
        <time>2022-08-12T10:19:57Z</time>
      </trkpt>
      <trkpt lat="44.82581" lon="1.13089">
        <ele>168.4</ele>
        <time>2022-08-12T10:19:58Z</time>
      </trkpt>
      <trkpt lat="44.82586" lon="1.13088">
        <ele>167.4</ele>
        <time>2022-08-12T10:19:59Z</time>
      </trkpt>
      <trkpt lat="44.82591" lon="1.13088">
        <ele>167.4</ele>
        <time>2022-08-12T10:20:00Z</time>
      </trkpt>
      <trkpt lat="44.82596" lon="1.13087">
        <ele>166.4</ele>
        <time>2022-08-12T10:20:01Z</time>
      </trkpt>
      <trkpt lat="44.82601" lon="1.13087">
        <ele>166.4</ele>
        <time>2022-08-12T10:20:02Z</time>
      </trkpt>
      <trkpt lat="44.82606" lon="1.13086">
        <ele>166.4</ele>
        <time>2022-08-12T10:20:03Z</time>
      </trkpt>
      <trkpt lat="44.82611" lon="1.13085">
        <ele>166.4</ele>
        <time>2022-08-12T10:20:04Z</time>
      </trkpt>
      <trkpt lat="44.82616" lon="1.13085">
        <ele>166.4</ele>
        <time>2022-08-12T10:20:05Z</time>
      </trkpt>
      <trkpt lat="44.82624" lon="1.13084">
        <ele>166.4</ele>
        <time>2022-08-12T10:20:07Z</time>
      </trkpt>
      <trkpt lat="44.82631" lon="1.13083">
        <ele>166.4</ele>
        <time>2022-08-12T10:20:09Z</time>
      </trkpt>
      <trkpt lat="44.82639" lon="1.13084">
        <ele>165.4</ele>
        <time>2022-08-12T10:20:11Z</time>
      </trkpt>
      <trkpt lat="44.82644" lon="1.13084">
        <ele>165.4</ele>
        <time>2022-08-12T10:20:12Z</time>
      </trkpt>
      <trkpt lat="44.82652" lon="1.13086">
        <ele>165.4</ele>
        <time>2022-08-12T10:20:14Z</time>
      </trkpt>
      <trkpt lat="44.82659" lon="1.13088">
        <ele>165.4</ele>
        <time>2022-08-12T10:20:16Z</time>
      </trkpt>
      <trkpt lat="44.82664" lon="1.1309">
        <ele>165.4</ele>
        <time>2022-08-12T10:20:19Z</time>
      </trkpt>
      <trkpt lat="44.8267" lon="1.13089">
        <ele>164.4</ele>
        <time>2022-08-12T10:20:22Z</time>
      </trkpt>
      <trkpt lat="44.82677" lon="1.1309">
        <ele>162.4</ele>
        <time>2022-08-12T10:20:25Z</time>
      </trkpt>
      <trkpt lat="44.82683" lon="1.1309">
        <ele>161.4</ele>
        <time>2022-08-12T10:20:27Z</time>
      </trkpt>
      <trkpt lat="44.82693" lon="1.13091">
        <ele>161.4</ele>
        <time>2022-08-12T10:20:29Z</time>
      </trkpt>
      <trkpt lat="44.82698" lon="1.13092">
        <ele>160.4</ele>
        <time>2022-08-12T10:20:30Z</time>
      </trkpt>
      <trkpt lat="44.82702" lon="1.13093">
        <ele>160.4</ele>
        <time>2022-08-12T10:20:31Z</time>
      </trkpt>
      <trkpt lat="44.82711" lon="1.13094">
        <ele>159.4</ele>
        <time>2022-08-12T10:20:33Z</time>
      </trkpt>
      <trkpt lat="44.8272" lon="1.13096">
        <ele>158.4</ele>
        <time>2022-08-12T10:20:35Z</time>
      </trkpt>
      <trkpt lat="44.82727" lon="1.13097">
        <ele>157.4</ele>
        <time>2022-08-12T10:20:37Z</time>
      </trkpt>
      <trkpt lat="44.82734" lon="1.131">
        <ele>156.4</ele>
        <time>2022-08-12T10:20:39Z</time>
      </trkpt>
      <trkpt lat="44.8274" lon="1.13101">
        <ele>156.4</ele>
        <time>2022-08-12T10:20:41Z</time>
      </trkpt>
      <trkpt lat="44.82746" lon="1.13104">
        <ele>155.4</ele>
        <time>2022-08-12T10:20:43Z</time>
      </trkpt>
      <trkpt lat="44.82752" lon="1.13113">
        <ele>153.4</ele>
        <time>2022-08-12T10:20:45Z</time>
      </trkpt>
      <trkpt lat="44.82756" lon="1.13118">
        <ele>152.4</ele>
        <time>2022-08-12T10:20:46Z</time>
      </trkpt>
      <trkpt lat="44.8276" lon="1.13123">
        <ele>150.4</ele>
        <time>2022-08-12T10:20:47Z</time>
      </trkpt>
      <trkpt lat="44.82766" lon="1.1313">
        <ele>149.4</ele>
        <time>2022-08-12T10:20:49Z</time>
      </trkpt>
      <trkpt lat="44.82772" lon="1.1314">
        <ele>148.4</ele>
        <time>2022-08-12T10:20:51Z</time>
      </trkpt>
      <trkpt lat="44.82776" lon="1.13147">
        <ele>148.4</ele>
        <time>2022-08-12T10:20:52Z</time>
      </trkpt>
      <trkpt lat="44.8278" lon="1.13151">
        <ele>147.4</ele>
        <time>2022-08-12T10:20:53Z</time>
      </trkpt>
      <trkpt lat="44.82784" lon="1.13157">
        <ele>145.4</ele>
        <time>2022-08-12T10:20:54Z</time>
      </trkpt>
      <trkpt lat="44.82788" lon="1.13162">
        <ele>145.4</ele>
        <time>2022-08-12T10:20:55Z</time>
      </trkpt>
      <trkpt lat="44.82791" lon="1.13167">
        <ele>144.4</ele>
        <time>2022-08-12T10:20:56Z</time>
      </trkpt>
      <trkpt lat="44.82795" lon="1.13173">
        <ele>143.4</ele>
        <time>2022-08-12T10:20:57Z</time>
      </trkpt>
      <trkpt lat="44.82798" lon="1.13178">
        <ele>143.4</ele>
        <time>2022-08-12T10:20:58Z</time>
      </trkpt>
      <trkpt lat="44.82801" lon="1.13183">
        <ele>142.4</ele>
        <time>2022-08-12T10:20:59Z</time>
      </trkpt>
      <trkpt lat="44.82804" lon="1.13188">
        <ele>142.4</ele>
        <time>2022-08-12T10:21:00Z</time>
      </trkpt>
      <trkpt lat="44.8281" lon="1.13197">
        <ele>140.4</ele>
        <time>2022-08-12T10:21:02Z</time>
      </trkpt>
      <trkpt lat="44.82815" lon="1.13205">
        <ele>139.4</ele>
        <time>2022-08-12T10:21:04Z</time>
      </trkpt>
      <trkpt lat="44.82819" lon="1.13211">
        <ele>138.4</ele>
        <time>2022-08-12T10:21:06Z</time>
      </trkpt>
      <trkpt lat="44.82825" lon="1.13217">
        <ele>137.4</ele>
        <time>2022-08-12T10:21:08Z</time>
      </trkpt>
      <trkpt lat="44.82828" lon="1.13221">
        <ele>137.4</ele>
        <time>2022-08-12T10:21:09Z</time>
      </trkpt>
      <trkpt lat="44.82833" lon="1.13225">
        <ele>136.4</ele>
        <time>2022-08-12T10:21:10Z</time>
      </trkpt>
      <trkpt lat="44.82839" lon="1.13229">
        <ele>135.4</ele>
        <time>2022-08-12T10:21:11Z</time>
      </trkpt>
      <trkpt lat="44.82845" lon="1.13232">
        <ele>133.4</ele>
        <time>2022-08-12T10:21:12Z</time>
      </trkpt>
      <trkpt lat="44.82852" lon="1.13238">
        <ele>132.4</ele>
        <time>2022-08-12T10:21:14Z</time>
      </trkpt>
      <trkpt lat="44.82859" lon="1.13243">
        <ele>131.4</ele>
        <time>2022-08-12T10:21:16Z</time>
      </trkpt>
      <trkpt lat="44.82863" lon="1.13247">
        <ele>131.4</ele>
        <time>2022-08-12T10:21:18Z</time>
      </trkpt>
      <trkpt lat="44.82867" lon="1.13251">
        <ele>130.4</ele>
        <time>2022-08-12T10:21:21Z</time>
      </trkpt>
      <trkpt lat="44.82871" lon="1.13255">
        <ele>129.4</ele>
        <time>2022-08-12T10:21:23Z</time>
      </trkpt>
      <trkpt lat="44.82877" lon="1.13258">
        <ele>129.4</ele>
        <time>2022-08-12T10:21:25Z</time>
      </trkpt>
      <trkpt lat="44.82882" lon="1.13261">
        <ele>128.4</ele>
        <time>2022-08-12T10:21:27Z</time>
      </trkpt>
      <trkpt lat="44.82891" lon="1.13265">
        <ele>127.4</ele>
        <time>2022-08-12T10:21:30Z</time>
      </trkpt>
      <trkpt lat="44.82896" lon="1.13268">
        <ele>126.4</ele>
        <time>2022-08-12T10:21:32Z</time>
      </trkpt>
      <trkpt lat="44.829" lon="1.13269">
        <ele>126.4</ele>
        <time>2022-08-12T10:21:34Z</time>
      </trkpt>
      <trkpt lat="44.82906" lon="1.13272">
        <ele>126.4</ele>
        <time>2022-08-12T10:21:36Z</time>
      </trkpt>
      <trkpt lat="44.82912" lon="1.13276">
        <ele>125.4</ele>
        <time>2022-08-12T10:21:38Z</time>
      </trkpt>
      <trkpt lat="44.82918" lon="1.1328">
        <ele>124.4</ele>
        <time>2022-08-12T10:21:40Z</time>
      </trkpt>
      <trkpt lat="44.82927" lon="1.13284">
        <ele>123.4</ele>
        <time>2022-08-12T10:21:42Z</time>
      </trkpt>
      <trkpt lat="44.82933" lon="1.13288">
        <ele>123.4</ele>
        <time>2022-08-12T10:21:44Z</time>
      </trkpt>
      <trkpt lat="44.82939" lon="1.1329">
        <ele>123.4</ele>
        <time>2022-08-12T10:21:47Z</time>
      </trkpt>
      <trkpt lat="44.82944" lon="1.13291">
        <ele>123.4</ele>
        <time>2022-08-12T10:21:50Z</time>
      </trkpt>
      <trkpt lat="44.82951" lon="1.13289">
        <ele>121.4</ele>
        <time>2022-08-12T10:21:52Z</time>
      </trkpt>
      <trkpt lat="44.82956" lon="1.13288">
        <ele>121.4</ele>
        <time>2022-08-12T10:21:53Z</time>
      </trkpt>
      <trkpt lat="44.82964" lon="1.1329">
        <ele>123.4</ele>
        <time>2022-08-12T10:21:55Z</time>
      </trkpt>
      <trkpt lat="44.82969" lon="1.13294">
        <ele>123.4</ele>
        <time>2022-08-12T10:21:58Z</time>
      </trkpt>
      <trkpt lat="44.82974" lon="1.13298">
        <ele>123.4</ele>
        <time>2022-08-12T10:22:01Z</time>
      </trkpt>
      <trkpt lat="44.82975" lon="1.13306">
        <ele>123.4</ele>
        <time>2022-08-12T10:22:05Z</time>
      </trkpt>
      <trkpt lat="44.82974" lon="1.13313">
        <ele>123.4</ele>
        <time>2022-08-12T10:22:09Z</time>
      </trkpt>
      <trkpt lat="44.82972" lon="1.13319">
        <ele>124.4</ele>
        <time>2022-08-12T10:22:13Z</time>
      </trkpt>
      <trkpt lat="44.82972" lon="1.13327">
        <ele>124.4</ele>
        <time>2022-08-12T10:22:17Z</time>
      </trkpt>
      <trkpt lat="44.82973" lon="1.13334">
        <ele>125.4</ele>
        <time>2022-08-12T10:22:21Z</time>
      </trkpt>
      <trkpt lat="44.82974" lon="1.13343">
        <ele>124.4</ele>
        <time>2022-08-12T10:22:25Z</time>
      </trkpt>
      <trkpt lat="44.82972" lon="1.13352">
        <ele>123.4</ele>
        <time>2022-08-12T10:22:27Z</time>
      </trkpt>
      <trkpt lat="44.8297" lon="1.13361">
        <ele>122.4</ele>
        <time>2022-08-12T10:22:29Z</time>
      </trkpt>
      <trkpt lat="44.82969" lon="1.13369">
        <ele>122.4</ele>
        <time>2022-08-12T10:22:31Z</time>
      </trkpt>
      <trkpt lat="44.82968" lon="1.13375">
        <ele>122.4</ele>
        <time>2022-08-12T10:22:33Z</time>
      </trkpt>
      <trkpt lat="44.82967" lon="1.13383">
        <ele>123.4</ele>
        <time>2022-08-12T10:22:37Z</time>
      </trkpt>
      <trkpt lat="44.82965" lon="1.13389">
        <ele>124.4</ele>
        <time>2022-08-12T10:22:41Z</time>
      </trkpt>
      <trkpt lat="44.82963" lon="1.13395">
        <ele>125.4</ele>
        <time>2022-08-12T10:22:45Z</time>
      </trkpt>
      <trkpt lat="44.82964" lon="1.13401">
        <ele>126.4</ele>
        <time>2022-08-12T10:22:56Z</time>
      </trkpt>
      <trkpt lat="44.82968" lon="1.13408">
        <ele>126.4</ele>
        <time>2022-08-12T10:22:58Z</time>
      </trkpt>
      <trkpt lat="44.82972" lon="1.13414">
        <ele>126.4</ele>
        <time>2022-08-12T10:23:00Z</time>
      </trkpt>
      <trkpt lat="44.82974" lon="1.13423">
        <ele>126.4</ele>
        <time>2022-08-12T10:23:02Z</time>
      </trkpt>
      <trkpt lat="44.82984" lon="1.13442">
        <ele>124.4</ele>
        <time>2022-08-12T10:23:05Z</time>
      </trkpt>
      <trkpt lat="44.82986" lon="1.13448">
        <ele>124.4</ele>
        <time>2022-08-12T10:23:06Z</time>
      </trkpt>
      <trkpt lat="44.82988" lon="1.13457">
        <ele>124.4</ele>
        <time>2022-08-12T10:23:08Z</time>
      </trkpt>
      <trkpt lat="44.8299" lon="1.13465">
        <ele>123.4</ele>
        <time>2022-08-12T10:23:10Z</time>
      </trkpt>
      <trkpt lat="44.82992" lon="1.13473">
        <ele>123.4</ele>
        <time>2022-08-12T10:23:12Z</time>
      </trkpt>
      <trkpt lat="44.82993" lon="1.13481">
        <ele>122.4</ele>
        <time>2022-08-12T10:23:14Z</time>
      </trkpt>
      <trkpt lat="44.82994" lon="1.13489">
        <ele>122.4</ele>
        <time>2022-08-12T10:23:16Z</time>
      </trkpt>
      <trkpt lat="44.82997" lon="1.13499">
        <ele>121.4</ele>
        <time>2022-08-12T10:23:18Z</time>
      </trkpt>
      <trkpt lat="44.82998" lon="1.13506">
        <ele>121.4</ele>
        <time>2022-08-12T10:23:19Z</time>
      </trkpt>
      <trkpt lat="44.83" lon="1.13513">
        <ele>121.4</ele>
        <time>2022-08-12T10:23:20Z</time>
      </trkpt>
      <trkpt lat="44.83002" lon="1.13521">
        <ele>120.4</ele>
        <time>2022-08-12T10:23:21Z</time>
      </trkpt>
      <trkpt lat="44.83004" lon="1.13529">
        <ele>119.4</ele>
        <time>2022-08-12T10:23:22Z</time>
      </trkpt>
      <trkpt lat="44.83006" lon="1.13535">
        <ele>119.4</ele>
        <time>2022-08-12T10:23:23Z</time>
      </trkpt>
      <trkpt lat="44.8301" lon="1.13544">
        <ele>118.4</ele>
        <time>2022-08-12T10:23:25Z</time>
      </trkpt>
      <trkpt lat="44.83015" lon="1.13553">
        <ele>118.4</ele>
        <time>2022-08-12T10:23:27Z</time>
      </trkpt>
      <trkpt lat="44.83017" lon="1.13563">
        <ele>116.4</ele>
        <time>2022-08-12T10:23:29Z</time>
      </trkpt>
      <trkpt lat="44.83019" lon="1.13574">
        <ele>115.4</ele>
        <time>2022-08-12T10:23:31Z</time>
      </trkpt>
      <trkpt lat="44.83021" lon="1.13584">
        <ele>113.4</ele>
        <time>2022-08-12T10:23:33Z</time>
      </trkpt>
      <trkpt lat="44.83022" lon="1.13594">
        <ele>113.4</ele>
        <time>2022-08-12T10:23:35Z</time>
      </trkpt>
      <trkpt lat="44.83023" lon="1.13603">
        <ele>112.4</ele>
        <time>2022-08-12T10:23:37Z</time>
      </trkpt>
      <trkpt lat="44.83024" lon="1.13613">
        <ele>111.4</ele>
        <time>2022-08-12T10:23:39Z</time>
      </trkpt>
      <trkpt lat="44.83026" lon="1.13625">
        <ele>109.4</ele>
        <time>2022-08-12T10:23:41Z</time>
      </trkpt>
      <trkpt lat="44.83028" lon="1.13633">
        <ele>108.4</ele>
        <time>2022-08-12T10:23:42Z</time>
      </trkpt>
      <trkpt lat="44.83029" lon="1.13641">
        <ele>108.4</ele>
        <time>2022-08-12T10:23:43Z</time>
      </trkpt>
      <trkpt lat="44.83032" lon="1.1365">
        <ele>107.4</ele>
        <time>2022-08-12T10:23:44Z</time>
      </trkpt>
      <trkpt lat="44.83033" lon="1.13658">
        <ele>106.4</ele>
        <time>2022-08-12T10:23:45Z</time>
      </trkpt>
      <trkpt lat="44.83034" lon="1.13665">
        <ele>106.4</ele>
        <time>2022-08-12T10:23:46Z</time>
      </trkpt>
      <trkpt lat="44.83035" lon="1.13674">
        <ele>104.4</ele>
        <time>2022-08-12T10:23:47Z</time>
      </trkpt>
      <trkpt lat="44.83036" lon="1.13683">
        <ele>103.4</ele>
        <time>2022-08-12T10:23:48Z</time>
      </trkpt>
      <trkpt lat="44.83037" lon="1.13692">
        <ele>102.4</ele>
        <time>2022-08-12T10:23:49Z</time>
      </trkpt>
      <trkpt lat="44.83038" lon="1.13702">
        <ele>100.4</ele>
        <time>2022-08-12T10:23:50Z</time>
      </trkpt>
      <trkpt lat="44.83038" lon="1.13712">
        <ele>99.4</ele>
        <time>2022-08-12T10:23:51Z</time>
      </trkpt>
      <trkpt lat="44.83039" lon="1.13722">
        <ele>98.4</ele>
        <time>2022-08-12T10:23:52Z</time>
      </trkpt>
      <trkpt lat="44.83039" lon="1.13733">
        <ele>97.4</ele>
        <time>2022-08-12T10:23:53Z</time>
      </trkpt>
      <trkpt lat="44.83039" lon="1.13743">
        <ele>97.4</ele>
        <time>2022-08-12T10:23:54Z</time>
      </trkpt>
      <trkpt lat="44.83039" lon="1.13753">
        <ele>96.4</ele>
        <time>2022-08-12T10:23:55Z</time>
      </trkpt>
      <trkpt lat="44.83038" lon="1.13764">
        <ele>95.4</ele>
        <time>2022-08-12T10:23:56Z</time>
      </trkpt>
      <trkpt lat="44.83039" lon="1.13775">
        <ele>94.4</ele>
        <time>2022-08-12T10:23:57Z</time>
      </trkpt>
      <trkpt lat="44.8304" lon="1.13786">
        <ele>93.4</ele>
        <time>2022-08-12T10:23:58Z</time>
      </trkpt>
      <trkpt lat="44.8304" lon="1.13794">
        <ele>91.4</ele>
        <time>2022-08-12T10:23:59Z</time>
      </trkpt>
      <trkpt lat="44.83041" lon="1.13805">
        <ele>90.4</ele>
        <time>2022-08-12T10:24:01Z</time>
      </trkpt>
      <trkpt lat="44.83042" lon="1.13817">
        <ele>89.4</ele>
        <time>2022-08-12T10:24:03Z</time>
      </trkpt>
      <trkpt lat="44.83042" lon="1.13829">
        <ele>88.4</ele>
        <time>2022-08-12T10:24:05Z</time>
      </trkpt>
      <trkpt lat="44.83042" lon="1.13836">
        <ele>88.4</ele>
        <time>2022-08-12T10:24:06Z</time>
      </trkpt>
      <trkpt lat="44.83043" lon="1.13843">
        <ele>88.4</ele>
        <time>2022-08-12T10:24:07Z</time>
      </trkpt>
      <trkpt lat="44.83043" lon="1.1385">
        <ele>88.4</ele>
        <time>2022-08-12T10:24:08Z</time>
      </trkpt>
      <trkpt lat="44.83043" lon="1.13856">
        <ele>87.4</ele>
        <time>2022-08-12T10:24:09Z</time>
      </trkpt>
      <trkpt lat="44.83043" lon="1.13863">
        <ele>86.4</ele>
        <time>2022-08-12T10:24:10Z</time>
      </trkpt>
      <trkpt lat="44.83043" lon="1.13871">
        <ele>86.4</ele>
        <time>2022-08-12T10:24:11Z</time>
      </trkpt>
      <trkpt lat="44.83043" lon="1.13878">
        <ele>86.4</ele>
        <time>2022-08-12T10:24:12Z</time>
      </trkpt>
      <trkpt lat="44.83043" lon="1.13885">
        <ele>86.4</ele>
        <time>2022-08-12T10:24:13Z</time>
      </trkpt>
      <trkpt lat="44.83043" lon="1.13892">
        <ele>86.4</ele>
        <time>2022-08-12T10:24:14Z</time>
      </trkpt>
      <trkpt lat="44.83044" lon="1.13899">
        <ele>86.4</ele>
        <time>2022-08-12T10:24:15Z</time>
      </trkpt>
      <trkpt lat="44.83044" lon="1.13907">
        <ele>85.4</ele>
        <time>2022-08-12T10:24:16Z</time>
      </trkpt>
      <trkpt lat="44.83044" lon="1.13915">
        <ele>85.4</ele>
        <time>2022-08-12T10:24:17Z</time>
      </trkpt>
      <trkpt lat="44.83044" lon="1.13922">
        <ele>85.4</ele>
        <time>2022-08-12T10:24:18Z</time>
      </trkpt>
      <trkpt lat="44.83045" lon="1.1393">
        <ele>85.4</ele>
        <time>2022-08-12T10:24:19Z</time>
      </trkpt>
      <trkpt lat="44.83045" lon="1.13938">
        <ele>85.4</ele>
        <time>2022-08-12T10:24:20Z</time>
      </trkpt>
      <trkpt lat="44.83045" lon="1.13946">
        <ele>85.4</ele>
        <time>2022-08-12T10:24:21Z</time>
      </trkpt>
      <trkpt lat="44.83045" lon="1.13953">
        <ele>85.4</ele>
        <time>2022-08-12T10:24:22Z</time>
      </trkpt>
      <trkpt lat="44.83045" lon="1.1396">
        <ele>85.4</ele>
        <time>2022-08-12T10:24:23Z</time>
      </trkpt>
      <trkpt lat="44.83045" lon="1.13967">
        <ele>85.4</ele>
        <time>2022-08-12T10:24:24Z</time>
      </trkpt>
      <trkpt lat="44.83046" lon="1.13974">
        <ele>85.4</ele>
        <time>2022-08-12T10:24:25Z</time>
      </trkpt>
      <trkpt lat="44.83046" lon="1.13981">
        <ele>85.4</ele>
        <time>2022-08-12T10:24:26Z</time>
      </trkpt>
      <trkpt lat="44.83046" lon="1.13988">
        <ele>84.4</ele>
        <time>2022-08-12T10:24:27Z</time>
      </trkpt>
      <trkpt lat="44.83046" lon="1.14">
        <ele>83.4</ele>
        <time>2022-08-12T10:24:29Z</time>
      </trkpt>
      <trkpt lat="44.83046" lon="1.14011">
        <ele>83.4</ele>
        <time>2022-08-12T10:24:31Z</time>
      </trkpt>
      <trkpt lat="44.83046" lon="1.1402">
        <ele>84.4</ele>
        <time>2022-08-12T10:24:33Z</time>
      </trkpt>
      <trkpt lat="44.83047" lon="1.1403">
        <ele>84.4</ele>
        <time>2022-08-12T10:24:35Z</time>
      </trkpt>
      <trkpt lat="44.83048" lon="1.14041">
        <ele>83.4</ele>
        <time>2022-08-12T10:24:37Z</time>
      </trkpt>
      <trkpt lat="44.83049" lon="1.14053">
        <ele>83.4</ele>
        <time>2022-08-12T10:24:39Z</time>
      </trkpt>
      <trkpt lat="44.8305" lon="1.14063">
        <ele>83.4</ele>
        <time>2022-08-12T10:24:41Z</time>
      </trkpt>
      <trkpt lat="44.83049" lon="1.14071">
        <ele>83.4</ele>
        <time>2022-08-12T10:24:43Z</time>
      </trkpt>
      <trkpt lat="44.83046" lon="1.14077">
        <ele>83.4</ele>
        <time>2022-08-12T10:24:45Z</time>
      </trkpt>
      <trkpt lat="44.83044" lon="1.14085">
        <ele>83.4</ele>
        <time>2022-08-12T10:24:48Z</time>
      </trkpt>
      <trkpt lat="44.83042" lon="1.14094">
        <ele>83.4</ele>
        <time>2022-08-12T10:24:51Z</time>
      </trkpt>
      <trkpt lat="44.8304" lon="1.14102">
        <ele>83.4</ele>
        <time>2022-08-12T10:24:55Z</time>
      </trkpt>
      <trkpt lat="44.83038" lon="1.14108">
        <ele>84.4</ele>
        <time>2022-08-12T10:24:57Z</time>
      </trkpt>
      <trkpt lat="44.83036" lon="1.14115">
        <ele>84.4</ele>
        <time>2022-08-12T10:25:00Z</time>
      </trkpt>
      <trkpt lat="44.83034" lon="1.14121">
        <ele>85.4</ele>
        <time>2022-08-12T10:25:03Z</time>
      </trkpt>
      <trkpt lat="44.83034" lon="1.14129">
        <ele>86.4</ele>
        <time>2022-08-12T10:25:06Z</time>
      </trkpt>
      <trkpt lat="44.83033" lon="1.14138">
        <ele>85.4</ele>
        <time>2022-08-12T10:25:09Z</time>
      </trkpt>
      <trkpt lat="44.83034" lon="1.14145">
        <ele>84.4</ele>
        <time>2022-08-12T10:25:11Z</time>
      </trkpt>
      <trkpt lat="44.83036" lon="1.14155">
        <ele>84.4</ele>
        <time>2022-08-12T10:25:13Z</time>
      </trkpt>
      <trkpt lat="44.83037" lon="1.14168">
        <ele>83.4</ele>
        <time>2022-08-12T10:25:15Z</time>
      </trkpt>
      <trkpt lat="44.83036" lon="1.14177">
        <ele>83.4</ele>
        <time>2022-08-12T10:25:16Z</time>
      </trkpt>
      <trkpt lat="44.83035" lon="1.14186">
        <ele>84.4</ele>
        <time>2022-08-12T10:25:17Z</time>
      </trkpt>
      <trkpt lat="44.83034" lon="1.14195">
        <ele>86.4</ele>
        <time>2022-08-12T10:25:18Z</time>
      </trkpt>
      <trkpt lat="44.83032" lon="1.14205">
        <ele>87.4</ele>
        <time>2022-08-12T10:25:19Z</time>
      </trkpt>
      <trkpt lat="44.8303" lon="1.14212">
        <ele>87.4</ele>
        <time>2022-08-12T10:25:20Z</time>
      </trkpt>
      <trkpt lat="44.83026" lon="1.14219">
        <ele>87.4</ele>
        <time>2022-08-12T10:25:21Z</time>
      </trkpt>
      <trkpt lat="44.83023" lon="1.14224">
        <ele>86.4</ele>
        <time>2022-08-12T10:25:22Z</time>
      </trkpt>
      <trkpt lat="44.83018" lon="1.14228">
        <ele>85.4</ele>
        <time>2022-08-12T10:25:24Z</time>
      </trkpt>
      <trkpt lat="44.83014" lon="1.14231">
        <ele>84.4</ele>
        <time>2022-08-12T10:25:27Z</time>
      </trkpt>
      <trkpt lat="44.83011" lon="1.14235">
        <ele>84.4</ele>
        <time>2022-08-12T10:25:30Z</time>
      </trkpt>
      <trkpt lat="44.83006" lon="1.14242">
        <ele>83.4</ele>
        <time>2022-08-12T10:25:35Z</time>
      </trkpt>
      <trkpt lat="44.83001" lon="1.14248">
        <ele>84.4</ele>
        <time>2022-08-12T10:25:40Z</time>
      </trkpt>
      <trkpt lat="44.82996" lon="1.14251">
        <ele>85.4</ele>
        <time>2022-08-12T10:25:44Z</time>
      </trkpt>
      <trkpt lat="44.82992" lon="1.14253">
        <ele>84.4</ele>
        <time>2022-08-12T10:25:48Z</time>
      </trkpt>
      <trkpt lat="44.82988" lon="1.14257">
        <ele>85.4</ele>
        <time>2022-08-12T10:25:54Z</time>
      </trkpt>
      <trkpt lat="44.82983" lon="1.14259">
        <ele>86.4</ele>
        <time>2022-08-12T10:25:58Z</time>
      </trkpt>
      <trkpt lat="44.82978" lon="1.14257">
        <ele>87.4</ele>
        <time>2022-08-12T10:26:02Z</time>
      </trkpt>
      <trkpt lat="44.82973" lon="1.14257">
        <ele>88.4</ele>
        <time>2022-08-12T10:26:10Z</time>
      </trkpt>
      <trkpt lat="44.82968" lon="1.14253">
        <ele>88.4</ele>
        <time>2022-08-12T10:26:13Z</time>
      </trkpt>
      <trkpt lat="44.82963" lon="1.14251">
        <ele>90.4</ele>
        <time>2022-08-12T10:26:17Z</time>
      </trkpt>
      <trkpt lat="44.82958" lon="1.14248">
        <ele>92.4</ele>
        <time>2022-08-12T10:26:21Z</time>
      </trkpt>
      <trkpt lat="44.82954" lon="1.14244">
        <ele>92.4</ele>
        <time>2022-08-12T10:26:24Z</time>
      </trkpt>
      <trkpt lat="44.8295" lon="1.1424">
        <ele>92.4</ele>
        <time>2022-08-12T10:26:27Z</time>
      </trkpt>
      <trkpt lat="44.82946" lon="1.14236">
        <ele>92.4</ele>
        <time>2022-08-12T10:26:32Z</time>
      </trkpt>
      <trkpt lat="44.82941" lon="1.1423">
        <ele>93.4</ele>
        <time>2022-08-12T10:26:35Z</time>
      </trkpt>
      <trkpt lat="44.82937" lon="1.14226">
        <ele>93.4</ele>
        <time>2022-08-12T10:26:38Z</time>
      </trkpt>
      <trkpt lat="44.82933" lon="1.14221">
        <ele>95.4</ele>
        <time>2022-08-12T10:26:41Z</time>
      </trkpt>
      <trkpt lat="44.82928" lon="1.14217">
        <ele>95.4</ele>
        <time>2022-08-12T10:26:44Z</time>
      </trkpt>
      <trkpt lat="44.82924" lon="1.14211">
        <ele>96.4</ele>
        <time>2022-08-12T10:26:47Z</time>
      </trkpt>
      <trkpt lat="44.82919" lon="1.14205">
        <ele>97.4</ele>
        <time>2022-08-12T10:26:50Z</time>
      </trkpt>
      <trkpt lat="44.82914" lon="1.142">
        <ele>98.4</ele>
        <time>2022-08-12T10:26:53Z</time>
      </trkpt>
      <trkpt lat="44.82911" lon="1.14193">
        <ele>99.4</ele>
        <time>2022-08-12T10:26:56Z</time>
      </trkpt>
      <trkpt lat="44.82907" lon="1.14186">
        <ele>100.4</ele>
        <time>2022-08-12T10:26:59Z</time>
      </trkpt>
      <trkpt lat="44.82904" lon="1.1418">
        <ele>101.4</ele>
        <time>2022-08-12T10:27:02Z</time>
      </trkpt>
      <trkpt lat="44.82902" lon="1.14174">
        <ele>101.4</ele>
        <time>2022-08-12T10:27:09Z</time>
      </trkpt>
      <trkpt lat="44.82901" lon="1.1418">
        <ele>100.4</ele>
        <time>2022-08-12T10:27:18Z</time>
      </trkpt>
      <trkpt lat="44.82906" lon="1.14181">
        <ele>99.4</ele>
        <time>2022-08-12T10:27:28Z</time>
      </trkpt>
      <trkpt lat="44.82906" lon="1.14173">
        <ele>97.4</ele>
        <time>2022-08-12T10:27:58Z</time>
      </trkpt>
      <trkpt lat="44.82903" lon="1.14169">
        <ele>96.4</ele>
        <time>2022-08-12T10:28:03Z</time>
      </trkpt>
      <trkpt lat="44.82899" lon="1.14165">
        <ele>95.4</ele>
        <time>2022-08-12T10:28:05Z</time>
      </trkpt>
      <trkpt lat="44.82894" lon="1.14159">
        <ele>97.4</ele>
        <time>2022-08-12T10:28:08Z</time>
      </trkpt>
      <trkpt lat="44.82891" lon="1.14154">
        <ele>98.4</ele>
        <time>2022-08-12T10:28:10Z</time>
      </trkpt>
      <trkpt lat="44.82887" lon="1.1415">
        <ele>99.4</ele>
        <time>2022-08-12T10:28:12Z</time>
      </trkpt>
      <trkpt lat="44.82882" lon="1.14145">
        <ele>99.4</ele>
        <time>2022-08-12T10:28:14Z</time>
      </trkpt>
      <trkpt lat="44.82877" lon="1.14138">
        <ele>100.4</ele>
        <time>2022-08-12T10:28:16Z</time>
      </trkpt>
      <trkpt lat="44.82872" lon="1.14131">
        <ele>101.4</ele>
        <time>2022-08-12T10:28:18Z</time>
      </trkpt>
      <trkpt lat="44.82867" lon="1.14124">
        <ele>102.4</ele>
        <time>2022-08-12T10:28:20Z</time>
      </trkpt>
      <trkpt lat="44.82862" lon="1.14119">
        <ele>103.4</ele>
        <time>2022-08-12T10:28:22Z</time>
      </trkpt>
      <trkpt lat="44.82857" lon="1.14113">
        <ele>104.4</ele>
        <time>2022-08-12T10:28:24Z</time>
      </trkpt>
      <trkpt lat="44.82851" lon="1.14106">
        <ele>105.4</ele>
        <time>2022-08-12T10:28:26Z</time>
      </trkpt>
      <trkpt lat="44.82845" lon="1.14101">
        <ele>105.4</ele>
        <time>2022-08-12T10:28:28Z</time>
      </trkpt>
      <trkpt lat="44.8284" lon="1.14096">
        <ele>106.4</ele>
        <time>2022-08-12T10:28:30Z</time>
      </trkpt>
      <trkpt lat="44.82834" lon="1.14091">
        <ele>107.4</ele>
        <time>2022-08-12T10:28:32Z</time>
      </trkpt>
      <trkpt lat="44.82828" lon="1.14086">
        <ele>108.4</ele>
        <time>2022-08-12T10:28:34Z</time>
      </trkpt>
      <trkpt lat="44.82823" lon="1.14081">
        <ele>107.4</ele>
        <time>2022-08-12T10:28:36Z</time>
      </trkpt>
      <trkpt lat="44.82818" lon="1.14075">
        <ele>107.4</ele>
        <time>2022-08-12T10:28:38Z</time>
      </trkpt>
      <trkpt lat="44.82813" lon="1.14071">
        <ele>107.4</ele>
        <time>2022-08-12T10:28:40Z</time>
      </trkpt>
      <trkpt lat="44.82807" lon="1.14066">
        <ele>108.4</ele>
        <time>2022-08-12T10:28:42Z</time>
      </trkpt>
      <trkpt lat="44.82801" lon="1.14061">
        <ele>108.4</ele>
        <time>2022-08-12T10:28:44Z</time>
      </trkpt>
      <trkpt lat="44.82796" lon="1.14056">
        <ele>107.4</ele>
        <time>2022-08-12T10:28:46Z</time>
      </trkpt>
      <trkpt lat="44.82789" lon="1.14051">
        <ele>107.4</ele>
        <time>2022-08-12T10:28:48Z</time>
      </trkpt>
      <trkpt lat="44.82783" lon="1.14046">
        <ele>107.4</ele>
        <time>2022-08-12T10:28:50Z</time>
      </trkpt>
      <trkpt lat="44.82777" lon="1.14042">
        <ele>106.4</ele>
        <time>2022-08-12T10:28:52Z</time>
      </trkpt>
      <trkpt lat="44.82772" lon="1.14038">
        <ele>107.4</ele>
        <time>2022-08-12T10:28:54Z</time>
      </trkpt>
      <trkpt lat="44.82767" lon="1.14034">
        <ele>107.4</ele>
        <time>2022-08-12T10:28:56Z</time>
      </trkpt>
      <trkpt lat="44.82763" lon="1.1403">
        <ele>106.4</ele>
        <time>2022-08-12T10:28:58Z</time>
      </trkpt>
      <trkpt lat="44.8276" lon="1.14026">
        <ele>106.4</ele>
        <time>2022-08-12T10:29:00Z</time>
      </trkpt>
      <trkpt lat="44.82757" lon="1.1402">
        <ele>106.4</ele>
        <time>2022-08-12T10:29:02Z</time>
      </trkpt>
      <trkpt lat="44.82753" lon="1.14015">
        <ele>106.4</ele>
        <time>2022-08-12T10:29:04Z</time>
      </trkpt>
      <trkpt lat="44.82749" lon="1.1401">
        <ele>106.4</ele>
        <time>2022-08-12T10:29:06Z</time>
      </trkpt>
      <trkpt lat="44.82745" lon="1.14005">
        <ele>106.4</ele>
        <time>2022-08-12T10:29:08Z</time>
      </trkpt>
      <trkpt lat="44.82741" lon="1.14001">
        <ele>107.4</ele>
        <time>2022-08-12T10:29:10Z</time>
      </trkpt>
      <trkpt lat="44.82736" lon="1.13994">
        <ele>107.4</ele>
        <time>2022-08-12T10:29:13Z</time>
      </trkpt>
      <trkpt lat="44.82733" lon="1.13989">
        <ele>107.4</ele>
        <time>2022-08-12T10:29:15Z</time>
      </trkpt>
      <trkpt lat="44.8273" lon="1.13983">
        <ele>108.4</ele>
        <time>2022-08-12T10:29:17Z</time>
      </trkpt>
      <trkpt lat="44.82726" lon="1.13978">
        <ele>110.4</ele>
        <time>2022-08-12T10:29:20Z</time>
      </trkpt>
      <trkpt lat="44.82721" lon="1.13975">
        <ele>111.4</ele>
        <time>2022-08-12T10:29:23Z</time>
      </trkpt>
      <trkpt lat="44.82717" lon="1.13972">
        <ele>112.4</ele>
        <time>2022-08-12T10:29:25Z</time>
      </trkpt>
      <trkpt lat="44.82712" lon="1.13971">
        <ele>112.4</ele>
        <time>2022-08-12T10:29:27Z</time>
      </trkpt>
      <trkpt lat="44.82706" lon="1.13971">
        <ele>113.4</ele>
        <time>2022-08-12T10:29:29Z</time>
      </trkpt>
      <trkpt lat="44.82701" lon="1.13972">
        <ele>113.4</ele>
        <time>2022-08-12T10:29:31Z</time>
      </trkpt>
      <trkpt lat="44.82695" lon="1.13974">
        <ele>112.4</ele>
        <time>2022-08-12T10:29:34Z</time>
      </trkpt>
      <trkpt lat="44.82689" lon="1.13975">
        <ele>112.4</ele>
        <time>2022-08-12T10:29:39Z</time>
      </trkpt>
      <trkpt lat="44.82684" lon="1.13975">
        <ele>112.4</ele>
        <time>2022-08-12T10:29:42Z</time>
      </trkpt>
      <trkpt lat="44.82677" lon="1.13974">
        <ele>112.4</ele>
        <time>2022-08-12T10:29:46Z</time>
      </trkpt>
      <trkpt lat="44.82673" lon="1.13974">
        <ele>111.4</ele>
        <time>2022-08-12T10:29:49Z</time>
      </trkpt>
      <trkpt lat="44.82667" lon="1.13974">
        <ele>113.4</ele>
        <time>2022-08-12T10:29:53Z</time>
      </trkpt>
      <trkpt lat="44.82663" lon="1.13976">
        <ele>111.4</ele>
        <time>2022-08-12T10:29:55Z</time>
      </trkpt>
      <trkpt lat="44.82657" lon="1.13978">
        <ele>111.4</ele>
        <time>2022-08-12T10:29:58Z</time>
      </trkpt>
      <trkpt lat="44.82651" lon="1.13978">
        <ele>112.4</ele>
        <time>2022-08-12T10:30:02Z</time>
      </trkpt>
      <trkpt lat="44.82646" lon="1.13976">
        <ele>112.4</ele>
        <time>2022-08-12T10:30:06Z</time>
      </trkpt>
      <trkpt lat="44.82641" lon="1.13977">
        <ele>113.4</ele>
        <time>2022-08-12T10:30:10Z</time>
      </trkpt>
      <trkpt lat="44.82635" lon="1.13976">
        <ele>114.4</ele>
        <time>2022-08-12T10:30:15Z</time>
      </trkpt>
      <trkpt lat="44.8263" lon="1.13977">
        <ele>114.4</ele>
        <time>2022-08-12T10:30:24Z</time>
      </trkpt>
      <trkpt lat="44.82624" lon="1.13977">
        <ele>115.4</ele>
        <time>2022-08-12T10:30:27Z</time>
      </trkpt>
      <trkpt lat="44.8262" lon="1.13977">
        <ele>115.4</ele>
        <time>2022-08-12T10:30:31Z</time>
      </trkpt>
      <trkpt lat="44.82614" lon="1.13977">
        <ele>115.4</ele>
        <time>2022-08-12T10:30:34Z</time>
      </trkpt>
      <trkpt lat="44.82609" lon="1.13977">
        <ele>115.4</ele>
        <time>2022-08-12T10:30:36Z</time>
      </trkpt>
      <trkpt lat="44.82603" lon="1.13977">
        <ele>116.4</ele>
        <time>2022-08-12T10:30:39Z</time>
      </trkpt>
      <trkpt lat="44.82596" lon="1.13975">
        <ele>117.4</ele>
        <time>2022-08-12T10:30:42Z</time>
      </trkpt>
      <trkpt lat="44.82591" lon="1.13975">
        <ele>118.4</ele>
        <time>2022-08-12T10:30:45Z</time>
      </trkpt>
      <trkpt lat="44.82586" lon="1.13975">
        <ele>118.4</ele>
        <time>2022-08-12T10:30:48Z</time>
      </trkpt>
      <trkpt lat="44.82581" lon="1.13975">
        <ele>119.4</ele>
        <time>2022-08-12T10:30:55Z</time>
      </trkpt>
      <trkpt lat="44.82574" lon="1.13975">
        <ele>121.4</ele>
        <time>2022-08-12T10:30:58Z</time>
      </trkpt>
      <trkpt lat="44.82568" lon="1.13975">
        <ele>121.4</ele>
        <time>2022-08-12T10:31:01Z</time>
      </trkpt>
      <trkpt lat="44.82562" lon="1.13973">
        <ele>122.4</ele>
        <time>2022-08-12T10:31:04Z</time>
      </trkpt>
      <trkpt lat="44.82557" lon="1.13972">
        <ele>122.4</ele>
        <time>2022-08-12T10:31:07Z</time>
      </trkpt>
      <trkpt lat="44.82551" lon="1.1397">
        <ele>123.4</ele>
        <time>2022-08-12T10:31:11Z</time>
      </trkpt>
      <trkpt lat="44.82545" lon="1.13967">
        <ele>124.4</ele>
        <time>2022-08-12T10:31:14Z</time>
      </trkpt>
      <trkpt lat="44.8254" lon="1.13964">
        <ele>125.4</ele>
        <time>2022-08-12T10:31:17Z</time>
      </trkpt>
      <trkpt lat="44.82536" lon="1.13963">
        <ele>125.4</ele>
        <time>2022-08-12T10:31:20Z</time>
      </trkpt>
      <trkpt lat="44.82531" lon="1.13961">
        <ele>125.4</ele>
        <time>2022-08-12T10:31:23Z</time>
      </trkpt>
      <trkpt lat="44.82526" lon="1.1396">
        <ele>127.4</ele>
        <time>2022-08-12T10:31:27Z</time>
      </trkpt>
      <trkpt lat="44.82521" lon="1.13957">
        <ele>128.4</ele>
        <time>2022-08-12T10:31:30Z</time>
      </trkpt>
      <trkpt lat="44.82515" lon="1.13955">
        <ele>128.4</ele>
        <time>2022-08-12T10:31:33Z</time>
      </trkpt>
      <trkpt lat="44.82508" lon="1.13954">
        <ele>129.4</ele>
        <time>2022-08-12T10:31:38Z</time>
      </trkpt>
      <trkpt lat="44.82503" lon="1.13952">
        <ele>131.4</ele>
        <time>2022-08-12T10:31:41Z</time>
      </trkpt>
      <trkpt lat="44.82497" lon="1.1395">
        <ele>131.4</ele>
        <time>2022-08-12T10:31:45Z</time>
      </trkpt>
      <trkpt lat="44.82491" lon="1.13949">
        <ele>131.4</ele>
        <time>2022-08-12T10:31:48Z</time>
      </trkpt>
      <trkpt lat="44.82486" lon="1.13948">
        <ele>132.4</ele>
        <time>2022-08-12T10:31:51Z</time>
      </trkpt>
      <trkpt lat="44.82481" lon="1.13948">
        <ele>132.4</ele>
        <time>2022-08-12T10:31:54Z</time>
      </trkpt>
      <trkpt lat="44.82476" lon="1.13948">
        <ele>133.4</ele>
        <time>2022-08-12T10:31:57Z</time>
      </trkpt>
      <trkpt lat="44.82471" lon="1.13946">
        <ele>134.4</ele>
        <time>2022-08-12T10:32:01Z</time>
      </trkpt>
      <trkpt lat="44.82463" lon="1.13945">
        <ele>133.4</ele>
        <time>2022-08-12T10:32:06Z</time>
      </trkpt>
      <trkpt lat="44.82457" lon="1.13942">
        <ele>133.4</ele>
        <time>2022-08-12T10:32:09Z</time>
      </trkpt>
      <trkpt lat="44.8245" lon="1.13938">
        <ele>134.4</ele>
        <time>2022-08-12T10:32:14Z</time>
      </trkpt>
      <trkpt lat="44.82445" lon="1.13935">
        <ele>134.4</ele>
        <time>2022-08-12T10:32:17Z</time>
      </trkpt>
      <trkpt lat="44.8244" lon="1.13932">
        <ele>135.4</ele>
        <time>2022-08-12T10:32:21Z</time>
      </trkpt>
      <trkpt lat="44.82436" lon="1.13928">
        <ele>134.4</ele>
        <time>2022-08-12T10:32:24Z</time>
      </trkpt>
      <trkpt lat="44.8243" lon="1.13925">
        <ele>134.4</ele>
        <time>2022-08-12T10:32:29Z</time>
      </trkpt>
      <trkpt lat="44.82426" lon="1.13922">
        <ele>135.4</ele>
        <time>2022-08-12T10:32:32Z</time>
      </trkpt>
      <trkpt lat="44.82421" lon="1.13919">
        <ele>135.4</ele>
        <time>2022-08-12T10:32:35Z</time>
      </trkpt>
      <trkpt lat="44.82416" lon="1.13916">
        <ele>135.4</ele>
        <time>2022-08-12T10:32:38Z</time>
      </trkpt>
      <trkpt lat="44.82411" lon="1.13913">
        <ele>136.4</ele>
        <time>2022-08-12T10:32:42Z</time>
      </trkpt>
      <trkpt lat="44.82406" lon="1.13911">
        <ele>137.4</ele>
        <time>2022-08-12T10:32:45Z</time>
      </trkpt>
      <trkpt lat="44.82401" lon="1.13907">
        <ele>138.4</ele>
        <time>2022-08-12T10:32:50Z</time>
      </trkpt>
      <trkpt lat="44.82396" lon="1.13904">
        <ele>138.4</ele>
        <time>2022-08-12T10:32:53Z</time>
      </trkpt>
      <trkpt lat="44.82391" lon="1.13901">
        <ele>138.4</ele>
        <time>2022-08-12T10:32:56Z</time>
      </trkpt>
      <trkpt lat="44.82386" lon="1.13899">
        <ele>139.4</ele>
        <time>2022-08-12T10:32:59Z</time>
      </trkpt>
      <trkpt lat="44.8238" lon="1.13897">
        <ele>139.4</ele>
        <time>2022-08-12T10:33:02Z</time>
      </trkpt>
      <trkpt lat="44.82376" lon="1.13896">
        <ele>140.4</ele>
        <time>2022-08-12T10:33:04Z</time>
      </trkpt>
      <trkpt lat="44.8237" lon="1.13895">
        <ele>139.4</ele>
        <time>2022-08-12T10:33:06Z</time>
      </trkpt>
      <trkpt lat="44.82365" lon="1.13892">
        <ele>138.4</ele>
        <time>2022-08-12T10:33:08Z</time>
      </trkpt>
      <trkpt lat="44.8236" lon="1.1389">
        <ele>139.4</ele>
        <time>2022-08-12T10:33:10Z</time>
      </trkpt>
      <trkpt lat="44.82354" lon="1.13888">
        <ele>139.4</ele>
        <time>2022-08-12T10:33:12Z</time>
      </trkpt>
      <trkpt lat="44.82349" lon="1.13885">
        <ele>139.4</ele>
        <time>2022-08-12T10:33:14Z</time>
      </trkpt>
      <trkpt lat="44.82344" lon="1.13882">
        <ele>139.4</ele>
        <time>2022-08-12T10:33:16Z</time>
      </trkpt>
      <trkpt lat="44.82339" lon="1.13879">
        <ele>140.4</ele>
        <time>2022-08-12T10:33:18Z</time>
      </trkpt>
      <trkpt lat="44.82333" lon="1.13878">
        <ele>140.4</ele>
        <time>2022-08-12T10:33:20Z</time>
      </trkpt>
      <trkpt lat="44.82329" lon="1.13876">
        <ele>140.4</ele>
        <time>2022-08-12T10:33:22Z</time>
      </trkpt>
      <trkpt lat="44.82323" lon="1.13874">
        <ele>140.4</ele>
        <time>2022-08-12T10:33:24Z</time>
      </trkpt>
      <trkpt lat="44.82319" lon="1.13872">
        <ele>141.4</ele>
        <time>2022-08-12T10:33:26Z</time>
      </trkpt>
      <trkpt lat="44.82313" lon="1.13869">
        <ele>141.4</ele>
        <time>2022-08-12T10:33:28Z</time>
      </trkpt>
      <trkpt lat="44.82308" lon="1.13867">
        <ele>141.4</ele>
        <time>2022-08-12T10:33:30Z</time>
      </trkpt>
      <trkpt lat="44.82303" lon="1.13866">
        <ele>141.4</ele>
        <time>2022-08-12T10:33:32Z</time>
      </trkpt>
      <trkpt lat="44.82298" lon="1.13865">
        <ele>141.4</ele>
        <time>2022-08-12T10:33:34Z</time>
      </trkpt>
      <trkpt lat="44.82293" lon="1.13864">
        <ele>141.4</ele>
        <time>2022-08-12T10:33:36Z</time>
      </trkpt>
      <trkpt lat="44.82288" lon="1.13862">
        <ele>141.4</ele>
        <time>2022-08-12T10:33:38Z</time>
      </trkpt>
      <trkpt lat="44.82283" lon="1.13861">
        <ele>141.4</ele>
        <time>2022-08-12T10:33:40Z</time>
      </trkpt>
      <trkpt lat="44.82278" lon="1.13862">
        <ele>141.4</ele>
        <time>2022-08-12T10:33:42Z</time>
      </trkpt>
      <trkpt lat="44.82271" lon="1.13863">
        <ele>141.4</ele>
        <time>2022-08-12T10:33:44Z</time>
      </trkpt>
      <trkpt lat="44.82264" lon="1.13863">
        <ele>141.4</ele>
        <time>2022-08-12T10:33:46Z</time>
      </trkpt>
      <trkpt lat="44.82257" lon="1.13864">
        <ele>141.4</ele>
        <time>2022-08-12T10:33:48Z</time>
      </trkpt>
      <trkpt lat="44.82249" lon="1.13865">
        <ele>140.4</ele>
        <time>2022-08-12T10:33:50Z</time>
      </trkpt>
      <trkpt lat="44.8224" lon="1.13867">
        <ele>138.4</ele>
        <time>2022-08-12T10:33:52Z</time>
      </trkpt>
      <trkpt lat="44.82234" lon="1.13868">
        <ele>138.4</ele>
        <time>2022-08-12T10:33:53Z</time>
      </trkpt>
      <trkpt lat="44.8223" lon="1.13868">
        <ele>137.4</ele>
        <time>2022-08-12T10:33:54Z</time>
      </trkpt>
      <trkpt lat="44.8222" lon="1.1387">
        <ele>135.4</ele>
        <time>2022-08-12T10:33:56Z</time>
      </trkpt>
      <trkpt lat="44.82215" lon="1.13872">
        <ele>134.4</ele>
        <time>2022-08-12T10:33:57Z</time>
      </trkpt>
      <trkpt lat="44.82209" lon="1.13873">
        <ele>134.4</ele>
        <time>2022-08-12T10:33:58Z</time>
      </trkpt>
      <trkpt lat="44.82203" lon="1.13872">
        <ele>134.4</ele>
        <time>2022-08-12T10:33:59Z</time>
      </trkpt>
      <trkpt lat="44.82197" lon="1.13871">
        <ele>133.4</ele>
        <time>2022-08-12T10:34:00Z</time>
      </trkpt>
      <trkpt lat="44.82191" lon="1.1387">
        <ele>132.4</ele>
        <time>2022-08-12T10:34:01Z</time>
      </trkpt>
      <trkpt lat="44.82186" lon="1.13869">
        <ele>131.4</ele>
        <time>2022-08-12T10:34:02Z</time>
      </trkpt>
      <trkpt lat="44.8218" lon="1.13867">
        <ele>129.4</ele>
        <time>2022-08-12T10:34:03Z</time>
      </trkpt>
      <trkpt lat="44.82174" lon="1.13865">
        <ele>128.4</ele>
        <time>2022-08-12T10:34:04Z</time>
      </trkpt>
      <trkpt lat="44.82168" lon="1.13862">
        <ele>126.4</ele>
        <time>2022-08-12T10:34:05Z</time>
      </trkpt>
      <trkpt lat="44.82162" lon="1.13861">
        <ele>125.4</ele>
        <time>2022-08-12T10:34:06Z</time>
      </trkpt>
      <trkpt lat="44.82156" lon="1.13858">
        <ele>123.4</ele>
        <time>2022-08-12T10:34:07Z</time>
      </trkpt>
      <trkpt lat="44.8215" lon="1.13856">
        <ele>123.4</ele>
        <time>2022-08-12T10:34:08Z</time>
      </trkpt>
      <trkpt lat="44.82144" lon="1.13854">
        <ele>121.4</ele>
        <time>2022-08-12T10:34:09Z</time>
      </trkpt>
      <trkpt lat="44.82138" lon="1.13853">
        <ele>120.4</ele>
        <time>2022-08-12T10:34:10Z</time>
      </trkpt>
      <trkpt lat="44.82133" lon="1.13851">
        <ele>119.4</ele>
        <time>2022-08-12T10:34:11Z</time>
      </trkpt>
      <trkpt lat="44.82127" lon="1.13849">
        <ele>119.4</ele>
        <time>2022-08-12T10:34:12Z</time>
      </trkpt>
      <trkpt lat="44.82122" lon="1.13848">
        <ele>119.4</ele>
        <time>2022-08-12T10:34:13Z</time>
      </trkpt>
      <trkpt lat="44.82116" lon="1.13845">
        <ele>118.4</ele>
        <time>2022-08-12T10:34:15Z</time>
      </trkpt>
      <trkpt lat="44.82111" lon="1.13846">
        <ele>118.4</ele>
        <time>2022-08-12T10:34:17Z</time>
      </trkpt>
      <trkpt lat="44.82106" lon="1.13848">
        <ele>118.4</ele>
        <time>2022-08-12T10:34:19Z</time>
      </trkpt>
      <trkpt lat="44.82101" lon="1.13848">
        <ele>118.4</ele>
        <time>2022-08-12T10:34:21Z</time>
      </trkpt>
      <trkpt lat="44.82095" lon="1.1385">
        <ele>118.4</ele>
        <time>2022-08-12T10:34:23Z</time>
      </trkpt>
      <trkpt lat="44.82089" lon="1.13852">
        <ele>117.4</ele>
        <time>2022-08-12T10:34:26Z</time>
      </trkpt>
      <trkpt lat="44.82084" lon="1.13852">
        <ele>118.4</ele>
        <time>2022-08-12T10:34:29Z</time>
      </trkpt>
      <trkpt lat="44.82079" lon="1.13851">
        <ele>119.4</ele>
        <time>2022-08-12T10:34:34Z</time>
      </trkpt>
      <trkpt lat="44.82074" lon="1.13849">
        <ele>119.4</ele>
        <time>2022-08-12T10:34:40Z</time>
      </trkpt>
      <trkpt lat="44.82079" lon="1.13852">
        <ele>120.4</ele>
        <time>2022-08-12T10:34:44Z</time>
      </trkpt>
      <trkpt lat="44.82084" lon="1.13857">
        <ele>121.4</ele>
        <time>2022-08-12T10:34:46Z</time>
      </trkpt>
      <trkpt lat="44.82088" lon="1.1386">
        <ele>122.4</ele>
        <time>2022-08-12T10:36:07Z</time>
      </trkpt>
      <trkpt lat="44.82092" lon="1.13865">
        <ele>123.4</ele>
        <time>2022-08-12T10:36:10Z</time>
      </trkpt>
      <trkpt lat="44.82096" lon="1.13872">
        <ele>124.4</ele>
        <time>2022-08-12T10:36:13Z</time>
      </trkpt>
      <trkpt lat="44.82099" lon="1.13878">
        <ele>125.4</ele>
        <time>2022-08-12T10:36:15Z</time>
      </trkpt>
      <trkpt lat="44.82101" lon="1.13884">
        <ele>125.4</ele>
        <time>2022-08-12T10:36:17Z</time>
      </trkpt>
      <trkpt lat="44.82103" lon="1.13891">
        <ele>125.4</ele>
        <time>2022-08-12T10:36:19Z</time>
      </trkpt>
      <trkpt lat="44.82104" lon="1.139">
        <ele>125.4</ele>
        <time>2022-08-12T10:36:21Z</time>
      </trkpt>
      <trkpt lat="44.82106" lon="1.1391">
        <ele>125.4</ele>
        <time>2022-08-12T10:36:23Z</time>
      </trkpt>
      <trkpt lat="44.82109" lon="1.13918">
        <ele>125.4</ele>
        <time>2022-08-12T10:36:25Z</time>
      </trkpt>
      <trkpt lat="44.82113" lon="1.13924">
        <ele>125.4</ele>
        <time>2022-08-12T10:36:27Z</time>
      </trkpt>
      <trkpt lat="44.82117" lon="1.13927">
        <ele>126.4</ele>
        <time>2022-08-12T10:36:29Z</time>
      </trkpt>
      <trkpt lat="44.82121" lon="1.13931">
        <ele>125.4</ele>
        <time>2022-08-12T10:36:31Z</time>
      </trkpt>
      <trkpt lat="44.82125" lon="1.13934">
        <ele>126.4</ele>
        <time>2022-08-12T10:36:34Z</time>
      </trkpt>
      <trkpt lat="44.82129" lon="1.13938">
        <ele>126.4</ele>
        <time>2022-08-12T10:36:36Z</time>
      </trkpt>
      <trkpt lat="44.82138" lon="1.13942">
        <ele>126.4</ele>
        <time>2022-08-12T10:36:38Z</time>
      </trkpt>
      <trkpt lat="44.82145" lon="1.13944">
        <ele>126.4</ele>
        <time>2022-08-12T10:36:39Z</time>
      </trkpt>
      <trkpt lat="44.82151" lon="1.13946">
        <ele>126.4</ele>
        <time>2022-08-12T10:36:40Z</time>
      </trkpt>
      <trkpt lat="44.82157" lon="1.13949">
        <ele>125.4</ele>
        <time>2022-08-12T10:36:41Z</time>
      </trkpt>
      <trkpt lat="44.82164" lon="1.13952">
        <ele>125.4</ele>
        <time>2022-08-12T10:36:42Z</time>
      </trkpt>
      <trkpt lat="44.82172" lon="1.13955">
        <ele>126.4</ele>
        <time>2022-08-12T10:36:43Z</time>
      </trkpt>
      <trkpt lat="44.82179" lon="1.13958">
        <ele>126.4</ele>
        <time>2022-08-12T10:36:44Z</time>
      </trkpt>
      <trkpt lat="44.82186" lon="1.13961">
        <ele>126.4</ele>
        <time>2022-08-12T10:36:45Z</time>
      </trkpt>
      <trkpt lat="44.82192" lon="1.13964">
        <ele>126.4</ele>
        <time>2022-08-12T10:36:46Z</time>
      </trkpt>
      <trkpt lat="44.82198" lon="1.13967">
        <ele>125.4</ele>
        <time>2022-08-12T10:36:47Z</time>
      </trkpt>
      <trkpt lat="44.82204" lon="1.1397">
        <ele>125.4</ele>
        <time>2022-08-12T10:36:48Z</time>
      </trkpt>
      <trkpt lat="44.82211" lon="1.13972">
        <ele>125.4</ele>
        <time>2022-08-12T10:36:49Z</time>
      </trkpt>
      <trkpt lat="44.82217" lon="1.13975">
        <ele>125.4</ele>
        <time>2022-08-12T10:36:50Z</time>
      </trkpt>
      <trkpt lat="44.82223" lon="1.13977">
        <ele>124.4</ele>
        <time>2022-08-12T10:36:51Z</time>
      </trkpt>
      <trkpt lat="44.82229" lon="1.1398">
        <ele>124.4</ele>
        <time>2022-08-12T10:36:52Z</time>
      </trkpt>
      <trkpt lat="44.82235" lon="1.13982">
        <ele>124.4</ele>
        <time>2022-08-12T10:36:53Z</time>
      </trkpt>
      <trkpt lat="44.8224" lon="1.13983">
        <ele>124.4</ele>
        <time>2022-08-12T10:36:54Z</time>
      </trkpt>
      <trkpt lat="44.82246" lon="1.13984">
        <ele>124.4</ele>
        <time>2022-08-12T10:36:55Z</time>
      </trkpt>
      <trkpt lat="44.82252" lon="1.13985">
        <ele>124.4</ele>
        <time>2022-08-12T10:36:56Z</time>
      </trkpt>
      <trkpt lat="44.8226" lon="1.13985">
        <ele>124.4</ele>
        <time>2022-08-12T10:36:57Z</time>
      </trkpt>
      <trkpt lat="44.82269" lon="1.13986">
        <ele>124.4</ele>
        <time>2022-08-12T10:36:58Z</time>
      </trkpt>
      <trkpt lat="44.82277" lon="1.13987">
        <ele>124.4</ele>
        <time>2022-08-12T10:36:59Z</time>
      </trkpt>
      <trkpt lat="44.82284" lon="1.13988">
        <ele>124.4</ele>
        <time>2022-08-12T10:37:00Z</time>
      </trkpt>
      <trkpt lat="44.82291" lon="1.13989">
        <ele>124.4</ele>
        <time>2022-08-12T10:37:01Z</time>
      </trkpt>
      <trkpt lat="44.82296" lon="1.13989">
        <ele>124.4</ele>
        <time>2022-08-12T10:37:02Z</time>
      </trkpt>
      <trkpt lat="44.82302" lon="1.1399">
        <ele>124.4</ele>
        <time>2022-08-12T10:37:03Z</time>
      </trkpt>
      <trkpt lat="44.82307" lon="1.13993">
        <ele>124.4</ele>
        <time>2022-08-12T10:37:04Z</time>
      </trkpt>
      <trkpt lat="44.82311" lon="1.13995">
        <ele>124.4</ele>
        <time>2022-08-12T10:37:05Z</time>
      </trkpt>
      <trkpt lat="44.82316" lon="1.13998">
        <ele>124.4</ele>
        <time>2022-08-12T10:37:06Z</time>
      </trkpt>
      <trkpt lat="44.82321" lon="1.14001">
        <ele>123.4</ele>
        <time>2022-08-12T10:37:07Z</time>
      </trkpt>
      <trkpt lat="44.82325" lon="1.14004">
        <ele>123.4</ele>
        <time>2022-08-12T10:37:08Z</time>
      </trkpt>
      <trkpt lat="44.82331" lon="1.14008">
        <ele>122.4</ele>
        <time>2022-08-12T10:37:09Z</time>
      </trkpt>
      <trkpt lat="44.82335" lon="1.1401">
        <ele>122.4</ele>
        <time>2022-08-12T10:37:10Z</time>
      </trkpt>
      <trkpt lat="44.82342" lon="1.14014">
        <ele>121.4</ele>
        <time>2022-08-12T10:37:12Z</time>
      </trkpt>
      <trkpt lat="44.82347" lon="1.14017">
        <ele>121.4</ele>
        <time>2022-08-12T10:37:14Z</time>
      </trkpt>
      <trkpt lat="44.82352" lon="1.1402">
        <ele>121.4</ele>
        <time>2022-08-12T10:37:16Z</time>
      </trkpt>
      <trkpt lat="44.82357" lon="1.14025">
        <ele>121.4</ele>
        <time>2022-08-12T10:37:18Z</time>
      </trkpt>
      <trkpt lat="44.82364" lon="1.1403">
        <ele>121.4</ele>
        <time>2022-08-12T10:37:20Z</time>
      </trkpt>
      <trkpt lat="44.8237" lon="1.14035">
        <ele>121.4</ele>
        <time>2022-08-12T10:37:22Z</time>
      </trkpt>
      <trkpt lat="44.82378" lon="1.14039">
        <ele>121.4</ele>
        <time>2022-08-12T10:37:24Z</time>
      </trkpt>
      <trkpt lat="44.82386" lon="1.14043">
        <ele>120.4</ele>
        <time>2022-08-12T10:37:26Z</time>
      </trkpt>
      <trkpt lat="44.82395" lon="1.14046">
        <ele>119.4</ele>
        <time>2022-08-12T10:37:28Z</time>
      </trkpt>
      <trkpt lat="44.82403" lon="1.14049">
        <ele>119.4</ele>
        <time>2022-08-12T10:37:30Z</time>
      </trkpt>
      <trkpt lat="44.82408" lon="1.14051">
        <ele>119.4</ele>
        <time>2022-08-12T10:37:31Z</time>
      </trkpt>
      <trkpt lat="44.82413" lon="1.14052">
        <ele>119.4</ele>
        <time>2022-08-12T10:37:32Z</time>
      </trkpt>
      <trkpt lat="44.8242" lon="1.14054">
        <ele>119.4</ele>
        <time>2022-08-12T10:37:33Z</time>
      </trkpt>
      <trkpt lat="44.82425" lon="1.14056">
        <ele>118.4</ele>
        <time>2022-08-12T10:37:34Z</time>
      </trkpt>
      <trkpt lat="44.82432" lon="1.14057">
        <ele>118.4</ele>
        <time>2022-08-12T10:37:35Z</time>
      </trkpt>
      <trkpt lat="44.82438" lon="1.14059">
        <ele>118.4</ele>
        <time>2022-08-12T10:37:36Z</time>
      </trkpt>
      <trkpt lat="44.82443" lon="1.1406">
        <ele>118.4</ele>
        <time>2022-08-12T10:37:37Z</time>
      </trkpt>
      <trkpt lat="44.8245" lon="1.14062">
        <ele>117.4</ele>
        <time>2022-08-12T10:37:38Z</time>
      </trkpt>
      <trkpt lat="44.82456" lon="1.14064">
        <ele>117.4</ele>
        <time>2022-08-12T10:37:39Z</time>
      </trkpt>
      <trkpt lat="44.82463" lon="1.14067">
        <ele>118.4</ele>
        <time>2022-08-12T10:37:40Z</time>
      </trkpt>
      <trkpt lat="44.8247" lon="1.1407">
        <ele>117.4</ele>
        <time>2022-08-12T10:37:41Z</time>
      </trkpt>
      <trkpt lat="44.82477" lon="1.14074">
        <ele>116.4</ele>
        <time>2022-08-12T10:37:42Z</time>
      </trkpt>
      <trkpt lat="44.82483" lon="1.14077">
        <ele>116.4</ele>
        <time>2022-08-12T10:37:43Z</time>
      </trkpt>
      <trkpt lat="44.8249" lon="1.1408">
        <ele>115.4</ele>
        <time>2022-08-12T10:37:44Z</time>
      </trkpt>
      <trkpt lat="44.82495" lon="1.14082">
        <ele>115.4</ele>
        <time>2022-08-12T10:37:45Z</time>
      </trkpt>
      <trkpt lat="44.825" lon="1.14084">
        <ele>115.4</ele>
        <time>2022-08-12T10:37:46Z</time>
      </trkpt>
      <trkpt lat="44.82505" lon="1.14086">
        <ele>114.4</ele>
        <time>2022-08-12T10:37:47Z</time>
      </trkpt>
      <trkpt lat="44.82511" lon="1.14089">
        <ele>114.4</ele>
        <time>2022-08-12T10:37:48Z</time>
      </trkpt>
      <trkpt lat="44.82518" lon="1.14091">
        <ele>114.4</ele>
        <time>2022-08-12T10:37:49Z</time>
      </trkpt>
      <trkpt lat="44.82525" lon="1.14093">
        <ele>114.4</ele>
        <time>2022-08-12T10:37:50Z</time>
      </trkpt>
      <trkpt lat="44.82532" lon="1.14095">
        <ele>113.4</ele>
        <time>2022-08-12T10:37:51Z</time>
      </trkpt>
      <trkpt lat="44.82539" lon="1.14096">
        <ele>113.4</ele>
        <time>2022-08-12T10:37:52Z</time>
      </trkpt>
      <trkpt lat="44.82547" lon="1.14096">
        <ele>113.4</ele>
        <time>2022-08-12T10:37:53Z</time>
      </trkpt>
      <trkpt lat="44.82556" lon="1.14098">
        <ele>113.4</ele>
        <time>2022-08-12T10:37:54Z</time>
      </trkpt>
      <trkpt lat="44.82566" lon="1.14099">
        <ele>113.4</ele>
        <time>2022-08-12T10:37:55Z</time>
      </trkpt>
      <trkpt lat="44.82574" lon="1.141">
        <ele>112.4</ele>
        <time>2022-08-12T10:37:56Z</time>
      </trkpt>
      <trkpt lat="44.82582" lon="1.141">
        <ele>112.4</ele>
        <time>2022-08-12T10:37:57Z</time>
      </trkpt>
      <trkpt lat="44.82591" lon="1.14101">
        <ele>112.4</ele>
        <time>2022-08-12T10:37:58Z</time>
      </trkpt>
      <trkpt lat="44.82599" lon="1.14103">
        <ele>112.4</ele>
        <time>2022-08-12T10:37:59Z</time>
      </trkpt>
      <trkpt lat="44.82605" lon="1.14104">
        <ele>111.4</ele>
        <time>2022-08-12T10:38:00Z</time>
      </trkpt>
      <trkpt lat="44.8261" lon="1.14105">
        <ele>111.4</ele>
        <time>2022-08-12T10:38:01Z</time>
      </trkpt>
      <trkpt lat="44.82619" lon="1.14106">
        <ele>111.4</ele>
        <time>2022-08-12T10:38:02Z</time>
      </trkpt>
      <trkpt lat="44.82628" lon="1.14106">
        <ele>111.4</ele>
        <time>2022-08-12T10:38:03Z</time>
      </trkpt>
      <trkpt lat="44.82637" lon="1.14107">
        <ele>110.4</ele>
        <time>2022-08-12T10:38:04Z</time>
      </trkpt>
      <trkpt lat="44.82644" lon="1.14109">
        <ele>110.4</ele>
        <time>2022-08-12T10:38:05Z</time>
      </trkpt>
      <trkpt lat="44.82653" lon="1.1411">
        <ele>110.4</ele>
        <time>2022-08-12T10:38:06Z</time>
      </trkpt>
      <trkpt lat="44.82662" lon="1.14112">
        <ele>109.4</ele>
        <time>2022-08-12T10:38:07Z</time>
      </trkpt>
      <trkpt lat="44.82669" lon="1.14113">
        <ele>109.4</ele>
        <time>2022-08-12T10:38:08Z</time>
      </trkpt>
      <trkpt lat="44.82676" lon="1.14116">
        <ele>109.4</ele>
        <time>2022-08-12T10:38:09Z</time>
      </trkpt>
      <trkpt lat="44.82682" lon="1.14118">
        <ele>109.4</ele>
        <time>2022-08-12T10:38:10Z</time>
      </trkpt>
      <trkpt lat="44.8269" lon="1.14122">
        <ele>108.4</ele>
        <time>2022-08-12T10:38:11Z</time>
      </trkpt>
      <trkpt lat="44.82697" lon="1.14127">
        <ele>107.4</ele>
        <time>2022-08-12T10:38:12Z</time>
      </trkpt>
      <trkpt lat="44.82704" lon="1.14132">
        <ele>106.4</ele>
        <time>2022-08-12T10:38:13Z</time>
      </trkpt>
      <trkpt lat="44.82711" lon="1.14138">
        <ele>106.4</ele>
        <time>2022-08-12T10:38:14Z</time>
      </trkpt>
      <trkpt lat="44.82718" lon="1.14144">
        <ele>105.4</ele>
        <time>2022-08-12T10:38:15Z</time>
      </trkpt>
      <trkpt lat="44.82726" lon="1.1415">
        <ele>104.4</ele>
        <time>2022-08-12T10:38:16Z</time>
      </trkpt>
      <trkpt lat="44.82734" lon="1.14156">
        <ele>104.4</ele>
        <time>2022-08-12T10:38:17Z</time>
      </trkpt>
      <trkpt lat="44.82741" lon="1.14162">
        <ele>103.4</ele>
        <time>2022-08-12T10:38:18Z</time>
      </trkpt>
      <trkpt lat="44.82748" lon="1.14168">
        <ele>102.4</ele>
        <time>2022-08-12T10:38:19Z</time>
      </trkpt>
      <trkpt lat="44.82754" lon="1.14174">
        <ele>102.4</ele>
        <time>2022-08-12T10:38:20Z</time>
      </trkpt>
      <trkpt lat="44.82761" lon="1.1418">
        <ele>101.4</ele>
        <time>2022-08-12T10:38:21Z</time>
      </trkpt>
      <trkpt lat="44.82767" lon="1.14186">
        <ele>99.4</ele>
        <time>2022-08-12T10:38:22Z</time>
      </trkpt>
      <trkpt lat="44.82774" lon="1.14193">
        <ele>98.4</ele>
        <time>2022-08-12T10:38:23Z</time>
      </trkpt>
      <trkpt lat="44.8278" lon="1.14199">
        <ele>97.4</ele>
        <time>2022-08-12T10:38:24Z</time>
      </trkpt>
      <trkpt lat="44.82787" lon="1.14204">
        <ele>97.4</ele>
        <time>2022-08-12T10:38:25Z</time>
      </trkpt>
      <trkpt lat="44.82793" lon="1.1421">
        <ele>97.4</ele>
        <time>2022-08-12T10:38:26Z</time>
      </trkpt>
      <trkpt lat="44.82799" lon="1.14216">
        <ele>97.4</ele>
        <time>2022-08-12T10:38:27Z</time>
      </trkpt>
      <trkpt lat="44.82804" lon="1.14223">
        <ele>96.4</ele>
        <time>2022-08-12T10:38:28Z</time>
      </trkpt>
      <trkpt lat="44.82809" lon="1.14229">
        <ele>96.4</ele>
        <time>2022-08-12T10:38:29Z</time>
      </trkpt>
      <trkpt lat="44.82813" lon="1.14235">
        <ele>95.4</ele>
        <time>2022-08-12T10:38:30Z</time>
      </trkpt>
      <trkpt lat="44.82817" lon="1.14241">
        <ele>94.4</ele>
        <time>2022-08-12T10:38:31Z</time>
      </trkpt>
      <trkpt lat="44.82821" lon="1.14247">
        <ele>93.4</ele>
        <time>2022-08-12T10:38:32Z</time>
      </trkpt>
      <trkpt lat="44.82825" lon="1.14254">
        <ele>92.4</ele>
        <time>2022-08-12T10:38:33Z</time>
      </trkpt>
      <trkpt lat="44.82833" lon="1.14268">
        <ele>92.4</ele>
        <time>2022-08-12T10:38:35Z</time>
      </trkpt>
      <trkpt lat="44.82838" lon="1.14275">
        <ele>91.4</ele>
        <time>2022-08-12T10:38:36Z</time>
      </trkpt>
      <trkpt lat="44.82843" lon="1.14282">
        <ele>91.4</ele>
        <time>2022-08-12T10:38:37Z</time>
      </trkpt>
      <trkpt lat="44.82848" lon="1.14288">
        <ele>90.4</ele>
        <time>2022-08-12T10:38:38Z</time>
      </trkpt>
      <trkpt lat="44.82853" lon="1.14294">
        <ele>90.4</ele>
        <time>2022-08-12T10:38:39Z</time>
      </trkpt>
      <trkpt lat="44.82857" lon="1.14299">
        <ele>90.4</ele>
        <time>2022-08-12T10:38:40Z</time>
      </trkpt>
      <trkpt lat="44.82861" lon="1.14304">
        <ele>89.4</ele>
        <time>2022-08-12T10:38:41Z</time>
      </trkpt>
      <trkpt lat="44.82865" lon="1.14309">
        <ele>89.4</ele>
        <time>2022-08-12T10:38:42Z</time>
      </trkpt>
      <trkpt lat="44.8287" lon="1.14314">
        <ele>88.4</ele>
        <time>2022-08-12T10:38:43Z</time>
      </trkpt>
      <trkpt lat="44.82874" lon="1.14319">
        <ele>87.4</ele>
        <time>2022-08-12T10:38:44Z</time>
      </trkpt>
      <trkpt lat="44.82878" lon="1.14325">
        <ele>87.4</ele>
        <time>2022-08-12T10:38:45Z</time>
      </trkpt>
      <trkpt lat="44.82882" lon="1.1433">
        <ele>86.4</ele>
        <time>2022-08-12T10:38:46Z</time>
      </trkpt>
      <trkpt lat="44.82887" lon="1.14335">
        <ele>86.4</ele>
        <time>2022-08-12T10:38:47Z</time>
      </trkpt>
      <trkpt lat="44.82891" lon="1.1434">
        <ele>86.4</ele>
        <time>2022-08-12T10:38:48Z</time>
      </trkpt>
      <trkpt lat="44.82897" lon="1.14349">
        <ele>84.4</ele>
        <time>2022-08-12T10:38:50Z</time>
      </trkpt>
      <trkpt lat="44.82901" lon="1.14354">
        <ele>84.4</ele>
        <time>2022-08-12T10:38:51Z</time>
      </trkpt>
      <trkpt lat="44.82906" lon="1.14361">
        <ele>82.4</ele>
        <time>2022-08-12T10:38:53Z</time>
      </trkpt>
      <trkpt lat="44.8291" lon="1.14365">
        <ele>82.4</ele>
        <time>2022-08-12T10:38:55Z</time>
      </trkpt>
      <trkpt lat="44.82914" lon="1.1437">
        <ele>81.4</ele>
        <time>2022-08-12T10:38:59Z</time>
      </trkpt>
      <trkpt lat="44.82919" lon="1.14372">
        <ele>80.4</ele>
        <time>2022-08-12T10:39:14Z</time>
      </trkpt>
      <trkpt lat="44.82923" lon="1.14365">
        <ele>76.4</ele>
        <time>2022-08-12T10:39:54Z</time>
      </trkpt>
      <trkpt lat="44.82931" lon="1.14358">
        <ele>76.4</ele>
        <time>2022-08-12T10:39:56Z</time>
      </trkpt>
      <trkpt lat="44.82936" lon="1.14354">
        <ele>76.4</ele>
        <time>2022-08-12T10:39:57Z</time>
      </trkpt>
      <trkpt lat="44.82941" lon="1.1435">
        <ele>77.4</ele>
        <time>2022-08-12T10:39:58Z</time>
      </trkpt>
      <trkpt lat="44.82946" lon="1.14348">
        <ele>78.4</ele>
        <time>2022-08-12T10:39:59Z</time>
      </trkpt>
      <trkpt lat="44.82951" lon="1.14347">
        <ele>77.4</ele>
        <time>2022-08-12T10:40:00Z</time>
      </trkpt>
      <trkpt lat="44.82957" lon="1.14347">
        <ele>77.4</ele>
        <time>2022-08-12T10:40:01Z</time>
      </trkpt>
      <trkpt lat="44.82962" lon="1.14346">
        <ele>77.4</ele>
        <time>2022-08-12T10:40:02Z</time>
      </trkpt>
      <trkpt lat="44.82968" lon="1.14346">
        <ele>77.4</ele>
        <time>2022-08-12T10:40:03Z</time>
      </trkpt>
      <trkpt lat="44.82973" lon="1.14347">
        <ele>76.4</ele>
        <time>2022-08-12T10:40:04Z</time>
      </trkpt>
      <trkpt lat="44.82982" lon="1.14346">
        <ele>76.4</ele>
        <time>2022-08-12T10:40:06Z</time>
      </trkpt>
      <trkpt lat="44.82989" lon="1.14346">
        <ele>76.4</ele>
        <time>2022-08-12T10:40:08Z</time>
      </trkpt>
      <trkpt lat="44.82997" lon="1.14347">
        <ele>75.4</ele>
        <time>2022-08-12T10:40:10Z</time>
      </trkpt>
      <trkpt lat="44.83001" lon="1.14347">
        <ele>74.4</ele>
        <time>2022-08-12T10:40:11Z</time>
      </trkpt>
      <trkpt lat="44.83007" lon="1.14347">
        <ele>73.4</ele>
        <time>2022-08-12T10:40:12Z</time>
      </trkpt>
      <trkpt lat="44.83012" lon="1.14348">
        <ele>73.4</ele>
        <time>2022-08-12T10:40:13Z</time>
      </trkpt>
      <trkpt lat="44.83018" lon="1.14348">
        <ele>72.4</ele>
        <time>2022-08-12T10:40:14Z</time>
      </trkpt>
      <trkpt lat="44.83024" lon="1.14349">
        <ele>72.4</ele>
        <time>2022-08-12T10:40:15Z</time>
      </trkpt>
      <trkpt lat="44.83032" lon="1.14351">
        <ele>72.4</ele>
        <time>2022-08-12T10:40:16Z</time>
      </trkpt>
      <trkpt lat="44.83039" lon="1.14354">
        <ele>71.4</ele>
        <time>2022-08-12T10:40:17Z</time>
      </trkpt>
      <trkpt lat="44.83045" lon="1.14357">
        <ele>70.4</ele>
        <time>2022-08-12T10:40:18Z</time>
      </trkpt>
      <trkpt lat="44.83051" lon="1.14359">
        <ele>70.4</ele>
        <time>2022-08-12T10:40:19Z</time>
      </trkpt>
      <trkpt lat="44.83058" lon="1.14361">
        <ele>70.4</ele>
        <time>2022-08-12T10:40:20Z</time>
      </trkpt>
      <trkpt lat="44.83064" lon="1.14361">
        <ele>70.4</ele>
        <time>2022-08-12T10:40:21Z</time>
      </trkpt>
      <trkpt lat="44.8307" lon="1.14362">
        <ele>69.4</ele>
        <time>2022-08-12T10:40:22Z</time>
      </trkpt>
      <trkpt lat="44.83076" lon="1.14362">
        <ele>69.4</ele>
        <time>2022-08-12T10:40:23Z</time>
      </trkpt>
      <trkpt lat="44.83082" lon="1.14361">
        <ele>69.4</ele>
        <time>2022-08-12T10:40:24Z</time>
      </trkpt>
      <trkpt lat="44.83088" lon="1.14359">
        <ele>69.4</ele>
        <time>2022-08-12T10:40:25Z</time>
      </trkpt>
      <trkpt lat="44.83093" lon="1.14357">
        <ele>69.4</ele>
        <time>2022-08-12T10:40:26Z</time>
      </trkpt>
      <trkpt lat="44.83098" lon="1.14356">
        <ele>69.4</ele>
        <time>2022-08-12T10:40:27Z</time>
      </trkpt>
      <trkpt lat="44.83104" lon="1.14354">
        <ele>68.4</ele>
        <time>2022-08-12T10:40:28Z</time>
      </trkpt>
      <trkpt lat="44.83109" lon="1.14353">
        <ele>68.4</ele>
        <time>2022-08-12T10:40:29Z</time>
      </trkpt>
      <trkpt lat="44.83114" lon="1.14352">
        <ele>68.4</ele>
        <time>2022-08-12T10:40:30Z</time>
      </trkpt>
      <trkpt lat="44.83119" lon="1.14351">
        <ele>67.4</ele>
        <time>2022-08-12T10:40:31Z</time>
      </trkpt>
      <trkpt lat="44.83124" lon="1.1435">
        <ele>67.4</ele>
        <time>2022-08-12T10:40:32Z</time>
      </trkpt>
      <trkpt lat="44.83129" lon="1.14349">
        <ele>67.4</ele>
        <time>2022-08-12T10:40:33Z</time>
      </trkpt>
      <trkpt lat="44.83133" lon="1.14348">
        <ele>67.4</ele>
        <time>2022-08-12T10:40:34Z</time>
      </trkpt>
      <trkpt lat="44.83142" lon="1.14346">
        <ele>67.4</ele>
        <time>2022-08-12T10:40:36Z</time>
      </trkpt>
      <trkpt lat="44.83151" lon="1.14344">
        <ele>67.4</ele>
        <time>2022-08-12T10:40:38Z</time>
      </trkpt>
      <trkpt lat="44.83159" lon="1.14343">
        <ele>67.4</ele>
        <time>2022-08-12T10:40:40Z</time>
      </trkpt>
      <trkpt lat="44.83166" lon="1.14343">
        <ele>68.4</ele>
        <time>2022-08-12T10:40:42Z</time>
      </trkpt>
      <trkpt lat="44.83172" lon="1.14341">
        <ele>67.4</ele>
        <time>2022-08-12T10:40:44Z</time>
      </trkpt>
      <trkpt lat="44.83176" lon="1.14342">
        <ele>66.4</ele>
        <time>2022-08-12T10:40:47Z</time>
      </trkpt>
      <trkpt lat="44.83178" lon="1.14348">
        <ele>66.4</ele>
        <time>2022-08-12T10:40:49Z</time>
      </trkpt>
      <trkpt lat="44.8318" lon="1.14358">
        <ele>65.4</ele>
        <time>2022-08-12T10:40:51Z</time>
      </trkpt>
      <trkpt lat="44.83182" lon="1.1437">
        <ele>64.4</ele>
        <time>2022-08-12T10:40:53Z</time>
      </trkpt>
      <trkpt lat="44.83183" lon="1.14379">
        <ele>63.4</ele>
        <time>2022-08-12T10:40:54Z</time>
      </trkpt>
      <trkpt lat="44.83184" lon="1.14387">
        <ele>63.4</ele>
        <time>2022-08-12T10:40:55Z</time>
      </trkpt>
      <trkpt lat="44.83185" lon="1.14394">
        <ele>62.4</ele>
        <time>2022-08-12T10:40:56Z</time>
      </trkpt>
      <trkpt lat="44.83186" lon="1.14402">
        <ele>62.4</ele>
        <time>2022-08-12T10:40:57Z</time>
      </trkpt>
      <trkpt lat="44.83187" lon="1.1441">
        <ele>61.4</ele>
        <time>2022-08-12T10:40:58Z</time>
      </trkpt>
      <trkpt lat="44.83188" lon="1.14419">
        <ele>61.4</ele>
        <time>2022-08-12T10:40:59Z</time>
      </trkpt>
      <trkpt lat="44.83189" lon="1.14428">
        <ele>60.4</ele>
        <time>2022-08-12T10:41:00Z</time>
      </trkpt>
      <trkpt lat="44.8319" lon="1.14437">
        <ele>59.4</ele>
        <time>2022-08-12T10:41:01Z</time>
      </trkpt>
      <trkpt lat="44.8319" lon="1.14446">
        <ele>58.4</ele>
        <time>2022-08-12T10:41:02Z</time>
      </trkpt>
      <trkpt lat="44.8319" lon="1.14456">
        <ele>58.4</ele>
        <time>2022-08-12T10:41:03Z</time>
      </trkpt>
      <trkpt lat="44.83188" lon="1.14465">
        <ele>58.4</ele>
        <time>2022-08-12T10:41:04Z</time>
      </trkpt>
      <trkpt lat="44.83185" lon="1.14475">
        <ele>59.4</ele>
        <time>2022-08-12T10:41:05Z</time>
      </trkpt>
      <trkpt lat="44.83179" lon="1.14484">
        <ele>58.4</ele>
        <time>2022-08-12T10:41:06Z</time>
      </trkpt>
      <trkpt lat="44.83173" lon="1.14491">
        <ele>58.4</ele>
        <time>2022-08-12T10:41:07Z</time>
      </trkpt>
      <trkpt lat="44.83167" lon="1.14498">
        <ele>58.4</ele>
        <time>2022-08-12T10:41:08Z</time>
      </trkpt>
      <trkpt lat="44.8316" lon="1.14503">
        <ele>58.4</ele>
        <time>2022-08-12T10:41:09Z</time>
      </trkpt>
      <trkpt lat="44.83153" lon="1.14507">
        <ele>58.4</ele>
        <time>2022-08-12T10:41:10Z</time>
      </trkpt>
      <trkpt lat="44.83144" lon="1.1451">
        <ele>58.4</ele>
        <time>2022-08-12T10:41:11Z</time>
      </trkpt>
      <trkpt lat="44.83136" lon="1.14511">
        <ele>59.4</ele>
        <time>2022-08-12T10:41:12Z</time>
      </trkpt>
      <trkpt lat="44.83129" lon="1.14512">
        <ele>59.4</ele>
        <time>2022-08-12T10:41:13Z</time>
      </trkpt>
      <trkpt lat="44.83122" lon="1.14512">
        <ele>59.4</ele>
        <time>2022-08-12T10:41:14Z</time>
      </trkpt>
      <trkpt lat="44.83116" lon="1.14511">
        <ele>59.4</ele>
        <time>2022-08-12T10:41:15Z</time>
      </trkpt>
      <trkpt lat="44.83111" lon="1.14511">
        <ele>59.4</ele>
        <time>2022-08-12T10:41:16Z</time>
      </trkpt>
      <trkpt lat="44.83105" lon="1.14511">
        <ele>59.4</ele>
        <time>2022-08-12T10:41:17Z</time>
      </trkpt>
      <trkpt lat="44.831" lon="1.1451">
        <ele>59.4</ele>
        <time>2022-08-12T10:41:18Z</time>
      </trkpt>
      <trkpt lat="44.83095" lon="1.1451">
        <ele>59.4</ele>
        <time>2022-08-12T10:41:19Z</time>
      </trkpt>
      <trkpt lat="44.83091" lon="1.1451">
        <ele>58.4</ele>
        <time>2022-08-12T10:41:20Z</time>
      </trkpt>
      <trkpt lat="44.83082" lon="1.1451">
        <ele>58.4</ele>
        <time>2022-08-12T10:41:22Z</time>
      </trkpt>
      <trkpt lat="44.83075" lon="1.14509">
        <ele>58.4</ele>
        <time>2022-08-12T10:41:24Z</time>
      </trkpt>
      <trkpt lat="44.83069" lon="1.14509">
        <ele>58.4</ele>
        <time>2022-08-12T10:41:26Z</time>
      </trkpt>
      <trkpt lat="44.83063" lon="1.1451">
        <ele>57.4</ele>
        <time>2022-08-12T10:41:28Z</time>
      </trkpt>
      <trkpt lat="44.83056" lon="1.14511">
        <ele>57.4</ele>
        <time>2022-08-12T10:41:30Z</time>
      </trkpt>
      <trkpt lat="44.83051" lon="1.14511">
        <ele>57.4</ele>
        <time>2022-08-12T10:41:32Z</time>
      </trkpt>
      <trkpt lat="44.83045" lon="1.14512">
        <ele>56.4</ele>
        <time>2022-08-12T10:41:34Z</time>
      </trkpt>
      <trkpt lat="44.83039" lon="1.14512">
        <ele>55.4</ele>
        <time>2022-08-12T10:41:36Z</time>
      </trkpt>
      <trkpt lat="44.83033" lon="1.14512">
        <ele>54.4</ele>
        <time>2022-08-12T10:41:38Z</time>
      </trkpt>
      <trkpt lat="44.83026" lon="1.14512">
        <ele>53.4</ele>
        <time>2022-08-12T10:41:40Z</time>
      </trkpt>
      <trkpt lat="44.83019" lon="1.14513">
        <ele>52.4</ele>
        <time>2022-08-12T10:41:42Z</time>
      </trkpt>
      <trkpt lat="44.83012" lon="1.14512">
        <ele>51.4</ele>
        <time>2022-08-12T10:41:44Z</time>
      </trkpt>
      <trkpt lat="44.83004" lon="1.14512">
        <ele>50.4</ele>
        <time>2022-08-12T10:41:46Z</time>
      </trkpt>
      <trkpt lat="44.82996" lon="1.14513">
        <ele>50.4</ele>
        <time>2022-08-12T10:41:48Z</time>
      </trkpt>
      <trkpt lat="44.82987" lon="1.14514">
        <ele>49.4</ele>
        <time>2022-08-12T10:41:50Z</time>
      </trkpt>
      <trkpt lat="44.82983" lon="1.14514">
        <ele>49.4</ele>
        <time>2022-08-12T10:41:51Z</time>
      </trkpt>
      <trkpt lat="44.82978" lon="1.14514">
        <ele>49.4</ele>
        <time>2022-08-12T10:41:52Z</time>
      </trkpt>
      <trkpt lat="44.8297" lon="1.14514">
        <ele>49.4</ele>
        <time>2022-08-12T10:41:54Z</time>
      </trkpt>
      <trkpt lat="44.82961" lon="1.14516">
        <ele>49.4</ele>
        <time>2022-08-12T10:41:56Z</time>
      </trkpt>
      <trkpt lat="44.82952" lon="1.14516">
        <ele>48.4</ele>
        <time>2022-08-12T10:41:58Z</time>
      </trkpt>
      <trkpt lat="44.82948" lon="1.14516">
        <ele>48.4</ele>
        <time>2022-08-12T10:41:59Z</time>
      </trkpt>
      <trkpt lat="44.82943" lon="1.14518">
        <ele>48.4</ele>
        <time>2022-08-12T10:42:00Z</time>
      </trkpt>
      <trkpt lat="44.82939" lon="1.14518">
        <ele>48.4</ele>
        <time>2022-08-12T10:42:01Z</time>
      </trkpt>
      <trkpt lat="44.8293" lon="1.1452">
        <ele>48.4</ele>
        <time>2022-08-12T10:42:03Z</time>
      </trkpt>
      <trkpt lat="44.82922" lon="1.14523">
        <ele>48.4</ele>
        <time>2022-08-12T10:42:05Z</time>
      </trkpt>
      <trkpt lat="44.82918" lon="1.14526">
        <ele>48.4</ele>
        <time>2022-08-12T10:42:06Z</time>
      </trkpt>
      <trkpt lat="44.8291" lon="1.14528">
        <ele>48.4</ele>
        <time>2022-08-12T10:42:08Z</time>
      </trkpt>
      <trkpt lat="44.82905" lon="1.1453">
        <ele>48.4</ele>
        <time>2022-08-12T10:42:09Z</time>
      </trkpt>
      <trkpt lat="44.82901" lon="1.14531">
        <ele>48.4</ele>
        <time>2022-08-12T10:42:10Z</time>
      </trkpt>
      <trkpt lat="44.82895" lon="1.14532">
        <ele>48.4</ele>
        <time>2022-08-12T10:42:11Z</time>
      </trkpt>
      <trkpt lat="44.8289" lon="1.14533">
        <ele>48.4</ele>
        <time>2022-08-12T10:42:12Z</time>
      </trkpt>
      <trkpt lat="44.82885" lon="1.14534">
        <ele>49.4</ele>
        <time>2022-08-12T10:42:13Z</time>
      </trkpt>
      <trkpt lat="44.8288" lon="1.14535">
        <ele>49.4</ele>
        <time>2022-08-12T10:42:14Z</time>
      </trkpt>
      <trkpt lat="44.82875" lon="1.14536">
        <ele>49.4</ele>
        <time>2022-08-12T10:42:15Z</time>
      </trkpt>
      <trkpt lat="44.82869" lon="1.14537">
        <ele>49.4</ele>
        <time>2022-08-12T10:42:16Z</time>
      </trkpt>
      <trkpt lat="44.82863" lon="1.14538">
        <ele>49.4</ele>
        <time>2022-08-12T10:42:17Z</time>
      </trkpt>
      <trkpt lat="44.82852" lon="1.14539">
        <ele>49.4</ele>
        <time>2022-08-12T10:42:19Z</time>
      </trkpt>
      <trkpt lat="44.82847" lon="1.1454">
        <ele>49.4</ele>
        <time>2022-08-12T10:42:20Z</time>
      </trkpt>
      <trkpt lat="44.82842" lon="1.14541">
        <ele>49.4</ele>
        <time>2022-08-12T10:42:21Z</time>
      </trkpt>
      <trkpt lat="44.82836" lon="1.14542">
        <ele>49.4</ele>
        <time>2022-08-12T10:42:22Z</time>
      </trkpt>
      <trkpt lat="44.82831" lon="1.14542">
        <ele>48.4</ele>
        <time>2022-08-12T10:42:23Z</time>
      </trkpt>
      <trkpt lat="44.82825" lon="1.14543">
        <ele>48.4</ele>
        <time>2022-08-12T10:42:24Z</time>
      </trkpt>
      <trkpt lat="44.82819" lon="1.14545">
        <ele>48.4</ele>
        <time>2022-08-12T10:42:25Z</time>
      </trkpt>
      <trkpt lat="44.82814" lon="1.14546">
        <ele>48.4</ele>
        <time>2022-08-12T10:42:26Z</time>
      </trkpt>
      <trkpt lat="44.82809" lon="1.14547">
        <ele>49.4</ele>
        <time>2022-08-12T10:42:27Z</time>
      </trkpt>
      <trkpt lat="44.82804" lon="1.14547">
        <ele>49.4</ele>
        <time>2022-08-12T10:42:28Z</time>
      </trkpt>
      <trkpt lat="44.82799" lon="1.14547">
        <ele>49.4</ele>
        <time>2022-08-12T10:42:29Z</time>
      </trkpt>
      <trkpt lat="44.82794" lon="1.14547">
        <ele>50.4</ele>
        <time>2022-08-12T10:42:30Z</time>
      </trkpt>
      <trkpt lat="44.82789" lon="1.14546">
        <ele>50.4</ele>
        <time>2022-08-12T10:42:31Z</time>
      </trkpt>
      <trkpt lat="44.82784" lon="1.14545">
        <ele>50.4</ele>
        <time>2022-08-12T10:42:32Z</time>
      </trkpt>
      <trkpt lat="44.82779" lon="1.14545">
        <ele>50.4</ele>
        <time>2022-08-12T10:42:33Z</time>
      </trkpt>
      <trkpt lat="44.82774" lon="1.14545">
        <ele>50.4</ele>
        <time>2022-08-12T10:42:34Z</time>
      </trkpt>
      <trkpt lat="44.8277" lon="1.14545">
        <ele>49.4</ele>
        <time>2022-08-12T10:42:35Z</time>
      </trkpt>
      <trkpt lat="44.82765" lon="1.14546">
        <ele>50.4</ele>
        <time>2022-08-12T10:42:36Z</time>
      </trkpt>
      <trkpt lat="44.82759" lon="1.14547">
        <ele>50.4</ele>
        <time>2022-08-12T10:42:37Z</time>
      </trkpt>
      <trkpt lat="44.82754" lon="1.14548">
        <ele>50.4</ele>
        <time>2022-08-12T10:42:38Z</time>
      </trkpt>
      <trkpt lat="44.82748" lon="1.1455">
        <ele>50.4</ele>
        <time>2022-08-12T10:42:39Z</time>
      </trkpt>
      <trkpt lat="44.82743" lon="1.14551">
        <ele>50.4</ele>
        <time>2022-08-12T10:42:40Z</time>
      </trkpt>
      <trkpt lat="44.82737" lon="1.14553">
        <ele>49.4</ele>
        <time>2022-08-12T10:42:41Z</time>
      </trkpt>
      <trkpt lat="44.82731" lon="1.14555">
        <ele>49.4</ele>
        <time>2022-08-12T10:42:42Z</time>
      </trkpt>
      <trkpt lat="44.82725" lon="1.14557">
        <ele>48.4</ele>
        <time>2022-08-12T10:42:43Z</time>
      </trkpt>
      <trkpt lat="44.8272" lon="1.14559">
        <ele>48.4</ele>
        <time>2022-08-12T10:42:44Z</time>
      </trkpt>
      <trkpt lat="44.82714" lon="1.14562">
        <ele>48.4</ele>
        <time>2022-08-12T10:42:45Z</time>
      </trkpt>
      <trkpt lat="44.82709" lon="1.14565">
        <ele>48.4</ele>
        <time>2022-08-12T10:42:46Z</time>
      </trkpt>
      <trkpt lat="44.82704" lon="1.14567">
        <ele>47.4</ele>
        <time>2022-08-12T10:42:47Z</time>
      </trkpt>
      <trkpt lat="44.82699" lon="1.14569">
        <ele>47.4</ele>
        <time>2022-08-12T10:42:48Z</time>
      </trkpt>
      <trkpt lat="44.82694" lon="1.1457">
        <ele>47.4</ele>
        <time>2022-08-12T10:42:49Z</time>
      </trkpt>
      <trkpt lat="44.82689" lon="1.14573">
        <ele>47.4</ele>
        <time>2022-08-12T10:42:50Z</time>
      </trkpt>
      <trkpt lat="44.82684" lon="1.14575">
        <ele>46.4</ele>
        <time>2022-08-12T10:42:51Z</time>
      </trkpt>
      <trkpt lat="44.8268" lon="1.14578">
        <ele>46.4</ele>
        <time>2022-08-12T10:42:52Z</time>
      </trkpt>
      <trkpt lat="44.82674" lon="1.14581">
        <ele>46.4</ele>
        <time>2022-08-12T10:42:53Z</time>
      </trkpt>
      <trkpt lat="44.82669" lon="1.14584">
        <ele>46.4</ele>
        <time>2022-08-12T10:42:54Z</time>
      </trkpt>
      <trkpt lat="44.82663" lon="1.14587">
        <ele>45.4</ele>
        <time>2022-08-12T10:42:55Z</time>
      </trkpt>
      <trkpt lat="44.82658" lon="1.14589">
        <ele>44.4</ele>
        <time>2022-08-12T10:42:56Z</time>
      </trkpt>
      <trkpt lat="44.82652" lon="1.14591">
        <ele>44.4</ele>
        <time>2022-08-12T10:42:57Z</time>
      </trkpt>
      <trkpt lat="44.82646" lon="1.14593">
        <ele>43.4</ele>
        <time>2022-08-12T10:42:58Z</time>
      </trkpt>
      <trkpt lat="44.8264" lon="1.14595">
        <ele>43.4</ele>
        <time>2022-08-12T10:42:59Z</time>
      </trkpt>
      <trkpt lat="44.82634" lon="1.14598">
        <ele>43.4</ele>
        <time>2022-08-12T10:43:00Z</time>
      </trkpt>
      <trkpt lat="44.82629" lon="1.14601">
        <ele>43.4</ele>
        <time>2022-08-12T10:43:01Z</time>
      </trkpt>
      <trkpt lat="44.82623" lon="1.14603">
        <ele>43.4</ele>
        <time>2022-08-12T10:43:02Z</time>
      </trkpt>
      <trkpt lat="44.82617" lon="1.14605">
        <ele>43.4</ele>
        <time>2022-08-12T10:43:03Z</time>
      </trkpt>
      <trkpt lat="44.82612" lon="1.14607">
        <ele>43.4</ele>
        <time>2022-08-12T10:43:04Z</time>
      </trkpt>
      <trkpt lat="44.82606" lon="1.14609">
        <ele>43.4</ele>
        <time>2022-08-12T10:43:05Z</time>
      </trkpt>
      <trkpt lat="44.826" lon="1.14611">
        <ele>43.4</ele>
        <time>2022-08-12T10:43:06Z</time>
      </trkpt>
      <trkpt lat="44.82594" lon="1.14613">
        <ele>43.4</ele>
        <time>2022-08-12T10:43:07Z</time>
      </trkpt>
      <trkpt lat="44.82589" lon="1.14615">
        <ele>43.4</ele>
        <time>2022-08-12T10:43:08Z</time>
      </trkpt>
      <trkpt lat="44.82583" lon="1.14616">
        <ele>43.4</ele>
        <time>2022-08-12T10:43:09Z</time>
      </trkpt>
      <trkpt lat="44.82577" lon="1.14617">
        <ele>43.4</ele>
        <time>2022-08-12T10:43:10Z</time>
      </trkpt>
      <trkpt lat="44.82572" lon="1.14618">
        <ele>43.4</ele>
        <time>2022-08-12T10:43:11Z</time>
      </trkpt>
      <trkpt lat="44.82566" lon="1.14619">
        <ele>42.4</ele>
        <time>2022-08-12T10:43:12Z</time>
      </trkpt>
      <trkpt lat="44.82561" lon="1.14621">
        <ele>43.4</ele>
        <time>2022-08-12T10:43:13Z</time>
      </trkpt>
      <trkpt lat="44.82556" lon="1.14622">
        <ele>43.4</ele>
        <time>2022-08-12T10:43:14Z</time>
      </trkpt>
      <trkpt lat="44.82551" lon="1.14623">
        <ele>43.4</ele>
        <time>2022-08-12T10:43:15Z</time>
      </trkpt>
      <trkpt lat="44.82547" lon="1.14624">
        <ele>43.4</ele>
        <time>2022-08-12T10:43:16Z</time>
      </trkpt>
      <trkpt lat="44.82542" lon="1.14625">
        <ele>43.4</ele>
        <time>2022-08-12T10:43:17Z</time>
      </trkpt>
      <trkpt lat="44.82537" lon="1.14627">
        <ele>43.4</ele>
        <time>2022-08-12T10:43:18Z</time>
      </trkpt>
      <trkpt lat="44.82529" lon="1.14628">
        <ele>43.4</ele>
        <time>2022-08-12T10:43:20Z</time>
      </trkpt>
      <trkpt lat="44.82524" lon="1.14627">
        <ele>43.4</ele>
        <time>2022-08-12T10:43:21Z</time>
      </trkpt>
      <trkpt lat="44.8252" lon="1.14626">
        <ele>43.4</ele>
        <time>2022-08-12T10:43:22Z</time>
      </trkpt>
      <trkpt lat="44.82511" lon="1.14626">
        <ele>42.4</ele>
        <time>2022-08-12T10:43:24Z</time>
      </trkpt>
      <trkpt lat="44.82502" lon="1.14627">
        <ele>41.4</ele>
        <time>2022-08-12T10:43:26Z</time>
      </trkpt>
      <trkpt lat="44.82497" lon="1.14628">
        <ele>40.4</ele>
        <time>2022-08-12T10:43:27Z</time>
      </trkpt>
      <trkpt lat="44.82492" lon="1.14629">
        <ele>40.4</ele>
        <time>2022-08-12T10:43:28Z</time>
      </trkpt>
      <trkpt lat="44.82486" lon="1.14629">
        <ele>39.4</ele>
        <time>2022-08-12T10:43:29Z</time>
      </trkpt>
      <trkpt lat="44.82481" lon="1.1463">
        <ele>39.4</ele>
        <time>2022-08-12T10:43:30Z</time>
      </trkpt>
      <trkpt lat="44.82475" lon="1.14631">
        <ele>39.4</ele>
        <time>2022-08-12T10:43:31Z</time>
      </trkpt>
      <trkpt lat="44.8247" lon="1.14632">
        <ele>39.4</ele>
        <time>2022-08-12T10:43:32Z</time>
      </trkpt>
      <trkpt lat="44.82464" lon="1.14633">
        <ele>39.4</ele>
        <time>2022-08-12T10:43:33Z</time>
      </trkpt>
      <trkpt lat="44.82458" lon="1.14635">
        <ele>39.4</ele>
        <time>2022-08-12T10:43:34Z</time>
      </trkpt>
      <trkpt lat="44.82452" lon="1.14636">
        <ele>39.4</ele>
        <time>2022-08-12T10:43:35Z</time>
      </trkpt>
      <trkpt lat="44.82446" lon="1.14638">
        <ele>39.4</ele>
        <time>2022-08-12T10:43:36Z</time>
      </trkpt>
      <trkpt lat="44.8244" lon="1.1464">
        <ele>40.4</ele>
        <time>2022-08-12T10:43:37Z</time>
      </trkpt>
      <trkpt lat="44.82434" lon="1.14642">
        <ele>40.4</ele>
        <time>2022-08-12T10:43:38Z</time>
      </trkpt>
      <trkpt lat="44.82428" lon="1.14644">
        <ele>41.4</ele>
        <time>2022-08-12T10:43:39Z</time>
      </trkpt>
      <trkpt lat="44.82423" lon="1.14646">
        <ele>41.4</ele>
        <time>2022-08-12T10:43:40Z</time>
      </trkpt>
      <trkpt lat="44.82417" lon="1.14648">
        <ele>42.4</ele>
        <time>2022-08-12T10:43:41Z</time>
      </trkpt>
      <trkpt lat="44.82411" lon="1.14651">
        <ele>42.4</ele>
        <time>2022-08-12T10:43:42Z</time>
      </trkpt>
      <trkpt lat="44.82405" lon="1.14653">
        <ele>43.4</ele>
        <time>2022-08-12T10:43:43Z</time>
      </trkpt>
      <trkpt lat="44.82399" lon="1.14656">
        <ele>44.4</ele>
        <time>2022-08-12T10:43:44Z</time>
      </trkpt>
      <trkpt lat="44.82388" lon="1.14662">
        <ele>46.4</ele>
        <time>2022-08-12T10:43:46Z</time>
      </trkpt>
      <trkpt lat="44.82383" lon="1.14666">
        <ele>47.4</ele>
        <time>2022-08-12T10:43:47Z</time>
      </trkpt>
      <trkpt lat="44.82378" lon="1.14668">
        <ele>48.4</ele>
        <time>2022-08-12T10:43:48Z</time>
      </trkpt>
      <trkpt lat="44.82372" lon="1.14672">
        <ele>49.4</ele>
        <time>2022-08-12T10:43:49Z</time>
      </trkpt>
      <trkpt lat="44.82366" lon="1.14675">
        <ele>49.4</ele>
        <time>2022-08-12T10:43:50Z</time>
      </trkpt>
      <trkpt lat="44.82361" lon="1.14678">
        <ele>50.4</ele>
        <time>2022-08-12T10:43:51Z</time>
      </trkpt>
      <trkpt lat="44.82355" lon="1.14682">
        <ele>50.4</ele>
        <time>2022-08-12T10:43:52Z</time>
      </trkpt>
      <trkpt lat="44.8235" lon="1.14685">
        <ele>50.4</ele>
        <time>2022-08-12T10:43:53Z</time>
      </trkpt>
      <trkpt lat="44.82345" lon="1.14689">
        <ele>50.4</ele>
        <time>2022-08-12T10:43:54Z</time>
      </trkpt>
      <trkpt lat="44.82341" lon="1.14693">
        <ele>50.4</ele>
        <time>2022-08-12T10:43:55Z</time>
      </trkpt>
      <trkpt lat="44.82336" lon="1.14697">
        <ele>50.4</ele>
        <time>2022-08-12T10:43:56Z</time>
      </trkpt>
      <trkpt lat="44.82331" lon="1.147">
        <ele>50.4</ele>
        <time>2022-08-12T10:43:57Z</time>
      </trkpt>
      <trkpt lat="44.82327" lon="1.14703">
        <ele>50.4</ele>
        <time>2022-08-12T10:43:58Z</time>
      </trkpt>
      <trkpt lat="44.82322" lon="1.14706">
        <ele>50.4</ele>
        <time>2022-08-12T10:43:59Z</time>
      </trkpt>
      <trkpt lat="44.82314" lon="1.14712">
        <ele>51.4</ele>
        <time>2022-08-12T10:44:01Z</time>
      </trkpt>
      <trkpt lat="44.8231" lon="1.14714">
        <ele>51.4</ele>
        <time>2022-08-12T10:44:02Z</time>
      </trkpt>
      <trkpt lat="44.82301" lon="1.14718">
        <ele>51.4</ele>
        <time>2022-08-12T10:44:04Z</time>
      </trkpt>
      <trkpt lat="44.82293" lon="1.14722">
        <ele>52.4</ele>
        <time>2022-08-12T10:44:06Z</time>
      </trkpt>
      <trkpt lat="44.82288" lon="1.14724">
        <ele>52.4</ele>
        <time>2022-08-12T10:44:07Z</time>
      </trkpt>
      <trkpt lat="44.82284" lon="1.14726">
        <ele>52.4</ele>
        <time>2022-08-12T10:44:08Z</time>
      </trkpt>
      <trkpt lat="44.82279" lon="1.14728">
        <ele>52.4</ele>
        <time>2022-08-12T10:44:09Z</time>
      </trkpt>
      <trkpt lat="44.82274" lon="1.1473">
        <ele>53.4</ele>
        <time>2022-08-12T10:44:10Z</time>
      </trkpt>
      <trkpt lat="44.82269" lon="1.14732">
        <ele>53.4</ele>
        <time>2022-08-12T10:44:11Z</time>
      </trkpt>
      <trkpt lat="44.82264" lon="1.14734">
        <ele>53.4</ele>
        <time>2022-08-12T10:44:12Z</time>
      </trkpt>
      <trkpt lat="44.82258" lon="1.14736">
        <ele>53.4</ele>
        <time>2022-08-12T10:44:13Z</time>
      </trkpt>
      <trkpt lat="44.82253" lon="1.14738">
        <ele>53.4</ele>
        <time>2022-08-12T10:44:14Z</time>
      </trkpt>
      <trkpt lat="44.82248" lon="1.14739">
        <ele>53.4</ele>
        <time>2022-08-12T10:44:15Z</time>
      </trkpt>
      <trkpt lat="44.82243" lon="1.1474">
        <ele>53.4</ele>
        <time>2022-08-12T10:44:16Z</time>
      </trkpt>
      <trkpt lat="44.82238" lon="1.14742">
        <ele>53.4</ele>
        <time>2022-08-12T10:44:17Z</time>
      </trkpt>
      <trkpt lat="44.82233" lon="1.14743">
        <ele>54.4</ele>
        <time>2022-08-12T10:44:18Z</time>
      </trkpt>
      <trkpt lat="44.82228" lon="1.14745">
        <ele>54.4</ele>
        <time>2022-08-12T10:44:19Z</time>
      </trkpt>
      <trkpt lat="44.82222" lon="1.14746">
        <ele>54.4</ele>
        <time>2022-08-12T10:44:20Z</time>
      </trkpt>
      <trkpt lat="44.82217" lon="1.14748">
        <ele>54.4</ele>
        <time>2022-08-12T10:44:21Z</time>
      </trkpt>
      <trkpt lat="44.82212" lon="1.14749">
        <ele>53.4</ele>
        <time>2022-08-12T10:44:22Z</time>
      </trkpt>
      <trkpt lat="44.82206" lon="1.14751">
        <ele>53.4</ele>
        <time>2022-08-12T10:44:23Z</time>
      </trkpt>
      <trkpt lat="44.82201" lon="1.14753">
        <ele>53.4</ele>
        <time>2022-08-12T10:44:24Z</time>
      </trkpt>
      <trkpt lat="44.82195" lon="1.14755">
        <ele>53.4</ele>
        <time>2022-08-12T10:44:25Z</time>
      </trkpt>
      <trkpt lat="44.82189" lon="1.14757">
        <ele>53.4</ele>
        <time>2022-08-12T10:44:26Z</time>
      </trkpt>
      <trkpt lat="44.82184" lon="1.14759">
        <ele>53.4</ele>
        <time>2022-08-12T10:44:27Z</time>
      </trkpt>
      <trkpt lat="44.82178" lon="1.14761">
        <ele>53.4</ele>
        <time>2022-08-12T10:44:28Z</time>
      </trkpt>
      <trkpt lat="44.82173" lon="1.14763">
        <ele>54.4</ele>
        <time>2022-08-12T10:44:29Z</time>
      </trkpt>
      <trkpt lat="44.82167" lon="1.14764">
        <ele>54.4</ele>
        <time>2022-08-12T10:44:30Z</time>
      </trkpt>
      <trkpt lat="44.82162" lon="1.14766">
        <ele>54.4</ele>
        <time>2022-08-12T10:44:31Z</time>
      </trkpt>
      <trkpt lat="44.82157" lon="1.14767">
        <ele>54.4</ele>
        <time>2022-08-12T10:44:32Z</time>
      </trkpt>
      <trkpt lat="44.82152" lon="1.14769">
        <ele>54.4</ele>
        <time>2022-08-12T10:44:33Z</time>
      </trkpt>
      <trkpt lat="44.82147" lon="1.14772">
        <ele>55.4</ele>
        <time>2022-08-12T10:44:34Z</time>
      </trkpt>
      <trkpt lat="44.82142" lon="1.14775">
        <ele>55.4</ele>
        <time>2022-08-12T10:44:35Z</time>
      </trkpt>
      <trkpt lat="44.82137" lon="1.14778">
        <ele>55.4</ele>
        <time>2022-08-12T10:44:36Z</time>
      </trkpt>
      <trkpt lat="44.82131" lon="1.1478">
        <ele>55.4</ele>
        <time>2022-08-12T10:44:37Z</time>
      </trkpt>
      <trkpt lat="44.82126" lon="1.14782">
        <ele>55.4</ele>
        <time>2022-08-12T10:44:38Z</time>
      </trkpt>
      <trkpt lat="44.8212" lon="1.14785">
        <ele>55.4</ele>
        <time>2022-08-12T10:44:39Z</time>
      </trkpt>
      <trkpt lat="44.82114" lon="1.14788">
        <ele>55.4</ele>
        <time>2022-08-12T10:44:40Z</time>
      </trkpt>
      <trkpt lat="44.82109" lon="1.1479">
        <ele>55.4</ele>
        <time>2022-08-12T10:44:41Z</time>
      </trkpt>
      <trkpt lat="44.82103" lon="1.14792">
        <ele>55.4</ele>
        <time>2022-08-12T10:44:42Z</time>
      </trkpt>
      <trkpt lat="44.82098" lon="1.14794">
        <ele>55.4</ele>
        <time>2022-08-12T10:44:43Z</time>
      </trkpt>
      <trkpt lat="44.82092" lon="1.14796">
        <ele>55.4</ele>
        <time>2022-08-12T10:44:44Z</time>
      </trkpt>
      <trkpt lat="44.82087" lon="1.14799">
        <ele>55.4</ele>
        <time>2022-08-12T10:44:45Z</time>
      </trkpt>
      <trkpt lat="44.82081" lon="1.14801">
        <ele>55.4</ele>
        <time>2022-08-12T10:44:46Z</time>
      </trkpt>
      <trkpt lat="44.82075" lon="1.14803">
        <ele>56.4</ele>
        <time>2022-08-12T10:44:47Z</time>
      </trkpt>
      <trkpt lat="44.8207" lon="1.14805">
        <ele>56.4</ele>
        <time>2022-08-12T10:44:48Z</time>
      </trkpt>
      <trkpt lat="44.82064" lon="1.14807">
        <ele>56.4</ele>
        <time>2022-08-12T10:44:49Z</time>
      </trkpt>
      <trkpt lat="44.82058" lon="1.14809">
        <ele>56.4</ele>
        <time>2022-08-12T10:44:50Z</time>
      </trkpt>
      <trkpt lat="44.82053" lon="1.1481">
        <ele>56.4</ele>
        <time>2022-08-12T10:44:51Z</time>
      </trkpt>
      <trkpt lat="44.82048" lon="1.14812">
        <ele>55.4</ele>
        <time>2022-08-12T10:44:52Z</time>
      </trkpt>
      <trkpt lat="44.82042" lon="1.14813">
        <ele>55.4</ele>
        <time>2022-08-12T10:44:53Z</time>
      </trkpt>
      <trkpt lat="44.82038" lon="1.14813">
        <ele>56.4</ele>
        <time>2022-08-12T10:44:54Z</time>
      </trkpt>
      <trkpt lat="44.82032" lon="1.14814">
        <ele>56.4</ele>
        <time>2022-08-12T10:44:55Z</time>
      </trkpt>
      <trkpt lat="44.82028" lon="1.14815">
        <ele>56.4</ele>
        <time>2022-08-12T10:44:56Z</time>
      </trkpt>
      <trkpt lat="44.82022" lon="1.14815">
        <ele>56.4</ele>
        <time>2022-08-12T10:44:57Z</time>
      </trkpt>
      <trkpt lat="44.82017" lon="1.14816">
        <ele>55.4</ele>
        <time>2022-08-12T10:44:58Z</time>
      </trkpt>
      <trkpt lat="44.82012" lon="1.14818">
        <ele>56.4</ele>
        <time>2022-08-12T10:44:59Z</time>
      </trkpt>
      <trkpt lat="44.82006" lon="1.14819">
        <ele>56.4</ele>
        <time>2022-08-12T10:45:00Z</time>
      </trkpt>
      <trkpt lat="44.82001" lon="1.1482">
        <ele>56.4</ele>
        <time>2022-08-12T10:45:01Z</time>
      </trkpt>
      <trkpt lat="44.81995" lon="1.14821">
        <ele>57.4</ele>
        <time>2022-08-12T10:45:02Z</time>
      </trkpt>
      <trkpt lat="44.8199" lon="1.14821">
        <ele>57.4</ele>
        <time>2022-08-12T10:45:03Z</time>
      </trkpt>
      <trkpt lat="44.81985" lon="1.14822">
        <ele>56.4</ele>
        <time>2022-08-12T10:45:04Z</time>
      </trkpt>
      <trkpt lat="44.81979" lon="1.14823">
        <ele>56.4</ele>
        <time>2022-08-12T10:45:05Z</time>
      </trkpt>
      <trkpt lat="44.81974" lon="1.14824">
        <ele>56.4</ele>
        <time>2022-08-12T10:45:06Z</time>
      </trkpt>
      <trkpt lat="44.81969" lon="1.14824">
        <ele>56.4</ele>
        <time>2022-08-12T10:45:07Z</time>
      </trkpt>
      <trkpt lat="44.81964" lon="1.14825">
        <ele>56.4</ele>
        <time>2022-08-12T10:45:08Z</time>
      </trkpt>
      <trkpt lat="44.81958" lon="1.14826">
        <ele>56.4</ele>
        <time>2022-08-12T10:45:09Z</time>
      </trkpt>
      <trkpt lat="44.81953" lon="1.14827">
        <ele>56.4</ele>
        <time>2022-08-12T10:45:10Z</time>
      </trkpt>
      <trkpt lat="44.81948" lon="1.14828">
        <ele>56.4</ele>
        <time>2022-08-12T10:45:11Z</time>
      </trkpt>
      <trkpt lat="44.81943" lon="1.14828">
        <ele>56.4</ele>
        <time>2022-08-12T10:45:12Z</time>
      </trkpt>
      <trkpt lat="44.81938" lon="1.1483">
        <ele>55.4</ele>
        <time>2022-08-12T10:45:13Z</time>
      </trkpt>
      <trkpt lat="44.81933" lon="1.14831">
        <ele>55.4</ele>
        <time>2022-08-12T10:45:14Z</time>
      </trkpt>
      <trkpt lat="44.81928" lon="1.14832">
        <ele>55.4</ele>
        <time>2022-08-12T10:45:15Z</time>
      </trkpt>
      <trkpt lat="44.81922" lon="1.14833">
        <ele>55.4</ele>
        <time>2022-08-12T10:45:16Z</time>
      </trkpt>
      <trkpt lat="44.81916" lon="1.14835">
        <ele>55.4</ele>
        <time>2022-08-12T10:45:17Z</time>
      </trkpt>
      <trkpt lat="44.81904" lon="1.1484">
        <ele>54.4</ele>
        <time>2022-08-12T10:45:19Z</time>
      </trkpt>
      <trkpt lat="44.81898" lon="1.14842">
        <ele>54.4</ele>
        <time>2022-08-12T10:45:20Z</time>
      </trkpt>
      <trkpt lat="44.81892" lon="1.14844">
        <ele>54.4</ele>
        <time>2022-08-12T10:45:21Z</time>
      </trkpt>
      <trkpt lat="44.81885" lon="1.14846">
        <ele>54.4</ele>
        <time>2022-08-12T10:45:22Z</time>
      </trkpt>
      <trkpt lat="44.81879" lon="1.14849">
        <ele>54.4</ele>
        <time>2022-08-12T10:45:23Z</time>
      </trkpt>
      <trkpt lat="44.81874" lon="1.14852">
        <ele>54.4</ele>
        <time>2022-08-12T10:45:24Z</time>
      </trkpt>
      <trkpt lat="44.81868" lon="1.14854">
        <ele>53.4</ele>
        <time>2022-08-12T10:45:25Z</time>
      </trkpt>
      <trkpt lat="44.81862" lon="1.14857">
        <ele>54.4</ele>
        <time>2022-08-12T10:45:26Z</time>
      </trkpt>
      <trkpt lat="44.81856" lon="1.14861">
        <ele>54.4</ele>
        <time>2022-08-12T10:45:27Z</time>
      </trkpt>
      <trkpt lat="44.8185" lon="1.14865">
        <ele>54.4</ele>
        <time>2022-08-12T10:45:28Z</time>
      </trkpt>
      <trkpt lat="44.81844" lon="1.14868">
        <ele>54.4</ele>
        <time>2022-08-12T10:45:29Z</time>
      </trkpt>
      <trkpt lat="44.81838" lon="1.14872">
        <ele>54.4</ele>
        <time>2022-08-12T10:45:30Z</time>
      </trkpt>
      <trkpt lat="44.81832" lon="1.14875">
        <ele>54.4</ele>
        <time>2022-08-12T10:45:31Z</time>
      </trkpt>
      <trkpt lat="44.81826" lon="1.14877">
        <ele>54.4</ele>
        <time>2022-08-12T10:45:32Z</time>
      </trkpt>
      <trkpt lat="44.8182" lon="1.1488">
        <ele>54.4</ele>
        <time>2022-08-12T10:45:33Z</time>
      </trkpt>
      <trkpt lat="44.81814" lon="1.14882">
        <ele>54.4</ele>
        <time>2022-08-12T10:45:34Z</time>
      </trkpt>
      <trkpt lat="44.81809" lon="1.14885">
        <ele>54.4</ele>
        <time>2022-08-12T10:45:35Z</time>
      </trkpt>
      <trkpt lat="44.81803" lon="1.14888">
        <ele>54.4</ele>
        <time>2022-08-12T10:45:36Z</time>
      </trkpt>
      <trkpt lat="44.81797" lon="1.14892">
        <ele>54.4</ele>
        <time>2022-08-12T10:45:37Z</time>
      </trkpt>
      <trkpt lat="44.81792" lon="1.14895">
        <ele>54.4</ele>
        <time>2022-08-12T10:45:38Z</time>
      </trkpt>
      <trkpt lat="44.81786" lon="1.14898">
        <ele>54.4</ele>
        <time>2022-08-12T10:45:39Z</time>
      </trkpt>
      <trkpt lat="44.81781" lon="1.14901">
        <ele>54.4</ele>
        <time>2022-08-12T10:45:40Z</time>
      </trkpt>
      <trkpt lat="44.81776" lon="1.14905">
        <ele>54.4</ele>
        <time>2022-08-12T10:45:41Z</time>
      </trkpt>
      <trkpt lat="44.81771" lon="1.14908">
        <ele>54.4</ele>
        <time>2022-08-12T10:45:42Z</time>
      </trkpt>
      <trkpt lat="44.81766" lon="1.14911">
        <ele>54.4</ele>
        <time>2022-08-12T10:45:43Z</time>
      </trkpt>
      <trkpt lat="44.8176" lon="1.14914">
        <ele>54.4</ele>
        <time>2022-08-12T10:45:44Z</time>
      </trkpt>
      <trkpt lat="44.81755" lon="1.14917">
        <ele>54.4</ele>
        <time>2022-08-12T10:45:45Z</time>
      </trkpt>
      <trkpt lat="44.8175" lon="1.1492">
        <ele>53.4</ele>
        <time>2022-08-12T10:45:46Z</time>
      </trkpt>
      <trkpt lat="44.81745" lon="1.14923">
        <ele>53.4</ele>
        <time>2022-08-12T10:45:47Z</time>
      </trkpt>
      <trkpt lat="44.81739" lon="1.14926">
        <ele>53.4</ele>
        <time>2022-08-12T10:45:48Z</time>
      </trkpt>
      <trkpt lat="44.81734" lon="1.14929">
        <ele>53.4</ele>
        <time>2022-08-12T10:45:49Z</time>
      </trkpt>
      <trkpt lat="44.81729" lon="1.14933">
        <ele>53.4</ele>
        <time>2022-08-12T10:45:50Z</time>
      </trkpt>
      <trkpt lat="44.81724" lon="1.14936">
        <ele>53.4</ele>
        <time>2022-08-12T10:45:51Z</time>
      </trkpt>
      <trkpt lat="44.81718" lon="1.14939">
        <ele>53.4</ele>
        <time>2022-08-12T10:45:52Z</time>
      </trkpt>
      <trkpt lat="44.81711" lon="1.14942">
        <ele>53.4</ele>
        <time>2022-08-12T10:45:53Z</time>
      </trkpt>
      <trkpt lat="44.81705" lon="1.14944">
        <ele>53.4</ele>
        <time>2022-08-12T10:45:54Z</time>
      </trkpt>
      <trkpt lat="44.81698" lon="1.14947">
        <ele>52.4</ele>
        <time>2022-08-12T10:45:55Z</time>
      </trkpt>
      <trkpt lat="44.81692" lon="1.1495">
        <ele>52.4</ele>
        <time>2022-08-12T10:45:56Z</time>
      </trkpt>
      <trkpt lat="44.81686" lon="1.14953">
        <ele>52.4</ele>
        <time>2022-08-12T10:45:57Z</time>
      </trkpt>
      <trkpt lat="44.8168" lon="1.14956">
        <ele>52.4</ele>
        <time>2022-08-12T10:45:58Z</time>
      </trkpt>
      <trkpt lat="44.81674" lon="1.1496">
        <ele>52.4</ele>
        <time>2022-08-12T10:45:59Z</time>
      </trkpt>
      <trkpt lat="44.81668" lon="1.14963">
        <ele>52.4</ele>
        <time>2022-08-12T10:46:00Z</time>
      </trkpt>
      <trkpt lat="44.81662" lon="1.14966">
        <ele>52.4</ele>
        <time>2022-08-12T10:46:01Z</time>
      </trkpt>
      <trkpt lat="44.81656" lon="1.14969">
        <ele>52.4</ele>
        <time>2022-08-12T10:46:02Z</time>
      </trkpt>
      <trkpt lat="44.8165" lon="1.14972">
        <ele>52.4</ele>
        <time>2022-08-12T10:46:03Z</time>
      </trkpt>
      <trkpt lat="44.81643" lon="1.14975">
        <ele>52.4</ele>
        <time>2022-08-12T10:46:04Z</time>
      </trkpt>
      <trkpt lat="44.81638" lon="1.14978">
        <ele>52.4</ele>
        <time>2022-08-12T10:46:05Z</time>
      </trkpt>
      <trkpt lat="44.81634" lon="1.14981">
        <ele>51.4</ele>
        <time>2022-08-12T10:46:06Z</time>
      </trkpt>
      <trkpt lat="44.81628" lon="1.14985">
        <ele>52.4</ele>
        <time>2022-08-12T10:46:07Z</time>
      </trkpt>
      <trkpt lat="44.81624" lon="1.14988">
        <ele>52.4</ele>
        <time>2022-08-12T10:46:08Z</time>
      </trkpt>
      <trkpt lat="44.81617" lon="1.14992">
        <ele>52.4</ele>
        <time>2022-08-12T10:46:10Z</time>
      </trkpt>
      <trkpt lat="44.81613" lon="1.14996">
        <ele>52.4</ele>
        <time>2022-08-12T10:46:12Z</time>
      </trkpt>
      <trkpt lat="44.81606" lon="1.15">
        <ele>53.4</ele>
        <time>2022-08-12T10:46:15Z</time>
      </trkpt>
      <trkpt lat="44.816" lon="1.15005">
        <ele>53.4</ele>
        <time>2022-08-12T10:46:17Z</time>
      </trkpt>
      <trkpt lat="44.81593" lon="1.15011">
        <ele>54.4</ele>
        <time>2022-08-12T10:46:19Z</time>
      </trkpt>
      <trkpt lat="44.81584" lon="1.15017">
        <ele>55.4</ele>
        <time>2022-08-12T10:46:21Z</time>
      </trkpt>
      <trkpt lat="44.8158" lon="1.1502">
        <ele>54.4</ele>
        <time>2022-08-12T10:46:22Z</time>
      </trkpt>
      <trkpt lat="44.81571" lon="1.15024">
        <ele>55.4</ele>
        <time>2022-08-12T10:46:24Z</time>
      </trkpt>
      <trkpt lat="44.81567" lon="1.15026">
        <ele>55.4</ele>
        <time>2022-08-12T10:46:25Z</time>
      </trkpt>
      <trkpt lat="44.81562" lon="1.15028">
        <ele>55.4</ele>
        <time>2022-08-12T10:46:26Z</time>
      </trkpt>
      <trkpt lat="44.81558" lon="1.1503">
        <ele>55.4</ele>
        <time>2022-08-12T10:46:27Z</time>
      </trkpt>
      <trkpt lat="44.81553" lon="1.15032">
        <ele>55.4</ele>
        <time>2022-08-12T10:46:28Z</time>
      </trkpt>
      <trkpt lat="44.81549" lon="1.15034">
        <ele>54.4</ele>
        <time>2022-08-12T10:46:29Z</time>
      </trkpt>
      <trkpt lat="44.81544" lon="1.15037">
        <ele>54.4</ele>
        <time>2022-08-12T10:46:30Z</time>
      </trkpt>
      <trkpt lat="44.81539" lon="1.15039">
        <ele>55.4</ele>
        <time>2022-08-12T10:46:31Z</time>
      </trkpt>
      <trkpt lat="44.81535" lon="1.15042">
        <ele>55.4</ele>
        <time>2022-08-12T10:46:32Z</time>
      </trkpt>
      <trkpt lat="44.81526" lon="1.15048">
        <ele>55.4</ele>
        <time>2022-08-12T10:46:34Z</time>
      </trkpt>
      <trkpt lat="44.81521" lon="1.1505">
        <ele>55.4</ele>
        <time>2022-08-12T10:46:35Z</time>
      </trkpt>
      <trkpt lat="44.81517" lon="1.15052">
        <ele>55.4</ele>
        <time>2022-08-12T10:46:36Z</time>
      </trkpt>
      <trkpt lat="44.81513" lon="1.15055">
        <ele>55.4</ele>
        <time>2022-08-12T10:46:37Z</time>
      </trkpt>
      <trkpt lat="44.81508" lon="1.15058">
        <ele>56.4</ele>
        <time>2022-08-12T10:46:38Z</time>
      </trkpt>
      <trkpt lat="44.81504" lon="1.1506">
        <ele>56.4</ele>
        <time>2022-08-12T10:46:39Z</time>
      </trkpt>
      <trkpt lat="44.815" lon="1.15061">
        <ele>56.4</ele>
        <time>2022-08-12T10:46:40Z</time>
      </trkpt>
      <trkpt lat="44.81492" lon="1.15065">
        <ele>57.4</ele>
        <time>2022-08-12T10:46:42Z</time>
      </trkpt>
      <trkpt lat="44.81488" lon="1.15069">
        <ele>57.4</ele>
        <time>2022-08-12T10:46:43Z</time>
      </trkpt>
      <trkpt lat="44.81482" lon="1.15074">
        <ele>57.4</ele>
        <time>2022-08-12T10:46:45Z</time>
      </trkpt>
      <trkpt lat="44.81476" lon="1.15077">
        <ele>57.4</ele>
        <time>2022-08-12T10:46:47Z</time>
      </trkpt>
      <trkpt lat="44.8147" lon="1.15082">
        <ele>57.4</ele>
        <time>2022-08-12T10:46:49Z</time>
      </trkpt>
      <trkpt lat="44.81463" lon="1.15086">
        <ele>57.4</ele>
        <time>2022-08-12T10:46:51Z</time>
      </trkpt>
      <trkpt lat="44.81457" lon="1.15088">
        <ele>57.4</ele>
        <time>2022-08-12T10:46:53Z</time>
      </trkpt>
      <trkpt lat="44.8145" lon="1.15092">
        <ele>57.4</ele>
        <time>2022-08-12T10:46:55Z</time>
      </trkpt>
      <trkpt lat="44.81442" lon="1.15097">
        <ele>57.4</ele>
        <time>2022-08-12T10:46:57Z</time>
      </trkpt>
      <trkpt lat="44.81437" lon="1.15099">
        <ele>57.4</ele>
        <time>2022-08-12T10:46:58Z</time>
      </trkpt>
      <trkpt lat="44.8143" lon="1.15101">
        <ele>56.4</ele>
        <time>2022-08-12T10:47:00Z</time>
      </trkpt>
      <trkpt lat="44.81421" lon="1.15106">
        <ele>55.4</ele>
        <time>2022-08-12T10:47:02Z</time>
      </trkpt>
      <trkpt lat="44.81413" lon="1.15111">
        <ele>55.4</ele>
        <time>2022-08-12T10:47:04Z</time>
      </trkpt>
      <trkpt lat="44.81405" lon="1.15114">
        <ele>56.4</ele>
        <time>2022-08-12T10:47:06Z</time>
      </trkpt>
      <trkpt lat="44.81397" lon="1.15116">
        <ele>55.4</ele>
        <time>2022-08-12T10:47:08Z</time>
      </trkpt>
      <trkpt lat="44.8139" lon="1.15118">
        <ele>55.4</ele>
        <time>2022-08-12T10:47:10Z</time>
      </trkpt>
      <trkpt lat="44.81383" lon="1.1512">
        <ele>55.4</ele>
        <time>2022-08-12T10:47:12Z</time>
      </trkpt>
      <trkpt lat="44.81377" lon="1.15123">
        <ele>54.4</ele>
        <time>2022-08-12T10:47:14Z</time>
      </trkpt>
      <trkpt lat="44.81373" lon="1.15128">
        <ele>54.4</ele>
        <time>2022-08-12T10:47:16Z</time>
      </trkpt>
      <trkpt lat="44.81369" lon="1.15134">
        <ele>54.4</ele>
        <time>2022-08-12T10:47:19Z</time>
      </trkpt>
      <trkpt lat="44.81368" lon="1.15141">
        <ele>54.4</ele>
        <time>2022-08-12T10:47:21Z</time>
      </trkpt>
      <trkpt lat="44.81369" lon="1.15149">
        <ele>54.4</ele>
        <time>2022-08-12T10:47:23Z</time>
      </trkpt>
      <trkpt lat="44.81367" lon="1.15158">
        <ele>55.4</ele>
        <time>2022-08-12T10:47:25Z</time>
      </trkpt>
      <trkpt lat="44.81364" lon="1.15163">
        <ele>56.4</ele>
        <time>2022-08-12T10:47:27Z</time>
      </trkpt>
      <trkpt lat="44.81361" lon="1.15167">
        <ele>56.4</ele>
        <time>2022-08-12T10:47:29Z</time>
      </trkpt>
      <trkpt lat="44.81357" lon="1.15173">
        <ele>56.4</ele>
        <time>2022-08-12T10:47:32Z</time>
      </trkpt>
      <trkpt lat="44.81351" lon="1.15175">
        <ele>55.4</ele>
        <time>2022-08-12T10:47:35Z</time>
      </trkpt>
      <trkpt lat="44.81354" lon="1.15181">
        <ele>52.4</ele>
        <time>2022-08-12T10:47:50Z</time>
      </trkpt>
      <trkpt lat="44.81359" lon="1.15182">
        <ele>53.4</ele>
        <time>2022-08-12T10:47:54Z</time>
      </trkpt>
      <trkpt lat="44.81365" lon="1.15182">
        <ele>54.4</ele>
        <time>2022-08-12T10:47:58Z</time>
      </trkpt>
      <trkpt lat="44.81369" lon="1.15179">
        <ele>53.4</ele>
        <time>2022-08-12T10:48:07Z</time>
      </trkpt>
      <trkpt lat="44.81402" lon="1.15387">
        <ele>71.6</ele>
        <time>2022-08-12T12:17:03Z</time>
      </trkpt>
      <trkpt lat="44.81272" lon="1.15298">
        <ele>63.4</ele>
        <time>2022-08-12T15:29:26Z</time>
      </trkpt>
      <trkpt lat="44.81272" lon="1.15291">
        <ele>65.4</ele>
        <time>2022-08-12T15:30:48Z</time>
      </trkpt>
      <trkpt lat="44.81272" lon="1.15285">
        <ele>65.4</ele>
        <time>2022-08-12T15:30:50Z</time>
      </trkpt>
      <trkpt lat="44.8127" lon="1.15276">
        <ele>64.4</ele>
        <time>2022-08-12T15:30:53Z</time>
      </trkpt>
      <trkpt lat="44.81267" lon="1.15268">
        <ele>64.4</ele>
        <time>2022-08-12T15:30:55Z</time>
      </trkpt>
      <trkpt lat="44.81265" lon="1.15262">
        <ele>65.4</ele>
        <time>2022-08-12T15:30:57Z</time>
      </trkpt>
      <trkpt lat="44.81263" lon="1.15254">
        <ele>65.4</ele>
        <time>2022-08-12T15:31:00Z</time>
      </trkpt>
      <trkpt lat="44.81259" lon="1.15251">
        <ele>65.4</ele>
        <time>2022-08-12T15:31:08Z</time>
      </trkpt>
      <trkpt lat="44.81254" lon="1.15244">
        <ele>66.4</ele>
        <time>2022-08-12T15:31:12Z</time>
      </trkpt>
      <trkpt lat="44.81252" lon="1.15237">
        <ele>66.4</ele>
        <time>2022-08-12T15:31:14Z</time>
      </trkpt>
      <trkpt lat="44.81247" lon="1.15229">
        <ele>65.4</ele>
        <time>2022-08-12T15:31:16Z</time>
      </trkpt>
      <trkpt lat="44.8124" lon="1.15228">
        <ele>65.4</ele>
        <time>2022-08-12T15:31:18Z</time>
      </trkpt>
      <trkpt lat="44.81234" lon="1.1523">
        <ele>65.4</ele>
        <time>2022-08-12T15:31:20Z</time>
      </trkpt>
      <trkpt lat="44.81229" lon="1.15234">
        <ele>64.4</ele>
        <time>2022-08-12T15:31:22Z</time>
      </trkpt>
      <trkpt lat="44.81223" lon="1.15238">
        <ele>63.4</ele>
        <time>2022-08-12T15:31:24Z</time>
      </trkpt>
      <trkpt lat="44.81216" lon="1.15242">
        <ele>64.4</ele>
        <time>2022-08-12T15:31:26Z</time>
      </trkpt>
      <trkpt lat="44.8121" lon="1.15246">
        <ele>64.4</ele>
        <time>2022-08-12T15:31:28Z</time>
      </trkpt>
      <trkpt lat="44.81203" lon="1.15249">
        <ele>64.4</ele>
        <time>2022-08-12T15:31:30Z</time>
      </trkpt>
      <trkpt lat="44.81196" lon="1.15254">
        <ele>66.4</ele>
        <time>2022-08-12T15:31:32Z</time>
      </trkpt>
      <trkpt lat="44.81189" lon="1.15257">
        <ele>66.4</ele>
        <time>2022-08-12T15:31:34Z</time>
      </trkpt>
      <trkpt lat="44.81183" lon="1.15261">
        <ele>66.4</ele>
        <time>2022-08-12T15:31:36Z</time>
      </trkpt>
      <trkpt lat="44.81177" lon="1.15265">
        <ele>67.4</ele>
        <time>2022-08-12T15:31:38Z</time>
      </trkpt>
      <trkpt lat="44.81171" lon="1.15269">
        <ele>67.4</ele>
        <time>2022-08-12T15:31:40Z</time>
      </trkpt>
      <trkpt lat="44.81165" lon="1.15272">
        <ele>67.4</ele>
        <time>2022-08-12T15:31:42Z</time>
      </trkpt>
      <trkpt lat="44.81159" lon="1.15275">
        <ele>68.4</ele>
        <time>2022-08-12T15:31:44Z</time>
      </trkpt>
      <trkpt lat="44.81154" lon="1.15276">
        <ele>68.4</ele>
        <time>2022-08-12T15:31:46Z</time>
      </trkpt>
      <trkpt lat="44.81149" lon="1.15278">
        <ele>69.4</ele>
        <time>2022-08-12T15:31:48Z</time>
      </trkpt>
      <trkpt lat="44.81143" lon="1.1528">
        <ele>69.4</ele>
        <time>2022-08-12T15:31:51Z</time>
      </trkpt>
      <trkpt lat="44.81137" lon="1.15283">
        <ele>68.4</ele>
        <time>2022-08-12T15:31:53Z</time>
      </trkpt>
      <trkpt lat="44.81131" lon="1.15288">
        <ele>67.4</ele>
        <time>2022-08-12T15:31:55Z</time>
      </trkpt>
      <trkpt lat="44.81125" lon="1.15292">
        <ele>67.4</ele>
        <time>2022-08-12T15:31:57Z</time>
      </trkpt>
      <trkpt lat="44.81119" lon="1.15296">
        <ele>66.4</ele>
        <time>2022-08-12T15:31:59Z</time>
      </trkpt>
      <trkpt lat="44.81113" lon="1.15299">
        <ele>66.4</ele>
        <time>2022-08-12T15:32:01Z</time>
      </trkpt>
      <trkpt lat="44.81105" lon="1.15303">
        <ele>67.4</ele>
        <time>2022-08-12T15:32:03Z</time>
      </trkpt>
      <trkpt lat="44.81101" lon="1.15306">
        <ele>67.4</ele>
        <time>2022-08-12T15:32:04Z</time>
      </trkpt>
      <trkpt lat="44.81092" lon="1.15309">
        <ele>66.4</ele>
        <time>2022-08-12T15:32:06Z</time>
      </trkpt>
      <trkpt lat="44.81088" lon="1.15311">
        <ele>66.4</ele>
        <time>2022-08-12T15:32:06Z</time>
      </trkpt>
      <trkpt lat="44.81083" lon="1.15313">
        <ele>65.4</ele>
        <time>2022-08-12T15:32:08Z</time>
      </trkpt>
      <trkpt lat="44.81076" lon="1.15314">
        <ele>65.4</ele>
        <time>2022-08-12T15:32:10Z</time>
      </trkpt>
      <trkpt lat="44.81069" lon="1.15316">
        <ele>64.4</ele>
        <time>2022-08-12T15:32:12Z</time>
      </trkpt>
      <trkpt lat="44.81064" lon="1.15318">
        <ele>64.4</ele>
        <time>2022-08-12T15:32:13Z</time>
      </trkpt>
      <trkpt lat="44.81055" lon="1.15322">
        <ele>64.4</ele>
        <time>2022-08-12T15:32:15Z</time>
      </trkpt>
      <trkpt lat="44.81051" lon="1.15325">
        <ele>64.4</ele>
        <time>2022-08-12T15:32:16Z</time>
      </trkpt>
      <trkpt lat="44.81046" lon="1.15328">
        <ele>65.4</ele>
        <time>2022-08-12T15:32:17Z</time>
      </trkpt>
      <trkpt lat="44.81041" lon="1.15331">
        <ele>66.4</ele>
        <time>2022-08-12T15:32:18Z</time>
      </trkpt>
      <trkpt lat="44.81037" lon="1.15334">
        <ele>66.4</ele>
        <time>2022-08-12T15:32:19Z</time>
      </trkpt>
      <trkpt lat="44.81033" lon="1.15337">
        <ele>66.4</ele>
        <time>2022-08-12T15:32:20Z</time>
      </trkpt>
      <trkpt lat="44.81025" lon="1.15342">
        <ele>66.4</ele>
        <time>2022-08-12T15:32:22Z</time>
      </trkpt>
      <trkpt lat="44.8102" lon="1.15345">
        <ele>66.4</ele>
        <time>2022-08-12T15:32:23Z</time>
      </trkpt>
      <trkpt lat="44.81012" lon="1.1535">
        <ele>67.4</ele>
        <time>2022-08-12T15:32:25Z</time>
      </trkpt>
      <trkpt lat="44.81004" lon="1.15353">
        <ele>67.4</ele>
        <time>2022-08-12T15:32:27Z</time>
      </trkpt>
      <trkpt lat="44.80997" lon="1.15357">
        <ele>67.4</ele>
        <time>2022-08-12T15:32:29Z</time>
      </trkpt>
      <trkpt lat="44.8099" lon="1.1536">
        <ele>67.4</ele>
        <time>2022-08-12T15:32:31Z</time>
      </trkpt>
      <trkpt lat="44.80983" lon="1.15362">
        <ele>67.4</ele>
        <time>2022-08-12T15:32:33Z</time>
      </trkpt>
      <trkpt lat="44.80977" lon="1.15363">
        <ele>67.4</ele>
        <time>2022-08-12T15:32:35Z</time>
      </trkpt>
      <trkpt lat="44.80972" lon="1.15363">
        <ele>67.4</ele>
        <time>2022-08-12T15:32:37Z</time>
      </trkpt>
      <trkpt lat="44.80966" lon="1.15363">
        <ele>67.4</ele>
        <time>2022-08-12T15:32:40Z</time>
      </trkpt>
      <trkpt lat="44.80961" lon="1.15362">
        <ele>67.4</ele>
        <time>2022-08-12T15:32:42Z</time>
      </trkpt>
      <trkpt lat="44.80956" lon="1.15364">
        <ele>67.4</ele>
        <time>2022-08-12T15:32:44Z</time>
      </trkpt>
      <trkpt lat="44.80949" lon="1.15368">
        <ele>66.4</ele>
        <time>2022-08-12T15:32:46Z</time>
      </trkpt>
      <trkpt lat="44.80944" lon="1.15371">
        <ele>66.4</ele>
        <time>2022-08-12T15:32:47Z</time>
      </trkpt>
      <trkpt lat="44.80939" lon="1.15374">
        <ele>65.4</ele>
        <time>2022-08-12T15:32:47Z</time>
      </trkpt>
      <trkpt lat="44.80933" lon="1.15376">
        <ele>65.4</ele>
        <time>2022-08-12T15:32:49Z</time>
      </trkpt>
      <trkpt lat="44.80927" lon="1.15379">
        <ele>64.4</ele>
        <time>2022-08-12T15:32:50Z</time>
      </trkpt>
      <trkpt lat="44.80921" lon="1.15382">
        <ele>64.4</ele>
        <time>2022-08-12T15:32:51Z</time>
      </trkpt>
      <trkpt lat="44.80915" lon="1.15386">
        <ele>63.4</ele>
        <time>2022-08-12T15:32:52Z</time>
      </trkpt>
      <trkpt lat="44.80909" lon="1.1539">
        <ele>63.4</ele>
        <time>2022-08-12T15:32:53Z</time>
      </trkpt>
      <trkpt lat="44.80904" lon="1.15394">
        <ele>62.4</ele>
        <time>2022-08-12T15:32:54Z</time>
      </trkpt>
      <trkpt lat="44.80899" lon="1.15398">
        <ele>62.4</ele>
        <time>2022-08-12T15:32:55Z</time>
      </trkpt>
      <trkpt lat="44.80893" lon="1.15402">
        <ele>63.4</ele>
        <time>2022-08-12T15:32:56Z</time>
      </trkpt>
      <trkpt lat="44.80886" lon="1.15407">
        <ele>64.4</ele>
        <time>2022-08-12T15:32:57Z</time>
      </trkpt>
      <trkpt lat="44.8088" lon="1.15411">
        <ele>65.4</ele>
        <time>2022-08-12T15:32:58Z</time>
      </trkpt>
      <trkpt lat="44.80874" lon="1.15415">
        <ele>65.4</ele>
        <time>2022-08-12T15:32:59Z</time>
      </trkpt>
      <trkpt lat="44.8087" lon="1.15418">
        <ele>66.4</ele>
        <time>2022-08-12T15:33:00Z</time>
      </trkpt>
      <trkpt lat="44.80864" lon="1.15423">
        <ele>66.4</ele>
        <time>2022-08-12T15:33:02Z</time>
      </trkpt>
      <trkpt lat="44.80859" lon="1.15426">
        <ele>66.4</ele>
        <time>2022-08-12T15:33:04Z</time>
      </trkpt>
      <trkpt lat="44.80854" lon="1.15429">
        <ele>66.4</ele>
        <time>2022-08-12T15:33:06Z</time>
      </trkpt>
      <trkpt lat="44.80851" lon="1.15433">
        <ele>66.4</ele>
        <time>2022-08-12T15:33:08Z</time>
      </trkpt>
      <trkpt lat="44.80849" lon="1.15438">
        <ele>65.4</ele>
        <time>2022-08-12T15:33:10Z</time>
      </trkpt>
      <trkpt lat="44.80849" lon="1.15445">
        <ele>65.4</ele>
        <time>2022-08-12T15:33:12Z</time>
      </trkpt>
      <trkpt lat="44.80851" lon="1.15453">
        <ele>66.4</ele>
        <time>2022-08-12T15:33:15Z</time>
      </trkpt>
      <trkpt lat="44.80853" lon="1.15462">
        <ele>67.4</ele>
        <time>2022-08-12T15:33:18Z</time>
      </trkpt>
      <trkpt lat="44.80853" lon="1.15469">
        <ele>67.4</ele>
        <time>2022-08-12T15:33:21Z</time>
      </trkpt>
      <trkpt lat="44.8085" lon="1.15477">
        <ele>67.4</ele>
        <time>2022-08-12T15:33:23Z</time>
      </trkpt>
      <trkpt lat="44.80846" lon="1.15485">
        <ele>66.4</ele>
        <time>2022-08-12T15:33:25Z</time>
      </trkpt>
      <trkpt lat="44.80842" lon="1.15493">
        <ele>66.4</ele>
        <time>2022-08-12T15:33:27Z</time>
      </trkpt>
      <trkpt lat="44.80839" lon="1.15501">
        <ele>66.4</ele>
        <time>2022-08-12T15:33:29Z</time>
      </trkpt>
      <trkpt lat="44.80835" lon="1.1551">
        <ele>66.4</ele>
        <time>2022-08-12T15:33:31Z</time>
      </trkpt>
      <trkpt lat="44.80831" lon="1.15519">
        <ele>67.4</ele>
        <time>2022-08-12T15:33:33Z</time>
      </trkpt>
      <trkpt lat="44.80827" lon="1.1553">
        <ele>69.4</ele>
        <time>2022-08-12T15:33:35Z</time>
      </trkpt>
      <trkpt lat="44.80823" lon="1.1554">
        <ele>70.4</ele>
        <time>2022-08-12T15:33:37Z</time>
      </trkpt>
      <trkpt lat="44.8082" lon="1.15546">
        <ele>71.4</ele>
        <time>2022-08-12T15:33:38Z</time>
      </trkpt>
      <trkpt lat="44.80815" lon="1.15555">
        <ele>72.4</ele>
        <time>2022-08-12T15:33:40Z</time>
      </trkpt>
      <trkpt lat="44.80811" lon="1.15564">
        <ele>72.4</ele>
        <time>2022-08-12T15:33:42Z</time>
      </trkpt>
      <trkpt lat="44.80806" lon="1.15573">
        <ele>72.4</ele>
        <time>2022-08-12T15:33:44Z</time>
      </trkpt>
      <trkpt lat="44.80802" lon="1.15581">
        <ele>72.4</ele>
        <time>2022-08-12T15:33:46Z</time>
      </trkpt>
      <trkpt lat="44.80798" lon="1.15589">
        <ele>73.4</ele>
        <time>2022-08-12T15:33:48Z</time>
      </trkpt>
      <trkpt lat="44.80794" lon="1.15596">
        <ele>73.4</ele>
        <time>2022-08-12T15:33:50Z</time>
      </trkpt>
      <trkpt lat="44.8079" lon="1.15605">
        <ele>73.4</ele>
        <time>2022-08-12T15:33:52Z</time>
      </trkpt>
      <trkpt lat="44.80788" lon="1.1561">
        <ele>73.4</ele>
        <time>2022-08-12T15:33:53Z</time>
      </trkpt>
      <trkpt lat="44.80783" lon="1.15621">
        <ele>73.4</ele>
        <time>2022-08-12T15:33:55Z</time>
      </trkpt>
      <trkpt lat="44.8078" lon="1.15626">
        <ele>72.4</ele>
        <time>2022-08-12T15:33:56Z</time>
      </trkpt>
      <trkpt lat="44.80777" lon="1.15631">
        <ele>72.4</ele>
        <time>2022-08-12T15:33:57Z</time>
      </trkpt>
      <trkpt lat="44.80771" lon="1.15639">
        <ele>73.4</ele>
        <time>2022-08-12T15:33:59Z</time>
      </trkpt>
      <trkpt lat="44.80765" lon="1.15647">
        <ele>73.4</ele>
        <time>2022-08-12T15:34:01Z</time>
      </trkpt>
      <trkpt lat="44.80758" lon="1.15653">
        <ele>72.4</ele>
        <time>2022-08-12T15:34:03Z</time>
      </trkpt>
      <trkpt lat="44.80752" lon="1.15658">
        <ele>72.4</ele>
        <time>2022-08-12T15:34:05Z</time>
      </trkpt>
      <trkpt lat="44.80745" lon="1.15664">
        <ele>72.4</ele>
        <time>2022-08-12T15:34:07Z</time>
      </trkpt>
      <trkpt lat="44.80741" lon="1.15667">
        <ele>72.4</ele>
        <time>2022-08-12T15:34:08Z</time>
      </trkpt>
      <trkpt lat="44.80732" lon="1.15672">
        <ele>72.4</ele>
        <time>2022-08-12T15:34:10Z</time>
      </trkpt>
      <trkpt lat="44.80727" lon="1.15675">
        <ele>72.4</ele>
        <time>2022-08-12T15:34:11Z</time>
      </trkpt>
      <trkpt lat="44.80723" lon="1.15678">
        <ele>73.4</ele>
        <time>2022-08-12T15:34:12Z</time>
      </trkpt>
      <trkpt lat="44.80718" lon="1.15681">
        <ele>73.4</ele>
        <time>2022-08-12T15:34:13Z</time>
      </trkpt>
      <trkpt lat="44.80714" lon="1.15684">
        <ele>73.4</ele>
        <time>2022-08-12T15:34:14Z</time>
      </trkpt>
      <trkpt lat="44.80709" lon="1.15687">
        <ele>73.4</ele>
        <time>2022-08-12T15:34:15Z</time>
      </trkpt>
      <trkpt lat="44.80705" lon="1.1569">
        <ele>73.4</ele>
        <time>2022-08-12T15:34:16Z</time>
      </trkpt>
      <trkpt lat="44.80697" lon="1.15696">
        <ele>73.4</ele>
        <time>2022-08-12T15:34:18Z</time>
      </trkpt>
      <trkpt lat="44.80693" lon="1.157">
        <ele>73.4</ele>
        <time>2022-08-12T15:34:19Z</time>
      </trkpt>
      <trkpt lat="44.80688" lon="1.15703">
        <ele>73.4</ele>
        <time>2022-08-12T15:34:20Z</time>
      </trkpt>
      <trkpt lat="44.80684" lon="1.15706">
        <ele>73.4</ele>
        <time>2022-08-12T15:34:21Z</time>
      </trkpt>
      <trkpt lat="44.8068" lon="1.15709">
        <ele>73.4</ele>
        <time>2022-08-12T15:34:22Z</time>
      </trkpt>
      <trkpt lat="44.80676" lon="1.15712">
        <ele>73.4</ele>
        <time>2022-08-12T15:34:23Z</time>
      </trkpt>
      <trkpt lat="44.80668" lon="1.15717">
        <ele>72.4</ele>
        <time>2022-08-12T15:34:25Z</time>
      </trkpt>
      <trkpt lat="44.80661" lon="1.15722">
        <ele>73.4</ele>
        <time>2022-08-12T15:34:27Z</time>
      </trkpt>
      <trkpt lat="44.80654" lon="1.15725">
        <ele>73.4</ele>
        <time>2022-08-12T15:34:29Z</time>
      </trkpt>
      <trkpt lat="44.80648" lon="1.15729">
        <ele>73.4</ele>
        <time>2022-08-12T15:34:30Z</time>
      </trkpt>
      <trkpt lat="44.80641" lon="1.15733">
        <ele>72.4</ele>
        <time>2022-08-12T15:34:33Z</time>
      </trkpt>
      <trkpt lat="44.80633" lon="1.15738">
        <ele>72.4</ele>
        <time>2022-08-12T15:34:35Z</time>
      </trkpt>
      <trkpt lat="44.80627" lon="1.15744">
        <ele>71.4</ele>
        <time>2022-08-12T15:34:37Z</time>
      </trkpt>
      <trkpt lat="44.8062" lon="1.15748">
        <ele>71.4</ele>
        <time>2022-08-12T15:34:39Z</time>
      </trkpt>
      <trkpt lat="44.80612" lon="1.15752">
        <ele>71.4</ele>
        <time>2022-08-12T15:34:41Z</time>
      </trkpt>
      <trkpt lat="44.80605" lon="1.15757">
        <ele>71.4</ele>
        <time>2022-08-12T15:34:43Z</time>
      </trkpt>
      <trkpt lat="44.80597" lon="1.15762">
        <ele>71.4</ele>
        <time>2022-08-12T15:34:45Z</time>
      </trkpt>
      <trkpt lat="44.80589" lon="1.15768">
        <ele>70.4</ele>
        <time>2022-08-12T15:34:47Z</time>
      </trkpt>
      <trkpt lat="44.80585" lon="1.15771">
        <ele>70.4</ele>
        <time>2022-08-12T15:34:48Z</time>
      </trkpt>
      <trkpt lat="44.80581" lon="1.15774">
        <ele>70.4</ele>
        <time>2022-08-12T15:34:49Z</time>
      </trkpt>
      <trkpt lat="44.80577" lon="1.15778">
        <ele>69.4</ele>
        <time>2022-08-12T15:34:50Z</time>
      </trkpt>
      <trkpt lat="44.80573" lon="1.15781">
        <ele>69.4</ele>
        <time>2022-08-12T15:34:51Z</time>
      </trkpt>
      <trkpt lat="44.80569" lon="1.15784">
        <ele>69.4</ele>
        <time>2022-08-12T15:34:52Z</time>
      </trkpt>
      <trkpt lat="44.80565" lon="1.15788">
        <ele>69.4</ele>
        <time>2022-08-12T15:34:53Z</time>
      </trkpt>
      <trkpt lat="44.8056" lon="1.15791">
        <ele>69.4</ele>
        <time>2022-08-12T15:34:54Z</time>
      </trkpt>
      <trkpt lat="44.80556" lon="1.15793">
        <ele>69.4</ele>
        <time>2022-08-12T15:34:55Z</time>
      </trkpt>
      <trkpt lat="44.80551" lon="1.15797">
        <ele>69.4</ele>
        <time>2022-08-12T15:34:56Z</time>
      </trkpt>
      <trkpt lat="44.80547" lon="1.158">
        <ele>69.4</ele>
        <time>2022-08-12T15:34:57Z</time>
      </trkpt>
      <trkpt lat="44.80542" lon="1.15803">
        <ele>69.4</ele>
        <time>2022-08-12T15:34:58Z</time>
      </trkpt>
      <trkpt lat="44.80538" lon="1.15806">
        <ele>69.4</ele>
        <time>2022-08-12T15:34:59Z</time>
      </trkpt>
      <trkpt lat="44.80533" lon="1.15809">
        <ele>69.4</ele>
        <time>2022-08-12T15:35:00Z</time>
      </trkpt>
      <trkpt lat="44.80526" lon="1.15815">
        <ele>68.4</ele>
        <time>2022-08-12T15:35:02Z</time>
      </trkpt>
      <trkpt lat="44.80522" lon="1.15818">
        <ele>68.4</ele>
        <time>2022-08-12T15:35:03Z</time>
      </trkpt>
      <trkpt lat="44.80518" lon="1.15822">
        <ele>68.4</ele>
        <time>2022-08-12T15:35:04Z</time>
      </trkpt>
      <trkpt lat="44.80511" lon="1.15829">
        <ele>68.4</ele>
        <time>2022-08-12T15:35:06Z</time>
      </trkpt>
      <trkpt lat="44.80504" lon="1.15835">
        <ele>69.4</ele>
        <time>2022-08-12T15:35:08Z</time>
      </trkpt>
      <trkpt lat="44.80498" lon="1.15843">
        <ele>68.4</ele>
        <time>2022-08-12T15:35:10Z</time>
      </trkpt>
      <trkpt lat="44.80491" lon="1.1585">
        <ele>68.4</ele>
        <time>2022-08-12T15:35:12Z</time>
      </trkpt>
      <trkpt lat="44.80484" lon="1.15857">
        <ele>68.4</ele>
        <time>2022-08-12T15:35:14Z</time>
      </trkpt>
      <trkpt lat="44.80476" lon="1.15864">
        <ele>68.4</ele>
        <time>2022-08-12T15:35:16Z</time>
      </trkpt>
      <trkpt lat="44.80472" lon="1.15868">
        <ele>68.4</ele>
        <time>2022-08-12T15:35:17Z</time>
      </trkpt>
      <trkpt lat="44.80467" lon="1.15874">
        <ele>64.4</ele>
        <time>2022-08-12T15:35:19Z</time>
      </trkpt>
      <trkpt lat="44.80462" lon="1.15879">
        <ele>63.4</ele>
        <time>2022-08-12T15:35:21Z</time>
      </trkpt>
      <trkpt lat="44.80457" lon="1.15884">
        <ele>63.4</ele>
        <time>2022-08-12T15:35:23Z</time>
      </trkpt>
      <trkpt lat="44.8045" lon="1.1589">
        <ele>64.4</ele>
        <time>2022-08-12T15:35:25Z</time>
      </trkpt>
      <trkpt lat="44.80443" lon="1.15895">
        <ele>64.4</ele>
        <time>2022-08-12T15:35:27Z</time>
      </trkpt>
      <trkpt lat="44.80437" lon="1.159">
        <ele>65.4</ele>
        <time>2022-08-12T15:35:29Z</time>
      </trkpt>
      <trkpt lat="44.80431" lon="1.15907">
        <ele>65.4</ele>
        <time>2022-08-12T15:35:31Z</time>
      </trkpt>
      <trkpt lat="44.80426" lon="1.15913">
        <ele>65.4</ele>
        <time>2022-08-12T15:35:33Z</time>
      </trkpt>
      <trkpt lat="44.8042" lon="1.15917">
        <ele>65.4</ele>
        <time>2022-08-12T15:35:35Z</time>
      </trkpt>
      <trkpt lat="44.80414" lon="1.15921">
        <ele>64.4</ele>
        <time>2022-08-12T15:35:37Z</time>
      </trkpt>
      <trkpt lat="44.80407" lon="1.15926">
        <ele>64.4</ele>
        <time>2022-08-12T15:35:39Z</time>
      </trkpt>
      <trkpt lat="44.80403" lon="1.1593">
        <ele>64.4</ele>
        <time>2022-08-12T15:35:40Z</time>
      </trkpt>
      <trkpt lat="44.80399" lon="1.15933">
        <ele>63.4</ele>
        <time>2022-08-12T15:35:40Z</time>
      </trkpt>
      <trkpt lat="44.80395" lon="1.15937">
        <ele>63.4</ele>
        <time>2022-08-12T15:35:41Z</time>
      </trkpt>
      <trkpt lat="44.80391" lon="1.15942">
        <ele>63.4</ele>
        <time>2022-08-12T15:35:43Z</time>
      </trkpt>
      <trkpt lat="44.80387" lon="1.15946">
        <ele>64.4</ele>
        <time>2022-08-12T15:35:44Z</time>
      </trkpt>
      <trkpt lat="44.80383" lon="1.15951">
        <ele>64.4</ele>
        <time>2022-08-12T15:35:45Z</time>
      </trkpt>
      <trkpt lat="44.80376" lon="1.15959">
        <ele>63.4</ele>
        <time>2022-08-12T15:35:47Z</time>
      </trkpt>
      <trkpt lat="44.80373" lon="1.15964">
        <ele>64.4</ele>
        <time>2022-08-12T15:35:48Z</time>
      </trkpt>
      <trkpt lat="44.80369" lon="1.15968">
        <ele>64.4</ele>
        <time>2022-08-12T15:35:49Z</time>
      </trkpt>
      <trkpt lat="44.80365" lon="1.15972">
        <ele>64.4</ele>
        <time>2022-08-12T15:35:50Z</time>
      </trkpt>
      <trkpt lat="44.80359" lon="1.15981">
        <ele>65.4</ele>
        <time>2022-08-12T15:35:52Z</time>
      </trkpt>
      <trkpt lat="44.80352" lon="1.15988">
        <ele>66.4</ele>
        <time>2022-08-12T15:35:54Z</time>
      </trkpt>
      <trkpt lat="44.80346" lon="1.15996">
        <ele>66.4</ele>
        <time>2022-08-12T15:35:56Z</time>
      </trkpt>
      <trkpt lat="44.8034" lon="1.16005">
        <ele>66.4</ele>
        <time>2022-08-12T15:35:58Z</time>
      </trkpt>
      <trkpt lat="44.80334" lon="1.16011">
        <ele>66.4</ele>
        <time>2022-08-12T15:36:00Z</time>
      </trkpt>
      <trkpt lat="44.80327" lon="1.16019">
        <ele>66.4</ele>
        <time>2022-08-12T15:36:02Z</time>
      </trkpt>
      <trkpt lat="44.8032" lon="1.16026">
        <ele>67.4</ele>
        <time>2022-08-12T15:36:04Z</time>
      </trkpt>
      <trkpt lat="44.80316" lon="1.1603">
        <ele>66.4</ele>
        <time>2022-08-12T15:36:05Z</time>
      </trkpt>
      <trkpt lat="44.80312" lon="1.16033">
        <ele>66.4</ele>
        <time>2022-08-12T15:36:06Z</time>
      </trkpt>
      <trkpt lat="44.80307" lon="1.16037">
        <ele>67.4</ele>
        <time>2022-08-12T15:36:07Z</time>
      </trkpt>
      <trkpt lat="44.80303" lon="1.1604">
        <ele>67.4</ele>
        <time>2022-08-12T15:36:08Z</time>
      </trkpt>
      <trkpt lat="44.80299" lon="1.16043">
        <ele>67.4</ele>
        <time>2022-08-12T15:36:09Z</time>
      </trkpt>
      <trkpt lat="44.80295" lon="1.16047">
        <ele>68.4</ele>
        <time>2022-08-12T15:36:10Z</time>
      </trkpt>
      <trkpt lat="44.8029" lon="1.1605">
        <ele>68.4</ele>
        <time>2022-08-12T15:36:11Z</time>
      </trkpt>
      <trkpt lat="44.80286" lon="1.16054">
        <ele>68.4</ele>
        <time>2022-08-12T15:36:12Z</time>
      </trkpt>
      <trkpt lat="44.80282" lon="1.16057">
        <ele>68.4</ele>
        <time>2022-08-12T15:36:13Z</time>
      </trkpt>
      <trkpt lat="44.80277" lon="1.1606">
        <ele>68.4</ele>
        <time>2022-08-12T15:36:14Z</time>
      </trkpt>
      <trkpt lat="44.8027" lon="1.16066">
        <ele>68.4</ele>
        <time>2022-08-12T15:36:16Z</time>
      </trkpt>
      <trkpt lat="44.80262" lon="1.16071">
        <ele>68.4</ele>
        <time>2022-08-12T15:36:18Z</time>
      </trkpt>
      <trkpt lat="44.80258" lon="1.16073">
        <ele>68.4</ele>
        <time>2022-08-12T15:36:19Z</time>
      </trkpt>
      <trkpt lat="44.8025" lon="1.16076">
        <ele>69.4</ele>
        <time>2022-08-12T15:36:21Z</time>
      </trkpt>
      <trkpt lat="44.80245" lon="1.16078">
        <ele>69.4</ele>
        <time>2022-08-12T15:36:22Z</time>
      </trkpt>
      <trkpt lat="44.80238" lon="1.16081">
        <ele>69.4</ele>
        <time>2022-08-12T15:36:24Z</time>
      </trkpt>
      <trkpt lat="44.80227" lon="1.16088">
        <ele>70.4</ele>
        <time>2022-08-12T15:36:27Z</time>
      </trkpt>
      <trkpt lat="44.80223" lon="1.1609">
        <ele>70.4</ele>
        <time>2022-08-12T15:36:28Z</time>
      </trkpt>
      <trkpt lat="44.80219" lon="1.16092">
        <ele>70.4</ele>
        <time>2022-08-12T15:36:29Z</time>
      </trkpt>
      <trkpt lat="44.80214" lon="1.16095">
        <ele>70.4</ele>
        <time>2022-08-12T15:36:30Z</time>
      </trkpt>
      <trkpt lat="44.80206" lon="1.16099">
        <ele>70.4</ele>
        <time>2022-08-12T15:36:32Z</time>
      </trkpt>
      <trkpt lat="44.80199" lon="1.16103">
        <ele>71.4</ele>
        <time>2022-08-12T15:36:34Z</time>
      </trkpt>
      <trkpt lat="44.80189" lon="1.16109">
        <ele>70.4</ele>
        <time>2022-08-12T15:36:37Z</time>
      </trkpt>
      <trkpt lat="44.80181" lon="1.16114">
        <ele>71.4</ele>
        <time>2022-08-12T15:36:39Z</time>
      </trkpt>
      <trkpt lat="44.80173" lon="1.16119">
        <ele>71.4</ele>
        <time>2022-08-12T15:36:41Z</time>
      </trkpt>
      <trkpt lat="44.80165" lon="1.16124">
        <ele>71.4</ele>
        <time>2022-08-12T15:36:43Z</time>
      </trkpt>
      <trkpt lat="44.80158" lon="1.16129">
        <ele>71.4</ele>
        <time>2022-08-12T15:36:45Z</time>
      </trkpt>
      <trkpt lat="44.8015" lon="1.16133">
        <ele>71.4</ele>
        <time>2022-08-12T15:36:47Z</time>
      </trkpt>
      <trkpt lat="44.80144" lon="1.16137">
        <ele>71.4</ele>
        <time>2022-08-12T15:36:49Z</time>
      </trkpt>
      <trkpt lat="44.80137" lon="1.1614">
        <ele>72.4</ele>
        <time>2022-08-12T15:36:50Z</time>
      </trkpt>
      <trkpt lat="44.8013" lon="1.16143">
        <ele>71.4</ele>
        <time>2022-08-12T15:36:53Z</time>
      </trkpt>
      <trkpt lat="44.80123" lon="1.16147">
        <ele>71.4</ele>
        <time>2022-08-12T15:36:55Z</time>
      </trkpt>
      <trkpt lat="44.80114" lon="1.16151">
        <ele>72.4</ele>
        <time>2022-08-12T15:36:57Z</time>
      </trkpt>
      <trkpt lat="44.80102" lon="1.16159">
        <ele>72.4</ele>
        <time>2022-08-12T15:37:00Z</time>
      </trkpt>
      <trkpt lat="44.80095" lon="1.16165">
        <ele>72.4</ele>
        <time>2022-08-12T15:37:02Z</time>
      </trkpt>
      <trkpt lat="44.80087" lon="1.16172">
        <ele>72.4</ele>
        <time>2022-08-12T15:37:04Z</time>
      </trkpt>
      <trkpt lat="44.80084" lon="1.16176">
        <ele>72.4</ele>
        <time>2022-08-12T15:37:05Z</time>
      </trkpt>
      <trkpt lat="44.80076" lon="1.16184">
        <ele>72.4</ele>
        <time>2022-08-12T15:37:07Z</time>
      </trkpt>
      <trkpt lat="44.80072" lon="1.16188">
        <ele>72.4</ele>
        <time>2022-08-12T15:37:08Z</time>
      </trkpt>
      <trkpt lat="44.80068" lon="1.16192">
        <ele>72.4</ele>
        <time>2022-08-12T15:37:09Z</time>
      </trkpt>
      <trkpt lat="44.80064" lon="1.16195">
        <ele>72.4</ele>
        <time>2022-08-12T15:37:10Z</time>
      </trkpt>
      <trkpt lat="44.8006" lon="1.16199">
        <ele>73.4</ele>
        <time>2022-08-12T15:37:11Z</time>
      </trkpt>
      <trkpt lat="44.80056" lon="1.16204">
        <ele>73.4</ele>
        <time>2022-08-12T15:37:12Z</time>
      </trkpt>
      <trkpt lat="44.80052" lon="1.16208">
        <ele>73.4</ele>
        <time>2022-08-12T15:37:13Z</time>
      </trkpt>
      <trkpt lat="44.80044" lon="1.16214">
        <ele>73.4</ele>
        <time>2022-08-12T15:37:15Z</time>
      </trkpt>
      <trkpt lat="44.80035" lon="1.16214">
        <ele>73.4</ele>
        <time>2022-08-12T15:37:17Z</time>
      </trkpt>
      <trkpt lat="44.80026" lon="1.16214">
        <ele>72.4</ele>
        <time>2022-08-12T15:37:19Z</time>
      </trkpt>
      <trkpt lat="44.80018" lon="1.16213">
        <ele>72.4</ele>
        <time>2022-08-12T15:37:21Z</time>
      </trkpt>
      <trkpt lat="44.8001" lon="1.16211">
        <ele>71.4</ele>
        <time>2022-08-12T15:37:23Z</time>
      </trkpt>
      <trkpt lat="44.80002" lon="1.16208">
        <ele>71.4</ele>
        <time>2022-08-12T15:37:25Z</time>
      </trkpt>
      <trkpt lat="44.79994" lon="1.16205">
        <ele>71.4</ele>
        <time>2022-08-12T15:37:27Z</time>
      </trkpt>
      <trkpt lat="44.79987" lon="1.16204">
        <ele>70.4</ele>
        <time>2022-08-12T15:37:29Z</time>
      </trkpt>
      <trkpt lat="44.79979" lon="1.16203">
        <ele>70.4</ele>
        <time>2022-08-12T15:37:31Z</time>
      </trkpt>
      <trkpt lat="44.7997" lon="1.16205">
        <ele>69.4</ele>
        <time>2022-08-12T15:37:33Z</time>
      </trkpt>
      <trkpt lat="44.79962" lon="1.16207">
        <ele>68.4</ele>
        <time>2022-08-12T15:37:35Z</time>
      </trkpt>
      <trkpt lat="44.79953" lon="1.16212">
        <ele>68.4</ele>
        <time>2022-08-12T15:37:37Z</time>
      </trkpt>
      <trkpt lat="44.79949" lon="1.16214">
        <ele>68.4</ele>
        <time>2022-08-12T15:37:38Z</time>
      </trkpt>
      <trkpt lat="44.79944" lon="1.16216">
        <ele>68.4</ele>
        <time>2022-08-12T15:37:39Z</time>
      </trkpt>
      <trkpt lat="44.7994" lon="1.16217">
        <ele>68.4</ele>
        <time>2022-08-12T15:37:40Z</time>
      </trkpt>
      <trkpt lat="44.79931" lon="1.1622">
        <ele>67.4</ele>
        <time>2022-08-12T15:37:42Z</time>
      </trkpt>
      <trkpt lat="44.79927" lon="1.16221">
        <ele>67.4</ele>
        <time>2022-08-12T15:37:43Z</time>
      </trkpt>
      <trkpt lat="44.79922" lon="1.16224">
        <ele>66.4</ele>
        <time>2022-08-12T15:37:44Z</time>
      </trkpt>
      <trkpt lat="44.79918" lon="1.16227">
        <ele>66.4</ele>
        <time>2022-08-12T15:37:44Z</time>
      </trkpt>
      <trkpt lat="44.7991" lon="1.16233">
        <ele>66.4</ele>
        <time>2022-08-12T15:37:47Z</time>
      </trkpt>
      <trkpt lat="44.79906" lon="1.16236">
        <ele>66.4</ele>
        <time>2022-08-12T15:37:48Z</time>
      </trkpt>
      <trkpt lat="44.79902" lon="1.16241">
        <ele>66.4</ele>
        <time>2022-08-12T15:37:48Z</time>
      </trkpt>
      <trkpt lat="44.79899" lon="1.16246">
        <ele>66.4</ele>
        <time>2022-08-12T15:37:50Z</time>
      </trkpt>
      <trkpt lat="44.79896" lon="1.16252">
        <ele>67.4</ele>
        <time>2022-08-12T15:37:51Z</time>
      </trkpt>
      <trkpt lat="44.79892" lon="1.16258">
        <ele>67.4</ele>
        <time>2022-08-12T15:37:52Z</time>
      </trkpt>
      <trkpt lat="44.79889" lon="1.16264">
        <ele>66.4</ele>
        <time>2022-08-12T15:37:53Z</time>
      </trkpt>
      <trkpt lat="44.79885" lon="1.16269">
        <ele>66.4</ele>
        <time>2022-08-12T15:37:54Z</time>
      </trkpt>
      <trkpt lat="44.79881" lon="1.16274">
        <ele>67.4</ele>
        <time>2022-08-12T15:37:55Z</time>
      </trkpt>
      <trkpt lat="44.79877" lon="1.16278">
        <ele>67.4</ele>
        <time>2022-08-12T15:37:56Z</time>
      </trkpt>
      <trkpt lat="44.79873" lon="1.16282">
        <ele>67.4</ele>
        <time>2022-08-12T15:37:57Z</time>
      </trkpt>
      <trkpt lat="44.79868" lon="1.16286">
        <ele>67.4</ele>
        <time>2022-08-12T15:37:58Z</time>
      </trkpt>
      <trkpt lat="44.79863" lon="1.1629">
        <ele>68.4</ele>
        <time>2022-08-12T15:37:59Z</time>
      </trkpt>
      <trkpt lat="44.79859" lon="1.16293">
        <ele>69.4</ele>
        <time>2022-08-12T15:38:00Z</time>
      </trkpt>
      <trkpt lat="44.79854" lon="1.16296">
        <ele>69.4</ele>
        <time>2022-08-12T15:38:01Z</time>
      </trkpt>
      <trkpt lat="44.7985" lon="1.16299">
        <ele>70.4</ele>
        <time>2022-08-12T15:38:02Z</time>
      </trkpt>
      <trkpt lat="44.79846" lon="1.16303">
        <ele>70.4</ele>
        <time>2022-08-12T15:38:03Z</time>
      </trkpt>
      <trkpt lat="44.79841" lon="1.16305">
        <ele>71.4</ele>
        <time>2022-08-12T15:38:04Z</time>
      </trkpt>
      <trkpt lat="44.79837" lon="1.16309">
        <ele>71.4</ele>
        <time>2022-08-12T15:38:05Z</time>
      </trkpt>
      <trkpt lat="44.79833" lon="1.16312">
        <ele>71.4</ele>
        <time>2022-08-12T15:38:06Z</time>
      </trkpt>
      <trkpt lat="44.79828" lon="1.16316">
        <ele>71.4</ele>
        <time>2022-08-12T15:38:07Z</time>
      </trkpt>
      <trkpt lat="44.79821" lon="1.16322">
        <ele>71.4</ele>
        <time>2022-08-12T15:38:09Z</time>
      </trkpt>
      <trkpt lat="44.79817" lon="1.16325">
        <ele>71.4</ele>
        <time>2022-08-12T15:38:10Z</time>
      </trkpt>
      <trkpt lat="44.79812" lon="1.16328">
        <ele>71.4</ele>
        <time>2022-08-12T15:38:11Z</time>
      </trkpt>
      <trkpt lat="44.79808" lon="1.16332">
        <ele>71.4</ele>
        <time>2022-08-12T15:38:12Z</time>
      </trkpt>
      <trkpt lat="44.79803" lon="1.16334">
        <ele>71.4</ele>
        <time>2022-08-12T15:38:13Z</time>
      </trkpt>
      <trkpt lat="44.79798" lon="1.16337">
        <ele>71.4</ele>
        <time>2022-08-12T15:38:14Z</time>
      </trkpt>
      <trkpt lat="44.79794" lon="1.1634">
        <ele>71.4</ele>
        <time>2022-08-12T15:38:15Z</time>
      </trkpt>
      <trkpt lat="44.7979" lon="1.16342">
        <ele>71.4</ele>
        <time>2022-08-12T15:38:16Z</time>
      </trkpt>
      <trkpt lat="44.79785" lon="1.16345">
        <ele>71.4</ele>
        <time>2022-08-12T15:38:17Z</time>
      </trkpt>
      <trkpt lat="44.7978" lon="1.16348">
        <ele>71.4</ele>
        <time>2022-08-12T15:38:18Z</time>
      </trkpt>
      <trkpt lat="44.79776" lon="1.16351">
        <ele>71.4</ele>
        <time>2022-08-12T15:38:19Z</time>
      </trkpt>
      <trkpt lat="44.79771" lon="1.16354">
        <ele>71.4</ele>
        <time>2022-08-12T15:38:20Z</time>
      </trkpt>
      <trkpt lat="44.79766" lon="1.16358">
        <ele>71.4</ele>
        <time>2022-08-12T15:38:21Z</time>
      </trkpt>
      <trkpt lat="44.79761" lon="1.16361">
        <ele>72.4</ele>
        <time>2022-08-12T15:38:22Z</time>
      </trkpt>
      <trkpt lat="44.79756" lon="1.16365">
        <ele>72.4</ele>
        <time>2022-08-12T15:38:23Z</time>
      </trkpt>
      <trkpt lat="44.79752" lon="1.16368">
        <ele>72.4</ele>
        <time>2022-08-12T15:38:24Z</time>
      </trkpt>
      <trkpt lat="44.79747" lon="1.16371">
        <ele>73.4</ele>
        <time>2022-08-12T15:38:25Z</time>
      </trkpt>
      <trkpt lat="44.79742" lon="1.16373">
        <ele>73.4</ele>
        <time>2022-08-12T15:38:26Z</time>
      </trkpt>
      <trkpt lat="44.79737" lon="1.16376">
        <ele>74.4</ele>
        <time>2022-08-12T15:38:27Z</time>
      </trkpt>
      <trkpt lat="44.79732" lon="1.16379">
        <ele>74.4</ele>
        <time>2022-08-12T15:38:28Z</time>
      </trkpt>
      <trkpt lat="44.79727" lon="1.16382">
        <ele>74.4</ele>
        <time>2022-08-12T15:38:29Z</time>
      </trkpt>
      <trkpt lat="44.79723" lon="1.16386">
        <ele>74.4</ele>
        <time>2022-08-12T15:38:30Z</time>
      </trkpt>
      <trkpt lat="44.79719" lon="1.1639">
        <ele>74.4</ele>
        <time>2022-08-12T15:38:31Z</time>
      </trkpt>
      <trkpt lat="44.79714" lon="1.16394">
        <ele>74.4</ele>
        <time>2022-08-12T15:38:32Z</time>
      </trkpt>
      <trkpt lat="44.79709" lon="1.16397">
        <ele>74.4</ele>
        <time>2022-08-12T15:38:33Z</time>
      </trkpt>
      <trkpt lat="44.79705" lon="1.164">
        <ele>74.4</ele>
        <time>2022-08-12T15:38:34Z</time>
      </trkpt>
      <trkpt lat="44.797" lon="1.16403">
        <ele>74.4</ele>
        <time>2022-08-12T15:38:35Z</time>
      </trkpt>
      <trkpt lat="44.79695" lon="1.16407">
        <ele>74.4</ele>
        <time>2022-08-12T15:38:36Z</time>
      </trkpt>
      <trkpt lat="44.7969" lon="1.1641">
        <ele>74.4</ele>
        <time>2022-08-12T15:38:37Z</time>
      </trkpt>
      <trkpt lat="44.79685" lon="1.16414">
        <ele>74.4</ele>
        <time>2022-08-12T15:38:38Z</time>
      </trkpt>
      <trkpt lat="44.7968" lon="1.16418">
        <ele>74.4</ele>
        <time>2022-08-12T15:38:39Z</time>
      </trkpt>
      <trkpt lat="44.79675" lon="1.16422">
        <ele>74.4</ele>
        <time>2022-08-12T15:38:40Z</time>
      </trkpt>
      <trkpt lat="44.79671" lon="1.16425">
        <ele>73.4</ele>
        <time>2022-08-12T15:38:41Z</time>
      </trkpt>
      <trkpt lat="44.79666" lon="1.16429">
        <ele>73.4</ele>
        <time>2022-08-12T15:38:42Z</time>
      </trkpt>
      <trkpt lat="44.79661" lon="1.16432">
        <ele>73.4</ele>
        <time>2022-08-12T15:38:43Z</time>
      </trkpt>
      <trkpt lat="44.79656" lon="1.16435">
        <ele>74.4</ele>
        <time>2022-08-12T15:38:44Z</time>
      </trkpt>
      <trkpt lat="44.79651" lon="1.16438">
        <ele>74.4</ele>
        <time>2022-08-12T15:38:45Z</time>
      </trkpt>
      <trkpt lat="44.79646" lon="1.16442">
        <ele>74.4</ele>
        <time>2022-08-12T15:38:46Z</time>
      </trkpt>
      <trkpt lat="44.79642" lon="1.16446">
        <ele>74.4</ele>
        <time>2022-08-12T15:38:47Z</time>
      </trkpt>
      <trkpt lat="44.79638" lon="1.16451">
        <ele>74.4</ele>
        <time>2022-08-12T15:38:48Z</time>
      </trkpt>
      <trkpt lat="44.79633" lon="1.16455">
        <ele>75.4</ele>
        <time>2022-08-12T15:38:49Z</time>
      </trkpt>
      <trkpt lat="44.79629" lon="1.1646">
        <ele>75.4</ele>
        <time>2022-08-12T15:38:50Z</time>
      </trkpt>
      <trkpt lat="44.79625" lon="1.16464">
        <ele>75.4</ele>
        <time>2022-08-12T15:38:51Z</time>
      </trkpt>
      <trkpt lat="44.79621" lon="1.16469">
        <ele>75.4</ele>
        <time>2022-08-12T15:38:52Z</time>
      </trkpt>
      <trkpt lat="44.79616" lon="1.16473">
        <ele>75.4</ele>
        <time>2022-08-12T15:38:53Z</time>
      </trkpt>
      <trkpt lat="44.79612" lon="1.16478">
        <ele>76.4</ele>
        <time>2022-08-12T15:38:54Z</time>
      </trkpt>
      <trkpt lat="44.79608" lon="1.16482">
        <ele>76.4</ele>
        <time>2022-08-12T15:38:55Z</time>
      </trkpt>
      <trkpt lat="44.79601" lon="1.1649">
        <ele>76.4</ele>
        <time>2022-08-12T15:38:57Z</time>
      </trkpt>
      <trkpt lat="44.79596" lon="1.16493">
        <ele>76.4</ele>
        <time>2022-08-12T15:38:58Z</time>
      </trkpt>
      <trkpt lat="44.79592" lon="1.16497">
        <ele>75.4</ele>
        <time>2022-08-12T15:38:59Z</time>
      </trkpt>
      <trkpt lat="44.79587" lon="1.16501">
        <ele>75.4</ele>
        <time>2022-08-12T15:39:00Z</time>
      </trkpt>
      <trkpt lat="44.79583" lon="1.16505">
        <ele>76.4</ele>
        <time>2022-08-12T15:39:01Z</time>
      </trkpt>
      <trkpt lat="44.79578" lon="1.1651">
        <ele>76.4</ele>
        <time>2022-08-12T15:39:01Z</time>
      </trkpt>
      <trkpt lat="44.79572" lon="1.16513">
        <ele>76.4</ele>
        <time>2022-08-12T15:39:03Z</time>
      </trkpt>
      <trkpt lat="44.79567" lon="1.16517">
        <ele>76.4</ele>
        <time>2022-08-12T15:39:04Z</time>
      </trkpt>
      <trkpt lat="44.79558" lon="1.16524">
        <ele>76.4</ele>
        <time>2022-08-12T15:39:06Z</time>
      </trkpt>
      <trkpt lat="44.79554" lon="1.16528">
        <ele>76.4</ele>
        <time>2022-08-12T15:39:07Z</time>
      </trkpt>
      <trkpt lat="44.79547" lon="1.16533">
        <ele>75.4</ele>
        <time>2022-08-12T15:39:09Z</time>
      </trkpt>
      <trkpt lat="44.79541" lon="1.16537">
        <ele>75.4</ele>
        <time>2022-08-12T15:39:11Z</time>
      </trkpt>
      <trkpt lat="44.79537" lon="1.16538">
        <ele>75.4</ele>
        <time>2022-08-12T15:39:13Z</time>
      </trkpt>
      <trkpt lat="44.79531" lon="1.16543">
        <ele>74.4</ele>
        <time>2022-08-12T15:39:15Z</time>
      </trkpt>
      <trkpt lat="44.79526" lon="1.16549">
        <ele>74.4</ele>
        <time>2022-08-12T15:39:18Z</time>
      </trkpt>
      <trkpt lat="44.79522" lon="1.16556">
        <ele>74.4</ele>
        <time>2022-08-12T15:39:20Z</time>
      </trkpt>
      <trkpt lat="44.79519" lon="1.16565">
        <ele>74.4</ele>
        <time>2022-08-12T15:39:22Z</time>
      </trkpt>
      <trkpt lat="44.79516" lon="1.16575">
        <ele>74.4</ele>
        <time>2022-08-12T15:39:24Z</time>
      </trkpt>
      <trkpt lat="44.79514" lon="1.16587">
        <ele>74.4</ele>
        <time>2022-08-12T15:39:26Z</time>
      </trkpt>
      <trkpt lat="44.79513" lon="1.16598">
        <ele>75.4</ele>
        <time>2022-08-12T15:39:28Z</time>
      </trkpt>
      <trkpt lat="44.79512" lon="1.16609">
        <ele>74.4</ele>
        <time>2022-08-12T15:39:30Z</time>
      </trkpt>
      <trkpt lat="44.7951" lon="1.1662">
        <ele>74.4</ele>
        <time>2022-08-12T15:39:32Z</time>
      </trkpt>
      <trkpt lat="44.7951" lon="1.16632">
        <ele>74.4</ele>
        <time>2022-08-12T15:39:34Z</time>
      </trkpt>
      <trkpt lat="44.79509" lon="1.16643">
        <ele>74.4</ele>
        <time>2022-08-12T15:39:36Z</time>
      </trkpt>
      <trkpt lat="44.79507" lon="1.16654">
        <ele>74.4</ele>
        <time>2022-08-12T15:39:38Z</time>
      </trkpt>
      <trkpt lat="44.79506" lon="1.16665">
        <ele>74.4</ele>
        <time>2022-08-12T15:39:40Z</time>
      </trkpt>
      <trkpt lat="44.79504" lon="1.16677">
        <ele>74.4</ele>
        <time>2022-08-12T15:39:42Z</time>
      </trkpt>
      <trkpt lat="44.79504" lon="1.16688">
        <ele>75.4</ele>
        <time>2022-08-12T15:39:44Z</time>
      </trkpt>
      <trkpt lat="44.79504" lon="1.16699">
        <ele>76.4</ele>
        <time>2022-08-12T15:39:46Z</time>
      </trkpt>
      <trkpt lat="44.79504" lon="1.16711">
        <ele>76.4</ele>
        <time>2022-08-12T15:39:48Z</time>
      </trkpt>
      <trkpt lat="44.79504" lon="1.16723">
        <ele>76.4</ele>
        <time>2022-08-12T15:39:50Z</time>
      </trkpt>
      <trkpt lat="44.79503" lon="1.16735">
        <ele>76.4</ele>
        <time>2022-08-12T15:39:52Z</time>
      </trkpt>
      <trkpt lat="44.79501" lon="1.16746">
        <ele>77.4</ele>
        <time>2022-08-12T15:39:54Z</time>
      </trkpt>
      <trkpt lat="44.795" lon="1.16758">
        <ele>77.4</ele>
        <time>2022-08-12T15:39:56Z</time>
      </trkpt>
      <trkpt lat="44.79499" lon="1.16769">
        <ele>77.4</ele>
        <time>2022-08-12T15:39:58Z</time>
      </trkpt>
      <trkpt lat="44.79498" lon="1.16781">
        <ele>77.4</ele>
        <time>2022-08-12T15:40:00Z</time>
      </trkpt>
      <trkpt lat="44.79497" lon="1.16792">
        <ele>77.4</ele>
        <time>2022-08-12T15:40:02Z</time>
      </trkpt>
      <trkpt lat="44.79496" lon="1.16802">
        <ele>77.4</ele>
        <time>2022-08-12T15:40:04Z</time>
      </trkpt>
      <trkpt lat="44.79495" lon="1.16811">
        <ele>77.4</ele>
        <time>2022-08-12T15:40:05Z</time>
      </trkpt>
      <trkpt lat="44.79495" lon="1.16818">
        <ele>77.4</ele>
        <time>2022-08-12T15:40:08Z</time>
      </trkpt>
      <trkpt lat="44.79492" lon="1.16824">
        <ele>78.4</ele>
        <time>2022-08-12T15:40:11Z</time>
      </trkpt>
      <trkpt lat="44.79487" lon="1.16825">
        <ele>77.4</ele>
        <time>2022-08-12T15:40:15Z</time>
      </trkpt>
      <trkpt lat="44.79489" lon="1.16833">
        <ele>76.4</ele>
        <time>2022-08-12T15:40:32Z</time>
      </trkpt>
      <trkpt lat="44.79484" lon="1.16834">
        <ele>75.4</ele>
        <time>2022-08-12T15:40:38Z</time>
      </trkpt>
      <trkpt lat="44.79488" lon="1.16838">
        <ele>75.4</ele>
        <time>2022-08-12T15:40:58Z</time>
      </trkpt>
      <trkpt lat="44.79492" lon="1.16839">
        <ele>75.4</ele>
        <time>2022-08-12T15:41:02Z</time>
      </trkpt>
      <trkpt lat="44.7949" lon="1.16832">
        <ele>75.4</ele>
        <time>2022-08-12T15:41:06Z</time>
      </trkpt>
      <trkpt lat="44.79486" lon="1.16826">
        <ele>75.4</ele>
        <time>2022-08-12T15:41:10Z</time>
      </trkpt>
      <trkpt lat="44.79482" lon="1.1682">
        <ele>74.4</ele>
        <time>2022-08-12T15:41:13Z</time>
      </trkpt>
      <trkpt lat="44.79485" lon="1.16815">
        <ele>75.4</ele>
        <time>2022-08-12T15:41:20Z</time>
      </trkpt>
      <trkpt lat="44.79488" lon="1.1682">
        <ele>74.4</ele>
        <time>2022-08-12T15:41:26Z</time>
      </trkpt>
      <trkpt lat="44.79484" lon="1.16812">
        <ele>75.4</ele>
        <time>2022-08-12T15:41:37Z</time>
      </trkpt>
      <trkpt lat="44.79489" lon="1.16811">
        <ele>75.4</ele>
        <time>2022-08-12T15:41:45Z</time>
      </trkpt>
      <trkpt lat="44.79492" lon="1.16805">
        <ele>74.4</ele>
        <time>2022-08-12T15:41:51Z</time>
      </trkpt>
      <trkpt lat="44.79493" lon="1.16797">
        <ele>76.4</ele>
        <time>2022-08-12T15:41:57Z</time>
      </trkpt>
      <trkpt lat="44.79498" lon="1.16799">
        <ele>76.4</ele>
        <time>2022-08-12T15:42:02Z</time>
      </trkpt>
      <trkpt lat="44.79498" lon="1.16807">
        <ele>75.4</ele>
        <time>2022-08-12T15:42:06Z</time>
      </trkpt>
      <trkpt lat="44.79491" lon="1.16814">
        <ele>72.4</ele>
        <time>2022-08-12T15:42:08Z</time>
      </trkpt>
      <trkpt lat="44.79485" lon="1.16816">
        <ele>71.4</ele>
        <time>2022-08-12T15:42:09Z</time>
      </trkpt>
      <trkpt lat="44.7948" lon="1.16817">
        <ele>71.4</ele>
        <time>2022-08-12T15:42:10Z</time>
      </trkpt>
      <trkpt lat="44.79476" lon="1.16817">
        <ele>70.4</ele>
        <time>2022-08-12T15:42:11Z</time>
      </trkpt>
      <trkpt lat="44.79468" lon="1.16818">
        <ele>72.4</ele>
        <time>2022-08-12T15:42:13Z</time>
      </trkpt>
      <trkpt lat="44.79461" lon="1.16816">
        <ele>73.4</ele>
        <time>2022-08-12T15:42:15Z</time>
      </trkpt>
      <trkpt lat="44.79454" lon="1.16814">
        <ele>74.4</ele>
        <time>2022-08-12T15:42:17Z</time>
      </trkpt>
      <trkpt lat="44.79447" lon="1.16814">
        <ele>74.4</ele>
        <time>2022-08-12T15:42:19Z</time>
      </trkpt>
      <trkpt lat="44.79437" lon="1.16815">
        <ele>73.4</ele>
        <time>2022-08-12T15:42:21Z</time>
      </trkpt>
      <trkpt lat="44.79431" lon="1.16817">
        <ele>73.4</ele>
        <time>2022-08-12T15:42:22Z</time>
      </trkpt>
      <trkpt lat="44.79425" lon="1.1682">
        <ele>72.4</ele>
        <time>2022-08-12T15:42:23Z</time>
      </trkpt>
      <trkpt lat="44.79419" lon="1.16824">
        <ele>73.4</ele>
        <time>2022-08-12T15:42:24Z</time>
      </trkpt>
      <trkpt lat="44.79413" lon="1.16828">
        <ele>74.4</ele>
        <time>2022-08-12T15:42:25Z</time>
      </trkpt>
      <trkpt lat="44.79408" lon="1.16833">
        <ele>75.4</ele>
        <time>2022-08-12T15:42:26Z</time>
      </trkpt>
      <trkpt lat="44.79403" lon="1.16837">
        <ele>76.4</ele>
        <time>2022-08-12T15:42:27Z</time>
      </trkpt>
      <trkpt lat="44.79398" lon="1.16841">
        <ele>76.4</ele>
        <time>2022-08-12T15:42:28Z</time>
      </trkpt>
      <trkpt lat="44.79393" lon="1.16845">
        <ele>77.4</ele>
        <time>2022-08-12T15:42:29Z</time>
      </trkpt>
      <trkpt lat="44.79388" lon="1.16847">
        <ele>78.4</ele>
        <time>2022-08-12T15:42:30Z</time>
      </trkpt>
      <trkpt lat="44.7938" lon="1.16849">
        <ele>79.4</ele>
        <time>2022-08-12T15:42:32Z</time>
      </trkpt>
      <trkpt lat="44.79373" lon="1.16852">
        <ele>79.4</ele>
        <time>2022-08-12T15:42:34Z</time>
      </trkpt>
      <trkpt lat="44.79367" lon="1.16856">
        <ele>79.4</ele>
        <time>2022-08-12T15:42:36Z</time>
      </trkpt>
      <trkpt lat="44.79361" lon="1.16859">
        <ele>79.4</ele>
        <time>2022-08-12T15:42:38Z</time>
      </trkpt>
      <trkpt lat="44.79353" lon="1.16862">
        <ele>79.4</ele>
        <time>2022-08-12T15:42:40Z</time>
      </trkpt>
      <trkpt lat="44.79348" lon="1.16864">
        <ele>79.4</ele>
        <time>2022-08-12T15:42:41Z</time>
      </trkpt>
      <trkpt lat="44.7934" lon="1.16868">
        <ele>80.4</ele>
        <time>2022-08-12T15:42:43Z</time>
      </trkpt>
      <trkpt lat="44.79332" lon="1.16873">
        <ele>80.4</ele>
        <time>2022-08-12T15:42:45Z</time>
      </trkpt>
      <trkpt lat="44.79327" lon="1.16876">
        <ele>80.4</ele>
        <time>2022-08-12T15:42:46Z</time>
      </trkpt>
      <trkpt lat="44.79323" lon="1.16878">
        <ele>80.4</ele>
        <time>2022-08-12T15:42:47Z</time>
      </trkpt>
      <trkpt lat="44.79318" lon="1.1688">
        <ele>81.4</ele>
        <time>2022-08-12T15:42:48Z</time>
      </trkpt>
      <trkpt lat="44.79312" lon="1.16881">
        <ele>80.4</ele>
        <time>2022-08-12T15:42:49Z</time>
      </trkpt>
      <trkpt lat="44.79306" lon="1.16884">
        <ele>80.4</ele>
        <time>2022-08-12T15:42:50Z</time>
      </trkpt>
      <trkpt lat="44.793" lon="1.16886">
        <ele>80.4</ele>
        <time>2022-08-12T15:42:51Z</time>
      </trkpt>
      <trkpt lat="44.79294" lon="1.16889">
        <ele>80.4</ele>
        <time>2022-08-12T15:42:52Z</time>
      </trkpt>
      <trkpt lat="44.79286" lon="1.16892">
        <ele>80.4</ele>
        <time>2022-08-12T15:42:53Z</time>
      </trkpt>
      <trkpt lat="44.7928" lon="1.16896">
        <ele>80.4</ele>
        <time>2022-08-12T15:42:54Z</time>
      </trkpt>
      <trkpt lat="44.79273" lon="1.169">
        <ele>80.4</ele>
        <time>2022-08-12T15:42:55Z</time>
      </trkpt>
      <trkpt lat="44.79261" lon="1.1691">
        <ele>80.4</ele>
        <time>2022-08-12T15:42:57Z</time>
      </trkpt>
      <trkpt lat="44.79255" lon="1.16917">
        <ele>79.4</ele>
        <time>2022-08-12T15:42:58Z</time>
      </trkpt>
      <trkpt lat="44.79251" lon="1.16924">
        <ele>80.4</ele>
        <time>2022-08-12T15:42:59Z</time>
      </trkpt>
      <trkpt lat="44.79246" lon="1.16931">
        <ele>79.4</ele>
        <time>2022-08-12T15:43:00Z</time>
      </trkpt>
      <trkpt lat="44.79242" lon="1.16939">
        <ele>78.4</ele>
        <time>2022-08-12T15:43:00Z</time>
      </trkpt>
      <trkpt lat="44.79239" lon="1.16946">
        <ele>78.4</ele>
        <time>2022-08-12T15:43:02Z</time>
      </trkpt>
      <trkpt lat="44.79236" lon="1.16952">
        <ele>78.4</ele>
        <time>2022-08-12T15:43:03Z</time>
      </trkpt>
      <trkpt lat="44.79231" lon="1.16963">
        <ele>78.4</ele>
        <time>2022-08-12T15:43:05Z</time>
      </trkpt>
      <trkpt lat="44.79228" lon="1.16968">
        <ele>77.4</ele>
        <time>2022-08-12T15:43:06Z</time>
      </trkpt>
      <trkpt lat="44.79225" lon="1.16973">
        <ele>77.4</ele>
        <time>2022-08-12T15:43:07Z</time>
      </trkpt>
      <trkpt lat="44.79222" lon="1.16979">
        <ele>77.4</ele>
        <time>2022-08-12T15:43:08Z</time>
      </trkpt>
      <trkpt lat="44.79218" lon="1.16984">
        <ele>77.4</ele>
        <time>2022-08-12T15:43:09Z</time>
      </trkpt>
      <trkpt lat="44.79215" lon="1.1699">
        <ele>77.4</ele>
        <time>2022-08-12T15:43:10Z</time>
      </trkpt>
      <trkpt lat="44.79212" lon="1.16997">
        <ele>77.4</ele>
        <time>2022-08-12T15:43:10Z</time>
      </trkpt>
      <trkpt lat="44.79208" lon="1.17003">
        <ele>77.4</ele>
        <time>2022-08-12T15:43:12Z</time>
      </trkpt>
      <trkpt lat="44.79205" lon="1.17009">
        <ele>77.4</ele>
        <time>2022-08-12T15:43:13Z</time>
      </trkpt>
      <trkpt lat="44.79202" lon="1.17015">
        <ele>77.4</ele>
        <time>2022-08-12T15:43:14Z</time>
      </trkpt>
      <trkpt lat="44.79199" lon="1.17021">
        <ele>77.4</ele>
        <time>2022-08-12T15:43:15Z</time>
      </trkpt>
      <trkpt lat="44.79196" lon="1.17028">
        <ele>78.4</ele>
        <time>2022-08-12T15:43:15Z</time>
      </trkpt>
      <trkpt lat="44.79192" lon="1.17033">
        <ele>78.4</ele>
        <time>2022-08-12T15:43:17Z</time>
      </trkpt>
      <trkpt lat="44.79189" lon="1.17039">
        <ele>78.4</ele>
        <time>2022-08-12T15:43:18Z</time>
      </trkpt>
      <trkpt lat="44.79185" lon="1.17044">
        <ele>78.4</ele>
        <time>2022-08-12T15:43:19Z</time>
      </trkpt>
      <trkpt lat="44.79181" lon="1.17051">
        <ele>78.4</ele>
        <time>2022-08-12T15:43:20Z</time>
      </trkpt>
      <trkpt lat="44.79177" lon="1.17056">
        <ele>78.4</ele>
        <time>2022-08-12T15:43:21Z</time>
      </trkpt>
      <trkpt lat="44.79174" lon="1.17062">
        <ele>78.4</ele>
        <time>2022-08-12T15:43:22Z</time>
      </trkpt>
      <trkpt lat="44.79171" lon="1.17068">
        <ele>78.4</ele>
        <time>2022-08-12T15:43:23Z</time>
      </trkpt>
      <trkpt lat="44.79168" lon="1.17074">
        <ele>78.4</ele>
        <time>2022-08-12T15:43:24Z</time>
      </trkpt>
      <trkpt lat="44.79164" lon="1.17079">
        <ele>78.4</ele>
        <time>2022-08-12T15:43:25Z</time>
      </trkpt>
      <trkpt lat="44.79161" lon="1.17085">
        <ele>78.4</ele>
        <time>2022-08-12T15:43:26Z</time>
      </trkpt>
      <trkpt lat="44.79157" lon="1.1709">
        <ele>78.4</ele>
        <time>2022-08-12T15:43:27Z</time>
      </trkpt>
      <trkpt lat="44.79154" lon="1.17096">
        <ele>78.4</ele>
        <time>2022-08-12T15:43:28Z</time>
      </trkpt>
      <trkpt lat="44.79151" lon="1.17101">
        <ele>78.4</ele>
        <time>2022-08-12T15:43:29Z</time>
      </trkpt>
      <trkpt lat="44.79148" lon="1.17106">
        <ele>78.4</ele>
        <time>2022-08-12T15:43:30Z</time>
      </trkpt>
      <trkpt lat="44.79142" lon="1.17117">
        <ele>79.4</ele>
        <time>2022-08-12T15:43:32Z</time>
      </trkpt>
      <trkpt lat="44.7914" lon="1.17122">
        <ele>78.4</ele>
        <time>2022-08-12T15:43:33Z</time>
      </trkpt>
      <trkpt lat="44.79137" lon="1.17129">
        <ele>79.4</ele>
        <time>2022-08-12T15:43:34Z</time>
      </trkpt>
      <trkpt lat="44.79134" lon="1.17135">
        <ele>79.4</ele>
        <time>2022-08-12T15:43:35Z</time>
      </trkpt>
      <trkpt lat="44.79131" lon="1.17142">
        <ele>79.4</ele>
        <time>2022-08-12T15:43:36Z</time>
      </trkpt>
      <trkpt lat="44.79128" lon="1.17148">
        <ele>79.4</ele>
        <time>2022-08-12T15:43:37Z</time>
      </trkpt>
      <trkpt lat="44.79125" lon="1.17155">
        <ele>80.4</ele>
        <time>2022-08-12T15:43:38Z</time>
      </trkpt>
      <trkpt lat="44.79122" lon="1.17162">
        <ele>80.4</ele>
        <time>2022-08-12T15:43:39Z</time>
      </trkpt>
      <trkpt lat="44.79119" lon="1.17168">
        <ele>81.4</ele>
        <time>2022-08-12T15:43:40Z</time>
      </trkpt>
      <trkpt lat="44.79116" lon="1.17174">
        <ele>81.4</ele>
        <time>2022-08-12T15:43:41Z</time>
      </trkpt>
      <trkpt lat="44.79113" lon="1.1718">
        <ele>81.4</ele>
        <time>2022-08-12T15:43:42Z</time>
      </trkpt>
      <trkpt lat="44.7911" lon="1.17186">
        <ele>81.4</ele>
        <time>2022-08-12T15:43:43Z</time>
      </trkpt>
      <trkpt lat="44.79108" lon="1.17192">
        <ele>81.4</ele>
        <time>2022-08-12T15:43:44Z</time>
      </trkpt>
      <trkpt lat="44.79106" lon="1.17198">
        <ele>82.4</ele>
        <time>2022-08-12T15:43:45Z</time>
      </trkpt>
      <trkpt lat="44.79103" lon="1.17203">
        <ele>82.4</ele>
        <time>2022-08-12T15:43:46Z</time>
      </trkpt>
      <trkpt lat="44.79101" lon="1.17209">
        <ele>82.4</ele>
        <time>2022-08-12T15:43:46Z</time>
      </trkpt>
      <trkpt lat="44.79097" lon="1.17219">
        <ele>82.4</ele>
        <time>2022-08-12T15:43:49Z</time>
      </trkpt>
      <trkpt lat="44.79091" lon="1.17227">
        <ele>82.4</ele>
        <time>2022-08-12T15:43:51Z</time>
      </trkpt>
      <trkpt lat="44.79087" lon="1.17235">
        <ele>83.4</ele>
        <time>2022-08-12T15:43:53Z</time>
      </trkpt>
      <trkpt lat="44.79083" lon="1.17245">
        <ele>82.4</ele>
        <time>2022-08-12T15:43:55Z</time>
      </trkpt>
      <trkpt lat="44.79076" lon="1.17252">
        <ele>83.4</ele>
        <time>2022-08-12T15:43:57Z</time>
      </trkpt>
      <trkpt lat="44.7907" lon="1.17253">
        <ele>83.4</ele>
        <time>2022-08-12T15:43:58Z</time>
      </trkpt>
      <trkpt lat="44.79065" lon="1.17255">
        <ele>82.4</ele>
        <time>2022-08-12T15:43:59Z</time>
      </trkpt>
      <trkpt lat="44.79059" lon="1.17258">
        <ele>82.4</ele>
        <time>2022-08-12T15:44:00Z</time>
      </trkpt>
      <trkpt lat="44.79055" lon="1.1726">
        <ele>81.4</ele>
        <time>2022-08-12T15:44:01Z</time>
      </trkpt>
      <trkpt lat="44.79049" lon="1.17264">
        <ele>81.4</ele>
        <time>2022-08-12T15:44:05Z</time>
      </trkpt>
      <trkpt lat="44.79043" lon="1.17265">
        <ele>81.4</ele>
        <time>2022-08-12T15:44:07Z</time>
      </trkpt>
      <trkpt lat="44.79036" lon="1.17263">
        <ele>80.4</ele>
        <time>2022-08-12T15:44:09Z</time>
      </trkpt>
      <trkpt lat="44.79028" lon="1.17262">
        <ele>81.4</ele>
        <time>2022-08-12T15:44:11Z</time>
      </trkpt>
      <trkpt lat="44.79021" lon="1.17262">
        <ele>80.4</ele>
        <time>2022-08-12T15:44:13Z</time>
      </trkpt>
      <trkpt lat="44.79018" lon="1.17257">
        <ele>80.4</ele>
        <time>2022-08-12T15:44:36Z</time>
      </trkpt>
      <trkpt lat="44.79013" lon="1.17259">
        <ele>79.4</ele>
        <time>2022-08-12T15:44:45Z</time>
      </trkpt>
      <trkpt lat="44.79009" lon="1.17253">
        <ele>78.4</ele>
        <time>2022-08-12T15:44:48Z</time>
      </trkpt>
      <trkpt lat="44.79006" lon="1.17245">
        <ele>76.4</ele>
        <time>2022-08-12T15:44:50Z</time>
      </trkpt>
      <trkpt lat="44.79002" lon="1.17237">
        <ele>76.4</ele>
        <time>2022-08-12T15:44:52Z</time>
      </trkpt>
      <trkpt lat="44.78996" lon="1.17228">
        <ele>75.4</ele>
        <time>2022-08-12T15:44:54Z</time>
      </trkpt>
      <trkpt lat="44.78991" lon="1.17219">
        <ele>74.4</ele>
        <time>2022-08-12T15:44:56Z</time>
      </trkpt>
      <trkpt lat="44.78984" lon="1.1721">
        <ele>75.4</ele>
        <time>2022-08-12T15:44:58Z</time>
      </trkpt>
      <trkpt lat="44.78979" lon="1.172">
        <ele>75.4</ele>
        <time>2022-08-12T15:45:00Z</time>
      </trkpt>
      <trkpt lat="44.78974" lon="1.17189">
        <ele>75.4</ele>
        <time>2022-08-12T15:45:02Z</time>
      </trkpt>
      <trkpt lat="44.78969" lon="1.17181">
        <ele>75.4</ele>
        <time>2022-08-12T15:45:04Z</time>
      </trkpt>
      <trkpt lat="44.78964" lon="1.17171">
        <ele>74.4</ele>
        <time>2022-08-12T15:45:06Z</time>
      </trkpt>
      <trkpt lat="44.78961" lon="1.17166">
        <ele>74.4</ele>
        <time>2022-08-12T15:45:07Z</time>
      </trkpt>
      <trkpt lat="44.78958" lon="1.17161">
        <ele>74.4</ele>
        <time>2022-08-12T15:45:08Z</time>
      </trkpt>
      <trkpt lat="44.78954" lon="1.17157">
        <ele>75.4</ele>
        <time>2022-08-12T15:45:09Z</time>
      </trkpt>
      <trkpt lat="44.78948" lon="1.17147">
        <ele>75.4</ele>
        <time>2022-08-12T15:45:11Z</time>
      </trkpt>
      <trkpt lat="44.78945" lon="1.17142">
        <ele>75.4</ele>
        <time>2022-08-12T15:45:12Z</time>
      </trkpt>
      <trkpt lat="44.78942" lon="1.17136">
        <ele>76.4</ele>
        <time>2022-08-12T15:45:13Z</time>
      </trkpt>
      <trkpt lat="44.78939" lon="1.17131">
        <ele>76.4</ele>
        <time>2022-08-12T15:45:14Z</time>
      </trkpt>
      <trkpt lat="44.78935" lon="1.17126">
        <ele>76.4</ele>
        <time>2022-08-12T15:45:15Z</time>
      </trkpt>
      <trkpt lat="44.78932" lon="1.17121">
        <ele>77.4</ele>
        <time>2022-08-12T15:45:16Z</time>
      </trkpt>
      <trkpt lat="44.78926" lon="1.17111">
        <ele>77.4</ele>
        <time>2022-08-12T15:45:18Z</time>
      </trkpt>
      <trkpt lat="44.78923" lon="1.17106">
        <ele>77.4</ele>
        <time>2022-08-12T15:45:19Z</time>
      </trkpt>
      <trkpt lat="44.7892" lon="1.17102">
        <ele>77.4</ele>
        <time>2022-08-12T15:45:20Z</time>
      </trkpt>
      <trkpt lat="44.78917" lon="1.17097">
        <ele>77.4</ele>
        <time>2022-08-12T15:45:21Z</time>
      </trkpt>
      <trkpt lat="44.78914" lon="1.17092">
        <ele>77.4</ele>
        <time>2022-08-12T15:45:22Z</time>
      </trkpt>
      <trkpt lat="44.78908" lon="1.17083">
        <ele>77.4</ele>
        <time>2022-08-12T15:45:24Z</time>
      </trkpt>
      <trkpt lat="44.78906" lon="1.17078">
        <ele>77.4</ele>
        <time>2022-08-12T15:45:25Z</time>
      </trkpt>
      <trkpt lat="44.78903" lon="1.17073">
        <ele>78.4</ele>
        <time>2022-08-12T15:45:26Z</time>
      </trkpt>
      <trkpt lat="44.78897" lon="1.17064">
        <ele>78.4</ele>
        <time>2022-08-12T15:45:28Z</time>
      </trkpt>
      <trkpt lat="44.78892" lon="1.17055">
        <ele>78.4</ele>
        <time>2022-08-12T15:45:30Z</time>
      </trkpt>
      <trkpt lat="44.78886" lon="1.17046">
        <ele>78.4</ele>
        <time>2022-08-12T15:45:32Z</time>
      </trkpt>
      <trkpt lat="44.78883" lon="1.17041">
        <ele>77.4</ele>
        <time>2022-08-12T15:45:33Z</time>
      </trkpt>
      <trkpt lat="44.7888" lon="1.17036">
        <ele>77.4</ele>
        <time>2022-08-12T15:45:34Z</time>
      </trkpt>
      <trkpt lat="44.78876" lon="1.17031">
        <ele>77.4</ele>
        <time>2022-08-12T15:45:35Z</time>
      </trkpt>
      <trkpt lat="44.78873" lon="1.17025">
        <ele>77.4</ele>
        <time>2022-08-12T15:45:36Z</time>
      </trkpt>
      <trkpt lat="44.7887" lon="1.17019">
        <ele>77.4</ele>
        <time>2022-08-12T15:45:37Z</time>
      </trkpt>
      <trkpt lat="44.78866" lon="1.17014">
        <ele>77.4</ele>
        <time>2022-08-12T15:45:38Z</time>
      </trkpt>
      <trkpt lat="44.78863" lon="1.17009">
        <ele>77.4</ele>
        <time>2022-08-12T15:45:39Z</time>
      </trkpt>
      <trkpt lat="44.78859" lon="1.17003">
        <ele>77.4</ele>
        <time>2022-08-12T15:45:40Z</time>
      </trkpt>
      <trkpt lat="44.78856" lon="1.16997">
        <ele>76.4</ele>
        <time>2022-08-12T15:45:41Z</time>
      </trkpt>
      <trkpt lat="44.78852" lon="1.16992">
        <ele>76.4</ele>
        <time>2022-08-12T15:45:42Z</time>
      </trkpt>
      <trkpt lat="44.78848" lon="1.16986">
        <ele>75.4</ele>
        <time>2022-08-12T15:45:43Z</time>
      </trkpt>
      <trkpt lat="44.78845" lon="1.1698">
        <ele>75.4</ele>
        <time>2022-08-12T15:45:44Z</time>
      </trkpt>
      <trkpt lat="44.78842" lon="1.16975">
        <ele>74.4</ele>
        <time>2022-08-12T15:45:45Z</time>
      </trkpt>
      <trkpt lat="44.78839" lon="1.1697">
        <ele>74.4</ele>
        <time>2022-08-12T15:45:46Z</time>
      </trkpt>
      <trkpt lat="44.78835" lon="1.16964">
        <ele>74.4</ele>
        <time>2022-08-12T15:45:47Z</time>
      </trkpt>
      <trkpt lat="44.78833" lon="1.16958">
        <ele>74.4</ele>
        <time>2022-08-12T15:45:48Z</time>
      </trkpt>
      <trkpt lat="44.78831" lon="1.16952">
        <ele>74.4</ele>
        <time>2022-08-12T15:45:49Z</time>
      </trkpt>
      <trkpt lat="44.78825" lon="1.16943">
        <ele>75.4</ele>
        <time>2022-08-12T15:45:51Z</time>
      </trkpt>
      <trkpt lat="44.78818" lon="1.16935">
        <ele>75.4</ele>
        <time>2022-08-12T15:45:53Z</time>
      </trkpt>
      <trkpt lat="44.78812" lon="1.16927">
        <ele>75.4</ele>
        <time>2022-08-12T15:45:55Z</time>
      </trkpt>
      <trkpt lat="44.78808" lon="1.16918">
        <ele>74.4</ele>
        <time>2022-08-12T15:45:57Z</time>
      </trkpt>
      <trkpt lat="44.78803" lon="1.16909">
        <ele>74.4</ele>
        <time>2022-08-12T15:45:59Z</time>
      </trkpt>
      <trkpt lat="44.78798" lon="1.16902">
        <ele>74.4</ele>
        <time>2022-08-12T15:46:01Z</time>
      </trkpt>
      <trkpt lat="44.78793" lon="1.16893">
        <ele>74.4</ele>
        <time>2022-08-12T15:46:03Z</time>
      </trkpt>
      <trkpt lat="44.78787" lon="1.16884">
        <ele>75.4</ele>
        <time>2022-08-12T15:46:05Z</time>
      </trkpt>
      <trkpt lat="44.78783" lon="1.16879">
        <ele>75.4</ele>
        <time>2022-08-12T15:46:06Z</time>
      </trkpt>
      <trkpt lat="44.78778" lon="1.16869">
        <ele>75.4</ele>
        <time>2022-08-12T15:46:08Z</time>
      </trkpt>
      <trkpt lat="44.78773" lon="1.1686">
        <ele>74.4</ele>
        <time>2022-08-12T15:46:10Z</time>
      </trkpt>
      <trkpt lat="44.78768" lon="1.16851">
        <ele>74.4</ele>
        <time>2022-08-12T15:46:12Z</time>
      </trkpt>
      <trkpt lat="44.78766" lon="1.16846">
        <ele>74.4</ele>
        <time>2022-08-12T15:46:13Z</time>
      </trkpt>
      <trkpt lat="44.78761" lon="1.16835">
        <ele>74.4</ele>
        <time>2022-08-12T15:46:15Z</time>
      </trkpt>
      <trkpt lat="44.78759" lon="1.16829">
        <ele>74.4</ele>
        <time>2022-08-12T15:46:16Z</time>
      </trkpt>
      <trkpt lat="44.78757" lon="1.16823">
        <ele>74.4</ele>
        <time>2022-08-12T15:46:17Z</time>
      </trkpt>
      <trkpt lat="44.78755" lon="1.16818">
        <ele>74.4</ele>
        <time>2022-08-12T15:46:18Z</time>
      </trkpt>
      <trkpt lat="44.78751" lon="1.16807">
        <ele>75.4</ele>
        <time>2022-08-12T15:46:20Z</time>
      </trkpt>
      <trkpt lat="44.78748" lon="1.16796">
        <ele>75.4</ele>
        <time>2022-08-12T15:46:22Z</time>
      </trkpt>
      <trkpt lat="44.78744" lon="1.16786">
        <ele>75.4</ele>
        <time>2022-08-12T15:46:24Z</time>
      </trkpt>
      <trkpt lat="44.78742" lon="1.16776">
        <ele>75.4</ele>
        <time>2022-08-12T15:46:26Z</time>
      </trkpt>
      <trkpt lat="44.78741" lon="1.16766">
        <ele>75.4</ele>
        <time>2022-08-12T15:46:28Z</time>
      </trkpt>
      <trkpt lat="44.78739" lon="1.16756">
        <ele>75.4</ele>
        <time>2022-08-12T15:46:29Z</time>
      </trkpt>
      <trkpt lat="44.78738" lon="1.16745">
        <ele>76.4</ele>
        <time>2022-08-12T15:46:32Z</time>
      </trkpt>
      <trkpt lat="44.78736" lon="1.16736">
        <ele>76.4</ele>
        <time>2022-08-12T15:46:34Z</time>
      </trkpt>
      <trkpt lat="44.78737" lon="1.16729">
        <ele>75.4</ele>
        <time>2022-08-12T15:46:36Z</time>
      </trkpt>
      <trkpt lat="44.78737" lon="1.16723">
        <ele>75.4</ele>
        <time>2022-08-12T15:46:39Z</time>
      </trkpt>
      <trkpt lat="44.78732" lon="1.1672">
        <ele>75.4</ele>
        <time>2022-08-12T15:46:52Z</time>
      </trkpt>
      <trkpt lat="44.78727" lon="1.16721">
        <ele>75.4</ele>
        <time>2022-08-12T15:46:54Z</time>
      </trkpt>
      <trkpt lat="44.78721" lon="1.1672">
        <ele>75.4</ele>
        <time>2022-08-12T15:46:57Z</time>
      </trkpt>
      <trkpt lat="44.78719" lon="1.16713">
        <ele>76.4</ele>
        <time>2022-08-12T15:46:59Z</time>
      </trkpt>
      <trkpt lat="44.78716" lon="1.16708">
        <ele>76.4</ele>
        <time>2022-08-12T15:47:01Z</time>
      </trkpt>
      <trkpt lat="44.78712" lon="1.16703">
        <ele>77.4</ele>
        <time>2022-08-12T15:47:03Z</time>
      </trkpt>
      <trkpt lat="44.78708" lon="1.16697">
        <ele>77.4</ele>
        <time>2022-08-12T15:47:06Z</time>
      </trkpt>
      <trkpt lat="44.78704" lon="1.16693">
        <ele>77.4</ele>
        <time>2022-08-12T15:47:08Z</time>
      </trkpt>
      <trkpt lat="44.787" lon="1.16688">
        <ele>77.4</ele>
        <time>2022-08-12T15:47:11Z</time>
      </trkpt>
      <trkpt lat="44.78696" lon="1.16684">
        <ele>77.4</ele>
        <time>2022-08-12T15:47:14Z</time>
      </trkpt>
      <trkpt lat="44.78692" lon="1.1668">
        <ele>77.4</ele>
        <time>2022-08-12T15:47:17Z</time>
      </trkpt>
      <trkpt lat="44.78687" lon="1.16677">
        <ele>77.4</ele>
        <time>2022-08-12T15:47:20Z</time>
      </trkpt>
      <trkpt lat="44.78682" lon="1.16673">
        <ele>75.4</ele>
        <time>2022-08-12T15:47:23Z</time>
      </trkpt>
      <trkpt lat="44.78676" lon="1.1667">
        <ele>73.4</ele>
        <time>2022-08-12T15:47:28Z</time>
      </trkpt>
      <trkpt lat="44.78672" lon="1.16672">
        <ele>73.4</ele>
        <time>2022-08-12T15:47:32Z</time>
      </trkpt>
      <trkpt lat="44.78669" lon="1.16678">
        <ele>73.4</ele>
        <time>2022-08-12T15:47:36Z</time>
      </trkpt>
      <trkpt lat="44.78673" lon="1.16683">
        <ele>71.4</ele>
        <time>2022-08-12T15:48:07Z</time>
      </trkpt>
      <trkpt lat="44.78671" lon="1.1669">
        <ele>73.4</ele>
        <time>2022-08-12T15:48:13Z</time>
      </trkpt>
      <trkpt lat="44.78666" lon="1.16692">
        <ele>74.4</ele>
        <time>2022-08-12T15:48:15Z</time>
      </trkpt>
      <trkpt lat="44.78661" lon="1.16697">
        <ele>76.4</ele>
        <time>2022-08-12T15:48:17Z</time>
      </trkpt>
      <trkpt lat="44.78657" lon="1.16701">
        <ele>75.4</ele>
        <time>2022-08-12T15:48:19Z</time>
      </trkpt>
      <trkpt lat="44.78652" lon="1.16708">
        <ele>74.4</ele>
        <time>2022-08-12T15:48:21Z</time>
      </trkpt>
      <trkpt lat="44.78648" lon="1.16714">
        <ele>74.4</ele>
        <time>2022-08-12T15:48:22Z</time>
      </trkpt>
      <trkpt lat="44.78645" lon="1.16719">
        <ele>75.4</ele>
        <time>2022-08-12T15:48:23Z</time>
      </trkpt>
      <trkpt lat="44.78641" lon="1.16725">
        <ele>74.4</ele>
        <time>2022-08-12T15:48:24Z</time>
      </trkpt>
      <trkpt lat="44.78638" lon="1.16732">
        <ele>75.4</ele>
        <time>2022-08-12T15:48:25Z</time>
      </trkpt>
      <trkpt lat="44.78636" lon="1.16738">
        <ele>76.4</ele>
        <time>2022-08-12T15:48:26Z</time>
      </trkpt>
      <trkpt lat="44.78633" lon="1.16743">
        <ele>76.4</ele>
        <time>2022-08-12T15:48:27Z</time>
      </trkpt>
      <trkpt lat="44.7863" lon="1.16749">
        <ele>77.4</ele>
        <time>2022-08-12T15:48:28Z</time>
      </trkpt>
      <trkpt lat="44.78627" lon="1.16755">
        <ele>78.4</ele>
        <time>2022-08-12T15:48:29Z</time>
      </trkpt>
      <trkpt lat="44.78625" lon="1.1676">
        <ele>79.4</ele>
        <time>2022-08-12T15:48:30Z</time>
      </trkpt>
      <trkpt lat="44.7862" lon="1.16772">
        <ele>81.4</ele>
        <time>2022-08-12T15:48:32Z</time>
      </trkpt>
      <trkpt lat="44.78618" lon="1.16778">
        <ele>81.4</ele>
        <time>2022-08-12T15:48:33Z</time>
      </trkpt>
      <trkpt lat="44.78616" lon="1.16784">
        <ele>82.4</ele>
        <time>2022-08-12T15:48:34Z</time>
      </trkpt>
      <trkpt lat="44.78612" lon="1.16794">
        <ele>84.4</ele>
        <time>2022-08-12T15:48:35Z</time>
      </trkpt>
      <trkpt lat="44.78606" lon="1.16803">
        <ele>83.4</ele>
        <time>2022-08-12T15:48:38Z</time>
      </trkpt>
      <trkpt lat="44.78602" lon="1.16807">
        <ele>83.4</ele>
        <time>2022-08-12T15:48:39Z</time>
      </trkpt>
      <trkpt lat="44.78599" lon="1.16813">
        <ele>83.4</ele>
        <time>2022-08-12T15:48:40Z</time>
      </trkpt>
      <trkpt lat="44.78596" lon="1.16818">
        <ele>83.4</ele>
        <time>2022-08-12T15:48:41Z</time>
      </trkpt>
      <trkpt lat="44.78593" lon="1.16824">
        <ele>84.4</ele>
        <time>2022-08-12T15:48:42Z</time>
      </trkpt>
      <trkpt lat="44.78589" lon="1.1683">
        <ele>84.4</ele>
        <time>2022-08-12T15:48:43Z</time>
      </trkpt>
      <trkpt lat="44.78586" lon="1.16836">
        <ele>84.4</ele>
        <time>2022-08-12T15:48:44Z</time>
      </trkpt>
      <trkpt lat="44.78582" lon="1.16842">
        <ele>83.4</ele>
        <time>2022-08-12T15:48:45Z</time>
      </trkpt>
      <trkpt lat="44.78579" lon="1.16849">
        <ele>83.4</ele>
        <time>2022-08-12T15:48:46Z</time>
      </trkpt>
      <trkpt lat="44.78575" lon="1.16855">
        <ele>82.4</ele>
        <time>2022-08-12T15:48:47Z</time>
      </trkpt>
      <trkpt lat="44.78572" lon="1.16862">
        <ele>82.4</ele>
        <time>2022-08-12T15:48:48Z</time>
      </trkpt>
      <trkpt lat="44.78568" lon="1.16868">
        <ele>82.4</ele>
        <time>2022-08-12T15:48:49Z</time>
      </trkpt>
      <trkpt lat="44.78564" lon="1.16875">
        <ele>81.4</ele>
        <time>2022-08-12T15:48:50Z</time>
      </trkpt>
      <trkpt lat="44.78561" lon="1.16883">
        <ele>81.4</ele>
        <time>2022-08-12T15:48:51Z</time>
      </trkpt>
      <trkpt lat="44.78557" lon="1.1689">
        <ele>81.4</ele>
        <time>2022-08-12T15:48:52Z</time>
      </trkpt>
      <trkpt lat="44.78553" lon="1.16895">
        <ele>81.4</ele>
        <time>2022-08-12T15:48:52Z</time>
      </trkpt>
      <trkpt lat="44.78549" lon="1.16901">
        <ele>81.4</ele>
        <time>2022-08-12T15:48:54Z</time>
      </trkpt>
      <trkpt lat="44.78543" lon="1.16906">
        <ele>81.4</ele>
        <time>2022-08-12T15:48:55Z</time>
      </trkpt>
      <trkpt lat="44.78538" lon="1.1691">
        <ele>80.4</ele>
        <time>2022-08-12T15:48:56Z</time>
      </trkpt>
      <trkpt lat="44.78532" lon="1.16914">
        <ele>80.4</ele>
        <time>2022-08-12T15:48:57Z</time>
      </trkpt>
      <trkpt lat="44.78527" lon="1.16917">
        <ele>80.4</ele>
        <time>2022-08-12T15:48:58Z</time>
      </trkpt>
      <trkpt lat="44.78522" lon="1.1692">
        <ele>80.4</ele>
        <time>2022-08-12T15:48:59Z</time>
      </trkpt>
      <trkpt lat="44.78517" lon="1.16922">
        <ele>79.4</ele>
        <time>2022-08-12T15:49:00Z</time>
      </trkpt>
      <trkpt lat="44.78512" lon="1.16924">
        <ele>79.4</ele>
        <time>2022-08-12T15:49:01Z</time>
      </trkpt>
      <trkpt lat="44.78508" lon="1.16926">
        <ele>78.4</ele>
        <time>2022-08-12T15:49:02Z</time>
      </trkpt>
      <trkpt lat="44.78503" lon="1.16928">
        <ele>78.4</ele>
        <time>2022-08-12T15:49:03Z</time>
      </trkpt>
      <trkpt lat="44.78495" lon="1.16929">
        <ele>78.4</ele>
        <time>2022-08-12T15:49:05Z</time>
      </trkpt>
      <trkpt lat="44.78486" lon="1.1693">
        <ele>77.4</ele>
        <time>2022-08-12T15:49:07Z</time>
      </trkpt>
      <trkpt lat="44.78477" lon="1.16932">
        <ele>77.4</ele>
        <time>2022-08-12T15:49:09Z</time>
      </trkpt>
      <trkpt lat="44.78469" lon="1.16934">
        <ele>76.4</ele>
        <time>2022-08-12T15:49:11Z</time>
      </trkpt>
      <trkpt lat="44.78464" lon="1.16935">
        <ele>75.4</ele>
        <time>2022-08-12T15:49:12Z</time>
      </trkpt>
      <trkpt lat="44.78456" lon="1.16937">
        <ele>74.4</ele>
        <time>2022-08-12T15:49:14Z</time>
      </trkpt>
      <trkpt lat="44.78447" lon="1.16942">
        <ele>73.4</ele>
        <time>2022-08-12T15:49:16Z</time>
      </trkpt>
      <trkpt lat="44.78439" lon="1.16946">
        <ele>72.4</ele>
        <time>2022-08-12T15:49:18Z</time>
      </trkpt>
      <trkpt lat="44.78431" lon="1.1695">
        <ele>70.4</ele>
        <time>2022-08-12T15:49:20Z</time>
      </trkpt>
      <trkpt lat="44.78423" lon="1.16955">
        <ele>69.4</ele>
        <time>2022-08-12T15:49:22Z</time>
      </trkpt>
      <trkpt lat="44.78416" lon="1.1696">
        <ele>69.4</ele>
        <time>2022-08-12T15:49:24Z</time>
      </trkpt>
      <trkpt lat="44.78408" lon="1.16966">
        <ele>68.4</ele>
        <time>2022-08-12T15:49:26Z</time>
      </trkpt>
      <trkpt lat="44.78401" lon="1.16973">
        <ele>69.4</ele>
        <time>2022-08-12T15:49:28Z</time>
      </trkpt>
      <trkpt lat="44.78394" lon="1.16979">
        <ele>69.4</ele>
        <time>2022-08-12T15:49:30Z</time>
      </trkpt>
      <trkpt lat="44.78387" lon="1.16986">
        <ele>69.4</ele>
        <time>2022-08-12T15:49:32Z</time>
      </trkpt>
      <trkpt lat="44.78383" lon="1.16991">
        <ele>69.4</ele>
        <time>2022-08-12T15:49:33Z</time>
      </trkpt>
      <trkpt lat="44.78379" lon="1.16995">
        <ele>69.4</ele>
        <time>2022-08-12T15:49:34Z</time>
      </trkpt>
      <trkpt lat="44.78375" lon="1.17">
        <ele>69.4</ele>
        <time>2022-08-12T15:49:35Z</time>
      </trkpt>
      <trkpt lat="44.78372" lon="1.17004">
        <ele>69.4</ele>
        <time>2022-08-12T15:49:36Z</time>
      </trkpt>
      <trkpt lat="44.78369" lon="1.17009">
        <ele>69.4</ele>
        <time>2022-08-12T15:49:37Z</time>
      </trkpt>
      <trkpt lat="44.78365" lon="1.17014">
        <ele>69.4</ele>
        <time>2022-08-12T15:49:38Z</time>
      </trkpt>
      <trkpt lat="44.78361" lon="1.17019">
        <ele>69.4</ele>
        <time>2022-08-12T15:49:39Z</time>
      </trkpt>
      <trkpt lat="44.78358" lon="1.17024">
        <ele>69.4</ele>
        <time>2022-08-12T15:49:40Z</time>
      </trkpt>
      <trkpt lat="44.78354" lon="1.17029">
        <ele>68.4</ele>
        <time>2022-08-12T15:49:41Z</time>
      </trkpt>
      <trkpt lat="44.78351" lon="1.17034">
        <ele>68.4</ele>
        <time>2022-08-12T15:49:42Z</time>
      </trkpt>
      <trkpt lat="44.78348" lon="1.17039">
        <ele>68.4</ele>
        <time>2022-08-12T15:49:43Z</time>
      </trkpt>
      <trkpt lat="44.78343" lon="1.17049">
        <ele>67.4</ele>
        <time>2022-08-12T15:49:45Z</time>
      </trkpt>
      <trkpt lat="44.78339" lon="1.17058">
        <ele>66.4</ele>
        <time>2022-08-12T15:49:47Z</time>
      </trkpt>
      <trkpt lat="44.78335" lon="1.17067">
        <ele>67.4</ele>
        <time>2022-08-12T15:49:49Z</time>
      </trkpt>
      <trkpt lat="44.7833" lon="1.17079">
        <ele>68.4</ele>
        <time>2022-08-12T15:49:51Z</time>
      </trkpt>
      <trkpt lat="44.78328" lon="1.17085">
        <ele>69.4</ele>
        <time>2022-08-12T15:49:52Z</time>
      </trkpt>
      <trkpt lat="44.78325" lon="1.17091">
        <ele>70.4</ele>
        <time>2022-08-12T15:49:53Z</time>
      </trkpt>
      <trkpt lat="44.78323" lon="1.17098">
        <ele>72.4</ele>
        <time>2022-08-12T15:49:54Z</time>
      </trkpt>
      <trkpt lat="44.78321" lon="1.17104">
        <ele>73.4</ele>
        <time>2022-08-12T15:49:55Z</time>
      </trkpt>
      <trkpt lat="44.78317" lon="1.17115">
        <ele>74.4</ele>
        <time>2022-08-12T15:49:57Z</time>
      </trkpt>
      <trkpt lat="44.78313" lon="1.17125">
        <ele>74.4</ele>
        <time>2022-08-12T15:49:59Z</time>
      </trkpt>
      <trkpt lat="44.78309" lon="1.17135">
        <ele>75.4</ele>
        <time>2022-08-12T15:50:01Z</time>
      </trkpt>
      <trkpt lat="44.78304" lon="1.17144">
        <ele>75.4</ele>
        <time>2022-08-12T15:50:03Z</time>
      </trkpt>
      <trkpt lat="44.78298" lon="1.17151">
        <ele>75.4</ele>
        <time>2022-08-12T15:50:05Z</time>
      </trkpt>
      <trkpt lat="44.78292" lon="1.17157">
        <ele>75.4</ele>
        <time>2022-08-12T15:50:07Z</time>
      </trkpt>
      <trkpt lat="44.78285" lon="1.17162">
        <ele>74.4</ele>
        <time>2022-08-12T15:50:09Z</time>
      </trkpt>
      <trkpt lat="44.78279" lon="1.17161">
        <ele>73.4</ele>
        <time>2022-08-12T15:50:11Z</time>
      </trkpt>
      <trkpt lat="44.78274" lon="1.17164">
        <ele>73.4</ele>
        <time>2022-08-12T15:50:13Z</time>
      </trkpt>
      <trkpt lat="44.78268" lon="1.17172">
        <ele>73.4</ele>
        <time>2022-08-12T15:50:15Z</time>
      </trkpt>
      <trkpt lat="44.78264" lon="1.17176">
        <ele>73.4</ele>
        <time>2022-08-12T15:50:16Z</time>
      </trkpt>
      <trkpt lat="44.78257" lon="1.17182">
        <ele>73.4</ele>
        <time>2022-08-12T15:50:18Z</time>
      </trkpt>
      <trkpt lat="44.7825" lon="1.17186">
        <ele>73.4</ele>
        <time>2022-08-12T15:50:20Z</time>
      </trkpt>
      <trkpt lat="44.78243" lon="1.17189">
        <ele>72.4</ele>
        <time>2022-08-12T15:50:22Z</time>
      </trkpt>
      <trkpt lat="44.78235" lon="1.17191">
        <ele>72.4</ele>
        <time>2022-08-12T15:50:24Z</time>
      </trkpt>
      <trkpt lat="44.78226" lon="1.17192">
        <ele>72.4</ele>
        <time>2022-08-12T15:50:26Z</time>
      </trkpt>
      <trkpt lat="44.78218" lon="1.17194">
        <ele>72.4</ele>
        <time>2022-08-12T15:50:28Z</time>
      </trkpt>
      <trkpt lat="44.78214" lon="1.17195">
        <ele>72.4</ele>
        <time>2022-08-12T15:50:29Z</time>
      </trkpt>
      <trkpt lat="44.78209" lon="1.17196">
        <ele>71.4</ele>
        <time>2022-08-12T15:50:30Z</time>
      </trkpt>
      <trkpt lat="44.78201" lon="1.17199">
        <ele>71.4</ele>
        <time>2022-08-12T15:50:32Z</time>
      </trkpt>
      <trkpt lat="44.78195" lon="1.17201">
        <ele>71.4</ele>
        <time>2022-08-12T15:50:34Z</time>
      </trkpt>
      <trkpt lat="44.7819" lon="1.17203">
        <ele>71.4</ele>
        <time>2022-08-12T15:50:36Z</time>
      </trkpt>
      <trkpt lat="44.78184" lon="1.17206">
        <ele>70.4</ele>
        <time>2022-08-12T15:50:38Z</time>
      </trkpt>
      <trkpt lat="44.78177" lon="1.17209">
        <ele>70.4</ele>
        <time>2022-08-12T15:50:40Z</time>
      </trkpt>
      <trkpt lat="44.78173" lon="1.17212">
        <ele>71.4</ele>
        <time>2022-08-12T15:50:41Z</time>
      </trkpt>
      <trkpt lat="44.78165" lon="1.17217">
        <ele>71.4</ele>
        <time>2022-08-12T15:50:43Z</time>
      </trkpt>
      <trkpt lat="44.78161" lon="1.17221">
        <ele>72.4</ele>
        <time>2022-08-12T15:50:44Z</time>
      </trkpt>
      <trkpt lat="44.78157" lon="1.17224">
        <ele>72.4</ele>
        <time>2022-08-12T15:50:45Z</time>
      </trkpt>
      <trkpt lat="44.78153" lon="1.17227">
        <ele>72.4</ele>
        <time>2022-08-12T15:50:46Z</time>
      </trkpt>
      <trkpt lat="44.78149" lon="1.1723">
        <ele>72.4</ele>
        <time>2022-08-12T15:50:47Z</time>
      </trkpt>
      <trkpt lat="44.78145" lon="1.17233">
        <ele>72.4</ele>
        <time>2022-08-12T15:50:48Z</time>
      </trkpt>
      <trkpt lat="44.78137" lon="1.1724">
        <ele>72.4</ele>
        <time>2022-08-12T15:50:50Z</time>
      </trkpt>
      <trkpt lat="44.78133" lon="1.17244">
        <ele>72.4</ele>
        <time>2022-08-12T15:50:51Z</time>
      </trkpt>
      <trkpt lat="44.78129" lon="1.17247">
        <ele>73.4</ele>
        <time>2022-08-12T15:50:52Z</time>
      </trkpt>
      <trkpt lat="44.78126" lon="1.17251">
        <ele>73.4</ele>
        <time>2022-08-12T15:50:53Z</time>
      </trkpt>
      <trkpt lat="44.78122" lon="1.17255">
        <ele>73.4</ele>
        <time>2022-08-12T15:50:54Z</time>
      </trkpt>
      <trkpt lat="44.78117" lon="1.17258">
        <ele>73.4</ele>
        <time>2022-08-12T15:50:55Z</time>
      </trkpt>
      <trkpt lat="44.78113" lon="1.17262">
        <ele>72.4</ele>
        <time>2022-08-12T15:50:56Z</time>
      </trkpt>
      <trkpt lat="44.78109" lon="1.17264">
        <ele>72.4</ele>
        <time>2022-08-12T15:50:57Z</time>
      </trkpt>
      <trkpt lat="44.78105" lon="1.17267">
        <ele>72.4</ele>
        <time>2022-08-12T15:50:58Z</time>
      </trkpt>
      <trkpt lat="44.78097" lon="1.1727">
        <ele>73.4</ele>
        <time>2022-08-12T15:51:00Z</time>
      </trkpt>
      <trkpt lat="44.78088" lon="1.17273">
        <ele>73.4</ele>
        <time>2022-08-12T15:51:02Z</time>
      </trkpt>
      <trkpt lat="44.78084" lon="1.17275">
        <ele>74.4</ele>
        <time>2022-08-12T15:51:03Z</time>
      </trkpt>
      <trkpt lat="44.78076" lon="1.17279">
        <ele>74.4</ele>
        <time>2022-08-12T15:51:05Z</time>
      </trkpt>
      <trkpt lat="44.78068" lon="1.17282">
        <ele>74.4</ele>
        <time>2022-08-12T15:51:07Z</time>
      </trkpt>
      <trkpt lat="44.7806" lon="1.17286">
        <ele>74.4</ele>
        <time>2022-08-12T15:51:09Z</time>
      </trkpt>
      <trkpt lat="44.78052" lon="1.1729">
        <ele>75.4</ele>
        <time>2022-08-12T15:51:11Z</time>
      </trkpt>
      <trkpt lat="44.78046" lon="1.17293">
        <ele>75.4</ele>
        <time>2022-08-12T15:51:13Z</time>
      </trkpt>
      <trkpt lat="44.78041" lon="1.17297">
        <ele>75.4</ele>
        <time>2022-08-12T15:51:14Z</time>
      </trkpt>
      <trkpt lat="44.78035" lon="1.173">
        <ele>75.4</ele>
        <time>2022-08-12T15:51:17Z</time>
      </trkpt>
      <trkpt lat="44.7803" lon="1.17302">
        <ele>75.4</ele>
        <time>2022-08-12T15:51:19Z</time>
      </trkpt>
      <trkpt lat="44.78025" lon="1.17302">
        <ele>75.4</ele>
        <time>2022-08-12T15:51:22Z</time>
      </trkpt>
      <trkpt lat="44.7802" lon="1.17305">
        <ele>75.4</ele>
        <time>2022-08-12T15:51:25Z</time>
      </trkpt>
      <trkpt lat="44.78019" lon="1.17311">
        <ele>76.4</ele>
        <time>2022-08-12T15:51:39Z</time>
      </trkpt>
      <trkpt lat="44.78024" lon="1.17313">
        <ele>77.4</ele>
        <time>2022-08-12T15:51:42Z</time>
      </trkpt>
      <trkpt lat="44.7803" lon="1.1731">
        <ele>77.4</ele>
        <time>2022-08-12T15:51:44Z</time>
      </trkpt>
      <trkpt lat="44.78037" lon="1.17308">
        <ele>79.4</ele>
        <time>2022-08-12T15:51:46Z</time>
      </trkpt>
      <trkpt lat="44.78046" lon="1.17304">
        <ele>79.4</ele>
        <time>2022-08-12T15:51:48Z</time>
      </trkpt>
      <trkpt lat="44.78054" lon="1.173">
        <ele>80.4</ele>
        <time>2022-08-12T15:51:50Z</time>
      </trkpt>
      <trkpt lat="44.78059" lon="1.17299">
        <ele>81.4</ele>
        <time>2022-08-12T15:51:51Z</time>
      </trkpt>
      <trkpt lat="44.78063" lon="1.17297">
        <ele>81.4</ele>
        <time>2022-08-12T15:51:52Z</time>
      </trkpt>
      <trkpt lat="44.78068" lon="1.17295">
        <ele>81.4</ele>
        <time>2022-08-12T15:51:53Z</time>
      </trkpt>
      <trkpt lat="44.78072" lon="1.17293">
        <ele>81.4</ele>
        <time>2022-08-12T15:51:54Z</time>
      </trkpt>
      <trkpt lat="44.78077" lon="1.17291">
        <ele>81.4</ele>
        <time>2022-08-12T15:51:55Z</time>
      </trkpt>
      <trkpt lat="44.78082" lon="1.17289">
        <ele>81.4</ele>
        <time>2022-08-12T15:51:56Z</time>
      </trkpt>
      <trkpt lat="44.78086" lon="1.17287">
        <ele>82.4</ele>
        <time>2022-08-12T15:51:57Z</time>
      </trkpt>
      <trkpt lat="44.7809" lon="1.17285">
        <ele>82.4</ele>
        <time>2022-08-12T15:51:58Z</time>
      </trkpt>
      <trkpt lat="44.78095" lon="1.17283">
        <ele>82.4</ele>
        <time>2022-08-12T15:51:59Z</time>
      </trkpt>
      <trkpt lat="44.781" lon="1.1728">
        <ele>82.4</ele>
        <time>2022-08-12T15:52:00Z</time>
      </trkpt>
      <trkpt lat="44.78104" lon="1.17278">
        <ele>82.4</ele>
        <time>2022-08-12T15:52:01Z</time>
      </trkpt>
      <trkpt lat="44.78109" lon="1.17276">
        <ele>82.4</ele>
        <time>2022-08-12T15:52:02Z</time>
      </trkpt>
      <trkpt lat="44.78114" lon="1.17273">
        <ele>82.4</ele>
        <time>2022-08-12T15:52:03Z</time>
      </trkpt>
      <trkpt lat="44.78119" lon="1.17269">
        <ele>82.4</ele>
        <time>2022-08-12T15:52:04Z</time>
      </trkpt>
      <trkpt lat="44.78123" lon="1.17265">
        <ele>82.4</ele>
        <time>2022-08-12T15:52:05Z</time>
      </trkpt>
      <trkpt lat="44.78128" lon="1.17261">
        <ele>81.4</ele>
        <time>2022-08-12T15:52:06Z</time>
      </trkpt>
      <trkpt lat="44.78132" lon="1.17257">
        <ele>82.4</ele>
        <time>2022-08-12T15:52:07Z</time>
      </trkpt>
      <trkpt lat="44.78136" lon="1.17252">
        <ele>82.4</ele>
        <time>2022-08-12T15:52:08Z</time>
      </trkpt>
      <trkpt lat="44.7814" lon="1.17248">
        <ele>82.4</ele>
        <time>2022-08-12T15:52:09Z</time>
      </trkpt>
      <trkpt lat="44.78145" lon="1.17244">
        <ele>81.4</ele>
        <time>2022-08-12T15:52:10Z</time>
      </trkpt>
      <trkpt lat="44.78149" lon="1.17239">
        <ele>81.4</ele>
        <time>2022-08-12T15:52:11Z</time>
      </trkpt>
      <trkpt lat="44.78153" lon="1.17234">
        <ele>81.4</ele>
        <time>2022-08-12T15:52:12Z</time>
      </trkpt>
      <trkpt lat="44.78158" lon="1.17231">
        <ele>81.4</ele>
        <time>2022-08-12T15:52:13Z</time>
      </trkpt>
      <trkpt lat="44.78162" lon="1.17228">
        <ele>80.4</ele>
        <time>2022-08-12T15:52:14Z</time>
      </trkpt>
      <trkpt lat="44.78167" lon="1.17225">
        <ele>80.4</ele>
        <time>2022-08-12T15:52:15Z</time>
      </trkpt>
      <trkpt lat="44.78171" lon="1.17224">
        <ele>80.4</ele>
        <time>2022-08-12T15:52:16Z</time>
      </trkpt>
      <trkpt lat="44.78179" lon="1.1722">
        <ele>80.4</ele>
        <time>2022-08-12T15:52:18Z</time>
      </trkpt>
      <trkpt lat="44.78185" lon="1.17217">
        <ele>80.4</ele>
        <time>2022-08-12T15:52:20Z</time>
      </trkpt>
      <trkpt lat="44.78191" lon="1.17214">
        <ele>80.4</ele>
        <time>2022-08-12T15:52:22Z</time>
      </trkpt>
      <trkpt lat="44.78194" lon="1.17207">
        <ele>79.4</ele>
        <time>2022-08-12T15:52:24Z</time>
      </trkpt>
      <trkpt lat="44.78192" lon="1.17199">
        <ele>78.4</ele>
        <time>2022-08-12T15:52:26Z</time>
      </trkpt>
      <trkpt lat="44.78189" lon="1.17193">
        <ele>78.4</ele>
        <time>2022-08-12T15:52:28Z</time>
      </trkpt>
      <trkpt lat="44.78186" lon="1.17187">
        <ele>77.4</ele>
        <time>2022-08-12T15:52:30Z</time>
      </trkpt>
      <trkpt lat="44.78182" lon="1.17181">
        <ele>77.4</ele>
        <time>2022-08-12T15:52:32Z</time>
      </trkpt>
      <trkpt lat="44.78177" lon="1.17173">
        <ele>77.4</ele>
        <time>2022-08-12T15:52:34Z</time>
      </trkpt>
      <trkpt lat="44.78173" lon="1.17165">
        <ele>77.4</ele>
        <time>2022-08-12T15:52:36Z</time>
      </trkpt>
      <trkpt lat="44.7817" lon="1.17157">
        <ele>77.4</ele>
        <time>2022-08-12T15:52:38Z</time>
      </trkpt>
      <trkpt lat="44.78167" lon="1.17149">
        <ele>77.4</ele>
        <time>2022-08-12T15:52:40Z</time>
      </trkpt>
      <trkpt lat="44.78164" lon="1.17141">
        <ele>77.4</ele>
        <time>2022-08-12T15:52:42Z</time>
      </trkpt>
      <trkpt lat="44.78162" lon="1.17134">
        <ele>78.4</ele>
        <time>2022-08-12T15:52:44Z</time>
      </trkpt>
      <trkpt lat="44.78159" lon="1.17126">
        <ele>78.4</ele>
        <time>2022-08-12T15:52:46Z</time>
      </trkpt>
      <trkpt lat="44.78155" lon="1.17119">
        <ele>78.4</ele>
        <time>2022-08-12T15:52:48Z</time>
      </trkpt>
      <trkpt lat="44.78152" lon="1.17111">
        <ele>78.4</ele>
        <time>2022-08-12T15:52:50Z</time>
      </trkpt>
      <trkpt lat="44.78148" lon="1.17104">
        <ele>78.4</ele>
        <time>2022-08-12T15:52:52Z</time>
      </trkpt>
      <trkpt lat="44.78145" lon="1.17096">
        <ele>78.4</ele>
        <time>2022-08-12T15:52:53Z</time>
      </trkpt>
      <trkpt lat="44.78142" lon="1.17089">
        <ele>78.4</ele>
        <time>2022-08-12T15:52:56Z</time>
      </trkpt>
      <trkpt lat="44.78138" lon="1.17081">
        <ele>77.4</ele>
        <time>2022-08-12T15:52:58Z</time>
      </trkpt>
      <trkpt lat="44.78135" lon="1.17073">
        <ele>77.4</ele>
        <time>2022-08-12T15:53:00Z</time>
      </trkpt>
      <trkpt lat="44.78132" lon="1.17066">
        <ele>77.4</ele>
        <time>2022-08-12T15:53:01Z</time>
      </trkpt>
      <trkpt lat="44.7813" lon="1.17058">
        <ele>77.4</ele>
        <time>2022-08-12T15:53:04Z</time>
      </trkpt>
      <trkpt lat="44.78128" lon="1.17047">
        <ele>77.4</ele>
        <time>2022-08-12T15:53:07Z</time>
      </trkpt>
      <trkpt lat="44.78126" lon="1.17038">
        <ele>77.4</ele>
        <time>2022-08-12T15:53:09Z</time>
      </trkpt>
      <trkpt lat="44.78124" lon="1.17029">
        <ele>77.4</ele>
        <time>2022-08-12T15:53:10Z</time>
      </trkpt>
      <trkpt lat="44.78122" lon="1.17021">
        <ele>77.4</ele>
        <time>2022-08-12T15:53:13Z</time>
      </trkpt>
      <trkpt lat="44.78121" lon="1.17012">
        <ele>77.4</ele>
        <time>2022-08-12T15:53:15Z</time>
      </trkpt>
      <trkpt lat="44.78119" lon="1.17005">
        <ele>78.4</ele>
        <time>2022-08-12T15:53:17Z</time>
      </trkpt>
      <trkpt lat="44.78118" lon="1.16999">
        <ele>77.4</ele>
        <time>2022-08-12T15:53:19Z</time>
      </trkpt>
      <trkpt lat="44.78116" lon="1.16993">
        <ele>77.4</ele>
        <time>2022-08-12T15:53:21Z</time>
      </trkpt>
      <trkpt lat="44.78113" lon="1.16985">
        <ele>78.4</ele>
        <time>2022-08-12T15:53:23Z</time>
      </trkpt>
      <trkpt lat="44.78111" lon="1.16976">
        <ele>78.4</ele>
        <time>2022-08-12T15:53:25Z</time>
      </trkpt>
      <trkpt lat="44.78109" lon="1.16967">
        <ele>78.4</ele>
        <time>2022-08-12T15:53:27Z</time>
      </trkpt>
      <trkpt lat="44.78106" lon="1.16958">
        <ele>78.4</ele>
        <time>2022-08-12T15:53:29Z</time>
      </trkpt>
      <trkpt lat="44.78104" lon="1.1695">
        <ele>79.4</ele>
        <time>2022-08-12T15:53:31Z</time>
      </trkpt>
      <trkpt lat="44.78102" lon="1.16942">
        <ele>80.4</ele>
        <time>2022-08-12T15:53:33Z</time>
      </trkpt>
      <trkpt lat="44.781" lon="1.16934">
        <ele>80.4</ele>
        <time>2022-08-12T15:53:35Z</time>
      </trkpt>
      <trkpt lat="44.78098" lon="1.16926">
        <ele>81.4</ele>
        <time>2022-08-12T15:53:37Z</time>
      </trkpt>
      <trkpt lat="44.78097" lon="1.16919">
        <ele>82.4</ele>
        <time>2022-08-12T15:53:39Z</time>
      </trkpt>
      <trkpt lat="44.78095" lon="1.16912">
        <ele>83.4</ele>
        <time>2022-08-12T15:53:42Z</time>
      </trkpt>
      <trkpt lat="44.78093" lon="1.16903">
        <ele>83.4</ele>
        <time>2022-08-12T15:53:45Z</time>
      </trkpt>
      <trkpt lat="44.7809" lon="1.16897">
        <ele>83.4</ele>
        <time>2022-08-12T15:53:47Z</time>
      </trkpt>
      <trkpt lat="44.78088" lon="1.16891">
        <ele>83.4</ele>
        <time>2022-08-12T15:53:49Z</time>
      </trkpt>
      <trkpt lat="44.78087" lon="1.16884">
        <ele>83.4</ele>
        <time>2022-08-12T15:53:50Z</time>
      </trkpt>
      <trkpt lat="44.78086" lon="1.16877">
        <ele>83.4</ele>
        <time>2022-08-12T15:53:53Z</time>
      </trkpt>
      <trkpt lat="44.78085" lon="1.16869">
        <ele>83.4</ele>
        <time>2022-08-12T15:53:55Z</time>
      </trkpt>
      <trkpt lat="44.78084" lon="1.16863">
        <ele>84.4</ele>
        <time>2022-08-12T15:53:57Z</time>
      </trkpt>
      <trkpt lat="44.78083" lon="1.16856">
        <ele>83.4</ele>
        <time>2022-08-12T15:53:59Z</time>
      </trkpt>
      <trkpt lat="44.78082" lon="1.16849">
        <ele>83.4</ele>
        <time>2022-08-12T15:54:01Z</time>
      </trkpt>
      <trkpt lat="44.7808" lon="1.16842">
        <ele>83.4</ele>
        <time>2022-08-12T15:54:03Z</time>
      </trkpt>
      <trkpt lat="44.78079" lon="1.16835">
        <ele>83.4</ele>
        <time>2022-08-12T15:54:05Z</time>
      </trkpt>
      <trkpt lat="44.78077" lon="1.16828">
        <ele>83.4</ele>
        <time>2022-08-12T15:54:07Z</time>
      </trkpt>
      <trkpt lat="44.78076" lon="1.16821">
        <ele>83.4</ele>
        <time>2022-08-12T15:54:09Z</time>
      </trkpt>
      <trkpt lat="44.78074" lon="1.16811">
        <ele>86.4</ele>
        <time>2022-08-12T15:54:12Z</time>
      </trkpt>
      <trkpt lat="44.78071" lon="1.16804">
        <ele>86.4</ele>
        <time>2022-08-12T15:54:14Z</time>
      </trkpt>
      <trkpt lat="44.78069" lon="1.16797">
        <ele>87.4</ele>
        <time>2022-08-12T15:54:16Z</time>
      </trkpt>
      <trkpt lat="44.78066" lon="1.16789">
        <ele>87.4</ele>
        <time>2022-08-12T15:54:18Z</time>
      </trkpt>
      <trkpt lat="44.78064" lon="1.16782">
        <ele>87.4</ele>
        <time>2022-08-12T15:54:20Z</time>
      </trkpt>
      <trkpt lat="44.78061" lon="1.16774">
        <ele>86.4</ele>
        <time>2022-08-12T15:54:22Z</time>
      </trkpt>
      <trkpt lat="44.7806" lon="1.16765">
        <ele>86.4</ele>
        <time>2022-08-12T15:54:24Z</time>
      </trkpt>
      <trkpt lat="44.78059" lon="1.16757">
        <ele>87.4</ele>
        <time>2022-08-12T15:54:26Z</time>
      </trkpt>
      <trkpt lat="44.78057" lon="1.16749">
        <ele>88.4</ele>
        <time>2022-08-12T15:54:28Z</time>
      </trkpt>
      <trkpt lat="44.78056" lon="1.16739">
        <ele>87.4</ele>
        <time>2022-08-12T15:54:30Z</time>
      </trkpt>
      <trkpt lat="44.78056" lon="1.16731">
        <ele>88.4</ele>
        <time>2022-08-12T15:54:32Z</time>
      </trkpt>
      <trkpt lat="44.78056" lon="1.16725">
        <ele>88.4</ele>
        <time>2022-08-12T15:54:34Z</time>
      </trkpt>
      <trkpt lat="44.78055" lon="1.16715">
        <ele>88.4</ele>
        <time>2022-08-12T15:54:37Z</time>
      </trkpt>
      <trkpt lat="44.78054" lon="1.16708">
        <ele>87.4</ele>
        <time>2022-08-12T15:54:39Z</time>
      </trkpt>
      <trkpt lat="44.78052" lon="1.167">
        <ele>88.4</ele>
        <time>2022-08-12T15:54:41Z</time>
      </trkpt>
      <trkpt lat="44.78051" lon="1.16693">
        <ele>89.4</ele>
        <time>2022-08-12T15:54:42Z</time>
      </trkpt>
      <trkpt lat="44.7805" lon="1.16686">
        <ele>90.4</ele>
        <time>2022-08-12T15:54:45Z</time>
      </trkpt>
      <trkpt lat="44.78047" lon="1.16677">
        <ele>90.4</ele>
        <time>2022-08-12T15:54:48Z</time>
      </trkpt>
      <trkpt lat="44.78046" lon="1.1667">
        <ele>91.4</ele>
        <time>2022-08-12T15:54:50Z</time>
      </trkpt>
      <trkpt lat="44.78045" lon="1.16662">
        <ele>92.4</ele>
        <time>2022-08-12T15:54:51Z</time>
      </trkpt>
      <trkpt lat="44.78044" lon="1.16653">
        <ele>92.4</ele>
        <time>2022-08-12T15:54:54Z</time>
      </trkpt>
      <trkpt lat="44.78042" lon="1.16646">
        <ele>94.4</ele>
        <time>2022-08-12T15:54:56Z</time>
      </trkpt>
      <trkpt lat="44.7804" lon="1.1664">
        <ele>94.4</ele>
        <time>2022-08-12T15:54:58Z</time>
      </trkpt>
      <trkpt lat="44.78037" lon="1.16632">
        <ele>95.4</ele>
        <time>2022-08-12T15:55:00Z</time>
      </trkpt>
      <trkpt lat="44.78035" lon="1.16625">
        <ele>95.4</ele>
        <time>2022-08-12T15:55:01Z</time>
      </trkpt>
      <trkpt lat="44.78033" lon="1.16619">
        <ele>95.4</ele>
        <time>2022-08-12T15:55:04Z</time>
      </trkpt>
      <trkpt lat="44.78031" lon="1.16612">
        <ele>95.4</ele>
        <time>2022-08-12T15:55:06Z</time>
      </trkpt>
      <trkpt lat="44.78028" lon="1.16605">
        <ele>96.4</ele>
        <time>2022-08-12T15:55:08Z</time>
      </trkpt>
      <trkpt lat="44.78027" lon="1.16596">
        <ele>95.4</ele>
        <time>2022-08-12T15:55:11Z</time>
      </trkpt>
      <trkpt lat="44.78025" lon="1.16589">
        <ele>96.4</ele>
        <time>2022-08-12T15:55:14Z</time>
      </trkpt>
      <trkpt lat="44.78022" lon="1.16581">
        <ele>96.4</ele>
        <time>2022-08-12T15:55:23Z</time>
      </trkpt>
      <trkpt lat="44.78021" lon="1.16572">
        <ele>98.4</ele>
        <time>2022-08-12T15:55:26Z</time>
      </trkpt>
      <trkpt lat="44.78019" lon="1.16565">
        <ele>98.4</ele>
        <time>2022-08-12T15:55:28Z</time>
      </trkpt>
      <trkpt lat="44.78017" lon="1.16557">
        <ele>99.4</ele>
        <time>2022-08-12T15:55:29Z</time>
      </trkpt>
      <trkpt lat="44.78015" lon="1.16548">
        <ele>99.4</ele>
        <time>2022-08-12T15:55:31Z</time>
      </trkpt>
      <trkpt lat="44.78013" lon="1.16539">
        <ele>99.4</ele>
        <time>2022-08-12T15:55:34Z</time>
      </trkpt>
      <trkpt lat="44.78012" lon="1.1653">
        <ele>99.4</ele>
        <time>2022-08-12T15:55:35Z</time>
      </trkpt>
      <trkpt lat="44.7801" lon="1.16522">
        <ele>99.4</ele>
        <time>2022-08-12T15:55:38Z</time>
      </trkpt>
      <trkpt lat="44.78008" lon="1.16515">
        <ele>99.4</ele>
        <time>2022-08-12T15:55:40Z</time>
      </trkpt>
      <trkpt lat="44.78005" lon="1.16509">
        <ele>99.4</ele>
        <time>2022-08-12T15:55:42Z</time>
      </trkpt>
      <trkpt lat="44.78003" lon="1.16503">
        <ele>99.4</ele>
        <time>2022-08-12T15:55:44Z</time>
      </trkpt>
      <trkpt lat="44.77999" lon="1.16498">
        <ele>99.4</ele>
        <time>2022-08-12T15:55:46Z</time>
      </trkpt>
      <trkpt lat="44.77994" lon="1.16493">
        <ele>98.4</ele>
        <time>2022-08-12T15:55:48Z</time>
      </trkpt>
      <trkpt lat="44.77988" lon="1.1649">
        <ele>98.4</ele>
        <time>2022-08-12T15:55:50Z</time>
      </trkpt>
      <trkpt lat="44.77981" lon="1.16487">
        <ele>97.4</ele>
        <time>2022-08-12T15:55:52Z</time>
      </trkpt>
      <trkpt lat="44.77975" lon="1.16486">
        <ele>96.4</ele>
        <time>2022-08-12T15:55:54Z</time>
      </trkpt>
      <trkpt lat="44.77969" lon="1.16481">
        <ele>96.4</ele>
        <time>2022-08-12T15:55:55Z</time>
      </trkpt>
      <trkpt lat="44.77962" lon="1.16474">
        <ele>96.4</ele>
        <time>2022-08-12T15:55:57Z</time>
      </trkpt>
      <trkpt lat="44.77959" lon="1.16468">
        <ele>96.4</ele>
        <time>2022-08-12T15:55:58Z</time>
      </trkpt>
      <trkpt lat="44.77956" lon="1.16462">
        <ele>96.4</ele>
        <time>2022-08-12T15:55:59Z</time>
      </trkpt>
      <trkpt lat="44.77953" lon="1.16456">
        <ele>95.4</ele>
        <time>2022-08-12T15:56:01Z</time>
      </trkpt>
      <trkpt lat="44.7795" lon="1.1645">
        <ele>94.4</ele>
        <time>2022-08-12T15:56:01Z</time>
      </trkpt>
      <trkpt lat="44.77947" lon="1.16444">
        <ele>94.4</ele>
        <time>2022-08-12T15:56:03Z</time>
      </trkpt>
      <trkpt lat="44.77941" lon="1.16434">
        <ele>94.4</ele>
        <time>2022-08-12T15:56:05Z</time>
      </trkpt>
      <trkpt lat="44.77939" lon="1.16429">
        <ele>94.4</ele>
        <time>2022-08-12T15:56:05Z</time>
      </trkpt>
      <trkpt lat="44.77936" lon="1.16424">
        <ele>93.4</ele>
        <time>2022-08-12T15:56:06Z</time>
      </trkpt>
      <trkpt lat="44.7793" lon="1.16415">
        <ele>92.4</ele>
        <time>2022-08-12T15:56:09Z</time>
      </trkpt>
      <trkpt lat="44.77925" lon="1.16406">
        <ele>92.4</ele>
        <time>2022-08-12T15:56:10Z</time>
      </trkpt>
      <trkpt lat="44.77923" lon="1.164">
        <ele>93.4</ele>
        <time>2022-08-12T15:56:12Z</time>
      </trkpt>
      <trkpt lat="44.77918" lon="1.16391">
        <ele>93.4</ele>
        <time>2022-08-12T15:56:14Z</time>
      </trkpt>
      <trkpt lat="44.77914" lon="1.16382">
        <ele>94.4</ele>
        <time>2022-08-12T15:56:16Z</time>
      </trkpt>
      <trkpt lat="44.7791" lon="1.16372">
        <ele>95.4</ele>
        <time>2022-08-12T15:56:18Z</time>
      </trkpt>
      <trkpt lat="44.77905" lon="1.16363">
        <ele>95.4</ele>
        <time>2022-08-12T15:56:20Z</time>
      </trkpt>
      <trkpt lat="44.77901" lon="1.16355">
        <ele>95.4</ele>
        <time>2022-08-12T15:56:22Z</time>
      </trkpt>
      <trkpt lat="44.77897" lon="1.16347">
        <ele>95.4</ele>
        <time>2022-08-12T15:56:24Z</time>
      </trkpt>
      <trkpt lat="44.77893" lon="1.1634">
        <ele>95.4</ele>
        <time>2022-08-12T15:56:26Z</time>
      </trkpt>
      <trkpt lat="44.7789" lon="1.16331">
        <ele>95.4</ele>
        <time>2022-08-12T15:56:28Z</time>
      </trkpt>
      <trkpt lat="44.77886" lon="1.16324">
        <ele>96.4</ele>
        <time>2022-08-12T15:56:30Z</time>
      </trkpt>
      <trkpt lat="44.77882" lon="1.16317">
        <ele>96.4</ele>
        <time>2022-08-12T15:56:32Z</time>
      </trkpt>
      <trkpt lat="44.77878" lon="1.16309">
        <ele>96.4</ele>
        <time>2022-08-12T15:56:34Z</time>
      </trkpt>
      <trkpt lat="44.77872" lon="1.16299">
        <ele>97.4</ele>
        <time>2022-08-12T15:56:37Z</time>
      </trkpt>
      <trkpt lat="44.77868" lon="1.16291">
        <ele>98.4</ele>
        <time>2022-08-12T15:56:39Z</time>
      </trkpt>
      <trkpt lat="44.77864" lon="1.16284">
        <ele>99.4</ele>
        <time>2022-08-12T15:56:40Z</time>
      </trkpt>
      <trkpt lat="44.7786" lon="1.16277">
        <ele>99.4</ele>
        <time>2022-08-12T15:56:43Z</time>
      </trkpt>
      <trkpt lat="44.77856" lon="1.16271">
        <ele>100.4</ele>
        <time>2022-08-12T15:56:45Z</time>
      </trkpt>
      <trkpt lat="44.77852" lon="1.16265">
        <ele>101.4</ele>
        <time>2022-08-12T15:56:47Z</time>
      </trkpt>
      <trkpt lat="44.77849" lon="1.16259">
        <ele>101.4</ele>
        <time>2022-08-12T15:56:49Z</time>
      </trkpt>
      <trkpt lat="44.77845" lon="1.16252">
        <ele>101.4</ele>
        <time>2022-08-12T15:56:51Z</time>
      </trkpt>
      <trkpt lat="44.77841" lon="1.16246">
        <ele>100.4</ele>
        <time>2022-08-12T15:56:53Z</time>
      </trkpt>
      <trkpt lat="44.77837" lon="1.1624">
        <ele>100.4</ele>
        <time>2022-08-12T15:56:55Z</time>
      </trkpt>
      <trkpt lat="44.77833" lon="1.16235">
        <ele>100.4</ele>
        <time>2022-08-12T15:56:57Z</time>
      </trkpt>
      <trkpt lat="44.77829" lon="1.1623">
        <ele>100.4</ele>
        <time>2022-08-12T15:56:59Z</time>
      </trkpt>
      <trkpt lat="44.77825" lon="1.16225">
        <ele>100.4</ele>
        <time>2022-08-12T15:57:00Z</time>
      </trkpt>
      <trkpt lat="44.77822" lon="1.16219">
        <ele>101.4</ele>
        <time>2022-08-12T15:57:03Z</time>
      </trkpt>
      <trkpt lat="44.77819" lon="1.16214">
        <ele>101.4</ele>
        <time>2022-08-12T15:57:05Z</time>
      </trkpt>
      <trkpt lat="44.77815" lon="1.16207">
        <ele>102.4</ele>
        <time>2022-08-12T15:57:08Z</time>
      </trkpt>
      <trkpt lat="44.77812" lon="1.16202">
        <ele>102.4</ele>
        <time>2022-08-12T15:57:10Z</time>
      </trkpt>
      <trkpt lat="44.77808" lon="1.16198">
        <ele>102.4</ele>
        <time>2022-08-12T15:57:12Z</time>
      </trkpt>
      <trkpt lat="44.77803" lon="1.16192">
        <ele>103.4</ele>
        <time>2022-08-12T15:57:14Z</time>
      </trkpt>
      <trkpt lat="44.778" lon="1.16187">
        <ele>104.4</ele>
        <time>2022-08-12T15:57:15Z</time>
      </trkpt>
      <trkpt lat="44.77796" lon="1.16181">
        <ele>104.4</ele>
        <time>2022-08-12T15:57:18Z</time>
      </trkpt>
      <trkpt lat="44.77792" lon="1.16177">
        <ele>105.4</ele>
        <time>2022-08-12T15:57:20Z</time>
      </trkpt>
      <trkpt lat="44.77788" lon="1.16172">
        <ele>104.4</ele>
        <time>2022-08-12T15:57:22Z</time>
      </trkpt>
      <trkpt lat="44.77783" lon="1.16168">
        <ele>105.4</ele>
        <time>2022-08-12T15:57:24Z</time>
      </trkpt>
      <trkpt lat="44.77779" lon="1.16164">
        <ele>104.4</ele>
        <time>2022-08-12T15:57:25Z</time>
      </trkpt>
      <trkpt lat="44.77774" lon="1.16159">
        <ele>104.4</ele>
        <time>2022-08-12T15:57:27Z</time>
      </trkpt>
      <trkpt lat="44.7777" lon="1.16154">
        <ele>104.4</ele>
        <time>2022-08-12T15:57:30Z</time>
      </trkpt>
      <trkpt lat="44.77765" lon="1.16149">
        <ele>104.4</ele>
        <time>2022-08-12T15:57:31Z</time>
      </trkpt>
      <trkpt lat="44.7776" lon="1.16143">
        <ele>105.4</ele>
        <time>2022-08-12T15:57:35Z</time>
      </trkpt>
      <trkpt lat="44.77756" lon="1.16138">
        <ele>106.4</ele>
        <time>2022-08-12T15:57:37Z</time>
      </trkpt>
      <trkpt lat="44.77753" lon="1.16133">
        <ele>106.4</ele>
        <time>2022-08-12T15:57:39Z</time>
      </trkpt>
      <trkpt lat="44.77749" lon="1.16128">
        <ele>108.4</ele>
        <time>2022-08-12T15:57:41Z</time>
      </trkpt>
      <trkpt lat="44.77747" lon="1.16122">
        <ele>109.4</ele>
        <time>2022-08-12T15:57:43Z</time>
      </trkpt>
      <trkpt lat="44.77743" lon="1.16116">
        <ele>111.4</ele>
        <time>2022-08-12T15:57:45Z</time>
      </trkpt>
      <trkpt lat="44.77739" lon="1.16111">
        <ele>112.4</ele>
        <time>2022-08-12T15:57:48Z</time>
      </trkpt>
      <trkpt lat="44.77736" lon="1.16106">
        <ele>113.4</ele>
        <time>2022-08-12T15:57:50Z</time>
      </trkpt>
      <trkpt lat="44.77734" lon="1.16099">
        <ele>115.4</ele>
        <time>2022-08-12T15:57:52Z</time>
      </trkpt>
      <trkpt lat="44.7773" lon="1.16092">
        <ele>114.4</ele>
        <time>2022-08-12T15:57:54Z</time>
      </trkpt>
      <trkpt lat="44.77727" lon="1.16085">
        <ele>114.4</ele>
        <time>2022-08-12T15:57:57Z</time>
      </trkpt>
      <trkpt lat="44.77724" lon="1.16079">
        <ele>115.4</ele>
        <time>2022-08-12T15:57:59Z</time>
      </trkpt>
      <trkpt lat="44.77721" lon="1.16072">
        <ele>115.4</ele>
        <time>2022-08-12T15:58:01Z</time>
      </trkpt>
      <trkpt lat="44.77718" lon="1.16065">
        <ele>116.4</ele>
        <time>2022-08-12T15:58:03Z</time>
      </trkpt>
      <trkpt lat="44.77716" lon="1.16058">
        <ele>116.4</ele>
        <time>2022-08-12T15:58:05Z</time>
      </trkpt>
      <trkpt lat="44.77714" lon="1.16052">
        <ele>116.4</ele>
        <time>2022-08-12T15:58:07Z</time>
      </trkpt>
      <trkpt lat="44.77713" lon="1.16046">
        <ele>116.4</ele>
        <time>2022-08-12T15:58:09Z</time>
      </trkpt>
      <trkpt lat="44.7771" lon="1.16038">
        <ele>117.4</ele>
        <time>2022-08-12T15:58:12Z</time>
      </trkpt>
      <trkpt lat="44.77707" lon="1.16033">
        <ele>117.4</ele>
        <time>2022-08-12T15:58:15Z</time>
      </trkpt>
      <trkpt lat="44.77703" lon="1.1603">
        <ele>116.4</ele>
        <time>2022-08-12T15:58:19Z</time>
      </trkpt>
      <trkpt lat="44.77699" lon="1.16029">
        <ele>116.4</ele>
        <time>2022-08-12T15:58:22Z</time>
      </trkpt>
      <trkpt lat="44.77694" lon="1.16027">
        <ele>116.4</ele>
        <time>2022-08-12T15:58:28Z</time>
      </trkpt>
      <trkpt lat="44.77689" lon="1.16024">
        <ele>115.4</ele>
        <time>2022-08-12T15:58:36Z</time>
      </trkpt>
      <trkpt lat="44.77685" lon="1.16029">
        <ele>115.4</ele>
        <time>2022-08-12T15:58:39Z</time>
      </trkpt>
      <trkpt lat="44.77681" lon="1.1603">
        <ele>115.4</ele>
        <time>2022-08-12T15:58:46Z</time>
      </trkpt>
      <trkpt lat="44.77676" lon="1.16028">
        <ele>114.4</ele>
        <time>2022-08-12T15:58:50Z</time>
      </trkpt>
      <trkpt lat="44.77672" lon="1.16029">
        <ele>113.4</ele>
        <time>2022-08-12T15:58:56Z</time>
      </trkpt>
      <trkpt lat="44.77677" lon="1.16029">
        <ele>112.4</ele>
        <time>2022-08-12T15:59:01Z</time>
      </trkpt>
      <trkpt lat="44.77683" lon="1.16029">
        <ele>111.4</ele>
        <time>2022-08-12T15:59:04Z</time>
      </trkpt>
      <trkpt lat="44.77688" lon="1.16029">
        <ele>110.4</ele>
        <time>2022-08-12T15:59:08Z</time>
      </trkpt>
      <trkpt lat="44.77695" lon="1.16028">
        <ele>110.4</ele>
        <time>2022-08-12T15:59:09Z</time>
      </trkpt>
      <trkpt lat="44.77699" lon="1.16027">
        <ele>110.4</ele>
        <time>2022-08-12T15:59:10Z</time>
      </trkpt>
      <trkpt lat="44.77704" lon="1.16025">
        <ele>110.4</ele>
        <time>2022-08-12T15:59:11Z</time>
      </trkpt>
      <trkpt lat="44.77709" lon="1.16024">
        <ele>110.4</ele>
        <time>2022-08-12T15:59:12Z</time>
      </trkpt>
      <trkpt lat="44.77714" lon="1.16022">
        <ele>111.4</ele>
        <time>2022-08-12T15:59:15Z</time>
      </trkpt>
      <trkpt lat="44.77706" lon="1.16029">
        <ele>111.4</ele>
        <time>2022-08-12T15:59:21Z</time>
      </trkpt>
      <trkpt lat="44.77704" lon="1.16035">
        <ele>111.4</ele>
        <time>2022-08-12T15:59:30Z</time>
      </trkpt>
      <trkpt lat="44.77697" lon="1.16036">
        <ele>110.4</ele>
        <time>2022-08-12T15:59:50Z</time>
      </trkpt>
      <trkpt lat="44.77692" lon="1.16035">
        <ele>108.4</ele>
        <time>2022-08-12T15:59:53Z</time>
      </trkpt>
      <trkpt lat="44.77687" lon="1.16037">
        <ele>110.4</ele>
        <time>2022-08-12T15:59:57Z</time>
      </trkpt>
      <trkpt lat="44.77682" lon="1.16036">
        <ele>108.4</ele>
        <time>2022-08-12T16:00:02Z</time>
      </trkpt>
      <trkpt lat="44.77678" lon="1.16035">
        <ele>110.4</ele>
        <time>2022-08-12T16:00:10Z</time>
      </trkpt>
      <trkpt lat="44.77673" lon="1.16034">
        <ele>110.4</ele>
        <time>2022-08-12T16:00:22Z</time>
      </trkpt>
      <trkpt lat="44.77669" lon="1.1603">
        <ele>112.4</ele>
        <time>2022-08-12T16:00:35Z</time>
      </trkpt>
      <trkpt lat="44.77664" lon="1.16029">
        <ele>127.4</ele>
        <time>2022-08-12T16:01:31Z</time>
      </trkpt>
      <trkpt lat="44.77659" lon="1.16028">
        <ele>127.4</ele>
        <time>2022-08-12T16:01:45Z</time>
      </trkpt>
      <trkpt lat="44.77655" lon="1.16024">
        <ele>126.4</ele>
        <time>2022-08-12T16:01:51Z</time>
      </trkpt>
      <trkpt lat="44.77651" lon="1.1602">
        <ele>128.4</ele>
        <time>2022-08-12T16:01:56Z</time>
      </trkpt>
      <trkpt lat="44.77646" lon="1.16017">
        <ele>129.4</ele>
        <time>2022-08-12T16:02:04Z</time>
      </trkpt>
      <trkpt lat="44.77642" lon="1.16014">
        <ele>131.4</ele>
        <time>2022-08-12T16:02:12Z</time>
      </trkpt>
      <trkpt lat="44.77637" lon="1.16011">
        <ele>133.4</ele>
        <time>2022-08-12T16:02:18Z</time>
      </trkpt>
      <trkpt lat="44.77633" lon="1.16007">
        <ele>137.4</ele>
        <time>2022-08-12T16:02:33Z</time>
      </trkpt>
      <trkpt lat="44.77629" lon="1.16003">
        <ele>140.4</ele>
        <time>2022-08-12T16:03:08Z</time>
      </trkpt>
      <trkpt lat="44.77623" lon="1.16001">
        <ele>139.4</ele>
        <time>2022-08-12T16:03:37Z</time>
      </trkpt>
      <trkpt lat="44.77619" lon="1.15997">
        <ele>140.4</ele>
        <time>2022-08-12T16:03:43Z</time>
      </trkpt>
      <trkpt lat="44.77614" lon="1.15996">
        <ele>141.4</ele>
        <time>2022-08-12T16:03:49Z</time>
      </trkpt>
      <trkpt lat="44.77609" lon="1.15996">
        <ele>143.4</ele>
        <time>2022-08-12T16:03:56Z</time>
      </trkpt>
      <trkpt lat="44.77604" lon="1.15995">
        <ele>144.4</ele>
        <time>2022-08-12T16:04:01Z</time>
      </trkpt>
      <trkpt lat="44.776" lon="1.15994">
        <ele>146.4</ele>
        <time>2022-08-12T16:04:13Z</time>
      </trkpt>
      <trkpt lat="44.77595" lon="1.15995">
        <ele>149.4</ele>
        <time>2022-08-12T16:04:24Z</time>
      </trkpt>
      <trkpt lat="44.77591" lon="1.15993">
        <ele>153.4</ele>
        <time>2022-08-12T16:05:18Z</time>
      </trkpt>
      <trkpt lat="44.77586" lon="1.15992">
        <ele>152.4</ele>
        <time>2022-08-12T16:05:39Z</time>
      </trkpt>
      <trkpt lat="44.77581" lon="1.15995">
        <ele>150.4</ele>
        <time>2022-08-12T16:06:00Z</time>
      </trkpt>
      <trkpt lat="44.77577" lon="1.15997">
        <ele>153.4</ele>
        <time>2022-08-12T16:06:05Z</time>
      </trkpt>
      <trkpt lat="44.77573" lon="1.15999">
        <ele>156.4</ele>
        <time>2022-08-12T16:06:15Z</time>
      </trkpt>
      <trkpt lat="44.77567" lon="1.15999">
        <ele>157.4</ele>
        <time>2022-08-12T16:06:32Z</time>
      </trkpt>
      <trkpt lat="44.77563" lon="1.16002">
        <ele>154.4</ele>
        <time>2022-08-12T16:06:42Z</time>
      </trkpt>
      <trkpt lat="44.77558" lon="1.16003">
        <ele>155.4</ele>
        <time>2022-08-12T16:06:51Z</time>
      </trkpt>
      <trkpt lat="44.77553" lon="1.16">
        <ele>156.4</ele>
        <time>2022-08-12T16:06:54Z</time>
      </trkpt>
      <trkpt lat="44.77549" lon="1.16002">
        <ele>162.4</ele>
        <time>2022-08-12T16:07:33Z</time>
      </trkpt>
      <trkpt lat="44.77543" lon="1.16">
        <ele>161.4</ele>
        <time>2022-08-12T16:07:42Z</time>
      </trkpt>
      <trkpt lat="44.77538" lon="1.16001">
        <ele>161.4</ele>
        <time>2022-08-12T16:07:58Z</time>
      </trkpt>
      <trkpt lat="44.77534" lon="1.16003">
        <ele>163.4</ele>
        <time>2022-08-12T16:08:23Z</time>
      </trkpt>
      <trkpt lat="44.77529" lon="1.16003">
        <ele>163.4</ele>
        <time>2022-08-12T16:08:42Z</time>
      </trkpt>
      <trkpt lat="44.77524" lon="1.16004">
        <ele>161.4</ele>
        <time>2022-08-12T16:08:57Z</time>
      </trkpt>
      <trkpt lat="44.77519" lon="1.16007">
        <ele>162.4</ele>
        <time>2022-08-12T16:09:20Z</time>
      </trkpt>
      <trkpt lat="44.77515" lon="1.16009">
        <ele>162.4</ele>
        <time>2022-08-12T16:09:27Z</time>
      </trkpt>
      <trkpt lat="44.7751" lon="1.16007">
        <ele>163.4</ele>
        <time>2022-08-12T16:10:01Z</time>
      </trkpt>
      <trkpt lat="44.77506" lon="1.16009">
        <ele>167.4</ele>
        <time>2022-08-12T16:10:19Z</time>
      </trkpt>
      <trkpt lat="44.77501" lon="1.16011">
        <ele>168.4</ele>
        <time>2022-08-12T16:10:29Z</time>
      </trkpt>
      <trkpt lat="44.77506" lon="1.16015">
        <ele>172.4</ele>
        <time>2022-08-12T16:11:41Z</time>
      </trkpt>
      <trkpt lat="44.77502" lon="1.16017">
        <ele>170.4</ele>
        <time>2022-08-12T16:12:54Z</time>
      </trkpt>
      <trkpt lat="44.77503" lon="1.16024">
        <ele>172.4</ele>
        <time>2022-08-12T16:13:23Z</time>
      </trkpt>
      <trkpt lat="44.77505" lon="1.1603">
        <ele>172.4</ele>
        <time>2022-08-12T16:13:25Z</time>
      </trkpt>
      <trkpt lat="44.77507" lon="1.16035">
        <ele>172.4</ele>
        <time>2022-08-12T16:13:29Z</time>
      </trkpt>
      <trkpt lat="44.7751" lon="1.16041">
        <ele>171.4</ele>
        <time>2022-08-12T16:13:31Z</time>
      </trkpt>
      <trkpt lat="44.77511" lon="1.16048">
        <ele>172.4</ele>
        <time>2022-08-12T16:13:35Z</time>
      </trkpt>
      <trkpt lat="44.77508" lon="1.16044">
        <ele>172.4</ele>
        <time>2022-08-12T16:13:53Z</time>
      </trkpt>
      <trkpt lat="44.77504" lon="1.16041">
        <ele>170.4</ele>
        <time>2022-08-12T16:14:06Z</time>
      </trkpt>
      <trkpt lat="44.77499" lon="1.16043">
        <ele>171.4</ele>
        <time>2022-08-12T16:14:12Z</time>
      </trkpt>
      <trkpt lat="44.77494" lon="1.16044">
        <ele>171.4</ele>
        <time>2022-08-12T16:14:19Z</time>
      </trkpt>
      <trkpt lat="44.7749" lon="1.16046">
        <ele>171.4</ele>
        <time>2022-08-12T16:14:37Z</time>
      </trkpt>
      <trkpt lat="44.77486" lon="1.1605">
        <ele>173.4</ele>
        <time>2022-08-12T16:14:44Z</time>
      </trkpt>
      <trkpt lat="44.77481" lon="1.16052">
        <ele>174.4</ele>
        <time>2022-08-12T16:14:49Z</time>
      </trkpt>
      <trkpt lat="44.77477" lon="1.16053">
        <ele>174.4</ele>
        <time>2022-08-12T16:14:54Z</time>
      </trkpt>
      <trkpt lat="44.77474" lon="1.16059">
        <ele>173.4</ele>
        <time>2022-08-12T16:15:18Z</time>
      </trkpt>
      <trkpt lat="44.77469" lon="1.16059">
        <ele>174.4</ele>
        <time>2022-08-12T16:15:23Z</time>
      </trkpt>
      <trkpt lat="44.77464" lon="1.16061">
        <ele>176.4</ele>
        <time>2022-08-12T16:15:30Z</time>
      </trkpt>
      <trkpt lat="44.77459" lon="1.16063">
        <ele>177.4</ele>
        <time>2022-08-12T16:15:35Z</time>
      </trkpt>
      <trkpt lat="44.77455" lon="1.16065">
        <ele>178.4</ele>
        <time>2022-08-12T16:15:40Z</time>
      </trkpt>
      <trkpt lat="44.77451" lon="1.16067">
        <ele>179.4</ele>
        <time>2022-08-12T16:15:45Z</time>
      </trkpt>
      <trkpt lat="44.77446" lon="1.16069">
        <ele>181.4</ele>
        <time>2022-08-12T16:15:51Z</time>
      </trkpt>
      <trkpt lat="44.77441" lon="1.16072">
        <ele>182.4</ele>
        <time>2022-08-12T16:15:57Z</time>
      </trkpt>
      <trkpt lat="44.77437" lon="1.16074">
        <ele>183.4</ele>
        <time>2022-08-12T16:16:02Z</time>
      </trkpt>
      <trkpt lat="44.77432" lon="1.16076">
        <ele>184.4</ele>
        <time>2022-08-12T16:16:08Z</time>
      </trkpt>
      <trkpt lat="44.77427" lon="1.16078">
        <ele>185.4</ele>
        <time>2022-08-12T16:16:14Z</time>
      </trkpt>
      <trkpt lat="44.77423" lon="1.16081">
        <ele>185.4</ele>
        <time>2022-08-12T16:16:19Z</time>
      </trkpt>
      <trkpt lat="44.77418" lon="1.16083">
        <ele>185.4</ele>
        <time>2022-08-12T16:16:25Z</time>
      </trkpt>
      <trkpt lat="44.77413" lon="1.16085">
        <ele>185.4</ele>
        <time>2022-08-12T16:16:30Z</time>
      </trkpt>
      <trkpt lat="44.77408" lon="1.16088">
        <ele>186.4</ele>
        <time>2022-08-12T16:16:36Z</time>
      </trkpt>
      <trkpt lat="44.77404" lon="1.16089">
        <ele>186.4</ele>
        <time>2022-08-12T16:16:41Z</time>
      </trkpt>
      <trkpt lat="44.77399" lon="1.1609">
        <ele>187.4</ele>
        <time>2022-08-12T16:16:44Z</time>
      </trkpt>
      <trkpt lat="44.77394" lon="1.16093">
        <ele>187.4</ele>
        <time>2022-08-12T16:16:50Z</time>
      </trkpt>
      <trkpt lat="44.77389" lon="1.16095">
        <ele>187.4</ele>
        <time>2022-08-12T16:16:55Z</time>
      </trkpt>
      <trkpt lat="44.77385" lon="1.16098">
        <ele>187.4</ele>
        <time>2022-08-12T16:17:00Z</time>
      </trkpt>
      <trkpt lat="44.77387" lon="1.16104">
        <ele>189.4</ele>
        <time>2022-08-12T16:17:21Z</time>
      </trkpt>
      <trkpt lat="44.77382" lon="1.16103">
        <ele>190.4</ele>
        <time>2022-08-12T16:17:45Z</time>
      </trkpt>
      <trkpt lat="44.77376" lon="1.16104">
        <ele>189.4</ele>
        <time>2022-08-12T16:17:48Z</time>
      </trkpt>
      <trkpt lat="44.77371" lon="1.16106">
        <ele>189.4</ele>
        <time>2022-08-12T16:17:52Z</time>
      </trkpt>
      <trkpt lat="44.77367" lon="1.16108">
        <ele>189.4</ele>
        <time>2022-08-12T16:17:57Z</time>
      </trkpt>
      <trkpt lat="44.77361" lon="1.1611">
        <ele>189.4</ele>
        <time>2022-08-12T16:18:01Z</time>
      </trkpt>
      <trkpt lat="44.77356" lon="1.16111">
        <ele>189.4</ele>
        <time>2022-08-12T16:18:05Z</time>
      </trkpt>
      <trkpt lat="44.77351" lon="1.16114">
        <ele>190.4</ele>
        <time>2022-08-12T16:18:11Z</time>
      </trkpt>
      <trkpt lat="44.77346" lon="1.16116">
        <ele>190.4</ele>
        <time>2022-08-12T16:18:15Z</time>
      </trkpt>
      <trkpt lat="44.77342" lon="1.16118">
        <ele>191.4</ele>
        <time>2022-08-12T16:18:18Z</time>
      </trkpt>
      <trkpt lat="44.77336" lon="1.1612">
        <ele>191.4</ele>
        <time>2022-08-12T16:18:23Z</time>
      </trkpt>
      <trkpt lat="44.77331" lon="1.16122">
        <ele>191.4</ele>
        <time>2022-08-12T16:18:26Z</time>
      </trkpt>
      <trkpt lat="44.77326" lon="1.16124">
        <ele>192.4</ele>
        <time>2022-08-12T16:18:31Z</time>
      </trkpt>
      <trkpt lat="44.77321" lon="1.16126">
        <ele>193.4</ele>
        <time>2022-08-12T16:18:35Z</time>
      </trkpt>
      <trkpt lat="44.77316" lon="1.16129">
        <ele>194.4</ele>
        <time>2022-08-12T16:18:38Z</time>
      </trkpt>
      <trkpt lat="44.77312" lon="1.16132">
        <ele>195.4</ele>
        <time>2022-08-12T16:18:42Z</time>
      </trkpt>
      <trkpt lat="44.77308" lon="1.16137">
        <ele>201.4</ele>
        <time>2022-08-12T16:19:09Z</time>
      </trkpt>
      <trkpt lat="44.77303" lon="1.1614">
        <ele>202.4</ele>
        <time>2022-08-12T16:19:12Z</time>
      </trkpt>
      <trkpt lat="44.77299" lon="1.16143">
        <ele>204.4</ele>
        <time>2022-08-12T16:19:15Z</time>
      </trkpt>
      <trkpt lat="44.77295" lon="1.16146">
        <ele>206.4</ele>
        <time>2022-08-12T16:19:18Z</time>
      </trkpt>
      <trkpt lat="44.7729" lon="1.1615">
        <ele>207.4</ele>
        <time>2022-08-12T16:19:22Z</time>
      </trkpt>
      <trkpt lat="44.77285" lon="1.16154">
        <ele>209.4</ele>
        <time>2022-08-12T16:19:24Z</time>
      </trkpt>
      <trkpt lat="44.7728" lon="1.16158">
        <ele>209.4</ele>
        <time>2022-08-12T16:19:27Z</time>
      </trkpt>
      <trkpt lat="44.77274" lon="1.16161">
        <ele>209.4</ele>
        <time>2022-08-12T16:19:30Z</time>
      </trkpt>
      <trkpt lat="44.77269" lon="1.16164">
        <ele>209.4</ele>
        <time>2022-08-12T16:19:32Z</time>
      </trkpt>
      <trkpt lat="44.77263" lon="1.16166">
        <ele>210.4</ele>
        <time>2022-08-12T16:19:34Z</time>
      </trkpt>
      <trkpt lat="44.77259" lon="1.16168">
        <ele>209.4</ele>
        <time>2022-08-12T16:19:36Z</time>
      </trkpt>
      <trkpt lat="44.77254" lon="1.16169">
        <ele>209.4</ele>
        <time>2022-08-12T16:19:39Z</time>
      </trkpt>
      <trkpt lat="44.77247" lon="1.16172">
        <ele>210.4</ele>
        <time>2022-08-12T16:19:41Z</time>
      </trkpt>
      <trkpt lat="44.77243" lon="1.16174">
        <ele>210.4</ele>
        <time>2022-08-12T16:19:43Z</time>
      </trkpt>
      <trkpt lat="44.77238" lon="1.16176">
        <ele>211.4</ele>
        <time>2022-08-12T16:19:46Z</time>
      </trkpt>
      <trkpt lat="44.77234" lon="1.16179">
        <ele>211.4</ele>
        <time>2022-08-12T16:19:48Z</time>
      </trkpt>
      <trkpt lat="44.77227" lon="1.16181">
        <ele>212.4</ele>
        <time>2022-08-12T16:19:51Z</time>
      </trkpt>
      <trkpt lat="44.77222" lon="1.16184">
        <ele>212.4</ele>
        <time>2022-08-12T16:19:53Z</time>
      </trkpt>
      <trkpt lat="44.77216" lon="1.16186">
        <ele>211.4</ele>
        <time>2022-08-12T16:19:55Z</time>
      </trkpt>
      <trkpt lat="44.7721" lon="1.16188">
        <ele>211.4</ele>
        <time>2022-08-12T16:19:57Z</time>
      </trkpt>
      <trkpt lat="44.77205" lon="1.16187">
        <ele>210.4</ele>
        <time>2022-08-12T16:19:59Z</time>
      </trkpt>
      <trkpt lat="44.772" lon="1.16181">
        <ele>209.4</ele>
        <time>2022-08-12T16:20:01Z</time>
      </trkpt>
      <trkpt lat="44.77199" lon="1.16172">
        <ele>208.4</ele>
        <time>2022-08-12T16:20:03Z</time>
      </trkpt>
      <trkpt lat="44.77198" lon="1.16164">
        <ele>208.4</ele>
        <time>2022-08-12T16:20:05Z</time>
      </trkpt>
      <trkpt lat="44.77199" lon="1.16156">
        <ele>208.4</ele>
        <time>2022-08-12T16:20:07Z</time>
      </trkpt>
      <trkpt lat="44.77197" lon="1.1615">
        <ele>207.4</ele>
        <time>2022-08-12T16:20:10Z</time>
      </trkpt>
      <trkpt lat="44.77196" lon="1.16143">
        <ele>207.4</ele>
        <time>2022-08-12T16:20:11Z</time>
      </trkpt>
      <trkpt lat="44.77196" lon="1.16134">
        <ele>206.4</ele>
        <time>2022-08-12T16:20:13Z</time>
      </trkpt>
      <trkpt lat="44.77195" lon="1.16124">
        <ele>205.4</ele>
        <time>2022-08-12T16:20:16Z</time>
      </trkpt>
      <trkpt lat="44.77195" lon="1.16113">
        <ele>204.4</ele>
        <time>2022-08-12T16:20:18Z</time>
      </trkpt>
      <trkpt lat="44.77194" lon="1.16104">
        <ele>204.4</ele>
        <time>2022-08-12T16:20:19Z</time>
      </trkpt>
      <trkpt lat="44.77193" lon="1.16095">
        <ele>203.4</ele>
        <time>2022-08-12T16:20:21Z</time>
      </trkpt>
      <trkpt lat="44.77192" lon="1.16087">
        <ele>202.4</ele>
        <time>2022-08-12T16:20:23Z</time>
      </trkpt>
      <trkpt lat="44.77192" lon="1.1608">
        <ele>202.4</ele>
        <time>2022-08-12T16:20:25Z</time>
      </trkpt>
      <trkpt lat="44.77192" lon="1.16072">
        <ele>202.4</ele>
        <time>2022-08-12T16:20:27Z</time>
      </trkpt>
      <trkpt lat="44.77191" lon="1.16064">
        <ele>202.4</ele>
        <time>2022-08-12T16:20:29Z</time>
      </trkpt>
      <trkpt lat="44.77191" lon="1.16056">
        <ele>202.4</ele>
        <time>2022-08-12T16:20:32Z</time>
      </trkpt>
      <trkpt lat="44.7719" lon="1.16048">
        <ele>201.4</ele>
        <time>2022-08-12T16:20:33Z</time>
      </trkpt>
      <trkpt lat="44.7719" lon="1.16037">
        <ele>202.4</ele>
        <time>2022-08-12T16:20:35Z</time>
      </trkpt>
      <trkpt lat="44.7719" lon="1.16027">
        <ele>202.4</ele>
        <time>2022-08-12T16:20:37Z</time>
      </trkpt>
      <trkpt lat="44.77189" lon="1.16018">
        <ele>203.4</ele>
        <time>2022-08-12T16:20:40Z</time>
      </trkpt>
      <trkpt lat="44.77189" lon="1.16008">
        <ele>203.4</ele>
        <time>2022-08-12T16:20:41Z</time>
      </trkpt>
      <trkpt lat="44.77189" lon="1.15999">
        <ele>203.4</ele>
        <time>2022-08-12T16:20:43Z</time>
      </trkpt>
      <trkpt lat="44.7719" lon="1.1599">
        <ele>204.4</ele>
        <time>2022-08-12T16:20:45Z</time>
      </trkpt>
      <trkpt lat="44.7719" lon="1.15982">
        <ele>205.4</ele>
        <time>2022-08-12T16:20:47Z</time>
      </trkpt>
      <trkpt lat="44.77191" lon="1.15974">
        <ele>206.4</ele>
        <time>2022-08-12T16:20:49Z</time>
      </trkpt>
      <trkpt lat="44.77192" lon="1.15965">
        <ele>207.4</ele>
        <time>2022-08-12T16:20:51Z</time>
      </trkpt>
      <trkpt lat="44.77194" lon="1.15956">
        <ele>208.4</ele>
        <time>2022-08-12T16:20:53Z</time>
      </trkpt>
      <trkpt lat="44.77196" lon="1.15947">
        <ele>209.4</ele>
        <time>2022-08-12T16:20:55Z</time>
      </trkpt>
      <trkpt lat="44.77197" lon="1.15939">
        <ele>209.4</ele>
        <time>2022-08-12T16:20:57Z</time>
      </trkpt>
      <trkpt lat="44.772" lon="1.15931">
        <ele>210.4</ele>
        <time>2022-08-12T16:21:00Z</time>
      </trkpt>
      <trkpt lat="44.77202" lon="1.15921">
        <ele>211.4</ele>
        <time>2022-08-12T16:21:01Z</time>
      </trkpt>
      <trkpt lat="44.77203" lon="1.15912">
        <ele>211.4</ele>
        <time>2022-08-12T16:21:03Z</time>
      </trkpt>
      <trkpt lat="44.77205" lon="1.15903">
        <ele>212.4</ele>
        <time>2022-08-12T16:21:05Z</time>
      </trkpt>
      <trkpt lat="44.77206" lon="1.15894">
        <ele>212.4</ele>
        <time>2022-08-12T16:21:07Z</time>
      </trkpt>
      <trkpt lat="44.77207" lon="1.15886">
        <ele>213.4</ele>
        <time>2022-08-12T16:21:09Z</time>
      </trkpt>
      <trkpt lat="44.77208" lon="1.1588">
        <ele>213.4</ele>
        <time>2022-08-12T16:21:11Z</time>
      </trkpt>
      <trkpt lat="44.77208" lon="1.15873">
        <ele>212.4</ele>
        <time>2022-08-12T16:21:13Z</time>
      </trkpt>
      <trkpt lat="44.77208" lon="1.15865">
        <ele>212.4</ele>
        <time>2022-08-12T16:21:15Z</time>
      </trkpt>
      <trkpt lat="44.77209" lon="1.15856">
        <ele>213.4</ele>
        <time>2022-08-12T16:21:17Z</time>
      </trkpt>
      <trkpt lat="44.7721" lon="1.15846">
        <ele>213.4</ele>
        <time>2022-08-12T16:21:20Z</time>
      </trkpt>
      <trkpt lat="44.77211" lon="1.15836">
        <ele>213.4</ele>
        <time>2022-08-12T16:21:22Z</time>
      </trkpt>
      <trkpt lat="44.77211" lon="1.15826">
        <ele>213.4</ele>
        <time>2022-08-12T16:21:23Z</time>
      </trkpt>
      <trkpt lat="44.77212" lon="1.15816">
        <ele>211.4</ele>
        <time>2022-08-12T16:21:25Z</time>
      </trkpt>
      <trkpt lat="44.77213" lon="1.15805">
        <ele>211.4</ele>
        <time>2022-08-12T16:21:28Z</time>
      </trkpt>
      <trkpt lat="44.77215" lon="1.15794">
        <ele>211.4</ele>
        <time>2022-08-12T16:21:30Z</time>
      </trkpt>
      <trkpt lat="44.77216" lon="1.15782">
        <ele>211.4</ele>
        <time>2022-08-12T16:21:32Z</time>
      </trkpt>
      <trkpt lat="44.77217" lon="1.1577">
        <ele>211.4</ele>
        <time>2022-08-12T16:21:34Z</time>
      </trkpt>
      <trkpt lat="44.77217" lon="1.15759">
        <ele>211.4</ele>
        <time>2022-08-12T16:21:35Z</time>
      </trkpt>
      <trkpt lat="44.77217" lon="1.15749">
        <ele>211.4</ele>
        <time>2022-08-12T16:21:37Z</time>
      </trkpt>
      <trkpt lat="44.77218" lon="1.15739">
        <ele>211.4</ele>
        <time>2022-08-12T16:21:39Z</time>
      </trkpt>
      <trkpt lat="44.77219" lon="1.15729">
        <ele>211.4</ele>
        <time>2022-08-12T16:21:42Z</time>
      </trkpt>
      <trkpt lat="44.7722" lon="1.15718">
        <ele>212.4</ele>
        <time>2022-08-12T16:21:43Z</time>
      </trkpt>
      <trkpt lat="44.77221" lon="1.15707">
        <ele>213.4</ele>
        <time>2022-08-12T16:21:45Z</time>
      </trkpt>
      <trkpt lat="44.77221" lon="1.15695">
        <ele>213.4</ele>
        <time>2022-08-12T16:21:47Z</time>
      </trkpt>
      <trkpt lat="44.77222" lon="1.15684">
        <ele>214.4</ele>
        <time>2022-08-12T16:21:49Z</time>
      </trkpt>
      <trkpt lat="44.77223" lon="1.15673">
        <ele>214.4</ele>
        <time>2022-08-12T16:21:51Z</time>
      </trkpt>
      <trkpt lat="44.77224" lon="1.15663">
        <ele>214.4</ele>
        <time>2022-08-12T16:21:53Z</time>
      </trkpt>
      <trkpt lat="44.77225" lon="1.15652">
        <ele>214.4</ele>
        <time>2022-08-12T16:21:55Z</time>
      </trkpt>
      <trkpt lat="44.77226" lon="1.15641">
        <ele>214.4</ele>
        <time>2022-08-12T16:21:57Z</time>
      </trkpt>
      <trkpt lat="44.77226" lon="1.15631">
        <ele>215.4</ele>
        <time>2022-08-12T16:21:59Z</time>
      </trkpt>
      <trkpt lat="44.77227" lon="1.1562">
        <ele>216.4</ele>
        <time>2022-08-12T16:22:01Z</time>
      </trkpt>
      <trkpt lat="44.77228" lon="1.15609">
        <ele>216.4</ele>
        <time>2022-08-12T16:22:03Z</time>
      </trkpt>
      <trkpt lat="44.77229" lon="1.15599">
        <ele>216.4</ele>
        <time>2022-08-12T16:22:05Z</time>
      </trkpt>
      <trkpt lat="44.7723" lon="1.15589">
        <ele>215.4</ele>
        <time>2022-08-12T16:22:07Z</time>
      </trkpt>
      <trkpt lat="44.77231" lon="1.15579">
        <ele>216.4</ele>
        <time>2022-08-12T16:22:10Z</time>
      </trkpt>
      <trkpt lat="44.77232" lon="1.1557">
        <ele>216.4</ele>
        <time>2022-08-12T16:22:12Z</time>
      </trkpt>
      <trkpt lat="44.77233" lon="1.1556">
        <ele>216.4</ele>
        <time>2022-08-12T16:22:13Z</time>
      </trkpt>
      <trkpt lat="44.77233" lon="1.15552">
        <ele>216.4</ele>
        <time>2022-08-12T16:22:16Z</time>
      </trkpt>
      <trkpt lat="44.77235" lon="1.15542">
        <ele>216.4</ele>
        <time>2022-08-12T16:22:17Z</time>
      </trkpt>
      <trkpt lat="44.77236" lon="1.15533">
        <ele>216.4</ele>
        <time>2022-08-12T16:22:19Z</time>
      </trkpt>
      <trkpt lat="44.77237" lon="1.15524">
        <ele>217.4</ele>
        <time>2022-08-12T16:22:21Z</time>
      </trkpt>
      <trkpt lat="44.77237" lon="1.15515">
        <ele>218.4</ele>
        <time>2022-08-12T16:22:24Z</time>
      </trkpt>
      <trkpt lat="44.77237" lon="1.15507">
        <ele>218.4</ele>
        <time>2022-08-12T16:22:25Z</time>
      </trkpt>
      <trkpt lat="44.77238" lon="1.15499">
        <ele>218.4</ele>
        <time>2022-08-12T16:22:27Z</time>
      </trkpt>
      <trkpt lat="44.77239" lon="1.15491">
        <ele>219.4</ele>
        <time>2022-08-12T16:22:29Z</time>
      </trkpt>
      <trkpt lat="44.77239" lon="1.15483">
        <ele>219.4</ele>
        <time>2022-08-12T16:22:31Z</time>
      </trkpt>
      <trkpt lat="44.7724" lon="1.15475">
        <ele>219.4</ele>
        <time>2022-08-12T16:22:33Z</time>
      </trkpt>
      <trkpt lat="44.7724" lon="1.15468">
        <ele>219.4</ele>
        <time>2022-08-12T16:22:35Z</time>
      </trkpt>
      <trkpt lat="44.7724" lon="1.1546">
        <ele>219.4</ele>
        <time>2022-08-12T16:22:37Z</time>
      </trkpt>
      <trkpt lat="44.7724" lon="1.15452">
        <ele>219.4</ele>
        <time>2022-08-12T16:22:39Z</time>
      </trkpt>
      <trkpt lat="44.7724" lon="1.15444">
        <ele>219.4</ele>
        <time>2022-08-12T16:22:41Z</time>
      </trkpt>
      <trkpt lat="44.7724" lon="1.15438">
        <ele>220.4</ele>
        <time>2022-08-12T16:22:43Z</time>
      </trkpt>
      <trkpt lat="44.77239" lon="1.15431">
        <ele>220.4</ele>
        <time>2022-08-12T16:22:45Z</time>
      </trkpt>
      <trkpt lat="44.77239" lon="1.15424">
        <ele>220.4</ele>
        <time>2022-08-12T16:22:47Z</time>
      </trkpt>
      <trkpt lat="44.77238" lon="1.15417">
        <ele>221.4</ele>
        <time>2022-08-12T16:22:49Z</time>
      </trkpt>
      <trkpt lat="44.77238" lon="1.15407">
        <ele>222.4</ele>
        <time>2022-08-12T16:22:52Z</time>
      </trkpt>
      <trkpt lat="44.77237" lon="1.154">
        <ele>222.4</ele>
        <time>2022-08-12T16:22:54Z</time>
      </trkpt>
      <trkpt lat="44.77236" lon="1.15394">
        <ele>223.4</ele>
        <time>2022-08-12T16:22:56Z</time>
      </trkpt>
      <trkpt lat="44.77235" lon="1.15387">
        <ele>223.4</ele>
        <time>2022-08-12T16:22:58Z</time>
      </trkpt>
      <trkpt lat="44.77235" lon="1.15378">
        <ele>222.4</ele>
        <time>2022-08-12T16:23:01Z</time>
      </trkpt>
      <trkpt lat="44.77233" lon="1.15369">
        <ele>223.4</ele>
        <time>2022-08-12T16:23:04Z</time>
      </trkpt>
      <trkpt lat="44.77232" lon="1.15361">
        <ele>223.4</ele>
        <time>2022-08-12T16:23:07Z</time>
      </trkpt>
      <trkpt lat="44.7723" lon="1.15352">
        <ele>224.4</ele>
        <time>2022-08-12T16:23:10Z</time>
      </trkpt>
      <trkpt lat="44.77229" lon="1.15344">
        <ele>224.4</ele>
        <time>2022-08-12T16:23:13Z</time>
      </trkpt>
      <trkpt lat="44.77227" lon="1.15337">
        <ele>223.4</ele>
        <time>2022-08-12T16:23:16Z</time>
      </trkpt>
      <trkpt lat="44.77225" lon="1.15331">
        <ele>223.4</ele>
        <time>2022-08-12T16:23:18Z</time>
      </trkpt>
      <trkpt lat="44.77222" lon="1.15326">
        <ele>223.4</ele>
        <time>2022-08-12T16:23:20Z</time>
      </trkpt>
      <trkpt lat="44.77218" lon="1.15319">
        <ele>225.4</ele>
        <time>2022-08-12T16:23:23Z</time>
      </trkpt>
      <trkpt lat="44.77215" lon="1.15313">
        <ele>226.4</ele>
        <time>2022-08-12T16:23:26Z</time>
      </trkpt>
      <trkpt lat="44.77212" lon="1.15308">
        <ele>222.4</ele>
        <time>2022-08-12T16:23:40Z</time>
      </trkpt>
      <trkpt lat="44.77212" lon="1.15314">
        <ele>222.4</ele>
        <time>2022-08-12T16:28:16Z</time>
      </trkpt>
      <trkpt lat="44.7721" lon="1.15309">
        <ele>223.4</ele>
        <time>2022-08-12T16:30:21Z</time>
      </trkpt>
      <trkpt lat="44.77208" lon="1.15302">
        <ele>224.4</ele>
        <time>2022-08-12T16:30:25Z</time>
      </trkpt>
      <trkpt lat="44.77205" lon="1.15296">
        <ele>224.4</ele>
        <time>2022-08-12T16:30:28Z</time>
      </trkpt>
      <trkpt lat="44.77202" lon="1.1529">
        <ele>224.4</ele>
        <time>2022-08-12T16:30:32Z</time>
      </trkpt>
      <trkpt lat="44.77199" lon="1.15283">
        <ele>224.4</ele>
        <time>2022-08-12T16:30:36Z</time>
      </trkpt>
      <trkpt lat="44.77196" lon="1.15278">
        <ele>223.4</ele>
        <time>2022-08-12T16:30:39Z</time>
      </trkpt>
      <trkpt lat="44.77193" lon="1.15272">
        <ele>224.4</ele>
        <time>2022-08-12T16:30:43Z</time>
      </trkpt>
      <trkpt lat="44.77189" lon="1.15267">
        <ele>225.4</ele>
        <time>2022-08-12T16:30:47Z</time>
      </trkpt>
      <trkpt lat="44.77184" lon="1.15263">
        <ele>227.4</ele>
        <time>2022-08-12T16:30:51Z</time>
      </trkpt>
      <trkpt lat="44.7718" lon="1.15259">
        <ele>228.4</ele>
        <time>2022-08-12T16:30:55Z</time>
      </trkpt>
      <trkpt lat="44.77176" lon="1.15255">
        <ele>229.4</ele>
        <time>2022-08-12T16:30:59Z</time>
      </trkpt>
      <trkpt lat="44.77173" lon="1.1525">
        <ele>231.4</ele>
        <time>2022-08-12T16:31:03Z</time>
      </trkpt>
      <trkpt lat="44.77168" lon="1.15246">
        <ele>232.4</ele>
        <time>2022-08-12T16:31:07Z</time>
      </trkpt>
      <trkpt lat="44.77163" lon="1.15241">
        <ele>233.4</ele>
        <time>2022-08-12T16:31:11Z</time>
      </trkpt>
      <trkpt lat="44.77159" lon="1.15237">
        <ele>235.4</ele>
        <time>2022-08-12T16:31:16Z</time>
      </trkpt>
      <trkpt lat="44.77155" lon="1.15233">
        <ele>236.4</ele>
        <time>2022-08-12T16:31:18Z</time>
      </trkpt>
      <trkpt lat="44.77151" lon="1.15229">
        <ele>238.4</ele>
        <time>2022-08-12T16:31:22Z</time>
      </trkpt>
      <trkpt lat="44.77148" lon="1.15225">
        <ele>239.4</ele>
        <time>2022-08-12T16:31:26Z</time>
      </trkpt>
      <trkpt lat="44.77144" lon="1.15221">
        <ele>240.4</ele>
        <time>2022-08-12T16:31:31Z</time>
      </trkpt>
      <trkpt lat="44.77141" lon="1.15213">
        <ele>239.4</ele>
        <time>2022-08-12T16:31:34Z</time>
      </trkpt>
      <trkpt lat="44.77143" lon="1.15207">
        <ele>240.4</ele>
        <time>2022-08-12T16:31:38Z</time>
      </trkpt>
      <trkpt lat="44.77147" lon="1.15201">
        <ele>240.4</ele>
        <time>2022-08-12T16:31:42Z</time>
      </trkpt>
      <trkpt lat="44.7715" lon="1.15196">
        <ele>242.4</ele>
        <time>2022-08-12T16:31:47Z</time>
      </trkpt>
      <trkpt lat="44.77153" lon="1.15189">
        <ele>242.4</ele>
        <time>2022-08-12T16:31:51Z</time>
      </trkpt>
      <trkpt lat="44.77156" lon="1.15182">
        <ele>242.4</ele>
        <time>2022-08-12T16:31:55Z</time>
      </trkpt>
      <trkpt lat="44.77158" lon="1.15176">
        <ele>242.4</ele>
        <time>2022-08-12T16:31:59Z</time>
      </trkpt>
      <trkpt lat="44.77159" lon="1.1517">
        <ele>242.4</ele>
        <time>2022-08-12T16:32:03Z</time>
      </trkpt>
      <trkpt lat="44.77161" lon="1.15163">
        <ele>242.4</ele>
        <time>2022-08-12T16:32:07Z</time>
      </trkpt>
      <trkpt lat="44.77162" lon="1.15156">
        <ele>243.4</ele>
        <time>2022-08-12T16:32:11Z</time>
      </trkpt>
      <trkpt lat="44.77162" lon="1.15147">
        <ele>243.4</ele>
        <time>2022-08-12T16:32:15Z</time>
      </trkpt>
      <trkpt lat="44.77161" lon="1.1514">
        <ele>244.4</ele>
        <time>2022-08-12T16:32:19Z</time>
      </trkpt>
      <trkpt lat="44.7716" lon="1.15131">
        <ele>245.4</ele>
        <time>2022-08-12T16:32:23Z</time>
      </trkpt>
      <trkpt lat="44.7716" lon="1.15124">
        <ele>245.4</ele>
        <time>2022-08-12T16:32:27Z</time>
      </trkpt>
      <trkpt lat="44.77161" lon="1.15118">
        <ele>245.4</ele>
        <time>2022-08-12T16:32:31Z</time>
      </trkpt>
      <trkpt lat="44.77162" lon="1.1511">
        <ele>245.4</ele>
        <time>2022-08-12T16:32:36Z</time>
      </trkpt>
      <trkpt lat="44.77161" lon="1.15103">
        <ele>246.4</ele>
        <time>2022-08-12T16:32:41Z</time>
      </trkpt>
      <trkpt lat="44.7716" lon="1.15095">
        <ele>246.4</ele>
        <time>2022-08-12T16:32:45Z</time>
      </trkpt>
      <trkpt lat="44.77159" lon="1.15088">
        <ele>248.4</ele>
        <time>2022-08-12T16:32:49Z</time>
      </trkpt>
      <trkpt lat="44.77159" lon="1.1508">
        <ele>250.4</ele>
        <time>2022-08-12T16:32:54Z</time>
      </trkpt>
      <trkpt lat="44.77158" lon="1.15073">
        <ele>251.4</ele>
        <time>2022-08-12T16:32:58Z</time>
      </trkpt>
      <trkpt lat="44.77159" lon="1.15066">
        <ele>252.4</ele>
        <time>2022-08-12T16:33:02Z</time>
      </trkpt>
      <trkpt lat="44.77158" lon="1.15059">
        <ele>253.4</ele>
        <time>2022-08-12T16:33:07Z</time>
      </trkpt>
      <trkpt lat="44.77157" lon="1.15053">
        <ele>254.4</ele>
        <time>2022-08-12T16:33:11Z</time>
      </trkpt>
      <trkpt lat="44.77155" lon="1.15047">
        <ele>254.4</ele>
        <time>2022-08-12T16:33:15Z</time>
      </trkpt>
      <trkpt lat="44.77152" lon="1.1504">
        <ele>255.4</ele>
        <time>2022-08-12T16:33:19Z</time>
      </trkpt>
      <trkpt lat="44.77151" lon="1.15033">
        <ele>256.4</ele>
        <time>2022-08-12T16:33:23Z</time>
      </trkpt>
      <trkpt lat="44.77148" lon="1.15026">
        <ele>257.4</ele>
        <time>2022-08-12T16:33:27Z</time>
      </trkpt>
      <trkpt lat="44.77146" lon="1.1502">
        <ele>257.4</ele>
        <time>2022-08-12T16:33:31Z</time>
      </trkpt>
      <trkpt lat="44.77145" lon="1.15012">
        <ele>258.4</ele>
        <time>2022-08-12T16:33:35Z</time>
      </trkpt>
      <trkpt lat="44.77144" lon="1.15004">
        <ele>258.4</ele>
        <time>2022-08-12T16:33:39Z</time>
      </trkpt>
      <trkpt lat="44.77143" lon="1.14997">
        <ele>258.4</ele>
        <time>2022-08-12T16:33:42Z</time>
      </trkpt>
      <trkpt lat="44.77142" lon="1.1499">
        <ele>259.4</ele>
        <time>2022-08-12T16:33:46Z</time>
      </trkpt>
      <trkpt lat="44.77141" lon="1.14982">
        <ele>260.4</ele>
        <time>2022-08-12T16:33:51Z</time>
      </trkpt>
      <trkpt lat="44.77139" lon="1.14975">
        <ele>260.4</ele>
        <time>2022-08-12T16:33:55Z</time>
      </trkpt>
      <trkpt lat="44.77139" lon="1.14969">
        <ele>261.4</ele>
        <time>2022-08-12T16:33:58Z</time>
      </trkpt>
      <trkpt lat="44.77137" lon="1.14961">
        <ele>262.4</ele>
        <time>2022-08-12T16:34:02Z</time>
      </trkpt>
      <trkpt lat="44.77136" lon="1.14955">
        <ele>264.4</ele>
        <time>2022-08-12T16:34:05Z</time>
      </trkpt>
      <trkpt lat="44.77134" lon="1.14947">
        <ele>265.4</ele>
        <time>2022-08-12T16:34:09Z</time>
      </trkpt>
      <trkpt lat="44.77131" lon="1.14942">
        <ele>267.4</ele>
        <time>2022-08-12T16:34:13Z</time>
      </trkpt>
      <trkpt lat="44.77129" lon="1.14936">
        <ele>266.4</ele>
        <time>2022-08-12T16:34:16Z</time>
      </trkpt>
      <trkpt lat="44.77126" lon="1.14931">
        <ele>268.4</ele>
        <time>2022-08-12T16:34:19Z</time>
      </trkpt>
      <trkpt lat="44.77124" lon="1.14925">
        <ele>267.4</ele>
        <time>2022-08-12T16:34:22Z</time>
      </trkpt>
      <trkpt lat="44.7712" lon="1.14921">
        <ele>268.4</ele>
        <time>2022-08-12T16:34:25Z</time>
      </trkpt>
      <trkpt lat="44.77115" lon="1.14918">
        <ele>268.4</ele>
        <time>2022-08-12T16:34:28Z</time>
      </trkpt>
      <trkpt lat="44.7711" lon="1.14918">
        <ele>269.4</ele>
        <time>2022-08-12T16:34:31Z</time>
      </trkpt>
      <trkpt lat="44.77103" lon="1.14919">
        <ele>270.4</ele>
        <time>2022-08-12T16:34:34Z</time>
      </trkpt>
      <trkpt lat="44.77098" lon="1.14919">
        <ele>271.4</ele>
        <time>2022-08-12T16:34:37Z</time>
      </trkpt>
      <trkpt lat="44.77093" lon="1.14915">
        <ele>271.4</ele>
        <time>2022-08-12T16:34:40Z</time>
      </trkpt>
      <trkpt lat="44.7709" lon="1.14909">
        <ele>272.4</ele>
        <time>2022-08-12T16:34:43Z</time>
      </trkpt>
      <trkpt lat="44.77085" lon="1.14911">
        <ele>267.4</ele>
        <time>2022-08-12T16:35:38Z</time>
      </trkpt>
      <trkpt lat="44.77082" lon="1.14905">
        <ele>267.4</ele>
        <time>2022-08-12T16:38:08Z</time>
      </trkpt>
      <trkpt lat="44.77078" lon="1.14901">
        <ele>267.4</ele>
        <time>2022-08-12T16:38:12Z</time>
      </trkpt>
      <trkpt lat="44.77071" lon="1.14896">
        <ele>266.4</ele>
        <time>2022-08-12T16:38:15Z</time>
      </trkpt>
      <trkpt lat="44.77067" lon="1.14892">
        <ele>265.4</ele>
        <time>2022-08-12T16:38:17Z</time>
      </trkpt>
      <trkpt lat="44.77063" lon="1.14887">
        <ele>265.4</ele>
        <time>2022-08-12T16:38:19Z</time>
      </trkpt>
      <trkpt lat="44.77059" lon="1.14882">
        <ele>264.4</ele>
        <time>2022-08-12T16:38:21Z</time>
      </trkpt>
      <trkpt lat="44.77055" lon="1.14877">
        <ele>264.4</ele>
        <time>2022-08-12T16:38:23Z</time>
      </trkpt>
      <trkpt lat="44.77052" lon="1.14871">
        <ele>264.4</ele>
        <time>2022-08-12T16:38:25Z</time>
      </trkpt>
      <trkpt lat="44.77047" lon="1.14865">
        <ele>264.4</ele>
        <time>2022-08-12T16:38:27Z</time>
      </trkpt>
      <trkpt lat="44.77043" lon="1.14857">
        <ele>264.4</ele>
        <time>2022-08-12T16:38:29Z</time>
      </trkpt>
      <trkpt lat="44.77038" lon="1.14847">
        <ele>264.4</ele>
        <time>2022-08-12T16:38:31Z</time>
      </trkpt>
      <trkpt lat="44.77035" lon="1.14836">
        <ele>264.4</ele>
        <time>2022-08-12T16:38:33Z</time>
      </trkpt>
      <trkpt lat="44.77033" lon="1.1483">
        <ele>263.4</ele>
        <time>2022-08-12T16:38:34Z</time>
      </trkpt>
      <trkpt lat="44.77032" lon="1.14824">
        <ele>264.4</ele>
        <time>2022-08-12T16:38:35Z</time>
      </trkpt>
      <trkpt lat="44.77031" lon="1.14817">
        <ele>265.4</ele>
        <time>2022-08-12T16:38:36Z</time>
      </trkpt>
      <trkpt lat="44.77031" lon="1.14809">
        <ele>264.4</ele>
        <time>2022-08-12T16:38:37Z</time>
      </trkpt>
      <trkpt lat="44.77031" lon="1.14801">
        <ele>264.4</ele>
        <time>2022-08-12T16:38:38Z</time>
      </trkpt>
      <trkpt lat="44.77031" lon="1.14794">
        <ele>265.4</ele>
        <time>2022-08-12T16:38:39Z</time>
      </trkpt>
      <trkpt lat="44.77031" lon="1.14786">
        <ele>265.4</ele>
        <time>2022-08-12T16:38:40Z</time>
      </trkpt>
      <trkpt lat="44.77031" lon="1.14778">
        <ele>265.4</ele>
        <time>2022-08-12T16:38:41Z</time>
      </trkpt>
      <trkpt lat="44.77032" lon="1.14771">
        <ele>266.4</ele>
        <time>2022-08-12T16:38:42Z</time>
      </trkpt>
      <trkpt lat="44.77031" lon="1.14764">
        <ele>266.4</ele>
        <time>2022-08-12T16:38:43Z</time>
      </trkpt>
      <trkpt lat="44.77031" lon="1.14757">
        <ele>266.4</ele>
        <time>2022-08-12T16:38:44Z</time>
      </trkpt>
      <trkpt lat="44.7703" lon="1.14749">
        <ele>266.4</ele>
        <time>2022-08-12T16:38:45Z</time>
      </trkpt>
      <trkpt lat="44.7703" lon="1.14742">
        <ele>266.4</ele>
        <time>2022-08-12T16:38:46Z</time>
      </trkpt>
      <trkpt lat="44.7703" lon="1.14735">
        <ele>266.4</ele>
        <time>2022-08-12T16:38:47Z</time>
      </trkpt>
      <trkpt lat="44.77031" lon="1.14727">
        <ele>266.4</ele>
        <time>2022-08-12T16:38:48Z</time>
      </trkpt>
      <trkpt lat="44.77031" lon="1.14719">
        <ele>266.4</ele>
        <time>2022-08-12T16:38:49Z</time>
      </trkpt>
      <trkpt lat="44.77032" lon="1.14712">
        <ele>265.4</ele>
        <time>2022-08-12T16:38:50Z</time>
      </trkpt>
      <trkpt lat="44.77032" lon="1.14704">
        <ele>265.4</ele>
        <time>2022-08-12T16:38:51Z</time>
      </trkpt>
      <trkpt lat="44.77031" lon="1.14696">
        <ele>265.4</ele>
        <time>2022-08-12T16:38:52Z</time>
      </trkpt>
      <trkpt lat="44.77032" lon="1.14688">
        <ele>264.4</ele>
        <time>2022-08-12T16:38:53Z</time>
      </trkpt>
      <trkpt lat="44.77034" lon="1.14679">
        <ele>264.4</ele>
        <time>2022-08-12T16:38:54Z</time>
      </trkpt>
      <trkpt lat="44.77037" lon="1.14671">
        <ele>264.4</ele>
        <time>2022-08-12T16:38:55Z</time>
      </trkpt>
      <trkpt lat="44.7704" lon="1.14664">
        <ele>264.4</ele>
        <time>2022-08-12T16:38:56Z</time>
      </trkpt>
      <trkpt lat="44.77042" lon="1.14658">
        <ele>264.4</ele>
        <time>2022-08-12T16:38:57Z</time>
      </trkpt>
      <trkpt lat="44.77044" lon="1.14651">
        <ele>263.4</ele>
        <time>2022-08-12T16:38:58Z</time>
      </trkpt>
      <trkpt lat="44.77046" lon="1.14644">
        <ele>263.4</ele>
        <time>2022-08-12T16:38:59Z</time>
      </trkpt>
      <trkpt lat="44.77047" lon="1.14637">
        <ele>263.4</ele>
        <time>2022-08-12T16:39:00Z</time>
      </trkpt>
      <trkpt lat="44.77048" lon="1.14631">
        <ele>263.4</ele>
        <time>2022-08-12T16:39:01Z</time>
      </trkpt>
      <trkpt lat="44.7705" lon="1.14619">
        <ele>261.4</ele>
        <time>2022-08-12T16:39:03Z</time>
      </trkpt>
      <trkpt lat="44.77051" lon="1.14607">
        <ele>260.4</ele>
        <time>2022-08-12T16:39:05Z</time>
      </trkpt>
      <trkpt lat="44.77053" lon="1.14595">
        <ele>258.4</ele>
        <time>2022-08-12T16:39:07Z</time>
      </trkpt>
      <trkpt lat="44.77056" lon="1.14582">
        <ele>258.4</ele>
        <time>2022-08-12T16:39:09Z</time>
      </trkpt>
      <trkpt lat="44.77056" lon="1.14575">
        <ele>258.4</ele>
        <time>2022-08-12T16:39:10Z</time>
      </trkpt>
      <trkpt lat="44.77056" lon="1.14568">
        <ele>257.4</ele>
        <time>2022-08-12T16:39:11Z</time>
      </trkpt>
      <trkpt lat="44.77055" lon="1.14561">
        <ele>257.4</ele>
        <time>2022-08-12T16:39:12Z</time>
      </trkpt>
      <trkpt lat="44.77052" lon="1.14555">
        <ele>256.4</ele>
        <time>2022-08-12T16:39:13Z</time>
      </trkpt>
      <trkpt lat="44.77048" lon="1.14549">
        <ele>256.4</ele>
        <time>2022-08-12T16:39:14Z</time>
      </trkpt>
      <trkpt lat="44.77043" lon="1.14543">
        <ele>255.4</ele>
        <time>2022-08-12T16:39:15Z</time>
      </trkpt>
      <trkpt lat="44.77038" lon="1.14538">
        <ele>255.4</ele>
        <time>2022-08-12T16:39:16Z</time>
      </trkpt>
      <trkpt lat="44.77033" lon="1.14534">
        <ele>254.4</ele>
        <time>2022-08-12T16:39:17Z</time>
      </trkpt>
      <trkpt lat="44.77029" lon="1.1453">
        <ele>253.4</ele>
        <time>2022-08-12T16:39:18Z</time>
      </trkpt>
      <trkpt lat="44.77022" lon="1.14524">
        <ele>252.4</ele>
        <time>2022-08-12T16:39:20Z</time>
      </trkpt>
      <trkpt lat="44.77019" lon="1.14518">
        <ele>251.4</ele>
        <time>2022-08-12T16:39:21Z</time>
      </trkpt>
      <trkpt lat="44.77015" lon="1.14513">
        <ele>249.4</ele>
        <time>2022-08-12T16:39:22Z</time>
      </trkpt>
      <trkpt lat="44.77012" lon="1.14507">
        <ele>249.4</ele>
        <time>2022-08-12T16:39:23Z</time>
      </trkpt>
      <trkpt lat="44.77009" lon="1.14501">
        <ele>248.4</ele>
        <time>2022-08-12T16:39:24Z</time>
      </trkpt>
      <trkpt lat="44.77005" lon="1.14494">
        <ele>247.4</ele>
        <time>2022-08-12T16:39:25Z</time>
      </trkpt>
      <trkpt lat="44.77002" lon="1.14487">
        <ele>247.4</ele>
        <time>2022-08-12T16:39:26Z</time>
      </trkpt>
      <trkpt lat="44.77" lon="1.14478">
        <ele>246.4</ele>
        <time>2022-08-12T16:39:27Z</time>
      </trkpt>
      <trkpt lat="44.76999" lon="1.1447">
        <ele>246.4</ele>
        <time>2022-08-12T16:39:28Z</time>
      </trkpt>
      <trkpt lat="44.76998" lon="1.14461">
        <ele>246.4</ele>
        <time>2022-08-12T16:39:29Z</time>
      </trkpt>
      <trkpt lat="44.76998" lon="1.14452">
        <ele>246.4</ele>
        <time>2022-08-12T16:39:30Z</time>
      </trkpt>
      <trkpt lat="44.76997" lon="1.14444">
        <ele>245.4</ele>
        <time>2022-08-12T16:39:31Z</time>
      </trkpt>
      <trkpt lat="44.76997" lon="1.14434">
        <ele>245.4</ele>
        <time>2022-08-12T16:39:33Z</time>
      </trkpt>
      <trkpt lat="44.76996" lon="1.14425">
        <ele>243.4</ele>
        <time>2022-08-12T16:39:36Z</time>
      </trkpt>
      <trkpt lat="44.76992" lon="1.14421">
        <ele>243.4</ele>
        <time>2022-08-12T16:40:22Z</time>
      </trkpt>
      <trkpt lat="44.76987" lon="1.14421">
        <ele>242.4</ele>
        <time>2022-08-12T16:40:28Z</time>
      </trkpt>
      <trkpt lat="44.76982" lon="1.14424">
        <ele>243.4</ele>
        <time>2022-08-12T16:40:31Z</time>
      </trkpt>
      <trkpt lat="44.76978" lon="1.14426">
        <ele>244.4</ele>
        <time>2022-08-12T16:40:33Z</time>
      </trkpt>
      <trkpt lat="44.76973" lon="1.14429">
        <ele>245.4</ele>
        <time>2022-08-12T16:40:35Z</time>
      </trkpt>
      <trkpt lat="44.76969" lon="1.14432">
        <ele>246.4</ele>
        <time>2022-08-12T16:40:37Z</time>
      </trkpt>
      <trkpt lat="44.76964" lon="1.14435">
        <ele>246.4</ele>
        <time>2022-08-12T16:40:39Z</time>
      </trkpt>
      <trkpt lat="44.76959" lon="1.14434">
        <ele>247.4</ele>
        <time>2022-08-12T16:41:17Z</time>
      </trkpt>
      <trkpt lat="44.76954" lon="1.14436">
        <ele>248.4</ele>
        <time>2022-08-12T16:41:22Z</time>
      </trkpt>
      <trkpt lat="44.76949" lon="1.14442">
        <ele>248.4</ele>
        <time>2022-08-12T16:41:26Z</time>
      </trkpt>
      <trkpt lat="44.76945" lon="1.14446">
        <ele>245.4</ele>
        <time>2022-08-12T16:41:28Z</time>
      </trkpt>
      <trkpt lat="44.7694" lon="1.14453">
        <ele>246.4</ele>
        <time>2022-08-12T16:41:31Z</time>
      </trkpt>
      <trkpt lat="44.76937" lon="1.14459">
        <ele>246.4</ele>
        <time>2022-08-12T16:41:33Z</time>
      </trkpt>
      <trkpt lat="44.76935" lon="1.14466">
        <ele>246.4</ele>
        <time>2022-08-12T16:41:35Z</time>
      </trkpt>
      <trkpt lat="44.76934" lon="1.14474">
        <ele>245.4</ele>
        <time>2022-08-12T16:41:38Z</time>
      </trkpt>
      <trkpt lat="44.76934" lon="1.14481">
        <ele>245.4</ele>
        <time>2022-08-12T16:41:40Z</time>
      </trkpt>
      <trkpt lat="44.76933" lon="1.14488">
        <ele>246.4</ele>
        <time>2022-08-12T16:41:42Z</time>
      </trkpt>
      <trkpt lat="44.76933" lon="1.14496">
        <ele>245.4</ele>
        <time>2022-08-12T16:41:44Z</time>
      </trkpt>
      <trkpt lat="44.76933" lon="1.14504">
        <ele>245.4</ele>
        <time>2022-08-12T16:41:46Z</time>
      </trkpt>
      <trkpt lat="44.76933" lon="1.14511">
        <ele>246.4</ele>
        <time>2022-08-12T16:41:48Z</time>
      </trkpt>
      <trkpt lat="44.76933" lon="1.14518">
        <ele>247.4</ele>
        <time>2022-08-12T16:41:50Z</time>
      </trkpt>
      <trkpt lat="44.76934" lon="1.14525">
        <ele>250.4</ele>
        <time>2022-08-12T16:41:52Z</time>
      </trkpt>
      <trkpt lat="44.76937" lon="1.14534">
        <ele>252.4</ele>
        <time>2022-08-12T16:41:55Z</time>
      </trkpt>
      <trkpt lat="44.76938" lon="1.14541">
        <ele>251.4</ele>
        <time>2022-08-12T16:41:57Z</time>
      </trkpt>
      <trkpt lat="44.76938" lon="1.14548">
        <ele>251.4</ele>
        <time>2022-08-12T16:41:59Z</time>
      </trkpt>
      <trkpt lat="44.76939" lon="1.14556">
        <ele>251.4</ele>
        <time>2022-08-12T16:42:01Z</time>
      </trkpt>
      <trkpt lat="44.76939" lon="1.14563">
        <ele>252.4</ele>
        <time>2022-08-12T16:42:03Z</time>
      </trkpt>
      <trkpt lat="44.76939" lon="1.14572">
        <ele>252.4</ele>
        <time>2022-08-12T16:42:05Z</time>
      </trkpt>
      <trkpt lat="44.7694" lon="1.14581">
        <ele>252.4</ele>
        <time>2022-08-12T16:42:07Z</time>
      </trkpt>
      <trkpt lat="44.76941" lon="1.1459">
        <ele>252.4</ele>
        <time>2022-08-12T16:42:09Z</time>
      </trkpt>
      <trkpt lat="44.76942" lon="1.14601">
        <ele>252.4</ele>
        <time>2022-08-12T16:42:11Z</time>
      </trkpt>
      <trkpt lat="44.76942" lon="1.14612">
        <ele>251.4</ele>
        <time>2022-08-12T16:42:13Z</time>
      </trkpt>
      <trkpt lat="44.76943" lon="1.14619">
        <ele>248.4</ele>
        <time>2022-08-12T16:42:14Z</time>
      </trkpt>
      <trkpt lat="44.76943" lon="1.14626">
        <ele>247.4</ele>
        <time>2022-08-12T16:42:15Z</time>
      </trkpt>
      <trkpt lat="44.76943" lon="1.14632">
        <ele>247.4</ele>
        <time>2022-08-12T16:42:16Z</time>
      </trkpt>
      <trkpt lat="44.76943" lon="1.14639">
        <ele>246.4</ele>
        <time>2022-08-12T16:42:17Z</time>
      </trkpt>
      <trkpt lat="44.76943" lon="1.1465">
        <ele>245.4</ele>
        <time>2022-08-12T16:42:19Z</time>
      </trkpt>
      <trkpt lat="44.76943" lon="1.1466">
        <ele>245.4</ele>
        <time>2022-08-12T16:42:21Z</time>
      </trkpt>
      <trkpt lat="44.76941" lon="1.14671">
        <ele>245.4</ele>
        <time>2022-08-12T16:42:23Z</time>
      </trkpt>
      <trkpt lat="44.76939" lon="1.14676">
        <ele>245.4</ele>
        <time>2022-08-12T16:42:24Z</time>
      </trkpt>
      <trkpt lat="44.76935" lon="1.14682">
        <ele>245.4</ele>
        <time>2022-08-12T16:42:25Z</time>
      </trkpt>
      <trkpt lat="44.76931" lon="1.14689">
        <ele>245.4</ele>
        <time>2022-08-12T16:42:26Z</time>
      </trkpt>
      <trkpt lat="44.76928" lon="1.14697">
        <ele>245.4</ele>
        <time>2022-08-12T16:42:27Z</time>
      </trkpt>
      <trkpt lat="44.76924" lon="1.14706">
        <ele>245.4</ele>
        <time>2022-08-12T16:42:28Z</time>
      </trkpt>
      <trkpt lat="44.76921" lon="1.14715">
        <ele>245.4</ele>
        <time>2022-08-12T16:42:29Z</time>
      </trkpt>
      <trkpt lat="44.76917" lon="1.14724">
        <ele>245.4</ele>
        <time>2022-08-12T16:42:30Z</time>
      </trkpt>
      <trkpt lat="44.76913" lon="1.14732">
        <ele>245.4</ele>
        <time>2022-08-12T16:42:31Z</time>
      </trkpt>
      <trkpt lat="44.7691" lon="1.1474">
        <ele>245.4</ele>
        <time>2022-08-12T16:42:32Z</time>
      </trkpt>
      <trkpt lat="44.76907" lon="1.14746">
        <ele>244.4</ele>
        <time>2022-08-12T16:42:33Z</time>
      </trkpt>
      <trkpt lat="44.76904" lon="1.14752">
        <ele>243.4</ele>
        <time>2022-08-12T16:42:34Z</time>
      </trkpt>
      <trkpt lat="44.76899" lon="1.14759">
        <ele>243.4</ele>
        <time>2022-08-12T16:42:36Z</time>
      </trkpt>
      <trkpt lat="44.76893" lon="1.14763">
        <ele>243.4</ele>
        <time>2022-08-12T16:42:38Z</time>
      </trkpt>
      <trkpt lat="44.76885" lon="1.14769">
        <ele>242.4</ele>
        <time>2022-08-12T16:42:41Z</time>
      </trkpt>
      <trkpt lat="44.7688" lon="1.14771">
        <ele>241.4</ele>
        <time>2022-08-12T16:42:42Z</time>
      </trkpt>
      <trkpt lat="44.76872" lon="1.14773">
        <ele>240.4</ele>
        <time>2022-08-12T16:42:43Z</time>
      </trkpt>
      <trkpt lat="44.76865" lon="1.14776">
        <ele>239.4</ele>
        <time>2022-08-12T16:42:46Z</time>
      </trkpt>
      <trkpt lat="44.76859" lon="1.14779">
        <ele>239.4</ele>
        <time>2022-08-12T16:42:47Z</time>
      </trkpt>
      <trkpt lat="44.76853" lon="1.14784">
        <ele>239.4</ele>
        <time>2022-08-12T16:42:49Z</time>
      </trkpt>
      <trkpt lat="44.76846" lon="1.14789">
        <ele>238.4</ele>
        <time>2022-08-12T16:42:52Z</time>
      </trkpt>
      <trkpt lat="44.76841" lon="1.14792">
        <ele>238.4</ele>
        <time>2022-08-12T16:42:52Z</time>
      </trkpt>
      <trkpt lat="44.76835" lon="1.14797">
        <ele>237.4</ele>
        <time>2022-08-12T16:42:55Z</time>
      </trkpt>
      <trkpt lat="44.76828" lon="1.148">
        <ele>237.4</ele>
        <time>2022-08-12T16:42:57Z</time>
      </trkpt>
      <trkpt lat="44.76821" lon="1.14801">
        <ele>237.4</ele>
        <time>2022-08-12T16:42:58Z</time>
      </trkpt>
      <trkpt lat="44.76816" lon="1.14801">
        <ele>236.4</ele>
        <time>2022-08-12T16:42:59Z</time>
      </trkpt>
      <trkpt lat="44.76807" lon="1.148">
        <ele>237.4</ele>
        <time>2022-08-12T16:43:01Z</time>
      </trkpt>
      <trkpt lat="44.76799" lon="1.14798">
        <ele>236.4</ele>
        <time>2022-08-12T16:43:03Z</time>
      </trkpt>
      <trkpt lat="44.76794" lon="1.14797">
        <ele>236.4</ele>
        <time>2022-08-12T16:43:04Z</time>
      </trkpt>
      <trkpt lat="44.7679" lon="1.14796">
        <ele>236.4</ele>
        <time>2022-08-12T16:43:06Z</time>
      </trkpt>
      <trkpt lat="44.76782" lon="1.14793">
        <ele>235.4</ele>
        <time>2022-08-12T16:43:07Z</time>
      </trkpt>
      <trkpt lat="44.76774" lon="1.1479">
        <ele>235.4</ele>
        <time>2022-08-12T16:43:09Z</time>
      </trkpt>
      <trkpt lat="44.76767" lon="1.14786">
        <ele>235.4</ele>
        <time>2022-08-12T16:43:12Z</time>
      </trkpt>
      <trkpt lat="44.7676" lon="1.14784">
        <ele>234.4</ele>
        <time>2022-08-12T16:43:13Z</time>
      </trkpt>
      <trkpt lat="44.76753" lon="1.14781">
        <ele>234.4</ele>
        <time>2022-08-12T16:43:16Z</time>
      </trkpt>
      <trkpt lat="44.76743" lon="1.1478">
        <ele>234.4</ele>
        <time>2022-08-12T16:43:18Z</time>
      </trkpt>
      <trkpt lat="44.76737" lon="1.14778">
        <ele>234.4</ele>
        <time>2022-08-12T16:43:21Z</time>
      </trkpt>
      <trkpt lat="44.76729" lon="1.14777">
        <ele>234.4</ele>
        <time>2022-08-12T16:43:22Z</time>
      </trkpt>
      <trkpt lat="44.76722" lon="1.14779">
        <ele>234.4</ele>
        <time>2022-08-12T16:43:25Z</time>
      </trkpt>
      <trkpt lat="44.76715" lon="1.14781">
        <ele>235.4</ele>
        <time>2022-08-12T16:43:27Z</time>
      </trkpt>
      <trkpt lat="44.76709" lon="1.14785">
        <ele>235.4</ele>
        <time>2022-08-12T16:43:28Z</time>
      </trkpt>
      <trkpt lat="44.76701" lon="1.14788">
        <ele>236.4</ele>
        <time>2022-08-12T16:43:31Z</time>
      </trkpt>
      <trkpt lat="44.76694" lon="1.1479">
        <ele>235.4</ele>
        <time>2022-08-12T16:43:32Z</time>
      </trkpt>
      <trkpt lat="44.76687" lon="1.14792">
        <ele>235.4</ele>
        <time>2022-08-12T16:43:34Z</time>
      </trkpt>
      <trkpt lat="44.76682" lon="1.14792">
        <ele>235.4</ele>
        <time>2022-08-12T16:43:35Z</time>
      </trkpt>
      <trkpt lat="44.76673" lon="1.14795">
        <ele>235.4</ele>
        <time>2022-08-12T16:43:37Z</time>
      </trkpt>
      <trkpt lat="44.76667" lon="1.14797">
        <ele>235.4</ele>
        <time>2022-08-12T16:43:38Z</time>
      </trkpt>
      <trkpt lat="44.76662" lon="1.148">
        <ele>235.4</ele>
        <time>2022-08-12T16:43:39Z</time>
      </trkpt>
      <trkpt lat="44.76658" lon="1.14804">
        <ele>236.4</ele>
        <time>2022-08-12T16:43:40Z</time>
      </trkpt>
      <trkpt lat="44.76652" lon="1.1481">
        <ele>236.4</ele>
        <time>2022-08-12T16:43:41Z</time>
      </trkpt>
      <trkpt lat="44.76646" lon="1.14815">
        <ele>236.4</ele>
        <time>2022-08-12T16:43:42Z</time>
      </trkpt>
      <trkpt lat="44.7664" lon="1.14821">
        <ele>235.4</ele>
        <time>2022-08-12T16:43:43Z</time>
      </trkpt>
      <trkpt lat="44.76634" lon="1.14828">
        <ele>235.4</ele>
        <time>2022-08-12T16:43:44Z</time>
      </trkpt>
      <trkpt lat="44.76627" lon="1.14835">
        <ele>235.4</ele>
        <time>2022-08-12T16:43:45Z</time>
      </trkpt>
      <trkpt lat="44.7662" lon="1.14841">
        <ele>235.4</ele>
        <time>2022-08-12T16:43:47Z</time>
      </trkpt>
      <trkpt lat="44.76613" lon="1.14844">
        <ele>235.4</ele>
        <time>2022-08-12T16:43:47Z</time>
      </trkpt>
      <trkpt lat="44.76605" lon="1.14848">
        <ele>235.4</ele>
        <time>2022-08-12T16:43:48Z</time>
      </trkpt>
      <trkpt lat="44.76598" lon="1.14851">
        <ele>235.4</ele>
        <time>2022-08-12T16:43:50Z</time>
      </trkpt>
      <trkpt lat="44.76591" lon="1.14853">
        <ele>234.4</ele>
        <time>2022-08-12T16:43:51Z</time>
      </trkpt>
      <trkpt lat="44.76584" lon="1.14856">
        <ele>234.4</ele>
        <time>2022-08-12T16:43:52Z</time>
      </trkpt>
      <trkpt lat="44.76576" lon="1.14859">
        <ele>233.4</ele>
        <time>2022-08-12T16:43:52Z</time>
      </trkpt>
      <trkpt lat="44.76568" lon="1.14862">
        <ele>233.4</ele>
        <time>2022-08-12T16:43:53Z</time>
      </trkpt>
      <trkpt lat="44.76562" lon="1.14864">
        <ele>232.4</ele>
        <time>2022-08-12T16:43:55Z</time>
      </trkpt>
      <trkpt lat="44.76556" lon="1.14865">
        <ele>232.4</ele>
        <time>2022-08-12T16:43:56Z</time>
      </trkpt>
      <trkpt lat="44.76551" lon="1.14866">
        <ele>232.4</ele>
        <time>2022-08-12T16:43:57Z</time>
      </trkpt>
      <trkpt lat="44.76544" lon="1.14867">
        <ele>231.4</ele>
        <time>2022-08-12T16:43:58Z</time>
      </trkpt>
      <trkpt lat="44.76537" lon="1.1487">
        <ele>231.4</ele>
        <time>2022-08-12T16:44:01Z</time>
      </trkpt>
      <trkpt lat="44.76533" lon="1.14873">
        <ele>230.4</ele>
        <time>2022-08-12T16:44:02Z</time>
      </trkpt>
      <trkpt lat="44.76529" lon="1.14875">
        <ele>231.4</ele>
        <time>2022-08-12T16:44:05Z</time>
      </trkpt>
      <trkpt lat="44.76521" lon="1.14879">
        <ele>231.4</ele>
        <time>2022-08-12T16:44:07Z</time>
      </trkpt>
      <trkpt lat="44.76516" lon="1.14882">
        <ele>231.4</ele>
        <time>2022-08-12T16:44:09Z</time>
      </trkpt>
      <trkpt lat="44.7651" lon="1.14884">
        <ele>232.4</ele>
        <time>2022-08-12T16:44:12Z</time>
      </trkpt>
      <trkpt lat="44.76505" lon="1.14887">
        <ele>232.4</ele>
        <time>2022-08-12T16:44:13Z</time>
      </trkpt>
      <trkpt lat="44.76501" lon="1.1489">
        <ele>231.4</ele>
        <time>2022-08-12T16:44:16Z</time>
      </trkpt>
      <trkpt lat="44.76496" lon="1.14893">
        <ele>231.4</ele>
        <time>2022-08-12T16:44:17Z</time>
      </trkpt>
      <trkpt lat="44.76491" lon="1.14896">
        <ele>230.4</ele>
        <time>2022-08-12T16:44:20Z</time>
      </trkpt>
      <trkpt lat="44.76485" lon="1.14899">
        <ele>230.4</ele>
        <time>2022-08-12T16:44:21Z</time>
      </trkpt>
      <trkpt lat="44.76478" lon="1.14903">
        <ele>230.4</ele>
        <time>2022-08-12T16:44:23Z</time>
      </trkpt>
      <trkpt lat="44.76474" lon="1.14908">
        <ele>230.4</ele>
        <time>2022-08-12T16:44:26Z</time>
      </trkpt>
      <trkpt lat="44.76471" lon="1.14914">
        <ele>230.4</ele>
        <time>2022-08-12T16:44:27Z</time>
      </trkpt>
      <trkpt lat="44.7647" lon="1.1492">
        <ele>229.4</ele>
        <time>2022-08-12T16:44:30Z</time>
      </trkpt>
      <trkpt lat="44.76468" lon="1.14927">
        <ele>229.4</ele>
        <time>2022-08-12T16:44:32Z</time>
      </trkpt>
      <trkpt lat="44.76467" lon="1.14934">
        <ele>229.4</ele>
        <time>2022-08-12T16:44:33Z</time>
      </trkpt>
      <trkpt lat="44.76465" lon="1.14943">
        <ele>228.4</ele>
        <time>2022-08-12T16:44:36Z</time>
      </trkpt>
      <trkpt lat="44.76462" lon="1.14954">
        <ele>228.4</ele>
        <time>2022-08-12T16:44:38Z</time>
      </trkpt>
      <trkpt lat="44.7646" lon="1.14961">
        <ele>228.4</ele>
        <time>2022-08-12T16:44:40Z</time>
      </trkpt>
      <trkpt lat="44.76459" lon="1.1497">
        <ele>227.4</ele>
        <time>2022-08-12T16:44:42Z</time>
      </trkpt>
      <trkpt lat="44.76458" lon="1.14981">
        <ele>228.4</ele>
        <time>2022-08-12T16:44:44Z</time>
      </trkpt>
      <trkpt lat="44.76458" lon="1.14992">
        <ele>228.4</ele>
        <time>2022-08-12T16:44:46Z</time>
      </trkpt>
      <trkpt lat="44.76458" lon="1.15003">
        <ele>228.4</ele>
        <time>2022-08-12T16:44:48Z</time>
      </trkpt>
      <trkpt lat="44.76458" lon="1.15011">
        <ele>228.4</ele>
        <time>2022-08-12T16:44:49Z</time>
      </trkpt>
      <trkpt lat="44.76459" lon="1.1502">
        <ele>227.4</ele>
        <time>2022-08-12T16:44:50Z</time>
      </trkpt>
      <trkpt lat="44.76459" lon="1.15031">
        <ele>226.4</ele>
        <time>2022-08-12T16:44:51Z</time>
      </trkpt>
      <trkpt lat="44.76458" lon="1.15041">
        <ele>226.4</ele>
        <time>2022-08-12T16:44:52Z</time>
      </trkpt>
      <trkpt lat="44.76458" lon="1.15051">
        <ele>226.4</ele>
        <time>2022-08-12T16:44:53Z</time>
      </trkpt>
      <trkpt lat="44.7646" lon="1.15063">
        <ele>225.4</ele>
        <time>2022-08-12T16:44:54Z</time>
      </trkpt>
      <trkpt lat="44.76462" lon="1.15074">
        <ele>224.4</ele>
        <time>2022-08-12T16:44:56Z</time>
      </trkpt>
      <trkpt lat="44.76464" lon="1.15085">
        <ele>225.4</ele>
        <time>2022-08-12T16:44:57Z</time>
      </trkpt>
      <trkpt lat="44.76466" lon="1.15095">
        <ele>224.4</ele>
        <time>2022-08-12T16:44:57Z</time>
      </trkpt>
      <trkpt lat="44.76469" lon="1.15106">
        <ele>224.4</ele>
        <time>2022-08-12T16:44:58Z</time>
      </trkpt>
      <trkpt lat="44.76471" lon="1.15118">
        <ele>224.4</ele>
        <time>2022-08-12T16:45:00Z</time>
      </trkpt>
      <trkpt lat="44.76474" lon="1.15128">
        <ele>223.4</ele>
        <time>2022-08-12T16:45:00Z</time>
      </trkpt>
      <trkpt lat="44.76477" lon="1.15138">
        <ele>222.4</ele>
        <time>2022-08-12T16:45:01Z</time>
      </trkpt>
      <trkpt lat="44.76481" lon="1.15146">
        <ele>222.4</ele>
        <time>2022-08-12T16:45:02Z</time>
      </trkpt>
      <trkpt lat="44.76486" lon="1.15154">
        <ele>222.4</ele>
        <time>2022-08-12T16:45:03Z</time>
      </trkpt>
      <trkpt lat="44.76492" lon="1.15161">
        <ele>221.4</ele>
        <time>2022-08-12T16:45:05Z</time>
      </trkpt>
      <trkpt lat="44.76497" lon="1.15167">
        <ele>221.4</ele>
        <time>2022-08-12T16:45:05Z</time>
      </trkpt>
      <trkpt lat="44.76503" lon="1.15174">
        <ele>221.4</ele>
        <time>2022-08-12T16:45:06Z</time>
      </trkpt>
      <trkpt lat="44.76508" lon="1.1518">
        <ele>220.4</ele>
        <time>2022-08-12T16:45:07Z</time>
      </trkpt>
      <trkpt lat="44.76513" lon="1.15187">
        <ele>220.4</ele>
        <time>2022-08-12T16:45:08Z</time>
      </trkpt>
      <trkpt lat="44.76518" lon="1.15192">
        <ele>219.4</ele>
        <time>2022-08-12T16:45:09Z</time>
      </trkpt>
      <trkpt lat="44.76524" lon="1.15197">
        <ele>219.4</ele>
        <time>2022-08-12T16:45:11Z</time>
      </trkpt>
      <trkpt lat="44.76527" lon="1.15201">
        <ele>219.4</ele>
        <time>2022-08-12T16:45:12Z</time>
      </trkpt>
      <trkpt lat="44.76531" lon="1.15205">
        <ele>219.4</ele>
        <time>2022-08-12T16:45:13Z</time>
      </trkpt>
      <trkpt lat="44.76533" lon="1.15211">
        <ele>219.4</ele>
        <time>2022-08-12T16:45:15Z</time>
      </trkpt>
      <trkpt lat="44.76538" lon="1.15217">
        <ele>219.4</ele>
        <time>2022-08-12T16:45:17Z</time>
      </trkpt>
      <trkpt lat="44.76545" lon="1.15225">
        <ele>218.4</ele>
        <time>2022-08-12T16:45:19Z</time>
      </trkpt>
      <trkpt lat="44.76552" lon="1.15231">
        <ele>216.4</ele>
        <time>2022-08-12T16:45:21Z</time>
      </trkpt>
      <trkpt lat="44.76559" lon="1.15238">
        <ele>216.4</ele>
        <time>2022-08-12T16:45:23Z</time>
      </trkpt>
      <trkpt lat="44.76567" lon="1.15245">
        <ele>216.4</ele>
        <time>2022-08-12T16:45:25Z</time>
      </trkpt>
      <trkpt lat="44.76573" lon="1.15251">
        <ele>216.4</ele>
        <time>2022-08-12T16:45:27Z</time>
      </trkpt>
      <trkpt lat="44.7658" lon="1.15259">
        <ele>216.4</ele>
        <time>2022-08-12T16:45:29Z</time>
      </trkpt>
      <trkpt lat="44.76586" lon="1.15269">
        <ele>216.4</ele>
        <time>2022-08-12T16:45:32Z</time>
      </trkpt>
      <trkpt lat="44.76593" lon="1.15281">
        <ele>215.4</ele>
        <time>2022-08-12T16:45:33Z</time>
      </trkpt>
      <trkpt lat="44.76598" lon="1.15286">
        <ele>215.4</ele>
        <time>2022-08-12T16:45:35Z</time>
      </trkpt>
      <trkpt lat="44.76603" lon="1.15292">
        <ele>215.4</ele>
        <time>2022-08-12T16:45:36Z</time>
      </trkpt>
      <trkpt lat="44.76608" lon="1.15298">
        <ele>215.4</ele>
        <time>2022-08-12T16:45:37Z</time>
      </trkpt>
      <trkpt lat="44.76613" lon="1.15305">
        <ele>215.4</ele>
        <time>2022-08-12T16:45:37Z</time>
      </trkpt>
      <trkpt lat="44.76617" lon="1.15314">
        <ele>214.4</ele>
        <time>2022-08-12T16:45:38Z</time>
      </trkpt>
      <trkpt lat="44.76622" lon="1.15323">
        <ele>214.4</ele>
        <time>2022-08-12T16:45:40Z</time>
      </trkpt>
      <trkpt lat="44.76627" lon="1.1533">
        <ele>214.4</ele>
        <time>2022-08-12T16:45:40Z</time>
      </trkpt>
      <trkpt lat="44.76632" lon="1.15337">
        <ele>214.4</ele>
        <time>2022-08-12T16:45:42Z</time>
      </trkpt>
      <trkpt lat="44.76637" lon="1.15344">
        <ele>213.4</ele>
        <time>2022-08-12T16:45:42Z</time>
      </trkpt>
      <trkpt lat="44.76642" lon="1.1535">
        <ele>214.4</ele>
        <time>2022-08-12T16:45:43Z</time>
      </trkpt>
      <trkpt lat="44.76646" lon="1.15357">
        <ele>215.4</ele>
        <time>2022-08-12T16:45:44Z</time>
      </trkpt>
      <trkpt lat="44.76649" lon="1.15365">
        <ele>216.4</ele>
        <time>2022-08-12T16:45:45Z</time>
      </trkpt>
      <trkpt lat="44.76652" lon="1.15374">
        <ele>218.4</ele>
        <time>2022-08-12T16:45:47Z</time>
      </trkpt>
      <trkpt lat="44.76653" lon="1.15382">
        <ele>219.4</ele>
        <time>2022-08-12T16:45:47Z</time>
      </trkpt>
      <trkpt lat="44.76654" lon="1.15391">
        <ele>220.4</ele>
        <time>2022-08-12T16:45:48Z</time>
      </trkpt>
      <trkpt lat="44.76655" lon="1.15399">
        <ele>220.4</ele>
        <time>2022-08-12T16:45:49Z</time>
      </trkpt>
      <trkpt lat="44.76655" lon="1.15406">
        <ele>219.4</ele>
        <time>2022-08-12T16:45:51Z</time>
      </trkpt>
      <trkpt lat="44.76654" lon="1.15412">
        <ele>219.4</ele>
        <time>2022-08-12T16:45:52Z</time>
      </trkpt>
      <trkpt lat="44.76652" lon="1.15422">
        <ele>218.4</ele>
        <time>2022-08-12T16:45:53Z</time>
      </trkpt>
      <trkpt lat="44.76651" lon="1.1543">
        <ele>219.4</ele>
        <time>2022-08-12T16:45:55Z</time>
      </trkpt>
      <trkpt lat="44.7665" lon="1.15439">
        <ele>218.4</ele>
        <time>2022-08-12T16:45:57Z</time>
      </trkpt>
      <trkpt lat="44.76649" lon="1.15445">
        <ele>218.4</ele>
        <time>2022-08-12T16:45:59Z</time>
      </trkpt>
      <trkpt lat="44.76646" lon="1.15453">
        <ele>217.4</ele>
        <time>2022-08-12T16:46:02Z</time>
      </trkpt>
      <trkpt lat="44.76644" lon="1.15462">
        <ele>216.4</ele>
        <time>2022-08-12T16:46:05Z</time>
      </trkpt>
      <trkpt lat="44.76642" lon="1.15469">
        <ele>216.4</ele>
        <time>2022-08-12T16:46:07Z</time>
      </trkpt>
      <trkpt lat="44.76642" lon="1.15476">
        <ele>216.4</ele>
        <time>2022-08-12T16:46:09Z</time>
      </trkpt>
      <trkpt lat="44.76643" lon="1.15485">
        <ele>215.4</ele>
        <time>2022-08-12T16:46:13Z</time>
      </trkpt>
      <trkpt lat="44.76648" lon="1.15488">
        <ele>215.4</ele>
        <time>2022-08-12T16:46:15Z</time>
      </trkpt>
      <trkpt lat="44.76654" lon="1.15489">
        <ele>215.4</ele>
        <time>2022-08-12T16:46:18Z</time>
      </trkpt>
      <trkpt lat="44.76659" lon="1.15489">
        <ele>216.4</ele>
        <time>2022-08-12T16:46:22Z</time>
      </trkpt>
      <trkpt lat="44.76666" lon="1.15489">
        <ele>217.4</ele>
        <time>2022-08-12T16:46:24Z</time>
      </trkpt>
      <trkpt lat="44.76671" lon="1.1549">
        <ele>218.4</ele>
        <time>2022-08-12T16:46:28Z</time>
      </trkpt>
      <trkpt lat="44.76668" lon="1.15484">
        <ele>217.4</ele>
        <time>2022-08-12T16:46:33Z</time>
      </trkpt>
      <trkpt lat="44.76662" lon="1.15485">
        <ele>217.4</ele>
        <time>2022-08-12T16:46:48Z</time>
      </trkpt>
      <trkpt lat="44.76657" lon="1.15485">
        <ele>217.4</ele>
        <time>2022-08-12T16:46:52Z</time>
      </trkpt>
      <trkpt lat="44.76651" lon="1.15486">
        <ele>216.4</ele>
        <time>2022-08-12T16:46:53Z</time>
      </trkpt>
      <trkpt lat="44.76644" lon="1.15487">
        <ele>216.4</ele>
        <time>2022-08-12T16:46:56Z</time>
      </trkpt>
      <trkpt lat="44.76639" lon="1.1549">
        <ele>216.4</ele>
        <time>2022-08-12T16:46:58Z</time>
      </trkpt>
      <trkpt lat="44.76634" lon="1.15492">
        <ele>216.4</ele>
        <time>2022-08-12T16:46:59Z</time>
      </trkpt>
      <trkpt lat="44.76631" lon="1.15497">
        <ele>215.4</ele>
        <time>2022-08-12T16:47:02Z</time>
      </trkpt>
      <trkpt lat="44.76631" lon="1.15504">
        <ele>216.4</ele>
        <time>2022-08-12T16:47:04Z</time>
      </trkpt>
      <trkpt lat="44.7663" lon="1.15511">
        <ele>216.4</ele>
        <time>2022-08-12T16:47:06Z</time>
      </trkpt>
      <trkpt lat="44.76629" lon="1.15518">
        <ele>216.4</ele>
        <time>2022-08-12T16:47:08Z</time>
      </trkpt>
      <trkpt lat="44.7663" lon="1.15526">
        <ele>214.4</ele>
        <time>2022-08-12T16:47:11Z</time>
      </trkpt>
      <trkpt lat="44.76631" lon="1.15517">
        <ele>215.4</ele>
        <time>2022-08-12T16:47:25Z</time>
      </trkpt>
      <trkpt lat="44.76632" lon="1.15509">
        <ele>216.4</ele>
        <time>2022-08-12T16:47:27Z</time>
      </trkpt>
      <trkpt lat="44.76631" lon="1.15502">
        <ele>217.4</ele>
        <time>2022-08-12T16:47:29Z</time>
      </trkpt>
      <trkpt lat="44.76633" lon="1.15493">
        <ele>218.4</ele>
        <time>2022-08-12T16:47:32Z</time>
      </trkpt>
      <trkpt lat="44.76639" lon="1.15492">
        <ele>219.4</ele>
        <time>2022-08-12T16:47:35Z</time>
      </trkpt>
      <trkpt lat="44.76646" lon="1.15489">
        <ele>220.4</ele>
        <time>2022-08-12T16:47:38Z</time>
      </trkpt>
      <trkpt lat="44.7665" lon="1.1549">
        <ele>220.4</ele>
        <time>2022-08-12T16:47:40Z</time>
      </trkpt>
      <trkpt lat="44.76655" lon="1.15491">
        <ele>221.4</ele>
        <time>2022-08-12T16:47:42Z</time>
      </trkpt>
      <trkpt lat="44.7666" lon="1.15492">
        <ele>222.4</ele>
        <time>2022-08-12T16:47:44Z</time>
      </trkpt>
      <trkpt lat="44.76665" lon="1.15492">
        <ele>222.4</ele>
        <time>2022-08-12T16:47:46Z</time>
      </trkpt>
      <trkpt lat="44.76671" lon="1.15491">
        <ele>222.4</ele>
        <time>2022-08-12T16:47:48Z</time>
      </trkpt>
      <trkpt lat="44.76678" lon="1.15491">
        <ele>222.4</ele>
        <time>2022-08-12T16:47:50Z</time>
      </trkpt>
      <trkpt lat="44.76685" lon="1.15492">
        <ele>222.4</ele>
        <time>2022-08-12T16:47:53Z</time>
      </trkpt>
      <trkpt lat="44.76692" lon="1.15494">
        <ele>223.4</ele>
        <time>2022-08-12T16:47:54Z</time>
      </trkpt>
      <trkpt lat="44.767" lon="1.15495">
        <ele>223.4</ele>
        <time>2022-08-12T16:47:56Z</time>
      </trkpt>
      <trkpt lat="44.76708" lon="1.15498">
        <ele>225.4</ele>
        <time>2022-08-12T16:47:58Z</time>
      </trkpt>
      <trkpt lat="44.76714" lon="1.155">
        <ele>225.4</ele>
        <time>2022-08-12T16:48:02Z</time>
      </trkpt>
      <trkpt lat="44.76716" lon="1.15495">
        <ele>224.4</ele>
        <time>2022-08-12T16:48:06Z</time>
      </trkpt>
      <trkpt lat="44.76712" lon="1.15493">
        <ele>223.4</ele>
        <time>2022-08-12T16:48:10Z</time>
      </trkpt>
      <trkpt lat="44.76704" lon="1.15493">
        <ele>223.4</ele>
        <time>2022-08-12T16:48:12Z</time>
      </trkpt>
      <trkpt lat="44.76698" lon="1.15491">
        <ele>223.4</ele>
        <time>2022-08-12T16:48:14Z</time>
      </trkpt>
      <trkpt lat="44.76693" lon="1.1549">
        <ele>223.4</ele>
        <time>2022-08-12T16:48:16Z</time>
      </trkpt>
      <trkpt lat="44.76688" lon="1.15488">
        <ele>223.4</ele>
        <time>2022-08-12T16:48:18Z</time>
      </trkpt>
      <trkpt lat="44.76683" lon="1.15488">
        <ele>222.4</ele>
        <time>2022-08-12T16:48:20Z</time>
      </trkpt>
      <trkpt lat="44.76678" lon="1.15488">
        <ele>222.4</ele>
        <time>2022-08-12T16:48:22Z</time>
      </trkpt>
      <trkpt lat="44.76672" lon="1.15489">
        <ele>220.4</ele>
        <time>2022-08-12T16:48:25Z</time>
      </trkpt>
      <trkpt lat="44.76677" lon="1.15491">
        <ele>218.4</ele>
        <time>2022-08-12T16:51:40Z</time>
      </trkpt>
      <trkpt lat="44.76682" lon="1.15492">
        <ele>218.4</ele>
        <time>2022-08-12T16:51:43Z</time>
      </trkpt>
      <trkpt lat="44.76689" lon="1.15493">
        <ele>219.4</ele>
        <time>2022-08-12T16:51:46Z</time>
      </trkpt>
      <trkpt lat="44.76696" lon="1.15494">
        <ele>218.4</ele>
        <time>2022-08-12T16:51:48Z</time>
      </trkpt>
      <trkpt lat="44.76703" lon="1.15496">
        <ele>218.4</ele>
        <time>2022-08-12T16:51:50Z</time>
      </trkpt>
      <trkpt lat="44.7671" lon="1.15499">
        <ele>217.4</ele>
        <time>2022-08-12T16:51:52Z</time>
      </trkpt>
      <trkpt lat="44.76717" lon="1.155">
        <ele>216.4</ele>
        <time>2022-08-12T16:51:54Z</time>
      </trkpt>
      <trkpt lat="44.76724" lon="1.15501">
        <ele>217.4</ele>
        <time>2022-08-12T16:51:56Z</time>
      </trkpt>
      <trkpt lat="44.76731" lon="1.15503">
        <ele>217.4</ele>
        <time>2022-08-12T16:51:58Z</time>
      </trkpt>
      <trkpt lat="44.76738" lon="1.15505">
        <ele>217.4</ele>
        <time>2022-08-12T16:52:00Z</time>
      </trkpt>
      <trkpt lat="44.76747" lon="1.15507">
        <ele>218.4</ele>
        <time>2022-08-12T16:52:02Z</time>
      </trkpt>
      <trkpt lat="44.76752" lon="1.15508">
        <ele>219.4</ele>
        <time>2022-08-12T16:52:03Z</time>
      </trkpt>
      <trkpt lat="44.76759" lon="1.1551">
        <ele>219.4</ele>
        <time>2022-08-12T16:52:05Z</time>
      </trkpt>
      <trkpt lat="44.76763" lon="1.15512">
        <ele>219.4</ele>
        <time>2022-08-12T16:52:07Z</time>
      </trkpt>
      <trkpt lat="44.76771" lon="1.15513">
        <ele>218.4</ele>
        <time>2022-08-12T16:52:09Z</time>
      </trkpt>
      <trkpt lat="44.76777" lon="1.15514">
        <ele>218.4</ele>
        <time>2022-08-12T16:52:10Z</time>
      </trkpt>
      <trkpt lat="44.76782" lon="1.15515">
        <ele>217.4</ele>
        <time>2022-08-12T16:52:11Z</time>
      </trkpt>
      <trkpt lat="44.76787" lon="1.15516">
        <ele>217.4</ele>
        <time>2022-08-12T16:52:12Z</time>
      </trkpt>
      <trkpt lat="44.76791" lon="1.15517">
        <ele>217.4</ele>
        <time>2022-08-12T16:52:13Z</time>
      </trkpt>
      <trkpt lat="44.768" lon="1.1552">
        <ele>216.4</ele>
        <time>2022-08-12T16:52:15Z</time>
      </trkpt>
      <trkpt lat="44.76805" lon="1.15521">
        <ele>215.4</ele>
        <time>2022-08-12T16:52:16Z</time>
      </trkpt>
      <trkpt lat="44.7681" lon="1.15525">
        <ele>215.4</ele>
        <time>2022-08-12T16:52:17Z</time>
      </trkpt>
      <trkpt lat="44.76815" lon="1.15528">
        <ele>215.4</ele>
        <time>2022-08-12T16:52:18Z</time>
      </trkpt>
      <trkpt lat="44.76819" lon="1.15532">
        <ele>215.4</ele>
        <time>2022-08-12T16:52:19Z</time>
      </trkpt>
      <trkpt lat="44.76824" lon="1.15535">
        <ele>214.4</ele>
        <time>2022-08-12T16:52:20Z</time>
      </trkpt>
      <trkpt lat="44.76828" lon="1.15539">
        <ele>213.4</ele>
        <time>2022-08-12T16:52:21Z</time>
      </trkpt>
      <trkpt lat="44.76833" lon="1.15543">
        <ele>213.4</ele>
        <time>2022-08-12T16:52:22Z</time>
      </trkpt>
      <trkpt lat="44.76838" lon="1.15547">
        <ele>212.4</ele>
        <time>2022-08-12T16:52:23Z</time>
      </trkpt>
      <trkpt lat="44.76842" lon="1.15551">
        <ele>212.4</ele>
        <time>2022-08-12T16:52:24Z</time>
      </trkpt>
      <trkpt lat="44.76846" lon="1.15556">
        <ele>211.4</ele>
        <time>2022-08-12T16:52:25Z</time>
      </trkpt>
      <trkpt lat="44.7685" lon="1.15562">
        <ele>210.4</ele>
        <time>2022-08-12T16:52:26Z</time>
      </trkpt>
      <trkpt lat="44.76854" lon="1.15568">
        <ele>210.4</ele>
        <time>2022-08-12T16:52:27Z</time>
      </trkpt>
      <trkpt lat="44.76857" lon="1.15574">
        <ele>209.4</ele>
        <time>2022-08-12T16:52:28Z</time>
      </trkpt>
      <trkpt lat="44.76861" lon="1.15581">
        <ele>208.4</ele>
        <time>2022-08-12T16:52:29Z</time>
      </trkpt>
      <trkpt lat="44.76864" lon="1.15588">
        <ele>207.4</ele>
        <time>2022-08-12T16:52:30Z</time>
      </trkpt>
      <trkpt lat="44.76868" lon="1.15596">
        <ele>206.4</ele>
        <time>2022-08-12T16:52:31Z</time>
      </trkpt>
      <trkpt lat="44.76873" lon="1.15602">
        <ele>205.4</ele>
        <time>2022-08-12T16:52:32Z</time>
      </trkpt>
      <trkpt lat="44.76877" lon="1.15607">
        <ele>205.4</ele>
        <time>2022-08-12T16:52:33Z</time>
      </trkpt>
      <trkpt lat="44.76882" lon="1.15612">
        <ele>204.4</ele>
        <time>2022-08-12T16:52:34Z</time>
      </trkpt>
      <trkpt lat="44.76888" lon="1.15617">
        <ele>204.4</ele>
        <time>2022-08-12T16:52:35Z</time>
      </trkpt>
      <trkpt lat="44.76894" lon="1.15623">
        <ele>202.4</ele>
        <time>2022-08-12T16:52:36Z</time>
      </trkpt>
      <trkpt lat="44.76899" lon="1.1563">
        <ele>201.4</ele>
        <time>2022-08-12T16:52:37Z</time>
      </trkpt>
      <trkpt lat="44.76905" lon="1.15637">
        <ele>201.4</ele>
        <time>2022-08-12T16:52:38Z</time>
      </trkpt>
      <trkpt lat="44.76911" lon="1.15644">
        <ele>200.4</ele>
        <time>2022-08-12T16:52:39Z</time>
      </trkpt>
      <trkpt lat="44.76917" lon="1.15653">
        <ele>200.4</ele>
        <time>2022-08-12T16:52:40Z</time>
      </trkpt>
      <trkpt lat="44.76923" lon="1.1566">
        <ele>199.4</ele>
        <time>2022-08-12T16:52:41Z</time>
      </trkpt>
      <trkpt lat="44.76928" lon="1.15667">
        <ele>198.4</ele>
        <time>2022-08-12T16:52:42Z</time>
      </trkpt>
      <trkpt lat="44.76934" lon="1.15674">
        <ele>197.4</ele>
        <time>2022-08-12T16:52:43Z</time>
      </trkpt>
      <trkpt lat="44.76939" lon="1.1568">
        <ele>196.4</ele>
        <time>2022-08-12T16:52:44Z</time>
      </trkpt>
      <trkpt lat="44.76944" lon="1.15684">
        <ele>196.4</ele>
        <time>2022-08-12T16:52:45Z</time>
      </trkpt>
      <trkpt lat="44.7695" lon="1.15687">
        <ele>195.4</ele>
        <time>2022-08-12T16:52:47Z</time>
      </trkpt>
      <trkpt lat="44.76948" lon="1.15694">
        <ele>193.4</ele>
        <time>2022-08-12T16:52:51Z</time>
      </trkpt>
      <trkpt lat="44.7694" lon="1.15698">
        <ele>192.4</ele>
        <time>2022-08-12T16:52:53Z</time>
      </trkpt>
      <trkpt lat="44.76933" lon="1.15702">
        <ele>191.4</ele>
        <time>2022-08-12T16:52:55Z</time>
      </trkpt>
      <trkpt lat="44.76927" lon="1.15705">
        <ele>191.4</ele>
        <time>2022-08-12T16:52:57Z</time>
      </trkpt>
      <trkpt lat="44.7692" lon="1.15707">
        <ele>190.4</ele>
        <time>2022-08-12T16:52:59Z</time>
      </trkpt>
      <trkpt lat="44.76914" lon="1.15709">
        <ele>190.4</ele>
        <time>2022-08-12T16:53:01Z</time>
      </trkpt>
      <trkpt lat="44.76906" lon="1.1571">
        <ele>188.4</ele>
        <time>2022-08-12T16:53:03Z</time>
      </trkpt>
      <trkpt lat="44.76901" lon="1.1571">
        <ele>186.4</ele>
        <time>2022-08-12T16:53:04Z</time>
      </trkpt>
      <trkpt lat="44.76896" lon="1.1571">
        <ele>185.4</ele>
        <time>2022-08-12T16:53:05Z</time>
      </trkpt>
      <trkpt lat="44.76891" lon="1.1571">
        <ele>185.4</ele>
        <time>2022-08-12T16:53:06Z</time>
      </trkpt>
      <trkpt lat="44.76884" lon="1.15714">
        <ele>184.4</ele>
        <time>2022-08-12T16:53:08Z</time>
      </trkpt>
      <trkpt lat="44.76876" lon="1.15719">
        <ele>183.4</ele>
        <time>2022-08-12T16:53:11Z</time>
      </trkpt>
      <trkpt lat="44.76869" lon="1.15725">
        <ele>181.4</ele>
        <time>2022-08-12T16:53:12Z</time>
      </trkpt>
      <trkpt lat="44.76863" lon="1.1573">
        <ele>181.4</ele>
        <time>2022-08-12T16:53:14Z</time>
      </trkpt>
      <trkpt lat="44.76857" lon="1.15734">
        <ele>180.4</ele>
        <time>2022-08-12T16:53:17Z</time>
      </trkpt>
      <trkpt lat="44.76852" lon="1.15737">
        <ele>180.4</ele>
        <time>2022-08-12T16:53:18Z</time>
      </trkpt>
      <trkpt lat="44.76847" lon="1.15741">
        <ele>180.4</ele>
        <time>2022-08-12T16:53:20Z</time>
      </trkpt>
      <trkpt lat="44.76843" lon="1.15746">
        <ele>180.4</ele>
        <time>2022-08-12T16:53:23Z</time>
      </trkpt>
      <trkpt lat="44.7684" lon="1.15753">
        <ele>180.4</ele>
        <time>2022-08-12T16:53:24Z</time>
      </trkpt>
      <trkpt lat="44.76835" lon="1.15761">
        <ele>179.4</ele>
        <time>2022-08-12T16:53:26Z</time>
      </trkpt>
      <trkpt lat="44.76831" lon="1.15766">
        <ele>179.4</ele>
        <time>2022-08-12T16:53:27Z</time>
      </trkpt>
      <trkpt lat="44.76824" lon="1.15774">
        <ele>177.4</ele>
        <time>2022-08-12T16:53:29Z</time>
      </trkpt>
      <trkpt lat="44.76818" lon="1.1578">
        <ele>177.4</ele>
        <time>2022-08-12T16:53:31Z</time>
      </trkpt>
      <trkpt lat="44.76813" lon="1.15786">
        <ele>177.4</ele>
        <time>2022-08-12T16:53:33Z</time>
      </trkpt>
      <trkpt lat="44.76807" lon="1.15791">
        <ele>176.4</ele>
        <time>2022-08-12T16:53:35Z</time>
      </trkpt>
      <trkpt lat="44.76801" lon="1.15795">
        <ele>176.4</ele>
        <time>2022-08-12T16:53:37Z</time>
      </trkpt>
      <trkpt lat="44.76795" lon="1.158">
        <ele>176.4</ele>
        <time>2022-08-12T16:53:39Z</time>
      </trkpt>
      <trkpt lat="44.76789" lon="1.15803">
        <ele>175.4</ele>
        <time>2022-08-12T16:53:41Z</time>
      </trkpt>
      <trkpt lat="44.76782" lon="1.15807">
        <ele>175.4</ele>
        <time>2022-08-12T16:53:43Z</time>
      </trkpt>
      <trkpt lat="44.76776" lon="1.15812">
        <ele>175.4</ele>
        <time>2022-08-12T16:53:45Z</time>
      </trkpt>
      <trkpt lat="44.7677" lon="1.15817">
        <ele>175.4</ele>
        <time>2022-08-12T16:53:47Z</time>
      </trkpt>
      <trkpt lat="44.76762" lon="1.15822">
        <ele>175.4</ele>
        <time>2022-08-12T16:53:49Z</time>
      </trkpt>
      <trkpt lat="44.76755" lon="1.15826">
        <ele>175.4</ele>
        <time>2022-08-12T16:53:51Z</time>
      </trkpt>
      <trkpt lat="44.76749" lon="1.15829">
        <ele>175.4</ele>
        <time>2022-08-12T16:53:53Z</time>
      </trkpt>
      <trkpt lat="44.7674" lon="1.15831">
        <ele>175.4</ele>
        <time>2022-08-12T16:53:55Z</time>
      </trkpt>
      <trkpt lat="44.76736" lon="1.15833">
        <ele>175.4</ele>
        <time>2022-08-12T16:53:56Z</time>
      </trkpt>
      <trkpt lat="44.76727" lon="1.15837">
        <ele>175.4</ele>
        <time>2022-08-12T16:53:58Z</time>
      </trkpt>
      <trkpt lat="44.76723" lon="1.15839">
        <ele>175.4</ele>
        <time>2022-08-12T16:53:59Z</time>
      </trkpt>
      <trkpt lat="44.76718" lon="1.15842">
        <ele>175.4</ele>
        <time>2022-08-12T16:54:00Z</time>
      </trkpt>
      <trkpt lat="44.76714" lon="1.15845">
        <ele>175.4</ele>
        <time>2022-08-12T16:54:02Z</time>
      </trkpt>
      <trkpt lat="44.76709" lon="1.15847">
        <ele>175.4</ele>
        <time>2022-08-12T16:54:02Z</time>
      </trkpt>
      <trkpt lat="44.76704" lon="1.15849">
        <ele>175.4</ele>
        <time>2022-08-12T16:54:03Z</time>
      </trkpt>
      <trkpt lat="44.767" lon="1.15852">
        <ele>175.4</ele>
        <time>2022-08-12T16:54:04Z</time>
      </trkpt>
      <trkpt lat="44.76692" lon="1.15855">
        <ele>174.4</ele>
        <time>2022-08-12T16:54:06Z</time>
      </trkpt>
      <trkpt lat="44.76687" lon="1.15856">
        <ele>173.4</ele>
        <time>2022-08-12T16:54:07Z</time>
      </trkpt>
      <trkpt lat="44.76682" lon="1.15857">
        <ele>173.4</ele>
        <time>2022-08-12T16:54:08Z</time>
      </trkpt>
      <trkpt lat="44.76677" lon="1.15859">
        <ele>171.4</ele>
        <time>2022-08-12T16:54:09Z</time>
      </trkpt>
      <trkpt lat="44.76671" lon="1.15861">
        <ele>171.4</ele>
        <time>2022-08-12T16:54:10Z</time>
      </trkpt>
      <trkpt lat="44.76665" lon="1.15863">
        <ele>170.4</ele>
        <time>2022-08-12T16:54:11Z</time>
      </trkpt>
      <trkpt lat="44.76658" lon="1.15866">
        <ele>169.4</ele>
        <time>2022-08-12T16:54:12Z</time>
      </trkpt>
      <trkpt lat="44.76652" lon="1.15868">
        <ele>168.4</ele>
        <time>2022-08-12T16:54:13Z</time>
      </trkpt>
      <trkpt lat="44.76647" lon="1.1587">
        <ele>168.4</ele>
        <time>2022-08-12T16:54:15Z</time>
      </trkpt>
      <trkpt lat="44.76642" lon="1.15872">
        <ele>168.4</ele>
        <time>2022-08-12T16:54:15Z</time>
      </trkpt>
      <trkpt lat="44.76637" lon="1.15873">
        <ele>168.4</ele>
        <time>2022-08-12T16:54:16Z</time>
      </trkpt>
      <trkpt lat="44.7663" lon="1.15875">
        <ele>167.4</ele>
        <time>2022-08-12T16:54:18Z</time>
      </trkpt>
      <trkpt lat="44.76624" lon="1.15877">
        <ele>166.4</ele>
        <time>2022-08-12T16:54:21Z</time>
      </trkpt>
      <trkpt lat="44.76623" lon="1.15885">
        <ele>166.4</ele>
        <time>2022-08-12T16:54:24Z</time>
      </trkpt>
      <trkpt lat="44.76628" lon="1.1589">
        <ele>166.4</ele>
        <time>2022-08-12T16:54:26Z</time>
      </trkpt>
      <trkpt lat="44.76634" lon="1.15894">
        <ele>166.4</ele>
        <time>2022-08-12T16:54:28Z</time>
      </trkpt>
      <trkpt lat="44.7664" lon="1.15898">
        <ele>165.4</ele>
        <time>2022-08-12T16:54:30Z</time>
      </trkpt>
      <trkpt lat="44.76646" lon="1.15901">
        <ele>165.4</ele>
        <time>2022-08-12T16:54:32Z</time>
      </trkpt>
      <trkpt lat="44.76653" lon="1.15903">
        <ele>164.4</ele>
        <time>2022-08-12T16:54:34Z</time>
      </trkpt>
      <trkpt lat="44.7666" lon="1.15904">
        <ele>164.4</ele>
        <time>2022-08-12T16:54:36Z</time>
      </trkpt>
      <trkpt lat="44.7667" lon="1.15905">
        <ele>161.4</ele>
        <time>2022-08-12T16:54:38Z</time>
      </trkpt>
      <trkpt lat="44.76675" lon="1.15906">
        <ele>161.4</ele>
        <time>2022-08-12T16:54:39Z</time>
      </trkpt>
      <trkpt lat="44.76681" lon="1.15906">
        <ele>160.4</ele>
        <time>2022-08-12T16:54:40Z</time>
      </trkpt>
      <trkpt lat="44.76687" lon="1.15906">
        <ele>159.4</ele>
        <time>2022-08-12T16:54:41Z</time>
      </trkpt>
      <trkpt lat="44.76692" lon="1.15906">
        <ele>158.4</ele>
        <time>2022-08-12T16:54:42Z</time>
      </trkpt>
      <trkpt lat="44.76698" lon="1.15906">
        <ele>157.4</ele>
        <time>2022-08-12T16:54:43Z</time>
      </trkpt>
      <trkpt lat="44.76704" lon="1.15906">
        <ele>157.4</ele>
        <time>2022-08-12T16:54:44Z</time>
      </trkpt>
      <trkpt lat="44.76711" lon="1.15906">
        <ele>156.4</ele>
        <time>2022-08-12T16:54:45Z</time>
      </trkpt>
      <trkpt lat="44.76717" lon="1.15906">
        <ele>156.4</ele>
        <time>2022-08-12T16:54:46Z</time>
      </trkpt>
      <trkpt lat="44.76723" lon="1.15906">
        <ele>155.4</ele>
        <time>2022-08-12T16:54:47Z</time>
      </trkpt>
      <trkpt lat="44.76728" lon="1.15906">
        <ele>155.4</ele>
        <time>2022-08-12T16:54:48Z</time>
      </trkpt>
      <trkpt lat="44.76733" lon="1.15907">
        <ele>155.4</ele>
        <time>2022-08-12T16:54:49Z</time>
      </trkpt>
      <trkpt lat="44.76738" lon="1.15907">
        <ele>155.4</ele>
        <time>2022-08-12T16:54:50Z</time>
      </trkpt>
      <trkpt lat="44.76744" lon="1.15907">
        <ele>154.4</ele>
        <time>2022-08-12T16:54:51Z</time>
      </trkpt>
      <trkpt lat="44.76751" lon="1.15907">
        <ele>154.4</ele>
        <time>2022-08-12T16:54:52Z</time>
      </trkpt>
      <trkpt lat="44.76757" lon="1.15906">
        <ele>153.4</ele>
        <time>2022-08-12T16:54:53Z</time>
      </trkpt>
      <trkpt lat="44.76763" lon="1.15905">
        <ele>153.4</ele>
        <time>2022-08-12T16:54:54Z</time>
      </trkpt>
      <trkpt lat="44.76769" lon="1.15903">
        <ele>153.4</ele>
        <time>2022-08-12T16:54:55Z</time>
      </trkpt>
      <trkpt lat="44.76775" lon="1.159">
        <ele>153.4</ele>
        <time>2022-08-12T16:54:56Z</time>
      </trkpt>
      <trkpt lat="44.76781" lon="1.15896">
        <ele>153.4</ele>
        <time>2022-08-12T16:54:57Z</time>
      </trkpt>
      <trkpt lat="44.76788" lon="1.15892">
        <ele>153.4</ele>
        <time>2022-08-12T16:54:58Z</time>
      </trkpt>
      <trkpt lat="44.76794" lon="1.15889">
        <ele>152.4</ele>
        <time>2022-08-12T16:54:59Z</time>
      </trkpt>
      <trkpt lat="44.76801" lon="1.15885">
        <ele>151.4</ele>
        <time>2022-08-12T16:55:00Z</time>
      </trkpt>
      <trkpt lat="44.76807" lon="1.15882">
        <ele>151.4</ele>
        <time>2022-08-12T16:55:01Z</time>
      </trkpt>
      <trkpt lat="44.76811" lon="1.1588">
        <ele>151.4</ele>
        <time>2022-08-12T16:55:02Z</time>
      </trkpt>
      <trkpt lat="44.76818" lon="1.15882">
        <ele>150.4</ele>
        <time>2022-08-12T16:55:04Z</time>
      </trkpt>
      <trkpt lat="44.76819" lon="1.15892">
        <ele>150.4</ele>
        <time>2022-08-12T16:55:06Z</time>
      </trkpt>
      <trkpt lat="44.76817" lon="1.15898">
        <ele>149.4</ele>
        <time>2022-08-12T16:55:07Z</time>
      </trkpt>
      <trkpt lat="44.76814" lon="1.15904">
        <ele>148.4</ele>
        <time>2022-08-12T16:55:08Z</time>
      </trkpt>
      <trkpt lat="44.76811" lon="1.15909">
        <ele>147.4</ele>
        <time>2022-08-12T16:55:09Z</time>
      </trkpt>
      <trkpt lat="44.76808" lon="1.15915">
        <ele>147.4</ele>
        <time>2022-08-12T16:55:10Z</time>
      </trkpt>
      <trkpt lat="44.76803" lon="1.1592">
        <ele>147.4</ele>
        <time>2022-08-12T16:55:11Z</time>
      </trkpt>
      <trkpt lat="44.76798" lon="1.15926">
        <ele>146.4</ele>
        <time>2022-08-12T16:55:12Z</time>
      </trkpt>
      <trkpt lat="44.76791" lon="1.15932">
        <ele>146.4</ele>
        <time>2022-08-12T16:55:13Z</time>
      </trkpt>
      <trkpt lat="44.76785" lon="1.15939">
        <ele>145.4</ele>
        <time>2022-08-12T16:55:14Z</time>
      </trkpt>
      <trkpt lat="44.76778" lon="1.15945">
        <ele>144.4</ele>
        <time>2022-08-12T16:55:15Z</time>
      </trkpt>
      <trkpt lat="44.76772" lon="1.15951">
        <ele>143.4</ele>
        <time>2022-08-12T16:55:16Z</time>
      </trkpt>
      <trkpt lat="44.76765" lon="1.15956">
        <ele>142.4</ele>
        <time>2022-08-12T16:55:17Z</time>
      </trkpt>
      <trkpt lat="44.7676" lon="1.15961">
        <ele>142.4</ele>
        <time>2022-08-12T16:55:18Z</time>
      </trkpt>
      <trkpt lat="44.76756" lon="1.15965">
        <ele>141.4</ele>
        <time>2022-08-12T16:55:19Z</time>
      </trkpt>
      <trkpt lat="44.7675" lon="1.15973">
        <ele>140.4</ele>
        <time>2022-08-12T16:55:21Z</time>
      </trkpt>
      <trkpt lat="44.76746" lon="1.15977">
        <ele>139.4</ele>
        <time>2022-08-12T16:55:22Z</time>
      </trkpt>
      <trkpt lat="44.76742" lon="1.15983">
        <ele>138.4</ele>
        <time>2022-08-12T16:55:23Z</time>
      </trkpt>
      <trkpt lat="44.76738" lon="1.15988">
        <ele>136.4</ele>
        <time>2022-08-12T16:55:24Z</time>
      </trkpt>
      <trkpt lat="44.76732" lon="1.15993">
        <ele>134.4</ele>
        <time>2022-08-12T16:55:25Z</time>
      </trkpt>
      <trkpt lat="44.76726" lon="1.16">
        <ele>131.4</ele>
        <time>2022-08-12T16:55:26Z</time>
      </trkpt>
      <trkpt lat="44.76719" lon="1.16007">
        <ele>129.4</ele>
        <time>2022-08-12T16:55:27Z</time>
      </trkpt>
      <trkpt lat="44.76713" lon="1.16012">
        <ele>127.4</ele>
        <time>2022-08-12T16:55:28Z</time>
      </trkpt>
      <trkpt lat="44.76707" lon="1.16018">
        <ele>126.4</ele>
        <time>2022-08-12T16:55:29Z</time>
      </trkpt>
      <trkpt lat="44.76702" lon="1.16024">
        <ele>124.4</ele>
        <time>2022-08-12T16:55:30Z</time>
      </trkpt>
      <trkpt lat="44.76697" lon="1.16031">
        <ele>123.4</ele>
        <time>2022-08-12T16:55:31Z</time>
      </trkpt>
      <trkpt lat="44.76693" lon="1.1604">
        <ele>122.4</ele>
        <time>2022-08-12T16:55:32Z</time>
      </trkpt>
      <trkpt lat="44.76688" lon="1.16049">
        <ele>121.4</ele>
        <time>2022-08-12T16:55:33Z</time>
      </trkpt>
      <trkpt lat="44.76684" lon="1.16059">
        <ele>120.4</ele>
        <time>2022-08-12T16:55:34Z</time>
      </trkpt>
      <trkpt lat="44.7668" lon="1.16068">
        <ele>119.4</ele>
        <time>2022-08-12T16:55:35Z</time>
      </trkpt>
      <trkpt lat="44.76676" lon="1.16079">
        <ele>119.4</ele>
        <time>2022-08-12T16:55:36Z</time>
      </trkpt>
      <trkpt lat="44.76672" lon="1.16089">
        <ele>118.4</ele>
        <time>2022-08-12T16:55:37Z</time>
      </trkpt>
      <trkpt lat="44.76669" lon="1.161">
        <ele>118.4</ele>
        <time>2022-08-12T16:55:38Z</time>
      </trkpt>
      <trkpt lat="44.76666" lon="1.1611">
        <ele>117.4</ele>
        <time>2022-08-12T16:55:39Z</time>
      </trkpt>
      <trkpt lat="44.76663" lon="1.16119">
        <ele>116.4</ele>
        <time>2022-08-12T16:55:40Z</time>
      </trkpt>
      <trkpt lat="44.76661" lon="1.16129">
        <ele>115.4</ele>
        <time>2022-08-12T16:55:41Z</time>
      </trkpt>
      <trkpt lat="44.76658" lon="1.16139">
        <ele>114.4</ele>
        <time>2022-08-12T16:55:42Z</time>
      </trkpt>
      <trkpt lat="44.76656" lon="1.1615">
        <ele>113.4</ele>
        <time>2022-08-12T16:55:43Z</time>
      </trkpt>
      <trkpt lat="44.76654" lon="1.16159">
        <ele>113.4</ele>
        <time>2022-08-12T16:55:44Z</time>
      </trkpt>
      <trkpt lat="44.76651" lon="1.16167">
        <ele>112.4</ele>
        <time>2022-08-12T16:55:45Z</time>
      </trkpt>
      <trkpt lat="44.76648" lon="1.16175">
        <ele>112.4</ele>
        <time>2022-08-12T16:55:46Z</time>
      </trkpt>
      <trkpt lat="44.76643" lon="1.16183">
        <ele>111.4</ele>
        <time>2022-08-12T16:55:47Z</time>
      </trkpt>
      <trkpt lat="44.76638" lon="1.1619">
        <ele>110.4</ele>
        <time>2022-08-12T16:55:48Z</time>
      </trkpt>
      <trkpt lat="44.76633" lon="1.16197">
        <ele>110.4</ele>
        <time>2022-08-12T16:55:49Z</time>
      </trkpt>
      <trkpt lat="44.76627" lon="1.16203">
        <ele>109.4</ele>
        <time>2022-08-12T16:55:50Z</time>
      </trkpt>
      <trkpt lat="44.76622" lon="1.16208">
        <ele>108.4</ele>
        <time>2022-08-12T16:55:51Z</time>
      </trkpt>
      <trkpt lat="44.76617" lon="1.16214">
        <ele>107.4</ele>
        <time>2022-08-12T16:55:52Z</time>
      </trkpt>
      <trkpt lat="44.76613" lon="1.1622">
        <ele>107.4</ele>
        <time>2022-08-12T16:55:53Z</time>
      </trkpt>
      <trkpt lat="44.76609" lon="1.16226">
        <ele>107.4</ele>
        <time>2022-08-12T16:55:54Z</time>
      </trkpt>
      <trkpt lat="44.76606" lon="1.16231">
        <ele>107.4</ele>
        <time>2022-08-12T16:55:55Z</time>
      </trkpt>
      <trkpt lat="44.76603" lon="1.16238">
        <ele>107.4</ele>
        <time>2022-08-12T16:55:57Z</time>
      </trkpt>
      <trkpt lat="44.76604" lon="1.16247">
        <ele>106.4</ele>
        <time>2022-08-12T16:56:02Z</time>
      </trkpt>
      <trkpt lat="44.76611" lon="1.16255">
        <ele>105.4</ele>
        <time>2022-08-12T16:56:03Z</time>
      </trkpt>
      <trkpt lat="44.76615" lon="1.16258">
        <ele>105.4</ele>
        <time>2022-08-12T16:56:04Z</time>
      </trkpt>
      <trkpt lat="44.76618" lon="1.16263">
        <ele>105.4</ele>
        <time>2022-08-12T16:56:05Z</time>
      </trkpt>
      <trkpt lat="44.76621" lon="1.16269">
        <ele>104.4</ele>
        <time>2022-08-12T16:56:06Z</time>
      </trkpt>
      <trkpt lat="44.76624" lon="1.16275">
        <ele>104.4</ele>
        <time>2022-08-12T16:56:07Z</time>
      </trkpt>
      <trkpt lat="44.76627" lon="1.16281">
        <ele>103.4</ele>
        <time>2022-08-12T16:56:08Z</time>
      </trkpt>
      <trkpt lat="44.7663" lon="1.16286">
        <ele>103.4</ele>
        <time>2022-08-12T16:56:09Z</time>
      </trkpt>
      <trkpt lat="44.76633" lon="1.16293">
        <ele>103.4</ele>
        <time>2022-08-12T16:56:10Z</time>
      </trkpt>
      <trkpt lat="44.76638" lon="1.163">
        <ele>103.4</ele>
        <time>2022-08-12T16:56:11Z</time>
      </trkpt>
      <trkpt lat="44.76642" lon="1.16307">
        <ele>103.4</ele>
        <time>2022-08-12T16:56:12Z</time>
      </trkpt>
      <trkpt lat="44.76646" lon="1.16315">
        <ele>103.4</ele>
        <time>2022-08-12T16:56:13Z</time>
      </trkpt>
      <trkpt lat="44.7665" lon="1.16323">
        <ele>103.4</ele>
        <time>2022-08-12T16:56:14Z</time>
      </trkpt>
      <trkpt lat="44.76654" lon="1.1633">
        <ele>102.4</ele>
        <time>2022-08-12T16:56:15Z</time>
      </trkpt>
      <trkpt lat="44.76658" lon="1.16338">
        <ele>102.4</ele>
        <time>2022-08-12T16:56:16Z</time>
      </trkpt>
      <trkpt lat="44.7666" lon="1.16345">
        <ele>102.4</ele>
        <time>2022-08-12T16:56:17Z</time>
      </trkpt>
      <trkpt lat="44.76663" lon="1.16352">
        <ele>102.4</ele>
        <time>2022-08-12T16:56:18Z</time>
      </trkpt>
      <trkpt lat="44.76666" lon="1.16359">
        <ele>102.4</ele>
        <time>2022-08-12T16:56:19Z</time>
      </trkpt>
      <trkpt lat="44.76669" lon="1.16366">
        <ele>101.4</ele>
        <time>2022-08-12T16:56:20Z</time>
      </trkpt>
      <trkpt lat="44.76672" lon="1.16374">
        <ele>100.4</ele>
        <time>2022-08-12T16:56:21Z</time>
      </trkpt>
      <trkpt lat="44.76675" lon="1.16381">
        <ele>100.4</ele>
        <time>2022-08-12T16:56:22Z</time>
      </trkpt>
      <trkpt lat="44.76678" lon="1.16388">
        <ele>100.4</ele>
        <time>2022-08-12T16:56:23Z</time>
      </trkpt>
      <trkpt lat="44.7668" lon="1.16395">
        <ele>99.4</ele>
        <time>2022-08-12T16:56:24Z</time>
      </trkpt>
      <trkpt lat="44.76683" lon="1.16402">
        <ele>98.4</ele>
        <time>2022-08-12T16:56:25Z</time>
      </trkpt>
      <trkpt lat="44.76686" lon="1.1641">
        <ele>98.4</ele>
        <time>2022-08-12T16:56:26Z</time>
      </trkpt>
      <trkpt lat="44.76689" lon="1.16417">
        <ele>98.4</ele>
        <time>2022-08-12T16:56:27Z</time>
      </trkpt>
      <trkpt lat="44.76692" lon="1.16425">
        <ele>98.4</ele>
        <time>2022-08-12T16:56:28Z</time>
      </trkpt>
      <trkpt lat="44.76695" lon="1.16431">
        <ele>98.4</ele>
        <time>2022-08-12T16:56:29Z</time>
      </trkpt>
      <trkpt lat="44.76699" lon="1.16437">
        <ele>98.4</ele>
        <time>2022-08-12T16:56:30Z</time>
      </trkpt>
      <trkpt lat="44.76702" lon="1.16442">
        <ele>98.4</ele>
        <time>2022-08-12T16:56:31Z</time>
      </trkpt>
      <trkpt lat="44.76705" lon="1.16447">
        <ele>97.4</ele>
        <time>2022-08-12T16:56:32Z</time>
      </trkpt>
      <trkpt lat="44.76709" lon="1.16456">
        <ele>97.4</ele>
        <time>2022-08-12T16:56:34Z</time>
      </trkpt>
      <trkpt lat="44.76711" lon="1.1645">
        <ele>97.4</ele>
        <time>2022-08-12T16:56:55Z</time>
      </trkpt>
      <trkpt lat="44.76712" lon="1.16457">
        <ele>97.4</ele>
        <time>2022-08-12T16:57:15Z</time>
      </trkpt>
      <trkpt lat="44.76714" lon="1.16463">
        <ele>97.4</ele>
        <time>2022-08-12T16:57:17Z</time>
      </trkpt>
      <trkpt lat="44.76718" lon="1.16472">
        <ele>97.4</ele>
        <time>2022-08-12T16:57:19Z</time>
      </trkpt>
      <trkpt lat="44.76722" lon="1.16482">
        <ele>96.4</ele>
        <time>2022-08-12T16:57:21Z</time>
      </trkpt>
      <trkpt lat="44.76726" lon="1.1649">
        <ele>96.4</ele>
        <time>2022-08-12T16:57:23Z</time>
      </trkpt>
      <trkpt lat="44.7673" lon="1.16503">
        <ele>95.4</ele>
        <time>2022-08-12T16:57:27Z</time>
      </trkpt>
      <trkpt lat="44.76731" lon="1.16513">
        <ele>95.4</ele>
        <time>2022-08-12T16:57:28Z</time>
      </trkpt>
      <trkpt lat="44.76734" lon="1.16526">
        <ele>95.4</ele>
        <time>2022-08-12T16:57:30Z</time>
      </trkpt>
      <trkpt lat="44.76736" lon="1.16532">
        <ele>95.4</ele>
        <time>2022-08-12T16:57:31Z</time>
      </trkpt>
      <trkpt lat="44.76738" lon="1.16539">
        <ele>95.4</ele>
        <time>2022-08-12T16:57:32Z</time>
      </trkpt>
      <trkpt lat="44.7674" lon="1.16545">
        <ele>95.4</ele>
        <time>2022-08-12T16:57:33Z</time>
      </trkpt>
      <trkpt lat="44.76742" lon="1.16552">
        <ele>94.4</ele>
        <time>2022-08-12T16:57:34Z</time>
      </trkpt>
      <trkpt lat="44.76743" lon="1.16559">
        <ele>94.4</ele>
        <time>2022-08-12T16:57:35Z</time>
      </trkpt>
      <trkpt lat="44.76745" lon="1.16565">
        <ele>94.4</ele>
        <time>2022-08-12T16:57:36Z</time>
      </trkpt>
      <trkpt lat="44.76746" lon="1.16575">
        <ele>93.4</ele>
        <time>2022-08-12T16:57:38Z</time>
      </trkpt>
      <trkpt lat="44.76747" lon="1.16584">
        <ele>93.4</ele>
        <time>2022-08-12T16:57:40Z</time>
      </trkpt>
      <trkpt lat="44.76748" lon="1.16595">
        <ele>93.4</ele>
        <time>2022-08-12T16:57:42Z</time>
      </trkpt>
      <trkpt lat="44.76751" lon="1.16607">
        <ele>93.4</ele>
        <time>2022-08-12T16:57:45Z</time>
      </trkpt>
      <trkpt lat="44.76753" lon="1.16618">
        <ele>93.4</ele>
        <time>2022-08-12T16:57:46Z</time>
      </trkpt>
      <trkpt lat="44.76756" lon="1.16631">
        <ele>92.4</ele>
        <time>2022-08-12T16:57:48Z</time>
      </trkpt>
      <trkpt lat="44.76758" lon="1.16639">
        <ele>92.4</ele>
        <time>2022-08-12T16:57:49Z</time>
      </trkpt>
      <trkpt lat="44.7676" lon="1.16647">
        <ele>92.4</ele>
        <time>2022-08-12T16:57:50Z</time>
      </trkpt>
      <trkpt lat="44.76762" lon="1.16654">
        <ele>92.4</ele>
        <time>2022-08-12T16:57:51Z</time>
      </trkpt>
      <trkpt lat="44.76764" lon="1.16661">
        <ele>93.4</ele>
        <time>2022-08-12T16:57:52Z</time>
      </trkpt>
      <trkpt lat="44.76765" lon="1.16669">
        <ele>92.4</ele>
        <time>2022-08-12T16:57:53Z</time>
      </trkpt>
      <trkpt lat="44.76766" lon="1.16676">
        <ele>92.4</ele>
        <time>2022-08-12T16:57:54Z</time>
      </trkpt>
      <trkpt lat="44.76769" lon="1.16684">
        <ele>92.4</ele>
        <time>2022-08-12T16:57:55Z</time>
      </trkpt>
      <trkpt lat="44.76771" lon="1.16691">
        <ele>92.4</ele>
        <time>2022-08-12T16:57:57Z</time>
      </trkpt>
      <trkpt lat="44.76773" lon="1.16698">
        <ele>92.4</ele>
        <time>2022-08-12T16:57:58Z</time>
      </trkpt>
      <trkpt lat="44.76774" lon="1.16705">
        <ele>92.4</ele>
        <time>2022-08-12T16:57:58Z</time>
      </trkpt>
      <trkpt lat="44.76776" lon="1.16713">
        <ele>92.4</ele>
        <time>2022-08-12T16:57:59Z</time>
      </trkpt>
      <trkpt lat="44.76777" lon="1.1672">
        <ele>92.4</ele>
        <time>2022-08-12T16:58:00Z</time>
      </trkpt>
      <trkpt lat="44.7678" lon="1.16728">
        <ele>92.4</ele>
        <time>2022-08-12T16:58:01Z</time>
      </trkpt>
      <trkpt lat="44.76782" lon="1.16735">
        <ele>92.4</ele>
        <time>2022-08-12T16:58:02Z</time>
      </trkpt>
      <trkpt lat="44.76784" lon="1.16742">
        <ele>92.4</ele>
        <time>2022-08-12T16:58:03Z</time>
      </trkpt>
      <trkpt lat="44.76787" lon="1.1675">
        <ele>92.4</ele>
        <time>2022-08-12T16:58:04Z</time>
      </trkpt>
      <trkpt lat="44.76789" lon="1.16757">
        <ele>92.4</ele>
        <time>2022-08-12T16:58:05Z</time>
      </trkpt>
      <trkpt lat="44.76791" lon="1.16765">
        <ele>92.4</ele>
        <time>2022-08-12T16:58:06Z</time>
      </trkpt>
      <trkpt lat="44.76792" lon="1.16772">
        <ele>92.4</ele>
        <time>2022-08-12T16:58:07Z</time>
      </trkpt>
      <trkpt lat="44.76794" lon="1.16779">
        <ele>92.4</ele>
        <time>2022-08-12T16:58:08Z</time>
      </trkpt>
      <trkpt lat="44.76797" lon="1.16786">
        <ele>92.4</ele>
        <time>2022-08-12T16:58:09Z</time>
      </trkpt>
      <trkpt lat="44.76798" lon="1.16793">
        <ele>92.4</ele>
        <time>2022-08-12T16:58:10Z</time>
      </trkpt>
      <trkpt lat="44.768" lon="1.168">
        <ele>92.4</ele>
        <time>2022-08-12T16:58:11Z</time>
      </trkpt>
      <trkpt lat="44.76801" lon="1.16806">
        <ele>93.4</ele>
        <time>2022-08-12T16:58:12Z</time>
      </trkpt>
      <trkpt lat="44.76802" lon="1.16813">
        <ele>93.4</ele>
        <time>2022-08-12T16:58:13Z</time>
      </trkpt>
      <trkpt lat="44.76802" lon="1.16819">
        <ele>92.4</ele>
        <time>2022-08-12T16:58:14Z</time>
      </trkpt>
      <trkpt lat="44.76803" lon="1.16825">
        <ele>92.4</ele>
        <time>2022-08-12T16:58:15Z</time>
      </trkpt>
      <trkpt lat="44.76804" lon="1.16832">
        <ele>92.4</ele>
        <time>2022-08-12T16:58:16Z</time>
      </trkpt>
      <trkpt lat="44.76805" lon="1.16839">
        <ele>92.4</ele>
        <time>2022-08-12T16:58:17Z</time>
      </trkpt>
      <trkpt lat="44.76806" lon="1.16847">
        <ele>91.4</ele>
        <time>2022-08-12T16:58:18Z</time>
      </trkpt>
      <trkpt lat="44.76806" lon="1.16855">
        <ele>91.4</ele>
        <time>2022-08-12T16:58:19Z</time>
      </trkpt>
      <trkpt lat="44.76806" lon="1.16863">
        <ele>91.4</ele>
        <time>2022-08-12T16:58:20Z</time>
      </trkpt>
      <trkpt lat="44.76806" lon="1.16871">
        <ele>91.4</ele>
        <time>2022-08-12T16:58:21Z</time>
      </trkpt>
      <trkpt lat="44.76806" lon="1.1688">
        <ele>91.4</ele>
        <time>2022-08-12T16:58:22Z</time>
      </trkpt>
      <trkpt lat="44.76807" lon="1.16888">
        <ele>91.4</ele>
        <time>2022-08-12T16:58:23Z</time>
      </trkpt>
      <trkpt lat="44.76806" lon="1.16897">
        <ele>91.4</ele>
        <time>2022-08-12T16:58:24Z</time>
      </trkpt>
      <trkpt lat="44.76806" lon="1.16907">
        <ele>90.4</ele>
        <time>2022-08-12T16:58:25Z</time>
      </trkpt>
      <trkpt lat="44.76805" lon="1.16916">
        <ele>90.4</ele>
        <time>2022-08-12T16:58:26Z</time>
      </trkpt>
      <trkpt lat="44.76804" lon="1.16924">
        <ele>90.4</ele>
        <time>2022-08-12T16:58:27Z</time>
      </trkpt>
      <trkpt lat="44.76804" lon="1.16932">
        <ele>90.4</ele>
        <time>2022-08-12T16:58:28Z</time>
      </trkpt>
      <trkpt lat="44.76803" lon="1.16941">
        <ele>90.4</ele>
        <time>2022-08-12T16:58:29Z</time>
      </trkpt>
      <trkpt lat="44.76802" lon="1.16949">
        <ele>90.4</ele>
        <time>2022-08-12T16:58:30Z</time>
      </trkpt>
      <trkpt lat="44.76801" lon="1.16956">
        <ele>89.4</ele>
        <time>2022-08-12T16:58:31Z</time>
      </trkpt>
      <trkpt lat="44.76799" lon="1.16964">
        <ele>89.4</ele>
        <time>2022-08-12T16:58:32Z</time>
      </trkpt>
      <trkpt lat="44.76798" lon="1.16971">
        <ele>89.4</ele>
        <time>2022-08-12T16:58:33Z</time>
      </trkpt>
      <trkpt lat="44.76797" lon="1.16979">
        <ele>89.4</ele>
        <time>2022-08-12T16:58:34Z</time>
      </trkpt>
      <trkpt lat="44.76796" lon="1.16986">
        <ele>88.4</ele>
        <time>2022-08-12T16:58:35Z</time>
      </trkpt>
      <trkpt lat="44.76796" lon="1.16994">
        <ele>88.4</ele>
        <time>2022-08-12T16:58:36Z</time>
      </trkpt>
      <trkpt lat="44.76796" lon="1.17001">
        <ele>87.4</ele>
        <time>2022-08-12T16:58:37Z</time>
      </trkpt>
      <trkpt lat="44.76796" lon="1.17009">
        <ele>86.4</ele>
        <time>2022-08-12T16:58:38Z</time>
      </trkpt>
      <trkpt lat="44.76796" lon="1.17018">
        <ele>86.4</ele>
        <time>2022-08-12T16:58:39Z</time>
      </trkpt>
      <trkpt lat="44.76797" lon="1.17028">
        <ele>85.4</ele>
        <time>2022-08-12T16:58:40Z</time>
      </trkpt>
      <trkpt lat="44.76797" lon="1.17038">
        <ele>84.4</ele>
        <time>2022-08-12T16:58:41Z</time>
      </trkpt>
      <trkpt lat="44.76798" lon="1.17047">
        <ele>84.4</ele>
        <time>2022-08-12T16:58:42Z</time>
      </trkpt>
      <trkpt lat="44.76798" lon="1.17056">
        <ele>84.4</ele>
        <time>2022-08-12T16:58:43Z</time>
      </trkpt>
      <trkpt lat="44.76799" lon="1.17065">
        <ele>83.4</ele>
        <time>2022-08-12T16:58:44Z</time>
      </trkpt>
      <trkpt lat="44.768" lon="1.17074">
        <ele>84.4</ele>
        <time>2022-08-12T16:58:45Z</time>
      </trkpt>
      <trkpt lat="44.76801" lon="1.17083">
        <ele>84.4</ele>
        <time>2022-08-12T16:58:46Z</time>
      </trkpt>
      <trkpt lat="44.76803" lon="1.17093">
        <ele>84.4</ele>
        <time>2022-08-12T16:58:47Z</time>
      </trkpt>
      <trkpt lat="44.76804" lon="1.17103">
        <ele>84.4</ele>
        <time>2022-08-12T16:58:48Z</time>
      </trkpt>
      <trkpt lat="44.76805" lon="1.17112">
        <ele>84.4</ele>
        <time>2022-08-12T16:58:49Z</time>
      </trkpt>
      <trkpt lat="44.76806" lon="1.17121">
        <ele>85.4</ele>
        <time>2022-08-12T16:58:50Z</time>
      </trkpt>
      <trkpt lat="44.76807" lon="1.1713">
        <ele>86.4</ele>
        <time>2022-08-12T16:58:51Z</time>
      </trkpt>
      <trkpt lat="44.76809" lon="1.17138">
        <ele>86.4</ele>
        <time>2022-08-12T16:58:52Z</time>
      </trkpt>
      <trkpt lat="44.76811" lon="1.17147">
        <ele>87.4</ele>
        <time>2022-08-12T16:58:53Z</time>
      </trkpt>
      <trkpt lat="44.76813" lon="1.17155">
        <ele>87.4</ele>
        <time>2022-08-12T16:58:54Z</time>
      </trkpt>
      <trkpt lat="44.76814" lon="1.17163">
        <ele>88.4</ele>
        <time>2022-08-12T16:58:55Z</time>
      </trkpt>
      <trkpt lat="44.76816" lon="1.1717">
        <ele>88.4</ele>
        <time>2022-08-12T16:58:56Z</time>
      </trkpt>
      <trkpt lat="44.76817" lon="1.17178">
        <ele>89.4</ele>
        <time>2022-08-12T16:58:57Z</time>
      </trkpt>
      <trkpt lat="44.76819" lon="1.17186">
        <ele>88.4</ele>
        <time>2022-08-12T16:58:58Z</time>
      </trkpt>
      <trkpt lat="44.76821" lon="1.17193">
        <ele>89.4</ele>
        <time>2022-08-12T16:58:59Z</time>
      </trkpt>
      <trkpt lat="44.76823" lon="1.17201">
        <ele>89.4</ele>
        <time>2022-08-12T16:59:01Z</time>
      </trkpt>
      <trkpt lat="44.76825" lon="1.17208">
        <ele>89.4</ele>
        <time>2022-08-12T16:59:02Z</time>
      </trkpt>
      <trkpt lat="44.76827" lon="1.17215">
        <ele>89.4</ele>
        <time>2022-08-12T16:59:03Z</time>
      </trkpt>
      <trkpt lat="44.76829" lon="1.17222">
        <ele>89.4</ele>
        <time>2022-08-12T16:59:03Z</time>
      </trkpt>
      <trkpt lat="44.7683" lon="1.17229">
        <ele>90.4</ele>
        <time>2022-08-12T16:59:04Z</time>
      </trkpt>
      <trkpt lat="44.76831" lon="1.17237">
        <ele>90.4</ele>
        <time>2022-08-12T16:59:05Z</time>
      </trkpt>
      <trkpt lat="44.76833" lon="1.17245">
        <ele>90.4</ele>
        <time>2022-08-12T16:59:07Z</time>
      </trkpt>
      <trkpt lat="44.76835" lon="1.17253">
        <ele>90.4</ele>
        <time>2022-08-12T16:59:08Z</time>
      </trkpt>
      <trkpt lat="44.76838" lon="1.1726">
        <ele>90.4</ele>
        <time>2022-08-12T16:59:08Z</time>
      </trkpt>
      <trkpt lat="44.7684" lon="1.17266">
        <ele>90.4</ele>
        <time>2022-08-12T16:59:09Z</time>
      </trkpt>
      <trkpt lat="44.7684" lon="1.17273">
        <ele>90.4</ele>
        <time>2022-08-12T16:59:13Z</time>
      </trkpt>
      <trkpt lat="44.76836" lon="1.17269">
        <ele>90.4</ele>
        <time>2022-08-12T16:59:42Z</time>
      </trkpt>
      <trkpt lat="44.76837" lon="1.17276">
        <ele>89.4</ele>
        <time>2022-08-12T16:59:53Z</time>
      </trkpt>
      <trkpt lat="44.7684" lon="1.17283">
        <ele>89.4</ele>
        <time>2022-08-12T16:59:55Z</time>
      </trkpt>
      <trkpt lat="44.76842" lon="1.1729">
        <ele>89.4</ele>
        <time>2022-08-12T16:59:57Z</time>
      </trkpt>
      <trkpt lat="44.76843" lon="1.17298">
        <ele>88.4</ele>
        <time>2022-08-12T16:59:59Z</time>
      </trkpt>
      <trkpt lat="44.76845" lon="1.17306">
        <ele>88.4</ele>
        <time>2022-08-12T17:00:01Z</time>
      </trkpt>
      <trkpt lat="44.76847" lon="1.17318">
        <ele>88.4</ele>
        <time>2022-08-12T17:00:03Z</time>
      </trkpt>
      <trkpt lat="44.76849" lon="1.17325">
        <ele>88.4</ele>
        <time>2022-08-12T17:00:04Z</time>
      </trkpt>
      <trkpt lat="44.76852" lon="1.17332">
        <ele>88.4</ele>
        <time>2022-08-12T17:00:05Z</time>
      </trkpt>
      <trkpt lat="44.76855" lon="1.17339">
        <ele>88.4</ele>
        <time>2022-08-12T17:00:07Z</time>
      </trkpt>
      <trkpt lat="44.76856" lon="1.17346">
        <ele>86.4</ele>
        <time>2022-08-12T17:00:08Z</time>
      </trkpt>
      <trkpt lat="44.76857" lon="1.17353">
        <ele>86.4</ele>
        <time>2022-08-12T17:00:08Z</time>
      </trkpt>
      <trkpt lat="44.76858" lon="1.1736">
        <ele>85.4</ele>
        <time>2022-08-12T17:00:09Z</time>
      </trkpt>
      <trkpt lat="44.76857" lon="1.17367">
        <ele>84.4</ele>
        <time>2022-08-12T17:00:11Z</time>
      </trkpt>
      <trkpt lat="44.76857" lon="1.17373">
        <ele>84.4</ele>
        <time>2022-08-12T17:00:12Z</time>
      </trkpt>
      <trkpt lat="44.76856" lon="1.1738">
        <ele>83.4</ele>
        <time>2022-08-12T17:00:13Z</time>
      </trkpt>
      <trkpt lat="44.76855" lon="1.17393">
        <ele>83.4</ele>
        <time>2022-08-12T17:00:14Z</time>
      </trkpt>
      <trkpt lat="44.76854" lon="1.174">
        <ele>83.4</ele>
        <time>2022-08-12T17:00:16Z</time>
      </trkpt>
      <trkpt lat="44.76853" lon="1.17406">
        <ele>83.4</ele>
        <time>2022-08-12T17:00:16Z</time>
      </trkpt>
      <trkpt lat="44.76851" lon="1.17418">
        <ele>82.4</ele>
        <time>2022-08-12T17:00:18Z</time>
      </trkpt>
      <trkpt lat="44.7685" lon="1.17424">
        <ele>82.4</ele>
        <time>2022-08-12T17:00:19Z</time>
      </trkpt>
      <trkpt lat="44.76849" lon="1.17431">
        <ele>82.4</ele>
        <time>2022-08-12T17:00:21Z</time>
      </trkpt>
      <trkpt lat="44.76848" lon="1.17437">
        <ele>81.4</ele>
        <time>2022-08-12T17:00:22Z</time>
      </trkpt>
      <trkpt lat="44.76845" lon="1.17454">
        <ele>81.4</ele>
        <time>2022-08-12T17:00:24Z</time>
      </trkpt>
      <trkpt lat="44.76845" lon="1.17465">
        <ele>80.4</ele>
        <time>2022-08-12T17:00:27Z</time>
      </trkpt>
      <trkpt lat="44.76844" lon="1.17475">
        <ele>80.4</ele>
        <time>2022-08-12T17:00:28Z</time>
      </trkpt>
      <trkpt lat="44.76843" lon="1.17485">
        <ele>80.4</ele>
        <time>2022-08-12T17:00:30Z</time>
      </trkpt>
      <trkpt lat="44.76842" lon="1.17494">
        <ele>79.4</ele>
        <time>2022-08-12T17:00:33Z</time>
      </trkpt>
      <trkpt lat="44.76842" lon="1.17503">
        <ele>80.4</ele>
        <time>2022-08-12T17:00:34Z</time>
      </trkpt>
      <trkpt lat="44.76843" lon="1.17515">
        <ele>80.4</ele>
        <time>2022-08-12T17:00:36Z</time>
      </trkpt>
      <trkpt lat="44.76843" lon="1.17526">
        <ele>80.4</ele>
        <time>2022-08-12T17:00:38Z</time>
      </trkpt>
      <trkpt lat="44.76843" lon="1.17536">
        <ele>81.4</ele>
        <time>2022-08-12T17:00:41Z</time>
      </trkpt>
      <trkpt lat="44.76843" lon="1.17546">
        <ele>81.4</ele>
        <time>2022-08-12T17:00:42Z</time>
      </trkpt>
      <trkpt lat="44.76842" lon="1.17554">
        <ele>81.4</ele>
        <time>2022-08-12T17:00:44Z</time>
      </trkpt>
      <trkpt lat="44.76842" lon="1.17563">
        <ele>82.4</ele>
        <time>2022-08-12T17:00:48Z</time>
      </trkpt>
      <trkpt lat="44.76837" lon="1.17566">
        <ele>82.4</ele>
        <time>2022-08-12T17:00:49Z</time>
      </trkpt>
      <trkpt lat="44.76833" lon="1.17568">
        <ele>81.4</ele>
        <time>2022-08-12T17:00:52Z</time>
      </trkpt>
      <trkpt lat="44.76823" lon="1.17569">
        <ele>81.4</ele>
        <time>2022-08-12T17:00:54Z</time>
      </trkpt>
      <trkpt lat="44.76815" lon="1.1757">
        <ele>80.4</ele>
        <time>2022-08-12T17:00:57Z</time>
      </trkpt>
      <trkpt lat="44.76808" lon="1.17571">
        <ele>79.4</ele>
        <time>2022-08-12T17:00:58Z</time>
      </trkpt>
      <trkpt lat="44.76801" lon="1.17569">
        <ele>79.4</ele>
        <time>2022-08-12T17:01:01Z</time>
      </trkpt>
      <trkpt lat="44.76795" lon="1.17568">
        <ele>79.4</ele>
        <time>2022-08-12T17:01:03Z</time>
      </trkpt>
      <trkpt lat="44.76788" lon="1.17566">
        <ele>79.4</ele>
        <time>2022-08-12T17:01:04Z</time>
      </trkpt>
      <trkpt lat="44.76782" lon="1.17565">
        <ele>79.4</ele>
        <time>2022-08-12T17:01:06Z</time>
      </trkpt>
      <trkpt lat="44.76775" lon="1.1756">
        <ele>79.4</ele>
        <time>2022-08-12T17:01:08Z</time>
      </trkpt>
      <trkpt lat="44.76769" lon="1.17557">
        <ele>80.4</ele>
        <time>2022-08-12T17:01:10Z</time>
      </trkpt>
      <trkpt lat="44.76763" lon="1.17553">
        <ele>80.4</ele>
        <time>2022-08-12T17:01:12Z</time>
      </trkpt>
      <trkpt lat="44.76756" lon="1.17552">
        <ele>80.4</ele>
        <time>2022-08-12T17:01:14Z</time>
      </trkpt>
      <trkpt lat="44.7675" lon="1.17551">
        <ele>80.4</ele>
        <time>2022-08-12T17:01:16Z</time>
      </trkpt>
      <trkpt lat="44.76744" lon="1.17548">
        <ele>80.4</ele>
        <time>2022-08-12T17:01:18Z</time>
      </trkpt>
      <trkpt lat="44.76739" lon="1.17547">
        <ele>80.4</ele>
        <time>2022-08-12T17:01:20Z</time>
      </trkpt>
      <trkpt lat="44.76733" lon="1.17544">
        <ele>80.4</ele>
        <time>2022-08-12T17:01:23Z</time>
      </trkpt>
      <trkpt lat="44.76726" lon="1.17541">
        <ele>80.4</ele>
        <time>2022-08-12T17:01:24Z</time>
      </trkpt>
      <trkpt lat="44.76719" lon="1.17538">
        <ele>80.4</ele>
        <time>2022-08-12T17:01:26Z</time>
      </trkpt>
      <trkpt lat="44.76715" lon="1.17536">
        <ele>80.4</ele>
        <time>2022-08-12T17:01:28Z</time>
      </trkpt>
      <trkpt lat="44.76706" lon="1.17532">
        <ele>81.4</ele>
        <time>2022-08-12T17:01:29Z</time>
      </trkpt>
      <trkpt lat="44.76702" lon="1.1753">
        <ele>80.4</ele>
        <time>2022-08-12T17:01:30Z</time>
      </trkpt>
      <trkpt lat="44.76694" lon="1.17526">
        <ele>81.4</ele>
        <time>2022-08-12T17:01:32Z</time>
      </trkpt>
      <trkpt lat="44.76688" lon="1.17522">
        <ele>82.4</ele>
        <time>2022-08-12T17:01:34Z</time>
      </trkpt>
      <trkpt lat="44.7668" lon="1.17517">
        <ele>81.4</ele>
        <time>2022-08-12T17:01:37Z</time>
      </trkpt>
      <trkpt lat="44.76675" lon="1.17514">
        <ele>81.4</ele>
        <time>2022-08-12T17:01:38Z</time>
      </trkpt>
      <trkpt lat="44.76667" lon="1.1751">
        <ele>81.4</ele>
        <time>2022-08-12T17:01:39Z</time>
      </trkpt>
      <trkpt lat="44.76659" lon="1.17505">
        <ele>80.4</ele>
        <time>2022-08-12T17:01:41Z</time>
      </trkpt>
      <trkpt lat="44.76652" lon="1.17501">
        <ele>80.4</ele>
        <time>2022-08-12T17:01:43Z</time>
      </trkpt>
      <trkpt lat="44.76645" lon="1.17497">
        <ele>80.4</ele>
        <time>2022-08-12T17:01:45Z</time>
      </trkpt>
      <trkpt lat="44.76638" lon="1.17492">
        <ele>79.4</ele>
        <time>2022-08-12T17:01:47Z</time>
      </trkpt>
      <trkpt lat="44.7663" lon="1.17487">
        <ele>79.4</ele>
        <time>2022-08-12T17:01:49Z</time>
      </trkpt>
      <trkpt lat="44.76626" lon="1.17484">
        <ele>80.4</ele>
        <time>2022-08-12T17:01:50Z</time>
      </trkpt>
      <trkpt lat="44.76622" lon="1.17481">
        <ele>80.4</ele>
        <time>2022-08-12T17:01:51Z</time>
      </trkpt>
      <trkpt lat="44.76618" lon="1.17478">
        <ele>80.4</ele>
        <time>2022-08-12T17:01:52Z</time>
      </trkpt>
      <trkpt lat="44.76613" lon="1.17475">
        <ele>81.4</ele>
        <time>2022-08-12T17:01:53Z</time>
      </trkpt>
      <trkpt lat="44.76609" lon="1.17472">
        <ele>81.4</ele>
        <time>2022-08-12T17:01:54Z</time>
      </trkpt>
      <trkpt lat="44.76605" lon="1.17469">
        <ele>81.4</ele>
        <time>2022-08-12T17:01:55Z</time>
      </trkpt>
      <trkpt lat="44.76601" lon="1.17465">
        <ele>82.4</ele>
        <time>2022-08-12T17:01:56Z</time>
      </trkpt>
      <trkpt lat="44.76597" lon="1.17462">
        <ele>82.4</ele>
        <time>2022-08-12T17:01:57Z</time>
      </trkpt>
      <trkpt lat="44.76593" lon="1.17458">
        <ele>83.4</ele>
        <time>2022-08-12T17:01:58Z</time>
      </trkpt>
      <trkpt lat="44.76585" lon="1.17452">
        <ele>83.4</ele>
        <time>2022-08-12T17:02:01Z</time>
      </trkpt>
      <trkpt lat="44.76578" lon="1.17445">
        <ele>84.4</ele>
        <time>2022-08-12T17:02:02Z</time>
      </trkpt>
      <trkpt lat="44.7657" lon="1.17439">
        <ele>84.4</ele>
        <time>2022-08-12T17:02:04Z</time>
      </trkpt>
      <trkpt lat="44.76562" lon="1.17435">
        <ele>85.4</ele>
        <time>2022-08-12T17:02:06Z</time>
      </trkpt>
      <trkpt lat="44.76553" lon="1.17432">
        <ele>85.4</ele>
        <time>2022-08-12T17:02:08Z</time>
      </trkpt>
      <trkpt lat="44.76545" lon="1.1743">
        <ele>85.4</ele>
        <time>2022-08-12T17:02:10Z</time>
      </trkpt>
      <trkpt lat="44.7654" lon="1.1743">
        <ele>84.4</ele>
        <time>2022-08-12T17:02:11Z</time>
      </trkpt>
      <trkpt lat="44.76535" lon="1.17431">
        <ele>84.4</ele>
        <time>2022-08-12T17:02:12Z</time>
      </trkpt>
      <trkpt lat="44.76529" lon="1.17431">
        <ele>84.4</ele>
        <time>2022-08-12T17:02:13Z</time>
      </trkpt>
      <trkpt lat="44.76523" lon="1.17432">
        <ele>84.4</ele>
        <time>2022-08-12T17:02:14Z</time>
      </trkpt>
      <trkpt lat="44.76518" lon="1.17433">
        <ele>83.4</ele>
        <time>2022-08-12T17:02:15Z</time>
      </trkpt>
      <trkpt lat="44.76513" lon="1.17434">
        <ele>83.4</ele>
        <time>2022-08-12T17:02:16Z</time>
      </trkpt>
      <trkpt lat="44.76508" lon="1.17434">
        <ele>83.4</ele>
        <time>2022-08-12T17:02:17Z</time>
      </trkpt>
      <trkpt lat="44.76502" lon="1.17435">
        <ele>83.4</ele>
        <time>2022-08-12T17:02:18Z</time>
      </trkpt>
      <trkpt lat="44.76497" lon="1.17435">
        <ele>83.4</ele>
        <time>2022-08-12T17:02:19Z</time>
      </trkpt>
      <trkpt lat="44.76491" lon="1.17436">
        <ele>83.4</ele>
        <time>2022-08-12T17:02:20Z</time>
      </trkpt>
      <trkpt lat="44.76486" lon="1.17436">
        <ele>83.4</ele>
        <time>2022-08-12T17:02:21Z</time>
      </trkpt>
      <trkpt lat="44.76481" lon="1.17436">
        <ele>82.4</ele>
        <time>2022-08-12T17:02:22Z</time>
      </trkpt>
      <trkpt lat="44.76476" lon="1.17435">
        <ele>81.4</ele>
        <time>2022-08-12T17:02:23Z</time>
      </trkpt>
      <trkpt lat="44.76471" lon="1.17435">
        <ele>81.4</ele>
        <time>2022-08-12T17:02:24Z</time>
      </trkpt>
      <trkpt lat="44.76466" lon="1.17435">
        <ele>81.4</ele>
        <time>2022-08-12T17:02:25Z</time>
      </trkpt>
      <trkpt lat="44.76461" lon="1.17435">
        <ele>81.4</ele>
        <time>2022-08-12T17:02:26Z</time>
      </trkpt>
      <trkpt lat="44.76457" lon="1.17434">
        <ele>81.4</ele>
        <time>2022-08-12T17:02:27Z</time>
      </trkpt>
      <trkpt lat="44.76452" lon="1.17434">
        <ele>80.4</ele>
        <time>2022-08-12T17:02:28Z</time>
      </trkpt>
      <trkpt lat="44.76443" lon="1.17433">
        <ele>80.4</ele>
        <time>2022-08-12T17:02:30Z</time>
      </trkpt>
      <trkpt lat="44.76436" lon="1.17432">
        <ele>80.4</ele>
        <time>2022-08-12T17:02:32Z</time>
      </trkpt>
      <trkpt lat="44.76428" lon="1.17431">
        <ele>80.4</ele>
        <time>2022-08-12T17:02:34Z</time>
      </trkpt>
      <trkpt lat="44.7642" lon="1.1743">
        <ele>80.4</ele>
        <time>2022-08-12T17:02:36Z</time>
      </trkpt>
      <trkpt lat="44.76413" lon="1.1743">
        <ele>80.4</ele>
        <time>2022-08-12T17:02:38Z</time>
      </trkpt>
      <trkpt lat="44.76406" lon="1.17429">
        <ele>79.4</ele>
        <time>2022-08-12T17:02:40Z</time>
      </trkpt>
      <trkpt lat="44.76398" lon="1.17429">
        <ele>80.4</ele>
        <time>2022-08-12T17:02:42Z</time>
      </trkpt>
      <trkpt lat="44.7639" lon="1.17429">
        <ele>81.4</ele>
        <time>2022-08-12T17:02:44Z</time>
      </trkpt>
      <trkpt lat="44.76385" lon="1.17429">
        <ele>81.4</ele>
        <time>2022-08-12T17:02:45Z</time>
      </trkpt>
      <trkpt lat="44.7638" lon="1.17429">
        <ele>81.4</ele>
        <time>2022-08-12T17:02:46Z</time>
      </trkpt>
      <trkpt lat="44.76375" lon="1.17428">
        <ele>81.4</ele>
        <time>2022-08-12T17:02:47Z</time>
      </trkpt>
      <trkpt lat="44.7637" lon="1.17428">
        <ele>81.4</ele>
        <time>2022-08-12T17:02:48Z</time>
      </trkpt>
      <trkpt lat="44.76366" lon="1.17428">
        <ele>81.4</ele>
        <time>2022-08-12T17:02:49Z</time>
      </trkpt>
      <trkpt lat="44.76357" lon="1.17429">
        <ele>81.4</ele>
        <time>2022-08-12T17:02:51Z</time>
      </trkpt>
      <trkpt lat="44.76349" lon="1.17428">
        <ele>81.4</ele>
        <time>2022-08-12T17:02:53Z</time>
      </trkpt>
      <trkpt lat="44.7634" lon="1.17427">
        <ele>82.4</ele>
        <time>2022-08-12T17:02:55Z</time>
      </trkpt>
      <trkpt lat="44.76335" lon="1.17426">
        <ele>82.4</ele>
        <time>2022-08-12T17:02:56Z</time>
      </trkpt>
      <trkpt lat="44.7633" lon="1.17425">
        <ele>81.4</ele>
        <time>2022-08-12T17:02:57Z</time>
      </trkpt>
      <trkpt lat="44.76326" lon="1.17425">
        <ele>81.4</ele>
        <time>2022-08-12T17:02:58Z</time>
      </trkpt>
      <trkpt lat="44.76321" lon="1.17424">
        <ele>82.4</ele>
        <time>2022-08-12T17:02:59Z</time>
      </trkpt>
      <trkpt lat="44.76316" lon="1.17424">
        <ele>82.4</ele>
        <time>2022-08-12T17:03:00Z</time>
      </trkpt>
      <trkpt lat="44.76311" lon="1.17424">
        <ele>82.4</ele>
        <time>2022-08-12T17:03:01Z</time>
      </trkpt>
      <trkpt lat="44.76307" lon="1.17423">
        <ele>82.4</ele>
        <time>2022-08-12T17:03:02Z</time>
      </trkpt>
      <trkpt lat="44.76302" lon="1.17423">
        <ele>82.4</ele>
        <time>2022-08-12T17:03:03Z</time>
      </trkpt>
      <trkpt lat="44.76297" lon="1.17422">
        <ele>81.4</ele>
        <time>2022-08-12T17:03:04Z</time>
      </trkpt>
      <trkpt lat="44.76292" lon="1.17421">
        <ele>81.4</ele>
        <time>2022-08-12T17:03:05Z</time>
      </trkpt>
      <trkpt lat="44.76287" lon="1.1742">
        <ele>81.4</ele>
        <time>2022-08-12T17:03:06Z</time>
      </trkpt>
      <trkpt lat="44.76281" lon="1.17419">
        <ele>81.4</ele>
        <time>2022-08-12T17:03:07Z</time>
      </trkpt>
      <trkpt lat="44.76277" lon="1.17418">
        <ele>81.4</ele>
        <time>2022-08-12T17:03:08Z</time>
      </trkpt>
      <trkpt lat="44.76272" lon="1.17418">
        <ele>81.4</ele>
        <time>2022-08-12T17:03:09Z</time>
      </trkpt>
      <trkpt lat="44.76267" lon="1.17418">
        <ele>80.4</ele>
        <time>2022-08-12T17:03:10Z</time>
      </trkpt>
      <trkpt lat="44.76263" lon="1.17418">
        <ele>80.4</ele>
        <time>2022-08-12T17:03:11Z</time>
      </trkpt>
      <trkpt lat="44.76258" lon="1.17418">
        <ele>81.4</ele>
        <time>2022-08-12T17:03:12Z</time>
      </trkpt>
      <trkpt lat="44.76249" lon="1.17418">
        <ele>81.4</ele>
        <time>2022-08-12T17:03:14Z</time>
      </trkpt>
      <trkpt lat="44.76243" lon="1.17417">
        <ele>80.4</ele>
        <time>2022-08-12T17:03:15Z</time>
      </trkpt>
      <trkpt lat="44.76238" lon="1.17417">
        <ele>80.4</ele>
        <time>2022-08-12T17:03:16Z</time>
      </trkpt>
      <trkpt lat="44.76233" lon="1.17417">
        <ele>80.4</ele>
        <time>2022-08-12T17:03:17Z</time>
      </trkpt>
      <trkpt lat="44.76228" lon="1.17417">
        <ele>80.4</ele>
        <time>2022-08-12T17:03:18Z</time>
      </trkpt>
      <trkpt lat="44.76223" lon="1.17417">
        <ele>81.4</ele>
        <time>2022-08-12T17:03:19Z</time>
      </trkpt>
      <trkpt lat="44.76218" lon="1.17417">
        <ele>81.4</ele>
        <time>2022-08-12T17:03:20Z</time>
      </trkpt>
      <trkpt lat="44.76213" lon="1.17416">
        <ele>81.4</ele>
        <time>2022-08-12T17:03:21Z</time>
      </trkpt>
      <trkpt lat="44.76208" lon="1.17416">
        <ele>81.4</ele>
        <time>2022-08-12T17:03:22Z</time>
      </trkpt>
      <trkpt lat="44.76204" lon="1.17416">
        <ele>81.4</ele>
        <time>2022-08-12T17:03:23Z</time>
      </trkpt>
      <trkpt lat="44.76195" lon="1.17418">
        <ele>81.4</ele>
        <time>2022-08-12T17:03:25Z</time>
      </trkpt>
      <trkpt lat="44.7619" lon="1.17419">
        <ele>81.4</ele>
        <time>2022-08-12T17:03:26Z</time>
      </trkpt>
      <trkpt lat="44.76181" lon="1.17421">
        <ele>80.4</ele>
        <time>2022-08-12T17:03:28Z</time>
      </trkpt>
      <trkpt lat="44.76174" lon="1.17424">
        <ele>79.4</ele>
        <time>2022-08-12T17:03:30Z</time>
      </trkpt>
      <trkpt lat="44.76166" lon="1.17428">
        <ele>79.4</ele>
        <time>2022-08-12T17:03:32Z</time>
      </trkpt>
      <trkpt lat="44.76159" lon="1.17432">
        <ele>79.4</ele>
        <time>2022-08-12T17:03:34Z</time>
      </trkpt>
      <trkpt lat="44.76151" lon="1.17436">
        <ele>79.4</ele>
        <time>2022-08-12T17:03:36Z</time>
      </trkpt>
      <trkpt lat="44.76143" lon="1.17442">
        <ele>79.4</ele>
        <time>2022-08-12T17:03:38Z</time>
      </trkpt>
      <trkpt lat="44.76135" lon="1.17446">
        <ele>79.4</ele>
        <time>2022-08-12T17:03:40Z</time>
      </trkpt>
      <trkpt lat="44.76128" lon="1.17452">
        <ele>78.4</ele>
        <time>2022-08-12T17:03:42Z</time>
      </trkpt>
      <trkpt lat="44.76122" lon="1.17456">
        <ele>78.4</ele>
        <time>2022-08-12T17:03:44Z</time>
      </trkpt>
      <trkpt lat="44.76126" lon="1.17461">
        <ele>78.4</ele>
        <time>2022-08-12T17:03:48Z</time>
      </trkpt>
      <trkpt lat="44.76131" lon="1.17474">
        <ele>78.4</ele>
        <time>2022-08-12T17:03:50Z</time>
      </trkpt>
      <trkpt lat="44.76133" lon="1.17482">
        <ele>78.4</ele>
        <time>2022-08-12T17:03:51Z</time>
      </trkpt>
      <trkpt lat="44.76134" lon="1.17489">
        <ele>79.4</ele>
        <time>2022-08-12T17:03:52Z</time>
      </trkpt>
      <trkpt lat="44.76135" lon="1.17498">
        <ele>80.4</ele>
        <time>2022-08-12T17:03:54Z</time>
      </trkpt>
      <trkpt lat="44.76137" lon="1.17507">
        <ele>80.4</ele>
        <time>2022-08-12T17:03:56Z</time>
      </trkpt>
      <trkpt lat="44.7614" lon="1.17517">
        <ele>80.4</ele>
        <time>2022-08-12T17:03:58Z</time>
      </trkpt>
      <trkpt lat="44.76143" lon="1.17529">
        <ele>80.4</ele>
        <time>2022-08-12T17:04:00Z</time>
      </trkpt>
      <trkpt lat="44.76145" lon="1.17539">
        <ele>79.4</ele>
        <time>2022-08-12T17:04:02Z</time>
      </trkpt>
      <trkpt lat="44.76147" lon="1.17549">
        <ele>79.4</ele>
        <time>2022-08-12T17:04:04Z</time>
      </trkpt>
      <trkpt lat="44.7615" lon="1.17559">
        <ele>80.4</ele>
        <time>2022-08-12T17:04:06Z</time>
      </trkpt>
      <trkpt lat="44.7615" lon="1.17566">
        <ele>80.4</ele>
        <time>2022-08-12T17:04:07Z</time>
      </trkpt>
      <trkpt lat="44.76152" lon="1.17572">
        <ele>80.4</ele>
        <time>2022-08-12T17:04:08Z</time>
      </trkpt>
      <trkpt lat="44.76154" lon="1.17578">
        <ele>80.4</ele>
        <time>2022-08-12T17:04:09Z</time>
      </trkpt>
      <trkpt lat="44.76156" lon="1.17584">
        <ele>80.4</ele>
        <time>2022-08-12T17:04:10Z</time>
      </trkpt>
      <trkpt lat="44.76158" lon="1.1759">
        <ele>80.4</ele>
        <time>2022-08-12T17:04:11Z</time>
      </trkpt>
      <trkpt lat="44.76162" lon="1.17601">
        <ele>80.4</ele>
        <time>2022-08-12T17:04:13Z</time>
      </trkpt>
      <trkpt lat="44.76163" lon="1.17611">
        <ele>80.4</ele>
        <time>2022-08-12T17:04:15Z</time>
      </trkpt>
      <trkpt lat="44.76165" lon="1.1762">
        <ele>80.4</ele>
        <time>2022-08-12T17:04:17Z</time>
      </trkpt>
      <trkpt lat="44.76167" lon="1.17628">
        <ele>80.4</ele>
        <time>2022-08-12T17:04:19Z</time>
      </trkpt>
      <trkpt lat="44.76169" lon="1.17636">
        <ele>80.4</ele>
        <time>2022-08-12T17:04:21Z</time>
      </trkpt>
      <trkpt lat="44.76172" lon="1.17646">
        <ele>79.4</ele>
        <time>2022-08-12T17:04:23Z</time>
      </trkpt>
      <trkpt lat="44.76175" lon="1.17655">
        <ele>80.4</ele>
        <time>2022-08-12T17:04:26Z</time>
      </trkpt>
      <trkpt lat="44.76179" lon="1.17663">
        <ele>80.4</ele>
        <time>2022-08-12T17:04:28Z</time>
      </trkpt>
      <trkpt lat="44.76181" lon="1.17669">
        <ele>80.4</ele>
        <time>2022-08-12T17:04:29Z</time>
      </trkpt>
      <trkpt lat="44.76182" lon="1.17676">
        <ele>79.4</ele>
        <time>2022-08-12T17:04:32Z</time>
      </trkpt>
      <trkpt lat="44.76182" lon="1.17685">
        <ele>79.4</ele>
        <time>2022-08-12T17:04:34Z</time>
      </trkpt>
      <trkpt lat="44.76182" lon="1.17694">
        <ele>78.4</ele>
        <time>2022-08-12T17:04:38Z</time>
      </trkpt>
      <trkpt lat="44.76184" lon="1.17701">
        <ele>78.4</ele>
        <time>2022-08-12T17:04:39Z</time>
      </trkpt>
      <trkpt lat="44.76185" lon="1.1771">
        <ele>78.4</ele>
        <time>2022-08-12T17:04:42Z</time>
      </trkpt>
      <trkpt lat="44.76182" lon="1.17716">
        <ele>78.4</ele>
        <time>2022-08-12T17:04:45Z</time>
      </trkpt>
      <trkpt lat="44.76179" lon="1.17721">
        <ele>77.4</ele>
        <time>2022-08-12T17:04:49Z</time>
      </trkpt>
      <trkpt lat="44.76184" lon="1.17717">
        <ele>79.4</ele>
        <time>2022-08-12T17:04:58Z</time>
      </trkpt>
      <trkpt lat="44.76178" lon="1.17719">
        <ele>79.4</ele>
        <time>2022-08-12T17:05:12Z</time>
      </trkpt>
      <trkpt lat="44.76172" lon="1.17723">
        <ele>78.4</ele>
        <time>2022-08-12T17:05:13Z</time>
      </trkpt>
      <trkpt lat="44.76165" lon="1.17728">
        <ele>77.4</ele>
        <time>2022-08-12T17:05:15Z</time>
      </trkpt>
      <trkpt lat="44.76159" lon="1.17732">
        <ele>77.4</ele>
        <time>2022-08-12T17:05:17Z</time>
      </trkpt>
      <trkpt lat="44.76153" lon="1.17736">
        <ele>77.4</ele>
        <time>2022-08-12T17:05:19Z</time>
      </trkpt>
      <trkpt lat="44.76147" lon="1.1774">
        <ele>77.4</ele>
        <time>2022-08-12T17:05:21Z</time>
      </trkpt>
      <trkpt lat="44.76142" lon="1.17745">
        <ele>76.4</ele>
        <time>2022-08-12T17:05:23Z</time>
      </trkpt>
      <trkpt lat="44.76137" lon="1.17749">
        <ele>76.4</ele>
        <time>2022-08-12T17:05:26Z</time>
      </trkpt>
      <trkpt lat="44.76131" lon="1.17753">
        <ele>76.4</ele>
        <time>2022-08-12T17:05:28Z</time>
      </trkpt>
      <trkpt lat="44.76126" lon="1.17755">
        <ele>76.4</ele>
        <time>2022-08-12T17:05:29Z</time>
      </trkpt>
      <trkpt lat="44.76121" lon="1.17758">
        <ele>75.4</ele>
        <time>2022-08-12T17:05:32Z</time>
      </trkpt>
      <trkpt lat="44.76115" lon="1.17762">
        <ele>77.4</ele>
        <time>2022-08-12T17:05:33Z</time>
      </trkpt>
      <trkpt lat="44.7611" lon="1.17764">
        <ele>79.4</ele>
        <time>2022-08-12T17:05:35Z</time>
      </trkpt>
      <trkpt lat="44.76106" lon="1.17767">
        <ele>78.4</ele>
        <time>2022-08-12T17:05:37Z</time>
      </trkpt>
      <trkpt lat="44.76102" lon="1.1777">
        <ele>77.4</ele>
        <time>2022-08-12T17:05:39Z</time>
      </trkpt>
      <trkpt lat="44.76097" lon="1.17773">
        <ele>78.4</ele>
        <time>2022-08-12T17:05:42Z</time>
      </trkpt>
      <trkpt lat="44.76093" lon="1.17776">
        <ele>78.4</ele>
        <time>2022-08-12T17:05:43Z</time>
      </trkpt>
      <trkpt lat="44.76087" lon="1.1778">
        <ele>78.4</ele>
        <time>2022-08-12T17:05:45Z</time>
      </trkpt>
      <trkpt lat="44.76083" lon="1.17784">
        <ele>78.4</ele>
        <time>2022-08-12T17:05:47Z</time>
      </trkpt>
      <trkpt lat="44.76078" lon="1.17787">
        <ele>78.4</ele>
        <time>2022-08-12T17:05:49Z</time>
      </trkpt>
      <trkpt lat="44.76073" lon="1.17789">
        <ele>79.4</ele>
        <time>2022-08-12T17:05:51Z</time>
      </trkpt>
      <trkpt lat="44.76069" lon="1.17795">
        <ele>83.4</ele>
        <time>2022-08-12T17:06:00Z</time>
      </trkpt>
      <trkpt lat="44.76066" lon="1.178">
        <ele>83.4</ele>
        <time>2022-08-12T17:06:18Z</time>
      </trkpt>
      <trkpt lat="44.76065" lon="1.17794">
        <ele>81.4</ele>
        <time>2022-08-12T17:06:35Z</time>
      </trkpt>
      <trkpt lat="44.76069" lon="1.17788">
        <ele>80.4</ele>
        <time>2022-08-12T17:06:45Z</time>
      </trkpt>
      <trkpt lat="44.76075" lon="1.17783">
        <ele>81.4</ele>
        <time>2022-08-12T17:06:48Z</time>
      </trkpt>
      <trkpt lat="44.7608" lon="1.1778">
        <ele>82.4</ele>
        <time>2022-08-12T17:06:51Z</time>
      </trkpt>
      <trkpt lat="44.76085" lon="1.17777">
        <ele>83.4</ele>
        <time>2022-08-12T17:06:53Z</time>
      </trkpt>
      <trkpt lat="44.7609" lon="1.17773">
        <ele>84.4</ele>
        <time>2022-08-12T17:06:54Z</time>
      </trkpt>
      <trkpt lat="44.76096" lon="1.17769">
        <ele>84.4</ele>
        <time>2022-08-12T17:06:57Z</time>
      </trkpt>
      <trkpt lat="44.76103" lon="1.17765">
        <ele>85.4</ele>
        <time>2022-08-12T17:06:58Z</time>
      </trkpt>
      <trkpt lat="44.76109" lon="1.1776">
        <ele>85.4</ele>
        <time>2022-08-12T17:07:00Z</time>
      </trkpt>
      <trkpt lat="44.76115" lon="1.17756">
        <ele>84.4</ele>
        <time>2022-08-12T17:07:02Z</time>
      </trkpt>
      <trkpt lat="44.76121" lon="1.17751">
        <ele>84.4</ele>
        <time>2022-08-12T17:07:04Z</time>
      </trkpt>
      <trkpt lat="44.76127" lon="1.17748">
        <ele>84.4</ele>
        <time>2022-08-12T17:07:06Z</time>
      </trkpt>
      <trkpt lat="44.76133" lon="1.17744">
        <ele>84.4</ele>
        <time>2022-08-12T17:07:08Z</time>
      </trkpt>
      <trkpt lat="44.76139" lon="1.17739">
        <ele>83.4</ele>
        <time>2022-08-12T17:07:10Z</time>
      </trkpt>
      <trkpt lat="44.76145" lon="1.17735">
        <ele>82.4</ele>
        <time>2022-08-12T17:07:13Z</time>
      </trkpt>
      <trkpt lat="44.76152" lon="1.1773">
        <ele>82.4</ele>
        <time>2022-08-12T17:07:14Z</time>
      </trkpt>
      <trkpt lat="44.76159" lon="1.17726">
        <ele>82.4</ele>
        <time>2022-08-12T17:07:17Z</time>
      </trkpt>
      <trkpt lat="44.76167" lon="1.17722">
        <ele>83.4</ele>
        <time>2022-08-12T17:07:19Z</time>
      </trkpt>
      <trkpt lat="44.76173" lon="1.17719">
        <ele>83.4</ele>
        <time>2022-08-12T17:07:22Z</time>
      </trkpt>
      <trkpt lat="44.76178" lon="1.17717">
        <ele>83.4</ele>
        <time>2022-08-12T17:07:23Z</time>
      </trkpt>
      <trkpt lat="44.76182" lon="1.17712">
        <ele>83.4</ele>
        <time>2022-08-12T17:07:26Z</time>
      </trkpt>
      <trkpt lat="44.76182" lon="1.17705">
        <ele>83.4</ele>
        <time>2022-08-12T17:07:28Z</time>
      </trkpt>
      <trkpt lat="44.76178" lon="1.17701">
        <ele>82.4</ele>
        <time>2022-08-12T17:07:37Z</time>
      </trkpt>
      <trkpt lat="44.76179" lon="1.17693">
        <ele>82.4</ele>
        <time>2022-08-12T17:07:50Z</time>
      </trkpt>
      <trkpt lat="44.76179" lon="1.17685">
        <ele>82.4</ele>
        <time>2022-08-12T17:07:52Z</time>
      </trkpt>
      <trkpt lat="44.76181" lon="1.17678">
        <ele>83.4</ele>
        <time>2022-08-12T17:07:55Z</time>
      </trkpt>
      <trkpt lat="44.7618" lon="1.17669">
        <ele>84.4</ele>
        <time>2022-08-12T17:07:58Z</time>
      </trkpt>
      <trkpt lat="44.76177" lon="1.17661">
        <ele>84.4</ele>
        <time>2022-08-12T17:08:00Z</time>
      </trkpt>
      <trkpt lat="44.76175" lon="1.17655">
        <ele>84.4</ele>
        <time>2022-08-12T17:08:02Z</time>
      </trkpt>
      <trkpt lat="44.76172" lon="1.17648">
        <ele>83.4</ele>
        <time>2022-08-12T17:08:04Z</time>
      </trkpt>
      <trkpt lat="44.76169" lon="1.17637">
        <ele>83.4</ele>
        <time>2022-08-12T17:08:06Z</time>
      </trkpt>
      <trkpt lat="44.76166" lon="1.17627">
        <ele>83.4</ele>
        <time>2022-08-12T17:08:08Z</time>
      </trkpt>
      <trkpt lat="44.76164" lon="1.17616">
        <ele>82.4</ele>
        <time>2022-08-12T17:08:10Z</time>
      </trkpt>
      <trkpt lat="44.76162" lon="1.17606">
        <ele>82.4</ele>
        <time>2022-08-12T17:08:12Z</time>
      </trkpt>
      <trkpt lat="44.7616" lon="1.17597">
        <ele>82.4</ele>
        <time>2022-08-12T17:08:14Z</time>
      </trkpt>
      <trkpt lat="44.76158" lon="1.17588">
        <ele>82.4</ele>
        <time>2022-08-12T17:08:16Z</time>
      </trkpt>
      <trkpt lat="44.76155" lon="1.17576">
        <ele>81.4</ele>
        <time>2022-08-12T17:08:18Z</time>
      </trkpt>
      <trkpt lat="44.76153" lon="1.1757">
        <ele>82.4</ele>
        <time>2022-08-12T17:08:19Z</time>
      </trkpt>
      <trkpt lat="44.7615" lon="1.17559">
        <ele>81.4</ele>
        <time>2022-08-12T17:08:21Z</time>
      </trkpt>
      <trkpt lat="44.76147" lon="1.17546">
        <ele>81.4</ele>
        <time>2022-08-12T17:08:23Z</time>
      </trkpt>
      <trkpt lat="44.76146" lon="1.1754">
        <ele>81.4</ele>
        <time>2022-08-12T17:08:24Z</time>
      </trkpt>
      <trkpt lat="44.76142" lon="1.17529">
        <ele>81.4</ele>
        <time>2022-08-12T17:08:26Z</time>
      </trkpt>
      <trkpt lat="44.76141" lon="1.17523">
        <ele>81.4</ele>
        <time>2022-08-12T17:08:27Z</time>
      </trkpt>
      <trkpt lat="44.76139" lon="1.17512">
        <ele>80.4</ele>
        <time>2022-08-12T17:08:29Z</time>
      </trkpt>
      <trkpt lat="44.76136" lon="1.17503">
        <ele>80.4</ele>
        <time>2022-08-12T17:08:32Z</time>
      </trkpt>
      <trkpt lat="44.76134" lon="1.17495">
        <ele>80.4</ele>
        <time>2022-08-12T17:08:33Z</time>
      </trkpt>
      <trkpt lat="44.76132" lon="1.17486">
        <ele>80.4</ele>
        <time>2022-08-12T17:08:35Z</time>
      </trkpt>
      <trkpt lat="44.7613" lon="1.17478">
        <ele>80.4</ele>
        <time>2022-08-12T17:08:38Z</time>
      </trkpt>
      <trkpt lat="44.76128" lon="1.1747">
        <ele>80.4</ele>
        <time>2022-08-12T17:08:39Z</time>
      </trkpt>
      <trkpt lat="44.76128" lon="1.17464">
        <ele>80.4</ele>
        <time>2022-08-12T17:08:43Z</time>
      </trkpt>
      <trkpt lat="44.76121" lon="1.17464">
        <ele>79.4</ele>
        <time>2022-08-12T17:08:47Z</time>
      </trkpt>
      <trkpt lat="44.76116" lon="1.17466">
        <ele>79.4</ele>
        <time>2022-08-12T17:08:49Z</time>
      </trkpt>
      <trkpt lat="44.76112" lon="1.1747">
        <ele>78.4</ele>
        <time>2022-08-12T17:08:51Z</time>
      </trkpt>
      <trkpt lat="44.76106" lon="1.17473">
        <ele>78.4</ele>
        <time>2022-08-12T17:08:53Z</time>
      </trkpt>
      <trkpt lat="44.761" lon="1.17477">
        <ele>78.4</ele>
        <time>2022-08-12T17:08:56Z</time>
      </trkpt>
      <trkpt lat="44.76093" lon="1.17482">
        <ele>79.4</ele>
        <time>2022-08-12T17:08:57Z</time>
      </trkpt>
      <trkpt lat="44.76086" lon="1.17486">
        <ele>78.4</ele>
        <time>2022-08-12T17:08:59Z</time>
      </trkpt>
      <trkpt lat="44.76081" lon="1.17488">
        <ele>78.4</ele>
        <time>2022-08-12T17:09:00Z</time>
      </trkpt>
      <trkpt lat="44.76076" lon="1.17491">
        <ele>77.4</ele>
        <time>2022-08-12T17:09:01Z</time>
      </trkpt>
      <trkpt lat="44.76071" lon="1.17494">
        <ele>77.4</ele>
        <time>2022-08-12T17:09:03Z</time>
      </trkpt>
      <trkpt lat="44.7606" lon="1.175">
        <ele>76.4</ele>
        <time>2022-08-12T17:09:04Z</time>
      </trkpt>
      <trkpt lat="44.76055" lon="1.17504">
        <ele>76.4</ele>
        <time>2022-08-12T17:09:06Z</time>
      </trkpt>
      <trkpt lat="44.76049" lon="1.17508">
        <ele>76.4</ele>
        <time>2022-08-12T17:09:07Z</time>
      </trkpt>
      <trkpt lat="44.76044" lon="1.17511">
        <ele>76.4</ele>
        <time>2022-08-12T17:09:08Z</time>
      </trkpt>
      <trkpt lat="44.76033" lon="1.17519">
        <ele>77.4</ele>
        <time>2022-08-12T17:09:09Z</time>
      </trkpt>
      <trkpt lat="44.76029" lon="1.17524">
        <ele>76.4</ele>
        <time>2022-08-12T17:09:11Z</time>
      </trkpt>
      <trkpt lat="44.76025" lon="1.17528">
        <ele>76.4</ele>
        <time>2022-08-12T17:09:11Z</time>
      </trkpt>
      <trkpt lat="44.7602" lon="1.17531">
        <ele>75.4</ele>
        <time>2022-08-12T17:09:12Z</time>
      </trkpt>
      <trkpt lat="44.76015" lon="1.17534">
        <ele>75.4</ele>
        <time>2022-08-12T17:09:13Z</time>
      </trkpt>
      <trkpt lat="44.7601" lon="1.17538">
        <ele>75.4</ele>
        <time>2022-08-12T17:09:14Z</time>
      </trkpt>
      <trkpt lat="44.76006" lon="1.17541">
        <ele>75.4</ele>
        <time>2022-08-12T17:09:16Z</time>
      </trkpt>
      <trkpt lat="44.76002" lon="1.17545">
        <ele>75.4</ele>
        <time>2022-08-12T17:09:16Z</time>
      </trkpt>
      <trkpt lat="44.75998" lon="1.17548">
        <ele>75.4</ele>
        <time>2022-08-12T17:09:17Z</time>
      </trkpt>
      <trkpt lat="44.75994" lon="1.17552">
        <ele>75.4</ele>
        <time>2022-08-12T17:09:18Z</time>
      </trkpt>
      <trkpt lat="44.75989" lon="1.17556">
        <ele>75.4</ele>
        <time>2022-08-12T17:09:19Z</time>
      </trkpt>
      <trkpt lat="44.75984" lon="1.17559">
        <ele>76.4</ele>
        <time>2022-08-12T17:09:20Z</time>
      </trkpt>
      <trkpt lat="44.7598" lon="1.17562">
        <ele>76.4</ele>
        <time>2022-08-12T17:09:21Z</time>
      </trkpt>
      <trkpt lat="44.75976" lon="1.17565">
        <ele>76.4</ele>
        <time>2022-08-12T17:09:22Z</time>
      </trkpt>
      <trkpt lat="44.75972" lon="1.17568">
        <ele>76.4</ele>
        <time>2022-08-12T17:09:23Z</time>
      </trkpt>
      <trkpt lat="44.75967" lon="1.17571">
        <ele>75.4</ele>
        <time>2022-08-12T17:09:24Z</time>
      </trkpt>
      <trkpt lat="44.75963" lon="1.17573">
        <ele>76.4</ele>
        <time>2022-08-12T17:09:25Z</time>
      </trkpt>
      <trkpt lat="44.75958" lon="1.17575">
        <ele>76.4</ele>
        <time>2022-08-12T17:09:26Z</time>
      </trkpt>
      <trkpt lat="44.75954" lon="1.17577">
        <ele>76.4</ele>
        <time>2022-08-12T17:09:27Z</time>
      </trkpt>
      <trkpt lat="44.75949" lon="1.17579">
        <ele>76.4</ele>
        <time>2022-08-12T17:09:28Z</time>
      </trkpt>
      <trkpt lat="44.75944" lon="1.17582">
        <ele>76.4</ele>
        <time>2022-08-12T17:09:29Z</time>
      </trkpt>
      <trkpt lat="44.75939" lon="1.17584">
        <ele>76.4</ele>
        <time>2022-08-12T17:09:30Z</time>
      </trkpt>
      <trkpt lat="44.75934" lon="1.17586">
        <ele>76.4</ele>
        <time>2022-08-12T17:09:31Z</time>
      </trkpt>
      <trkpt lat="44.75929" lon="1.17588">
        <ele>76.4</ele>
        <time>2022-08-12T17:09:32Z</time>
      </trkpt>
      <trkpt lat="44.75924" lon="1.1759">
        <ele>77.4</ele>
        <time>2022-08-12T17:09:33Z</time>
      </trkpt>
      <trkpt lat="44.75919" lon="1.17592">
        <ele>77.4</ele>
        <time>2022-08-12T17:09:34Z</time>
      </trkpt>
      <trkpt lat="44.75914" lon="1.17594">
        <ele>77.4</ele>
        <time>2022-08-12T17:09:35Z</time>
      </trkpt>
      <trkpt lat="44.75909" lon="1.17595">
        <ele>77.4</ele>
        <time>2022-08-12T17:09:36Z</time>
      </trkpt>
      <trkpt lat="44.75904" lon="1.17597">
        <ele>77.4</ele>
        <time>2022-08-12T17:09:37Z</time>
      </trkpt>
      <trkpt lat="44.75899" lon="1.17599">
        <ele>77.4</ele>
        <time>2022-08-12T17:09:38Z</time>
      </trkpt>
      <trkpt lat="44.75894" lon="1.17601">
        <ele>78.4</ele>
        <time>2022-08-12T17:09:39Z</time>
      </trkpt>
      <trkpt lat="44.75889" lon="1.17603">
        <ele>78.4</ele>
        <time>2022-08-12T17:09:40Z</time>
      </trkpt>
      <trkpt lat="44.75884" lon="1.17605">
        <ele>78.4</ele>
        <time>2022-08-12T17:09:41Z</time>
      </trkpt>
      <trkpt lat="44.75879" lon="1.17607">
        <ele>78.4</ele>
        <time>2022-08-12T17:09:42Z</time>
      </trkpt>
      <trkpt lat="44.75874" lon="1.17609">
        <ele>78.4</ele>
        <time>2022-08-12T17:09:43Z</time>
      </trkpt>
      <trkpt lat="44.75869" lon="1.17612">
        <ele>78.4</ele>
        <time>2022-08-12T17:09:44Z</time>
      </trkpt>
      <trkpt lat="44.75864" lon="1.17615">
        <ele>78.4</ele>
        <time>2022-08-12T17:09:45Z</time>
      </trkpt>
      <trkpt lat="44.75859" lon="1.17617">
        <ele>78.4</ele>
        <time>2022-08-12T17:09:46Z</time>
      </trkpt>
      <trkpt lat="44.75855" lon="1.1762">
        <ele>78.4</ele>
        <time>2022-08-12T17:09:47Z</time>
      </trkpt>
      <trkpt lat="44.7585" lon="1.17624">
        <ele>78.4</ele>
        <time>2022-08-12T17:09:48Z</time>
      </trkpt>
      <trkpt lat="44.75845" lon="1.17627">
        <ele>77.4</ele>
        <time>2022-08-12T17:09:49Z</time>
      </trkpt>
      <trkpt lat="44.7584" lon="1.1763">
        <ele>77.4</ele>
        <time>2022-08-12T17:09:50Z</time>
      </trkpt>
      <trkpt lat="44.75835" lon="1.17634">
        <ele>77.4</ele>
        <time>2022-08-12T17:09:51Z</time>
      </trkpt>
      <trkpt lat="44.75831" lon="1.17639">
        <ele>77.4</ele>
        <time>2022-08-12T17:09:52Z</time>
      </trkpt>
      <trkpt lat="44.75827" lon="1.17643">
        <ele>77.4</ele>
        <time>2022-08-12T17:09:53Z</time>
      </trkpt>
      <trkpt lat="44.75823" lon="1.17647">
        <ele>78.4</ele>
        <time>2022-08-12T17:09:54Z</time>
      </trkpt>
      <trkpt lat="44.75819" lon="1.1765">
        <ele>79.4</ele>
        <time>2022-08-12T17:09:55Z</time>
      </trkpt>
      <trkpt lat="44.75815" lon="1.17654">
        <ele>79.4</ele>
        <time>2022-08-12T17:09:56Z</time>
      </trkpt>
      <trkpt lat="44.75811" lon="1.17659">
        <ele>79.4</ele>
        <time>2022-08-12T17:09:57Z</time>
      </trkpt>
      <trkpt lat="44.75807" lon="1.17663">
        <ele>80.4</ele>
        <time>2022-08-12T17:09:58Z</time>
      </trkpt>
      <trkpt lat="44.75802" lon="1.17667">
        <ele>81.4</ele>
        <time>2022-08-12T17:09:59Z</time>
      </trkpt>
      <trkpt lat="44.75799" lon="1.17671">
        <ele>81.4</ele>
        <time>2022-08-12T17:10:00Z</time>
      </trkpt>
      <trkpt lat="44.75795" lon="1.17676">
        <ele>81.4</ele>
        <time>2022-08-12T17:10:01Z</time>
      </trkpt>
      <trkpt lat="44.75791" lon="1.17679">
        <ele>81.4</ele>
        <time>2022-08-12T17:10:02Z</time>
      </trkpt>
      <trkpt lat="44.75786" lon="1.17683">
        <ele>81.4</ele>
        <time>2022-08-12T17:10:03Z</time>
      </trkpt>
      <trkpt lat="44.75782" lon="1.17687">
        <ele>82.4</ele>
        <time>2022-08-12T17:10:04Z</time>
      </trkpt>
      <trkpt lat="44.75777" lon="1.17691">
        <ele>82.4</ele>
        <time>2022-08-12T17:10:05Z</time>
      </trkpt>
      <trkpt lat="44.75773" lon="1.17694">
        <ele>82.4</ele>
        <time>2022-08-12T17:10:06Z</time>
      </trkpt>
      <trkpt lat="44.75768" lon="1.17697">
        <ele>82.4</ele>
        <time>2022-08-12T17:10:07Z</time>
      </trkpt>
      <trkpt lat="44.75763" lon="1.177">
        <ele>82.4</ele>
        <time>2022-08-12T17:10:08Z</time>
      </trkpt>
      <trkpt lat="44.75759" lon="1.17703">
        <ele>82.4</ele>
        <time>2022-08-12T17:10:09Z</time>
      </trkpt>
      <trkpt lat="44.75755" lon="1.17707">
        <ele>82.4</ele>
        <time>2022-08-12T17:10:10Z</time>
      </trkpt>
      <trkpt lat="44.7575" lon="1.1771">
        <ele>81.4</ele>
        <time>2022-08-12T17:10:11Z</time>
      </trkpt>
      <trkpt lat="44.75746" lon="1.17713">
        <ele>81.4</ele>
        <time>2022-08-12T17:10:12Z</time>
      </trkpt>
      <trkpt lat="44.75742" lon="1.17716">
        <ele>81.4</ele>
        <time>2022-08-12T17:10:13Z</time>
      </trkpt>
      <trkpt lat="44.75738" lon="1.17719">
        <ele>81.4</ele>
        <time>2022-08-12T17:10:14Z</time>
      </trkpt>
      <trkpt lat="44.75734" lon="1.17723">
        <ele>80.4</ele>
        <time>2022-08-12T17:10:15Z</time>
      </trkpt>
      <trkpt lat="44.7573" lon="1.17727">
        <ele>80.4</ele>
        <time>2022-08-12T17:10:16Z</time>
      </trkpt>
      <trkpt lat="44.75726" lon="1.17731">
        <ele>81.4</ele>
        <time>2022-08-12T17:10:17Z</time>
      </trkpt>
      <trkpt lat="44.75722" lon="1.17736">
        <ele>81.4</ele>
        <time>2022-08-12T17:10:18Z</time>
      </trkpt>
      <trkpt lat="44.75719" lon="1.17741">
        <ele>81.4</ele>
        <time>2022-08-12T17:10:19Z</time>
      </trkpt>
      <trkpt lat="44.75712" lon="1.17749">
        <ele>82.4</ele>
        <time>2022-08-12T17:10:21Z</time>
      </trkpt>
      <trkpt lat="44.75708" lon="1.17754">
        <ele>82.4</ele>
        <time>2022-08-12T17:10:22Z</time>
      </trkpt>
      <trkpt lat="44.75705" lon="1.1776">
        <ele>82.4</ele>
        <time>2022-08-12T17:10:23Z</time>
      </trkpt>
      <trkpt lat="44.75704" lon="1.17767">
        <ele>82.4</ele>
        <time>2022-08-12T17:10:24Z</time>
      </trkpt>
      <trkpt lat="44.75704" lon="1.17775">
        <ele>82.4</ele>
        <time>2022-08-12T17:10:25Z</time>
      </trkpt>
      <trkpt lat="44.75707" lon="1.17782">
        <ele>82.4</ele>
        <time>2022-08-12T17:10:26Z</time>
      </trkpt>
      <trkpt lat="44.75709" lon="1.17789">
        <ele>83.4</ele>
        <time>2022-08-12T17:10:27Z</time>
      </trkpt>
      <trkpt lat="44.75712" lon="1.17795">
        <ele>83.4</ele>
        <time>2022-08-12T17:10:28Z</time>
      </trkpt>
      <trkpt lat="44.75715" lon="1.17801">
        <ele>83.4</ele>
        <time>2022-08-12T17:10:29Z</time>
      </trkpt>
      <trkpt lat="44.75719" lon="1.17807">
        <ele>83.4</ele>
        <time>2022-08-12T17:10:30Z</time>
      </trkpt>
      <trkpt lat="44.75723" lon="1.17813">
        <ele>83.4</ele>
        <time>2022-08-12T17:10:31Z</time>
      </trkpt>
      <trkpt lat="44.75726" lon="1.1782">
        <ele>82.4</ele>
        <time>2022-08-12T17:10:32Z</time>
      </trkpt>
      <trkpt lat="44.7573" lon="1.17826">
        <ele>82.4</ele>
        <time>2022-08-12T17:10:33Z</time>
      </trkpt>
      <trkpt lat="44.75734" lon="1.17833">
        <ele>82.4</ele>
        <time>2022-08-12T17:10:34Z</time>
      </trkpt>
      <trkpt lat="44.75738" lon="1.1784">
        <ele>82.4</ele>
        <time>2022-08-12T17:10:35Z</time>
      </trkpt>
      <trkpt lat="44.75741" lon="1.17847">
        <ele>82.4</ele>
        <time>2022-08-12T17:10:36Z</time>
      </trkpt>
      <trkpt lat="44.75744" lon="1.17855">
        <ele>81.4</ele>
        <time>2022-08-12T17:10:37Z</time>
      </trkpt>
      <trkpt lat="44.75746" lon="1.17863">
        <ele>81.4</ele>
        <time>2022-08-12T17:10:38Z</time>
      </trkpt>
      <trkpt lat="44.75748" lon="1.17872">
        <ele>81.4</ele>
        <time>2022-08-12T17:10:39Z</time>
      </trkpt>
      <trkpt lat="44.75749" lon="1.17881">
        <ele>81.4</ele>
        <time>2022-08-12T17:10:40Z</time>
      </trkpt>
      <trkpt lat="44.75748" lon="1.17889">
        <ele>81.4</ele>
        <time>2022-08-12T17:10:41Z</time>
      </trkpt>
      <trkpt lat="44.75746" lon="1.17898">
        <ele>81.4</ele>
        <time>2022-08-12T17:10:42Z</time>
      </trkpt>
      <trkpt lat="44.75743" lon="1.17907">
        <ele>81.4</ele>
        <time>2022-08-12T17:10:43Z</time>
      </trkpt>
      <trkpt lat="44.7574" lon="1.17916">
        <ele>81.4</ele>
        <time>2022-08-12T17:10:44Z</time>
      </trkpt>
      <trkpt lat="44.75739" lon="1.17924">
        <ele>81.4</ele>
        <time>2022-08-12T17:10:45Z</time>
      </trkpt>
      <trkpt lat="44.75738" lon="1.17934">
        <ele>82.4</ele>
        <time>2022-08-12T17:10:46Z</time>
      </trkpt>
      <trkpt lat="44.75737" lon="1.17942">
        <ele>82.4</ele>
        <time>2022-08-12T17:10:47Z</time>
      </trkpt>
      <trkpt lat="44.75737" lon="1.1795">
        <ele>82.4</ele>
        <time>2022-08-12T17:10:48Z</time>
      </trkpt>
      <trkpt lat="44.75737" lon="1.17957">
        <ele>82.4</ele>
        <time>2022-08-12T17:10:49Z</time>
      </trkpt>
      <trkpt lat="44.75737" lon="1.17964">
        <ele>81.4</ele>
        <time>2022-08-12T17:10:50Z</time>
      </trkpt>
      <trkpt lat="44.75738" lon="1.1797">
        <ele>81.4</ele>
        <time>2022-08-12T17:10:51Z</time>
      </trkpt>
      <trkpt lat="44.7574" lon="1.17977">
        <ele>81.4</ele>
        <time>2022-08-12T17:10:52Z</time>
      </trkpt>
      <trkpt lat="44.75742" lon="1.17984">
        <ele>81.4</ele>
        <time>2022-08-12T17:10:53Z</time>
      </trkpt>
      <trkpt lat="44.75743" lon="1.1799">
        <ele>81.4</ele>
        <time>2022-08-12T17:10:54Z</time>
      </trkpt>
      <trkpt lat="44.75745" lon="1.17997">
        <ele>80.4</ele>
        <time>2022-08-12T17:10:55Z</time>
      </trkpt>
      <trkpt lat="44.75746" lon="1.18003">
        <ele>80.4</ele>
        <time>2022-08-12T17:10:56Z</time>
      </trkpt>
      <trkpt lat="44.7575" lon="1.18015">
        <ele>80.4</ele>
        <time>2022-08-12T17:10:58Z</time>
      </trkpt>
      <trkpt lat="44.75752" lon="1.18021">
        <ele>80.4</ele>
        <time>2022-08-12T17:10:59Z</time>
      </trkpt>
      <trkpt lat="44.75754" lon="1.18027">
        <ele>80.4</ele>
        <time>2022-08-12T17:11:00Z</time>
      </trkpt>
      <trkpt lat="44.75756" lon="1.18034">
        <ele>80.4</ele>
        <time>2022-08-12T17:11:01Z</time>
      </trkpt>
      <trkpt lat="44.75758" lon="1.1804">
        <ele>80.4</ele>
        <time>2022-08-12T17:11:02Z</time>
      </trkpt>
      <trkpt lat="44.75761" lon="1.18047">
        <ele>80.4</ele>
        <time>2022-08-12T17:11:03Z</time>
      </trkpt>
      <trkpt lat="44.75764" lon="1.18053">
        <ele>80.4</ele>
        <time>2022-08-12T17:11:04Z</time>
      </trkpt>
      <trkpt lat="44.75768" lon="1.1806">
        <ele>80.4</ele>
        <time>2022-08-12T17:11:05Z</time>
      </trkpt>
      <trkpt lat="44.75771" lon="1.18067">
        <ele>80.4</ele>
        <time>2022-08-12T17:11:06Z</time>
      </trkpt>
      <trkpt lat="44.75775" lon="1.18074">
        <ele>80.4</ele>
        <time>2022-08-12T17:11:07Z</time>
      </trkpt>
      <trkpt lat="44.75778" lon="1.18081">
        <ele>80.4</ele>
        <time>2022-08-12T17:11:08Z</time>
      </trkpt>
      <trkpt lat="44.75782" lon="1.18087">
        <ele>80.4</ele>
        <time>2022-08-12T17:11:09Z</time>
      </trkpt>
      <trkpt lat="44.75786" lon="1.18094">
        <ele>80.4</ele>
        <time>2022-08-12T17:11:10Z</time>
      </trkpt>
      <trkpt lat="44.75791" lon="1.181">
        <ele>80.4</ele>
        <time>2022-08-12T17:11:11Z</time>
      </trkpt>
      <trkpt lat="44.75795" lon="1.18106">
        <ele>80.4</ele>
        <time>2022-08-12T17:11:12Z</time>
      </trkpt>
      <trkpt lat="44.75801" lon="1.18111">
        <ele>79.4</ele>
        <time>2022-08-12T17:11:13Z</time>
      </trkpt>
      <trkpt lat="44.75806" lon="1.18115">
        <ele>79.4</ele>
        <time>2022-08-12T17:11:14Z</time>
      </trkpt>
      <trkpt lat="44.75812" lon="1.18119">
        <ele>79.4</ele>
        <time>2022-08-12T17:11:15Z</time>
      </trkpt>
      <trkpt lat="44.75818" lon="1.18123">
        <ele>79.4</ele>
        <time>2022-08-12T17:11:16Z</time>
      </trkpt>
      <trkpt lat="44.75824" lon="1.18127">
        <ele>79.4</ele>
        <time>2022-08-12T17:11:17Z</time>
      </trkpt>
      <trkpt lat="44.7583" lon="1.1813">
        <ele>79.4</ele>
        <time>2022-08-12T17:11:18Z</time>
      </trkpt>
      <trkpt lat="44.75836" lon="1.18133">
        <ele>79.4</ele>
        <time>2022-08-12T17:11:19Z</time>
      </trkpt>
      <trkpt lat="44.75842" lon="1.18136">
        <ele>79.4</ele>
        <time>2022-08-12T17:11:20Z</time>
      </trkpt>
      <trkpt lat="44.75847" lon="1.18139">
        <ele>79.4</ele>
        <time>2022-08-12T17:11:21Z</time>
      </trkpt>
      <trkpt lat="44.75852" lon="1.18142">
        <ele>79.4</ele>
        <time>2022-08-12T17:11:22Z</time>
      </trkpt>
      <trkpt lat="44.75857" lon="1.18146">
        <ele>79.4</ele>
        <time>2022-08-12T17:11:23Z</time>
      </trkpt>
      <trkpt lat="44.75863" lon="1.18149">
        <ele>79.4</ele>
        <time>2022-08-12T17:11:24Z</time>
      </trkpt>
      <trkpt lat="44.75867" lon="1.18152">
        <ele>79.4</ele>
        <time>2022-08-12T17:11:25Z</time>
      </trkpt>
      <trkpt lat="44.75872" lon="1.18155">
        <ele>79.4</ele>
        <time>2022-08-12T17:11:26Z</time>
      </trkpt>
      <trkpt lat="44.75877" lon="1.18158">
        <ele>79.4</ele>
        <time>2022-08-12T17:11:27Z</time>
      </trkpt>
      <trkpt lat="44.75884" lon="1.18161">
        <ele>80.4</ele>
        <time>2022-08-12T17:11:29Z</time>
      </trkpt>
      <trkpt lat="44.75889" lon="1.18162">
        <ele>79.4</ele>
        <time>2022-08-12T17:11:32Z</time>
      </trkpt>
      <trkpt lat="44.75896" lon="1.18167">
        <ele>79.4</ele>
        <time>2022-08-12T17:11:35Z</time>
      </trkpt>
      <trkpt lat="44.75898" lon="1.18179">
        <ele>79.4</ele>
        <time>2022-08-12T17:11:37Z</time>
      </trkpt>
      <trkpt lat="44.75897" lon="1.18185">
        <ele>79.4</ele>
        <time>2022-08-12T17:11:38Z</time>
      </trkpt>
      <trkpt lat="44.75895" lon="1.18192">
        <ele>79.4</ele>
        <time>2022-08-12T17:11:39Z</time>
      </trkpt>
      <trkpt lat="44.75893" lon="1.18204">
        <ele>80.4</ele>
        <time>2022-08-12T17:11:41Z</time>
      </trkpt>
      <trkpt lat="44.75893" lon="1.1821">
        <ele>80.4</ele>
        <time>2022-08-12T17:11:42Z</time>
      </trkpt>
      <trkpt lat="44.75894" lon="1.18217">
        <ele>80.4</ele>
        <time>2022-08-12T17:11:43Z</time>
      </trkpt>
      <trkpt lat="44.75896" lon="1.18225">
        <ele>80.4</ele>
        <time>2022-08-12T17:11:44Z</time>
      </trkpt>
      <trkpt lat="44.75898" lon="1.18233">
        <ele>80.4</ele>
        <time>2022-08-12T17:11:45Z</time>
      </trkpt>
      <trkpt lat="44.759" lon="1.18239">
        <ele>80.4</ele>
        <time>2022-08-12T17:11:46Z</time>
      </trkpt>
      <trkpt lat="44.75903" lon="1.18246">
        <ele>80.4</ele>
        <time>2022-08-12T17:11:47Z</time>
      </trkpt>
      <trkpt lat="44.75905" lon="1.18253">
        <ele>80.4</ele>
        <time>2022-08-12T17:11:48Z</time>
      </trkpt>
      <trkpt lat="44.75905" lon="1.1826">
        <ele>79.4</ele>
        <time>2022-08-12T17:11:49Z</time>
      </trkpt>
      <trkpt lat="44.75905" lon="1.18267">
        <ele>79.4</ele>
        <time>2022-08-12T17:11:50Z</time>
      </trkpt>
      <trkpt lat="44.75905" lon="1.18274">
        <ele>79.4</ele>
        <time>2022-08-12T17:11:51Z</time>
      </trkpt>
      <trkpt lat="44.75903" lon="1.18281">
        <ele>79.4</ele>
        <time>2022-08-12T17:11:52Z</time>
      </trkpt>
      <trkpt lat="44.759" lon="1.18291">
        <ele>78.4</ele>
        <time>2022-08-12T17:11:54Z</time>
      </trkpt>
      <trkpt lat="44.75896" lon="1.18298">
        <ele>79.4</ele>
        <time>2022-08-12T17:11:56Z</time>
      </trkpt>
      <trkpt lat="44.75891" lon="1.18305">
        <ele>79.4</ele>
        <time>2022-08-12T17:11:58Z</time>
      </trkpt>
      <trkpt lat="44.75886" lon="1.18314">
        <ele>81.4</ele>
        <time>2022-08-12T17:12:00Z</time>
      </trkpt>
      <trkpt lat="44.75882" lon="1.18325">
        <ele>83.4</ele>
        <time>2022-08-12T17:12:02Z</time>
      </trkpt>
      <trkpt lat="44.7588" lon="1.18331">
        <ele>84.4</ele>
        <time>2022-08-12T17:12:03Z</time>
      </trkpt>
      <trkpt lat="44.75878" lon="1.18338">
        <ele>84.4</ele>
        <time>2022-08-12T17:12:04Z</time>
      </trkpt>
      <trkpt lat="44.75876" lon="1.18343">
        <ele>84.4</ele>
        <time>2022-08-12T17:12:05Z</time>
      </trkpt>
      <trkpt lat="44.75873" lon="1.18349">
        <ele>84.4</ele>
        <time>2022-08-12T17:12:06Z</time>
      </trkpt>
      <trkpt lat="44.7587" lon="1.18355">
        <ele>84.4</ele>
        <time>2022-08-12T17:12:07Z</time>
      </trkpt>
      <trkpt lat="44.75868" lon="1.18361">
        <ele>84.4</ele>
        <time>2022-08-12T17:12:08Z</time>
      </trkpt>
      <trkpt lat="44.75865" lon="1.18367">
        <ele>84.4</ele>
        <time>2022-08-12T17:12:09Z</time>
      </trkpt>
      <trkpt lat="44.75861" lon="1.18372">
        <ele>84.4</ele>
        <time>2022-08-12T17:12:10Z</time>
      </trkpt>
      <trkpt lat="44.75858" lon="1.18377">
        <ele>84.4</ele>
        <time>2022-08-12T17:12:11Z</time>
      </trkpt>
      <trkpt lat="44.75853" lon="1.18386">
        <ele>84.4</ele>
        <time>2022-08-12T17:12:13Z</time>
      </trkpt>
      <trkpt lat="44.75848" lon="1.18395">
        <ele>85.4</ele>
        <time>2022-08-12T17:12:15Z</time>
      </trkpt>
      <trkpt lat="44.75844" lon="1.18403">
        <ele>84.4</ele>
        <time>2022-08-12T17:12:17Z</time>
      </trkpt>
      <trkpt lat="44.75839" lon="1.1841">
        <ele>84.4</ele>
        <time>2022-08-12T17:12:19Z</time>
      </trkpt>
      <trkpt lat="44.75834" lon="1.18419">
        <ele>84.4</ele>
        <time>2022-08-12T17:12:21Z</time>
      </trkpt>
      <trkpt lat="44.7583" lon="1.18427">
        <ele>85.4</ele>
        <time>2022-08-12T17:12:23Z</time>
      </trkpt>
      <trkpt lat="44.75828" lon="1.18436">
        <ele>85.4</ele>
        <time>2022-08-12T17:12:25Z</time>
      </trkpt>
      <trkpt lat="44.75827" lon="1.18448">
        <ele>85.4</ele>
        <time>2022-08-12T17:12:27Z</time>
      </trkpt>
      <trkpt lat="44.75827" lon="1.18454">
        <ele>85.4</ele>
        <time>2022-08-12T17:12:28Z</time>
      </trkpt>
      <trkpt lat="44.75828" lon="1.18461">
        <ele>84.4</ele>
        <time>2022-08-12T17:12:29Z</time>
      </trkpt>
      <trkpt lat="44.75829" lon="1.18473">
        <ele>84.4</ele>
        <time>2022-08-12T17:12:31Z</time>
      </trkpt>
      <trkpt lat="44.75829" lon="1.18486">
        <ele>85.4</ele>
        <time>2022-08-12T17:12:33Z</time>
      </trkpt>
      <trkpt lat="44.75829" lon="1.18497">
        <ele>85.4</ele>
        <time>2022-08-12T17:12:35Z</time>
      </trkpt>
      <trkpt lat="44.75828" lon="1.18509">
        <ele>86.4</ele>
        <time>2022-08-12T17:12:37Z</time>
      </trkpt>
      <trkpt lat="44.75827" lon="1.18521">
        <ele>86.4</ele>
        <time>2022-08-12T17:12:39Z</time>
      </trkpt>
      <trkpt lat="44.75827" lon="1.18527">
        <ele>86.4</ele>
        <time>2022-08-12T17:12:40Z</time>
      </trkpt>
      <trkpt lat="44.75826" lon="1.18534">
        <ele>86.4</ele>
        <time>2022-08-12T17:12:41Z</time>
      </trkpt>
      <trkpt lat="44.75825" lon="1.1854">
        <ele>86.4</ele>
        <time>2022-08-12T17:12:42Z</time>
      </trkpt>
      <trkpt lat="44.75824" lon="1.18547">
        <ele>86.4</ele>
        <time>2022-08-12T17:12:43Z</time>
      </trkpt>
      <trkpt lat="44.75823" lon="1.18553">
        <ele>86.4</ele>
        <time>2022-08-12T17:12:44Z</time>
      </trkpt>
      <trkpt lat="44.75823" lon="1.1856">
        <ele>86.4</ele>
        <time>2022-08-12T17:12:45Z</time>
      </trkpt>
      <trkpt lat="44.75823" lon="1.18567">
        <ele>86.4</ele>
        <time>2022-08-12T17:12:46Z</time>
      </trkpt>
      <trkpt lat="44.75822" lon="1.18574">
        <ele>86.4</ele>
        <time>2022-08-12T17:12:47Z</time>
      </trkpt>
      <trkpt lat="44.75822" lon="1.1858">
        <ele>86.4</ele>
        <time>2022-08-12T17:12:48Z</time>
      </trkpt>
      <trkpt lat="44.75821" lon="1.18587">
        <ele>86.4</ele>
        <time>2022-08-12T17:12:49Z</time>
      </trkpt>
      <trkpt lat="44.7582" lon="1.18594">
        <ele>86.4</ele>
        <time>2022-08-12T17:12:50Z</time>
      </trkpt>
      <trkpt lat="44.75819" lon="1.18606">
        <ele>86.4</ele>
        <time>2022-08-12T17:12:52Z</time>
      </trkpt>
      <trkpt lat="44.75818" lon="1.18618">
        <ele>86.4</ele>
        <time>2022-08-12T17:12:54Z</time>
      </trkpt>
      <trkpt lat="44.75818" lon="1.18624">
        <ele>86.4</ele>
        <time>2022-08-12T17:12:55Z</time>
      </trkpt>
      <trkpt lat="44.75817" lon="1.18637">
        <ele>87.4</ele>
        <time>2022-08-12T17:12:57Z</time>
      </trkpt>
      <trkpt lat="44.75816" lon="1.1865">
        <ele>87.4</ele>
        <time>2022-08-12T17:12:59Z</time>
      </trkpt>
      <trkpt lat="44.75815" lon="1.18657">
        <ele>87.4</ele>
        <time>2022-08-12T17:13:00Z</time>
      </trkpt>
      <trkpt lat="44.75815" lon="1.18664">
        <ele>87.4</ele>
        <time>2022-08-12T17:13:01Z</time>
      </trkpt>
      <trkpt lat="44.75814" lon="1.18671">
        <ele>87.4</ele>
        <time>2022-08-12T17:13:02Z</time>
      </trkpt>
      <trkpt lat="44.75814" lon="1.18678">
        <ele>87.4</ele>
        <time>2022-08-12T17:13:03Z</time>
      </trkpt>
      <trkpt lat="44.75813" lon="1.18685">
        <ele>87.4</ele>
        <time>2022-08-12T17:13:04Z</time>
      </trkpt>
      <trkpt lat="44.75812" lon="1.18698">
        <ele>87.4</ele>
        <time>2022-08-12T17:13:06Z</time>
      </trkpt>
      <trkpt lat="44.75812" lon="1.18705">
        <ele>87.4</ele>
        <time>2022-08-12T17:13:07Z</time>
      </trkpt>
      <trkpt lat="44.75811" lon="1.18711">
        <ele>87.4</ele>
        <time>2022-08-12T17:13:08Z</time>
      </trkpt>
      <trkpt lat="44.7581" lon="1.18724">
        <ele>87.4</ele>
        <time>2022-08-12T17:13:10Z</time>
      </trkpt>
      <trkpt lat="44.75811" lon="1.18735">
        <ele>87.4</ele>
        <time>2022-08-12T17:13:12Z</time>
      </trkpt>
      <trkpt lat="44.75809" lon="1.18745">
        <ele>87.4</ele>
        <time>2022-08-12T17:13:14Z</time>
      </trkpt>
      <trkpt lat="44.75801" lon="1.18747">
        <ele>88.4</ele>
        <time>2022-08-12T17:13:16Z</time>
      </trkpt>
      <trkpt lat="44.75793" lon="1.18745">
        <ele>87.4</ele>
        <time>2022-08-12T17:13:18Z</time>
      </trkpt>
      <trkpt lat="44.75789" lon="1.18743">
        <ele>87.4</ele>
        <time>2022-08-12T17:13:19Z</time>
      </trkpt>
      <trkpt lat="44.75784" lon="1.18742">
        <ele>88.4</ele>
        <time>2022-08-12T17:13:20Z</time>
      </trkpt>
      <trkpt lat="44.75779" lon="1.18742">
        <ele>88.4</ele>
        <time>2022-08-12T17:13:21Z</time>
      </trkpt>
      <trkpt lat="44.75774" lon="1.18741">
        <ele>88.4</ele>
        <time>2022-08-12T17:13:22Z</time>
      </trkpt>
      <trkpt lat="44.75769" lon="1.1874">
        <ele>88.4</ele>
        <time>2022-08-12T17:13:23Z</time>
      </trkpt>
      <trkpt lat="44.75764" lon="1.1874">
        <ele>88.4</ele>
        <time>2022-08-12T17:13:24Z</time>
      </trkpt>
      <trkpt lat="44.75759" lon="1.18739">
        <ele>88.4</ele>
        <time>2022-08-12T17:13:25Z</time>
      </trkpt>
      <trkpt lat="44.75754" lon="1.18738">
        <ele>87.4</ele>
        <time>2022-08-12T17:13:26Z</time>
      </trkpt>
      <trkpt lat="44.7575" lon="1.18738">
        <ele>87.4</ele>
        <time>2022-08-12T17:13:27Z</time>
      </trkpt>
      <trkpt lat="44.75741" lon="1.18737">
        <ele>87.4</ele>
        <time>2022-08-12T17:13:29Z</time>
      </trkpt>
      <trkpt lat="44.75732" lon="1.18736">
        <ele>86.4</ele>
        <time>2022-08-12T17:13:31Z</time>
      </trkpt>
      <trkpt lat="44.75724" lon="1.18736">
        <ele>85.4</ele>
        <time>2022-08-12T17:13:33Z</time>
      </trkpt>
      <trkpt lat="44.75715" lon="1.18738">
        <ele>85.4</ele>
        <time>2022-08-12T17:13:35Z</time>
      </trkpt>
      <trkpt lat="44.75708" lon="1.18742">
        <ele>84.4</ele>
        <time>2022-08-12T17:13:37Z</time>
      </trkpt>
      <trkpt lat="44.75703" lon="1.1875">
        <ele>84.4</ele>
        <time>2022-08-12T17:13:39Z</time>
      </trkpt>
      <trkpt lat="44.75701" lon="1.1876">
        <ele>83.4</ele>
        <time>2022-08-12T17:13:41Z</time>
      </trkpt>
      <trkpt lat="44.75702" lon="1.1877">
        <ele>83.4</ele>
        <time>2022-08-12T17:13:43Z</time>
      </trkpt>
      <trkpt lat="44.75704" lon="1.18778">
        <ele>82.4</ele>
        <time>2022-08-12T17:13:45Z</time>
      </trkpt>
      <trkpt lat="44.75706" lon="1.18785">
        <ele>82.4</ele>
        <time>2022-08-12T17:13:47Z</time>
      </trkpt>
      <trkpt lat="44.75709" lon="1.18793">
        <ele>82.4</ele>
        <time>2022-08-12T17:13:49Z</time>
      </trkpt>
      <trkpt lat="44.75712" lon="1.18801">
        <ele>81.4</ele>
        <time>2022-08-12T17:13:51Z</time>
      </trkpt>
      <trkpt lat="44.75714" lon="1.18808">
        <ele>81.4</ele>
        <time>2022-08-12T17:13:53Z</time>
      </trkpt>
      <trkpt lat="44.75715" lon="1.18816">
        <ele>81.4</ele>
        <time>2022-08-12T17:13:55Z</time>
      </trkpt>
      <trkpt lat="44.75714" lon="1.18825">
        <ele>80.4</ele>
        <time>2022-08-12T17:13:57Z</time>
      </trkpt>
      <trkpt lat="44.75713" lon="1.18832">
        <ele>80.4</ele>
        <time>2022-08-12T17:13:59Z</time>
      </trkpt>
      <trkpt lat="44.75713" lon="1.1884">
        <ele>79.4</ele>
        <time>2022-08-12T17:14:01Z</time>
      </trkpt>
      <trkpt lat="44.75713" lon="1.18847">
        <ele>79.4</ele>
        <time>2022-08-12T17:14:03Z</time>
      </trkpt>
      <trkpt lat="44.75712" lon="1.18856">
        <ele>79.4</ele>
        <time>2022-08-12T17:14:05Z</time>
      </trkpt>
      <trkpt lat="44.75711" lon="1.18865">
        <ele>79.4</ele>
        <time>2022-08-12T17:14:07Z</time>
      </trkpt>
      <trkpt lat="44.75711" lon="1.18875">
        <ele>78.4</ele>
        <time>2022-08-12T17:14:09Z</time>
      </trkpt>
      <trkpt lat="44.75712" lon="1.18886">
        <ele>78.4</ele>
        <time>2022-08-12T17:14:11Z</time>
      </trkpt>
      <trkpt lat="44.75712" lon="1.18893">
        <ele>77.4</ele>
        <time>2022-08-12T17:14:12Z</time>
      </trkpt>
      <trkpt lat="44.75712" lon="1.189">
        <ele>77.4</ele>
        <time>2022-08-12T17:14:13Z</time>
      </trkpt>
      <trkpt lat="44.75712" lon="1.1891">
        <ele>76.4</ele>
        <time>2022-08-12T17:14:15Z</time>
      </trkpt>
      <trkpt lat="44.75713" lon="1.1892">
        <ele>76.4</ele>
        <time>2022-08-12T17:14:17Z</time>
      </trkpt>
      <trkpt lat="44.75713" lon="1.18928">
        <ele>76.4</ele>
        <time>2022-08-12T17:14:19Z</time>
      </trkpt>
      <trkpt lat="44.75713" lon="1.18934">
        <ele>75.4</ele>
        <time>2022-08-12T17:14:21Z</time>
      </trkpt>
      <trkpt lat="44.75713" lon="1.18942">
        <ele>75.4</ele>
        <time>2022-08-12T17:14:23Z</time>
      </trkpt>
      <trkpt lat="44.75713" lon="1.18953">
        <ele>76.4</ele>
        <time>2022-08-12T17:14:25Z</time>
      </trkpt>
      <trkpt lat="44.75712" lon="1.18962">
        <ele>76.4</ele>
        <time>2022-08-12T17:14:27Z</time>
      </trkpt>
      <trkpt lat="44.7571" lon="1.18971">
        <ele>76.4</ele>
        <time>2022-08-12T17:14:29Z</time>
      </trkpt>
      <trkpt lat="44.75709" lon="1.18979">
        <ele>77.4</ele>
        <time>2022-08-12T17:14:32Z</time>
      </trkpt>
      <trkpt lat="44.75704" lon="1.18992">
        <ele>78.4</ele>
        <time>2022-08-12T17:14:34Z</time>
      </trkpt>
      <trkpt lat="44.75702" lon="1.19001">
        <ele>78.4</ele>
        <time>2022-08-12T17:14:36Z</time>
      </trkpt>
      <trkpt lat="44.75699" lon="1.19013">
        <ele>76.4</ele>
        <time>2022-08-12T17:14:38Z</time>
      </trkpt>
      <trkpt lat="44.75699" lon="1.1902">
        <ele>76.4</ele>
        <time>2022-08-12T17:14:39Z</time>
      </trkpt>
      <trkpt lat="44.75698" lon="1.19026">
        <ele>75.4</ele>
        <time>2022-08-12T17:14:41Z</time>
      </trkpt>
      <trkpt lat="44.75697" lon="1.19033">
        <ele>76.4</ele>
        <time>2022-08-12T17:14:41Z</time>
      </trkpt>
      <trkpt lat="44.75695" lon="1.19045">
        <ele>75.4</ele>
        <time>2022-08-12T17:14:43Z</time>
      </trkpt>
      <trkpt lat="44.75695" lon="1.19052">
        <ele>74.4</ele>
        <time>2022-08-12T17:14:44Z</time>
      </trkpt>
      <trkpt lat="44.75696" lon="1.19064">
        <ele>74.4</ele>
        <time>2022-08-12T17:14:46Z</time>
      </trkpt>
      <trkpt lat="44.75697" lon="1.19071">
        <ele>74.4</ele>
        <time>2022-08-12T17:14:47Z</time>
      </trkpt>
      <trkpt lat="44.75698" lon="1.19077">
        <ele>74.4</ele>
        <time>2022-08-12T17:14:48Z</time>
      </trkpt>
      <trkpt lat="44.75699" lon="1.19083">
        <ele>74.4</ele>
        <time>2022-08-12T17:14:49Z</time>
      </trkpt>
      <trkpt lat="44.757" lon="1.1909">
        <ele>74.4</ele>
        <time>2022-08-12T17:14:50Z</time>
      </trkpt>
      <trkpt lat="44.75702" lon="1.19102">
        <ele>76.4</ele>
        <time>2022-08-12T17:14:52Z</time>
      </trkpt>
      <trkpt lat="44.75705" lon="1.19113">
        <ele>76.4</ele>
        <time>2022-08-12T17:14:54Z</time>
      </trkpt>
      <trkpt lat="44.75707" lon="1.19125">
        <ele>77.4</ele>
        <time>2022-08-12T17:14:56Z</time>
      </trkpt>
      <trkpt lat="44.75708" lon="1.19137">
        <ele>77.4</ele>
        <time>2022-08-12T17:14:58Z</time>
      </trkpt>
      <trkpt lat="44.75708" lon="1.19148">
        <ele>76.4</ele>
        <time>2022-08-12T17:15:00Z</time>
      </trkpt>
      <trkpt lat="44.75709" lon="1.19159">
        <ele>76.4</ele>
        <time>2022-08-12T17:15:02Z</time>
      </trkpt>
      <trkpt lat="44.75709" lon="1.19165">
        <ele>76.4</ele>
        <time>2022-08-12T17:15:03Z</time>
      </trkpt>
      <trkpt lat="44.7571" lon="1.19177">
        <ele>76.4</ele>
        <time>2022-08-12T17:15:06Z</time>
      </trkpt>
      <trkpt lat="44.75711" lon="1.1919">
        <ele>77.4</ele>
        <time>2022-08-12T17:15:08Z</time>
      </trkpt>
      <trkpt lat="44.75713" lon="1.19202">
        <ele>77.4</ele>
        <time>2022-08-12T17:15:09Z</time>
      </trkpt>
      <trkpt lat="44.75715" lon="1.1921">
        <ele>77.4</ele>
        <time>2022-08-12T17:15:12Z</time>
      </trkpt>
      <trkpt lat="44.75716" lon="1.19218">
        <ele>77.4</ele>
        <time>2022-08-12T17:15:13Z</time>
      </trkpt>
      <trkpt lat="44.75717" lon="1.19226">
        <ele>77.4</ele>
        <time>2022-08-12T17:15:15Z</time>
      </trkpt>
      <trkpt lat="44.7572" lon="1.19235">
        <ele>77.4</ele>
        <time>2022-08-12T17:15:18Z</time>
      </trkpt>
      <trkpt lat="44.75724" lon="1.19244">
        <ele>77.4</ele>
        <time>2022-08-12T17:15:19Z</time>
      </trkpt>
      <trkpt lat="44.75728" lon="1.19255">
        <ele>76.4</ele>
        <time>2022-08-12T17:15:21Z</time>
      </trkpt>
      <trkpt lat="44.75732" lon="1.19266">
        <ele>76.4</ele>
        <time>2022-08-12T17:15:23Z</time>
      </trkpt>
      <trkpt lat="44.75735" lon="1.19277">
        <ele>76.4</ele>
        <time>2022-08-12T17:15:25Z</time>
      </trkpt>
      <trkpt lat="44.75736" lon="1.19288">
        <ele>75.4</ele>
        <time>2022-08-12T17:15:27Z</time>
      </trkpt>
      <trkpt lat="44.75736" lon="1.19298">
        <ele>75.4</ele>
        <time>2022-08-12T17:15:29Z</time>
      </trkpt>
      <trkpt lat="44.75734" lon="1.19308">
        <ele>76.4</ele>
        <time>2022-08-12T17:15:31Z</time>
      </trkpt>
      <trkpt lat="44.75732" lon="1.19316">
        <ele>77.4</ele>
        <time>2022-08-12T17:15:33Z</time>
      </trkpt>
      <trkpt lat="44.7573" lon="1.19324">
        <ele>77.4</ele>
        <time>2022-08-12T17:15:35Z</time>
      </trkpt>
      <trkpt lat="44.75728" lon="1.19331">
        <ele>77.4</ele>
        <time>2022-08-12T17:15:37Z</time>
      </trkpt>
      <trkpt lat="44.75725" lon="1.19338">
        <ele>78.4</ele>
        <time>2022-08-12T17:15:40Z</time>
      </trkpt>
      <trkpt lat="44.75721" lon="1.19345">
        <ele>78.4</ele>
        <time>2022-08-12T17:15:41Z</time>
      </trkpt>
      <trkpt lat="44.75717" lon="1.19352">
        <ele>78.4</ele>
        <time>2022-08-12T17:15:43Z</time>
      </trkpt>
      <trkpt lat="44.75713" lon="1.19357">
        <ele>78.4</ele>
        <time>2022-08-12T17:15:45Z</time>
      </trkpt>
      <trkpt lat="44.7571" lon="1.19363">
        <ele>78.4</ele>
        <time>2022-08-12T17:15:47Z</time>
      </trkpt>
      <trkpt lat="44.75708" lon="1.19371">
        <ele>79.4</ele>
        <time>2022-08-12T17:15:49Z</time>
      </trkpt>
      <trkpt lat="44.75705" lon="1.19379">
        <ele>79.4</ele>
        <time>2022-08-12T17:15:51Z</time>
      </trkpt>
      <trkpt lat="44.75702" lon="1.19386">
        <ele>80.4</ele>
        <time>2022-08-12T17:15:53Z</time>
      </trkpt>
      <trkpt lat="44.75699" lon="1.19393">
        <ele>80.4</ele>
        <time>2022-08-12T17:15:55Z</time>
      </trkpt>
      <trkpt lat="44.75695" lon="1.194">
        <ele>81.4</ele>
        <time>2022-08-12T17:15:57Z</time>
      </trkpt>
      <trkpt lat="44.75692" lon="1.1941">
        <ele>82.4</ele>
        <time>2022-08-12T17:15:59Z</time>
      </trkpt>
      <trkpt lat="44.75687" lon="1.19421">
        <ele>85.4</ele>
        <time>2022-08-12T17:16:01Z</time>
      </trkpt>
      <trkpt lat="44.75685" lon="1.1943">
        <ele>86.4</ele>
        <time>2022-08-12T17:16:03Z</time>
      </trkpt>
      <trkpt lat="44.75682" lon="1.19438">
        <ele>87.4</ele>
        <time>2022-08-12T17:16:05Z</time>
      </trkpt>
      <trkpt lat="44.75679" lon="1.19446">
        <ele>88.4</ele>
        <time>2022-08-12T17:16:08Z</time>
      </trkpt>
      <trkpt lat="44.75677" lon="1.19453">
        <ele>89.4</ele>
        <time>2022-08-12T17:16:09Z</time>
      </trkpt>
      <trkpt lat="44.75674" lon="1.19462">
        <ele>90.4</ele>
        <time>2022-08-12T17:16:11Z</time>
      </trkpt>
      <trkpt lat="44.75669" lon="1.19471">
        <ele>92.4</ele>
        <time>2022-08-12T17:16:13Z</time>
      </trkpt>
      <trkpt lat="44.75666" lon="1.19477">
        <ele>93.4</ele>
        <time>2022-08-12T17:16:14Z</time>
      </trkpt>
      <trkpt lat="44.75664" lon="1.19484">
        <ele>94.4</ele>
        <time>2022-08-12T17:16:15Z</time>
      </trkpt>
      <trkpt lat="44.75662" lon="1.1949">
        <ele>95.4</ele>
        <time>2022-08-12T17:16:17Z</time>
      </trkpt>
      <trkpt lat="44.75659" lon="1.19496">
        <ele>96.4</ele>
        <time>2022-08-12T17:16:17Z</time>
      </trkpt>
      <trkpt lat="44.75657" lon="1.19503">
        <ele>97.4</ele>
        <time>2022-08-12T17:16:18Z</time>
      </trkpt>
      <trkpt lat="44.75655" lon="1.19509">
        <ele>98.4</ele>
        <time>2022-08-12T17:16:19Z</time>
      </trkpt>
      <trkpt lat="44.75653" lon="1.19516">
        <ele>98.4</ele>
        <time>2022-08-12T17:16:20Z</time>
      </trkpt>
      <trkpt lat="44.75651" lon="1.19522">
        <ele>99.4</ele>
        <time>2022-08-12T17:16:21Z</time>
      </trkpt>
      <trkpt lat="44.75648" lon="1.19527">
        <ele>99.4</ele>
        <time>2022-08-12T17:16:22Z</time>
      </trkpt>
      <trkpt lat="44.75646" lon="1.19533">
        <ele>99.4</ele>
        <time>2022-08-12T17:16:23Z</time>
      </trkpt>
      <trkpt lat="44.75644" lon="1.19539">
        <ele>99.4</ele>
        <time>2022-08-12T17:16:24Z</time>
      </trkpt>
      <trkpt lat="44.75641" lon="1.19551">
        <ele>100.4</ele>
        <time>2022-08-12T17:16:26Z</time>
      </trkpt>
      <trkpt lat="44.75639" lon="1.19558">
        <ele>100.4</ele>
        <time>2022-08-12T17:16:27Z</time>
      </trkpt>
      <trkpt lat="44.75637" lon="1.1957">
        <ele>100.4</ele>
        <time>2022-08-12T17:16:29Z</time>
      </trkpt>
      <trkpt lat="44.75636" lon="1.19576">
        <ele>100.4</ele>
        <time>2022-08-12T17:16:30Z</time>
      </trkpt>
      <trkpt lat="44.75634" lon="1.19588">
        <ele>100.4</ele>
        <time>2022-08-12T17:16:32Z</time>
      </trkpt>
      <trkpt lat="44.7563" lon="1.19596">
        <ele>99.4</ele>
        <time>2022-08-12T17:16:34Z</time>
      </trkpt>
      <trkpt lat="44.75629" lon="1.19604">
        <ele>99.4</ele>
        <time>2022-08-12T17:16:36Z</time>
      </trkpt>
      <trkpt lat="44.75628" lon="1.19613">
        <ele>99.4</ele>
        <time>2022-08-12T17:16:38Z</time>
      </trkpt>
      <trkpt lat="44.75627" lon="1.19622">
        <ele>99.4</ele>
        <time>2022-08-12T17:16:40Z</time>
      </trkpt>
      <trkpt lat="44.75625" lon="1.19631">
        <ele>99.4</ele>
        <time>2022-08-12T17:16:42Z</time>
      </trkpt>
      <trkpt lat="44.75624" lon="1.1964">
        <ele>99.4</ele>
        <time>2022-08-12T17:16:44Z</time>
      </trkpt>
      <trkpt lat="44.75622" lon="1.19649">
        <ele>99.4</ele>
        <time>2022-08-12T17:16:46Z</time>
      </trkpt>
      <trkpt lat="44.75621" lon="1.19659">
        <ele>98.4</ele>
        <time>2022-08-12T17:16:48Z</time>
      </trkpt>
      <trkpt lat="44.7562" lon="1.19668">
        <ele>98.4</ele>
        <time>2022-08-12T17:16:50Z</time>
      </trkpt>
      <trkpt lat="44.75618" lon="1.19678">
        <ele>98.4</ele>
        <time>2022-08-12T17:16:53Z</time>
      </trkpt>
      <trkpt lat="44.75618" lon="1.19689">
        <ele>97.4</ele>
        <time>2022-08-12T17:16:54Z</time>
      </trkpt>
      <trkpt lat="44.75617" lon="1.197">
        <ele>96.4</ele>
        <time>2022-08-12T17:16:56Z</time>
      </trkpt>
      <trkpt lat="44.75615" lon="1.1971">
        <ele>95.4</ele>
        <time>2022-08-12T17:16:58Z</time>
      </trkpt>
      <trkpt lat="44.75614" lon="1.19716">
        <ele>95.4</ele>
        <time>2022-08-12T17:16:59Z</time>
      </trkpt>
      <trkpt lat="44.75614" lon="1.19723">
        <ele>94.4</ele>
        <time>2022-08-12T17:17:00Z</time>
      </trkpt>
      <trkpt lat="44.75614" lon="1.19731">
        <ele>93.4</ele>
        <time>2022-08-12T17:17:01Z</time>
      </trkpt>
      <trkpt lat="44.75614" lon="1.19738">
        <ele>93.4</ele>
        <time>2022-08-12T17:17:02Z</time>
      </trkpt>
      <trkpt lat="44.75613" lon="1.19745">
        <ele>92.4</ele>
        <time>2022-08-12T17:17:03Z</time>
      </trkpt>
      <trkpt lat="44.75612" lon="1.19752">
        <ele>92.4</ele>
        <time>2022-08-12T17:17:04Z</time>
      </trkpt>
      <trkpt lat="44.75611" lon="1.19758">
        <ele>92.4</ele>
        <time>2022-08-12T17:17:05Z</time>
      </trkpt>
      <trkpt lat="44.7561" lon="1.1977">
        <ele>91.4</ele>
        <time>2022-08-12T17:17:07Z</time>
      </trkpt>
      <trkpt lat="44.75607" lon="1.19778">
        <ele>91.4</ele>
        <time>2022-08-12T17:17:09Z</time>
      </trkpt>
      <trkpt lat="44.75603" lon="1.19785">
        <ele>91.4</ele>
        <time>2022-08-12T17:17:11Z</time>
      </trkpt>
      <trkpt lat="44.75598" lon="1.1979">
        <ele>92.4</ele>
        <time>2022-08-12T17:17:14Z</time>
      </trkpt>
      <trkpt lat="44.75601" lon="1.19782">
        <ele>92.4</ele>
        <time>2022-08-12T17:18:15Z</time>
      </trkpt>
      <trkpt lat="44.75603" lon="1.19774">
        <ele>92.4</ele>
        <time>2022-08-12T17:18:17Z</time>
      </trkpt>
      <trkpt lat="44.75602" lon="1.19767">
        <ele>92.4</ele>
        <time>2022-08-12T17:18:19Z</time>
      </trkpt>
      <trkpt lat="44.75597" lon="1.19759">
        <ele>93.4</ele>
        <time>2022-08-12T17:18:21Z</time>
      </trkpt>
      <trkpt lat="44.75594" lon="1.19754">
        <ele>93.4</ele>
        <time>2022-08-12T17:18:22Z</time>
      </trkpt>
      <trkpt lat="44.7559" lon="1.1975">
        <ele>94.4</ele>
        <time>2022-08-12T17:18:23Z</time>
      </trkpt>
      <trkpt lat="44.75582" lon="1.19744">
        <ele>95.4</ele>
        <time>2022-08-12T17:18:25Z</time>
      </trkpt>
      <trkpt lat="44.75575" lon="1.19739">
        <ele>95.4</ele>
        <time>2022-08-12T17:18:27Z</time>
      </trkpt>
      <trkpt lat="44.75567" lon="1.19736">
        <ele>95.4</ele>
        <time>2022-08-12T17:18:29Z</time>
      </trkpt>
      <trkpt lat="44.75559" lon="1.19733">
        <ele>94.4</ele>
        <time>2022-08-12T17:18:31Z</time>
      </trkpt>
      <trkpt lat="44.75554" lon="1.19733">
        <ele>94.4</ele>
        <time>2022-08-12T17:18:32Z</time>
      </trkpt>
      <trkpt lat="44.75548" lon="1.19733">
        <ele>93.4</ele>
        <time>2022-08-12T17:18:33Z</time>
      </trkpt>
      <trkpt lat="44.75543" lon="1.19732">
        <ele>93.4</ele>
        <time>2022-08-12T17:18:34Z</time>
      </trkpt>
      <trkpt lat="44.75537" lon="1.19731">
        <ele>93.4</ele>
        <time>2022-08-12T17:18:35Z</time>
      </trkpt>
      <trkpt lat="44.75531" lon="1.1973">
        <ele>93.4</ele>
        <time>2022-08-12T17:18:36Z</time>
      </trkpt>
      <trkpt lat="44.75525" lon="1.19729">
        <ele>92.4</ele>
        <time>2022-08-12T17:18:37Z</time>
      </trkpt>
      <trkpt lat="44.75519" lon="1.19728">
        <ele>91.4</ele>
        <time>2022-08-12T17:18:38Z</time>
      </trkpt>
      <trkpt lat="44.75513" lon="1.19727">
        <ele>90.4</ele>
        <time>2022-08-12T17:18:39Z</time>
      </trkpt>
      <trkpt lat="44.75507" lon="1.19726">
        <ele>90.4</ele>
        <time>2022-08-12T17:18:40Z</time>
      </trkpt>
      <trkpt lat="44.75502" lon="1.19726">
        <ele>90.4</ele>
        <time>2022-08-12T17:18:41Z</time>
      </trkpt>
      <trkpt lat="44.75496" lon="1.19726">
        <ele>89.4</ele>
        <time>2022-08-12T17:18:42Z</time>
      </trkpt>
      <trkpt lat="44.75491" lon="1.19727">
        <ele>89.4</ele>
        <time>2022-08-12T17:18:43Z</time>
      </trkpt>
      <trkpt lat="44.75487" lon="1.19729">
        <ele>90.4</ele>
        <time>2022-08-12T17:18:44Z</time>
      </trkpt>
      <trkpt lat="44.75479" lon="1.19732">
        <ele>90.4</ele>
        <time>2022-08-12T17:18:46Z</time>
      </trkpt>
      <trkpt lat="44.75471" lon="1.19737">
        <ele>89.4</ele>
        <time>2022-08-12T17:18:48Z</time>
      </trkpt>
      <trkpt lat="44.75464" lon="1.19743">
        <ele>88.4</ele>
        <time>2022-08-12T17:18:50Z</time>
      </trkpt>
      <trkpt lat="44.75458" lon="1.19748">
        <ele>86.4</ele>
        <time>2022-08-12T17:18:52Z</time>
      </trkpt>
      <trkpt lat="44.75452" lon="1.19754">
        <ele>85.4</ele>
        <time>2022-08-12T17:18:54Z</time>
      </trkpt>
      <trkpt lat="44.75446" lon="1.19758">
        <ele>85.4</ele>
        <time>2022-08-12T17:18:56Z</time>
      </trkpt>
      <trkpt lat="44.7544" lon="1.19762">
        <ele>85.4</ele>
        <time>2022-08-12T17:18:58Z</time>
      </trkpt>
      <trkpt lat="44.75432" lon="1.19767">
        <ele>85.4</ele>
        <time>2022-08-12T17:19:00Z</time>
      </trkpt>
      <trkpt lat="44.75428" lon="1.1977">
        <ele>84.4</ele>
        <time>2022-08-12T17:19:01Z</time>
      </trkpt>
      <trkpt lat="44.75424" lon="1.19773">
        <ele>84.4</ele>
        <time>2022-08-12T17:19:02Z</time>
      </trkpt>
      <trkpt lat="44.7542" lon="1.19775">
        <ele>84.4</ele>
        <time>2022-08-12T17:19:03Z</time>
      </trkpt>
      <trkpt lat="44.75414" lon="1.19776">
        <ele>84.4</ele>
        <time>2022-08-12T17:19:04Z</time>
      </trkpt>
      <trkpt lat="44.75409" lon="1.19777">
        <ele>85.4</ele>
        <time>2022-08-12T17:19:05Z</time>
      </trkpt>
      <trkpt lat="44.75404" lon="1.19778">
        <ele>85.4</ele>
        <time>2022-08-12T17:19:06Z</time>
      </trkpt>
      <trkpt lat="44.75399" lon="1.19779">
        <ele>84.4</ele>
        <time>2022-08-12T17:19:08Z</time>
      </trkpt>
      <trkpt lat="44.75394" lon="1.19779">
        <ele>84.4</ele>
        <time>2022-08-12T17:19:08Z</time>
      </trkpt>
      <trkpt lat="44.75389" lon="1.19778">
        <ele>84.4</ele>
        <time>2022-08-12T17:19:09Z</time>
      </trkpt>
      <trkpt lat="44.75383" lon="1.19778">
        <ele>84.4</ele>
        <time>2022-08-12T17:19:11Z</time>
      </trkpt>
      <trkpt lat="44.75378" lon="1.19778">
        <ele>84.4</ele>
        <time>2022-08-12T17:19:11Z</time>
      </trkpt>
      <trkpt lat="44.75374" lon="1.19777">
        <ele>83.4</ele>
        <time>2022-08-12T17:19:12Z</time>
      </trkpt>
      <trkpt lat="44.75369" lon="1.19777">
        <ele>83.4</ele>
        <time>2022-08-12T17:19:13Z</time>
      </trkpt>
      <trkpt lat="44.75364" lon="1.19776">
        <ele>82.4</ele>
        <time>2022-08-12T17:19:14Z</time>
      </trkpt>
      <trkpt lat="44.75356" lon="1.19775">
        <ele>82.4</ele>
        <time>2022-08-12T17:19:16Z</time>
      </trkpt>
      <trkpt lat="44.75351" lon="1.19774">
        <ele>82.4</ele>
        <time>2022-08-12T17:19:17Z</time>
      </trkpt>
      <trkpt lat="44.75343" lon="1.19774">
        <ele>83.4</ele>
        <time>2022-08-12T17:19:19Z</time>
      </trkpt>
      <trkpt lat="44.75334" lon="1.1977">
        <ele>83.4</ele>
        <time>2022-08-12T17:19:21Z</time>
      </trkpt>
      <trkpt lat="44.7533" lon="1.19767">
        <ele>82.4</ele>
        <time>2022-08-12T17:19:22Z</time>
      </trkpt>
      <trkpt lat="44.75325" lon="1.19764">
        <ele>82.4</ele>
        <time>2022-08-12T17:19:23Z</time>
      </trkpt>
      <trkpt lat="44.7532" lon="1.19762">
        <ele>82.4</ele>
        <time>2022-08-12T17:19:24Z</time>
      </trkpt>
      <trkpt lat="44.75315" lon="1.1976">
        <ele>82.4</ele>
        <time>2022-08-12T17:19:25Z</time>
      </trkpt>
      <trkpt lat="44.75309" lon="1.1976">
        <ele>83.4</ele>
        <time>2022-08-12T17:19:26Z</time>
      </trkpt>
      <trkpt lat="44.75305" lon="1.19761">
        <ele>83.4</ele>
        <time>2022-08-12T17:19:27Z</time>
      </trkpt>
      <trkpt lat="44.753" lon="1.19762">
        <ele>83.4</ele>
        <time>2022-08-12T17:19:28Z</time>
      </trkpt>
      <trkpt lat="44.75292" lon="1.19765">
        <ele>83.4</ele>
        <time>2022-08-12T17:19:30Z</time>
      </trkpt>
      <trkpt lat="44.75283" lon="1.19767">
        <ele>83.4</ele>
        <time>2022-08-12T17:19:32Z</time>
      </trkpt>
      <trkpt lat="44.75275" lon="1.19767">
        <ele>83.4</ele>
        <time>2022-08-12T17:19:34Z</time>
      </trkpt>
      <trkpt lat="44.75268" lon="1.19767">
        <ele>83.4</ele>
        <time>2022-08-12T17:19:36Z</time>
      </trkpt>
      <trkpt lat="44.75261" lon="1.19768">
        <ele>83.4</ele>
        <time>2022-08-12T17:19:38Z</time>
      </trkpt>
      <trkpt lat="44.75253" lon="1.1977">
        <ele>83.4</ele>
        <time>2022-08-12T17:19:40Z</time>
      </trkpt>
      <trkpt lat="44.75246" lon="1.19772">
        <ele>82.4</ele>
        <time>2022-08-12T17:19:42Z</time>
      </trkpt>
      <trkpt lat="44.75238" lon="1.19774">
        <ele>81.4</ele>
        <time>2022-08-12T17:19:44Z</time>
      </trkpt>
      <trkpt lat="44.75233" lon="1.19776">
        <ele>81.4</ele>
        <time>2022-08-12T17:19:45Z</time>
      </trkpt>
      <trkpt lat="44.75225" lon="1.19778">
        <ele>80.4</ele>
        <time>2022-08-12T17:19:47Z</time>
      </trkpt>
      <trkpt lat="44.75217" lon="1.1978">
        <ele>80.4</ele>
        <time>2022-08-12T17:19:49Z</time>
      </trkpt>
      <trkpt lat="44.75209" lon="1.19783">
        <ele>80.4</ele>
        <time>2022-08-12T17:19:51Z</time>
      </trkpt>
      <trkpt lat="44.75201" lon="1.19786">
        <ele>80.4</ele>
        <time>2022-08-12T17:19:53Z</time>
      </trkpt>
      <trkpt lat="44.75194" lon="1.19787">
        <ele>80.4</ele>
        <time>2022-08-12T17:19:55Z</time>
      </trkpt>
      <trkpt lat="44.75187" lon="1.19791">
        <ele>80.4</ele>
        <time>2022-08-12T17:19:57Z</time>
      </trkpt>
      <trkpt lat="44.75179" lon="1.19795">
        <ele>80.4</ele>
        <time>2022-08-12T17:19:59Z</time>
      </trkpt>
      <trkpt lat="44.75172" lon="1.19798">
        <ele>79.4</ele>
        <time>2022-08-12T17:20:01Z</time>
      </trkpt>
      <trkpt lat="44.75165" lon="1.19799">
        <ele>79.4</ele>
        <time>2022-08-12T17:20:03Z</time>
      </trkpt>
      <trkpt lat="44.75158" lon="1.19799">
        <ele>78.4</ele>
        <time>2022-08-12T17:20:05Z</time>
      </trkpt>
      <trkpt lat="44.75152" lon="1.19799">
        <ele>78.4</ele>
        <time>2022-08-12T17:20:07Z</time>
      </trkpt>
      <trkpt lat="44.75144" lon="1.198">
        <ele>79.4</ele>
        <time>2022-08-12T17:20:09Z</time>
      </trkpt>
      <trkpt lat="44.75135" lon="1.19799">
        <ele>80.4</ele>
        <time>2022-08-12T17:20:11Z</time>
      </trkpt>
      <trkpt lat="44.75131" lon="1.19797">
        <ele>80.4</ele>
        <time>2022-08-12T17:20:12Z</time>
      </trkpt>
      <trkpt lat="44.75126" lon="1.19794">
        <ele>80.4</ele>
        <time>2022-08-12T17:20:13Z</time>
      </trkpt>
      <trkpt lat="44.75123" lon="1.1979">
        <ele>79.4</ele>
        <time>2022-08-12T17:20:14Z</time>
      </trkpt>
      <trkpt lat="44.75117" lon="1.19781">
        <ele>80.4</ele>
        <time>2022-08-12T17:20:17Z</time>
      </trkpt>
      <trkpt lat="44.75112" lon="1.19771">
        <ele>80.4</ele>
        <time>2022-08-12T17:20:18Z</time>
      </trkpt>
      <trkpt lat="44.75108" lon="1.19759">
        <ele>81.4</ele>
        <time>2022-08-12T17:20:20Z</time>
      </trkpt>
      <trkpt lat="44.75105" lon="1.19748">
        <ele>81.4</ele>
        <time>2022-08-12T17:20:22Z</time>
      </trkpt>
      <trkpt lat="44.75102" lon="1.19736">
        <ele>82.4</ele>
        <time>2022-08-12T17:20:24Z</time>
      </trkpt>
      <trkpt lat="44.75101" lon="1.1973">
        <ele>82.4</ele>
        <time>2022-08-12T17:20:25Z</time>
      </trkpt>
      <trkpt lat="44.75097" lon="1.19719">
        <ele>82.4</ele>
        <time>2022-08-12T17:20:27Z</time>
      </trkpt>
      <trkpt lat="44.75095" lon="1.19711">
        <ele>82.4</ele>
        <time>2022-08-12T17:20:29Z</time>
      </trkpt>
      <trkpt lat="44.75093" lon="1.19703">
        <ele>82.4</ele>
        <time>2022-08-12T17:20:31Z</time>
      </trkpt>
      <trkpt lat="44.7509" lon="1.19693">
        <ele>82.4</ele>
        <time>2022-08-12T17:20:33Z</time>
      </trkpt>
      <trkpt lat="44.75087" lon="1.19684">
        <ele>82.4</ele>
        <time>2022-08-12T17:20:35Z</time>
      </trkpt>
      <trkpt lat="44.75083" lon="1.19678">
        <ele>82.4</ele>
        <time>2022-08-12T17:20:37Z</time>
      </trkpt>
      <trkpt lat="44.75079" lon="1.19671">
        <ele>81.4</ele>
        <time>2022-08-12T17:20:39Z</time>
      </trkpt>
      <trkpt lat="44.75075" lon="1.19664">
        <ele>81.4</ele>
        <time>2022-08-12T17:20:41Z</time>
      </trkpt>
      <trkpt lat="44.75071" lon="1.19657">
        <ele>81.4</ele>
        <time>2022-08-12T17:20:43Z</time>
      </trkpt>
      <trkpt lat="44.75068" lon="1.1965">
        <ele>82.4</ele>
        <time>2022-08-12T17:20:45Z</time>
      </trkpt>
      <trkpt lat="44.75075" lon="1.19651">
        <ele>81.4</ele>
        <time>2022-08-12T17:20:54Z</time>
      </trkpt>
      <trkpt lat="44.7507" lon="1.19647">
        <ele>83.4</ele>
        <time>2022-08-12T17:21:06Z</time>
      </trkpt>
      <trkpt lat="44.75066" lon="1.19645">
        <ele>82.4</ele>
        <time>2022-08-12T17:21:28Z</time>
      </trkpt>
      <trkpt lat="44.75063" lon="1.19651">
        <ele>87.4</ele>
        <time>2022-08-12T17:22:14Z</time>
      </trkpt>
      <trkpt lat="44.75059" lon="1.19655">
        <ele>88.4</ele>
        <time>2022-08-12T17:22:18Z</time>
      </trkpt>
      <trkpt lat="44.7506" lon="1.19649">
        <ele>88.4</ele>
        <time>2022-08-12T17:24:12Z</time>
      </trkpt>
      <trkpt lat="44.7506" lon="1.19641">
        <ele>87.4</ele>
        <time>2022-08-12T17:24:17Z</time>
      </trkpt>
      <trkpt lat="44.75056" lon="1.19637">
        <ele>87.4</ele>
        <time>2022-08-12T17:24:25Z</time>
      </trkpt>
      <trkpt lat="44.75049" lon="1.19637">
        <ele>86.4</ele>
        <time>2022-08-12T17:24:29Z</time>
      </trkpt>
      <trkpt lat="44.75044" lon="1.19632">
        <ele>86.4</ele>
        <time>2022-08-12T17:24:32Z</time>
      </trkpt>
      <trkpt lat="44.75041" lon="1.19626">
        <ele>86.4</ele>
        <time>2022-08-12T17:24:34Z</time>
      </trkpt>
      <trkpt lat="44.75036" lon="1.19621">
        <ele>86.4</ele>
        <time>2022-08-12T17:24:36Z</time>
      </trkpt>
      <trkpt lat="44.75032" lon="1.19617">
        <ele>86.4</ele>
        <time>2022-08-12T17:24:38Z</time>
      </trkpt>
      <trkpt lat="44.75026" lon="1.19612">
        <ele>86.4</ele>
        <time>2022-08-12T17:24:40Z</time>
      </trkpt>
      <trkpt lat="44.75022" lon="1.19607">
        <ele>85.4</ele>
        <time>2022-08-12T17:24:42Z</time>
      </trkpt>
      <trkpt lat="44.75019" lon="1.19601">
        <ele>85.4</ele>
        <time>2022-08-12T17:24:44Z</time>
      </trkpt>
      <trkpt lat="44.75015" lon="1.19596">
        <ele>85.4</ele>
        <time>2022-08-12T17:24:46Z</time>
      </trkpt>
      <trkpt lat="44.7501" lon="1.19591">
        <ele>85.4</ele>
        <time>2022-08-12T17:24:48Z</time>
      </trkpt>
      <trkpt lat="44.75005" lon="1.19586">
        <ele>84.4</ele>
        <time>2022-08-12T17:24:50Z</time>
      </trkpt>
      <trkpt lat="44.74999" lon="1.19581">
        <ele>84.4</ele>
        <time>2022-08-12T17:24:52Z</time>
      </trkpt>
      <trkpt lat="44.74993" lon="1.19575">
        <ele>84.4</ele>
        <time>2022-08-12T17:24:54Z</time>
      </trkpt>
      <trkpt lat="44.74988" lon="1.1957">
        <ele>84.4</ele>
        <time>2022-08-12T17:24:56Z</time>
      </trkpt>
      <trkpt lat="44.74983" lon="1.19567">
        <ele>84.4</ele>
        <time>2022-08-12T17:24:58Z</time>
      </trkpt>
      <trkpt lat="44.74978" lon="1.19564">
        <ele>84.4</ele>
        <time>2022-08-12T17:25:00Z</time>
      </trkpt>
      <trkpt lat="44.74973" lon="1.19561">
        <ele>84.4</ele>
        <time>2022-08-12T17:25:02Z</time>
      </trkpt>
      <trkpt lat="44.74966" lon="1.19554">
        <ele>83.4</ele>
        <time>2022-08-12T17:25:04Z</time>
      </trkpt>
      <trkpt lat="44.74959" lon="1.19548">
        <ele>83.4</ele>
        <time>2022-08-12T17:25:06Z</time>
      </trkpt>
      <trkpt lat="44.74953" lon="1.19543">
        <ele>83.4</ele>
        <time>2022-08-12T17:25:08Z</time>
      </trkpt>
      <trkpt lat="44.74948" lon="1.19536">
        <ele>83.4</ele>
        <time>2022-08-12T17:25:10Z</time>
      </trkpt>
      <trkpt lat="44.74941" lon="1.19531">
        <ele>83.4</ele>
        <time>2022-08-12T17:25:12Z</time>
      </trkpt>
      <trkpt lat="44.74934" lon="1.19526">
        <ele>84.4</ele>
        <time>2022-08-12T17:25:14Z</time>
      </trkpt>
      <trkpt lat="44.74929" lon="1.19524">
        <ele>84.4</ele>
        <time>2022-08-12T17:25:15Z</time>
      </trkpt>
      <trkpt lat="44.74922" lon="1.1952">
        <ele>84.4</ele>
        <time>2022-08-12T17:25:17Z</time>
      </trkpt>
      <trkpt lat="44.74917" lon="1.19517">
        <ele>84.4</ele>
        <time>2022-08-12T17:25:19Z</time>
      </trkpt>
      <trkpt lat="44.74911" lon="1.19516">
        <ele>84.4</ele>
        <time>2022-08-12T17:25:21Z</time>
      </trkpt>
      <trkpt lat="44.74905" lon="1.19518">
        <ele>85.4</ele>
        <time>2022-08-12T17:25:23Z</time>
      </trkpt>
      <trkpt lat="44.74899" lon="1.19519">
        <ele>85.4</ele>
        <time>2022-08-12T17:25:25Z</time>
      </trkpt>
      <trkpt lat="44.74892" lon="1.19521">
        <ele>86.4</ele>
        <time>2022-08-12T17:25:27Z</time>
      </trkpt>
      <trkpt lat="44.74887" lon="1.19524">
        <ele>86.4</ele>
        <time>2022-08-12T17:25:29Z</time>
      </trkpt>
      <trkpt lat="44.74882" lon="1.19525">
        <ele>87.4</ele>
        <time>2022-08-12T17:25:31Z</time>
      </trkpt>
      <trkpt lat="44.74874" lon="1.19526">
        <ele>87.4</ele>
        <time>2022-08-12T17:25:33Z</time>
      </trkpt>
      <trkpt lat="44.74867" lon="1.19525">
        <ele>89.4</ele>
        <time>2022-08-12T17:25:35Z</time>
      </trkpt>
      <trkpt lat="44.74861" lon="1.19525">
        <ele>90.4</ele>
        <time>2022-08-12T17:25:37Z</time>
      </trkpt>
      <trkpt lat="44.74853" lon="1.19524">
        <ele>89.4</ele>
        <time>2022-08-12T17:25:39Z</time>
      </trkpt>
      <trkpt lat="44.74847" lon="1.19524">
        <ele>87.4</ele>
        <time>2022-08-12T17:25:41Z</time>
      </trkpt>
      <trkpt lat="44.74841" lon="1.19523">
        <ele>86.4</ele>
        <time>2022-08-12T17:25:43Z</time>
      </trkpt>
      <trkpt lat="44.74834" lon="1.19522">
        <ele>86.4</ele>
        <time>2022-08-12T17:25:45Z</time>
      </trkpt>
      <trkpt lat="44.74827" lon="1.19521">
        <ele>86.4</ele>
        <time>2022-08-12T17:25:47Z</time>
      </trkpt>
      <trkpt lat="44.74821" lon="1.19522">
        <ele>87.4</ele>
        <time>2022-08-12T17:25:49Z</time>
      </trkpt>
      <trkpt lat="44.74815" lon="1.19522">
        <ele>86.4</ele>
        <time>2022-08-12T17:25:51Z</time>
      </trkpt>
      <trkpt lat="44.74808" lon="1.19521">
        <ele>86.4</ele>
        <time>2022-08-12T17:25:53Z</time>
      </trkpt>
      <trkpt lat="44.74802" lon="1.1952">
        <ele>86.4</ele>
        <time>2022-08-12T17:25:55Z</time>
      </trkpt>
      <trkpt lat="44.74795" lon="1.19517">
        <ele>85.4</ele>
        <time>2022-08-12T17:25:57Z</time>
      </trkpt>
      <trkpt lat="44.74788" lon="1.19516">
        <ele>85.4</ele>
        <time>2022-08-12T17:25:59Z</time>
      </trkpt>
      <trkpt lat="44.74783" lon="1.19515">
        <ele>85.4</ele>
        <time>2022-08-12T17:26:01Z</time>
      </trkpt>
      <trkpt lat="44.74777" lon="1.19514">
        <ele>84.4</ele>
        <time>2022-08-12T17:26:03Z</time>
      </trkpt>
      <trkpt lat="44.74772" lon="1.19512">
        <ele>84.4</ele>
        <time>2022-08-12T17:26:05Z</time>
      </trkpt>
      <trkpt lat="44.74765" lon="1.19511">
        <ele>84.4</ele>
        <time>2022-08-12T17:26:07Z</time>
      </trkpt>
      <trkpt lat="44.74759" lon="1.19509">
        <ele>86.4</ele>
        <time>2022-08-12T17:26:09Z</time>
      </trkpt>
      <trkpt lat="44.74752" lon="1.19508">
        <ele>88.4</ele>
        <time>2022-08-12T17:26:11Z</time>
      </trkpt>
      <trkpt lat="44.74744" lon="1.19506">
        <ele>89.4</ele>
        <time>2022-08-12T17:26:13Z</time>
      </trkpt>
      <trkpt lat="44.74736" lon="1.19504">
        <ele>89.4</ele>
        <time>2022-08-12T17:26:15Z</time>
      </trkpt>
      <trkpt lat="44.74728" lon="1.19505">
        <ele>88.4</ele>
        <time>2022-08-12T17:26:17Z</time>
      </trkpt>
      <trkpt lat="44.74721" lon="1.19508">
        <ele>85.4</ele>
        <time>2022-08-12T17:26:19Z</time>
      </trkpt>
      <trkpt lat="44.74713" lon="1.19512">
        <ele>84.4</ele>
        <time>2022-08-12T17:26:21Z</time>
      </trkpt>
      <trkpt lat="44.74706" lon="1.19514">
        <ele>84.4</ele>
        <time>2022-08-12T17:26:23Z</time>
      </trkpt>
      <trkpt lat="44.74698" lon="1.19514">
        <ele>84.4</ele>
        <time>2022-08-12T17:26:25Z</time>
      </trkpt>
      <trkpt lat="44.7469" lon="1.19515">
        <ele>83.4</ele>
        <time>2022-08-12T17:26:27Z</time>
      </trkpt>
      <trkpt lat="44.74684" lon="1.19518">
        <ele>84.4</ele>
        <time>2022-08-12T17:26:30Z</time>
      </trkpt>
      <trkpt lat="44.7468" lon="1.1952">
        <ele>84.4</ele>
        <time>2022-08-12T17:26:32Z</time>
      </trkpt>
      <trkpt lat="44.74674" lon="1.19524">
        <ele>84.4</ele>
        <time>2022-08-12T17:26:34Z</time>
      </trkpt>
      <trkpt lat="44.74669" lon="1.19528">
        <ele>84.4</ele>
        <time>2022-08-12T17:26:36Z</time>
      </trkpt>
      <trkpt lat="44.74664" lon="1.19533">
        <ele>84.4</ele>
        <time>2022-08-12T17:26:38Z</time>
      </trkpt>
      <trkpt lat="44.74659" lon="1.19537">
        <ele>84.4</ele>
        <time>2022-08-12T17:26:40Z</time>
      </trkpt>
      <trkpt lat="44.74654" lon="1.19542">
        <ele>85.4</ele>
        <time>2022-08-12T17:26:42Z</time>
      </trkpt>
      <trkpt lat="44.7465" lon="1.19546">
        <ele>86.4</ele>
        <time>2022-08-12T17:26:44Z</time>
      </trkpt>
      <trkpt lat="44.74646" lon="1.1955">
        <ele>86.4</ele>
        <time>2022-08-12T17:26:46Z</time>
      </trkpt>
      <trkpt lat="44.74643" lon="1.19555">
        <ele>87.4</ele>
        <time>2022-08-12T17:26:48Z</time>
      </trkpt>
      <trkpt lat="44.74639" lon="1.19562">
        <ele>88.4</ele>
        <time>2022-08-12T17:26:51Z</time>
      </trkpt>
      <trkpt lat="44.74635" lon="1.19568">
        <ele>88.4</ele>
        <time>2022-08-12T17:26:53Z</time>
      </trkpt>
      <trkpt lat="44.74628" lon="1.1957">
        <ele>88.4</ele>
        <time>2022-08-12T17:26:55Z</time>
      </trkpt>
      <trkpt lat="44.74622" lon="1.19571">
        <ele>87.4</ele>
        <time>2022-08-12T17:26:58Z</time>
      </trkpt>
      <trkpt lat="44.74617" lon="1.19574">
        <ele>88.4</ele>
        <time>2022-08-12T17:27:02Z</time>
      </trkpt>
      <trkpt lat="44.74615" lon="1.19581">
        <ele>89.4</ele>
        <time>2022-08-12T17:27:05Z</time>
      </trkpt>
      <trkpt lat="44.74612" lon="1.19586">
        <ele>90.4</ele>
        <time>2022-08-12T17:27:08Z</time>
      </trkpt>
      <trkpt lat="44.74609" lon="1.19591">
        <ele>92.4</ele>
        <time>2022-08-12T17:27:12Z</time>
      </trkpt>
      <trkpt lat="44.74605" lon="1.19598">
        <ele>93.4</ele>
        <time>2022-08-12T17:27:16Z</time>
      </trkpt>
      <trkpt lat="44.74603" lon="1.19603">
        <ele>95.4</ele>
        <time>2022-08-12T17:27:19Z</time>
      </trkpt>
      <trkpt lat="44.746" lon="1.1961">
        <ele>96.4</ele>
        <time>2022-08-12T17:27:23Z</time>
      </trkpt>
      <trkpt lat="44.74596" lon="1.19614">
        <ele>97.4</ele>
        <time>2022-08-12T17:27:26Z</time>
      </trkpt>
      <trkpt lat="44.74591" lon="1.19612">
        <ele>96.4</ele>
        <time>2022-08-12T17:27:29Z</time>
      </trkpt>
      <trkpt lat="44.74586" lon="1.19608">
        <ele>95.4</ele>
        <time>2022-08-12T17:27:32Z</time>
      </trkpt>
      <trkpt lat="44.74581" lon="1.19604">
        <ele>95.4</ele>
        <time>2022-08-12T17:27:35Z</time>
      </trkpt>
      <trkpt lat="44.74574" lon="1.196">
        <ele>96.4</ele>
        <time>2022-08-12T17:27:37Z</time>
      </trkpt>
      <trkpt lat="44.74569" lon="1.19594">
        <ele>96.4</ele>
        <time>2022-08-12T17:27:39Z</time>
      </trkpt>
      <trkpt lat="44.74563" lon="1.1959">
        <ele>96.4</ele>
        <time>2022-08-12T17:27:41Z</time>
      </trkpt>
      <trkpt lat="44.74557" lon="1.19586">
        <ele>97.4</ele>
        <time>2022-08-12T17:27:43Z</time>
      </trkpt>
      <trkpt lat="44.74551" lon="1.19583">
        <ele>96.4</ele>
        <time>2022-08-12T17:27:45Z</time>
      </trkpt>
      <trkpt lat="44.74545" lon="1.19579">
        <ele>97.4</ele>
        <time>2022-08-12T17:27:47Z</time>
      </trkpt>
      <trkpt lat="44.74539" lon="1.19574">
        <ele>97.4</ele>
        <time>2022-08-12T17:27:49Z</time>
      </trkpt>
      <trkpt lat="44.74534" lon="1.1957">
        <ele>97.4</ele>
        <time>2022-08-12T17:27:51Z</time>
      </trkpt>
      <trkpt lat="44.74528" lon="1.19567">
        <ele>97.4</ele>
        <time>2022-08-12T17:27:53Z</time>
      </trkpt>
      <trkpt lat="44.74522" lon="1.19563">
        <ele>97.4</ele>
        <time>2022-08-12T17:27:55Z</time>
      </trkpt>
      <trkpt lat="44.74516" lon="1.19558">
        <ele>96.4</ele>
        <time>2022-08-12T17:27:57Z</time>
      </trkpt>
      <trkpt lat="44.74508" lon="1.19554">
        <ele>97.4</ele>
        <time>2022-08-12T17:27:59Z</time>
      </trkpt>
      <trkpt lat="44.745" lon="1.1955">
        <ele>98.4</ele>
        <time>2022-08-12T17:28:01Z</time>
      </trkpt>
      <trkpt lat="44.74491" lon="1.19547">
        <ele>98.4</ele>
        <time>2022-08-12T17:28:03Z</time>
      </trkpt>
      <trkpt lat="44.74482" lon="1.19544">
        <ele>99.4</ele>
        <time>2022-08-12T17:28:05Z</time>
      </trkpt>
      <trkpt lat="44.74478" lon="1.19544">
        <ele>99.4</ele>
        <time>2022-08-12T17:28:06Z</time>
      </trkpt>
      <trkpt lat="44.74469" lon="1.19544">
        <ele>98.4</ele>
        <time>2022-08-12T17:28:08Z</time>
      </trkpt>
      <trkpt lat="44.7446" lon="1.19543">
        <ele>99.4</ele>
        <time>2022-08-12T17:28:10Z</time>
      </trkpt>
      <trkpt lat="44.74455" lon="1.19543">
        <ele>99.4</ele>
        <time>2022-08-12T17:28:11Z</time>
      </trkpt>
      <trkpt lat="44.74446" lon="1.19543">
        <ele>98.4</ele>
        <time>2022-08-12T17:28:13Z</time>
      </trkpt>
      <trkpt lat="44.74437" lon="1.19544">
        <ele>98.4</ele>
        <time>2022-08-12T17:28:15Z</time>
      </trkpt>
      <trkpt lat="44.74429" lon="1.19547">
        <ele>98.4</ele>
        <time>2022-08-12T17:28:17Z</time>
      </trkpt>
      <trkpt lat="44.74421" lon="1.1955">
        <ele>98.4</ele>
        <time>2022-08-12T17:28:19Z</time>
      </trkpt>
      <trkpt lat="44.74415" lon="1.19552">
        <ele>98.4</ele>
        <time>2022-08-12T17:28:21Z</time>
      </trkpt>
      <trkpt lat="44.74409" lon="1.19555">
        <ele>98.4</ele>
        <time>2022-08-12T17:28:24Z</time>
      </trkpt>
      <trkpt lat="44.74405" lon="1.19556">
        <ele>98.4</ele>
        <time>2022-08-12T17:28:45Z</time>
      </trkpt>
      <trkpt lat="44.744" lon="1.19558">
        <ele>100.4</ele>
        <time>2022-08-12T17:29:19Z</time>
      </trkpt>
      <trkpt lat="44.74396" lon="1.19563">
        <ele>100.4</ele>
        <time>2022-08-12T17:29:23Z</time>
      </trkpt>
      <trkpt lat="44.7439" lon="1.19569">
        <ele>100.4</ele>
        <time>2022-08-12T17:29:26Z</time>
      </trkpt>
      <trkpt lat="44.74385" lon="1.19575">
        <ele>100.4</ele>
        <time>2022-08-12T17:29:28Z</time>
      </trkpt>
      <trkpt lat="44.74379" lon="1.19582">
        <ele>101.4</ele>
        <time>2022-08-12T17:29:30Z</time>
      </trkpt>
      <trkpt lat="44.74375" lon="1.19587">
        <ele>102.4</ele>
        <time>2022-08-12T17:29:32Z</time>
      </trkpt>
      <trkpt lat="44.74371" lon="1.1959">
        <ele>101.4</ele>
        <time>2022-08-12T17:29:56Z</time>
      </trkpt>
      <trkpt lat="44.7437" lon="1.19596">
        <ele>100.4</ele>
        <time>2022-08-12T17:32:17Z</time>
      </trkpt>
      <trkpt lat="44.74367" lon="1.19602">
        <ele>101.4</ele>
        <time>2022-08-12T17:32:22Z</time>
      </trkpt>
      <trkpt lat="44.74364" lon="1.19607">
        <ele>100.4</ele>
        <time>2022-08-12T17:32:24Z</time>
      </trkpt>
      <trkpt lat="44.7436" lon="1.19614">
        <ele>99.4</ele>
        <time>2022-08-12T17:32:26Z</time>
      </trkpt>
      <trkpt lat="44.74356" lon="1.19621">
        <ele>99.4</ele>
        <time>2022-08-12T17:32:28Z</time>
      </trkpt>
      <trkpt lat="44.74353" lon="1.19628">
        <ele>98.4</ele>
        <time>2022-08-12T17:32:30Z</time>
      </trkpt>
      <trkpt lat="44.7435" lon="1.19634">
        <ele>98.4</ele>
        <time>2022-08-12T17:32:32Z</time>
      </trkpt>
      <trkpt lat="44.74348" lon="1.19641">
        <ele>99.4</ele>
        <time>2022-08-12T17:32:34Z</time>
      </trkpt>
      <trkpt lat="44.74345" lon="1.19648">
        <ele>99.4</ele>
        <time>2022-08-12T17:32:36Z</time>
      </trkpt>
      <trkpt lat="44.74343" lon="1.19657">
        <ele>100.4</ele>
        <time>2022-08-12T17:32:38Z</time>
      </trkpt>
      <trkpt lat="44.74339" lon="1.19666">
        <ele>100.4</ele>
        <time>2022-08-12T17:32:40Z</time>
      </trkpt>
      <trkpt lat="44.74334" lon="1.19675">
        <ele>100.4</ele>
        <time>2022-08-12T17:32:42Z</time>
      </trkpt>
      <trkpt lat="44.7433" lon="1.19684">
        <ele>99.4</ele>
        <time>2022-08-12T17:32:44Z</time>
      </trkpt>
      <trkpt lat="44.74327" lon="1.19694">
        <ele>98.4</ele>
        <time>2022-08-12T17:32:46Z</time>
      </trkpt>
      <trkpt lat="44.74323" lon="1.19701">
        <ele>99.4</ele>
        <time>2022-08-12T17:32:48Z</time>
      </trkpt>
      <trkpt lat="44.74319" lon="1.19709">
        <ele>98.4</ele>
        <time>2022-08-12T17:32:50Z</time>
      </trkpt>
      <trkpt lat="44.74315" lon="1.19717">
        <ele>98.4</ele>
        <time>2022-08-12T17:32:52Z</time>
      </trkpt>
      <trkpt lat="44.7431" lon="1.19727">
        <ele>99.4</ele>
        <time>2022-08-12T17:32:54Z</time>
      </trkpt>
      <trkpt lat="44.74304" lon="1.19736">
        <ele>99.4</ele>
        <time>2022-08-12T17:32:56Z</time>
      </trkpt>
      <trkpt lat="44.74299" lon="1.19744">
        <ele>100.4</ele>
        <time>2022-08-12T17:32:58Z</time>
      </trkpt>
      <trkpt lat="44.74293" lon="1.19754">
        <ele>101.4</ele>
        <time>2022-08-12T17:33:00Z</time>
      </trkpt>
      <trkpt lat="44.74288" lon="1.19763">
        <ele>101.4</ele>
        <time>2022-08-12T17:33:02Z</time>
      </trkpt>
      <trkpt lat="44.74281" lon="1.1977">
        <ele>102.4</ele>
        <time>2022-08-12T17:33:04Z</time>
      </trkpt>
      <trkpt lat="44.74275" lon="1.19778">
        <ele>103.4</ele>
        <time>2022-08-12T17:33:06Z</time>
      </trkpt>
      <trkpt lat="44.74268" lon="1.19785">
        <ele>103.4</ele>
        <time>2022-08-12T17:33:08Z</time>
      </trkpt>
      <trkpt lat="44.74259" lon="1.19789">
        <ele>103.4</ele>
        <time>2022-08-12T17:33:10Z</time>
      </trkpt>
      <trkpt lat="44.74255" lon="1.1979">
        <ele>103.4</ele>
        <time>2022-08-12T17:33:11Z</time>
      </trkpt>
      <trkpt lat="44.7425" lon="1.1979">
        <ele>103.4</ele>
        <time>2022-08-12T17:33:12Z</time>
      </trkpt>
      <trkpt lat="44.74245" lon="1.19789">
        <ele>103.4</ele>
        <time>2022-08-12T17:33:13Z</time>
      </trkpt>
      <trkpt lat="44.74241" lon="1.19786">
        <ele>102.4</ele>
        <time>2022-08-12T17:33:14Z</time>
      </trkpt>
      <trkpt lat="44.74236" lon="1.19782">
        <ele>101.4</ele>
        <time>2022-08-12T17:33:15Z</time>
      </trkpt>
      <trkpt lat="44.74232" lon="1.19778">
        <ele>101.4</ele>
        <time>2022-08-12T17:33:16Z</time>
      </trkpt>
      <trkpt lat="44.74229" lon="1.19773">
        <ele>100.4</ele>
        <time>2022-08-12T17:33:17Z</time>
      </trkpt>
      <trkpt lat="44.74227" lon="1.19768">
        <ele>100.4</ele>
        <time>2022-08-12T17:33:18Z</time>
      </trkpt>
      <trkpt lat="44.74224" lon="1.19762">
        <ele>99.4</ele>
        <time>2022-08-12T17:33:19Z</time>
      </trkpt>
      <trkpt lat="44.74221" lon="1.19756">
        <ele>99.4</ele>
        <time>2022-08-12T17:33:20Z</time>
      </trkpt>
      <trkpt lat="44.74218" lon="1.19751">
        <ele>98.4</ele>
        <time>2022-08-12T17:33:21Z</time>
      </trkpt>
      <trkpt lat="44.74216" lon="1.19746">
        <ele>97.4</ele>
        <time>2022-08-12T17:33:22Z</time>
      </trkpt>
      <trkpt lat="44.7421" lon="1.19736">
        <ele>96.4</ele>
        <time>2022-08-12T17:33:24Z</time>
      </trkpt>
      <trkpt lat="44.74206" lon="1.19728">
        <ele>97.4</ele>
        <time>2022-08-12T17:33:26Z</time>
      </trkpt>
      <trkpt lat="44.74202" lon="1.1972">
        <ele>97.4</ele>
        <time>2022-08-12T17:33:28Z</time>
      </trkpt>
      <trkpt lat="44.74198" lon="1.19714">
        <ele>96.4</ele>
        <time>2022-08-12T17:33:30Z</time>
      </trkpt>
      <trkpt lat="44.74194" lon="1.19708">
        <ele>95.4</ele>
        <time>2022-08-12T17:33:32Z</time>
      </trkpt>
      <trkpt lat="44.7419" lon="1.19702">
        <ele>95.4</ele>
        <time>2022-08-12T17:33:34Z</time>
      </trkpt>
      <trkpt lat="44.74185" lon="1.19694">
        <ele>95.4</ele>
        <time>2022-08-12T17:33:36Z</time>
      </trkpt>
      <trkpt lat="44.74181" lon="1.19685">
        <ele>95.4</ele>
        <time>2022-08-12T17:33:38Z</time>
      </trkpt>
      <trkpt lat="44.74176" lon="1.19676">
        <ele>94.4</ele>
        <time>2022-08-12T17:33:40Z</time>
      </trkpt>
      <trkpt lat="44.7417" lon="1.19674">
        <ele>94.4</ele>
        <time>2022-08-12T17:33:42Z</time>
      </trkpt>
      <trkpt lat="44.74166" lon="1.1967">
        <ele>96.4</ele>
        <time>2022-08-12T17:33:44Z</time>
      </trkpt>
      <trkpt lat="44.74162" lon="1.19664">
        <ele>95.4</ele>
        <time>2022-08-12T17:33:47Z</time>
      </trkpt>
      <trkpt lat="44.7416" lon="1.19655">
        <ele>95.4</ele>
        <time>2022-08-12T17:33:49Z</time>
      </trkpt>
      <trkpt lat="44.74157" lon="1.19647">
        <ele>94.4</ele>
        <time>2022-08-12T17:33:51Z</time>
      </trkpt>
      <trkpt lat="44.74153" lon="1.1964">
        <ele>94.4</ele>
        <time>2022-08-12T17:33:53Z</time>
      </trkpt>
      <trkpt lat="44.7415" lon="1.19631">
        <ele>94.4</ele>
        <time>2022-08-12T17:33:55Z</time>
      </trkpt>
      <trkpt lat="44.74146" lon="1.19623">
        <ele>93.4</ele>
        <time>2022-08-12T17:33:57Z</time>
      </trkpt>
      <trkpt lat="44.74141" lon="1.19614">
        <ele>92.4</ele>
        <time>2022-08-12T17:33:59Z</time>
      </trkpt>
      <trkpt lat="44.74137" lon="1.19605">
        <ele>91.4</ele>
        <time>2022-08-12T17:34:01Z</time>
      </trkpt>
      <trkpt lat="44.74132" lon="1.19596">
        <ele>91.4</ele>
        <time>2022-08-12T17:34:03Z</time>
      </trkpt>
      <trkpt lat="44.74127" lon="1.19587">
        <ele>91.4</ele>
        <time>2022-08-12T17:34:05Z</time>
      </trkpt>
      <trkpt lat="44.74122" lon="1.19577">
        <ele>92.4</ele>
        <time>2022-08-12T17:34:07Z</time>
      </trkpt>
      <trkpt lat="44.74116" lon="1.1957">
        <ele>92.4</ele>
        <time>2022-08-12T17:34:09Z</time>
      </trkpt>
      <trkpt lat="44.7411" lon="1.19565">
        <ele>91.4</ele>
        <time>2022-08-12T17:34:11Z</time>
      </trkpt>
      <trkpt lat="44.74106" lon="1.19558">
        <ele>91.4</ele>
        <time>2022-08-12T17:34:13Z</time>
      </trkpt>
      <trkpt lat="44.74103" lon="1.19552">
        <ele>90.4</ele>
        <time>2022-08-12T17:34:15Z</time>
      </trkpt>
      <trkpt lat="44.74099" lon="1.19546">
        <ele>90.4</ele>
        <time>2022-08-12T17:34:18Z</time>
      </trkpt>
      <trkpt lat="44.74097" lon="1.1954">
        <ele>91.4</ele>
        <time>2022-08-12T17:34:21Z</time>
      </trkpt>
      <trkpt lat="44.74095" lon="1.19533">
        <ele>91.4</ele>
        <time>2022-08-12T17:34:24Z</time>
      </trkpt>
      <trkpt lat="44.74095" lon="1.19526">
        <ele>91.4</ele>
        <time>2022-08-12T17:34:27Z</time>
      </trkpt>
      <trkpt lat="44.74101" lon="1.19523">
        <ele>96.4</ele>
        <time>2022-08-12T17:38:11Z</time>
      </trkpt>
      <trkpt lat="44.74103" lon="1.19518">
        <ele>96.4</ele>
        <time>2022-08-12T17:38:14Z</time>
      </trkpt>
      <trkpt lat="44.74106" lon="1.19512">
        <ele>95.4</ele>
        <time>2022-08-12T17:38:18Z</time>
      </trkpt>
      <trkpt lat="44.74109" lon="1.19505">
        <ele>96.4</ele>
        <time>2022-08-12T17:38:22Z</time>
      </trkpt>
      <trkpt lat="44.74112" lon="1.19497">
        <ele>96.4</ele>
        <time>2022-08-12T17:38:25Z</time>
      </trkpt>
      <trkpt lat="44.74114" lon="1.19492">
        <ele>96.4</ele>
        <time>2022-08-12T17:38:27Z</time>
      </trkpt>
      <trkpt lat="44.74118" lon="1.19485">
        <ele>96.4</ele>
        <time>2022-08-12T17:38:29Z</time>
      </trkpt>
      <trkpt lat="44.74122" lon="1.19477">
        <ele>97.4</ele>
        <time>2022-08-12T17:38:31Z</time>
      </trkpt>
      <trkpt lat="44.74125" lon="1.19467">
        <ele>97.4</ele>
        <time>2022-08-12T17:38:33Z</time>
      </trkpt>
      <trkpt lat="44.74126" lon="1.19458">
        <ele>97.4</ele>
        <time>2022-08-12T17:38:35Z</time>
      </trkpt>
      <trkpt lat="44.74128" lon="1.19448">
        <ele>98.4</ele>
        <time>2022-08-12T17:38:37Z</time>
      </trkpt>
      <trkpt lat="44.74131" lon="1.19439">
        <ele>98.4</ele>
        <time>2022-08-12T17:38:39Z</time>
      </trkpt>
      <trkpt lat="44.74133" lon="1.1943">
        <ele>97.4</ele>
        <time>2022-08-12T17:38:41Z</time>
      </trkpt>
      <trkpt lat="44.74137" lon="1.1942">
        <ele>97.4</ele>
        <time>2022-08-12T17:38:43Z</time>
      </trkpt>
      <trkpt lat="44.74141" lon="1.19411">
        <ele>96.4</ele>
        <time>2022-08-12T17:38:45Z</time>
      </trkpt>
      <trkpt lat="44.74146" lon="1.19403">
        <ele>96.4</ele>
        <time>2022-08-12T17:38:47Z</time>
      </trkpt>
      <trkpt lat="44.74152" lon="1.19393">
        <ele>96.4</ele>
        <time>2022-08-12T17:38:50Z</time>
      </trkpt>
      <trkpt lat="44.74155" lon="1.19385">
        <ele>96.4</ele>
        <time>2022-08-12T17:38:52Z</time>
      </trkpt>
      <trkpt lat="44.74159" lon="1.19376">
        <ele>96.4</ele>
        <time>2022-08-12T17:38:54Z</time>
      </trkpt>
      <trkpt lat="44.74163" lon="1.19366">
        <ele>96.4</ele>
        <time>2022-08-12T17:38:56Z</time>
      </trkpt>
      <trkpt lat="44.74168" lon="1.19356">
        <ele>95.4</ele>
        <time>2022-08-12T17:38:58Z</time>
      </trkpt>
      <trkpt lat="44.74172" lon="1.19346">
        <ele>95.4</ele>
        <time>2022-08-12T17:39:00Z</time>
      </trkpt>
      <trkpt lat="44.74174" lon="1.19339">
        <ele>94.4</ele>
        <time>2022-08-12T17:39:01Z</time>
      </trkpt>
      <trkpt lat="44.74175" lon="1.19333">
        <ele>94.4</ele>
        <time>2022-08-12T17:39:02Z</time>
      </trkpt>
      <trkpt lat="44.74178" lon="1.19323">
        <ele>94.4</ele>
        <time>2022-08-12T17:39:04Z</time>
      </trkpt>
      <trkpt lat="44.74179" lon="1.19313">
        <ele>93.4</ele>
        <time>2022-08-12T17:39:06Z</time>
      </trkpt>
      <trkpt lat="44.74181" lon="1.19304">
        <ele>93.4</ele>
        <time>2022-08-12T17:39:08Z</time>
      </trkpt>
      <trkpt lat="44.74184" lon="1.19296">
        <ele>94.4</ele>
        <time>2022-08-12T17:39:10Z</time>
      </trkpt>
      <trkpt lat="44.74184" lon="1.19289">
        <ele>95.4</ele>
        <time>2022-08-12T17:39:13Z</time>
      </trkpt>
      <trkpt lat="44.74184" lon="1.19283">
        <ele>95.4</ele>
        <time>2022-08-12T17:39:29Z</time>
      </trkpt>
      <trkpt lat="44.74189" lon="1.19283">
        <ele>97.4</ele>
        <time>2022-08-12T17:40:33Z</time>
      </trkpt>
      <trkpt lat="44.74192" lon="1.19277">
        <ele>96.4</ele>
        <time>2022-08-12T17:40:35Z</time>
      </trkpt>
      <trkpt lat="44.74196" lon="1.19271">
        <ele>97.4</ele>
        <time>2022-08-12T17:40:38Z</time>
      </trkpt>
      <trkpt lat="44.74199" lon="1.19264">
        <ele>96.4</ele>
        <time>2022-08-12T17:40:41Z</time>
      </trkpt>
      <trkpt lat="44.74196" lon="1.19259">
        <ele>99.4</ele>
        <time>2022-08-12T17:40:50Z</time>
      </trkpt>
      <trkpt lat="44.74194" lon="1.19266">
        <ele>98.4</ele>
        <time>2022-08-12T17:40:54Z</time>
      </trkpt>
      <trkpt lat="44.74191" lon="1.19274">
        <ele>98.4</ele>
        <time>2022-08-12T17:40:58Z</time>
      </trkpt>
      <trkpt lat="44.74194" lon="1.19269">
        <ele>95.4</ele>
        <time>2022-08-12T17:41:23Z</time>
      </trkpt>
      <trkpt lat="44.74196" lon="1.19262">
        <ele>95.4</ele>
        <time>2022-08-12T17:41:26Z</time>
      </trkpt>
      <trkpt lat="44.74198" lon="1.19255">
        <ele>95.4</ele>
        <time>2022-08-12T17:41:29Z</time>
      </trkpt>
      <trkpt lat="44.742" lon="1.19245">
        <ele>94.4</ele>
        <time>2022-08-12T17:41:32Z</time>
      </trkpt>
      <trkpt lat="44.74199" lon="1.19236">
        <ele>93.4</ele>
        <time>2022-08-12T17:41:35Z</time>
      </trkpt>
      <trkpt lat="44.742" lon="1.19228">
        <ele>94.4</ele>
        <time>2022-08-12T17:41:38Z</time>
      </trkpt>
      <trkpt lat="44.742" lon="1.19219">
        <ele>95.4</ele>
        <time>2022-08-12T17:41:41Z</time>
      </trkpt>
      <trkpt lat="44.742" lon="1.19213">
        <ele>95.4</ele>
        <time>2022-08-12T17:41:43Z</time>
      </trkpt>
      <trkpt lat="44.74202" lon="1.19206">
        <ele>95.4</ele>
        <time>2022-08-12T17:41:45Z</time>
      </trkpt>
      <trkpt lat="44.74203" lon="1.192">
        <ele>95.4</ele>
        <time>2022-08-12T17:41:47Z</time>
      </trkpt>
      <trkpt lat="44.74205" lon="1.19191">
        <ele>95.4</ele>
        <time>2022-08-12T17:41:50Z</time>
      </trkpt>
      <trkpt lat="44.74207" lon="1.19185">
        <ele>95.4</ele>
        <time>2022-08-12T17:41:52Z</time>
      </trkpt>
      <trkpt lat="44.7421" lon="1.19178">
        <ele>95.4</ele>
        <time>2022-08-12T17:41:55Z</time>
      </trkpt>
      <trkpt lat="44.74212" lon="1.19173">
        <ele>95.4</ele>
        <time>2022-08-12T17:41:57Z</time>
      </trkpt>
      <trkpt lat="44.74215" lon="1.19166">
        <ele>95.4</ele>
        <time>2022-08-12T17:42:00Z</time>
      </trkpt>
      <trkpt lat="44.74211" lon="1.19174">
        <ele>93.4</ele>
        <time>2022-08-12T17:42:09Z</time>
      </trkpt>
      <trkpt lat="44.7421" lon="1.19181">
        <ele>92.4</ele>
        <time>2022-08-12T17:42:11Z</time>
      </trkpt>
      <trkpt lat="44.74208" lon="1.19187">
        <ele>93.4</ele>
        <time>2022-08-12T17:42:13Z</time>
      </trkpt>
      <trkpt lat="44.74207" lon="1.19194">
        <ele>93.4</ele>
        <time>2022-08-12T17:42:16Z</time>
      </trkpt>
      <trkpt lat="44.74207" lon="1.19202">
        <ele>92.4</ele>
        <time>2022-08-12T17:42:20Z</time>
      </trkpt>
      <trkpt lat="44.74206" lon="1.19211">
        <ele>92.4</ele>
        <time>2022-08-12T17:42:23Z</time>
      </trkpt>
      <trkpt lat="44.74204" lon="1.19217">
        <ele>93.4</ele>
        <time>2022-08-12T17:42:25Z</time>
      </trkpt>
      <trkpt lat="44.74202" lon="1.19225">
        <ele>93.4</ele>
        <time>2022-08-12T17:42:27Z</time>
      </trkpt>
      <trkpt lat="44.74199" lon="1.19233">
        <ele>91.4</ele>
        <time>2022-08-12T17:42:29Z</time>
      </trkpt>
      <trkpt lat="44.74199" lon="1.19241">
        <ele>90.4</ele>
        <time>2022-08-12T17:42:31Z</time>
      </trkpt>
      <trkpt lat="44.74199" lon="1.19248">
        <ele>90.4</ele>
        <time>2022-08-12T17:42:33Z</time>
      </trkpt>
      <trkpt lat="44.74199" lon="1.19256">
        <ele>90.4</ele>
        <time>2022-08-12T17:42:35Z</time>
      </trkpt>
      <trkpt lat="44.74197" lon="1.19264">
        <ele>89.4</ele>
        <time>2022-08-12T17:42:38Z</time>
      </trkpt>
      <trkpt lat="44.74195" lon="1.1927">
        <ele>90.4</ele>
        <time>2022-08-12T17:42:40Z</time>
      </trkpt>
      <trkpt lat="44.74192" lon="1.19276">
        <ele>90.4</ele>
        <time>2022-08-12T17:42:42Z</time>
      </trkpt>
      <trkpt lat="44.74189" lon="1.19283">
        <ele>91.4</ele>
        <time>2022-08-12T17:42:45Z</time>
      </trkpt>
      <trkpt lat="44.74184" lon="1.19285">
        <ele>93.4</ele>
        <time>2022-08-12T17:42:49Z</time>
      </trkpt>
      <trkpt lat="44.74186" lon="1.19278">
        <ele>101.4</ele>
        <time>2022-08-12T17:43:18Z</time>
      </trkpt>
      <trkpt lat="44.74185" lon="1.19285">
        <ele>99.4</ele>
        <time>2022-08-12T17:43:32Z</time>
      </trkpt>
      <trkpt lat="44.74183" lon="1.19291">
        <ele>100.4</ele>
        <time>2022-08-12T17:43:40Z</time>
      </trkpt>
      <trkpt lat="44.74178" lon="1.19292">
        <ele>100.4</ele>
        <time>2022-08-12T17:43:59Z</time>
      </trkpt>
      <trkpt lat="44.74179" lon="1.193">
        <ele>93.4</ele>
        <time>2022-08-12T17:44:25Z</time>
      </trkpt>
      <trkpt lat="44.74182" lon="1.19292">
        <ele>93.4</ele>
        <time>2022-08-12T17:44:31Z</time>
      </trkpt>
      <trkpt lat="44.74186" lon="1.19287">
        <ele>93.4</ele>
        <time>2022-08-12T17:44:34Z</time>
      </trkpt>
      <trkpt lat="44.74188" lon="1.19281">
        <ele>95.4</ele>
        <time>2022-08-12T17:44:38Z</time>
      </trkpt>
      <trkpt lat="44.74186" lon="1.19288">
        <ele>100.4</ele>
        <time>2022-08-12T17:44:53Z</time>
      </trkpt>
      <trkpt lat="44.74184" lon="1.19295">
        <ele>102.4</ele>
        <time>2022-08-12T17:44:58Z</time>
      </trkpt>
      <trkpt lat="44.74181" lon="1.19301">
        <ele>103.4</ele>
        <time>2022-08-12T17:45:04Z</time>
      </trkpt>
      <trkpt lat="44.74178" lon="1.19306">
        <ele>104.4</ele>
        <time>2022-08-12T17:45:07Z</time>
      </trkpt>
      <trkpt lat="44.74176" lon="1.19313">
        <ele>100.4</ele>
        <time>2022-08-12T17:45:28Z</time>
      </trkpt>
      <trkpt lat="44.74176" lon="1.19319">
        <ele>99.4</ele>
        <time>2022-08-12T17:45:31Z</time>
      </trkpt>
      <trkpt lat="44.74177" lon="1.19325">
        <ele>99.4</ele>
        <time>2022-08-12T17:45:37Z</time>
      </trkpt>
      <trkpt lat="44.74174" lon="1.1933">
        <ele>100.4</ele>
        <time>2022-08-12T17:45:42Z</time>
      </trkpt>
      <trkpt lat="44.74171" lon="1.19335">
        <ele>98.4</ele>
        <time>2022-08-12T17:45:45Z</time>
      </trkpt>
      <trkpt lat="44.74166" lon="1.1934">
        <ele>97.4</ele>
        <time>2022-08-12T17:45:48Z</time>
      </trkpt>
      <trkpt lat="44.74164" lon="1.19346">
        <ele>96.4</ele>
        <time>2022-08-12T17:45:51Z</time>
      </trkpt>
      <trkpt lat="44.74163" lon="1.19353">
        <ele>95.4</ele>
        <time>2022-08-12T17:45:55Z</time>
      </trkpt>
      <trkpt lat="44.7416" lon="1.19361">
        <ele>94.4</ele>
        <time>2022-08-12T17:45:59Z</time>
      </trkpt>
      <trkpt lat="44.7416" lon="1.19369">
        <ele>95.4</ele>
        <time>2022-08-12T17:46:03Z</time>
      </trkpt>
      <trkpt lat="44.74161" lon="1.19377">
        <ele>96.4</ele>
        <time>2022-08-12T17:46:06Z</time>
      </trkpt>
      <trkpt lat="44.74161" lon="1.19383">
        <ele>96.4</ele>
        <time>2022-08-12T17:46:09Z</time>
      </trkpt>
      <trkpt lat="44.74159" lon="1.19389">
        <ele>96.4</ele>
        <time>2022-08-12T17:46:12Z</time>
      </trkpt>
      <trkpt lat="44.74156" lon="1.19396">
        <ele>96.4</ele>
        <time>2022-08-12T17:46:17Z</time>
      </trkpt>
      <trkpt lat="44.74152" lon="1.19401">
        <ele>94.4</ele>
        <time>2022-08-12T17:46:21Z</time>
      </trkpt>
      <trkpt lat="44.74148" lon="1.19404">
        <ele>96.4</ele>
        <time>2022-08-12T17:46:28Z</time>
      </trkpt>
      <trkpt lat="44.74145" lon="1.19409">
        <ele>95.4</ele>
        <time>2022-08-12T17:46:33Z</time>
      </trkpt>
      <trkpt lat="44.74141" lon="1.19415">
        <ele>95.4</ele>
        <time>2022-08-12T17:46:38Z</time>
      </trkpt>
      <trkpt lat="44.74139" lon="1.19421">
        <ele>95.4</ele>
        <time>2022-08-12T17:46:42Z</time>
      </trkpt>
      <trkpt lat="44.74138" lon="1.19429">
        <ele>94.4</ele>
        <time>2022-08-12T17:46:46Z</time>
      </trkpt>
      <trkpt lat="44.74137" lon="1.19437">
        <ele>94.4</ele>
        <time>2022-08-12T17:46:50Z</time>
      </trkpt>
      <trkpt lat="44.74134" lon="1.19443">
        <ele>94.4</ele>
        <time>2022-08-12T17:46:53Z</time>
      </trkpt>
      <trkpt lat="44.74131" lon="1.19448">
        <ele>94.4</ele>
        <time>2022-08-12T17:46:56Z</time>
      </trkpt>
      <trkpt lat="44.74126" lon="1.19453">
        <ele>94.4</ele>
        <time>2022-08-12T17:47:00Z</time>
      </trkpt>
      <trkpt lat="44.74122" lon="1.19458">
        <ele>94.4</ele>
        <time>2022-08-12T17:47:04Z</time>
      </trkpt>
      <trkpt lat="44.74118" lon="1.19462">
        <ele>92.4</ele>
        <time>2022-08-12T17:47:07Z</time>
      </trkpt>
      <trkpt lat="44.74115" lon="1.19469">
        <ele>91.4</ele>
        <time>2022-08-12T17:47:11Z</time>
      </trkpt>
      <trkpt lat="44.74113" lon="1.19474">
        <ele>90.4</ele>
        <time>2022-08-12T17:47:14Z</time>
      </trkpt>
      <trkpt lat="44.7411" lon="1.19482">
        <ele>88.4</ele>
        <time>2022-08-12T17:47:18Z</time>
      </trkpt>
      <trkpt lat="44.74107" lon="1.19488">
        <ele>88.4</ele>
        <time>2022-08-12T17:47:21Z</time>
      </trkpt>
      <trkpt lat="44.74106" lon="1.19495">
        <ele>88.4</ele>
        <time>2022-08-12T17:47:24Z</time>
      </trkpt>
      <trkpt lat="44.74104" lon="1.19501">
        <ele>89.4</ele>
        <time>2022-08-12T17:47:27Z</time>
      </trkpt>
      <trkpt lat="44.74101" lon="1.19506">
        <ele>89.4</ele>
        <time>2022-08-12T17:47:30Z</time>
      </trkpt>
      <trkpt lat="44.74098" lon="1.19513">
        <ele>91.4</ele>
        <time>2022-08-12T17:47:34Z</time>
      </trkpt>
      <trkpt lat="44.74093" lon="1.19515">
        <ele>91.4</ele>
        <time>2022-08-12T17:47:39Z</time>
      </trkpt>
      <trkpt lat="44.7409" lon="1.19519">
        <ele>92.4</ele>
        <time>2022-08-12T17:47:42Z</time>
      </trkpt>
      <trkpt lat="44.74084" lon="1.19522">
        <ele>91.4</ele>
        <time>2022-08-12T17:47:47Z</time>
      </trkpt>
      <trkpt lat="44.74089" lon="1.19525">
        <ele>90.4</ele>
        <time>2022-08-12T17:48:01Z</time>
      </trkpt>
      <trkpt lat="44.74083" lon="1.19527">
        <ele>93.4</ele>
        <time>2022-08-12T17:48:18Z</time>
      </trkpt>
      <trkpt lat="44.74079" lon="1.19529">
        <ele>93.4</ele>
        <time>2022-08-12T17:48:22Z</time>
      </trkpt>
      <trkpt lat="44.74073" lon="1.19531">
        <ele>93.4</ele>
        <time>2022-08-12T17:48:26Z</time>
      </trkpt>
      <trkpt lat="44.74068" lon="1.19535">
        <ele>94.4</ele>
        <time>2022-08-12T17:48:30Z</time>
      </trkpt>
      <trkpt lat="44.74064" lon="1.19539">
        <ele>92.4</ele>
        <time>2022-08-12T17:48:36Z</time>
      </trkpt>
      <trkpt lat="44.74064" lon="1.19546">
        <ele>91.4</ele>
        <time>2022-08-12T17:48:42Z</time>
      </trkpt>
      <trkpt lat="44.74059" lon="1.19548">
        <ele>96.4</ele>
        <time>2022-08-12T17:49:02Z</time>
      </trkpt>
      <trkpt lat="44.74055" lon="1.19551">
        <ele>95.4</ele>
        <time>2022-08-12T17:49:06Z</time>
      </trkpt>
      <trkpt lat="44.74059" lon="1.19549">
        <ele>91.4</ele>
        <time>2022-08-12T17:49:27Z</time>
      </trkpt>
      <trkpt lat="44.74057" lon="1.19555">
        <ele>94.4</ele>
        <time>2022-08-12T17:49:36Z</time>
      </trkpt>
      <trkpt lat="44.74058" lon="1.19561">
        <ele>91.4</ele>
        <time>2022-08-12T17:49:44Z</time>
      </trkpt>
      <trkpt lat="44.74055" lon="1.19566">
        <ele>95.4</ele>
        <time>2022-08-12T17:51:01Z</time>
      </trkpt>
      <trkpt lat="44.7405" lon="1.19566">
        <ele>96.4</ele>
        <time>2022-08-12T17:53:59Z</time>
      </trkpt>
      <trkpt lat="44.74055" lon="1.19567">
        <ele>101.4</ele>
        <time>2022-08-12T17:57:20Z</time>
      </trkpt>
      <trkpt lat="44.7406" lon="1.19567">
        <ele>100.4</ele>
        <time>2022-08-12T18:15:20Z</time>
      </trkpt>
      <trkpt lat="44.74064" lon="1.19563">
        <ele>94.4</ele>
        <time>2022-08-12T18:18:00Z</time>
      </trkpt>
      <trkpt lat="44.7406" lon="1.19558">
        <ele>100.4</ele>
        <time>2022-08-12T18:18:13Z</time>
      </trkpt>
      <trkpt lat="44.74065" lon="1.1956">
        <ele>102.4</ele>
        <time>2022-08-12T18:19:01Z</time>
      </trkpt>
      <trkpt lat="44.74068" lon="1.19555">
        <ele>101.4</ele>
        <time>2022-08-12T18:19:36Z</time>
      </trkpt>
      <trkpt lat="44.74063" lon="1.19555">
        <ele>99.4</ele>
        <time>2022-08-12T18:19:42Z</time>
      </trkpt>
      <trkpt lat="44.74061" lon="1.19561">
        <ele>99.4</ele>
        <time>2022-08-12T18:19:47Z</time>
      </trkpt>
      <trkpt lat="44.74056" lon="1.19563">
        <ele>101.4</ele>
        <time>2022-08-12T18:25:22Z</time>
      </trkpt>
      <trkpt lat="44.74051" lon="1.19568">
        <ele>101.4</ele>
        <time>2022-08-12T18:25:25Z</time>
      </trkpt>
      <trkpt lat="44.74046" lon="1.19572">
        <ele>99.4</ele>
        <time>2022-08-12T18:25:28Z</time>
      </trkpt>
      <trkpt lat="44.74041" lon="1.19578">
        <ele>99.4</ele>
        <time>2022-08-12T18:25:31Z</time>
      </trkpt>
      <trkpt lat="44.74038" lon="1.19584">
        <ele>99.4</ele>
        <time>2022-08-12T18:25:33Z</time>
      </trkpt>
      <trkpt lat="44.74035" lon="1.1959">
        <ele>98.4</ele>
        <time>2022-08-12T18:25:35Z</time>
      </trkpt>
      <trkpt lat="44.74031" lon="1.19597">
        <ele>99.4</ele>
        <time>2022-08-12T18:25:37Z</time>
      </trkpt>
      <trkpt lat="44.74027" lon="1.19602">
        <ele>98.4</ele>
        <time>2022-08-12T18:25:39Z</time>
      </trkpt>
      <trkpt lat="44.74026" lon="1.1961">
        <ele>99.4</ele>
        <time>2022-08-12T18:25:42Z</time>
      </trkpt>
      <trkpt lat="44.7403" lon="1.19615">
        <ele>99.4</ele>
        <time>2022-08-12T18:25:44Z</time>
      </trkpt>
      <trkpt lat="44.74035" lon="1.19621">
        <ele>98.4</ele>
        <time>2022-08-12T18:25:47Z</time>
      </trkpt>
      <trkpt lat="44.74038" lon="1.19626">
        <ele>97.4</ele>
        <time>2022-08-12T18:25:49Z</time>
      </trkpt>
      <trkpt lat="44.74043" lon="1.19635">
        <ele>94.4</ele>
        <time>2022-08-12T18:25:51Z</time>
      </trkpt>
      <trkpt lat="44.74048" lon="1.19642">
        <ele>94.4</ele>
        <time>2022-08-12T18:25:53Z</time>
      </trkpt>
      <trkpt lat="44.74051" lon="1.19648">
        <ele>92.4</ele>
        <time>2022-08-12T18:25:56Z</time>
      </trkpt>
      <trkpt lat="44.74048" lon="1.19642">
        <ele>91.4</ele>
        <time>2022-08-12T18:27:09Z</time>
      </trkpt>
      <trkpt lat="44.74044" lon="1.19639">
        <ele>90.4</ele>
        <time>2022-08-12T18:27:11Z</time>
      </trkpt>
      <trkpt lat="44.74041" lon="1.19634">
        <ele>90.4</ele>
        <time>2022-08-12T18:27:13Z</time>
      </trkpt>
      <trkpt lat="44.74038" lon="1.19628">
        <ele>89.4</ele>
        <time>2022-08-12T18:27:15Z</time>
      </trkpt>
      <trkpt lat="44.74036" lon="1.1962">
        <ele>90.4</ele>
        <time>2022-08-12T18:27:18Z</time>
      </trkpt>
      <trkpt lat="44.74041" lon="1.19613">
        <ele>89.4</ele>
        <time>2022-08-12T18:27:21Z</time>
      </trkpt>
      <trkpt lat="44.74046" lon="1.1961">
        <ele>89.4</ele>
        <time>2022-08-12T18:27:23Z</time>
      </trkpt>
      <trkpt lat="44.74051" lon="1.19605">
        <ele>89.4</ele>
        <time>2022-08-12T18:27:25Z</time>
      </trkpt>
      <trkpt lat="44.74056" lon="1.19601">
        <ele>90.4</ele>
        <time>2022-08-12T18:27:27Z</time>
      </trkpt>
      <trkpt lat="44.74061" lon="1.19597">
        <ele>91.4</ele>
        <time>2022-08-12T18:27:29Z</time>
      </trkpt>
      <trkpt lat="44.74066" lon="1.19594">
        <ele>91.4</ele>
        <time>2022-08-12T18:27:31Z</time>
      </trkpt>
      <trkpt lat="44.74072" lon="1.1959">
        <ele>90.4</ele>
        <time>2022-08-12T18:27:33Z</time>
      </trkpt>
      <trkpt lat="44.74078" lon="1.19585">
        <ele>91.4</ele>
        <time>2022-08-12T18:27:35Z</time>
      </trkpt>
      <trkpt lat="44.74085" lon="1.19579">
        <ele>91.4</ele>
        <time>2022-08-12T18:27:37Z</time>
      </trkpt>
      <trkpt lat="44.74092" lon="1.19574">
        <ele>91.4</ele>
        <time>2022-08-12T18:27:39Z</time>
      </trkpt>
      <trkpt lat="44.74098" lon="1.19571">
        <ele>91.4</ele>
        <time>2022-08-12T18:27:41Z</time>
      </trkpt>
      <trkpt lat="44.74109" lon="1.19572">
        <ele>90.4</ele>
        <time>2022-08-12T18:27:44Z</time>
      </trkpt>
      <trkpt lat="44.74116" lon="1.19574">
        <ele>90.4</ele>
        <time>2022-08-12T18:27:46Z</time>
      </trkpt>
      <trkpt lat="44.74122" lon="1.19577">
        <ele>90.4</ele>
        <time>2022-08-12T18:27:48Z</time>
      </trkpt>
      <trkpt lat="44.7413" lon="1.19587">
        <ele>90.4</ele>
        <time>2022-08-12T18:27:51Z</time>
      </trkpt>
      <trkpt lat="44.74134" lon="1.19594">
        <ele>90.4</ele>
        <time>2022-08-12T18:27:53Z</time>
      </trkpt>
      <trkpt lat="44.74139" lon="1.19601">
        <ele>91.4</ele>
        <time>2022-08-12T18:27:55Z</time>
      </trkpt>
      <trkpt lat="44.74143" lon="1.1961">
        <ele>92.4</ele>
        <time>2022-08-12T18:27:57Z</time>
      </trkpt>
      <trkpt lat="44.74147" lon="1.19618">
        <ele>93.4</ele>
        <time>2022-08-12T18:27:59Z</time>
      </trkpt>
      <trkpt lat="44.74151" lon="1.19625">
        <ele>93.4</ele>
        <time>2022-08-12T18:28:01Z</time>
      </trkpt>
      <trkpt lat="44.74155" lon="1.19633">
        <ele>93.4</ele>
        <time>2022-08-12T18:28:03Z</time>
      </trkpt>
      <trkpt lat="44.7416" lon="1.1964">
        <ele>92.4</ele>
        <time>2022-08-12T18:28:05Z</time>
      </trkpt>
      <trkpt lat="44.74164" lon="1.19649">
        <ele>91.4</ele>
        <time>2022-08-12T18:28:07Z</time>
      </trkpt>
      <trkpt lat="44.74169" lon="1.19657">
        <ele>91.4</ele>
        <time>2022-08-12T18:28:09Z</time>
      </trkpt>
      <trkpt lat="44.74173" lon="1.19666">
        <ele>91.4</ele>
        <time>2022-08-12T18:28:11Z</time>
      </trkpt>
      <trkpt lat="44.74174" lon="1.19674">
        <ele>91.4</ele>
        <time>2022-08-12T18:28:13Z</time>
      </trkpt>
      <trkpt lat="44.74174" lon="1.19685">
        <ele>89.4</ele>
        <time>2022-08-12T18:28:15Z</time>
      </trkpt>
      <trkpt lat="44.74173" lon="1.19693">
        <ele>89.4</ele>
        <time>2022-08-12T18:28:16Z</time>
      </trkpt>
      <trkpt lat="44.7417" lon="1.197">
        <ele>88.4</ele>
        <time>2022-08-12T18:28:17Z</time>
      </trkpt>
      <trkpt lat="44.74166" lon="1.19706">
        <ele>88.4</ele>
        <time>2022-08-12T18:28:18Z</time>
      </trkpt>
      <trkpt lat="44.7416" lon="1.19711">
        <ele>88.4</ele>
        <time>2022-08-12T18:28:19Z</time>
      </trkpt>
      <trkpt lat="44.74155" lon="1.19716">
        <ele>88.4</ele>
        <time>2022-08-12T18:28:20Z</time>
      </trkpt>
      <trkpt lat="44.74149" lon="1.1972">
        <ele>88.4</ele>
        <time>2022-08-12T18:28:21Z</time>
      </trkpt>
      <trkpt lat="44.74144" lon="1.19724">
        <ele>89.4</ele>
        <time>2022-08-12T18:28:22Z</time>
      </trkpt>
      <trkpt lat="44.7414" lon="1.19729">
        <ele>89.4</ele>
        <time>2022-08-12T18:28:23Z</time>
      </trkpt>
      <trkpt lat="44.74137" lon="1.19735">
        <ele>88.4</ele>
        <time>2022-08-12T18:28:24Z</time>
      </trkpt>
      <trkpt lat="44.74134" lon="1.1974">
        <ele>88.4</ele>
        <time>2022-08-12T18:28:25Z</time>
      </trkpt>
      <trkpt lat="44.74132" lon="1.19745">
        <ele>87.4</ele>
        <time>2022-08-12T18:28:26Z</time>
      </trkpt>
      <trkpt lat="44.74127" lon="1.19756">
        <ele>87.4</ele>
        <time>2022-08-12T18:28:28Z</time>
      </trkpt>
      <trkpt lat="44.74123" lon="1.19767">
        <ele>86.4</ele>
        <time>2022-08-12T18:28:30Z</time>
      </trkpt>
      <trkpt lat="44.74118" lon="1.19777">
        <ele>86.4</ele>
        <time>2022-08-12T18:28:32Z</time>
      </trkpt>
      <trkpt lat="44.74113" lon="1.19786">
        <ele>85.4</ele>
        <time>2022-08-12T18:28:34Z</time>
      </trkpt>
      <trkpt lat="44.74108" lon="1.19793">
        <ele>86.4</ele>
        <time>2022-08-12T18:28:36Z</time>
      </trkpt>
      <trkpt lat="44.74102" lon="1.19799">
        <ele>86.4</ele>
        <time>2022-08-12T18:28:38Z</time>
      </trkpt>
      <trkpt lat="44.74097" lon="1.19804">
        <ele>85.4</ele>
        <time>2022-08-12T18:28:40Z</time>
      </trkpt>
      <trkpt lat="44.74091" lon="1.19808">
        <ele>85.4</ele>
        <time>2022-08-12T18:28:42Z</time>
      </trkpt>
      <trkpt lat="44.74084" lon="1.19811">
        <ele>85.4</ele>
        <time>2022-08-12T18:28:44Z</time>
      </trkpt>
      <trkpt lat="44.74077" lon="1.19813">
        <ele>85.4</ele>
        <time>2022-08-12T18:28:46Z</time>
      </trkpt>
      <trkpt lat="44.74071" lon="1.19816">
        <ele>85.4</ele>
        <time>2022-08-12T18:28:48Z</time>
      </trkpt>
      <trkpt lat="44.74065" lon="1.19819">
        <ele>85.4</ele>
        <time>2022-08-12T18:28:50Z</time>
      </trkpt>
      <trkpt lat="44.74059" lon="1.19821">
        <ele>85.4</ele>
        <time>2022-08-12T18:28:52Z</time>
      </trkpt>
      <trkpt lat="44.74054" lon="1.19823">
        <ele>86.4</ele>
        <time>2022-08-12T18:28:54Z</time>
      </trkpt>
      <trkpt lat="44.74049" lon="1.19824">
        <ele>86.4</ele>
        <time>2022-08-12T18:28:56Z</time>
      </trkpt>
      <trkpt lat="44.74043" lon="1.19825">
        <ele>86.4</ele>
        <time>2022-08-12T18:28:58Z</time>
      </trkpt>
      <trkpt lat="44.74037" lon="1.19828">
        <ele>86.4</ele>
        <time>2022-08-12T18:29:01Z</time>
      </trkpt>
      <trkpt lat="44.74031" lon="1.19829">
        <ele>86.4</ele>
        <time>2022-08-12T18:29:03Z</time>
      </trkpt>
      <trkpt lat="44.74025" lon="1.19828">
        <ele>86.4</ele>
        <time>2022-08-12T18:29:05Z</time>
      </trkpt>
      <trkpt lat="44.74019" lon="1.19832">
        <ele>87.4</ele>
        <time>2022-08-12T18:29:08Z</time>
      </trkpt>
      <trkpt lat="44.74014" lon="1.19834">
        <ele>87.4</ele>
        <time>2022-08-12T18:29:10Z</time>
      </trkpt>
      <trkpt lat="44.74008" lon="1.19833">
        <ele>89.4</ele>
        <time>2022-08-12T18:29:12Z</time>
      </trkpt>
      <trkpt lat="44.74002" lon="1.19834">
        <ele>89.4</ele>
        <time>2022-08-12T18:29:14Z</time>
      </trkpt>
      <trkpt lat="44.74" lon="1.19842">
        <ele>88.4</ele>
        <time>2022-08-12T18:29:16Z</time>
      </trkpt>
      <trkpt lat="44.73997" lon="1.1985">
        <ele>88.4</ele>
        <time>2022-08-12T18:29:18Z</time>
      </trkpt>
      <trkpt lat="44.73995" lon="1.19856">
        <ele>89.4</ele>
        <time>2022-08-12T18:29:20Z</time>
      </trkpt>
      <trkpt lat="44.73991" lon="1.19862">
        <ele>89.4</ele>
        <time>2022-08-12T18:29:22Z</time>
      </trkpt>
      <trkpt lat="44.73986" lon="1.19865">
        <ele>93.4</ele>
        <time>2022-08-12T18:29:37Z</time>
      </trkpt>
      <trkpt lat="44.73986" lon="1.19873">
        <ele>90.4</ele>
        <time>2022-08-12T18:29:48Z</time>
      </trkpt>
      <trkpt lat="44.73984" lon="1.19881">
        <ele>89.4</ele>
        <time>2022-08-12T18:29:53Z</time>
      </trkpt>
      <trkpt lat="44.73981" lon="1.1989">
        <ele>89.4</ele>
        <time>2022-08-12T18:29:56Z</time>
      </trkpt>
      <trkpt lat="44.7398" lon="1.199">
        <ele>87.4</ele>
        <time>2022-08-12T18:29:59Z</time>
      </trkpt>
      <trkpt lat="44.73977" lon="1.19906">
        <ele>86.4</ele>
        <time>2022-08-12T18:30:01Z</time>
      </trkpt>
      <trkpt lat="44.73975" lon="1.19912">
        <ele>86.4</ele>
        <time>2022-08-12T18:30:03Z</time>
      </trkpt>
      <trkpt lat="44.73972" lon="1.19919">
        <ele>85.4</ele>
        <time>2022-08-12T18:30:05Z</time>
      </trkpt>
      <trkpt lat="44.73971" lon="1.19926">
        <ele>85.4</ele>
        <time>2022-08-12T18:30:07Z</time>
      </trkpt>
      <trkpt lat="44.73971" lon="1.19937">
        <ele>86.4</ele>
        <time>2022-08-12T18:30:11Z</time>
      </trkpt>
      <trkpt lat="44.73969" lon="1.19946">
        <ele>86.4</ele>
        <time>2022-08-12T18:30:14Z</time>
      </trkpt>
      <trkpt lat="44.73966" lon="1.19951">
        <ele>86.4</ele>
        <time>2022-08-12T18:30:16Z</time>
      </trkpt>
      <trkpt lat="44.73962" lon="1.19955">
        <ele>85.4</ele>
        <time>2022-08-12T18:30:18Z</time>
      </trkpt>
      <trkpt lat="44.73957" lon="1.19959">
        <ele>86.4</ele>
        <time>2022-08-12T18:30:21Z</time>
      </trkpt>
      <trkpt lat="44.73952" lon="1.19962">
        <ele>87.4</ele>
        <time>2022-08-12T18:30:23Z</time>
      </trkpt>
      <trkpt lat="44.73947" lon="1.19964">
        <ele>89.4</ele>
        <time>2022-08-12T18:30:26Z</time>
      </trkpt>
      <trkpt lat="44.73943" lon="1.19965">
        <ele>89.4</ele>
        <time>2022-08-12T18:30:28Z</time>
      </trkpt>
      <trkpt lat="44.73936" lon="1.19965">
        <ele>90.4</ele>
        <time>2022-08-12T18:30:43Z</time>
      </trkpt>
      <trkpt lat="44.73932" lon="1.19965">
        <ele>91.4</ele>
        <time>2022-08-12T18:30:46Z</time>
      </trkpt>
      <trkpt lat="44.73925" lon="1.19966">
        <ele>92.4</ele>
        <time>2022-08-12T18:30:50Z</time>
      </trkpt>
      <trkpt lat="44.73919" lon="1.19967">
        <ele>93.4</ele>
        <time>2022-08-12T18:30:53Z</time>
      </trkpt>
      <trkpt lat="44.73915" lon="1.19971">
        <ele>94.4</ele>
        <time>2022-08-12T18:31:16Z</time>
      </trkpt>
      <trkpt lat="44.73906" lon="1.19971">
        <ele>93.4</ele>
        <time>2022-08-12T18:31:20Z</time>
      </trkpt>
      <trkpt lat="44.73902" lon="1.19975">
        <ele>94.4</ele>
        <time>2022-08-12T18:31:22Z</time>
      </trkpt>
      <trkpt lat="44.73897" lon="1.19978">
        <ele>95.4</ele>
        <time>2022-08-12T18:31:25Z</time>
      </trkpt>
      <trkpt lat="44.73892" lon="1.19982">
        <ele>94.4</ele>
        <time>2022-08-12T18:31:28Z</time>
      </trkpt>
      <trkpt lat="44.73887" lon="1.19989">
        <ele>93.4</ele>
        <time>2022-08-12T18:31:31Z</time>
      </trkpt>
      <trkpt lat="44.73884" lon="1.19996">
        <ele>93.4</ele>
        <time>2022-08-12T18:31:34Z</time>
      </trkpt>
      <trkpt lat="44.73882" lon="1.20003">
        <ele>93.4</ele>
        <time>2022-08-12T18:31:38Z</time>
      </trkpt>
      <trkpt lat="44.73881" lon="1.2001">
        <ele>95.4</ele>
        <time>2022-08-12T18:31:42Z</time>
      </trkpt>
      <trkpt lat="44.7388" lon="1.20017">
        <ele>95.4</ele>
        <time>2022-08-12T18:31:45Z</time>
      </trkpt>
      <trkpt lat="44.73878" lon="1.20025">
        <ele>96.4</ele>
        <time>2022-08-12T18:31:49Z</time>
      </trkpt>
      <trkpt lat="44.73877" lon="1.20033">
        <ele>97.4</ele>
        <time>2022-08-12T18:31:53Z</time>
      </trkpt>
      <trkpt lat="44.73878" lon="1.20041">
        <ele>97.4</ele>
        <time>2022-08-12T18:31:59Z</time>
      </trkpt>
      <trkpt lat="44.73876" lon="1.20047">
        <ele>97.4</ele>
        <time>2022-08-12T18:32:04Z</time>
      </trkpt>
      <trkpt lat="44.7387" lon="1.2005">
        <ele>97.4</ele>
        <time>2022-08-12T18:32:06Z</time>
      </trkpt>
      <trkpt lat="44.73865" lon="1.20054">
        <ele>97.4</ele>
        <time>2022-08-12T18:32:08Z</time>
      </trkpt>
      <trkpt lat="44.73865" lon="1.20061">
        <ele>98.4</ele>
        <time>2022-08-12T18:32:10Z</time>
      </trkpt>
      <trkpt lat="44.73868" lon="1.20069">
        <ele>98.4</ele>
        <time>2022-08-12T18:32:12Z</time>
      </trkpt>
      <trkpt lat="44.73873" lon="1.20077">
        <ele>99.4</ele>
        <time>2022-08-12T18:32:14Z</time>
      </trkpt>
      <trkpt lat="44.73878" lon="1.20084">
        <ele>97.4</ele>
        <time>2022-08-12T18:32:16Z</time>
      </trkpt>
      <trkpt lat="44.73878" lon="1.20092">
        <ele>96.4</ele>
        <time>2022-08-12T18:32:18Z</time>
      </trkpt>
      <trkpt lat="44.73875" lon="1.20098">
        <ele>96.4</ele>
        <time>2022-08-12T18:32:19Z</time>
      </trkpt>
      <trkpt lat="44.73867" lon="1.20104">
        <ele>96.4</ele>
        <time>2022-08-12T18:32:20Z</time>
      </trkpt>
      <trkpt lat="44.73861" lon="1.2011">
        <ele>97.4</ele>
        <time>2022-08-12T18:32:21Z</time>
      </trkpt>
      <trkpt lat="44.73856" lon="1.20116">
        <ele>97.4</ele>
        <time>2022-08-12T18:32:22Z</time>
      </trkpt>
      <trkpt lat="44.73851" lon="1.20123">
        <ele>97.4</ele>
        <time>2022-08-12T18:32:23Z</time>
      </trkpt>
      <trkpt lat="44.73848" lon="1.2013">
        <ele>97.4</ele>
        <time>2022-08-12T18:32:24Z</time>
      </trkpt>
      <trkpt lat="44.73846" lon="1.20138">
        <ele>97.4</ele>
        <time>2022-08-12T18:32:25Z</time>
      </trkpt>
      <trkpt lat="44.73845" lon="1.20146">
        <ele>97.4</ele>
        <time>2022-08-12T18:32:26Z</time>
      </trkpt>
      <trkpt lat="44.73845" lon="1.20154">
        <ele>97.4</ele>
        <time>2022-08-12T18:32:27Z</time>
      </trkpt>
      <trkpt lat="44.73843" lon="1.20162">
        <ele>96.4</ele>
        <time>2022-08-12T18:32:28Z</time>
      </trkpt>
      <trkpt lat="44.73841" lon="1.2017">
        <ele>96.4</ele>
        <time>2022-08-12T18:32:29Z</time>
      </trkpt>
      <trkpt lat="44.73837" lon="1.20178">
        <ele>95.4</ele>
        <time>2022-08-12T18:32:30Z</time>
      </trkpt>
      <trkpt lat="44.73833" lon="1.20184">
        <ele>95.4</ele>
        <time>2022-08-12T18:32:31Z</time>
      </trkpt>
      <trkpt lat="44.73828" lon="1.2019">
        <ele>95.4</ele>
        <time>2022-08-12T18:32:32Z</time>
      </trkpt>
      <trkpt lat="44.73823" lon="1.20197">
        <ele>95.4</ele>
        <time>2022-08-12T18:32:33Z</time>
      </trkpt>
      <trkpt lat="44.73819" lon="1.20204">
        <ele>95.4</ele>
        <time>2022-08-12T18:32:34Z</time>
      </trkpt>
      <trkpt lat="44.73817" lon="1.20211">
        <ele>95.4</ele>
        <time>2022-08-12T18:32:35Z</time>
      </trkpt>
      <trkpt lat="44.73818" lon="1.20219">
        <ele>96.4</ele>
        <time>2022-08-12T18:32:36Z</time>
      </trkpt>
      <trkpt lat="44.73819" lon="1.20228">
        <ele>96.4</ele>
        <time>2022-08-12T18:32:37Z</time>
      </trkpt>
      <trkpt lat="44.73821" lon="1.20236">
        <ele>95.4</ele>
        <time>2022-08-12T18:32:38Z</time>
      </trkpt>
      <trkpt lat="44.73823" lon="1.20244">
        <ele>96.4</ele>
        <time>2022-08-12T18:32:39Z</time>
      </trkpt>
      <trkpt lat="44.73825" lon="1.20251">
        <ele>96.4</ele>
        <time>2022-08-12T18:32:40Z</time>
      </trkpt>
      <trkpt lat="44.73827" lon="1.20257">
        <ele>96.4</ele>
        <time>2022-08-12T18:32:41Z</time>
      </trkpt>
      <trkpt lat="44.73828" lon="1.20263">
        <ele>96.4</ele>
        <time>2022-08-12T18:32:42Z</time>
      </trkpt>
      <trkpt lat="44.73829" lon="1.20273">
        <ele>94.4</ele>
        <time>2022-08-12T18:32:44Z</time>
      </trkpt>
      <trkpt lat="44.73831" lon="1.20282">
        <ele>93.4</ele>
        <time>2022-08-12T18:32:46Z</time>
      </trkpt>
      <trkpt lat="44.73829" lon="1.20291">
        <ele>91.4</ele>
        <time>2022-08-12T18:32:48Z</time>
      </trkpt>
      <trkpt lat="44.73825" lon="1.203">
        <ele>90.4</ele>
        <time>2022-08-12T18:32:50Z</time>
      </trkpt>
      <trkpt lat="44.7382" lon="1.20306">
        <ele>90.4</ele>
        <time>2022-08-12T18:32:52Z</time>
      </trkpt>
      <trkpt lat="44.73815" lon="1.2031">
        <ele>90.4</ele>
        <time>2022-08-12T18:32:54Z</time>
      </trkpt>
      <trkpt lat="44.7381" lon="1.20312">
        <ele>90.4</ele>
        <time>2022-08-12T18:32:56Z</time>
      </trkpt>
      <trkpt lat="44.73805" lon="1.20316">
        <ele>90.4</ele>
        <time>2022-08-12T18:32:59Z</time>
      </trkpt>
      <trkpt lat="44.73799" lon="1.2032">
        <ele>90.4</ele>
        <time>2022-08-12T18:33:02Z</time>
      </trkpt>
      <trkpt lat="44.73795" lon="1.20322">
        <ele>91.4</ele>
        <time>2022-08-12T18:33:05Z</time>
      </trkpt>
      <trkpt lat="44.73792" lon="1.2033">
        <ele>91.4</ele>
        <time>2022-08-12T18:33:09Z</time>
      </trkpt>
      <trkpt lat="44.73789" lon="1.20337">
        <ele>92.4</ele>
        <time>2022-08-12T18:33:13Z</time>
      </trkpt>
      <trkpt lat="44.73787" lon="1.20344">
        <ele>95.4</ele>
        <time>2022-08-12T18:33:17Z</time>
      </trkpt>
      <trkpt lat="44.73785" lon="1.2035">
        <ele>96.4</ele>
        <time>2022-08-12T18:33:21Z</time>
      </trkpt>
      <trkpt lat="44.73783" lon="1.20356">
        <ele>99.4</ele>
        <time>2022-08-12T18:33:25Z</time>
      </trkpt>
      <trkpt lat="44.73782" lon="1.20363">
        <ele>100.4</ele>
        <time>2022-08-12T18:33:29Z</time>
      </trkpt>
      <trkpt lat="44.73781" lon="1.2037">
        <ele>101.4</ele>
        <time>2022-08-12T18:33:33Z</time>
      </trkpt>
      <trkpt lat="44.73778" lon="1.20376">
        <ele>103.4</ele>
        <time>2022-08-12T18:33:37Z</time>
      </trkpt>
      <trkpt lat="44.73775" lon="1.20383">
        <ele>104.4</ele>
        <time>2022-08-12T18:33:40Z</time>
      </trkpt>
      <trkpt lat="44.73773" lon="1.2039">
        <ele>106.4</ele>
        <time>2022-08-12T18:33:44Z</time>
      </trkpt>
      <trkpt lat="44.73771" lon="1.20398">
        <ele>106.4</ele>
        <time>2022-08-12T18:33:48Z</time>
      </trkpt>
      <trkpt lat="44.7377" lon="1.20405">
        <ele>107.4</ele>
        <time>2022-08-12T18:33:51Z</time>
      </trkpt>
      <trkpt lat="44.73773" lon="1.20411">
        <ele>107.4</ele>
        <time>2022-08-12T18:33:55Z</time>
      </trkpt>
      <trkpt lat="44.73776" lon="1.20417">
        <ele>106.4</ele>
        <time>2022-08-12T18:33:58Z</time>
      </trkpt>
      <trkpt lat="44.7378" lon="1.20421">
        <ele>104.4</ele>
        <time>2022-08-12T18:34:01Z</time>
      </trkpt>
      <trkpt lat="44.73783" lon="1.20427">
        <ele>102.4</ele>
        <time>2022-08-12T18:34:04Z</time>
      </trkpt>
      <trkpt lat="44.73785" lon="1.20434">
        <ele>102.4</ele>
        <time>2022-08-12T18:34:07Z</time>
      </trkpt>
      <trkpt lat="44.73784" lon="1.20441">
        <ele>105.4</ele>
        <time>2022-08-12T18:34:11Z</time>
      </trkpt>
      <trkpt lat="44.73785" lon="1.20448">
        <ele>106.4</ele>
        <time>2022-08-12T18:34:14Z</time>
      </trkpt>
      <trkpt lat="44.73785" lon="1.20455">
        <ele>107.4</ele>
        <time>2022-08-12T18:34:17Z</time>
      </trkpt>
      <trkpt lat="44.73786" lon="1.20462">
        <ele>109.4</ele>
        <time>2022-08-12T18:34:20Z</time>
      </trkpt>
      <trkpt lat="44.73784" lon="1.2047">
        <ele>110.4</ele>
        <time>2022-08-12T18:34:23Z</time>
      </trkpt>
      <trkpt lat="44.73787" lon="1.20479">
        <ele>113.4</ele>
        <time>2022-08-12T18:34:26Z</time>
      </trkpt>
      <trkpt lat="44.73787" lon="1.20488">
        <ele>115.4</ele>
        <time>2022-08-12T18:34:29Z</time>
      </trkpt>
      <trkpt lat="44.73786" lon="1.20497">
        <ele>116.4</ele>
        <time>2022-08-12T18:34:31Z</time>
      </trkpt>
      <trkpt lat="44.73785" lon="1.20504">
        <ele>117.4</ele>
        <time>2022-08-12T18:34:33Z</time>
      </trkpt>
      <trkpt lat="44.73785" lon="1.20512">
        <ele>116.4</ele>
        <time>2022-08-12T18:34:35Z</time>
      </trkpt>
      <trkpt lat="44.73786" lon="1.20521">
        <ele>114.4</ele>
        <time>2022-08-12T18:34:37Z</time>
      </trkpt>
      <trkpt lat="44.73787" lon="1.2053">
        <ele>113.4</ele>
        <time>2022-08-12T18:34:39Z</time>
      </trkpt>
      <trkpt lat="44.73787" lon="1.20538">
        <ele>112.4</ele>
        <time>2022-08-12T18:34:41Z</time>
      </trkpt>
      <trkpt lat="44.73788" lon="1.20548">
        <ele>111.4</ele>
        <time>2022-08-12T18:34:43Z</time>
      </trkpt>
      <trkpt lat="44.73788" lon="1.20557">
        <ele>110.4</ele>
        <time>2022-08-12T18:34:45Z</time>
      </trkpt>
      <trkpt lat="44.73789" lon="1.20569">
        <ele>109.4</ele>
        <time>2022-08-12T18:34:47Z</time>
      </trkpt>
      <trkpt lat="44.73789" lon="1.2058">
        <ele>110.4</ele>
        <time>2022-08-12T18:34:49Z</time>
      </trkpt>
      <trkpt lat="44.73789" lon="1.20591">
        <ele>110.4</ele>
        <time>2022-08-12T18:34:51Z</time>
      </trkpt>
      <trkpt lat="44.73789" lon="1.20608">
        <ele>109.4</ele>
        <time>2022-08-12T18:34:54Z</time>
      </trkpt>
      <trkpt lat="44.73788" lon="1.20621">
        <ele>109.4</ele>
        <time>2022-08-12T18:34:56Z</time>
      </trkpt>
      <trkpt lat="44.73788" lon="1.20627">
        <ele>109.4</ele>
        <time>2022-08-12T18:34:57Z</time>
      </trkpt>
      <trkpt lat="44.73787" lon="1.20633">
        <ele>109.4</ele>
        <time>2022-08-12T18:34:58Z</time>
      </trkpt>
      <trkpt lat="44.73786" lon="1.20645">
        <ele>110.4</ele>
        <time>2022-08-12T18:35:00Z</time>
      </trkpt>
      <trkpt lat="44.73786" lon="1.20651">
        <ele>109.4</ele>
        <time>2022-08-12T18:35:01Z</time>
      </trkpt>
      <trkpt lat="44.73785" lon="1.20659">
        <ele>110.4</ele>
        <time>2022-08-12T18:35:02Z</time>
      </trkpt>
      <trkpt lat="44.73784" lon="1.20666">
        <ele>109.4</ele>
        <time>2022-08-12T18:35:03Z</time>
      </trkpt>
      <trkpt lat="44.73783" lon="1.20675">
        <ele>109.4</ele>
        <time>2022-08-12T18:35:04Z</time>
      </trkpt>
      <trkpt lat="44.73783" lon="1.20683">
        <ele>109.4</ele>
        <time>2022-08-12T18:35:05Z</time>
      </trkpt>
      <trkpt lat="44.73782" lon="1.20692">
        <ele>108.4</ele>
        <time>2022-08-12T18:35:06Z</time>
      </trkpt>
      <trkpt lat="44.73781" lon="1.20703">
        <ele>107.4</ele>
        <time>2022-08-12T18:35:07Z</time>
      </trkpt>
      <trkpt lat="44.7378" lon="1.20714">
        <ele>106.4</ele>
        <time>2022-08-12T18:35:08Z</time>
      </trkpt>
      <trkpt lat="44.73778" lon="1.20726">
        <ele>104.4</ele>
        <time>2022-08-12T18:35:09Z</time>
      </trkpt>
      <trkpt lat="44.73777" lon="1.20738">
        <ele>103.4</ele>
        <time>2022-08-12T18:35:10Z</time>
      </trkpt>
      <trkpt lat="44.73776" lon="1.2075">
        <ele>102.4</ele>
        <time>2022-08-12T18:35:11Z</time>
      </trkpt>
      <trkpt lat="44.73775" lon="1.20761">
        <ele>102.4</ele>
        <time>2022-08-12T18:35:12Z</time>
      </trkpt>
      <trkpt lat="44.73774" lon="1.20771">
        <ele>102.4</ele>
        <time>2022-08-12T18:35:13Z</time>
      </trkpt>
      <trkpt lat="44.73773" lon="1.20779">
        <ele>103.4</ele>
        <time>2022-08-12T18:35:14Z</time>
      </trkpt>
      <trkpt lat="44.73771" lon="1.20786">
        <ele>103.4</ele>
        <time>2022-08-12T18:35:15Z</time>
      </trkpt>
      <trkpt lat="44.73767" lon="1.20793">
        <ele>103.4</ele>
        <time>2022-08-12T18:35:16Z</time>
      </trkpt>
      <trkpt lat="44.73764" lon="1.20799">
        <ele>103.4</ele>
        <time>2022-08-12T18:35:17Z</time>
      </trkpt>
      <trkpt lat="44.73761" lon="1.20803">
        <ele>103.4</ele>
        <time>2022-08-12T18:35:18Z</time>
      </trkpt>
      <trkpt lat="44.73756" lon="1.20807">
        <ele>102.4</ele>
        <time>2022-08-12T18:35:19Z</time>
      </trkpt>
      <trkpt lat="44.73751" lon="1.20809">
        <ele>102.4</ele>
        <time>2022-08-12T18:35:20Z</time>
      </trkpt>
      <trkpt lat="44.73746" lon="1.20809">
        <ele>102.4</ele>
        <time>2022-08-12T18:35:21Z</time>
      </trkpt>
      <trkpt lat="44.7374" lon="1.20809">
        <ele>101.4</ele>
        <time>2022-08-12T18:35:22Z</time>
      </trkpt>
      <trkpt lat="44.73733" lon="1.20808">
        <ele>101.4</ele>
        <time>2022-08-12T18:35:23Z</time>
      </trkpt>
      <trkpt lat="44.73726" lon="1.20805">
        <ele>100.4</ele>
        <time>2022-08-12T18:35:24Z</time>
      </trkpt>
      <trkpt lat="44.73718" lon="1.20803">
        <ele>100.4</ele>
        <time>2022-08-12T18:35:25Z</time>
      </trkpt>
      <trkpt lat="44.73711" lon="1.20801">
        <ele>100.4</ele>
        <time>2022-08-12T18:35:26Z</time>
      </trkpt>
      <trkpt lat="44.73703" lon="1.20798">
        <ele>100.4</ele>
        <time>2022-08-12T18:35:27Z</time>
      </trkpt>
      <trkpt lat="44.73697" lon="1.20795">
        <ele>99.4</ele>
        <time>2022-08-12T18:35:28Z</time>
      </trkpt>
      <trkpt lat="44.7369" lon="1.20791">
        <ele>99.4</ele>
        <time>2022-08-12T18:35:29Z</time>
      </trkpt>
      <trkpt lat="44.73684" lon="1.20786">
        <ele>99.4</ele>
        <time>2022-08-12T18:35:30Z</time>
      </trkpt>
      <trkpt lat="44.73679" lon="1.20781">
        <ele>99.4</ele>
        <time>2022-08-12T18:35:31Z</time>
      </trkpt>
      <trkpt lat="44.73673" lon="1.20777">
        <ele>98.4</ele>
        <time>2022-08-12T18:35:32Z</time>
      </trkpt>
      <trkpt lat="44.73667" lon="1.20772">
        <ele>98.4</ele>
        <time>2022-08-12T18:35:33Z</time>
      </trkpt>
      <trkpt lat="44.73662" lon="1.20768">
        <ele>97.4</ele>
        <time>2022-08-12T18:35:34Z</time>
      </trkpt>
      <trkpt lat="44.73657" lon="1.20764">
        <ele>97.4</ele>
        <time>2022-08-12T18:35:35Z</time>
      </trkpt>
      <trkpt lat="44.73653" lon="1.20761">
        <ele>97.4</ele>
        <time>2022-08-12T18:35:36Z</time>
      </trkpt>
      <trkpt lat="44.73647" lon="1.20757">
        <ele>97.4</ele>
        <time>2022-08-12T18:35:37Z</time>
      </trkpt>
      <trkpt lat="44.73642" lon="1.20753">
        <ele>97.4</ele>
        <time>2022-08-12T18:35:38Z</time>
      </trkpt>
      <trkpt lat="44.73638" lon="1.2075">
        <ele>97.4</ele>
        <time>2022-08-12T18:35:39Z</time>
      </trkpt>
      <trkpt lat="44.73633" lon="1.20747">
        <ele>97.4</ele>
        <time>2022-08-12T18:35:40Z</time>
      </trkpt>
      <trkpt lat="44.73626" lon="1.20742">
        <ele>98.4</ele>
        <time>2022-08-12T18:35:42Z</time>
      </trkpt>
      <trkpt lat="44.7362" lon="1.20738">
        <ele>98.4</ele>
        <time>2022-08-12T18:35:44Z</time>
      </trkpt>
      <trkpt lat="44.73615" lon="1.20734">
        <ele>98.4</ele>
        <time>2022-08-12T18:35:46Z</time>
      </trkpt>
      <trkpt lat="44.73611" lon="1.20729">
        <ele>98.4</ele>
        <time>2022-08-12T18:35:48Z</time>
      </trkpt>
      <trkpt lat="44.73607" lon="1.20724">
        <ele>98.4</ele>
        <time>2022-08-12T18:35:50Z</time>
      </trkpt>
      <trkpt lat="44.73603" lon="1.2072">
        <ele>98.4</ele>
        <time>2022-08-12T18:35:52Z</time>
      </trkpt>
      <trkpt lat="44.736" lon="1.20714">
        <ele>99.4</ele>
        <time>2022-08-12T18:35:54Z</time>
      </trkpt>
      <trkpt lat="44.73596" lon="1.20708">
        <ele>99.4</ele>
        <time>2022-08-12T18:35:56Z</time>
      </trkpt>
      <trkpt lat="44.73592" lon="1.20703">
        <ele>99.4</ele>
        <time>2022-08-12T18:35:58Z</time>
      </trkpt>
      <trkpt lat="44.73589" lon="1.20698">
        <ele>99.4</ele>
        <time>2022-08-12T18:36:00Z</time>
      </trkpt>
      <trkpt lat="44.73586" lon="1.20693">
        <ele>99.4</ele>
        <time>2022-08-12T18:36:02Z</time>
      </trkpt>
      <trkpt lat="44.73581" lon="1.20688">
        <ele>99.4</ele>
        <time>2022-08-12T18:36:04Z</time>
      </trkpt>
      <trkpt lat="44.73576" lon="1.20683">
        <ele>99.4</ele>
        <time>2022-08-12T18:36:06Z</time>
      </trkpt>
      <trkpt lat="44.73571" lon="1.20679">
        <ele>100.4</ele>
        <time>2022-08-12T18:36:08Z</time>
      </trkpt>
      <trkpt lat="44.73565" lon="1.20672">
        <ele>101.4</ele>
        <time>2022-08-12T18:36:11Z</time>
      </trkpt>
      <trkpt lat="44.73561" lon="1.20665">
        <ele>101.4</ele>
        <time>2022-08-12T18:36:14Z</time>
      </trkpt>
      <trkpt lat="44.73557" lon="1.20662">
        <ele>102.4</ele>
        <time>2022-08-12T18:36:16Z</time>
      </trkpt>
      <trkpt lat="44.73552" lon="1.20659">
        <ele>102.4</ele>
        <time>2022-08-12T18:36:18Z</time>
      </trkpt>
      <trkpt lat="44.73549" lon="1.20655">
        <ele>102.4</ele>
        <time>2022-08-12T18:36:20Z</time>
      </trkpt>
      <trkpt lat="44.73545" lon="1.20649">
        <ele>102.4</ele>
        <time>2022-08-12T18:36:22Z</time>
      </trkpt>
      <trkpt lat="44.7354" lon="1.20643">
        <ele>101.4</ele>
        <time>2022-08-12T18:36:24Z</time>
      </trkpt>
      <trkpt lat="44.73535" lon="1.20638">
        <ele>101.4</ele>
        <time>2022-08-12T18:36:26Z</time>
      </trkpt>
      <trkpt lat="44.73531" lon="1.20632">
        <ele>102.4</ele>
        <time>2022-08-12T18:36:28Z</time>
      </trkpt>
      <trkpt lat="44.73526" lon="1.20628">
        <ele>101.4</ele>
        <time>2022-08-12T18:36:30Z</time>
      </trkpt>
      <trkpt lat="44.73521" lon="1.20623">
        <ele>101.4</ele>
        <time>2022-08-12T18:36:32Z</time>
      </trkpt>
      <trkpt lat="44.73515" lon="1.20617">
        <ele>101.4</ele>
        <time>2022-08-12T18:36:34Z</time>
      </trkpt>
      <trkpt lat="44.7351" lon="1.20611">
        <ele>101.4</ele>
        <time>2022-08-12T18:36:36Z</time>
      </trkpt>
      <trkpt lat="44.73505" lon="1.20606">
        <ele>101.4</ele>
        <time>2022-08-12T18:36:38Z</time>
      </trkpt>
      <trkpt lat="44.735" lon="1.20602">
        <ele>101.4</ele>
        <time>2022-08-12T18:36:40Z</time>
      </trkpt>
      <trkpt lat="44.73492" lon="1.20596">
        <ele>101.4</ele>
        <time>2022-08-12T18:36:42Z</time>
      </trkpt>
      <trkpt lat="44.73486" lon="1.20589">
        <ele>101.4</ele>
        <time>2022-08-12T18:36:44Z</time>
      </trkpt>
      <trkpt lat="44.73481" lon="1.20587">
        <ele>101.4</ele>
        <time>2022-08-12T18:36:45Z</time>
      </trkpt>
      <trkpt lat="44.73474" lon="1.20582">
        <ele>102.4</ele>
        <time>2022-08-12T18:36:47Z</time>
      </trkpt>
      <trkpt lat="44.73468" lon="1.20578">
        <ele>102.4</ele>
        <time>2022-08-12T18:36:49Z</time>
      </trkpt>
      <trkpt lat="44.7346" lon="1.20573">
        <ele>100.4</ele>
        <time>2022-08-12T18:36:51Z</time>
      </trkpt>
      <trkpt lat="44.73455" lon="1.2057">
        <ele>101.4</ele>
        <time>2022-08-12T18:36:52Z</time>
      </trkpt>
      <trkpt lat="44.73451" lon="1.20566">
        <ele>101.4</ele>
        <time>2022-08-12T18:36:53Z</time>
      </trkpt>
      <trkpt lat="44.73446" lon="1.20562">
        <ele>101.4</ele>
        <time>2022-08-12T18:36:54Z</time>
      </trkpt>
      <trkpt lat="44.73441" lon="1.20558">
        <ele>100.4</ele>
        <time>2022-08-12T18:36:55Z</time>
      </trkpt>
      <trkpt lat="44.73435" lon="1.20554">
        <ele>100.4</ele>
        <time>2022-08-12T18:36:56Z</time>
      </trkpt>
      <trkpt lat="44.73429" lon="1.20551">
        <ele>100.4</ele>
        <time>2022-08-12T18:36:57Z</time>
      </trkpt>
      <trkpt lat="44.73423" lon="1.20547">
        <ele>100.4</ele>
        <time>2022-08-12T18:36:58Z</time>
      </trkpt>
      <trkpt lat="44.73417" lon="1.20545">
        <ele>100.4</ele>
        <time>2022-08-12T18:36:59Z</time>
      </trkpt>
      <trkpt lat="44.73411" lon="1.20542">
        <ele>99.4</ele>
        <time>2022-08-12T18:37:00Z</time>
      </trkpt>
      <trkpt lat="44.73404" lon="1.20539">
        <ele>100.4</ele>
        <time>2022-08-12T18:37:01Z</time>
      </trkpt>
      <trkpt lat="44.73397" lon="1.20535">
        <ele>100.4</ele>
        <time>2022-08-12T18:37:02Z</time>
      </trkpt>
      <trkpt lat="44.73392" lon="1.20532">
        <ele>100.4</ele>
        <time>2022-08-12T18:37:03Z</time>
      </trkpt>
      <trkpt lat="44.73386" lon="1.2053">
        <ele>99.4</ele>
        <time>2022-08-12T18:37:04Z</time>
      </trkpt>
      <trkpt lat="44.73379" lon="1.20526">
        <ele>99.4</ele>
        <time>2022-08-12T18:37:06Z</time>
      </trkpt>
      <trkpt lat="44.73372" lon="1.20522">
        <ele>98.4</ele>
        <time>2022-08-12T18:37:08Z</time>
      </trkpt>
      <trkpt lat="44.73362" lon="1.20517">
        <ele>98.4</ele>
        <time>2022-08-12T18:37:11Z</time>
      </trkpt>
      <trkpt lat="44.73355" lon="1.20513">
        <ele>97.4</ele>
        <time>2022-08-12T18:37:13Z</time>
      </trkpt>
      <trkpt lat="44.73349" lon="1.2051">
        <ele>97.4</ele>
        <time>2022-08-12T18:37:15Z</time>
      </trkpt>
      <trkpt lat="44.73342" lon="1.2051">
        <ele>97.4</ele>
        <time>2022-08-12T18:37:17Z</time>
      </trkpt>
      <trkpt lat="44.73337" lon="1.2051">
        <ele>96.4</ele>
        <time>2022-08-12T18:37:18Z</time>
      </trkpt>
      <trkpt lat="44.73328" lon="1.20509">
        <ele>96.4</ele>
        <time>2022-08-12T18:37:20Z</time>
      </trkpt>
      <trkpt lat="44.7332" lon="1.20506">
        <ele>96.4</ele>
        <time>2022-08-12T18:37:22Z</time>
      </trkpt>
      <trkpt lat="44.73312" lon="1.20504">
        <ele>96.4</ele>
        <time>2022-08-12T18:37:24Z</time>
      </trkpt>
      <trkpt lat="44.73304" lon="1.20502">
        <ele>96.4</ele>
        <time>2022-08-12T18:37:26Z</time>
      </trkpt>
      <trkpt lat="44.73297" lon="1.205">
        <ele>96.4</ele>
        <time>2022-08-12T18:37:28Z</time>
      </trkpt>
      <trkpt lat="44.7329" lon="1.20498">
        <ele>97.4</ele>
        <time>2022-08-12T18:37:30Z</time>
      </trkpt>
      <trkpt lat="44.73283" lon="1.20498">
        <ele>97.4</ele>
        <time>2022-08-12T18:37:32Z</time>
      </trkpt>
      <trkpt lat="44.73276" lon="1.20499">
        <ele>97.4</ele>
        <time>2022-08-12T18:37:34Z</time>
      </trkpt>
      <trkpt lat="44.73268" lon="1.20501">
        <ele>97.4</ele>
        <time>2022-08-12T18:37:36Z</time>
      </trkpt>
      <trkpt lat="44.73263" lon="1.20502">
        <ele>98.4</ele>
        <time>2022-08-12T18:37:37Z</time>
      </trkpt>
      <trkpt lat="44.73255" lon="1.20505">
        <ele>98.4</ele>
        <time>2022-08-12T18:37:39Z</time>
      </trkpt>
      <trkpt lat="44.73247" lon="1.20509">
        <ele>99.4</ele>
        <time>2022-08-12T18:37:41Z</time>
      </trkpt>
      <trkpt lat="44.7324" lon="1.20511">
        <ele>100.4</ele>
        <time>2022-08-12T18:37:43Z</time>
      </trkpt>
      <trkpt lat="44.73232" lon="1.20514">
        <ele>100.4</ele>
        <time>2022-08-12T18:37:45Z</time>
      </trkpt>
      <trkpt lat="44.73225" lon="1.20517">
        <ele>101.4</ele>
        <time>2022-08-12T18:37:47Z</time>
      </trkpt>
      <trkpt lat="44.73219" lon="1.20521">
        <ele>101.4</ele>
        <time>2022-08-12T18:37:49Z</time>
      </trkpt>
      <trkpt lat="44.73213" lon="1.20527">
        <ele>100.4</ele>
        <time>2022-08-12T18:37:51Z</time>
      </trkpt>
      <trkpt lat="44.73209" lon="1.20531">
        <ele>100.4</ele>
        <time>2022-08-12T18:37:52Z</time>
      </trkpt>
      <trkpt lat="44.73203" lon="1.20535">
        <ele>100.4</ele>
        <time>2022-08-12T18:37:53Z</time>
      </trkpt>
      <trkpt lat="44.73198" lon="1.2054">
        <ele>100.4</ele>
        <time>2022-08-12T18:37:54Z</time>
      </trkpt>
      <trkpt lat="44.73189" lon="1.20548">
        <ele>101.4</ele>
        <time>2022-08-12T18:37:56Z</time>
      </trkpt>
      <trkpt lat="44.73185" lon="1.20552">
        <ele>100.4</ele>
        <time>2022-08-12T18:37:57Z</time>
      </trkpt>
      <trkpt lat="44.73181" lon="1.20556">
        <ele>100.4</ele>
        <time>2022-08-12T18:37:58Z</time>
      </trkpt>
      <trkpt lat="44.73176" lon="1.20559">
        <ele>99.4</ele>
        <time>2022-08-12T18:37:59Z</time>
      </trkpt>
      <trkpt lat="44.73171" lon="1.20562">
        <ele>99.4</ele>
        <time>2022-08-12T18:38:00Z</time>
      </trkpt>
      <trkpt lat="44.73166" lon="1.20565">
        <ele>99.4</ele>
        <time>2022-08-12T18:38:01Z</time>
      </trkpt>
      <trkpt lat="44.73162" lon="1.20569">
        <ele>98.4</ele>
        <time>2022-08-12T18:38:02Z</time>
      </trkpt>
      <trkpt lat="44.73159" lon="1.20573">
        <ele>97.4</ele>
        <time>2022-08-12T18:38:03Z</time>
      </trkpt>
      <trkpt lat="44.73153" lon="1.20582">
        <ele>96.4</ele>
        <time>2022-08-12T18:38:05Z</time>
      </trkpt>
      <trkpt lat="44.73148" lon="1.20592">
        <ele>95.4</ele>
        <time>2022-08-12T18:38:07Z</time>
      </trkpt>
      <trkpt lat="44.73144" lon="1.20601">
        <ele>96.4</ele>
        <time>2022-08-12T18:38:09Z</time>
      </trkpt>
      <trkpt lat="44.73141" lon="1.2061">
        <ele>96.4</ele>
        <time>2022-08-12T18:38:11Z</time>
      </trkpt>
      <trkpt lat="44.73136" lon="1.20618">
        <ele>96.4</ele>
        <time>2022-08-12T18:38:13Z</time>
      </trkpt>
      <trkpt lat="44.73129" lon="1.20628">
        <ele>97.4</ele>
        <time>2022-08-12T18:38:16Z</time>
      </trkpt>
      <trkpt lat="44.73124" lon="1.20632">
        <ele>96.4</ele>
        <time>2022-08-12T18:38:18Z</time>
      </trkpt>
      <trkpt lat="44.73119" lon="1.2064">
        <ele>96.4</ele>
        <time>2022-08-12T18:38:20Z</time>
      </trkpt>
      <trkpt lat="44.73113" lon="1.20649">
        <ele>96.4</ele>
        <time>2022-08-12T18:38:22Z</time>
      </trkpt>
      <trkpt lat="44.73108" lon="1.20658">
        <ele>97.4</ele>
        <time>2022-08-12T18:38:24Z</time>
      </trkpt>
      <trkpt lat="44.73105" lon="1.20669">
        <ele>96.4</ele>
        <time>2022-08-12T18:38:26Z</time>
      </trkpt>
      <trkpt lat="44.73102" lon="1.20679">
        <ele>96.4</ele>
        <time>2022-08-12T18:38:28Z</time>
      </trkpt>
      <trkpt lat="44.73096" lon="1.20694">
        <ele>96.4</ele>
        <time>2022-08-12T18:38:31Z</time>
      </trkpt>
      <trkpt lat="44.73094" lon="1.207">
        <ele>96.4</ele>
        <time>2022-08-12T18:38:32Z</time>
      </trkpt>
      <trkpt lat="44.73091" lon="1.2071">
        <ele>96.4</ele>
        <time>2022-08-12T18:38:34Z</time>
      </trkpt>
      <trkpt lat="44.7309" lon="1.20719">
        <ele>96.4</ele>
        <time>2022-08-12T18:38:36Z</time>
      </trkpt>
      <trkpt lat="44.73089" lon="1.2073">
        <ele>97.4</ele>
        <time>2022-08-12T18:38:38Z</time>
      </trkpt>
      <trkpt lat="44.73089" lon="1.20741">
        <ele>98.4</ele>
        <time>2022-08-12T18:38:40Z</time>
      </trkpt>
      <trkpt lat="44.7309" lon="1.20751">
        <ele>98.4</ele>
        <time>2022-08-12T18:38:42Z</time>
      </trkpt>
      <trkpt lat="44.73092" lon="1.20768">
        <ele>99.4</ele>
        <time>2022-08-12T18:38:45Z</time>
      </trkpt>
      <trkpt lat="44.73091" lon="1.20777">
        <ele>100.4</ele>
        <time>2022-08-12T18:38:47Z</time>
      </trkpt>
      <trkpt lat="44.7309" lon="1.20787">
        <ele>101.4</ele>
        <time>2022-08-12T18:38:49Z</time>
      </trkpt>
      <trkpt lat="44.73088" lon="1.20796">
        <ele>101.4</ele>
        <time>2022-08-12T18:38:51Z</time>
      </trkpt>
      <trkpt lat="44.73085" lon="1.20811">
        <ele>102.4</ele>
        <time>2022-08-12T18:38:54Z</time>
      </trkpt>
      <trkpt lat="44.73085" lon="1.2082">
        <ele>102.4</ele>
        <time>2022-08-12T18:38:56Z</time>
      </trkpt>
      <trkpt lat="44.73085" lon="1.20831">
        <ele>102.4</ele>
        <time>2022-08-12T18:38:58Z</time>
      </trkpt>
      <trkpt lat="44.73084" lon="1.20846">
        <ele>102.4</ele>
        <time>2022-08-12T18:39:01Z</time>
      </trkpt>
      <trkpt lat="44.73083" lon="1.20854">
        <ele>103.4</ele>
        <time>2022-08-12T18:39:03Z</time>
      </trkpt>
      <trkpt lat="44.73083" lon="1.20861">
        <ele>104.4</ele>
        <time>2022-08-12T18:39:05Z</time>
      </trkpt>
      <trkpt lat="44.73083" lon="1.20868">
        <ele>104.4</ele>
        <time>2022-08-12T18:39:07Z</time>
      </trkpt>
      <trkpt lat="44.73082" lon="1.20876">
        <ele>104.4</ele>
        <time>2022-08-12T18:39:09Z</time>
      </trkpt>
      <trkpt lat="44.7308" lon="1.20884">
        <ele>103.4</ele>
        <time>2022-08-12T18:39:11Z</time>
      </trkpt>
      <trkpt lat="44.73079" lon="1.20892">
        <ele>103.4</ele>
        <time>2022-08-12T18:39:13Z</time>
      </trkpt>
      <trkpt lat="44.73079" lon="1.20903">
        <ele>103.4</ele>
        <time>2022-08-12T18:39:16Z</time>
      </trkpt>
      <trkpt lat="44.7308" lon="1.2091">
        <ele>104.4</ele>
        <time>2022-08-12T18:39:18Z</time>
      </trkpt>
      <trkpt lat="44.73081" lon="1.20918">
        <ele>104.4</ele>
        <time>2022-08-12T18:39:20Z</time>
      </trkpt>
      <trkpt lat="44.73081" lon="1.20926">
        <ele>103.4</ele>
        <time>2022-08-12T18:39:22Z</time>
      </trkpt>
      <trkpt lat="44.7308" lon="1.20933">
        <ele>103.4</ele>
        <time>2022-08-12T18:39:24Z</time>
      </trkpt>
      <trkpt lat="44.73081" lon="1.20941">
        <ele>102.4</ele>
        <time>2022-08-12T18:39:26Z</time>
      </trkpt>
      <trkpt lat="44.73083" lon="1.20948">
        <ele>102.4</ele>
        <time>2022-08-12T18:39:28Z</time>
      </trkpt>
      <trkpt lat="44.73084" lon="1.20956">
        <ele>101.4</ele>
        <time>2022-08-12T18:39:30Z</time>
      </trkpt>
      <trkpt lat="44.73085" lon="1.20966">
        <ele>100.4</ele>
        <time>2022-08-12T18:39:32Z</time>
      </trkpt>
      <trkpt lat="44.73086" lon="1.20976">
        <ele>100.4</ele>
        <time>2022-08-12T18:39:34Z</time>
      </trkpt>
      <trkpt lat="44.73088" lon="1.20987">
        <ele>100.4</ele>
        <time>2022-08-12T18:39:36Z</time>
      </trkpt>
      <trkpt lat="44.73089" lon="1.20998">
        <ele>99.4</ele>
        <time>2022-08-12T18:39:38Z</time>
      </trkpt>
      <trkpt lat="44.7309" lon="1.2101">
        <ele>100.4</ele>
        <time>2022-08-12T18:39:40Z</time>
      </trkpt>
      <trkpt lat="44.7309" lon="1.21019">
        <ele>101.4</ele>
        <time>2022-08-12T18:39:41Z</time>
      </trkpt>
      <trkpt lat="44.7309" lon="1.21028">
        <ele>103.4</ele>
        <time>2022-08-12T18:39:42Z</time>
      </trkpt>
      <trkpt lat="44.73091" lon="1.21037">
        <ele>104.4</ele>
        <time>2022-08-12T18:39:43Z</time>
      </trkpt>
      <trkpt lat="44.73092" lon="1.21044">
        <ele>104.4</ele>
        <time>2022-08-12T18:39:44Z</time>
      </trkpt>
      <trkpt lat="44.73095" lon="1.21055">
        <ele>104.4</ele>
        <time>2022-08-12T18:39:46Z</time>
      </trkpt>
      <trkpt lat="44.73097" lon="1.21064">
        <ele>104.4</ele>
        <time>2022-08-12T18:39:48Z</time>
      </trkpt>
      <trkpt lat="44.73099" lon="1.21071">
        <ele>103.4</ele>
        <time>2022-08-12T18:39:50Z</time>
      </trkpt>
      <trkpt lat="44.73101" lon="1.21076">
        <ele>102.4</ele>
        <time>2022-08-12T18:39:52Z</time>
      </trkpt>
      <trkpt lat="44.73105" lon="1.2108">
        <ele>103.4</ele>
        <time>2022-08-12T18:39:55Z</time>
      </trkpt>
      <trkpt lat="44.73109" lon="1.21075">
        <ele>103.4</ele>
        <time>2022-08-12T18:39:57Z</time>
      </trkpt>
      <trkpt lat="44.73116" lon="1.21065">
        <ele>102.4</ele>
        <time>2022-08-12T18:39:59Z</time>
      </trkpt>
      <trkpt lat="44.73121" lon="1.2106">
        <ele>102.4</ele>
        <time>2022-08-12T18:40:00Z</time>
      </trkpt>
      <trkpt lat="44.73125" lon="1.21055">
        <ele>102.4</ele>
        <time>2022-08-12T18:40:01Z</time>
      </trkpt>
      <trkpt lat="44.7313" lon="1.21051">
        <ele>102.4</ele>
        <time>2022-08-12T18:40:02Z</time>
      </trkpt>
      <trkpt lat="44.73134" lon="1.21047">
        <ele>102.4</ele>
        <time>2022-08-12T18:40:03Z</time>
      </trkpt>
      <trkpt lat="44.7314" lon="1.21041">
        <ele>101.4</ele>
        <time>2022-08-12T18:40:05Z</time>
      </trkpt>
      <trkpt lat="44.73145" lon="1.21034">
        <ele>101.4</ele>
        <time>2022-08-12T18:40:07Z</time>
      </trkpt>
      <trkpt lat="44.73151" lon="1.21027">
        <ele>100.4</ele>
        <time>2022-08-12T18:40:09Z</time>
      </trkpt>
      <trkpt lat="44.73157" lon="1.2102">
        <ele>100.4</ele>
        <time>2022-08-12T18:40:11Z</time>
      </trkpt>
      <trkpt lat="44.73162" lon="1.21018">
        <ele>99.4</ele>
        <time>2022-08-12T18:40:13Z</time>
      </trkpt>
      <trkpt lat="44.73167" lon="1.21014">
        <ele>100.4</ele>
        <time>2022-08-12T18:40:48Z</time>
      </trkpt>
      <trkpt lat="44.73172" lon="1.21011">
        <ele>100.4</ele>
        <time>2022-08-12T18:40:51Z</time>
      </trkpt>
      <trkpt lat="44.73176" lon="1.21006">
        <ele>100.4</ele>
        <time>2022-08-12T18:40:55Z</time>
      </trkpt>
      <trkpt lat="44.7318" lon="1.21002">
        <ele>99.4</ele>
        <time>2022-08-12T18:40:58Z</time>
      </trkpt>
      <trkpt lat="44.73185" lon="1.20998">
        <ele>98.4</ele>
        <time>2022-08-12T18:41:02Z</time>
      </trkpt>
      <trkpt lat="44.7319" lon="1.20996">
        <ele>97.4</ele>
        <time>2022-08-12T18:41:05Z</time>
      </trkpt>
      <trkpt lat="44.73195" lon="1.20996">
        <ele>97.4</ele>
        <time>2022-08-12T18:41:09Z</time>
      </trkpt>
      <trkpt lat="44.73194" lon="1.21002">
        <ele>97.4</ele>
        <time>2022-08-12T18:42:37Z</time>
      </trkpt>
      <trkpt lat="44.73193" lon="1.21009">
        <ele>95.4</ele>
        <time>2022-08-12T18:42:41Z</time>
      </trkpt>
      <trkpt lat="44.73195" lon="1.21015">
        <ele>96.4</ele>
        <time>2022-08-12T18:42:50Z</time>
      </trkpt>
      <trkpt lat="44.73197" lon="1.21021">
        <ele>95.4</ele>
        <time>2022-08-12T18:42:53Z</time>
      </trkpt>
      <trkpt lat="44.73198" lon="1.21029">
        <ele>94.4</ele>
        <time>2022-08-12T18:42:56Z</time>
      </trkpt>
      <trkpt lat="44.732" lon="1.21036">
        <ele>93.4</ele>
        <time>2022-08-12T18:42:59Z</time>
      </trkpt>
      <trkpt lat="44.73202" lon="1.21043">
        <ele>94.4</ele>
        <time>2022-08-12T18:43:02Z</time>
      </trkpt>
      <trkpt lat="44.73206" lon="1.21052">
        <ele>93.4</ele>
        <time>2022-08-12T18:43:06Z</time>
      </trkpt>
      <trkpt lat="44.73209" lon="1.21057">
        <ele>93.4</ele>
        <time>2022-08-12T18:43:09Z</time>
      </trkpt>
      <trkpt lat="44.73213" lon="1.21061">
        <ele>92.4</ele>
        <time>2022-08-12T18:43:12Z</time>
      </trkpt>
      <trkpt lat="44.73217" lon="1.21065">
        <ele>93.4</ele>
        <time>2022-08-12T18:43:15Z</time>
      </trkpt>
      <trkpt lat="44.7322" lon="1.2107">
        <ele>92.4</ele>
        <time>2022-08-12T18:43:18Z</time>
      </trkpt>
      <trkpt lat="44.73223" lon="1.21075">
        <ele>92.4</ele>
        <time>2022-08-12T18:43:21Z</time>
      </trkpt>
      <trkpt lat="44.73228" lon="1.2108">
        <ele>92.4</ele>
        <time>2022-08-12T18:43:24Z</time>
      </trkpt>
      <trkpt lat="44.73232" lon="1.21082">
        <ele>93.4</ele>
        <time>2022-08-12T18:43:27Z</time>
      </trkpt>
      <trkpt lat="44.73237" lon="1.21086">
        <ele>93.4</ele>
        <time>2022-08-12T18:43:30Z</time>
      </trkpt>
      <trkpt lat="44.73241" lon="1.21089">
        <ele>93.4</ele>
        <time>2022-08-12T18:43:32Z</time>
      </trkpt>
      <trkpt lat="44.73247" lon="1.21093">
        <ele>93.4</ele>
        <time>2022-08-12T18:43:35Z</time>
      </trkpt>
      <trkpt lat="44.73252" lon="1.21096">
        <ele>93.4</ele>
        <time>2022-08-12T18:43:37Z</time>
      </trkpt>
      <trkpt lat="44.73258" lon="1.21098">
        <ele>93.4</ele>
        <time>2022-08-12T18:43:39Z</time>
      </trkpt>
      <trkpt lat="44.73264" lon="1.21099">
        <ele>92.4</ele>
        <time>2022-08-12T18:43:41Z</time>
      </trkpt>
      <trkpt lat="44.73269" lon="1.21099">
        <ele>92.4</ele>
        <time>2022-08-12T18:43:43Z</time>
      </trkpt>
      <trkpt lat="44.73275" lon="1.21099">
        <ele>92.4</ele>
        <time>2022-08-12T18:43:45Z</time>
      </trkpt>
      <trkpt lat="44.73281" lon="1.21097">
        <ele>92.4</ele>
        <time>2022-08-12T18:43:47Z</time>
      </trkpt>
      <trkpt lat="44.73287" lon="1.21097">
        <ele>92.4</ele>
        <time>2022-08-12T18:43:49Z</time>
      </trkpt>
      <trkpt lat="44.73293" lon="1.21097">
        <ele>92.4</ele>
        <time>2022-08-12T18:43:51Z</time>
      </trkpt>
      <trkpt lat="44.73297" lon="1.21097">
        <ele>93.4</ele>
        <time>2022-08-12T18:43:53Z</time>
      </trkpt>
      <trkpt lat="44.73303" lon="1.21096">
        <ele>93.4</ele>
        <time>2022-08-12T18:43:56Z</time>
      </trkpt>
      <trkpt lat="44.73309" lon="1.21096">
        <ele>93.4</ele>
        <time>2022-08-12T18:43:59Z</time>
      </trkpt>
      <trkpt lat="44.73314" lon="1.21097">
        <ele>92.4</ele>
        <time>2022-08-12T18:44:02Z</time>
      </trkpt>
      <trkpt lat="44.7332" lon="1.21099">
        <ele>91.4</ele>
        <time>2022-08-12T18:44:05Z</time>
      </trkpt>
      <trkpt lat="44.73325" lon="1.21101">
        <ele>91.4</ele>
        <time>2022-08-12T18:44:08Z</time>
      </trkpt>
      <trkpt lat="44.73329" lon="1.21104">
        <ele>90.4</ele>
        <time>2022-08-12T18:44:11Z</time>
      </trkpt>
      <trkpt lat="44.73326" lon="1.211">
        <ele>99.4</ele>
        <time>2022-08-12T18:44:33Z</time>
      </trkpt>
      <trkpt lat="44.7333" lon="1.21104">
        <ele>99.4</ele>
        <time>2022-08-12T18:44:46Z</time>
      </trkpt>
      <trkpt lat="44.73336" lon="1.21109">
        <ele>98.4</ele>
        <time>2022-08-12T18:44:48Z</time>
      </trkpt>
      <trkpt lat="44.73342" lon="1.21114">
        <ele>97.4</ele>
        <time>2022-08-12T18:44:50Z</time>
      </trkpt>
      <trkpt lat="44.73348" lon="1.21119">
        <ele>96.4</ele>
        <time>2022-08-12T18:44:52Z</time>
      </trkpt>
      <trkpt lat="44.73354" lon="1.21124">
        <ele>96.4</ele>
        <time>2022-08-12T18:44:54Z</time>
      </trkpt>
      <trkpt lat="44.73359" lon="1.21129">
        <ele>97.4</ele>
        <time>2022-08-12T18:44:56Z</time>
      </trkpt>
      <trkpt lat="44.73363" lon="1.21133">
        <ele>99.4</ele>
        <time>2022-08-12T18:44:58Z</time>
      </trkpt>
      <trkpt lat="44.73367" lon="1.21138">
        <ele>100.4</ele>
        <time>2022-08-12T18:45:00Z</time>
      </trkpt>
      <trkpt lat="44.73371" lon="1.21144">
        <ele>101.4</ele>
        <time>2022-08-12T18:45:02Z</time>
      </trkpt>
      <trkpt lat="44.73375" lon="1.21149">
        <ele>101.4</ele>
        <time>2022-08-12T18:45:04Z</time>
      </trkpt>
      <trkpt lat="44.73379" lon="1.21155">
        <ele>102.4</ele>
        <time>2022-08-12T18:45:06Z</time>
      </trkpt>
      <trkpt lat="44.73384" lon="1.2116">
        <ele>103.4</ele>
        <time>2022-08-12T18:45:08Z</time>
      </trkpt>
      <trkpt lat="44.73388" lon="1.21165">
        <ele>104.4</ele>
        <time>2022-08-12T18:45:10Z</time>
      </trkpt>
      <trkpt lat="44.73391" lon="1.21169">
        <ele>104.4</ele>
        <time>2022-08-12T18:45:12Z</time>
      </trkpt>
      <trkpt lat="44.73395" lon="1.21173">
        <ele>104.4</ele>
        <time>2022-08-12T18:45:14Z</time>
      </trkpt>
      <trkpt lat="44.73402" lon="1.2117">
        <ele>106.4</ele>
        <time>2022-08-12T18:45:17Z</time>
      </trkpt>
      <trkpt lat="44.73406" lon="1.21168">
        <ele>107.4</ele>
        <time>2022-08-12T18:45:19Z</time>
      </trkpt>
      <trkpt lat="44.73411" lon="1.21166">
        <ele>107.4</ele>
        <time>2022-08-12T18:45:21Z</time>
      </trkpt>
      <trkpt lat="44.73417" lon="1.21163">
        <ele>109.4</ele>
        <time>2022-08-12T18:45:24Z</time>
      </trkpt>
      <trkpt lat="44.73423" lon="1.21163">
        <ele>109.4</ele>
        <time>2022-08-12T18:45:27Z</time>
      </trkpt>
      <trkpt lat="44.73429" lon="1.21165">
        <ele>109.4</ele>
        <time>2022-08-12T18:45:30Z</time>
      </trkpt>
      <trkpt lat="44.73432" lon="1.2117">
        <ele>107.4</ele>
        <time>2022-08-12T18:45:55Z</time>
      </trkpt>
      <trkpt lat="44.73436" lon="1.21167">
        <ele>105.4</ele>
        <time>2022-08-12T18:46:39Z</time>
      </trkpt>
      <trkpt lat="44.73432" lon="1.21166">
        <ele>106.4</ele>
        <time>2022-08-12T18:48:49Z</time>
      </trkpt>
      <trkpt lat="44.7343" lon="1.21174">
        <ele>107.4</ele>
        <time>2022-08-12T18:48:53Z</time>
      </trkpt>
      <trkpt lat="44.73431" lon="1.21181">
        <ele>108.4</ele>
        <time>2022-08-12T18:48:58Z</time>
      </trkpt>
      <trkpt lat="44.73432" lon="1.21189">
        <ele>108.4</ele>
        <time>2022-08-12T18:49:02Z</time>
      </trkpt>
      <trkpt lat="44.73433" lon="1.21196">
        <ele>107.4</ele>
        <time>2022-08-12T18:49:06Z</time>
      </trkpt>
      <trkpt lat="44.73434" lon="1.21203">
        <ele>108.4</ele>
        <time>2022-08-12T18:49:09Z</time>
      </trkpt>
      <trkpt lat="44.73436" lon="1.21209">
        <ele>109.4</ele>
        <time>2022-08-12T18:49:13Z</time>
      </trkpt>
      <trkpt lat="44.73438" lon="1.21216">
        <ele>110.4</ele>
        <time>2022-08-12T18:49:17Z</time>
      </trkpt>
      <trkpt lat="44.7344" lon="1.21222">
        <ele>110.4</ele>
        <time>2022-08-12T18:49:24Z</time>
      </trkpt>
      <trkpt lat="44.73441" lon="1.21229">
        <ele>111.4</ele>
        <time>2022-08-12T18:49:28Z</time>
      </trkpt>
      <trkpt lat="44.73442" lon="1.21237">
        <ele>110.4</ele>
        <time>2022-08-12T18:49:32Z</time>
      </trkpt>
      <trkpt lat="44.73444" lon="1.21244">
        <ele>111.4</ele>
        <time>2022-08-12T18:49:36Z</time>
      </trkpt>
      <trkpt lat="44.73448" lon="1.21252">
        <ele>113.4</ele>
        <time>2022-08-12T18:49:41Z</time>
      </trkpt>
      <trkpt lat="44.7345" lon="1.2126">
        <ele>112.4</ele>
        <time>2022-08-12T18:49:45Z</time>
      </trkpt>
      <trkpt lat="44.73451" lon="1.21266">
        <ele>112.4</ele>
        <time>2022-08-12T18:49:49Z</time>
      </trkpt>
      <trkpt lat="44.73452" lon="1.21272">
        <ele>112.4</ele>
        <time>2022-08-12T18:49:53Z</time>
      </trkpt>
      <trkpt lat="44.73454" lon="1.2128">
        <ele>112.4</ele>
        <time>2022-08-12T18:49:58Z</time>
      </trkpt>
      <trkpt lat="44.73456" lon="1.21286">
        <ele>112.4</ele>
        <time>2022-08-12T18:50:02Z</time>
      </trkpt>
      <trkpt lat="44.73458" lon="1.21294">
        <ele>112.4</ele>
        <time>2022-08-12T18:50:06Z</time>
      </trkpt>
      <trkpt lat="44.73459" lon="1.213">
        <ele>112.4</ele>
        <time>2022-08-12T18:50:10Z</time>
      </trkpt>
      <trkpt lat="44.73462" lon="1.21306">
        <ele>114.4</ele>
        <time>2022-08-12T18:50:14Z</time>
      </trkpt>
      <trkpt lat="44.73465" lon="1.21311">
        <ele>114.4</ele>
        <time>2022-08-12T18:50:18Z</time>
      </trkpt>
      <trkpt lat="44.73468" lon="1.21316">
        <ele>116.4</ele>
        <time>2022-08-12T18:50:22Z</time>
      </trkpt>
      <trkpt lat="44.73473" lon="1.21319">
        <ele>114.4</ele>
        <time>2022-08-12T18:50:40Z</time>
      </trkpt>
      <trkpt lat="44.7347" lon="1.21325">
        <ele>112.4</ele>
        <time>2022-08-12T18:50:45Z</time>
      </trkpt>
      <trkpt lat="44.73465" lon="1.2133">
        <ele>113.4</ele>
        <time>2022-08-12T18:50:49Z</time>
      </trkpt>
      <trkpt lat="44.73461" lon="1.21334">
        <ele>111.4</ele>
        <time>2022-08-12T18:50:54Z</time>
      </trkpt>
      <trkpt lat="44.73458" lon="1.2134">
        <ele>112.4</ele>
        <time>2022-08-12T18:50:58Z</time>
      </trkpt>
      <trkpt lat="44.73457" lon="1.21347">
        <ele>112.4</ele>
        <time>2022-08-12T18:51:02Z</time>
      </trkpt>
      <trkpt lat="44.73457" lon="1.21354">
        <ele>112.4</ele>
        <time>2022-08-12T18:51:05Z</time>
      </trkpt>
      <trkpt lat="44.73457" lon="1.21363">
        <ele>112.4</ele>
        <time>2022-08-12T18:51:09Z</time>
      </trkpt>
      <trkpt lat="44.73456" lon="1.2137">
        <ele>112.4</ele>
        <time>2022-08-12T18:51:13Z</time>
      </trkpt>
      <trkpt lat="44.73456" lon="1.21378">
        <ele>112.4</ele>
        <time>2022-08-12T18:51:17Z</time>
      </trkpt>
      <trkpt lat="44.73456" lon="1.21385">
        <ele>111.4</ele>
        <time>2022-08-12T18:51:21Z</time>
      </trkpt>
      <trkpt lat="44.73457" lon="1.21392">
        <ele>110.4</ele>
        <time>2022-08-12T18:51:25Z</time>
      </trkpt>
      <trkpt lat="44.73456" lon="1.21398">
        <ele>113.4</ele>
        <time>2022-08-12T18:51:36Z</time>
      </trkpt>
      <trkpt lat="44.73451" lon="1.21402">
        <ele>115.4</ele>
        <time>2022-08-12T18:51:48Z</time>
      </trkpt>
      <trkpt lat="44.73447" lon="1.21407">
        <ele>115.4</ele>
        <time>2022-08-12T18:51:53Z</time>
      </trkpt>
      <trkpt lat="44.73451" lon="1.21403">
        <ele>112.4</ele>
        <time>2022-08-12T18:52:08Z</time>
      </trkpt>
      <trkpt lat="44.73455" lon="1.21397">
        <ele>114.4</ele>
        <time>2022-08-12T18:52:12Z</time>
      </trkpt>
      <trkpt lat="44.73456" lon="1.2139">
        <ele>111.4</ele>
        <time>2022-08-12T18:52:19Z</time>
      </trkpt>
      <trkpt lat="44.73455" lon="1.21381">
        <ele>110.4</ele>
        <time>2022-08-12T18:52:22Z</time>
      </trkpt>
      <trkpt lat="44.73455" lon="1.21372">
        <ele>110.4</ele>
        <time>2022-08-12T18:52:24Z</time>
      </trkpt>
      <trkpt lat="44.73457" lon="1.21365">
        <ele>109.4</ele>
        <time>2022-08-12T18:52:26Z</time>
      </trkpt>
      <trkpt lat="44.73458" lon="1.21358">
        <ele>109.4</ele>
        <time>2022-08-12T18:52:28Z</time>
      </trkpt>
      <trkpt lat="44.73457" lon="1.21349">
        <ele>109.4</ele>
        <time>2022-08-12T18:52:30Z</time>
      </trkpt>
      <trkpt lat="44.73457" lon="1.2134">
        <ele>109.4</ele>
        <time>2022-08-12T18:52:32Z</time>
      </trkpt>
      <trkpt lat="44.73455" lon="1.21332">
        <ele>109.4</ele>
        <time>2022-08-12T18:52:34Z</time>
      </trkpt>
      <trkpt lat="44.73454" lon="1.21324">
        <ele>108.4</ele>
        <time>2022-08-12T18:52:36Z</time>
      </trkpt>
      <trkpt lat="44.73451" lon="1.21315">
        <ele>108.4</ele>
        <time>2022-08-12T18:52:38Z</time>
      </trkpt>
      <trkpt lat="44.73449" lon="1.21309">
        <ele>107.4</ele>
        <time>2022-08-12T18:52:39Z</time>
      </trkpt>
      <trkpt lat="44.73446" lon="1.21299">
        <ele>105.4</ele>
        <time>2022-08-12T18:52:41Z</time>
      </trkpt>
      <trkpt lat="44.73443" lon="1.21289">
        <ele>104.4</ele>
        <time>2022-08-12T18:52:43Z</time>
      </trkpt>
      <trkpt lat="44.7344" lon="1.21279">
        <ele>104.4</ele>
        <time>2022-08-12T18:52:45Z</time>
      </trkpt>
      <trkpt lat="44.73437" lon="1.2127">
        <ele>103.4</ele>
        <time>2022-08-12T18:52:47Z</time>
      </trkpt>
      <trkpt lat="44.73434" lon="1.21261">
        <ele>102.4</ele>
        <time>2022-08-12T18:52:49Z</time>
      </trkpt>
      <trkpt lat="44.73431" lon="1.21251">
        <ele>102.4</ele>
        <time>2022-08-12T18:52:51Z</time>
      </trkpt>
      <trkpt lat="44.73427" lon="1.21243">
        <ele>102.4</ele>
        <time>2022-08-12T18:52:53Z</time>
      </trkpt>
      <trkpt lat="44.73424" lon="1.21234">
        <ele>101.4</ele>
        <time>2022-08-12T18:52:55Z</time>
      </trkpt>
      <trkpt lat="44.73421" lon="1.21226">
        <ele>101.4</ele>
        <time>2022-08-12T18:52:57Z</time>
      </trkpt>
      <trkpt lat="44.73418" lon="1.21218">
        <ele>100.4</ele>
        <time>2022-08-12T18:52:59Z</time>
      </trkpt>
      <trkpt lat="44.73415" lon="1.2121">
        <ele>100.4</ele>
        <time>2022-08-12T18:53:01Z</time>
      </trkpt>
      <trkpt lat="44.73412" lon="1.21201">
        <ele>99.4</ele>
        <time>2022-08-12T18:53:03Z</time>
      </trkpt>
      <trkpt lat="44.73409" lon="1.21194">
        <ele>99.4</ele>
        <time>2022-08-12T18:53:05Z</time>
      </trkpt>
      <trkpt lat="44.73406" lon="1.21189">
        <ele>99.4</ele>
        <time>2022-08-12T18:53:07Z</time>
      </trkpt>
      <trkpt lat="44.73402" lon="1.21183">
        <ele>99.4</ele>
        <time>2022-08-12T18:53:09Z</time>
      </trkpt>
      <trkpt lat="44.73399" lon="1.21177">
        <ele>99.4</ele>
        <time>2022-08-12T18:53:11Z</time>
      </trkpt>
      <trkpt lat="44.73395" lon="1.21172">
        <ele>98.4</ele>
        <time>2022-08-12T18:53:13Z</time>
      </trkpt>
      <trkpt lat="44.73392" lon="1.21167">
        <ele>98.4</ele>
        <time>2022-08-12T18:53:15Z</time>
      </trkpt>
      <trkpt lat="44.73388" lon="1.21161">
        <ele>98.4</ele>
        <time>2022-08-12T18:53:17Z</time>
      </trkpt>
      <trkpt lat="44.73383" lon="1.21155">
        <ele>98.4</ele>
        <time>2022-08-12T18:53:19Z</time>
      </trkpt>
      <trkpt lat="44.73378" lon="1.2115">
        <ele>97.4</ele>
        <time>2022-08-12T18:53:21Z</time>
      </trkpt>
      <trkpt lat="44.73372" lon="1.21144">
        <ele>97.4</ele>
        <time>2022-08-12T18:53:23Z</time>
      </trkpt>
      <trkpt lat="44.73367" lon="1.21138">
        <ele>96.4</ele>
        <time>2022-08-12T18:53:25Z</time>
      </trkpt>
      <trkpt lat="44.73361" lon="1.21132">
        <ele>96.4</ele>
        <time>2022-08-12T18:53:27Z</time>
      </trkpt>
      <trkpt lat="44.73356" lon="1.21127">
        <ele>95.4</ele>
        <time>2022-08-12T18:53:29Z</time>
      </trkpt>
      <trkpt lat="44.7335" lon="1.21122">
        <ele>95.4</ele>
        <time>2022-08-12T18:53:31Z</time>
      </trkpt>
      <trkpt lat="44.73344" lon="1.21117">
        <ele>95.4</ele>
        <time>2022-08-12T18:53:33Z</time>
      </trkpt>
      <trkpt lat="44.73338" lon="1.21113">
        <ele>95.4</ele>
        <time>2022-08-12T18:53:35Z</time>
      </trkpt>
      <trkpt lat="44.73332" lon="1.21109">
        <ele>96.4</ele>
        <time>2022-08-12T18:53:37Z</time>
      </trkpt>
      <trkpt lat="44.73326" lon="1.21104">
        <ele>96.4</ele>
        <time>2022-08-12T18:53:39Z</time>
      </trkpt>
      <trkpt lat="44.73319" lon="1.211">
        <ele>95.4</ele>
        <time>2022-08-12T18:53:41Z</time>
      </trkpt>
      <trkpt lat="44.73313" lon="1.21097">
        <ele>95.4</ele>
        <time>2022-08-12T18:53:44Z</time>
      </trkpt>
      <trkpt lat="44.73306" lon="1.21095">
        <ele>96.4</ele>
        <time>2022-08-12T18:53:45Z</time>
      </trkpt>
      <trkpt lat="44.73299" lon="1.21095">
        <ele>97.4</ele>
        <time>2022-08-12T18:53:47Z</time>
      </trkpt>
      <trkpt lat="44.73291" lon="1.21095">
        <ele>98.4</ele>
        <time>2022-08-12T18:53:49Z</time>
      </trkpt>
      <trkpt lat="44.73284" lon="1.21095">
        <ele>99.4</ele>
        <time>2022-08-12T18:53:51Z</time>
      </trkpt>
      <trkpt lat="44.73277" lon="1.21096">
        <ele>99.4</ele>
        <time>2022-08-12T18:53:53Z</time>
      </trkpt>
      <trkpt lat="44.7327" lon="1.21098">
        <ele>99.4</ele>
        <time>2022-08-12T18:53:55Z</time>
      </trkpt>
      <trkpt lat="44.73262" lon="1.21098">
        <ele>100.4</ele>
        <time>2022-08-12T18:53:57Z</time>
      </trkpt>
      <trkpt lat="44.73255" lon="1.21098">
        <ele>100.4</ele>
        <time>2022-08-12T18:53:59Z</time>
      </trkpt>
      <trkpt lat="44.73247" lon="1.21096">
        <ele>101.4</ele>
        <time>2022-08-12T18:54:01Z</time>
      </trkpt>
      <trkpt lat="44.73241" lon="1.21091">
        <ele>101.4</ele>
        <time>2022-08-12T18:54:03Z</time>
      </trkpt>
      <trkpt lat="44.73236" lon="1.21087">
        <ele>101.4</ele>
        <time>2022-08-12T18:54:05Z</time>
      </trkpt>
      <trkpt lat="44.73232" lon="1.21084">
        <ele>100.4</ele>
        <time>2022-08-12T18:54:07Z</time>
      </trkpt>
      <trkpt lat="44.73227" lon="1.21079">
        <ele>100.4</ele>
        <time>2022-08-12T18:54:09Z</time>
      </trkpt>
      <trkpt lat="44.73221" lon="1.21075">
        <ele>100.4</ele>
        <time>2022-08-12T18:54:11Z</time>
      </trkpt>
      <trkpt lat="44.73215" lon="1.21071">
        <ele>99.4</ele>
        <time>2022-08-12T18:54:13Z</time>
      </trkpt>
      <trkpt lat="44.73209" lon="1.21067">
        <ele>99.4</ele>
        <time>2022-08-12T18:54:15Z</time>
      </trkpt>
      <trkpt lat="44.73203" lon="1.21062">
        <ele>99.4</ele>
        <time>2022-08-12T18:54:17Z</time>
      </trkpt>
      <trkpt lat="44.73197" lon="1.21056">
        <ele>99.4</ele>
        <time>2022-08-12T18:54:19Z</time>
      </trkpt>
      <trkpt lat="44.73192" lon="1.2105">
        <ele>99.4</ele>
        <time>2022-08-12T18:54:21Z</time>
      </trkpt>
      <trkpt lat="44.73186" lon="1.21044">
        <ele>99.4</ele>
        <time>2022-08-12T18:54:23Z</time>
      </trkpt>
      <trkpt lat="44.73182" lon="1.21037">
        <ele>99.4</ele>
        <time>2022-08-12T18:54:25Z</time>
      </trkpt>
      <trkpt lat="44.73177" lon="1.2103">
        <ele>98.4</ele>
        <time>2022-08-12T18:54:27Z</time>
      </trkpt>
      <trkpt lat="44.73172" lon="1.21023">
        <ele>98.4</ele>
        <time>2022-08-12T18:54:29Z</time>
      </trkpt>
      <trkpt lat="44.73168" lon="1.21017">
        <ele>98.4</ele>
        <time>2022-08-12T18:54:31Z</time>
      </trkpt>
      <trkpt lat="44.73162" lon="1.21014">
        <ele>98.4</ele>
        <time>2022-08-12T18:54:33Z</time>
      </trkpt>
      <trkpt lat="44.73155" lon="1.21015">
        <ele>98.4</ele>
        <time>2022-08-12T18:54:35Z</time>
      </trkpt>
      <trkpt lat="44.7315" lon="1.2102">
        <ele>98.4</ele>
        <time>2022-08-12T18:54:37Z</time>
      </trkpt>
      <trkpt lat="44.73146" lon="1.21027">
        <ele>98.4</ele>
        <time>2022-08-12T18:54:40Z</time>
      </trkpt>
      <trkpt lat="44.73143" lon="1.21034">
        <ele>97.4</ele>
        <time>2022-08-12T18:54:43Z</time>
      </trkpt>
      <trkpt lat="44.73138" lon="1.21039">
        <ele>97.4</ele>
        <time>2022-08-12T18:54:46Z</time>
      </trkpt>
      <trkpt lat="44.73135" lon="1.21044">
        <ele>97.4</ele>
        <time>2022-08-12T18:54:48Z</time>
      </trkpt>
      <trkpt lat="44.73131" lon="1.21049">
        <ele>97.4</ele>
        <time>2022-08-12T18:54:50Z</time>
      </trkpt>
      <trkpt lat="44.73127" lon="1.21055">
        <ele>97.4</ele>
        <time>2022-08-12T18:54:53Z</time>
      </trkpt>
      <trkpt lat="44.73122" lon="1.2106">
        <ele>99.4</ele>
        <time>2022-08-12T18:54:56Z</time>
      </trkpt>
      <trkpt lat="44.73116" lon="1.21065">
        <ele>100.4</ele>
        <time>2022-08-12T18:54:59Z</time>
      </trkpt>
      <trkpt lat="44.73112" lon="1.21068">
        <ele>100.4</ele>
        <time>2022-08-12T18:55:02Z</time>
      </trkpt>
      <trkpt lat="44.73109" lon="1.21073">
        <ele>102.4</ele>
        <time>2022-08-12T18:55:24Z</time>
      </trkpt>
      <trkpt lat="44.73106" lon="1.2108">
        <ele>106.4</ele>
        <time>2022-08-12T18:56:10Z</time>
      </trkpt>
      <trkpt lat="44.73105" lon="1.21086">
        <ele>110.4</ele>
        <time>2022-08-12T18:56:17Z</time>
      </trkpt>
      <trkpt lat="44.73105" lon="1.21093">
        <ele>117.4</ele>
        <time>2022-08-12T18:57:03Z</time>
      </trkpt>
      <trkpt lat="44.73107" lon="1.211">
        <ele>118.4</ele>
        <time>2022-08-12T18:57:09Z</time>
      </trkpt>
      <trkpt lat="44.73109" lon="1.21107">
        <ele>119.4</ele>
        <time>2022-08-12T18:57:14Z</time>
      </trkpt>
      <trkpt lat="44.73111" lon="1.21114">
        <ele>120.4</ele>
        <time>2022-08-12T18:57:20Z</time>
      </trkpt>
      <trkpt lat="44.73113" lon="1.21121">
        <ele>120.4</ele>
        <time>2022-08-12T18:57:26Z</time>
      </trkpt>
      <trkpt lat="44.73115" lon="1.21127">
        <ele>121.4</ele>
        <time>2022-08-12T18:57:31Z</time>
      </trkpt>
      <trkpt lat="44.73117" lon="1.21135">
        <ele>121.4</ele>
        <time>2022-08-12T18:57:37Z</time>
      </trkpt>
      <trkpt lat="44.73118" lon="1.21141">
        <ele>122.4</ele>
        <time>2022-08-12T18:57:42Z</time>
      </trkpt>
      <trkpt lat="44.7312" lon="1.2115">
        <ele>124.4</ele>
        <time>2022-08-12T18:58:01Z</time>
      </trkpt>
      <trkpt lat="44.73121" lon="1.21157">
        <ele>124.4</ele>
        <time>2022-08-12T18:58:07Z</time>
      </trkpt>
      <trkpt lat="44.73121" lon="1.21163">
        <ele>124.4</ele>
        <time>2022-08-12T18:58:13Z</time>
      </trkpt>
      <trkpt lat="44.73122" lon="1.21169">
        <ele>126.4</ele>
        <time>2022-08-12T18:58:20Z</time>
      </trkpt>
      <trkpt lat="44.73122" lon="1.21177">
        <ele>128.4</ele>
        <time>2022-08-12T18:58:26Z</time>
      </trkpt>
      <trkpt lat="44.73121" lon="1.21184">
        <ele>127.4</ele>
        <time>2022-08-12T18:58:32Z</time>
      </trkpt>
      <trkpt lat="44.7312" lon="1.21191">
        <ele>128.4</ele>
        <time>2022-08-12T18:58:36Z</time>
      </trkpt>
      <trkpt lat="44.73119" lon="1.21197">
        <ele>127.4</ele>
        <time>2022-08-12T18:58:40Z</time>
      </trkpt>
      <trkpt lat="44.73117" lon="1.21204">
        <ele>127.4</ele>
        <time>2022-08-12T18:58:44Z</time>
      </trkpt>
      <trkpt lat="44.73116" lon="1.2121">
        <ele>127.4</ele>
        <time>2022-08-12T18:58:48Z</time>
      </trkpt>
      <trkpt lat="44.73115" lon="1.21218">
        <ele>127.4</ele>
        <time>2022-08-12T18:58:52Z</time>
      </trkpt>
      <trkpt lat="44.73116" lon="1.21225">
        <ele>126.4</ele>
        <time>2022-08-12T18:58:59Z</time>
      </trkpt>
      <trkpt lat="44.73117" lon="1.21233">
        <ele>126.4</ele>
        <time>2022-08-12T18:59:03Z</time>
      </trkpt>
      <trkpt lat="44.73119" lon="1.2124">
        <ele>125.4</ele>
        <time>2022-08-12T18:59:06Z</time>
      </trkpt>
      <trkpt lat="44.73121" lon="1.21248">
        <ele>126.4</ele>
        <time>2022-08-12T18:59:09Z</time>
      </trkpt>
      <trkpt lat="44.73123" lon="1.21257">
        <ele>128.4</ele>
        <time>2022-08-12T18:59:12Z</time>
      </trkpt>
      <trkpt lat="44.73126" lon="1.21264">
        <ele>127.4</ele>
        <time>2022-08-12T18:59:15Z</time>
      </trkpt>
      <trkpt lat="44.73128" lon="1.21272">
        <ele>127.4</ele>
        <time>2022-08-12T18:59:18Z</time>
      </trkpt>
      <trkpt lat="44.73127" lon="1.2128">
        <ele>128.4</ele>
        <time>2022-08-12T18:59:21Z</time>
      </trkpt>
      <trkpt lat="44.73125" lon="1.21287">
        <ele>127.4</ele>
        <time>2022-08-12T18:59:24Z</time>
      </trkpt>
      <trkpt lat="44.73121" lon="1.21294">
        <ele>127.4</ele>
        <time>2022-08-12T18:59:27Z</time>
      </trkpt>
      <trkpt lat="44.73118" lon="1.21301">
        <ele>127.4</ele>
        <time>2022-08-12T18:59:30Z</time>
      </trkpt>
      <trkpt lat="44.73115" lon="1.21307">
        <ele>128.4</ele>
        <time>2022-08-12T18:59:33Z</time>
      </trkpt>
      <trkpt lat="44.73114" lon="1.21316">
        <ele>128.4</ele>
        <time>2022-08-12T18:59:37Z</time>
      </trkpt>
      <trkpt lat="44.73115" lon="1.21324">
        <ele>127.4</ele>
        <time>2022-08-12T18:59:41Z</time>
      </trkpt>
      <trkpt lat="44.73116" lon="1.21332">
        <ele>128.4</ele>
        <time>2022-08-12T18:59:44Z</time>
      </trkpt>
      <trkpt lat="44.73118" lon="1.21339">
        <ele>129.4</ele>
        <time>2022-08-12T18:59:47Z</time>
      </trkpt>
      <trkpt lat="44.73119" lon="1.21348">
        <ele>130.4</ele>
        <time>2022-08-12T18:59:50Z</time>
      </trkpt>
      <trkpt lat="44.73121" lon="1.21357">
        <ele>129.4</ele>
        <time>2022-08-12T18:59:53Z</time>
      </trkpt>
      <trkpt lat="44.73121" lon="1.21366">
        <ele>129.4</ele>
        <time>2022-08-12T18:59:56Z</time>
      </trkpt>
      <trkpt lat="44.73121" lon="1.21375">
        <ele>128.4</ele>
        <time>2022-08-12T18:59:59Z</time>
      </trkpt>
      <trkpt lat="44.73121" lon="1.21383">
        <ele>127.4</ele>
        <time>2022-08-12T19:00:01Z</time>
      </trkpt>
      <trkpt lat="44.7312" lon="1.21391">
        <ele>127.4</ele>
        <time>2022-08-12T19:00:03Z</time>
      </trkpt>
      <trkpt lat="44.73119" lon="1.21403">
        <ele>127.4</ele>
        <time>2022-08-12T19:00:06Z</time>
      </trkpt>
      <trkpt lat="44.73118" lon="1.21411">
        <ele>127.4</ele>
        <time>2022-08-12T19:00:08Z</time>
      </trkpt>
      <trkpt lat="44.73117" lon="1.21419">
        <ele>126.4</ele>
        <time>2022-08-12T19:00:10Z</time>
      </trkpt>
      <trkpt lat="44.73116" lon="1.21429">
        <ele>127.4</ele>
        <time>2022-08-12T19:00:12Z</time>
      </trkpt>
      <trkpt lat="44.73115" lon="1.21438">
        <ele>127.4</ele>
        <time>2022-08-12T19:00:14Z</time>
      </trkpt>
      <trkpt lat="44.73112" lon="1.21449">
        <ele>127.4</ele>
        <time>2022-08-12T19:00:16Z</time>
      </trkpt>
      <trkpt lat="44.73111" lon="1.21456">
        <ele>125.4</ele>
        <time>2022-08-12T19:00:30Z</time>
      </trkpt>
      <trkpt lat="44.7311" lon="1.21464">
        <ele>125.4</ele>
        <time>2022-08-12T19:00:33Z</time>
      </trkpt>
      <trkpt lat="44.73108" lon="1.2147">
        <ele>125.4</ele>
        <time>2022-08-12T19:00:36Z</time>
      </trkpt>
      <trkpt lat="44.73106" lon="1.21476">
        <ele>126.4</ele>
        <time>2022-08-12T19:00:39Z</time>
      </trkpt>
      <trkpt lat="44.73104" lon="1.21483">
        <ele>125.4</ele>
        <time>2022-08-12T19:00:43Z</time>
      </trkpt>
      <trkpt lat="44.73099" lon="1.21488">
        <ele>124.4</ele>
        <time>2022-08-12T19:00:47Z</time>
      </trkpt>
      <trkpt lat="44.73095" lon="1.21491">
        <ele>123.4</ele>
        <time>2022-08-12T19:00:50Z</time>
      </trkpt>
      <trkpt lat="44.7309" lon="1.21495">
        <ele>121.4</ele>
        <time>2022-08-12T19:00:54Z</time>
      </trkpt>
      <trkpt lat="44.73085" lon="1.21496">
        <ele>120.4</ele>
        <time>2022-08-12T19:00:58Z</time>
      </trkpt>
      <trkpt lat="44.73078" lon="1.21496">
        <ele>119.4</ele>
        <time>2022-08-12T19:01:00Z</time>
      </trkpt>
      <trkpt lat="44.7307" lon="1.21495">
        <ele>119.4</ele>
        <time>2022-08-12T19:01:02Z</time>
      </trkpt>
      <trkpt lat="44.73065" lon="1.21495">
        <ele>120.4</ele>
        <time>2022-08-12T19:01:03Z</time>
      </trkpt>
      <trkpt lat="44.7306" lon="1.21494">
        <ele>120.4</ele>
        <time>2022-08-12T19:01:04Z</time>
      </trkpt>
      <trkpt lat="44.73055" lon="1.21492">
        <ele>121.4</ele>
        <time>2022-08-12T19:01:05Z</time>
      </trkpt>
      <trkpt lat="44.73051" lon="1.21491">
        <ele>122.4</ele>
        <time>2022-08-12T19:01:06Z</time>
      </trkpt>
      <trkpt lat="44.73046" lon="1.2149">
        <ele>122.4</ele>
        <time>2022-08-12T19:01:07Z</time>
      </trkpt>
      <trkpt lat="44.73037" lon="1.21487">
        <ele>123.4</ele>
        <time>2022-08-12T19:01:09Z</time>
      </trkpt>
      <trkpt lat="44.73033" lon="1.21486">
        <ele>123.4</ele>
        <time>2022-08-12T19:01:10Z</time>
      </trkpt>
      <trkpt lat="44.73028" lon="1.21484">
        <ele>124.4</ele>
        <time>2022-08-12T19:01:11Z</time>
      </trkpt>
      <trkpt lat="44.73023" lon="1.21482">
        <ele>124.4</ele>
        <time>2022-08-12T19:01:12Z</time>
      </trkpt>
      <trkpt lat="44.73018" lon="1.21481">
        <ele>124.4</ele>
        <time>2022-08-12T19:01:13Z</time>
      </trkpt>
      <trkpt lat="44.73013" lon="1.21479">
        <ele>125.4</ele>
        <time>2022-08-12T19:01:14Z</time>
      </trkpt>
      <trkpt lat="44.73008" lon="1.21478">
        <ele>125.4</ele>
        <time>2022-08-12T19:01:15Z</time>
      </trkpt>
      <trkpt lat="44.73002" lon="1.21477">
        <ele>125.4</ele>
        <time>2022-08-12T19:01:16Z</time>
      </trkpt>
      <trkpt lat="44.72997" lon="1.21477">
        <ele>125.4</ele>
        <time>2022-08-12T19:01:17Z</time>
      </trkpt>
      <trkpt lat="44.72992" lon="1.21477">
        <ele>125.4</ele>
        <time>2022-08-12T19:01:18Z</time>
      </trkpt>
      <trkpt lat="44.72987" lon="1.21477">
        <ele>124.4</ele>
        <time>2022-08-12T19:01:19Z</time>
      </trkpt>
      <trkpt lat="44.72982" lon="1.21477">
        <ele>124.4</ele>
        <time>2022-08-12T19:01:20Z</time>
      </trkpt>
      <trkpt lat="44.72976" lon="1.21478">
        <ele>124.4</ele>
        <time>2022-08-12T19:01:21Z</time>
      </trkpt>
      <trkpt lat="44.72971" lon="1.21479">
        <ele>124.4</ele>
        <time>2022-08-12T19:01:22Z</time>
      </trkpt>
      <trkpt lat="44.72965" lon="1.21479">
        <ele>125.4</ele>
        <time>2022-08-12T19:01:23Z</time>
      </trkpt>
      <trkpt lat="44.7296" lon="1.2148">
        <ele>125.4</ele>
        <time>2022-08-12T19:01:24Z</time>
      </trkpt>
      <trkpt lat="44.72949" lon="1.21482">
        <ele>125.4</ele>
        <time>2022-08-12T19:01:26Z</time>
      </trkpt>
      <trkpt lat="44.72945" lon="1.21484">
        <ele>125.4</ele>
        <time>2022-08-12T19:01:27Z</time>
      </trkpt>
      <trkpt lat="44.72939" lon="1.21487">
        <ele>124.4</ele>
        <time>2022-08-12T19:01:29Z</time>
      </trkpt>
      <trkpt lat="44.72933" lon="1.21489">
        <ele>123.4</ele>
        <time>2022-08-12T19:01:31Z</time>
      </trkpt>
      <trkpt lat="44.72926" lon="1.21491">
        <ele>123.4</ele>
        <time>2022-08-12T19:01:34Z</time>
      </trkpt>
      <trkpt lat="44.72922" lon="1.21493">
        <ele>123.4</ele>
        <time>2022-08-12T19:01:36Z</time>
      </trkpt>
      <trkpt lat="44.72917" lon="1.21498">
        <ele>122.4</ele>
        <time>2022-08-12T19:01:38Z</time>
      </trkpt>
      <trkpt lat="44.7291" lon="1.21502">
        <ele>122.4</ele>
        <time>2022-08-12T19:01:40Z</time>
      </trkpt>
      <trkpt lat="44.72901" lon="1.21505">
        <ele>122.4</ele>
        <time>2022-08-12T19:01:42Z</time>
      </trkpt>
      <trkpt lat="44.72896" lon="1.21507">
        <ele>123.4</ele>
        <time>2022-08-12T19:01:43Z</time>
      </trkpt>
      <trkpt lat="44.7289" lon="1.21508">
        <ele>123.4</ele>
        <time>2022-08-12T19:01:44Z</time>
      </trkpt>
      <trkpt lat="44.72885" lon="1.21511">
        <ele>123.4</ele>
        <time>2022-08-12T19:01:45Z</time>
      </trkpt>
      <trkpt lat="44.72878" lon="1.21513">
        <ele>123.4</ele>
        <time>2022-08-12T19:01:46Z</time>
      </trkpt>
      <trkpt lat="44.72872" lon="1.21516">
        <ele>122.4</ele>
        <time>2022-08-12T19:01:47Z</time>
      </trkpt>
      <trkpt lat="44.72866" lon="1.21517">
        <ele>122.4</ele>
        <time>2022-08-12T19:01:48Z</time>
      </trkpt>
      <trkpt lat="44.72852" lon="1.21522">
        <ele>121.4</ele>
        <time>2022-08-12T19:01:50Z</time>
      </trkpt>
      <trkpt lat="44.72845" lon="1.21524">
        <ele>120.4</ele>
        <time>2022-08-12T19:01:51Z</time>
      </trkpt>
      <trkpt lat="44.72837" lon="1.21526">
        <ele>120.4</ele>
        <time>2022-08-12T19:01:52Z</time>
      </trkpt>
      <trkpt lat="44.72829" lon="1.2153">
        <ele>119.4</ele>
        <time>2022-08-12T19:01:53Z</time>
      </trkpt>
      <trkpt lat="44.7282" lon="1.21534">
        <ele>119.4</ele>
        <time>2022-08-12T19:01:54Z</time>
      </trkpt>
      <trkpt lat="44.72811" lon="1.21539">
        <ele>119.4</ele>
        <time>2022-08-12T19:01:55Z</time>
      </trkpt>
      <trkpt lat="44.72802" lon="1.21543">
        <ele>120.4</ele>
        <time>2022-08-12T19:01:56Z</time>
      </trkpt>
      <trkpt lat="44.72792" lon="1.21548">
        <ele>120.4</ele>
        <time>2022-08-12T19:01:57Z</time>
      </trkpt>
      <trkpt lat="44.72782" lon="1.21553">
        <ele>120.4</ele>
        <time>2022-08-12T19:01:58Z</time>
      </trkpt>
      <trkpt lat="44.72773" lon="1.21558">
        <ele>119.4</ele>
        <time>2022-08-12T19:01:59Z</time>
      </trkpt>
      <trkpt lat="44.72764" lon="1.21563">
        <ele>119.4</ele>
        <time>2022-08-12T19:02:00Z</time>
      </trkpt>
      <trkpt lat="44.72756" lon="1.21568">
        <ele>119.4</ele>
        <time>2022-08-12T19:02:01Z</time>
      </trkpt>
      <trkpt lat="44.72748" lon="1.21572">
        <ele>119.4</ele>
        <time>2022-08-12T19:02:02Z</time>
      </trkpt>
      <trkpt lat="44.7274" lon="1.21576">
        <ele>118.4</ele>
        <time>2022-08-12T19:02:03Z</time>
      </trkpt>
      <trkpt lat="44.72733" lon="1.21579">
        <ele>118.4</ele>
        <time>2022-08-12T19:02:04Z</time>
      </trkpt>
      <trkpt lat="44.72726" lon="1.21584">
        <ele>118.4</ele>
        <time>2022-08-12T19:02:05Z</time>
      </trkpt>
      <trkpt lat="44.7272" lon="1.21589">
        <ele>118.4</ele>
        <time>2022-08-12T19:02:06Z</time>
      </trkpt>
      <trkpt lat="44.72714" lon="1.21592">
        <ele>117.4</ele>
        <time>2022-08-12T19:02:07Z</time>
      </trkpt>
      <trkpt lat="44.72708" lon="1.21596">
        <ele>115.4</ele>
        <time>2022-08-12T19:02:08Z</time>
      </trkpt>
      <trkpt lat="44.72701" lon="1.216">
        <ele>115.4</ele>
        <time>2022-08-12T19:02:09Z</time>
      </trkpt>
      <trkpt lat="44.72695" lon="1.21603">
        <ele>115.4</ele>
        <time>2022-08-12T19:02:10Z</time>
      </trkpt>
      <trkpt lat="44.72689" lon="1.21605">
        <ele>114.4</ele>
        <time>2022-08-12T19:02:11Z</time>
      </trkpt>
      <trkpt lat="44.72684" lon="1.21607">
        <ele>113.4</ele>
        <time>2022-08-12T19:02:12Z</time>
      </trkpt>
      <trkpt lat="44.72674" lon="1.21619">
        <ele>113.4</ele>
        <time>2022-08-12T19:02:15Z</time>
      </trkpt>
      <trkpt lat="44.72671" lon="1.21623">
        <ele>114.4</ele>
        <time>2022-08-12T19:02:16Z</time>
      </trkpt>
      <trkpt lat="44.72668" lon="1.2163">
        <ele>114.4</ele>
        <time>2022-08-12T19:02:17Z</time>
      </trkpt>
      <trkpt lat="44.72666" lon="1.21636">
        <ele>114.4</ele>
        <time>2022-08-12T19:02:18Z</time>
      </trkpt>
      <trkpt lat="44.72664" lon="1.21643">
        <ele>114.4</ele>
        <time>2022-08-12T19:02:19Z</time>
      </trkpt>
      <trkpt lat="44.72662" lon="1.2165">
        <ele>114.4</ele>
        <time>2022-08-12T19:02:20Z</time>
      </trkpt>
      <trkpt lat="44.72659" lon="1.21656">
        <ele>113.4</ele>
        <time>2022-08-12T19:02:21Z</time>
      </trkpt>
      <trkpt lat="44.72657" lon="1.21663">
        <ele>113.4</ele>
        <time>2022-08-12T19:02:22Z</time>
      </trkpt>
      <trkpt lat="44.72651" lon="1.21674">
        <ele>114.4</ele>
        <time>2022-08-12T19:02:24Z</time>
      </trkpt>
      <trkpt lat="44.72648" lon="1.21679">
        <ele>114.4</ele>
        <time>2022-08-12T19:02:25Z</time>
      </trkpt>
      <trkpt lat="44.72644" lon="1.2169">
        <ele>114.4</ele>
        <time>2022-08-12T19:02:27Z</time>
      </trkpt>
      <trkpt lat="44.72641" lon="1.21699">
        <ele>113.4</ele>
        <time>2022-08-12T19:02:29Z</time>
      </trkpt>
      <trkpt lat="44.72639" lon="1.21709">
        <ele>112.4</ele>
        <time>2022-08-12T19:02:31Z</time>
      </trkpt>
      <trkpt lat="44.72637" lon="1.2172">
        <ele>111.4</ele>
        <time>2022-08-12T19:02:33Z</time>
      </trkpt>
      <trkpt lat="44.72635" lon="1.21729">
        <ele>111.4</ele>
        <time>2022-08-12T19:02:35Z</time>
      </trkpt>
      <trkpt lat="44.72633" lon="1.21739">
        <ele>111.4</ele>
        <time>2022-08-12T19:02:37Z</time>
      </trkpt>
      <trkpt lat="44.72631" lon="1.21748">
        <ele>110.4</ele>
        <time>2022-08-12T19:02:39Z</time>
      </trkpt>
      <trkpt lat="44.7263" lon="1.21759">
        <ele>110.4</ele>
        <time>2022-08-12T19:02:41Z</time>
      </trkpt>
      <trkpt lat="44.72628" lon="1.21771">
        <ele>109.4</ele>
        <time>2022-08-12T19:02:43Z</time>
      </trkpt>
      <trkpt lat="44.72627" lon="1.21783">
        <ele>109.4</ele>
        <time>2022-08-12T19:02:45Z</time>
      </trkpt>
      <trkpt lat="44.72628" lon="1.21795">
        <ele>109.4</ele>
        <time>2022-08-12T19:02:47Z</time>
      </trkpt>
      <trkpt lat="44.72628" lon="1.21806">
        <ele>108.4</ele>
        <time>2022-08-12T19:02:49Z</time>
      </trkpt>
      <trkpt lat="44.72629" lon="1.21816">
        <ele>108.4</ele>
        <time>2022-08-12T19:02:51Z</time>
      </trkpt>
      <trkpt lat="44.72629" lon="1.21824">
        <ele>107.4</ele>
        <time>2022-08-12T19:02:53Z</time>
      </trkpt>
      <trkpt lat="44.7263" lon="1.21832">
        <ele>107.4</ele>
        <time>2022-08-12T19:02:55Z</time>
      </trkpt>
      <trkpt lat="44.7263" lon="1.21839">
        <ele>106.4</ele>
        <time>2022-08-12T19:02:57Z</time>
      </trkpt>
      <trkpt lat="44.72631" lon="1.21847">
        <ele>106.4</ele>
        <time>2022-08-12T19:02:59Z</time>
      </trkpt>
      <trkpt lat="44.72631" lon="1.21854">
        <ele>106.4</ele>
        <time>2022-08-12T19:03:01Z</time>
      </trkpt>
      <trkpt lat="44.72631" lon="1.21862">
        <ele>106.4</ele>
        <time>2022-08-12T19:03:03Z</time>
      </trkpt>
      <trkpt lat="44.72631" lon="1.21869">
        <ele>106.4</ele>
        <time>2022-08-12T19:03:05Z</time>
      </trkpt>
      <trkpt lat="44.72631" lon="1.21876">
        <ele>106.4</ele>
        <time>2022-08-12T19:03:08Z</time>
      </trkpt>
      <trkpt lat="44.72629" lon="1.21883">
        <ele>106.4</ele>
        <time>2022-08-12T19:03:10Z</time>
      </trkpt>
      <trkpt lat="44.72628" lon="1.2189">
        <ele>106.4</ele>
        <time>2022-08-12T19:03:12Z</time>
      </trkpt>
      <trkpt lat="44.72627" lon="1.21898">
        <ele>105.4</ele>
        <time>2022-08-12T19:03:14Z</time>
      </trkpt>
      <trkpt lat="44.72626" lon="1.21908">
        <ele>105.4</ele>
        <time>2022-08-12T19:03:16Z</time>
      </trkpt>
      <trkpt lat="44.72624" lon="1.21916">
        <ele>105.4</ele>
        <time>2022-08-12T19:03:18Z</time>
      </trkpt>
      <trkpt lat="44.72622" lon="1.21922">
        <ele>105.4</ele>
        <time>2022-08-12T19:03:20Z</time>
      </trkpt>
      <trkpt lat="44.72621" lon="1.21931">
        <ele>105.4</ele>
        <time>2022-08-12T19:03:23Z</time>
      </trkpt>
      <trkpt lat="44.7262" lon="1.21937">
        <ele>104.4</ele>
        <time>2022-08-12T19:03:26Z</time>
      </trkpt>
      <trkpt lat="44.72615" lon="1.21942">
        <ele>103.4</ele>
        <time>2022-08-12T19:03:29Z</time>
      </trkpt>
      <trkpt lat="44.72611" lon="1.21947">
        <ele>103.4</ele>
        <time>2022-08-12T19:03:32Z</time>
      </trkpt>
      <trkpt lat="44.72608" lon="1.21953">
        <ele>103.4</ele>
        <time>2022-08-12T19:03:35Z</time>
      </trkpt>
      <trkpt lat="44.72607" lon="1.2196">
        <ele>103.4</ele>
        <time>2022-08-12T19:03:37Z</time>
      </trkpt>
      <trkpt lat="44.72606" lon="1.21969">
        <ele>102.4</ele>
        <time>2022-08-12T19:03:40Z</time>
      </trkpt>
      <trkpt lat="44.72608" lon="1.21977">
        <ele>102.4</ele>
        <time>2022-08-12T19:03:43Z</time>
      </trkpt>
      <trkpt lat="44.72611" lon="1.21982">
        <ele>101.4</ele>
        <time>2022-08-12T19:03:47Z</time>
      </trkpt>
      <trkpt lat="44.72618" lon="1.21977">
        <ele>104.4</ele>
        <time>2022-08-12T19:03:51Z</time>
      </trkpt>
      <trkpt lat="44.72622" lon="1.21973">
        <ele>105.4</ele>
        <time>2022-08-12T19:03:54Z</time>
      </trkpt>
      <trkpt lat="44.72628" lon="1.21971">
        <ele>107.4</ele>
        <time>2022-08-12T19:03:57Z</time>
      </trkpt>
      <trkpt lat="44.72633" lon="1.2197">
        <ele>107.4</ele>
        <time>2022-08-12T19:04:00Z</time>
      </trkpt>
      <trkpt lat="44.72637" lon="1.21969">
        <ele>107.4</ele>
        <time>2022-08-12T19:04:04Z</time>
      </trkpt>
      <trkpt lat="44.72634" lon="1.21974">
        <ele>113.4</ele>
        <time>2022-08-12T19:05:38Z</time>
      </trkpt>
      <trkpt lat="44.72637" lon="1.21968">
        <ele>114.4</ele>
        <time>2022-08-12T19:06:31Z</time>
      </trkpt>
      <trkpt lat="44.72631" lon="1.21972">
        <ele>111.4</ele>
        <time>2022-08-12T19:07:35Z</time>
      </trkpt>
      <trkpt lat="44.72626" lon="1.21975">
        <ele>110.4</ele>
        <time>2022-08-12T19:07:37Z</time>
      </trkpt>
      <trkpt lat="44.7262" lon="1.21978">
        <ele>107.4</ele>
        <time>2022-08-12T19:07:39Z</time>
      </trkpt>
      <trkpt lat="44.72615" lon="1.2198">
        <ele>105.4</ele>
        <time>2022-08-12T19:07:41Z</time>
      </trkpt>
      <trkpt lat="44.72609" lon="1.21984">
        <ele>104.4</ele>
        <time>2022-08-12T19:07:43Z</time>
      </trkpt>
      <trkpt lat="44.72605" lon="1.21987">
        <ele>104.4</ele>
        <time>2022-08-12T19:07:45Z</time>
      </trkpt>
      <trkpt lat="44.72599" lon="1.21992">
        <ele>103.4</ele>
        <time>2022-08-12T19:07:48Z</time>
      </trkpt>
      <trkpt lat="44.72598" lon="1.22">
        <ele>102.4</ele>
        <time>2022-08-12T19:07:51Z</time>
      </trkpt>
      <trkpt lat="44.72598" lon="1.2201">
        <ele>102.4</ele>
        <time>2022-08-12T19:07:54Z</time>
      </trkpt>
      <trkpt lat="44.72599" lon="1.22019">
        <ele>101.4</ele>
        <time>2022-08-12T19:07:56Z</time>
      </trkpt>
      <trkpt lat="44.726" lon="1.22026">
        <ele>99.4</ele>
        <time>2022-08-12T19:07:58Z</time>
      </trkpt>
      <trkpt lat="44.726" lon="1.22033">
        <ele>96.4</ele>
        <time>2022-08-12T19:08:00Z</time>
      </trkpt>
      <trkpt lat="44.72601" lon="1.2204">
        <ele>94.4</ele>
        <time>2022-08-12T19:08:02Z</time>
      </trkpt>
      <trkpt lat="44.72599" lon="1.22048">
        <ele>92.4</ele>
        <time>2022-08-12T19:08:05Z</time>
      </trkpt>
      <trkpt lat="44.72597" lon="1.22054">
        <ele>92.4</ele>
        <time>2022-08-12T19:08:07Z</time>
      </trkpt>
      <trkpt lat="44.72596" lon="1.2206">
        <ele>91.4</ele>
        <time>2022-08-12T19:08:09Z</time>
      </trkpt>
      <trkpt lat="44.72597" lon="1.22069">
        <ele>92.4</ele>
        <time>2022-08-12T19:08:12Z</time>
      </trkpt>
      <trkpt lat="44.726" lon="1.22076">
        <ele>94.4</ele>
        <time>2022-08-12T19:08:14Z</time>
      </trkpt>
      <trkpt lat="44.72603" lon="1.22082">
        <ele>96.4</ele>
        <time>2022-08-12T19:08:16Z</time>
      </trkpt>
      <trkpt lat="44.72608" lon="1.22086">
        <ele>97.4</ele>
        <time>2022-08-12T19:08:18Z</time>
      </trkpt>
      <trkpt lat="44.72614" lon="1.22091">
        <ele>99.4</ele>
        <time>2022-08-12T19:08:21Z</time>
      </trkpt>
      <trkpt lat="44.72619" lon="1.22094">
        <ele>99.4</ele>
        <time>2022-08-12T19:08:24Z</time>
      </trkpt>
      <trkpt lat="44.72624" lon="1.22094">
        <ele>100.4</ele>
        <time>2022-08-12T19:08:27Z</time>
      </trkpt>
      <trkpt lat="44.72628" lon="1.22091">
        <ele>100.4</ele>
        <time>2022-08-12T19:08:29Z</time>
      </trkpt>
      <trkpt lat="44.72632" lon="1.22086">
        <ele>100.4</ele>
        <time>2022-08-12T19:08:31Z</time>
      </trkpt>
      <trkpt lat="44.72637" lon="1.2208">
        <ele>100.4</ele>
        <time>2022-08-12T19:08:33Z</time>
      </trkpt>
      <trkpt lat="44.72642" lon="1.22077">
        <ele>100.4</ele>
        <time>2022-08-12T19:08:35Z</time>
      </trkpt>
      <trkpt lat="44.72649" lon="1.22074">
        <ele>100.4</ele>
        <time>2022-08-12T19:08:37Z</time>
      </trkpt>
      <trkpt lat="44.72655" lon="1.22072">
        <ele>103.4</ele>
        <time>2022-08-12T19:08:39Z</time>
      </trkpt>
      <trkpt lat="44.72661" lon="1.2207">
        <ele>104.4</ele>
        <time>2022-08-12T19:08:41Z</time>
      </trkpt>
      <trkpt lat="44.72665" lon="1.22071">
        <ele>106.4</ele>
        <time>2022-08-12T19:08:43Z</time>
      </trkpt>
      <trkpt lat="44.72672" lon="1.22072">
        <ele>106.4</ele>
        <time>2022-08-12T19:08:46Z</time>
      </trkpt>
      <trkpt lat="44.72676" lon="1.22069">
        <ele>108.4</ele>
        <time>2022-08-12T19:08:48Z</time>
      </trkpt>
      <trkpt lat="44.72681" lon="1.22068">
        <ele>109.4</ele>
        <time>2022-08-12T19:08:51Z</time>
      </trkpt>
      <trkpt lat="44.72686" lon="1.22069">
        <ele>110.4</ele>
        <time>2022-08-12T19:08:54Z</time>
      </trkpt>
      <trkpt lat="44.72691" lon="1.2207">
        <ele>110.4</ele>
        <time>2022-08-12T19:08:57Z</time>
      </trkpt>
      <trkpt lat="44.72696" lon="1.2207">
        <ele>110.4</ele>
        <time>2022-08-12T19:09:00Z</time>
      </trkpt>
      <trkpt lat="44.72691" lon="1.22071">
        <ele>106.4</ele>
        <time>2022-08-12T19:09:20Z</time>
      </trkpt>
      <trkpt lat="44.72693" lon="1.22078">
        <ele>105.4</ele>
        <time>2022-08-12T19:09:29Z</time>
      </trkpt>
      <trkpt lat="44.72695" lon="1.22085">
        <ele>104.4</ele>
        <time>2022-08-12T19:09:32Z</time>
      </trkpt>
      <trkpt lat="44.72699" lon="1.2209">
        <ele>103.4</ele>
        <time>2022-08-12T19:09:36Z</time>
      </trkpt>
      <trkpt lat="44.72694" lon="1.22091">
        <ele>101.4</ele>
        <time>2022-08-12T19:09:50Z</time>
      </trkpt>
      <trkpt lat="44.72689" lon="1.2209">
        <ele>101.4</ele>
        <time>2022-08-12T19:09:54Z</time>
      </trkpt>
      <trkpt lat="44.72685" lon="1.22089">
        <ele>102.4</ele>
        <time>2022-08-12T19:09:58Z</time>
      </trkpt>
      <trkpt lat="44.7268" lon="1.22088">
        <ele>102.4</ele>
        <time>2022-08-12T19:10:02Z</time>
      </trkpt>
      <trkpt lat="44.72674" lon="1.22087">
        <ele>102.4</ele>
        <time>2022-08-12T19:10:07Z</time>
      </trkpt>
      <trkpt lat="44.7267" lon="1.22081">
        <ele>103.4</ele>
        <time>2022-08-12T19:10:12Z</time>
      </trkpt>
      <trkpt lat="44.72665" lon="1.22078">
        <ele>103.4</ele>
        <time>2022-08-12T19:10:16Z</time>
      </trkpt>
      <trkpt lat="44.72659" lon="1.22078">
        <ele>103.4</ele>
        <time>2022-08-12T19:10:21Z</time>
      </trkpt>
      <trkpt lat="44.72654" lon="1.22078">
        <ele>102.4</ele>
        <time>2022-08-12T19:10:26Z</time>
      </trkpt>
      <trkpt lat="44.72647" lon="1.22077">
        <ele>104.4</ele>
        <time>2022-08-12T19:10:32Z</time>
      </trkpt>
      <trkpt lat="44.72642" lon="1.22077">
        <ele>103.4</ele>
        <time>2022-08-12T19:10:42Z</time>
      </trkpt>
      <trkpt lat="44.72638" lon="1.22081">
        <ele>102.4</ele>
        <time>2022-08-12T19:10:46Z</time>
      </trkpt>
      <trkpt lat="44.72635" lon="1.22085">
        <ele>102.4</ele>
        <time>2022-08-12T19:10:50Z</time>
      </trkpt>
      <trkpt lat="44.72631" lon="1.22091">
        <ele>104.4</ele>
        <time>2022-08-12T19:10:55Z</time>
      </trkpt>
      <trkpt lat="44.72627" lon="1.22094">
        <ele>105.4</ele>
        <time>2022-08-12T19:10:58Z</time>
      </trkpt>
      <trkpt lat="44.72622" lon="1.22096">
        <ele>107.4</ele>
        <time>2022-08-12T19:11:02Z</time>
      </trkpt>
      <trkpt lat="44.72616" lon="1.22095">
        <ele>108.4</ele>
        <time>2022-08-12T19:11:07Z</time>
      </trkpt>
      <trkpt lat="44.72611" lon="1.22089">
        <ele>107.4</ele>
        <time>2022-08-12T19:11:11Z</time>
      </trkpt>
      <trkpt lat="44.72608" lon="1.22085">
        <ele>107.4</ele>
        <time>2022-08-12T19:11:14Z</time>
      </trkpt>
      <trkpt lat="44.72603" lon="1.22081">
        <ele>108.4</ele>
        <time>2022-08-12T19:11:17Z</time>
      </trkpt>
      <trkpt lat="44.726" lon="1.22077">
        <ele>108.4</ele>
        <time>2022-08-12T19:11:20Z</time>
      </trkpt>
      <trkpt lat="44.72595" lon="1.22072">
        <ele>107.4</ele>
        <time>2022-08-12T19:11:24Z</time>
      </trkpt>
      <trkpt lat="44.72592" lon="1.22066">
        <ele>107.4</ele>
        <time>2022-08-12T19:11:28Z</time>
      </trkpt>
      <trkpt lat="44.7259" lon="1.2206">
        <ele>109.4</ele>
        <time>2022-08-12T19:11:32Z</time>
      </trkpt>
      <trkpt lat="44.72585" lon="1.22056">
        <ele>109.4</ele>
        <time>2022-08-12T19:11:36Z</time>
      </trkpt>
      <trkpt lat="44.72582" lon="1.2205">
        <ele>109.4</ele>
        <time>2022-08-12T19:11:39Z</time>
      </trkpt>
      <trkpt lat="44.72579" lon="1.22043">
        <ele>109.4</ele>
        <time>2022-08-12T19:11:41Z</time>
      </trkpt>
      <trkpt lat="44.72577" lon="1.22034">
        <ele>107.4</ele>
        <time>2022-08-12T19:11:43Z</time>
      </trkpt>
      <trkpt lat="44.72577" lon="1.22023">
        <ele>109.4</ele>
        <time>2022-08-12T19:11:46Z</time>
      </trkpt>
      <trkpt lat="44.72581" lon="1.22013">
        <ele>109.4</ele>
        <time>2022-08-12T19:11:49Z</time>
      </trkpt>
      <trkpt lat="44.72585" lon="1.22007">
        <ele>109.4</ele>
        <time>2022-08-12T19:11:51Z</time>
      </trkpt>
      <trkpt lat="44.72591" lon="1.22001">
        <ele>109.4</ele>
        <time>2022-08-12T19:11:53Z</time>
      </trkpt>
      <trkpt lat="44.72598" lon="1.21996">
        <ele>109.4</ele>
        <time>2022-08-12T19:11:55Z</time>
      </trkpt>
      <trkpt lat="44.72603" lon="1.21988">
        <ele>110.4</ele>
        <time>2022-08-12T19:11:57Z</time>
      </trkpt>
      <trkpt lat="44.72604" lon="1.2198">
        <ele>111.4</ele>
        <time>2022-08-12T19:11:58Z</time>
      </trkpt>
      <trkpt lat="44.72604" lon="1.21972">
        <ele>113.4</ele>
        <time>2022-08-12T19:11:59Z</time>
      </trkpt>
      <trkpt lat="44.72606" lon="1.21962">
        <ele>113.4</ele>
        <time>2022-08-12T19:12:01Z</time>
      </trkpt>
      <trkpt lat="44.72606" lon="1.21954">
        <ele>113.4</ele>
        <time>2022-08-12T19:12:03Z</time>
      </trkpt>
      <trkpt lat="44.72608" lon="1.21946">
        <ele>114.4</ele>
        <time>2022-08-12T19:12:06Z</time>
      </trkpt>
      <trkpt lat="44.72612" lon="1.21941">
        <ele>114.4</ele>
        <time>2022-08-12T19:12:08Z</time>
      </trkpt>
      <trkpt lat="44.72616" lon="1.21935">
        <ele>113.4</ele>
        <time>2022-08-12T19:12:10Z</time>
      </trkpt>
      <trkpt lat="44.7262" lon="1.21926">
        <ele>112.4</ele>
        <time>2022-08-12T19:12:12Z</time>
      </trkpt>
      <trkpt lat="44.72622" lon="1.2192">
        <ele>112.4</ele>
        <time>2022-08-12T19:12:13Z</time>
      </trkpt>
      <trkpt lat="44.72624" lon="1.21913">
        <ele>112.4</ele>
        <time>2022-08-12T19:12:14Z</time>
      </trkpt>
      <trkpt lat="44.72625" lon="1.21905">
        <ele>112.4</ele>
        <time>2022-08-12T19:12:15Z</time>
      </trkpt>
      <trkpt lat="44.72627" lon="1.21897">
        <ele>112.4</ele>
        <time>2022-08-12T19:12:16Z</time>
      </trkpt>
      <trkpt lat="44.72628" lon="1.21888">
        <ele>112.4</ele>
        <time>2022-08-12T19:12:17Z</time>
      </trkpt>
      <trkpt lat="44.72629" lon="1.21881">
        <ele>111.4</ele>
        <time>2022-08-12T19:12:18Z</time>
      </trkpt>
      <trkpt lat="44.72629" lon="1.21874">
        <ele>111.4</ele>
        <time>2022-08-12T19:12:19Z</time>
      </trkpt>
      <trkpt lat="44.7263" lon="1.21862">
        <ele>110.4</ele>
        <time>2022-08-12T19:12:21Z</time>
      </trkpt>
      <trkpt lat="44.72631" lon="1.21852">
        <ele>111.4</ele>
        <time>2022-08-12T19:12:23Z</time>
      </trkpt>
      <trkpt lat="44.72634" lon="1.21846">
        <ele>111.4</ele>
        <time>2022-08-12T19:12:26Z</time>
      </trkpt>
      <trkpt lat="44.72638" lon="1.21838">
        <ele>112.4</ele>
        <time>2022-08-12T19:12:29Z</time>
      </trkpt>
      <trkpt lat="44.72639" lon="1.21831">
        <ele>112.4</ele>
        <time>2022-08-12T19:12:31Z</time>
      </trkpt>
      <trkpt lat="44.72639" lon="1.21824">
        <ele>111.4</ele>
        <time>2022-08-12T19:12:33Z</time>
      </trkpt>
      <trkpt lat="44.72639" lon="1.21817">
        <ele>111.4</ele>
        <time>2022-08-12T19:12:35Z</time>
      </trkpt>
      <trkpt lat="44.72637" lon="1.2181">
        <ele>111.4</ele>
        <time>2022-08-12T19:12:38Z</time>
      </trkpt>
      <trkpt lat="44.72638" lon="1.21802">
        <ele>111.4</ele>
        <time>2022-08-12T19:12:42Z</time>
      </trkpt>
      <trkpt lat="44.7264" lon="1.21809">
        <ele>109.4</ele>
        <time>2022-08-12T19:12:55Z</time>
      </trkpt>
      <trkpt lat="44.72642" lon="1.21815">
        <ele>106.4</ele>
        <time>2022-08-12T19:13:01Z</time>
      </trkpt>
      <trkpt lat="44.72642" lon="1.21822">
        <ele>104.4</ele>
        <time>2022-08-12T19:13:06Z</time>
      </trkpt>
      <trkpt lat="44.7264" lon="1.21816">
        <ele>106.4</ele>
        <time>2022-08-12T19:15:46Z</time>
      </trkpt>
      <trkpt lat="44.7264" lon="1.21809">
        <ele>108.4</ele>
        <time>2022-08-12T19:15:51Z</time>
      </trkpt>
      <trkpt lat="44.72641" lon="1.21802">
        <ele>108.4</ele>
        <time>2022-08-12T19:15:54Z</time>
      </trkpt>
      <trkpt lat="44.72642" lon="1.21796">
        <ele>109.4</ele>
        <time>2022-08-12T19:15:57Z</time>
      </trkpt>
      <trkpt lat="44.72642" lon="1.21788">
        <ele>109.4</ele>
        <time>2022-08-12T19:16:01Z</time>
      </trkpt>
      <trkpt lat="44.72642" lon="1.21781">
        <ele>109.4</ele>
        <time>2022-08-12T19:16:05Z</time>
      </trkpt>
      <trkpt lat="44.72643" lon="1.21774">
        <ele>111.4</ele>
        <time>2022-08-12T19:16:12Z</time>
      </trkpt>
      <trkpt lat="44.72644" lon="1.21768">
        <ele>111.4</ele>
        <time>2022-08-12T19:16:15Z</time>
      </trkpt>
      <trkpt lat="44.72645" lon="1.21759">
        <ele>110.4</ele>
        <time>2022-08-12T19:16:19Z</time>
      </trkpt>
      <trkpt lat="44.72645" lon="1.21753">
        <ele>110.4</ele>
        <time>2022-08-12T19:16:22Z</time>
      </trkpt>
      <trkpt lat="44.72645" lon="1.21745">
        <ele>111.4</ele>
        <time>2022-08-12T19:16:26Z</time>
      </trkpt>
      <trkpt lat="44.72647" lon="1.21738">
        <ele>111.4</ele>
        <time>2022-08-12T19:16:29Z</time>
      </trkpt>
      <trkpt lat="44.72649" lon="1.21731">
        <ele>113.4</ele>
        <time>2022-08-12T19:16:33Z</time>
      </trkpt>
      <trkpt lat="44.72652" lon="1.21725">
        <ele>111.4</ele>
        <time>2022-08-12T19:16:37Z</time>
      </trkpt>
      <trkpt lat="44.72654" lon="1.21717">
        <ele>112.4</ele>
        <time>2022-08-12T19:16:41Z</time>
      </trkpt>
      <trkpt lat="44.72656" lon="1.21712">
        <ele>111.4</ele>
        <time>2022-08-12T19:16:44Z</time>
      </trkpt>
      <trkpt lat="44.7266" lon="1.21705">
        <ele>112.4</ele>
        <time>2022-08-12T19:16:48Z</time>
      </trkpt>
      <trkpt lat="44.72664" lon="1.21699">
        <ele>114.4</ele>
        <time>2022-08-12T19:16:52Z</time>
      </trkpt>
      <trkpt lat="44.72668" lon="1.21695">
        <ele>114.4</ele>
        <time>2022-08-12T19:16:59Z</time>
      </trkpt>
      <trkpt lat="44.72672" lon="1.2169">
        <ele>109.4</ele>
        <time>2022-08-12T19:17:06Z</time>
      </trkpt>
      <trkpt lat="44.72674" lon="1.21685">
        <ele>107.4</ele>
        <time>2022-08-12T19:17:09Z</time>
      </trkpt>
      <trkpt lat="44.72676" lon="1.21678">
        <ele>107.4</ele>
        <time>2022-08-12T19:17:12Z</time>
      </trkpt>
      <trkpt lat="44.72679" lon="1.21672">
        <ele>106.4</ele>
        <time>2022-08-12T19:17:16Z</time>
      </trkpt>
      <trkpt lat="44.72683" lon="1.21668">
        <ele>107.4</ele>
        <time>2022-08-12T19:17:20Z</time>
      </trkpt>
      <trkpt lat="44.72686" lon="1.21662">
        <ele>106.4</ele>
        <time>2022-08-12T19:17:27Z</time>
      </trkpt>
      <trkpt lat="44.72691" lon="1.21656">
        <ele>105.4</ele>
        <time>2022-08-12T19:17:32Z</time>
      </trkpt>
      <trkpt lat="44.72694" lon="1.2165">
        <ele>105.4</ele>
        <time>2022-08-12T19:17:36Z</time>
      </trkpt>
      <trkpt lat="44.72698" lon="1.21645">
        <ele>105.4</ele>
        <time>2022-08-12T19:17:40Z</time>
      </trkpt>
      <trkpt lat="44.72702" lon="1.21641">
        <ele>105.4</ele>
        <time>2022-08-12T19:17:44Z</time>
      </trkpt>
      <trkpt lat="44.72707" lon="1.21642">
        <ele>107.4</ele>
        <time>2022-08-12T19:17:49Z</time>
      </trkpt>
      <trkpt lat="44.72711" lon="1.21638">
        <ele>109.4</ele>
        <time>2022-08-12T19:18:00Z</time>
      </trkpt>
      <trkpt lat="44.72714" lon="1.21632">
        <ele>110.4</ele>
        <time>2022-08-12T19:18:05Z</time>
      </trkpt>
      <trkpt lat="44.72719" lon="1.21629">
        <ele>110.4</ele>
        <time>2022-08-12T19:18:08Z</time>
      </trkpt>
      <trkpt lat="44.72723" lon="1.21628">
        <ele>111.4</ele>
        <time>2022-08-12T19:18:11Z</time>
      </trkpt>
      <trkpt lat="44.72728" lon="1.21626">
        <ele>112.4</ele>
        <time>2022-08-12T19:18:14Z</time>
      </trkpt>
      <trkpt lat="44.72732" lon="1.21622">
        <ele>111.4</ele>
        <time>2022-08-12T19:18:17Z</time>
      </trkpt>
      <trkpt lat="44.72736" lon="1.2162">
        <ele>110.4</ele>
        <time>2022-08-12T19:18:20Z</time>
      </trkpt>
      <trkpt lat="44.72741" lon="1.21619">
        <ele>110.4</ele>
        <time>2022-08-12T19:18:23Z</time>
      </trkpt>
      <trkpt lat="44.72745" lon="1.21617">
        <ele>109.4</ele>
        <time>2022-08-12T19:18:26Z</time>
      </trkpt>
      <trkpt lat="44.7275" lon="1.21616">
        <ele>112.4</ele>
        <time>2022-08-12T19:18:31Z</time>
      </trkpt>
      <trkpt lat="44.72756" lon="1.21614">
        <ele>110.4</ele>
        <time>2022-08-12T19:18:34Z</time>
      </trkpt>
      <trkpt lat="44.72761" lon="1.21613">
        <ele>108.4</ele>
        <time>2022-08-12T19:18:38Z</time>
      </trkpt>
      <trkpt lat="44.72766" lon="1.21612">
        <ele>107.4</ele>
        <time>2022-08-12T19:18:42Z</time>
      </trkpt>
      <trkpt lat="44.7277" lon="1.21611">
        <ele>106.4</ele>
        <time>2022-08-12T19:18:47Z</time>
      </trkpt>
      <trkpt lat="44.72775" lon="1.21609">
        <ele>106.4</ele>
        <time>2022-08-12T19:18:53Z</time>
      </trkpt>
      <trkpt lat="44.7277" lon="1.21612">
        <ele>110.4</ele>
        <time>2022-08-12T19:19:09Z</time>
      </trkpt>
      <trkpt lat="44.72769" lon="1.21606">
        <ele>117.4</ele>
        <time>2022-08-12T19:24:54Z</time>
      </trkpt>
      <trkpt lat="44.72771" lon="1.21611">
        <ele>120.4</ele>
        <time>2022-08-12T19:26:22Z</time>
      </trkpt>
      <trkpt lat="44.72767" lon="1.21609">
        <ele>126.4</ele>
        <time>2022-08-12T19:30:22Z</time>
      </trkpt>
      <trkpt lat="44.72763" lon="1.21611">
        <ele>127.4</ele>
        <time>2022-08-12T19:31:16Z</time>
      </trkpt>
      <trkpt lat="44.72766" lon="1.21616">
        <ele>129.4</ele>
        <time>2022-08-12T19:32:05Z</time>
      </trkpt>
      <trkpt lat="44.72763" lon="1.21611">
        <ele>125.4</ele>
        <time>2022-08-12T19:32:58Z</time>
      </trkpt>
      <trkpt lat="44.72763" lon="1.21617">
        <ele>124.4</ele>
        <time>2022-08-12T19:37:37Z</time>
      </trkpt>
      <trkpt lat="44.72763" lon="1.21623">
        <ele>125.4</ele>
        <time>2022-08-12T19:38:06Z</time>
      </trkpt>
      <trkpt lat="44.72768" lon="1.21621">
        <ele>125.4</ele>
        <time>2022-08-12T19:53:22Z</time>
      </trkpt>
      <trkpt lat="44.72765" lon="1.21615">
        <ele>120.4</ele>
        <time>2022-08-12T20:07:28Z</time>
      </trkpt>
      <trkpt lat="44.7277" lon="1.21615">
        <ele>114.4</ele>
        <time>2022-08-12T20:20:03Z</time>
      </trkpt>
      <trkpt lat="44.72763" lon="1.21615">
        <ele>124.4</ele>
        <time>2022-08-13T07:04:56Z</time>
      </trkpt>
      <trkpt lat="44.72758" lon="1.21617">
        <ele>122.4</ele>
        <time>2022-08-13T07:07:47Z</time>
      </trkpt>
      <trkpt lat="44.72753" lon="1.21618">
        <ele>122.4</ele>
        <time>2022-08-13T07:07:49Z</time>
      </trkpt>
      <trkpt lat="44.72748" lon="1.21618">
        <ele>122.4</ele>
        <time>2022-08-13T07:07:51Z</time>
      </trkpt>
      <trkpt lat="44.72743" lon="1.2162">
        <ele>122.4</ele>
        <time>2022-08-13T07:07:53Z</time>
      </trkpt>
      <trkpt lat="44.72737" lon="1.21622">
        <ele>122.4</ele>
        <time>2022-08-13T07:07:55Z</time>
      </trkpt>
      <trkpt lat="44.72731" lon="1.21625">
        <ele>122.4</ele>
        <time>2022-08-13T07:07:57Z</time>
      </trkpt>
      <trkpt lat="44.72726" lon="1.21626">
        <ele>122.4</ele>
        <time>2022-08-13T07:07:59Z</time>
      </trkpt>
      <trkpt lat="44.72721" lon="1.21629">
        <ele>122.4</ele>
        <time>2022-08-13T07:08:01Z</time>
      </trkpt>
      <trkpt lat="44.72716" lon="1.21631">
        <ele>121.4</ele>
        <time>2022-08-13T07:08:03Z</time>
      </trkpt>
      <trkpt lat="44.7271" lon="1.21633">
        <ele>121.4</ele>
        <time>2022-08-13T07:08:05Z</time>
      </trkpt>
      <trkpt lat="44.72705" lon="1.21636">
        <ele>120.4</ele>
        <time>2022-08-13T07:08:07Z</time>
      </trkpt>
      <trkpt lat="44.72701" lon="1.21639">
        <ele>119.4</ele>
        <time>2022-08-13T07:08:09Z</time>
      </trkpt>
      <trkpt lat="44.72696" lon="1.2164">
        <ele>119.4</ele>
        <time>2022-08-13T07:08:11Z</time>
      </trkpt>
      <trkpt lat="44.72691" lon="1.21642">
        <ele>118.4</ele>
        <time>2022-08-13T07:08:13Z</time>
      </trkpt>
      <trkpt lat="44.72686" lon="1.21646">
        <ele>117.4</ele>
        <time>2022-08-13T07:08:16Z</time>
      </trkpt>
      <trkpt lat="44.72681" lon="1.21649">
        <ele>118.4</ele>
        <time>2022-08-13T07:08:19Z</time>
      </trkpt>
      <trkpt lat="44.72678" lon="1.21653">
        <ele>117.4</ele>
        <time>2022-08-13T07:08:21Z</time>
      </trkpt>
      <trkpt lat="44.72675" lon="1.21659">
        <ele>117.4</ele>
        <time>2022-08-13T07:08:23Z</time>
      </trkpt>
      <trkpt lat="44.72672" lon="1.21664">
        <ele>118.4</ele>
        <time>2022-08-13T07:08:25Z</time>
      </trkpt>
      <trkpt lat="44.72669" lon="1.21669">
        <ele>118.4</ele>
        <time>2022-08-13T07:08:27Z</time>
      </trkpt>
      <trkpt lat="44.72666" lon="1.21673">
        <ele>117.4</ele>
        <time>2022-08-13T07:08:29Z</time>
      </trkpt>
      <trkpt lat="44.72662" lon="1.21679">
        <ele>117.4</ele>
        <time>2022-08-13T07:08:31Z</time>
      </trkpt>
      <trkpt lat="44.72659" lon="1.21684">
        <ele>118.4</ele>
        <time>2022-08-13T07:08:33Z</time>
      </trkpt>
      <trkpt lat="44.72654" lon="1.2169">
        <ele>119.4</ele>
        <time>2022-08-13T07:08:36Z</time>
      </trkpt>
      <trkpt lat="44.7265" lon="1.21696">
        <ele>119.4</ele>
        <time>2022-08-13T07:08:39Z</time>
      </trkpt>
      <trkpt lat="44.72647" lon="1.21702">
        <ele>117.4</ele>
        <time>2022-08-13T07:08:41Z</time>
      </trkpt>
      <trkpt lat="44.72644" lon="1.21706">
        <ele>118.4</ele>
        <time>2022-08-13T07:08:43Z</time>
      </trkpt>
      <trkpt lat="44.7264" lon="1.21713">
        <ele>117.4</ele>
        <time>2022-08-13T07:08:46Z</time>
      </trkpt>
      <trkpt lat="44.72637" lon="1.21721">
        <ele>116.4</ele>
        <time>2022-08-13T07:08:49Z</time>
      </trkpt>
      <trkpt lat="44.72635" lon="1.21728">
        <ele>115.4</ele>
        <time>2022-08-13T07:08:51Z</time>
      </trkpt>
      <trkpt lat="44.72634" lon="1.21735">
        <ele>114.4</ele>
        <time>2022-08-13T07:08:53Z</time>
      </trkpt>
      <trkpt lat="44.72633" lon="1.21742">
        <ele>113.4</ele>
        <time>2022-08-13T07:08:55Z</time>
      </trkpt>
      <trkpt lat="44.72631" lon="1.21752">
        <ele>113.4</ele>
        <time>2022-08-13T07:08:57Z</time>
      </trkpt>
      <trkpt lat="44.72629" lon="1.21761">
        <ele>113.4</ele>
        <time>2022-08-13T07:08:59Z</time>
      </trkpt>
      <trkpt lat="44.72627" lon="1.21769">
        <ele>113.4</ele>
        <time>2022-08-13T07:09:01Z</time>
      </trkpt>
      <trkpt lat="44.72626" lon="1.21779">
        <ele>112.4</ele>
        <time>2022-08-13T07:09:03Z</time>
      </trkpt>
      <trkpt lat="44.72625" lon="1.21789">
        <ele>111.4</ele>
        <time>2022-08-13T07:09:05Z</time>
      </trkpt>
      <trkpt lat="44.72625" lon="1.21799">
        <ele>110.4</ele>
        <time>2022-08-13T07:09:07Z</time>
      </trkpt>
      <trkpt lat="44.72625" lon="1.21809">
        <ele>110.4</ele>
        <time>2022-08-13T07:09:09Z</time>
      </trkpt>
      <trkpt lat="44.72626" lon="1.2182">
        <ele>111.4</ele>
        <time>2022-08-13T07:09:11Z</time>
      </trkpt>
      <trkpt lat="44.72626" lon="1.21831">
        <ele>111.4</ele>
        <time>2022-08-13T07:09:13Z</time>
      </trkpt>
      <trkpt lat="44.72626" lon="1.2184">
        <ele>111.4</ele>
        <time>2022-08-13T07:09:15Z</time>
      </trkpt>
      <trkpt lat="44.72627" lon="1.21851">
        <ele>110.4</ele>
        <time>2022-08-13T07:09:17Z</time>
      </trkpt>
      <trkpt lat="44.72627" lon="1.21858">
        <ele>110.4</ele>
        <time>2022-08-13T07:09:18Z</time>
      </trkpt>
      <trkpt lat="44.72627" lon="1.2187">
        <ele>111.4</ele>
        <time>2022-08-13T07:09:20Z</time>
      </trkpt>
      <trkpt lat="44.72626" lon="1.21882">
        <ele>110.4</ele>
        <time>2022-08-13T07:09:22Z</time>
      </trkpt>
      <trkpt lat="44.72625" lon="1.21889">
        <ele>111.4</ele>
        <time>2022-08-13T07:09:23Z</time>
      </trkpt>
      <trkpt lat="44.72624" lon="1.21901">
        <ele>111.4</ele>
        <time>2022-08-13T07:09:25Z</time>
      </trkpt>
      <trkpt lat="44.72621" lon="1.21912">
        <ele>110.4</ele>
        <time>2022-08-13T07:09:27Z</time>
      </trkpt>
      <trkpt lat="44.72619" lon="1.21922">
        <ele>109.4</ele>
        <time>2022-08-13T07:09:29Z</time>
      </trkpt>
      <trkpt lat="44.72617" lon="1.2193">
        <ele>109.4</ele>
        <time>2022-08-13T07:09:31Z</time>
      </trkpt>
      <trkpt lat="44.72615" lon="1.21936">
        <ele>109.4</ele>
        <time>2022-08-13T07:09:33Z</time>
      </trkpt>
      <trkpt lat="44.7261" lon="1.21942">
        <ele>110.4</ele>
        <time>2022-08-13T07:09:36Z</time>
      </trkpt>
      <trkpt lat="44.72606" lon="1.21949">
        <ele>111.4</ele>
        <time>2022-08-13T07:09:39Z</time>
      </trkpt>
      <trkpt lat="44.72603" lon="1.21956">
        <ele>111.4</ele>
        <time>2022-08-13T07:09:41Z</time>
      </trkpt>
      <trkpt lat="44.72601" lon="1.21965">
        <ele>111.4</ele>
        <time>2022-08-13T07:09:43Z</time>
      </trkpt>
      <trkpt lat="44.72601" lon="1.21976">
        <ele>111.4</ele>
        <time>2022-08-13T07:09:45Z</time>
      </trkpt>
      <trkpt lat="44.726" lon="1.21984">
        <ele>111.4</ele>
        <time>2022-08-13T07:09:47Z</time>
      </trkpt>
      <trkpt lat="44.72598" lon="1.2199">
        <ele>110.4</ele>
        <time>2022-08-13T07:09:49Z</time>
      </trkpt>
      <trkpt lat="44.72594" lon="1.21995">
        <ele>111.4</ele>
        <time>2022-08-13T07:09:51Z</time>
      </trkpt>
      <trkpt lat="44.72589" lon="1.22">
        <ele>111.4</ele>
        <time>2022-08-13T07:09:53Z</time>
      </trkpt>
      <trkpt lat="44.72584" lon="1.22002">
        <ele>110.4</ele>
        <time>2022-08-13T07:09:55Z</time>
      </trkpt>
      <trkpt lat="44.72578" lon="1.22003">
        <ele>110.4</ele>
        <time>2022-08-13T07:09:57Z</time>
      </trkpt>
      <trkpt lat="44.72574" lon="1.22005">
        <ele>110.4</ele>
        <time>2022-08-13T07:09:59Z</time>
      </trkpt>
      <trkpt lat="44.72568" lon="1.22004">
        <ele>110.4</ele>
        <time>2022-08-13T07:10:02Z</time>
      </trkpt>
      <trkpt lat="44.72563" lon="1.22005">
        <ele>111.4</ele>
        <time>2022-08-13T07:10:04Z</time>
      </trkpt>
      <trkpt lat="44.72557" lon="1.22004">
        <ele>110.4</ele>
        <time>2022-08-13T07:10:06Z</time>
      </trkpt>
      <trkpt lat="44.72552" lon="1.22002">
        <ele>111.4</ele>
        <time>2022-08-13T07:10:08Z</time>
      </trkpt>
      <trkpt lat="44.72547" lon="1.22">
        <ele>111.4</ele>
        <time>2022-08-13T07:10:10Z</time>
      </trkpt>
      <trkpt lat="44.72542" lon="1.21998">
        <ele>111.4</ele>
        <time>2022-08-13T07:10:12Z</time>
      </trkpt>
      <trkpt lat="44.72537" lon="1.21995">
        <ele>112.4</ele>
        <time>2022-08-13T07:10:14Z</time>
      </trkpt>
      <trkpt lat="44.72532" lon="1.21994">
        <ele>113.4</ele>
        <time>2022-08-13T07:10:16Z</time>
      </trkpt>
      <trkpt lat="44.72527" lon="1.21992">
        <ele>114.4</ele>
        <time>2022-08-13T07:10:18Z</time>
      </trkpt>
      <trkpt lat="44.72523" lon="1.2199">
        <ele>114.4</ele>
        <time>2022-08-13T07:10:54Z</time>
      </trkpt>
      <trkpt lat="44.72518" lon="1.21989">
        <ele>114.4</ele>
        <time>2022-08-13T07:10:59Z</time>
      </trkpt>
      <trkpt lat="44.72518" lon="1.21982">
        <ele>118.4</ele>
        <time>2022-08-13T07:11:04Z</time>
      </trkpt>
      <trkpt lat="44.72517" lon="1.21974">
        <ele>120.4</ele>
        <time>2022-08-13T07:11:08Z</time>
      </trkpt>
      <trkpt lat="44.72514" lon="1.21969">
        <ele>120.4</ele>
        <time>2022-08-13T07:11:11Z</time>
      </trkpt>
      <trkpt lat="44.7251" lon="1.21964">
        <ele>121.4</ele>
        <time>2022-08-13T07:11:14Z</time>
      </trkpt>
      <trkpt lat="44.72505" lon="1.21961">
        <ele>119.4</ele>
        <time>2022-08-13T07:11:19Z</time>
      </trkpt>
      <trkpt lat="44.725" lon="1.21961">
        <ele>118.4</ele>
        <time>2022-08-13T07:11:23Z</time>
      </trkpt>
      <trkpt lat="44.72495" lon="1.2196">
        <ele>118.4</ele>
        <time>2022-08-13T07:11:55Z</time>
      </trkpt>
      <trkpt lat="44.72497" lon="1.21967">
        <ele>113.4</ele>
        <time>2022-08-13T07:12:27Z</time>
      </trkpt>
      <trkpt lat="44.725" lon="1.21973">
        <ele>112.4</ele>
        <time>2022-08-13T07:12:31Z</time>
      </trkpt>
      <trkpt lat="44.725" lon="1.21966">
        <ele>115.4</ele>
        <time>2022-08-13T07:12:44Z</time>
      </trkpt>
      <trkpt lat="44.72497" lon="1.21961">
        <ele>114.4</ele>
        <time>2022-08-13T07:12:49Z</time>
      </trkpt>
      <trkpt lat="44.72496" lon="1.21955">
        <ele>118.4</ele>
        <time>2022-08-13T07:14:14Z</time>
      </trkpt>
      <trkpt lat="44.72501" lon="1.21956">
        <ele>120.4</ele>
        <time>2022-08-13T07:17:56Z</time>
      </trkpt>
      <trkpt lat="44.72505" lon="1.21957">
        <ele>122.4</ele>
        <time>2022-08-13T07:17:59Z</time>
      </trkpt>
      <trkpt lat="44.7251" lon="1.21956">
        <ele>122.4</ele>
        <time>2022-08-13T07:18:03Z</time>
      </trkpt>
      <trkpt lat="44.72513" lon="1.2195">
        <ele>120.4</ele>
        <time>2022-08-13T07:18:09Z</time>
      </trkpt>
      <trkpt lat="44.72512" lon="1.21958">
        <ele>120.4</ele>
        <time>2022-08-13T07:18:31Z</time>
      </trkpt>
      <trkpt lat="44.72507" lon="1.21958">
        <ele>121.4</ele>
        <time>2022-08-13T07:18:34Z</time>
      </trkpt>
      <trkpt lat="44.72501" lon="1.21959">
        <ele>122.4</ele>
        <time>2022-08-13T07:18:38Z</time>
      </trkpt>
      <trkpt lat="44.72497" lon="1.21959">
        <ele>122.4</ele>
        <time>2022-08-13T07:18:42Z</time>
      </trkpt>
      <trkpt lat="44.725" lon="1.21965">
        <ele>124.4</ele>
        <time>2022-08-13T07:20:08Z</time>
      </trkpt>
      <trkpt lat="44.72504" lon="1.21965">
        <ele>124.4</ele>
        <time>2022-08-13T07:20:10Z</time>
      </trkpt>
      <trkpt lat="44.7251" lon="1.21965">
        <ele>124.4</ele>
        <time>2022-08-13T07:20:12Z</time>
      </trkpt>
      <trkpt lat="44.72515" lon="1.21966">
        <ele>124.4</ele>
        <time>2022-08-13T07:20:14Z</time>
      </trkpt>
      <trkpt lat="44.72517" lon="1.21981">
        <ele>123.4</ele>
        <time>2022-08-13T07:20:17Z</time>
      </trkpt>
      <trkpt lat="44.7252" lon="1.21988">
        <ele>123.4</ele>
        <time>2022-08-13T07:20:19Z</time>
      </trkpt>
      <trkpt lat="44.72525" lon="1.2199">
        <ele>122.4</ele>
        <time>2022-08-13T07:20:21Z</time>
      </trkpt>
      <trkpt lat="44.7253" lon="1.21989">
        <ele>122.4</ele>
        <time>2022-08-13T07:20:23Z</time>
      </trkpt>
      <trkpt lat="44.72536" lon="1.21991">
        <ele>122.4</ele>
        <time>2022-08-13T07:20:25Z</time>
      </trkpt>
      <trkpt lat="44.72542" lon="1.21994">
        <ele>121.4</ele>
        <time>2022-08-13T07:20:27Z</time>
      </trkpt>
      <trkpt lat="44.72548" lon="1.21996">
        <ele>121.4</ele>
        <time>2022-08-13T07:20:29Z</time>
      </trkpt>
      <trkpt lat="44.72553" lon="1.21997">
        <ele>121.4</ele>
        <time>2022-08-13T07:20:31Z</time>
      </trkpt>
      <trkpt lat="44.72559" lon="1.22">
        <ele>121.4</ele>
        <time>2022-08-13T07:20:33Z</time>
      </trkpt>
      <trkpt lat="44.72565" lon="1.22001">
        <ele>121.4</ele>
        <time>2022-08-13T07:20:35Z</time>
      </trkpt>
      <trkpt lat="44.7257" lon="1.22">
        <ele>120.4</ele>
        <time>2022-08-13T07:20:37Z</time>
      </trkpt>
      <trkpt lat="44.72575" lon="1.21998">
        <ele>118.4</ele>
        <time>2022-08-13T07:20:40Z</time>
      </trkpt>
      <trkpt lat="44.7258" lon="1.21997">
        <ele>116.4</ele>
        <time>2022-08-13T07:20:43Z</time>
      </trkpt>
      <trkpt lat="44.72583" lon="1.22003">
        <ele>116.4</ele>
        <time>2022-08-13T07:20:48Z</time>
      </trkpt>
      <trkpt lat="44.72579" lon="1.2201">
        <ele>116.4</ele>
        <time>2022-08-13T07:20:50Z</time>
      </trkpt>
      <trkpt lat="44.72575" lon="1.22016">
        <ele>117.4</ele>
        <time>2022-08-13T07:20:52Z</time>
      </trkpt>
      <trkpt lat="44.72571" lon="1.22022">
        <ele>118.4</ele>
        <time>2022-08-13T07:20:54Z</time>
      </trkpt>
      <trkpt lat="44.72567" lon="1.22028">
        <ele>119.4</ele>
        <time>2022-08-13T07:20:56Z</time>
      </trkpt>
      <trkpt lat="44.72561" lon="1.22034">
        <ele>119.4</ele>
        <time>2022-08-13T07:20:58Z</time>
      </trkpt>
      <trkpt lat="44.72555" lon="1.22038">
        <ele>118.4</ele>
        <time>2022-08-13T07:21:00Z</time>
      </trkpt>
      <trkpt lat="44.72549" lon="1.22041">
        <ele>118.4</ele>
        <time>2022-08-13T07:21:02Z</time>
      </trkpt>
      <trkpt lat="44.72543" lon="1.22046">
        <ele>119.4</ele>
        <time>2022-08-13T07:21:04Z</time>
      </trkpt>
      <trkpt lat="44.72537" lon="1.22052">
        <ele>119.4</ele>
        <time>2022-08-13T07:21:06Z</time>
      </trkpt>
      <trkpt lat="44.72532" lon="1.22056">
        <ele>119.4</ele>
        <time>2022-08-13T07:21:08Z</time>
      </trkpt>
      <trkpt lat="44.72526" lon="1.2206">
        <ele>119.4</ele>
        <time>2022-08-13T07:21:10Z</time>
      </trkpt>
      <trkpt lat="44.7252" lon="1.22064">
        <ele>120.4</ele>
        <time>2022-08-13T07:21:12Z</time>
      </trkpt>
      <trkpt lat="44.72515" lon="1.2207">
        <ele>120.4</ele>
        <time>2022-08-13T07:21:14Z</time>
      </trkpt>
      <trkpt lat="44.72507" lon="1.22076">
        <ele>121.4</ele>
        <time>2022-08-13T07:21:17Z</time>
      </trkpt>
      <trkpt lat="44.72501" lon="1.22079">
        <ele>121.4</ele>
        <time>2022-08-13T07:21:19Z</time>
      </trkpt>
      <trkpt lat="44.72494" lon="1.22085">
        <ele>121.4</ele>
        <time>2022-08-13T07:21:22Z</time>
      </trkpt>
      <trkpt lat="44.72489" lon="1.22089">
        <ele>121.4</ele>
        <time>2022-08-13T07:21:24Z</time>
      </trkpt>
      <trkpt lat="44.72487" lon="1.22095">
        <ele>122.4</ele>
        <time>2022-08-13T07:21:26Z</time>
      </trkpt>
      <trkpt lat="44.72487" lon="1.22103">
        <ele>122.4</ele>
        <time>2022-08-13T07:21:28Z</time>
      </trkpt>
      <trkpt lat="44.7249" lon="1.22109">
        <ele>122.4</ele>
        <time>2022-08-13T07:21:30Z</time>
      </trkpt>
      <trkpt lat="44.72492" lon="1.22117">
        <ele>122.4</ele>
        <time>2022-08-13T07:21:32Z</time>
      </trkpt>
      <trkpt lat="44.72496" lon="1.22124">
        <ele>123.4</ele>
        <time>2022-08-13T07:21:34Z</time>
      </trkpt>
      <trkpt lat="44.725" lon="1.2213">
        <ele>123.4</ele>
        <time>2022-08-13T07:21:36Z</time>
      </trkpt>
      <trkpt lat="44.72504" lon="1.22136">
        <ele>123.4</ele>
        <time>2022-08-13T07:21:38Z</time>
      </trkpt>
      <trkpt lat="44.72507" lon="1.22142">
        <ele>123.4</ele>
        <time>2022-08-13T07:21:40Z</time>
      </trkpt>
      <trkpt lat="44.72512" lon="1.22143">
        <ele>123.4</ele>
        <time>2022-08-13T07:22:11Z</time>
      </trkpt>
      <trkpt lat="44.7251" lon="1.22136">
        <ele>124.4</ele>
        <time>2022-08-13T07:22:17Z</time>
      </trkpt>
      <trkpt lat="44.72505" lon="1.22131">
        <ele>123.4</ele>
        <time>2022-08-13T07:22:22Z</time>
      </trkpt>
      <trkpt lat="44.72506" lon="1.22138">
        <ele>122.4</ele>
        <time>2022-08-13T07:22:25Z</time>
      </trkpt>
      <trkpt lat="44.72509" lon="1.22144">
        <ele>120.4</ele>
        <time>2022-08-13T07:22:28Z</time>
      </trkpt>
      <trkpt lat="44.72511" lon="1.22154">
        <ele>119.4</ele>
        <time>2022-08-13T07:22:32Z</time>
      </trkpt>
      <trkpt lat="44.72512" lon="1.22163">
        <ele>119.4</ele>
        <time>2022-08-13T07:22:36Z</time>
      </trkpt>
      <trkpt lat="44.72511" lon="1.2217">
        <ele>119.4</ele>
        <time>2022-08-13T07:22:40Z</time>
      </trkpt>
      <trkpt lat="44.72511" lon="1.22177">
        <ele>120.4</ele>
        <time>2022-08-13T07:22:46Z</time>
      </trkpt>
      <trkpt lat="44.7251" lon="1.22184">
        <ele>121.4</ele>
        <time>2022-08-13T07:22:50Z</time>
      </trkpt>
      <trkpt lat="44.72508" lon="1.2219">
        <ele>120.4</ele>
        <time>2022-08-13T07:22:55Z</time>
      </trkpt>
      <trkpt lat="44.72505" lon="1.22196">
        <ele>120.4</ele>
        <time>2022-08-13T07:23:00Z</time>
      </trkpt>
      <trkpt lat="44.72504" lon="1.22204">
        <ele>121.4</ele>
        <time>2022-08-13T07:23:05Z</time>
      </trkpt>
      <trkpt lat="44.72503" lon="1.22211">
        <ele>122.4</ele>
        <time>2022-08-13T07:23:09Z</time>
      </trkpt>
      <trkpt lat="44.72503" lon="1.22218">
        <ele>123.4</ele>
        <time>2022-08-13T07:23:12Z</time>
      </trkpt>
      <trkpt lat="44.72504" lon="1.22226">
        <ele>125.4</ele>
        <time>2022-08-13T07:23:15Z</time>
      </trkpt>
      <trkpt lat="44.72503" lon="1.22233">
        <ele>126.4</ele>
        <time>2022-08-13T07:23:19Z</time>
      </trkpt>
      <trkpt lat="44.72502" lon="1.22241">
        <ele>128.4</ele>
        <time>2022-08-13T07:23:23Z</time>
      </trkpt>
      <trkpt lat="44.725" lon="1.22248">
        <ele>128.4</ele>
        <time>2022-08-13T07:23:26Z</time>
      </trkpt>
      <trkpt lat="44.72497" lon="1.22255">
        <ele>129.4</ele>
        <time>2022-08-13T07:23:30Z</time>
      </trkpt>
      <trkpt lat="44.72495" lon="1.22262">
        <ele>130.4</ele>
        <time>2022-08-13T07:23:34Z</time>
      </trkpt>
      <trkpt lat="44.72492" lon="1.22269">
        <ele>132.4</ele>
        <time>2022-08-13T07:23:38Z</time>
      </trkpt>
      <trkpt lat="44.7249" lon="1.22277">
        <ele>131.4</ele>
        <time>2022-08-13T07:23:42Z</time>
      </trkpt>
      <trkpt lat="44.72488" lon="1.22286">
        <ele>131.4</ele>
        <time>2022-08-13T07:23:45Z</time>
      </trkpt>
      <trkpt lat="44.72487" lon="1.22293">
        <ele>131.4</ele>
        <time>2022-08-13T07:23:47Z</time>
      </trkpt>
      <trkpt lat="44.72484" lon="1.22301">
        <ele>131.4</ele>
        <time>2022-08-13T07:23:50Z</time>
      </trkpt>
      <trkpt lat="44.72481" lon="1.22308">
        <ele>132.4</ele>
        <time>2022-08-13T07:23:53Z</time>
      </trkpt>
      <trkpt lat="44.72478" lon="1.22314">
        <ele>132.4</ele>
        <time>2022-08-13T07:23:56Z</time>
      </trkpt>
      <trkpt lat="44.72477" lon="1.22321">
        <ele>132.4</ele>
        <time>2022-08-13T07:23:59Z</time>
      </trkpt>
      <trkpt lat="44.72475" lon="1.22328">
        <ele>132.4</ele>
        <time>2022-08-13T07:24:02Z</time>
      </trkpt>
      <trkpt lat="44.72476" lon="1.22335">
        <ele>133.4</ele>
        <time>2022-08-13T07:24:05Z</time>
      </trkpt>
      <trkpt lat="44.72476" lon="1.22342">
        <ele>132.4</ele>
        <time>2022-08-13T07:24:09Z</time>
      </trkpt>
      <trkpt lat="44.72475" lon="1.22349">
        <ele>133.4</ele>
        <time>2022-08-13T07:24:13Z</time>
      </trkpt>
      <trkpt lat="44.72474" lon="1.22356">
        <ele>133.4</ele>
        <time>2022-08-13T07:24:17Z</time>
      </trkpt>
      <trkpt lat="44.72473" lon="1.22362">
        <ele>133.4</ele>
        <time>2022-08-13T07:24:21Z</time>
      </trkpt>
      <trkpt lat="44.72471" lon="1.22368">
        <ele>133.4</ele>
        <time>2022-08-13T07:24:26Z</time>
      </trkpt>
      <trkpt lat="44.72471" lon="1.22377">
        <ele>134.4</ele>
        <time>2022-08-13T07:24:33Z</time>
      </trkpt>
      <trkpt lat="44.72471" lon="1.22385">
        <ele>135.4</ele>
        <time>2022-08-13T07:24:37Z</time>
      </trkpt>
      <trkpt lat="44.72471" lon="1.22392">
        <ele>135.4</ele>
        <time>2022-08-13T07:24:41Z</time>
      </trkpt>
      <trkpt lat="44.72472" lon="1.22398">
        <ele>136.4</ele>
        <time>2022-08-13T07:24:46Z</time>
      </trkpt>
      <trkpt lat="44.72472" lon="1.22406">
        <ele>138.4</ele>
        <time>2022-08-13T07:24:57Z</time>
      </trkpt>
      <trkpt lat="44.72473" lon="1.22413">
        <ele>142.4</ele>
        <time>2022-08-13T07:25:03Z</time>
      </trkpt>
      <trkpt lat="44.72473" lon="1.2242">
        <ele>141.4</ele>
        <time>2022-08-13T07:25:11Z</time>
      </trkpt>
      <trkpt lat="44.72473" lon="1.22426">
        <ele>142.4</ele>
        <time>2022-08-13T07:25:20Z</time>
      </trkpt>
      <trkpt lat="44.72473" lon="1.22434">
        <ele>145.4</ele>
        <time>2022-08-13T07:25:27Z</time>
      </trkpt>
      <trkpt lat="44.72474" lon="1.22441">
        <ele>147.4</ele>
        <time>2022-08-13T07:25:33Z</time>
      </trkpt>
      <trkpt lat="44.72474" lon="1.22448">
        <ele>149.4</ele>
        <time>2022-08-13T07:25:40Z</time>
      </trkpt>
      <trkpt lat="44.72474" lon="1.22455">
        <ele>151.4</ele>
        <time>2022-08-13T07:25:53Z</time>
      </trkpt>
      <trkpt lat="44.72474" lon="1.22463">
        <ele>151.4</ele>
        <time>2022-08-13T07:26:00Z</time>
      </trkpt>
      <trkpt lat="44.72475" lon="1.2247">
        <ele>150.4</ele>
        <time>2022-08-13T07:26:07Z</time>
      </trkpt>
      <trkpt lat="44.72476" lon="1.22477">
        <ele>152.4</ele>
        <time>2022-08-13T07:26:15Z</time>
      </trkpt>
      <trkpt lat="44.72476" lon="1.22484">
        <ele>153.4</ele>
        <time>2022-08-13T07:26:22Z</time>
      </trkpt>
      <trkpt lat="44.72478" lon="1.22491">
        <ele>155.4</ele>
        <time>2022-08-13T07:27:22Z</time>
      </trkpt>
      <trkpt lat="44.72479" lon="1.22498">
        <ele>155.4</ele>
        <time>2022-08-13T07:27:28Z</time>
      </trkpt>
      <trkpt lat="44.72478" lon="1.22506">
        <ele>155.4</ele>
        <time>2022-08-13T07:27:33Z</time>
      </trkpt>
      <trkpt lat="44.72478" lon="1.22512">
        <ele>156.4</ele>
        <time>2022-08-13T07:27:38Z</time>
      </trkpt>
      <trkpt lat="44.72479" lon="1.2252">
        <ele>156.4</ele>
        <time>2022-08-13T07:27:44Z</time>
      </trkpt>
      <trkpt lat="44.72479" lon="1.22526">
        <ele>158.4</ele>
        <time>2022-08-13T07:27:52Z</time>
      </trkpt>
      <trkpt lat="44.72476" lon="1.22533">
        <ele>159.4</ele>
        <time>2022-08-13T07:27:58Z</time>
      </trkpt>
      <trkpt lat="44.72476" lon="1.2254">
        <ele>158.4</ele>
        <time>2022-08-13T07:28:04Z</time>
      </trkpt>
      <trkpt lat="44.72475" lon="1.22547">
        <ele>161.4</ele>
        <time>2022-08-13T07:28:12Z</time>
      </trkpt>
      <trkpt lat="44.72475" lon="1.22554">
        <ele>162.4</ele>
        <time>2022-08-13T07:28:17Z</time>
      </trkpt>
      <trkpt lat="44.72475" lon="1.22561">
        <ele>164.4</ele>
        <time>2022-08-13T07:28:22Z</time>
      </trkpt>
      <trkpt lat="44.72474" lon="1.22567">
        <ele>167.4</ele>
        <time>2022-08-13T07:28:30Z</time>
      </trkpt>
      <trkpt lat="44.72475" lon="1.22575">
        <ele>169.4</ele>
        <time>2022-08-13T07:28:34Z</time>
      </trkpt>
      <trkpt lat="44.72476" lon="1.22581">
        <ele>171.4</ele>
        <time>2022-08-13T07:28:40Z</time>
      </trkpt>
      <trkpt lat="44.72477" lon="1.22588">
        <ele>175.4</ele>
        <time>2022-08-13T07:28:45Z</time>
      </trkpt>
      <trkpt lat="44.72477" lon="1.22595">
        <ele>176.4</ele>
        <time>2022-08-13T07:28:53Z</time>
      </trkpt>
      <trkpt lat="44.72477" lon="1.22601">
        <ele>176.4</ele>
        <time>2022-08-13T07:29:00Z</time>
      </trkpt>
      <trkpt lat="44.72477" lon="1.22608">
        <ele>178.4</ele>
        <time>2022-08-13T07:29:08Z</time>
      </trkpt>
      <trkpt lat="44.72477" lon="1.22615">
        <ele>178.4</ele>
        <time>2022-08-13T07:29:15Z</time>
      </trkpt>
      <trkpt lat="44.72478" lon="1.22622">
        <ele>179.4</ele>
        <time>2022-08-13T07:29:22Z</time>
      </trkpt>
      <trkpt lat="44.72477" lon="1.22629">
        <ele>179.4</ele>
        <time>2022-08-13T07:29:28Z</time>
      </trkpt>
      <trkpt lat="44.72477" lon="1.22636">
        <ele>179.4</ele>
        <time>2022-08-13T07:29:34Z</time>
      </trkpt>
      <trkpt lat="44.72477" lon="1.22643">
        <ele>181.4</ele>
        <time>2022-08-13T07:29:39Z</time>
      </trkpt>
      <trkpt lat="44.72475" lon="1.22649">
        <ele>178.4</ele>
        <time>2022-08-13T07:30:22Z</time>
      </trkpt>
      <trkpt lat="44.72476" lon="1.22656">
        <ele>182.4</ele>
        <time>2022-08-13T07:30:27Z</time>
      </trkpt>
      <trkpt lat="44.72473" lon="1.22662">
        <ele>181.4</ele>
        <time>2022-08-13T07:30:38Z</time>
      </trkpt>
      <trkpt lat="44.7247" lon="1.22669">
        <ele>181.4</ele>
        <time>2022-08-13T07:30:42Z</time>
      </trkpt>
      <trkpt lat="44.72469" lon="1.22677">
        <ele>183.4</ele>
        <time>2022-08-13T07:30:47Z</time>
      </trkpt>
      <trkpt lat="44.72469" lon="1.22683">
        <ele>184.4</ele>
        <time>2022-08-13T07:30:50Z</time>
      </trkpt>
      <trkpt lat="44.72468" lon="1.2269">
        <ele>184.4</ele>
        <time>2022-08-13T07:30:53Z</time>
      </trkpt>
      <trkpt lat="44.72464" lon="1.22696">
        <ele>185.4</ele>
        <time>2022-08-13T07:30:57Z</time>
      </trkpt>
      <trkpt lat="44.72459" lon="1.22699">
        <ele>186.4</ele>
        <time>2022-08-13T07:31:01Z</time>
      </trkpt>
      <trkpt lat="44.72454" lon="1.22702">
        <ele>186.4</ele>
        <time>2022-08-13T07:31:05Z</time>
      </trkpt>
      <trkpt lat="44.7245" lon="1.22708">
        <ele>187.4</ele>
        <time>2022-08-13T07:31:09Z</time>
      </trkpt>
      <trkpt lat="44.72448" lon="1.22714">
        <ele>187.4</ele>
        <time>2022-08-13T07:31:12Z</time>
      </trkpt>
      <trkpt lat="44.72445" lon="1.22721">
        <ele>189.4</ele>
        <time>2022-08-13T07:31:16Z</time>
      </trkpt>
      <trkpt lat="44.72443" lon="1.22727">
        <ele>189.4</ele>
        <time>2022-08-13T07:31:19Z</time>
      </trkpt>
      <trkpt lat="44.72438" lon="1.22732">
        <ele>190.4</ele>
        <time>2022-08-13T07:31:24Z</time>
      </trkpt>
      <trkpt lat="44.72434" lon="1.22737">
        <ele>190.4</ele>
        <time>2022-08-13T07:31:28Z</time>
      </trkpt>
      <trkpt lat="44.7243" lon="1.22741">
        <ele>192.4</ele>
        <time>2022-08-13T07:31:31Z</time>
      </trkpt>
      <trkpt lat="44.72425" lon="1.22746">
        <ele>192.4</ele>
        <time>2022-08-13T07:31:35Z</time>
      </trkpt>
      <trkpt lat="44.7242" lon="1.2275">
        <ele>193.4</ele>
        <time>2022-08-13T07:31:38Z</time>
      </trkpt>
      <trkpt lat="44.72414" lon="1.22752">
        <ele>194.4</ele>
        <time>2022-08-13T07:31:42Z</time>
      </trkpt>
      <trkpt lat="44.72409" lon="1.22754">
        <ele>193.4</ele>
        <time>2022-08-13T07:31:45Z</time>
      </trkpt>
      <trkpt lat="44.72404" lon="1.22756">
        <ele>194.4</ele>
        <time>2022-08-13T07:31:48Z</time>
      </trkpt>
      <trkpt lat="44.72399" lon="1.22756">
        <ele>194.4</ele>
        <time>2022-08-13T07:31:51Z</time>
      </trkpt>
      <trkpt lat="44.72394" lon="1.22757">
        <ele>193.4</ele>
        <time>2022-08-13T07:31:54Z</time>
      </trkpt>
      <trkpt lat="44.72389" lon="1.22758">
        <ele>194.4</ele>
        <time>2022-08-13T07:31:57Z</time>
      </trkpt>
      <trkpt lat="44.72384" lon="1.22759">
        <ele>195.4</ele>
        <time>2022-08-13T07:32:00Z</time>
      </trkpt>
      <trkpt lat="44.72379" lon="1.2276">
        <ele>195.4</ele>
        <time>2022-08-13T07:32:03Z</time>
      </trkpt>
      <trkpt lat="44.72374" lon="1.22762">
        <ele>196.4</ele>
        <time>2022-08-13T07:32:06Z</time>
      </trkpt>
      <trkpt lat="44.72369" lon="1.22766">
        <ele>196.4</ele>
        <time>2022-08-13T07:32:09Z</time>
      </trkpt>
      <trkpt lat="44.72366" lon="1.22771">
        <ele>196.4</ele>
        <time>2022-08-13T07:32:11Z</time>
      </trkpt>
      <trkpt lat="44.72362" lon="1.22777">
        <ele>197.4</ele>
        <time>2022-08-13T07:32:14Z</time>
      </trkpt>
      <trkpt lat="44.72358" lon="1.22781">
        <ele>197.4</ele>
        <time>2022-08-13T07:32:17Z</time>
      </trkpt>
      <trkpt lat="44.72353" lon="1.22783">
        <ele>197.4</ele>
        <time>2022-08-13T07:32:20Z</time>
      </trkpt>
      <trkpt lat="44.72349" lon="1.22785">
        <ele>198.4</ele>
        <time>2022-08-13T07:32:24Z</time>
      </trkpt>
      <trkpt lat="44.72344" lon="1.22789">
        <ele>198.4</ele>
        <time>2022-08-13T07:32:28Z</time>
      </trkpt>
      <trkpt lat="44.72341" lon="1.22793">
        <ele>199.4</ele>
        <time>2022-08-13T07:32:31Z</time>
      </trkpt>
      <trkpt lat="44.72337" lon="1.22798">
        <ele>199.4</ele>
        <time>2022-08-13T07:32:35Z</time>
      </trkpt>
      <trkpt lat="44.72333" lon="1.22803">
        <ele>200.4</ele>
        <time>2022-08-13T07:32:39Z</time>
      </trkpt>
      <trkpt lat="44.7233" lon="1.22808">
        <ele>200.4</ele>
        <time>2022-08-13T07:32:43Z</time>
      </trkpt>
      <trkpt lat="44.72326" lon="1.22815">
        <ele>200.4</ele>
        <time>2022-08-13T07:32:47Z</time>
      </trkpt>
      <trkpt lat="44.72323" lon="1.2282">
        <ele>202.4</ele>
        <time>2022-08-13T07:32:51Z</time>
      </trkpt>
      <trkpt lat="44.72318" lon="1.22823">
        <ele>204.4</ele>
        <time>2022-08-13T07:32:55Z</time>
      </trkpt>
      <trkpt lat="44.72314" lon="1.22827">
        <ele>204.4</ele>
        <time>2022-08-13T07:32:59Z</time>
      </trkpt>
      <trkpt lat="44.72309" lon="1.22827">
        <ele>204.4</ele>
        <time>2022-08-13T07:33:04Z</time>
      </trkpt>
      <trkpt lat="44.72305" lon="1.22829">
        <ele>205.4</ele>
        <time>2022-08-13T07:33:08Z</time>
      </trkpt>
      <trkpt lat="44.72299" lon="1.22828">
        <ele>207.4</ele>
        <time>2022-08-13T07:33:12Z</time>
      </trkpt>
      <trkpt lat="44.72295" lon="1.22828">
        <ele>208.4</ele>
        <time>2022-08-13T07:33:18Z</time>
      </trkpt>
      <trkpt lat="44.72289" lon="1.22827">
        <ele>209.4</ele>
        <time>2022-08-13T07:33:23Z</time>
      </trkpt>
      <trkpt lat="44.72284" lon="1.22828">
        <ele>210.4</ele>
        <time>2022-08-13T07:33:28Z</time>
      </trkpt>
      <trkpt lat="44.72278" lon="1.22832">
        <ele>212.4</ele>
        <time>2022-08-13T07:33:33Z</time>
      </trkpt>
      <trkpt lat="44.72273" lon="1.22834">
        <ele>212.4</ele>
        <time>2022-08-13T07:33:36Z</time>
      </trkpt>
      <trkpt lat="44.72269" lon="1.22834">
        <ele>213.4</ele>
        <time>2022-08-13T07:33:39Z</time>
      </trkpt>
      <trkpt lat="44.72265" lon="1.2283">
        <ele>213.4</ele>
        <time>2022-08-13T07:33:44Z</time>
      </trkpt>
      <trkpt lat="44.7226" lon="1.22827">
        <ele>214.4</ele>
        <time>2022-08-13T07:33:49Z</time>
      </trkpt>
      <trkpt lat="44.72255" lon="1.22824">
        <ele>214.4</ele>
        <time>2022-08-13T07:33:54Z</time>
      </trkpt>
      <trkpt lat="44.7225" lon="1.22823">
        <ele>215.4</ele>
        <time>2022-08-13T07:33:58Z</time>
      </trkpt>
      <trkpt lat="44.72245" lon="1.22823">
        <ele>215.4</ele>
        <time>2022-08-13T07:34:02Z</time>
      </trkpt>
      <trkpt lat="44.7224" lon="1.22825">
        <ele>215.4</ele>
        <time>2022-08-13T07:34:06Z</time>
      </trkpt>
      <trkpt lat="44.72235" lon="1.22827">
        <ele>215.4</ele>
        <time>2022-08-13T07:34:10Z</time>
      </trkpt>
      <trkpt lat="44.7223" lon="1.22828">
        <ele>216.4</ele>
        <time>2022-08-13T07:34:14Z</time>
      </trkpt>
      <trkpt lat="44.72225" lon="1.22829">
        <ele>216.4</ele>
        <time>2022-08-13T07:34:17Z</time>
      </trkpt>
      <trkpt lat="44.7222" lon="1.22829">
        <ele>216.4</ele>
        <time>2022-08-13T07:34:21Z</time>
      </trkpt>
      <trkpt lat="44.72216" lon="1.22828">
        <ele>216.4</ele>
        <time>2022-08-13T07:34:24Z</time>
      </trkpt>
      <trkpt lat="44.72211" lon="1.22827">
        <ele>216.4</ele>
        <time>2022-08-13T07:34:27Z</time>
      </trkpt>
      <trkpt lat="44.72206" lon="1.22828">
        <ele>218.4</ele>
        <time>2022-08-13T07:34:31Z</time>
      </trkpt>
      <trkpt lat="44.72201" lon="1.22831">
        <ele>218.4</ele>
        <time>2022-08-13T07:34:35Z</time>
      </trkpt>
      <trkpt lat="44.72197" lon="1.22833">
        <ele>218.4</ele>
        <time>2022-08-13T07:34:38Z</time>
      </trkpt>
      <trkpt lat="44.72191" lon="1.22834">
        <ele>218.4</ele>
        <time>2022-08-13T07:34:41Z</time>
      </trkpt>
      <trkpt lat="44.72187" lon="1.22835">
        <ele>218.4</ele>
        <time>2022-08-13T07:34:44Z</time>
      </trkpt>
      <trkpt lat="44.72182" lon="1.22834">
        <ele>219.4</ele>
        <time>2022-08-13T07:34:48Z</time>
      </trkpt>
      <trkpt lat="44.72177" lon="1.22833">
        <ele>219.4</ele>
        <time>2022-08-13T07:34:52Z</time>
      </trkpt>
      <trkpt lat="44.72172" lon="1.22832">
        <ele>220.4</ele>
        <time>2022-08-13T07:34:57Z</time>
      </trkpt>
      <trkpt lat="44.72167" lon="1.22834">
        <ele>221.4</ele>
        <time>2022-08-13T07:35:02Z</time>
      </trkpt>
      <trkpt lat="44.72162" lon="1.22836">
        <ele>220.4</ele>
        <time>2022-08-13T07:35:06Z</time>
      </trkpt>
      <trkpt lat="44.72156" lon="1.22838">
        <ele>220.4</ele>
        <time>2022-08-13T07:35:10Z</time>
      </trkpt>
      <trkpt lat="44.72152" lon="1.2284">
        <ele>221.4</ele>
        <time>2022-08-13T07:35:13Z</time>
      </trkpt>
      <trkpt lat="44.72147" lon="1.22843">
        <ele>221.4</ele>
        <time>2022-08-13T07:35:17Z</time>
      </trkpt>
      <trkpt lat="44.72141" lon="1.22846">
        <ele>221.4</ele>
        <time>2022-08-13T07:35:20Z</time>
      </trkpt>
      <trkpt lat="44.72136" lon="1.22848">
        <ele>221.4</ele>
        <time>2022-08-13T07:35:23Z</time>
      </trkpt>
      <trkpt lat="44.72132" lon="1.22851">
        <ele>222.4</ele>
        <time>2022-08-13T07:35:26Z</time>
      </trkpt>
      <trkpt lat="44.72127" lon="1.22854">
        <ele>223.4</ele>
        <time>2022-08-13T07:35:29Z</time>
      </trkpt>
      <trkpt lat="44.72122" lon="1.22856">
        <ele>224.4</ele>
        <time>2022-08-13T07:35:32Z</time>
      </trkpt>
      <trkpt lat="44.72117" lon="1.22859">
        <ele>224.4</ele>
        <time>2022-08-13T07:35:35Z</time>
      </trkpt>
      <trkpt lat="44.72111" lon="1.22861">
        <ele>225.4</ele>
        <time>2022-08-13T07:35:38Z</time>
      </trkpt>
      <trkpt lat="44.72106" lon="1.22865">
        <ele>225.4</ele>
        <time>2022-08-13T07:35:41Z</time>
      </trkpt>
      <trkpt lat="44.721" lon="1.22867">
        <ele>225.4</ele>
        <time>2022-08-13T07:35:44Z</time>
      </trkpt>
      <trkpt lat="44.72095" lon="1.22871">
        <ele>226.4</ele>
        <time>2022-08-13T07:35:47Z</time>
      </trkpt>
      <trkpt lat="44.7209" lon="1.22873">
        <ele>226.4</ele>
        <time>2022-08-13T07:35:50Z</time>
      </trkpt>
      <trkpt lat="44.72085" lon="1.22876">
        <ele>227.4</ele>
        <time>2022-08-13T07:35:53Z</time>
      </trkpt>
      <trkpt lat="44.7208" lon="1.22881">
        <ele>227.4</ele>
        <time>2022-08-13T07:35:56Z</time>
      </trkpt>
      <trkpt lat="44.72075" lon="1.22884">
        <ele>227.4</ele>
        <time>2022-08-13T07:35:59Z</time>
      </trkpt>
      <trkpt lat="44.72069" lon="1.22888">
        <ele>228.4</ele>
        <time>2022-08-13T07:36:02Z</time>
      </trkpt>
      <trkpt lat="44.72064" lon="1.22891">
        <ele>228.4</ele>
        <time>2022-08-13T07:36:05Z</time>
      </trkpt>
      <trkpt lat="44.72058" lon="1.22895">
        <ele>229.4</ele>
        <time>2022-08-13T07:36:08Z</time>
      </trkpt>
      <trkpt lat="44.72053" lon="1.22899">
        <ele>229.4</ele>
        <time>2022-08-13T07:36:11Z</time>
      </trkpt>
      <trkpt lat="44.72049" lon="1.22903">
        <ele>230.4</ele>
        <time>2022-08-13T07:36:14Z</time>
      </trkpt>
      <trkpt lat="44.72044" lon="1.22905">
        <ele>230.4</ele>
        <time>2022-08-13T07:36:17Z</time>
      </trkpt>
      <trkpt lat="44.72039" lon="1.22908">
        <ele>230.4</ele>
        <time>2022-08-13T07:36:20Z</time>
      </trkpt>
      <trkpt lat="44.72035" lon="1.22911">
        <ele>230.4</ele>
        <time>2022-08-13T07:36:23Z</time>
      </trkpt>
      <trkpt lat="44.72031" lon="1.22916">
        <ele>231.4</ele>
        <time>2022-08-13T07:36:27Z</time>
      </trkpt>
      <trkpt lat="44.72027" lon="1.2292">
        <ele>230.4</ele>
        <time>2022-08-13T07:36:31Z</time>
      </trkpt>
      <trkpt lat="44.72023" lon="1.22925">
        <ele>230.4</ele>
        <time>2022-08-13T07:36:35Z</time>
      </trkpt>
      <trkpt lat="44.72018" lon="1.22928">
        <ele>230.4</ele>
        <time>2022-08-13T07:36:40Z</time>
      </trkpt>
      <trkpt lat="44.72014" lon="1.22931">
        <ele>230.4</ele>
        <time>2022-08-13T07:36:44Z</time>
      </trkpt>
      <trkpt lat="44.72009" lon="1.22935">
        <ele>231.4</ele>
        <time>2022-08-13T07:36:48Z</time>
      </trkpt>
      <trkpt lat="44.72005" lon="1.22938">
        <ele>232.4</ele>
        <time>2022-08-13T07:36:53Z</time>
      </trkpt>
      <trkpt lat="44.72" lon="1.22939">
        <ele>231.4</ele>
        <time>2022-08-13T07:36:57Z</time>
      </trkpt>
      <trkpt lat="44.71996" lon="1.22944">
        <ele>231.4</ele>
        <time>2022-08-13T07:37:01Z</time>
      </trkpt>
      <trkpt lat="44.71993" lon="1.22949">
        <ele>232.4</ele>
        <time>2022-08-13T07:37:04Z</time>
      </trkpt>
      <trkpt lat="44.71989" lon="1.22954">
        <ele>232.4</ele>
        <time>2022-08-13T07:37:08Z</time>
      </trkpt>
      <trkpt lat="44.71985" lon="1.2296">
        <ele>233.4</ele>
        <time>2022-08-13T07:37:12Z</time>
      </trkpt>
      <trkpt lat="44.7198" lon="1.22962">
        <ele>234.4</ele>
        <time>2022-08-13T07:37:15Z</time>
      </trkpt>
      <trkpt lat="44.71977" lon="1.22967">
        <ele>233.4</ele>
        <time>2022-08-13T07:37:19Z</time>
      </trkpt>
      <trkpt lat="44.71973" lon="1.22971">
        <ele>233.4</ele>
        <time>2022-08-13T07:37:23Z</time>
      </trkpt>
      <trkpt lat="44.7197" lon="1.22976">
        <ele>232.4</ele>
        <time>2022-08-13T07:37:27Z</time>
      </trkpt>
      <trkpt lat="44.71965" lon="1.22978">
        <ele>234.4</ele>
        <time>2022-08-13T07:37:33Z</time>
      </trkpt>
      <trkpt lat="44.7196" lon="1.22983">
        <ele>235.4</ele>
        <time>2022-08-13T07:37:37Z</time>
      </trkpt>
      <trkpt lat="44.71955" lon="1.22986">
        <ele>235.4</ele>
        <time>2022-08-13T07:37:41Z</time>
      </trkpt>
      <trkpt lat="44.71951" lon="1.22989">
        <ele>236.4</ele>
        <time>2022-08-13T07:37:44Z</time>
      </trkpt>
      <trkpt lat="44.71947" lon="1.2299">
        <ele>237.4</ele>
        <time>2022-08-13T07:37:47Z</time>
      </trkpt>
      <trkpt lat="44.71941" lon="1.22992">
        <ele>236.4</ele>
        <time>2022-08-13T07:37:51Z</time>
      </trkpt>
      <trkpt lat="44.71936" lon="1.22991">
        <ele>237.4</ele>
        <time>2022-08-13T07:37:54Z</time>
      </trkpt>
      <trkpt lat="44.71931" lon="1.22992">
        <ele>237.4</ele>
        <time>2022-08-13T07:37:57Z</time>
      </trkpt>
      <trkpt lat="44.71926" lon="1.2299">
        <ele>237.4</ele>
        <time>2022-08-13T07:38:02Z</time>
      </trkpt>
      <trkpt lat="44.71921" lon="1.22989">
        <ele>237.4</ele>
        <time>2022-08-13T07:38:06Z</time>
      </trkpt>
      <trkpt lat="44.71916" lon="1.22988">
        <ele>238.4</ele>
        <time>2022-08-13T07:38:10Z</time>
      </trkpt>
      <trkpt lat="44.71911" lon="1.22989">
        <ele>237.4</ele>
        <time>2022-08-13T07:38:14Z</time>
      </trkpt>
      <trkpt lat="44.71906" lon="1.2299">
        <ele>238.4</ele>
        <time>2022-08-13T07:38:17Z</time>
      </trkpt>
      <trkpt lat="44.71899" lon="1.22988">
        <ele>240.4</ele>
        <time>2022-08-13T07:38:22Z</time>
      </trkpt>
      <trkpt lat="44.71895" lon="1.22985">
        <ele>242.4</ele>
        <time>2022-08-13T07:38:25Z</time>
      </trkpt>
      <trkpt lat="44.71891" lon="1.2298">
        <ele>243.4</ele>
        <time>2022-08-13T07:38:29Z</time>
      </trkpt>
      <trkpt lat="44.71887" lon="1.22977">
        <ele>244.4</ele>
        <time>2022-08-13T07:38:33Z</time>
      </trkpt>
      <trkpt lat="44.71883" lon="1.2297">
        <ele>246.4</ele>
        <time>2022-08-13T07:38:37Z</time>
      </trkpt>
      <trkpt lat="44.71879" lon="1.22965">
        <ele>246.4</ele>
        <time>2022-08-13T07:38:41Z</time>
      </trkpt>
      <trkpt lat="44.71874" lon="1.22961">
        <ele>246.4</ele>
        <time>2022-08-13T07:38:46Z</time>
      </trkpt>
      <trkpt lat="44.71868" lon="1.22958">
        <ele>246.4</ele>
        <time>2022-08-13T07:38:51Z</time>
      </trkpt>
      <trkpt lat="44.71863" lon="1.22957">
        <ele>248.4</ele>
        <time>2022-08-13T07:38:58Z</time>
      </trkpt>
      <trkpt lat="44.71867" lon="1.2296">
        <ele>255.4</ele>
        <time>2022-08-13T07:40:05Z</time>
      </trkpt>
      <trkpt lat="44.71872" lon="1.22963">
        <ele>254.4</ele>
        <time>2022-08-13T07:40:17Z</time>
      </trkpt>
      <trkpt lat="44.71878" lon="1.22967">
        <ele>253.4</ele>
        <time>2022-08-13T07:40:21Z</time>
      </trkpt>
      <trkpt lat="44.71882" lon="1.22972">
        <ele>252.4</ele>
        <time>2022-08-13T07:40:25Z</time>
      </trkpt>
      <trkpt lat="44.71886" lon="1.22977">
        <ele>252.4</ele>
        <time>2022-08-13T07:40:29Z</time>
      </trkpt>
      <trkpt lat="44.71889" lon="1.22982">
        <ele>253.4</ele>
        <time>2022-08-13T07:40:35Z</time>
      </trkpt>
      <trkpt lat="44.71885" lon="1.22986">
        <ele>254.4</ele>
        <time>2022-08-13T07:40:49Z</time>
      </trkpt>
      <trkpt lat="44.71883" lon="1.22992">
        <ele>254.4</ele>
        <time>2022-08-13T07:40:55Z</time>
      </trkpt>
      <trkpt lat="44.71886" lon="1.22986">
        <ele>251.4</ele>
        <time>2022-08-13T07:41:20Z</time>
      </trkpt>
      <trkpt lat="44.7189" lon="1.22982">
        <ele>251.4</ele>
        <time>2022-08-13T07:41:27Z</time>
      </trkpt>
      <trkpt lat="44.71886" lon="1.22977">
        <ele>252.4</ele>
        <time>2022-08-13T07:41:33Z</time>
      </trkpt>
      <trkpt lat="44.71881" lon="1.22973">
        <ele>254.4</ele>
        <time>2022-08-13T07:41:46Z</time>
      </trkpt>
      <trkpt lat="44.71877" lon="1.22969">
        <ele>252.4</ele>
        <time>2022-08-13T07:41:51Z</time>
      </trkpt>
      <trkpt lat="44.71873" lon="1.22965">
        <ele>252.4</ele>
        <time>2022-08-13T07:41:55Z</time>
      </trkpt>
      <trkpt lat="44.71867" lon="1.22962">
        <ele>253.4</ele>
        <time>2022-08-13T07:41:59Z</time>
      </trkpt>
      <trkpt lat="44.71864" lon="1.22957">
        <ele>254.4</ele>
        <time>2022-08-13T07:42:04Z</time>
      </trkpt>
      <trkpt lat="44.7186" lon="1.22952">
        <ele>253.4</ele>
        <time>2022-08-13T07:43:40Z</time>
      </trkpt>
      <trkpt lat="44.71855" lon="1.22949">
        <ele>253.4</ele>
        <time>2022-08-13T07:43:44Z</time>
      </trkpt>
      <trkpt lat="44.71851" lon="1.22946">
        <ele>252.4</ele>
        <time>2022-08-13T07:43:47Z</time>
      </trkpt>
      <trkpt lat="44.71845" lon="1.22943">
        <ele>252.4</ele>
        <time>2022-08-13T07:43:50Z</time>
      </trkpt>
      <trkpt lat="44.7184" lon="1.22941">
        <ele>251.4</ele>
        <time>2022-08-13T07:43:52Z</time>
      </trkpt>
      <trkpt lat="44.71834" lon="1.22937">
        <ele>252.4</ele>
        <time>2022-08-13T07:43:54Z</time>
      </trkpt>
      <trkpt lat="44.71828" lon="1.22935">
        <ele>251.4</ele>
        <time>2022-08-13T07:43:56Z</time>
      </trkpt>
      <trkpt lat="44.7182" lon="1.22933">
        <ele>250.4</ele>
        <time>2022-08-13T07:43:58Z</time>
      </trkpt>
      <trkpt lat="44.71813" lon="1.2293">
        <ele>250.4</ele>
        <time>2022-08-13T07:44:00Z</time>
      </trkpt>
      <trkpt lat="44.71805" lon="1.22928">
        <ele>250.4</ele>
        <time>2022-08-13T07:44:02Z</time>
      </trkpt>
      <trkpt lat="44.71798" lon="1.22928">
        <ele>249.4</ele>
        <time>2022-08-13T07:44:04Z</time>
      </trkpt>
      <trkpt lat="44.71793" lon="1.22928">
        <ele>249.4</ele>
        <time>2022-08-13T07:44:05Z</time>
      </trkpt>
      <trkpt lat="44.71785" lon="1.22928">
        <ele>250.4</ele>
        <time>2022-08-13T07:44:07Z</time>
      </trkpt>
      <trkpt lat="44.71777" lon="1.22928">
        <ele>251.4</ele>
        <time>2022-08-13T07:44:09Z</time>
      </trkpt>
      <trkpt lat="44.71768" lon="1.22926">
        <ele>251.4</ele>
        <time>2022-08-13T07:44:12Z</time>
      </trkpt>
      <trkpt lat="44.71758" lon="1.22928">
        <ele>251.4</ele>
        <time>2022-08-13T07:44:14Z</time>
      </trkpt>
      <trkpt lat="44.71748" lon="1.22929">
        <ele>250.4</ele>
        <time>2022-08-13T07:44:16Z</time>
      </trkpt>
      <trkpt lat="44.71742" lon="1.22929">
        <ele>250.4</ele>
        <time>2022-08-13T07:44:17Z</time>
      </trkpt>
      <trkpt lat="44.71736" lon="1.22929">
        <ele>250.4</ele>
        <time>2022-08-13T07:44:18Z</time>
      </trkpt>
      <trkpt lat="44.7173" lon="1.2293">
        <ele>250.4</ele>
        <time>2022-08-13T07:44:19Z</time>
      </trkpt>
      <trkpt lat="44.71724" lon="1.2293">
        <ele>250.4</ele>
        <time>2022-08-13T07:44:20Z</time>
      </trkpt>
      <trkpt lat="44.71719" lon="1.2293">
        <ele>251.4</ele>
        <time>2022-08-13T07:44:21Z</time>
      </trkpt>
      <trkpt lat="44.71714" lon="1.22929">
        <ele>251.4</ele>
        <time>2022-08-13T07:44:22Z</time>
      </trkpt>
      <trkpt lat="44.71706" lon="1.22928">
        <ele>251.4</ele>
        <time>2022-08-13T07:44:24Z</time>
      </trkpt>
      <trkpt lat="44.717" lon="1.22926">
        <ele>251.4</ele>
        <time>2022-08-13T07:44:26Z</time>
      </trkpt>
      <trkpt lat="44.71694" lon="1.22924">
        <ele>251.4</ele>
        <time>2022-08-13T07:44:28Z</time>
      </trkpt>
      <trkpt lat="44.7169" lon="1.2292">
        <ele>252.4</ele>
        <time>2022-08-13T07:44:31Z</time>
      </trkpt>
      <trkpt lat="44.71694" lon="1.22917">
        <ele>252.4</ele>
        <time>2022-08-13T07:44:56Z</time>
      </trkpt>
      <trkpt lat="44.71689" lon="1.22917">
        <ele>247.4</ele>
        <time>2022-08-13T07:45:29Z</time>
      </trkpt>
      <trkpt lat="44.71685" lon="1.22913">
        <ele>253.4</ele>
        <time>2022-08-13T07:46:53Z</time>
      </trkpt>
      <trkpt lat="44.7168" lon="1.22914">
        <ele>252.4</ele>
        <time>2022-08-13T07:46:57Z</time>
      </trkpt>
      <trkpt lat="44.71673" lon="1.22916">
        <ele>251.4</ele>
        <time>2022-08-13T07:47:00Z</time>
      </trkpt>
      <trkpt lat="44.71668" lon="1.22916">
        <ele>251.4</ele>
        <time>2022-08-13T07:47:02Z</time>
      </trkpt>
      <trkpt lat="44.71662" lon="1.22915">
        <ele>251.4</ele>
        <time>2022-08-13T07:47:04Z</time>
      </trkpt>
      <trkpt lat="44.71655" lon="1.22914">
        <ele>250.4</ele>
        <time>2022-08-13T07:47:06Z</time>
      </trkpt>
      <trkpt lat="44.7165" lon="1.22912">
        <ele>250.4</ele>
        <time>2022-08-13T07:47:08Z</time>
      </trkpt>
      <trkpt lat="44.71644" lon="1.2291">
        <ele>250.4</ele>
        <time>2022-08-13T07:47:10Z</time>
      </trkpt>
      <trkpt lat="44.71638" lon="1.2291">
        <ele>249.4</ele>
        <time>2022-08-13T07:47:12Z</time>
      </trkpt>
      <trkpt lat="44.71633" lon="1.22911">
        <ele>250.4</ele>
        <time>2022-08-13T07:47:14Z</time>
      </trkpt>
      <trkpt lat="44.71627" lon="1.2291">
        <ele>250.4</ele>
        <time>2022-08-13T07:47:16Z</time>
      </trkpt>
      <trkpt lat="44.71621" lon="1.22909">
        <ele>250.4</ele>
        <time>2022-08-13T07:47:18Z</time>
      </trkpt>
      <trkpt lat="44.71617" lon="1.22908">
        <ele>250.4</ele>
        <time>2022-08-13T07:47:20Z</time>
      </trkpt>
      <trkpt lat="44.71612" lon="1.22906">
        <ele>250.4</ele>
        <time>2022-08-13T07:47:22Z</time>
      </trkpt>
      <trkpt lat="44.71606" lon="1.22904">
        <ele>250.4</ele>
        <time>2022-08-13T07:47:25Z</time>
      </trkpt>
      <trkpt lat="44.716" lon="1.22904">
        <ele>250.4</ele>
        <time>2022-08-13T07:47:28Z</time>
      </trkpt>
      <trkpt lat="44.71595" lon="1.22902">
        <ele>250.4</ele>
        <time>2022-08-13T07:47:31Z</time>
      </trkpt>
      <trkpt lat="44.7159" lon="1.229">
        <ele>251.4</ele>
        <time>2022-08-13T07:47:34Z</time>
      </trkpt>
      <trkpt lat="44.71584" lon="1.229">
        <ele>251.4</ele>
        <time>2022-08-13T07:47:38Z</time>
      </trkpt>
      <trkpt lat="44.71578" lon="1.22899">
        <ele>252.4</ele>
        <time>2022-08-13T07:47:42Z</time>
      </trkpt>
      <trkpt lat="44.71574" lon="1.22896">
        <ele>252.4</ele>
        <time>2022-08-13T07:47:46Z</time>
      </trkpt>
      <trkpt lat="44.71569" lon="1.22895">
        <ele>253.4</ele>
        <time>2022-08-13T07:47:49Z</time>
      </trkpt>
      <trkpt lat="44.71564" lon="1.22893">
        <ele>253.4</ele>
        <time>2022-08-13T07:47:52Z</time>
      </trkpt>
      <trkpt lat="44.7156" lon="1.22891">
        <ele>253.4</ele>
        <time>2022-08-13T07:47:55Z</time>
      </trkpt>
      <trkpt lat="44.71555" lon="1.22887">
        <ele>254.4</ele>
        <time>2022-08-13T07:47:59Z</time>
      </trkpt>
      <trkpt lat="44.7155" lon="1.22886">
        <ele>254.4</ele>
        <time>2022-08-13T07:48:02Z</time>
      </trkpt>
      <trkpt lat="44.71544" lon="1.22886">
        <ele>254.4</ele>
        <time>2022-08-13T07:48:05Z</time>
      </trkpt>
      <trkpt lat="44.71539" lon="1.22886">
        <ele>254.4</ele>
        <time>2022-08-13T07:48:10Z</time>
      </trkpt>
      <trkpt lat="44.71533" lon="1.22885">
        <ele>254.4</ele>
        <time>2022-08-13T07:48:13Z</time>
      </trkpt>
      <trkpt lat="44.71527" lon="1.22884">
        <ele>254.4</ele>
        <time>2022-08-13T07:48:17Z</time>
      </trkpt>
      <trkpt lat="44.71522" lon="1.22883">
        <ele>255.4</ele>
        <time>2022-08-13T07:48:20Z</time>
      </trkpt>
      <trkpt lat="44.71517" lon="1.22881">
        <ele>256.4</ele>
        <time>2022-08-13T07:48:23Z</time>
      </trkpt>
      <trkpt lat="44.71512" lon="1.22877">
        <ele>261.4</ele>
        <time>2022-08-13T07:49:31Z</time>
      </trkpt>
      <trkpt lat="44.71508" lon="1.22878">
        <ele>261.4</ele>
        <time>2022-08-13T07:49:34Z</time>
      </trkpt>
      <trkpt lat="44.71503" lon="1.22878">
        <ele>261.4</ele>
        <time>2022-08-13T07:49:37Z</time>
      </trkpt>
      <trkpt lat="44.71496" lon="1.22878">
        <ele>262.4</ele>
        <time>2022-08-13T07:49:41Z</time>
      </trkpt>
      <trkpt lat="44.71492" lon="1.22877">
        <ele>262.4</ele>
        <time>2022-08-13T07:49:44Z</time>
      </trkpt>
      <trkpt lat="44.71487" lon="1.22877">
        <ele>262.4</ele>
        <time>2022-08-13T07:49:47Z</time>
      </trkpt>
      <trkpt lat="44.71481" lon="1.22875">
        <ele>262.4</ele>
        <time>2022-08-13T07:49:51Z</time>
      </trkpt>
      <trkpt lat="44.71476" lon="1.22874">
        <ele>263.4</ele>
        <time>2022-08-13T07:49:54Z</time>
      </trkpt>
      <trkpt lat="44.71471" lon="1.22874">
        <ele>263.4</ele>
        <time>2022-08-13T07:49:58Z</time>
      </trkpt>
      <trkpt lat="44.71466" lon="1.22873">
        <ele>264.4</ele>
        <time>2022-08-13T07:50:01Z</time>
      </trkpt>
      <trkpt lat="44.71461" lon="1.22873">
        <ele>264.4</ele>
        <time>2022-08-13T07:50:04Z</time>
      </trkpt>
      <trkpt lat="44.71457" lon="1.22873">
        <ele>264.4</ele>
        <time>2022-08-13T07:50:07Z</time>
      </trkpt>
      <trkpt lat="44.71451" lon="1.22873">
        <ele>264.4</ele>
        <time>2022-08-13T07:50:11Z</time>
      </trkpt>
      <trkpt lat="44.71446" lon="1.22875">
        <ele>264.4</ele>
        <time>2022-08-13T07:50:15Z</time>
      </trkpt>
      <trkpt lat="44.71439" lon="1.22875">
        <ele>265.4</ele>
        <time>2022-08-13T07:50:19Z</time>
      </trkpt>
      <trkpt lat="44.71434" lon="1.22876">
        <ele>267.4</ele>
        <time>2022-08-13T07:50:23Z</time>
      </trkpt>
      <trkpt lat="44.71429" lon="1.22877">
        <ele>268.4</ele>
        <time>2022-08-13T07:50:27Z</time>
      </trkpt>
      <trkpt lat="44.71423" lon="1.22878">
        <ele>269.4</ele>
        <time>2022-08-13T07:50:31Z</time>
      </trkpt>
      <trkpt lat="44.71418" lon="1.22878">
        <ele>269.4</ele>
        <time>2022-08-13T07:50:35Z</time>
      </trkpt>
      <trkpt lat="44.71413" lon="1.22877">
        <ele>271.4</ele>
        <time>2022-08-13T07:50:39Z</time>
      </trkpt>
      <trkpt lat="44.71408" lon="1.22876">
        <ele>271.4</ele>
        <time>2022-08-13T07:50:43Z</time>
      </trkpt>
      <trkpt lat="44.71403" lon="1.22876">
        <ele>271.4</ele>
        <time>2022-08-13T07:50:47Z</time>
      </trkpt>
      <trkpt lat="44.71398" lon="1.22876">
        <ele>272.4</ele>
        <time>2022-08-13T07:50:51Z</time>
      </trkpt>
      <trkpt lat="44.71393" lon="1.22876">
        <ele>272.4</ele>
        <time>2022-08-13T07:50:56Z</time>
      </trkpt>
      <trkpt lat="44.71387" lon="1.22876">
        <ele>272.4</ele>
        <time>2022-08-13T07:51:00Z</time>
      </trkpt>
      <trkpt lat="44.71382" lon="1.22875">
        <ele>273.4</ele>
        <time>2022-08-13T07:51:04Z</time>
      </trkpt>
      <trkpt lat="44.71377" lon="1.22876">
        <ele>273.4</ele>
        <time>2022-08-13T07:51:08Z</time>
      </trkpt>
      <trkpt lat="44.71371" lon="1.22876">
        <ele>273.4</ele>
        <time>2022-08-13T07:51:12Z</time>
      </trkpt>
      <trkpt lat="44.71366" lon="1.22876">
        <ele>274.4</ele>
        <time>2022-08-13T07:51:16Z</time>
      </trkpt>
      <trkpt lat="44.71361" lon="1.22875">
        <ele>275.4</ele>
        <time>2022-08-13T07:51:19Z</time>
      </trkpt>
      <trkpt lat="44.71357" lon="1.22875">
        <ele>276.4</ele>
        <time>2022-08-13T07:51:23Z</time>
      </trkpt>
      <trkpt lat="44.71352" lon="1.22874">
        <ele>277.4</ele>
        <time>2022-08-13T07:51:26Z</time>
      </trkpt>
      <trkpt lat="44.71346" lon="1.22873">
        <ele>278.4</ele>
        <time>2022-08-13T07:51:30Z</time>
      </trkpt>
      <trkpt lat="44.71341" lon="1.22872">
        <ele>278.4</ele>
        <time>2022-08-13T07:51:34Z</time>
      </trkpt>
      <trkpt lat="44.71336" lon="1.22871">
        <ele>279.4</ele>
        <time>2022-08-13T07:51:37Z</time>
      </trkpt>
      <trkpt lat="44.71331" lon="1.2287">
        <ele>279.4</ele>
        <time>2022-08-13T07:51:40Z</time>
      </trkpt>
      <trkpt lat="44.71326" lon="1.22868">
        <ele>279.4</ele>
        <time>2022-08-13T07:51:43Z</time>
      </trkpt>
      <trkpt lat="44.71321" lon="1.22864">
        <ele>279.4</ele>
        <time>2022-08-13T07:51:47Z</time>
      </trkpt>
      <trkpt lat="44.71315" lon="1.22861">
        <ele>280.4</ele>
        <time>2022-08-13T07:51:51Z</time>
      </trkpt>
      <trkpt lat="44.7131" lon="1.22861">
        <ele>280.4</ele>
        <time>2022-08-13T07:51:54Z</time>
      </trkpt>
      <trkpt lat="44.71305" lon="1.22861">
        <ele>281.4</ele>
        <time>2022-08-13T07:51:57Z</time>
      </trkpt>
      <trkpt lat="44.713" lon="1.22859">
        <ele>283.4</ele>
        <time>2022-08-13T07:52:02Z</time>
      </trkpt>
      <trkpt lat="44.71295" lon="1.22858">
        <ele>283.4</ele>
        <time>2022-08-13T07:52:06Z</time>
      </trkpt>
      <trkpt lat="44.71291" lon="1.22857">
        <ele>283.4</ele>
        <time>2022-08-13T07:52:09Z</time>
      </trkpt>
      <trkpt lat="44.71286" lon="1.22854">
        <ele>283.4</ele>
        <time>2022-08-13T07:52:12Z</time>
      </trkpt>
      <trkpt lat="44.71282" lon="1.22851">
        <ele>285.4</ele>
        <time>2022-08-13T07:52:15Z</time>
      </trkpt>
      <trkpt lat="44.71277" lon="1.22847">
        <ele>285.4</ele>
        <time>2022-08-13T07:52:18Z</time>
      </trkpt>
      <trkpt lat="44.71272" lon="1.22842">
        <ele>286.4</ele>
        <time>2022-08-13T07:52:22Z</time>
      </trkpt>
      <trkpt lat="44.71268" lon="1.22838">
        <ele>286.4</ele>
        <time>2022-08-13T07:52:25Z</time>
      </trkpt>
      <trkpt lat="44.71263" lon="1.22834">
        <ele>286.4</ele>
        <time>2022-08-13T07:52:29Z</time>
      </trkpt>
      <trkpt lat="44.71258" lon="1.22833">
        <ele>286.4</ele>
        <time>2022-08-13T07:52:32Z</time>
      </trkpt>
      <trkpt lat="44.71253" lon="1.22831">
        <ele>287.4</ele>
        <time>2022-08-13T07:52:35Z</time>
      </trkpt>
      <trkpt lat="44.71247" lon="1.22828">
        <ele>288.4</ele>
        <time>2022-08-13T07:52:38Z</time>
      </trkpt>
      <trkpt lat="44.71242" lon="1.22826">
        <ele>287.4</ele>
        <time>2022-08-13T07:52:40Z</time>
      </trkpt>
      <trkpt lat="44.71238" lon="1.22825">
        <ele>287.4</ele>
        <time>2022-08-13T07:52:42Z</time>
      </trkpt>
      <trkpt lat="44.71231" lon="1.22823">
        <ele>287.4</ele>
        <time>2022-08-13T07:52:45Z</time>
      </trkpt>
      <trkpt lat="44.71226" lon="1.22822">
        <ele>287.4</ele>
        <time>2022-08-13T07:52:47Z</time>
      </trkpt>
      <trkpt lat="44.71222" lon="1.22821">
        <ele>286.4</ele>
        <time>2022-08-13T07:52:49Z</time>
      </trkpt>
      <trkpt lat="44.71216" lon="1.2282">
        <ele>287.4</ele>
        <time>2022-08-13T07:52:52Z</time>
      </trkpt>
      <trkpt lat="44.71212" lon="1.22819">
        <ele>288.4</ele>
        <time>2022-08-13T07:52:54Z</time>
      </trkpt>
      <trkpt lat="44.71207" lon="1.22819">
        <ele>289.4</ele>
        <time>2022-08-13T07:52:56Z</time>
      </trkpt>
      <trkpt lat="44.71201" lon="1.22819">
        <ele>289.4</ele>
        <time>2022-08-13T07:52:58Z</time>
      </trkpt>
      <trkpt lat="44.71197" lon="1.2282">
        <ele>288.4</ele>
        <time>2022-08-13T07:53:00Z</time>
      </trkpt>
      <trkpt lat="44.7119" lon="1.2282">
        <ele>288.4</ele>
        <time>2022-08-13T07:53:03Z</time>
      </trkpt>
      <trkpt lat="44.71185" lon="1.2282">
        <ele>289.4</ele>
        <time>2022-08-13T07:53:05Z</time>
      </trkpt>
      <trkpt lat="44.71181" lon="1.22821">
        <ele>289.4</ele>
        <time>2022-08-13T07:53:07Z</time>
      </trkpt>
      <trkpt lat="44.71174" lon="1.22821">
        <ele>290.4</ele>
        <time>2022-08-13T07:53:10Z</time>
      </trkpt>
      <trkpt lat="44.71167" lon="1.22821">
        <ele>289.4</ele>
        <time>2022-08-13T07:53:13Z</time>
      </trkpt>
      <trkpt lat="44.71161" lon="1.2282">
        <ele>290.4</ele>
        <time>2022-08-13T07:53:16Z</time>
      </trkpt>
      <trkpt lat="44.71156" lon="1.22819">
        <ele>291.4</ele>
        <time>2022-08-13T07:53:18Z</time>
      </trkpt>
      <trkpt lat="44.71152" lon="1.22819">
        <ele>291.4</ele>
        <time>2022-08-13T07:53:20Z</time>
      </trkpt>
      <trkpt lat="44.71146" lon="1.22819">
        <ele>290.4</ele>
        <time>2022-08-13T07:53:22Z</time>
      </trkpt>
      <trkpt lat="44.71142" lon="1.2282">
        <ele>290.4</ele>
        <time>2022-08-13T07:53:24Z</time>
      </trkpt>
      <trkpt lat="44.71137" lon="1.22821">
        <ele>290.4</ele>
        <time>2022-08-13T07:53:26Z</time>
      </trkpt>
      <trkpt lat="44.71132" lon="1.22824">
        <ele>292.4</ele>
        <time>2022-08-13T07:53:29Z</time>
      </trkpt>
      <trkpt lat="44.71127" lon="1.22826">
        <ele>288.4</ele>
        <time>2022-08-13T07:53:33Z</time>
      </trkpt>
      <trkpt lat="44.71123" lon="1.22829">
        <ele>285.4</ele>
        <time>2022-08-13T07:53:36Z</time>
      </trkpt>
      <trkpt lat="44.7112" lon="1.22835">
        <ele>292.4</ele>
        <time>2022-08-13T07:53:51Z</time>
      </trkpt>
      <trkpt lat="44.71116" lon="1.22841">
        <ele>292.4</ele>
        <time>2022-08-13T07:53:53Z</time>
      </trkpt>
      <trkpt lat="44.71112" lon="1.22846">
        <ele>293.4</ele>
        <time>2022-08-13T07:53:55Z</time>
      </trkpt>
      <trkpt lat="44.71109" lon="1.22851">
        <ele>294.4</ele>
        <time>2022-08-13T07:53:57Z</time>
      </trkpt>
      <trkpt lat="44.71105" lon="1.22857">
        <ele>295.4</ele>
        <time>2022-08-13T07:53:59Z</time>
      </trkpt>
      <trkpt lat="44.711" lon="1.22862">
        <ele>295.4</ele>
        <time>2022-08-13T07:54:01Z</time>
      </trkpt>
      <trkpt lat="44.71094" lon="1.22868">
        <ele>295.4</ele>
        <time>2022-08-13T07:54:03Z</time>
      </trkpt>
      <trkpt lat="44.71089" lon="1.22874">
        <ele>294.4</ele>
        <time>2022-08-13T07:54:05Z</time>
      </trkpt>
      <trkpt lat="44.71084" lon="1.22879">
        <ele>294.4</ele>
        <time>2022-08-13T07:54:07Z</time>
      </trkpt>
      <trkpt lat="44.71079" lon="1.22883">
        <ele>294.4</ele>
        <time>2022-08-13T07:54:09Z</time>
      </trkpt>
      <trkpt lat="44.71074" lon="1.22885">
        <ele>293.4</ele>
        <time>2022-08-13T07:54:11Z</time>
      </trkpt>
      <trkpt lat="44.71073" lon="1.22878">
        <ele>294.4</ele>
        <time>2022-08-13T07:55:43Z</time>
      </trkpt>
      <trkpt lat="44.71068" lon="1.22882">
        <ele>292.4</ele>
        <time>2022-08-13T07:57:30Z</time>
      </trkpt>
      <trkpt lat="44.71068" lon="1.22891">
        <ele>292.4</ele>
        <time>2022-08-13T07:57:32Z</time>
      </trkpt>
      <trkpt lat="44.71069" lon="1.22899">
        <ele>293.4</ele>
        <time>2022-08-13T07:57:34Z</time>
      </trkpt>
      <trkpt lat="44.7107" lon="1.22908">
        <ele>293.4</ele>
        <time>2022-08-13T07:57:36Z</time>
      </trkpt>
      <trkpt lat="44.71071" lon="1.22917">
        <ele>293.4</ele>
        <time>2022-08-13T07:57:38Z</time>
      </trkpt>
      <trkpt lat="44.71071" lon="1.22926">
        <ele>294.4</ele>
        <time>2022-08-13T07:57:40Z</time>
      </trkpt>
      <trkpt lat="44.71071" lon="1.22935">
        <ele>294.4</ele>
        <time>2022-08-13T07:57:42Z</time>
      </trkpt>
      <trkpt lat="44.71069" lon="1.22943">
        <ele>293.4</ele>
        <time>2022-08-13T07:57:44Z</time>
      </trkpt>
      <trkpt lat="44.71068" lon="1.22954">
        <ele>293.4</ele>
        <time>2022-08-13T07:57:46Z</time>
      </trkpt>
      <trkpt lat="44.71065" lon="1.22964">
        <ele>292.4</ele>
        <time>2022-08-13T07:57:48Z</time>
      </trkpt>
      <trkpt lat="44.71063" lon="1.22974">
        <ele>291.4</ele>
        <time>2022-08-13T07:57:50Z</time>
      </trkpt>
      <trkpt lat="44.71061" lon="1.22983">
        <ele>290.4</ele>
        <time>2022-08-13T07:57:52Z</time>
      </trkpt>
      <trkpt lat="44.7106" lon="1.22991">
        <ele>290.4</ele>
        <time>2022-08-13T07:57:54Z</time>
      </trkpt>
      <trkpt lat="44.71059" lon="1.22998">
        <ele>289.4</ele>
        <time>2022-08-13T07:57:56Z</time>
      </trkpt>
      <trkpt lat="44.71058" lon="1.23004">
        <ele>289.4</ele>
        <time>2022-08-13T07:57:58Z</time>
      </trkpt>
      <trkpt lat="44.7106" lon="1.2301">
        <ele>289.4</ele>
        <time>2022-08-13T07:58:02Z</time>
      </trkpt>
      <trkpt lat="44.7106" lon="1.23018">
        <ele>289.4</ele>
        <time>2022-08-13T07:58:06Z</time>
      </trkpt>
      <trkpt lat="44.71059" lon="1.23027">
        <ele>288.4</ele>
        <time>2022-08-13T07:58:09Z</time>
      </trkpt>
      <trkpt lat="44.7106" lon="1.23033">
        <ele>288.4</ele>
        <time>2022-08-13T07:58:11Z</time>
      </trkpt>
      <trkpt lat="44.71061" lon="1.23041">
        <ele>288.4</ele>
        <time>2022-08-13T07:58:13Z</time>
      </trkpt>
      <trkpt lat="44.71063" lon="1.23047">
        <ele>287.4</ele>
        <time>2022-08-13T07:58:15Z</time>
      </trkpt>
      <trkpt lat="44.71064" lon="1.23055">
        <ele>287.4</ele>
        <time>2022-08-13T07:58:17Z</time>
      </trkpt>
      <trkpt lat="44.71065" lon="1.23063">
        <ele>286.4</ele>
        <time>2022-08-13T07:58:19Z</time>
      </trkpt>
      <trkpt lat="44.71066" lon="1.23072">
        <ele>286.4</ele>
        <time>2022-08-13T07:58:21Z</time>
      </trkpt>
      <trkpt lat="44.71067" lon="1.23081">
        <ele>286.4</ele>
        <time>2022-08-13T07:58:23Z</time>
      </trkpt>
      <trkpt lat="44.71068" lon="1.2309">
        <ele>286.4</ele>
        <time>2022-08-13T07:58:25Z</time>
      </trkpt>
      <trkpt lat="44.71069" lon="1.23099">
        <ele>286.4</ele>
        <time>2022-08-13T07:58:27Z</time>
      </trkpt>
      <trkpt lat="44.7107" lon="1.23107">
        <ele>285.4</ele>
        <time>2022-08-13T07:58:29Z</time>
      </trkpt>
      <trkpt lat="44.71071" lon="1.23114">
        <ele>286.4</ele>
        <time>2022-08-13T07:58:31Z</time>
      </trkpt>
      <trkpt lat="44.71071" lon="1.23123">
        <ele>286.4</ele>
        <time>2022-08-13T07:58:33Z</time>
      </trkpt>
      <trkpt lat="44.7107" lon="1.23129">
        <ele>286.4</ele>
        <time>2022-08-13T07:58:35Z</time>
      </trkpt>
      <trkpt lat="44.71071" lon="1.23121">
        <ele>285.4</ele>
        <time>2022-08-13T07:58:43Z</time>
      </trkpt>
      <trkpt lat="44.71071" lon="1.23114">
        <ele>285.4</ele>
        <time>2022-08-13T07:58:45Z</time>
      </trkpt>
      <trkpt lat="44.71069" lon="1.23106">
        <ele>286.4</ele>
        <time>2022-08-13T07:59:55Z</time>
      </trkpt>
      <trkpt lat="44.7107" lon="1.23098">
        <ele>282.4</ele>
        <time>2022-08-13T07:59:57Z</time>
      </trkpt>
      <trkpt lat="44.71069" lon="1.23091">
        <ele>282.4</ele>
        <time>2022-08-13T07:59:59Z</time>
      </trkpt>
      <trkpt lat="44.71069" lon="1.23083">
        <ele>281.4</ele>
        <time>2022-08-13T08:00:01Z</time>
      </trkpt>
      <trkpt lat="44.71069" lon="1.23074">
        <ele>281.4</ele>
        <time>2022-08-13T08:00:03Z</time>
      </trkpt>
      <trkpt lat="44.71067" lon="1.23064">
        <ele>282.4</ele>
        <time>2022-08-13T08:00:05Z</time>
      </trkpt>
      <trkpt lat="44.71067" lon="1.23053">
        <ele>284.4</ele>
        <time>2022-08-13T08:00:07Z</time>
      </trkpt>
      <trkpt lat="44.71065" lon="1.23043">
        <ele>284.4</ele>
        <time>2022-08-13T08:00:09Z</time>
      </trkpt>
      <trkpt lat="44.71063" lon="1.23036">
        <ele>285.4</ele>
        <time>2022-08-13T08:00:10Z</time>
      </trkpt>
      <trkpt lat="44.71061" lon="1.23026">
        <ele>286.4</ele>
        <time>2022-08-13T08:00:12Z</time>
      </trkpt>
      <trkpt lat="44.7106" lon="1.2302">
        <ele>286.4</ele>
        <time>2022-08-13T08:00:13Z</time>
      </trkpt>
      <trkpt lat="44.7106" lon="1.23009">
        <ele>285.4</ele>
        <time>2022-08-13T08:00:15Z</time>
      </trkpt>
      <trkpt lat="44.71062" lon="1.22996">
        <ele>284.4</ele>
        <time>2022-08-13T08:00:17Z</time>
      </trkpt>
      <trkpt lat="44.71064" lon="1.22986">
        <ele>284.4</ele>
        <time>2022-08-13T08:00:19Z</time>
      </trkpt>
      <trkpt lat="44.71065" lon="1.22977">
        <ele>284.4</ele>
        <time>2022-08-13T08:00:21Z</time>
      </trkpt>
      <trkpt lat="44.71067" lon="1.22969">
        <ele>285.4</ele>
        <time>2022-08-13T08:00:23Z</time>
      </trkpt>
      <trkpt lat="44.71068" lon="1.22961">
        <ele>285.4</ele>
        <time>2022-08-13T08:00:25Z</time>
      </trkpt>
      <trkpt lat="44.7107" lon="1.22952">
        <ele>284.4</ele>
        <time>2022-08-13T08:00:27Z</time>
      </trkpt>
      <trkpt lat="44.71071" lon="1.22942">
        <ele>284.4</ele>
        <time>2022-08-13T08:00:29Z</time>
      </trkpt>
      <trkpt lat="44.71072" lon="1.2293">
        <ele>285.4</ele>
        <time>2022-08-13T08:00:31Z</time>
      </trkpt>
      <trkpt lat="44.71073" lon="1.22918">
        <ele>286.4</ele>
        <time>2022-08-13T08:00:33Z</time>
      </trkpt>
      <trkpt lat="44.71073" lon="1.22911">
        <ele>286.4</ele>
        <time>2022-08-13T08:00:34Z</time>
      </trkpt>
      <trkpt lat="44.71073" lon="1.22905">
        <ele>286.4</ele>
        <time>2022-08-13T08:00:35Z</time>
      </trkpt>
      <trkpt lat="44.71073" lon="1.22898">
        <ele>286.4</ele>
        <time>2022-08-13T08:00:36Z</time>
      </trkpt>
      <trkpt lat="44.71073" lon="1.22892">
        <ele>286.4</ele>
        <time>2022-08-13T08:00:37Z</time>
      </trkpt>
      <trkpt lat="44.71073" lon="1.22885">
        <ele>286.4</ele>
        <time>2022-08-13T08:00:38Z</time>
      </trkpt>
      <trkpt lat="44.71071" lon="1.22874">
        <ele>286.4</ele>
        <time>2022-08-13T08:00:40Z</time>
      </trkpt>
      <trkpt lat="44.7107" lon="1.22862">
        <ele>286.4</ele>
        <time>2022-08-13T08:00:42Z</time>
      </trkpt>
      <trkpt lat="44.71069" lon="1.22849">
        <ele>286.4</ele>
        <time>2022-08-13T08:00:44Z</time>
      </trkpt>
      <trkpt lat="44.71068" lon="1.22843">
        <ele>285.4</ele>
        <time>2022-08-13T08:00:45Z</time>
      </trkpt>
      <trkpt lat="44.71067" lon="1.22837">
        <ele>285.4</ele>
        <time>2022-08-13T08:00:46Z</time>
      </trkpt>
      <trkpt lat="44.71066" lon="1.22825">
        <ele>285.4</ele>
        <time>2022-08-13T08:00:48Z</time>
      </trkpt>
      <trkpt lat="44.71064" lon="1.22814">
        <ele>285.4</ele>
        <time>2022-08-13T08:00:50Z</time>
      </trkpt>
      <trkpt lat="44.71063" lon="1.22802">
        <ele>284.4</ele>
        <time>2022-08-13T08:00:52Z</time>
      </trkpt>
      <trkpt lat="44.71062" lon="1.22795">
        <ele>285.4</ele>
        <time>2022-08-13T08:00:53Z</time>
      </trkpt>
      <trkpt lat="44.7106" lon="1.22789">
        <ele>285.4</ele>
        <time>2022-08-13T08:00:54Z</time>
      </trkpt>
      <trkpt lat="44.71059" lon="1.22783">
        <ele>285.4</ele>
        <time>2022-08-13T08:00:55Z</time>
      </trkpt>
      <trkpt lat="44.71056" lon="1.22771">
        <ele>285.4</ele>
        <time>2022-08-13T08:00:57Z</time>
      </trkpt>
      <trkpt lat="44.71054" lon="1.22759">
        <ele>285.4</ele>
        <time>2022-08-13T08:00:59Z</time>
      </trkpt>
      <trkpt lat="44.71051" lon="1.22747">
        <ele>284.4</ele>
        <time>2022-08-13T08:01:01Z</time>
      </trkpt>
      <trkpt lat="44.71049" lon="1.22736">
        <ele>284.4</ele>
        <time>2022-08-13T08:01:03Z</time>
      </trkpt>
      <trkpt lat="44.71047" lon="1.22726">
        <ele>284.4</ele>
        <time>2022-08-13T08:01:05Z</time>
      </trkpt>
      <trkpt lat="44.71045" lon="1.22716">
        <ele>283.4</ele>
        <time>2022-08-13T08:01:07Z</time>
      </trkpt>
      <trkpt lat="44.71043" lon="1.22707">
        <ele>283.4</ele>
        <time>2022-08-13T08:01:09Z</time>
      </trkpt>
      <trkpt lat="44.7104" lon="1.22696">
        <ele>283.4</ele>
        <time>2022-08-13T08:01:11Z</time>
      </trkpt>
      <trkpt lat="44.71038" lon="1.22688">
        <ele>283.4</ele>
        <time>2022-08-13T08:01:13Z</time>
      </trkpt>
      <trkpt lat="44.71036" lon="1.2268">
        <ele>284.4</ele>
        <time>2022-08-13T08:01:16Z</time>
      </trkpt>
      <trkpt lat="44.71035" lon="1.22674">
        <ele>284.4</ele>
        <time>2022-08-13T08:01:18Z</time>
      </trkpt>
      <trkpt lat="44.71032" lon="1.22667">
        <ele>284.4</ele>
        <time>2022-08-13T08:01:20Z</time>
      </trkpt>
      <trkpt lat="44.71031" lon="1.22659">
        <ele>285.4</ele>
        <time>2022-08-13T08:01:22Z</time>
      </trkpt>
      <trkpt lat="44.71029" lon="1.22651">
        <ele>285.4</ele>
        <time>2022-08-13T08:01:24Z</time>
      </trkpt>
      <trkpt lat="44.71027" lon="1.22643">
        <ele>285.4</ele>
        <time>2022-08-13T08:01:26Z</time>
      </trkpt>
      <trkpt lat="44.71027" lon="1.22635">
        <ele>285.4</ele>
        <time>2022-08-13T08:01:28Z</time>
      </trkpt>
      <trkpt lat="44.71026" lon="1.22628">
        <ele>285.4</ele>
        <time>2022-08-13T08:01:30Z</time>
      </trkpt>
      <trkpt lat="44.71025" lon="1.22618">
        <ele>285.4</ele>
        <time>2022-08-13T08:01:32Z</time>
      </trkpt>
      <trkpt lat="44.71023" lon="1.22609">
        <ele>284.4</ele>
        <time>2022-08-13T08:01:34Z</time>
      </trkpt>
      <trkpt lat="44.71023" lon="1.22597">
        <ele>286.4</ele>
        <time>2022-08-13T08:01:36Z</time>
      </trkpt>
      <trkpt lat="44.71021" lon="1.22588">
        <ele>286.4</ele>
        <time>2022-08-13T08:01:38Z</time>
      </trkpt>
      <trkpt lat="44.71019" lon="1.2258">
        <ele>285.4</ele>
        <time>2022-08-13T08:01:40Z</time>
      </trkpt>
      <trkpt lat="44.71018" lon="1.22571">
        <ele>285.4</ele>
        <time>2022-08-13T08:01:42Z</time>
      </trkpt>
      <trkpt lat="44.71016" lon="1.22563">
        <ele>286.4</ele>
        <time>2022-08-13T08:01:44Z</time>
      </trkpt>
      <trkpt lat="44.71015" lon="1.22554">
        <ele>286.4</ele>
        <time>2022-08-13T08:01:46Z</time>
      </trkpt>
      <trkpt lat="44.71014" lon="1.22546">
        <ele>286.4</ele>
        <time>2022-08-13T08:01:48Z</time>
      </trkpt>
      <trkpt lat="44.71012" lon="1.22538">
        <ele>285.4</ele>
        <time>2022-08-13T08:01:50Z</time>
      </trkpt>
      <trkpt lat="44.71011" lon="1.22529">
        <ele>285.4</ele>
        <time>2022-08-13T08:01:52Z</time>
      </trkpt>
      <trkpt lat="44.71009" lon="1.22519">
        <ele>285.4</ele>
        <time>2022-08-13T08:01:54Z</time>
      </trkpt>
      <trkpt lat="44.71007" lon="1.2251">
        <ele>284.4</ele>
        <time>2022-08-13T08:01:56Z</time>
      </trkpt>
      <trkpt lat="44.71005" lon="1.22501">
        <ele>284.4</ele>
        <time>2022-08-13T08:01:58Z</time>
      </trkpt>
      <trkpt lat="44.71003" lon="1.22493">
        <ele>283.4</ele>
        <time>2022-08-13T08:02:00Z</time>
      </trkpt>
      <trkpt lat="44.71006" lon="1.22486">
        <ele>283.4</ele>
        <time>2022-08-13T08:02:03Z</time>
      </trkpt>
      <trkpt lat="44.7101" lon="1.22483">
        <ele>284.4</ele>
        <time>2022-08-13T08:02:05Z</time>
      </trkpt>
      <trkpt lat="44.71016" lon="1.22482">
        <ele>285.4</ele>
        <time>2022-08-13T08:02:07Z</time>
      </trkpt>
      <trkpt lat="44.7102" lon="1.22483">
        <ele>286.4</ele>
        <time>2022-08-13T08:02:09Z</time>
      </trkpt>
      <trkpt lat="44.71026" lon="1.22485">
        <ele>287.4</ele>
        <time>2022-08-13T08:02:12Z</time>
      </trkpt>
      <trkpt lat="44.71031" lon="1.22487">
        <ele>286.4</ele>
        <time>2022-08-13T08:02:15Z</time>
      </trkpt>
      <trkpt lat="44.71028" lon="1.22479">
        <ele>293.4</ele>
        <time>2022-08-13T08:03:02Z</time>
      </trkpt>
      <trkpt lat="44.71031" lon="1.22473">
        <ele>292.4</ele>
        <time>2022-08-13T08:03:05Z</time>
      </trkpt>
      <trkpt lat="44.71035" lon="1.22475">
        <ele>291.4</ele>
        <time>2022-08-13T08:03:22Z</time>
      </trkpt>
      <trkpt lat="44.71039" lon="1.2247">
        <ele>295.4</ele>
        <time>2022-08-13T08:03:42Z</time>
      </trkpt>
      <trkpt lat="44.71034" lon="1.22467">
        <ele>296.4</ele>
        <time>2022-08-13T08:03:52Z</time>
      </trkpt>
      <trkpt lat="44.71034" lon="1.22474">
        <ele>299.4</ele>
        <time>2022-08-13T08:04:00Z</time>
      </trkpt>
      <trkpt lat="44.71037" lon="1.22477">
        <ele>303.4</ele>
        <time>2022-08-13T08:04:08Z</time>
      </trkpt>
      <trkpt lat="44.71037" lon="1.22471">
        <ele>304.4</ele>
        <time>2022-08-13T08:04:20Z</time>
      </trkpt>
      <trkpt lat="44.71042" lon="1.22473">
        <ele>297.4</ele>
        <time>2022-08-13T08:05:01Z</time>
      </trkpt>
      <trkpt lat="44.71037" lon="1.22475">
        <ele>292.4</ele>
        <time>2022-08-13T08:08:16Z</time>
      </trkpt>
      <trkpt lat="44.71033" lon="1.22473">
        <ele>289.4</ele>
        <time>2022-08-13T08:08:34Z</time>
      </trkpt>
      <trkpt lat="44.71034" lon="1.22466">
        <ele>296.4</ele>
        <time>2022-08-13T08:08:41Z</time>
      </trkpt>
      <trkpt lat="44.71038" lon="1.22469">
        <ele>300.4</ele>
        <time>2022-08-13T08:08:45Z</time>
      </trkpt>
      <trkpt lat="44.71037" lon="1.22477">
        <ele>306.4</ele>
        <time>2022-08-13T08:08:57Z</time>
      </trkpt>
      <trkpt lat="44.71033" lon="1.22473">
        <ele>304.4</ele>
        <time>2022-08-13T08:09:03Z</time>
      </trkpt>
      <trkpt lat="44.71037" lon="1.22469">
        <ele>301.4</ele>
        <time>2022-08-13T08:09:11Z</time>
      </trkpt>
      <trkpt lat="44.71039" lon="1.22475">
        <ele>300.4</ele>
        <time>2022-08-13T08:09:23Z</time>
      </trkpt>
      <trkpt lat="44.71034" lon="1.22476">
        <ele>298.4</ele>
        <time>2022-08-13T08:09:30Z</time>
      </trkpt>
      <trkpt lat="44.71032" lon="1.22483">
        <ele>298.4</ele>
        <time>2022-08-13T08:09:35Z</time>
      </trkpt>
      <trkpt lat="44.71031" lon="1.22489">
        <ele>300.4</ele>
        <time>2022-08-13T08:10:00Z</time>
      </trkpt>
      <trkpt lat="44.71027" lon="1.22494">
        <ele>301.4</ele>
        <time>2022-08-13T08:10:06Z</time>
      </trkpt>
      <trkpt lat="44.71022" lon="1.22497">
        <ele>301.4</ele>
        <time>2022-08-13T08:10:10Z</time>
      </trkpt>
      <trkpt lat="44.71017" lon="1.22494">
        <ele>300.4</ele>
        <time>2022-08-13T08:10:13Z</time>
      </trkpt>
      <trkpt lat="44.71013" lon="1.2249">
        <ele>300.4</ele>
        <time>2022-08-13T08:10:15Z</time>
      </trkpt>
      <trkpt lat="44.71009" lon="1.22486">
        <ele>299.4</ele>
        <time>2022-08-13T08:10:17Z</time>
      </trkpt>
      <trkpt lat="44.71004" lon="1.22484">
        <ele>299.4</ele>
        <time>2022-08-13T08:10:19Z</time>
      </trkpt>
      <trkpt lat="44.71002" lon="1.22491">
        <ele>300.4</ele>
        <time>2022-08-13T08:10:22Z</time>
      </trkpt>
      <trkpt lat="44.71004" lon="1.22498">
        <ele>299.4</ele>
        <time>2022-08-13T08:10:24Z</time>
      </trkpt>
      <trkpt lat="44.71006" lon="1.22507">
        <ele>299.4</ele>
        <time>2022-08-13T08:10:26Z</time>
      </trkpt>
      <trkpt lat="44.71009" lon="1.22516">
        <ele>300.4</ele>
        <time>2022-08-13T08:10:28Z</time>
      </trkpt>
      <trkpt lat="44.71011" lon="1.22525">
        <ele>300.4</ele>
        <time>2022-08-13T08:10:30Z</time>
      </trkpt>
      <trkpt lat="44.71013" lon="1.22534">
        <ele>300.4</ele>
        <time>2022-08-13T08:10:32Z</time>
      </trkpt>
      <trkpt lat="44.71014" lon="1.22544">
        <ele>299.4</ele>
        <time>2022-08-13T08:10:34Z</time>
      </trkpt>
      <trkpt lat="44.71016" lon="1.22555">
        <ele>300.4</ele>
        <time>2022-08-13T08:10:36Z</time>
      </trkpt>
      <trkpt lat="44.71017" lon="1.22566">
        <ele>300.4</ele>
        <time>2022-08-13T08:10:38Z</time>
      </trkpt>
      <trkpt lat="44.71019" lon="1.22577">
        <ele>299.4</ele>
        <time>2022-08-13T08:10:40Z</time>
      </trkpt>
      <trkpt lat="44.7102" lon="1.22588">
        <ele>299.4</ele>
        <time>2022-08-13T08:10:42Z</time>
      </trkpt>
      <trkpt lat="44.71022" lon="1.22599">
        <ele>299.4</ele>
        <time>2022-08-13T08:10:44Z</time>
      </trkpt>
      <trkpt lat="44.71023" lon="1.22611">
        <ele>300.4</ele>
        <time>2022-08-13T08:10:46Z</time>
      </trkpt>
      <trkpt lat="44.71024" lon="1.22623">
        <ele>300.4</ele>
        <time>2022-08-13T08:10:48Z</time>
      </trkpt>
      <trkpt lat="44.71027" lon="1.22635">
        <ele>301.4</ele>
        <time>2022-08-13T08:10:50Z</time>
      </trkpt>
      <trkpt lat="44.71028" lon="1.22642">
        <ele>301.4</ele>
        <time>2022-08-13T08:10:51Z</time>
      </trkpt>
      <trkpt lat="44.71029" lon="1.22648">
        <ele>301.4</ele>
        <time>2022-08-13T08:10:52Z</time>
      </trkpt>
      <trkpt lat="44.7103" lon="1.22655">
        <ele>301.4</ele>
        <time>2022-08-13T08:10:53Z</time>
      </trkpt>
      <trkpt lat="44.71032" lon="1.22667">
        <ele>301.4</ele>
        <time>2022-08-13T08:10:55Z</time>
      </trkpt>
      <trkpt lat="44.71033" lon="1.22674">
        <ele>300.4</ele>
        <time>2022-08-13T08:10:56Z</time>
      </trkpt>
      <trkpt lat="44.71034" lon="1.2268">
        <ele>300.4</ele>
        <time>2022-08-13T08:10:57Z</time>
      </trkpt>
      <trkpt lat="44.71036" lon="1.22687">
        <ele>300.4</ele>
        <time>2022-08-13T08:10:58Z</time>
      </trkpt>
      <trkpt lat="44.71037" lon="1.22694">
        <ele>300.4</ele>
        <time>2022-08-13T08:10:59Z</time>
      </trkpt>
      <trkpt lat="44.71039" lon="1.22701">
        <ele>300.4</ele>
        <time>2022-08-13T08:11:00Z</time>
      </trkpt>
      <trkpt lat="44.71041" lon="1.22709">
        <ele>299.4</ele>
        <time>2022-08-13T08:11:01Z</time>
      </trkpt>
      <trkpt lat="44.71043" lon="1.22716">
        <ele>299.4</ele>
        <time>2022-08-13T08:11:02Z</time>
      </trkpt>
      <trkpt lat="44.71044" lon="1.22724">
        <ele>299.4</ele>
        <time>2022-08-13T08:11:03Z</time>
      </trkpt>
      <trkpt lat="44.71046" lon="1.22733">
        <ele>299.4</ele>
        <time>2022-08-13T08:11:04Z</time>
      </trkpt>
      <trkpt lat="44.71048" lon="1.22741">
        <ele>298.4</ele>
        <time>2022-08-13T08:11:05Z</time>
      </trkpt>
      <trkpt lat="44.7105" lon="1.2275">
        <ele>298.4</ele>
        <time>2022-08-13T08:11:06Z</time>
      </trkpt>
      <trkpt lat="44.71052" lon="1.22758">
        <ele>298.4</ele>
        <time>2022-08-13T08:11:07Z</time>
      </trkpt>
      <trkpt lat="44.71054" lon="1.22767">
        <ele>298.4</ele>
        <time>2022-08-13T08:11:08Z</time>
      </trkpt>
      <trkpt lat="44.71055" lon="1.22775">
        <ele>298.4</ele>
        <time>2022-08-13T08:11:09Z</time>
      </trkpt>
      <trkpt lat="44.71056" lon="1.22784">
        <ele>298.4</ele>
        <time>2022-08-13T08:11:10Z</time>
      </trkpt>
      <trkpt lat="44.71057" lon="1.22791">
        <ele>298.4</ele>
        <time>2022-08-13T08:11:11Z</time>
      </trkpt>
      <trkpt lat="44.71058" lon="1.22799">
        <ele>298.4</ele>
        <time>2022-08-13T08:11:12Z</time>
      </trkpt>
      <trkpt lat="44.71059" lon="1.22807">
        <ele>298.4</ele>
        <time>2022-08-13T08:11:13Z</time>
      </trkpt>
      <trkpt lat="44.7106" lon="1.22816">
        <ele>299.4</ele>
        <time>2022-08-13T08:11:14Z</time>
      </trkpt>
      <trkpt lat="44.71061" lon="1.22824">
        <ele>299.4</ele>
        <time>2022-08-13T08:11:15Z</time>
      </trkpt>
      <trkpt lat="44.71062" lon="1.22831">
        <ele>299.4</ele>
        <time>2022-08-13T08:11:16Z</time>
      </trkpt>
      <trkpt lat="44.71063" lon="1.2284">
        <ele>299.4</ele>
        <time>2022-08-13T08:11:17Z</time>
      </trkpt>
      <trkpt lat="44.71064" lon="1.22848">
        <ele>300.4</ele>
        <time>2022-08-13T08:11:18Z</time>
      </trkpt>
      <trkpt lat="44.71064" lon="1.22856">
        <ele>300.4</ele>
        <time>2022-08-13T08:11:19Z</time>
      </trkpt>
      <trkpt lat="44.71065" lon="1.22863">
        <ele>299.4</ele>
        <time>2022-08-13T08:11:20Z</time>
      </trkpt>
      <trkpt lat="44.71065" lon="1.2287">
        <ele>299.4</ele>
        <time>2022-08-13T08:11:21Z</time>
      </trkpt>
      <trkpt lat="44.71066" lon="1.22877">
        <ele>299.4</ele>
        <time>2022-08-13T08:11:22Z</time>
      </trkpt>
      <trkpt lat="44.71066" lon="1.22884">
        <ele>299.4</ele>
        <time>2022-08-13T08:11:23Z</time>
      </trkpt>
      <trkpt lat="44.71066" lon="1.22891">
        <ele>299.4</ele>
        <time>2022-08-13T08:11:24Z</time>
      </trkpt>
      <trkpt lat="44.71066" lon="1.22897">
        <ele>299.4</ele>
        <time>2022-08-13T08:11:25Z</time>
      </trkpt>
      <trkpt lat="44.71067" lon="1.22904">
        <ele>300.4</ele>
        <time>2022-08-13T08:11:26Z</time>
      </trkpt>
      <trkpt lat="44.71067" lon="1.2291">
        <ele>300.4</ele>
        <time>2022-08-13T08:11:27Z</time>
      </trkpt>
      <trkpt lat="44.71067" lon="1.22917">
        <ele>300.4</ele>
        <time>2022-08-13T08:11:28Z</time>
      </trkpt>
      <trkpt lat="44.71066" lon="1.22929">
        <ele>300.4</ele>
        <time>2022-08-13T08:11:30Z</time>
      </trkpt>
      <trkpt lat="44.71065" lon="1.22941">
        <ele>301.4</ele>
        <time>2022-08-13T08:11:32Z</time>
      </trkpt>
      <trkpt lat="44.71064" lon="1.22948">
        <ele>301.4</ele>
        <time>2022-08-13T08:11:33Z</time>
      </trkpt>
      <trkpt lat="44.71063" lon="1.22955">
        <ele>300.4</ele>
        <time>2022-08-13T08:11:34Z</time>
      </trkpt>
      <trkpt lat="44.71063" lon="1.22961">
        <ele>300.4</ele>
        <time>2022-08-13T08:11:35Z</time>
      </trkpt>
      <trkpt lat="44.71061" lon="1.22968">
        <ele>300.4</ele>
        <time>2022-08-13T08:11:36Z</time>
      </trkpt>
      <trkpt lat="44.7106" lon="1.22975">
        <ele>300.4</ele>
        <time>2022-08-13T08:11:37Z</time>
      </trkpt>
      <trkpt lat="44.71059" lon="1.22982">
        <ele>300.4</ele>
        <time>2022-08-13T08:11:38Z</time>
      </trkpt>
      <trkpt lat="44.71058" lon="1.22988">
        <ele>300.4</ele>
        <time>2022-08-13T08:11:39Z</time>
      </trkpt>
      <trkpt lat="44.71057" lon="1.22999">
        <ele>300.4</ele>
        <time>2022-08-13T08:11:41Z</time>
      </trkpt>
      <trkpt lat="44.71056" lon="1.23006">
        <ele>300.4</ele>
        <time>2022-08-13T08:11:43Z</time>
      </trkpt>
      <trkpt lat="44.7106" lon="1.23011">
        <ele>299.4</ele>
        <time>2022-08-13T08:11:49Z</time>
      </trkpt>
      <trkpt lat="44.71057" lon="1.23005">
        <ele>298.4</ele>
        <time>2022-08-13T08:12:01Z</time>
      </trkpt>
      <trkpt lat="44.71052" lon="1.23004">
        <ele>296.4</ele>
        <time>2022-08-13T08:12:04Z</time>
      </trkpt>
      <trkpt lat="44.71048" lon="1.23001">
        <ele>296.4</ele>
        <time>2022-08-13T08:12:06Z</time>
      </trkpt>
      <trkpt lat="44.71042" lon="1.22995">
        <ele>296.4</ele>
        <time>2022-08-13T08:12:08Z</time>
      </trkpt>
      <trkpt lat="44.71037" lon="1.2299">
        <ele>296.4</ele>
        <time>2022-08-13T08:12:10Z</time>
      </trkpt>
      <trkpt lat="44.71032" lon="1.22986">
        <ele>296.4</ele>
        <time>2022-08-13T08:12:12Z</time>
      </trkpt>
      <trkpt lat="44.71027" lon="1.22981">
        <ele>296.4</ele>
        <time>2022-08-13T08:12:15Z</time>
      </trkpt>
      <trkpt lat="44.71022" lon="1.22975">
        <ele>296.4</ele>
        <time>2022-08-13T08:12:34Z</time>
      </trkpt>
      <trkpt lat="44.71016" lon="1.22972">
        <ele>294.4</ele>
        <time>2022-08-13T08:12:36Z</time>
      </trkpt>
      <trkpt lat="44.71006" lon="1.22971">
        <ele>293.4</ele>
        <time>2022-08-13T08:12:38Z</time>
      </trkpt>
      <trkpt lat="44.71001" lon="1.22974">
        <ele>293.4</ele>
        <time>2022-08-13T08:12:39Z</time>
      </trkpt>
      <trkpt lat="44.70997" lon="1.22977">
        <ele>293.4</ele>
        <time>2022-08-13T08:12:40Z</time>
      </trkpt>
      <trkpt lat="44.70993" lon="1.2298">
        <ele>293.4</ele>
        <time>2022-08-13T08:12:41Z</time>
      </trkpt>
      <trkpt lat="44.70987" lon="1.22987">
        <ele>293.4</ele>
        <time>2022-08-13T08:12:43Z</time>
      </trkpt>
      <trkpt lat="44.70984" lon="1.22994">
        <ele>293.4</ele>
        <time>2022-08-13T08:12:45Z</time>
      </trkpt>
      <trkpt lat="44.70978" lon="1.22995">
        <ele>292.4</ele>
        <time>2022-08-13T08:12:48Z</time>
      </trkpt>
      <trkpt lat="44.70973" lon="1.22997">
        <ele>289.4</ele>
        <time>2022-08-13T08:14:19Z</time>
      </trkpt>
      <trkpt lat="44.70966" lon="1.22997">
        <ele>293.4</ele>
        <time>2022-08-13T08:14:22Z</time>
      </trkpt>
      <trkpt lat="44.7096" lon="1.22996">
        <ele>296.4</ele>
        <time>2022-08-13T08:14:24Z</time>
      </trkpt>
      <trkpt lat="44.70954" lon="1.22995">
        <ele>295.4</ele>
        <time>2022-08-13T08:14:26Z</time>
      </trkpt>
      <trkpt lat="44.70946" lon="1.22996">
        <ele>294.4</ele>
        <time>2022-08-13T08:14:28Z</time>
      </trkpt>
      <trkpt lat="44.7094" lon="1.22999">
        <ele>295.4</ele>
        <time>2022-08-13T08:14:29Z</time>
      </trkpt>
      <trkpt lat="44.70935" lon="1.23004">
        <ele>294.4</ele>
        <time>2022-08-13T08:14:30Z</time>
      </trkpt>
      <trkpt lat="44.7093" lon="1.23008">
        <ele>293.4</ele>
        <time>2022-08-13T08:14:31Z</time>
      </trkpt>
      <trkpt lat="44.70927" lon="1.23013">
        <ele>292.4</ele>
        <time>2022-08-13T08:14:32Z</time>
      </trkpt>
      <trkpt lat="44.70923" lon="1.23018">
        <ele>290.4</ele>
        <time>2022-08-13T08:14:33Z</time>
      </trkpt>
      <trkpt lat="44.70917" lon="1.23025">
        <ele>290.4</ele>
        <time>2022-08-13T08:14:35Z</time>
      </trkpt>
      <trkpt lat="44.70913" lon="1.23029">
        <ele>289.4</ele>
        <time>2022-08-13T08:14:37Z</time>
      </trkpt>
      <trkpt lat="44.70909" lon="1.23035">
        <ele>281.4</ele>
        <time>2022-08-13T08:16:08Z</time>
      </trkpt>
      <trkpt lat="44.70903" lon="1.2304">
        <ele>281.4</ele>
        <time>2022-08-13T08:16:10Z</time>
      </trkpt>
      <trkpt lat="44.70899" lon="1.23044">
        <ele>283.4</ele>
        <time>2022-08-13T08:16:11Z</time>
      </trkpt>
      <trkpt lat="44.70895" lon="1.23049">
        <ele>283.4</ele>
        <time>2022-08-13T08:16:12Z</time>
      </trkpt>
      <trkpt lat="44.70892" lon="1.23056">
        <ele>284.4</ele>
        <time>2022-08-13T08:16:13Z</time>
      </trkpt>
      <trkpt lat="44.70889" lon="1.23062">
        <ele>284.4</ele>
        <time>2022-08-13T08:16:14Z</time>
      </trkpt>
      <trkpt lat="44.70886" lon="1.23069">
        <ele>284.4</ele>
        <time>2022-08-13T08:16:15Z</time>
      </trkpt>
      <trkpt lat="44.70884" lon="1.23076">
        <ele>284.4</ele>
        <time>2022-08-13T08:16:16Z</time>
      </trkpt>
      <trkpt lat="44.70881" lon="1.23083">
        <ele>284.4</ele>
        <time>2022-08-13T08:16:17Z</time>
      </trkpt>
      <trkpt lat="44.70878" lon="1.2309">
        <ele>285.4</ele>
        <time>2022-08-13T08:16:18Z</time>
      </trkpt>
      <trkpt lat="44.70874" lon="1.23098">
        <ele>285.4</ele>
        <time>2022-08-13T08:16:19Z</time>
      </trkpt>
      <trkpt lat="44.70871" lon="1.23105">
        <ele>285.4</ele>
        <time>2022-08-13T08:16:20Z</time>
      </trkpt>
      <trkpt lat="44.70868" lon="1.23114">
        <ele>285.4</ele>
        <time>2022-08-13T08:16:21Z</time>
      </trkpt>
      <trkpt lat="44.70865" lon="1.23123">
        <ele>285.4</ele>
        <time>2022-08-13T08:16:22Z</time>
      </trkpt>
      <trkpt lat="44.70862" lon="1.23132">
        <ele>285.4</ele>
        <time>2022-08-13T08:16:23Z</time>
      </trkpt>
      <trkpt lat="44.7086" lon="1.23143">
        <ele>285.4</ele>
        <time>2022-08-13T08:16:24Z</time>
      </trkpt>
      <trkpt lat="44.70859" lon="1.23153">
        <ele>285.4</ele>
        <time>2022-08-13T08:16:25Z</time>
      </trkpt>
      <trkpt lat="44.70858" lon="1.23163">
        <ele>285.4</ele>
        <time>2022-08-13T08:16:26Z</time>
      </trkpt>
      <trkpt lat="44.70859" lon="1.23173">
        <ele>284.4</ele>
        <time>2022-08-13T08:16:27Z</time>
      </trkpt>
      <trkpt lat="44.70859" lon="1.23182">
        <ele>284.4</ele>
        <time>2022-08-13T08:16:28Z</time>
      </trkpt>
      <trkpt lat="44.70859" lon="1.23191">
        <ele>284.4</ele>
        <time>2022-08-13T08:16:29Z</time>
      </trkpt>
      <trkpt lat="44.70859" lon="1.232">
        <ele>284.4</ele>
        <time>2022-08-13T08:16:30Z</time>
      </trkpt>
      <trkpt lat="44.70859" lon="1.23209">
        <ele>283.4</ele>
        <time>2022-08-13T08:16:31Z</time>
      </trkpt>
      <trkpt lat="44.7086" lon="1.23216">
        <ele>283.4</ele>
        <time>2022-08-13T08:16:32Z</time>
      </trkpt>
      <trkpt lat="44.70859" lon="1.23224">
        <ele>283.4</ele>
        <time>2022-08-13T08:16:33Z</time>
      </trkpt>
      <trkpt lat="44.70858" lon="1.23232">
        <ele>282.4</ele>
        <time>2022-08-13T08:16:34Z</time>
      </trkpt>
      <trkpt lat="44.70857" lon="1.23239">
        <ele>282.4</ele>
        <time>2022-08-13T08:16:35Z</time>
      </trkpt>
      <trkpt lat="44.70856" lon="1.23246">
        <ele>282.4</ele>
        <time>2022-08-13T08:16:36Z</time>
      </trkpt>
      <trkpt lat="44.70854" lon="1.23256">
        <ele>281.4</ele>
        <time>2022-08-13T08:16:38Z</time>
      </trkpt>
      <trkpt lat="44.70852" lon="1.23266">
        <ele>282.4</ele>
        <time>2022-08-13T08:16:40Z</time>
      </trkpt>
      <trkpt lat="44.70848" lon="1.23277">
        <ele>282.4</ele>
        <time>2022-08-13T08:16:42Z</time>
      </trkpt>
      <trkpt lat="44.70846" lon="1.23284">
        <ele>282.4</ele>
        <time>2022-08-13T08:16:43Z</time>
      </trkpt>
      <trkpt lat="44.70842" lon="1.2329">
        <ele>282.4</ele>
        <time>2022-08-13T08:16:44Z</time>
      </trkpt>
      <trkpt lat="44.70836" lon="1.23298">
        <ele>282.4</ele>
        <time>2022-08-13T08:16:45Z</time>
      </trkpt>
      <trkpt lat="44.7083" lon="1.23304">
        <ele>282.4</ele>
        <time>2022-08-13T08:16:46Z</time>
      </trkpt>
      <trkpt lat="44.70825" lon="1.2331">
        <ele>282.4</ele>
        <time>2022-08-13T08:16:47Z</time>
      </trkpt>
      <trkpt lat="44.7082" lon="1.23315">
        <ele>281.4</ele>
        <time>2022-08-13T08:16:48Z</time>
      </trkpt>
      <trkpt lat="44.70815" lon="1.23321">
        <ele>281.4</ele>
        <time>2022-08-13T08:16:49Z</time>
      </trkpt>
      <trkpt lat="44.70811" lon="1.23326">
        <ele>281.4</ele>
        <time>2022-08-13T08:16:50Z</time>
      </trkpt>
      <trkpt lat="44.70806" lon="1.2333">
        <ele>281.4</ele>
        <time>2022-08-13T08:16:51Z</time>
      </trkpt>
      <trkpt lat="44.70801" lon="1.23334">
        <ele>281.4</ele>
        <time>2022-08-13T08:16:52Z</time>
      </trkpt>
      <trkpt lat="44.70795" lon="1.23338">
        <ele>281.4</ele>
        <time>2022-08-13T08:16:53Z</time>
      </trkpt>
      <trkpt lat="44.7079" lon="1.23341">
        <ele>281.4</ele>
        <time>2022-08-13T08:16:54Z</time>
      </trkpt>
      <trkpt lat="44.70784" lon="1.23342">
        <ele>281.4</ele>
        <time>2022-08-13T08:16:55Z</time>
      </trkpt>
      <trkpt lat="44.70779" lon="1.23342">
        <ele>281.4</ele>
        <time>2022-08-13T08:16:56Z</time>
      </trkpt>
      <trkpt lat="44.70774" lon="1.23342">
        <ele>281.4</ele>
        <time>2022-08-13T08:16:57Z</time>
      </trkpt>
      <trkpt lat="44.70769" lon="1.23342">
        <ele>281.4</ele>
        <time>2022-08-13T08:16:58Z</time>
      </trkpt>
      <trkpt lat="44.70764" lon="1.23341">
        <ele>280.4</ele>
        <time>2022-08-13T08:16:59Z</time>
      </trkpt>
      <trkpt lat="44.70759" lon="1.23342">
        <ele>280.4</ele>
        <time>2022-08-13T08:17:00Z</time>
      </trkpt>
      <trkpt lat="44.70753" lon="1.23342">
        <ele>280.4</ele>
        <time>2022-08-13T08:17:01Z</time>
      </trkpt>
      <trkpt lat="44.70747" lon="1.23343">
        <ele>280.4</ele>
        <time>2022-08-13T08:17:02Z</time>
      </trkpt>
      <trkpt lat="44.70741" lon="1.23344">
        <ele>279.4</ele>
        <time>2022-08-13T08:17:03Z</time>
      </trkpt>
      <trkpt lat="44.70735" lon="1.23347">
        <ele>279.4</ele>
        <time>2022-08-13T08:17:04Z</time>
      </trkpt>
      <trkpt lat="44.7073" lon="1.23349">
        <ele>278.4</ele>
        <time>2022-08-13T08:17:05Z</time>
      </trkpt>
      <trkpt lat="44.70725" lon="1.23353">
        <ele>277.4</ele>
        <time>2022-08-13T08:17:07Z</time>
      </trkpt>
      <trkpt lat="44.70722" lon="1.23358">
        <ele>274.4</ele>
        <time>2022-08-13T08:18:34Z</time>
      </trkpt>
      <trkpt lat="44.70719" lon="1.23366">
        <ele>275.4</ele>
        <time>2022-08-13T08:18:37Z</time>
      </trkpt>
      <trkpt lat="44.70717" lon="1.23374">
        <ele>274.4</ele>
        <time>2022-08-13T08:18:39Z</time>
      </trkpt>
      <trkpt lat="44.70715" lon="1.23384">
        <ele>274.4</ele>
        <time>2022-08-13T08:18:41Z</time>
      </trkpt>
      <trkpt lat="44.70712" lon="1.23396">
        <ele>275.4</ele>
        <time>2022-08-13T08:18:43Z</time>
      </trkpt>
      <trkpt lat="44.7071" lon="1.23407">
        <ele>276.4</ele>
        <time>2022-08-13T08:18:45Z</time>
      </trkpt>
      <trkpt lat="44.70708" lon="1.23419">
        <ele>276.4</ele>
        <time>2022-08-13T08:18:47Z</time>
      </trkpt>
      <trkpt lat="44.70706" lon="1.23426">
        <ele>276.4</ele>
        <time>2022-08-13T08:18:48Z</time>
      </trkpt>
      <trkpt lat="44.70706" lon="1.23433">
        <ele>276.4</ele>
        <time>2022-08-13T08:18:49Z</time>
      </trkpt>
      <trkpt lat="44.70706" lon="1.23441">
        <ele>276.4</ele>
        <time>2022-08-13T08:18:50Z</time>
      </trkpt>
      <trkpt lat="44.70706" lon="1.23448">
        <ele>276.4</ele>
        <time>2022-08-13T08:18:51Z</time>
      </trkpt>
      <trkpt lat="44.70707" lon="1.23455">
        <ele>276.4</ele>
        <time>2022-08-13T08:18:52Z</time>
      </trkpt>
      <trkpt lat="44.70711" lon="1.23466">
        <ele>275.4</ele>
        <time>2022-08-13T08:18:54Z</time>
      </trkpt>
      <trkpt lat="44.70716" lon="1.23478">
        <ele>274.4</ele>
        <time>2022-08-13T08:18:56Z</time>
      </trkpt>
      <trkpt lat="44.70719" lon="1.23483">
        <ele>273.4</ele>
        <time>2022-08-13T08:18:57Z</time>
      </trkpt>
      <trkpt lat="44.70722" lon="1.23489">
        <ele>273.4</ele>
        <time>2022-08-13T08:18:58Z</time>
      </trkpt>
      <trkpt lat="44.70726" lon="1.23493">
        <ele>272.4</ele>
        <time>2022-08-13T08:18:59Z</time>
      </trkpt>
      <trkpt lat="44.70733" lon="1.23497">
        <ele>271.4</ele>
        <time>2022-08-13T08:19:01Z</time>
      </trkpt>
      <trkpt lat="44.70738" lon="1.23501">
        <ele>270.4</ele>
        <time>2022-08-13T08:19:03Z</time>
      </trkpt>
      <trkpt lat="44.70744" lon="1.23506">
        <ele>269.4</ele>
        <time>2022-08-13T08:19:05Z</time>
      </trkpt>
      <trkpt lat="44.70753" lon="1.23508">
        <ele>268.4</ele>
        <time>2022-08-13T08:19:07Z</time>
      </trkpt>
      <trkpt lat="44.70759" lon="1.23509">
        <ele>268.4</ele>
        <time>2022-08-13T08:19:08Z</time>
      </trkpt>
      <trkpt lat="44.70765" lon="1.23513">
        <ele>267.4</ele>
        <time>2022-08-13T08:19:09Z</time>
      </trkpt>
      <trkpt lat="44.7077" lon="1.2352">
        <ele>266.4</ele>
        <time>2022-08-13T08:19:11Z</time>
      </trkpt>
      <trkpt lat="44.70774" lon="1.23531">
        <ele>265.4</ele>
        <time>2022-08-13T08:19:13Z</time>
      </trkpt>
      <trkpt lat="44.70777" lon="1.2354">
        <ele>264.4</ele>
        <time>2022-08-13T08:19:14Z</time>
      </trkpt>
      <trkpt lat="44.70779" lon="1.23547">
        <ele>263.4</ele>
        <time>2022-08-13T08:19:15Z</time>
      </trkpt>
      <trkpt lat="44.70782" lon="1.23558">
        <ele>261.4</ele>
        <time>2022-08-13T08:19:16Z</time>
      </trkpt>
      <trkpt lat="44.70784" lon="1.23568">
        <ele>260.4</ele>
        <time>2022-08-13T08:19:17Z</time>
      </trkpt>
      <trkpt lat="44.70784" lon="1.23577">
        <ele>259.4</ele>
        <time>2022-08-13T08:19:18Z</time>
      </trkpt>
      <trkpt lat="44.70784" lon="1.23587">
        <ele>258.4</ele>
        <time>2022-08-13T08:19:19Z</time>
      </trkpt>
      <trkpt lat="44.70784" lon="1.23595">
        <ele>257.4</ele>
        <time>2022-08-13T08:19:20Z</time>
      </trkpt>
      <trkpt lat="44.70784" lon="1.23605">
        <ele>256.4</ele>
        <time>2022-08-13T08:19:21Z</time>
      </trkpt>
      <trkpt lat="44.70784" lon="1.23612">
        <ele>255.4</ele>
        <time>2022-08-13T08:19:22Z</time>
      </trkpt>
      <trkpt lat="44.70783" lon="1.23621">
        <ele>254.4</ele>
        <time>2022-08-13T08:19:23Z</time>
      </trkpt>
      <trkpt lat="44.70783" lon="1.23628">
        <ele>253.4</ele>
        <time>2022-08-13T08:19:24Z</time>
      </trkpt>
      <trkpt lat="44.70782" lon="1.23639">
        <ele>252.4</ele>
        <time>2022-08-13T08:19:26Z</time>
      </trkpt>
      <trkpt lat="44.70782" lon="1.23648">
        <ele>251.4</ele>
        <time>2022-08-13T08:19:28Z</time>
      </trkpt>
      <trkpt lat="44.70783" lon="1.23658">
        <ele>251.4</ele>
        <time>2022-08-13T08:19:30Z</time>
      </trkpt>
      <trkpt lat="44.70787" lon="1.2367">
        <ele>251.4</ele>
        <time>2022-08-13T08:19:32Z</time>
      </trkpt>
      <trkpt lat="44.70789" lon="1.23679">
        <ele>251.4</ele>
        <time>2022-08-13T08:19:33Z</time>
      </trkpt>
      <trkpt lat="44.70791" lon="1.23687">
        <ele>250.4</ele>
        <time>2022-08-13T08:19:34Z</time>
      </trkpt>
      <trkpt lat="44.70793" lon="1.23695">
        <ele>250.4</ele>
        <time>2022-08-13T08:19:35Z</time>
      </trkpt>
      <trkpt lat="44.70795" lon="1.23702">
        <ele>249.4</ele>
        <time>2022-08-13T08:19:36Z</time>
      </trkpt>
      <trkpt lat="44.70797" lon="1.23709">
        <ele>248.4</ele>
        <time>2022-08-13T08:19:38Z</time>
      </trkpt>
      <trkpt lat="44.70799" lon="1.23716">
        <ele>246.4</ele>
        <time>2022-08-13T08:19:56Z</time>
      </trkpt>
      <trkpt lat="44.70798" lon="1.23725">
        <ele>245.4</ele>
        <time>2022-08-13T08:19:59Z</time>
      </trkpt>
      <trkpt lat="44.70793" lon="1.23732">
        <ele>245.4</ele>
        <time>2022-08-13T08:20:01Z</time>
      </trkpt>
      <trkpt lat="44.70788" lon="1.2374">
        <ele>244.4</ele>
        <time>2022-08-13T08:20:03Z</time>
      </trkpt>
      <trkpt lat="44.70781" lon="1.23747">
        <ele>241.4</ele>
        <time>2022-08-13T08:20:05Z</time>
      </trkpt>
      <trkpt lat="44.70776" lon="1.2375">
        <ele>238.4</ele>
        <time>2022-08-13T08:20:06Z</time>
      </trkpt>
      <trkpt lat="44.70771" lon="1.23754">
        <ele>237.4</ele>
        <time>2022-08-13T08:20:07Z</time>
      </trkpt>
      <trkpt lat="44.70765" lon="1.23758">
        <ele>235.4</ele>
        <time>2022-08-13T08:20:08Z</time>
      </trkpt>
      <trkpt lat="44.7076" lon="1.23763">
        <ele>235.4</ele>
        <time>2022-08-13T08:20:09Z</time>
      </trkpt>
      <trkpt lat="44.70754" lon="1.23768">
        <ele>234.4</ele>
        <time>2022-08-13T08:20:10Z</time>
      </trkpt>
      <trkpt lat="44.70748" lon="1.23772">
        <ele>234.4</ele>
        <time>2022-08-13T08:20:11Z</time>
      </trkpt>
      <trkpt lat="44.70743" lon="1.23776">
        <ele>234.4</ele>
        <time>2022-08-13T08:20:12Z</time>
      </trkpt>
      <trkpt lat="44.70738" lon="1.2378">
        <ele>235.4</ele>
        <time>2022-08-13T08:20:13Z</time>
      </trkpt>
      <trkpt lat="44.70733" lon="1.23783">
        <ele>235.4</ele>
        <time>2022-08-13T08:20:14Z</time>
      </trkpt>
      <trkpt lat="44.7073" lon="1.23793">
        <ele>235.4</ele>
        <time>2022-08-13T08:20:16Z</time>
      </trkpt>
      <trkpt lat="44.70729" lon="1.23799">
        <ele>234.4</ele>
        <time>2022-08-13T08:20:17Z</time>
      </trkpt>
      <trkpt lat="44.7073" lon="1.23807">
        <ele>233.4</ele>
        <time>2022-08-13T08:20:18Z</time>
      </trkpt>
      <trkpt lat="44.70731" lon="1.23816">
        <ele>233.4</ele>
        <time>2022-08-13T08:20:19Z</time>
      </trkpt>
      <trkpt lat="44.70733" lon="1.23826">
        <ele>233.4</ele>
        <time>2022-08-13T08:20:20Z</time>
      </trkpt>
      <trkpt lat="44.70734" lon="1.23837">
        <ele>233.4</ele>
        <time>2022-08-13T08:20:21Z</time>
      </trkpt>
      <trkpt lat="44.70735" lon="1.23847">
        <ele>233.4</ele>
        <time>2022-08-13T08:20:22Z</time>
      </trkpt>
      <trkpt lat="44.70736" lon="1.23862">
        <ele>234.4</ele>
        <time>2022-08-13T08:20:23Z</time>
      </trkpt>
      <trkpt lat="44.70737" lon="1.23876">
        <ele>234.4</ele>
        <time>2022-08-13T08:20:24Z</time>
      </trkpt>
      <trkpt lat="44.70737" lon="1.23891">
        <ele>233.4</ele>
        <time>2022-08-13T08:20:25Z</time>
      </trkpt>
      <trkpt lat="44.70736" lon="1.23905">
        <ele>232.4</ele>
        <time>2022-08-13T08:20:26Z</time>
      </trkpt>
      <trkpt lat="44.70735" lon="1.23918">
        <ele>232.4</ele>
        <time>2022-08-13T08:20:27Z</time>
      </trkpt>
      <trkpt lat="44.70735" lon="1.23928">
        <ele>231.4</ele>
        <time>2022-08-13T08:20:28Z</time>
      </trkpt>
      <trkpt lat="44.70735" lon="1.23937">
        <ele>231.4</ele>
        <time>2022-08-13T08:20:29Z</time>
      </trkpt>
      <trkpt lat="44.70734" lon="1.23946">
        <ele>229.4</ele>
        <time>2022-08-13T08:20:30Z</time>
      </trkpt>
      <trkpt lat="44.70733" lon="1.23954">
        <ele>228.4</ele>
        <time>2022-08-13T08:20:31Z</time>
      </trkpt>
      <trkpt lat="44.70733" lon="1.23962">
        <ele>228.4</ele>
        <time>2022-08-13T08:20:32Z</time>
      </trkpt>
      <trkpt lat="44.70732" lon="1.2397">
        <ele>227.4</ele>
        <time>2022-08-13T08:20:33Z</time>
      </trkpt>
      <trkpt lat="44.70732" lon="1.23979">
        <ele>226.4</ele>
        <time>2022-08-13T08:20:34Z</time>
      </trkpt>
      <trkpt lat="44.70731" lon="1.23987">
        <ele>225.4</ele>
        <time>2022-08-13T08:20:35Z</time>
      </trkpt>
      <trkpt lat="44.70731" lon="1.23994">
        <ele>223.4</ele>
        <time>2022-08-13T08:20:36Z</time>
      </trkpt>
      <trkpt lat="44.7073" lon="1.24001">
        <ele>223.4</ele>
        <time>2022-08-13T08:20:37Z</time>
      </trkpt>
      <trkpt lat="44.7073" lon="1.24009">
        <ele>223.4</ele>
        <time>2022-08-13T08:20:38Z</time>
      </trkpt>
      <trkpt lat="44.7073" lon="1.24016">
        <ele>222.4</ele>
        <time>2022-08-13T08:20:39Z</time>
      </trkpt>
      <trkpt lat="44.70733" lon="1.24026">
        <ele>221.4</ele>
        <time>2022-08-13T08:20:41Z</time>
      </trkpt>
      <trkpt lat="44.70737" lon="1.24032">
        <ele>220.4</ele>
        <time>2022-08-13T08:20:43Z</time>
      </trkpt>
      <trkpt lat="44.70743" lon="1.24033">
        <ele>219.4</ele>
        <time>2022-08-13T08:20:45Z</time>
      </trkpt>
      <trkpt lat="44.70749" lon="1.24031">
        <ele>218.4</ele>
        <time>2022-08-13T08:20:47Z</time>
      </trkpt>
      <trkpt lat="44.70754" lon="1.24031">
        <ele>216.4</ele>
        <time>2022-08-13T08:20:49Z</time>
      </trkpt>
      <trkpt lat="44.70759" lon="1.24032">
        <ele>215.4</ele>
        <time>2022-08-13T08:20:51Z</time>
      </trkpt>
      <trkpt lat="44.70764" lon="1.24031">
        <ele>214.4</ele>
        <time>2022-08-13T08:20:53Z</time>
      </trkpt>
      <trkpt lat="44.70771" lon="1.24032">
        <ele>213.4</ele>
        <time>2022-08-13T08:20:56Z</time>
      </trkpt>
      <trkpt lat="44.70773" lon="1.24039">
        <ele>212.4</ele>
        <time>2022-08-13T08:20:58Z</time>
      </trkpt>
      <trkpt lat="44.70775" lon="1.24048">
        <ele>212.4</ele>
        <time>2022-08-13T08:21:00Z</time>
      </trkpt>
      <trkpt lat="44.70777" lon="1.2406">
        <ele>212.4</ele>
        <time>2022-08-13T08:21:02Z</time>
      </trkpt>
      <trkpt lat="44.70778" lon="1.24066">
        <ele>211.4</ele>
        <time>2022-08-13T08:21:03Z</time>
      </trkpt>
      <trkpt lat="44.70778" lon="1.24074">
        <ele>211.4</ele>
        <time>2022-08-13T08:21:04Z</time>
      </trkpt>
      <trkpt lat="44.70779" lon="1.2408">
        <ele>210.4</ele>
        <time>2022-08-13T08:21:05Z</time>
      </trkpt>
      <trkpt lat="44.70779" lon="1.24087">
        <ele>210.4</ele>
        <time>2022-08-13T08:21:06Z</time>
      </trkpt>
      <trkpt lat="44.7078" lon="1.24095">
        <ele>209.4</ele>
        <time>2022-08-13T08:21:07Z</time>
      </trkpt>
      <trkpt lat="44.70781" lon="1.24105">
        <ele>209.4</ele>
        <time>2022-08-13T08:21:08Z</time>
      </trkpt>
      <trkpt lat="44.70782" lon="1.24114">
        <ele>208.4</ele>
        <time>2022-08-13T08:21:09Z</time>
      </trkpt>
      <trkpt lat="44.70783" lon="1.24122">
        <ele>208.4</ele>
        <time>2022-08-13T08:21:10Z</time>
      </trkpt>
      <trkpt lat="44.70783" lon="1.24131">
        <ele>208.4</ele>
        <time>2022-08-13T08:21:11Z</time>
      </trkpt>
      <trkpt lat="44.70783" lon="1.24139">
        <ele>208.4</ele>
        <time>2022-08-13T08:21:12Z</time>
      </trkpt>
      <trkpt lat="44.70783" lon="1.24145">
        <ele>208.4</ele>
        <time>2022-08-13T08:21:13Z</time>
      </trkpt>
      <trkpt lat="44.70781" lon="1.24155">
        <ele>207.4</ele>
        <time>2022-08-13T08:21:15Z</time>
      </trkpt>
      <trkpt lat="44.70777" lon="1.24162">
        <ele>206.4</ele>
        <time>2022-08-13T08:21:17Z</time>
      </trkpt>
      <trkpt lat="44.70771" lon="1.24171">
        <ele>205.4</ele>
        <time>2022-08-13T08:21:19Z</time>
      </trkpt>
      <trkpt lat="44.70769" lon="1.24177">
        <ele>204.4</ele>
        <time>2022-08-13T08:21:20Z</time>
      </trkpt>
      <trkpt lat="44.70768" lon="1.24186">
        <ele>205.4</ele>
        <time>2022-08-13T08:21:21Z</time>
      </trkpt>
      <trkpt lat="44.70766" lon="1.24195">
        <ele>204.4</ele>
        <time>2022-08-13T08:21:22Z</time>
      </trkpt>
      <trkpt lat="44.70765" lon="1.24204">
        <ele>203.4</ele>
        <time>2022-08-13T08:21:23Z</time>
      </trkpt>
      <trkpt lat="44.70764" lon="1.24213">
        <ele>202.4</ele>
        <time>2022-08-13T08:21:24Z</time>
      </trkpt>
      <trkpt lat="44.70763" lon="1.24222">
        <ele>202.4</ele>
        <time>2022-08-13T08:21:25Z</time>
      </trkpt>
      <trkpt lat="44.70762" lon="1.24232">
        <ele>201.4</ele>
        <time>2022-08-13T08:21:26Z</time>
      </trkpt>
      <trkpt lat="44.70762" lon="1.24241">
        <ele>201.4</ele>
        <time>2022-08-13T08:21:27Z</time>
      </trkpt>
      <trkpt lat="44.70762" lon="1.24251">
        <ele>200.4</ele>
        <time>2022-08-13T08:21:28Z</time>
      </trkpt>
      <trkpt lat="44.70761" lon="1.2426">
        <ele>200.4</ele>
        <time>2022-08-13T08:21:29Z</time>
      </trkpt>
      <trkpt lat="44.70761" lon="1.24269">
        <ele>199.4</ele>
        <time>2022-08-13T08:21:30Z</time>
      </trkpt>
      <trkpt lat="44.70761" lon="1.24278">
        <ele>199.4</ele>
        <time>2022-08-13T08:21:31Z</time>
      </trkpt>
      <trkpt lat="44.7076" lon="1.24288">
        <ele>199.4</ele>
        <time>2022-08-13T08:21:32Z</time>
      </trkpt>
      <trkpt lat="44.70759" lon="1.24297">
        <ele>198.4</ele>
        <time>2022-08-13T08:21:33Z</time>
      </trkpt>
      <trkpt lat="44.70758" lon="1.24306">
        <ele>198.4</ele>
        <time>2022-08-13T08:21:34Z</time>
      </trkpt>
      <trkpt lat="44.70757" lon="1.24317">
        <ele>197.4</ele>
        <time>2022-08-13T08:21:35Z</time>
      </trkpt>
      <trkpt lat="44.70756" lon="1.24327">
        <ele>196.4</ele>
        <time>2022-08-13T08:21:36Z</time>
      </trkpt>
      <trkpt lat="44.70755" lon="1.24335">
        <ele>195.4</ele>
        <time>2022-08-13T08:21:37Z</time>
      </trkpt>
      <trkpt lat="44.70754" lon="1.24345">
        <ele>195.4</ele>
        <time>2022-08-13T08:21:38Z</time>
      </trkpt>
      <trkpt lat="44.70751" lon="1.24355">
        <ele>195.4</ele>
        <time>2022-08-13T08:21:39Z</time>
      </trkpt>
      <trkpt lat="44.70748" lon="1.24363">
        <ele>195.4</ele>
        <time>2022-08-13T08:21:40Z</time>
      </trkpt>
      <trkpt lat="44.70746" lon="1.24372">
        <ele>195.4</ele>
        <time>2022-08-13T08:21:41Z</time>
      </trkpt>
      <trkpt lat="44.70744" lon="1.24381">
        <ele>195.4</ele>
        <time>2022-08-13T08:21:42Z</time>
      </trkpt>
      <trkpt lat="44.70741" lon="1.2439">
        <ele>194.4</ele>
        <time>2022-08-13T08:21:43Z</time>
      </trkpt>
      <trkpt lat="44.70737" lon="1.244">
        <ele>194.4</ele>
        <time>2022-08-13T08:21:44Z</time>
      </trkpt>
      <trkpt lat="44.70735" lon="1.24409">
        <ele>193.4</ele>
        <time>2022-08-13T08:21:45Z</time>
      </trkpt>
      <trkpt lat="44.70733" lon="1.24418">
        <ele>193.4</ele>
        <time>2022-08-13T08:21:46Z</time>
      </trkpt>
      <trkpt lat="44.70731" lon="1.24429">
        <ele>193.4</ele>
        <time>2022-08-13T08:21:47Z</time>
      </trkpt>
      <trkpt lat="44.70729" lon="1.24439">
        <ele>192.4</ele>
        <time>2022-08-13T08:21:48Z</time>
      </trkpt>
      <trkpt lat="44.70728" lon="1.24449">
        <ele>191.4</ele>
        <time>2022-08-13T08:21:49Z</time>
      </trkpt>
      <trkpt lat="44.70727" lon="1.24459">
        <ele>191.4</ele>
        <time>2022-08-13T08:21:50Z</time>
      </trkpt>
      <trkpt lat="44.70725" lon="1.24468">
        <ele>191.4</ele>
        <time>2022-08-13T08:21:51Z</time>
      </trkpt>
      <trkpt lat="44.70724" lon="1.24478">
        <ele>191.4</ele>
        <time>2022-08-13T08:21:52Z</time>
      </trkpt>
      <trkpt lat="44.70722" lon="1.24488">
        <ele>191.4</ele>
        <time>2022-08-13T08:21:53Z</time>
      </trkpt>
      <trkpt lat="44.70721" lon="1.24498">
        <ele>190.4</ele>
        <time>2022-08-13T08:21:54Z</time>
      </trkpt>
      <trkpt lat="44.7072" lon="1.24507">
        <ele>190.4</ele>
        <time>2022-08-13T08:21:55Z</time>
      </trkpt>
      <trkpt lat="44.70719" lon="1.24517">
        <ele>188.4</ele>
        <time>2022-08-13T08:21:56Z</time>
      </trkpt>
      <trkpt lat="44.70718" lon="1.24526">
        <ele>188.4</ele>
        <time>2022-08-13T08:21:57Z</time>
      </trkpt>
      <trkpt lat="44.70716" lon="1.24536">
        <ele>188.4</ele>
        <time>2022-08-13T08:21:58Z</time>
      </trkpt>
      <trkpt lat="44.70715" lon="1.24546">
        <ele>188.4</ele>
        <time>2022-08-13T08:21:59Z</time>
      </trkpt>
      <trkpt lat="44.70711" lon="1.24554">
        <ele>188.4</ele>
        <time>2022-08-13T08:22:00Z</time>
      </trkpt>
      <trkpt lat="44.70707" lon="1.24562">
        <ele>188.4</ele>
        <time>2022-08-13T08:22:01Z</time>
      </trkpt>
      <trkpt lat="44.70699" lon="1.24571">
        <ele>189.4</ele>
        <time>2022-08-13T08:22:02Z</time>
      </trkpt>
      <trkpt lat="44.70691" lon="1.24579">
        <ele>189.4</ele>
        <time>2022-08-13T08:22:03Z</time>
      </trkpt>
      <trkpt lat="44.70684" lon="1.24586">
        <ele>189.4</ele>
        <time>2022-08-13T08:22:04Z</time>
      </trkpt>
      <trkpt lat="44.70677" lon="1.24593">
        <ele>189.4</ele>
        <time>2022-08-13T08:22:05Z</time>
      </trkpt>
      <trkpt lat="44.70673" lon="1.24598">
        <ele>189.4</ele>
        <time>2022-08-13T08:22:06Z</time>
      </trkpt>
      <trkpt lat="44.70669" lon="1.24605">
        <ele>188.4</ele>
        <time>2022-08-13T08:22:08Z</time>
      </trkpt>
      <trkpt lat="44.70665" lon="1.24608">
        <ele>187.4</ele>
        <time>2022-08-13T08:22:28Z</time>
      </trkpt>
      <trkpt lat="44.7066" lon="1.2461">
        <ele>186.4</ele>
        <time>2022-08-13T08:22:30Z</time>
      </trkpt>
      <trkpt lat="44.70652" lon="1.24612">
        <ele>184.4</ele>
        <time>2022-08-13T08:22:33Z</time>
      </trkpt>
      <trkpt lat="44.70645" lon="1.24612">
        <ele>183.4</ele>
        <time>2022-08-13T08:22:35Z</time>
      </trkpt>
      <trkpt lat="44.70639" lon="1.24609">
        <ele>182.4</ele>
        <time>2022-08-13T08:22:37Z</time>
      </trkpt>
      <trkpt lat="44.70633" lon="1.24605">
        <ele>182.4</ele>
        <time>2022-08-13T08:22:39Z</time>
      </trkpt>
      <trkpt lat="44.70627" lon="1.246">
        <ele>182.4</ele>
        <time>2022-08-13T08:22:41Z</time>
      </trkpt>
      <trkpt lat="44.70621" lon="1.24593">
        <ele>183.4</ele>
        <time>2022-08-13T08:22:43Z</time>
      </trkpt>
      <trkpt lat="44.70615" lon="1.24586">
        <ele>183.4</ele>
        <time>2022-08-13T08:22:45Z</time>
      </trkpt>
      <trkpt lat="44.70608" lon="1.2458">
        <ele>182.4</ele>
        <time>2022-08-13T08:22:47Z</time>
      </trkpt>
      <trkpt lat="44.70602" lon="1.24572">
        <ele>182.4</ele>
        <time>2022-08-13T08:22:49Z</time>
      </trkpt>
      <trkpt lat="44.70596" lon="1.24565">
        <ele>182.4</ele>
        <time>2022-08-13T08:22:51Z</time>
      </trkpt>
      <trkpt lat="44.70592" lon="1.24561">
        <ele>182.4</ele>
        <time>2022-08-13T08:22:52Z</time>
      </trkpt>
      <trkpt lat="44.70589" lon="1.24556">
        <ele>183.4</ele>
        <time>2022-08-13T08:22:53Z</time>
      </trkpt>
      <trkpt lat="44.70583" lon="1.2455">
        <ele>183.4</ele>
        <time>2022-08-13T08:22:55Z</time>
      </trkpt>
      <trkpt lat="44.70576" lon="1.24543">
        <ele>183.4</ele>
        <time>2022-08-13T08:22:57Z</time>
      </trkpt>
      <trkpt lat="44.70572" lon="1.2454">
        <ele>183.4</ele>
        <time>2022-08-13T08:22:58Z</time>
      </trkpt>
      <trkpt lat="44.70566" lon="1.24533">
        <ele>184.4</ele>
        <time>2022-08-13T08:23:00Z</time>
      </trkpt>
      <trkpt lat="44.70561" lon="1.24526">
        <ele>184.4</ele>
        <time>2022-08-13T08:23:02Z</time>
      </trkpt>
      <trkpt lat="44.70556" lon="1.24519">
        <ele>184.4</ele>
        <time>2022-08-13T08:23:04Z</time>
      </trkpt>
      <trkpt lat="44.70552" lon="1.24513">
        <ele>184.4</ele>
        <time>2022-08-13T08:23:06Z</time>
      </trkpt>
      <trkpt lat="44.70547" lon="1.24505">
        <ele>184.4</ele>
        <time>2022-08-13T08:23:08Z</time>
      </trkpt>
      <trkpt lat="44.70542" lon="1.24498">
        <ele>184.4</ele>
        <time>2022-08-13T08:23:10Z</time>
      </trkpt>
      <trkpt lat="44.70539" lon="1.24491">
        <ele>184.4</ele>
        <time>2022-08-13T08:23:12Z</time>
      </trkpt>
      <trkpt lat="44.70535" lon="1.24486">
        <ele>183.4</ele>
        <time>2022-08-13T08:23:14Z</time>
      </trkpt>
      <trkpt lat="44.7053" lon="1.24481">
        <ele>183.4</ele>
        <time>2022-08-13T08:23:16Z</time>
      </trkpt>
      <trkpt lat="44.70526" lon="1.24474">
        <ele>183.4</ele>
        <time>2022-08-13T08:23:18Z</time>
      </trkpt>
      <trkpt lat="44.70523" lon="1.24467">
        <ele>183.4</ele>
        <time>2022-08-13T08:23:20Z</time>
      </trkpt>
      <trkpt lat="44.7052" lon="1.24461">
        <ele>183.4</ele>
        <time>2022-08-13T08:23:22Z</time>
      </trkpt>
      <trkpt lat="44.70516" lon="1.24455">
        <ele>183.4</ele>
        <time>2022-08-13T08:23:24Z</time>
      </trkpt>
      <trkpt lat="44.70512" lon="1.24451">
        <ele>183.4</ele>
        <time>2022-08-13T08:23:26Z</time>
      </trkpt>
      <trkpt lat="44.70508" lon="1.24443">
        <ele>183.4</ele>
        <time>2022-08-13T08:23:29Z</time>
      </trkpt>
      <trkpt lat="44.70504" lon="1.2444">
        <ele>183.4</ele>
        <time>2022-08-13T08:23:31Z</time>
      </trkpt>
      <trkpt lat="44.705" lon="1.24434">
        <ele>183.4</ele>
        <time>2022-08-13T08:23:33Z</time>
      </trkpt>
      <trkpt lat="44.70496" lon="1.24429">
        <ele>184.4</ele>
        <time>2022-08-13T08:23:35Z</time>
      </trkpt>
      <trkpt lat="44.70491" lon="1.24425">
        <ele>184.4</ele>
        <time>2022-08-13T08:23:37Z</time>
      </trkpt>
      <trkpt lat="44.70486" lon="1.24422">
        <ele>184.4</ele>
        <time>2022-08-13T08:23:39Z</time>
      </trkpt>
      <trkpt lat="44.70481" lon="1.24417">
        <ele>184.4</ele>
        <time>2022-08-13T08:23:41Z</time>
      </trkpt>
      <trkpt lat="44.70476" lon="1.24412">
        <ele>185.4</ele>
        <time>2022-08-13T08:23:43Z</time>
      </trkpt>
      <trkpt lat="44.7047" lon="1.24407">
        <ele>185.4</ele>
        <time>2022-08-13T08:23:45Z</time>
      </trkpt>
      <trkpt lat="44.70465" lon="1.24402">
        <ele>185.4</ele>
        <time>2022-08-13T08:23:47Z</time>
      </trkpt>
      <trkpt lat="44.70461" lon="1.24399">
        <ele>186.4</ele>
        <time>2022-08-13T08:23:49Z</time>
      </trkpt>
      <trkpt lat="44.70457" lon="1.24394">
        <ele>186.4</ele>
        <time>2022-08-13T08:23:51Z</time>
      </trkpt>
      <trkpt lat="44.70453" lon="1.24391">
        <ele>187.4</ele>
        <time>2022-08-13T08:23:53Z</time>
      </trkpt>
      <trkpt lat="44.70447" lon="1.24387">
        <ele>187.4</ele>
        <time>2022-08-13T08:23:56Z</time>
      </trkpt>
      <trkpt lat="44.70441" lon="1.24384">
        <ele>187.4</ele>
        <time>2022-08-13T08:23:58Z</time>
      </trkpt>
      <trkpt lat="44.70436" lon="1.24381">
        <ele>188.4</ele>
        <time>2022-08-13T08:24:00Z</time>
      </trkpt>
      <trkpt lat="44.70431" lon="1.24376">
        <ele>189.4</ele>
        <time>2022-08-13T08:24:02Z</time>
      </trkpt>
      <trkpt lat="44.70427" lon="1.2437">
        <ele>189.4</ele>
        <time>2022-08-13T08:24:04Z</time>
      </trkpt>
      <trkpt lat="44.70422" lon="1.24367">
        <ele>189.4</ele>
        <time>2022-08-13T08:24:06Z</time>
      </trkpt>
      <trkpt lat="44.70417" lon="1.24364">
        <ele>190.4</ele>
        <time>2022-08-13T08:24:08Z</time>
      </trkpt>
      <trkpt lat="44.70411" lon="1.24359">
        <ele>192.4</ele>
        <time>2022-08-13T08:24:10Z</time>
      </trkpt>
      <trkpt lat="44.70407" lon="1.24354">
        <ele>193.4</ele>
        <time>2022-08-13T08:24:12Z</time>
      </trkpt>
      <trkpt lat="44.70403" lon="1.24349">
        <ele>193.4</ele>
        <time>2022-08-13T08:24:14Z</time>
      </trkpt>
      <trkpt lat="44.70399" lon="1.24344">
        <ele>195.4</ele>
        <time>2022-08-13T08:24:16Z</time>
      </trkpt>
      <trkpt lat="44.70394" lon="1.24339">
        <ele>197.4</ele>
        <time>2022-08-13T08:24:18Z</time>
      </trkpt>
      <trkpt lat="44.7039" lon="1.24334">
        <ele>197.4</ele>
        <time>2022-08-13T08:24:21Z</time>
      </trkpt>
      <trkpt lat="44.70385" lon="1.24332">
        <ele>202.4</ele>
        <time>2022-08-13T08:25:14Z</time>
      </trkpt>
      <trkpt lat="44.7038" lon="1.24331">
        <ele>203.4</ele>
        <time>2022-08-13T08:25:16Z</time>
      </trkpt>
      <trkpt lat="44.70375" lon="1.24327">
        <ele>203.4</ele>
        <time>2022-08-13T08:25:19Z</time>
      </trkpt>
      <trkpt lat="44.70372" lon="1.24322">
        <ele>204.4</ele>
        <time>2022-08-13T08:25:21Z</time>
      </trkpt>
      <trkpt lat="44.70367" lon="1.24319">
        <ele>203.4</ele>
        <time>2022-08-13T08:25:23Z</time>
      </trkpt>
      <trkpt lat="44.70361" lon="1.24316">
        <ele>204.4</ele>
        <time>2022-08-13T08:25:26Z</time>
      </trkpt>
      <trkpt lat="44.70356" lon="1.24315">
        <ele>205.4</ele>
        <time>2022-08-13T08:25:29Z</time>
      </trkpt>
      <trkpt lat="44.70349" lon="1.24312">
        <ele>205.4</ele>
        <time>2022-08-13T08:25:32Z</time>
      </trkpt>
      <trkpt lat="44.70345" lon="1.24308">
        <ele>204.4</ele>
        <time>2022-08-13T08:25:34Z</time>
      </trkpt>
      <trkpt lat="44.7034" lon="1.24304">
        <ele>205.4</ele>
        <time>2022-08-13T08:25:37Z</time>
      </trkpt>
      <trkpt lat="44.70335" lon="1.24297">
        <ele>207.4</ele>
        <time>2022-08-13T08:25:40Z</time>
      </trkpt>
      <trkpt lat="44.7033" lon="1.24292">
        <ele>207.4</ele>
        <time>2022-08-13T08:25:43Z</time>
      </trkpt>
      <trkpt lat="44.70326" lon="1.24288">
        <ele>208.4</ele>
        <time>2022-08-13T08:25:45Z</time>
      </trkpt>
      <trkpt lat="44.70321" lon="1.24282">
        <ele>209.4</ele>
        <time>2022-08-13T08:25:48Z</time>
      </trkpt>
      <trkpt lat="44.70316" lon="1.24278">
        <ele>209.4</ele>
        <time>2022-08-13T08:25:51Z</time>
      </trkpt>
      <trkpt lat="44.7031" lon="1.24274">
        <ele>209.4</ele>
        <time>2022-08-13T08:25:54Z</time>
      </trkpt>
      <trkpt lat="44.70305" lon="1.24271">
        <ele>209.4</ele>
        <time>2022-08-13T08:25:57Z</time>
      </trkpt>
      <trkpt lat="44.703" lon="1.24268">
        <ele>209.4</ele>
        <time>2022-08-13T08:26:00Z</time>
      </trkpt>
      <trkpt lat="44.70296" lon="1.24265">
        <ele>210.4</ele>
        <time>2022-08-13T08:26:05Z</time>
      </trkpt>
      <trkpt lat="44.70291" lon="1.24263">
        <ele>211.4</ele>
        <time>2022-08-13T08:26:08Z</time>
      </trkpt>
      <trkpt lat="44.70286" lon="1.24261">
        <ele>211.4</ele>
        <time>2022-08-13T08:26:11Z</time>
      </trkpt>
      <trkpt lat="44.7028" lon="1.24259">
        <ele>212.4</ele>
        <time>2022-08-13T08:26:15Z</time>
      </trkpt>
      <trkpt lat="44.70275" lon="1.24257">
        <ele>212.4</ele>
        <time>2022-08-13T08:26:18Z</time>
      </trkpt>
      <trkpt lat="44.7027" lon="1.24255">
        <ele>211.4</ele>
        <time>2022-08-13T08:26:21Z</time>
      </trkpt>
      <trkpt lat="44.70266" lon="1.24253">
        <ele>211.4</ele>
        <time>2022-08-13T08:26:23Z</time>
      </trkpt>
      <trkpt lat="44.7026" lon="1.2425">
        <ele>210.4</ele>
        <time>2022-08-13T08:26:27Z</time>
      </trkpt>
      <trkpt lat="44.70256" lon="1.24248">
        <ele>210.4</ele>
        <time>2022-08-13T08:26:29Z</time>
      </trkpt>
      <trkpt lat="44.70249" lon="1.24247">
        <ele>211.4</ele>
        <time>2022-08-13T08:26:33Z</time>
      </trkpt>
      <trkpt lat="44.70245" lon="1.24245">
        <ele>211.4</ele>
        <time>2022-08-13T08:26:35Z</time>
      </trkpt>
      <trkpt lat="44.70237" lon="1.24243">
        <ele>212.4</ele>
        <time>2022-08-13T08:26:40Z</time>
      </trkpt>
      <trkpt lat="44.70232" lon="1.24241">
        <ele>211.4</ele>
        <time>2022-08-13T08:26:42Z</time>
      </trkpt>
      <trkpt lat="44.70227" lon="1.24239">
        <ele>210.4</ele>
        <time>2022-08-13T08:26:44Z</time>
      </trkpt>
      <trkpt lat="44.70221" lon="1.24238">
        <ele>211.4</ele>
        <time>2022-08-13T08:26:48Z</time>
      </trkpt>
      <trkpt lat="44.70216" lon="1.24236">
        <ele>211.4</ele>
        <time>2022-08-13T08:26:50Z</time>
      </trkpt>
      <trkpt lat="44.70209" lon="1.24234">
        <ele>212.4</ele>
        <time>2022-08-13T08:26:54Z</time>
      </trkpt>
      <trkpt lat="44.70204" lon="1.24233">
        <ele>212.4</ele>
        <time>2022-08-13T08:26:56Z</time>
      </trkpt>
      <trkpt lat="44.70199" lon="1.24233">
        <ele>212.4</ele>
        <time>2022-08-13T08:26:58Z</time>
      </trkpt>
      <trkpt lat="44.70194" lon="1.24232">
        <ele>211.4</ele>
        <time>2022-08-13T08:27:00Z</time>
      </trkpt>
      <trkpt lat="44.70188" lon="1.2423">
        <ele>212.4</ele>
        <time>2022-08-13T08:27:03Z</time>
      </trkpt>
      <trkpt lat="44.70182" lon="1.24228">
        <ele>212.4</ele>
        <time>2022-08-13T08:27:06Z</time>
      </trkpt>
      <trkpt lat="44.70176" lon="1.24227">
        <ele>213.4</ele>
        <time>2022-08-13T08:27:09Z</time>
      </trkpt>
      <trkpt lat="44.7017" lon="1.24227">
        <ele>213.4</ele>
        <time>2022-08-13T08:27:12Z</time>
      </trkpt>
      <trkpt lat="44.70164" lon="1.24226">
        <ele>214.4</ele>
        <time>2022-08-13T08:27:15Z</time>
      </trkpt>
      <trkpt lat="44.70159" lon="1.24225">
        <ele>215.4</ele>
        <time>2022-08-13T08:27:18Z</time>
      </trkpt>
      <trkpt lat="44.70154" lon="1.24223">
        <ele>216.4</ele>
        <time>2022-08-13T08:27:21Z</time>
      </trkpt>
      <trkpt lat="44.70149" lon="1.24222">
        <ele>215.4</ele>
        <time>2022-08-13T08:27:24Z</time>
      </trkpt>
      <trkpt lat="44.70143" lon="1.24222">
        <ele>217.4</ele>
        <time>2022-08-13T08:27:27Z</time>
      </trkpt>
      <trkpt lat="44.70139" lon="1.24223">
        <ele>219.4</ele>
        <time>2022-08-13T08:27:30Z</time>
      </trkpt>
      <trkpt lat="44.70133" lon="1.24225">
        <ele>221.4</ele>
        <time>2022-08-13T08:27:35Z</time>
      </trkpt>
      <trkpt lat="44.70128" lon="1.24226">
        <ele>222.4</ele>
        <time>2022-08-13T08:27:38Z</time>
      </trkpt>
      <trkpt lat="44.70122" lon="1.24226">
        <ele>222.4</ele>
        <time>2022-08-13T08:27:43Z</time>
      </trkpt>
      <trkpt lat="44.70115" lon="1.24229">
        <ele>221.4</ele>
        <time>2022-08-13T08:27:49Z</time>
      </trkpt>
      <trkpt lat="44.7011" lon="1.2423">
        <ele>222.4</ele>
        <time>2022-08-13T08:27:52Z</time>
      </trkpt>
      <trkpt lat="44.70104" lon="1.24231">
        <ele>224.4</ele>
        <time>2022-08-13T08:27:57Z</time>
      </trkpt>
      <trkpt lat="44.701" lon="1.24231">
        <ele>225.4</ele>
        <time>2022-08-13T08:28:00Z</time>
      </trkpt>
      <trkpt lat="44.70095" lon="1.24232">
        <ele>225.4</ele>
        <time>2022-08-13T08:28:03Z</time>
      </trkpt>
      <trkpt lat="44.70089" lon="1.24233">
        <ele>226.4</ele>
        <time>2022-08-13T08:28:07Z</time>
      </trkpt>
      <trkpt lat="44.70084" lon="1.24232">
        <ele>229.4</ele>
        <time>2022-08-13T08:28:11Z</time>
      </trkpt>
      <trkpt lat="44.70079" lon="1.2423">
        <ele>229.4</ele>
        <time>2022-08-13T08:28:16Z</time>
      </trkpt>
      <trkpt lat="44.70074" lon="1.24228">
        <ele>229.4</ele>
        <time>2022-08-13T08:28:20Z</time>
      </trkpt>
      <trkpt lat="44.70069" lon="1.24226">
        <ele>229.4</ele>
        <time>2022-08-13T08:28:26Z</time>
      </trkpt>
      <trkpt lat="44.70064" lon="1.24225">
        <ele>230.4</ele>
        <time>2022-08-13T08:28:30Z</time>
      </trkpt>
      <trkpt lat="44.70059" lon="1.24224">
        <ele>232.4</ele>
        <time>2022-08-13T08:28:34Z</time>
      </trkpt>
      <trkpt lat="44.70054" lon="1.24221">
        <ele>232.4</ele>
        <time>2022-08-13T08:28:37Z</time>
      </trkpt>
      <trkpt lat="44.7005" lon="1.24218">
        <ele>234.4</ele>
        <time>2022-08-13T08:28:40Z</time>
      </trkpt>
      <trkpt lat="44.70045" lon="1.24216">
        <ele>235.4</ele>
        <time>2022-08-13T08:28:44Z</time>
      </trkpt>
      <trkpt lat="44.70039" lon="1.24215">
        <ele>237.4</ele>
        <time>2022-08-13T08:28:48Z</time>
      </trkpt>
      <trkpt lat="44.70035" lon="1.24212">
        <ele>237.4</ele>
        <time>2022-08-13T08:28:52Z</time>
      </trkpt>
      <trkpt lat="44.7003" lon="1.24211">
        <ele>238.4</ele>
        <time>2022-08-13T08:28:56Z</time>
      </trkpt>
      <trkpt lat="44.70025" lon="1.24209">
        <ele>237.4</ele>
        <time>2022-08-13T08:28:59Z</time>
      </trkpt>
      <trkpt lat="44.70021" lon="1.24207">
        <ele>238.4</ele>
        <time>2022-08-13T08:29:03Z</time>
      </trkpt>
      <trkpt lat="44.70016" lon="1.24205">
        <ele>240.4</ele>
        <time>2022-08-13T08:29:08Z</time>
      </trkpt>
      <trkpt lat="44.70011" lon="1.24202">
        <ele>250.4</ele>
        <time>2022-08-13T08:29:47Z</time>
      </trkpt>
      <trkpt lat="44.70007" lon="1.24199">
        <ele>252.4</ele>
        <time>2022-08-13T08:29:53Z</time>
      </trkpt>
      <trkpt lat="44.70003" lon="1.24194">
        <ele>254.4</ele>
        <time>2022-08-13T08:30:04Z</time>
      </trkpt>
      <trkpt lat="44.69998" lon="1.24189">
        <ele>256.4</ele>
        <time>2022-08-13T08:30:10Z</time>
      </trkpt>
      <trkpt lat="44.69993" lon="1.24186">
        <ele>258.4</ele>
        <time>2022-08-13T08:30:16Z</time>
      </trkpt>
      <trkpt lat="44.69989" lon="1.24182">
        <ele>260.4</ele>
        <time>2022-08-13T08:30:24Z</time>
      </trkpt>
      <trkpt lat="44.69988" lon="1.24175">
        <ele>260.4</ele>
        <time>2022-08-13T08:30:31Z</time>
      </trkpt>
      <trkpt lat="44.69987" lon="1.24168">
        <ele>259.4</ele>
        <time>2022-08-13T08:30:36Z</time>
      </trkpt>
      <trkpt lat="44.69984" lon="1.24161">
        <ele>260.4</ele>
        <time>2022-08-13T08:30:41Z</time>
      </trkpt>
      <trkpt lat="44.69981" lon="1.24154">
        <ele>263.4</ele>
        <time>2022-08-13T08:30:46Z</time>
      </trkpt>
      <trkpt lat="44.6998" lon="1.24148">
        <ele>263.4</ele>
        <time>2022-08-13T08:30:52Z</time>
      </trkpt>
      <trkpt lat="44.69977" lon="1.24142">
        <ele>263.4</ele>
        <time>2022-08-13T08:30:57Z</time>
      </trkpt>
      <trkpt lat="44.69975" lon="1.24136">
        <ele>266.4</ele>
        <time>2022-08-13T08:31:36Z</time>
      </trkpt>
      <trkpt lat="44.69973" lon="1.2413">
        <ele>266.4</ele>
        <time>2022-08-13T08:32:16Z</time>
      </trkpt>
      <trkpt lat="44.69971" lon="1.24122">
        <ele>263.4</ele>
        <time>2022-08-13T08:32:25Z</time>
      </trkpt>
      <trkpt lat="44.69969" lon="1.24115">
        <ele>262.4</ele>
        <time>2022-08-13T08:32:31Z</time>
      </trkpt>
      <trkpt lat="44.69967" lon="1.24106">
        <ele>262.4</ele>
        <time>2022-08-13T08:32:34Z</time>
      </trkpt>
      <trkpt lat="44.69966" lon="1.24098">
        <ele>262.4</ele>
        <time>2022-08-13T08:32:37Z</time>
      </trkpt>
      <trkpt lat="44.69964" lon="1.2409">
        <ele>262.4</ele>
        <time>2022-08-13T08:32:40Z</time>
      </trkpt>
      <trkpt lat="44.69963" lon="1.24083">
        <ele>262.4</ele>
        <time>2022-08-13T08:32:43Z</time>
      </trkpt>
      <trkpt lat="44.69961" lon="1.24076">
        <ele>261.4</ele>
        <time>2022-08-13T08:32:46Z</time>
      </trkpt>
      <trkpt lat="44.69961" lon="1.24069">
        <ele>260.4</ele>
        <time>2022-08-13T08:32:49Z</time>
      </trkpt>
      <trkpt lat="44.6996" lon="1.24062">
        <ele>261.4</ele>
        <time>2022-08-13T08:32:52Z</time>
      </trkpt>
      <trkpt lat="44.6996" lon="1.24054">
        <ele>263.4</ele>
        <time>2022-08-13T08:32:56Z</time>
      </trkpt>
      <trkpt lat="44.69961" lon="1.24047">
        <ele>262.4</ele>
        <time>2022-08-13T08:33:00Z</time>
      </trkpt>
      <trkpt lat="44.69963" lon="1.2404">
        <ele>262.4</ele>
        <time>2022-08-13T08:33:04Z</time>
      </trkpt>
      <trkpt lat="44.69965" lon="1.24034">
        <ele>264.4</ele>
        <time>2022-08-13T08:33:07Z</time>
      </trkpt>
      <trkpt lat="44.6997" lon="1.24026">
        <ele>264.4</ele>
        <time>2022-08-13T08:33:10Z</time>
      </trkpt>
      <trkpt lat="44.69974" lon="1.2402">
        <ele>264.4</ele>
        <time>2022-08-13T08:33:13Z</time>
      </trkpt>
      <trkpt lat="44.69977" lon="1.24014">
        <ele>264.4</ele>
        <time>2022-08-13T08:33:15Z</time>
      </trkpt>
      <trkpt lat="44.69981" lon="1.24008">
        <ele>264.4</ele>
        <time>2022-08-13T08:33:17Z</time>
      </trkpt>
      <trkpt lat="44.69983" lon="1.24003">
        <ele>263.4</ele>
        <time>2022-08-13T08:33:19Z</time>
      </trkpt>
      <trkpt lat="44.69986" lon="1.23997">
        <ele>263.4</ele>
        <time>2022-08-13T08:33:21Z</time>
      </trkpt>
      <trkpt lat="44.6999" lon="1.23991">
        <ele>263.4</ele>
        <time>2022-08-13T08:33:23Z</time>
      </trkpt>
      <trkpt lat="44.69994" lon="1.23984">
        <ele>264.4</ele>
        <time>2022-08-13T08:33:25Z</time>
      </trkpt>
      <trkpt lat="44.69997" lon="1.23979">
        <ele>263.4</ele>
        <time>2022-08-13T08:33:27Z</time>
      </trkpt>
      <trkpt lat="44.7" lon="1.23974">
        <ele>262.4</ele>
        <time>2022-08-13T08:33:29Z</time>
      </trkpt>
      <trkpt lat="44.70004" lon="1.23969">
        <ele>261.4</ele>
        <time>2022-08-13T08:33:31Z</time>
      </trkpt>
      <trkpt lat="44.70007" lon="1.23964">
        <ele>261.4</ele>
        <time>2022-08-13T08:33:33Z</time>
      </trkpt>
      <trkpt lat="44.7001" lon="1.23956">
        <ele>262.4</ele>
        <time>2022-08-13T08:33:36Z</time>
      </trkpt>
      <trkpt lat="44.70009" lon="1.23948">
        <ele>263.4</ele>
        <time>2022-08-13T08:33:39Z</time>
      </trkpt>
      <trkpt lat="44.70007" lon="1.23942">
        <ele>264.4</ele>
        <time>2022-08-13T08:33:41Z</time>
      </trkpt>
      <trkpt lat="44.70005" lon="1.23935">
        <ele>265.4</ele>
        <time>2022-08-13T08:33:43Z</time>
      </trkpt>
      <trkpt lat="44.70004" lon="1.23928">
        <ele>266.4</ele>
        <time>2022-08-13T08:33:45Z</time>
      </trkpt>
      <trkpt lat="44.70002" lon="1.23921">
        <ele>266.4</ele>
        <time>2022-08-13T08:33:47Z</time>
      </trkpt>
      <trkpt lat="44.7" lon="1.23915">
        <ele>268.4</ele>
        <time>2022-08-13T08:33:49Z</time>
      </trkpt>
      <trkpt lat="44.69997" lon="1.23907">
        <ele>269.4</ele>
        <time>2022-08-13T08:33:52Z</time>
      </trkpt>
      <trkpt lat="44.69994" lon="1.23902">
        <ele>269.4</ele>
        <time>2022-08-13T08:33:55Z</time>
      </trkpt>
      <trkpt lat="44.69989" lon="1.23905">
        <ele>267.4</ele>
        <time>2022-08-13T08:34:26Z</time>
      </trkpt>
      <trkpt lat="44.69985" lon="1.23903">
        <ele>268.4</ele>
        <time>2022-08-13T08:34:28Z</time>
      </trkpt>
      <trkpt lat="44.69979" lon="1.23902">
        <ele>268.4</ele>
        <time>2022-08-13T08:34:30Z</time>
      </trkpt>
      <trkpt lat="44.69973" lon="1.23901">
        <ele>268.4</ele>
        <time>2022-08-13T08:34:32Z</time>
      </trkpt>
      <trkpt lat="44.69967" lon="1.239">
        <ele>268.4</ele>
        <time>2022-08-13T08:34:34Z</time>
      </trkpt>
      <trkpt lat="44.69961" lon="1.239">
        <ele>267.4</ele>
        <time>2022-08-13T08:34:36Z</time>
      </trkpt>
      <trkpt lat="44.69955" lon="1.23901">
        <ele>267.4</ele>
        <time>2022-08-13T08:34:38Z</time>
      </trkpt>
      <trkpt lat="44.69949" lon="1.23904">
        <ele>266.4</ele>
        <time>2022-08-13T08:34:40Z</time>
      </trkpt>
      <trkpt lat="44.69944" lon="1.23908">
        <ele>266.4</ele>
        <time>2022-08-13T08:34:42Z</time>
      </trkpt>
      <trkpt lat="44.69938" lon="1.23913">
        <ele>267.4</ele>
        <time>2022-08-13T08:34:44Z</time>
      </trkpt>
      <trkpt lat="44.69932" lon="1.23919">
        <ele>267.4</ele>
        <time>2022-08-13T08:34:46Z</time>
      </trkpt>
      <trkpt lat="44.69928" lon="1.23927">
        <ele>267.4</ele>
        <time>2022-08-13T08:34:48Z</time>
      </trkpt>
      <trkpt lat="44.69924" lon="1.23933">
        <ele>267.4</ele>
        <time>2022-08-13T08:34:50Z</time>
      </trkpt>
      <trkpt lat="44.6992" lon="1.23939">
        <ele>266.4</ele>
        <time>2022-08-13T08:34:52Z</time>
      </trkpt>
      <trkpt lat="44.69917" lon="1.23944">
        <ele>265.4</ele>
        <time>2022-08-13T08:34:54Z</time>
      </trkpt>
      <trkpt lat="44.69915" lon="1.2395">
        <ele>265.4</ele>
        <time>2022-08-13T08:34:56Z</time>
      </trkpt>
      <trkpt lat="44.69911" lon="1.23953">
        <ele>266.4</ele>
        <time>2022-08-13T08:34:59Z</time>
      </trkpt>
      <trkpt lat="44.69906" lon="1.23951">
        <ele>267.4</ele>
        <time>2022-08-13T08:35:03Z</time>
      </trkpt>
      <trkpt lat="44.69903" lon="1.23957">
        <ele>267.4</ele>
        <time>2022-08-13T08:35:05Z</time>
      </trkpt>
      <trkpt lat="44.69901" lon="1.23963">
        <ele>269.4</ele>
        <time>2022-08-13T08:35:07Z</time>
      </trkpt>
      <trkpt lat="44.69896" lon="1.23969">
        <ele>271.4</ele>
        <time>2022-08-13T08:35:10Z</time>
      </trkpt>
      <trkpt lat="44.69893" lon="1.23976">
        <ele>273.4</ele>
        <time>2022-08-13T08:35:13Z</time>
      </trkpt>
      <trkpt lat="44.6989" lon="1.23982">
        <ele>272.4</ele>
        <time>2022-08-13T08:35:17Z</time>
      </trkpt>
      <trkpt lat="44.69894" lon="1.23986">
        <ele>273.4</ele>
        <time>2022-08-13T08:35:21Z</time>
      </trkpt>
      <trkpt lat="44.69899" lon="1.23992">
        <ele>272.4</ele>
        <time>2022-08-13T08:35:24Z</time>
      </trkpt>
      <trkpt lat="44.69902" lon="1.24">
        <ele>272.4</ele>
        <time>2022-08-13T08:35:27Z</time>
      </trkpt>
      <trkpt lat="44.69902" lon="1.24009">
        <ele>271.4</ele>
        <time>2022-08-13T08:35:30Z</time>
      </trkpt>
      <trkpt lat="44.69899" lon="1.24015">
        <ele>270.4</ele>
        <time>2022-08-13T08:35:34Z</time>
      </trkpt>
      <trkpt lat="44.69896" lon="1.24021">
        <ele>271.4</ele>
        <time>2022-08-13T08:35:37Z</time>
      </trkpt>
      <trkpt lat="44.69897" lon="1.24029">
        <ele>272.4</ele>
        <time>2022-08-13T08:35:40Z</time>
      </trkpt>
      <trkpt lat="44.699" lon="1.24036">
        <ele>272.4</ele>
        <time>2022-08-13T08:35:43Z</time>
      </trkpt>
      <trkpt lat="44.69903" lon="1.24041">
        <ele>272.4</ele>
        <time>2022-08-13T08:35:45Z</time>
      </trkpt>
      <trkpt lat="44.69907" lon="1.24046">
        <ele>272.4</ele>
        <time>2022-08-13T08:35:47Z</time>
      </trkpt>
      <trkpt lat="44.6991" lon="1.24051">
        <ele>270.4</ele>
        <time>2022-08-13T08:35:49Z</time>
      </trkpt>
      <trkpt lat="44.69909" lon="1.24061">
        <ele>270.4</ele>
        <time>2022-08-13T08:35:52Z</time>
      </trkpt>
      <trkpt lat="44.69908" lon="1.24069">
        <ele>264.4</ele>
        <time>2022-08-13T08:37:03Z</time>
      </trkpt>
      <trkpt lat="44.69904" lon="1.24077">
        <ele>265.4</ele>
        <time>2022-08-13T08:37:05Z</time>
      </trkpt>
      <trkpt lat="44.69899" lon="1.24084">
        <ele>267.4</ele>
        <time>2022-08-13T08:37:07Z</time>
      </trkpt>
      <trkpt lat="44.69894" lon="1.2409">
        <ele>268.4</ele>
        <time>2022-08-13T08:37:09Z</time>
      </trkpt>
      <trkpt lat="44.6989" lon="1.24094">
        <ele>269.4</ele>
        <time>2022-08-13T08:37:11Z</time>
      </trkpt>
      <trkpt lat="44.69887" lon="1.24099">
        <ele>270.4</ele>
        <time>2022-08-13T08:37:13Z</time>
      </trkpt>
      <trkpt lat="44.69883" lon="1.24105">
        <ele>270.4</ele>
        <time>2022-08-13T08:37:15Z</time>
      </trkpt>
      <trkpt lat="44.6988" lon="1.24111">
        <ele>271.4</ele>
        <time>2022-08-13T08:37:17Z</time>
      </trkpt>
      <trkpt lat="44.69877" lon="1.24117">
        <ele>271.4</ele>
        <time>2022-08-13T08:37:19Z</time>
      </trkpt>
      <trkpt lat="44.69874" lon="1.24123">
        <ele>271.4</ele>
        <time>2022-08-13T08:37:21Z</time>
      </trkpt>
      <trkpt lat="44.6987" lon="1.2413">
        <ele>272.4</ele>
        <time>2022-08-13T08:37:23Z</time>
      </trkpt>
      <trkpt lat="44.69866" lon="1.24136">
        <ele>273.4</ele>
        <time>2022-08-13T08:37:25Z</time>
      </trkpt>
      <trkpt lat="44.69862" lon="1.24142">
        <ele>274.4</ele>
        <time>2022-08-13T08:37:27Z</time>
      </trkpt>
      <trkpt lat="44.69859" lon="1.24149">
        <ele>274.4</ele>
        <time>2022-08-13T08:37:29Z</time>
      </trkpt>
      <trkpt lat="44.69857" lon="1.24157">
        <ele>275.4</ele>
        <time>2022-08-13T08:37:31Z</time>
      </trkpt>
      <trkpt lat="44.69855" lon="1.24163">
        <ele>275.4</ele>
        <time>2022-08-13T08:37:33Z</time>
      </trkpt>
      <trkpt lat="44.69853" lon="1.2417">
        <ele>275.4</ele>
        <time>2022-08-13T08:37:35Z</time>
      </trkpt>
      <trkpt lat="44.69851" lon="1.24178">
        <ele>275.4</ele>
        <time>2022-08-13T08:37:37Z</time>
      </trkpt>
      <trkpt lat="44.69848" lon="1.24185">
        <ele>275.4</ele>
        <time>2022-08-13T08:37:39Z</time>
      </trkpt>
      <trkpt lat="44.69845" lon="1.24192">
        <ele>275.4</ele>
        <time>2022-08-13T08:37:41Z</time>
      </trkpt>
      <trkpt lat="44.69843" lon="1.24199">
        <ele>275.4</ele>
        <time>2022-08-13T08:37:43Z</time>
      </trkpt>
      <trkpt lat="44.6984" lon="1.24208">
        <ele>276.4</ele>
        <time>2022-08-13T08:37:45Z</time>
      </trkpt>
      <trkpt lat="44.69838" lon="1.24215">
        <ele>277.4</ele>
        <time>2022-08-13T08:37:47Z</time>
      </trkpt>
      <trkpt lat="44.69836" lon="1.24223">
        <ele>277.4</ele>
        <time>2022-08-13T08:37:49Z</time>
      </trkpt>
      <trkpt lat="44.69833" lon="1.2423">
        <ele>278.4</ele>
        <time>2022-08-13T08:37:51Z</time>
      </trkpt>
      <trkpt lat="44.6983" lon="1.24239">
        <ele>278.4</ele>
        <time>2022-08-13T08:37:53Z</time>
      </trkpt>
      <trkpt lat="44.69829" lon="1.24249">
        <ele>277.4</ele>
        <time>2022-08-13T08:37:55Z</time>
      </trkpt>
      <trkpt lat="44.69827" lon="1.24257">
        <ele>277.4</ele>
        <time>2022-08-13T08:37:57Z</time>
      </trkpt>
      <trkpt lat="44.69825" lon="1.24266">
        <ele>278.4</ele>
        <time>2022-08-13T08:37:59Z</time>
      </trkpt>
      <trkpt lat="44.69824" lon="1.24276">
        <ele>278.4</ele>
        <time>2022-08-13T08:38:01Z</time>
      </trkpt>
      <trkpt lat="44.69822" lon="1.24287">
        <ele>278.4</ele>
        <time>2022-08-13T08:38:03Z</time>
      </trkpt>
      <trkpt lat="44.69822" lon="1.24294">
        <ele>278.4</ele>
        <time>2022-08-13T08:38:04Z</time>
      </trkpt>
      <trkpt lat="44.69822" lon="1.243">
        <ele>278.4</ele>
        <time>2022-08-13T08:38:05Z</time>
      </trkpt>
      <trkpt lat="44.69822" lon="1.24307">
        <ele>279.4</ele>
        <time>2022-08-13T08:38:06Z</time>
      </trkpt>
      <trkpt lat="44.69822" lon="1.24313">
        <ele>279.4</ele>
        <time>2022-08-13T08:38:07Z</time>
      </trkpt>
      <trkpt lat="44.69823" lon="1.24325">
        <ele>281.4</ele>
        <time>2022-08-13T08:38:09Z</time>
      </trkpt>
      <trkpt lat="44.69825" lon="1.24335">
        <ele>281.4</ele>
        <time>2022-08-13T08:38:11Z</time>
      </trkpt>
      <trkpt lat="44.69826" lon="1.24346">
        <ele>281.4</ele>
        <time>2022-08-13T08:38:13Z</time>
      </trkpt>
      <trkpt lat="44.69828" lon="1.24355">
        <ele>282.4</ele>
        <time>2022-08-13T08:38:15Z</time>
      </trkpt>
      <trkpt lat="44.69829" lon="1.24363">
        <ele>282.4</ele>
        <time>2022-08-13T08:38:17Z</time>
      </trkpt>
      <trkpt lat="44.6983" lon="1.24371">
        <ele>281.4</ele>
        <time>2022-08-13T08:38:19Z</time>
      </trkpt>
      <trkpt lat="44.6983" lon="1.24381">
        <ele>281.4</ele>
        <time>2022-08-13T08:38:21Z</time>
      </trkpt>
      <trkpt lat="44.69829" lon="1.24391">
        <ele>281.4</ele>
        <time>2022-08-13T08:38:23Z</time>
      </trkpt>
      <trkpt lat="44.69829" lon="1.244">
        <ele>281.4</ele>
        <time>2022-08-13T08:38:25Z</time>
      </trkpt>
      <trkpt lat="44.6983" lon="1.2441">
        <ele>280.4</ele>
        <time>2022-08-13T08:38:27Z</time>
      </trkpt>
      <trkpt lat="44.69832" lon="1.24422">
        <ele>280.4</ele>
        <time>2022-08-13T08:38:29Z</time>
      </trkpt>
      <trkpt lat="44.69834" lon="1.24432">
        <ele>280.4</ele>
        <time>2022-08-13T08:38:31Z</time>
      </trkpt>
      <trkpt lat="44.69836" lon="1.24443">
        <ele>280.4</ele>
        <time>2022-08-13T08:38:33Z</time>
      </trkpt>
      <trkpt lat="44.69838" lon="1.24453">
        <ele>280.4</ele>
        <time>2022-08-13T08:38:35Z</time>
      </trkpt>
      <trkpt lat="44.6984" lon="1.24465">
        <ele>281.4</ele>
        <time>2022-08-13T08:38:37Z</time>
      </trkpt>
      <trkpt lat="44.69842" lon="1.24472">
        <ele>282.4</ele>
        <time>2022-08-13T08:38:38Z</time>
      </trkpt>
      <trkpt lat="44.69844" lon="1.2448">
        <ele>282.4</ele>
        <time>2022-08-13T08:38:39Z</time>
      </trkpt>
      <trkpt lat="44.69846" lon="1.24487">
        <ele>281.4</ele>
        <time>2022-08-13T08:38:40Z</time>
      </trkpt>
      <trkpt lat="44.69848" lon="1.24495">
        <ele>281.4</ele>
        <time>2022-08-13T08:38:41Z</time>
      </trkpt>
      <trkpt lat="44.6985" lon="1.24502">
        <ele>282.4</ele>
        <time>2022-08-13T08:38:42Z</time>
      </trkpt>
      <trkpt lat="44.69852" lon="1.24509">
        <ele>281.4</ele>
        <time>2022-08-13T08:38:43Z</time>
      </trkpt>
      <trkpt lat="44.69854" lon="1.24516">
        <ele>281.4</ele>
        <time>2022-08-13T08:38:44Z</time>
      </trkpt>
      <trkpt lat="44.69856" lon="1.24523">
        <ele>281.4</ele>
        <time>2022-08-13T08:38:45Z</time>
      </trkpt>
      <trkpt lat="44.69858" lon="1.2453">
        <ele>281.4</ele>
        <time>2022-08-13T08:38:46Z</time>
      </trkpt>
      <trkpt lat="44.69861" lon="1.24537">
        <ele>281.4</ele>
        <time>2022-08-13T08:38:47Z</time>
      </trkpt>
      <trkpt lat="44.69863" lon="1.24544">
        <ele>281.4</ele>
        <time>2022-08-13T08:38:48Z</time>
      </trkpt>
      <trkpt lat="44.69866" lon="1.24551">
        <ele>280.4</ele>
        <time>2022-08-13T08:38:49Z</time>
      </trkpt>
      <trkpt lat="44.69868" lon="1.24558">
        <ele>279.4</ele>
        <time>2022-08-13T08:38:50Z</time>
      </trkpt>
      <trkpt lat="44.6987" lon="1.24564">
        <ele>279.4</ele>
        <time>2022-08-13T08:38:51Z</time>
      </trkpt>
      <trkpt lat="44.69874" lon="1.24578">
        <ele>279.4</ele>
        <time>2022-08-13T08:38:53Z</time>
      </trkpt>
      <trkpt lat="44.69876" lon="1.24585">
        <ele>279.4</ele>
        <time>2022-08-13T08:38:54Z</time>
      </trkpt>
      <trkpt lat="44.69878" lon="1.24592">
        <ele>279.4</ele>
        <time>2022-08-13T08:38:55Z</time>
      </trkpt>
      <trkpt lat="44.6988" lon="1.24599">
        <ele>280.4</ele>
        <time>2022-08-13T08:38:56Z</time>
      </trkpt>
      <trkpt lat="44.69881" lon="1.24609">
        <ele>280.4</ele>
        <time>2022-08-13T08:38:57Z</time>
      </trkpt>
      <trkpt lat="44.69883" lon="1.24619">
        <ele>280.4</ele>
        <time>2022-08-13T08:38:58Z</time>
      </trkpt>
      <trkpt lat="44.69885" lon="1.24628">
        <ele>280.4</ele>
        <time>2022-08-13T08:38:59Z</time>
      </trkpt>
      <trkpt lat="44.69888" lon="1.24637">
        <ele>279.4</ele>
        <time>2022-08-13T08:39:00Z</time>
      </trkpt>
      <trkpt lat="44.6989" lon="1.24646">
        <ele>279.4</ele>
        <time>2022-08-13T08:39:01Z</time>
      </trkpt>
      <trkpt lat="44.69893" lon="1.24655">
        <ele>278.4</ele>
        <time>2022-08-13T08:39:02Z</time>
      </trkpt>
      <trkpt lat="44.69895" lon="1.24665">
        <ele>278.4</ele>
        <time>2022-08-13T08:39:03Z</time>
      </trkpt>
      <trkpt lat="44.69896" lon="1.24675">
        <ele>277.4</ele>
        <time>2022-08-13T08:39:04Z</time>
      </trkpt>
      <trkpt lat="44.69897" lon="1.24686">
        <ele>277.4</ele>
        <time>2022-08-13T08:39:05Z</time>
      </trkpt>
      <trkpt lat="44.69898" lon="1.24698">
        <ele>277.4</ele>
        <time>2022-08-13T08:39:06Z</time>
      </trkpt>
      <trkpt lat="44.699" lon="1.24708">
        <ele>276.4</ele>
        <time>2022-08-13T08:39:07Z</time>
      </trkpt>
      <trkpt lat="44.69903" lon="1.24717">
        <ele>275.4</ele>
        <time>2022-08-13T08:39:08Z</time>
      </trkpt>
      <trkpt lat="44.69908" lon="1.24726">
        <ele>273.4</ele>
        <time>2022-08-13T08:39:09Z</time>
      </trkpt>
      <trkpt lat="44.69912" lon="1.24735">
        <ele>272.4</ele>
        <time>2022-08-13T08:39:10Z</time>
      </trkpt>
      <trkpt lat="44.69914" lon="1.24744">
        <ele>272.4</ele>
        <time>2022-08-13T08:39:11Z</time>
      </trkpt>
      <trkpt lat="44.69916" lon="1.24752">
        <ele>272.4</ele>
        <time>2022-08-13T08:39:13Z</time>
      </trkpt>
      <trkpt lat="44.69917" lon="1.24759">
        <ele>272.4</ele>
        <time>2022-08-13T08:39:16Z</time>
      </trkpt>
      <trkpt lat="44.69919" lon="1.24766">
        <ele>271.4</ele>
        <time>2022-08-13T08:39:18Z</time>
      </trkpt>
      <trkpt lat="44.6992" lon="1.24773">
        <ele>271.4</ele>
        <time>2022-08-13T08:39:20Z</time>
      </trkpt>
      <trkpt lat="44.69919" lon="1.2478">
        <ele>270.4</ele>
        <time>2022-08-13T08:39:22Z</time>
      </trkpt>
      <trkpt lat="44.69916" lon="1.24788">
        <ele>270.4</ele>
        <time>2022-08-13T08:39:25Z</time>
      </trkpt>
      <trkpt lat="44.69912" lon="1.24797">
        <ele>269.4</ele>
        <time>2022-08-13T08:39:27Z</time>
      </trkpt>
      <trkpt lat="44.6991" lon="1.24804">
        <ele>269.4</ele>
        <time>2022-08-13T08:39:28Z</time>
      </trkpt>
      <trkpt lat="44.69907" lon="1.24813">
        <ele>268.4</ele>
        <time>2022-08-13T08:39:29Z</time>
      </trkpt>
      <trkpt lat="44.69903" lon="1.24822">
        <ele>268.4</ele>
        <time>2022-08-13T08:39:30Z</time>
      </trkpt>
      <trkpt lat="44.699" lon="1.24832">
        <ele>267.4</ele>
        <time>2022-08-13T08:39:31Z</time>
      </trkpt>
      <trkpt lat="44.69898" lon="1.24844">
        <ele>267.4</ele>
        <time>2022-08-13T08:39:32Z</time>
      </trkpt>
      <trkpt lat="44.69896" lon="1.24856">
        <ele>266.4</ele>
        <time>2022-08-13T08:39:33Z</time>
      </trkpt>
      <trkpt lat="44.69895" lon="1.24869">
        <ele>266.4</ele>
        <time>2022-08-13T08:39:34Z</time>
      </trkpt>
      <trkpt lat="44.69893" lon="1.24881">
        <ele>265.4</ele>
        <time>2022-08-13T08:39:35Z</time>
      </trkpt>
      <trkpt lat="44.69891" lon="1.24894">
        <ele>264.4</ele>
        <time>2022-08-13T08:39:36Z</time>
      </trkpt>
      <trkpt lat="44.6989" lon="1.24908">
        <ele>264.4</ele>
        <time>2022-08-13T08:39:37Z</time>
      </trkpt>
      <trkpt lat="44.6989" lon="1.24922">
        <ele>264.4</ele>
        <time>2022-08-13T08:39:38Z</time>
      </trkpt>
      <trkpt lat="44.69891" lon="1.24935">
        <ele>263.4</ele>
        <time>2022-08-13T08:39:39Z</time>
      </trkpt>
      <trkpt lat="44.69893" lon="1.24947">
        <ele>262.4</ele>
        <time>2022-08-13T08:39:40Z</time>
      </trkpt>
      <trkpt lat="44.69895" lon="1.24959">
        <ele>261.4</ele>
        <time>2022-08-13T08:39:41Z</time>
      </trkpt>
      <trkpt lat="44.69899" lon="1.24971">
        <ele>259.4</ele>
        <time>2022-08-13T08:39:42Z</time>
      </trkpt>
      <trkpt lat="44.69904" lon="1.24983">
        <ele>259.4</ele>
        <time>2022-08-13T08:39:43Z</time>
      </trkpt>
      <trkpt lat="44.6991" lon="1.24995">
        <ele>259.4</ele>
        <time>2022-08-13T08:39:44Z</time>
      </trkpt>
      <trkpt lat="44.69917" lon="1.25006">
        <ele>258.4</ele>
        <time>2022-08-13T08:39:45Z</time>
      </trkpt>
      <trkpt lat="44.69923" lon="1.25015">
        <ele>258.4</ele>
        <time>2022-08-13T08:39:46Z</time>
      </trkpt>
      <trkpt lat="44.69929" lon="1.25025">
        <ele>257.4</ele>
        <time>2022-08-13T08:39:47Z</time>
      </trkpt>
      <trkpt lat="44.69935" lon="1.25034">
        <ele>256.4</ele>
        <time>2022-08-13T08:39:48Z</time>
      </trkpt>
      <trkpt lat="44.69941" lon="1.25042">
        <ele>256.4</ele>
        <time>2022-08-13T08:39:49Z</time>
      </trkpt>
      <trkpt lat="44.69947" lon="1.25051">
        <ele>255.4</ele>
        <time>2022-08-13T08:39:50Z</time>
      </trkpt>
      <trkpt lat="44.69953" lon="1.25058">
        <ele>255.4</ele>
        <time>2022-08-13T08:39:51Z</time>
      </trkpt>
      <trkpt lat="44.69958" lon="1.25068">
        <ele>257.4</ele>
        <time>2022-08-13T08:39:52Z</time>
      </trkpt>
      <trkpt lat="44.69963" lon="1.25077">
        <ele>258.4</ele>
        <time>2022-08-13T08:39:53Z</time>
      </trkpt>
      <trkpt lat="44.69969" lon="1.25086">
        <ele>258.4</ele>
        <time>2022-08-13T08:39:54Z</time>
      </trkpt>
      <trkpt lat="44.69975" lon="1.25095">
        <ele>258.4</ele>
        <time>2022-08-13T08:39:55Z</time>
      </trkpt>
      <trkpt lat="44.69979" lon="1.25103">
        <ele>258.4</ele>
        <time>2022-08-13T08:39:56Z</time>
      </trkpt>
      <trkpt lat="44.69984" lon="1.25112">
        <ele>259.4</ele>
        <time>2022-08-13T08:39:57Z</time>
      </trkpt>
      <trkpt lat="44.69988" lon="1.25121">
        <ele>259.4</ele>
        <time>2022-08-13T08:39:58Z</time>
      </trkpt>
      <trkpt lat="44.69993" lon="1.2513">
        <ele>259.4</ele>
        <time>2022-08-13T08:39:59Z</time>
      </trkpt>
      <trkpt lat="44.69997" lon="1.2514">
        <ele>259.4</ele>
        <time>2022-08-13T08:40:00Z</time>
      </trkpt>
      <trkpt lat="44.7" lon="1.25149">
        <ele>259.4</ele>
        <time>2022-08-13T08:40:01Z</time>
      </trkpt>
      <trkpt lat="44.70003" lon="1.25155">
        <ele>259.4</ele>
        <time>2022-08-13T08:40:02Z</time>
      </trkpt>
      <trkpt lat="44.70007" lon="1.25159">
        <ele>258.4</ele>
        <time>2022-08-13T08:40:26Z</time>
      </trkpt>
      <trkpt lat="44.70011" lon="1.25169">
        <ele>258.4</ele>
        <time>2022-08-13T08:40:28Z</time>
      </trkpt>
      <trkpt lat="44.70014" lon="1.25176">
        <ele>258.4</ele>
        <time>2022-08-13T08:40:29Z</time>
      </trkpt>
      <trkpt lat="44.70016" lon="1.25183">
        <ele>258.4</ele>
        <time>2022-08-13T08:40:30Z</time>
      </trkpt>
      <trkpt lat="44.70019" lon="1.2519">
        <ele>257.4</ele>
        <time>2022-08-13T08:40:31Z</time>
      </trkpt>
      <trkpt lat="44.70021" lon="1.25197">
        <ele>257.4</ele>
        <time>2022-08-13T08:40:32Z</time>
      </trkpt>
      <trkpt lat="44.70025" lon="1.25204">
        <ele>257.4</ele>
        <time>2022-08-13T08:40:33Z</time>
      </trkpt>
      <trkpt lat="44.70027" lon="1.25211">
        <ele>257.4</ele>
        <time>2022-08-13T08:40:34Z</time>
      </trkpt>
      <trkpt lat="44.70031" lon="1.25218">
        <ele>257.4</ele>
        <time>2022-08-13T08:40:35Z</time>
      </trkpt>
      <trkpt lat="44.70034" lon="1.25225">
        <ele>256.4</ele>
        <time>2022-08-13T08:40:36Z</time>
      </trkpt>
      <trkpt lat="44.70037" lon="1.25233">
        <ele>256.4</ele>
        <time>2022-08-13T08:40:37Z</time>
      </trkpt>
      <trkpt lat="44.7004" lon="1.25241">
        <ele>257.4</ele>
        <time>2022-08-13T08:40:38Z</time>
      </trkpt>
      <trkpt lat="44.70042" lon="1.25249">
        <ele>258.4</ele>
        <time>2022-08-13T08:40:39Z</time>
      </trkpt>
      <trkpt lat="44.70045" lon="1.25257">
        <ele>260.4</ele>
        <time>2022-08-13T08:40:40Z</time>
      </trkpt>
      <trkpt lat="44.70049" lon="1.25265">
        <ele>260.4</ele>
        <time>2022-08-13T08:40:41Z</time>
      </trkpt>
      <trkpt lat="44.70052" lon="1.25272">
        <ele>261.4</ele>
        <time>2022-08-13T08:40:42Z</time>
      </trkpt>
      <trkpt lat="44.70056" lon="1.25279">
        <ele>262.4</ele>
        <time>2022-08-13T08:40:43Z</time>
      </trkpt>
      <trkpt lat="44.70059" lon="1.25287">
        <ele>262.4</ele>
        <time>2022-08-13T08:40:44Z</time>
      </trkpt>
      <trkpt lat="44.70062" lon="1.25294">
        <ele>262.4</ele>
        <time>2022-08-13T08:40:45Z</time>
      </trkpt>
      <trkpt lat="44.70065" lon="1.25302">
        <ele>262.4</ele>
        <time>2022-08-13T08:40:46Z</time>
      </trkpt>
      <trkpt lat="44.70068" lon="1.2531">
        <ele>262.4</ele>
        <time>2022-08-13T08:40:47Z</time>
      </trkpt>
      <trkpt lat="44.7007" lon="1.25318">
        <ele>262.4</ele>
        <time>2022-08-13T08:40:48Z</time>
      </trkpt>
      <trkpt lat="44.70073" lon="1.25328">
        <ele>262.4</ele>
        <time>2022-08-13T08:40:49Z</time>
      </trkpt>
      <trkpt lat="44.70075" lon="1.25336">
        <ele>263.4</ele>
        <time>2022-08-13T08:40:50Z</time>
      </trkpt>
      <trkpt lat="44.70077" lon="1.25343">
        <ele>263.4</ele>
        <time>2022-08-13T08:40:51Z</time>
      </trkpt>
      <trkpt lat="44.70079" lon="1.25352">
        <ele>263.4</ele>
        <time>2022-08-13T08:40:52Z</time>
      </trkpt>
      <trkpt lat="44.70081" lon="1.2536">
        <ele>263.4</ele>
        <time>2022-08-13T08:40:53Z</time>
      </trkpt>
      <trkpt lat="44.70084" lon="1.25368">
        <ele>263.4</ele>
        <time>2022-08-13T08:40:54Z</time>
      </trkpt>
      <trkpt lat="44.70086" lon="1.25376">
        <ele>264.4</ele>
        <time>2022-08-13T08:40:55Z</time>
      </trkpt>
      <trkpt lat="44.70089" lon="1.25384">
        <ele>264.4</ele>
        <time>2022-08-13T08:40:56Z</time>
      </trkpt>
      <trkpt lat="44.70091" lon="1.25392">
        <ele>264.4</ele>
        <time>2022-08-13T08:40:57Z</time>
      </trkpt>
      <trkpt lat="44.70094" lon="1.254">
        <ele>264.4</ele>
        <time>2022-08-13T08:40:58Z</time>
      </trkpt>
      <trkpt lat="44.70097" lon="1.25408">
        <ele>265.4</ele>
        <time>2022-08-13T08:40:59Z</time>
      </trkpt>
      <trkpt lat="44.701" lon="1.25415">
        <ele>265.4</ele>
        <time>2022-08-13T08:41:00Z</time>
      </trkpt>
      <trkpt lat="44.70103" lon="1.25422">
        <ele>264.4</ele>
        <time>2022-08-13T08:41:01Z</time>
      </trkpt>
      <trkpt lat="44.70106" lon="1.25429">
        <ele>264.4</ele>
        <time>2022-08-13T08:41:02Z</time>
      </trkpt>
      <trkpt lat="44.70109" lon="1.25435">
        <ele>264.4</ele>
        <time>2022-08-13T08:41:03Z</time>
      </trkpt>
      <trkpt lat="44.70111" lon="1.25442">
        <ele>264.4</ele>
        <time>2022-08-13T08:41:04Z</time>
      </trkpt>
      <trkpt lat="44.70114" lon="1.25448">
        <ele>264.4</ele>
        <time>2022-08-13T08:41:05Z</time>
      </trkpt>
      <trkpt lat="44.70117" lon="1.25454">
        <ele>264.4</ele>
        <time>2022-08-13T08:41:06Z</time>
      </trkpt>
      <trkpt lat="44.7012" lon="1.2546">
        <ele>265.4</ele>
        <time>2022-08-13T08:41:07Z</time>
      </trkpt>
      <trkpt lat="44.70123" lon="1.25467">
        <ele>265.4</ele>
        <time>2022-08-13T08:41:08Z</time>
      </trkpt>
      <trkpt lat="44.70127" lon="1.25473">
        <ele>266.4</ele>
        <time>2022-08-13T08:41:09Z</time>
      </trkpt>
      <trkpt lat="44.70131" lon="1.25479">
        <ele>266.4</ele>
        <time>2022-08-13T08:41:10Z</time>
      </trkpt>
      <trkpt lat="44.70135" lon="1.25489">
        <ele>266.4</ele>
        <time>2022-08-13T08:41:12Z</time>
      </trkpt>
      <trkpt lat="44.70134" lon="1.25498">
        <ele>266.4</ele>
        <time>2022-08-13T08:41:14Z</time>
      </trkpt>
      <trkpt lat="44.70133" lon="1.25508">
        <ele>266.4</ele>
        <time>2022-08-13T08:41:16Z</time>
      </trkpt>
      <trkpt lat="44.70131" lon="1.25518">
        <ele>265.4</ele>
        <time>2022-08-13T08:41:18Z</time>
      </trkpt>
      <trkpt lat="44.7013" lon="1.25528">
        <ele>265.4</ele>
        <time>2022-08-13T08:41:20Z</time>
      </trkpt>
      <trkpt lat="44.70129" lon="1.25538">
        <ele>265.4</ele>
        <time>2022-08-13T08:41:22Z</time>
      </trkpt>
      <trkpt lat="44.70133" lon="1.25543">
        <ele>265.4</ele>
        <time>2022-08-13T08:41:24Z</time>
      </trkpt>
      <trkpt lat="44.7014" lon="1.25542">
        <ele>264.4</ele>
        <time>2022-08-13T08:41:26Z</time>
      </trkpt>
      <trkpt lat="44.70147" lon="1.25541">
        <ele>265.4</ele>
        <time>2022-08-13T08:41:28Z</time>
      </trkpt>
      <trkpt lat="44.70154" lon="1.25542">
        <ele>263.4</ele>
        <time>2022-08-13T08:41:30Z</time>
      </trkpt>
      <trkpt lat="44.70163" lon="1.25544">
        <ele>260.4</ele>
        <time>2022-08-13T08:41:32Z</time>
      </trkpt>
      <trkpt lat="44.70168" lon="1.25546">
        <ele>259.4</ele>
        <time>2022-08-13T08:41:33Z</time>
      </trkpt>
      <trkpt lat="44.70173" lon="1.2555">
        <ele>258.4</ele>
        <time>2022-08-13T08:41:34Z</time>
      </trkpt>
      <trkpt lat="44.70178" lon="1.25554">
        <ele>257.4</ele>
        <time>2022-08-13T08:41:35Z</time>
      </trkpt>
      <trkpt lat="44.70183" lon="1.2556">
        <ele>257.4</ele>
        <time>2022-08-13T08:41:36Z</time>
      </trkpt>
      <trkpt lat="44.70187" lon="1.25566">
        <ele>256.4</ele>
        <time>2022-08-13T08:41:37Z</time>
      </trkpt>
      <trkpt lat="44.70192" lon="1.25572">
        <ele>255.4</ele>
        <time>2022-08-13T08:41:38Z</time>
      </trkpt>
      <trkpt lat="44.70198" lon="1.25578">
        <ele>255.4</ele>
        <time>2022-08-13T08:41:39Z</time>
      </trkpt>
      <trkpt lat="44.70203" lon="1.25584">
        <ele>255.4</ele>
        <time>2022-08-13T08:41:40Z</time>
      </trkpt>
      <trkpt lat="44.70208" lon="1.2559">
        <ele>254.4</ele>
        <time>2022-08-13T08:41:41Z</time>
      </trkpt>
      <trkpt lat="44.70213" lon="1.25596">
        <ele>254.4</ele>
        <time>2022-08-13T08:41:42Z</time>
      </trkpt>
      <trkpt lat="44.70219" lon="1.25602">
        <ele>254.4</ele>
        <time>2022-08-13T08:41:43Z</time>
      </trkpt>
      <trkpt lat="44.70225" lon="1.25609">
        <ele>254.4</ele>
        <time>2022-08-13T08:41:44Z</time>
      </trkpt>
      <trkpt lat="44.7023" lon="1.25616">
        <ele>253.4</ele>
        <time>2022-08-13T08:41:45Z</time>
      </trkpt>
      <trkpt lat="44.70236" lon="1.25623">
        <ele>253.4</ele>
        <time>2022-08-13T08:41:46Z</time>
      </trkpt>
      <trkpt lat="44.7024" lon="1.25632">
        <ele>253.4</ele>
        <time>2022-08-13T08:41:47Z</time>
      </trkpt>
      <trkpt lat="44.70245" lon="1.25642">
        <ele>252.4</ele>
        <time>2022-08-13T08:41:48Z</time>
      </trkpt>
      <trkpt lat="44.70249" lon="1.25653">
        <ele>252.4</ele>
        <time>2022-08-13T08:41:49Z</time>
      </trkpt>
      <trkpt lat="44.70253" lon="1.25664">
        <ele>251.4</ele>
        <time>2022-08-13T08:41:50Z</time>
      </trkpt>
      <trkpt lat="44.70258" lon="1.25675">
        <ele>250.4</ele>
        <time>2022-08-13T08:41:51Z</time>
      </trkpt>
      <trkpt lat="44.70264" lon="1.25685">
        <ele>250.4</ele>
        <time>2022-08-13T08:41:52Z</time>
      </trkpt>
      <trkpt lat="44.70271" lon="1.25694">
        <ele>249.4</ele>
        <time>2022-08-13T08:41:53Z</time>
      </trkpt>
      <trkpt lat="44.7028" lon="1.25699">
        <ele>249.4</ele>
        <time>2022-08-13T08:41:54Z</time>
      </trkpt>
      <trkpt lat="44.70291" lon="1.25701">
        <ele>248.4</ele>
        <time>2022-08-13T08:41:55Z</time>
      </trkpt>
      <trkpt lat="44.70301" lon="1.25701">
        <ele>247.4</ele>
        <time>2022-08-13T08:41:56Z</time>
      </trkpt>
      <trkpt lat="44.7031" lon="1.257">
        <ele>246.4</ele>
        <time>2022-08-13T08:41:57Z</time>
      </trkpt>
      <trkpt lat="44.70318" lon="1.25698">
        <ele>246.4</ele>
        <time>2022-08-13T08:41:58Z</time>
      </trkpt>
      <trkpt lat="44.70325" lon="1.25695">
        <ele>246.4</ele>
        <time>2022-08-13T08:41:59Z</time>
      </trkpt>
      <trkpt lat="44.70332" lon="1.25692">
        <ele>246.4</ele>
        <time>2022-08-13T08:42:00Z</time>
      </trkpt>
      <trkpt lat="44.70338" lon="1.2569">
        <ele>246.4</ele>
        <time>2022-08-13T08:42:01Z</time>
      </trkpt>
      <trkpt lat="44.70344" lon="1.25689">
        <ele>246.4</ele>
        <time>2022-08-13T08:42:02Z</time>
      </trkpt>
      <trkpt lat="44.70349" lon="1.25688">
        <ele>246.4</ele>
        <time>2022-08-13T08:42:03Z</time>
      </trkpt>
      <trkpt lat="44.70354" lon="1.25687">
        <ele>246.4</ele>
        <time>2022-08-13T08:42:04Z</time>
      </trkpt>
      <trkpt lat="44.70359" lon="1.25685">
        <ele>246.4</ele>
        <time>2022-08-13T08:42:05Z</time>
      </trkpt>
      <trkpt lat="44.70364" lon="1.25683">
        <ele>245.4</ele>
        <time>2022-08-13T08:42:06Z</time>
      </trkpt>
      <trkpt lat="44.70369" lon="1.25682">
        <ele>245.4</ele>
        <time>2022-08-13T08:42:07Z</time>
      </trkpt>
      <trkpt lat="44.70378" lon="1.25679">
        <ele>245.4</ele>
        <time>2022-08-13T08:42:09Z</time>
      </trkpt>
      <trkpt lat="44.70386" lon="1.25679">
        <ele>244.4</ele>
        <time>2022-08-13T08:42:11Z</time>
      </trkpt>
      <trkpt lat="44.70395" lon="1.25676">
        <ele>244.4</ele>
        <time>2022-08-13T08:42:13Z</time>
      </trkpt>
      <trkpt lat="44.70399" lon="1.25675">
        <ele>244.4</ele>
        <time>2022-08-13T08:42:14Z</time>
      </trkpt>
      <trkpt lat="44.70404" lon="1.25674">
        <ele>244.4</ele>
        <time>2022-08-13T08:42:15Z</time>
      </trkpt>
      <trkpt lat="44.70409" lon="1.25673">
        <ele>245.4</ele>
        <time>2022-08-13T08:42:16Z</time>
      </trkpt>
      <trkpt lat="44.70413" lon="1.25671">
        <ele>245.4</ele>
        <time>2022-08-13T08:42:17Z</time>
      </trkpt>
      <trkpt lat="44.70419" lon="1.2567">
        <ele>245.4</ele>
        <time>2022-08-13T08:42:18Z</time>
      </trkpt>
      <trkpt lat="44.70424" lon="1.25669">
        <ele>245.4</ele>
        <time>2022-08-13T08:42:19Z</time>
      </trkpt>
      <trkpt lat="44.70429" lon="1.25669">
        <ele>244.4</ele>
        <time>2022-08-13T08:42:20Z</time>
      </trkpt>
      <trkpt lat="44.70434" lon="1.2567">
        <ele>245.4</ele>
        <time>2022-08-13T08:42:21Z</time>
      </trkpt>
      <trkpt lat="44.70443" lon="1.25674">
        <ele>244.4</ele>
        <time>2022-08-13T08:42:23Z</time>
      </trkpt>
      <trkpt lat="44.70446" lon="1.25678">
        <ele>244.4</ele>
        <time>2022-08-13T08:42:24Z</time>
      </trkpt>
      <trkpt lat="44.7045" lon="1.25683">
        <ele>244.4</ele>
        <time>2022-08-13T08:42:25Z</time>
      </trkpt>
      <trkpt lat="44.70453" lon="1.25688">
        <ele>244.4</ele>
        <time>2022-08-13T08:42:26Z</time>
      </trkpt>
      <trkpt lat="44.70458" lon="1.25694">
        <ele>244.4</ele>
        <time>2022-08-13T08:42:28Z</time>
      </trkpt>
      <trkpt lat="44.70464" lon="1.25692">
        <ele>242.4</ele>
        <time>2022-08-13T08:43:19Z</time>
      </trkpt>
      <trkpt lat="44.70468" lon="1.25689">
        <ele>242.4</ele>
        <time>2022-08-13T08:43:21Z</time>
      </trkpt>
      <trkpt lat="44.70472" lon="1.25686">
        <ele>242.4</ele>
        <time>2022-08-13T08:43:23Z</time>
      </trkpt>
      <trkpt lat="44.70476" lon="1.2568">
        <ele>241.4</ele>
        <time>2022-08-13T08:43:26Z</time>
      </trkpt>
      <trkpt lat="44.7048" lon="1.25684">
        <ele>243.4</ele>
        <time>2022-08-13T08:44:01Z</time>
      </trkpt>
      <trkpt lat="44.70476" lon="1.25688">
        <ele>245.4</ele>
        <time>2022-08-13T08:44:13Z</time>
      </trkpt>
      <trkpt lat="44.70481" lon="1.2569">
        <ele>247.4</ele>
        <time>2022-08-13T08:44:48Z</time>
      </trkpt>
      <trkpt lat="44.70486" lon="1.25696">
        <ele>247.4</ele>
        <time>2022-08-13T08:44:50Z</time>
      </trkpt>
      <trkpt lat="44.70492" lon="1.25703">
        <ele>247.4</ele>
        <time>2022-08-13T08:44:52Z</time>
      </trkpt>
      <trkpt lat="44.70497" lon="1.25708">
        <ele>246.4</ele>
        <time>2022-08-13T08:44:53Z</time>
      </trkpt>
      <trkpt lat="44.70501" lon="1.25714">
        <ele>245.4</ele>
        <time>2022-08-13T08:44:54Z</time>
      </trkpt>
      <trkpt lat="44.70505" lon="1.25719">
        <ele>245.4</ele>
        <time>2022-08-13T08:44:55Z</time>
      </trkpt>
      <trkpt lat="44.70511" lon="1.25723">
        <ele>245.4</ele>
        <time>2022-08-13T08:44:56Z</time>
      </trkpt>
      <trkpt lat="44.70516" lon="1.25728">
        <ele>245.4</ele>
        <time>2022-08-13T08:44:57Z</time>
      </trkpt>
      <trkpt lat="44.70521" lon="1.25733">
        <ele>246.4</ele>
        <time>2022-08-13T08:44:58Z</time>
      </trkpt>
      <trkpt lat="44.70527" lon="1.25737">
        <ele>246.4</ele>
        <time>2022-08-13T08:44:59Z</time>
      </trkpt>
      <trkpt lat="44.70532" lon="1.25741">
        <ele>245.4</ele>
        <time>2022-08-13T08:45:00Z</time>
      </trkpt>
      <trkpt lat="44.70536" lon="1.25744">
        <ele>244.4</ele>
        <time>2022-08-13T08:45:01Z</time>
      </trkpt>
      <trkpt lat="44.70543" lon="1.25748">
        <ele>243.4</ele>
        <time>2022-08-13T08:45:03Z</time>
      </trkpt>
      <trkpt lat="44.70551" lon="1.25751">
        <ele>242.4</ele>
        <time>2022-08-13T08:45:05Z</time>
      </trkpt>
      <trkpt lat="44.70558" lon="1.25753">
        <ele>241.4</ele>
        <time>2022-08-13T08:45:07Z</time>
      </trkpt>
      <trkpt lat="44.70564" lon="1.25757">
        <ele>241.4</ele>
        <time>2022-08-13T08:45:09Z</time>
      </trkpt>
      <trkpt lat="44.70569" lon="1.2576">
        <ele>240.4</ele>
        <time>2022-08-13T08:45:11Z</time>
      </trkpt>
      <trkpt lat="44.70575" lon="1.25763">
        <ele>240.4</ele>
        <time>2022-08-13T08:45:14Z</time>
      </trkpt>
      <trkpt lat="44.7058" lon="1.25765">
        <ele>239.4</ele>
        <time>2022-08-13T08:45:16Z</time>
      </trkpt>
      <trkpt lat="44.70585" lon="1.25766">
        <ele>239.4</ele>
        <time>2022-08-13T08:45:18Z</time>
      </trkpt>
      <trkpt lat="44.70589" lon="1.25767">
        <ele>238.4</ele>
        <time>2022-08-13T08:45:20Z</time>
      </trkpt>
      <trkpt lat="44.70596" lon="1.25766">
        <ele>239.4</ele>
        <time>2022-08-13T08:45:23Z</time>
      </trkpt>
      <trkpt lat="44.70601" lon="1.25765">
        <ele>239.4</ele>
        <time>2022-08-13T08:45:25Z</time>
      </trkpt>
      <trkpt lat="44.70606" lon="1.25763">
        <ele>239.4</ele>
        <time>2022-08-13T08:45:27Z</time>
      </trkpt>
      <trkpt lat="44.7061" lon="1.25762">
        <ele>239.4</ele>
        <time>2022-08-13T08:45:29Z</time>
      </trkpt>
      <trkpt lat="44.70615" lon="1.25762">
        <ele>239.4</ele>
        <time>2022-08-13T08:45:31Z</time>
      </trkpt>
      <trkpt lat="44.7062" lon="1.2576">
        <ele>239.4</ele>
        <time>2022-08-13T08:45:33Z</time>
      </trkpt>
      <trkpt lat="44.70626" lon="1.25759">
        <ele>239.4</ele>
        <time>2022-08-13T08:45:35Z</time>
      </trkpt>
      <trkpt lat="44.70632" lon="1.25758">
        <ele>239.4</ele>
        <time>2022-08-13T08:45:37Z</time>
      </trkpt>
      <trkpt lat="44.70637" lon="1.25757">
        <ele>239.4</ele>
        <time>2022-08-13T08:45:39Z</time>
      </trkpt>
      <trkpt lat="44.70641" lon="1.25756">
        <ele>239.4</ele>
        <time>2022-08-13T08:45:41Z</time>
      </trkpt>
      <trkpt lat="44.70646" lon="1.25755">
        <ele>239.4</ele>
        <time>2022-08-13T08:45:43Z</time>
      </trkpt>
      <trkpt lat="44.70651" lon="1.25755">
        <ele>239.4</ele>
        <time>2022-08-13T08:45:45Z</time>
      </trkpt>
      <trkpt lat="44.70657" lon="1.25752">
        <ele>240.4</ele>
        <time>2022-08-13T08:45:48Z</time>
      </trkpt>
      <trkpt lat="44.70662" lon="1.25749">
        <ele>240.4</ele>
        <time>2022-08-13T08:45:50Z</time>
      </trkpt>
      <trkpt lat="44.70666" lon="1.25747">
        <ele>241.4</ele>
        <time>2022-08-13T08:45:52Z</time>
      </trkpt>
      <trkpt lat="44.70671" lon="1.25743">
        <ele>240.4</ele>
        <time>2022-08-13T08:45:54Z</time>
      </trkpt>
      <trkpt lat="44.70676" lon="1.25738">
        <ele>241.4</ele>
        <time>2022-08-13T08:45:56Z</time>
      </trkpt>
      <trkpt lat="44.70683" lon="1.25732">
        <ele>239.4</ele>
        <time>2022-08-13T08:45:58Z</time>
      </trkpt>
      <trkpt lat="44.7069" lon="1.25727">
        <ele>239.4</ele>
        <time>2022-08-13T08:46:00Z</time>
      </trkpt>
      <trkpt lat="44.70696" lon="1.25721">
        <ele>239.4</ele>
        <time>2022-08-13T08:46:02Z</time>
      </trkpt>
      <trkpt lat="44.70703" lon="1.25716">
        <ele>239.4</ele>
        <time>2022-08-13T08:46:04Z</time>
      </trkpt>
      <trkpt lat="44.7071" lon="1.2571">
        <ele>239.4</ele>
        <time>2022-08-13T08:46:06Z</time>
      </trkpt>
      <trkpt lat="44.70718" lon="1.25706">
        <ele>239.4</ele>
        <time>2022-08-13T08:46:08Z</time>
      </trkpt>
      <trkpt lat="44.70725" lon="1.25701">
        <ele>239.4</ele>
        <time>2022-08-13T08:46:10Z</time>
      </trkpt>
      <trkpt lat="44.70731" lon="1.25696">
        <ele>240.4</ele>
        <time>2022-08-13T08:46:12Z</time>
      </trkpt>
      <trkpt lat="44.70737" lon="1.25692">
        <ele>240.4</ele>
        <time>2022-08-13T08:46:14Z</time>
      </trkpt>
      <trkpt lat="44.70742" lon="1.25688">
        <ele>240.4</ele>
        <time>2022-08-13T08:46:16Z</time>
      </trkpt>
      <trkpt lat="44.70747" lon="1.25684">
        <ele>240.4</ele>
        <time>2022-08-13T08:46:19Z</time>
      </trkpt>
      <trkpt lat="44.70753" lon="1.25679">
        <ele>240.4</ele>
        <time>2022-08-13T08:46:22Z</time>
      </trkpt>
      <trkpt lat="44.70759" lon="1.25674">
        <ele>240.4</ele>
        <time>2022-08-13T08:46:25Z</time>
      </trkpt>
      <trkpt lat="44.70762" lon="1.25671">
        <ele>241.4</ele>
        <time>2022-08-13T08:46:27Z</time>
      </trkpt>
      <trkpt lat="44.70767" lon="1.25667">
        <ele>242.4</ele>
        <time>2022-08-13T08:46:29Z</time>
      </trkpt>
      <trkpt lat="44.70771" lon="1.25663">
        <ele>243.4</ele>
        <time>2022-08-13T08:46:31Z</time>
      </trkpt>
      <trkpt lat="44.70775" lon="1.2566">
        <ele>243.4</ele>
        <time>2022-08-13T08:46:33Z</time>
      </trkpt>
      <trkpt lat="44.70779" lon="1.25656">
        <ele>243.4</ele>
        <time>2022-08-13T08:46:35Z</time>
      </trkpt>
      <trkpt lat="44.70783" lon="1.25652">
        <ele>244.4</ele>
        <time>2022-08-13T08:46:37Z</time>
      </trkpt>
      <trkpt lat="44.70787" lon="1.25648">
        <ele>244.4</ele>
        <time>2022-08-13T08:46:39Z</time>
      </trkpt>
      <trkpt lat="44.70792" lon="1.25641">
        <ele>246.4</ele>
        <time>2022-08-13T08:47:42Z</time>
      </trkpt>
      <trkpt lat="44.70797" lon="1.25635">
        <ele>246.4</ele>
        <time>2022-08-13T08:47:44Z</time>
      </trkpt>
      <trkpt lat="44.70802" lon="1.2563">
        <ele>246.4</ele>
        <time>2022-08-13T08:47:46Z</time>
      </trkpt>
      <trkpt lat="44.70806" lon="1.25624">
        <ele>247.4</ele>
        <time>2022-08-13T08:47:48Z</time>
      </trkpt>
      <trkpt lat="44.70811" lon="1.25619">
        <ele>248.4</ele>
        <time>2022-08-13T08:47:50Z</time>
      </trkpt>
      <trkpt lat="44.70815" lon="1.25613">
        <ele>248.4</ele>
        <time>2022-08-13T08:47:52Z</time>
      </trkpt>
      <trkpt lat="44.7082" lon="1.25607">
        <ele>249.4</ele>
        <time>2022-08-13T08:47:54Z</time>
      </trkpt>
      <trkpt lat="44.70825" lon="1.256">
        <ele>249.4</ele>
        <time>2022-08-13T08:47:56Z</time>
      </trkpt>
      <trkpt lat="44.7083" lon="1.25593">
        <ele>251.4</ele>
        <time>2022-08-13T08:47:58Z</time>
      </trkpt>
      <trkpt lat="44.70835" lon="1.25585">
        <ele>253.4</ele>
        <time>2022-08-13T08:48:00Z</time>
      </trkpt>
      <trkpt lat="44.70839" lon="1.25576">
        <ele>255.4</ele>
        <time>2022-08-13T08:48:02Z</time>
      </trkpt>
      <trkpt lat="44.70845" lon="1.25567">
        <ele>256.4</ele>
        <time>2022-08-13T08:48:04Z</time>
      </trkpt>
      <trkpt lat="44.70848" lon="1.25563">
        <ele>255.4</ele>
        <time>2022-08-13T08:48:05Z</time>
      </trkpt>
      <trkpt lat="44.70854" lon="1.25554">
        <ele>255.4</ele>
        <time>2022-08-13T08:48:07Z</time>
      </trkpt>
      <trkpt lat="44.70859" lon="1.25545">
        <ele>255.4</ele>
        <time>2022-08-13T08:48:09Z</time>
      </trkpt>
      <trkpt lat="44.70862" lon="1.25539">
        <ele>254.4</ele>
        <time>2022-08-13T08:48:10Z</time>
      </trkpt>
      <trkpt lat="44.70864" lon="1.25533">
        <ele>253.4</ele>
        <time>2022-08-13T08:48:11Z</time>
      </trkpt>
      <trkpt lat="44.70868" lon="1.25523">
        <ele>252.4</ele>
        <time>2022-08-13T08:48:13Z</time>
      </trkpt>
      <trkpt lat="44.70873" lon="1.25516">
        <ele>252.4</ele>
        <time>2022-08-13T08:48:15Z</time>
      </trkpt>
      <trkpt lat="44.70878" lon="1.2551">
        <ele>252.4</ele>
        <time>2022-08-13T08:48:17Z</time>
      </trkpt>
      <trkpt lat="44.70883" lon="1.25504">
        <ele>253.4</ele>
        <time>2022-08-13T08:48:19Z</time>
      </trkpt>
      <trkpt lat="44.70887" lon="1.25497">
        <ele>252.4</ele>
        <time>2022-08-13T08:48:21Z</time>
      </trkpt>
      <trkpt lat="44.70891" lon="1.25491">
        <ele>252.4</ele>
        <time>2022-08-13T08:48:23Z</time>
      </trkpt>
      <trkpt lat="44.70894" lon="1.25486">
        <ele>252.4</ele>
        <time>2022-08-13T08:48:25Z</time>
      </trkpt>
      <trkpt lat="44.70899" lon="1.25481">
        <ele>252.4</ele>
        <time>2022-08-13T08:48:27Z</time>
      </trkpt>
      <trkpt lat="44.70904" lon="1.25478">
        <ele>252.4</ele>
        <time>2022-08-13T08:48:29Z</time>
      </trkpt>
      <trkpt lat="44.70909" lon="1.25474">
        <ele>252.4</ele>
        <time>2022-08-13T08:48:31Z</time>
      </trkpt>
      <trkpt lat="44.70915" lon="1.2547">
        <ele>253.4</ele>
        <time>2022-08-13T08:48:33Z</time>
      </trkpt>
      <trkpt lat="44.70922" lon="1.25466">
        <ele>253.4</ele>
        <time>2022-08-13T08:48:35Z</time>
      </trkpt>
      <trkpt lat="44.70928" lon="1.25462">
        <ele>253.4</ele>
        <time>2022-08-13T08:48:37Z</time>
      </trkpt>
      <trkpt lat="44.70935" lon="1.2546">
        <ele>253.4</ele>
        <time>2022-08-13T08:48:39Z</time>
      </trkpt>
      <trkpt lat="44.70943" lon="1.25459">
        <ele>254.4</ele>
        <time>2022-08-13T08:48:41Z</time>
      </trkpt>
      <trkpt lat="44.70948" lon="1.2546">
        <ele>253.4</ele>
        <time>2022-08-13T08:48:42Z</time>
      </trkpt>
      <trkpt lat="44.70953" lon="1.25462">
        <ele>253.4</ele>
        <time>2022-08-13T08:48:43Z</time>
      </trkpt>
      <trkpt lat="44.70958" lon="1.25465">
        <ele>253.4</ele>
        <time>2022-08-13T08:48:44Z</time>
      </trkpt>
      <trkpt lat="44.70966" lon="1.25469">
        <ele>253.4</ele>
        <time>2022-08-13T08:48:46Z</time>
      </trkpt>
      <trkpt lat="44.7097" lon="1.25471">
        <ele>253.4</ele>
        <time>2022-08-13T08:48:47Z</time>
      </trkpt>
      <trkpt lat="44.70978" lon="1.25475">
        <ele>254.4</ele>
        <time>2022-08-13T08:48:49Z</time>
      </trkpt>
      <trkpt lat="44.70981" lon="1.25484">
        <ele>255.4</ele>
        <time>2022-08-13T08:48:51Z</time>
      </trkpt>
      <trkpt lat="44.70978" lon="1.25495">
        <ele>256.4</ele>
        <time>2022-08-13T08:48:53Z</time>
      </trkpt>
      <trkpt lat="44.70975" lon="1.25506">
        <ele>256.4</ele>
        <time>2022-08-13T08:48:55Z</time>
      </trkpt>
      <trkpt lat="44.70973" lon="1.25516">
        <ele>257.4</ele>
        <time>2022-08-13T08:48:57Z</time>
      </trkpt>
      <trkpt lat="44.7097" lon="1.25526">
        <ele>258.4</ele>
        <time>2022-08-13T08:48:59Z</time>
      </trkpt>
      <trkpt lat="44.70968" lon="1.25537">
        <ele>259.4</ele>
        <time>2022-08-13T08:49:01Z</time>
      </trkpt>
      <trkpt lat="44.70965" lon="1.25548">
        <ele>259.4</ele>
        <time>2022-08-13T08:49:03Z</time>
      </trkpt>
      <trkpt lat="44.70964" lon="1.25555">
        <ele>259.4</ele>
        <time>2022-08-13T08:49:04Z</time>
      </trkpt>
      <trkpt lat="44.70963" lon="1.25561">
        <ele>260.4</ele>
        <time>2022-08-13T08:49:05Z</time>
      </trkpt>
      <trkpt lat="44.7096" lon="1.25572">
        <ele>260.4</ele>
        <time>2022-08-13T08:49:07Z</time>
      </trkpt>
      <trkpt lat="44.70957" lon="1.25582">
        <ele>261.4</ele>
        <time>2022-08-13T08:49:09Z</time>
      </trkpt>
      <trkpt lat="44.70955" lon="1.25593">
        <ele>262.4</ele>
        <time>2022-08-13T08:49:11Z</time>
      </trkpt>
      <trkpt lat="44.70953" lon="1.25603">
        <ele>262.4</ele>
        <time>2022-08-13T08:49:13Z</time>
      </trkpt>
      <trkpt lat="44.70951" lon="1.25615">
        <ele>263.4</ele>
        <time>2022-08-13T08:49:15Z</time>
      </trkpt>
      <trkpt lat="44.70949" lon="1.25626">
        <ele>263.4</ele>
        <time>2022-08-13T08:49:17Z</time>
      </trkpt>
      <trkpt lat="44.70948" lon="1.25632">
        <ele>263.4</ele>
        <time>2022-08-13T08:49:18Z</time>
      </trkpt>
      <trkpt lat="44.70947" lon="1.25639">
        <ele>263.4</ele>
        <time>2022-08-13T08:49:19Z</time>
      </trkpt>
      <trkpt lat="44.70945" lon="1.25651">
        <ele>263.4</ele>
        <time>2022-08-13T08:49:21Z</time>
      </trkpt>
      <trkpt lat="44.70944" lon="1.25657">
        <ele>263.4</ele>
        <time>2022-08-13T08:49:22Z</time>
      </trkpt>
      <trkpt lat="44.70941" lon="1.25669">
        <ele>263.4</ele>
        <time>2022-08-13T08:49:24Z</time>
      </trkpt>
      <trkpt lat="44.70938" lon="1.2568">
        <ele>264.4</ele>
        <time>2022-08-13T08:49:26Z</time>
      </trkpt>
      <trkpt lat="44.70936" lon="1.25686">
        <ele>264.4</ele>
        <time>2022-08-13T08:49:27Z</time>
      </trkpt>
      <trkpt lat="44.70935" lon="1.25692">
        <ele>264.4</ele>
        <time>2022-08-13T08:49:28Z</time>
      </trkpt>
      <trkpt lat="44.70932" lon="1.25704">
        <ele>264.4</ele>
        <time>2022-08-13T08:49:30Z</time>
      </trkpt>
      <trkpt lat="44.70929" lon="1.25715">
        <ele>264.4</ele>
        <time>2022-08-13T08:49:32Z</time>
      </trkpt>
      <trkpt lat="44.70928" lon="1.25721">
        <ele>264.4</ele>
        <time>2022-08-13T08:49:33Z</time>
      </trkpt>
      <trkpt lat="44.70924" lon="1.25733">
        <ele>264.4</ele>
        <time>2022-08-13T08:49:35Z</time>
      </trkpt>
      <trkpt lat="44.70922" lon="1.25738">
        <ele>264.4</ele>
        <time>2022-08-13T08:49:36Z</time>
      </trkpt>
      <trkpt lat="44.70921" lon="1.25745">
        <ele>264.4</ele>
        <time>2022-08-13T08:49:37Z</time>
      </trkpt>
      <trkpt lat="44.70918" lon="1.25756">
        <ele>264.4</ele>
        <time>2022-08-13T08:49:39Z</time>
      </trkpt>
      <trkpt lat="44.70916" lon="1.25762">
        <ele>264.4</ele>
        <time>2022-08-13T08:49:40Z</time>
      </trkpt>
      <trkpt lat="44.70914" lon="1.25768">
        <ele>265.4</ele>
        <time>2022-08-13T08:49:41Z</time>
      </trkpt>
      <trkpt lat="44.70911" lon="1.25773">
        <ele>266.4</ele>
        <time>2022-08-13T08:49:42Z</time>
      </trkpt>
      <trkpt lat="44.70907" lon="1.25785">
        <ele>266.4</ele>
        <time>2022-08-13T08:49:44Z</time>
      </trkpt>
      <trkpt lat="44.70905" lon="1.2579">
        <ele>267.4</ele>
        <time>2022-08-13T08:49:45Z</time>
      </trkpt>
      <trkpt lat="44.70903" lon="1.25796">
        <ele>267.4</ele>
        <time>2022-08-13T08:49:46Z</time>
      </trkpt>
      <trkpt lat="44.70899" lon="1.25806">
        <ele>267.4</ele>
        <time>2022-08-13T08:49:48Z</time>
      </trkpt>
      <trkpt lat="44.70895" lon="1.25817">
        <ele>267.4</ele>
        <time>2022-08-13T08:49:50Z</time>
      </trkpt>
      <trkpt lat="44.70892" lon="1.25829">
        <ele>267.4</ele>
        <time>2022-08-13T08:49:52Z</time>
      </trkpt>
      <trkpt lat="44.70889" lon="1.2584">
        <ele>267.4</ele>
        <time>2022-08-13T08:49:54Z</time>
      </trkpt>
      <trkpt lat="44.70886" lon="1.25851">
        <ele>268.4</ele>
        <time>2022-08-13T08:49:56Z</time>
      </trkpt>
      <trkpt lat="44.70883" lon="1.25862">
        <ele>268.4</ele>
        <time>2022-08-13T08:49:58Z</time>
      </trkpt>
      <trkpt lat="44.7088" lon="1.25874">
        <ele>268.4</ele>
        <time>2022-08-13T08:50:00Z</time>
      </trkpt>
      <trkpt lat="44.70877" lon="1.2588">
        <ele>269.4</ele>
        <time>2022-08-13T08:50:01Z</time>
      </trkpt>
      <trkpt lat="44.70875" lon="1.25885">
        <ele>269.4</ele>
        <time>2022-08-13T08:50:02Z</time>
      </trkpt>
      <trkpt lat="44.7087" lon="1.25895">
        <ele>269.4</ele>
        <time>2022-08-13T08:50:04Z</time>
      </trkpt>
      <trkpt lat="44.70866" lon="1.25903">
        <ele>270.4</ele>
        <time>2022-08-13T08:50:06Z</time>
      </trkpt>
      <trkpt lat="44.70863" lon="1.25914">
        <ele>269.4</ele>
        <time>2022-08-13T08:50:08Z</time>
      </trkpt>
      <trkpt lat="44.70864" lon="1.25924">
        <ele>269.4</ele>
        <time>2022-08-13T08:50:10Z</time>
      </trkpt>
      <trkpt lat="44.70867" lon="1.25929">
        <ele>268.4</ele>
        <time>2022-08-13T08:50:13Z</time>
      </trkpt>
      <trkpt lat="44.70869" lon="1.25935">
        <ele>267.4</ele>
        <time>2022-08-13T08:50:25Z</time>
      </trkpt>
      <trkpt lat="44.70871" lon="1.25941">
        <ele>267.4</ele>
        <time>2022-08-13T08:51:00Z</time>
      </trkpt>
      <trkpt lat="44.70867" lon="1.25943">
        <ele>267.4</ele>
        <time>2022-08-13T08:51:04Z</time>
      </trkpt>
      <trkpt lat="44.70864" lon="1.25952">
        <ele>266.4</ele>
        <time>2022-08-13T08:51:07Z</time>
      </trkpt>
      <trkpt lat="44.7086" lon="1.25962">
        <ele>267.4</ele>
        <time>2022-08-13T08:51:09Z</time>
      </trkpt>
      <trkpt lat="44.70855" lon="1.25971">
        <ele>268.4</ele>
        <time>2022-08-13T08:51:11Z</time>
      </trkpt>
      <trkpt lat="44.70852" lon="1.2598">
        <ele>267.4</ele>
        <time>2022-08-13T08:51:13Z</time>
      </trkpt>
      <trkpt lat="44.70849" lon="1.2599">
        <ele>267.4</ele>
        <time>2022-08-13T08:51:15Z</time>
      </trkpt>
      <trkpt lat="44.70847" lon="1.25998">
        <ele>268.4</ele>
        <time>2022-08-13T08:51:17Z</time>
      </trkpt>
      <trkpt lat="44.70846" lon="1.26008">
        <ele>267.4</ele>
        <time>2022-08-13T08:51:19Z</time>
      </trkpt>
      <trkpt lat="44.70845" lon="1.26015">
        <ele>267.4</ele>
        <time>2022-08-13T08:51:20Z</time>
      </trkpt>
      <trkpt lat="44.70844" lon="1.26021">
        <ele>266.4</ele>
        <time>2022-08-13T08:51:21Z</time>
      </trkpt>
      <trkpt lat="44.70843" lon="1.26028">
        <ele>266.4</ele>
        <time>2022-08-13T08:51:22Z</time>
      </trkpt>
      <trkpt lat="44.70843" lon="1.26034">
        <ele>265.4</ele>
        <time>2022-08-13T08:51:23Z</time>
      </trkpt>
      <trkpt lat="44.70842" lon="1.26041">
        <ele>265.4</ele>
        <time>2022-08-13T08:51:24Z</time>
      </trkpt>
      <trkpt lat="44.70842" lon="1.26049">
        <ele>265.4</ele>
        <time>2022-08-13T08:51:25Z</time>
      </trkpt>
      <trkpt lat="44.70841" lon="1.26056">
        <ele>265.4</ele>
        <time>2022-08-13T08:51:26Z</time>
      </trkpt>
      <trkpt lat="44.7084" lon="1.26063">
        <ele>265.4</ele>
        <time>2022-08-13T08:51:27Z</time>
      </trkpt>
      <trkpt lat="44.70839" lon="1.2607">
        <ele>265.4</ele>
        <time>2022-08-13T08:51:28Z</time>
      </trkpt>
      <trkpt lat="44.70838" lon="1.26077">
        <ele>265.4</ele>
        <time>2022-08-13T08:51:29Z</time>
      </trkpt>
      <trkpt lat="44.70837" lon="1.26084">
        <ele>265.4</ele>
        <time>2022-08-13T08:51:30Z</time>
      </trkpt>
      <trkpt lat="44.70835" lon="1.26091">
        <ele>265.4</ele>
        <time>2022-08-13T08:51:31Z</time>
      </trkpt>
      <trkpt lat="44.70834" lon="1.26098">
        <ele>264.4</ele>
        <time>2022-08-13T08:51:32Z</time>
      </trkpt>
      <trkpt lat="44.70834" lon="1.26104">
        <ele>264.4</ele>
        <time>2022-08-13T08:51:33Z</time>
      </trkpt>
      <trkpt lat="44.70833" lon="1.26111">
        <ele>265.4</ele>
        <time>2022-08-13T08:51:34Z</time>
      </trkpt>
      <trkpt lat="44.70833" lon="1.26117">
        <ele>265.4</ele>
        <time>2022-08-13T08:51:35Z</time>
      </trkpt>
      <trkpt lat="44.70831" lon="1.2613">
        <ele>265.4</ele>
        <time>2022-08-13T08:51:37Z</time>
      </trkpt>
      <trkpt lat="44.70831" lon="1.26137">
        <ele>265.4</ele>
        <time>2022-08-13T08:51:38Z</time>
      </trkpt>
      <trkpt lat="44.7083" lon="1.26144">
        <ele>265.4</ele>
        <time>2022-08-13T08:51:39Z</time>
      </trkpt>
      <trkpt lat="44.70828" lon="1.26151">
        <ele>265.4</ele>
        <time>2022-08-13T08:51:40Z</time>
      </trkpt>
      <trkpt lat="44.70825" lon="1.26158">
        <ele>265.4</ele>
        <time>2022-08-13T08:51:41Z</time>
      </trkpt>
      <trkpt lat="44.70823" lon="1.26166">
        <ele>265.4</ele>
        <time>2022-08-13T08:51:42Z</time>
      </trkpt>
      <trkpt lat="44.7082" lon="1.26174">
        <ele>265.4</ele>
        <time>2022-08-13T08:51:43Z</time>
      </trkpt>
      <trkpt lat="44.70819" lon="1.26181">
        <ele>265.4</ele>
        <time>2022-08-13T08:51:44Z</time>
      </trkpt>
      <trkpt lat="44.70819" lon="1.26189">
        <ele>264.4</ele>
        <time>2022-08-13T08:51:45Z</time>
      </trkpt>
      <trkpt lat="44.70818" lon="1.26197">
        <ele>264.4</ele>
        <time>2022-08-13T08:51:46Z</time>
      </trkpt>
      <trkpt lat="44.70819" lon="1.26205">
        <ele>264.4</ele>
        <time>2022-08-13T08:51:47Z</time>
      </trkpt>
      <trkpt lat="44.70818" lon="1.26213">
        <ele>264.4</ele>
        <time>2022-08-13T08:51:48Z</time>
      </trkpt>
      <trkpt lat="44.70817" lon="1.26221">
        <ele>264.4</ele>
        <time>2022-08-13T08:51:49Z</time>
      </trkpt>
      <trkpt lat="44.70817" lon="1.26229">
        <ele>264.4</ele>
        <time>2022-08-13T08:51:50Z</time>
      </trkpt>
      <trkpt lat="44.70817" lon="1.26237">
        <ele>264.4</ele>
        <time>2022-08-13T08:51:51Z</time>
      </trkpt>
      <trkpt lat="44.70817" lon="1.26245">
        <ele>264.4</ele>
        <time>2022-08-13T08:51:52Z</time>
      </trkpt>
      <trkpt lat="44.70817" lon="1.26254">
        <ele>263.4</ele>
        <time>2022-08-13T08:51:53Z</time>
      </trkpt>
      <trkpt lat="44.70817" lon="1.26263">
        <ele>263.4</ele>
        <time>2022-08-13T08:51:54Z</time>
      </trkpt>
      <trkpt lat="44.70817" lon="1.26273">
        <ele>264.4</ele>
        <time>2022-08-13T08:51:55Z</time>
      </trkpt>
      <trkpt lat="44.70816" lon="1.26282">
        <ele>263.4</ele>
        <time>2022-08-13T08:51:56Z</time>
      </trkpt>
      <trkpt lat="44.70816" lon="1.26291">
        <ele>263.4</ele>
        <time>2022-08-13T08:51:57Z</time>
      </trkpt>
      <trkpt lat="44.70815" lon="1.26301">
        <ele>263.4</ele>
        <time>2022-08-13T08:51:58Z</time>
      </trkpt>
      <trkpt lat="44.70815" lon="1.2631">
        <ele>263.4</ele>
        <time>2022-08-13T08:51:59Z</time>
      </trkpt>
      <trkpt lat="44.70814" lon="1.26319">
        <ele>264.4</ele>
        <time>2022-08-13T08:52:00Z</time>
      </trkpt>
      <trkpt lat="44.70813" lon="1.26328">
        <ele>264.4</ele>
        <time>2022-08-13T08:52:01Z</time>
      </trkpt>
      <trkpt lat="44.70812" lon="1.26336">
        <ele>264.4</ele>
        <time>2022-08-13T08:52:02Z</time>
      </trkpt>
      <trkpt lat="44.70811" lon="1.26344">
        <ele>264.4</ele>
        <time>2022-08-13T08:52:03Z</time>
      </trkpt>
      <trkpt lat="44.70809" lon="1.26353">
        <ele>264.4</ele>
        <time>2022-08-13T08:52:04Z</time>
      </trkpt>
      <trkpt lat="44.70807" lon="1.2636">
        <ele>265.4</ele>
        <time>2022-08-13T08:52:05Z</time>
      </trkpt>
      <trkpt lat="44.70805" lon="1.26368">
        <ele>265.4</ele>
        <time>2022-08-13T08:52:06Z</time>
      </trkpt>
      <trkpt lat="44.70802" lon="1.26376">
        <ele>264.4</ele>
        <time>2022-08-13T08:52:07Z</time>
      </trkpt>
      <trkpt lat="44.708" lon="1.26385">
        <ele>264.4</ele>
        <time>2022-08-13T08:52:08Z</time>
      </trkpt>
      <trkpt lat="44.70797" lon="1.26392">
        <ele>264.4</ele>
        <time>2022-08-13T08:52:09Z</time>
      </trkpt>
      <trkpt lat="44.70795" lon="1.264">
        <ele>264.4</ele>
        <time>2022-08-13T08:52:10Z</time>
      </trkpt>
      <trkpt lat="44.70792" lon="1.26408">
        <ele>264.4</ele>
        <time>2022-08-13T08:52:11Z</time>
      </trkpt>
      <trkpt lat="44.7079" lon="1.26416">
        <ele>265.4</ele>
        <time>2022-08-13T08:52:12Z</time>
      </trkpt>
      <trkpt lat="44.70786" lon="1.26425">
        <ele>265.4</ele>
        <time>2022-08-13T08:52:13Z</time>
      </trkpt>
      <trkpt lat="44.70783" lon="1.26434">
        <ele>265.4</ele>
        <time>2022-08-13T08:52:14Z</time>
      </trkpt>
      <trkpt lat="44.70781" lon="1.26443">
        <ele>265.4</ele>
        <time>2022-08-13T08:52:15Z</time>
      </trkpt>
      <trkpt lat="44.70778" lon="1.26453">
        <ele>264.4</ele>
        <time>2022-08-13T08:52:16Z</time>
      </trkpt>
      <trkpt lat="44.70779" lon="1.26463">
        <ele>264.4</ele>
        <time>2022-08-13T08:52:17Z</time>
      </trkpt>
      <trkpt lat="44.7078" lon="1.26472">
        <ele>264.4</ele>
        <time>2022-08-13T08:52:18Z</time>
      </trkpt>
      <trkpt lat="44.70783" lon="1.2648">
        <ele>264.4</ele>
        <time>2022-08-13T08:52:19Z</time>
      </trkpt>
      <trkpt lat="44.70786" lon="1.26489">
        <ele>264.4</ele>
        <time>2022-08-13T08:52:20Z</time>
      </trkpt>
      <trkpt lat="44.70789" lon="1.26497">
        <ele>264.4</ele>
        <time>2022-08-13T08:52:21Z</time>
      </trkpt>
      <trkpt lat="44.70791" lon="1.26504">
        <ele>264.4</ele>
        <time>2022-08-13T08:52:22Z</time>
      </trkpt>
      <trkpt lat="44.70793" lon="1.26513">
        <ele>263.4</ele>
        <time>2022-08-13T08:52:23Z</time>
      </trkpt>
      <trkpt lat="44.70794" lon="1.26522">
        <ele>263.4</ele>
        <time>2022-08-13T08:52:24Z</time>
      </trkpt>
      <trkpt lat="44.70794" lon="1.2653">
        <ele>263.4</ele>
        <time>2022-08-13T08:52:25Z</time>
      </trkpt>
      <trkpt lat="44.70795" lon="1.26538">
        <ele>263.4</ele>
        <time>2022-08-13T08:52:26Z</time>
      </trkpt>
      <trkpt lat="44.70797" lon="1.26545">
        <ele>263.4</ele>
        <time>2022-08-13T08:52:27Z</time>
      </trkpt>
      <trkpt lat="44.70799" lon="1.26554">
        <ele>262.4</ele>
        <time>2022-08-13T08:52:29Z</time>
      </trkpt>
      <trkpt lat="44.70802" lon="1.2656">
        <ele>262.4</ele>
        <time>2022-08-13T08:52:31Z</time>
      </trkpt>
      <trkpt lat="44.70804" lon="1.26569">
        <ele>262.4</ele>
        <time>2022-08-13T08:52:33Z</time>
      </trkpt>
      <trkpt lat="44.70806" lon="1.26579">
        <ele>262.4</ele>
        <time>2022-08-13T08:52:35Z</time>
      </trkpt>
      <trkpt lat="44.70808" lon="1.26586">
        <ele>262.4</ele>
        <time>2022-08-13T08:52:36Z</time>
      </trkpt>
      <trkpt lat="44.7081" lon="1.26592">
        <ele>262.4</ele>
        <time>2022-08-13T08:52:37Z</time>
      </trkpt>
      <trkpt lat="44.70813" lon="1.26603">
        <ele>262.4</ele>
        <time>2022-08-13T08:52:39Z</time>
      </trkpt>
      <trkpt lat="44.70817" lon="1.26614">
        <ele>261.4</ele>
        <time>2022-08-13T08:52:41Z</time>
      </trkpt>
      <trkpt lat="44.70821" lon="1.26626">
        <ele>260.4</ele>
        <time>2022-08-13T08:52:43Z</time>
      </trkpt>
      <trkpt lat="44.70822" lon="1.26633">
        <ele>260.4</ele>
        <time>2022-08-13T08:52:44Z</time>
      </trkpt>
      <trkpt lat="44.70824" lon="1.26639">
        <ele>260.4</ele>
        <time>2022-08-13T08:52:45Z</time>
      </trkpt>
      <trkpt lat="44.70825" lon="1.26645">
        <ele>260.4</ele>
        <time>2022-08-13T08:52:46Z</time>
      </trkpt>
      <trkpt lat="44.70827" lon="1.26652">
        <ele>259.4</ele>
        <time>2022-08-13T08:52:47Z</time>
      </trkpt>
      <trkpt lat="44.70828" lon="1.26659">
        <ele>260.4</ele>
        <time>2022-08-13T08:52:48Z</time>
      </trkpt>
      <trkpt lat="44.70829" lon="1.26666">
        <ele>260.4</ele>
        <time>2022-08-13T08:52:49Z</time>
      </trkpt>
      <trkpt lat="44.7083" lon="1.26674">
        <ele>260.4</ele>
        <time>2022-08-13T08:52:50Z</time>
      </trkpt>
      <trkpt lat="44.70832" lon="1.26682">
        <ele>260.4</ele>
        <time>2022-08-13T08:52:51Z</time>
      </trkpt>
      <trkpt lat="44.70833" lon="1.2669">
        <ele>260.4</ele>
        <time>2022-08-13T08:52:52Z</time>
      </trkpt>
      <trkpt lat="44.70833" lon="1.26699">
        <ele>260.4</ele>
        <time>2022-08-13T08:52:53Z</time>
      </trkpt>
      <trkpt lat="44.70834" lon="1.26708">
        <ele>259.4</ele>
        <time>2022-08-13T08:52:54Z</time>
      </trkpt>
      <trkpt lat="44.70834" lon="1.26715">
        <ele>259.4</ele>
        <time>2022-08-13T08:52:55Z</time>
      </trkpt>
      <trkpt lat="44.70834" lon="1.26724">
        <ele>258.4</ele>
        <time>2022-08-13T08:52:56Z</time>
      </trkpt>
      <trkpt lat="44.70833" lon="1.26732">
        <ele>258.4</ele>
        <time>2022-08-13T08:52:57Z</time>
      </trkpt>
      <trkpt lat="44.70832" lon="1.2674">
        <ele>258.4</ele>
        <time>2022-08-13T08:52:58Z</time>
      </trkpt>
      <trkpt lat="44.70832" lon="1.26748">
        <ele>258.4</ele>
        <time>2022-08-13T08:52:59Z</time>
      </trkpt>
      <trkpt lat="44.70832" lon="1.26756">
        <ele>258.4</ele>
        <time>2022-08-13T08:53:00Z</time>
      </trkpt>
      <trkpt lat="44.70831" lon="1.26765">
        <ele>258.4</ele>
        <time>2022-08-13T08:53:01Z</time>
      </trkpt>
      <trkpt lat="44.7083" lon="1.26772">
        <ele>258.4</ele>
        <time>2022-08-13T08:53:02Z</time>
      </trkpt>
      <trkpt lat="44.70827" lon="1.2678">
        <ele>257.4</ele>
        <time>2022-08-13T08:53:03Z</time>
      </trkpt>
      <trkpt lat="44.70822" lon="1.26787">
        <ele>257.4</ele>
        <time>2022-08-13T08:53:04Z</time>
      </trkpt>
      <trkpt lat="44.70818" lon="1.26794">
        <ele>256.4</ele>
        <time>2022-08-13T08:53:05Z</time>
      </trkpt>
      <trkpt lat="44.70816" lon="1.26801">
        <ele>255.4</ele>
        <time>2022-08-13T08:53:06Z</time>
      </trkpt>
      <trkpt lat="44.70813" lon="1.26807">
        <ele>255.4</ele>
        <time>2022-08-13T08:53:07Z</time>
      </trkpt>
      <trkpt lat="44.7081" lon="1.26814">
        <ele>254.4</ele>
        <time>2022-08-13T08:53:08Z</time>
      </trkpt>
      <trkpt lat="44.70807" lon="1.26822">
        <ele>253.4</ele>
        <time>2022-08-13T08:53:09Z</time>
      </trkpt>
      <trkpt lat="44.70804" lon="1.2683">
        <ele>253.4</ele>
        <time>2022-08-13T08:53:10Z</time>
      </trkpt>
      <trkpt lat="44.70801" lon="1.26837">
        <ele>252.4</ele>
        <time>2022-08-13T08:53:11Z</time>
      </trkpt>
      <trkpt lat="44.708" lon="1.26845">
        <ele>252.4</ele>
        <time>2022-08-13T08:53:12Z</time>
      </trkpt>
      <trkpt lat="44.70799" lon="1.26855">
        <ele>251.4</ele>
        <time>2022-08-13T08:53:13Z</time>
      </trkpt>
      <trkpt lat="44.70799" lon="1.26865">
        <ele>251.4</ele>
        <time>2022-08-13T08:53:14Z</time>
      </trkpt>
      <trkpt lat="44.708" lon="1.26874">
        <ele>251.4</ele>
        <time>2022-08-13T08:53:15Z</time>
      </trkpt>
      <trkpt lat="44.70801" lon="1.26881">
        <ele>252.4</ele>
        <time>2022-08-13T08:53:16Z</time>
      </trkpt>
      <trkpt lat="44.70803" lon="1.26887">
        <ele>252.4</ele>
        <time>2022-08-13T08:53:17Z</time>
      </trkpt>
      <trkpt lat="44.70806" lon="1.26894">
        <ele>252.4</ele>
        <time>2022-08-13T08:53:18Z</time>
      </trkpt>
      <trkpt lat="44.70808" lon="1.269">
        <ele>253.4</ele>
        <time>2022-08-13T08:53:19Z</time>
      </trkpt>
      <trkpt lat="44.70811" lon="1.26906">
        <ele>253.4</ele>
        <time>2022-08-13T08:53:20Z</time>
      </trkpt>
      <trkpt lat="44.70814" lon="1.26911">
        <ele>254.4</ele>
        <time>2022-08-13T08:53:21Z</time>
      </trkpt>
      <trkpt lat="44.70819" lon="1.26919">
        <ele>255.4</ele>
        <time>2022-08-13T08:53:23Z</time>
      </trkpt>
      <trkpt lat="44.70822" lon="1.26926">
        <ele>256.4</ele>
        <time>2022-08-13T08:53:26Z</time>
      </trkpt>
      <trkpt lat="44.70822" lon="1.26919">
        <ele>255.4</ele>
        <time>2022-08-13T08:53:58Z</time>
      </trkpt>
      <trkpt lat="44.70818" lon="1.26912">
        <ele>255.4</ele>
        <time>2022-08-13T08:54:00Z</time>
      </trkpt>
      <trkpt lat="44.70813" lon="1.26902">
        <ele>254.4</ele>
        <time>2022-08-13T08:54:02Z</time>
      </trkpt>
      <trkpt lat="44.7081" lon="1.26895">
        <ele>254.4</ele>
        <time>2022-08-13T08:54:03Z</time>
      </trkpt>
      <trkpt lat="44.70807" lon="1.26888">
        <ele>255.4</ele>
        <time>2022-08-13T08:54:04Z</time>
      </trkpt>
      <trkpt lat="44.70805" lon="1.26883">
        <ele>254.4</ele>
        <time>2022-08-13T08:54:05Z</time>
      </trkpt>
      <trkpt lat="44.70803" lon="1.26876">
        <ele>254.4</ele>
        <time>2022-08-13T08:54:06Z</time>
      </trkpt>
      <trkpt lat="44.70802" lon="1.26868">
        <ele>254.4</ele>
        <time>2022-08-13T08:54:07Z</time>
      </trkpt>
      <trkpt lat="44.70801" lon="1.2686">
        <ele>253.4</ele>
        <time>2022-08-13T08:54:08Z</time>
      </trkpt>
      <trkpt lat="44.70801" lon="1.26853">
        <ele>253.4</ele>
        <time>2022-08-13T08:54:09Z</time>
      </trkpt>
      <trkpt lat="44.70802" lon="1.26841">
        <ele>253.4</ele>
        <time>2022-08-13T08:54:11Z</time>
      </trkpt>
      <trkpt lat="44.70805" lon="1.26831">
        <ele>253.4</ele>
        <time>2022-08-13T08:54:13Z</time>
      </trkpt>
      <trkpt lat="44.70807" lon="1.26823">
        <ele>252.4</ele>
        <time>2022-08-13T08:54:15Z</time>
      </trkpt>
      <trkpt lat="44.7081" lon="1.26816">
        <ele>253.4</ele>
        <time>2022-08-13T08:54:17Z</time>
      </trkpt>
      <trkpt lat="44.70813" lon="1.2681">
        <ele>253.4</ele>
        <time>2022-08-13T08:54:19Z</time>
      </trkpt>
      <trkpt lat="44.70816" lon="1.26802">
        <ele>252.4</ele>
        <time>2022-08-13T08:54:22Z</time>
      </trkpt>
      <trkpt lat="44.70818" lon="1.26796">
        <ele>252.4</ele>
        <time>2022-08-13T08:54:24Z</time>
      </trkpt>
      <trkpt lat="44.70821" lon="1.26789">
        <ele>252.4</ele>
        <time>2022-08-13T08:54:26Z</time>
      </trkpt>
      <trkpt lat="44.70824" lon="1.26782">
        <ele>252.4</ele>
        <time>2022-08-13T08:54:28Z</time>
      </trkpt>
      <trkpt lat="44.70828" lon="1.26776">
        <ele>252.4</ele>
        <time>2022-08-13T08:54:30Z</time>
      </trkpt>
      <trkpt lat="44.70831" lon="1.26769">
        <ele>252.4</ele>
        <time>2022-08-13T08:54:32Z</time>
      </trkpt>
      <trkpt lat="44.70833" lon="1.26762">
        <ele>252.4</ele>
        <time>2022-08-13T08:54:34Z</time>
      </trkpt>
      <trkpt lat="44.70833" lon="1.26755">
        <ele>251.4</ele>
        <time>2022-08-13T08:54:36Z</time>
      </trkpt>
      <trkpt lat="44.70833" lon="1.26747">
        <ele>252.4</ele>
        <time>2022-08-13T08:54:38Z</time>
      </trkpt>
      <trkpt lat="44.70834" lon="1.26739">
        <ele>252.4</ele>
        <time>2022-08-13T08:54:40Z</time>
      </trkpt>
      <trkpt lat="44.70834" lon="1.2673">
        <ele>252.4</ele>
        <time>2022-08-13T08:54:42Z</time>
      </trkpt>
      <trkpt lat="44.70835" lon="1.26721">
        <ele>253.4</ele>
        <time>2022-08-13T08:54:44Z</time>
      </trkpt>
      <trkpt lat="44.70836" lon="1.2671">
        <ele>253.4</ele>
        <time>2022-08-13T08:54:46Z</time>
      </trkpt>
      <trkpt lat="44.70836" lon="1.26701">
        <ele>253.4</ele>
        <time>2022-08-13T08:54:48Z</time>
      </trkpt>
      <trkpt lat="44.70836" lon="1.26691">
        <ele>253.4</ele>
        <time>2022-08-13T08:54:50Z</time>
      </trkpt>
      <trkpt lat="44.70835" lon="1.26681">
        <ele>254.4</ele>
        <time>2022-08-13T08:54:52Z</time>
      </trkpt>
      <trkpt lat="44.70833" lon="1.26673">
        <ele>254.4</ele>
        <time>2022-08-13T08:54:54Z</time>
      </trkpt>
      <trkpt lat="44.70831" lon="1.26664">
        <ele>254.4</ele>
        <time>2022-08-13T08:54:56Z</time>
      </trkpt>
      <trkpt lat="44.70829" lon="1.26655">
        <ele>254.4</ele>
        <time>2022-08-13T08:54:58Z</time>
      </trkpt>
      <trkpt lat="44.70827" lon="1.26646">
        <ele>254.4</ele>
        <time>2022-08-13T08:55:00Z</time>
      </trkpt>
      <trkpt lat="44.70825" lon="1.26637">
        <ele>255.4</ele>
        <time>2022-08-13T08:55:02Z</time>
      </trkpt>
      <trkpt lat="44.70824" lon="1.26628">
        <ele>255.4</ele>
        <time>2022-08-13T08:55:04Z</time>
      </trkpt>
      <trkpt lat="44.70823" lon="1.26618">
        <ele>256.4</ele>
        <time>2022-08-13T08:55:06Z</time>
      </trkpt>
      <trkpt lat="44.70821" lon="1.26609">
        <ele>256.4</ele>
        <time>2022-08-13T08:55:08Z</time>
      </trkpt>
      <trkpt lat="44.70818" lon="1.266">
        <ele>256.4</ele>
        <time>2022-08-13T08:55:10Z</time>
      </trkpt>
      <trkpt lat="44.70816" lon="1.2659">
        <ele>256.4</ele>
        <time>2022-08-13T08:55:12Z</time>
      </trkpt>
      <trkpt lat="44.70813" lon="1.26582">
        <ele>257.4</ele>
        <time>2022-08-13T08:55:14Z</time>
      </trkpt>
      <trkpt lat="44.70809" lon="1.26572">
        <ele>257.4</ele>
        <time>2022-08-13T08:55:16Z</time>
      </trkpt>
      <trkpt lat="44.70805" lon="1.26563">
        <ele>256.4</ele>
        <time>2022-08-13T08:55:18Z</time>
      </trkpt>
      <trkpt lat="44.70802" lon="1.26553">
        <ele>257.4</ele>
        <time>2022-08-13T08:55:20Z</time>
      </trkpt>
      <trkpt lat="44.70798" lon="1.26543">
        <ele>256.4</ele>
        <time>2022-08-13T08:55:22Z</time>
      </trkpt>
      <trkpt lat="44.70796" lon="1.26533">
        <ele>257.4</ele>
        <time>2022-08-13T08:55:24Z</time>
      </trkpt>
      <trkpt lat="44.70794" lon="1.26523">
        <ele>258.4</ele>
        <time>2022-08-13T08:55:26Z</time>
      </trkpt>
      <trkpt lat="44.70793" lon="1.26514">
        <ele>258.4</ele>
        <time>2022-08-13T08:55:28Z</time>
      </trkpt>
      <trkpt lat="44.70793" lon="1.26504">
        <ele>258.4</ele>
        <time>2022-08-13T08:55:30Z</time>
      </trkpt>
      <trkpt lat="44.70792" lon="1.26494">
        <ele>257.4</ele>
        <time>2022-08-13T08:55:32Z</time>
      </trkpt>
      <trkpt lat="44.70791" lon="1.26486">
        <ele>257.4</ele>
        <time>2022-08-13T08:55:34Z</time>
      </trkpt>
      <trkpt lat="44.70788" lon="1.26481">
        <ele>258.4</ele>
        <time>2022-08-13T08:55:37Z</time>
      </trkpt>
      <trkpt lat="44.70784" lon="1.26474">
        <ele>258.4</ele>
        <time>2022-08-13T08:55:41Z</time>
      </trkpt>
      <trkpt lat="44.70783" lon="1.26468">
        <ele>258.4</ele>
        <time>2022-08-13T08:55:43Z</time>
      </trkpt>
      <trkpt lat="44.70782" lon="1.26461">
        <ele>258.4</ele>
        <time>2022-08-13T08:55:45Z</time>
      </trkpt>
      <trkpt lat="44.70781" lon="1.26455">
        <ele>258.4</ele>
        <time>2022-08-13T08:55:47Z</time>
      </trkpt>
      <trkpt lat="44.70785" lon="1.26462">
        <ele>258.4</ele>
        <time>2022-08-13T08:55:54Z</time>
      </trkpt>
      <trkpt lat="44.70787" lon="1.2647">
        <ele>258.4</ele>
        <time>2022-08-13T08:55:56Z</time>
      </trkpt>
      <trkpt lat="44.7079" lon="1.26479">
        <ele>257.4</ele>
        <time>2022-08-13T08:55:58Z</time>
      </trkpt>
      <trkpt lat="44.70795" lon="1.26487">
        <ele>257.4</ele>
        <time>2022-08-13T08:56:00Z</time>
      </trkpt>
      <trkpt lat="44.70802" lon="1.26493">
        <ele>256.4</ele>
        <time>2022-08-13T08:56:02Z</time>
      </trkpt>
      <trkpt lat="44.7081" lon="1.26498">
        <ele>256.4</ele>
        <time>2022-08-13T08:56:04Z</time>
      </trkpt>
      <trkpt lat="44.70818" lon="1.26503">
        <ele>256.4</ele>
        <time>2022-08-13T08:56:06Z</time>
      </trkpt>
      <trkpt lat="44.70823" lon="1.26506">
        <ele>255.4</ele>
        <time>2022-08-13T08:56:07Z</time>
      </trkpt>
      <trkpt lat="44.70829" lon="1.26509">
        <ele>255.4</ele>
        <time>2022-08-13T08:56:08Z</time>
      </trkpt>
      <trkpt lat="44.70836" lon="1.26512">
        <ele>255.4</ele>
        <time>2022-08-13T08:56:09Z</time>
      </trkpt>
      <trkpt lat="44.70843" lon="1.26516">
        <ele>254.4</ele>
        <time>2022-08-13T08:56:10Z</time>
      </trkpt>
      <trkpt lat="44.70849" lon="1.26521">
        <ele>253.4</ele>
        <time>2022-08-13T08:56:11Z</time>
      </trkpt>
      <trkpt lat="44.70855" lon="1.26529">
        <ele>252.4</ele>
        <time>2022-08-13T08:56:12Z</time>
      </trkpt>
      <trkpt lat="44.70862" lon="1.26538">
        <ele>251.4</ele>
        <time>2022-08-13T08:56:13Z</time>
      </trkpt>
      <trkpt lat="44.70866" lon="1.26546">
        <ele>251.4</ele>
        <time>2022-08-13T08:56:14Z</time>
      </trkpt>
      <trkpt lat="44.7087" lon="1.26554">
        <ele>250.4</ele>
        <time>2022-08-13T08:56:15Z</time>
      </trkpt>
      <trkpt lat="44.70874" lon="1.26561">
        <ele>249.4</ele>
        <time>2022-08-13T08:56:16Z</time>
      </trkpt>
      <trkpt lat="44.70879" lon="1.2657">
        <ele>248.4</ele>
        <time>2022-08-13T08:56:17Z</time>
      </trkpt>
      <trkpt lat="44.70882" lon="1.26579">
        <ele>248.4</ele>
        <time>2022-08-13T08:56:18Z</time>
      </trkpt>
      <trkpt lat="44.70886" lon="1.26588">
        <ele>247.4</ele>
        <time>2022-08-13T08:56:19Z</time>
      </trkpt>
      <trkpt lat="44.70888" lon="1.26598">
        <ele>247.4</ele>
        <time>2022-08-13T08:56:20Z</time>
      </trkpt>
      <trkpt lat="44.70891" lon="1.26608">
        <ele>246.4</ele>
        <time>2022-08-13T08:56:21Z</time>
      </trkpt>
      <trkpt lat="44.70893" lon="1.26619">
        <ele>245.4</ele>
        <time>2022-08-13T08:56:22Z</time>
      </trkpt>
      <trkpt lat="44.70896" lon="1.2663">
        <ele>245.4</ele>
        <time>2022-08-13T08:56:23Z</time>
      </trkpt>
      <trkpt lat="44.70899" lon="1.26641">
        <ele>244.4</ele>
        <time>2022-08-13T08:56:24Z</time>
      </trkpt>
      <trkpt lat="44.70902" lon="1.26651">
        <ele>243.4</ele>
        <time>2022-08-13T08:56:25Z</time>
      </trkpt>
      <trkpt lat="44.70904" lon="1.2666">
        <ele>243.4</ele>
        <time>2022-08-13T08:56:26Z</time>
      </trkpt>
      <trkpt lat="44.70907" lon="1.26669">
        <ele>242.4</ele>
        <time>2022-08-13T08:56:27Z</time>
      </trkpt>
      <trkpt lat="44.70909" lon="1.26679">
        <ele>242.4</ele>
        <time>2022-08-13T08:56:28Z</time>
      </trkpt>
      <trkpt lat="44.70912" lon="1.26688">
        <ele>241.4</ele>
        <time>2022-08-13T08:56:29Z</time>
      </trkpt>
      <trkpt lat="44.70915" lon="1.26697">
        <ele>241.4</ele>
        <time>2022-08-13T08:56:30Z</time>
      </trkpt>
      <trkpt lat="44.70919" lon="1.26706">
        <ele>240.4</ele>
        <time>2022-08-13T08:56:31Z</time>
      </trkpt>
      <trkpt lat="44.70922" lon="1.26714">
        <ele>239.4</ele>
        <time>2022-08-13T08:56:32Z</time>
      </trkpt>
      <trkpt lat="44.70926" lon="1.26723">
        <ele>239.4</ele>
        <time>2022-08-13T08:56:33Z</time>
      </trkpt>
      <trkpt lat="44.7093" lon="1.26731">
        <ele>238.4</ele>
        <time>2022-08-13T08:56:34Z</time>
      </trkpt>
      <trkpt lat="44.70934" lon="1.26738">
        <ele>238.4</ele>
        <time>2022-08-13T08:56:35Z</time>
      </trkpt>
      <trkpt lat="44.70939" lon="1.26745">
        <ele>237.4</ele>
        <time>2022-08-13T08:56:36Z</time>
      </trkpt>
      <trkpt lat="44.70943" lon="1.2675">
        <ele>236.4</ele>
        <time>2022-08-13T08:56:37Z</time>
      </trkpt>
      <trkpt lat="44.70948" lon="1.26756">
        <ele>236.4</ele>
        <time>2022-08-13T08:56:38Z</time>
      </trkpt>
      <trkpt lat="44.70953" lon="1.26761">
        <ele>235.4</ele>
        <time>2022-08-13T08:56:39Z</time>
      </trkpt>
      <trkpt lat="44.70958" lon="1.26766">
        <ele>236.4</ele>
        <time>2022-08-13T08:56:40Z</time>
      </trkpt>
      <trkpt lat="44.70962" lon="1.2677">
        <ele>235.4</ele>
        <time>2022-08-13T08:56:41Z</time>
      </trkpt>
      <trkpt lat="44.70968" lon="1.26775">
        <ele>235.4</ele>
        <time>2022-08-13T08:56:42Z</time>
      </trkpt>
      <trkpt lat="44.70972" lon="1.26782">
        <ele>235.4</ele>
        <time>2022-08-13T08:56:43Z</time>
      </trkpt>
      <trkpt lat="44.70975" lon="1.26788">
        <ele>236.4</ele>
        <time>2022-08-13T08:56:44Z</time>
      </trkpt>
      <trkpt lat="44.70979" lon="1.26791">
        <ele>236.4</ele>
        <time>2022-08-13T08:56:45Z</time>
      </trkpt>
      <trkpt lat="44.70984" lon="1.26792">
        <ele>236.4</ele>
        <time>2022-08-13T08:56:46Z</time>
      </trkpt>
      <trkpt lat="44.70991" lon="1.26793">
        <ele>235.4</ele>
        <time>2022-08-13T08:56:48Z</time>
      </trkpt>
      <trkpt lat="44.70997" lon="1.26794">
        <ele>235.4</ele>
        <time>2022-08-13T08:56:50Z</time>
      </trkpt>
      <trkpt lat="44.71004" lon="1.26795">
        <ele>234.4</ele>
        <time>2022-08-13T08:56:52Z</time>
      </trkpt>
      <trkpt lat="44.7101" lon="1.26796">
        <ele>233.4</ele>
        <time>2022-08-13T08:56:54Z</time>
      </trkpt>
      <trkpt lat="44.71016" lon="1.26801">
        <ele>234.4</ele>
        <time>2022-08-13T08:56:56Z</time>
      </trkpt>
      <trkpt lat="44.71018" lon="1.26809">
        <ele>235.4</ele>
        <time>2022-08-13T08:56:58Z</time>
      </trkpt>
      <trkpt lat="44.71018" lon="1.26817">
        <ele>235.4</ele>
        <time>2022-08-13T08:57:00Z</time>
      </trkpt>
      <trkpt lat="44.71017" lon="1.26824">
        <ele>235.4</ele>
        <time>2022-08-13T08:57:02Z</time>
      </trkpt>
      <trkpt lat="44.71017" lon="1.26832">
        <ele>236.4</ele>
        <time>2022-08-13T08:57:04Z</time>
      </trkpt>
      <trkpt lat="44.71017" lon="1.2684">
        <ele>236.4</ele>
        <time>2022-08-13T08:57:06Z</time>
      </trkpt>
      <trkpt lat="44.71016" lon="1.26849">
        <ele>236.4</ele>
        <time>2022-08-13T08:57:08Z</time>
      </trkpt>
      <trkpt lat="44.71016" lon="1.26857">
        <ele>236.4</ele>
        <time>2022-08-13T08:57:10Z</time>
      </trkpt>
      <trkpt lat="44.71015" lon="1.26865">
        <ele>236.4</ele>
        <time>2022-08-13T08:57:12Z</time>
      </trkpt>
      <trkpt lat="44.71014" lon="1.26874">
        <ele>236.4</ele>
        <time>2022-08-13T08:57:14Z</time>
      </trkpt>
      <trkpt lat="44.71014" lon="1.26883">
        <ele>237.4</ele>
        <time>2022-08-13T08:57:16Z</time>
      </trkpt>
      <trkpt lat="44.71013" lon="1.26892">
        <ele>237.4</ele>
        <time>2022-08-13T08:57:18Z</time>
      </trkpt>
      <trkpt lat="44.71012" lon="1.269">
        <ele>238.4</ele>
        <time>2022-08-13T08:57:20Z</time>
      </trkpt>
      <trkpt lat="44.71014" lon="1.26909">
        <ele>239.4</ele>
        <time>2022-08-13T08:57:22Z</time>
      </trkpt>
      <trkpt lat="44.71016" lon="1.26918">
        <ele>239.4</ele>
        <time>2022-08-13T08:57:24Z</time>
      </trkpt>
      <trkpt lat="44.71017" lon="1.26924">
        <ele>239.4</ele>
        <time>2022-08-13T08:57:25Z</time>
      </trkpt>
      <trkpt lat="44.7102" lon="1.26936">
        <ele>242.4</ele>
        <time>2022-08-13T08:57:27Z</time>
      </trkpt>
      <trkpt lat="44.71022" lon="1.26942">
        <ele>242.4</ele>
        <time>2022-08-13T08:57:28Z</time>
      </trkpt>
      <trkpt lat="44.71024" lon="1.26948">
        <ele>243.4</ele>
        <time>2022-08-13T08:57:29Z</time>
      </trkpt>
      <trkpt lat="44.71026" lon="1.26954">
        <ele>243.4</ele>
        <time>2022-08-13T08:57:30Z</time>
      </trkpt>
      <trkpt lat="44.71029" lon="1.26962">
        <ele>243.4</ele>
        <time>2022-08-13T08:57:31Z</time>
      </trkpt>
      <trkpt lat="44.71032" lon="1.2697">
        <ele>244.4</ele>
        <time>2022-08-13T08:57:32Z</time>
      </trkpt>
      <trkpt lat="44.71035" lon="1.26978">
        <ele>244.4</ele>
        <time>2022-08-13T08:57:33Z</time>
      </trkpt>
      <trkpt lat="44.71038" lon="1.26988">
        <ele>244.4</ele>
        <time>2022-08-13T08:57:34Z</time>
      </trkpt>
      <trkpt lat="44.71042" lon="1.26998">
        <ele>244.4</ele>
        <time>2022-08-13T08:57:35Z</time>
      </trkpt>
      <trkpt lat="44.71046" lon="1.27008">
        <ele>244.4</ele>
        <time>2022-08-13T08:57:36Z</time>
      </trkpt>
      <trkpt lat="44.71049" lon="1.27017">
        <ele>244.4</ele>
        <time>2022-08-13T08:57:37Z</time>
      </trkpt>
      <trkpt lat="44.71053" lon="1.27026">
        <ele>244.4</ele>
        <time>2022-08-13T08:57:38Z</time>
      </trkpt>
      <trkpt lat="44.71058" lon="1.27034">
        <ele>243.4</ele>
        <time>2022-08-13T08:57:39Z</time>
      </trkpt>
      <trkpt lat="44.71064" lon="1.27041">
        <ele>243.4</ele>
        <time>2022-08-13T08:57:40Z</time>
      </trkpt>
      <trkpt lat="44.7107" lon="1.27048">
        <ele>242.4</ele>
        <time>2022-08-13T08:57:41Z</time>
      </trkpt>
      <trkpt lat="44.71077" lon="1.27055">
        <ele>242.4</ele>
        <time>2022-08-13T08:57:42Z</time>
      </trkpt>
      <trkpt lat="44.71083" lon="1.27062">
        <ele>241.4</ele>
        <time>2022-08-13T08:57:43Z</time>
      </trkpt>
      <trkpt lat="44.71089" lon="1.27069">
        <ele>240.4</ele>
        <time>2022-08-13T08:57:44Z</time>
      </trkpt>
      <trkpt lat="44.71096" lon="1.27075">
        <ele>240.4</ele>
        <time>2022-08-13T08:57:45Z</time>
      </trkpt>
      <trkpt lat="44.71102" lon="1.27081">
        <ele>240.4</ele>
        <time>2022-08-13T08:57:46Z</time>
      </trkpt>
      <trkpt lat="44.71108" lon="1.27088">
        <ele>240.4</ele>
        <time>2022-08-13T08:57:47Z</time>
      </trkpt>
      <trkpt lat="44.71114" lon="1.27094">
        <ele>239.4</ele>
        <time>2022-08-13T08:57:48Z</time>
      </trkpt>
      <trkpt lat="44.71119" lon="1.27099">
        <ele>239.4</ele>
        <time>2022-08-13T08:57:49Z</time>
      </trkpt>
      <trkpt lat="44.71123" lon="1.27105">
        <ele>238.4</ele>
        <time>2022-08-13T08:57:50Z</time>
      </trkpt>
      <trkpt lat="44.71126" lon="1.27109">
        <ele>238.4</ele>
        <time>2022-08-13T08:57:51Z</time>
      </trkpt>
      <trkpt lat="44.71133" lon="1.27115">
        <ele>237.4</ele>
        <time>2022-08-13T08:57:53Z</time>
      </trkpt>
      <trkpt lat="44.71138" lon="1.27121">
        <ele>238.4</ele>
        <time>2022-08-13T08:57:55Z</time>
      </trkpt>
      <trkpt lat="44.71143" lon="1.27126">
        <ele>238.4</ele>
        <time>2022-08-13T08:57:57Z</time>
      </trkpt>
      <trkpt lat="44.71147" lon="1.2713">
        <ele>238.4</ele>
        <time>2022-08-13T08:57:59Z</time>
      </trkpt>
      <trkpt lat="44.71152" lon="1.27134">
        <ele>238.4</ele>
        <time>2022-08-13T08:58:01Z</time>
      </trkpt>
      <trkpt lat="44.71156" lon="1.27138">
        <ele>239.4</ele>
        <time>2022-08-13T08:58:03Z</time>
      </trkpt>
      <trkpt lat="44.71161" lon="1.2714">
        <ele>239.4</ele>
        <time>2022-08-13T08:58:05Z</time>
      </trkpt>
      <trkpt lat="44.71165" lon="1.27144">
        <ele>240.4</ele>
        <time>2022-08-13T08:58:07Z</time>
      </trkpt>
      <trkpt lat="44.71168" lon="1.27149">
        <ele>240.4</ele>
        <time>2022-08-13T08:58:09Z</time>
      </trkpt>
      <trkpt lat="44.7117" lon="1.27156">
        <ele>240.4</ele>
        <time>2022-08-13T08:58:11Z</time>
      </trkpt>
      <trkpt lat="44.7117" lon="1.27164">
        <ele>241.4</ele>
        <time>2022-08-13T08:58:13Z</time>
      </trkpt>
      <trkpt lat="44.71169" lon="1.27172">
        <ele>241.4</ele>
        <time>2022-08-13T08:58:16Z</time>
      </trkpt>
      <trkpt lat="44.71165" lon="1.27179">
        <ele>241.4</ele>
        <time>2022-08-13T08:58:19Z</time>
      </trkpt>
      <trkpt lat="44.71162" lon="1.27185">
        <ele>241.4</ele>
        <time>2022-08-13T08:58:22Z</time>
      </trkpt>
      <trkpt lat="44.71157" lon="1.27189">
        <ele>241.4</ele>
        <time>2022-08-13T08:58:46Z</time>
      </trkpt>
      <trkpt lat="44.71152" lon="1.27193">
        <ele>241.4</ele>
        <time>2022-08-13T08:58:49Z</time>
      </trkpt>
      <trkpt lat="44.71147" lon="1.27193">
        <ele>241.4</ele>
        <time>2022-08-13T08:58:53Z</time>
      </trkpt>
      <trkpt lat="44.71151" lon="1.27197">
        <ele>239.4</ele>
        <time>2022-08-13T08:58:59Z</time>
      </trkpt>
      <trkpt lat="44.71157" lon="1.27194">
        <ele>240.4</ele>
        <time>2022-08-13T08:59:02Z</time>
      </trkpt>
      <trkpt lat="44.71163" lon="1.27194">
        <ele>241.4</ele>
        <time>2022-08-13T08:59:05Z</time>
      </trkpt>
      <trkpt lat="44.7117" lon="1.27196">
        <ele>242.4</ele>
        <time>2022-08-13T08:59:08Z</time>
      </trkpt>
      <trkpt lat="44.71175" lon="1.27199">
        <ele>242.4</ele>
        <time>2022-08-13T08:59:11Z</time>
      </trkpt>
      <trkpt lat="44.71176" lon="1.27206">
        <ele>251.4</ele>
        <time>2022-08-13T09:25:31Z</time>
      </trkpt>
      <trkpt lat="44.7118" lon="1.27206">
        <ele>253.4</ele>
        <time>2022-08-13T09:25:45Z</time>
      </trkpt>
      <trkpt lat="44.71176" lon="1.27203">
        <ele>252.4</ele>
        <time>2022-08-13T09:26:59Z</time>
      </trkpt>
      <trkpt lat="44.71172" lon="1.27201">
        <ele>251.4</ele>
        <time>2022-08-13T09:27:02Z</time>
      </trkpt>
      <trkpt lat="44.71165" lon="1.27199">
        <ele>250.4</ele>
        <time>2022-08-13T09:27:04Z</time>
      </trkpt>
      <trkpt lat="44.71158" lon="1.27195">
        <ele>248.4</ele>
        <time>2022-08-13T09:27:06Z</time>
      </trkpt>
      <trkpt lat="44.7115" lon="1.27189">
        <ele>246.4</ele>
        <time>2022-08-13T09:27:08Z</time>
      </trkpt>
      <trkpt lat="44.71146" lon="1.27186">
        <ele>245.4</ele>
        <time>2022-08-13T09:27:09Z</time>
      </trkpt>
      <trkpt lat="44.71142" lon="1.27183">
        <ele>244.4</ele>
        <time>2022-08-13T09:27:10Z</time>
      </trkpt>
      <trkpt lat="44.71134" lon="1.27178">
        <ele>242.4</ele>
        <time>2022-08-13T09:27:12Z</time>
      </trkpt>
      <trkpt lat="44.7113" lon="1.27175">
        <ele>242.4</ele>
        <time>2022-08-13T09:27:13Z</time>
      </trkpt>
      <trkpt lat="44.71125" lon="1.27173">
        <ele>241.4</ele>
        <time>2022-08-13T09:27:14Z</time>
      </trkpt>
      <trkpt lat="44.71121" lon="1.2717">
        <ele>240.4</ele>
        <time>2022-08-13T09:27:15Z</time>
      </trkpt>
      <trkpt lat="44.71117" lon="1.27166">
        <ele>239.4</ele>
        <time>2022-08-13T09:27:16Z</time>
      </trkpt>
      <trkpt lat="44.71112" lon="1.27163">
        <ele>238.4</ele>
        <time>2022-08-13T09:27:17Z</time>
      </trkpt>
      <trkpt lat="44.71107" lon="1.2716">
        <ele>238.4</ele>
        <time>2022-08-13T09:27:18Z</time>
      </trkpt>
      <trkpt lat="44.71103" lon="1.27157">
        <ele>237.4</ele>
        <time>2022-08-13T09:27:19Z</time>
      </trkpt>
      <trkpt lat="44.71096" lon="1.27152">
        <ele>236.4</ele>
        <time>2022-08-13T09:27:21Z</time>
      </trkpt>
      <trkpt lat="44.71091" lon="1.27149">
        <ele>237.4</ele>
        <time>2022-08-13T09:27:24Z</time>
      </trkpt>
      <trkpt lat="44.71086" lon="1.27146">
        <ele>237.4</ele>
        <time>2022-08-13T09:27:28Z</time>
      </trkpt>
      <trkpt lat="44.71081" lon="1.27143">
        <ele>237.4</ele>
        <time>2022-08-13T09:27:31Z</time>
      </trkpt>
      <trkpt lat="44.71075" lon="1.27141">
        <ele>237.4</ele>
        <time>2022-08-13T09:27:34Z</time>
      </trkpt>
      <trkpt lat="44.71069" lon="1.27137">
        <ele>238.4</ele>
        <time>2022-08-13T09:27:37Z</time>
      </trkpt>
      <trkpt lat="44.71064" lon="1.27135">
        <ele>238.4</ele>
        <time>2022-08-13T09:27:39Z</time>
      </trkpt>
      <trkpt lat="44.71059" lon="1.2713">
        <ele>238.4</ele>
        <time>2022-08-13T09:27:41Z</time>
      </trkpt>
      <trkpt lat="44.71055" lon="1.27126">
        <ele>237.4</ele>
        <time>2022-08-13T09:27:43Z</time>
      </trkpt>
      <trkpt lat="44.71048" lon="1.27123">
        <ele>237.4</ele>
        <time>2022-08-13T09:27:45Z</time>
      </trkpt>
      <trkpt lat="44.71042" lon="1.27119">
        <ele>237.4</ele>
        <time>2022-08-13T09:27:47Z</time>
      </trkpt>
      <trkpt lat="44.71035" lon="1.27115">
        <ele>236.4</ele>
        <time>2022-08-13T09:27:49Z</time>
      </trkpt>
      <trkpt lat="44.71028" lon="1.27111">
        <ele>235.4</ele>
        <time>2022-08-13T09:27:51Z</time>
      </trkpt>
      <trkpt lat="44.71021" lon="1.27105">
        <ele>235.4</ele>
        <time>2022-08-13T09:27:53Z</time>
      </trkpt>
      <trkpt lat="44.71013" lon="1.27101">
        <ele>235.4</ele>
        <time>2022-08-13T09:27:55Z</time>
      </trkpt>
      <trkpt lat="44.71007" lon="1.27096">
        <ele>235.4</ele>
        <time>2022-08-13T09:27:57Z</time>
      </trkpt>
      <trkpt lat="44.71001" lon="1.27092">
        <ele>234.4</ele>
        <time>2022-08-13T09:27:59Z</time>
      </trkpt>
      <trkpt lat="44.70995" lon="1.27089">
        <ele>235.4</ele>
        <time>2022-08-13T09:28:01Z</time>
      </trkpt>
      <trkpt lat="44.7099" lon="1.27086">
        <ele>235.4</ele>
        <time>2022-08-13T09:28:03Z</time>
      </trkpt>
      <trkpt lat="44.70984" lon="1.27082">
        <ele>235.4</ele>
        <time>2022-08-13T09:28:05Z</time>
      </trkpt>
      <trkpt lat="44.70979" lon="1.27077">
        <ele>235.4</ele>
        <time>2022-08-13T09:28:07Z</time>
      </trkpt>
      <trkpt lat="44.70973" lon="1.27074">
        <ele>235.4</ele>
        <time>2022-08-13T09:28:09Z</time>
      </trkpt>
      <trkpt lat="44.70967" lon="1.27072">
        <ele>236.4</ele>
        <time>2022-08-13T09:28:11Z</time>
      </trkpt>
      <trkpt lat="44.70961" lon="1.27072">
        <ele>236.4</ele>
        <time>2022-08-13T09:28:13Z</time>
      </trkpt>
      <trkpt lat="44.70955" lon="1.27073">
        <ele>236.4</ele>
        <time>2022-08-13T09:28:15Z</time>
      </trkpt>
      <trkpt lat="44.70949" lon="1.27074">
        <ele>237.4</ele>
        <time>2022-08-13T09:28:17Z</time>
      </trkpt>
      <trkpt lat="44.70942" lon="1.27077">
        <ele>237.4</ele>
        <time>2022-08-13T09:28:19Z</time>
      </trkpt>
      <trkpt lat="44.70938" lon="1.27081">
        <ele>236.4</ele>
        <time>2022-08-13T09:28:21Z</time>
      </trkpt>
      <trkpt lat="44.70934" lon="1.27085">
        <ele>237.4</ele>
        <time>2022-08-13T09:28:23Z</time>
      </trkpt>
      <trkpt lat="44.70929" lon="1.27087">
        <ele>237.4</ele>
        <time>2022-08-13T09:28:25Z</time>
      </trkpt>
      <trkpt lat="44.70925" lon="1.27091">
        <ele>237.4</ele>
        <time>2022-08-13T09:28:27Z</time>
      </trkpt>
      <trkpt lat="44.7092" lon="1.27096">
        <ele>237.4</ele>
        <time>2022-08-13T09:28:29Z</time>
      </trkpt>
      <trkpt lat="44.70913" lon="1.271">
        <ele>236.4</ele>
        <time>2022-08-13T09:28:31Z</time>
      </trkpt>
      <trkpt lat="44.70907" lon="1.27105">
        <ele>236.4</ele>
        <time>2022-08-13T09:28:33Z</time>
      </trkpt>
      <trkpt lat="44.70902" lon="1.27111">
        <ele>236.4</ele>
        <time>2022-08-13T09:28:35Z</time>
      </trkpt>
      <trkpt lat="44.70897" lon="1.27118">
        <ele>236.4</ele>
        <time>2022-08-13T09:28:37Z</time>
      </trkpt>
      <trkpt lat="44.70892" lon="1.27125">
        <ele>236.4</ele>
        <time>2022-08-13T09:28:39Z</time>
      </trkpt>
      <trkpt lat="44.70889" lon="1.27133">
        <ele>236.4</ele>
        <time>2022-08-13T09:28:41Z</time>
      </trkpt>
      <trkpt lat="44.70885" lon="1.27139">
        <ele>237.4</ele>
        <time>2022-08-13T09:28:43Z</time>
      </trkpt>
      <trkpt lat="44.70881" lon="1.27147">
        <ele>237.4</ele>
        <time>2022-08-13T09:28:45Z</time>
      </trkpt>
      <trkpt lat="44.70877" lon="1.27155">
        <ele>237.4</ele>
        <time>2022-08-13T09:28:47Z</time>
      </trkpt>
      <trkpt lat="44.70873" lon="1.27163">
        <ele>238.4</ele>
        <time>2022-08-13T09:28:49Z</time>
      </trkpt>
      <trkpt lat="44.70868" lon="1.2717">
        <ele>238.4</ele>
        <time>2022-08-13T09:28:51Z</time>
      </trkpt>
      <trkpt lat="44.70864" lon="1.27178">
        <ele>238.4</ele>
        <time>2022-08-13T09:28:53Z</time>
      </trkpt>
      <trkpt lat="44.70859" lon="1.27184">
        <ele>238.4</ele>
        <time>2022-08-13T09:28:55Z</time>
      </trkpt>
      <trkpt lat="44.70855" lon="1.27191">
        <ele>239.4</ele>
        <time>2022-08-13T09:28:57Z</time>
      </trkpt>
      <trkpt lat="44.7085" lon="1.27196">
        <ele>239.4</ele>
        <time>2022-08-13T09:28:59Z</time>
      </trkpt>
      <trkpt lat="44.70845" lon="1.27201">
        <ele>239.4</ele>
        <time>2022-08-13T09:29:01Z</time>
      </trkpt>
      <trkpt lat="44.7084" lon="1.27205">
        <ele>240.4</ele>
        <time>2022-08-13T09:29:03Z</time>
      </trkpt>
      <trkpt lat="44.70834" lon="1.2721">
        <ele>240.4</ele>
        <time>2022-08-13T09:29:05Z</time>
      </trkpt>
      <trkpt lat="44.7083" lon="1.27214">
        <ele>239.4</ele>
        <time>2022-08-13T09:29:07Z</time>
      </trkpt>
      <trkpt lat="44.70825" lon="1.27217">
        <ele>239.4</ele>
        <time>2022-08-13T09:29:11Z</time>
      </trkpt>
      <trkpt lat="44.70819" lon="1.27219">
        <ele>241.4</ele>
        <time>2022-08-13T09:30:45Z</time>
      </trkpt>
      <trkpt lat="44.70814" lon="1.2722">
        <ele>240.4</ele>
        <time>2022-08-13T09:30:47Z</time>
      </trkpt>
      <trkpt lat="44.70808" lon="1.27219">
        <ele>238.4</ele>
        <time>2022-08-13T09:30:49Z</time>
      </trkpt>
      <trkpt lat="44.70799" lon="1.27217">
        <ele>236.4</ele>
        <time>2022-08-13T09:30:52Z</time>
      </trkpt>
      <trkpt lat="44.70793" lon="1.27215">
        <ele>235.4</ele>
        <time>2022-08-13T09:30:54Z</time>
      </trkpt>
      <trkpt lat="44.70787" lon="1.27213">
        <ele>234.4</ele>
        <time>2022-08-13T09:30:56Z</time>
      </trkpt>
      <trkpt lat="44.70782" lon="1.27209">
        <ele>233.4</ele>
        <time>2022-08-13T09:30:58Z</time>
      </trkpt>
      <trkpt lat="44.70776" lon="1.27203">
        <ele>233.4</ele>
        <time>2022-08-13T09:31:00Z</time>
      </trkpt>
      <trkpt lat="44.7077" lon="1.27198">
        <ele>233.4</ele>
        <time>2022-08-13T09:31:02Z</time>
      </trkpt>
      <trkpt lat="44.70765" lon="1.27192">
        <ele>233.4</ele>
        <time>2022-08-13T09:31:04Z</time>
      </trkpt>
      <trkpt lat="44.7076" lon="1.27185">
        <ele>233.4</ele>
        <time>2022-08-13T09:31:06Z</time>
      </trkpt>
      <trkpt lat="44.70756" lon="1.27179">
        <ele>233.4</ele>
        <time>2022-08-13T09:31:08Z</time>
      </trkpt>
      <trkpt lat="44.70753" lon="1.2717">
        <ele>232.4</ele>
        <time>2022-08-13T09:31:10Z</time>
      </trkpt>
      <trkpt lat="44.7075" lon="1.2716">
        <ele>232.4</ele>
        <time>2022-08-13T09:31:12Z</time>
      </trkpt>
      <trkpt lat="44.70748" lon="1.27148">
        <ele>232.4</ele>
        <time>2022-08-13T09:31:14Z</time>
      </trkpt>
      <trkpt lat="44.70748" lon="1.27142">
        <ele>233.4</ele>
        <time>2022-08-13T09:31:15Z</time>
      </trkpt>
      <trkpt lat="44.70749" lon="1.27135">
        <ele>234.4</ele>
        <time>2022-08-13T09:31:16Z</time>
      </trkpt>
      <trkpt lat="44.70749" lon="1.27123">
        <ele>235.4</ele>
        <time>2022-08-13T09:31:18Z</time>
      </trkpt>
      <trkpt lat="44.70751" lon="1.27112">
        <ele>235.4</ele>
        <time>2022-08-13T09:31:20Z</time>
      </trkpt>
      <trkpt lat="44.70753" lon="1.27099">
        <ele>235.4</ele>
        <time>2022-08-13T09:31:22Z</time>
      </trkpt>
      <trkpt lat="44.70753" lon="1.27088">
        <ele>236.4</ele>
        <time>2022-08-13T09:31:24Z</time>
      </trkpt>
      <trkpt lat="44.70753" lon="1.27077">
        <ele>236.4</ele>
        <time>2022-08-13T09:31:26Z</time>
      </trkpt>
      <trkpt lat="44.70753" lon="1.27066">
        <ele>237.4</ele>
        <time>2022-08-13T09:31:28Z</time>
      </trkpt>
      <trkpt lat="44.70753" lon="1.27058">
        <ele>237.4</ele>
        <time>2022-08-13T09:31:30Z</time>
      </trkpt>
      <trkpt lat="44.70747" lon="1.27055">
        <ele>237.4</ele>
        <time>2022-08-13T09:31:34Z</time>
      </trkpt>
      <trkpt lat="44.70744" lon="1.27061">
        <ele>236.4</ele>
        <time>2022-08-13T09:31:36Z</time>
      </trkpt>
      <trkpt lat="44.70743" lon="1.27067">
        <ele>235.4</ele>
        <time>2022-08-13T09:31:37Z</time>
      </trkpt>
      <trkpt lat="44.70738" lon="1.27079">
        <ele>234.4</ele>
        <time>2022-08-13T09:31:39Z</time>
      </trkpt>
      <trkpt lat="44.70734" lon="1.27085">
        <ele>233.4</ele>
        <time>2022-08-13T09:31:40Z</time>
      </trkpt>
      <trkpt lat="44.70731" lon="1.27091">
        <ele>233.4</ele>
        <time>2022-08-13T09:31:41Z</time>
      </trkpt>
      <trkpt lat="44.70727" lon="1.27098">
        <ele>232.4</ele>
        <time>2022-08-13T09:31:42Z</time>
      </trkpt>
      <trkpt lat="44.70724" lon="1.27104">
        <ele>231.4</ele>
        <time>2022-08-13T09:31:43Z</time>
      </trkpt>
      <trkpt lat="44.70722" lon="1.2711">
        <ele>230.4</ele>
        <time>2022-08-13T09:31:44Z</time>
      </trkpt>
      <trkpt lat="44.70719" lon="1.27121">
        <ele>229.4</ele>
        <time>2022-08-13T09:31:46Z</time>
      </trkpt>
      <trkpt lat="44.70717" lon="1.27128">
        <ele>228.4</ele>
        <time>2022-08-13T09:31:48Z</time>
      </trkpt>
      <trkpt lat="44.70714" lon="1.27134">
        <ele>227.4</ele>
        <time>2022-08-13T09:32:11Z</time>
      </trkpt>
      <trkpt lat="44.70711" lon="1.27139">
        <ele>228.4</ele>
        <time>2022-08-13T09:32:13Z</time>
      </trkpt>
      <trkpt lat="44.70708" lon="1.27144">
        <ele>227.4</ele>
        <time>2022-08-13T09:32:15Z</time>
      </trkpt>
      <trkpt lat="44.70705" lon="1.27149">
        <ele>227.4</ele>
        <time>2022-08-13T09:32:17Z</time>
      </trkpt>
      <trkpt lat="44.70701" lon="1.27154">
        <ele>226.4</ele>
        <time>2022-08-13T09:32:19Z</time>
      </trkpt>
      <trkpt lat="44.70696" lon="1.2716">
        <ele>225.4</ele>
        <time>2022-08-13T09:32:21Z</time>
      </trkpt>
      <trkpt lat="44.70693" lon="1.27168">
        <ele>223.4</ele>
        <time>2022-08-13T09:32:23Z</time>
      </trkpt>
      <trkpt lat="44.7069" lon="1.27176">
        <ele>221.4</ele>
        <time>2022-08-13T09:32:25Z</time>
      </trkpt>
      <trkpt lat="44.70686" lon="1.27186">
        <ele>218.4</ele>
        <time>2022-08-13T09:32:27Z</time>
      </trkpt>
      <trkpt lat="44.70683" lon="1.27197">
        <ele>217.4</ele>
        <time>2022-08-13T09:32:29Z</time>
      </trkpt>
      <trkpt lat="44.7068" lon="1.27206">
        <ele>215.4</ele>
        <time>2022-08-13T09:32:31Z</time>
      </trkpt>
      <trkpt lat="44.70678" lon="1.27213">
        <ele>214.4</ele>
        <time>2022-08-13T09:32:33Z</time>
      </trkpt>
      <trkpt lat="44.70675" lon="1.27221">
        <ele>214.4</ele>
        <time>2022-08-13T09:32:35Z</time>
      </trkpt>
      <trkpt lat="44.70674" lon="1.27229">
        <ele>212.4</ele>
        <time>2022-08-13T09:32:37Z</time>
      </trkpt>
      <trkpt lat="44.70672" lon="1.27237">
        <ele>211.4</ele>
        <time>2022-08-13T09:32:39Z</time>
      </trkpt>
      <trkpt lat="44.70671" lon="1.27245">
        <ele>210.4</ele>
        <time>2022-08-13T09:32:41Z</time>
      </trkpt>
      <trkpt lat="44.7067" lon="1.27252">
        <ele>208.4</ele>
        <time>2022-08-13T09:32:43Z</time>
      </trkpt>
      <trkpt lat="44.70668" lon="1.27261">
        <ele>206.4</ele>
        <time>2022-08-13T09:32:45Z</time>
      </trkpt>
      <trkpt lat="44.70666" lon="1.27269">
        <ele>206.4</ele>
        <time>2022-08-13T09:32:47Z</time>
      </trkpt>
      <trkpt lat="44.70664" lon="1.27277">
        <ele>205.4</ele>
        <time>2022-08-13T09:32:49Z</time>
      </trkpt>
      <trkpt lat="44.70663" lon="1.27284">
        <ele>205.4</ele>
        <time>2022-08-13T09:32:52Z</time>
      </trkpt>
      <trkpt lat="44.70664" lon="1.27293">
        <ele>203.4</ele>
        <time>2022-08-13T09:32:56Z</time>
      </trkpt>
      <trkpt lat="44.70665" lon="1.27302">
        <ele>202.4</ele>
        <time>2022-08-13T09:32:59Z</time>
      </trkpt>
      <trkpt lat="44.70666" lon="1.27312">
        <ele>202.4</ele>
        <time>2022-08-13T09:33:01Z</time>
      </trkpt>
      <trkpt lat="44.70668" lon="1.27319">
        <ele>201.4</ele>
        <time>2022-08-13T09:33:03Z</time>
      </trkpt>
      <trkpt lat="44.70669" lon="1.27326">
        <ele>201.4</ele>
        <time>2022-08-13T09:33:05Z</time>
      </trkpt>
      <trkpt lat="44.70671" lon="1.27334">
        <ele>200.4</ele>
        <time>2022-08-13T09:33:08Z</time>
      </trkpt>
      <trkpt lat="44.70674" lon="1.27343">
        <ele>199.4</ele>
        <time>2022-08-13T09:33:10Z</time>
      </trkpt>
      <trkpt lat="44.70675" lon="1.27353">
        <ele>198.4</ele>
        <time>2022-08-13T09:33:12Z</time>
      </trkpt>
      <trkpt lat="44.70677" lon="1.27359">
        <ele>196.4</ele>
        <time>2022-08-13T09:33:14Z</time>
      </trkpt>
      <trkpt lat="44.7068" lon="1.27369">
        <ele>192.4</ele>
        <time>2022-08-13T09:33:17Z</time>
      </trkpt>
      <trkpt lat="44.70683" lon="1.27378">
        <ele>186.4</ele>
        <time>2022-08-13T09:33:19Z</time>
      </trkpt>
      <trkpt lat="44.70684" lon="1.27386">
        <ele>184.4</ele>
        <time>2022-08-13T09:33:21Z</time>
      </trkpt>
      <trkpt lat="44.70687" lon="1.27396">
        <ele>186.4</ele>
        <time>2022-08-13T09:33:23Z</time>
      </trkpt>
      <trkpt lat="44.7069" lon="1.27401">
        <ele>187.4</ele>
        <time>2022-08-13T09:33:24Z</time>
      </trkpt>
      <trkpt lat="44.70692" lon="1.27406">
        <ele>187.4</ele>
        <time>2022-08-13T09:33:25Z</time>
      </trkpt>
      <trkpt lat="44.70694" lon="1.27414">
        <ele>187.4</ele>
        <time>2022-08-13T09:33:26Z</time>
      </trkpt>
      <trkpt lat="44.70697" lon="1.27424">
        <ele>185.4</ele>
        <time>2022-08-13T09:33:27Z</time>
      </trkpt>
      <trkpt lat="44.70701" lon="1.27434">
        <ele>182.4</ele>
        <time>2022-08-13T09:33:28Z</time>
      </trkpt>
      <trkpt lat="44.70705" lon="1.27445">
        <ele>181.4</ele>
        <time>2022-08-13T09:33:29Z</time>
      </trkpt>
      <trkpt lat="44.70709" lon="1.27451">
        <ele>178.4</ele>
        <time>2022-08-13T09:33:30Z</time>
      </trkpt>
      <trkpt lat="44.70714" lon="1.27456">
        <ele>176.4</ele>
        <time>2022-08-13T09:33:32Z</time>
      </trkpt>
      <trkpt lat="44.70715" lon="1.27463">
        <ele>174.4</ele>
        <time>2022-08-13T09:33:54Z</time>
      </trkpt>
      <trkpt lat="44.70722" lon="1.27473">
        <ele>171.4</ele>
        <time>2022-08-13T09:33:56Z</time>
      </trkpt>
      <trkpt lat="44.70727" lon="1.27479">
        <ele>170.4</ele>
        <time>2022-08-13T09:33:57Z</time>
      </trkpt>
      <trkpt lat="44.70731" lon="1.27486">
        <ele>170.4</ele>
        <time>2022-08-13T09:33:58Z</time>
      </trkpt>
      <trkpt lat="44.70733" lon="1.27494">
        <ele>170.4</ele>
        <time>2022-08-13T09:33:59Z</time>
      </trkpt>
      <trkpt lat="44.70736" lon="1.27502">
        <ele>170.4</ele>
        <time>2022-08-13T09:34:00Z</time>
      </trkpt>
      <trkpt lat="44.70737" lon="1.27509">
        <ele>169.4</ele>
        <time>2022-08-13T09:34:01Z</time>
      </trkpt>
      <trkpt lat="44.70739" lon="1.27516">
        <ele>168.4</ele>
        <time>2022-08-13T09:34:02Z</time>
      </trkpt>
      <trkpt lat="44.70741" lon="1.27524">
        <ele>169.4</ele>
        <time>2022-08-13T09:34:03Z</time>
      </trkpt>
      <trkpt lat="44.70742" lon="1.27531">
        <ele>168.4</ele>
        <time>2022-08-13T09:34:04Z</time>
      </trkpt>
      <trkpt lat="44.70744" lon="1.27537">
        <ele>168.4</ele>
        <time>2022-08-13T09:34:05Z</time>
      </trkpt>
      <trkpt lat="44.70747" lon="1.27544">
        <ele>168.4</ele>
        <time>2022-08-13T09:34:06Z</time>
      </trkpt>
      <trkpt lat="44.7075" lon="1.2755">
        <ele>169.4</ele>
        <time>2022-08-13T09:34:07Z</time>
      </trkpt>
      <trkpt lat="44.70754" lon="1.27556">
        <ele>170.4</ele>
        <time>2022-08-13T09:34:08Z</time>
      </trkpt>
      <trkpt lat="44.70758" lon="1.27561">
        <ele>170.4</ele>
        <time>2022-08-13T09:34:09Z</time>
      </trkpt>
      <trkpt lat="44.70762" lon="1.27567">
        <ele>171.4</ele>
        <time>2022-08-13T09:34:10Z</time>
      </trkpt>
      <trkpt lat="44.70765" lon="1.27572">
        <ele>171.4</ele>
        <time>2022-08-13T09:34:11Z</time>
      </trkpt>
      <trkpt lat="44.70768" lon="1.27577">
        <ele>171.4</ele>
        <time>2022-08-13T09:34:12Z</time>
      </trkpt>
      <trkpt lat="44.70771" lon="1.27583">
        <ele>171.4</ele>
        <time>2022-08-13T09:34:13Z</time>
      </trkpt>
      <trkpt lat="44.70774" lon="1.27589">
        <ele>171.4</ele>
        <time>2022-08-13T09:34:14Z</time>
      </trkpt>
      <trkpt lat="44.70777" lon="1.27594">
        <ele>171.4</ele>
        <time>2022-08-13T09:34:15Z</time>
      </trkpt>
      <trkpt lat="44.70782" lon="1.27604">
        <ele>171.4</ele>
        <time>2022-08-13T09:34:17Z</time>
      </trkpt>
      <trkpt lat="44.70785" lon="1.27609">
        <ele>171.4</ele>
        <time>2022-08-13T09:34:18Z</time>
      </trkpt>
      <trkpt lat="44.70788" lon="1.27614">
        <ele>171.4</ele>
        <time>2022-08-13T09:34:19Z</time>
      </trkpt>
      <trkpt lat="44.70791" lon="1.27619">
        <ele>171.4</ele>
        <time>2022-08-13T09:34:20Z</time>
      </trkpt>
      <trkpt lat="44.70798" lon="1.27628">
        <ele>170.4</ele>
        <time>2022-08-13T09:34:22Z</time>
      </trkpt>
      <trkpt lat="44.70801" lon="1.27633">
        <ele>169.4</ele>
        <time>2022-08-13T09:34:23Z</time>
      </trkpt>
      <trkpt lat="44.70805" lon="1.27638">
        <ele>169.4</ele>
        <time>2022-08-13T09:34:24Z</time>
      </trkpt>
      <trkpt lat="44.70809" lon="1.27642">
        <ele>168.4</ele>
        <time>2022-08-13T09:34:25Z</time>
      </trkpt>
      <trkpt lat="44.70813" lon="1.27646">
        <ele>168.4</ele>
        <time>2022-08-13T09:34:26Z</time>
      </trkpt>
      <trkpt lat="44.70817" lon="1.2765">
        <ele>167.4</ele>
        <time>2022-08-13T09:34:27Z</time>
      </trkpt>
      <trkpt lat="44.70821" lon="1.27653">
        <ele>166.4</ele>
        <time>2022-08-13T09:34:28Z</time>
      </trkpt>
      <trkpt lat="44.70825" lon="1.27657">
        <ele>165.4</ele>
        <time>2022-08-13T09:34:29Z</time>
      </trkpt>
      <trkpt lat="44.70829" lon="1.27662">
        <ele>164.4</ele>
        <time>2022-08-13T09:34:30Z</time>
      </trkpt>
      <trkpt lat="44.70836" lon="1.2767">
        <ele>162.4</ele>
        <time>2022-08-13T09:34:32Z</time>
      </trkpt>
      <trkpt lat="44.70839" lon="1.27675">
        <ele>163.4</ele>
        <time>2022-08-13T09:34:33Z</time>
      </trkpt>
      <trkpt lat="44.70843" lon="1.27679">
        <ele>162.4</ele>
        <time>2022-08-13T09:34:34Z</time>
      </trkpt>
      <trkpt lat="44.70846" lon="1.27684">
        <ele>162.4</ele>
        <time>2022-08-13T09:34:35Z</time>
      </trkpt>
      <trkpt lat="44.70849" lon="1.27689">
        <ele>161.4</ele>
        <time>2022-08-13T09:34:36Z</time>
      </trkpt>
      <trkpt lat="44.70852" lon="1.27696">
        <ele>161.4</ele>
        <time>2022-08-13T09:34:37Z</time>
      </trkpt>
      <trkpt lat="44.70855" lon="1.27701">
        <ele>161.4</ele>
        <time>2022-08-13T09:34:38Z</time>
      </trkpt>
      <trkpt lat="44.70859" lon="1.27708">
        <ele>162.4</ele>
        <time>2022-08-13T09:34:39Z</time>
      </trkpt>
      <trkpt lat="44.70863" lon="1.27714">
        <ele>162.4</ele>
        <time>2022-08-13T09:34:40Z</time>
      </trkpt>
      <trkpt lat="44.70866" lon="1.2772">
        <ele>162.4</ele>
        <time>2022-08-13T09:34:41Z</time>
      </trkpt>
      <trkpt lat="44.7087" lon="1.27727">
        <ele>161.4</ele>
        <time>2022-08-13T09:34:42Z</time>
      </trkpt>
      <trkpt lat="44.70873" lon="1.27735">
        <ele>161.4</ele>
        <time>2022-08-13T09:34:43Z</time>
      </trkpt>
      <trkpt lat="44.70877" lon="1.27742">
        <ele>160.4</ele>
        <time>2022-08-13T09:34:44Z</time>
      </trkpt>
      <trkpt lat="44.7088" lon="1.2775">
        <ele>159.4</ele>
        <time>2022-08-13T09:34:45Z</time>
      </trkpt>
      <trkpt lat="44.70883" lon="1.27757">
        <ele>159.4</ele>
        <time>2022-08-13T09:34:46Z</time>
      </trkpt>
      <trkpt lat="44.70886" lon="1.27764">
        <ele>159.4</ele>
        <time>2022-08-13T09:34:47Z</time>
      </trkpt>
      <trkpt lat="44.70887" lon="1.27771">
        <ele>160.4</ele>
        <time>2022-08-13T09:34:48Z</time>
      </trkpt>
      <trkpt lat="44.70888" lon="1.27779">
        <ele>159.4</ele>
        <time>2022-08-13T09:34:49Z</time>
      </trkpt>
      <trkpt lat="44.70888" lon="1.27786">
        <ele>159.4</ele>
        <time>2022-08-13T09:34:50Z</time>
      </trkpt>
      <trkpt lat="44.70889" lon="1.27793">
        <ele>159.4</ele>
        <time>2022-08-13T09:34:51Z</time>
      </trkpt>
      <trkpt lat="44.70888" lon="1.27803">
        <ele>159.4</ele>
        <time>2022-08-13T09:34:53Z</time>
      </trkpt>
      <trkpt lat="44.70884" lon="1.27807">
        <ele>159.4</ele>
        <time>2022-08-13T09:34:57Z</time>
      </trkpt>
      <trkpt lat="44.70884" lon="1.27817">
        <ele>158.4</ele>
        <time>2022-08-13T09:35:10Z</time>
      </trkpt>
      <trkpt lat="44.70883" lon="1.27828">
        <ele>158.4</ele>
        <time>2022-08-13T09:35:12Z</time>
      </trkpt>
      <trkpt lat="44.70884" lon="1.27836">
        <ele>158.4</ele>
        <time>2022-08-13T09:35:13Z</time>
      </trkpt>
      <trkpt lat="44.70886" lon="1.27842">
        <ele>158.4</ele>
        <time>2022-08-13T09:35:14Z</time>
      </trkpt>
      <trkpt lat="44.70889" lon="1.27853">
        <ele>159.4</ele>
        <time>2022-08-13T09:35:16Z</time>
      </trkpt>
      <trkpt lat="44.70891" lon="1.27859">
        <ele>158.4</ele>
        <time>2022-08-13T09:35:17Z</time>
      </trkpt>
      <trkpt lat="44.70893" lon="1.27867">
        <ele>158.4</ele>
        <time>2022-08-13T09:35:18Z</time>
      </trkpt>
      <trkpt lat="44.70894" lon="1.27874">
        <ele>158.4</ele>
        <time>2022-08-13T09:35:19Z</time>
      </trkpt>
      <trkpt lat="44.70895" lon="1.27884">
        <ele>158.4</ele>
        <time>2022-08-13T09:35:20Z</time>
      </trkpt>
      <trkpt lat="44.70896" lon="1.27894">
        <ele>157.4</ele>
        <time>2022-08-13T09:35:21Z</time>
      </trkpt>
      <trkpt lat="44.70896" lon="1.27905">
        <ele>157.4</ele>
        <time>2022-08-13T09:35:22Z</time>
      </trkpt>
      <trkpt lat="44.70898" lon="1.27916">
        <ele>156.4</ele>
        <time>2022-08-13T09:35:23Z</time>
      </trkpt>
      <trkpt lat="44.709" lon="1.27926">
        <ele>156.4</ele>
        <time>2022-08-13T09:35:24Z</time>
      </trkpt>
      <trkpt lat="44.70901" lon="1.27934">
        <ele>156.4</ele>
        <time>2022-08-13T09:35:25Z</time>
      </trkpt>
      <trkpt lat="44.70902" lon="1.27944">
        <ele>157.4</ele>
        <time>2022-08-13T09:35:27Z</time>
      </trkpt>
      <trkpt lat="44.70903" lon="1.27951">
        <ele>156.4</ele>
        <time>2022-08-13T09:35:30Z</time>
      </trkpt>
      <trkpt lat="44.70907" lon="1.27949">
        <ele>156.4</ele>
        <time>2022-08-13T09:35:36Z</time>
      </trkpt>
      <trkpt lat="44.70908" lon="1.27941">
        <ele>156.4</ele>
        <time>2022-08-13T09:35:39Z</time>
      </trkpt>
      <trkpt lat="44.70905" lon="1.27935">
        <ele>157.4</ele>
        <time>2022-08-13T09:35:42Z</time>
      </trkpt>
      <trkpt lat="44.70899" lon="1.27935">
        <ele>156.4</ele>
        <time>2022-08-13T09:35:44Z</time>
      </trkpt>
      <trkpt lat="44.70894" lon="1.27936">
        <ele>157.4</ele>
        <time>2022-08-13T09:35:46Z</time>
      </trkpt>
      <trkpt lat="44.70888" lon="1.2794">
        <ele>157.4</ele>
        <time>2022-08-13T09:35:49Z</time>
      </trkpt>
      <trkpt lat="44.70883" lon="1.27942">
        <ele>158.4</ele>
        <time>2022-08-13T09:35:52Z</time>
      </trkpt>
      <trkpt lat="44.70878" lon="1.27945">
        <ele>159.4</ele>
        <time>2022-08-13T09:35:55Z</time>
      </trkpt>
      <trkpt lat="44.70874" lon="1.27948">
        <ele>161.4</ele>
        <time>2022-08-13T09:35:58Z</time>
      </trkpt>
      <trkpt lat="44.7087" lon="1.27952">
        <ele>161.4</ele>
        <time>2022-08-13T09:36:03Z</time>
      </trkpt>
      <trkpt lat="44.70864" lon="1.27953">
        <ele>162.4</ele>
        <time>2022-08-13T09:36:19Z</time>
      </trkpt>
      <trkpt lat="44.70859" lon="1.27954">
        <ele>162.4</ele>
        <time>2022-08-13T09:36:23Z</time>
      </trkpt>
      <trkpt lat="44.70854" lon="1.27956">
        <ele>162.4</ele>
        <time>2022-08-13T09:36:26Z</time>
      </trkpt>
      <trkpt lat="44.70849" lon="1.27956">
        <ele>166.4</ele>
        <time>2022-08-13T09:36:48Z</time>
      </trkpt>
      <trkpt lat="44.70844" lon="1.27956">
        <ele>170.4</ele>
        <time>2022-08-13T09:36:52Z</time>
      </trkpt>
      <trkpt lat="44.7084" lon="1.27954">
        <ele>171.4</ele>
        <time>2022-08-13T09:36:58Z</time>
      </trkpt>
      <trkpt lat="44.70835" lon="1.27953">
        <ele>167.4</ele>
        <time>2022-08-13T09:37:07Z</time>
      </trkpt>
      <trkpt lat="44.7083" lon="1.27953">
        <ele>169.4</ele>
        <time>2022-08-13T09:37:14Z</time>
      </trkpt>
      <trkpt lat="44.70828" lon="1.27947">
        <ele>178.4</ele>
        <time>2022-08-13T09:37:47Z</time>
      </trkpt>
      <trkpt lat="44.70824" lon="1.27943">
        <ele>181.4</ele>
        <time>2022-08-13T09:38:06Z</time>
      </trkpt>
      <trkpt lat="44.7082" lon="1.27941">
        <ele>183.4</ele>
        <time>2022-08-13T09:38:16Z</time>
      </trkpt>
      <trkpt lat="44.70816" lon="1.27938">
        <ele>187.4</ele>
        <time>2022-08-13T09:38:22Z</time>
      </trkpt>
      <trkpt lat="44.70811" lon="1.27935">
        <ele>189.4</ele>
        <time>2022-08-13T09:38:29Z</time>
      </trkpt>
      <trkpt lat="44.70808" lon="1.27931">
        <ele>190.4</ele>
        <time>2022-08-13T09:38:34Z</time>
      </trkpt>
      <trkpt lat="44.70805" lon="1.27925">
        <ele>190.4</ele>
        <time>2022-08-13T09:38:40Z</time>
      </trkpt>
      <trkpt lat="44.70802" lon="1.27919">
        <ele>191.4</ele>
        <time>2022-08-13T09:38:46Z</time>
      </trkpt>
      <trkpt lat="44.70799" lon="1.27915">
        <ele>192.4</ele>
        <time>2022-08-13T09:38:53Z</time>
      </trkpt>
      <trkpt lat="44.70795" lon="1.27909">
        <ele>193.4</ele>
        <time>2022-08-13T09:39:01Z</time>
      </trkpt>
      <trkpt lat="44.70792" lon="1.27905">
        <ele>191.4</ele>
        <time>2022-08-13T09:39:35Z</time>
      </trkpt>
      <trkpt lat="44.70787" lon="1.27901">
        <ele>191.4</ele>
        <time>2022-08-13T09:39:39Z</time>
      </trkpt>
      <trkpt lat="44.70782" lon="1.27899">
        <ele>190.4</ele>
        <time>2022-08-13T09:39:45Z</time>
      </trkpt>
      <trkpt lat="44.70777" lon="1.27896">
        <ele>189.4</ele>
        <time>2022-08-13T09:39:50Z</time>
      </trkpt>
      <trkpt lat="44.70773" lon="1.27894">
        <ele>189.4</ele>
        <time>2022-08-13T09:39:53Z</time>
      </trkpt>
      <trkpt lat="44.70768" lon="1.27891">
        <ele>191.4</ele>
        <time>2022-08-13T09:39:56Z</time>
      </trkpt>
      <trkpt lat="44.70764" lon="1.27888">
        <ele>195.4</ele>
        <time>2022-08-13T09:40:06Z</time>
      </trkpt>
      <trkpt lat="44.70761" lon="1.27884">
        <ele>198.4</ele>
        <time>2022-08-13T09:40:10Z</time>
      </trkpt>
      <trkpt lat="44.70757" lon="1.2788">
        <ele>200.4</ele>
        <time>2022-08-13T09:40:16Z</time>
      </trkpt>
      <trkpt lat="44.70753" lon="1.27875">
        <ele>197.4</ele>
        <time>2022-08-13T09:40:25Z</time>
      </trkpt>
      <trkpt lat="44.70749" lon="1.27874">
        <ele>191.4</ele>
        <time>2022-08-13T09:40:52Z</time>
      </trkpt>
      <trkpt lat="44.70748" lon="1.27867">
        <ele>192.4</ele>
        <time>2022-08-13T09:40:59Z</time>
      </trkpt>
      <trkpt lat="44.70744" lon="1.27863">
        <ele>194.4</ele>
        <time>2022-08-13T09:41:05Z</time>
      </trkpt>
      <trkpt lat="44.7074" lon="1.27861">
        <ele>195.4</ele>
        <time>2022-08-13T09:41:12Z</time>
      </trkpt>
      <trkpt lat="44.70735" lon="1.27858">
        <ele>195.4</ele>
        <time>2022-08-13T09:41:15Z</time>
      </trkpt>
      <trkpt lat="44.7073" lon="1.27855">
        <ele>196.4</ele>
        <time>2022-08-13T09:41:19Z</time>
      </trkpt>
      <trkpt lat="44.70725" lon="1.27853">
        <ele>198.4</ele>
        <time>2022-08-13T09:41:23Z</time>
      </trkpt>
      <trkpt lat="44.7072" lon="1.27853">
        <ele>198.4</ele>
        <time>2022-08-13T09:41:29Z</time>
      </trkpt>
      <trkpt lat="44.70715" lon="1.27852">
        <ele>198.4</ele>
        <time>2022-08-13T09:41:32Z</time>
      </trkpt>
      <trkpt lat="44.70711" lon="1.27852">
        <ele>200.4</ele>
        <time>2022-08-13T09:41:35Z</time>
      </trkpt>
      <trkpt lat="44.70705" lon="1.27852">
        <ele>200.4</ele>
        <time>2022-08-13T09:41:40Z</time>
      </trkpt>
      <trkpt lat="44.70699" lon="1.27851">
        <ele>201.4</ele>
        <time>2022-08-13T09:41:44Z</time>
      </trkpt>
      <trkpt lat="44.70695" lon="1.27849">
        <ele>201.4</ele>
        <time>2022-08-13T09:41:47Z</time>
      </trkpt>
      <trkpt lat="44.7069" lon="1.27848">
        <ele>201.4</ele>
        <time>2022-08-13T09:41:53Z</time>
      </trkpt>
      <trkpt lat="44.70685" lon="1.27848">
        <ele>202.4</ele>
        <time>2022-08-13T09:41:59Z</time>
      </trkpt>
      <trkpt lat="44.7068" lon="1.27847">
        <ele>202.4</ele>
        <time>2022-08-13T09:42:04Z</time>
      </trkpt>
      <trkpt lat="44.70675" lon="1.27846">
        <ele>204.4</ele>
        <time>2022-08-13T09:42:19Z</time>
      </trkpt>
      <trkpt lat="44.7067" lon="1.27842">
        <ele>205.4</ele>
        <time>2022-08-13T09:42:30Z</time>
      </trkpt>
      <trkpt lat="44.70666" lon="1.27847">
        <ele>204.4</ele>
        <time>2022-08-13T09:42:39Z</time>
      </trkpt>
      <trkpt lat="44.70661" lon="1.27848">
        <ele>205.4</ele>
        <time>2022-08-13T09:42:43Z</time>
      </trkpt>
      <trkpt lat="44.70656" lon="1.27847">
        <ele>207.4</ele>
        <time>2022-08-13T09:42:48Z</time>
      </trkpt>
      <trkpt lat="44.70652" lon="1.27843">
        <ele>209.4</ele>
        <time>2022-08-13T09:42:59Z</time>
      </trkpt>
      <trkpt lat="44.70647" lon="1.27843">
        <ele>211.4</ele>
        <time>2022-08-13T09:43:03Z</time>
      </trkpt>
      <trkpt lat="44.70642" lon="1.27841">
        <ele>212.4</ele>
        <time>2022-08-13T09:43:08Z</time>
      </trkpt>
      <trkpt lat="44.70637" lon="1.27839">
        <ele>211.4</ele>
        <time>2022-08-13T09:43:11Z</time>
      </trkpt>
      <trkpt lat="44.70632" lon="1.27839">
        <ele>211.4</ele>
        <time>2022-08-13T09:43:17Z</time>
      </trkpt>
      <trkpt lat="44.70628" lon="1.27842">
        <ele>213.4</ele>
        <time>2022-08-13T09:43:28Z</time>
      </trkpt>
      <trkpt lat="44.70623" lon="1.27844">
        <ele>212.4</ele>
        <time>2022-08-13T09:43:31Z</time>
      </trkpt>
      <trkpt lat="44.70618" lon="1.27844">
        <ele>214.4</ele>
        <time>2022-08-13T09:43:34Z</time>
      </trkpt>
      <trkpt lat="44.70614" lon="1.27843">
        <ele>214.4</ele>
        <time>2022-08-13T09:43:37Z</time>
      </trkpt>
      <trkpt lat="44.70609" lon="1.2784">
        <ele>215.4</ele>
        <time>2022-08-13T09:43:40Z</time>
      </trkpt>
      <trkpt lat="44.70606" lon="1.27833">
        <ele>216.4</ele>
        <time>2022-08-13T09:43:43Z</time>
      </trkpt>
      <trkpt lat="44.70604" lon="1.27824">
        <ele>215.4</ele>
        <time>2022-08-13T09:43:46Z</time>
      </trkpt>
      <trkpt lat="44.70603" lon="1.27816">
        <ele>216.4</ele>
        <time>2022-08-13T09:43:49Z</time>
      </trkpt>
      <trkpt lat="44.70602" lon="1.27808">
        <ele>218.4</ele>
        <time>2022-08-13T09:43:52Z</time>
      </trkpt>
      <trkpt lat="44.706" lon="1.27801">
        <ele>218.4</ele>
        <time>2022-08-13T09:43:54Z</time>
      </trkpt>
      <trkpt lat="44.70594" lon="1.27797">
        <ele>218.4</ele>
        <time>2022-08-13T09:43:57Z</time>
      </trkpt>
      <trkpt lat="44.70589" lon="1.27796">
        <ele>219.4</ele>
        <time>2022-08-13T09:43:59Z</time>
      </trkpt>
      <trkpt lat="44.70584" lon="1.27797">
        <ele>218.4</ele>
        <time>2022-08-13T09:44:01Z</time>
      </trkpt>
      <trkpt lat="44.70579" lon="1.27799">
        <ele>218.4</ele>
        <time>2022-08-13T09:44:03Z</time>
      </trkpt>
      <trkpt lat="44.70573" lon="1.278">
        <ele>218.4</ele>
        <time>2022-08-13T09:44:06Z</time>
      </trkpt>
      <trkpt lat="44.70568" lon="1.27801">
        <ele>218.4</ele>
        <time>2022-08-13T09:44:08Z</time>
      </trkpt>
      <trkpt lat="44.70563" lon="1.27802">
        <ele>217.4</ele>
        <time>2022-08-13T09:44:11Z</time>
      </trkpt>
      <trkpt lat="44.70556" lon="1.27804">
        <ele>216.4</ele>
        <time>2022-08-13T09:44:14Z</time>
      </trkpt>
      <trkpt lat="44.70551" lon="1.27805">
        <ele>217.4</ele>
        <time>2022-08-13T09:44:17Z</time>
      </trkpt>
      <trkpt lat="44.70546" lon="1.27805">
        <ele>217.4</ele>
        <time>2022-08-13T09:44:20Z</time>
      </trkpt>
      <trkpt lat="44.70541" lon="1.27806">
        <ele>218.4</ele>
        <time>2022-08-13T09:44:23Z</time>
      </trkpt>
      <trkpt lat="44.70537" lon="1.27807">
        <ele>217.4</ele>
        <time>2022-08-13T09:44:26Z</time>
      </trkpt>
      <trkpt lat="44.70532" lon="1.27808">
        <ele>217.4</ele>
        <time>2022-08-13T09:44:29Z</time>
      </trkpt>
      <trkpt lat="44.70527" lon="1.2781">
        <ele>218.4</ele>
        <time>2022-08-13T09:44:32Z</time>
      </trkpt>
      <trkpt lat="44.70523" lon="1.27814">
        <ele>219.4</ele>
        <time>2022-08-13T09:44:35Z</time>
      </trkpt>
      <trkpt lat="44.70518" lon="1.27816">
        <ele>220.4</ele>
        <time>2022-08-13T09:44:38Z</time>
      </trkpt>
      <trkpt lat="44.70514" lon="1.2782">
        <ele>220.4</ele>
        <time>2022-08-13T09:44:41Z</time>
      </trkpt>
      <trkpt lat="44.7051" lon="1.27823">
        <ele>221.4</ele>
        <time>2022-08-13T09:44:44Z</time>
      </trkpt>
      <trkpt lat="44.70506" lon="1.27827">
        <ele>222.4</ele>
        <time>2022-08-13T09:44:47Z</time>
      </trkpt>
      <trkpt lat="44.70502" lon="1.27832">
        <ele>223.4</ele>
        <time>2022-08-13T09:44:50Z</time>
      </trkpt>
      <trkpt lat="44.705" lon="1.27839">
        <ele>224.4</ele>
        <time>2022-08-13T09:44:53Z</time>
      </trkpt>
      <trkpt lat="44.70498" lon="1.27846">
        <ele>224.4</ele>
        <time>2022-08-13T09:44:56Z</time>
      </trkpt>
      <trkpt lat="44.70497" lon="1.27852">
        <ele>224.4</ele>
        <time>2022-08-13T09:44:59Z</time>
      </trkpt>
      <trkpt lat="44.70495" lon="1.2786">
        <ele>225.4</ele>
        <time>2022-08-13T09:45:02Z</time>
      </trkpt>
      <trkpt lat="44.70495" lon="1.27869">
        <ele>226.4</ele>
        <time>2022-08-13T09:45:05Z</time>
      </trkpt>
      <trkpt lat="44.70494" lon="1.27875">
        <ele>227.4</ele>
        <time>2022-08-13T09:45:07Z</time>
      </trkpt>
      <trkpt lat="44.70494" lon="1.27882">
        <ele>228.4</ele>
        <time>2022-08-13T09:45:09Z</time>
      </trkpt>
      <trkpt lat="44.70493" lon="1.27889">
        <ele>229.4</ele>
        <time>2022-08-13T09:45:11Z</time>
      </trkpt>
      <trkpt lat="44.70492" lon="1.27897">
        <ele>229.4</ele>
        <time>2022-08-13T09:45:13Z</time>
      </trkpt>
      <trkpt lat="44.7049" lon="1.27904">
        <ele>229.4</ele>
        <time>2022-08-13T09:45:15Z</time>
      </trkpt>
      <trkpt lat="44.70489" lon="1.27911">
        <ele>229.4</ele>
        <time>2022-08-13T09:45:17Z</time>
      </trkpt>
      <trkpt lat="44.70489" lon="1.27918">
        <ele>230.4</ele>
        <time>2022-08-13T09:45:19Z</time>
      </trkpt>
      <trkpt lat="44.70487" lon="1.27924">
        <ele>231.4</ele>
        <time>2022-08-13T09:45:21Z</time>
      </trkpt>
      <trkpt lat="44.70485" lon="1.27931">
        <ele>231.4</ele>
        <time>2022-08-13T09:45:23Z</time>
      </trkpt>
      <trkpt lat="44.70483" lon="1.27938">
        <ele>230.4</ele>
        <time>2022-08-13T09:45:25Z</time>
      </trkpt>
      <trkpt lat="44.70481" lon="1.27944">
        <ele>231.4</ele>
        <time>2022-08-13T09:45:27Z</time>
      </trkpt>
      <trkpt lat="44.70477" lon="1.27952">
        <ele>232.4</ele>
        <time>2022-08-13T09:45:30Z</time>
      </trkpt>
      <trkpt lat="44.70475" lon="1.27958">
        <ele>232.4</ele>
        <time>2022-08-13T09:45:32Z</time>
      </trkpt>
      <trkpt lat="44.70472" lon="1.27964">
        <ele>232.4</ele>
        <time>2022-08-13T09:45:34Z</time>
      </trkpt>
      <trkpt lat="44.70469" lon="1.27971">
        <ele>232.4</ele>
        <time>2022-08-13T09:45:36Z</time>
      </trkpt>
      <trkpt lat="44.70467" lon="1.27978">
        <ele>233.4</ele>
        <time>2022-08-13T09:45:38Z</time>
      </trkpt>
      <trkpt lat="44.70465" lon="1.27984">
        <ele>234.4</ele>
        <time>2022-08-13T09:45:40Z</time>
      </trkpt>
      <trkpt lat="44.70463" lon="1.2799">
        <ele>234.4</ele>
        <time>2022-08-13T09:45:42Z</time>
      </trkpt>
      <trkpt lat="44.7046" lon="1.27997">
        <ele>234.4</ele>
        <time>2022-08-13T09:45:44Z</time>
      </trkpt>
      <trkpt lat="44.70458" lon="1.28004">
        <ele>234.4</ele>
        <time>2022-08-13T09:45:46Z</time>
      </trkpt>
      <trkpt lat="44.70456" lon="1.2801">
        <ele>235.4</ele>
        <time>2022-08-13T09:45:48Z</time>
      </trkpt>
      <trkpt lat="44.70455" lon="1.28017">
        <ele>235.4</ele>
        <time>2022-08-13T09:45:50Z</time>
      </trkpt>
      <trkpt lat="44.70455" lon="1.28024">
        <ele>235.4</ele>
        <time>2022-08-13T09:45:52Z</time>
      </trkpt>
      <trkpt lat="44.70455" lon="1.28031">
        <ele>235.4</ele>
        <time>2022-08-13T09:45:55Z</time>
      </trkpt>
      <trkpt lat="44.70455" lon="1.28039">
        <ele>235.4</ele>
        <time>2022-08-13T09:45:59Z</time>
      </trkpt>
      <trkpt lat="44.70454" lon="1.28046">
        <ele>237.4</ele>
        <time>2022-08-13T09:46:16Z</time>
      </trkpt>
      <trkpt lat="44.70455" lon="1.28055">
        <ele>236.4</ele>
        <time>2022-08-13T09:46:18Z</time>
      </trkpt>
      <trkpt lat="44.70455" lon="1.28064">
        <ele>236.4</ele>
        <time>2022-08-13T09:46:20Z</time>
      </trkpt>
      <trkpt lat="44.70455" lon="1.28072">
        <ele>235.4</ele>
        <time>2022-08-13T09:46:22Z</time>
      </trkpt>
      <trkpt lat="44.70453" lon="1.28082">
        <ele>234.4</ele>
        <time>2022-08-13T09:46:24Z</time>
      </trkpt>
      <trkpt lat="44.70451" lon="1.28092">
        <ele>234.4</ele>
        <time>2022-08-13T09:46:26Z</time>
      </trkpt>
      <trkpt lat="44.70447" lon="1.28101">
        <ele>234.4</ele>
        <time>2022-08-13T09:46:28Z</time>
      </trkpt>
      <trkpt lat="44.70443" lon="1.2811">
        <ele>233.4</ele>
        <time>2022-08-13T09:46:30Z</time>
      </trkpt>
      <trkpt lat="44.70438" lon="1.28119">
        <ele>232.4</ele>
        <time>2022-08-13T09:46:32Z</time>
      </trkpt>
      <trkpt lat="44.70434" lon="1.2813">
        <ele>232.4</ele>
        <time>2022-08-13T09:46:34Z</time>
      </trkpt>
      <trkpt lat="44.70433" lon="1.28137">
        <ele>231.4</ele>
        <time>2022-08-13T09:46:35Z</time>
      </trkpt>
      <trkpt lat="44.70433" lon="1.28144">
        <ele>231.4</ele>
        <time>2022-08-13T09:46:36Z</time>
      </trkpt>
      <trkpt lat="44.70434" lon="1.28151">
        <ele>231.4</ele>
        <time>2022-08-13T09:46:37Z</time>
      </trkpt>
      <trkpt lat="44.70436" lon="1.2816">
        <ele>231.4</ele>
        <time>2022-08-13T09:46:38Z</time>
      </trkpt>
      <trkpt lat="44.70438" lon="1.28168">
        <ele>231.4</ele>
        <time>2022-08-13T09:46:39Z</time>
      </trkpt>
      <trkpt lat="44.70441" lon="1.28176">
        <ele>231.4</ele>
        <time>2022-08-13T09:46:40Z</time>
      </trkpt>
      <trkpt lat="44.70444" lon="1.28184">
        <ele>230.4</ele>
        <time>2022-08-13T09:46:41Z</time>
      </trkpt>
      <trkpt lat="44.70447" lon="1.28192">
        <ele>230.4</ele>
        <time>2022-08-13T09:46:42Z</time>
      </trkpt>
      <trkpt lat="44.7045" lon="1.282">
        <ele>230.4</ele>
        <time>2022-08-13T09:46:43Z</time>
      </trkpt>
      <trkpt lat="44.70453" lon="1.28209">
        <ele>230.4</ele>
        <time>2022-08-13T09:46:44Z</time>
      </trkpt>
      <trkpt lat="44.70456" lon="1.28218">
        <ele>229.4</ele>
        <time>2022-08-13T09:46:45Z</time>
      </trkpt>
      <trkpt lat="44.70458" lon="1.28226">
        <ele>230.4</ele>
        <time>2022-08-13T09:46:46Z</time>
      </trkpt>
      <trkpt lat="44.70461" lon="1.28234">
        <ele>229.4</ele>
        <time>2022-08-13T09:46:47Z</time>
      </trkpt>
      <trkpt lat="44.70464" lon="1.28243">
        <ele>229.4</ele>
        <time>2022-08-13T09:46:48Z</time>
      </trkpt>
      <trkpt lat="44.70466" lon="1.2825">
        <ele>229.4</ele>
        <time>2022-08-13T09:46:49Z</time>
      </trkpt>
      <trkpt lat="44.7047" lon="1.28257">
        <ele>227.4</ele>
        <time>2022-08-13T09:46:51Z</time>
      </trkpt>
      <trkpt lat="44.7047" lon="1.28264">
        <ele>225.4</ele>
        <time>2022-08-13T09:46:53Z</time>
      </trkpt>
      <trkpt lat="44.70466" lon="1.28272">
        <ele>224.4</ele>
        <time>2022-08-13T09:46:55Z</time>
      </trkpt>
      <trkpt lat="44.7046" lon="1.28282">
        <ele>224.4</ele>
        <time>2022-08-13T09:46:58Z</time>
      </trkpt>
      <trkpt lat="44.70455" lon="1.28289">
        <ele>223.4</ele>
        <time>2022-08-13T09:47:00Z</time>
      </trkpt>
      <trkpt lat="44.70449" lon="1.28297">
        <ele>222.4</ele>
        <time>2022-08-13T09:47:02Z</time>
      </trkpt>
      <trkpt lat="44.70443" lon="1.28305">
        <ele>222.4</ele>
        <time>2022-08-13T09:47:04Z</time>
      </trkpt>
      <trkpt lat="44.70438" lon="1.28314">
        <ele>222.4</ele>
        <time>2022-08-13T09:47:06Z</time>
      </trkpt>
      <trkpt lat="44.70434" lon="1.28319">
        <ele>221.4</ele>
        <time>2022-08-13T09:47:07Z</time>
      </trkpt>
      <trkpt lat="44.70428" lon="1.28329">
        <ele>220.4</ele>
        <time>2022-08-13T09:47:09Z</time>
      </trkpt>
      <trkpt lat="44.70422" lon="1.28337">
        <ele>219.4</ele>
        <time>2022-08-13T09:47:11Z</time>
      </trkpt>
      <trkpt lat="44.70418" lon="1.28343">
        <ele>218.4</ele>
        <time>2022-08-13T09:47:12Z</time>
      </trkpt>
      <trkpt lat="44.70416" lon="1.28348">
        <ele>218.4</ele>
        <time>2022-08-13T09:47:13Z</time>
      </trkpt>
      <trkpt lat="44.70411" lon="1.28355">
        <ele>217.4</ele>
        <time>2022-08-13T09:47:15Z</time>
      </trkpt>
      <trkpt lat="44.70406" lon="1.28365">
        <ele>217.4</ele>
        <time>2022-08-13T09:47:17Z</time>
      </trkpt>
      <trkpt lat="44.70402" lon="1.28374">
        <ele>216.4</ele>
        <time>2022-08-13T09:47:19Z</time>
      </trkpt>
      <trkpt lat="44.70401" lon="1.28389">
        <ele>215.4</ele>
        <time>2022-08-13T09:47:21Z</time>
      </trkpt>
      <trkpt lat="44.70402" lon="1.28397">
        <ele>215.4</ele>
        <time>2022-08-13T09:47:22Z</time>
      </trkpt>
      <trkpt lat="44.70403" lon="1.28405">
        <ele>214.4</ele>
        <time>2022-08-13T09:47:23Z</time>
      </trkpt>
      <trkpt lat="44.70404" lon="1.28414">
        <ele>214.4</ele>
        <time>2022-08-13T09:47:24Z</time>
      </trkpt>
      <trkpt lat="44.70406" lon="1.28423">
        <ele>213.4</ele>
        <time>2022-08-13T09:47:25Z</time>
      </trkpt>
      <trkpt lat="44.70407" lon="1.28431">
        <ele>212.4</ele>
        <time>2022-08-13T09:47:26Z</time>
      </trkpt>
      <trkpt lat="44.70408" lon="1.2844">
        <ele>211.4</ele>
        <time>2022-08-13T09:47:27Z</time>
      </trkpt>
      <trkpt lat="44.70408" lon="1.28448">
        <ele>210.4</ele>
        <time>2022-08-13T09:47:28Z</time>
      </trkpt>
      <trkpt lat="44.70409" lon="1.28457">
        <ele>210.4</ele>
        <time>2022-08-13T09:47:29Z</time>
      </trkpt>
      <trkpt lat="44.7041" lon="1.28464">
        <ele>210.4</ele>
        <time>2022-08-13T09:47:30Z</time>
      </trkpt>
      <trkpt lat="44.70411" lon="1.28473">
        <ele>209.4</ele>
        <time>2022-08-13T09:47:31Z</time>
      </trkpt>
      <trkpt lat="44.70412" lon="1.2848">
        <ele>209.4</ele>
        <time>2022-08-13T09:47:32Z</time>
      </trkpt>
      <trkpt lat="44.70414" lon="1.28488">
        <ele>209.4</ele>
        <time>2022-08-13T09:47:33Z</time>
      </trkpt>
      <trkpt lat="44.70415" lon="1.28495">
        <ele>209.4</ele>
        <time>2022-08-13T09:47:34Z</time>
      </trkpt>
      <trkpt lat="44.70418" lon="1.28501">
        <ele>208.4</ele>
        <time>2022-08-13T09:47:35Z</time>
      </trkpt>
      <trkpt lat="44.70421" lon="1.28508">
        <ele>208.4</ele>
        <time>2022-08-13T09:47:37Z</time>
      </trkpt>
      <trkpt lat="44.70424" lon="1.28515">
        <ele>207.4</ele>
        <time>2022-08-13T09:47:40Z</time>
      </trkpt>
      <trkpt lat="44.70425" lon="1.28521">
        <ele>207.4</ele>
        <time>2022-08-13T09:47:43Z</time>
      </trkpt>
      <trkpt lat="44.70427" lon="1.28529">
        <ele>207.4</ele>
        <time>2022-08-13T09:47:46Z</time>
      </trkpt>
      <trkpt lat="44.70428" lon="1.28537">
        <ele>208.4</ele>
        <time>2022-08-13T09:47:48Z</time>
      </trkpt>
      <trkpt lat="44.7043" lon="1.28544">
        <ele>207.4</ele>
        <time>2022-08-13T09:47:50Z</time>
      </trkpt>
      <trkpt lat="44.70435" lon="1.28548">
        <ele>206.4</ele>
        <time>2022-08-13T09:47:53Z</time>
      </trkpt>
      <trkpt lat="44.70438" lon="1.28553">
        <ele>208.4</ele>
        <time>2022-08-13T09:48:48Z</time>
      </trkpt>
      <trkpt lat="44.70441" lon="1.28548">
        <ele>205.4</ele>
        <time>2022-08-13T09:49:06Z</time>
      </trkpt>
      <trkpt lat="44.70436" lon="1.28549">
        <ele>212.4</ele>
        <time>2022-08-13T09:51:54Z</time>
      </trkpt>
      <trkpt lat="44.70439" lon="1.28555">
        <ele>212.4</ele>
        <time>2022-08-13T09:52:06Z</time>
      </trkpt>
      <trkpt lat="44.70442" lon="1.28561">
        <ele>211.4</ele>
        <time>2022-08-13T09:52:08Z</time>
      </trkpt>
      <trkpt lat="44.70444" lon="1.2857">
        <ele>210.4</ele>
        <time>2022-08-13T09:52:10Z</time>
      </trkpt>
      <trkpt lat="44.70445" lon="1.28583">
        <ele>208.4</ele>
        <time>2022-08-13T09:52:12Z</time>
      </trkpt>
      <trkpt lat="44.70446" lon="1.28589">
        <ele>206.4</ele>
        <time>2022-08-13T09:52:13Z</time>
      </trkpt>
      <trkpt lat="44.70447" lon="1.28595">
        <ele>205.4</ele>
        <time>2022-08-13T09:52:14Z</time>
      </trkpt>
      <trkpt lat="44.70449" lon="1.28607">
        <ele>202.4</ele>
        <time>2022-08-13T09:52:16Z</time>
      </trkpt>
      <trkpt lat="44.70453" lon="1.28616">
        <ele>202.4</ele>
        <time>2022-08-13T09:52:18Z</time>
      </trkpt>
      <trkpt lat="44.70456" lon="1.28625">
        <ele>201.4</ele>
        <time>2022-08-13T09:52:20Z</time>
      </trkpt>
      <trkpt lat="44.70459" lon="1.28635">
        <ele>201.4</ele>
        <time>2022-08-13T09:52:22Z</time>
      </trkpt>
      <trkpt lat="44.70462" lon="1.28647">
        <ele>200.4</ele>
        <time>2022-08-13T09:52:24Z</time>
      </trkpt>
      <trkpt lat="44.70462" lon="1.28654">
        <ele>199.4</ele>
        <time>2022-08-13T09:52:25Z</time>
      </trkpt>
      <trkpt lat="44.70463" lon="1.28661">
        <ele>199.4</ele>
        <time>2022-08-13T09:52:26Z</time>
      </trkpt>
      <trkpt lat="44.70464" lon="1.28669">
        <ele>198.4</ele>
        <time>2022-08-13T09:52:27Z</time>
      </trkpt>
      <trkpt lat="44.70464" lon="1.28676">
        <ele>198.4</ele>
        <time>2022-08-13T09:52:28Z</time>
      </trkpt>
      <trkpt lat="44.70465" lon="1.28682">
        <ele>197.4</ele>
        <time>2022-08-13T09:52:29Z</time>
      </trkpt>
      <trkpt lat="44.70466" lon="1.28691">
        <ele>196.4</ele>
        <time>2022-08-13T09:52:31Z</time>
      </trkpt>
      <trkpt lat="44.7047" lon="1.28696">
        <ele>196.4</ele>
        <time>2022-08-13T09:52:34Z</time>
      </trkpt>
      <trkpt lat="44.70472" lon="1.28702">
        <ele>196.4</ele>
        <time>2022-08-13T09:52:36Z</time>
      </trkpt>
      <trkpt lat="44.70476" lon="1.28707">
        <ele>195.4</ele>
        <time>2022-08-13T09:52:38Z</time>
      </trkpt>
      <trkpt lat="44.70479" lon="1.28713">
        <ele>194.4</ele>
        <time>2022-08-13T09:52:40Z</time>
      </trkpt>
      <trkpt lat="44.70482" lon="1.28719">
        <ele>194.4</ele>
        <time>2022-08-13T09:52:42Z</time>
      </trkpt>
      <trkpt lat="44.70485" lon="1.28724">
        <ele>193.4</ele>
        <time>2022-08-13T09:52:44Z</time>
      </trkpt>
      <trkpt lat="44.70489" lon="1.28725">
        <ele>194.4</ele>
        <time>2022-08-13T09:52:51Z</time>
      </trkpt>
      <trkpt lat="44.70492" lon="1.2873">
        <ele>194.4</ele>
        <time>2022-08-13T09:53:12Z</time>
      </trkpt>
      <trkpt lat="44.70487" lon="1.28727">
        <ele>194.4</ele>
        <time>2022-08-13T09:53:25Z</time>
      </trkpt>
      <trkpt lat="44.70484" lon="1.28732">
        <ele>196.4</ele>
        <time>2022-08-13T09:54:01Z</time>
      </trkpt>
      <trkpt lat="44.70487" lon="1.28726">
        <ele>190.4</ele>
        <time>2022-08-13T09:54:44Z</time>
      </trkpt>
      <trkpt lat="44.7049" lon="1.28732">
        <ele>187.4</ele>
        <time>2022-08-13T09:54:52Z</time>
      </trkpt>
      <trkpt lat="44.70494" lon="1.28739">
        <ele>190.4</ele>
        <time>2022-08-13T09:54:56Z</time>
      </trkpt>
      <trkpt lat="44.70497" lon="1.2875">
        <ele>195.4</ele>
        <time>2022-08-13T09:54:58Z</time>
      </trkpt>
      <trkpt lat="44.70498" lon="1.2876">
        <ele>193.4</ele>
        <time>2022-08-13T09:55:00Z</time>
      </trkpt>
      <trkpt lat="44.705" lon="1.28766">
        <ele>189.4</ele>
        <time>2022-08-13T09:55:02Z</time>
      </trkpt>
      <trkpt lat="44.70504" lon="1.28772">
        <ele>187.4</ele>
        <time>2022-08-13T09:55:05Z</time>
      </trkpt>
      <trkpt lat="44.70505" lon="1.28779">
        <ele>173.4</ele>
        <time>2022-08-13T09:59:20Z</time>
      </trkpt>
      <trkpt lat="44.70501" lon="1.28781">
        <ele>188.4</ele>
        <time>2022-08-13T09:59:22Z</time>
      </trkpt>
      <trkpt lat="44.705" lon="1.28774">
        <ele>187.4</ele>
        <time>2022-08-13T10:00:16Z</time>
      </trkpt>
      <trkpt lat="44.70498" lon="1.28768">
        <ele>185.4</ele>
        <time>2022-08-13T10:00:20Z</time>
      </trkpt>
      <trkpt lat="44.70495" lon="1.28762">
        <ele>184.4</ele>
        <time>2022-08-13T10:00:39Z</time>
      </trkpt>
      <trkpt lat="44.70495" lon="1.28755">
        <ele>184.4</ele>
        <time>2022-08-13T10:00:45Z</time>
      </trkpt>
      <trkpt lat="44.70495" lon="1.28749">
        <ele>185.4</ele>
        <time>2022-08-13T10:00:50Z</time>
      </trkpt>
      <trkpt lat="44.70492" lon="1.28743">
        <ele>185.4</ele>
        <time>2022-08-13T10:00:57Z</time>
      </trkpt>
      <trkpt lat="44.70488" lon="1.28738">
        <ele>189.4</ele>
        <time>2022-08-13T10:01:05Z</time>
      </trkpt>
      <trkpt lat="44.70487" lon="1.28731">
        <ele>190.4</ele>
        <time>2022-08-13T10:01:09Z</time>
      </trkpt>
      <trkpt lat="44.70484" lon="1.28725">
        <ele>191.4</ele>
        <time>2022-08-13T10:01:14Z</time>
      </trkpt>
      <trkpt lat="44.70482" lon="1.28719">
        <ele>193.4</ele>
        <time>2022-08-13T10:01:20Z</time>
      </trkpt>
      <trkpt lat="44.70478" lon="1.28714">
        <ele>198.4</ele>
        <time>2022-08-13T10:01:27Z</time>
      </trkpt>
      <trkpt lat="44.70474" lon="1.28709">
        <ele>201.4</ele>
        <time>2022-08-13T10:01:32Z</time>
      </trkpt>
      <trkpt lat="44.70471" lon="1.28704">
        <ele>203.4</ele>
        <time>2022-08-13T10:01:38Z</time>
      </trkpt>
      <trkpt lat="44.70469" lon="1.28698">
        <ele>206.4</ele>
        <time>2022-08-13T10:01:45Z</time>
      </trkpt>
      <trkpt lat="44.70467" lon="1.28692">
        <ele>208.4</ele>
        <time>2022-08-13T10:01:53Z</time>
      </trkpt>
      <trkpt lat="44.70464" lon="1.28687">
        <ele>202.4</ele>
        <time>2022-08-13T10:02:30Z</time>
      </trkpt>
      <trkpt lat="44.70464" lon="1.2868">
        <ele>202.4</ele>
        <time>2022-08-13T10:02:39Z</time>
      </trkpt>
      <trkpt lat="44.70463" lon="1.28673">
        <ele>201.4</ele>
        <time>2022-08-13T10:02:42Z</time>
      </trkpt>
      <trkpt lat="44.70462" lon="1.28666">
        <ele>201.4</ele>
        <time>2022-08-13T10:02:45Z</time>
      </trkpt>
      <trkpt lat="44.7046" lon="1.28658">
        <ele>200.4</ele>
        <time>2022-08-13T10:02:48Z</time>
      </trkpt>
      <trkpt lat="44.70459" lon="1.2865">
        <ele>198.4</ele>
        <time>2022-08-13T10:02:51Z</time>
      </trkpt>
      <trkpt lat="44.70459" lon="1.28641">
        <ele>199.4</ele>
        <time>2022-08-13T10:02:54Z</time>
      </trkpt>
      <trkpt lat="44.70458" lon="1.28633">
        <ele>199.4</ele>
        <time>2022-08-13T10:02:57Z</time>
      </trkpt>
      <trkpt lat="44.70454" lon="1.28626">
        <ele>199.4</ele>
        <time>2022-08-13T10:03:00Z</time>
      </trkpt>
      <trkpt lat="44.70452" lon="1.28619">
        <ele>200.4</ele>
        <time>2022-08-13T10:03:03Z</time>
      </trkpt>
      <trkpt lat="44.70449" lon="1.28612">
        <ele>201.4</ele>
        <time>2022-08-13T10:03:07Z</time>
      </trkpt>
      <trkpt lat="44.70446" lon="1.28606">
        <ele>201.4</ele>
        <time>2022-08-13T10:03:11Z</time>
      </trkpt>
      <trkpt lat="44.70444" lon="1.28599">
        <ele>201.4</ele>
        <time>2022-08-13T10:03:15Z</time>
      </trkpt>
      <trkpt lat="44.70443" lon="1.28591">
        <ele>201.4</ele>
        <time>2022-08-13T10:03:18Z</time>
      </trkpt>
      <trkpt lat="44.70442" lon="1.28583">
        <ele>202.4</ele>
        <time>2022-08-13T10:03:21Z</time>
      </trkpt>
      <trkpt lat="44.70442" lon="1.28576">
        <ele>204.4</ele>
        <time>2022-08-13T10:03:24Z</time>
      </trkpt>
      <trkpt lat="44.70442" lon="1.28569">
        <ele>207.4</ele>
        <time>2022-08-13T10:03:28Z</time>
      </trkpt>
      <trkpt lat="44.7044" lon="1.28561">
        <ele>208.4</ele>
        <time>2022-08-13T10:03:33Z</time>
      </trkpt>
      <trkpt lat="44.70437" lon="1.28555">
        <ele>210.4</ele>
        <time>2022-08-13T10:03:38Z</time>
      </trkpt>
      <trkpt lat="44.70433" lon="1.2855">
        <ele>212.4</ele>
        <time>2022-08-13T10:03:42Z</time>
      </trkpt>
      <trkpt lat="44.7043" lon="1.28545">
        <ele>213.4</ele>
        <time>2022-08-13T10:03:45Z</time>
      </trkpt>
      <trkpt lat="44.70426" lon="1.2854">
        <ele>213.4</ele>
        <time>2022-08-13T10:03:48Z</time>
      </trkpt>
      <trkpt lat="44.70422" lon="1.28542">
        <ele>212.4</ele>
        <time>2022-08-13T10:03:52Z</time>
      </trkpt>
      <trkpt lat="44.70419" lon="1.28549">
        <ele>212.4</ele>
        <time>2022-08-13T10:03:56Z</time>
      </trkpt>
      <trkpt lat="44.70414" lon="1.28554">
        <ele>210.4</ele>
        <time>2022-08-13T10:04:40Z</time>
      </trkpt>
      <trkpt lat="44.70409" lon="1.28558">
        <ele>211.4</ele>
        <time>2022-08-13T10:04:43Z</time>
      </trkpt>
      <trkpt lat="44.70405" lon="1.2856">
        <ele>212.4</ele>
        <time>2022-08-13T10:04:47Z</time>
      </trkpt>
      <trkpt lat="44.70399" lon="1.28562">
        <ele>212.4</ele>
        <time>2022-08-13T10:04:50Z</time>
      </trkpt>
      <trkpt lat="44.70394" lon="1.28563">
        <ele>212.4</ele>
        <time>2022-08-13T10:04:52Z</time>
      </trkpt>
      <trkpt lat="44.70389" lon="1.28562">
        <ele>212.4</ele>
        <time>2022-08-13T10:04:54Z</time>
      </trkpt>
      <trkpt lat="44.70384" lon="1.2856">
        <ele>211.4</ele>
        <time>2022-08-13T10:04:56Z</time>
      </trkpt>
      <trkpt lat="44.70378" lon="1.2856">
        <ele>211.4</ele>
        <time>2022-08-13T10:04:58Z</time>
      </trkpt>
      <trkpt lat="44.70372" lon="1.2856">
        <ele>210.4</ele>
        <time>2022-08-13T10:05:12Z</time>
      </trkpt>
      <trkpt lat="44.70367" lon="1.2856">
        <ele>210.4</ele>
        <time>2022-08-13T10:05:14Z</time>
      </trkpt>
      <trkpt lat="44.70361" lon="1.2856">
        <ele>210.4</ele>
        <time>2022-08-13T10:05:16Z</time>
      </trkpt>
      <trkpt lat="44.70354" lon="1.2856">
        <ele>210.4</ele>
        <time>2022-08-13T10:05:18Z</time>
      </trkpt>
      <trkpt lat="44.70349" lon="1.28559">
        <ele>210.4</ele>
        <time>2022-08-13T10:05:20Z</time>
      </trkpt>
      <trkpt lat="44.70342" lon="1.28557">
        <ele>209.4</ele>
        <time>2022-08-13T10:05:22Z</time>
      </trkpt>
      <trkpt lat="44.70335" lon="1.28555">
        <ele>208.4</ele>
        <time>2022-08-13T10:05:24Z</time>
      </trkpt>
      <trkpt lat="44.70329" lon="1.28553">
        <ele>206.4</ele>
        <time>2022-08-13T10:05:26Z</time>
      </trkpt>
      <trkpt lat="44.70323" lon="1.2855">
        <ele>205.4</ele>
        <time>2022-08-13T10:05:28Z</time>
      </trkpt>
      <trkpt lat="44.70317" lon="1.28548">
        <ele>204.4</ele>
        <time>2022-08-13T10:05:30Z</time>
      </trkpt>
      <trkpt lat="44.7031" lon="1.28548">
        <ele>204.4</ele>
        <time>2022-08-13T10:05:32Z</time>
      </trkpt>
      <trkpt lat="44.70304" lon="1.28547">
        <ele>204.4</ele>
        <time>2022-08-13T10:05:34Z</time>
      </trkpt>
      <trkpt lat="44.70299" lon="1.28546">
        <ele>203.4</ele>
        <time>2022-08-13T10:05:36Z</time>
      </trkpt>
      <trkpt lat="44.70294" lon="1.28545">
        <ele>202.4</ele>
        <time>2022-08-13T10:05:38Z</time>
      </trkpt>
      <trkpt lat="44.70288" lon="1.28547">
        <ele>201.4</ele>
        <time>2022-08-13T10:05:40Z</time>
      </trkpt>
      <trkpt lat="44.70281" lon="1.28545">
        <ele>201.4</ele>
        <time>2022-08-13T10:05:55Z</time>
      </trkpt>
      <trkpt lat="44.70274" lon="1.28546">
        <ele>198.4</ele>
        <time>2022-08-13T10:05:57Z</time>
      </trkpt>
      <trkpt lat="44.70265" lon="1.28549">
        <ele>199.4</ele>
        <time>2022-08-13T10:05:59Z</time>
      </trkpt>
      <trkpt lat="44.70261" lon="1.2855">
        <ele>198.4</ele>
        <time>2022-08-13T10:06:00Z</time>
      </trkpt>
      <trkpt lat="44.70256" lon="1.28552">
        <ele>197.4</ele>
        <time>2022-08-13T10:06:01Z</time>
      </trkpt>
      <trkpt lat="44.70252" lon="1.28553">
        <ele>197.4</ele>
        <time>2022-08-13T10:06:02Z</time>
      </trkpt>
      <trkpt lat="44.70247" lon="1.28554">
        <ele>197.4</ele>
        <time>2022-08-13T10:06:03Z</time>
      </trkpt>
      <trkpt lat="44.70239" lon="1.28555">
        <ele>197.4</ele>
        <time>2022-08-13T10:06:05Z</time>
      </trkpt>
      <trkpt lat="44.70231" lon="1.28557">
        <ele>197.4</ele>
        <time>2022-08-13T10:06:07Z</time>
      </trkpt>
      <trkpt lat="44.70226" lon="1.28557">
        <ele>196.4</ele>
        <time>2022-08-13T10:06:08Z</time>
      </trkpt>
      <trkpt lat="44.70221" lon="1.28559">
        <ele>197.4</ele>
        <time>2022-08-13T10:06:10Z</time>
      </trkpt>
      <trkpt lat="44.70215" lon="1.28559">
        <ele>195.4</ele>
        <time>2022-08-13T10:07:35Z</time>
      </trkpt>
      <trkpt lat="44.70211" lon="1.28557">
        <ele>196.4</ele>
        <time>2022-08-13T10:07:38Z</time>
      </trkpt>
      <trkpt lat="44.70206" lon="1.28556">
        <ele>196.4</ele>
        <time>2022-08-13T10:07:41Z</time>
      </trkpt>
      <trkpt lat="44.70201" lon="1.28555">
        <ele>196.4</ele>
        <time>2022-08-13T10:07:45Z</time>
      </trkpt>
      <trkpt lat="44.70196" lon="1.28555">
        <ele>195.4</ele>
        <time>2022-08-13T10:07:50Z</time>
      </trkpt>
      <trkpt lat="44.70191" lon="1.28552">
        <ele>196.4</ele>
        <time>2022-08-13T10:07:56Z</time>
      </trkpt>
      <trkpt lat="44.70186" lon="1.28551">
        <ele>195.4</ele>
        <time>2022-08-13T10:07:59Z</time>
      </trkpt>
      <trkpt lat="44.70181" lon="1.28549">
        <ele>194.4</ele>
        <time>2022-08-13T10:08:03Z</time>
      </trkpt>
      <trkpt lat="44.70176" lon="1.28546">
        <ele>195.4</ele>
        <time>2022-08-13T10:08:07Z</time>
      </trkpt>
      <trkpt lat="44.70171" lon="1.28546">
        <ele>195.4</ele>
        <time>2022-08-13T10:08:10Z</time>
      </trkpt>
      <trkpt lat="44.70166" lon="1.28545">
        <ele>195.4</ele>
        <time>2022-08-13T10:08:14Z</time>
      </trkpt>
      <trkpt lat="44.70161" lon="1.28544">
        <ele>196.4</ele>
        <time>2022-08-13T10:08:17Z</time>
      </trkpt>
      <trkpt lat="44.70156" lon="1.28543">
        <ele>197.4</ele>
        <time>2022-08-13T10:08:20Z</time>
      </trkpt>
      <trkpt lat="44.70151" lon="1.28543">
        <ele>197.4</ele>
        <time>2022-08-13T10:08:24Z</time>
      </trkpt>
      <trkpt lat="44.70147" lon="1.28541">
        <ele>197.4</ele>
        <time>2022-08-13T10:08:28Z</time>
      </trkpt>
      <trkpt lat="44.70142" lon="1.28539">
        <ele>198.4</ele>
        <time>2022-08-13T10:08:32Z</time>
      </trkpt>
      <trkpt lat="44.70136" lon="1.28538">
        <ele>199.4</ele>
        <time>2022-08-13T10:08:38Z</time>
      </trkpt>
      <trkpt lat="44.70131" lon="1.28536">
        <ele>200.4</ele>
        <time>2022-08-13T10:08:42Z</time>
      </trkpt>
      <trkpt lat="44.70126" lon="1.28534">
        <ele>202.4</ele>
        <time>2022-08-13T10:08:48Z</time>
      </trkpt>
      <trkpt lat="44.70121" lon="1.28534">
        <ele>204.4</ele>
        <time>2022-08-13T10:08:50Z</time>
      </trkpt>
      <trkpt lat="44.70116" lon="1.28537">
        <ele>205.4</ele>
        <time>2022-08-13T10:08:55Z</time>
      </trkpt>
      <trkpt lat="44.70113" lon="1.28543">
        <ele>203.4</ele>
        <time>2022-08-13T10:09:00Z</time>
      </trkpt>
      <trkpt lat="44.70109" lon="1.28549">
        <ele>201.4</ele>
        <time>2022-08-13T10:09:06Z</time>
      </trkpt>
      <trkpt lat="44.70105" lon="1.28554">
        <ele>201.4</ele>
        <time>2022-08-13T10:09:08Z</time>
      </trkpt>
      <trkpt lat="44.70102" lon="1.28559">
        <ele>203.4</ele>
        <time>2022-08-13T10:09:13Z</time>
      </trkpt>
      <trkpt lat="44.70097" lon="1.28564">
        <ele>204.4</ele>
        <time>2022-08-13T10:09:19Z</time>
      </trkpt>
      <trkpt lat="44.70093" lon="1.28565">
        <ele>205.4</ele>
        <time>2022-08-13T10:09:21Z</time>
      </trkpt>
      <trkpt lat="44.70088" lon="1.28566">
        <ele>206.4</ele>
        <time>2022-08-13T10:09:27Z</time>
      </trkpt>
      <trkpt lat="44.70083" lon="1.28567">
        <ele>209.4</ele>
        <time>2022-08-13T10:09:29Z</time>
      </trkpt>
      <trkpt lat="44.70077" lon="1.28566">
        <ele>209.4</ele>
        <time>2022-08-13T10:09:36Z</time>
      </trkpt>
      <trkpt lat="44.70073" lon="1.28566">
        <ele>211.4</ele>
        <time>2022-08-13T10:09:47Z</time>
      </trkpt>
      <trkpt lat="44.70068" lon="1.28566">
        <ele>212.4</ele>
        <time>2022-08-13T10:09:55Z</time>
      </trkpt>
      <trkpt lat="44.70063" lon="1.28565">
        <ele>212.4</ele>
        <time>2022-08-13T10:09:57Z</time>
      </trkpt>
      <trkpt lat="44.70058" lon="1.28565">
        <ele>213.4</ele>
        <time>2022-08-13T10:10:04Z</time>
      </trkpt>
      <trkpt lat="44.70053" lon="1.28564">
        <ele>213.4</ele>
        <time>2022-08-13T10:10:07Z</time>
      </trkpt>
      <trkpt lat="44.70047" lon="1.28565">
        <ele>214.4</ele>
        <time>2022-08-13T10:10:14Z</time>
      </trkpt>
      <trkpt lat="44.70041" lon="1.28565">
        <ele>215.4</ele>
        <time>2022-08-13T10:10:17Z</time>
      </trkpt>
      <trkpt lat="44.70036" lon="1.28562">
        <ele>216.4</ele>
        <time>2022-08-13T10:10:24Z</time>
      </trkpt>
      <trkpt lat="44.70031" lon="1.28562">
        <ele>217.4</ele>
        <time>2022-08-13T10:10:26Z</time>
      </trkpt>
      <trkpt lat="44.70026" lon="1.28561">
        <ele>217.4</ele>
        <time>2022-08-13T10:10:28Z</time>
      </trkpt>
      <trkpt lat="44.70022" lon="1.28558">
        <ele>217.4</ele>
        <time>2022-08-13T10:10:37Z</time>
      </trkpt>
      <trkpt lat="44.70016" lon="1.28558">
        <ele>219.4</ele>
        <time>2022-08-13T10:10:39Z</time>
      </trkpt>
      <trkpt lat="44.70011" lon="1.28558">
        <ele>219.4</ele>
        <time>2022-08-13T10:10:42Z</time>
      </trkpt>
      <trkpt lat="44.70006" lon="1.28556">
        <ele>219.4</ele>
        <time>2022-08-13T10:10:51Z</time>
      </trkpt>
      <trkpt lat="44.70002" lon="1.28554">
        <ele>220.4</ele>
        <time>2022-08-13T10:10:53Z</time>
      </trkpt>
      <trkpt lat="44.69996" lon="1.2855">
        <ele>220.4</ele>
        <time>2022-08-13T10:10:55Z</time>
      </trkpt>
      <trkpt lat="44.6999" lon="1.28547">
        <ele>220.4</ele>
        <time>2022-08-13T10:11:03Z</time>
      </trkpt>
      <trkpt lat="44.69985" lon="1.28545">
        <ele>222.4</ele>
        <time>2022-08-13T10:11:05Z</time>
      </trkpt>
      <trkpt lat="44.6998" lon="1.2855">
        <ele>224.4</ele>
        <time>2022-08-13T10:11:07Z</time>
      </trkpt>
      <trkpt lat="44.69976" lon="1.28554">
        <ele>222.4</ele>
        <time>2022-08-13T10:11:09Z</time>
      </trkpt>
      <trkpt lat="44.69971" lon="1.28557">
        <ele>222.4</ele>
        <time>2022-08-13T10:11:17Z</time>
      </trkpt>
      <trkpt lat="44.69967" lon="1.2856">
        <ele>219.4</ele>
        <time>2022-08-13T10:11:20Z</time>
      </trkpt>
      <trkpt lat="44.69963" lon="1.28565">
        <ele>217.4</ele>
        <time>2022-08-13T10:11:21Z</time>
      </trkpt>
      <trkpt lat="44.69959" lon="1.2857">
        <ele>216.4</ele>
        <time>2022-08-13T10:11:23Z</time>
      </trkpt>
      <trkpt lat="44.69956" lon="1.28575">
        <ele>214.4</ele>
        <time>2022-08-13T10:11:25Z</time>
      </trkpt>
      <trkpt lat="44.69951" lon="1.2858">
        <ele>213.4</ele>
        <time>2022-08-13T10:11:34Z</time>
      </trkpt>
      <trkpt lat="44.69948" lon="1.28584">
        <ele>213.4</ele>
        <time>2022-08-13T10:11:35Z</time>
      </trkpt>
      <trkpt lat="44.69944" lon="1.28588">
        <ele>212.4</ele>
        <time>2022-08-13T10:11:36Z</time>
      </trkpt>
      <trkpt lat="44.69938" lon="1.28593">
        <ele>212.4</ele>
        <time>2022-08-13T10:11:38Z</time>
      </trkpt>
      <trkpt lat="44.69935" lon="1.28598">
        <ele>212.4</ele>
        <time>2022-08-13T10:11:39Z</time>
      </trkpt>
      <trkpt lat="44.6993" lon="1.28603">
        <ele>211.4</ele>
        <time>2022-08-13T10:11:40Z</time>
      </trkpt>
      <trkpt lat="44.69928" lon="1.28609">
        <ele>210.4</ele>
        <time>2022-08-13T10:11:49Z</time>
      </trkpt>
      <trkpt lat="44.69926" lon="1.28616">
        <ele>210.4</ele>
        <time>2022-08-13T10:11:50Z</time>
      </trkpt>
      <trkpt lat="44.69925" lon="1.28624">
        <ele>210.4</ele>
        <time>2022-08-13T10:11:51Z</time>
      </trkpt>
      <trkpt lat="44.69926" lon="1.28632">
        <ele>210.4</ele>
        <time>2022-08-13T10:11:52Z</time>
      </trkpt>
      <trkpt lat="44.69929" lon="1.28639">
        <ele>210.4</ele>
        <time>2022-08-13T10:11:53Z</time>
      </trkpt>
      <trkpt lat="44.69935" lon="1.28642">
        <ele>210.4</ele>
        <time>2022-08-13T10:11:55Z</time>
      </trkpt>
      <trkpt lat="44.69936" lon="1.28651">
        <ele>210.4</ele>
        <time>2022-08-13T10:11:56Z</time>
      </trkpt>
      <trkpt lat="44.69935" lon="1.28661">
        <ele>210.4</ele>
        <time>2022-08-13T10:12:05Z</time>
      </trkpt>
      <trkpt lat="44.69935" lon="1.28671">
        <ele>210.4</ele>
        <time>2022-08-13T10:12:07Z</time>
      </trkpt>
      <trkpt lat="44.69933" lon="1.28679">
        <ele>210.4</ele>
        <time>2022-08-13T10:12:08Z</time>
      </trkpt>
      <trkpt lat="44.6993" lon="1.28685">
        <ele>210.4</ele>
        <time>2022-08-13T10:12:09Z</time>
      </trkpt>
      <trkpt lat="44.69926" lon="1.28692">
        <ele>210.4</ele>
        <time>2022-08-13T10:12:10Z</time>
      </trkpt>
      <trkpt lat="44.69923" lon="1.28698">
        <ele>210.4</ele>
        <time>2022-08-13T10:12:11Z</time>
      </trkpt>
      <trkpt lat="44.69917" lon="1.28703">
        <ele>211.4</ele>
        <time>2022-08-13T10:12:12Z</time>
      </trkpt>
      <trkpt lat="44.6991" lon="1.2871">
        <ele>212.4</ele>
        <time>2022-08-13T10:12:13Z</time>
      </trkpt>
      <trkpt lat="44.69904" lon="1.28719">
        <ele>214.4</ele>
        <time>2022-08-13T10:12:14Z</time>
      </trkpt>
      <trkpt lat="44.69901" lon="1.28724">
        <ele>214.4</ele>
        <time>2022-08-13T10:12:24Z</time>
      </trkpt>
      <trkpt lat="44.69898" lon="1.28735">
        <ele>216.4</ele>
        <time>2022-08-13T10:12:25Z</time>
      </trkpt>
      <trkpt lat="44.69895" lon="1.28745">
        <ele>217.4</ele>
        <time>2022-08-13T10:12:26Z</time>
      </trkpt>
      <trkpt lat="44.69892" lon="1.28755">
        <ele>218.4</ele>
        <time>2022-08-13T10:12:27Z</time>
      </trkpt>
      <trkpt lat="44.6989" lon="1.28765">
        <ele>219.4</ele>
        <time>2022-08-13T10:12:28Z</time>
      </trkpt>
      <trkpt lat="44.69888" lon="1.28776">
        <ele>219.4</ele>
        <time>2022-08-13T10:12:29Z</time>
      </trkpt>
      <trkpt lat="44.69886" lon="1.28785">
        <ele>219.4</ele>
        <time>2022-08-13T10:12:30Z</time>
      </trkpt>
      <trkpt lat="44.69885" lon="1.28793">
        <ele>219.4</ele>
        <time>2022-08-13T10:12:31Z</time>
      </trkpt>
      <trkpt lat="44.69885" lon="1.28801">
        <ele>219.4</ele>
        <time>2022-08-13T10:12:32Z</time>
      </trkpt>
      <trkpt lat="44.69884" lon="1.28809">
        <ele>219.4</ele>
        <time>2022-08-13T10:12:34Z</time>
      </trkpt>
      <trkpt lat="44.69882" lon="1.28816">
        <ele>219.4</ele>
        <time>2022-08-13T10:12:45Z</time>
      </trkpt>
      <trkpt lat="44.69881" lon="1.28823">
        <ele>220.4</ele>
        <time>2022-08-13T10:12:46Z</time>
      </trkpt>
      <trkpt lat="44.69879" lon="1.28831">
        <ele>219.4</ele>
        <time>2022-08-13T10:12:48Z</time>
      </trkpt>
      <trkpt lat="44.69877" lon="1.28838">
        <ele>219.4</ele>
        <time>2022-08-13T10:12:49Z</time>
      </trkpt>
      <trkpt lat="44.69876" lon="1.28845">
        <ele>219.4</ele>
        <time>2022-08-13T10:12:50Z</time>
      </trkpt>
      <trkpt lat="44.69874" lon="1.28853">
        <ele>219.4</ele>
        <time>2022-08-13T10:12:51Z</time>
      </trkpt>
      <trkpt lat="44.69873" lon="1.28861">
        <ele>219.4</ele>
        <time>2022-08-13T10:12:52Z</time>
      </trkpt>
      <trkpt lat="44.69871" lon="1.28869">
        <ele>219.4</ele>
        <time>2022-08-13T10:12:54Z</time>
      </trkpt>
      <trkpt lat="44.6987" lon="1.28875">
        <ele>219.4</ele>
        <time>2022-08-13T10:12:54Z</time>
      </trkpt>
      <trkpt lat="44.69868" lon="1.28884">
        <ele>219.4</ele>
        <time>2022-08-13T10:13:06Z</time>
      </trkpt>
      <trkpt lat="44.69863" lon="1.28887">
        <ele>219.4</ele>
        <time>2022-08-13T10:13:08Z</time>
      </trkpt>
      <trkpt lat="44.69857" lon="1.28887">
        <ele>219.4</ele>
        <time>2022-08-13T10:13:10Z</time>
      </trkpt>
      <trkpt lat="44.69852" lon="1.28886">
        <ele>219.4</ele>
        <time>2022-08-13T10:13:11Z</time>
      </trkpt>
      <trkpt lat="44.69847" lon="1.28884">
        <ele>218.4</ele>
        <time>2022-08-13T10:13:13Z</time>
      </trkpt>
      <trkpt lat="44.6984" lon="1.28883">
        <ele>218.4</ele>
        <time>2022-08-13T10:13:15Z</time>
      </trkpt>
      <trkpt lat="44.69834" lon="1.28882">
        <ele>219.4</ele>
        <time>2022-08-13T10:13:17Z</time>
      </trkpt>
      <trkpt lat="44.6983" lon="1.28886">
        <ele>219.4</ele>
        <time>2022-08-13T10:13:29Z</time>
      </trkpt>
      <trkpt lat="44.69828" lon="1.28893">
        <ele>218.4</ele>
        <time>2022-08-13T10:13:31Z</time>
      </trkpt>
      <trkpt lat="44.69826" lon="1.289">
        <ele>218.4</ele>
        <time>2022-08-13T10:13:32Z</time>
      </trkpt>
      <trkpt lat="44.69824" lon="1.28907">
        <ele>218.4</ele>
        <time>2022-08-13T10:13:33Z</time>
      </trkpt>
      <trkpt lat="44.69822" lon="1.28914">
        <ele>218.4</ele>
        <time>2022-08-13T10:13:34Z</time>
      </trkpt>
      <trkpt lat="44.69819" lon="1.28921">
        <ele>219.4</ele>
        <time>2022-08-13T10:13:35Z</time>
      </trkpt>
      <trkpt lat="44.69815" lon="1.28929">
        <ele>218.4</ele>
        <time>2022-08-13T10:13:36Z</time>
      </trkpt>
      <trkpt lat="44.69812" lon="1.28937">
        <ele>219.4</ele>
        <time>2022-08-13T10:13:37Z</time>
      </trkpt>
      <trkpt lat="44.69809" lon="1.28944">
        <ele>221.4</ele>
        <time>2022-08-13T10:13:38Z</time>
      </trkpt>
      <trkpt lat="44.69806" lon="1.28952">
        <ele>222.4</ele>
        <time>2022-08-13T10:13:39Z</time>
      </trkpt>
      <trkpt lat="44.69803" lon="1.28958">
        <ele>223.4</ele>
        <time>2022-08-13T10:13:40Z</time>
      </trkpt>
      <trkpt lat="44.69801" lon="1.28964">
        <ele>223.4</ele>
        <time>2022-08-13T10:13:42Z</time>
      </trkpt>
      <trkpt lat="44.69799" lon="1.2897">
        <ele>224.4</ele>
        <time>2022-08-13T10:13:55Z</time>
      </trkpt>
      <trkpt lat="44.69797" lon="1.28978">
        <ele>223.4</ele>
        <time>2022-08-13T10:13:57Z</time>
      </trkpt>
      <trkpt lat="44.69795" lon="1.28984">
        <ele>224.4</ele>
        <time>2022-08-13T10:13:58Z</time>
      </trkpt>
      <trkpt lat="44.69792" lon="1.28992">
        <ele>224.4</ele>
        <time>2022-08-13T10:13:59Z</time>
      </trkpt>
      <trkpt lat="44.69789" lon="1.28998">
        <ele>223.4</ele>
        <time>2022-08-13T10:14:00Z</time>
      </trkpt>
      <trkpt lat="44.69786" lon="1.29004">
        <ele>223.4</ele>
        <time>2022-08-13T10:14:02Z</time>
      </trkpt>
      <trkpt lat="44.69782" lon="1.29009">
        <ele>223.4</ele>
        <time>2022-08-13T10:14:03Z</time>
      </trkpt>
      <trkpt lat="44.69778" lon="1.29015">
        <ele>222.4</ele>
        <time>2022-08-13T10:14:05Z</time>
      </trkpt>
      <trkpt lat="44.69775" lon="1.29021">
        <ele>222.4</ele>
        <time>2022-08-13T10:14:06Z</time>
      </trkpt>
      <trkpt lat="44.69771" lon="1.29028">
        <ele>223.4</ele>
        <time>2022-08-13T10:14:09Z</time>
      </trkpt>
      <trkpt lat="44.69768" lon="1.29033">
        <ele>216.4</ele>
        <time>2022-08-13T10:14:31Z</time>
      </trkpt>
      <trkpt lat="44.69767" lon="1.29039">
        <ele>219.4</ele>
        <time>2022-08-13T10:15:01Z</time>
      </trkpt>
      <trkpt lat="44.69764" lon="1.29044">
        <ele>219.4</ele>
        <time>2022-08-13T10:15:03Z</time>
      </trkpt>
      <trkpt lat="44.69759" lon="1.2905">
        <ele>219.4</ele>
        <time>2022-08-13T10:15:05Z</time>
      </trkpt>
      <trkpt lat="44.69755" lon="1.29056">
        <ele>219.4</ele>
        <time>2022-08-13T10:15:07Z</time>
      </trkpt>
      <trkpt lat="44.69752" lon="1.29063">
        <ele>219.4</ele>
        <time>2022-08-13T10:15:08Z</time>
      </trkpt>
      <trkpt lat="44.69749" lon="1.29069">
        <ele>220.4</ele>
        <time>2022-08-13T10:15:10Z</time>
      </trkpt>
      <trkpt lat="44.69746" lon="1.29075">
        <ele>220.4</ele>
        <time>2022-08-13T10:15:12Z</time>
      </trkpt>
      <trkpt lat="44.69743" lon="1.2908">
        <ele>221.4</ele>
        <time>2022-08-13T10:15:14Z</time>
      </trkpt>
      <trkpt lat="44.69741" lon="1.29086">
        <ele>221.4</ele>
        <time>2022-08-13T10:15:15Z</time>
      </trkpt>
      <trkpt lat="44.69738" lon="1.2909">
        <ele>222.4</ele>
        <time>2022-08-13T10:15:18Z</time>
      </trkpt>
      <trkpt lat="44.69732" lon="1.2909">
        <ele>219.4</ele>
        <time>2022-08-13T10:15:38Z</time>
      </trkpt>
      <trkpt lat="44.69737" lon="1.29091">
        <ele>223.4</ele>
        <time>2022-08-13T10:17:24Z</time>
      </trkpt>
      <trkpt lat="44.69732" lon="1.29091">
        <ele>222.4</ele>
        <time>2022-08-13T10:18:02Z</time>
      </trkpt>
      <trkpt lat="44.69729" lon="1.29086">
        <ele>222.4</ele>
        <time>2022-08-13T10:18:02Z</time>
      </trkpt>
      <trkpt lat="44.69725" lon="1.29081">
        <ele>223.4</ele>
        <time>2022-08-13T10:18:02Z</time>
      </trkpt>
      <trkpt lat="44.69722" lon="1.29075">
        <ele>223.4</ele>
        <time>2022-08-13T10:18:02Z</time>
      </trkpt>
      <trkpt lat="44.69719" lon="1.29069">
        <ele>222.4</ele>
        <time>2022-08-13T10:18:02Z</time>
      </trkpt>
      <trkpt lat="44.69716" lon="1.29061">
        <ele>222.4</ele>
        <time>2022-08-13T10:18:02Z</time>
      </trkpt>
      <trkpt lat="44.69715" lon="1.29053">
        <ele>220.4</ele>
        <time>2022-08-13T10:18:02Z</time>
      </trkpt>
      <trkpt lat="44.69714" lon="1.29046">
        <ele>219.4</ele>
        <time>2022-08-13T10:18:03Z</time>
      </trkpt>
      <trkpt lat="44.69713" lon="1.29034">
        <ele>218.4</ele>
        <time>2022-08-13T10:18:03Z</time>
      </trkpt>
      <trkpt lat="44.69713" lon="1.29027">
        <ele>217.4</ele>
        <time>2022-08-13T10:18:03Z</time>
      </trkpt>
      <trkpt lat="44.69711" lon="1.29017">
        <ele>215.4</ele>
        <time>2022-08-13T10:18:03Z</time>
      </trkpt>
      <trkpt lat="44.69709" lon="1.29009">
        <ele>214.4</ele>
        <time>2022-08-13T10:18:03Z</time>
      </trkpt>
      <trkpt lat="44.69595" lon="1.28771">
        <ele>200</ele>
        <time>2022-08-13T10:27:31Z</time>
      </trkpt>
      <trkpt lat="44.69596" lon="1.2878">
        <ele>197.4</ele>
        <time>2022-08-13T10:27:31Z</time>
      </trkpt>
      <trkpt lat="44.69601" lon="1.28783">
        <ele>180.4</ele>
        <time>2022-08-13T10:28:40Z</time>
      </trkpt>
      <trkpt lat="44.69606" lon="1.2878">
        <ele>178.3</ele>
        <time>2022-08-13T10:28:44Z</time>
      </trkpt>
      <trkpt lat="44.69611" lon="1.28775">
        <ele>178.4</ele>
        <time>2022-08-13T10:28:48Z</time>
      </trkpt>
      <trkpt lat="44.69612" lon="1.28767">
        <ele>177.4</ele>
        <time>2022-08-13T10:28:51Z</time>
      </trkpt>
      <trkpt lat="44.69614" lon="1.28759">
        <ele>177.4</ele>
        <time>2022-08-13T10:28:54Z</time>
      </trkpt>
      <trkpt lat="44.69617" lon="1.28754">
        <ele>180.4</ele>
        <time>2022-08-13T10:28:58Z</time>
      </trkpt>
      <trkpt lat="44.69621" lon="1.2875">
        <ele>182.4</ele>
        <time>2022-08-13T10:29:02Z</time>
      </trkpt>
      <trkpt lat="44.69624" lon="1.28744">
        <ele>183.4</ele>
        <time>2022-08-13T10:29:05Z</time>
      </trkpt>
      <trkpt lat="44.69623" lon="1.28737">
        <ele>182.4</ele>
        <time>2022-08-13T10:29:10Z</time>
      </trkpt>
      <trkpt lat="44.6962" lon="1.28731">
        <ele>182.4</ele>
        <time>2022-08-13T10:29:13Z</time>
      </trkpt>
      <trkpt lat="44.69617" lon="1.28725">
        <ele>182.4</ele>
        <time>2022-08-13T10:29:16Z</time>
      </trkpt>
      <trkpt lat="44.69613" lon="1.2872">
        <ele>181.4</ele>
        <time>2022-08-13T10:29:19Z</time>
      </trkpt>
      <trkpt lat="44.69609" lon="1.28714">
        <ele>181.4</ele>
        <time>2022-08-13T10:29:22Z</time>
      </trkpt>
      <trkpt lat="44.69605" lon="1.2871">
        <ele>180.4</ele>
        <time>2022-08-13T10:29:25Z</time>
      </trkpt>
      <trkpt lat="44.69601" lon="1.28705">
        <ele>179.4</ele>
        <time>2022-08-13T10:29:27Z</time>
      </trkpt>
      <trkpt lat="44.69597" lon="1.287">
        <ele>179.4</ele>
        <time>2022-08-13T10:29:29Z</time>
      </trkpt>
      <trkpt lat="44.69593" lon="1.28696">
        <ele>186.4</ele>
        <time>2022-08-13T10:30:28Z</time>
      </trkpt>
      <trkpt lat="44.69596" lon="1.28701">
        <ele>189.4</ele>
        <time>2022-08-13T10:31:05Z</time>
      </trkpt>
      <trkpt lat="44.69602" lon="1.28708">
        <ele>189.4</ele>
        <time>2022-08-13T10:31:10Z</time>
      </trkpt>
      <trkpt lat="44.69606" lon="1.28712">
        <ele>188.4</ele>
        <time>2022-08-13T10:31:13Z</time>
      </trkpt>
      <trkpt lat="44.6961" lon="1.28718">
        <ele>188.4</ele>
        <time>2022-08-13T10:31:16Z</time>
      </trkpt>
      <trkpt lat="44.69614" lon="1.28722">
        <ele>189.4</ele>
        <time>2022-08-13T10:31:20Z</time>
      </trkpt>
      <trkpt lat="44.69618" lon="1.28728">
        <ele>189.4</ele>
        <time>2022-08-13T10:31:33Z</time>
      </trkpt>
      <trkpt lat="44.69622" lon="1.28733">
        <ele>190.4</ele>
        <time>2022-08-13T10:31:36Z</time>
      </trkpt>
      <trkpt lat="44.69626" lon="1.28736">
        <ele>191.4</ele>
        <time>2022-08-13T10:31:39Z</time>
      </trkpt>
      <trkpt lat="44.69629" lon="1.2873">
        <ele>190.4</ele>
        <time>2022-08-13T10:31:44Z</time>
      </trkpt>
      <trkpt lat="44.69627" lon="1.28722">
        <ele>190.4</ele>
        <time>2022-08-13T10:31:47Z</time>
      </trkpt>
      <trkpt lat="44.69628" lon="1.28715">
        <ele>191.3</ele>
        <time>2022-08-13T10:31:50Z</time>
      </trkpt>
      <trkpt lat="44.69632" lon="1.28709">
        <ele>192.4</ele>
        <time>2022-08-13T10:31:53Z</time>
      </trkpt>
      <trkpt lat="44.69638" lon="1.28706">
        <ele>192.4</ele>
        <time>2022-08-13T10:31:56Z</time>
      </trkpt>
      <trkpt lat="44.69642" lon="1.28702">
        <ele>193.4</ele>
        <time>2022-08-13T10:31:59Z</time>
      </trkpt>
      <trkpt lat="44.69648" lon="1.28698">
        <ele>194.4</ele>
        <time>2022-08-13T10:32:03Z</time>
      </trkpt>
      <trkpt lat="44.69652" lon="1.28695">
        <ele>195.4</ele>
        <time>2022-08-13T10:32:06Z</time>
      </trkpt>
      <trkpt lat="44.69657" lon="1.28693">
        <ele>195.4</ele>
        <time>2022-08-13T10:32:09Z</time>
      </trkpt>
      <trkpt lat="44.69661" lon="1.28694">
        <ele>194.4</ele>
        <time>2022-08-13T10:32:13Z</time>
      </trkpt>
      <trkpt lat="44.69664" lon="1.287">
        <ele>195.4</ele>
        <time>2022-08-13T10:32:21Z</time>
      </trkpt>
      <trkpt lat="44.69669" lon="1.287">
        <ele>195.4</ele>
        <time>2022-08-13T10:32:36Z</time>
      </trkpt>
      <trkpt lat="44.69673" lon="1.28699">
        <ele>195.3</ele>
        <time>2022-08-13T10:32:39Z</time>
      </trkpt>
      <trkpt lat="44.69678" lon="1.28698">
        <ele>195.4</ele>
        <time>2022-08-13T10:32:42Z</time>
      </trkpt>
      <trkpt lat="44.69683" lon="1.28693">
        <ele>195.4</ele>
        <time>2022-08-13T10:32:46Z</time>
      </trkpt>
      <trkpt lat="44.69687" lon="1.28687">
        <ele>194.4</ele>
        <time>2022-08-13T10:32:49Z</time>
      </trkpt>
      <trkpt lat="44.69691" lon="1.28681">
        <ele>194.4</ele>
        <time>2022-08-13T10:32:53Z</time>
      </trkpt>
      <trkpt lat="44.69694" lon="1.28674">
        <ele>194.4</ele>
        <time>2022-08-13T10:32:56Z</time>
      </trkpt>
      <trkpt lat="44.69699" lon="1.28664">
        <ele>194.4</ele>
        <time>2022-08-13T10:33:00Z</time>
      </trkpt>
      <trkpt lat="44.69703" lon="1.28658">
        <ele>194.4</ele>
        <time>2022-08-13T10:33:02Z</time>
      </trkpt>
      <trkpt lat="44.69707" lon="1.28652">
        <ele>195.4</ele>
        <time>2022-08-13T10:33:04Z</time>
      </trkpt>
      <trkpt lat="44.69711" lon="1.28647">
        <ele>196.4</ele>
        <time>2022-08-13T10:33:06Z</time>
      </trkpt>
      <trkpt lat="44.69716" lon="1.28643">
        <ele>196.4</ele>
        <time>2022-08-13T10:33:08Z</time>
      </trkpt>
      <trkpt lat="44.6972" lon="1.28639">
        <ele>196.4</ele>
        <time>2022-08-13T10:33:10Z</time>
      </trkpt>
      <trkpt lat="44.69723" lon="1.28634">
        <ele>194.4</ele>
        <time>2022-08-13T10:33:12Z</time>
      </trkpt>
      <trkpt lat="44.69727" lon="1.28627">
        <ele>194.4</ele>
        <time>2022-08-13T10:33:15Z</time>
      </trkpt>
      <trkpt lat="44.69726" lon="1.28619">
        <ele>195.4</ele>
        <time>2022-08-13T10:33:18Z</time>
      </trkpt>
      <trkpt lat="44.69721" lon="1.28615">
        <ele>195.4</ele>
        <time>2022-08-13T10:33:20Z</time>
      </trkpt>
      <trkpt lat="44.69714" lon="1.2861">
        <ele>194.3</ele>
        <time>2022-08-13T10:33:22Z</time>
      </trkpt>
      <trkpt lat="44.69709" lon="1.28608">
        <ele>193.4</ele>
        <time>2022-08-13T10:33:23Z</time>
      </trkpt>
      <trkpt lat="44.69701" lon="1.28604">
        <ele>191.4</ele>
        <time>2022-08-13T10:33:25Z</time>
      </trkpt>
      <trkpt lat="44.69692" lon="1.28598">
        <ele>191.4</ele>
        <time>2022-08-13T10:33:27Z</time>
      </trkpt>
      <trkpt lat="44.69688" lon="1.28595">
        <ele>191.4</ele>
        <time>2022-08-13T10:33:28Z</time>
      </trkpt>
      <trkpt lat="44.69681" lon="1.2859">
        <ele>189.4</ele>
        <time>2022-08-13T10:33:30Z</time>
      </trkpt>
      <trkpt lat="44.69675" lon="1.28588">
        <ele>188.3</ele>
        <time>2022-08-13T10:33:32Z</time>
      </trkpt>
      <trkpt lat="44.69672" lon="1.28583">
        <ele>189.4</ele>
        <time>2022-08-13T10:33:55Z</time>
      </trkpt>
      <trkpt lat="44.69667" lon="1.28579">
        <ele>189.4</ele>
        <time>2022-08-13T10:33:57Z</time>
      </trkpt>
      <trkpt lat="44.69662" lon="1.28577">
        <ele>188.4</ele>
        <time>2022-08-13T10:33:58Z</time>
      </trkpt>
      <trkpt lat="44.69657" lon="1.28575">
        <ele>185.4</ele>
        <time>2022-08-13T10:33:59Z</time>
      </trkpt>
      <trkpt lat="44.69652" lon="1.28573">
        <ele>184.4</ele>
        <time>2022-08-13T10:34:00Z</time>
      </trkpt>
      <trkpt lat="44.69645" lon="1.28568">
        <ele>182.4</ele>
        <time>2022-08-13T10:34:02Z</time>
      </trkpt>
      <trkpt lat="44.6964" lon="1.28567">
        <ele>182.4</ele>
        <time>2022-08-13T10:34:03Z</time>
      </trkpt>
      <trkpt lat="44.69635" lon="1.28565">
        <ele>181.4</ele>
        <time>2022-08-13T10:34:04Z</time>
      </trkpt>
      <trkpt lat="44.6963" lon="1.28563">
        <ele>180.4</ele>
        <time>2022-08-13T10:34:05Z</time>
      </trkpt>
      <trkpt lat="44.69624" lon="1.28561">
        <ele>178.4</ele>
        <time>2022-08-13T10:34:06Z</time>
      </trkpt>
      <trkpt lat="44.69619" lon="1.28559">
        <ele>177.4</ele>
        <time>2022-08-13T10:34:07Z</time>
      </trkpt>
      <trkpt lat="44.69614" lon="1.28556">
        <ele>176.4</ele>
        <time>2022-08-13T10:34:08Z</time>
      </trkpt>
      <trkpt lat="44.69609" lon="1.28552">
        <ele>175.4</ele>
        <time>2022-08-13T10:34:09Z</time>
      </trkpt>
      <trkpt lat="44.69604" lon="1.28549">
        <ele>175.4</ele>
        <time>2022-08-13T10:34:10Z</time>
      </trkpt>
      <trkpt lat="44.69599" lon="1.28544">
        <ele>174.4</ele>
        <time>2022-08-13T10:34:11Z</time>
      </trkpt>
      <trkpt lat="44.69594" lon="1.2854">
        <ele>173.4</ele>
        <time>2022-08-13T10:34:12Z</time>
      </trkpt>
      <trkpt lat="44.69589" lon="1.28536">
        <ele>172.4</ele>
        <time>2022-08-13T10:34:13Z</time>
      </trkpt>
      <trkpt lat="44.69583" lon="1.28532">
        <ele>170.4</ele>
        <time>2022-08-13T10:34:14Z</time>
      </trkpt>
      <trkpt lat="44.69577" lon="1.28528">
        <ele>169.4</ele>
        <time>2022-08-13T10:34:15Z</time>
      </trkpt>
      <trkpt lat="44.6957" lon="1.28526">
        <ele>168.4</ele>
        <time>2022-08-13T10:34:16Z</time>
      </trkpt>
      <trkpt lat="44.69563" lon="1.28525">
        <ele>167.4</ele>
        <time>2022-08-13T10:34:17Z</time>
      </trkpt>
      <trkpt lat="44.69557" lon="1.28525">
        <ele>166.3</ele>
        <time>2022-08-13T10:34:18Z</time>
      </trkpt>
      <trkpt lat="44.6955" lon="1.28525">
        <ele>166.4</ele>
        <time>2022-08-13T10:34:19Z</time>
      </trkpt>
      <trkpt lat="44.69545" lon="1.28524">
        <ele>166.4</ele>
        <time>2022-08-13T10:34:20Z</time>
      </trkpt>
      <trkpt lat="44.6954" lon="1.28524">
        <ele>165.4</ele>
        <time>2022-08-13T10:34:21Z</time>
      </trkpt>
      <trkpt lat="44.69532" lon="1.28523">
        <ele>164.4</ele>
        <time>2022-08-13T10:34:23Z</time>
      </trkpt>
      <trkpt lat="44.69528" lon="1.28521">
        <ele>163.4</ele>
        <time>2022-08-13T10:34:24Z</time>
      </trkpt>
      <trkpt lat="44.69523" lon="1.28515">
        <ele>164.4</ele>
        <time>2022-08-13T10:34:25Z</time>
      </trkpt>
      <trkpt lat="44.69519" lon="1.28509">
        <ele>163.4</ele>
        <time>2022-08-13T10:34:26Z</time>
      </trkpt>
      <trkpt lat="44.69515" lon="1.28503">
        <ele>163.3</ele>
        <time>2022-08-13T10:34:27Z</time>
      </trkpt>
      <trkpt lat="44.6951" lon="1.28498">
        <ele>163.3</ele>
        <time>2022-08-13T10:34:28Z</time>
      </trkpt>
      <trkpt lat="44.69505" lon="1.28494">
        <ele>163.4</ele>
        <time>2022-08-13T10:34:29Z</time>
      </trkpt>
      <trkpt lat="44.69498" lon="1.28489">
        <ele>163.4</ele>
        <time>2022-08-13T10:34:30Z</time>
      </trkpt>
      <trkpt lat="44.6949" lon="1.28486">
        <ele>163.4</ele>
        <time>2022-08-13T10:34:31Z</time>
      </trkpt>
      <trkpt lat="44.69482" lon="1.28486">
        <ele>163.3</ele>
        <time>2022-08-13T10:34:32Z</time>
      </trkpt>
      <trkpt lat="44.69475" lon="1.28489">
        <ele>161.4</ele>
        <time>2022-08-13T10:34:33Z</time>
      </trkpt>
      <trkpt lat="44.69469" lon="1.28494">
        <ele>159.4</ele>
        <time>2022-08-13T10:34:34Z</time>
      </trkpt>
      <trkpt lat="44.69464" lon="1.28504">
        <ele>157.4</ele>
        <time>2022-08-13T10:34:35Z</time>
      </trkpt>
      <trkpt lat="44.69459" lon="1.28514">
        <ele>155.4</ele>
        <time>2022-08-13T10:34:36Z</time>
      </trkpt>
      <trkpt lat="44.69454" lon="1.28524">
        <ele>155.4</ele>
        <time>2022-08-13T10:34:37Z</time>
      </trkpt>
      <trkpt lat="44.69448" lon="1.28534">
        <ele>154.4</ele>
        <time>2022-08-13T10:34:38Z</time>
      </trkpt>
      <trkpt lat="44.69443" lon="1.28544">
        <ele>153.4</ele>
        <time>2022-08-13T10:34:39Z</time>
      </trkpt>
      <trkpt lat="44.69436" lon="1.28553">
        <ele>153.4</ele>
        <time>2022-08-13T10:34:40Z</time>
      </trkpt>
      <trkpt lat="44.69427" lon="1.28558">
        <ele>152.4</ele>
        <time>2022-08-13T10:34:41Z</time>
      </trkpt>
      <trkpt lat="44.69419" lon="1.2856">
        <ele>151.4</ele>
        <time>2022-08-13T10:34:42Z</time>
      </trkpt>
      <trkpt lat="44.69412" lon="1.28559">
        <ele>151.4</ele>
        <time>2022-08-13T10:34:43Z</time>
      </trkpt>
      <trkpt lat="44.69405" lon="1.28556">
        <ele>151.4</ele>
        <time>2022-08-13T10:34:44Z</time>
      </trkpt>
      <trkpt lat="44.694" lon="1.28549">
        <ele>150.4</ele>
        <time>2022-08-13T10:34:45Z</time>
      </trkpt>
      <trkpt lat="44.69396" lon="1.2854">
        <ele>149.4</ele>
        <time>2022-08-13T10:34:46Z</time>
      </trkpt>
      <trkpt lat="44.69393" lon="1.28531">
        <ele>150.4</ele>
        <time>2022-08-13T10:34:47Z</time>
      </trkpt>
      <trkpt lat="44.6939" lon="1.28523">
        <ele>150.4</ele>
        <time>2022-08-13T10:34:48Z</time>
      </trkpt>
      <trkpt lat="44.69385" lon="1.28517">
        <ele>150.4</ele>
        <time>2022-08-13T10:34:49Z</time>
      </trkpt>
      <trkpt lat="44.69378" lon="1.28513">
        <ele>150.4</ele>
        <time>2022-08-13T10:34:50Z</time>
      </trkpt>
      <trkpt lat="44.69371" lon="1.28512">
        <ele>150.4</ele>
        <time>2022-08-13T10:34:51Z</time>
      </trkpt>
      <trkpt lat="44.69364" lon="1.28513">
        <ele>149.4</ele>
        <time>2022-08-13T10:34:52Z</time>
      </trkpt>
      <trkpt lat="44.69358" lon="1.28516">
        <ele>149.4</ele>
        <time>2022-08-13T10:34:53Z</time>
      </trkpt>
      <trkpt lat="44.69353" lon="1.28519">
        <ele>149.4</ele>
        <time>2022-08-13T10:34:54Z</time>
      </trkpt>
      <trkpt lat="44.69346" lon="1.28524">
        <ele>147.4</ele>
        <time>2022-08-13T10:34:56Z</time>
      </trkpt>
      <trkpt lat="44.69341" lon="1.28528">
        <ele>146.4</ele>
        <time>2022-08-13T10:34:58Z</time>
      </trkpt>
      <trkpt lat="44.69336" lon="1.28533">
        <ele>145.4</ele>
        <time>2022-08-13T10:35:00Z</time>
      </trkpt>
      <trkpt lat="44.69331" lon="1.28536">
        <ele>143.4</ele>
        <time>2022-08-13T10:35:03Z</time>
      </trkpt>
      <trkpt lat="44.69327" lon="1.28533">
        <ele>142.4</ele>
        <time>2022-08-13T10:35:08Z</time>
      </trkpt>
      <trkpt lat="44.69323" lon="1.28529">
        <ele>141.4</ele>
        <time>2022-08-13T10:35:13Z</time>
      </trkpt>
      <trkpt lat="44.6932" lon="1.28522">
        <ele>141.4</ele>
        <time>2022-08-13T10:35:15Z</time>
      </trkpt>
      <trkpt lat="44.69316" lon="1.28516">
        <ele>141.4</ele>
        <time>2022-08-13T10:35:17Z</time>
      </trkpt>
      <trkpt lat="44.69312" lon="1.28509">
        <ele>141.4</ele>
        <time>2022-08-13T10:35:19Z</time>
      </trkpt>
      <trkpt lat="44.69308" lon="1.28501">
        <ele>141.4</ele>
        <time>2022-08-13T10:35:21Z</time>
      </trkpt>
      <trkpt lat="44.69304" lon="1.28492">
        <ele>141.4</ele>
        <time>2022-08-13T10:35:23Z</time>
      </trkpt>
      <trkpt lat="44.693" lon="1.28481">
        <ele>141.4</ele>
        <time>2022-08-13T10:35:25Z</time>
      </trkpt>
      <trkpt lat="44.69296" lon="1.28469">
        <ele>141.4</ele>
        <time>2022-08-13T10:35:27Z</time>
      </trkpt>
      <trkpt lat="44.69294" lon="1.28463">
        <ele>142.4</ele>
        <time>2022-08-13T10:35:28Z</time>
      </trkpt>
      <trkpt lat="44.69292" lon="1.28457">
        <ele>141.4</ele>
        <time>2022-08-13T10:35:29Z</time>
      </trkpt>
      <trkpt lat="44.6929" lon="1.28451">
        <ele>141.4</ele>
        <time>2022-08-13T10:35:30Z</time>
      </trkpt>
      <trkpt lat="44.69287" lon="1.28445">
        <ele>141.4</ele>
        <time>2022-08-13T10:35:31Z</time>
      </trkpt>
      <trkpt lat="44.69285" lon="1.28439">
        <ele>140.4</ele>
        <time>2022-08-13T10:35:32Z</time>
      </trkpt>
      <trkpt lat="44.69282" lon="1.28432">
        <ele>141.4</ele>
        <time>2022-08-13T10:35:33Z</time>
      </trkpt>
      <trkpt lat="44.6928" lon="1.28426">
        <ele>141.4</ele>
        <time>2022-08-13T10:35:34Z</time>
      </trkpt>
      <trkpt lat="44.69277" lon="1.28419">
        <ele>141.4</ele>
        <time>2022-08-13T10:35:35Z</time>
      </trkpt>
      <trkpt lat="44.69275" lon="1.28413">
        <ele>141.4</ele>
        <time>2022-08-13T10:35:36Z</time>
      </trkpt>
      <trkpt lat="44.69273" lon="1.28407">
        <ele>141.4</ele>
        <time>2022-08-13T10:35:37Z</time>
      </trkpt>
      <trkpt lat="44.6927" lon="1.284">
        <ele>141.4</ele>
        <time>2022-08-13T10:35:38Z</time>
      </trkpt>
      <trkpt lat="44.69266" lon="1.28394">
        <ele>141.4</ele>
        <time>2022-08-13T10:35:39Z</time>
      </trkpt>
      <trkpt lat="44.69263" lon="1.28387">
        <ele>141.4</ele>
        <time>2022-08-13T10:35:40Z</time>
      </trkpt>
      <trkpt lat="44.6926" lon="1.2838">
        <ele>140.4</ele>
        <time>2022-08-13T10:35:41Z</time>
      </trkpt>
      <trkpt lat="44.69257" lon="1.28374">
        <ele>140.4</ele>
        <time>2022-08-13T10:35:42Z</time>
      </trkpt>
      <trkpt lat="44.69254" lon="1.28368">
        <ele>140.4</ele>
        <time>2022-08-13T10:35:43Z</time>
      </trkpt>
      <trkpt lat="44.69251" lon="1.28362">
        <ele>140.4</ele>
        <time>2022-08-13T10:35:44Z</time>
      </trkpt>
      <trkpt lat="44.69248" lon="1.28355">
        <ele>140.4</ele>
        <time>2022-08-13T10:35:45Z</time>
      </trkpt>
      <trkpt lat="44.69245" lon="1.28349">
        <ele>140.4</ele>
        <time>2022-08-13T10:35:46Z</time>
      </trkpt>
      <trkpt lat="44.69242" lon="1.28341">
        <ele>140.4</ele>
        <time>2022-08-13T10:35:47Z</time>
      </trkpt>
      <trkpt lat="44.69239" lon="1.28334">
        <ele>140.4</ele>
        <time>2022-08-13T10:35:48Z</time>
      </trkpt>
      <trkpt lat="44.69236" lon="1.28326">
        <ele>140.4</ele>
        <time>2022-08-13T10:35:49Z</time>
      </trkpt>
      <trkpt lat="44.69233" lon="1.28317">
        <ele>140.4</ele>
        <time>2022-08-13T10:35:50Z</time>
      </trkpt>
      <trkpt lat="44.69231" lon="1.2831">
        <ele>140.4</ele>
        <time>2022-08-13T10:35:51Z</time>
      </trkpt>
      <trkpt lat="44.69229" lon="1.28302">
        <ele>140.4</ele>
        <time>2022-08-13T10:35:52Z</time>
      </trkpt>
      <trkpt lat="44.69226" lon="1.28295">
        <ele>140.4</ele>
        <time>2022-08-13T10:35:53Z</time>
      </trkpt>
      <trkpt lat="44.69223" lon="1.28288">
        <ele>140.4</ele>
        <time>2022-08-13T10:35:54Z</time>
      </trkpt>
      <trkpt lat="44.69221" lon="1.2828">
        <ele>140.4</ele>
        <time>2022-08-13T10:35:55Z</time>
      </trkpt>
      <trkpt lat="44.69218" lon="1.28272">
        <ele>140.4</ele>
        <time>2022-08-13T10:35:56Z</time>
      </trkpt>
      <trkpt lat="44.69216" lon="1.28264">
        <ele>140.4</ele>
        <time>2022-08-13T10:35:57Z</time>
      </trkpt>
      <trkpt lat="44.69213" lon="1.28257">
        <ele>140.4</ele>
        <time>2022-08-13T10:35:58Z</time>
      </trkpt>
      <trkpt lat="44.6921" lon="1.28244">
        <ele>141.4</ele>
        <time>2022-08-13T10:36:00Z</time>
      </trkpt>
      <trkpt lat="44.69208" lon="1.28238">
        <ele>141.4</ele>
        <time>2022-08-13T10:36:01Z</time>
      </trkpt>
      <trkpt lat="44.69206" lon="1.28231">
        <ele>141.4</ele>
        <time>2022-08-13T10:36:02Z</time>
      </trkpt>
      <trkpt lat="44.69204" lon="1.28225">
        <ele>141.4</ele>
        <time>2022-08-13T10:36:03Z</time>
      </trkpt>
      <trkpt lat="44.69202" lon="1.2822">
        <ele>141.4</ele>
        <time>2022-08-13T10:36:04Z</time>
      </trkpt>
      <trkpt lat="44.69197" lon="1.28209">
        <ele>142.4</ele>
        <time>2022-08-13T10:36:06Z</time>
      </trkpt>
      <trkpt lat="44.69193" lon="1.28199">
        <ele>142.4</ele>
        <time>2022-08-13T10:36:08Z</time>
      </trkpt>
      <trkpt lat="44.69189" lon="1.2819">
        <ele>142.4</ele>
        <time>2022-08-13T10:36:10Z</time>
      </trkpt>
      <trkpt lat="44.69185" lon="1.2818">
        <ele>143.4</ele>
        <time>2022-08-13T10:36:12Z</time>
      </trkpt>
      <trkpt lat="44.69182" lon="1.28175">
        <ele>143.4</ele>
        <time>2022-08-13T10:36:13Z</time>
      </trkpt>
      <trkpt lat="44.69178" lon="1.28163">
        <ele>143.4</ele>
        <time>2022-08-13T10:36:15Z</time>
      </trkpt>
      <trkpt lat="44.69175" lon="1.28157">
        <ele>143.4</ele>
        <time>2022-08-13T10:36:16Z</time>
      </trkpt>
      <trkpt lat="44.69173" lon="1.2815">
        <ele>143.4</ele>
        <time>2022-08-13T10:36:17Z</time>
      </trkpt>
      <trkpt lat="44.6917" lon="1.28144">
        <ele>143.4</ele>
        <time>2022-08-13T10:36:18Z</time>
      </trkpt>
      <trkpt lat="44.69167" lon="1.28138">
        <ele>142.4</ele>
        <time>2022-08-13T10:36:19Z</time>
      </trkpt>
      <trkpt lat="44.69164" lon="1.28131">
        <ele>142.4</ele>
        <time>2022-08-13T10:36:20Z</time>
      </trkpt>
      <trkpt lat="44.69161" lon="1.28125">
        <ele>142.4</ele>
        <time>2022-08-13T10:36:21Z</time>
      </trkpt>
      <trkpt lat="44.69158" lon="1.28118">
        <ele>142.4</ele>
        <time>2022-08-13T10:36:22Z</time>
      </trkpt>
      <trkpt lat="44.69155" lon="1.28111">
        <ele>142.4</ele>
        <time>2022-08-13T10:36:23Z</time>
      </trkpt>
      <trkpt lat="44.69152" lon="1.28104">
        <ele>142.4</ele>
        <time>2022-08-13T10:36:24Z</time>
      </trkpt>
      <trkpt lat="44.69149" lon="1.28097">
        <ele>142.4</ele>
        <time>2022-08-13T10:36:25Z</time>
      </trkpt>
      <trkpt lat="44.69146" lon="1.28089">
        <ele>142.4</ele>
        <time>2022-08-13T10:36:26Z</time>
      </trkpt>
      <trkpt lat="44.69142" lon="1.28082">
        <ele>142.3</ele>
        <time>2022-08-13T10:36:27Z</time>
      </trkpt>
      <trkpt lat="44.69138" lon="1.28075">
        <ele>142.4</ele>
        <time>2022-08-13T10:36:28Z</time>
      </trkpt>
      <trkpt lat="44.69135" lon="1.28068">
        <ele>141.4</ele>
        <time>2022-08-13T10:36:29Z</time>
      </trkpt>
      <trkpt lat="44.69131" lon="1.28061">
        <ele>141.4</ele>
        <time>2022-08-13T10:36:30Z</time>
      </trkpt>
      <trkpt lat="44.69127" lon="1.28054">
        <ele>141.4</ele>
        <time>2022-08-13T10:36:31Z</time>
      </trkpt>
      <trkpt lat="44.69123" lon="1.28047">
        <ele>140.4</ele>
        <time>2022-08-13T10:36:32Z</time>
      </trkpt>
      <trkpt lat="44.6912" lon="1.28041">
        <ele>140.4</ele>
        <time>2022-08-13T10:36:33Z</time>
      </trkpt>
      <trkpt lat="44.69116" lon="1.28035">
        <ele>140.4</ele>
        <time>2022-08-13T10:36:34Z</time>
      </trkpt>
      <trkpt lat="44.69113" lon="1.28029">
        <ele>140.4</ele>
        <time>2022-08-13T10:36:35Z</time>
      </trkpt>
      <trkpt lat="44.69109" lon="1.28022">
        <ele>140.4</ele>
        <time>2022-08-13T10:36:36Z</time>
      </trkpt>
      <trkpt lat="44.69106" lon="1.28016">
        <ele>140.4</ele>
        <time>2022-08-13T10:36:37Z</time>
      </trkpt>
      <trkpt lat="44.69102" lon="1.28009">
        <ele>139.4</ele>
        <time>2022-08-13T10:36:38Z</time>
      </trkpt>
      <trkpt lat="44.69099" lon="1.28002">
        <ele>139.4</ele>
        <time>2022-08-13T10:36:39Z</time>
      </trkpt>
      <trkpt lat="44.69096" lon="1.27995">
        <ele>139.4</ele>
        <time>2022-08-13T10:36:40Z</time>
      </trkpt>
      <trkpt lat="44.69092" lon="1.27989">
        <ele>138.4</ele>
        <time>2022-08-13T10:36:41Z</time>
      </trkpt>
      <trkpt lat="44.69089" lon="1.27982">
        <ele>138.4</ele>
        <time>2022-08-13T10:36:42Z</time>
      </trkpt>
      <trkpt lat="44.69085" lon="1.27975">
        <ele>138.4</ele>
        <time>2022-08-13T10:36:43Z</time>
      </trkpt>
      <trkpt lat="44.69082" lon="1.27968">
        <ele>138.4</ele>
        <time>2022-08-13T10:36:44Z</time>
      </trkpt>
      <trkpt lat="44.69078" lon="1.27961">
        <ele>138.4</ele>
        <time>2022-08-13T10:36:45Z</time>
      </trkpt>
      <trkpt lat="44.69075" lon="1.27954">
        <ele>138.4</ele>
        <time>2022-08-13T10:36:46Z</time>
      </trkpt>
      <trkpt lat="44.69071" lon="1.27948">
        <ele>138.4</ele>
        <time>2022-08-13T10:36:47Z</time>
      </trkpt>
      <trkpt lat="44.69067" lon="1.27941">
        <ele>137.4</ele>
        <time>2022-08-13T10:36:48Z</time>
      </trkpt>
      <trkpt lat="44.69063" lon="1.27935">
        <ele>137.4</ele>
        <time>2022-08-13T10:36:49Z</time>
      </trkpt>
      <trkpt lat="44.69059" lon="1.27928">
        <ele>137.4</ele>
        <time>2022-08-13T10:36:50Z</time>
      </trkpt>
      <trkpt lat="44.69056" lon="1.27921">
        <ele>136.4</ele>
        <time>2022-08-13T10:36:51Z</time>
      </trkpt>
      <trkpt lat="44.69052" lon="1.27915">
        <ele>136.4</ele>
        <time>2022-08-13T10:36:52Z</time>
      </trkpt>
      <trkpt lat="44.69048" lon="1.27908">
        <ele>135.4</ele>
        <time>2022-08-13T10:36:53Z</time>
      </trkpt>
      <trkpt lat="44.69045" lon="1.27902">
        <ele>136.3</ele>
        <time>2022-08-13T10:36:54Z</time>
      </trkpt>
      <trkpt lat="44.69041" lon="1.27895">
        <ele>137.4</ele>
        <time>2022-08-13T10:36:55Z</time>
      </trkpt>
      <trkpt lat="44.69038" lon="1.27888">
        <ele>137.4</ele>
        <time>2022-08-13T10:36:56Z</time>
      </trkpt>
      <trkpt lat="44.69034" lon="1.27882">
        <ele>138.4</ele>
        <time>2022-08-13T10:36:57Z</time>
      </trkpt>
      <trkpt lat="44.69031" lon="1.27875">
        <ele>138.4</ele>
        <time>2022-08-13T10:36:58Z</time>
      </trkpt>
      <trkpt lat="44.69027" lon="1.27868">
        <ele>138.4</ele>
        <time>2022-08-13T10:36:59Z</time>
      </trkpt>
      <trkpt lat="44.69023" lon="1.27861">
        <ele>139.4</ele>
        <time>2022-08-13T10:37:00Z</time>
      </trkpt>
      <trkpt lat="44.6902" lon="1.27854">
        <ele>139.4</ele>
        <time>2022-08-13T10:37:01Z</time>
      </trkpt>
      <trkpt lat="44.69016" lon="1.27847">
        <ele>139.4</ele>
        <time>2022-08-13T10:37:02Z</time>
      </trkpt>
      <trkpt lat="44.69012" lon="1.2784">
        <ele>139.4</ele>
        <time>2022-08-13T10:37:03Z</time>
      </trkpt>
      <trkpt lat="44.69008" lon="1.27833">
        <ele>140.4</ele>
        <time>2022-08-13T10:37:04Z</time>
      </trkpt>
      <trkpt lat="44.69004" lon="1.27827">
        <ele>140.4</ele>
        <time>2022-08-13T10:37:05Z</time>
      </trkpt>
      <trkpt lat="44.68999" lon="1.27821">
        <ele>141.4</ele>
        <time>2022-08-13T10:37:06Z</time>
      </trkpt>
      <trkpt lat="44.68995" lon="1.27815">
        <ele>140.4</ele>
        <time>2022-08-13T10:37:07Z</time>
      </trkpt>
      <trkpt lat="44.6899" lon="1.2781">
        <ele>141.4</ele>
        <time>2022-08-13T10:37:08Z</time>
      </trkpt>
      <trkpt lat="44.68985" lon="1.27805">
        <ele>141.4</ele>
        <time>2022-08-13T10:37:09Z</time>
      </trkpt>
      <trkpt lat="44.6898" lon="1.27799">
        <ele>141.4</ele>
        <time>2022-08-13T10:37:10Z</time>
      </trkpt>
      <trkpt lat="44.68975" lon="1.27793">
        <ele>141.4</ele>
        <time>2022-08-13T10:37:11Z</time>
      </trkpt>
      <trkpt lat="44.6897" lon="1.27788">
        <ele>141.4</ele>
        <time>2022-08-13T10:37:12Z</time>
      </trkpt>
      <trkpt lat="44.68965" lon="1.27783">
        <ele>140.4</ele>
        <time>2022-08-13T10:37:13Z</time>
      </trkpt>
      <trkpt lat="44.68959" lon="1.27778">
        <ele>140.4</ele>
        <time>2022-08-13T10:37:14Z</time>
      </trkpt>
      <trkpt lat="44.68953" lon="1.27774">
        <ele>140.4</ele>
        <time>2022-08-13T10:37:15Z</time>
      </trkpt>
      <trkpt lat="44.68948" lon="1.2777">
        <ele>140.4</ele>
        <time>2022-08-13T10:37:16Z</time>
      </trkpt>
      <trkpt lat="44.68942" lon="1.27766">
        <ele>140.3</ele>
        <time>2022-08-13T10:37:17Z</time>
      </trkpt>
      <trkpt lat="44.68937" lon="1.27763">
        <ele>139.4</ele>
        <time>2022-08-13T10:37:18Z</time>
      </trkpt>
      <trkpt lat="44.68931" lon="1.2776">
        <ele>139.4</ele>
        <time>2022-08-13T10:37:19Z</time>
      </trkpt>
      <trkpt lat="44.68925" lon="1.27758">
        <ele>139.4</ele>
        <time>2022-08-13T10:37:20Z</time>
      </trkpt>
      <trkpt lat="44.68919" lon="1.27756">
        <ele>139.4</ele>
        <time>2022-08-13T10:37:21Z</time>
      </trkpt>
      <trkpt lat="44.68913" lon="1.27755">
        <ele>139.4</ele>
        <time>2022-08-13T10:37:22Z</time>
      </trkpt>
      <trkpt lat="44.68908" lon="1.27753">
        <ele>139.4</ele>
        <time>2022-08-13T10:37:23Z</time>
      </trkpt>
      <trkpt lat="44.68902" lon="1.27751">
        <ele>139.4</ele>
        <time>2022-08-13T10:37:24Z</time>
      </trkpt>
      <trkpt lat="44.68896" lon="1.27749">
        <ele>139.4</ele>
        <time>2022-08-13T10:37:25Z</time>
      </trkpt>
      <trkpt lat="44.6889" lon="1.27748">
        <ele>139.4</ele>
        <time>2022-08-13T10:37:26Z</time>
      </trkpt>
      <trkpt lat="44.68885" lon="1.27747">
        <ele>139.4</ele>
        <time>2022-08-13T10:37:27Z</time>
      </trkpt>
      <trkpt lat="44.68879" lon="1.27746">
        <ele>140.4</ele>
        <time>2022-08-13T10:37:28Z</time>
      </trkpt>
      <trkpt lat="44.68874" lon="1.27745">
        <ele>139.4</ele>
        <time>2022-08-13T10:37:29Z</time>
      </trkpt>
      <trkpt lat="44.68869" lon="1.27744">
        <ele>139.4</ele>
        <time>2022-08-13T10:37:30Z</time>
      </trkpt>
      <trkpt lat="44.68864" lon="1.27743">
        <ele>139.4</ele>
        <time>2022-08-13T10:37:31Z</time>
      </trkpt>
      <trkpt lat="44.68858" lon="1.27742">
        <ele>139.4</ele>
        <time>2022-08-13T10:37:32Z</time>
      </trkpt>
      <trkpt lat="44.68853" lon="1.27741">
        <ele>139.4</ele>
        <time>2022-08-13T10:37:33Z</time>
      </trkpt>
      <trkpt lat="44.68848" lon="1.2774">
        <ele>138.4</ele>
        <time>2022-08-13T10:37:34Z</time>
      </trkpt>
      <trkpt lat="44.68843" lon="1.27739">
        <ele>138.4</ele>
        <time>2022-08-13T10:37:35Z</time>
      </trkpt>
      <trkpt lat="44.68837" lon="1.27738">
        <ele>137.4</ele>
        <time>2022-08-13T10:37:36Z</time>
      </trkpt>
      <trkpt lat="44.68832" lon="1.27737">
        <ele>137.4</ele>
        <time>2022-08-13T10:37:37Z</time>
      </trkpt>
      <trkpt lat="44.68826" lon="1.27737">
        <ele>136.4</ele>
        <time>2022-08-13T10:37:38Z</time>
      </trkpt>
      <trkpt lat="44.68815" lon="1.27735">
        <ele>136.4</ele>
        <time>2022-08-13T10:37:40Z</time>
      </trkpt>
      <trkpt lat="44.6881" lon="1.27733">
        <ele>135.4</ele>
        <time>2022-08-13T10:37:41Z</time>
      </trkpt>
      <trkpt lat="44.68804" lon="1.27732">
        <ele>135.4</ele>
        <time>2022-08-13T10:37:42Z</time>
      </trkpt>
      <trkpt lat="44.68799" lon="1.27732">
        <ele>135.4</ele>
        <time>2022-08-13T10:37:43Z</time>
      </trkpt>
      <trkpt lat="44.68794" lon="1.27731">
        <ele>135.4</ele>
        <time>2022-08-13T10:37:44Z</time>
      </trkpt>
      <trkpt lat="44.68789" lon="1.27729">
        <ele>135.4</ele>
        <time>2022-08-13T10:37:45Z</time>
      </trkpt>
      <trkpt lat="44.68784" lon="1.27727">
        <ele>135.4</ele>
        <time>2022-08-13T10:37:46Z</time>
      </trkpt>
      <trkpt lat="44.68779" lon="1.27725">
        <ele>134.4</ele>
        <time>2022-08-13T10:37:47Z</time>
      </trkpt>
      <trkpt lat="44.68775" lon="1.27723">
        <ele>134.4</ele>
        <time>2022-08-13T10:37:48Z</time>
      </trkpt>
      <trkpt lat="44.6877" lon="1.27721">
        <ele>134.4</ele>
        <time>2022-08-13T10:37:49Z</time>
      </trkpt>
      <trkpt lat="44.68766" lon="1.27718">
        <ele>134.4</ele>
        <time>2022-08-13T10:37:50Z</time>
      </trkpt>
      <trkpt lat="44.6876" lon="1.27713">
        <ele>134.4</ele>
        <time>2022-08-13T10:37:52Z</time>
      </trkpt>
      <trkpt lat="44.68754" lon="1.27708">
        <ele>133.4</ele>
        <time>2022-08-13T10:37:55Z</time>
      </trkpt>
      <trkpt lat="44.6875" lon="1.27705">
        <ele>133.4</ele>
        <time>2022-08-13T10:37:57Z</time>
      </trkpt>
      <trkpt lat="44.68746" lon="1.27709">
        <ele>132.4</ele>
        <time>2022-08-13T10:37:59Z</time>
      </trkpt>
      <trkpt lat="44.68742" lon="1.27719">
        <ele>132.3</ele>
        <time>2022-08-13T10:38:01Z</time>
      </trkpt>
      <trkpt lat="44.68739" lon="1.27726">
        <ele>132.4</ele>
        <time>2022-08-13T10:38:02Z</time>
      </trkpt>
      <trkpt lat="44.68735" lon="1.27733">
        <ele>132.4</ele>
        <time>2022-08-13T10:38:03Z</time>
      </trkpt>
      <trkpt lat="44.6873" lon="1.27739">
        <ele>132.4</ele>
        <time>2022-08-13T10:38:04Z</time>
      </trkpt>
      <trkpt lat="44.68726" lon="1.27746">
        <ele>132.4</ele>
        <time>2022-08-13T10:38:05Z</time>
      </trkpt>
      <trkpt lat="44.68722" lon="1.27754">
        <ele>132.4</ele>
        <time>2022-08-13T10:38:06Z</time>
      </trkpt>
      <trkpt lat="44.68719" lon="1.27762">
        <ele>131.4</ele>
        <time>2022-08-13T10:38:07Z</time>
      </trkpt>
      <trkpt lat="44.68716" lon="1.2777">
        <ele>131.4</ele>
        <time>2022-08-13T10:38:08Z</time>
      </trkpt>
      <trkpt lat="44.68716" lon="1.27778">
        <ele>131.4</ele>
        <time>2022-08-13T10:38:09Z</time>
      </trkpt>
      <trkpt lat="44.68717" lon="1.27787">
        <ele>132.4</ele>
        <time>2022-08-13T10:38:10Z</time>
      </trkpt>
      <trkpt lat="44.68718" lon="1.27797">
        <ele>132.4</ele>
        <time>2022-08-13T10:38:11Z</time>
      </trkpt>
      <trkpt lat="44.6872" lon="1.27804">
        <ele>132.3</ele>
        <time>2022-08-13T10:38:12Z</time>
      </trkpt>
      <trkpt lat="44.68723" lon="1.27811">
        <ele>132.4</ele>
        <time>2022-08-13T10:38:13Z</time>
      </trkpt>
      <trkpt lat="44.68726" lon="1.27818">
        <ele>132.3</ele>
        <time>2022-08-13T10:38:14Z</time>
      </trkpt>
      <trkpt lat="44.68729" lon="1.27824">
        <ele>132.4</ele>
        <time>2022-08-13T10:38:15Z</time>
      </trkpt>
      <trkpt lat="44.68731" lon="1.2783">
        <ele>131.4</ele>
        <time>2022-08-13T10:38:16Z</time>
      </trkpt>
      <trkpt lat="44.68734" lon="1.27835">
        <ele>131.4</ele>
        <time>2022-08-13T10:38:17Z</time>
      </trkpt>
      <trkpt lat="44.68736" lon="1.2784">
        <ele>132.4</ele>
        <time>2022-08-13T10:38:18Z</time>
      </trkpt>
      <trkpt lat="44.6874" lon="1.27851">
        <ele>132.3</ele>
        <time>2022-08-13T10:38:20Z</time>
      </trkpt>
      <trkpt lat="44.68742" lon="1.27859">
        <ele>132.4</ele>
        <time>2022-08-13T10:38:22Z</time>
      </trkpt>
      <trkpt lat="44.68742" lon="1.27869">
        <ele>132.4</ele>
        <time>2022-08-13T10:38:24Z</time>
      </trkpt>
      <trkpt lat="44.68741" lon="1.2788">
        <ele>132.4</ele>
        <time>2022-08-13T10:38:26Z</time>
      </trkpt>
      <trkpt lat="44.68742" lon="1.27888">
        <ele>132.4</ele>
        <time>2022-08-13T10:38:27Z</time>
      </trkpt>
      <trkpt lat="44.68744" lon="1.27898">
        <ele>133.4</ele>
        <time>2022-08-13T10:38:28Z</time>
      </trkpt>
      <trkpt lat="44.68746" lon="1.27906">
        <ele>133.4</ele>
        <time>2022-08-13T10:38:29Z</time>
      </trkpt>
      <trkpt lat="44.68748" lon="1.27914">
        <ele>133.4</ele>
        <time>2022-08-13T10:38:30Z</time>
      </trkpt>
      <trkpt lat="44.6875" lon="1.27921">
        <ele>134.4</ele>
        <time>2022-08-13T10:38:31Z</time>
      </trkpt>
      <trkpt lat="44.68751" lon="1.27928">
        <ele>134.4</ele>
        <time>2022-08-13T10:38:32Z</time>
      </trkpt>
      <trkpt lat="44.68753" lon="1.27934">
        <ele>134.4</ele>
        <time>2022-08-13T10:38:33Z</time>
      </trkpt>
      <trkpt lat="44.68755" lon="1.2794">
        <ele>134.4</ele>
        <time>2022-08-13T10:38:34Z</time>
      </trkpt>
      <trkpt lat="44.68758" lon="1.27951">
        <ele>134.4</ele>
        <time>2022-08-13T10:38:36Z</time>
      </trkpt>
      <trkpt lat="44.68758" lon="1.27961">
        <ele>134.4</ele>
        <time>2022-08-13T10:38:38Z</time>
      </trkpt>
      <trkpt lat="44.68757" lon="1.27971">
        <ele>135.4</ele>
        <time>2022-08-13T10:38:40Z</time>
      </trkpt>
      <trkpt lat="44.68756" lon="1.27978">
        <ele>135.4</ele>
        <time>2022-08-13T10:38:42Z</time>
      </trkpt>
      <trkpt lat="44.68755" lon="1.27986">
        <ele>134.4</ele>
        <time>2022-08-13T10:38:44Z</time>
      </trkpt>
      <trkpt lat="44.68753" lon="1.27994">
        <ele>134.3</ele>
        <time>2022-08-13T10:38:46Z</time>
      </trkpt>
      <trkpt lat="44.68751" lon="1.28001">
        <ele>133.4</ele>
        <time>2022-08-13T10:38:48Z</time>
      </trkpt>
      <trkpt lat="44.68752" lon="1.28009">
        <ele>133.4</ele>
        <time>2022-08-13T10:38:50Z</time>
      </trkpt>
      <trkpt lat="44.68754" lon="1.28017">
        <ele>134.4</ele>
        <time>2022-08-13T10:38:52Z</time>
      </trkpt>
      <trkpt lat="44.68758" lon="1.28025">
        <ele>134.4</ele>
        <time>2022-08-13T10:38:54Z</time>
      </trkpt>
      <trkpt lat="44.68762" lon="1.28031">
        <ele>135.4</ele>
        <time>2022-08-13T10:38:56Z</time>
      </trkpt>
      <trkpt lat="44.68767" lon="1.28038">
        <ele>137.4</ele>
        <time>2022-08-13T10:38:58Z</time>
      </trkpt>
      <trkpt lat="44.68773" lon="1.28046">
        <ele>137.4</ele>
        <time>2022-08-13T10:39:00Z</time>
      </trkpt>
      <trkpt lat="44.68777" lon="1.2805">
        <ele>137.4</ele>
        <time>2022-08-13T10:39:01Z</time>
      </trkpt>
      <trkpt lat="44.68781" lon="1.28054">
        <ele>137.4</ele>
        <time>2022-08-13T10:39:02Z</time>
      </trkpt>
      <trkpt lat="44.68784" lon="1.28058">
        <ele>137.4</ele>
        <time>2022-08-13T10:39:03Z</time>
      </trkpt>
      <trkpt lat="44.68788" lon="1.28062">
        <ele>138.4</ele>
        <time>2022-08-13T10:39:04Z</time>
      </trkpt>
      <trkpt lat="44.68791" lon="1.28067">
        <ele>138.4</ele>
        <time>2022-08-13T10:39:05Z</time>
      </trkpt>
      <trkpt lat="44.68795" lon="1.28072">
        <ele>139.4</ele>
        <time>2022-08-13T10:39:06Z</time>
      </trkpt>
      <trkpt lat="44.68799" lon="1.28076">
        <ele>138.4</ele>
        <time>2022-08-13T10:39:07Z</time>
      </trkpt>
      <trkpt lat="44.68802" lon="1.28081">
        <ele>138.4</ele>
        <time>2022-08-13T10:39:08Z</time>
      </trkpt>
      <trkpt lat="44.68808" lon="1.2809">
        <ele>139.4</ele>
        <time>2022-08-13T10:39:10Z</time>
      </trkpt>
      <trkpt lat="44.68815" lon="1.28097">
        <ele>139.4</ele>
        <time>2022-08-13T10:39:12Z</time>
      </trkpt>
      <trkpt lat="44.6882" lon="1.28105">
        <ele>139.4</ele>
        <time>2022-08-13T10:39:14Z</time>
      </trkpt>
      <trkpt lat="44.68826" lon="1.28115">
        <ele>139.4</ele>
        <time>2022-08-13T10:39:16Z</time>
      </trkpt>
      <trkpt lat="44.68832" lon="1.28123">
        <ele>139.4</ele>
        <time>2022-08-13T10:39:18Z</time>
      </trkpt>
      <trkpt lat="44.68838" lon="1.28132">
        <ele>139.4</ele>
        <time>2022-08-13T10:39:20Z</time>
      </trkpt>
      <trkpt lat="44.68845" lon="1.28139">
        <ele>139.3</ele>
        <time>2022-08-13T10:39:22Z</time>
      </trkpt>
      <trkpt lat="44.68852" lon="1.28147">
        <ele>139.4</ele>
        <time>2022-08-13T10:39:24Z</time>
      </trkpt>
      <trkpt lat="44.68858" lon="1.28154">
        <ele>140.4</ele>
        <time>2022-08-13T10:39:26Z</time>
      </trkpt>
      <trkpt lat="44.68864" lon="1.28161">
        <ele>141.4</ele>
        <time>2022-08-13T10:39:28Z</time>
      </trkpt>
      <trkpt lat="44.6887" lon="1.28169">
        <ele>141.3</ele>
        <time>2022-08-13T10:39:30Z</time>
      </trkpt>
      <trkpt lat="44.68876" lon="1.28176">
        <ele>141.4</ele>
        <time>2022-08-13T10:39:32Z</time>
      </trkpt>
      <trkpt lat="44.68882" lon="1.28182">
        <ele>142.4</ele>
        <time>2022-08-13T10:39:34Z</time>
      </trkpt>
      <trkpt lat="44.68889" lon="1.28186">
        <ele>142.4</ele>
        <time>2022-08-13T10:39:36Z</time>
      </trkpt>
      <trkpt lat="44.68893" lon="1.28189">
        <ele>142.4</ele>
        <time>2022-08-13T10:39:37Z</time>
      </trkpt>
      <trkpt lat="44.68898" lon="1.28192">
        <ele>142.4</ele>
        <time>2022-08-13T10:39:38Z</time>
      </trkpt>
      <trkpt lat="44.68903" lon="1.28195">
        <ele>143.3</ele>
        <time>2022-08-13T10:39:39Z</time>
      </trkpt>
      <trkpt lat="44.68909" lon="1.28197">
        <ele>143.4</ele>
        <time>2022-08-13T10:39:40Z</time>
      </trkpt>
      <trkpt lat="44.68914" lon="1.282">
        <ele>144.4</ele>
        <time>2022-08-13T10:39:41Z</time>
      </trkpt>
      <trkpt lat="44.68919" lon="1.28203">
        <ele>144.4</ele>
        <time>2022-08-13T10:39:42Z</time>
      </trkpt>
      <trkpt lat="44.68923" lon="1.28207">
        <ele>144.4</ele>
        <time>2022-08-13T10:39:43Z</time>
      </trkpt>
      <trkpt lat="44.68928" lon="1.28211">
        <ele>144.4</ele>
        <time>2022-08-13T10:39:44Z</time>
      </trkpt>
      <trkpt lat="44.68931" lon="1.28216">
        <ele>144.4</ele>
        <time>2022-08-13T10:39:45Z</time>
      </trkpt>
      <trkpt lat="44.68935" lon="1.28221">
        <ele>144.4</ele>
        <time>2022-08-13T10:39:46Z</time>
      </trkpt>
      <trkpt lat="44.68938" lon="1.28225">
        <ele>144.4</ele>
        <time>2022-08-13T10:39:47Z</time>
      </trkpt>
      <trkpt lat="44.68941" lon="1.2823">
        <ele>144.4</ele>
        <time>2022-08-13T10:39:48Z</time>
      </trkpt>
      <trkpt lat="44.68947" lon="1.28239">
        <ele>145.4</ele>
        <time>2022-08-13T10:39:50Z</time>
      </trkpt>
      <trkpt lat="44.68952" lon="1.28248">
        <ele>145.4</ele>
        <time>2022-08-13T10:39:52Z</time>
      </trkpt>
      <trkpt lat="44.68957" lon="1.28256">
        <ele>145.4</ele>
        <time>2022-08-13T10:39:54Z</time>
      </trkpt>
      <trkpt lat="44.68962" lon="1.28262">
        <ele>145.4</ele>
        <time>2022-08-13T10:39:56Z</time>
      </trkpt>
      <trkpt lat="44.68968" lon="1.28269">
        <ele>145.4</ele>
        <time>2022-08-13T10:39:58Z</time>
      </trkpt>
      <trkpt lat="44.68973" lon="1.28276">
        <ele>146.4</ele>
        <time>2022-08-13T10:40:00Z</time>
      </trkpt>
      <trkpt lat="44.68978" lon="1.28282">
        <ele>145.3</ele>
        <time>2022-08-13T10:40:02Z</time>
      </trkpt>
      <trkpt lat="44.68984" lon="1.28288">
        <ele>145.4</ele>
        <time>2022-08-13T10:40:04Z</time>
      </trkpt>
      <trkpt lat="44.68989" lon="1.28294">
        <ele>145.4</ele>
        <time>2022-08-13T10:40:06Z</time>
      </trkpt>
      <trkpt lat="44.68995" lon="1.283">
        <ele>145.3</ele>
        <time>2022-08-13T10:40:08Z</time>
      </trkpt>
      <trkpt lat="44.69001" lon="1.28306">
        <ele>145.4</ele>
        <time>2022-08-13T10:40:10Z</time>
      </trkpt>
      <trkpt lat="44.69005" lon="1.28312">
        <ele>144.4</ele>
        <time>2022-08-13T10:40:12Z</time>
      </trkpt>
      <trkpt lat="44.69007" lon="1.28317">
        <ele>140.4</ele>
        <time>2022-08-13T10:40:26Z</time>
      </trkpt>
      <trkpt lat="44.69011" lon="1.28322">
        <ele>140.4</ele>
        <time>2022-08-13T10:40:29Z</time>
      </trkpt>
      <trkpt lat="44.69016" lon="1.28329">
        <ele>140.4</ele>
        <time>2022-08-13T10:40:31Z</time>
      </trkpt>
      <trkpt lat="44.69019" lon="1.28339">
        <ele>139.4</ele>
        <time>2022-08-13T10:40:33Z</time>
      </trkpt>
      <trkpt lat="44.69024" lon="1.28348">
        <ele>139.4</ele>
        <time>2022-08-13T10:40:35Z</time>
      </trkpt>
      <trkpt lat="44.6903" lon="1.28357">
        <ele>139.4</ele>
        <time>2022-08-13T10:40:37Z</time>
      </trkpt>
      <trkpt lat="44.69036" lon="1.28367">
        <ele>139.4</ele>
        <time>2022-08-13T10:40:39Z</time>
      </trkpt>
      <trkpt lat="44.69042" lon="1.28375">
        <ele>139.4</ele>
        <time>2022-08-13T10:40:41Z</time>
      </trkpt>
      <trkpt lat="44.69047" lon="1.28383">
        <ele>139.4</ele>
        <time>2022-08-13T10:40:43Z</time>
      </trkpt>
      <trkpt lat="44.69051" lon="1.2839">
        <ele>139.4</ele>
        <time>2022-08-13T10:40:45Z</time>
      </trkpt>
      <trkpt lat="44.69055" lon="1.28397">
        <ele>139.3</ele>
        <time>2022-08-13T10:40:47Z</time>
      </trkpt>
      <trkpt lat="44.69059" lon="1.28405">
        <ele>139.4</ele>
        <time>2022-08-13T10:40:49Z</time>
      </trkpt>
      <trkpt lat="44.69063" lon="1.28412">
        <ele>139.4</ele>
        <time>2022-08-13T10:40:51Z</time>
      </trkpt>
      <trkpt lat="44.69068" lon="1.28419">
        <ele>139.4</ele>
        <time>2022-08-13T10:40:53Z</time>
      </trkpt>
      <trkpt lat="44.69073" lon="1.28425">
        <ele>139.4</ele>
        <time>2022-08-13T10:40:55Z</time>
      </trkpt>
      <trkpt lat="44.69078" lon="1.28433">
        <ele>140.4</ele>
        <time>2022-08-13T10:40:57Z</time>
      </trkpt>
      <trkpt lat="44.69083" lon="1.28441">
        <ele>140.4</ele>
        <time>2022-08-13T10:40:59Z</time>
      </trkpt>
      <trkpt lat="44.69088" lon="1.28449">
        <ele>140.4</ele>
        <time>2022-08-13T10:41:01Z</time>
      </trkpt>
      <trkpt lat="44.69093" lon="1.28457">
        <ele>141.4</ele>
        <time>2022-08-13T10:41:03Z</time>
      </trkpt>
      <trkpt lat="44.69098" lon="1.28467">
        <ele>140.4</ele>
        <time>2022-08-13T10:41:05Z</time>
      </trkpt>
      <trkpt lat="44.69102" lon="1.28476">
        <ele>140.4</ele>
        <time>2022-08-13T10:41:07Z</time>
      </trkpt>
      <trkpt lat="44.69104" lon="1.28482">
        <ele>140.4</ele>
        <time>2022-08-13T10:41:08Z</time>
      </trkpt>
      <trkpt lat="44.69107" lon="1.28488">
        <ele>140.4</ele>
        <time>2022-08-13T10:41:09Z</time>
      </trkpt>
      <trkpt lat="44.69109" lon="1.28494">
        <ele>140.4</ele>
        <time>2022-08-13T10:41:10Z</time>
      </trkpt>
      <trkpt lat="44.69112" lon="1.285">
        <ele>140.4</ele>
        <time>2022-08-13T10:41:11Z</time>
      </trkpt>
      <trkpt lat="44.69114" lon="1.28506">
        <ele>140.4</ele>
        <time>2022-08-13T10:41:12Z</time>
      </trkpt>
      <trkpt lat="44.69117" lon="1.28512">
        <ele>140.4</ele>
        <time>2022-08-13T10:41:13Z</time>
      </trkpt>
      <trkpt lat="44.6912" lon="1.28518">
        <ele>140.4</ele>
        <time>2022-08-13T10:41:14Z</time>
      </trkpt>
      <trkpt lat="44.69123" lon="1.28525">
        <ele>140.4</ele>
        <time>2022-08-13T10:41:15Z</time>
      </trkpt>
      <trkpt lat="44.69126" lon="1.28533">
        <ele>140.4</ele>
        <time>2022-08-13T10:41:16Z</time>
      </trkpt>
      <trkpt lat="44.69131" lon="1.28541">
        <ele>140.4</ele>
        <time>2022-08-13T10:41:17Z</time>
      </trkpt>
      <trkpt lat="44.69135" lon="1.28547">
        <ele>140.4</ele>
        <time>2022-08-13T10:41:18Z</time>
      </trkpt>
      <trkpt lat="44.6914" lon="1.28552">
        <ele>140.4</ele>
        <time>2022-08-13T10:41:19Z</time>
      </trkpt>
      <trkpt lat="44.69145" lon="1.28557">
        <ele>140.4</ele>
        <time>2022-08-13T10:41:20Z</time>
      </trkpt>
      <trkpt lat="44.6915" lon="1.28561">
        <ele>139.4</ele>
        <time>2022-08-13T10:41:21Z</time>
      </trkpt>
      <trkpt lat="44.69156" lon="1.28565">
        <ele>139.4</ele>
        <time>2022-08-13T10:41:22Z</time>
      </trkpt>
      <trkpt lat="44.69162" lon="1.28567">
        <ele>139.4</ele>
        <time>2022-08-13T10:41:23Z</time>
      </trkpt>
      <trkpt lat="44.69169" lon="1.2857">
        <ele>138.4</ele>
        <time>2022-08-13T10:41:24Z</time>
      </trkpt>
      <trkpt lat="44.69176" lon="1.28572">
        <ele>138.4</ele>
        <time>2022-08-13T10:41:25Z</time>
      </trkpt>
      <trkpt lat="44.69183" lon="1.28575">
        <ele>137.4</ele>
        <time>2022-08-13T10:41:26Z</time>
      </trkpt>
      <trkpt lat="44.6919" lon="1.28579">
        <ele>137.4</ele>
        <time>2022-08-13T10:41:27Z</time>
      </trkpt>
      <trkpt lat="44.69196" lon="1.28582">
        <ele>137.4</ele>
        <time>2022-08-13T10:41:28Z</time>
      </trkpt>
      <trkpt lat="44.69203" lon="1.28586">
        <ele>136.4</ele>
        <time>2022-08-13T10:41:29Z</time>
      </trkpt>
      <trkpt lat="44.6921" lon="1.2859">
        <ele>136.4</ele>
        <time>2022-08-13T10:41:30Z</time>
      </trkpt>
      <trkpt lat="44.69217" lon="1.28593">
        <ele>135.4</ele>
        <time>2022-08-13T10:41:31Z</time>
      </trkpt>
      <trkpt lat="44.69224" lon="1.28598">
        <ele>136.4</ele>
        <time>2022-08-13T10:41:32Z</time>
      </trkpt>
      <trkpt lat="44.6923" lon="1.28602">
        <ele>135.4</ele>
        <time>2022-08-13T10:41:33Z</time>
      </trkpt>
      <trkpt lat="44.69237" lon="1.28608">
        <ele>135.4</ele>
        <time>2022-08-13T10:41:34Z</time>
      </trkpt>
      <trkpt lat="44.69242" lon="1.28614">
        <ele>135.4</ele>
        <time>2022-08-13T10:41:35Z</time>
      </trkpt>
      <trkpt lat="44.69247" lon="1.2862">
        <ele>136.4</ele>
        <time>2022-08-13T10:41:36Z</time>
      </trkpt>
      <trkpt lat="44.69252" lon="1.28627">
        <ele>135.4</ele>
        <time>2022-08-13T10:41:37Z</time>
      </trkpt>
      <trkpt lat="44.69257" lon="1.28633">
        <ele>136.3</ele>
        <time>2022-08-13T10:41:38Z</time>
      </trkpt>
      <trkpt lat="44.69261" lon="1.28639">
        <ele>136.4</ele>
        <time>2022-08-13T10:41:39Z</time>
      </trkpt>
      <trkpt lat="44.69266" lon="1.28645">
        <ele>136.4</ele>
        <time>2022-08-13T10:41:40Z</time>
      </trkpt>
      <trkpt lat="44.69269" lon="1.28652">
        <ele>136.4</ele>
        <time>2022-08-13T10:41:41Z</time>
      </trkpt>
      <trkpt lat="44.69273" lon="1.28658">
        <ele>135.4</ele>
        <time>2022-08-13T10:41:42Z</time>
      </trkpt>
      <trkpt lat="44.69277" lon="1.28664">
        <ele>135.4</ele>
        <time>2022-08-13T10:41:43Z</time>
      </trkpt>
      <trkpt lat="44.6928" lon="1.28671">
        <ele>134.4</ele>
        <time>2022-08-13T10:41:44Z</time>
      </trkpt>
      <trkpt lat="44.69283" lon="1.28678">
        <ele>134.4</ele>
        <time>2022-08-13T10:41:45Z</time>
      </trkpt>
      <trkpt lat="44.69286" lon="1.28685">
        <ele>134.4</ele>
        <time>2022-08-13T10:41:46Z</time>
      </trkpt>
      <trkpt lat="44.69288" lon="1.28691">
        <ele>134.4</ele>
        <time>2022-08-13T10:41:47Z</time>
      </trkpt>
      <trkpt lat="44.69291" lon="1.28698">
        <ele>134.4</ele>
        <time>2022-08-13T10:41:48Z</time>
      </trkpt>
      <trkpt lat="44.69293" lon="1.28704">
        <ele>134.3</ele>
        <time>2022-08-13T10:41:49Z</time>
      </trkpt>
      <trkpt lat="44.69295" lon="1.2871">
        <ele>134.4</ele>
        <time>2022-08-13T10:41:50Z</time>
      </trkpt>
      <trkpt lat="44.69297" lon="1.28716">
        <ele>134.4</ele>
        <time>2022-08-13T10:41:51Z</time>
      </trkpt>
      <trkpt lat="44.69299" lon="1.28722">
        <ele>134.4</ele>
        <time>2022-08-13T10:41:52Z</time>
      </trkpt>
      <trkpt lat="44.69303" lon="1.28733">
        <ele>133.4</ele>
        <time>2022-08-13T10:41:54Z</time>
      </trkpt>
      <trkpt lat="44.69307" lon="1.28743">
        <ele>133.4</ele>
        <time>2022-08-13T10:41:56Z</time>
      </trkpt>
      <trkpt lat="44.69312" lon="1.28754">
        <ele>133.4</ele>
        <time>2022-08-13T10:41:58Z</time>
      </trkpt>
      <trkpt lat="44.69317" lon="1.28765">
        <ele>133.4</ele>
        <time>2022-08-13T10:42:00Z</time>
      </trkpt>
      <trkpt lat="44.6932" lon="1.2877">
        <ele>132.4</ele>
        <time>2022-08-13T10:42:01Z</time>
      </trkpt>
      <trkpt lat="44.69323" lon="1.28776">
        <ele>132.4</ele>
        <time>2022-08-13T10:42:02Z</time>
      </trkpt>
      <trkpt lat="44.69326" lon="1.28781">
        <ele>132.4</ele>
        <time>2022-08-13T10:42:03Z</time>
      </trkpt>
      <trkpt lat="44.6933" lon="1.28786">
        <ele>132.4</ele>
        <time>2022-08-13T10:42:04Z</time>
      </trkpt>
      <trkpt lat="44.69334" lon="1.2879">
        <ele>132.4</ele>
        <time>2022-08-13T10:42:05Z</time>
      </trkpt>
      <trkpt lat="44.69338" lon="1.28794">
        <ele>132.4</ele>
        <time>2022-08-13T10:42:06Z</time>
      </trkpt>
      <trkpt lat="44.69341" lon="1.28798">
        <ele>132.4</ele>
        <time>2022-08-13T10:42:07Z</time>
      </trkpt>
      <trkpt lat="44.69345" lon="1.28802">
        <ele>132.4</ele>
        <time>2022-08-13T10:42:08Z</time>
      </trkpt>
      <trkpt lat="44.69349" lon="1.28805">
        <ele>133.4</ele>
        <time>2022-08-13T10:42:09Z</time>
      </trkpt>
      <trkpt lat="44.69353" lon="1.28809">
        <ele>133.4</ele>
        <time>2022-08-13T10:42:10Z</time>
      </trkpt>
      <trkpt lat="44.6936" lon="1.28814">
        <ele>133.4</ele>
        <time>2022-08-13T10:42:12Z</time>
      </trkpt>
      <trkpt lat="44.69366" lon="1.2882">
        <ele>133.4</ele>
        <time>2022-08-13T10:42:14Z</time>
      </trkpt>
      <trkpt lat="44.69369" lon="1.28826">
        <ele>133.4</ele>
        <time>2022-08-13T10:42:16Z</time>
      </trkpt>
      <trkpt lat="44.69372" lon="1.28831">
        <ele>133.4</ele>
        <time>2022-08-13T10:42:18Z</time>
      </trkpt>
      <trkpt lat="44.69375" lon="1.28839">
        <ele>133.4</ele>
        <time>2022-08-13T10:42:21Z</time>
      </trkpt>
      <trkpt lat="44.69377" lon="1.28846">
        <ele>133.4</ele>
        <time>2022-08-13T10:42:24Z</time>
      </trkpt>
      <trkpt lat="44.69379" lon="1.28853">
        <ele>133.3</ele>
        <time>2022-08-13T10:42:27Z</time>
      </trkpt>
      <trkpt lat="44.6938" lon="1.28862">
        <ele>134.4</ele>
        <time>2022-08-13T10:42:30Z</time>
      </trkpt>
      <trkpt lat="44.69379" lon="1.28869">
        <ele>134.4</ele>
        <time>2022-08-13T10:42:32Z</time>
      </trkpt>
      <trkpt lat="44.6938" lon="1.28876">
        <ele>134.4</ele>
        <time>2022-08-13T10:42:34Z</time>
      </trkpt>
      <trkpt lat="44.69379" lon="1.28883">
        <ele>133.4</ele>
        <time>2022-08-13T10:42:36Z</time>
      </trkpt>
      <trkpt lat="44.69378" lon="1.28889">
        <ele>133.4</ele>
        <time>2022-08-13T10:42:38Z</time>
      </trkpt>
      <trkpt lat="44.69377" lon="1.28896">
        <ele>133.4</ele>
        <time>2022-08-13T10:42:40Z</time>
      </trkpt>
      <trkpt lat="44.69375" lon="1.28903">
        <ele>132.4</ele>
        <time>2022-08-13T10:42:42Z</time>
      </trkpt>
      <trkpt lat="44.69375" lon="1.28911">
        <ele>132.4</ele>
        <time>2022-08-13T10:42:44Z</time>
      </trkpt>
      <trkpt lat="44.69373" lon="1.28919">
        <ele>131.4</ele>
        <time>2022-08-13T10:42:46Z</time>
      </trkpt>
      <trkpt lat="44.69373" lon="1.28926">
        <ele>131.4</ele>
        <time>2022-08-13T10:42:48Z</time>
      </trkpt>
      <trkpt lat="44.69372" lon="1.28933">
        <ele>130.4</ele>
        <time>2022-08-13T10:42:50Z</time>
      </trkpt>
      <trkpt lat="44.69373" lon="1.28942">
        <ele>130.4</ele>
        <time>2022-08-13T10:42:52Z</time>
      </trkpt>
      <trkpt lat="44.69373" lon="1.28951">
        <ele>130.4</ele>
        <time>2022-08-13T10:42:54Z</time>
      </trkpt>
      <trkpt lat="44.69373" lon="1.28959">
        <ele>130.4</ele>
        <time>2022-08-13T10:42:56Z</time>
      </trkpt>
      <trkpt lat="44.69374" lon="1.28967">
        <ele>130.4</ele>
        <time>2022-08-13T10:42:58Z</time>
      </trkpt>
      <trkpt lat="44.69375" lon="1.28973">
        <ele>129.4</ele>
        <time>2022-08-13T10:43:00Z</time>
      </trkpt>
      <trkpt lat="44.69376" lon="1.28982">
        <ele>130.4</ele>
        <time>2022-08-13T10:43:03Z</time>
      </trkpt>
      <trkpt lat="44.69377" lon="1.28988">
        <ele>130.4</ele>
        <time>2022-08-13T10:43:05Z</time>
      </trkpt>
      <trkpt lat="44.69377" lon="1.28996">
        <ele>130.4</ele>
        <time>2022-08-13T10:43:07Z</time>
      </trkpt>
      <trkpt lat="44.69378" lon="1.29006">
        <ele>130.4</ele>
        <time>2022-08-13T10:43:09Z</time>
      </trkpt>
      <trkpt lat="44.6938" lon="1.29016">
        <ele>130.4</ele>
        <time>2022-08-13T10:43:11Z</time>
      </trkpt>
      <trkpt lat="44.69383" lon="1.29026">
        <ele>131.4</ele>
        <time>2022-08-13T10:43:13Z</time>
      </trkpt>
      <trkpt lat="44.69385" lon="1.29034">
        <ele>133.4</ele>
        <time>2022-08-13T10:43:15Z</time>
      </trkpt>
      <trkpt lat="44.69387" lon="1.29042">
        <ele>134.4</ele>
        <time>2022-08-13T10:43:17Z</time>
      </trkpt>
      <trkpt lat="44.69388" lon="1.29049">
        <ele>136.4</ele>
        <time>2022-08-13T10:43:19Z</time>
      </trkpt>
      <trkpt lat="44.69389" lon="1.29057">
        <ele>137.4</ele>
        <time>2022-08-13T10:43:21Z</time>
      </trkpt>
      <trkpt lat="44.69389" lon="1.29066">
        <ele>138.4</ele>
        <time>2022-08-13T10:43:24Z</time>
      </trkpt>
      <trkpt lat="44.69388" lon="1.29075">
        <ele>139.4</ele>
        <time>2022-08-13T10:43:27Z</time>
      </trkpt>
      <trkpt lat="44.69388" lon="1.29083">
        <ele>140.4</ele>
        <time>2022-08-13T10:43:29Z</time>
      </trkpt>
      <trkpt lat="44.69389" lon="1.29091">
        <ele>142.3</ele>
        <time>2022-08-13T10:43:31Z</time>
      </trkpt>
      <trkpt lat="44.69392" lon="1.29099">
        <ele>142.4</ele>
        <time>2022-08-13T10:43:33Z</time>
      </trkpt>
      <trkpt lat="44.69394" lon="1.29108">
        <ele>143.4</ele>
        <time>2022-08-13T10:43:35Z</time>
      </trkpt>
      <trkpt lat="44.69396" lon="1.29116">
        <ele>142.4</ele>
        <time>2022-08-13T10:43:37Z</time>
      </trkpt>
      <trkpt lat="44.69398" lon="1.29124">
        <ele>141.4</ele>
        <time>2022-08-13T10:43:40Z</time>
      </trkpt>
      <trkpt lat="44.69402" lon="1.29124">
        <ele>141.4</ele>
        <time>2022-08-13T10:43:55Z</time>
      </trkpt>
      <trkpt lat="44.69408" lon="1.29122">
        <ele>141.4</ele>
        <time>2022-08-13T10:44:08Z</time>
      </trkpt>
      <trkpt lat="44.69403" lon="1.29124">
        <ele>141.4</ele>
        <time>2022-08-13T10:44:53Z</time>
      </trkpt>
      <trkpt lat="44.69398" lon="1.29126">
        <ele>141.4</ele>
        <time>2022-08-13T10:45:03Z</time>
      </trkpt>
      <trkpt lat="44.69394" lon="1.29129">
        <ele>142.4</ele>
        <time>2022-08-13T10:45:10Z</time>
      </trkpt>
      <trkpt lat="44.69399" lon="1.29131">
        <ele>141.4</ele>
        <time>2022-08-13T10:45:20Z</time>
      </trkpt>
      <trkpt lat="44.69395" lon="1.29126">
        <ele>138.4</ele>
        <time>2022-08-13T10:46:10Z</time>
      </trkpt>
      <trkpt lat="44.69398" lon="1.2913">
        <ele>138.4</ele>
        <time>2022-08-13T10:46:32Z</time>
      </trkpt>
      <trkpt lat="44.69393" lon="1.29129">
        <ele>138.4</ele>
        <time>2022-08-13T10:46:46Z</time>
      </trkpt>
      <trkpt lat="44.69397" lon="1.29125">
        <ele>135.4</ele>
        <time>2022-08-13T10:47:10Z</time>
      </trkpt>
    </trkseg>
  </trk>
</gpx>